<?xml version="1.0" encoding="UTF-8" standalone="no" ?>
<gpx xmlns="http://www.topografix.com/GPX/1/1" xmlns:xsi="http://www.w3.org/2001/XMLSchema-instance" xsi:schemaLocation="http://www.topografix.com/GPX/1/1 http://www.topografix.com/GPX/1/1/gpx.xsd" version="1.1" creator="VisuGPX - https://www.visugpx.com">
  <metadata>
    <name>Caroux - vire Guy Pistre</name>
    <desc><![CDATA[#enregistré #asptt-jeudi]]></desc>
  </metadata>
  <trk>
    <name><![CDATA[Trace 1778137377999]]></name>
    <trkseg>
      <trkpt lat="43.57332" lon="2.96723">
        <ele>248.6</ele>
        <time>2026-05-07T07:02:57.999Z</time>
      </trkpt>
      <trkpt lat="43.57332" lon="2.96723">
        <ele>248.5</ele>
        <time>2026-05-07T07:02:58.999Z</time>
      </trkpt>
      <trkpt lat="43.57332" lon="2.96722">
        <ele>248.4</ele>
        <time>2026-05-07T07:02:59.999Z</time>
      </trkpt>
      <trkpt lat="43.57333" lon="2.96722">
        <ele>248.3</ele>
        <time>2026-05-07T07:03:00.999Z</time>
      </trkpt>
      <trkpt lat="43.57334" lon="2.96721">
        <ele>248</ele>
        <time>2026-05-07T07:03:01.999Z</time>
      </trkpt>
      <trkpt lat="43.57335" lon="2.96721">
        <ele>247.8</ele>
        <time>2026-05-07T07:03:02.999Z</time>
      </trkpt>
      <trkpt lat="43.57336" lon="2.96721">
        <ele>247.7</ele>
        <time>2026-05-07T07:03:03.999Z</time>
      </trkpt>
      <trkpt lat="43.57337" lon="2.9672">
        <ele>247.8</ele>
        <time>2026-05-07T07:03:04.999Z</time>
      </trkpt>
      <trkpt lat="43.57339" lon="2.9672">
        <ele>248.4</ele>
        <time>2026-05-07T07:03:05.999Z</time>
      </trkpt>
      <trkpt lat="43.5734" lon="2.9672">
        <ele>247.9</ele>
        <time>2026-05-07T07:03:06.999Z</time>
      </trkpt>
      <trkpt lat="43.57341" lon="2.96719">
        <ele>247.2</ele>
        <time>2026-05-07T07:03:07.999Z</time>
      </trkpt>
      <trkpt lat="43.57343" lon="2.96719">
        <ele>246.9</ele>
        <time>2026-05-07T07:03:08.999Z</time>
      </trkpt>
      <trkpt lat="43.57344" lon="2.96719">
        <ele>246.5</ele>
        <time>2026-05-07T07:03:09.999Z</time>
      </trkpt>
      <trkpt lat="43.57346" lon="2.96719">
        <ele>246.7</ele>
        <time>2026-05-07T07:03:10.999Z</time>
      </trkpt>
      <trkpt lat="43.57347" lon="2.9672">
        <ele>246.8</ele>
        <time>2026-05-07T07:03:11.999Z</time>
      </trkpt>
      <trkpt lat="43.57348" lon="2.96721">
        <ele>246.5</ele>
        <time>2026-05-07T07:03:12.999Z</time>
      </trkpt>
      <trkpt lat="43.57349" lon="2.96722">
        <ele>246.4</ele>
        <time>2026-05-07T07:03:13.999Z</time>
      </trkpt>
      <trkpt lat="43.5735" lon="2.96722">
        <ele>246</ele>
        <time>2026-05-07T07:03:14.999Z</time>
      </trkpt>
      <trkpt lat="43.57351" lon="2.96722">
        <ele>245.8</ele>
        <time>2026-05-07T07:03:15.999Z</time>
      </trkpt>
      <trkpt lat="43.57351" lon="2.96722">
        <ele>245.5</ele>
        <time>2026-05-07T07:03:16.999Z</time>
      </trkpt>
      <trkpt lat="43.57352" lon="2.96721">
        <ele>245.3</ele>
        <time>2026-05-07T07:03:17.999Z</time>
      </trkpt>
      <trkpt lat="43.57354" lon="2.96721">
        <ele>245.2</ele>
        <time>2026-05-07T07:03:18.999Z</time>
      </trkpt>
      <trkpt lat="43.57355" lon="2.9672">
        <ele>244.8</ele>
        <time>2026-05-07T07:03:19.999Z</time>
      </trkpt>
      <trkpt lat="43.57355" lon="2.9672">
        <ele>244.4</ele>
        <time>2026-05-07T07:03:20.999Z</time>
      </trkpt>
      <trkpt lat="43.57356" lon="2.9672">
        <ele>244.6</ele>
        <time>2026-05-07T07:03:21.999Z</time>
      </trkpt>
      <trkpt lat="43.57357" lon="2.96719">
        <ele>244.7</ele>
        <time>2026-05-07T07:03:22.999Z</time>
      </trkpt>
      <trkpt lat="43.57358" lon="2.96719">
        <ele>244.3</ele>
        <time>2026-05-07T07:03:23.999Z</time>
      </trkpt>
      <trkpt lat="43.57359" lon="2.96718">
        <ele>244.3</ele>
        <time>2026-05-07T07:03:24.999Z</time>
      </trkpt>
      <trkpt lat="43.5736" lon="2.96717">
        <ele>244</ele>
        <time>2026-05-07T07:03:25.999Z</time>
      </trkpt>
      <trkpt lat="43.57361" lon="2.96717">
        <ele>243.8</ele>
        <time>2026-05-07T07:03:26.999Z</time>
      </trkpt>
      <trkpt lat="43.57362" lon="2.96717">
        <ele>243.9</ele>
        <time>2026-05-07T07:03:27.999Z</time>
      </trkpt>
      <trkpt lat="43.57363" lon="2.96717">
        <ele>244.2</ele>
        <time>2026-05-07T07:03:28.999Z</time>
      </trkpt>
      <trkpt lat="43.57363" lon="2.96716">
        <ele>244.5</ele>
        <time>2026-05-07T07:03:29.999Z</time>
      </trkpt>
      <trkpt lat="43.57364" lon="2.96716">
        <ele>244.9</ele>
        <time>2026-05-07T07:03:30.999Z</time>
      </trkpt>
      <trkpt lat="43.57365" lon="2.96716">
        <ele>245.2</ele>
        <time>2026-05-07T07:03:31.999Z</time>
      </trkpt>
      <trkpt lat="43.57366" lon="2.96716">
        <ele>245.1</ele>
        <time>2026-05-07T07:03:32.999Z</time>
      </trkpt>
      <trkpt lat="43.57367" lon="2.96716">
        <ele>245.3</ele>
        <time>2026-05-07T07:03:33.999Z</time>
      </trkpt>
      <trkpt lat="43.57368" lon="2.96716">
        <ele>245.1</ele>
        <time>2026-05-07T07:03:34.999Z</time>
      </trkpt>
      <trkpt lat="43.57369" lon="2.96716">
        <ele>245.1</ele>
        <time>2026-05-07T07:03:35.999Z</time>
      </trkpt>
      <trkpt lat="43.5737" lon="2.96716">
        <ele>245.5</ele>
        <time>2026-05-07T07:03:36.999Z</time>
      </trkpt>
      <trkpt lat="43.57371" lon="2.96716">
        <ele>245.5</ele>
        <time>2026-05-07T07:03:37.999Z</time>
      </trkpt>
      <trkpt lat="43.57373" lon="2.96716">
        <ele>245.6</ele>
        <time>2026-05-07T07:03:38.999Z</time>
      </trkpt>
      <trkpt lat="43.57374" lon="2.96716">
        <ele>245.5</ele>
        <time>2026-05-07T07:03:39.999Z</time>
      </trkpt>
      <trkpt lat="43.57375" lon="2.96715">
        <ele>245.1</ele>
        <time>2026-05-07T07:03:40.999Z</time>
      </trkpt>
      <trkpt lat="43.57376" lon="2.96714">
        <ele>245.3</ele>
        <time>2026-05-07T07:03:41.999Z</time>
      </trkpt>
      <trkpt lat="43.57377" lon="2.96714">
        <ele>246.3</ele>
        <time>2026-05-07T07:03:42.999Z</time>
      </trkpt>
      <trkpt lat="43.57378" lon="2.96713">
        <ele>246.2</ele>
        <time>2026-05-07T07:03:43.999Z</time>
      </trkpt>
      <trkpt lat="43.57378" lon="2.96713">
        <ele>245.9</ele>
        <time>2026-05-07T07:03:44.999Z</time>
      </trkpt>
      <trkpt lat="43.57379" lon="2.96712">
        <ele>246.2</ele>
        <time>2026-05-07T07:03:45.999Z</time>
      </trkpt>
      <trkpt lat="43.5738" lon="2.96712">
        <ele>245.8</ele>
        <time>2026-05-07T07:03:46.999Z</time>
      </trkpt>
      <trkpt lat="43.57381" lon="2.96711">
        <ele>246.3</ele>
        <time>2026-05-07T07:03:47.999Z</time>
      </trkpt>
      <trkpt lat="43.57381" lon="2.96711">
        <ele>246.8</ele>
        <time>2026-05-07T07:03:48.999Z</time>
      </trkpt>
      <trkpt lat="43.57382" lon="2.96711">
        <ele>247.4</ele>
        <time>2026-05-07T07:03:49.999Z</time>
      </trkpt>
      <trkpt lat="43.57383" lon="2.96711">
        <ele>248.5</ele>
        <time>2026-05-07T07:03:50.999Z</time>
      </trkpt>
      <trkpt lat="43.57384" lon="2.9671">
        <ele>248.6</ele>
        <time>2026-05-07T07:03:51.999Z</time>
      </trkpt>
      <trkpt lat="43.57384" lon="2.9671">
        <ele>248.6</ele>
        <time>2026-05-07T07:03:52.999Z</time>
      </trkpt>
      <trkpt lat="43.57385" lon="2.96709">
        <ele>248.3</ele>
        <time>2026-05-07T07:03:53.999Z</time>
      </trkpt>
      <trkpt lat="43.57386" lon="2.96708">
        <ele>248</ele>
        <time>2026-05-07T07:03:54.999Z</time>
      </trkpt>
      <trkpt lat="43.57389" lon="2.96708">
        <ele>248.9</ele>
        <time>2026-05-07T07:03:55.999Z</time>
      </trkpt>
      <trkpt lat="43.57391" lon="2.96707">
        <ele>249.5</ele>
        <time>2026-05-07T07:03:56.999Z</time>
      </trkpt>
      <trkpt lat="43.57392" lon="2.96707">
        <ele>249</ele>
        <time>2026-05-07T07:03:57.999Z</time>
      </trkpt>
      <trkpt lat="43.57393" lon="2.96706">
        <ele>248.8</ele>
        <time>2026-05-07T07:03:58.999Z</time>
      </trkpt>
      <trkpt lat="43.57394" lon="2.96706">
        <ele>249</ele>
        <time>2026-05-07T07:03:59.999Z</time>
      </trkpt>
      <trkpt lat="43.57395" lon="2.96706">
        <ele>249.5</ele>
        <time>2026-05-07T07:04:00.999Z</time>
      </trkpt>
      <trkpt lat="43.57396" lon="2.96705">
        <ele>250.1</ele>
        <time>2026-05-07T07:04:01.999Z</time>
      </trkpt>
      <trkpt lat="43.57397" lon="2.96705">
        <ele>250.3</ele>
        <time>2026-05-07T07:04:02.999Z</time>
      </trkpt>
      <trkpt lat="43.57398" lon="2.96705">
        <ele>250.7</ele>
        <time>2026-05-07T07:04:03.999Z</time>
      </trkpt>
      <trkpt lat="43.57398" lon="2.96705">
        <ele>250.6</ele>
        <time>2026-05-07T07:04:04.999Z</time>
      </trkpt>
      <trkpt lat="43.574" lon="2.96704">
        <ele>250.4</ele>
        <time>2026-05-07T07:04:05.999Z</time>
      </trkpt>
      <trkpt lat="43.57401" lon="2.96704">
        <ele>250.8</ele>
        <time>2026-05-07T07:04:06.999Z</time>
      </trkpt>
      <trkpt lat="43.57402" lon="2.96703">
        <ele>251.1</ele>
        <time>2026-05-07T07:04:07.999Z</time>
      </trkpt>
      <trkpt lat="43.57403" lon="2.96703">
        <ele>250.9</ele>
        <time>2026-05-07T07:04:08.999Z</time>
      </trkpt>
      <trkpt lat="43.57404" lon="2.96703">
        <ele>250.7</ele>
        <time>2026-05-07T07:04:09.999Z</time>
      </trkpt>
      <trkpt lat="43.57405" lon="2.96703">
        <ele>250.4</ele>
        <time>2026-05-07T07:04:10.999Z</time>
      </trkpt>
      <trkpt lat="43.57406" lon="2.96702">
        <ele>250.3</ele>
        <time>2026-05-07T07:04:11.999Z</time>
      </trkpt>
      <trkpt lat="43.57406" lon="2.96701">
        <ele>250.4</ele>
        <time>2026-05-07T07:04:12.999Z</time>
      </trkpt>
      <trkpt lat="43.57408" lon="2.96701">
        <ele>250.2</ele>
        <time>2026-05-07T07:04:13.999Z</time>
      </trkpt>
      <trkpt lat="43.57409" lon="2.967">
        <ele>249.8</ele>
        <time>2026-05-07T07:04:14.999Z</time>
      </trkpt>
      <trkpt lat="43.5741" lon="2.96699">
        <ele>250.2</ele>
        <time>2026-05-07T07:04:15.999Z</time>
      </trkpt>
      <trkpt lat="43.57411" lon="2.96698">
        <ele>250.9</ele>
        <time>2026-05-07T07:04:16.999Z</time>
      </trkpt>
      <trkpt lat="43.57412" lon="2.96698">
        <ele>251.3</ele>
        <time>2026-05-07T07:04:17.999Z</time>
      </trkpt>
      <trkpt lat="43.57414" lon="2.96697">
        <ele>251.5</ele>
        <time>2026-05-07T07:04:18.999Z</time>
      </trkpt>
      <trkpt lat="43.57414" lon="2.96696">
        <ele>251.5</ele>
        <time>2026-05-07T07:04:19.999Z</time>
      </trkpt>
      <trkpt lat="43.57415" lon="2.96695">
        <ele>251.5</ele>
        <time>2026-05-07T07:04:20.999Z</time>
      </trkpt>
      <trkpt lat="43.57416" lon="2.96695">
        <ele>251.4</ele>
        <time>2026-05-07T07:04:21.999Z</time>
      </trkpt>
      <trkpt lat="43.57416" lon="2.96695">
        <ele>251.2</ele>
        <time>2026-05-07T07:04:22.999Z</time>
      </trkpt>
      <trkpt lat="43.57416" lon="2.96694">
        <ele>251.5</ele>
        <time>2026-05-07T07:04:23.999Z</time>
      </trkpt>
      <trkpt lat="43.57417" lon="2.96693">
        <ele>251.8</ele>
        <time>2026-05-07T07:04:24.999Z</time>
      </trkpt>
      <trkpt lat="43.57417" lon="2.96692">
        <ele>251.5</ele>
        <time>2026-05-07T07:04:25.999Z</time>
      </trkpt>
      <trkpt lat="43.57418" lon="2.96691">
        <ele>251.6</ele>
        <time>2026-05-07T07:04:26.999Z</time>
      </trkpt>
      <trkpt lat="43.5742" lon="2.9669">
        <ele>251.5</ele>
        <time>2026-05-07T07:04:27.999Z</time>
      </trkpt>
      <trkpt lat="43.57421" lon="2.96691">
        <ele>251.5</ele>
        <time>2026-05-07T07:04:28.999Z</time>
      </trkpt>
      <trkpt lat="43.57423" lon="2.9669">
        <ele>251.5</ele>
        <time>2026-05-07T07:04:29.999Z</time>
      </trkpt>
      <trkpt lat="43.57425" lon="2.96689">
        <ele>251.8</ele>
        <time>2026-05-07T07:04:30.999Z</time>
      </trkpt>
      <trkpt lat="43.57426" lon="2.96688">
        <ele>252.4</ele>
        <time>2026-05-07T07:04:31.999Z</time>
      </trkpt>
      <trkpt lat="43.57428" lon="2.96688">
        <ele>252.7</ele>
        <time>2026-05-07T07:04:32.999Z</time>
      </trkpt>
      <trkpt lat="43.57429" lon="2.96687">
        <ele>252.9</ele>
        <time>2026-05-07T07:04:33.999Z</time>
      </trkpt>
      <trkpt lat="43.5743" lon="2.96686">
        <ele>253.3</ele>
        <time>2026-05-07T07:04:34.999Z</time>
      </trkpt>
      <trkpt lat="43.5743" lon="2.96685">
        <ele>254</ele>
        <time>2026-05-07T07:04:35.999Z</time>
      </trkpt>
      <trkpt lat="43.5743" lon="2.96683">
        <ele>254</ele>
        <time>2026-05-07T07:04:36.999Z</time>
      </trkpt>
      <trkpt lat="43.57431" lon="2.96681">
        <ele>254.1</ele>
        <time>2026-05-07T07:04:37.999Z</time>
      </trkpt>
      <trkpt lat="43.57431" lon="2.96679">
        <ele>254.4</ele>
        <time>2026-05-07T07:04:38.999Z</time>
      </trkpt>
      <trkpt lat="43.57431" lon="2.96677">
        <ele>254.1</ele>
        <time>2026-05-07T07:04:39.999Z</time>
      </trkpt>
      <trkpt lat="43.57431" lon="2.96676">
        <ele>254.7</ele>
        <time>2026-05-07T07:04:40.999Z</time>
      </trkpt>
      <trkpt lat="43.57432" lon="2.96675">
        <ele>255.2</ele>
        <time>2026-05-07T07:04:41.999Z</time>
      </trkpt>
      <trkpt lat="43.57432" lon="2.96674">
        <ele>255.7</ele>
        <time>2026-05-07T07:04:42.999Z</time>
      </trkpt>
      <trkpt lat="43.57433" lon="2.96672">
        <ele>255.8</ele>
        <time>2026-05-07T07:04:43.999Z</time>
      </trkpt>
      <trkpt lat="43.57434" lon="2.96671">
        <ele>255.4</ele>
        <time>2026-05-07T07:04:44.999Z</time>
      </trkpt>
      <trkpt lat="43.57435" lon="2.96669">
        <ele>255</ele>
        <time>2026-05-07T07:04:45.999Z</time>
      </trkpt>
      <trkpt lat="43.57436" lon="2.96669">
        <ele>254.5</ele>
        <time>2026-05-07T07:04:46.999Z</time>
      </trkpt>
      <trkpt lat="43.57436" lon="2.96668">
        <ele>254.4</ele>
        <time>2026-05-07T07:04:47.999Z</time>
      </trkpt>
      <trkpt lat="43.57436" lon="2.96667">
        <ele>254.5</ele>
        <time>2026-05-07T07:04:48.999Z</time>
      </trkpt>
      <trkpt lat="43.57437" lon="2.96666">
        <ele>255.1</ele>
        <time>2026-05-07T07:04:49.999Z</time>
      </trkpt>
      <trkpt lat="43.57438" lon="2.96665">
        <ele>255.7</ele>
        <time>2026-05-07T07:04:50.999Z</time>
      </trkpt>
      <trkpt lat="43.57439" lon="2.96664">
        <ele>256.1</ele>
        <time>2026-05-07T07:04:51.999Z</time>
      </trkpt>
      <trkpt lat="43.57441" lon="2.96664">
        <ele>256.1</ele>
        <time>2026-05-07T07:04:52.999Z</time>
      </trkpt>
      <trkpt lat="43.57442" lon="2.96663">
        <ele>256.1</ele>
        <time>2026-05-07T07:04:53.999Z</time>
      </trkpt>
      <trkpt lat="43.57444" lon="2.96661">
        <ele>255.5</ele>
        <time>2026-05-07T07:04:54.999Z</time>
      </trkpt>
      <trkpt lat="43.57446" lon="2.96661">
        <ele>255.9</ele>
        <time>2026-05-07T07:04:55.999Z</time>
      </trkpt>
      <trkpt lat="43.57448" lon="2.96661">
        <ele>255.4</ele>
        <time>2026-05-07T07:04:56.999Z</time>
      </trkpt>
      <trkpt lat="43.57449" lon="2.96661">
        <ele>255.6</ele>
        <time>2026-05-07T07:04:57.999Z</time>
      </trkpt>
      <trkpt lat="43.5745" lon="2.96661">
        <ele>255.7</ele>
        <time>2026-05-07T07:04:58.999Z</time>
      </trkpt>
      <trkpt lat="43.57451" lon="2.9666">
        <ele>255.8</ele>
        <time>2026-05-07T07:04:59.999Z</time>
      </trkpt>
      <trkpt lat="43.57454" lon="2.96659">
        <ele>255.3</ele>
        <time>2026-05-07T07:05:01.999Z</time>
      </trkpt>
      <trkpt lat="43.57455" lon="2.96658">
        <ele>255.5</ele>
        <time>2026-05-07T07:05:02.999Z</time>
      </trkpt>
      <trkpt lat="43.57456" lon="2.96657">
        <ele>255.7</ele>
        <time>2026-05-07T07:05:03.999Z</time>
      </trkpt>
      <trkpt lat="43.57456" lon="2.96657">
        <ele>255.5</ele>
        <time>2026-05-07T07:05:04.999Z</time>
      </trkpt>
      <trkpt lat="43.57457" lon="2.96657">
        <ele>255.9</ele>
        <time>2026-05-07T07:05:05.999Z</time>
      </trkpt>
      <trkpt lat="43.57459" lon="2.96656">
        <ele>256.2</ele>
        <time>2026-05-07T07:05:06.999Z</time>
      </trkpt>
      <trkpt lat="43.5746" lon="2.96657">
        <ele>256.4</ele>
        <time>2026-05-07T07:05:07.999Z</time>
      </trkpt>
      <trkpt lat="43.57462" lon="2.96656">
        <ele>256.4</ele>
        <time>2026-05-07T07:05:08.999Z</time>
      </trkpt>
      <trkpt lat="43.57463" lon="2.96656">
        <ele>256.1</ele>
        <time>2026-05-07T07:05:09.999Z</time>
      </trkpt>
      <trkpt lat="43.57464" lon="2.96655">
        <ele>255.4</ele>
        <time>2026-05-07T07:05:10.999Z</time>
      </trkpt>
      <trkpt lat="43.57465" lon="2.96655">
        <ele>254.2</ele>
        <time>2026-05-07T07:05:11.999Z</time>
      </trkpt>
      <trkpt lat="43.57466" lon="2.96655">
        <ele>254.2</ele>
        <time>2026-05-07T07:05:12.999Z</time>
      </trkpt>
      <trkpt lat="43.57467" lon="2.96654">
        <ele>254</ele>
        <time>2026-05-07T07:05:13.999Z</time>
      </trkpt>
      <trkpt lat="43.57467" lon="2.96654">
        <ele>254.6</ele>
        <time>2026-05-07T07:05:14.999Z</time>
      </trkpt>
      <trkpt lat="43.57467" lon="2.96653">
        <ele>254.7</ele>
        <time>2026-05-07T07:05:15.999Z</time>
      </trkpt>
      <trkpt lat="43.57467" lon="2.96652">
        <ele>255.3</ele>
        <time>2026-05-07T07:05:16.999Z</time>
      </trkpt>
      <trkpt lat="43.57467" lon="2.96652">
        <ele>255.5</ele>
        <time>2026-05-07T07:05:17.999Z</time>
      </trkpt>
      <trkpt lat="43.57468" lon="2.96652">
        <ele>255.2</ele>
        <time>2026-05-07T07:05:18.999Z</time>
      </trkpt>
      <trkpt lat="43.57468" lon="2.96652">
        <ele>255.3</ele>
        <time>2026-05-07T07:05:19.999Z</time>
      </trkpt>
      <trkpt lat="43.57468" lon="2.96652">
        <ele>254.8</ele>
        <time>2026-05-07T07:05:20.999Z</time>
      </trkpt>
      <trkpt lat="43.57469" lon="2.96651">
        <ele>254.5</ele>
        <time>2026-05-07T07:05:21.999Z</time>
      </trkpt>
      <trkpt lat="43.5747" lon="2.9665">
        <ele>254.4</ele>
        <time>2026-05-07T07:05:22.999Z</time>
      </trkpt>
      <trkpt lat="43.5747" lon="2.96649">
        <ele>254.4</ele>
        <time>2026-05-07T07:05:23.999Z</time>
      </trkpt>
      <trkpt lat="43.5747" lon="2.96648">
        <ele>254.6</ele>
        <time>2026-05-07T07:05:24.999Z</time>
      </trkpt>
      <trkpt lat="43.57471" lon="2.96648">
        <ele>254.7</ele>
        <time>2026-05-07T07:05:25.999Z</time>
      </trkpt>
      <trkpt lat="43.57472" lon="2.96647">
        <ele>254.8</ele>
        <time>2026-05-07T07:05:26.999Z</time>
      </trkpt>
      <trkpt lat="43.57473" lon="2.96645">
        <ele>254.3</ele>
        <time>2026-05-07T07:05:27.999Z</time>
      </trkpt>
      <trkpt lat="43.57473" lon="2.96643">
        <ele>254.1</ele>
        <time>2026-05-07T07:05:28.999Z</time>
      </trkpt>
      <trkpt lat="43.57475" lon="2.96641">
        <ele>253.6</ele>
        <time>2026-05-07T07:05:29.999Z</time>
      </trkpt>
      <trkpt lat="43.57477" lon="2.9664">
        <ele>253.7</ele>
        <time>2026-05-07T07:05:30.999Z</time>
      </trkpt>
      <trkpt lat="43.57479" lon="2.96639">
        <ele>253.3</ele>
        <time>2026-05-07T07:05:31.999Z</time>
      </trkpt>
      <trkpt lat="43.57481" lon="2.96638">
        <ele>252.7</ele>
        <time>2026-05-07T07:05:32.999Z</time>
      </trkpt>
      <trkpt lat="43.57482" lon="2.96637">
        <ele>252.9</ele>
        <time>2026-05-07T07:05:33.999Z</time>
      </trkpt>
      <trkpt lat="43.57484" lon="2.96636">
        <ele>253.2</ele>
        <time>2026-05-07T07:05:34.999Z</time>
      </trkpt>
      <trkpt lat="43.57485" lon="2.96636">
        <ele>252.9</ele>
        <time>2026-05-07T07:05:35.999Z</time>
      </trkpt>
      <trkpt lat="43.57486" lon="2.96635">
        <ele>253.2</ele>
        <time>2026-05-07T07:05:36.999Z</time>
      </trkpt>
      <trkpt lat="43.57488" lon="2.96635">
        <ele>253.9</ele>
        <time>2026-05-07T07:05:37.999Z</time>
      </trkpt>
      <trkpt lat="43.5749" lon="2.96635">
        <ele>253.8</ele>
        <time>2026-05-07T07:05:38.999Z</time>
      </trkpt>
      <trkpt lat="43.57492" lon="2.96635">
        <ele>253.5</ele>
        <time>2026-05-07T07:05:39.999Z</time>
      </trkpt>
      <trkpt lat="43.57493" lon="2.96636">
        <ele>253.3</ele>
        <time>2026-05-07T07:05:40.999Z</time>
      </trkpt>
      <trkpt lat="43.57494" lon="2.96636">
        <ele>253.1</ele>
        <time>2026-05-07T07:05:41.999Z</time>
      </trkpt>
      <trkpt lat="43.57495" lon="2.96636">
        <ele>253.1</ele>
        <time>2026-05-07T07:05:42.999Z</time>
      </trkpt>
      <trkpt lat="43.57495" lon="2.96635">
        <ele>252.9</ele>
        <time>2026-05-07T07:05:43.999Z</time>
      </trkpt>
      <trkpt lat="43.57496" lon="2.96635">
        <ele>252.5</ele>
        <time>2026-05-07T07:05:44.999Z</time>
      </trkpt>
      <trkpt lat="43.57497" lon="2.96634">
        <ele>252.5</ele>
        <time>2026-05-07T07:05:45.999Z</time>
      </trkpt>
      <trkpt lat="43.57498" lon="2.96634">
        <ele>252.8</ele>
        <time>2026-05-07T07:05:46.999Z</time>
      </trkpt>
      <trkpt lat="43.57499" lon="2.96633">
        <ele>253.2</ele>
        <time>2026-05-07T07:05:47.999Z</time>
      </trkpt>
      <trkpt lat="43.57499" lon="2.96633">
        <ele>252.8</ele>
        <time>2026-05-07T07:05:49.000Z</time>
      </trkpt>
      <trkpt lat="43.57499" lon="2.96632">
        <ele>252.8</ele>
        <time>2026-05-07T07:05:50.000Z</time>
      </trkpt>
      <trkpt lat="43.575" lon="2.9663">
        <ele>253.2</ele>
        <time>2026-05-07T07:05:51.000Z</time>
      </trkpt>
      <trkpt lat="43.57501" lon="2.96629">
        <ele>253</ele>
        <time>2026-05-07T07:05:52.000Z</time>
      </trkpt>
      <trkpt lat="43.57502" lon="2.96628">
        <ele>252.9</ele>
        <time>2026-05-07T07:05:53.000Z</time>
      </trkpt>
      <trkpt lat="43.57503" lon="2.96627">
        <ele>252.7</ele>
        <time>2026-05-07T07:05:54.000Z</time>
      </trkpt>
      <trkpt lat="43.57504" lon="2.96627">
        <ele>252.7</ele>
        <time>2026-05-07T07:05:55.000Z</time>
      </trkpt>
      <trkpt lat="43.57505" lon="2.96627">
        <ele>252.1</ele>
        <time>2026-05-07T07:05:56.000Z</time>
      </trkpt>
      <trkpt lat="43.57506" lon="2.96627">
        <ele>251.3</ele>
        <time>2026-05-07T07:05:57.000Z</time>
      </trkpt>
      <trkpt lat="43.57507" lon="2.96626">
        <ele>250.7</ele>
        <time>2026-05-07T07:05:58.000Z</time>
      </trkpt>
      <trkpt lat="43.57508" lon="2.96626">
        <ele>250.5</ele>
        <time>2026-05-07T07:05:59.000Z</time>
      </trkpt>
      <trkpt lat="43.57509" lon="2.96626">
        <ele>249.3</ele>
        <time>2026-05-07T07:06:00.000Z</time>
      </trkpt>
      <trkpt lat="43.5751" lon="2.96626">
        <ele>248.8</ele>
        <time>2026-05-07T07:06:01.000Z</time>
      </trkpt>
      <trkpt lat="43.57511" lon="2.96626">
        <ele>248.9</ele>
        <time>2026-05-07T07:06:02.000Z</time>
      </trkpt>
      <trkpt lat="43.57512" lon="2.96625">
        <ele>249.1</ele>
        <time>2026-05-07T07:06:03.000Z</time>
      </trkpt>
      <trkpt lat="43.57514" lon="2.96624">
        <ele>249</ele>
        <time>2026-05-07T07:06:04.000Z</time>
      </trkpt>
      <trkpt lat="43.57515" lon="2.96624">
        <ele>248.8</ele>
        <time>2026-05-07T07:06:05.000Z</time>
      </trkpt>
      <trkpt lat="43.57516" lon="2.96624">
        <ele>249.1</ele>
        <time>2026-05-07T07:06:06.000Z</time>
      </trkpt>
      <trkpt lat="43.57517" lon="2.96624">
        <ele>249.4</ele>
        <time>2026-05-07T07:06:07.000Z</time>
      </trkpt>
      <trkpt lat="43.57518" lon="2.96624">
        <ele>249.1</ele>
        <time>2026-05-07T07:06:08.000Z</time>
      </trkpt>
      <trkpt lat="43.5752" lon="2.96623">
        <ele>249</ele>
        <time>2026-05-07T07:06:09.000Z</time>
      </trkpt>
      <trkpt lat="43.57521" lon="2.96623">
        <ele>248.7</ele>
        <time>2026-05-07T07:06:10.000Z</time>
      </trkpt>
      <trkpt lat="43.57523" lon="2.96622">
        <ele>248.4</ele>
        <time>2026-05-07T07:06:11.000Z</time>
      </trkpt>
      <trkpt lat="43.57524" lon="2.96622">
        <ele>248.2</ele>
        <time>2026-05-07T07:06:12.000Z</time>
      </trkpt>
      <trkpt lat="43.57526" lon="2.96622">
        <ele>248.5</ele>
        <time>2026-05-07T07:06:13.000Z</time>
      </trkpt>
      <trkpt lat="43.57526" lon="2.96622">
        <ele>248.5</ele>
        <time>2026-05-07T07:06:14.000Z</time>
      </trkpt>
      <trkpt lat="43.57527" lon="2.96623">
        <ele>248.9</ele>
        <time>2026-05-07T07:06:15.000Z</time>
      </trkpt>
      <trkpt lat="43.57527" lon="2.96622">
        <ele>248.5</ele>
        <time>2026-05-07T07:06:16.000Z</time>
      </trkpt>
      <trkpt lat="43.57528" lon="2.96622">
        <ele>248.5</ele>
        <time>2026-05-07T07:06:17.000Z</time>
      </trkpt>
      <trkpt lat="43.5753" lon="2.96622">
        <ele>249.4</ele>
        <time>2026-05-07T07:06:18.000Z</time>
      </trkpt>
      <trkpt lat="43.57532" lon="2.96622">
        <ele>249.4</ele>
        <time>2026-05-07T07:06:19.000Z</time>
      </trkpt>
      <trkpt lat="43.57533" lon="2.96622">
        <ele>248.9</ele>
        <time>2026-05-07T07:06:20.000Z</time>
      </trkpt>
      <trkpt lat="43.57535" lon="2.96623">
        <ele>248.6</ele>
        <time>2026-05-07T07:06:21.000Z</time>
      </trkpt>
      <trkpt lat="43.57536" lon="2.96623">
        <ele>248.3</ele>
        <time>2026-05-07T07:06:22.000Z</time>
      </trkpt>
      <trkpt lat="43.57538" lon="2.96622">
        <ele>248.2</ele>
        <time>2026-05-07T07:06:23.000Z</time>
      </trkpt>
      <trkpt lat="43.57538" lon="2.96621">
        <ele>248.1</ele>
        <time>2026-05-07T07:06:24.000Z</time>
      </trkpt>
      <trkpt lat="43.57538" lon="2.96621">
        <ele>247.5</ele>
        <time>2026-05-07T07:06:25.000Z</time>
      </trkpt>
      <trkpt lat="43.57539" lon="2.9662">
        <ele>247.2</ele>
        <time>2026-05-07T07:06:26.000Z</time>
      </trkpt>
      <trkpt lat="43.5754" lon="2.9662">
        <ele>246.8</ele>
        <time>2026-05-07T07:06:27.000Z</time>
      </trkpt>
      <trkpt lat="43.57541" lon="2.96619">
        <ele>246.2</ele>
        <time>2026-05-07T07:06:28.000Z</time>
      </trkpt>
      <trkpt lat="43.57542" lon="2.96619">
        <ele>246.7</ele>
        <time>2026-05-07T07:06:29.000Z</time>
      </trkpt>
      <trkpt lat="43.57542" lon="2.96619">
        <ele>247.2</ele>
        <time>2026-05-07T07:06:30.000Z</time>
      </trkpt>
      <trkpt lat="43.57543" lon="2.96619">
        <ele>246.6</ele>
        <time>2026-05-07T07:06:31.000Z</time>
      </trkpt>
      <trkpt lat="43.57544" lon="2.96619">
        <ele>246.3</ele>
        <time>2026-05-07T07:06:32.000Z</time>
      </trkpt>
      <trkpt lat="43.57546" lon="2.96619">
        <ele>246.3</ele>
        <time>2026-05-07T07:06:33.000Z</time>
      </trkpt>
      <trkpt lat="43.57547" lon="2.96619">
        <ele>246.2</ele>
        <time>2026-05-07T07:06:34.000Z</time>
      </trkpt>
      <trkpt lat="43.57549" lon="2.96618">
        <ele>245.7</ele>
        <time>2026-05-07T07:06:35.000Z</time>
      </trkpt>
      <trkpt lat="43.57551" lon="2.96618">
        <ele>246</ele>
        <time>2026-05-07T07:06:36.000Z</time>
      </trkpt>
      <trkpt lat="43.57553" lon="2.96617">
        <ele>246.3</ele>
        <time>2026-05-07T07:06:37.000Z</time>
      </trkpt>
      <trkpt lat="43.57555" lon="2.96617">
        <ele>246.7</ele>
        <time>2026-05-07T07:06:38.000Z</time>
      </trkpt>
      <trkpt lat="43.57556" lon="2.96616">
        <ele>246.7</ele>
        <time>2026-05-07T07:06:39.000Z</time>
      </trkpt>
      <trkpt lat="43.57557" lon="2.96617">
        <ele>245.8</ele>
        <time>2026-05-07T07:06:40.000Z</time>
      </trkpt>
      <trkpt lat="43.57558" lon="2.96616">
        <ele>245.8</ele>
        <time>2026-05-07T07:06:41.000Z</time>
      </trkpt>
      <trkpt lat="43.57559" lon="2.96616">
        <ele>245.1</ele>
        <time>2026-05-07T07:06:42.000Z</time>
      </trkpt>
      <trkpt lat="43.5756" lon="2.96614">
        <ele>245.5</ele>
        <time>2026-05-07T07:06:43.000Z</time>
      </trkpt>
      <trkpt lat="43.57561" lon="2.96613">
        <ele>245.4</ele>
        <time>2026-05-07T07:06:44.000Z</time>
      </trkpt>
      <trkpt lat="43.57562" lon="2.96612">
        <ele>245.4</ele>
        <time>2026-05-07T07:06:45.000Z</time>
      </trkpt>
      <trkpt lat="43.57564" lon="2.96611">
        <ele>245</ele>
        <time>2026-05-07T07:06:46.000Z</time>
      </trkpt>
      <trkpt lat="43.57565" lon="2.9661">
        <ele>244.3</ele>
        <time>2026-05-07T07:06:47.000Z</time>
      </trkpt>
      <trkpt lat="43.57566" lon="2.96608">
        <ele>244.7</ele>
        <time>2026-05-07T07:06:48.000Z</time>
      </trkpt>
      <trkpt lat="43.57567" lon="2.96606">
        <ele>244.4</ele>
        <time>2026-05-07T07:06:49.000Z</time>
      </trkpt>
      <trkpt lat="43.57568" lon="2.96605">
        <ele>244</ele>
        <time>2026-05-07T07:06:50.000Z</time>
      </trkpt>
      <trkpt lat="43.57569" lon="2.96603">
        <ele>243.4</ele>
        <time>2026-05-07T07:06:51.000Z</time>
      </trkpt>
      <trkpt lat="43.5757" lon="2.96602">
        <ele>243.2</ele>
        <time>2026-05-07T07:06:52.000Z</time>
      </trkpt>
      <trkpt lat="43.57571" lon="2.96601">
        <ele>243.2</ele>
        <time>2026-05-07T07:06:53.000Z</time>
      </trkpt>
      <trkpt lat="43.57573" lon="2.966">
        <ele>243.1</ele>
        <time>2026-05-07T07:06:54.000Z</time>
      </trkpt>
      <trkpt lat="43.57573" lon="2.96598">
        <ele>242.9</ele>
        <time>2026-05-07T07:06:55.000Z</time>
      </trkpt>
      <trkpt lat="43.57574" lon="2.96597">
        <ele>242.4</ele>
        <time>2026-05-07T07:06:56.000Z</time>
      </trkpt>
      <trkpt lat="43.57574" lon="2.96597">
        <ele>241.9</ele>
        <time>2026-05-07T07:06:57.000Z</time>
      </trkpt>
      <trkpt lat="43.57575" lon="2.96595">
        <ele>241.5</ele>
        <time>2026-05-07T07:06:58.000Z</time>
      </trkpt>
      <trkpt lat="43.57576" lon="2.96594">
        <ele>241.6</ele>
        <time>2026-05-07T07:06:59.000Z</time>
      </trkpt>
      <trkpt lat="43.57578" lon="2.96593">
        <ele>241.8</ele>
        <time>2026-05-07T07:07:00.000Z</time>
      </trkpt>
      <trkpt lat="43.57579" lon="2.96593">
        <ele>242.1</ele>
        <time>2026-05-07T07:07:01.000Z</time>
      </trkpt>
      <trkpt lat="43.5758" lon="2.96592">
        <ele>241.6</ele>
        <time>2026-05-07T07:07:02.000Z</time>
      </trkpt>
      <trkpt lat="43.57581" lon="2.96592">
        <ele>241.4</ele>
        <time>2026-05-07T07:07:03.000Z</time>
      </trkpt>
      <trkpt lat="43.57582" lon="2.96592">
        <ele>241.8</ele>
        <time>2026-05-07T07:07:04.000Z</time>
      </trkpt>
      <trkpt lat="43.57583" lon="2.9659">
        <ele>242.4</ele>
        <time>2026-05-07T07:07:05.000Z</time>
      </trkpt>
      <trkpt lat="43.57584" lon="2.96589">
        <ele>243.2</ele>
        <time>2026-05-07T07:07:06.000Z</time>
      </trkpt>
      <trkpt lat="43.57585" lon="2.96587">
        <ele>243.2</ele>
        <time>2026-05-07T07:07:07.000Z</time>
      </trkpt>
      <trkpt lat="43.57586" lon="2.96586">
        <ele>242.9</ele>
        <time>2026-05-07T07:07:08.000Z</time>
      </trkpt>
      <trkpt lat="43.57587" lon="2.96586">
        <ele>243.1</ele>
        <time>2026-05-07T07:07:09.000Z</time>
      </trkpt>
      <trkpt lat="43.57587" lon="2.96585">
        <ele>243.5</ele>
        <time>2026-05-07T07:07:10.000Z</time>
      </trkpt>
      <trkpt lat="43.57588" lon="2.96585">
        <ele>244.1</ele>
        <time>2026-05-07T07:07:11.000Z</time>
      </trkpt>
      <trkpt lat="43.57589" lon="2.96584">
        <ele>244.3</ele>
        <time>2026-05-07T07:07:12.000Z</time>
      </trkpt>
      <trkpt lat="43.5759" lon="2.96583">
        <ele>244.6</ele>
        <time>2026-05-07T07:07:13.000Z</time>
      </trkpt>
      <trkpt lat="43.57591" lon="2.96582">
        <ele>244.7</ele>
        <time>2026-05-07T07:07:14.000Z</time>
      </trkpt>
      <trkpt lat="43.57592" lon="2.96581">
        <ele>244.8</ele>
        <time>2026-05-07T07:07:15.000Z</time>
      </trkpt>
      <trkpt lat="43.57593" lon="2.9658">
        <ele>244.6</ele>
        <time>2026-05-07T07:07:16.000Z</time>
      </trkpt>
      <trkpt lat="43.57594" lon="2.96579">
        <ele>244.6</ele>
        <time>2026-05-07T07:07:17.000Z</time>
      </trkpt>
      <trkpt lat="43.57595" lon="2.96579">
        <ele>244.7</ele>
        <time>2026-05-07T07:07:18.000Z</time>
      </trkpt>
      <trkpt lat="43.57597" lon="2.96579">
        <ele>244.4</ele>
        <time>2026-05-07T07:07:19.000Z</time>
      </trkpt>
      <trkpt lat="43.57598" lon="2.96578">
        <ele>244.1</ele>
        <time>2026-05-07T07:07:20.000Z</time>
      </trkpt>
      <trkpt lat="43.57599" lon="2.96577">
        <ele>244.2</ele>
        <time>2026-05-07T07:07:21.000Z</time>
      </trkpt>
      <trkpt lat="43.57601" lon="2.96576">
        <ele>244.5</ele>
        <time>2026-05-07T07:07:22.000Z</time>
      </trkpt>
      <trkpt lat="43.57602" lon="2.96575">
        <ele>244.3</ele>
        <time>2026-05-07T07:07:23.000Z</time>
      </trkpt>
      <trkpt lat="43.57603" lon="2.96575">
        <ele>243.8</ele>
        <time>2026-05-07T07:07:24.000Z</time>
      </trkpt>
      <trkpt lat="43.57603" lon="2.96575">
        <ele>242.9</ele>
        <time>2026-05-07T07:07:25.000Z</time>
      </trkpt>
      <trkpt lat="43.57604" lon="2.96575">
        <ele>242.7</ele>
        <time>2026-05-07T07:07:26.000Z</time>
      </trkpt>
      <trkpt lat="43.57605" lon="2.96575">
        <ele>242.8</ele>
        <time>2026-05-07T07:07:27.000Z</time>
      </trkpt>
      <trkpt lat="43.57607" lon="2.96574">
        <ele>242.4</ele>
        <time>2026-05-07T07:07:28.000Z</time>
      </trkpt>
      <trkpt lat="43.57608" lon="2.96573">
        <ele>242.2</ele>
        <time>2026-05-07T07:07:29.000Z</time>
      </trkpt>
      <trkpt lat="43.57609" lon="2.96572">
        <ele>241.9</ele>
        <time>2026-05-07T07:07:30.000Z</time>
      </trkpt>
      <trkpt lat="43.5761" lon="2.96571">
        <ele>242.1</ele>
        <time>2026-05-07T07:07:31.000Z</time>
      </trkpt>
      <trkpt lat="43.57611" lon="2.96571">
        <ele>242.7</ele>
        <time>2026-05-07T07:07:32.000Z</time>
      </trkpt>
      <trkpt lat="43.57612" lon="2.96571">
        <ele>243.1</ele>
        <time>2026-05-07T07:07:33.000Z</time>
      </trkpt>
      <trkpt lat="43.57614" lon="2.9657">
        <ele>243.6</ele>
        <time>2026-05-07T07:07:34.000Z</time>
      </trkpt>
      <trkpt lat="43.57615" lon="2.96569">
        <ele>244.2</ele>
        <time>2026-05-07T07:07:35.000Z</time>
      </trkpt>
      <trkpt lat="43.57616" lon="2.96568">
        <ele>244.5</ele>
        <time>2026-05-07T07:07:36.000Z</time>
      </trkpt>
      <trkpt lat="43.57617" lon="2.96567">
        <ele>245</ele>
        <time>2026-05-07T07:07:37.000Z</time>
      </trkpt>
      <trkpt lat="43.57619" lon="2.96568">
        <ele>245.2</ele>
        <time>2026-05-07T07:07:38.000Z</time>
      </trkpt>
      <trkpt lat="43.5762" lon="2.96568">
        <ele>245.5</ele>
        <time>2026-05-07T07:07:39.000Z</time>
      </trkpt>
      <trkpt lat="43.57621" lon="2.96568">
        <ele>245.6</ele>
        <time>2026-05-07T07:07:40.000Z</time>
      </trkpt>
      <trkpt lat="43.57622" lon="2.96568">
        <ele>245.6</ele>
        <time>2026-05-07T07:07:41.000Z</time>
      </trkpt>
      <trkpt lat="43.57623" lon="2.96567">
        <ele>245.9</ele>
        <time>2026-05-07T07:07:42.000Z</time>
      </trkpt>
      <trkpt lat="43.57623" lon="2.96567">
        <ele>246</ele>
        <time>2026-05-07T07:07:43.000Z</time>
      </trkpt>
      <trkpt lat="43.57624" lon="2.96566">
        <ele>245.9</ele>
        <time>2026-05-07T07:07:44.000Z</time>
      </trkpt>
      <trkpt lat="43.57625" lon="2.96567">
        <ele>246.7</ele>
        <time>2026-05-07T07:07:45.000Z</time>
      </trkpt>
      <trkpt lat="43.57626" lon="2.96566">
        <ele>247.7</ele>
        <time>2026-05-07T07:07:46.000Z</time>
      </trkpt>
      <trkpt lat="43.57627" lon="2.96567">
        <ele>248.3</ele>
        <time>2026-05-07T07:07:47.000Z</time>
      </trkpt>
      <trkpt lat="43.57629" lon="2.96566">
        <ele>248</ele>
        <time>2026-05-07T07:07:48.000Z</time>
      </trkpt>
      <trkpt lat="43.57629" lon="2.96565">
        <ele>248.4</ele>
        <time>2026-05-07T07:07:49.000Z</time>
      </trkpt>
      <trkpt lat="43.5763" lon="2.96564">
        <ele>248.4</ele>
        <time>2026-05-07T07:07:50.000Z</time>
      </trkpt>
      <trkpt lat="43.57631" lon="2.96564">
        <ele>248.4</ele>
        <time>2026-05-07T07:07:51.000Z</time>
      </trkpt>
      <trkpt lat="43.5763" lon="2.96563">
        <ele>249</ele>
        <time>2026-05-07T07:07:52.000Z</time>
      </trkpt>
      <trkpt lat="43.5763" lon="2.96562">
        <ele>249.8</ele>
        <time>2026-05-07T07:07:53.000Z</time>
      </trkpt>
      <trkpt lat="43.5763" lon="2.96561">
        <ele>250.5</ele>
        <time>2026-05-07T07:07:54.000Z</time>
      </trkpt>
      <trkpt lat="43.5763" lon="2.9656">
        <ele>251</ele>
        <time>2026-05-07T07:07:55.000Z</time>
      </trkpt>
      <trkpt lat="43.5763" lon="2.9656">
        <ele>251.6</ele>
        <time>2026-05-07T07:07:56.000Z</time>
      </trkpt>
      <trkpt lat="43.5763" lon="2.9656">
        <ele>252.2</ele>
        <time>2026-05-07T07:07:57.000Z</time>
      </trkpt>
      <trkpt lat="43.5763" lon="2.9656">
        <ele>252.4</ele>
        <time>2026-05-07T07:07:58.000Z</time>
      </trkpt>
      <trkpt lat="43.5763" lon="2.9656">
        <ele>252.1</ele>
        <time>2026-05-07T07:07:59.000Z</time>
      </trkpt>
      <trkpt lat="43.5763" lon="2.9656">
        <ele>252.2</ele>
        <time>2026-05-07T07:08:00.000Z</time>
      </trkpt>
      <trkpt lat="43.5763" lon="2.9656">
        <ele>253</ele>
        <time>2026-05-07T07:08:01.000Z</time>
      </trkpt>
      <trkpt lat="43.5763" lon="2.9656">
        <ele>252.9</ele>
        <time>2026-05-07T07:08:02.000Z</time>
      </trkpt>
      <trkpt lat="43.5763" lon="2.96561">
        <ele>252.8</ele>
        <time>2026-05-07T07:08:03.000Z</time>
      </trkpt>
      <trkpt lat="43.5763" lon="2.96561">
        <ele>252.7</ele>
        <time>2026-05-07T07:08:04.000Z</time>
      </trkpt>
      <trkpt lat="43.5763" lon="2.96561">
        <ele>253.1</ele>
        <time>2026-05-07T07:08:05.000Z</time>
      </trkpt>
      <trkpt lat="43.5763" lon="2.96561">
        <ele>253.5</ele>
        <time>2026-05-07T07:08:06.000Z</time>
      </trkpt>
      <trkpt lat="43.57629" lon="2.96561">
        <ele>254.3</ele>
        <time>2026-05-07T07:08:07.000Z</time>
      </trkpt>
      <trkpt lat="43.57629" lon="2.96561">
        <ele>254.9</ele>
        <time>2026-05-07T07:08:08.000Z</time>
      </trkpt>
      <trkpt lat="43.5763" lon="2.96563">
        <ele>255.8</ele>
        <time>2026-05-07T07:08:09.000Z</time>
      </trkpt>
      <trkpt lat="43.5763" lon="2.96563">
        <ele>256</ele>
        <time>2026-05-07T07:08:10.000Z</time>
      </trkpt>
      <trkpt lat="43.5763" lon="2.96564">
        <ele>255.9</ele>
        <time>2026-05-07T07:08:11.000Z</time>
      </trkpt>
      <trkpt lat="43.57631" lon="2.96564">
        <ele>255.4</ele>
        <time>2026-05-07T07:08:12.000Z</time>
      </trkpt>
      <trkpt lat="43.57631" lon="2.96565">
        <ele>255.2</ele>
        <time>2026-05-07T07:08:13.000Z</time>
      </trkpt>
      <trkpt lat="43.57631" lon="2.96566">
        <ele>255.2</ele>
        <time>2026-05-07T07:08:14.000Z</time>
      </trkpt>
      <trkpt lat="43.5763" lon="2.96567">
        <ele>255.3</ele>
        <time>2026-05-07T07:08:15.000Z</time>
      </trkpt>
      <trkpt lat="43.5763" lon="2.96567">
        <ele>255.5</ele>
        <time>2026-05-07T07:08:16.000Z</time>
      </trkpt>
      <trkpt lat="43.5763" lon="2.96566">
        <ele>255.5</ele>
        <time>2026-05-07T07:08:17.000Z</time>
      </trkpt>
      <trkpt lat="43.5763" lon="2.96566">
        <ele>255.6</ele>
        <time>2026-05-07T07:08:18.000Z</time>
      </trkpt>
      <trkpt lat="43.57629" lon="2.96566">
        <ele>255.3</ele>
        <time>2026-05-07T07:08:19.000Z</time>
      </trkpt>
      <trkpt lat="43.57629" lon="2.96566">
        <ele>255</ele>
        <time>2026-05-07T07:08:20.000Z</time>
      </trkpt>
      <trkpt lat="43.57629" lon="2.96567">
        <ele>254.6</ele>
        <time>2026-05-07T07:08:21.000Z</time>
      </trkpt>
      <trkpt lat="43.57629" lon="2.96567">
        <ele>254.8</ele>
        <time>2026-05-07T07:08:22.000Z</time>
      </trkpt>
      <trkpt lat="43.57628" lon="2.96568">
        <ele>254.7</ele>
        <time>2026-05-07T07:08:23.000Z</time>
      </trkpt>
      <trkpt lat="43.57627" lon="2.96567">
        <ele>254.9</ele>
        <time>2026-05-07T07:08:24.000Z</time>
      </trkpt>
      <trkpt lat="43.57627" lon="2.96567">
        <ele>255</ele>
        <time>2026-05-07T07:08:25.000Z</time>
      </trkpt>
      <trkpt lat="43.57627" lon="2.96568">
        <ele>254.7</ele>
        <time>2026-05-07T07:08:26.000Z</time>
      </trkpt>
      <trkpt lat="43.57627" lon="2.96568">
        <ele>254.6</ele>
        <time>2026-05-07T07:08:27.000Z</time>
      </trkpt>
      <trkpt lat="43.57627" lon="2.96568">
        <ele>254.4</ele>
        <time>2026-05-07T07:08:28.000Z</time>
      </trkpt>
      <trkpt lat="43.57627" lon="2.96568">
        <ele>254.4</ele>
        <time>2026-05-07T07:08:29.000Z</time>
      </trkpt>
      <trkpt lat="43.57627" lon="2.96568">
        <ele>254.4</ele>
        <time>2026-05-07T07:08:30.000Z</time>
      </trkpt>
      <trkpt lat="43.57627" lon="2.96568">
        <ele>254.6</ele>
        <time>2026-05-07T07:08:31.000Z</time>
      </trkpt>
      <trkpt lat="43.57627" lon="2.96567">
        <ele>254.8</ele>
        <time>2026-05-07T07:08:32.000Z</time>
      </trkpt>
      <trkpt lat="43.57628" lon="2.96566">
        <ele>255</ele>
        <time>2026-05-07T07:08:33.000Z</time>
      </trkpt>
      <trkpt lat="43.57628" lon="2.96566">
        <ele>255.1</ele>
        <time>2026-05-07T07:08:34.000Z</time>
      </trkpt>
      <trkpt lat="43.57629" lon="2.96565">
        <ele>255.1</ele>
        <time>2026-05-07T07:08:35.000Z</time>
      </trkpt>
      <trkpt lat="43.57629" lon="2.96566">
        <ele>255.1</ele>
        <time>2026-05-07T07:08:36.000Z</time>
      </trkpt>
      <trkpt lat="43.57629" lon="2.96566">
        <ele>255</ele>
        <time>2026-05-07T07:08:37.000Z</time>
      </trkpt>
      <trkpt lat="43.57629" lon="2.96566">
        <ele>254.8</ele>
        <time>2026-05-07T07:08:38.000Z</time>
      </trkpt>
      <trkpt lat="43.57629" lon="2.96566">
        <ele>255.1</ele>
        <time>2026-05-07T07:08:39.000Z</time>
      </trkpt>
      <trkpt lat="43.57629" lon="2.96566">
        <ele>255.4</ele>
        <time>2026-05-07T07:08:40.000Z</time>
      </trkpt>
      <trkpt lat="43.57629" lon="2.96566">
        <ele>255.4</ele>
        <time>2026-05-07T07:08:41.000Z</time>
      </trkpt>
      <trkpt lat="43.57629" lon="2.96566">
        <ele>255.8</ele>
        <time>2026-05-07T07:08:42.000Z</time>
      </trkpt>
      <trkpt lat="43.57629" lon="2.96566">
        <ele>255.9</ele>
        <time>2026-05-07T07:08:43.000Z</time>
      </trkpt>
      <trkpt lat="43.57629" lon="2.96566">
        <ele>256</ele>
        <time>2026-05-07T07:08:44.000Z</time>
      </trkpt>
      <trkpt lat="43.57628" lon="2.96566">
        <ele>255.8</ele>
        <time>2026-05-07T07:08:45.000Z</time>
      </trkpt>
      <trkpt lat="43.57628" lon="2.96565">
        <ele>256.2</ele>
        <time>2026-05-07T07:08:46.000Z</time>
      </trkpt>
      <trkpt lat="43.57627" lon="2.96565">
        <ele>255.9</ele>
        <time>2026-05-07T07:08:47.000Z</time>
      </trkpt>
      <trkpt lat="43.57626" lon="2.96565">
        <ele>255.8</ele>
        <time>2026-05-07T07:08:48.000Z</time>
      </trkpt>
      <trkpt lat="43.57625" lon="2.96565">
        <ele>255.9</ele>
        <time>2026-05-07T07:08:49.000Z</time>
      </trkpt>
      <trkpt lat="43.57625" lon="2.96564">
        <ele>256</ele>
        <time>2026-05-07T07:08:50.000Z</time>
      </trkpt>
      <trkpt lat="43.57624" lon="2.96563">
        <ele>255.8</ele>
        <time>2026-05-07T07:08:51.000Z</time>
      </trkpt>
      <trkpt lat="43.57624" lon="2.96563">
        <ele>255.8</ele>
        <time>2026-05-07T07:08:52.000Z</time>
      </trkpt>
      <trkpt lat="43.57624" lon="2.96563">
        <ele>255.9</ele>
        <time>2026-05-07T07:08:53.000Z</time>
      </trkpt>
      <trkpt lat="43.57624" lon="2.96563">
        <ele>255.8</ele>
        <time>2026-05-07T07:08:54.000Z</time>
      </trkpt>
      <trkpt lat="43.57624" lon="2.96563">
        <ele>255.7</ele>
        <time>2026-05-07T07:08:55.000Z</time>
      </trkpt>
      <trkpt lat="43.57625" lon="2.96564">
        <ele>255.5</ele>
        <time>2026-05-07T07:08:56.000Z</time>
      </trkpt>
      <trkpt lat="43.57627" lon="2.96564">
        <ele>255.4</ele>
        <time>2026-05-07T07:08:57.000Z</time>
      </trkpt>
      <trkpt lat="43.57629" lon="2.96564">
        <ele>255.1</ele>
        <time>2026-05-07T07:08:58.000Z</time>
      </trkpt>
      <trkpt lat="43.5763" lon="2.96564">
        <ele>255.1</ele>
        <time>2026-05-07T07:08:59.000Z</time>
      </trkpt>
      <trkpt lat="43.57631" lon="2.96563">
        <ele>255.1</ele>
        <time>2026-05-07T07:09:00.000Z</time>
      </trkpt>
      <trkpt lat="43.57633" lon="2.96563">
        <ele>254.9</ele>
        <time>2026-05-07T07:09:01.000Z</time>
      </trkpt>
      <trkpt lat="43.57634" lon="2.96563">
        <ele>254.7</ele>
        <time>2026-05-07T07:09:02.000Z</time>
      </trkpt>
      <trkpt lat="43.57636" lon="2.96562">
        <ele>254.5</ele>
        <time>2026-05-07T07:09:03.000Z</time>
      </trkpt>
      <trkpt lat="43.57638" lon="2.96561">
        <ele>254</ele>
        <time>2026-05-07T07:09:04.000Z</time>
      </trkpt>
      <trkpt lat="43.5764" lon="2.9656">
        <ele>254.4</ele>
        <time>2026-05-07T07:09:05.000Z</time>
      </trkpt>
      <trkpt lat="43.57641" lon="2.96559">
        <ele>254.4</ele>
        <time>2026-05-07T07:09:06.000Z</time>
      </trkpt>
      <trkpt lat="43.57642" lon="2.96558">
        <ele>254.6</ele>
        <time>2026-05-07T07:09:07.000Z</time>
      </trkpt>
      <trkpt lat="43.57643" lon="2.96559">
        <ele>254.5</ele>
        <time>2026-05-07T07:09:08.000Z</time>
      </trkpt>
      <trkpt lat="43.57644" lon="2.96559">
        <ele>254.1</ele>
        <time>2026-05-07T07:09:09.000Z</time>
      </trkpt>
      <trkpt lat="43.57645" lon="2.9656">
        <ele>254</ele>
        <time>2026-05-07T07:09:10.000Z</time>
      </trkpt>
      <trkpt lat="43.57647" lon="2.9656">
        <ele>253.6</ele>
        <time>2026-05-07T07:09:11.000Z</time>
      </trkpt>
      <trkpt lat="43.57649" lon="2.96561">
        <ele>253</ele>
        <time>2026-05-07T07:09:12.000Z</time>
      </trkpt>
      <trkpt lat="43.57651" lon="2.96562">
        <ele>252.8</ele>
        <time>2026-05-07T07:09:13.000Z</time>
      </trkpt>
      <trkpt lat="43.57652" lon="2.96562">
        <ele>252.9</ele>
        <time>2026-05-07T07:09:14.000Z</time>
      </trkpt>
      <trkpt lat="43.57653" lon="2.96563">
        <ele>253.2</ele>
        <time>2026-05-07T07:09:15.000Z</time>
      </trkpt>
      <trkpt lat="43.57655" lon="2.96562">
        <ele>253.4</ele>
        <time>2026-05-07T07:09:16.000Z</time>
      </trkpt>
      <trkpt lat="43.57657" lon="2.96561">
        <ele>253</ele>
        <time>2026-05-07T07:09:17.000Z</time>
      </trkpt>
      <trkpt lat="43.57658" lon="2.9656">
        <ele>252.1</ele>
        <time>2026-05-07T07:09:18.000Z</time>
      </trkpt>
      <trkpt lat="43.5766" lon="2.9656">
        <ele>251.3</ele>
        <time>2026-05-07T07:09:19.000Z</time>
      </trkpt>
      <trkpt lat="43.57662" lon="2.9656">
        <ele>251.3</ele>
        <time>2026-05-07T07:09:20.000Z</time>
      </trkpt>
      <trkpt lat="43.57664" lon="2.9656">
        <ele>251.1</ele>
        <time>2026-05-07T07:09:21.000Z</time>
      </trkpt>
      <trkpt lat="43.57666" lon="2.9656">
        <ele>250.7</ele>
        <time>2026-05-07T07:09:22.000Z</time>
      </trkpt>
      <trkpt lat="43.57668" lon="2.9656">
        <ele>250.4</ele>
        <time>2026-05-07T07:09:23.000Z</time>
      </trkpt>
      <trkpt lat="43.57669" lon="2.96559">
        <ele>250.6</ele>
        <time>2026-05-07T07:09:24.000Z</time>
      </trkpt>
      <trkpt lat="43.57671" lon="2.96559">
        <ele>251.2</ele>
        <time>2026-05-07T07:09:25.000Z</time>
      </trkpt>
      <trkpt lat="43.57672" lon="2.96559">
        <ele>250.9</ele>
        <time>2026-05-07T07:09:26.000Z</time>
      </trkpt>
      <trkpt lat="43.57674" lon="2.96559">
        <ele>250.5</ele>
        <time>2026-05-07T07:09:27.000Z</time>
      </trkpt>
      <trkpt lat="43.57675" lon="2.96559">
        <ele>250.6</ele>
        <time>2026-05-07T07:09:28.000Z</time>
      </trkpt>
      <trkpt lat="43.57676" lon="2.96558">
        <ele>250.8</ele>
        <time>2026-05-07T07:09:29.000Z</time>
      </trkpt>
      <trkpt lat="43.57678" lon="2.96557">
        <ele>251.1</ele>
        <time>2026-05-07T07:09:30.000Z</time>
      </trkpt>
      <trkpt lat="43.57679" lon="2.96556">
        <ele>251.3</ele>
        <time>2026-05-07T07:09:31.000Z</time>
      </trkpt>
      <trkpt lat="43.5768" lon="2.96555">
        <ele>251.5</ele>
        <time>2026-05-07T07:09:32.000Z</time>
      </trkpt>
      <trkpt lat="43.57681" lon="2.96555">
        <ele>251</ele>
        <time>2026-05-07T07:09:33.000Z</time>
      </trkpt>
      <trkpt lat="43.57682" lon="2.96554">
        <ele>250.6</ele>
        <time>2026-05-07T07:09:34.000Z</time>
      </trkpt>
      <trkpt lat="43.57683" lon="2.96554">
        <ele>250.2</ele>
        <time>2026-05-07T07:09:35.000Z</time>
      </trkpt>
      <trkpt lat="43.57684" lon="2.96554">
        <ele>249.8</ele>
        <time>2026-05-07T07:09:36.000Z</time>
      </trkpt>
      <trkpt lat="43.57686" lon="2.96553">
        <ele>249.4</ele>
        <time>2026-05-07T07:09:37.000Z</time>
      </trkpt>
      <trkpt lat="43.57688" lon="2.96553">
        <ele>249.4</ele>
        <time>2026-05-07T07:09:38.000Z</time>
      </trkpt>
      <trkpt lat="43.5769" lon="2.96552">
        <ele>249.2</ele>
        <time>2026-05-07T07:09:39.000Z</time>
      </trkpt>
      <trkpt lat="43.57692" lon="2.96551">
        <ele>249.4</ele>
        <time>2026-05-07T07:09:40.000Z</time>
      </trkpt>
      <trkpt lat="43.57693" lon="2.9655">
        <ele>250.1</ele>
        <time>2026-05-07T07:09:41.000Z</time>
      </trkpt>
      <trkpt lat="43.57695" lon="2.96548">
        <ele>251</ele>
        <time>2026-05-07T07:09:42.000Z</time>
      </trkpt>
      <trkpt lat="43.57697" lon="2.96547">
        <ele>250.9</ele>
        <time>2026-05-07T07:09:43.000Z</time>
      </trkpt>
      <trkpt lat="43.57698" lon="2.96547">
        <ele>250.3</ele>
        <time>2026-05-07T07:09:44.000Z</time>
      </trkpt>
      <trkpt lat="43.577" lon="2.96545">
        <ele>250.5</ele>
        <time>2026-05-07T07:09:45.000Z</time>
      </trkpt>
      <trkpt lat="43.57701" lon="2.96544">
        <ele>250.4</ele>
        <time>2026-05-07T07:09:46.000Z</time>
      </trkpt>
      <trkpt lat="43.57702" lon="2.96543">
        <ele>250.4</ele>
        <time>2026-05-07T07:09:47.000Z</time>
      </trkpt>
      <trkpt lat="43.57704" lon="2.96542">
        <ele>251</ele>
        <time>2026-05-07T07:09:48.000Z</time>
      </trkpt>
      <trkpt lat="43.57705" lon="2.96541">
        <ele>251.1</ele>
        <time>2026-05-07T07:09:49.000Z</time>
      </trkpt>
      <trkpt lat="43.57706" lon="2.9654">
        <ele>251</ele>
        <time>2026-05-07T07:09:50.000Z</time>
      </trkpt>
      <trkpt lat="43.57708" lon="2.9654">
        <ele>250.9</ele>
        <time>2026-05-07T07:09:51.000Z</time>
      </trkpt>
      <trkpt lat="43.57709" lon="2.9654">
        <ele>251</ele>
        <time>2026-05-07T07:09:52.000Z</time>
      </trkpt>
      <trkpt lat="43.57711" lon="2.96539">
        <ele>251</ele>
        <time>2026-05-07T07:09:53.000Z</time>
      </trkpt>
      <trkpt lat="43.57712" lon="2.96539">
        <ele>251.1</ele>
        <time>2026-05-07T07:09:54.000Z</time>
      </trkpt>
      <trkpt lat="43.57713" lon="2.96539">
        <ele>251.5</ele>
        <time>2026-05-07T07:09:55.000Z</time>
      </trkpt>
      <trkpt lat="43.57714" lon="2.96539">
        <ele>251.6</ele>
        <time>2026-05-07T07:09:56.000Z</time>
      </trkpt>
      <trkpt lat="43.57714" lon="2.9654">
        <ele>252.4</ele>
        <time>2026-05-07T07:09:57.000Z</time>
      </trkpt>
      <trkpt lat="43.57715" lon="2.9654">
        <ele>252.1</ele>
        <time>2026-05-07T07:09:58.000Z</time>
      </trkpt>
      <trkpt lat="43.57716" lon="2.96541">
        <ele>252.1</ele>
        <time>2026-05-07T07:09:59.000Z</time>
      </trkpt>
      <trkpt lat="43.57717" lon="2.96542">
        <ele>252</ele>
        <time>2026-05-07T07:10:00.000Z</time>
      </trkpt>
      <trkpt lat="43.57717" lon="2.96542">
        <ele>251.7</ele>
        <time>2026-05-07T07:10:01.000Z</time>
      </trkpt>
      <trkpt lat="43.57718" lon="2.96543">
        <ele>251.8</ele>
        <time>2026-05-07T07:10:02.000Z</time>
      </trkpt>
      <trkpt lat="43.57719" lon="2.96544">
        <ele>252.3</ele>
        <time>2026-05-07T07:10:03.000Z</time>
      </trkpt>
      <trkpt lat="43.57721" lon="2.96545">
        <ele>253.3</ele>
        <time>2026-05-07T07:10:04.000Z</time>
      </trkpt>
      <trkpt lat="43.57723" lon="2.96547">
        <ele>253.8</ele>
        <time>2026-05-07T07:10:05.000Z</time>
      </trkpt>
      <trkpt lat="43.57724" lon="2.96547">
        <ele>254.1</ele>
        <time>2026-05-07T07:10:06.000Z</time>
      </trkpt>
      <trkpt lat="43.57725" lon="2.96548">
        <ele>253.9</ele>
        <time>2026-05-07T07:10:07.000Z</time>
      </trkpt>
      <trkpt lat="43.57725" lon="2.9655">
        <ele>254.3</ele>
        <time>2026-05-07T07:10:08.000Z</time>
      </trkpt>
      <trkpt lat="43.57726" lon="2.96551">
        <ele>254.8</ele>
        <time>2026-05-07T07:10:09.000Z</time>
      </trkpt>
      <trkpt lat="43.57726" lon="2.96552">
        <ele>255</ele>
        <time>2026-05-07T07:10:10.000Z</time>
      </trkpt>
      <trkpt lat="43.57727" lon="2.96554">
        <ele>255.2</ele>
        <time>2026-05-07T07:10:11.000Z</time>
      </trkpt>
      <trkpt lat="43.57728" lon="2.96556">
        <ele>255.4</ele>
        <time>2026-05-07T07:10:12.000Z</time>
      </trkpt>
      <trkpt lat="43.57728" lon="2.96558">
        <ele>255.3</ele>
        <time>2026-05-07T07:10:13.000Z</time>
      </trkpt>
      <trkpt lat="43.57729" lon="2.9656">
        <ele>255.4</ele>
        <time>2026-05-07T07:10:14.000Z</time>
      </trkpt>
      <trkpt lat="43.57729" lon="2.96561">
        <ele>254.4</ele>
        <time>2026-05-07T07:10:15.000Z</time>
      </trkpt>
      <trkpt lat="43.57729" lon="2.96563">
        <ele>254.9</ele>
        <time>2026-05-07T07:10:16.000Z</time>
      </trkpt>
      <trkpt lat="43.57729" lon="2.96564">
        <ele>255</ele>
        <time>2026-05-07T07:10:17.000Z</time>
      </trkpt>
      <trkpt lat="43.5773" lon="2.96565">
        <ele>255.1</ele>
        <time>2026-05-07T07:10:18.000Z</time>
      </trkpt>
      <trkpt lat="43.5773" lon="2.96566">
        <ele>255.7</ele>
        <time>2026-05-07T07:10:19.000Z</time>
      </trkpt>
      <trkpt lat="43.5773" lon="2.96567">
        <ele>255.8</ele>
        <time>2026-05-07T07:10:20.000Z</time>
      </trkpt>
      <trkpt lat="43.5773" lon="2.96569">
        <ele>255.9</ele>
        <time>2026-05-07T07:10:21.000Z</time>
      </trkpt>
      <trkpt lat="43.5773" lon="2.96571">
        <ele>255.9</ele>
        <time>2026-05-07T07:10:22.000Z</time>
      </trkpt>
      <trkpt lat="43.57731" lon="2.96573">
        <ele>255.6</ele>
        <time>2026-05-07T07:10:23.000Z</time>
      </trkpt>
      <trkpt lat="43.57731" lon="2.96576">
        <ele>256.1</ele>
        <time>2026-05-07T07:10:24.000Z</time>
      </trkpt>
      <trkpt lat="43.57732" lon="2.96577">
        <ele>256.2</ele>
        <time>2026-05-07T07:10:25.000Z</time>
      </trkpt>
      <trkpt lat="43.57733" lon="2.96578">
        <ele>256.4</ele>
        <time>2026-05-07T07:10:26.000Z</time>
      </trkpt>
      <trkpt lat="43.57733" lon="2.9658">
        <ele>257</ele>
        <time>2026-05-07T07:10:27.000Z</time>
      </trkpt>
      <trkpt lat="43.57734" lon="2.96581">
        <ele>257.3</ele>
        <time>2026-05-07T07:10:28.000Z</time>
      </trkpt>
      <trkpt lat="43.57736" lon="2.96582">
        <ele>257.5</ele>
        <time>2026-05-07T07:10:29.000Z</time>
      </trkpt>
      <trkpt lat="43.57737" lon="2.96583">
        <ele>258.3</ele>
        <time>2026-05-07T07:10:30.000Z</time>
      </trkpt>
      <trkpt lat="43.57739" lon="2.96584">
        <ele>258.6</ele>
        <time>2026-05-07T07:10:31.000Z</time>
      </trkpt>
      <trkpt lat="43.57741" lon="2.96585">
        <ele>258.5</ele>
        <time>2026-05-07T07:10:32.000Z</time>
      </trkpt>
      <trkpt lat="43.57742" lon="2.96587">
        <ele>258.3</ele>
        <time>2026-05-07T07:10:33.000Z</time>
      </trkpt>
      <trkpt lat="43.57743" lon="2.96588">
        <ele>258.7</ele>
        <time>2026-05-07T07:10:34.000Z</time>
      </trkpt>
      <trkpt lat="43.57745" lon="2.9659">
        <ele>258.3</ele>
        <time>2026-05-07T07:10:35.000Z</time>
      </trkpt>
      <trkpt lat="43.57747" lon="2.96591">
        <ele>258.2</ele>
        <time>2026-05-07T07:10:36.000Z</time>
      </trkpt>
      <trkpt lat="43.57748" lon="2.96592">
        <ele>258.2</ele>
        <time>2026-05-07T07:10:37.000Z</time>
      </trkpt>
      <trkpt lat="43.57749" lon="2.96593">
        <ele>259.1</ele>
        <time>2026-05-07T07:10:38.000Z</time>
      </trkpt>
      <trkpt lat="43.5775" lon="2.96594">
        <ele>259.8</ele>
        <time>2026-05-07T07:10:39.000Z</time>
      </trkpt>
      <trkpt lat="43.5775" lon="2.96595">
        <ele>259.9</ele>
        <time>2026-05-07T07:10:40.000Z</time>
      </trkpt>
      <trkpt lat="43.57751" lon="2.96595">
        <ele>260.6</ele>
        <time>2026-05-07T07:10:41.000Z</time>
      </trkpt>
      <trkpt lat="43.57752" lon="2.96596">
        <ele>261.2</ele>
        <time>2026-05-07T07:10:42.000Z</time>
      </trkpt>
      <trkpt lat="43.57753" lon="2.96596">
        <ele>261.5</ele>
        <time>2026-05-07T07:10:43.000Z</time>
      </trkpt>
      <trkpt lat="43.57754" lon="2.96597">
        <ele>261.8</ele>
        <time>2026-05-07T07:10:44.000Z</time>
      </trkpt>
      <trkpt lat="43.57756" lon="2.96599">
        <ele>262.2</ele>
        <time>2026-05-07T07:10:45.000Z</time>
      </trkpt>
      <trkpt lat="43.57757" lon="2.966">
        <ele>262.3</ele>
        <time>2026-05-07T07:10:46.000Z</time>
      </trkpt>
      <trkpt lat="43.57758" lon="2.966">
        <ele>262.2</ele>
        <time>2026-05-07T07:10:47.000Z</time>
      </trkpt>
      <trkpt lat="43.57758" lon="2.966">
        <ele>262.2</ele>
        <time>2026-05-07T07:10:48.000Z</time>
      </trkpt>
      <trkpt lat="43.57759" lon="2.966">
        <ele>262.2</ele>
        <time>2026-05-07T07:10:49.000Z</time>
      </trkpt>
      <trkpt lat="43.57761" lon="2.966">
        <ele>262.2</ele>
        <time>2026-05-07T07:10:50.000Z</time>
      </trkpt>
      <trkpt lat="43.57762" lon="2.966">
        <ele>262</ele>
        <time>2026-05-07T07:10:51.000Z</time>
      </trkpt>
      <trkpt lat="43.57763" lon="2.96601">
        <ele>261.9</ele>
        <time>2026-05-07T07:10:52.000Z</time>
      </trkpt>
      <trkpt lat="43.57765" lon="2.96601">
        <ele>261.9</ele>
        <time>2026-05-07T07:10:53.000Z</time>
      </trkpt>
      <trkpt lat="43.57767" lon="2.96602">
        <ele>261.5</ele>
        <time>2026-05-07T07:10:54.000Z</time>
      </trkpt>
      <trkpt lat="43.57769" lon="2.96603">
        <ele>261.3</ele>
        <time>2026-05-07T07:10:55.000Z</time>
      </trkpt>
      <trkpt lat="43.5777" lon="2.96604">
        <ele>261.6</ele>
        <time>2026-05-07T07:10:56.000Z</time>
      </trkpt>
      <trkpt lat="43.57772" lon="2.96606">
        <ele>262.1</ele>
        <time>2026-05-07T07:10:57.000Z</time>
      </trkpt>
      <trkpt lat="43.57774" lon="2.96607">
        <ele>262.1</ele>
        <time>2026-05-07T07:10:58.000Z</time>
      </trkpt>
      <trkpt lat="43.57775" lon="2.96608">
        <ele>262.3</ele>
        <time>2026-05-07T07:10:59.000Z</time>
      </trkpt>
      <trkpt lat="43.57776" lon="2.96609">
        <ele>262.8</ele>
        <time>2026-05-07T07:11:00.000Z</time>
      </trkpt>
      <trkpt lat="43.57777" lon="2.9661">
        <ele>263</ele>
        <time>2026-05-07T07:11:01.000Z</time>
      </trkpt>
      <trkpt lat="43.57778" lon="2.9661">
        <ele>263.2</ele>
        <time>2026-05-07T07:11:02.000Z</time>
      </trkpt>
      <trkpt lat="43.5778" lon="2.96611">
        <ele>263.7</ele>
        <time>2026-05-07T07:11:03.000Z</time>
      </trkpt>
      <trkpt lat="43.57781" lon="2.96611">
        <ele>264.3</ele>
        <time>2026-05-07T07:11:04.000Z</time>
      </trkpt>
      <trkpt lat="43.57783" lon="2.96611">
        <ele>264.7</ele>
        <time>2026-05-07T07:11:05.000Z</time>
      </trkpt>
      <trkpt lat="43.57785" lon="2.96611">
        <ele>264.5</ele>
        <time>2026-05-07T07:11:06.000Z</time>
      </trkpt>
      <trkpt lat="43.57786" lon="2.96612">
        <ele>264.4</ele>
        <time>2026-05-07T07:11:07.000Z</time>
      </trkpt>
      <trkpt lat="43.57788" lon="2.96613">
        <ele>264.3</ele>
        <time>2026-05-07T07:11:08.000Z</time>
      </trkpt>
      <trkpt lat="43.57789" lon="2.96613">
        <ele>264.4</ele>
        <time>2026-05-07T07:11:09.000Z</time>
      </trkpt>
      <trkpt lat="43.57791" lon="2.96613">
        <ele>264.7</ele>
        <time>2026-05-07T07:11:10.000Z</time>
      </trkpt>
      <trkpt lat="43.57792" lon="2.96613">
        <ele>265.3</ele>
        <time>2026-05-07T07:11:11.000Z</time>
      </trkpt>
      <trkpt lat="43.57794" lon="2.96613">
        <ele>265.8</ele>
        <time>2026-05-07T07:11:12.000Z</time>
      </trkpt>
      <trkpt lat="43.57795" lon="2.96613">
        <ele>265.6</ele>
        <time>2026-05-07T07:11:13.000Z</time>
      </trkpt>
      <trkpt lat="43.57796" lon="2.96615">
        <ele>265.4</ele>
        <time>2026-05-07T07:11:14.000Z</time>
      </trkpt>
      <trkpt lat="43.57797" lon="2.96615">
        <ele>265.3</ele>
        <time>2026-05-07T07:11:15.000Z</time>
      </trkpt>
      <trkpt lat="43.57799" lon="2.96615">
        <ele>264.7</ele>
        <time>2026-05-07T07:11:16.000Z</time>
      </trkpt>
      <trkpt lat="43.57801" lon="2.96615">
        <ele>264.2</ele>
        <time>2026-05-07T07:11:17.000Z</time>
      </trkpt>
      <trkpt lat="43.57802" lon="2.96616">
        <ele>264.3</ele>
        <time>2026-05-07T07:11:18.000Z</time>
      </trkpt>
      <trkpt lat="43.57804" lon="2.96617">
        <ele>264.5</ele>
        <time>2026-05-07T07:11:19.000Z</time>
      </trkpt>
      <trkpt lat="43.57806" lon="2.96617">
        <ele>264.6</ele>
        <time>2026-05-07T07:11:20.000Z</time>
      </trkpt>
      <trkpt lat="43.57808" lon="2.96619">
        <ele>264.8</ele>
        <time>2026-05-07T07:11:21.000Z</time>
      </trkpt>
      <trkpt lat="43.5781" lon="2.96621">
        <ele>265.3</ele>
        <time>2026-05-07T07:11:22.000Z</time>
      </trkpt>
      <trkpt lat="43.57812" lon="2.96623">
        <ele>265.1</ele>
        <time>2026-05-07T07:11:23.000Z</time>
      </trkpt>
      <trkpt lat="43.57813" lon="2.96624">
        <ele>265.5</ele>
        <time>2026-05-07T07:11:24.000Z</time>
      </trkpt>
      <trkpt lat="43.57815" lon="2.96625">
        <ele>265.6</ele>
        <time>2026-05-07T07:11:25.000Z</time>
      </trkpt>
      <trkpt lat="43.57816" lon="2.96625">
        <ele>266.2</ele>
        <time>2026-05-07T07:11:26.000Z</time>
      </trkpt>
      <trkpt lat="43.57817" lon="2.96626">
        <ele>266.6</ele>
        <time>2026-05-07T07:11:27.000Z</time>
      </trkpt>
      <trkpt lat="43.57817" lon="2.96626">
        <ele>266.5</ele>
        <time>2026-05-07T07:11:28.000Z</time>
      </trkpt>
      <trkpt lat="43.57819" lon="2.96626">
        <ele>266.2</ele>
        <time>2026-05-07T07:11:29.000Z</time>
      </trkpt>
      <trkpt lat="43.57819" lon="2.96626">
        <ele>266.2</ele>
        <time>2026-05-07T07:11:30.000Z</time>
      </trkpt>
      <trkpt lat="43.5782" lon="2.96626">
        <ele>266</ele>
        <time>2026-05-07T07:11:31.000Z</time>
      </trkpt>
      <trkpt lat="43.57822" lon="2.96625">
        <ele>265.5</ele>
        <time>2026-05-07T07:11:32.000Z</time>
      </trkpt>
      <trkpt lat="43.57823" lon="2.96624">
        <ele>264.8</ele>
        <time>2026-05-07T07:11:33.000Z</time>
      </trkpt>
      <trkpt lat="43.57825" lon="2.96623">
        <ele>264.4</ele>
        <time>2026-05-07T07:11:34.000Z</time>
      </trkpt>
      <trkpt lat="43.57826" lon="2.96623">
        <ele>264.5</ele>
        <time>2026-05-07T07:11:35.000Z</time>
      </trkpt>
      <trkpt lat="43.57827" lon="2.96622">
        <ele>265.2</ele>
        <time>2026-05-07T07:11:36.000Z</time>
      </trkpt>
      <trkpt lat="43.57828" lon="2.96622">
        <ele>264.9</ele>
        <time>2026-05-07T07:11:37.000Z</time>
      </trkpt>
      <trkpt lat="43.57829" lon="2.96622">
        <ele>264.7</ele>
        <time>2026-05-07T07:11:38.000Z</time>
      </trkpt>
      <trkpt lat="43.5783" lon="2.96621">
        <ele>265.1</ele>
        <time>2026-05-07T07:11:39.000Z</time>
      </trkpt>
      <trkpt lat="43.57831" lon="2.9662">
        <ele>264.7</ele>
        <time>2026-05-07T07:11:40.000Z</time>
      </trkpt>
      <trkpt lat="43.57832" lon="2.96619">
        <ele>264.7</ele>
        <time>2026-05-07T07:11:41.000Z</time>
      </trkpt>
      <trkpt lat="43.57835" lon="2.96617">
        <ele>265.4</ele>
        <time>2026-05-07T07:11:42.000Z</time>
      </trkpt>
      <trkpt lat="43.57836" lon="2.96616">
        <ele>266.5</ele>
        <time>2026-05-07T07:11:43.000Z</time>
      </trkpt>
      <trkpt lat="43.57838" lon="2.96614">
        <ele>267.3</ele>
        <time>2026-05-07T07:11:44.000Z</time>
      </trkpt>
      <trkpt lat="43.5784" lon="2.96613">
        <ele>267</ele>
        <time>2026-05-07T07:11:45.000Z</time>
      </trkpt>
      <trkpt lat="43.57841" lon="2.96612">
        <ele>267.3</ele>
        <time>2026-05-07T07:11:46.000Z</time>
      </trkpt>
      <trkpt lat="43.57843" lon="2.96612">
        <ele>267.4</ele>
        <time>2026-05-07T07:11:47.000Z</time>
      </trkpt>
      <trkpt lat="43.57844" lon="2.96611">
        <ele>267.4</ele>
        <time>2026-05-07T07:11:48.000Z</time>
      </trkpt>
      <trkpt lat="43.57846" lon="2.9661">
        <ele>267.9</ele>
        <time>2026-05-07T07:11:49.000Z</time>
      </trkpt>
      <trkpt lat="43.57846" lon="2.9661">
        <ele>268.1</ele>
        <time>2026-05-07T07:11:50.000Z</time>
      </trkpt>
      <trkpt lat="43.57847" lon="2.9661">
        <ele>268.2</ele>
        <time>2026-05-07T07:11:51.000Z</time>
      </trkpt>
      <trkpt lat="43.57847" lon="2.96609">
        <ele>268.5</ele>
        <time>2026-05-07T07:11:52.000Z</time>
      </trkpt>
      <trkpt lat="43.57848" lon="2.96609">
        <ele>268.6</ele>
        <time>2026-05-07T07:11:53.000Z</time>
      </trkpt>
      <trkpt lat="43.5785" lon="2.96609">
        <ele>268.8</ele>
        <time>2026-05-07T07:11:54.000Z</time>
      </trkpt>
      <trkpt lat="43.57851" lon="2.96608">
        <ele>269.5</ele>
        <time>2026-05-07T07:11:55.000Z</time>
      </trkpt>
      <trkpt lat="43.57852" lon="2.96607">
        <ele>270.6</ele>
        <time>2026-05-07T07:11:56.000Z</time>
      </trkpt>
      <trkpt lat="43.57853" lon="2.96607">
        <ele>271</ele>
        <time>2026-05-07T07:11:57.000Z</time>
      </trkpt>
      <trkpt lat="43.57854" lon="2.96607">
        <ele>270.8</ele>
        <time>2026-05-07T07:11:58.000Z</time>
      </trkpt>
      <trkpt lat="43.57854" lon="2.96606">
        <ele>270.7</ele>
        <time>2026-05-07T07:11:59.000Z</time>
      </trkpt>
      <trkpt lat="43.57855" lon="2.96604">
        <ele>270.7</ele>
        <time>2026-05-07T07:12:00.000Z</time>
      </trkpt>
      <trkpt lat="43.57855" lon="2.96602">
        <ele>271.1</ele>
        <time>2026-05-07T07:12:01.000Z</time>
      </trkpt>
      <trkpt lat="43.57855" lon="2.96601">
        <ele>271.5</ele>
        <time>2026-05-07T07:12:02.000Z</time>
      </trkpt>
      <trkpt lat="43.57856" lon="2.96599">
        <ele>271.9</ele>
        <time>2026-05-07T07:12:03.000Z</time>
      </trkpt>
      <trkpt lat="43.57857" lon="2.96598">
        <ele>271.3</ele>
        <time>2026-05-07T07:12:04.000Z</time>
      </trkpt>
      <trkpt lat="43.57858" lon="2.96596">
        <ele>271.3</ele>
        <time>2026-05-07T07:12:05.000Z</time>
      </trkpt>
      <trkpt lat="43.57859" lon="2.96595">
        <ele>271.7</ele>
        <time>2026-05-07T07:12:06.000Z</time>
      </trkpt>
      <trkpt lat="43.57861" lon="2.96595">
        <ele>272.4</ele>
        <time>2026-05-07T07:12:07.000Z</time>
      </trkpt>
      <trkpt lat="43.57862" lon="2.96595">
        <ele>272.6</ele>
        <time>2026-05-07T07:12:08.000Z</time>
      </trkpt>
      <trkpt lat="43.57863" lon="2.96594">
        <ele>273</ele>
        <time>2026-05-07T07:12:09.000Z</time>
      </trkpt>
      <trkpt lat="43.57864" lon="2.96594">
        <ele>273</ele>
        <time>2026-05-07T07:12:10.000Z</time>
      </trkpt>
      <trkpt lat="43.57865" lon="2.96593">
        <ele>272</ele>
        <time>2026-05-07T07:12:11.000Z</time>
      </trkpt>
      <trkpt lat="43.57866" lon="2.96593">
        <ele>271.7</ele>
        <time>2026-05-07T07:12:12.000Z</time>
      </trkpt>
      <trkpt lat="43.57867" lon="2.96592">
        <ele>272</ele>
        <time>2026-05-07T07:12:13.000Z</time>
      </trkpt>
      <trkpt lat="43.57869" lon="2.96592">
        <ele>271.8</ele>
        <time>2026-05-07T07:12:14.000Z</time>
      </trkpt>
      <trkpt lat="43.57871" lon="2.96594">
        <ele>271.7</ele>
        <time>2026-05-07T07:12:15.000Z</time>
      </trkpt>
      <trkpt lat="43.57872" lon="2.96594">
        <ele>271.7</ele>
        <time>2026-05-07T07:12:16.000Z</time>
      </trkpt>
      <trkpt lat="43.57874" lon="2.96595">
        <ele>271.6</ele>
        <time>2026-05-07T07:12:17.000Z</time>
      </trkpt>
      <trkpt lat="43.57876" lon="2.96594">
        <ele>271.7</ele>
        <time>2026-05-07T07:12:18.000Z</time>
      </trkpt>
      <trkpt lat="43.57878" lon="2.96594">
        <ele>271.4</ele>
        <time>2026-05-07T07:12:19.000Z</time>
      </trkpt>
      <trkpt lat="43.57879" lon="2.96594">
        <ele>271.3</ele>
        <time>2026-05-07T07:12:20.000Z</time>
      </trkpt>
      <trkpt lat="43.5788" lon="2.96594">
        <ele>271.1</ele>
        <time>2026-05-07T07:12:21.000Z</time>
      </trkpt>
      <trkpt lat="43.57881" lon="2.96594">
        <ele>270.9</ele>
        <time>2026-05-07T07:12:22.000Z</time>
      </trkpt>
      <trkpt lat="43.57883" lon="2.96594">
        <ele>270.9</ele>
        <time>2026-05-07T07:12:23.000Z</time>
      </trkpt>
      <trkpt lat="43.57884" lon="2.96593">
        <ele>271.2</ele>
        <time>2026-05-07T07:12:24.000Z</time>
      </trkpt>
      <trkpt lat="43.57884" lon="2.96591">
        <ele>271.2</ele>
        <time>2026-05-07T07:12:25.000Z</time>
      </trkpt>
      <trkpt lat="43.57885" lon="2.9659">
        <ele>271.1</ele>
        <time>2026-05-07T07:12:26.000Z</time>
      </trkpt>
      <trkpt lat="43.57886" lon="2.96589">
        <ele>271.2</ele>
        <time>2026-05-07T07:12:27.000Z</time>
      </trkpt>
      <trkpt lat="43.57887" lon="2.96588">
        <ele>271</ele>
        <time>2026-05-07T07:12:28.000Z</time>
      </trkpt>
      <trkpt lat="43.57887" lon="2.96587">
        <ele>270.5</ele>
        <time>2026-05-07T07:12:29.000Z</time>
      </trkpt>
      <trkpt lat="43.57888" lon="2.96586">
        <ele>270.2</ele>
        <time>2026-05-07T07:12:30.000Z</time>
      </trkpt>
      <trkpt lat="43.57889" lon="2.96584">
        <ele>269.9</ele>
        <time>2026-05-07T07:12:31.000Z</time>
      </trkpt>
      <trkpt lat="43.5789" lon="2.96582">
        <ele>271</ele>
        <time>2026-05-07T07:12:32.000Z</time>
      </trkpt>
      <trkpt lat="43.5789" lon="2.96581">
        <ele>271.1</ele>
        <time>2026-05-07T07:12:33.000Z</time>
      </trkpt>
      <trkpt lat="43.5789" lon="2.9658">
        <ele>271.1</ele>
        <time>2026-05-07T07:12:34.000Z</time>
      </trkpt>
      <trkpt lat="43.57891" lon="2.96579">
        <ele>271.6</ele>
        <time>2026-05-07T07:12:35.000Z</time>
      </trkpt>
      <trkpt lat="43.57892" lon="2.96577">
        <ele>271.6</ele>
        <time>2026-05-07T07:12:36.000Z</time>
      </trkpt>
      <trkpt lat="43.57893" lon="2.96575">
        <ele>272.1</ele>
        <time>2026-05-07T07:12:37.000Z</time>
      </trkpt>
      <trkpt lat="43.57893" lon="2.96573">
        <ele>272.5</ele>
        <time>2026-05-07T07:12:38.000Z</time>
      </trkpt>
      <trkpt lat="43.57893" lon="2.96571">
        <ele>273.1</ele>
        <time>2026-05-07T07:12:39.000Z</time>
      </trkpt>
      <trkpt lat="43.57893" lon="2.96569">
        <ele>273.4</ele>
        <time>2026-05-07T07:12:40.000Z</time>
      </trkpt>
      <trkpt lat="43.57893" lon="2.96568">
        <ele>273.8</ele>
        <time>2026-05-07T07:12:41.000Z</time>
      </trkpt>
      <trkpt lat="43.57893" lon="2.96567">
        <ele>274.1</ele>
        <time>2026-05-07T07:12:42.000Z</time>
      </trkpt>
      <trkpt lat="43.57893" lon="2.96565">
        <ele>274.5</ele>
        <time>2026-05-07T07:12:43.000Z</time>
      </trkpt>
      <trkpt lat="43.57893" lon="2.96563">
        <ele>274.9</ele>
        <time>2026-05-07T07:12:44.000Z</time>
      </trkpt>
      <trkpt lat="43.57894" lon="2.96562">
        <ele>274.8</ele>
        <time>2026-05-07T07:12:45.000Z</time>
      </trkpt>
      <trkpt lat="43.57894" lon="2.9656">
        <ele>274.8</ele>
        <time>2026-05-07T07:12:46.000Z</time>
      </trkpt>
      <trkpt lat="43.57895" lon="2.96559">
        <ele>274.6</ele>
        <time>2026-05-07T07:12:47.000Z</time>
      </trkpt>
      <trkpt lat="43.57895" lon="2.96557">
        <ele>274.8</ele>
        <time>2026-05-07T07:12:48.000Z</time>
      </trkpt>
      <trkpt lat="43.57895" lon="2.96556">
        <ele>274.5</ele>
        <time>2026-05-07T07:12:49.000Z</time>
      </trkpt>
      <trkpt lat="43.57895" lon="2.96555">
        <ele>274.1</ele>
        <time>2026-05-07T07:12:50.000Z</time>
      </trkpt>
      <trkpt lat="43.57896" lon="2.96553">
        <ele>274.7</ele>
        <time>2026-05-07T07:12:51.000Z</time>
      </trkpt>
      <trkpt lat="43.57896" lon="2.96552">
        <ele>275</ele>
        <time>2026-05-07T07:12:52.000Z</time>
      </trkpt>
      <trkpt lat="43.57897" lon="2.9655">
        <ele>275.6</ele>
        <time>2026-05-07T07:12:53.000Z</time>
      </trkpt>
      <trkpt lat="43.57898" lon="2.9655">
        <ele>275.9</ele>
        <time>2026-05-07T07:12:54.000Z</time>
      </trkpt>
      <trkpt lat="43.57898" lon="2.96548">
        <ele>275.7</ele>
        <time>2026-05-07T07:12:55.000Z</time>
      </trkpt>
      <trkpt lat="43.57898" lon="2.96547">
        <ele>275.7</ele>
        <time>2026-05-07T07:12:56.000Z</time>
      </trkpt>
      <trkpt lat="43.57899" lon="2.96545">
        <ele>276.2</ele>
        <time>2026-05-07T07:12:57.000Z</time>
      </trkpt>
      <trkpt lat="43.57899" lon="2.96544">
        <ele>276.7</ele>
        <time>2026-05-07T07:12:58.000Z</time>
      </trkpt>
      <trkpt lat="43.579" lon="2.96543">
        <ele>277</ele>
        <time>2026-05-07T07:12:59.000Z</time>
      </trkpt>
      <trkpt lat="43.57901" lon="2.96543">
        <ele>277.2</ele>
        <time>2026-05-07T07:13:00.000Z</time>
      </trkpt>
      <trkpt lat="43.57901" lon="2.96541">
        <ele>276.9</ele>
        <time>2026-05-07T07:13:01.000Z</time>
      </trkpt>
      <trkpt lat="43.57902" lon="2.96541">
        <ele>277.2</ele>
        <time>2026-05-07T07:13:02.000Z</time>
      </trkpt>
      <trkpt lat="43.57902" lon="2.9654">
        <ele>277.3</ele>
        <time>2026-05-07T07:13:03.000Z</time>
      </trkpt>
      <trkpt lat="43.57902" lon="2.96539">
        <ele>276.6</ele>
        <time>2026-05-07T07:13:04.000Z</time>
      </trkpt>
      <trkpt lat="43.57902" lon="2.96538">
        <ele>276.7</ele>
        <time>2026-05-07T07:13:05.000Z</time>
      </trkpt>
      <trkpt lat="43.57903" lon="2.96537">
        <ele>276.6</ele>
        <time>2026-05-07T07:13:06.000Z</time>
      </trkpt>
      <trkpt lat="43.57904" lon="2.96536">
        <ele>276.7</ele>
        <time>2026-05-07T07:13:07.000Z</time>
      </trkpt>
      <trkpt lat="43.57905" lon="2.96535">
        <ele>277</ele>
        <time>2026-05-07T07:13:08.000Z</time>
      </trkpt>
      <trkpt lat="43.57907" lon="2.96534">
        <ele>277.1</ele>
        <time>2026-05-07T07:13:09.000Z</time>
      </trkpt>
      <trkpt lat="43.57907" lon="2.96532">
        <ele>276.9</ele>
        <time>2026-05-07T07:13:10.000Z</time>
      </trkpt>
      <trkpt lat="43.57908" lon="2.96531">
        <ele>277.1</ele>
        <time>2026-05-07T07:13:11.000Z</time>
      </trkpt>
      <trkpt lat="43.57909" lon="2.96529">
        <ele>277.2</ele>
        <time>2026-05-07T07:13:12.000Z</time>
      </trkpt>
      <trkpt lat="43.57909" lon="2.96528">
        <ele>277.2</ele>
        <time>2026-05-07T07:13:13.000Z</time>
      </trkpt>
      <trkpt lat="43.5791" lon="2.96528">
        <ele>277.3</ele>
        <time>2026-05-07T07:13:14.000Z</time>
      </trkpt>
      <trkpt lat="43.5791" lon="2.96528">
        <ele>277.9</ele>
        <time>2026-05-07T07:13:15.000Z</time>
      </trkpt>
      <trkpt lat="43.57911" lon="2.96528">
        <ele>278</ele>
        <time>2026-05-07T07:13:16.000Z</time>
      </trkpt>
      <trkpt lat="43.57913" lon="2.96527">
        <ele>278</ele>
        <time>2026-05-07T07:13:17.000Z</time>
      </trkpt>
      <trkpt lat="43.57914" lon="2.96526">
        <ele>279.3</ele>
        <time>2026-05-07T07:13:18.000Z</time>
      </trkpt>
      <trkpt lat="43.57915" lon="2.96525">
        <ele>280.6</ele>
        <time>2026-05-07T07:13:19.000Z</time>
      </trkpt>
      <trkpt lat="43.57916" lon="2.96525">
        <ele>280.8</ele>
        <time>2026-05-07T07:13:20.000Z</time>
      </trkpt>
      <trkpt lat="43.57917" lon="2.96524">
        <ele>280.9</ele>
        <time>2026-05-07T07:13:21.000Z</time>
      </trkpt>
      <trkpt lat="43.57918" lon="2.96523">
        <ele>281.1</ele>
        <time>2026-05-07T07:13:22.000Z</time>
      </trkpt>
      <trkpt lat="43.57919" lon="2.96522">
        <ele>281.7</ele>
        <time>2026-05-07T07:13:23.000Z</time>
      </trkpt>
      <trkpt lat="43.5792" lon="2.96521">
        <ele>281.8</ele>
        <time>2026-05-07T07:13:24.000Z</time>
      </trkpt>
      <trkpt lat="43.57921" lon="2.9652">
        <ele>282</ele>
        <time>2026-05-07T07:13:25.000Z</time>
      </trkpt>
      <trkpt lat="43.57922" lon="2.96519">
        <ele>281.9</ele>
        <time>2026-05-07T07:13:26.000Z</time>
      </trkpt>
      <trkpt lat="43.57922" lon="2.96518">
        <ele>282.2</ele>
        <time>2026-05-07T07:13:27.000Z</time>
      </trkpt>
      <trkpt lat="43.57923" lon="2.96517">
        <ele>282.3</ele>
        <time>2026-05-07T07:13:28.000Z</time>
      </trkpt>
      <trkpt lat="43.57923" lon="2.96516">
        <ele>282.5</ele>
        <time>2026-05-07T07:13:29.000Z</time>
      </trkpt>
      <trkpt lat="43.57923" lon="2.96515">
        <ele>282.1</ele>
        <time>2026-05-07T07:13:30.000Z</time>
      </trkpt>
      <trkpt lat="43.57924" lon="2.96513">
        <ele>282.4</ele>
        <time>2026-05-07T07:13:31.000Z</time>
      </trkpt>
      <trkpt lat="43.57924" lon="2.96512">
        <ele>282.8</ele>
        <time>2026-05-07T07:13:32.000Z</time>
      </trkpt>
      <trkpt lat="43.57924" lon="2.96511">
        <ele>283.2</ele>
        <time>2026-05-07T07:13:33.000Z</time>
      </trkpt>
      <trkpt lat="43.57925" lon="2.9651">
        <ele>283.7</ele>
        <time>2026-05-07T07:13:34.000Z</time>
      </trkpt>
      <trkpt lat="43.57925" lon="2.9651">
        <ele>283.4</ele>
        <time>2026-05-07T07:13:35.000Z</time>
      </trkpt>
      <trkpt lat="43.57926" lon="2.96508">
        <ele>283.6</ele>
        <time>2026-05-07T07:13:36.000Z</time>
      </trkpt>
      <trkpt lat="43.57927" lon="2.96507">
        <ele>283.3</ele>
        <time>2026-05-07T07:13:37.000Z</time>
      </trkpt>
      <trkpt lat="43.57928" lon="2.96506">
        <ele>283.5</ele>
        <time>2026-05-07T07:13:38.000Z</time>
      </trkpt>
      <trkpt lat="43.57929" lon="2.96505">
        <ele>283.9</ele>
        <time>2026-05-07T07:13:39.000Z</time>
      </trkpt>
      <trkpt lat="43.57929" lon="2.96504">
        <ele>283.7</ele>
        <time>2026-05-07T07:13:40.000Z</time>
      </trkpt>
      <trkpt lat="43.57929" lon="2.96503">
        <ele>283.5</ele>
        <time>2026-05-07T07:13:41.000Z</time>
      </trkpt>
      <trkpt lat="43.5793" lon="2.96501">
        <ele>283.4</ele>
        <time>2026-05-07T07:13:42.000Z</time>
      </trkpt>
      <trkpt lat="43.5793" lon="2.965">
        <ele>283.2</ele>
        <time>2026-05-07T07:13:43.000Z</time>
      </trkpt>
      <trkpt lat="43.57931" lon="2.96498">
        <ele>282.6</ele>
        <time>2026-05-07T07:13:44.000Z</time>
      </trkpt>
      <trkpt lat="43.57931" lon="2.96497">
        <ele>282.5</ele>
        <time>2026-05-07T07:13:45.000Z</time>
      </trkpt>
      <trkpt lat="43.57932" lon="2.96495">
        <ele>282.9</ele>
        <time>2026-05-07T07:13:46.000Z</time>
      </trkpt>
      <trkpt lat="43.57933" lon="2.96494">
        <ele>283.4</ele>
        <time>2026-05-07T07:13:47.000Z</time>
      </trkpt>
      <trkpt lat="43.57933" lon="2.96493">
        <ele>284.1</ele>
        <time>2026-05-07T07:13:48.000Z</time>
      </trkpt>
      <trkpt lat="43.57934" lon="2.96492">
        <ele>283.9</ele>
        <time>2026-05-07T07:13:49.000Z</time>
      </trkpt>
      <trkpt lat="43.57934" lon="2.9649">
        <ele>283.8</ele>
        <time>2026-05-07T07:13:50.000Z</time>
      </trkpt>
      <trkpt lat="43.57935" lon="2.96489">
        <ele>283.6</ele>
        <time>2026-05-07T07:13:51.000Z</time>
      </trkpt>
      <trkpt lat="43.57936" lon="2.96487">
        <ele>283.2</ele>
        <time>2026-05-07T07:13:52.000Z</time>
      </trkpt>
      <trkpt lat="43.57937" lon="2.96487">
        <ele>283.1</ele>
        <time>2026-05-07T07:13:53.000Z</time>
      </trkpt>
      <trkpt lat="43.57938" lon="2.96486">
        <ele>282.8</ele>
        <time>2026-05-07T07:13:54.000Z</time>
      </trkpt>
      <trkpt lat="43.57938" lon="2.96485">
        <ele>282.6</ele>
        <time>2026-05-07T07:13:55.000Z</time>
      </trkpt>
      <trkpt lat="43.57939" lon="2.96484">
        <ele>282.6</ele>
        <time>2026-05-07T07:13:56.000Z</time>
      </trkpt>
      <trkpt lat="43.5794" lon="2.96482">
        <ele>282.9</ele>
        <time>2026-05-07T07:13:57.000Z</time>
      </trkpt>
      <trkpt lat="43.5794" lon="2.96481">
        <ele>283.7</ele>
        <time>2026-05-07T07:13:58.000Z</time>
      </trkpt>
      <trkpt lat="43.57941" lon="2.96481">
        <ele>283.9</ele>
        <time>2026-05-07T07:13:59.000Z</time>
      </trkpt>
      <trkpt lat="43.57941" lon="2.9648">
        <ele>283.8</ele>
        <time>2026-05-07T07:14:00.000Z</time>
      </trkpt>
      <trkpt lat="43.57942" lon="2.9648">
        <ele>283.5</ele>
        <time>2026-05-07T07:14:01.000Z</time>
      </trkpt>
      <trkpt lat="43.57944" lon="2.96479">
        <ele>283.3</ele>
        <time>2026-05-07T07:14:02.000Z</time>
      </trkpt>
      <trkpt lat="43.57944" lon="2.96479">
        <ele>283.1</ele>
        <time>2026-05-07T07:14:03.000Z</time>
      </trkpt>
      <trkpt lat="43.57946" lon="2.96479">
        <ele>283.1</ele>
        <time>2026-05-07T07:14:04.000Z</time>
      </trkpt>
      <trkpt lat="43.57948" lon="2.9648">
        <ele>283.2</ele>
        <time>2026-05-07T07:14:05.000Z</time>
      </trkpt>
      <trkpt lat="43.57949" lon="2.9648">
        <ele>283.3</ele>
        <time>2026-05-07T07:14:06.000Z</time>
      </trkpt>
      <trkpt lat="43.57951" lon="2.9648">
        <ele>283.2</ele>
        <time>2026-05-07T07:14:07.000Z</time>
      </trkpt>
      <trkpt lat="43.57951" lon="2.96479">
        <ele>283.2</ele>
        <time>2026-05-07T07:14:08.000Z</time>
      </trkpt>
      <trkpt lat="43.57952" lon="2.96478">
        <ele>283.2</ele>
        <time>2026-05-07T07:14:09.000Z</time>
      </trkpt>
      <trkpt lat="43.57953" lon="2.96478">
        <ele>283.3</ele>
        <time>2026-05-07T07:14:10.000Z</time>
      </trkpt>
      <trkpt lat="43.57955" lon="2.96478">
        <ele>283.2</ele>
        <time>2026-05-07T07:14:11.000Z</time>
      </trkpt>
      <trkpt lat="43.57956" lon="2.96478">
        <ele>283.6</ele>
        <time>2026-05-07T07:14:12.000Z</time>
      </trkpt>
      <trkpt lat="43.57957" lon="2.96478">
        <ele>283.8</ele>
        <time>2026-05-07T07:14:13.000Z</time>
      </trkpt>
      <trkpt lat="43.57958" lon="2.96478">
        <ele>283.3</ele>
        <time>2026-05-07T07:14:14.000Z</time>
      </trkpt>
      <trkpt lat="43.5796" lon="2.96478">
        <ele>283.5</ele>
        <time>2026-05-07T07:14:15.000Z</time>
      </trkpt>
      <trkpt lat="43.57961" lon="2.96477">
        <ele>284</ele>
        <time>2026-05-07T07:14:16.000Z</time>
      </trkpt>
      <trkpt lat="43.57962" lon="2.96476">
        <ele>284.3</ele>
        <time>2026-05-07T07:14:17.000Z</time>
      </trkpt>
      <trkpt lat="43.57963" lon="2.96475">
        <ele>284.2</ele>
        <time>2026-05-07T07:14:18.000Z</time>
      </trkpt>
      <trkpt lat="43.57963" lon="2.96474">
        <ele>284.2</ele>
        <time>2026-05-07T07:14:19.000Z</time>
      </trkpt>
      <trkpt lat="43.57964" lon="2.96474">
        <ele>283.9</ele>
        <time>2026-05-07T07:14:20.000Z</time>
      </trkpt>
      <trkpt lat="43.57964" lon="2.96474">
        <ele>283.8</ele>
        <time>2026-05-07T07:14:21.000Z</time>
      </trkpt>
      <trkpt lat="43.57965" lon="2.96474">
        <ele>283.9</ele>
        <time>2026-05-07T07:14:22.000Z</time>
      </trkpt>
      <trkpt lat="43.57966" lon="2.96473">
        <ele>283.9</ele>
        <time>2026-05-07T07:14:23.000Z</time>
      </trkpt>
      <trkpt lat="43.57968" lon="2.96472">
        <ele>283.7</ele>
        <time>2026-05-07T07:14:24.000Z</time>
      </trkpt>
      <trkpt lat="43.57969" lon="2.96471">
        <ele>283.4</ele>
        <time>2026-05-07T07:14:25.000Z</time>
      </trkpt>
      <trkpt lat="43.5797" lon="2.9647">
        <ele>283.2</ele>
        <time>2026-05-07T07:14:26.000Z</time>
      </trkpt>
      <trkpt lat="43.57971" lon="2.96469">
        <ele>282.8</ele>
        <time>2026-05-07T07:14:27.000Z</time>
      </trkpt>
      <trkpt lat="43.57973" lon="2.96469">
        <ele>282.9</ele>
        <time>2026-05-07T07:14:28.000Z</time>
      </trkpt>
      <trkpt lat="43.57974" lon="2.9647">
        <ele>282.7</ele>
        <time>2026-05-07T07:14:29.000Z</time>
      </trkpt>
      <trkpt lat="43.57975" lon="2.96469">
        <ele>282.8</ele>
        <time>2026-05-07T07:14:30.000Z</time>
      </trkpt>
      <trkpt lat="43.57976" lon="2.96469">
        <ele>283.8</ele>
        <time>2026-05-07T07:14:31.000Z</time>
      </trkpt>
      <trkpt lat="43.57977" lon="2.96469">
        <ele>283.8</ele>
        <time>2026-05-07T07:14:32.000Z</time>
      </trkpt>
      <trkpt lat="43.57979" lon="2.9647">
        <ele>283.6</ele>
        <time>2026-05-07T07:14:33.000Z</time>
      </trkpt>
      <trkpt lat="43.5798" lon="2.96469">
        <ele>283.7</ele>
        <time>2026-05-07T07:14:34.000Z</time>
      </trkpt>
      <trkpt lat="43.57981" lon="2.96468">
        <ele>284</ele>
        <time>2026-05-07T07:14:35.000Z</time>
      </trkpt>
      <trkpt lat="43.57982" lon="2.96467">
        <ele>283.9</ele>
        <time>2026-05-07T07:14:36.000Z</time>
      </trkpt>
      <trkpt lat="43.57983" lon="2.96466">
        <ele>283.9</ele>
        <time>2026-05-07T07:14:37.000Z</time>
      </trkpt>
      <trkpt lat="43.57984" lon="2.96467">
        <ele>283.3</ele>
        <time>2026-05-07T07:14:38.000Z</time>
      </trkpt>
      <trkpt lat="43.57984" lon="2.96468">
        <ele>283.4</ele>
        <time>2026-05-07T07:14:39.000Z</time>
      </trkpt>
      <trkpt lat="43.57984" lon="2.96469">
        <ele>283.6</ele>
        <time>2026-05-07T07:14:40.000Z</time>
      </trkpt>
      <trkpt lat="43.57985" lon="2.96469">
        <ele>283.6</ele>
        <time>2026-05-07T07:14:41.000Z</time>
      </trkpt>
      <trkpt lat="43.57986" lon="2.96469">
        <ele>284.8</ele>
        <time>2026-05-07T07:14:42.000Z</time>
      </trkpt>
      <trkpt lat="43.57986" lon="2.96468">
        <ele>285.3</ele>
        <time>2026-05-07T07:14:43.000Z</time>
      </trkpt>
      <trkpt lat="43.57987" lon="2.96468">
        <ele>285.5</ele>
        <time>2026-05-07T07:14:44.000Z</time>
      </trkpt>
      <trkpt lat="43.57987" lon="2.96468">
        <ele>285.7</ele>
        <time>2026-05-07T07:14:45.000Z</time>
      </trkpt>
      <trkpt lat="43.57988" lon="2.96468">
        <ele>286.2</ele>
        <time>2026-05-07T07:14:46.000Z</time>
      </trkpt>
      <trkpt lat="43.57989" lon="2.96468">
        <ele>286.2</ele>
        <time>2026-05-07T07:14:47.000Z</time>
      </trkpt>
      <trkpt lat="43.5799" lon="2.96467">
        <ele>286.4</ele>
        <time>2026-05-07T07:14:48.000Z</time>
      </trkpt>
      <trkpt lat="43.57991" lon="2.96467">
        <ele>286.4</ele>
        <time>2026-05-07T07:14:49.000Z</time>
      </trkpt>
      <trkpt lat="43.57992" lon="2.96468">
        <ele>286.9</ele>
        <time>2026-05-07T07:14:50.000Z</time>
      </trkpt>
      <trkpt lat="43.57993" lon="2.96468">
        <ele>286.5</ele>
        <time>2026-05-07T07:14:51.000Z</time>
      </trkpt>
      <trkpt lat="43.57995" lon="2.96468">
        <ele>286.1</ele>
        <time>2026-05-07T07:14:52.000Z</time>
      </trkpt>
      <trkpt lat="43.57996" lon="2.96468">
        <ele>285.6</ele>
        <time>2026-05-07T07:14:53.000Z</time>
      </trkpt>
      <trkpt lat="43.57997" lon="2.96467">
        <ele>285.5</ele>
        <time>2026-05-07T07:14:54.000Z</time>
      </trkpt>
      <trkpt lat="43.57999" lon="2.96467">
        <ele>285.8</ele>
        <time>2026-05-07T07:14:55.000Z</time>
      </trkpt>
      <trkpt lat="43.58" lon="2.96467">
        <ele>286.2</ele>
        <time>2026-05-07T07:14:56.000Z</time>
      </trkpt>
      <trkpt lat="43.58002" lon="2.96468">
        <ele>286.6</ele>
        <time>2026-05-07T07:14:57.000Z</time>
      </trkpt>
      <trkpt lat="43.58003" lon="2.96468">
        <ele>287</ele>
        <time>2026-05-07T07:14:58.000Z</time>
      </trkpt>
      <trkpt lat="43.58004" lon="2.96469">
        <ele>287.4</ele>
        <time>2026-05-07T07:14:59.000Z</time>
      </trkpt>
      <trkpt lat="43.58005" lon="2.96469">
        <ele>288.3</ele>
        <time>2026-05-07T07:15:00.000Z</time>
      </trkpt>
      <trkpt lat="43.58006" lon="2.9647">
        <ele>288.4</ele>
        <time>2026-05-07T07:15:01.000Z</time>
      </trkpt>
      <trkpt lat="43.58007" lon="2.9647">
        <ele>289.4</ele>
        <time>2026-05-07T07:15:02.000Z</time>
      </trkpt>
      <trkpt lat="43.58009" lon="2.96471">
        <ele>289.3</ele>
        <time>2026-05-07T07:15:03.000Z</time>
      </trkpt>
      <trkpt lat="43.5801" lon="2.96472">
        <ele>289.6</ele>
        <time>2026-05-07T07:15:04.000Z</time>
      </trkpt>
      <trkpt lat="43.58011" lon="2.96473">
        <ele>289.5</ele>
        <time>2026-05-07T07:15:05.000Z</time>
      </trkpt>
      <trkpt lat="43.58012" lon="2.96475">
        <ele>287.8</ele>
        <time>2026-05-07T07:15:06.000Z</time>
      </trkpt>
      <trkpt lat="43.58013" lon="2.96477">
        <ele>287.5</ele>
        <time>2026-05-07T07:15:07.000Z</time>
      </trkpt>
      <trkpt lat="43.58015" lon="2.96478">
        <ele>287.2</ele>
        <time>2026-05-07T07:15:08.000Z</time>
      </trkpt>
      <trkpt lat="43.58016" lon="2.96479">
        <ele>287.9</ele>
        <time>2026-05-07T07:15:09.000Z</time>
      </trkpt>
      <trkpt lat="43.58017" lon="2.96479">
        <ele>288.3</ele>
        <time>2026-05-07T07:15:10.000Z</time>
      </trkpt>
      <trkpt lat="43.58018" lon="2.9648">
        <ele>288.9</ele>
        <time>2026-05-07T07:15:11.000Z</time>
      </trkpt>
      <trkpt lat="43.58019" lon="2.96481">
        <ele>289.5</ele>
        <time>2026-05-07T07:15:12.000Z</time>
      </trkpt>
      <trkpt lat="43.5802" lon="2.96482">
        <ele>290.2</ele>
        <time>2026-05-07T07:15:13.000Z</time>
      </trkpt>
      <trkpt lat="43.5802" lon="2.96484">
        <ele>291.4</ele>
        <time>2026-05-07T07:15:14.000Z</time>
      </trkpt>
      <trkpt lat="43.58021" lon="2.96484">
        <ele>292.4</ele>
        <time>2026-05-07T07:15:15.000Z</time>
      </trkpt>
      <trkpt lat="43.58022" lon="2.96484">
        <ele>293.6</ele>
        <time>2026-05-07T07:15:16.000Z</time>
      </trkpt>
      <trkpt lat="43.58023" lon="2.96485">
        <ele>294.7</ele>
        <time>2026-05-07T07:15:17.000Z</time>
      </trkpt>
      <trkpt lat="43.58024" lon="2.96486">
        <ele>294.4</ele>
        <time>2026-05-07T07:15:18.000Z</time>
      </trkpt>
      <trkpt lat="43.58025" lon="2.96487">
        <ele>295.1</ele>
        <time>2026-05-07T07:15:19.000Z</time>
      </trkpt>
      <trkpt lat="43.58025" lon="2.96487">
        <ele>294.7</ele>
        <time>2026-05-07T07:15:20.000Z</time>
      </trkpt>
      <trkpt lat="43.58026" lon="2.96488">
        <ele>294.3</ele>
        <time>2026-05-07T07:15:21.000Z</time>
      </trkpt>
      <trkpt lat="43.58027" lon="2.96488">
        <ele>293.5</ele>
        <time>2026-05-07T07:15:22.000Z</time>
      </trkpt>
      <trkpt lat="43.58028" lon="2.96489">
        <ele>293.8</ele>
        <time>2026-05-07T07:15:23.000Z</time>
      </trkpt>
      <trkpt lat="43.58029" lon="2.9649">
        <ele>294.3</ele>
        <time>2026-05-07T07:15:24.000Z</time>
      </trkpt>
      <trkpt lat="43.5803" lon="2.96491">
        <ele>295.2</ele>
        <time>2026-05-07T07:15:25.000Z</time>
      </trkpt>
      <trkpt lat="43.58031" lon="2.96491">
        <ele>295.9</ele>
        <time>2026-05-07T07:15:26.000Z</time>
      </trkpt>
      <trkpt lat="43.58031" lon="2.96493">
        <ele>296.1</ele>
        <time>2026-05-07T07:15:27.000Z</time>
      </trkpt>
      <trkpt lat="43.58033" lon="2.96492">
        <ele>296.3</ele>
        <time>2026-05-07T07:15:28.000Z</time>
      </trkpt>
      <trkpt lat="43.58033" lon="2.96492">
        <ele>296.7</ele>
        <time>2026-05-07T07:15:29.000Z</time>
      </trkpt>
      <trkpt lat="43.58034" lon="2.96493">
        <ele>296.7</ele>
        <time>2026-05-07T07:15:30.000Z</time>
      </trkpt>
      <trkpt lat="43.58036" lon="2.96494">
        <ele>296.5</ele>
        <time>2026-05-07T07:15:31.000Z</time>
      </trkpt>
      <trkpt lat="43.58036" lon="2.96495">
        <ele>297.1</ele>
        <time>2026-05-07T07:15:32.000Z</time>
      </trkpt>
      <trkpt lat="43.58037" lon="2.96495">
        <ele>296.7</ele>
        <time>2026-05-07T07:15:33.000Z</time>
      </trkpt>
      <trkpt lat="43.58038" lon="2.96495">
        <ele>296.3</ele>
        <time>2026-05-07T07:15:34.000Z</time>
      </trkpt>
      <trkpt lat="43.58038" lon="2.96496">
        <ele>295.1</ele>
        <time>2026-05-07T07:15:35.000Z</time>
      </trkpt>
      <trkpt lat="43.58039" lon="2.96496">
        <ele>294.2</ele>
        <time>2026-05-07T07:15:36.000Z</time>
      </trkpt>
      <trkpt lat="43.5804" lon="2.96497">
        <ele>294.1</ele>
        <time>2026-05-07T07:15:37.000Z</time>
      </trkpt>
      <trkpt lat="43.58041" lon="2.96497">
        <ele>294.6</ele>
        <time>2026-05-07T07:15:38.000Z</time>
      </trkpt>
      <trkpt lat="43.58041" lon="2.96498">
        <ele>294.6</ele>
        <time>2026-05-07T07:15:39.000Z</time>
      </trkpt>
      <trkpt lat="43.58042" lon="2.96498">
        <ele>294.5</ele>
        <time>2026-05-07T07:15:40.000Z</time>
      </trkpt>
      <trkpt lat="43.58043" lon="2.96499">
        <ele>293.3</ele>
        <time>2026-05-07T07:15:41.000Z</time>
      </trkpt>
      <trkpt lat="43.58043" lon="2.965">
        <ele>294.1</ele>
        <time>2026-05-07T07:15:42.000Z</time>
      </trkpt>
      <trkpt lat="43.58044" lon="2.96501">
        <ele>294.8</ele>
        <time>2026-05-07T07:15:43.000Z</time>
      </trkpt>
      <trkpt lat="43.58045" lon="2.96502">
        <ele>295.8</ele>
        <time>2026-05-07T07:15:44.000Z</time>
      </trkpt>
      <trkpt lat="43.58045" lon="2.96503">
        <ele>295.6</ele>
        <time>2026-05-07T07:15:45.000Z</time>
      </trkpt>
      <trkpt lat="43.58046" lon="2.96504">
        <ele>296.2</ele>
        <time>2026-05-07T07:15:46.000Z</time>
      </trkpt>
      <trkpt lat="43.58047" lon="2.96505">
        <ele>296.2</ele>
        <time>2026-05-07T07:15:47.000Z</time>
      </trkpt>
      <trkpt lat="43.58048" lon="2.96506">
        <ele>296.5</ele>
        <time>2026-05-07T07:15:48.000Z</time>
      </trkpt>
      <trkpt lat="43.58048" lon="2.96507">
        <ele>296.6</ele>
        <time>2026-05-07T07:15:49.000Z</time>
      </trkpt>
      <trkpt lat="43.58049" lon="2.96508">
        <ele>296.5</ele>
        <time>2026-05-07T07:15:50.000Z</time>
      </trkpt>
      <trkpt lat="43.5805" lon="2.96508">
        <ele>297.1</ele>
        <time>2026-05-07T07:15:51.000Z</time>
      </trkpt>
      <trkpt lat="43.58051" lon="2.96509">
        <ele>297.6</ele>
        <time>2026-05-07T07:15:52.000Z</time>
      </trkpt>
      <trkpt lat="43.58052" lon="2.96509">
        <ele>297.2</ele>
        <time>2026-05-07T07:15:53.000Z</time>
      </trkpt>
      <trkpt lat="43.58053" lon="2.9651">
        <ele>296.7</ele>
        <time>2026-05-07T07:15:54.000Z</time>
      </trkpt>
      <trkpt lat="43.58055" lon="2.9651">
        <ele>296</ele>
        <time>2026-05-07T07:15:55.000Z</time>
      </trkpt>
      <trkpt lat="43.58056" lon="2.96509">
        <ele>296.3</ele>
        <time>2026-05-07T07:15:56.000Z</time>
      </trkpt>
      <trkpt lat="43.58057" lon="2.96509">
        <ele>296.4</ele>
        <time>2026-05-07T07:15:57.000Z</time>
      </trkpt>
      <trkpt lat="43.58058" lon="2.96509">
        <ele>295.9</ele>
        <time>2026-05-07T07:15:58.000Z</time>
      </trkpt>
      <trkpt lat="43.58059" lon="2.96509">
        <ele>295.5</ele>
        <time>2026-05-07T07:15:59.000Z</time>
      </trkpt>
      <trkpt lat="43.5806" lon="2.96509">
        <ele>295.4</ele>
        <time>2026-05-07T07:16:00.000Z</time>
      </trkpt>
      <trkpt lat="43.5806" lon="2.9651">
        <ele>295.6</ele>
        <time>2026-05-07T07:16:01.000Z</time>
      </trkpt>
      <trkpt lat="43.58061" lon="2.96511">
        <ele>295.7</ele>
        <time>2026-05-07T07:16:02.000Z</time>
      </trkpt>
      <trkpt lat="43.58061" lon="2.96511">
        <ele>295.8</ele>
        <time>2026-05-07T07:16:03.000Z</time>
      </trkpt>
      <trkpt lat="43.58061" lon="2.96512">
        <ele>296.5</ele>
        <time>2026-05-07T07:16:04.000Z</time>
      </trkpt>
      <trkpt lat="43.58061" lon="2.96511">
        <ele>296.7</ele>
        <time>2026-05-07T07:16:05.000Z</time>
      </trkpt>
      <trkpt lat="43.58062" lon="2.96511">
        <ele>296.7</ele>
        <time>2026-05-07T07:16:06.000Z</time>
      </trkpt>
      <trkpt lat="43.58062" lon="2.96512">
        <ele>296.6</ele>
        <time>2026-05-07T07:16:07.000Z</time>
      </trkpt>
      <trkpt lat="43.58063" lon="2.96513">
        <ele>295.5</ele>
        <time>2026-05-07T07:16:08.000Z</time>
      </trkpt>
      <trkpt lat="43.58064" lon="2.96514">
        <ele>295.4</ele>
        <time>2026-05-07T07:16:09.000Z</time>
      </trkpt>
      <trkpt lat="43.58065" lon="2.96516">
        <ele>295.7</ele>
        <time>2026-05-07T07:16:10.000Z</time>
      </trkpt>
      <trkpt lat="43.58067" lon="2.96517">
        <ele>295.6</ele>
        <time>2026-05-07T07:16:11.000Z</time>
      </trkpt>
      <trkpt lat="43.58067" lon="2.96519">
        <ele>296.4</ele>
        <time>2026-05-07T07:16:12.000Z</time>
      </trkpt>
      <trkpt lat="43.58068" lon="2.9652">
        <ele>297.3</ele>
        <time>2026-05-07T07:16:13.000Z</time>
      </trkpt>
      <trkpt lat="43.58069" lon="2.96521">
        <ele>298.3</ele>
        <time>2026-05-07T07:16:14.000Z</time>
      </trkpt>
      <trkpt lat="43.5807" lon="2.96522">
        <ele>299.1</ele>
        <time>2026-05-07T07:16:15.000Z</time>
      </trkpt>
      <trkpt lat="43.5807" lon="2.96523">
        <ele>299.2</ele>
        <time>2026-05-07T07:16:16.000Z</time>
      </trkpt>
      <trkpt lat="43.58071" lon="2.96524">
        <ele>299.3</ele>
        <time>2026-05-07T07:16:17.000Z</time>
      </trkpt>
      <trkpt lat="43.58073" lon="2.96524">
        <ele>299.6</ele>
        <time>2026-05-07T07:16:18.000Z</time>
      </trkpt>
      <trkpt lat="43.58074" lon="2.96524">
        <ele>300</ele>
        <time>2026-05-07T07:16:19.000Z</time>
      </trkpt>
      <trkpt lat="43.58075" lon="2.96524">
        <ele>299.9</ele>
        <time>2026-05-07T07:16:20.000Z</time>
      </trkpt>
      <trkpt lat="43.58077" lon="2.96524">
        <ele>299.9</ele>
        <time>2026-05-07T07:16:21.000Z</time>
      </trkpt>
      <trkpt lat="43.58078" lon="2.96524">
        <ele>299.7</ele>
        <time>2026-05-07T07:16:22.000Z</time>
      </trkpt>
      <trkpt lat="43.58079" lon="2.96525">
        <ele>299.2</ele>
        <time>2026-05-07T07:16:23.000Z</time>
      </trkpt>
      <trkpt lat="43.5808" lon="2.96525">
        <ele>299.1</ele>
        <time>2026-05-07T07:16:24.000Z</time>
      </trkpt>
      <trkpt lat="43.58082" lon="2.96525">
        <ele>298.7</ele>
        <time>2026-05-07T07:16:25.000Z</time>
      </trkpt>
      <trkpt lat="43.58083" lon="2.96525">
        <ele>298.7</ele>
        <time>2026-05-07T07:16:26.000Z</time>
      </trkpt>
      <trkpt lat="43.58084" lon="2.96526">
        <ele>298.8</ele>
        <time>2026-05-07T07:16:27.000Z</time>
      </trkpt>
      <trkpt lat="43.58085" lon="2.96525">
        <ele>299</ele>
        <time>2026-05-07T07:16:28.000Z</time>
      </trkpt>
      <trkpt lat="43.58086" lon="2.96525">
        <ele>299.5</ele>
        <time>2026-05-07T07:16:29.000Z</time>
      </trkpt>
      <trkpt lat="43.58087" lon="2.96524">
        <ele>299.4</ele>
        <time>2026-05-07T07:16:30.000Z</time>
      </trkpt>
      <trkpt lat="43.58088" lon="2.96523">
        <ele>299.2</ele>
        <time>2026-05-07T07:16:31.000Z</time>
      </trkpt>
      <trkpt lat="43.5809" lon="2.96523">
        <ele>300</ele>
        <time>2026-05-07T07:16:32.000Z</time>
      </trkpt>
      <trkpt lat="43.58091" lon="2.96522">
        <ele>300.9</ele>
        <time>2026-05-07T07:16:33.000Z</time>
      </trkpt>
      <trkpt lat="43.58093" lon="2.96522">
        <ele>301</ele>
        <time>2026-05-07T07:16:34.000Z</time>
      </trkpt>
      <trkpt lat="43.58094" lon="2.96522">
        <ele>301.2</ele>
        <time>2026-05-07T07:16:35.000Z</time>
      </trkpt>
      <trkpt lat="43.58095" lon="2.96522">
        <ele>301.4</ele>
        <time>2026-05-07T07:16:36.000Z</time>
      </trkpt>
      <trkpt lat="43.58096" lon="2.96522">
        <ele>301.4</ele>
        <time>2026-05-07T07:16:37.000Z</time>
      </trkpt>
      <trkpt lat="43.58098" lon="2.96522">
        <ele>302</ele>
        <time>2026-05-07T07:16:38.000Z</time>
      </trkpt>
      <trkpt lat="43.58099" lon="2.96521">
        <ele>302.2</ele>
        <time>2026-05-07T07:16:39.000Z</time>
      </trkpt>
      <trkpt lat="43.581" lon="2.96521">
        <ele>302.3</ele>
        <time>2026-05-07T07:16:40.000Z</time>
      </trkpt>
      <trkpt lat="43.58101" lon="2.96521">
        <ele>302</ele>
        <time>2026-05-07T07:16:41.000Z</time>
      </trkpt>
      <trkpt lat="43.58102" lon="2.9652">
        <ele>302.2</ele>
        <time>2026-05-07T07:16:42.000Z</time>
      </trkpt>
      <trkpt lat="43.58103" lon="2.96519">
        <ele>302.4</ele>
        <time>2026-05-07T07:16:43.000Z</time>
      </trkpt>
      <trkpt lat="43.58103" lon="2.96519">
        <ele>302.7</ele>
        <time>2026-05-07T07:16:44.000Z</time>
      </trkpt>
      <trkpt lat="43.58105" lon="2.96519">
        <ele>303.3</ele>
        <time>2026-05-07T07:16:45.000Z</time>
      </trkpt>
      <trkpt lat="43.58105" lon="2.96518">
        <ele>304.6</ele>
        <time>2026-05-07T07:16:46.000Z</time>
      </trkpt>
      <trkpt lat="43.58106" lon="2.96517">
        <ele>305.1</ele>
        <time>2026-05-07T07:16:47.000Z</time>
      </trkpt>
      <trkpt lat="43.58107" lon="2.96517">
        <ele>305</ele>
        <time>2026-05-07T07:16:48.000Z</time>
      </trkpt>
      <trkpt lat="43.58108" lon="2.96518">
        <ele>305.1</ele>
        <time>2026-05-07T07:16:49.000Z</time>
      </trkpt>
      <trkpt lat="43.58109" lon="2.96518">
        <ele>305.7</ele>
        <time>2026-05-07T07:16:50.000Z</time>
      </trkpt>
      <trkpt lat="43.5811" lon="2.96518">
        <ele>305.7</ele>
        <time>2026-05-07T07:16:51.000Z</time>
      </trkpt>
      <trkpt lat="43.58111" lon="2.96517">
        <ele>305.9</ele>
        <time>2026-05-07T07:16:52.000Z</time>
      </trkpt>
      <trkpt lat="43.58112" lon="2.96517">
        <ele>305.7</ele>
        <time>2026-05-07T07:16:53.000Z</time>
      </trkpt>
      <trkpt lat="43.58114" lon="2.96517">
        <ele>304.6</ele>
        <time>2026-05-07T07:16:54.000Z</time>
      </trkpt>
      <trkpt lat="43.58115" lon="2.96517">
        <ele>304.1</ele>
        <time>2026-05-07T07:16:55.000Z</time>
      </trkpt>
      <trkpt lat="43.58116" lon="2.96518">
        <ele>303.5</ele>
        <time>2026-05-07T07:16:56.000Z</time>
      </trkpt>
      <trkpt lat="43.58117" lon="2.96519">
        <ele>303.2</ele>
        <time>2026-05-07T07:16:57.000Z</time>
      </trkpt>
      <trkpt lat="43.58118" lon="2.96519">
        <ele>302.6</ele>
        <time>2026-05-07T07:16:58.000Z</time>
      </trkpt>
      <trkpt lat="43.58119" lon="2.96517">
        <ele>302.8</ele>
        <time>2026-05-07T07:16:59.000Z</time>
      </trkpt>
      <trkpt lat="43.5812" lon="2.96515">
        <ele>303</ele>
        <time>2026-05-07T07:17:00.000Z</time>
      </trkpt>
      <trkpt lat="43.58121" lon="2.96513">
        <ele>303.2</ele>
        <time>2026-05-07T07:17:01.000Z</time>
      </trkpt>
      <trkpt lat="43.58122" lon="2.96512">
        <ele>303.3</ele>
        <time>2026-05-07T07:17:02.000Z</time>
      </trkpt>
      <trkpt lat="43.58122" lon="2.96511">
        <ele>303.7</ele>
        <time>2026-05-07T07:17:03.000Z</time>
      </trkpt>
      <trkpt lat="43.58123" lon="2.9651">
        <ele>304</ele>
        <time>2026-05-07T07:17:04.000Z</time>
      </trkpt>
      <trkpt lat="43.58123" lon="2.96508">
        <ele>304.8</ele>
        <time>2026-05-07T07:17:05.000Z</time>
      </trkpt>
      <trkpt lat="43.58125" lon="2.96507">
        <ele>305.3</ele>
        <time>2026-05-07T07:17:06.000Z</time>
      </trkpt>
      <trkpt lat="43.58126" lon="2.96506">
        <ele>305.3</ele>
        <time>2026-05-07T07:17:07.000Z</time>
      </trkpt>
      <trkpt lat="43.58126" lon="2.96505">
        <ele>305.8</ele>
        <time>2026-05-07T07:17:08.000Z</time>
      </trkpt>
      <trkpt lat="43.58127" lon="2.96504">
        <ele>306</ele>
        <time>2026-05-07T07:17:09.000Z</time>
      </trkpt>
      <trkpt lat="43.58127" lon="2.96502">
        <ele>305.5</ele>
        <time>2026-05-07T07:17:10.000Z</time>
      </trkpt>
      <trkpt lat="43.58128" lon="2.96501">
        <ele>305.3</ele>
        <time>2026-05-07T07:17:11.000Z</time>
      </trkpt>
      <trkpt lat="43.58129" lon="2.96499">
        <ele>305.5</ele>
        <time>2026-05-07T07:17:12.000Z</time>
      </trkpt>
      <trkpt lat="43.5813" lon="2.96498">
        <ele>305.8</ele>
        <time>2026-05-07T07:17:13.000Z</time>
      </trkpt>
      <trkpt lat="43.5813" lon="2.96497">
        <ele>306.3</ele>
        <time>2026-05-07T07:17:14.000Z</time>
      </trkpt>
      <trkpt lat="43.58131" lon="2.96496">
        <ele>306.3</ele>
        <time>2026-05-07T07:17:15.000Z</time>
      </trkpt>
      <trkpt lat="43.58131" lon="2.96495">
        <ele>305.9</ele>
        <time>2026-05-07T07:17:16.000Z</time>
      </trkpt>
      <trkpt lat="43.58132" lon="2.96493">
        <ele>306.1</ele>
        <time>2026-05-07T07:17:17.000Z</time>
      </trkpt>
      <trkpt lat="43.58133" lon="2.96492">
        <ele>306.1</ele>
        <time>2026-05-07T07:17:18.000Z</time>
      </trkpt>
      <trkpt lat="43.58134" lon="2.96491">
        <ele>306.3</ele>
        <time>2026-05-07T07:17:19.000Z</time>
      </trkpt>
      <trkpt lat="43.58135" lon="2.96491">
        <ele>306.4</ele>
        <time>2026-05-07T07:17:20.000Z</time>
      </trkpt>
      <trkpt lat="43.58136" lon="2.9649">
        <ele>306.7</ele>
        <time>2026-05-07T07:17:21.000Z</time>
      </trkpt>
      <trkpt lat="43.58137" lon="2.96488">
        <ele>307.1</ele>
        <time>2026-05-07T07:17:22.000Z</time>
      </trkpt>
      <trkpt lat="43.58138" lon="2.96487">
        <ele>307.3</ele>
        <time>2026-05-07T07:17:23.000Z</time>
      </trkpt>
      <trkpt lat="43.58138" lon="2.96485">
        <ele>307.6</ele>
        <time>2026-05-07T07:17:24.000Z</time>
      </trkpt>
      <trkpt lat="43.58139" lon="2.96483">
        <ele>308.3</ele>
        <time>2026-05-07T07:17:25.000Z</time>
      </trkpt>
      <trkpt lat="43.5814" lon="2.96482">
        <ele>307.7</ele>
        <time>2026-05-07T07:17:26.000Z</time>
      </trkpt>
      <trkpt lat="43.58141" lon="2.96481">
        <ele>308.5</ele>
        <time>2026-05-07T07:17:27.000Z</time>
      </trkpt>
      <trkpt lat="43.58141" lon="2.9648">
        <ele>308.3</ele>
        <time>2026-05-07T07:17:28.000Z</time>
      </trkpt>
      <trkpt lat="43.58142" lon="2.9648">
        <ele>308.4</ele>
        <time>2026-05-07T07:17:29.000Z</time>
      </trkpt>
      <trkpt lat="43.58143" lon="2.9648">
        <ele>308.3</ele>
        <time>2026-05-07T07:17:30.000Z</time>
      </trkpt>
      <trkpt lat="43.58144" lon="2.96479">
        <ele>307.9</ele>
        <time>2026-05-07T07:17:31.000Z</time>
      </trkpt>
      <trkpt lat="43.58145" lon="2.96479">
        <ele>308.5</ele>
        <time>2026-05-07T07:17:32.000Z</time>
      </trkpt>
      <trkpt lat="43.58147" lon="2.96479">
        <ele>308.9</ele>
        <time>2026-05-07T07:17:33.000Z</time>
      </trkpt>
      <trkpt lat="43.58148" lon="2.9648">
        <ele>309.9</ele>
        <time>2026-05-07T07:17:34.000Z</time>
      </trkpt>
      <trkpt lat="43.58149" lon="2.96479">
        <ele>310.4</ele>
        <time>2026-05-07T07:17:35.000Z</time>
      </trkpt>
      <trkpt lat="43.5815" lon="2.96478">
        <ele>310.9</ele>
        <time>2026-05-07T07:17:36.000Z</time>
      </trkpt>
      <trkpt lat="43.58151" lon="2.96477">
        <ele>310.9</ele>
        <time>2026-05-07T07:17:37.000Z</time>
      </trkpt>
      <trkpt lat="43.58151" lon="2.96476">
        <ele>311.6</ele>
        <time>2026-05-07T07:17:38.000Z</time>
      </trkpt>
      <trkpt lat="43.58152" lon="2.96475">
        <ele>312.2</ele>
        <time>2026-05-07T07:17:39.000Z</time>
      </trkpt>
      <trkpt lat="43.58153" lon="2.96474">
        <ele>312.9</ele>
        <time>2026-05-07T07:17:40.000Z</time>
      </trkpt>
      <trkpt lat="43.58154" lon="2.96473">
        <ele>314.1</ele>
        <time>2026-05-07T07:17:41.000Z</time>
      </trkpt>
      <trkpt lat="43.58155" lon="2.96473">
        <ele>314.2</ele>
        <time>2026-05-07T07:17:42.000Z</time>
      </trkpt>
      <trkpt lat="43.58156" lon="2.96474">
        <ele>314.6</ele>
        <time>2026-05-07T07:17:43.000Z</time>
      </trkpt>
      <trkpt lat="43.58157" lon="2.96474">
        <ele>314.4</ele>
        <time>2026-05-07T07:17:44.000Z</time>
      </trkpt>
      <trkpt lat="43.58158" lon="2.96473">
        <ele>314.5</ele>
        <time>2026-05-07T07:17:45.000Z</time>
      </trkpt>
      <trkpt lat="43.58158" lon="2.96473">
        <ele>314.2</ele>
        <time>2026-05-07T07:17:46.000Z</time>
      </trkpt>
      <trkpt lat="43.58159" lon="2.96472">
        <ele>314</ele>
        <time>2026-05-07T07:17:47.000Z</time>
      </trkpt>
      <trkpt lat="43.5816" lon="2.96471">
        <ele>313.5</ele>
        <time>2026-05-07T07:17:48.000Z</time>
      </trkpt>
      <trkpt lat="43.58161" lon="2.96471">
        <ele>312.9</ele>
        <time>2026-05-07T07:17:49.000Z</time>
      </trkpt>
      <trkpt lat="43.58162" lon="2.9647">
        <ele>313.2</ele>
        <time>2026-05-07T07:17:50.000Z</time>
      </trkpt>
      <trkpt lat="43.58163" lon="2.9647">
        <ele>313</ele>
        <time>2026-05-07T07:17:51.000Z</time>
      </trkpt>
      <trkpt lat="43.58164" lon="2.96469">
        <ele>312.9</ele>
        <time>2026-05-07T07:17:52.000Z</time>
      </trkpt>
      <trkpt lat="43.58166" lon="2.96469">
        <ele>312.9</ele>
        <time>2026-05-07T07:17:53.000Z</time>
      </trkpt>
      <trkpt lat="43.58167" lon="2.96469">
        <ele>312.6</ele>
        <time>2026-05-07T07:17:54.000Z</time>
      </trkpt>
      <trkpt lat="43.58168" lon="2.9647">
        <ele>311.9</ele>
        <time>2026-05-07T07:17:55.000Z</time>
      </trkpt>
      <trkpt lat="43.58169" lon="2.96471">
        <ele>311.9</ele>
        <time>2026-05-07T07:17:56.000Z</time>
      </trkpt>
      <trkpt lat="43.58171" lon="2.96471">
        <ele>311.8</ele>
        <time>2026-05-07T07:17:57.000Z</time>
      </trkpt>
      <trkpt lat="43.58172" lon="2.96472">
        <ele>311.2</ele>
        <time>2026-05-07T07:17:58.000Z</time>
      </trkpt>
      <trkpt lat="43.58173" lon="2.96472">
        <ele>310.7</ele>
        <time>2026-05-07T07:17:59.000Z</time>
      </trkpt>
      <trkpt lat="43.58173" lon="2.96474">
        <ele>311.7</ele>
        <time>2026-05-07T07:18:00.000Z</time>
      </trkpt>
      <trkpt lat="43.58173" lon="2.96475">
        <ele>311.7</ele>
        <time>2026-05-07T07:18:01.000Z</time>
      </trkpt>
      <trkpt lat="43.58174" lon="2.96475">
        <ele>311.4</ele>
        <time>2026-05-07T07:18:02.000Z</time>
      </trkpt>
      <trkpt lat="43.58174" lon="2.96475">
        <ele>311.1</ele>
        <time>2026-05-07T07:18:03.000Z</time>
      </trkpt>
      <trkpt lat="43.58174" lon="2.96475">
        <ele>311.1</ele>
        <time>2026-05-07T07:18:04.000Z</time>
      </trkpt>
      <trkpt lat="43.58174" lon="2.96474">
        <ele>311.4</ele>
        <time>2026-05-07T07:18:05.000Z</time>
      </trkpt>
      <trkpt lat="43.58175" lon="2.96474">
        <ele>311.4</ele>
        <time>2026-05-07T07:18:06.000Z</time>
      </trkpt>
      <trkpt lat="43.58175" lon="2.96476">
        <ele>310.3</ele>
        <time>2026-05-07T07:18:07.000Z</time>
      </trkpt>
      <trkpt lat="43.58177" lon="2.96477">
        <ele>309.5</ele>
        <time>2026-05-07T07:18:08.000Z</time>
      </trkpt>
      <trkpt lat="43.58178" lon="2.96477">
        <ele>309.1</ele>
        <time>2026-05-07T07:18:09.000Z</time>
      </trkpt>
      <trkpt lat="43.58179" lon="2.96478">
        <ele>308.3</ele>
        <time>2026-05-07T07:18:10.000Z</time>
      </trkpt>
      <trkpt lat="43.58181" lon="2.96477">
        <ele>308.8</ele>
        <time>2026-05-07T07:18:11.000Z</time>
      </trkpt>
      <trkpt lat="43.58182" lon="2.96477">
        <ele>309.8</ele>
        <time>2026-05-07T07:18:12.000Z</time>
      </trkpt>
      <trkpt lat="43.58183" lon="2.96477">
        <ele>310.4</ele>
        <time>2026-05-07T07:18:13.000Z</time>
      </trkpt>
      <trkpt lat="43.58184" lon="2.96477">
        <ele>310.5</ele>
        <time>2026-05-07T07:18:14.000Z</time>
      </trkpt>
      <trkpt lat="43.58184" lon="2.96478">
        <ele>310.6</ele>
        <time>2026-05-07T07:18:15.000Z</time>
      </trkpt>
      <trkpt lat="43.58185" lon="2.96478">
        <ele>310.7</ele>
        <time>2026-05-07T07:18:16.000Z</time>
      </trkpt>
      <trkpt lat="43.58186" lon="2.96479">
        <ele>310.5</ele>
        <time>2026-05-07T07:18:17.000Z</time>
      </trkpt>
      <trkpt lat="43.58187" lon="2.96479">
        <ele>310</ele>
        <time>2026-05-07T07:18:18.000Z</time>
      </trkpt>
      <trkpt lat="43.58188" lon="2.96479">
        <ele>309.5</ele>
        <time>2026-05-07T07:18:19.000Z</time>
      </trkpt>
      <trkpt lat="43.58189" lon="2.96479">
        <ele>309.2</ele>
        <time>2026-05-07T07:18:20.000Z</time>
      </trkpt>
      <trkpt lat="43.58191" lon="2.96479">
        <ele>309</ele>
        <time>2026-05-07T07:18:21.000Z</time>
      </trkpt>
      <trkpt lat="43.58192" lon="2.96479">
        <ele>309.3</ele>
        <time>2026-05-07T07:18:22.000Z</time>
      </trkpt>
      <trkpt lat="43.58193" lon="2.96478">
        <ele>309.8</ele>
        <time>2026-05-07T07:18:23.000Z</time>
      </trkpt>
      <trkpt lat="43.58194" lon="2.96478">
        <ele>309.6</ele>
        <time>2026-05-07T07:18:24.000Z</time>
      </trkpt>
      <trkpt lat="43.58195" lon="2.96478">
        <ele>310</ele>
        <time>2026-05-07T07:18:25.000Z</time>
      </trkpt>
      <trkpt lat="43.58196" lon="2.96477">
        <ele>310.2</ele>
        <time>2026-05-07T07:18:26.000Z</time>
      </trkpt>
      <trkpt lat="43.58197" lon="2.96477">
        <ele>310.3</ele>
        <time>2026-05-07T07:18:27.000Z</time>
      </trkpt>
      <trkpt lat="43.58198" lon="2.96477">
        <ele>310.6</ele>
        <time>2026-05-07T07:18:28.000Z</time>
      </trkpt>
      <trkpt lat="43.58199" lon="2.96477">
        <ele>310.6</ele>
        <time>2026-05-07T07:18:29.000Z</time>
      </trkpt>
      <trkpt lat="43.582" lon="2.96477">
        <ele>310.4</ele>
        <time>2026-05-07T07:18:30.000Z</time>
      </trkpt>
      <trkpt lat="43.582" lon="2.96477">
        <ele>310.3</ele>
        <time>2026-05-07T07:18:31.000Z</time>
      </trkpt>
      <trkpt lat="43.58201" lon="2.96477">
        <ele>310.8</ele>
        <time>2026-05-07T07:18:32.000Z</time>
      </trkpt>
      <trkpt lat="43.58202" lon="2.96476">
        <ele>310.8</ele>
        <time>2026-05-07T07:18:33.000Z</time>
      </trkpt>
      <trkpt lat="43.58203" lon="2.96475">
        <ele>311.1</ele>
        <time>2026-05-07T07:18:34.000Z</time>
      </trkpt>
      <trkpt lat="43.58205" lon="2.96474">
        <ele>310.9</ele>
        <time>2026-05-07T07:18:35.000Z</time>
      </trkpt>
      <trkpt lat="43.58206" lon="2.96474">
        <ele>310.5</ele>
        <time>2026-05-07T07:18:36.000Z</time>
      </trkpt>
      <trkpt lat="43.58207" lon="2.96475">
        <ele>310.7</ele>
        <time>2026-05-07T07:18:37.000Z</time>
      </trkpt>
      <trkpt lat="43.58208" lon="2.96475">
        <ele>311.1</ele>
        <time>2026-05-07T07:18:38.000Z</time>
      </trkpt>
      <trkpt lat="43.58209" lon="2.96474">
        <ele>311.5</ele>
        <time>2026-05-07T07:18:39.000Z</time>
      </trkpt>
      <trkpt lat="43.5821" lon="2.96473">
        <ele>312.1</ele>
        <time>2026-05-07T07:18:40.000Z</time>
      </trkpt>
      <trkpt lat="43.58211" lon="2.96472">
        <ele>312.4</ele>
        <time>2026-05-07T07:18:41.000Z</time>
      </trkpt>
      <trkpt lat="43.58212" lon="2.96471">
        <ele>312.7</ele>
        <time>2026-05-07T07:18:42.000Z</time>
      </trkpt>
      <trkpt lat="43.58213" lon="2.96469">
        <ele>313.3</ele>
        <time>2026-05-07T07:18:43.000Z</time>
      </trkpt>
      <trkpt lat="43.58213" lon="2.96468">
        <ele>312.8</ele>
        <time>2026-05-07T07:18:44.000Z</time>
      </trkpt>
      <trkpt lat="43.58214" lon="2.96467">
        <ele>312.4</ele>
        <time>2026-05-07T07:18:45.000Z</time>
      </trkpt>
      <trkpt lat="43.58215" lon="2.96466">
        <ele>312.4</ele>
        <time>2026-05-07T07:18:46.000Z</time>
      </trkpt>
      <trkpt lat="43.58216" lon="2.96464">
        <ele>312</ele>
        <time>2026-05-07T07:18:47.000Z</time>
      </trkpt>
      <trkpt lat="43.58217" lon="2.96463">
        <ele>312.4</ele>
        <time>2026-05-07T07:18:48.000Z</time>
      </trkpt>
      <trkpt lat="43.58217" lon="2.96463">
        <ele>312.5</ele>
        <time>2026-05-07T07:18:49.000Z</time>
      </trkpt>
      <trkpt lat="43.58218" lon="2.96462">
        <ele>313.1</ele>
        <time>2026-05-07T07:18:50.000Z</time>
      </trkpt>
      <trkpt lat="43.58218" lon="2.96461">
        <ele>314.1</ele>
        <time>2026-05-07T07:18:51.000Z</time>
      </trkpt>
      <trkpt lat="43.58219" lon="2.9646">
        <ele>315.6</ele>
        <time>2026-05-07T07:18:52.000Z</time>
      </trkpt>
      <trkpt lat="43.5822" lon="2.96459">
        <ele>315.7</ele>
        <time>2026-05-07T07:18:53.000Z</time>
      </trkpt>
      <trkpt lat="43.58221" lon="2.96457">
        <ele>315.5</ele>
        <time>2026-05-07T07:18:54.000Z</time>
      </trkpt>
      <trkpt lat="43.58221" lon="2.96457">
        <ele>314.6</ele>
        <time>2026-05-07T07:18:55.000Z</time>
      </trkpt>
      <trkpt lat="43.58222" lon="2.96457">
        <ele>313.2</ele>
        <time>2026-05-07T07:18:56.000Z</time>
      </trkpt>
      <trkpt lat="43.58223" lon="2.96457">
        <ele>312.7</ele>
        <time>2026-05-07T07:18:57.000Z</time>
      </trkpt>
      <trkpt lat="43.58225" lon="2.96457">
        <ele>312.8</ele>
        <time>2026-05-07T07:18:58.000Z</time>
      </trkpt>
      <trkpt lat="43.58226" lon="2.96456">
        <ele>313.4</ele>
        <time>2026-05-07T07:18:59.000Z</time>
      </trkpt>
      <trkpt lat="43.58227" lon="2.96456">
        <ele>314.7</ele>
        <time>2026-05-07T07:19:00.000Z</time>
      </trkpt>
      <trkpt lat="43.58228" lon="2.96457">
        <ele>314.9</ele>
        <time>2026-05-07T07:19:01.000Z</time>
      </trkpt>
      <trkpt lat="43.5823" lon="2.96456">
        <ele>315.6</ele>
        <time>2026-05-07T07:19:02.000Z</time>
      </trkpt>
      <trkpt lat="43.58231" lon="2.96457">
        <ele>315.7</ele>
        <time>2026-05-07T07:19:03.000Z</time>
      </trkpt>
      <trkpt lat="43.58233" lon="2.96458">
        <ele>316.3</ele>
        <time>2026-05-07T07:19:04.000Z</time>
      </trkpt>
      <trkpt lat="43.58233" lon="2.96458">
        <ele>317</ele>
        <time>2026-05-07T07:19:05.000Z</time>
      </trkpt>
      <trkpt lat="43.58234" lon="2.96458">
        <ele>317</ele>
        <time>2026-05-07T07:19:06.000Z</time>
      </trkpt>
      <trkpt lat="43.58235" lon="2.96458">
        <ele>316.7</ele>
        <time>2026-05-07T07:19:07.000Z</time>
      </trkpt>
      <trkpt lat="43.58236" lon="2.96457">
        <ele>317.1</ele>
        <time>2026-05-07T07:19:08.000Z</time>
      </trkpt>
      <trkpt lat="43.58236" lon="2.96456">
        <ele>316.7</ele>
        <time>2026-05-07T07:19:09.000Z</time>
      </trkpt>
      <trkpt lat="43.58237" lon="2.96456">
        <ele>316.3</ele>
        <time>2026-05-07T07:19:10.000Z</time>
      </trkpt>
      <trkpt lat="43.58238" lon="2.96456">
        <ele>316</ele>
        <time>2026-05-07T07:19:11.000Z</time>
      </trkpt>
      <trkpt lat="43.58239" lon="2.96455">
        <ele>316.1</ele>
        <time>2026-05-07T07:19:12.000Z</time>
      </trkpt>
      <trkpt lat="43.5824" lon="2.96454">
        <ele>316</ele>
        <time>2026-05-07T07:19:13.000Z</time>
      </trkpt>
      <trkpt lat="43.5824" lon="2.96454">
        <ele>316.7</ele>
        <time>2026-05-07T07:19:14.000Z</time>
      </trkpt>
      <trkpt lat="43.5824" lon="2.96453">
        <ele>316.6</ele>
        <time>2026-05-07T07:19:15.000Z</time>
      </trkpt>
      <trkpt lat="43.58241" lon="2.96452">
        <ele>317.2</ele>
        <time>2026-05-07T07:19:16.000Z</time>
      </trkpt>
      <trkpt lat="43.58241" lon="2.96452">
        <ele>317.3</ele>
        <time>2026-05-07T07:19:17.000Z</time>
      </trkpt>
      <trkpt lat="43.58242" lon="2.96452">
        <ele>317.1</ele>
        <time>2026-05-07T07:19:18.000Z</time>
      </trkpt>
      <trkpt lat="43.58243" lon="2.96452">
        <ele>317.2</ele>
        <time>2026-05-07T07:19:19.000Z</time>
      </trkpt>
      <trkpt lat="43.58243" lon="2.96451">
        <ele>317.3</ele>
        <time>2026-05-07T07:19:20.000Z</time>
      </trkpt>
      <trkpt lat="43.58243" lon="2.96449">
        <ele>317.8</ele>
        <time>2026-05-07T07:19:21.000Z</time>
      </trkpt>
      <trkpt lat="43.58243" lon="2.96449">
        <ele>318</ele>
        <time>2026-05-07T07:19:22.000Z</time>
      </trkpt>
      <trkpt lat="43.58244" lon="2.9645">
        <ele>318</ele>
        <time>2026-05-07T07:19:23.000Z</time>
      </trkpt>
      <trkpt lat="43.58245" lon="2.96449">
        <ele>318</ele>
        <time>2026-05-07T07:19:24.000Z</time>
      </trkpt>
      <trkpt lat="43.58245" lon="2.9645">
        <ele>318.5</ele>
        <time>2026-05-07T07:19:25.000Z</time>
      </trkpt>
      <trkpt lat="43.58246" lon="2.96451">
        <ele>318.2</ele>
        <time>2026-05-07T07:19:26.000Z</time>
      </trkpt>
      <trkpt lat="43.58246" lon="2.96451">
        <ele>318.7</ele>
        <time>2026-05-07T07:19:27.000Z</time>
      </trkpt>
      <trkpt lat="43.58246" lon="2.96451">
        <ele>318.6</ele>
        <time>2026-05-07T07:19:28.000Z</time>
      </trkpt>
      <trkpt lat="43.58246" lon="2.96451">
        <ele>318.6</ele>
        <time>2026-05-07T07:19:29.000Z</time>
      </trkpt>
      <trkpt lat="43.58246" lon="2.96451">
        <ele>318.6</ele>
        <time>2026-05-07T07:19:30.000Z</time>
      </trkpt>
      <trkpt lat="43.58248" lon="2.96452">
        <ele>318.1</ele>
        <time>2026-05-07T07:19:31.000Z</time>
      </trkpt>
      <trkpt lat="43.58249" lon="2.96452">
        <ele>317.8</ele>
        <time>2026-05-07T07:19:32.000Z</time>
      </trkpt>
      <trkpt lat="43.58251" lon="2.96451">
        <ele>318</ele>
        <time>2026-05-07T07:19:33.000Z</time>
      </trkpt>
      <trkpt lat="43.58252" lon="2.96452">
        <ele>317.4</ele>
        <time>2026-05-07T07:19:34.000Z</time>
      </trkpt>
      <trkpt lat="43.58254" lon="2.96452">
        <ele>317.3</ele>
        <time>2026-05-07T07:19:35.000Z</time>
      </trkpt>
      <trkpt lat="43.58257" lon="2.96453">
        <ele>317.5</ele>
        <time>2026-05-07T07:19:36.000Z</time>
      </trkpt>
      <trkpt lat="43.58259" lon="2.96453">
        <ele>317.5</ele>
        <time>2026-05-07T07:19:37.000Z</time>
      </trkpt>
      <trkpt lat="43.58261" lon="2.96453">
        <ele>317.4</ele>
        <time>2026-05-07T07:19:38.000Z</time>
      </trkpt>
      <trkpt lat="43.58262" lon="2.96454">
        <ele>317.7</ele>
        <time>2026-05-07T07:19:39.000Z</time>
      </trkpt>
      <trkpt lat="43.58263" lon="2.96453">
        <ele>318.2</ele>
        <time>2026-05-07T07:19:40.000Z</time>
      </trkpt>
      <trkpt lat="43.58265" lon="2.96453">
        <ele>318.5</ele>
        <time>2026-05-07T07:19:41.000Z</time>
      </trkpt>
      <trkpt lat="43.58266" lon="2.96453">
        <ele>319</ele>
        <time>2026-05-07T07:19:42.000Z</time>
      </trkpt>
      <trkpt lat="43.58268" lon="2.96452">
        <ele>319.3</ele>
        <time>2026-05-07T07:19:43.000Z</time>
      </trkpt>
      <trkpt lat="43.58269" lon="2.96452">
        <ele>319.3</ele>
        <time>2026-05-07T07:19:44.000Z</time>
      </trkpt>
      <trkpt lat="43.5827" lon="2.96451">
        <ele>319.6</ele>
        <time>2026-05-07T07:19:45.000Z</time>
      </trkpt>
      <trkpt lat="43.58271" lon="2.9645">
        <ele>319.9</ele>
        <time>2026-05-07T07:19:46.000Z</time>
      </trkpt>
      <trkpt lat="43.58272" lon="2.96449">
        <ele>320.2</ele>
        <time>2026-05-07T07:19:47.000Z</time>
      </trkpt>
      <trkpt lat="43.58273" lon="2.96448">
        <ele>320.3</ele>
        <time>2026-05-07T07:19:48.000Z</time>
      </trkpt>
      <trkpt lat="43.58274" lon="2.96447">
        <ele>320.4</ele>
        <time>2026-05-07T07:19:49.000Z</time>
      </trkpt>
      <trkpt lat="43.58275" lon="2.96447">
        <ele>320.3</ele>
        <time>2026-05-07T07:19:50.000Z</time>
      </trkpt>
      <trkpt lat="43.58275" lon="2.96446">
        <ele>320.8</ele>
        <time>2026-05-07T07:19:51.000Z</time>
      </trkpt>
      <trkpt lat="43.58276" lon="2.96445">
        <ele>320.8</ele>
        <time>2026-05-07T07:19:52.000Z</time>
      </trkpt>
      <trkpt lat="43.58277" lon="2.96444">
        <ele>320.8</ele>
        <time>2026-05-07T07:19:53.000Z</time>
      </trkpt>
      <trkpt lat="43.58278" lon="2.96443">
        <ele>320.8</ele>
        <time>2026-05-07T07:19:54.000Z</time>
      </trkpt>
      <trkpt lat="43.58279" lon="2.96443">
        <ele>321</ele>
        <time>2026-05-07T07:19:55.000Z</time>
      </trkpt>
      <trkpt lat="43.5828" lon="2.96442">
        <ele>322.3</ele>
        <time>2026-05-07T07:19:56.000Z</time>
      </trkpt>
      <trkpt lat="43.58281" lon="2.9644">
        <ele>323.5</ele>
        <time>2026-05-07T07:19:57.000Z</time>
      </trkpt>
      <trkpt lat="43.58282" lon="2.96438">
        <ele>323.9</ele>
        <time>2026-05-07T07:19:58.000Z</time>
      </trkpt>
      <trkpt lat="43.58283" lon="2.96436">
        <ele>324.1</ele>
        <time>2026-05-07T07:19:59.000Z</time>
      </trkpt>
      <trkpt lat="43.58284" lon="2.96435">
        <ele>324.3</ele>
        <time>2026-05-07T07:20:00.000Z</time>
      </trkpt>
      <trkpt lat="43.58285" lon="2.96434">
        <ele>324.8</ele>
        <time>2026-05-07T07:20:01.000Z</time>
      </trkpt>
      <trkpt lat="43.58286" lon="2.96433">
        <ele>324.7</ele>
        <time>2026-05-07T07:20:02.000Z</time>
      </trkpt>
      <trkpt lat="43.58287" lon="2.96432">
        <ele>325.1</ele>
        <time>2026-05-07T07:20:03.000Z</time>
      </trkpt>
      <trkpt lat="43.58288" lon="2.96431">
        <ele>325.6</ele>
        <time>2026-05-07T07:20:04.000Z</time>
      </trkpt>
      <trkpt lat="43.58289" lon="2.96431">
        <ele>325.9</ele>
        <time>2026-05-07T07:20:05.000Z</time>
      </trkpt>
      <trkpt lat="43.5829" lon="2.96431">
        <ele>326.3</ele>
        <time>2026-05-07T07:20:06.000Z</time>
      </trkpt>
      <trkpt lat="43.58291" lon="2.96431">
        <ele>326.5</ele>
        <time>2026-05-07T07:20:07.000Z</time>
      </trkpt>
      <trkpt lat="43.58293" lon="2.9643">
        <ele>326.9</ele>
        <time>2026-05-07T07:20:08.000Z</time>
      </trkpt>
      <trkpt lat="43.58294" lon="2.96429">
        <ele>326.5</ele>
        <time>2026-05-07T07:20:09.000Z</time>
      </trkpt>
      <trkpt lat="43.58295" lon="2.96427">
        <ele>326.5</ele>
        <time>2026-05-07T07:20:10.000Z</time>
      </trkpt>
      <trkpt lat="43.58296" lon="2.96426">
        <ele>327</ele>
        <time>2026-05-07T07:20:11.000Z</time>
      </trkpt>
      <trkpt lat="43.58297" lon="2.96426">
        <ele>327.3</ele>
        <time>2026-05-07T07:20:12.000Z</time>
      </trkpt>
      <trkpt lat="43.58297" lon="2.96426">
        <ele>327.8</ele>
        <time>2026-05-07T07:20:13.000Z</time>
      </trkpt>
      <trkpt lat="43.58298" lon="2.96426">
        <ele>328.3</ele>
        <time>2026-05-07T07:20:14.000Z</time>
      </trkpt>
      <trkpt lat="43.58299" lon="2.96425">
        <ele>328.4</ele>
        <time>2026-05-07T07:20:15.000Z</time>
      </trkpt>
      <trkpt lat="43.583" lon="2.96425">
        <ele>328.7</ele>
        <time>2026-05-07T07:20:16.000Z</time>
      </trkpt>
      <trkpt lat="43.58301" lon="2.96424">
        <ele>329</ele>
        <time>2026-05-07T07:20:17.000Z</time>
      </trkpt>
      <trkpt lat="43.58302" lon="2.96422">
        <ele>329.2</ele>
        <time>2026-05-07T07:20:18.000Z</time>
      </trkpt>
      <trkpt lat="43.58302" lon="2.96421">
        <ele>328.8</ele>
        <time>2026-05-07T07:20:19.000Z</time>
      </trkpt>
      <trkpt lat="43.58303" lon="2.9642">
        <ele>329.1</ele>
        <time>2026-05-07T07:20:20.000Z</time>
      </trkpt>
      <trkpt lat="43.58303" lon="2.96419">
        <ele>329.1</ele>
        <time>2026-05-07T07:20:21.000Z</time>
      </trkpt>
      <trkpt lat="43.58303" lon="2.96418">
        <ele>329.1</ele>
        <time>2026-05-07T07:20:22.000Z</time>
      </trkpt>
      <trkpt lat="43.58303" lon="2.96416">
        <ele>329</ele>
        <time>2026-05-07T07:20:23.000Z</time>
      </trkpt>
      <trkpt lat="43.58303" lon="2.96414">
        <ele>329.2</ele>
        <time>2026-05-07T07:20:24.000Z</time>
      </trkpt>
      <trkpt lat="43.58303" lon="2.96413">
        <ele>329.1</ele>
        <time>2026-05-07T07:20:25.000Z</time>
      </trkpt>
      <trkpt lat="43.58302" lon="2.96411">
        <ele>329.5</ele>
        <time>2026-05-07T07:20:26.000Z</time>
      </trkpt>
      <trkpt lat="43.58302" lon="2.9641">
        <ele>329.5</ele>
        <time>2026-05-07T07:20:27.000Z</time>
      </trkpt>
      <trkpt lat="43.58302" lon="2.96408">
        <ele>329.6</ele>
        <time>2026-05-07T07:20:28.000Z</time>
      </trkpt>
      <trkpt lat="43.58302" lon="2.96407">
        <ele>329.6</ele>
        <time>2026-05-07T07:20:29.000Z</time>
      </trkpt>
      <trkpt lat="43.58303" lon="2.96406">
        <ele>329.7</ele>
        <time>2026-05-07T07:20:30.000Z</time>
      </trkpt>
      <trkpt lat="43.58303" lon="2.96404">
        <ele>329.9</ele>
        <time>2026-05-07T07:20:31.000Z</time>
      </trkpt>
      <trkpt lat="43.58304" lon="2.96402">
        <ele>330</ele>
        <time>2026-05-07T07:20:32.000Z</time>
      </trkpt>
      <trkpt lat="43.58304" lon="2.96401">
        <ele>330</ele>
        <time>2026-05-07T07:20:33.000Z</time>
      </trkpt>
      <trkpt lat="43.58305" lon="2.964">
        <ele>330</ele>
        <time>2026-05-07T07:20:34.000Z</time>
      </trkpt>
      <trkpt lat="43.58305" lon="2.96399">
        <ele>330.1</ele>
        <time>2026-05-07T07:20:35.000Z</time>
      </trkpt>
      <trkpt lat="43.58306" lon="2.96398">
        <ele>330.1</ele>
        <time>2026-05-07T07:20:36.000Z</time>
      </trkpt>
      <trkpt lat="43.58306" lon="2.96397">
        <ele>330.3</ele>
        <time>2026-05-07T07:20:37.000Z</time>
      </trkpt>
      <trkpt lat="43.58307" lon="2.96396">
        <ele>330.4</ele>
        <time>2026-05-07T07:20:38.000Z</time>
      </trkpt>
      <trkpt lat="43.58307" lon="2.96394">
        <ele>330.5</ele>
        <time>2026-05-07T07:20:39.000Z</time>
      </trkpt>
      <trkpt lat="43.58308" lon="2.96393">
        <ele>330.9</ele>
        <time>2026-05-07T07:20:40.000Z</time>
      </trkpt>
      <trkpt lat="43.58308" lon="2.96392">
        <ele>331.2</ele>
        <time>2026-05-07T07:20:41.000Z</time>
      </trkpt>
      <trkpt lat="43.58308" lon="2.96391">
        <ele>331.4</ele>
        <time>2026-05-07T07:20:42.000Z</time>
      </trkpt>
      <trkpt lat="43.58308" lon="2.9639">
        <ele>332</ele>
        <time>2026-05-07T07:20:43.000Z</time>
      </trkpt>
      <trkpt lat="43.58308" lon="2.96388">
        <ele>332.3</ele>
        <time>2026-05-07T07:20:44.000Z</time>
      </trkpt>
      <trkpt lat="43.58308" lon="2.96387">
        <ele>332.7</ele>
        <time>2026-05-07T07:20:45.000Z</time>
      </trkpt>
      <trkpt lat="43.58308" lon="2.96385">
        <ele>333.1</ele>
        <time>2026-05-07T07:20:46.000Z</time>
      </trkpt>
      <trkpt lat="43.58308" lon="2.96382">
        <ele>332.8</ele>
        <time>2026-05-07T07:20:47.000Z</time>
      </trkpt>
      <trkpt lat="43.58309" lon="2.96381">
        <ele>333.1</ele>
        <time>2026-05-07T07:20:48.000Z</time>
      </trkpt>
      <trkpt lat="43.58309" lon="2.96379">
        <ele>333.1</ele>
        <time>2026-05-07T07:20:49.000Z</time>
      </trkpt>
      <trkpt lat="43.5831" lon="2.96377">
        <ele>333.2</ele>
        <time>2026-05-07T07:20:50.000Z</time>
      </trkpt>
      <trkpt lat="43.58311" lon="2.96376">
        <ele>333.4</ele>
        <time>2026-05-07T07:20:51.000Z</time>
      </trkpt>
      <trkpt lat="43.58311" lon="2.96375">
        <ele>333.6</ele>
        <time>2026-05-07T07:20:52.000Z</time>
      </trkpt>
      <trkpt lat="43.58311" lon="2.96374">
        <ele>334</ele>
        <time>2026-05-07T07:20:53.000Z</time>
      </trkpt>
      <trkpt lat="43.58312" lon="2.96373">
        <ele>333.9</ele>
        <time>2026-05-07T07:20:54.000Z</time>
      </trkpt>
      <trkpt lat="43.58313" lon="2.96372">
        <ele>333.9</ele>
        <time>2026-05-07T07:20:55.000Z</time>
      </trkpt>
      <trkpt lat="43.58314" lon="2.96371">
        <ele>333.9</ele>
        <time>2026-05-07T07:20:56.000Z</time>
      </trkpt>
      <trkpt lat="43.58314" lon="2.96371">
        <ele>333.9</ele>
        <time>2026-05-07T07:20:57.000Z</time>
      </trkpt>
      <trkpt lat="43.58315" lon="2.9637">
        <ele>333.5</ele>
        <time>2026-05-07T07:20:58.000Z</time>
      </trkpt>
      <trkpt lat="43.58315" lon="2.96369">
        <ele>333.2</ele>
        <time>2026-05-07T07:20:59.000Z</time>
      </trkpt>
      <trkpt lat="43.58317" lon="2.96367">
        <ele>333.2</ele>
        <time>2026-05-07T07:21:00.000Z</time>
      </trkpt>
      <trkpt lat="43.58318" lon="2.96365">
        <ele>333.4</ele>
        <time>2026-05-07T07:21:01.000Z</time>
      </trkpt>
      <trkpt lat="43.58319" lon="2.96363">
        <ele>333.3</ele>
        <time>2026-05-07T07:21:02.000Z</time>
      </trkpt>
      <trkpt lat="43.58319" lon="2.96362">
        <ele>333.2</ele>
        <time>2026-05-07T07:21:03.000Z</time>
      </trkpt>
      <trkpt lat="43.5832" lon="2.9636">
        <ele>333.2</ele>
        <time>2026-05-07T07:21:04.000Z</time>
      </trkpt>
      <trkpt lat="43.58321" lon="2.96358">
        <ele>333.1</ele>
        <time>2026-05-07T07:21:05.000Z</time>
      </trkpt>
      <trkpt lat="43.58322" lon="2.96356">
        <ele>333.4</ele>
        <time>2026-05-07T07:21:06.000Z</time>
      </trkpt>
      <trkpt lat="43.58323" lon="2.96355">
        <ele>334</ele>
        <time>2026-05-07T07:21:07.000Z</time>
      </trkpt>
      <trkpt lat="43.58324" lon="2.96354">
        <ele>333.7</ele>
        <time>2026-05-07T07:21:08.000Z</time>
      </trkpt>
      <trkpt lat="43.58326" lon="2.96355">
        <ele>335</ele>
        <time>2026-05-07T07:21:09.000Z</time>
      </trkpt>
      <trkpt lat="43.58326" lon="2.96355">
        <ele>335.2</ele>
        <time>2026-05-07T07:21:10.000Z</time>
      </trkpt>
      <trkpt lat="43.58327" lon="2.96353">
        <ele>335</ele>
        <time>2026-05-07T07:21:11.000Z</time>
      </trkpt>
      <trkpt lat="43.58328" lon="2.96352">
        <ele>335.1</ele>
        <time>2026-05-07T07:21:12.000Z</time>
      </trkpt>
      <trkpt lat="43.58328" lon="2.96351">
        <ele>334.9</ele>
        <time>2026-05-07T07:21:13.000Z</time>
      </trkpt>
      <trkpt lat="43.58329" lon="2.96349">
        <ele>334.7</ele>
        <time>2026-05-07T07:21:14.000Z</time>
      </trkpt>
      <trkpt lat="43.5833" lon="2.96348">
        <ele>334.9</ele>
        <time>2026-05-07T07:21:15.000Z</time>
      </trkpt>
      <trkpt lat="43.5833" lon="2.96347">
        <ele>334.3</ele>
        <time>2026-05-07T07:21:16.000Z</time>
      </trkpt>
      <trkpt lat="43.58331" lon="2.96347">
        <ele>334.6</ele>
        <time>2026-05-07T07:21:17.000Z</time>
      </trkpt>
      <trkpt lat="43.58331" lon="2.96345">
        <ele>335</ele>
        <time>2026-05-07T07:21:18.000Z</time>
      </trkpt>
      <trkpt lat="43.58332" lon="2.96345">
        <ele>334.6</ele>
        <time>2026-05-07T07:21:19.000Z</time>
      </trkpt>
      <trkpt lat="43.58332" lon="2.96344">
        <ele>334.2</ele>
        <time>2026-05-07T07:21:20.000Z</time>
      </trkpt>
      <trkpt lat="43.58333" lon="2.96343">
        <ele>333.7</ele>
        <time>2026-05-07T07:21:21.000Z</time>
      </trkpt>
      <trkpt lat="43.58333" lon="2.96341">
        <ele>333.5</ele>
        <time>2026-05-07T07:21:22.000Z</time>
      </trkpt>
      <trkpt lat="43.58334" lon="2.9634">
        <ele>333.6</ele>
        <time>2026-05-07T07:21:23.000Z</time>
      </trkpt>
      <trkpt lat="43.58334" lon="2.96339">
        <ele>333.2</ele>
        <time>2026-05-07T07:21:24.000Z</time>
      </trkpt>
      <trkpt lat="43.58334" lon="2.96338">
        <ele>333.1</ele>
        <time>2026-05-07T07:21:25.000Z</time>
      </trkpt>
      <trkpt lat="43.58335" lon="2.96336">
        <ele>333.2</ele>
        <time>2026-05-07T07:21:26.000Z</time>
      </trkpt>
      <trkpt lat="43.58335" lon="2.96335">
        <ele>333.1</ele>
        <time>2026-05-07T07:21:27.000Z</time>
      </trkpt>
      <trkpt lat="43.58336" lon="2.96334">
        <ele>332.9</ele>
        <time>2026-05-07T07:21:28.000Z</time>
      </trkpt>
      <trkpt lat="43.58337" lon="2.96333">
        <ele>332.8</ele>
        <time>2026-05-07T07:21:29.000Z</time>
      </trkpt>
      <trkpt lat="43.58338" lon="2.96331">
        <ele>332.6</ele>
        <time>2026-05-07T07:21:30.000Z</time>
      </trkpt>
      <trkpt lat="43.58338" lon="2.9633">
        <ele>332.3</ele>
        <time>2026-05-07T07:21:31.000Z</time>
      </trkpt>
      <trkpt lat="43.58339" lon="2.96328">
        <ele>332.3</ele>
        <time>2026-05-07T07:21:32.000Z</time>
      </trkpt>
      <trkpt lat="43.58339" lon="2.96327">
        <ele>332.4</ele>
        <time>2026-05-07T07:21:33.000Z</time>
      </trkpt>
      <trkpt lat="43.5834" lon="2.96326">
        <ele>332.3</ele>
        <time>2026-05-07T07:21:34.000Z</time>
      </trkpt>
      <trkpt lat="43.5834" lon="2.96325">
        <ele>332.3</ele>
        <time>2026-05-07T07:21:35.000Z</time>
      </trkpt>
      <trkpt lat="43.58341" lon="2.96323">
        <ele>332.4</ele>
        <time>2026-05-07T07:21:36.000Z</time>
      </trkpt>
      <trkpt lat="43.58342" lon="2.96322">
        <ele>332.6</ele>
        <time>2026-05-07T07:21:37.000Z</time>
      </trkpt>
      <trkpt lat="43.58342" lon="2.9632">
        <ele>332.7</ele>
        <time>2026-05-07T07:21:38.000Z</time>
      </trkpt>
      <trkpt lat="43.58343" lon="2.96319">
        <ele>332.8</ele>
        <time>2026-05-07T07:21:39.000Z</time>
      </trkpt>
      <trkpt lat="43.58344" lon="2.96317">
        <ele>332.9</ele>
        <time>2026-05-07T07:21:40.000Z</time>
      </trkpt>
      <trkpt lat="43.58344" lon="2.96315">
        <ele>332.9</ele>
        <time>2026-05-07T07:21:41.000Z</time>
      </trkpt>
      <trkpt lat="43.58346" lon="2.96312">
        <ele>332.8</ele>
        <time>2026-05-07T07:21:43.000Z</time>
      </trkpt>
      <trkpt lat="43.58347" lon="2.96311">
        <ele>333</ele>
        <time>2026-05-07T07:21:44.000Z</time>
      </trkpt>
      <trkpt lat="43.58347" lon="2.96309">
        <ele>333</ele>
        <time>2026-05-07T07:21:45.000Z</time>
      </trkpt>
      <trkpt lat="43.58348" lon="2.96308">
        <ele>333.1</ele>
        <time>2026-05-07T07:21:46.000Z</time>
      </trkpt>
      <trkpt lat="43.58349" lon="2.96308">
        <ele>333.5</ele>
        <time>2026-05-07T07:21:47.000Z</time>
      </trkpt>
      <trkpt lat="43.58349" lon="2.96306">
        <ele>333.8</ele>
        <time>2026-05-07T07:21:48.000Z</time>
      </trkpt>
      <trkpt lat="43.5835" lon="2.96305">
        <ele>334.2</ele>
        <time>2026-05-07T07:21:49.000Z</time>
      </trkpt>
      <trkpt lat="43.58351" lon="2.96303">
        <ele>334.4</ele>
        <time>2026-05-07T07:21:50.000Z</time>
      </trkpt>
      <trkpt lat="43.58351" lon="2.96301">
        <ele>334.3</ele>
        <time>2026-05-07T07:21:51.000Z</time>
      </trkpt>
      <trkpt lat="43.58351" lon="2.96299">
        <ele>334.4</ele>
        <time>2026-05-07T07:21:52.000Z</time>
      </trkpt>
      <trkpt lat="43.58351" lon="2.96298">
        <ele>333.9</ele>
        <time>2026-05-07T07:21:53.000Z</time>
      </trkpt>
      <trkpt lat="43.58352" lon="2.96297">
        <ele>333.1</ele>
        <time>2026-05-07T07:21:54.999Z</time>
      </trkpt>
      <trkpt lat="43.58352" lon="2.96296">
        <ele>332.8</ele>
        <time>2026-05-07T07:21:55.999Z</time>
      </trkpt>
      <trkpt lat="43.58352" lon="2.96296">
        <ele>332</ele>
        <time>2026-05-07T07:21:56.999Z</time>
      </trkpt>
      <trkpt lat="43.58353" lon="2.96295">
        <ele>331.8</ele>
        <time>2026-05-07T07:21:57.999Z</time>
      </trkpt>
      <trkpt lat="43.58354" lon="2.96294">
        <ele>331.4</ele>
        <time>2026-05-07T07:21:58.999Z</time>
      </trkpt>
      <trkpt lat="43.58354" lon="2.96292">
        <ele>331.4</ele>
        <time>2026-05-07T07:21:59.999Z</time>
      </trkpt>
      <trkpt lat="43.58354" lon="2.96291">
        <ele>331.5</ele>
        <time>2026-05-07T07:22:00.999Z</time>
      </trkpt>
      <trkpt lat="43.58354" lon="2.96289">
        <ele>331.3</ele>
        <time>2026-05-07T07:22:01.999Z</time>
      </trkpt>
      <trkpt lat="43.58354" lon="2.96287">
        <ele>331</ele>
        <time>2026-05-07T07:22:02.999Z</time>
      </trkpt>
      <trkpt lat="43.58354" lon="2.96285">
        <ele>331.1</ele>
        <time>2026-05-07T07:22:03.999Z</time>
      </trkpt>
      <trkpt lat="43.58355" lon="2.96284">
        <ele>331.2</ele>
        <time>2026-05-07T07:22:04.999Z</time>
      </trkpt>
      <trkpt lat="43.58355" lon="2.96283">
        <ele>330.8</ele>
        <time>2026-05-07T07:22:05.999Z</time>
      </trkpt>
      <trkpt lat="43.58356" lon="2.96282">
        <ele>330.5</ele>
        <time>2026-05-07T07:22:06.999Z</time>
      </trkpt>
      <trkpt lat="43.58357" lon="2.96281">
        <ele>330.5</ele>
        <time>2026-05-07T07:22:07.999Z</time>
      </trkpt>
      <trkpt lat="43.58358" lon="2.9628">
        <ele>331.2</ele>
        <time>2026-05-07T07:22:08.999Z</time>
      </trkpt>
      <trkpt lat="43.5836" lon="2.96279">
        <ele>330.6</ele>
        <time>2026-05-07T07:22:09.999Z</time>
      </trkpt>
      <trkpt lat="43.58362" lon="2.96278">
        <ele>330.4</ele>
        <time>2026-05-07T07:22:10.999Z</time>
      </trkpt>
      <trkpt lat="43.58363" lon="2.96278">
        <ele>330.3</ele>
        <time>2026-05-07T07:22:11.999Z</time>
      </trkpt>
      <trkpt lat="43.58364" lon="2.96277">
        <ele>330.7</ele>
        <time>2026-05-07T07:22:12.999Z</time>
      </trkpt>
      <trkpt lat="43.58365" lon="2.96276">
        <ele>330.6</ele>
        <time>2026-05-07T07:22:13.999Z</time>
      </trkpt>
      <trkpt lat="43.58365" lon="2.96275">
        <ele>330.1</ele>
        <time>2026-05-07T07:22:14.999Z</time>
      </trkpt>
      <trkpt lat="43.58366" lon="2.96274">
        <ele>330</ele>
        <time>2026-05-07T07:22:15.999Z</time>
      </trkpt>
      <trkpt lat="43.58367" lon="2.96274">
        <ele>330.3</ele>
        <time>2026-05-07T07:22:16.999Z</time>
      </trkpt>
      <trkpt lat="43.58367" lon="2.96273">
        <ele>330.2</ele>
        <time>2026-05-07T07:22:17.999Z</time>
      </trkpt>
      <trkpt lat="43.58367" lon="2.96271">
        <ele>330</ele>
        <time>2026-05-07T07:22:18.999Z</time>
      </trkpt>
      <trkpt lat="43.58367" lon="2.9627">
        <ele>330.1</ele>
        <time>2026-05-07T07:22:19.999Z</time>
      </trkpt>
      <trkpt lat="43.58367" lon="2.96269">
        <ele>330.3</ele>
        <time>2026-05-07T07:22:20.999Z</time>
      </trkpt>
      <trkpt lat="43.58367" lon="2.96268">
        <ele>329.7</ele>
        <time>2026-05-07T07:22:21.999Z</time>
      </trkpt>
      <trkpt lat="43.58368" lon="2.96266">
        <ele>329</ele>
        <time>2026-05-07T07:22:22.999Z</time>
      </trkpt>
      <trkpt lat="43.58368" lon="2.96265">
        <ele>328.9</ele>
        <time>2026-05-07T07:22:23.999Z</time>
      </trkpt>
      <trkpt lat="43.58368" lon="2.96263">
        <ele>329.5</ele>
        <time>2026-05-07T07:22:24.999Z</time>
      </trkpt>
      <trkpt lat="43.58369" lon="2.96262">
        <ele>329.5</ele>
        <time>2026-05-07T07:22:25.999Z</time>
      </trkpt>
      <trkpt lat="43.58369" lon="2.96262">
        <ele>329.7</ele>
        <time>2026-05-07T07:22:26.999Z</time>
      </trkpt>
      <trkpt lat="43.5837" lon="2.96261">
        <ele>329.3</ele>
        <time>2026-05-07T07:22:27.999Z</time>
      </trkpt>
      <trkpt lat="43.58371" lon="2.96259">
        <ele>329.7</ele>
        <time>2026-05-07T07:22:28.999Z</time>
      </trkpt>
      <trkpt lat="43.58372" lon="2.96257">
        <ele>330.1</ele>
        <time>2026-05-07T07:22:29.999Z</time>
      </trkpt>
      <trkpt lat="43.58373" lon="2.96254">
        <ele>329.8</ele>
        <time>2026-05-07T07:22:30.999Z</time>
      </trkpt>
      <trkpt lat="43.58373" lon="2.96252">
        <ele>330.1</ele>
        <time>2026-05-07T07:22:31.999Z</time>
      </trkpt>
      <trkpt lat="43.58373" lon="2.96251">
        <ele>329.8</ele>
        <time>2026-05-07T07:22:32.999Z</time>
      </trkpt>
      <trkpt lat="43.58373" lon="2.96249">
        <ele>329.7</ele>
        <time>2026-05-07T07:22:33.999Z</time>
      </trkpt>
      <trkpt lat="43.58374" lon="2.96248">
        <ele>329.8</ele>
        <time>2026-05-07T07:22:34.999Z</time>
      </trkpt>
      <trkpt lat="43.58374" lon="2.96247">
        <ele>329.8</ele>
        <time>2026-05-07T07:22:35.999Z</time>
      </trkpt>
      <trkpt lat="43.58376" lon="2.96245">
        <ele>330.2</ele>
        <time>2026-05-07T07:22:36.999Z</time>
      </trkpt>
      <trkpt lat="43.58376" lon="2.96243">
        <ele>330</ele>
        <time>2026-05-07T07:22:37.999Z</time>
      </trkpt>
      <trkpt lat="43.58377" lon="2.96242">
        <ele>329.9</ele>
        <time>2026-05-07T07:22:38.999Z</time>
      </trkpt>
      <trkpt lat="43.58377" lon="2.96241">
        <ele>329.5</ele>
        <time>2026-05-07T07:22:39.999Z</time>
      </trkpt>
      <trkpt lat="43.58378" lon="2.9624">
        <ele>329.1</ele>
        <time>2026-05-07T07:22:40.999Z</time>
      </trkpt>
      <trkpt lat="43.58379" lon="2.96239">
        <ele>329</ele>
        <time>2026-05-07T07:22:41.999Z</time>
      </trkpt>
      <trkpt lat="43.58381" lon="2.96238">
        <ele>328.9</ele>
        <time>2026-05-07T07:22:42.999Z</time>
      </trkpt>
      <trkpt lat="43.58382" lon="2.96236">
        <ele>328.6</ele>
        <time>2026-05-07T07:22:43.999Z</time>
      </trkpt>
      <trkpt lat="43.58382" lon="2.96235">
        <ele>328.6</ele>
        <time>2026-05-07T07:22:44.999Z</time>
      </trkpt>
      <trkpt lat="43.58382" lon="2.96234">
        <ele>328.5</ele>
        <time>2026-05-07T07:22:45.999Z</time>
      </trkpt>
      <trkpt lat="43.58381" lon="2.96233">
        <ele>328.9</ele>
        <time>2026-05-07T07:22:46.999Z</time>
      </trkpt>
      <trkpt lat="43.58382" lon="2.96232">
        <ele>329.2</ele>
        <time>2026-05-07T07:22:47.999Z</time>
      </trkpt>
      <trkpt lat="43.58382" lon="2.9623">
        <ele>329.2</ele>
        <time>2026-05-07T07:22:48.999Z</time>
      </trkpt>
      <trkpt lat="43.58383" lon="2.96229">
        <ele>329.2</ele>
        <time>2026-05-07T07:22:49.999Z</time>
      </trkpt>
      <trkpt lat="43.58383" lon="2.96228">
        <ele>329.1</ele>
        <time>2026-05-07T07:22:50.999Z</time>
      </trkpt>
      <trkpt lat="43.58384" lon="2.96226">
        <ele>329.3</ele>
        <time>2026-05-07T07:22:51.999Z</time>
      </trkpt>
      <trkpt lat="43.58384" lon="2.96225">
        <ele>329.9</ele>
        <time>2026-05-07T07:22:52.999Z</time>
      </trkpt>
      <trkpt lat="43.58385" lon="2.96224">
        <ele>330</ele>
        <time>2026-05-07T07:22:53.999Z</time>
      </trkpt>
      <trkpt lat="43.58385" lon="2.96222">
        <ele>330.2</ele>
        <time>2026-05-07T07:22:54.999Z</time>
      </trkpt>
      <trkpt lat="43.58385" lon="2.96221">
        <ele>330.2</ele>
        <time>2026-05-07T07:22:55.999Z</time>
      </trkpt>
      <trkpt lat="43.58386" lon="2.96219">
        <ele>329.9</ele>
        <time>2026-05-07T07:22:56.999Z</time>
      </trkpt>
      <trkpt lat="43.58386" lon="2.96217">
        <ele>329.3</ele>
        <time>2026-05-07T07:22:57.999Z</time>
      </trkpt>
      <trkpt lat="43.58386" lon="2.96215">
        <ele>329.4</ele>
        <time>2026-05-07T07:22:58.999Z</time>
      </trkpt>
      <trkpt lat="43.58385" lon="2.96214">
        <ele>329.2</ele>
        <time>2026-05-07T07:22:59.999Z</time>
      </trkpt>
      <trkpt lat="43.58385" lon="2.96212">
        <ele>329.2</ele>
        <time>2026-05-07T07:23:00.999Z</time>
      </trkpt>
      <trkpt lat="43.58385" lon="2.9621">
        <ele>329.5</ele>
        <time>2026-05-07T07:23:01.999Z</time>
      </trkpt>
      <trkpt lat="43.58385" lon="2.96208">
        <ele>329.8</ele>
        <time>2026-05-07T07:23:02.999Z</time>
      </trkpt>
      <trkpt lat="43.58386" lon="2.96207">
        <ele>329.5</ele>
        <time>2026-05-07T07:23:03.999Z</time>
      </trkpt>
      <trkpt lat="43.58386" lon="2.96206">
        <ele>329.2</ele>
        <time>2026-05-07T07:23:04.999Z</time>
      </trkpt>
      <trkpt lat="43.58386" lon="2.96204">
        <ele>329</ele>
        <time>2026-05-07T07:23:05.999Z</time>
      </trkpt>
      <trkpt lat="43.58387" lon="2.96201">
        <ele>328.8</ele>
        <time>2026-05-07T07:23:06.999Z</time>
      </trkpt>
      <trkpt lat="43.58388" lon="2.962">
        <ele>328.9</ele>
        <time>2026-05-07T07:23:07.999Z</time>
      </trkpt>
      <trkpt lat="43.58387" lon="2.96198">
        <ele>329.1</ele>
        <time>2026-05-07T07:23:08.999Z</time>
      </trkpt>
      <trkpt lat="43.58387" lon="2.96196">
        <ele>329.2</ele>
        <time>2026-05-07T07:23:09.999Z</time>
      </trkpt>
      <trkpt lat="43.58387" lon="2.96194">
        <ele>329.2</ele>
        <time>2026-05-07T07:23:10.999Z</time>
      </trkpt>
      <trkpt lat="43.58387" lon="2.96193">
        <ele>329.3</ele>
        <time>2026-05-07T07:23:11.999Z</time>
      </trkpt>
      <trkpt lat="43.58387" lon="2.96191">
        <ele>328.9</ele>
        <time>2026-05-07T07:23:12.999Z</time>
      </trkpt>
      <trkpt lat="43.58388" lon="2.9619">
        <ele>328.9</ele>
        <time>2026-05-07T07:23:13.999Z</time>
      </trkpt>
      <trkpt lat="43.58388" lon="2.96189">
        <ele>328.7</ele>
        <time>2026-05-07T07:23:14.999Z</time>
      </trkpt>
      <trkpt lat="43.58388" lon="2.96188">
        <ele>329.2</ele>
        <time>2026-05-07T07:23:15.999Z</time>
      </trkpt>
      <trkpt lat="43.58387" lon="2.96186">
        <ele>329.5</ele>
        <time>2026-05-07T07:23:16.999Z</time>
      </trkpt>
      <trkpt lat="43.58387" lon="2.96185">
        <ele>330</ele>
        <time>2026-05-07T07:23:17.999Z</time>
      </trkpt>
      <trkpt lat="43.58387" lon="2.96184">
        <ele>329.8</ele>
        <time>2026-05-07T07:23:18.999Z</time>
      </trkpt>
      <trkpt lat="43.58387" lon="2.96184">
        <ele>329.4</ele>
        <time>2026-05-07T07:23:19.999Z</time>
      </trkpt>
      <trkpt lat="43.58387" lon="2.96183">
        <ele>329</ele>
        <time>2026-05-07T07:23:20.999Z</time>
      </trkpt>
      <trkpt lat="43.58388" lon="2.96182">
        <ele>329.4</ele>
        <time>2026-05-07T07:23:21.999Z</time>
      </trkpt>
      <trkpt lat="43.58388" lon="2.96181">
        <ele>329.3</ele>
        <time>2026-05-07T07:23:22.999Z</time>
      </trkpt>
      <trkpt lat="43.58387" lon="2.9618">
        <ele>329.2</ele>
        <time>2026-05-07T07:23:23.999Z</time>
      </trkpt>
      <trkpt lat="43.58387" lon="2.96179">
        <ele>329</ele>
        <time>2026-05-07T07:23:24.999Z</time>
      </trkpt>
      <trkpt lat="43.58387" lon="2.96178">
        <ele>329.1</ele>
        <time>2026-05-07T07:23:25.999Z</time>
      </trkpt>
      <trkpt lat="43.58387" lon="2.96177">
        <ele>329</ele>
        <time>2026-05-07T07:23:26.999Z</time>
      </trkpt>
      <trkpt lat="43.58387" lon="2.96176">
        <ele>328.8</ele>
        <time>2026-05-07T07:23:27.999Z</time>
      </trkpt>
      <trkpt lat="43.58387" lon="2.96173">
        <ele>328.6</ele>
        <time>2026-05-07T07:23:28.999Z</time>
      </trkpt>
      <trkpt lat="43.58386" lon="2.96171">
        <ele>328.4</ele>
        <time>2026-05-07T07:23:29.999Z</time>
      </trkpt>
      <trkpt lat="43.58386" lon="2.96169">
        <ele>328.1</ele>
        <time>2026-05-07T07:23:30.999Z</time>
      </trkpt>
      <trkpt lat="43.58386" lon="2.96167">
        <ele>327.7</ele>
        <time>2026-05-07T07:23:31.999Z</time>
      </trkpt>
      <trkpt lat="43.58386" lon="2.96166">
        <ele>327.8</ele>
        <time>2026-05-07T07:23:32.999Z</time>
      </trkpt>
      <trkpt lat="43.58386" lon="2.96165">
        <ele>327.8</ele>
        <time>2026-05-07T07:23:33.999Z</time>
      </trkpt>
      <trkpt lat="43.58387" lon="2.96162">
        <ele>328.2</ele>
        <time>2026-05-07T07:23:34.999Z</time>
      </trkpt>
      <trkpt lat="43.58387" lon="2.9616">
        <ele>328.6</ele>
        <time>2026-05-07T07:23:35.999Z</time>
      </trkpt>
      <trkpt lat="43.58387" lon="2.96158">
        <ele>329.2</ele>
        <time>2026-05-07T07:23:36.999Z</time>
      </trkpt>
      <trkpt lat="43.58387" lon="2.96156">
        <ele>329.6</ele>
        <time>2026-05-07T07:23:37.999Z</time>
      </trkpt>
      <trkpt lat="43.58388" lon="2.96154">
        <ele>329.7</ele>
        <time>2026-05-07T07:23:38.999Z</time>
      </trkpt>
      <trkpt lat="43.58389" lon="2.96153">
        <ele>329.9</ele>
        <time>2026-05-07T07:23:39.999Z</time>
      </trkpt>
      <trkpt lat="43.5839" lon="2.96151">
        <ele>329.9</ele>
        <time>2026-05-07T07:23:40.999Z</time>
      </trkpt>
      <trkpt lat="43.5839" lon="2.96148">
        <ele>331.2</ele>
        <time>2026-05-07T07:23:41.999Z</time>
      </trkpt>
      <trkpt lat="43.5839" lon="2.96146">
        <ele>331.9</ele>
        <time>2026-05-07T07:23:42.999Z</time>
      </trkpt>
      <trkpt lat="43.58391" lon="2.96144">
        <ele>332.6</ele>
        <time>2026-05-07T07:23:43.999Z</time>
      </trkpt>
      <trkpt lat="43.58392" lon="2.96142">
        <ele>333</ele>
        <time>2026-05-07T07:23:44.999Z</time>
      </trkpt>
      <trkpt lat="43.58392" lon="2.96141">
        <ele>333.3</ele>
        <time>2026-05-07T07:23:45.999Z</time>
      </trkpt>
      <trkpt lat="43.58393" lon="2.9614">
        <ele>333.6</ele>
        <time>2026-05-07T07:23:46.999Z</time>
      </trkpt>
      <trkpt lat="43.58393" lon="2.9614">
        <ele>334.1</ele>
        <time>2026-05-07T07:23:47.999Z</time>
      </trkpt>
      <trkpt lat="43.58393" lon="2.96138">
        <ele>334.3</ele>
        <time>2026-05-07T07:23:48.999Z</time>
      </trkpt>
      <trkpt lat="43.58393" lon="2.96136">
        <ele>334.4</ele>
        <time>2026-05-07T07:23:49.999Z</time>
      </trkpt>
      <trkpt lat="43.58394" lon="2.96134">
        <ele>334.5</ele>
        <time>2026-05-07T07:23:50.999Z</time>
      </trkpt>
      <trkpt lat="43.58394" lon="2.96132">
        <ele>335</ele>
        <time>2026-05-07T07:23:51.999Z</time>
      </trkpt>
      <trkpt lat="43.58394" lon="2.96131">
        <ele>335.4</ele>
        <time>2026-05-07T07:23:52.999Z</time>
      </trkpt>
      <trkpt lat="43.58394" lon="2.9613">
        <ele>335.9</ele>
        <time>2026-05-07T07:23:53.999Z</time>
      </trkpt>
      <trkpt lat="43.58394" lon="2.96129">
        <ele>335.9</ele>
        <time>2026-05-07T07:23:54.999Z</time>
      </trkpt>
      <trkpt lat="43.58394" lon="2.96128">
        <ele>335.8</ele>
        <time>2026-05-07T07:23:55.999Z</time>
      </trkpt>
      <trkpt lat="43.58394" lon="2.96127">
        <ele>335.8</ele>
        <time>2026-05-07T07:23:56.999Z</time>
      </trkpt>
      <trkpt lat="43.58394" lon="2.96126">
        <ele>335.1</ele>
        <time>2026-05-07T07:23:57.999Z</time>
      </trkpt>
      <trkpt lat="43.58395" lon="2.96124">
        <ele>335.2</ele>
        <time>2026-05-07T07:23:58.999Z</time>
      </trkpt>
      <trkpt lat="43.58395" lon="2.96123">
        <ele>335.4</ele>
        <time>2026-05-07T07:23:59.999Z</time>
      </trkpt>
      <trkpt lat="43.58395" lon="2.96121">
        <ele>335.5</ele>
        <time>2026-05-07T07:24:00.999Z</time>
      </trkpt>
      <trkpt lat="43.58395" lon="2.96118">
        <ele>335.8</ele>
        <time>2026-05-07T07:24:01.999Z</time>
      </trkpt>
      <trkpt lat="43.58395" lon="2.96116">
        <ele>336.3</ele>
        <time>2026-05-07T07:24:02.999Z</time>
      </trkpt>
      <trkpt lat="43.58395" lon="2.96114">
        <ele>335.8</ele>
        <time>2026-05-07T07:24:03.999Z</time>
      </trkpt>
      <trkpt lat="43.58395" lon="2.96112">
        <ele>335.9</ele>
        <time>2026-05-07T07:24:04.999Z</time>
      </trkpt>
      <trkpt lat="43.58395" lon="2.96111">
        <ele>335.5</ele>
        <time>2026-05-07T07:24:05.999Z</time>
      </trkpt>
      <trkpt lat="43.58395" lon="2.96109">
        <ele>334.9</ele>
        <time>2026-05-07T07:24:06.999Z</time>
      </trkpt>
      <trkpt lat="43.58396" lon="2.96106">
        <ele>334.9</ele>
        <time>2026-05-07T07:24:07.999Z</time>
      </trkpt>
      <trkpt lat="43.58396" lon="2.96105">
        <ele>335.1</ele>
        <time>2026-05-07T07:24:08.999Z</time>
      </trkpt>
      <trkpt lat="43.58396" lon="2.96104">
        <ele>334.9</ele>
        <time>2026-05-07T07:24:09.999Z</time>
      </trkpt>
      <trkpt lat="43.58396" lon="2.96103">
        <ele>335.1</ele>
        <time>2026-05-07T07:24:10.999Z</time>
      </trkpt>
      <trkpt lat="43.58397" lon="2.96101">
        <ele>335.1</ele>
        <time>2026-05-07T07:24:11.999Z</time>
      </trkpt>
      <trkpt lat="43.58398" lon="2.96099">
        <ele>335.1</ele>
        <time>2026-05-07T07:24:12.999Z</time>
      </trkpt>
      <trkpt lat="43.58398" lon="2.96097">
        <ele>336.2</ele>
        <time>2026-05-07T07:24:13.999Z</time>
      </trkpt>
      <trkpt lat="43.58399" lon="2.96095">
        <ele>336.9</ele>
        <time>2026-05-07T07:24:14.999Z</time>
      </trkpt>
      <trkpt lat="43.58399" lon="2.96094">
        <ele>337.6</ele>
        <time>2026-05-07T07:24:15.999Z</time>
      </trkpt>
      <trkpt lat="43.584" lon="2.96093">
        <ele>337.9</ele>
        <time>2026-05-07T07:24:16.999Z</time>
      </trkpt>
      <trkpt lat="43.58401" lon="2.96092">
        <ele>338.9</ele>
        <time>2026-05-07T07:24:17.999Z</time>
      </trkpt>
      <trkpt lat="43.58402" lon="2.9609">
        <ele>340</ele>
        <time>2026-05-07T07:24:18.999Z</time>
      </trkpt>
      <trkpt lat="43.58403" lon="2.96089">
        <ele>340.6</ele>
        <time>2026-05-07T07:24:19.999Z</time>
      </trkpt>
      <trkpt lat="43.58403" lon="2.96088">
        <ele>341.4</ele>
        <time>2026-05-07T07:24:20.999Z</time>
      </trkpt>
      <trkpt lat="43.58403" lon="2.96087">
        <ele>341.3</ele>
        <time>2026-05-07T07:24:21.999Z</time>
      </trkpt>
      <trkpt lat="43.58404" lon="2.96086">
        <ele>341.3</ele>
        <time>2026-05-07T07:24:22.999Z</time>
      </trkpt>
      <trkpt lat="43.58405" lon="2.96084">
        <ele>341.6</ele>
        <time>2026-05-07T07:24:23.999Z</time>
      </trkpt>
      <trkpt lat="43.58405" lon="2.96083">
        <ele>341.8</ele>
        <time>2026-05-07T07:24:24.999Z</time>
      </trkpt>
      <trkpt lat="43.58405" lon="2.96082">
        <ele>341.9</ele>
        <time>2026-05-07T07:24:25.999Z</time>
      </trkpt>
      <trkpt lat="43.58405" lon="2.9608">
        <ele>341.8</ele>
        <time>2026-05-07T07:24:26.999Z</time>
      </trkpt>
      <trkpt lat="43.58405" lon="2.96078">
        <ele>341.8</ele>
        <time>2026-05-07T07:24:27.999Z</time>
      </trkpt>
      <trkpt lat="43.58406" lon="2.96077">
        <ele>342.5</ele>
        <time>2026-05-07T07:24:28.999Z</time>
      </trkpt>
      <trkpt lat="43.58406" lon="2.96076">
        <ele>342.1</ele>
        <time>2026-05-07T07:24:29.999Z</time>
      </trkpt>
      <trkpt lat="43.58406" lon="2.96075">
        <ele>341.9</ele>
        <time>2026-05-07T07:24:30.999Z</time>
      </trkpt>
      <trkpt lat="43.58406" lon="2.96074">
        <ele>341.8</ele>
        <time>2026-05-07T07:24:31.999Z</time>
      </trkpt>
      <trkpt lat="43.58406" lon="2.96072">
        <ele>341.4</ele>
        <time>2026-05-07T07:24:32.999Z</time>
      </trkpt>
      <trkpt lat="43.58407" lon="2.96071">
        <ele>341.1</ele>
        <time>2026-05-07T07:24:33.999Z</time>
      </trkpt>
      <trkpt lat="43.58407" lon="2.9607">
        <ele>341</ele>
        <time>2026-05-07T07:24:34.999Z</time>
      </trkpt>
      <trkpt lat="43.58408" lon="2.96069">
        <ele>341.2</ele>
        <time>2026-05-07T07:24:35.999Z</time>
      </trkpt>
      <trkpt lat="43.58408" lon="2.96067">
        <ele>341.2</ele>
        <time>2026-05-07T07:24:36.999Z</time>
      </trkpt>
      <trkpt lat="43.58408" lon="2.96066">
        <ele>341.7</ele>
        <time>2026-05-07T07:24:37.999Z</time>
      </trkpt>
      <trkpt lat="43.58408" lon="2.96065">
        <ele>342.2</ele>
        <time>2026-05-07T07:24:38.999Z</time>
      </trkpt>
      <trkpt lat="43.58407" lon="2.96062">
        <ele>342.5</ele>
        <time>2026-05-07T07:24:39.999Z</time>
      </trkpt>
      <trkpt lat="43.58407" lon="2.9606">
        <ele>342.4</ele>
        <time>2026-05-07T07:24:40.999Z</time>
      </trkpt>
      <trkpt lat="43.58406" lon="2.96059">
        <ele>342.5</ele>
        <time>2026-05-07T07:24:41.999Z</time>
      </trkpt>
      <trkpt lat="43.58406" lon="2.96058">
        <ele>342.5</ele>
        <time>2026-05-07T07:24:42.999Z</time>
      </trkpt>
      <trkpt lat="43.58407" lon="2.96056">
        <ele>342.3</ele>
        <time>2026-05-07T07:24:43.999Z</time>
      </trkpt>
      <trkpt lat="43.58407" lon="2.96055">
        <ele>342.3</ele>
        <time>2026-05-07T07:24:44.999Z</time>
      </trkpt>
      <trkpt lat="43.58407" lon="2.96054">
        <ele>341.9</ele>
        <time>2026-05-07T07:24:45.999Z</time>
      </trkpt>
      <trkpt lat="43.58408" lon="2.96053">
        <ele>341.2</ele>
        <time>2026-05-07T07:24:46.999Z</time>
      </trkpt>
      <trkpt lat="43.58408" lon="2.96053">
        <ele>340.8</ele>
        <time>2026-05-07T07:24:47.999Z</time>
      </trkpt>
      <trkpt lat="43.58409" lon="2.96052">
        <ele>340.2</ele>
        <time>2026-05-07T07:24:48.999Z</time>
      </trkpt>
      <trkpt lat="43.58409" lon="2.96051">
        <ele>340.3</ele>
        <time>2026-05-07T07:24:49.999Z</time>
      </trkpt>
      <trkpt lat="43.5841" lon="2.96049">
        <ele>340.3</ele>
        <time>2026-05-07T07:24:50.999Z</time>
      </trkpt>
      <trkpt lat="43.58411" lon="2.96048">
        <ele>340.7</ele>
        <time>2026-05-07T07:24:51.999Z</time>
      </trkpt>
      <trkpt lat="43.58411" lon="2.96047">
        <ele>340.9</ele>
        <time>2026-05-07T07:24:52.999Z</time>
      </trkpt>
      <trkpt lat="43.58411" lon="2.96046">
        <ele>340.8</ele>
        <time>2026-05-07T07:24:53.999Z</time>
      </trkpt>
      <trkpt lat="43.58412" lon="2.96045">
        <ele>340.6</ele>
        <time>2026-05-07T07:24:54.999Z</time>
      </trkpt>
      <trkpt lat="43.58412" lon="2.96044">
        <ele>340.5</ele>
        <time>2026-05-07T07:24:55.999Z</time>
      </trkpt>
      <trkpt lat="43.58413" lon="2.96042">
        <ele>340.7</ele>
        <time>2026-05-07T07:24:56.999Z</time>
      </trkpt>
      <trkpt lat="43.58413" lon="2.96041">
        <ele>340.9</ele>
        <time>2026-05-07T07:24:57.999Z</time>
      </trkpt>
      <trkpt lat="43.58413" lon="2.9604">
        <ele>340.3</ele>
        <time>2026-05-07T07:24:58.999Z</time>
      </trkpt>
      <trkpt lat="43.58414" lon="2.96039">
        <ele>339.9</ele>
        <time>2026-05-07T07:24:59.999Z</time>
      </trkpt>
      <trkpt lat="43.58415" lon="2.96037">
        <ele>339.4</ele>
        <time>2026-05-07T07:25:00.999Z</time>
      </trkpt>
      <trkpt lat="43.58416" lon="2.96035">
        <ele>339.1</ele>
        <time>2026-05-07T07:25:01.999Z</time>
      </trkpt>
      <trkpt lat="43.58416" lon="2.96033">
        <ele>339.3</ele>
        <time>2026-05-07T07:25:02.999Z</time>
      </trkpt>
      <trkpt lat="43.58416" lon="2.96032">
        <ele>339.7</ele>
        <time>2026-05-07T07:25:03.999Z</time>
      </trkpt>
      <trkpt lat="43.58416" lon="2.96031">
        <ele>340</ele>
        <time>2026-05-07T07:25:04.999Z</time>
      </trkpt>
      <trkpt lat="43.58415" lon="2.96029">
        <ele>339.7</ele>
        <time>2026-05-07T07:25:05.999Z</time>
      </trkpt>
      <trkpt lat="43.58415" lon="2.96028">
        <ele>339.3</ele>
        <time>2026-05-07T07:25:06.999Z</time>
      </trkpt>
      <trkpt lat="43.58415" lon="2.96027">
        <ele>339.1</ele>
        <time>2026-05-07T07:25:07.999Z</time>
      </trkpt>
      <trkpt lat="43.58415" lon="2.96025">
        <ele>339.2</ele>
        <time>2026-05-07T07:25:08.999Z</time>
      </trkpt>
      <trkpt lat="43.58416" lon="2.96024">
        <ele>339.6</ele>
        <time>2026-05-07T07:25:09.999Z</time>
      </trkpt>
      <trkpt lat="43.58416" lon="2.96023">
        <ele>340.1</ele>
        <time>2026-05-07T07:25:10.999Z</time>
      </trkpt>
      <trkpt lat="43.58417" lon="2.96022">
        <ele>340.5</ele>
        <time>2026-05-07T07:25:11.999Z</time>
      </trkpt>
      <trkpt lat="43.58418" lon="2.96021">
        <ele>340.9</ele>
        <time>2026-05-07T07:25:12.999Z</time>
      </trkpt>
      <trkpt lat="43.58419" lon="2.96019">
        <ele>340.7</ele>
        <time>2026-05-07T07:25:13.999Z</time>
      </trkpt>
      <trkpt lat="43.5842" lon="2.96018">
        <ele>340</ele>
        <time>2026-05-07T07:25:14.999Z</time>
      </trkpt>
      <trkpt lat="43.5842" lon="2.96017">
        <ele>340.5</ele>
        <time>2026-05-07T07:25:15.999Z</time>
      </trkpt>
      <trkpt lat="43.5842" lon="2.96015">
        <ele>340.6</ele>
        <time>2026-05-07T07:25:16.999Z</time>
      </trkpt>
      <trkpt lat="43.5842" lon="2.96014">
        <ele>340.9</ele>
        <time>2026-05-07T07:25:17.999Z</time>
      </trkpt>
      <trkpt lat="43.5842" lon="2.96012">
        <ele>341.2</ele>
        <time>2026-05-07T07:25:18.999Z</time>
      </trkpt>
      <trkpt lat="43.5842" lon="2.96011">
        <ele>341.2</ele>
        <time>2026-05-07T07:25:19.999Z</time>
      </trkpt>
      <trkpt lat="43.5842" lon="2.9601">
        <ele>341.7</ele>
        <time>2026-05-07T07:25:20.999Z</time>
      </trkpt>
      <trkpt lat="43.5842" lon="2.96008">
        <ele>341.8</ele>
        <time>2026-05-07T07:25:21.999Z</time>
      </trkpt>
      <trkpt lat="43.5842" lon="2.96006">
        <ele>341.6</ele>
        <time>2026-05-07T07:25:22.999Z</time>
      </trkpt>
      <trkpt lat="43.5842" lon="2.96004">
        <ele>342.2</ele>
        <time>2026-05-07T07:25:23.999Z</time>
      </trkpt>
      <trkpt lat="43.5842" lon="2.96002">
        <ele>342.7</ele>
        <time>2026-05-07T07:25:24.999Z</time>
      </trkpt>
      <trkpt lat="43.5842" lon="2.96">
        <ele>343</ele>
        <time>2026-05-07T07:25:25.999Z</time>
      </trkpt>
      <trkpt lat="43.58421" lon="2.95999">
        <ele>343.4</ele>
        <time>2026-05-07T07:25:26.999Z</time>
      </trkpt>
      <trkpt lat="43.58422" lon="2.95998">
        <ele>343.4</ele>
        <time>2026-05-07T07:25:27.999Z</time>
      </trkpt>
      <trkpt lat="43.58423" lon="2.95997">
        <ele>343.8</ele>
        <time>2026-05-07T07:25:28.999Z</time>
      </trkpt>
      <trkpt lat="43.58424" lon="2.95995">
        <ele>344.2</ele>
        <time>2026-05-07T07:25:29.999Z</time>
      </trkpt>
      <trkpt lat="43.58425" lon="2.95995">
        <ele>344</ele>
        <time>2026-05-07T07:25:30.999Z</time>
      </trkpt>
      <trkpt lat="43.58426" lon="2.95994">
        <ele>344.5</ele>
        <time>2026-05-07T07:25:31.999Z</time>
      </trkpt>
      <trkpt lat="43.58426" lon="2.95993">
        <ele>344.2</ele>
        <time>2026-05-07T07:25:32.999Z</time>
      </trkpt>
      <trkpt lat="43.58428" lon="2.95992">
        <ele>344.2</ele>
        <time>2026-05-07T07:25:33.999Z</time>
      </trkpt>
      <trkpt lat="43.58428" lon="2.95991">
        <ele>344</ele>
        <time>2026-05-07T07:25:34.999Z</time>
      </trkpt>
      <trkpt lat="43.58428" lon="2.9599">
        <ele>344.1</ele>
        <time>2026-05-07T07:25:35.999Z</time>
      </trkpt>
      <trkpt lat="43.58429" lon="2.95989">
        <ele>344.1</ele>
        <time>2026-05-07T07:25:36.999Z</time>
      </trkpt>
      <trkpt lat="43.5843" lon="2.95988">
        <ele>344.1</ele>
        <time>2026-05-07T07:25:37.999Z</time>
      </trkpt>
      <trkpt lat="43.58431" lon="2.95987">
        <ele>344.5</ele>
        <time>2026-05-07T07:25:38.999Z</time>
      </trkpt>
      <trkpt lat="43.58432" lon="2.95986">
        <ele>344.5</ele>
        <time>2026-05-07T07:25:39.999Z</time>
      </trkpt>
      <trkpt lat="43.58432" lon="2.95986">
        <ele>344.7</ele>
        <time>2026-05-07T07:25:40.999Z</time>
      </trkpt>
      <trkpt lat="43.58433" lon="2.95984">
        <ele>344.5</ele>
        <time>2026-05-07T07:25:41.999Z</time>
      </trkpt>
      <trkpt lat="43.58435" lon="2.95984">
        <ele>344.6</ele>
        <time>2026-05-07T07:25:42.999Z</time>
      </trkpt>
      <trkpt lat="43.58435" lon="2.95982">
        <ele>344.5</ele>
        <time>2026-05-07T07:25:43.999Z</time>
      </trkpt>
      <trkpt lat="43.58436" lon="2.95981">
        <ele>344.3</ele>
        <time>2026-05-07T07:25:44.999Z</time>
      </trkpt>
      <trkpt lat="43.58437" lon="2.9598">
        <ele>344.4</ele>
        <time>2026-05-07T07:25:45.999Z</time>
      </trkpt>
      <trkpt lat="43.58438" lon="2.95979">
        <ele>344.6</ele>
        <time>2026-05-07T07:25:46.999Z</time>
      </trkpt>
      <trkpt lat="43.58439" lon="2.95978">
        <ele>344.5</ele>
        <time>2026-05-07T07:25:47.999Z</time>
      </trkpt>
      <trkpt lat="43.5844" lon="2.95977">
        <ele>344.7</ele>
        <time>2026-05-07T07:25:48.999Z</time>
      </trkpt>
      <trkpt lat="43.5844" lon="2.95976">
        <ele>345.2</ele>
        <time>2026-05-07T07:25:49.999Z</time>
      </trkpt>
      <trkpt lat="43.58442" lon="2.95975">
        <ele>345.3</ele>
        <time>2026-05-07T07:25:50.999Z</time>
      </trkpt>
      <trkpt lat="43.58443" lon="2.95975">
        <ele>345.3</ele>
        <time>2026-05-07T07:25:51.999Z</time>
      </trkpt>
      <trkpt lat="43.58446" lon="2.95976">
        <ele>346.2</ele>
        <time>2026-05-07T07:25:52.999Z</time>
      </trkpt>
      <trkpt lat="43.58447" lon="2.95977">
        <ele>346.3</ele>
        <time>2026-05-07T07:25:53.999Z</time>
      </trkpt>
      <trkpt lat="43.58448" lon="2.95978">
        <ele>346.7</ele>
        <time>2026-05-07T07:25:54.999Z</time>
      </trkpt>
      <trkpt lat="43.58449" lon="2.95978">
        <ele>347</ele>
        <time>2026-05-07T07:25:55.999Z</time>
      </trkpt>
      <trkpt lat="43.5845" lon="2.95978">
        <ele>347.3</ele>
        <time>2026-05-07T07:25:56.999Z</time>
      </trkpt>
      <trkpt lat="43.58451" lon="2.95979">
        <ele>347.5</ele>
        <time>2026-05-07T07:25:57.999Z</time>
      </trkpt>
      <trkpt lat="43.58452" lon="2.95979">
        <ele>347.7</ele>
        <time>2026-05-07T07:25:58.999Z</time>
      </trkpt>
      <trkpt lat="43.58453" lon="2.95979">
        <ele>347.5</ele>
        <time>2026-05-07T07:25:59.999Z</time>
      </trkpt>
      <trkpt lat="43.58455" lon="2.9598">
        <ele>347.5</ele>
        <time>2026-05-07T07:26:00.999Z</time>
      </trkpt>
      <trkpt lat="43.58455" lon="2.95979">
        <ele>347.5</ele>
        <time>2026-05-07T07:26:01.999Z</time>
      </trkpt>
      <trkpt lat="43.58456" lon="2.95978">
        <ele>347.5</ele>
        <time>2026-05-07T07:26:02.999Z</time>
      </trkpt>
      <trkpt lat="43.58457" lon="2.95978">
        <ele>347.3</ele>
        <time>2026-05-07T07:26:03.999Z</time>
      </trkpt>
      <trkpt lat="43.58457" lon="2.95978">
        <ele>348</ele>
        <time>2026-05-07T07:26:04.999Z</time>
      </trkpt>
      <trkpt lat="43.58458" lon="2.95977">
        <ele>348</ele>
        <time>2026-05-07T07:26:05.999Z</time>
      </trkpt>
      <trkpt lat="43.58459" lon="2.95976">
        <ele>348.1</ele>
        <time>2026-05-07T07:26:06.999Z</time>
      </trkpt>
      <trkpt lat="43.5846" lon="2.95976">
        <ele>348.1</ele>
        <time>2026-05-07T07:26:07.999Z</time>
      </trkpt>
      <trkpt lat="43.58462" lon="2.95975">
        <ele>348.8</ele>
        <time>2026-05-07T07:26:08.999Z</time>
      </trkpt>
      <trkpt lat="43.58464" lon="2.95974">
        <ele>349.4</ele>
        <time>2026-05-07T07:26:09.999Z</time>
      </trkpt>
      <trkpt lat="43.58465" lon="2.95974">
        <ele>349.8</ele>
        <time>2026-05-07T07:26:10.999Z</time>
      </trkpt>
      <trkpt lat="43.58466" lon="2.95974">
        <ele>350.2</ele>
        <time>2026-05-07T07:26:11.999Z</time>
      </trkpt>
      <trkpt lat="43.58467" lon="2.95974">
        <ele>349.9</ele>
        <time>2026-05-07T07:26:12.999Z</time>
      </trkpt>
      <trkpt lat="43.58468" lon="2.95973">
        <ele>349.4</ele>
        <time>2026-05-07T07:26:13.999Z</time>
      </trkpt>
      <trkpt lat="43.5847" lon="2.95972">
        <ele>349.6</ele>
        <time>2026-05-07T07:26:14.999Z</time>
      </trkpt>
      <trkpt lat="43.58471" lon="2.95971">
        <ele>350.6</ele>
        <time>2026-05-07T07:26:15.999Z</time>
      </trkpt>
      <trkpt lat="43.58472" lon="2.95971">
        <ele>351.6</ele>
        <time>2026-05-07T07:26:16.999Z</time>
      </trkpt>
      <trkpt lat="43.58473" lon="2.9597">
        <ele>351.5</ele>
        <time>2026-05-07T07:26:17.999Z</time>
      </trkpt>
      <trkpt lat="43.58474" lon="2.9597">
        <ele>352.2</ele>
        <time>2026-05-07T07:26:18.999Z</time>
      </trkpt>
      <trkpt lat="43.58476" lon="2.95969">
        <ele>352.6</ele>
        <time>2026-05-07T07:26:19.999Z</time>
      </trkpt>
      <trkpt lat="43.58477" lon="2.9597">
        <ele>352.7</ele>
        <time>2026-05-07T07:26:20.999Z</time>
      </trkpt>
      <trkpt lat="43.58478" lon="2.95969">
        <ele>352.8</ele>
        <time>2026-05-07T07:26:21.999Z</time>
      </trkpt>
      <trkpt lat="43.58479" lon="2.95967">
        <ele>352.7</ele>
        <time>2026-05-07T07:26:22.999Z</time>
      </trkpt>
      <trkpt lat="43.5848" lon="2.95967">
        <ele>351.9</ele>
        <time>2026-05-07T07:26:23.999Z</time>
      </trkpt>
      <trkpt lat="43.58481" lon="2.95966">
        <ele>351.7</ele>
        <time>2026-05-07T07:26:24.999Z</time>
      </trkpt>
      <trkpt lat="43.58482" lon="2.95966">
        <ele>352.1</ele>
        <time>2026-05-07T07:26:25.999Z</time>
      </trkpt>
      <trkpt lat="43.58483" lon="2.95964">
        <ele>352.2</ele>
        <time>2026-05-07T07:26:26.999Z</time>
      </trkpt>
      <trkpt lat="43.58483" lon="2.95964">
        <ele>352</ele>
        <time>2026-05-07T07:26:27.999Z</time>
      </trkpt>
      <trkpt lat="43.58485" lon="2.95964">
        <ele>352.2</ele>
        <time>2026-05-07T07:26:28.999Z</time>
      </trkpt>
      <trkpt lat="43.58486" lon="2.95964">
        <ele>351.9</ele>
        <time>2026-05-07T07:26:29.999Z</time>
      </trkpt>
      <trkpt lat="43.58487" lon="2.95963">
        <ele>351.9</ele>
        <time>2026-05-07T07:26:30.999Z</time>
      </trkpt>
      <trkpt lat="43.58488" lon="2.95962">
        <ele>352</ele>
        <time>2026-05-07T07:26:31.999Z</time>
      </trkpt>
      <trkpt lat="43.58489" lon="2.95962">
        <ele>351.5</ele>
        <time>2026-05-07T07:26:32.999Z</time>
      </trkpt>
      <trkpt lat="43.5849" lon="2.95963">
        <ele>350.5</ele>
        <time>2026-05-07T07:26:33.999Z</time>
      </trkpt>
      <trkpt lat="43.58491" lon="2.95962">
        <ele>350.5</ele>
        <time>2026-05-07T07:26:34.999Z</time>
      </trkpt>
      <trkpt lat="43.58492" lon="2.95961">
        <ele>350.9</ele>
        <time>2026-05-07T07:26:35.999Z</time>
      </trkpt>
      <trkpt lat="43.58493" lon="2.95961">
        <ele>351.5</ele>
        <time>2026-05-07T07:26:36.999Z</time>
      </trkpt>
      <trkpt lat="43.58494" lon="2.9596">
        <ele>351.3</ele>
        <time>2026-05-07T07:26:37.999Z</time>
      </trkpt>
      <trkpt lat="43.58495" lon="2.95961">
        <ele>351.4</ele>
        <time>2026-05-07T07:26:38.999Z</time>
      </trkpt>
      <trkpt lat="43.58496" lon="2.9596">
        <ele>351.7</ele>
        <time>2026-05-07T07:26:39.999Z</time>
      </trkpt>
      <trkpt lat="43.58497" lon="2.9596">
        <ele>352</ele>
        <time>2026-05-07T07:26:40.999Z</time>
      </trkpt>
      <trkpt lat="43.58498" lon="2.9596">
        <ele>352.1</ele>
        <time>2026-05-07T07:26:41.999Z</time>
      </trkpt>
      <trkpt lat="43.585" lon="2.9596">
        <ele>352.8</ele>
        <time>2026-05-07T07:26:42.999Z</time>
      </trkpt>
      <trkpt lat="43.58501" lon="2.95959">
        <ele>352.5</ele>
        <time>2026-05-07T07:26:43.999Z</time>
      </trkpt>
      <trkpt lat="43.58502" lon="2.9596">
        <ele>352.6</ele>
        <time>2026-05-07T07:26:44.999Z</time>
      </trkpt>
      <trkpt lat="43.58504" lon="2.95961">
        <ele>353.3</ele>
        <time>2026-05-07T07:26:45.999Z</time>
      </trkpt>
      <trkpt lat="43.58505" lon="2.95961">
        <ele>354</ele>
        <time>2026-05-07T07:26:46.999Z</time>
      </trkpt>
      <trkpt lat="43.58506" lon="2.95961">
        <ele>354.2</ele>
        <time>2026-05-07T07:26:47.999Z</time>
      </trkpt>
      <trkpt lat="43.58507" lon="2.95961">
        <ele>354.1</ele>
        <time>2026-05-07T07:26:48.999Z</time>
      </trkpt>
      <trkpt lat="43.58509" lon="2.95961">
        <ele>354.7</ele>
        <time>2026-05-07T07:26:49.999Z</time>
      </trkpt>
      <trkpt lat="43.5851" lon="2.95962">
        <ele>354.5</ele>
        <time>2026-05-07T07:26:50.999Z</time>
      </trkpt>
      <trkpt lat="43.5851" lon="2.95961">
        <ele>354.8</ele>
        <time>2026-05-07T07:26:51.999Z</time>
      </trkpt>
      <trkpt lat="43.58512" lon="2.95961">
        <ele>354.3</ele>
        <time>2026-05-07T07:26:52.999Z</time>
      </trkpt>
      <trkpt lat="43.58512" lon="2.95961">
        <ele>354.5</ele>
        <time>2026-05-07T07:26:53.999Z</time>
      </trkpt>
      <trkpt lat="43.58513" lon="2.9596">
        <ele>354.4</ele>
        <time>2026-05-07T07:26:54.999Z</time>
      </trkpt>
      <trkpt lat="43.58514" lon="2.9596">
        <ele>354.2</ele>
        <time>2026-05-07T07:26:55.999Z</time>
      </trkpt>
      <trkpt lat="43.58515" lon="2.95959">
        <ele>353.8</ele>
        <time>2026-05-07T07:26:56.999Z</time>
      </trkpt>
      <trkpt lat="43.58516" lon="2.95959">
        <ele>353.5</ele>
        <time>2026-05-07T07:26:57.999Z</time>
      </trkpt>
      <trkpt lat="43.58518" lon="2.95959">
        <ele>353.3</ele>
        <time>2026-05-07T07:26:58.999Z</time>
      </trkpt>
      <trkpt lat="43.58519" lon="2.95959">
        <ele>353.1</ele>
        <time>2026-05-07T07:26:59.999Z</time>
      </trkpt>
      <trkpt lat="43.5852" lon="2.95958">
        <ele>353.6</ele>
        <time>2026-05-07T07:27:00.999Z</time>
      </trkpt>
      <trkpt lat="43.58521" lon="2.95957">
        <ele>353.9</ele>
        <time>2026-05-07T07:27:01.999Z</time>
      </trkpt>
      <trkpt lat="43.58522" lon="2.95956">
        <ele>354.3</ele>
        <time>2026-05-07T07:27:02.999Z</time>
      </trkpt>
      <trkpt lat="43.58523" lon="2.95955">
        <ele>354.3</ele>
        <time>2026-05-07T07:27:03.999Z</time>
      </trkpt>
      <trkpt lat="43.58524" lon="2.95955">
        <ele>354.4</ele>
        <time>2026-05-07T07:27:04.999Z</time>
      </trkpt>
      <trkpt lat="43.58525" lon="2.95954">
        <ele>355</ele>
        <time>2026-05-07T07:27:05.999Z</time>
      </trkpt>
      <trkpt lat="43.58525" lon="2.95954">
        <ele>355.4</ele>
        <time>2026-05-07T07:27:06.999Z</time>
      </trkpt>
      <trkpt lat="43.58526" lon="2.95953">
        <ele>355.6</ele>
        <time>2026-05-07T07:27:07.999Z</time>
      </trkpt>
      <trkpt lat="43.58527" lon="2.95952">
        <ele>355.9</ele>
        <time>2026-05-07T07:27:08.999Z</time>
      </trkpt>
      <trkpt lat="43.58528" lon="2.95952">
        <ele>355.8</ele>
        <time>2026-05-07T07:27:09.999Z</time>
      </trkpt>
      <trkpt lat="43.58529" lon="2.95951">
        <ele>355.8</ele>
        <time>2026-05-07T07:27:10.999Z</time>
      </trkpt>
      <trkpt lat="43.5853" lon="2.95951">
        <ele>355.8</ele>
        <time>2026-05-07T07:27:11.999Z</time>
      </trkpt>
      <trkpt lat="43.58531" lon="2.9595">
        <ele>355.6</ele>
        <time>2026-05-07T07:27:12.999Z</time>
      </trkpt>
      <trkpt lat="43.58533" lon="2.9595">
        <ele>355.4</ele>
        <time>2026-05-07T07:27:13.999Z</time>
      </trkpt>
      <trkpt lat="43.58533" lon="2.9595">
        <ele>355.4</ele>
        <time>2026-05-07T07:27:14.999Z</time>
      </trkpt>
      <trkpt lat="43.58534" lon="2.95951">
        <ele>355.3</ele>
        <time>2026-05-07T07:27:15.999Z</time>
      </trkpt>
      <trkpt lat="43.58535" lon="2.9595">
        <ele>355.4</ele>
        <time>2026-05-07T07:27:16.999Z</time>
      </trkpt>
      <trkpt lat="43.58537" lon="2.95951">
        <ele>355.3</ele>
        <time>2026-05-07T07:27:17.999Z</time>
      </trkpt>
      <trkpt lat="43.58538" lon="2.95951">
        <ele>355.2</ele>
        <time>2026-05-07T07:27:18.999Z</time>
      </trkpt>
      <trkpt lat="43.58539" lon="2.95951">
        <ele>355.4</ele>
        <time>2026-05-07T07:27:19.999Z</time>
      </trkpt>
      <trkpt lat="43.5854" lon="2.95951">
        <ele>355.4</ele>
        <time>2026-05-07T07:27:20.999Z</time>
      </trkpt>
      <trkpt lat="43.58541" lon="2.95952">
        <ele>354.8</ele>
        <time>2026-05-07T07:27:21.999Z</time>
      </trkpt>
      <trkpt lat="43.58543" lon="2.95951">
        <ele>354.5</ele>
        <time>2026-05-07T07:27:22.999Z</time>
      </trkpt>
      <trkpt lat="43.58544" lon="2.95951">
        <ele>354.5</ele>
        <time>2026-05-07T07:27:23.999Z</time>
      </trkpt>
      <trkpt lat="43.58545" lon="2.9595">
        <ele>355</ele>
        <time>2026-05-07T07:27:24.999Z</time>
      </trkpt>
      <trkpt lat="43.58547" lon="2.95949">
        <ele>355.4</ele>
        <time>2026-05-07T07:27:25.999Z</time>
      </trkpt>
      <trkpt lat="43.58548" lon="2.95948">
        <ele>355.5</ele>
        <time>2026-05-07T07:27:26.999Z</time>
      </trkpt>
      <trkpt lat="43.58548" lon="2.95947">
        <ele>355.2</ele>
        <time>2026-05-07T07:27:27.999Z</time>
      </trkpt>
      <trkpt lat="43.5855" lon="2.95947">
        <ele>355</ele>
        <time>2026-05-07T07:27:28.999Z</time>
      </trkpt>
      <trkpt lat="43.58551" lon="2.95946">
        <ele>354.4</ele>
        <time>2026-05-07T07:27:29.999Z</time>
      </trkpt>
      <trkpt lat="43.58552" lon="2.95946">
        <ele>354.4</ele>
        <time>2026-05-07T07:27:30.999Z</time>
      </trkpt>
      <trkpt lat="43.58554" lon="2.95946">
        <ele>354.2</ele>
        <time>2026-05-07T07:27:31.999Z</time>
      </trkpt>
      <trkpt lat="43.58554" lon="2.95946">
        <ele>354</ele>
        <time>2026-05-07T07:27:32.999Z</time>
      </trkpt>
      <trkpt lat="43.58555" lon="2.95945">
        <ele>354.4</ele>
        <time>2026-05-07T07:27:33.999Z</time>
      </trkpt>
      <trkpt lat="43.58556" lon="2.95944">
        <ele>354.4</ele>
        <time>2026-05-07T07:27:34.999Z</time>
      </trkpt>
      <trkpt lat="43.58557" lon="2.95943">
        <ele>355</ele>
        <time>2026-05-07T07:27:35.999Z</time>
      </trkpt>
      <trkpt lat="43.58557" lon="2.95942">
        <ele>355.3</ele>
        <time>2026-05-07T07:27:36.999Z</time>
      </trkpt>
      <trkpt lat="43.58558" lon="2.95941">
        <ele>355.1</ele>
        <time>2026-05-07T07:27:37.999Z</time>
      </trkpt>
      <trkpt lat="43.5856" lon="2.9594">
        <ele>355.9</ele>
        <time>2026-05-07T07:27:38.999Z</time>
      </trkpt>
      <trkpt lat="43.58561" lon="2.95939">
        <ele>356.3</ele>
        <time>2026-05-07T07:27:39.999Z</time>
      </trkpt>
      <trkpt lat="43.58563" lon="2.95938">
        <ele>356.8</ele>
        <time>2026-05-07T07:27:40.999Z</time>
      </trkpt>
      <trkpt lat="43.58564" lon="2.95937">
        <ele>357.9</ele>
        <time>2026-05-07T07:27:41.999Z</time>
      </trkpt>
      <trkpt lat="43.58565" lon="2.95935">
        <ele>358.8</ele>
        <time>2026-05-07T07:27:42.999Z</time>
      </trkpt>
      <trkpt lat="43.58565" lon="2.95934">
        <ele>359.1</ele>
        <time>2026-05-07T07:27:43.999Z</time>
      </trkpt>
      <trkpt lat="43.58565" lon="2.95932">
        <ele>359.4</ele>
        <time>2026-05-07T07:27:44.999Z</time>
      </trkpt>
      <trkpt lat="43.58566" lon="2.95931">
        <ele>358.9</ele>
        <time>2026-05-07T07:27:45.999Z</time>
      </trkpt>
      <trkpt lat="43.58567" lon="2.95929">
        <ele>359</ele>
        <time>2026-05-07T07:27:46.999Z</time>
      </trkpt>
      <trkpt lat="43.58567" lon="2.95928">
        <ele>358.4</ele>
        <time>2026-05-07T07:27:47.999Z</time>
      </trkpt>
      <trkpt lat="43.58567" lon="2.95927">
        <ele>358.7</ele>
        <time>2026-05-07T07:27:48.999Z</time>
      </trkpt>
      <trkpt lat="43.58568" lon="2.95926">
        <ele>358.5</ele>
        <time>2026-05-07T07:27:49.999Z</time>
      </trkpt>
      <trkpt lat="43.58568" lon="2.95926">
        <ele>358.6</ele>
        <time>2026-05-07T07:27:50.999Z</time>
      </trkpt>
      <trkpt lat="43.58569" lon="2.95924">
        <ele>357.8</ele>
        <time>2026-05-07T07:27:51.999Z</time>
      </trkpt>
      <trkpt lat="43.58569" lon="2.95922">
        <ele>357.9</ele>
        <time>2026-05-07T07:27:52.999Z</time>
      </trkpt>
      <trkpt lat="43.5857" lon="2.9592">
        <ele>357.7</ele>
        <time>2026-05-07T07:27:53.999Z</time>
      </trkpt>
      <trkpt lat="43.5857" lon="2.95918">
        <ele>358.4</ele>
        <time>2026-05-07T07:27:54.999Z</time>
      </trkpt>
      <trkpt lat="43.58571" lon="2.95916">
        <ele>359</ele>
        <time>2026-05-07T07:27:55.999Z</time>
      </trkpt>
      <trkpt lat="43.58571" lon="2.95914">
        <ele>359</ele>
        <time>2026-05-07T07:27:56.999Z</time>
      </trkpt>
      <trkpt lat="43.5857" lon="2.95913">
        <ele>359.1</ele>
        <time>2026-05-07T07:27:57.999Z</time>
      </trkpt>
      <trkpt lat="43.58571" lon="2.95912">
        <ele>360</ele>
        <time>2026-05-07T07:27:58.999Z</time>
      </trkpt>
      <trkpt lat="43.58571" lon="2.9591">
        <ele>360.4</ele>
        <time>2026-05-07T07:27:59.999Z</time>
      </trkpt>
      <trkpt lat="43.58572" lon="2.95909">
        <ele>360.8</ele>
        <time>2026-05-07T07:28:00.999Z</time>
      </trkpt>
      <trkpt lat="43.58572" lon="2.95907">
        <ele>360.8</ele>
        <time>2026-05-07T07:28:01.999Z</time>
      </trkpt>
      <trkpt lat="43.58571" lon="2.95906">
        <ele>361.5</ele>
        <time>2026-05-07T07:28:02.999Z</time>
      </trkpt>
      <trkpt lat="43.58571" lon="2.95904">
        <ele>361.6</ele>
        <time>2026-05-07T07:28:03.999Z</time>
      </trkpt>
      <trkpt lat="43.58572" lon="2.95902">
        <ele>361.4</ele>
        <time>2026-05-07T07:28:04.999Z</time>
      </trkpt>
      <trkpt lat="43.58572" lon="2.95901">
        <ele>361.1</ele>
        <time>2026-05-07T07:28:05.999Z</time>
      </trkpt>
      <trkpt lat="43.58572" lon="2.959">
        <ele>360.9</ele>
        <time>2026-05-07T07:28:06.999Z</time>
      </trkpt>
      <trkpt lat="43.58572" lon="2.95899">
        <ele>361</ele>
        <time>2026-05-07T07:28:07.999Z</time>
      </trkpt>
      <trkpt lat="43.58572" lon="2.95898">
        <ele>361.3</ele>
        <time>2026-05-07T07:28:08.999Z</time>
      </trkpt>
      <trkpt lat="43.58573" lon="2.95897">
        <ele>362</ele>
        <time>2026-05-07T07:28:09.999Z</time>
      </trkpt>
      <trkpt lat="43.58574" lon="2.95895">
        <ele>361.7</ele>
        <time>2026-05-07T07:28:10.999Z</time>
      </trkpt>
      <trkpt lat="43.58574" lon="2.95893">
        <ele>361.3</ele>
        <time>2026-05-07T07:28:11.999Z</time>
      </trkpt>
      <trkpt lat="43.58575" lon="2.95891">
        <ele>360.9</ele>
        <time>2026-05-07T07:28:12.999Z</time>
      </trkpt>
      <trkpt lat="43.58575" lon="2.95889">
        <ele>360.9</ele>
        <time>2026-05-07T07:28:13.999Z</time>
      </trkpt>
      <trkpt lat="43.58576" lon="2.95887">
        <ele>361.5</ele>
        <time>2026-05-07T07:28:14.999Z</time>
      </trkpt>
      <trkpt lat="43.58576" lon="2.95886">
        <ele>361.7</ele>
        <time>2026-05-07T07:28:15.999Z</time>
      </trkpt>
      <trkpt lat="43.58576" lon="2.95884">
        <ele>361.7</ele>
        <time>2026-05-07T07:28:16.999Z</time>
      </trkpt>
      <trkpt lat="43.58576" lon="2.95883">
        <ele>362</ele>
        <time>2026-05-07T07:28:17.999Z</time>
      </trkpt>
      <trkpt lat="43.58577" lon="2.95882">
        <ele>361.5</ele>
        <time>2026-05-07T07:28:18.999Z</time>
      </trkpt>
      <trkpt lat="43.58577" lon="2.95881">
        <ele>361.4</ele>
        <time>2026-05-07T07:28:19.999Z</time>
      </trkpt>
      <trkpt lat="43.58578" lon="2.95879">
        <ele>361.6</ele>
        <time>2026-05-07T07:28:20.999Z</time>
      </trkpt>
      <trkpt lat="43.58578" lon="2.95878">
        <ele>361.8</ele>
        <time>2026-05-07T07:28:21.999Z</time>
      </trkpt>
      <trkpt lat="43.58577" lon="2.95877">
        <ele>361.8</ele>
        <time>2026-05-07T07:28:22.999Z</time>
      </trkpt>
      <trkpt lat="43.58577" lon="2.95876">
        <ele>362.2</ele>
        <time>2026-05-07T07:28:23.999Z</time>
      </trkpt>
      <trkpt lat="43.58577" lon="2.95874">
        <ele>362.3</ele>
        <time>2026-05-07T07:28:24.999Z</time>
      </trkpt>
      <trkpt lat="43.58577" lon="2.95873">
        <ele>362.6</ele>
        <time>2026-05-07T07:28:25.999Z</time>
      </trkpt>
      <trkpt lat="43.58577" lon="2.95872">
        <ele>362.9</ele>
        <time>2026-05-07T07:28:26.999Z</time>
      </trkpt>
      <trkpt lat="43.58578" lon="2.9587">
        <ele>362.7</ele>
        <time>2026-05-07T07:28:27.999Z</time>
      </trkpt>
      <trkpt lat="43.58579" lon="2.95869">
        <ele>362.9</ele>
        <time>2026-05-07T07:28:28.999Z</time>
      </trkpt>
      <trkpt lat="43.5858" lon="2.95868">
        <ele>363</ele>
        <time>2026-05-07T07:28:29.999Z</time>
      </trkpt>
      <trkpt lat="43.58581" lon="2.95866">
        <ele>362.9</ele>
        <time>2026-05-07T07:28:30.999Z</time>
      </trkpt>
      <trkpt lat="43.58582" lon="2.95866">
        <ele>362.7</ele>
        <time>2026-05-07T07:28:31.999Z</time>
      </trkpt>
      <trkpt lat="43.58583" lon="2.95865">
        <ele>363.1</ele>
        <time>2026-05-07T07:28:32.999Z</time>
      </trkpt>
      <trkpt lat="43.58583" lon="2.95864">
        <ele>363.3</ele>
        <time>2026-05-07T07:28:33.999Z</time>
      </trkpt>
      <trkpt lat="43.58584" lon="2.95864">
        <ele>363.6</ele>
        <time>2026-05-07T07:28:34.999Z</time>
      </trkpt>
      <trkpt lat="43.58585" lon="2.95862">
        <ele>364.3</ele>
        <time>2026-05-07T07:28:35.999Z</time>
      </trkpt>
      <trkpt lat="43.58585" lon="2.95861">
        <ele>364.6</ele>
        <time>2026-05-07T07:28:36.999Z</time>
      </trkpt>
      <trkpt lat="43.58586" lon="2.9586">
        <ele>365.1</ele>
        <time>2026-05-07T07:28:37.999Z</time>
      </trkpt>
      <trkpt lat="43.58587" lon="2.9586">
        <ele>365.1</ele>
        <time>2026-05-07T07:28:38.999Z</time>
      </trkpt>
      <trkpt lat="43.58588" lon="2.95859">
        <ele>365.4</ele>
        <time>2026-05-07T07:28:39.999Z</time>
      </trkpt>
      <trkpt lat="43.58588" lon="2.95858">
        <ele>366.2</ele>
        <time>2026-05-07T07:28:40.999Z</time>
      </trkpt>
      <trkpt lat="43.5859" lon="2.95858">
        <ele>366.4</ele>
        <time>2026-05-07T07:28:41.999Z</time>
      </trkpt>
      <trkpt lat="43.58591" lon="2.95857">
        <ele>366.3</ele>
        <time>2026-05-07T07:28:42.999Z</time>
      </trkpt>
      <trkpt lat="43.58592" lon="2.95856">
        <ele>366.4</ele>
        <time>2026-05-07T07:28:43.999Z</time>
      </trkpt>
      <trkpt lat="43.58593" lon="2.95855">
        <ele>366.3</ele>
        <time>2026-05-07T07:28:44.999Z</time>
      </trkpt>
      <trkpt lat="43.58594" lon="2.95855">
        <ele>366.4</ele>
        <time>2026-05-07T07:28:45.999Z</time>
      </trkpt>
      <trkpt lat="43.58595" lon="2.95855">
        <ele>366.4</ele>
        <time>2026-05-07T07:28:46.999Z</time>
      </trkpt>
      <trkpt lat="43.58596" lon="2.95855">
        <ele>366.9</ele>
        <time>2026-05-07T07:28:47.999Z</time>
      </trkpt>
      <trkpt lat="43.58597" lon="2.95854">
        <ele>366.4</ele>
        <time>2026-05-07T07:28:48.999Z</time>
      </trkpt>
      <trkpt lat="43.58598" lon="2.95853">
        <ele>366.3</ele>
        <time>2026-05-07T07:28:49.999Z</time>
      </trkpt>
      <trkpt lat="43.58599" lon="2.95853">
        <ele>366.2</ele>
        <time>2026-05-07T07:28:50.999Z</time>
      </trkpt>
      <trkpt lat="43.58599" lon="2.95852">
        <ele>366.3</ele>
        <time>2026-05-07T07:28:51.999Z</time>
      </trkpt>
      <trkpt lat="43.586" lon="2.95851">
        <ele>366.4</ele>
        <time>2026-05-07T07:28:52.999Z</time>
      </trkpt>
      <trkpt lat="43.58601" lon="2.9585">
        <ele>366.8</ele>
        <time>2026-05-07T07:28:53.999Z</time>
      </trkpt>
      <trkpt lat="43.58602" lon="2.9585">
        <ele>367</ele>
        <time>2026-05-07T07:28:54.999Z</time>
      </trkpt>
      <trkpt lat="43.58603" lon="2.95849">
        <ele>366.8</ele>
        <time>2026-05-07T07:28:55.999Z</time>
      </trkpt>
      <trkpt lat="43.58603" lon="2.95849">
        <ele>366.9</ele>
        <time>2026-05-07T07:28:56.999Z</time>
      </trkpt>
      <trkpt lat="43.58604" lon="2.95848">
        <ele>366.8</ele>
        <time>2026-05-07T07:28:57.999Z</time>
      </trkpt>
      <trkpt lat="43.58605" lon="2.95847">
        <ele>366.9</ele>
        <time>2026-05-07T07:28:58.999Z</time>
      </trkpt>
      <trkpt lat="43.58607" lon="2.95847">
        <ele>367.4</ele>
        <time>2026-05-07T07:28:59.999Z</time>
      </trkpt>
      <trkpt lat="43.58607" lon="2.95846">
        <ele>367.9</ele>
        <time>2026-05-07T07:29:00.999Z</time>
      </trkpt>
      <trkpt lat="43.58608" lon="2.95846">
        <ele>368.1</ele>
        <time>2026-05-07T07:29:01.999Z</time>
      </trkpt>
      <trkpt lat="43.58609" lon="2.95846">
        <ele>368.1</ele>
        <time>2026-05-07T07:29:02.999Z</time>
      </trkpt>
      <trkpt lat="43.58609" lon="2.95845">
        <ele>368</ele>
        <time>2026-05-07T07:29:03.999Z</time>
      </trkpt>
      <trkpt lat="43.5861" lon="2.95845">
        <ele>368</ele>
        <time>2026-05-07T07:29:04.999Z</time>
      </trkpt>
      <trkpt lat="43.58611" lon="2.95845">
        <ele>368.4</ele>
        <time>2026-05-07T07:29:05.999Z</time>
      </trkpt>
      <trkpt lat="43.58612" lon="2.95845">
        <ele>368.1</ele>
        <time>2026-05-07T07:29:06.999Z</time>
      </trkpt>
      <trkpt lat="43.58614" lon="2.95845">
        <ele>367.9</ele>
        <time>2026-05-07T07:29:07.999Z</time>
      </trkpt>
      <trkpt lat="43.58615" lon="2.95845">
        <ele>367.7</ele>
        <time>2026-05-07T07:29:08.999Z</time>
      </trkpt>
      <trkpt lat="43.58616" lon="2.95844">
        <ele>368</ele>
        <time>2026-05-07T07:29:09.999Z</time>
      </trkpt>
      <trkpt lat="43.58617" lon="2.95844">
        <ele>368</ele>
        <time>2026-05-07T07:29:10.999Z</time>
      </trkpt>
      <trkpt lat="43.58618" lon="2.95843">
        <ele>368.1</ele>
        <time>2026-05-07T07:29:11.999Z</time>
      </trkpt>
      <trkpt lat="43.58619" lon="2.95842">
        <ele>368.5</ele>
        <time>2026-05-07T07:29:12.999Z</time>
      </trkpt>
      <trkpt lat="43.5862" lon="2.95842">
        <ele>368.4</ele>
        <time>2026-05-07T07:29:13.999Z</time>
      </trkpt>
      <trkpt lat="43.58621" lon="2.95841">
        <ele>368.7</ele>
        <time>2026-05-07T07:29:14.999Z</time>
      </trkpt>
      <trkpt lat="43.58622" lon="2.9584">
        <ele>368.9</ele>
        <time>2026-05-07T07:29:15.999Z</time>
      </trkpt>
      <trkpt lat="43.58623" lon="2.95839">
        <ele>368.5</ele>
        <time>2026-05-07T07:29:16.999Z</time>
      </trkpt>
      <trkpt lat="43.58624" lon="2.95838">
        <ele>369.2</ele>
        <time>2026-05-07T07:29:17.999Z</time>
      </trkpt>
      <trkpt lat="43.58625" lon="2.95837">
        <ele>369.1</ele>
        <time>2026-05-07T07:29:18.999Z</time>
      </trkpt>
      <trkpt lat="43.58625" lon="2.95835">
        <ele>369.5</ele>
        <time>2026-05-07T07:29:19.999Z</time>
      </trkpt>
      <trkpt lat="43.58626" lon="2.95834">
        <ele>369.4</ele>
        <time>2026-05-07T07:29:20.999Z</time>
      </trkpt>
      <trkpt lat="43.58627" lon="2.95833">
        <ele>369.7</ele>
        <time>2026-05-07T07:29:21.999Z</time>
      </trkpt>
      <trkpt lat="43.58628" lon="2.95832">
        <ele>369.9</ele>
        <time>2026-05-07T07:29:22.999Z</time>
      </trkpt>
      <trkpt lat="43.58629" lon="2.95831">
        <ele>369.9</ele>
        <time>2026-05-07T07:29:23.999Z</time>
      </trkpt>
      <trkpt lat="43.58629" lon="2.95829">
        <ele>369.9</ele>
        <time>2026-05-07T07:29:24.999Z</time>
      </trkpt>
      <trkpt lat="43.5863" lon="2.95827">
        <ele>370.3</ele>
        <time>2026-05-07T07:29:25.999Z</time>
      </trkpt>
      <trkpt lat="43.5863" lon="2.95825">
        <ele>370.6</ele>
        <time>2026-05-07T07:29:26.999Z</time>
      </trkpt>
      <trkpt lat="43.58631" lon="2.95824">
        <ele>371</ele>
        <time>2026-05-07T07:29:27.999Z</time>
      </trkpt>
      <trkpt lat="43.58632" lon="2.95824">
        <ele>370.5</ele>
        <time>2026-05-07T07:29:28.999Z</time>
      </trkpt>
      <trkpt lat="43.58633" lon="2.95823">
        <ele>370.8</ele>
        <time>2026-05-07T07:29:29.999Z</time>
      </trkpt>
      <trkpt lat="43.58633" lon="2.95822">
        <ele>372.1</ele>
        <time>2026-05-07T07:29:30.999Z</time>
      </trkpt>
      <trkpt lat="43.58634" lon="2.95822">
        <ele>372.5</ele>
        <time>2026-05-07T07:29:31.999Z</time>
      </trkpt>
      <trkpt lat="43.58635" lon="2.95821">
        <ele>372.7</ele>
        <time>2026-05-07T07:29:32.999Z</time>
      </trkpt>
      <trkpt lat="43.58635" lon="2.9582">
        <ele>373.6</ele>
        <time>2026-05-07T07:29:33.999Z</time>
      </trkpt>
      <trkpt lat="43.58636" lon="2.95819">
        <ele>374</ele>
        <time>2026-05-07T07:29:34.999Z</time>
      </trkpt>
      <trkpt lat="43.58636" lon="2.95818">
        <ele>374.5</ele>
        <time>2026-05-07T07:29:35.999Z</time>
      </trkpt>
      <trkpt lat="43.58637" lon="2.95817">
        <ele>373.9</ele>
        <time>2026-05-07T07:29:36.999Z</time>
      </trkpt>
      <trkpt lat="43.58638" lon="2.95815">
        <ele>373.5</ele>
        <time>2026-05-07T07:29:37.999Z</time>
      </trkpt>
      <trkpt lat="43.58639" lon="2.95814">
        <ele>373.3</ele>
        <time>2026-05-07T07:29:38.999Z</time>
      </trkpt>
      <trkpt lat="43.5864" lon="2.95814">
        <ele>373.7</ele>
        <time>2026-05-07T07:29:39.999Z</time>
      </trkpt>
      <trkpt lat="43.58641" lon="2.95813">
        <ele>374</ele>
        <time>2026-05-07T07:29:40.999Z</time>
      </trkpt>
      <trkpt lat="43.58642" lon="2.95813">
        <ele>373.9</ele>
        <time>2026-05-07T07:29:41.999Z</time>
      </trkpt>
      <trkpt lat="43.58643" lon="2.95812">
        <ele>374.1</ele>
        <time>2026-05-07T07:29:42.999Z</time>
      </trkpt>
      <trkpt lat="43.58645" lon="2.95811">
        <ele>374</ele>
        <time>2026-05-07T07:29:43.999Z</time>
      </trkpt>
      <trkpt lat="43.58646" lon="2.95811">
        <ele>374.2</ele>
        <time>2026-05-07T07:29:44.999Z</time>
      </trkpt>
      <trkpt lat="43.58646" lon="2.9581">
        <ele>374.7</ele>
        <time>2026-05-07T07:29:45.999Z</time>
      </trkpt>
      <trkpt lat="43.58647" lon="2.95809">
        <ele>375.2</ele>
        <time>2026-05-07T07:29:46.999Z</time>
      </trkpt>
      <trkpt lat="43.58647" lon="2.95807">
        <ele>375.3</ele>
        <time>2026-05-07T07:29:47.999Z</time>
      </trkpt>
      <trkpt lat="43.58648" lon="2.95806">
        <ele>375.6</ele>
        <time>2026-05-07T07:29:48.999Z</time>
      </trkpt>
      <trkpt lat="43.58648" lon="2.95803">
        <ele>375.4</ele>
        <time>2026-05-07T07:29:49.999Z</time>
      </trkpt>
      <trkpt lat="43.58649" lon="2.95802">
        <ele>375.6</ele>
        <time>2026-05-07T07:29:50.999Z</time>
      </trkpt>
      <trkpt lat="43.5865" lon="2.95801">
        <ele>376.1</ele>
        <time>2026-05-07T07:29:51.999Z</time>
      </trkpt>
      <trkpt lat="43.5865" lon="2.958">
        <ele>376.7</ele>
        <time>2026-05-07T07:29:52.999Z</time>
      </trkpt>
      <trkpt lat="43.5865" lon="2.95799">
        <ele>376.7</ele>
        <time>2026-05-07T07:29:53.999Z</time>
      </trkpt>
      <trkpt lat="43.58651" lon="2.95797">
        <ele>376.7</ele>
        <time>2026-05-07T07:29:54.999Z</time>
      </trkpt>
      <trkpt lat="43.58651" lon="2.95795">
        <ele>376.8</ele>
        <time>2026-05-07T07:29:55.999Z</time>
      </trkpt>
      <trkpt lat="43.58652" lon="2.95794">
        <ele>376.7</ele>
        <time>2026-05-07T07:29:56.999Z</time>
      </trkpt>
      <trkpt lat="43.58653" lon="2.95794">
        <ele>376.5</ele>
        <time>2026-05-07T07:29:57.999Z</time>
      </trkpt>
      <trkpt lat="43.58654" lon="2.95793">
        <ele>376.1</ele>
        <time>2026-05-07T07:29:58.999Z</time>
      </trkpt>
      <trkpt lat="43.58654" lon="2.95791">
        <ele>375.6</ele>
        <time>2026-05-07T07:29:59.999Z</time>
      </trkpt>
      <trkpt lat="43.58654" lon="2.9579">
        <ele>375.2</ele>
        <time>2026-05-07T07:30:00.999Z</time>
      </trkpt>
      <trkpt lat="43.58655" lon="2.95789">
        <ele>374.8</ele>
        <time>2026-05-07T07:30:01.999Z</time>
      </trkpt>
      <trkpt lat="43.58655" lon="2.95789">
        <ele>374.7</ele>
        <time>2026-05-07T07:30:02.999Z</time>
      </trkpt>
      <trkpt lat="43.58655" lon="2.95788">
        <ele>374.4</ele>
        <time>2026-05-07T07:30:03.999Z</time>
      </trkpt>
      <trkpt lat="43.58656" lon="2.95787">
        <ele>374.7</ele>
        <time>2026-05-07T07:30:04.999Z</time>
      </trkpt>
      <trkpt lat="43.58657" lon="2.95786">
        <ele>374.6</ele>
        <time>2026-05-07T07:30:05.999Z</time>
      </trkpt>
      <trkpt lat="43.58657" lon="2.95784">
        <ele>374.3</ele>
        <time>2026-05-07T07:30:06.999Z</time>
      </trkpt>
      <trkpt lat="43.58658" lon="2.95783">
        <ele>373.8</ele>
        <time>2026-05-07T07:30:07.999Z</time>
      </trkpt>
      <trkpt lat="43.58659" lon="2.95782">
        <ele>374</ele>
        <time>2026-05-07T07:30:08.999Z</time>
      </trkpt>
      <trkpt lat="43.5866" lon="2.95781">
        <ele>374</ele>
        <time>2026-05-07T07:30:09.999Z</time>
      </trkpt>
      <trkpt lat="43.58661" lon="2.95781">
        <ele>374</ele>
        <time>2026-05-07T07:30:10.999Z</time>
      </trkpt>
      <trkpt lat="43.58662" lon="2.9578">
        <ele>374.3</ele>
        <time>2026-05-07T07:30:11.999Z</time>
      </trkpt>
      <trkpt lat="43.58663" lon="2.9578">
        <ele>374.4</ele>
        <time>2026-05-07T07:30:12.999Z</time>
      </trkpt>
      <trkpt lat="43.58664" lon="2.95779">
        <ele>374.3</ele>
        <time>2026-05-07T07:30:13.999Z</time>
      </trkpt>
      <trkpt lat="43.58665" lon="2.95779">
        <ele>374.3</ele>
        <time>2026-05-07T07:30:14.999Z</time>
      </trkpt>
      <trkpt lat="43.58666" lon="2.95779">
        <ele>373.9</ele>
        <time>2026-05-07T07:30:15.999Z</time>
      </trkpt>
      <trkpt lat="43.58668" lon="2.95778">
        <ele>374.3</ele>
        <time>2026-05-07T07:30:16.999Z</time>
      </trkpt>
      <trkpt lat="43.58669" lon="2.95778">
        <ele>374.6</ele>
        <time>2026-05-07T07:30:17.999Z</time>
      </trkpt>
      <trkpt lat="43.5867" lon="2.95777">
        <ele>374.9</ele>
        <time>2026-05-07T07:30:18.999Z</time>
      </trkpt>
      <trkpt lat="43.5867" lon="2.95776">
        <ele>375.3</ele>
        <time>2026-05-07T07:30:19.999Z</time>
      </trkpt>
      <trkpt lat="43.58671" lon="2.95776">
        <ele>375.5</ele>
        <time>2026-05-07T07:30:20.999Z</time>
      </trkpt>
      <trkpt lat="43.58672" lon="2.95775">
        <ele>375.7</ele>
        <time>2026-05-07T07:30:21.999Z</time>
      </trkpt>
      <trkpt lat="43.58673" lon="2.95775">
        <ele>375.2</ele>
        <time>2026-05-07T07:30:22.999Z</time>
      </trkpt>
      <trkpt lat="43.58673" lon="2.95774">
        <ele>375.3</ele>
        <time>2026-05-07T07:30:23.999Z</time>
      </trkpt>
      <trkpt lat="43.58674" lon="2.95773">
        <ele>374.9</ele>
        <time>2026-05-07T07:30:24.999Z</time>
      </trkpt>
      <trkpt lat="43.58675" lon="2.95772">
        <ele>375.6</ele>
        <time>2026-05-07T07:30:25.999Z</time>
      </trkpt>
      <trkpt lat="43.58676" lon="2.95771">
        <ele>376.1</ele>
        <time>2026-05-07T07:30:26.999Z</time>
      </trkpt>
      <trkpt lat="43.58677" lon="2.9577">
        <ele>376.1</ele>
        <time>2026-05-07T07:30:27.999Z</time>
      </trkpt>
      <trkpt lat="43.58677" lon="2.95769">
        <ele>376.1</ele>
        <time>2026-05-07T07:30:28.999Z</time>
      </trkpt>
      <trkpt lat="43.58677" lon="2.95767">
        <ele>376.2</ele>
        <time>2026-05-07T07:30:29.999Z</time>
      </trkpt>
      <trkpt lat="43.58678" lon="2.95765">
        <ele>376.6</ele>
        <time>2026-05-07T07:30:30.999Z</time>
      </trkpt>
      <trkpt lat="43.58679" lon="2.95763">
        <ele>376.8</ele>
        <time>2026-05-07T07:30:31.999Z</time>
      </trkpt>
      <trkpt lat="43.58679" lon="2.95761">
        <ele>376.7</ele>
        <time>2026-05-07T07:30:32.999Z</time>
      </trkpt>
      <trkpt lat="43.5868" lon="2.95759">
        <ele>376.7</ele>
        <time>2026-05-07T07:30:33.999Z</time>
      </trkpt>
      <trkpt lat="43.5868" lon="2.95758">
        <ele>376.9</ele>
        <time>2026-05-07T07:30:34.999Z</time>
      </trkpt>
      <trkpt lat="43.58681" lon="2.95757">
        <ele>377.1</ele>
        <time>2026-05-07T07:30:35.999Z</time>
      </trkpt>
      <trkpt lat="43.58681" lon="2.95755">
        <ele>376.9</ele>
        <time>2026-05-07T07:30:36.999Z</time>
      </trkpt>
      <trkpt lat="43.58681" lon="2.95753">
        <ele>376.7</ele>
        <time>2026-05-07T07:30:37.999Z</time>
      </trkpt>
      <trkpt lat="43.58681" lon="2.9575">
        <ele>376.8</ele>
        <time>2026-05-07T07:30:38.999Z</time>
      </trkpt>
      <trkpt lat="43.58681" lon="2.95749">
        <ele>377.2</ele>
        <time>2026-05-07T07:30:39.999Z</time>
      </trkpt>
      <trkpt lat="43.58681" lon="2.95747">
        <ele>376.4</ele>
        <time>2026-05-07T07:30:40.999Z</time>
      </trkpt>
      <trkpt lat="43.58681" lon="2.95746">
        <ele>376.6</ele>
        <time>2026-05-07T07:30:41.999Z</time>
      </trkpt>
      <trkpt lat="43.58681" lon="2.95744">
        <ele>375.9</ele>
        <time>2026-05-07T07:30:42.999Z</time>
      </trkpt>
      <trkpt lat="43.58681" lon="2.95742">
        <ele>376.2</ele>
        <time>2026-05-07T07:30:43.999Z</time>
      </trkpt>
      <trkpt lat="43.58681" lon="2.9574">
        <ele>376.5</ele>
        <time>2026-05-07T07:30:44.999Z</time>
      </trkpt>
      <trkpt lat="43.58681" lon="2.95738">
        <ele>377</ele>
        <time>2026-05-07T07:30:45.999Z</time>
      </trkpt>
      <trkpt lat="43.58681" lon="2.95736">
        <ele>376.5</ele>
        <time>2026-05-07T07:30:46.999Z</time>
      </trkpt>
      <trkpt lat="43.58681" lon="2.95734">
        <ele>376.4</ele>
        <time>2026-05-07T07:30:47.999Z</time>
      </trkpt>
      <trkpt lat="43.58682" lon="2.95733">
        <ele>376.4</ele>
        <time>2026-05-07T07:30:48.999Z</time>
      </trkpt>
      <trkpt lat="43.58683" lon="2.95732">
        <ele>376.6</ele>
        <time>2026-05-07T07:30:49.999Z</time>
      </trkpt>
      <trkpt lat="43.58684" lon="2.9573">
        <ele>377.1</ele>
        <time>2026-05-07T07:30:50.999Z</time>
      </trkpt>
      <trkpt lat="43.58685" lon="2.95729">
        <ele>377.1</ele>
        <time>2026-05-07T07:30:51.999Z</time>
      </trkpt>
      <trkpt lat="43.58686" lon="2.95728">
        <ele>377.6</ele>
        <time>2026-05-07T07:30:52.999Z</time>
      </trkpt>
      <trkpt lat="43.58687" lon="2.95728">
        <ele>377.9</ele>
        <time>2026-05-07T07:30:53.999Z</time>
      </trkpt>
      <trkpt lat="43.58688" lon="2.95728">
        <ele>378.3</ele>
        <time>2026-05-07T07:30:54.999Z</time>
      </trkpt>
      <trkpt lat="43.58689" lon="2.95726">
        <ele>378.1</ele>
        <time>2026-05-07T07:30:55.999Z</time>
      </trkpt>
      <trkpt lat="43.5869" lon="2.95726">
        <ele>378.7</ele>
        <time>2026-05-07T07:30:56.999Z</time>
      </trkpt>
      <trkpt lat="43.5869" lon="2.95724">
        <ele>379.2</ele>
        <time>2026-05-07T07:30:57.999Z</time>
      </trkpt>
      <trkpt lat="43.58691" lon="2.95722">
        <ele>379.4</ele>
        <time>2026-05-07T07:30:58.999Z</time>
      </trkpt>
      <trkpt lat="43.58692" lon="2.95721">
        <ele>378.9</ele>
        <time>2026-05-07T07:30:59.999Z</time>
      </trkpt>
      <trkpt lat="43.58693" lon="2.95719">
        <ele>379.4</ele>
        <time>2026-05-07T07:31:00.999Z</time>
      </trkpt>
      <trkpt lat="43.58693" lon="2.95719">
        <ele>379.7</ele>
        <time>2026-05-07T07:31:01.999Z</time>
      </trkpt>
      <trkpt lat="43.58693" lon="2.95718">
        <ele>380.5</ele>
        <time>2026-05-07T07:31:02.999Z</time>
      </trkpt>
      <trkpt lat="43.58693" lon="2.95717">
        <ele>380.8</ele>
        <time>2026-05-07T07:31:03.999Z</time>
      </trkpt>
      <trkpt lat="43.58693" lon="2.95715">
        <ele>380.9</ele>
        <time>2026-05-07T07:31:04.999Z</time>
      </trkpt>
      <trkpt lat="43.58694" lon="2.95713">
        <ele>380.8</ele>
        <time>2026-05-07T07:31:05.999Z</time>
      </trkpt>
      <trkpt lat="43.58695" lon="2.95711">
        <ele>380.9</ele>
        <time>2026-05-07T07:31:06.999Z</time>
      </trkpt>
      <trkpt lat="43.58696" lon="2.95709">
        <ele>381.4</ele>
        <time>2026-05-07T07:31:07.999Z</time>
      </trkpt>
      <trkpt lat="43.58696" lon="2.95708">
        <ele>381.9</ele>
        <time>2026-05-07T07:31:08.999Z</time>
      </trkpt>
      <trkpt lat="43.58697" lon="2.95707">
        <ele>381.8</ele>
        <time>2026-05-07T07:31:09.999Z</time>
      </trkpt>
      <trkpt lat="43.58697" lon="2.95706">
        <ele>382.3</ele>
        <time>2026-05-07T07:31:10.999Z</time>
      </trkpt>
      <trkpt lat="43.58698" lon="2.95706">
        <ele>381.8</ele>
        <time>2026-05-07T07:31:11.999Z</time>
      </trkpt>
      <trkpt lat="43.58699" lon="2.95705">
        <ele>381.8</ele>
        <time>2026-05-07T07:31:12.999Z</time>
      </trkpt>
      <trkpt lat="43.58699" lon="2.95704">
        <ele>381</ele>
        <time>2026-05-07T07:31:13.999Z</time>
      </trkpt>
      <trkpt lat="43.587" lon="2.95703">
        <ele>380.6</ele>
        <time>2026-05-07T07:31:14.999Z</time>
      </trkpt>
      <trkpt lat="43.587" lon="2.95701">
        <ele>380.3</ele>
        <time>2026-05-07T07:31:15.999Z</time>
      </trkpt>
      <trkpt lat="43.58701" lon="2.95701">
        <ele>379.6</ele>
        <time>2026-05-07T07:31:16.999Z</time>
      </trkpt>
      <trkpt lat="43.58701" lon="2.957">
        <ele>379</ele>
        <time>2026-05-07T07:31:17.999Z</time>
      </trkpt>
      <trkpt lat="43.58702" lon="2.95698">
        <ele>379.1</ele>
        <time>2026-05-07T07:31:18.999Z</time>
      </trkpt>
      <trkpt lat="43.58703" lon="2.95698">
        <ele>379.4</ele>
        <time>2026-05-07T07:31:19.999Z</time>
      </trkpt>
      <trkpt lat="43.58704" lon="2.95697">
        <ele>379.7</ele>
        <time>2026-05-07T07:31:20.999Z</time>
      </trkpt>
      <trkpt lat="43.58705" lon="2.95696">
        <ele>380.2</ele>
        <time>2026-05-07T07:31:21.999Z</time>
      </trkpt>
      <trkpt lat="43.58706" lon="2.95696">
        <ele>380.4</ele>
        <time>2026-05-07T07:31:22.999Z</time>
      </trkpt>
      <trkpt lat="43.58707" lon="2.95696">
        <ele>380.5</ele>
        <time>2026-05-07T07:31:23.999Z</time>
      </trkpt>
      <trkpt lat="43.58708" lon="2.95695">
        <ele>380.6</ele>
        <time>2026-05-07T07:31:24.999Z</time>
      </trkpt>
      <trkpt lat="43.58709" lon="2.95695">
        <ele>380.4</ele>
        <time>2026-05-07T07:31:25.999Z</time>
      </trkpt>
      <trkpt lat="43.58711" lon="2.95695">
        <ele>379.9</ele>
        <time>2026-05-07T07:31:26.999Z</time>
      </trkpt>
      <trkpt lat="43.58712" lon="2.95695">
        <ele>379.7</ele>
        <time>2026-05-07T07:31:27.999Z</time>
      </trkpt>
      <trkpt lat="43.58714" lon="2.95696">
        <ele>379.6</ele>
        <time>2026-05-07T07:31:28.999Z</time>
      </trkpt>
      <trkpt lat="43.58715" lon="2.95697">
        <ele>379.4</ele>
        <time>2026-05-07T07:31:29.999Z</time>
      </trkpt>
      <trkpt lat="43.58717" lon="2.95698">
        <ele>379.3</ele>
        <time>2026-05-07T07:31:30.999Z</time>
      </trkpt>
      <trkpt lat="43.58718" lon="2.95698">
        <ele>379.1</ele>
        <time>2026-05-07T07:31:31.999Z</time>
      </trkpt>
      <trkpt lat="43.58719" lon="2.95699">
        <ele>379.1</ele>
        <time>2026-05-07T07:31:32.999Z</time>
      </trkpt>
      <trkpt lat="43.5872" lon="2.957">
        <ele>379.7</ele>
        <time>2026-05-07T07:31:33.999Z</time>
      </trkpt>
      <trkpt lat="43.58721" lon="2.957">
        <ele>379.8</ele>
        <time>2026-05-07T07:31:34.999Z</time>
      </trkpt>
      <trkpt lat="43.58722" lon="2.957">
        <ele>379.6</ele>
        <time>2026-05-07T07:31:35.999Z</time>
      </trkpt>
      <trkpt lat="43.58723" lon="2.957">
        <ele>380</ele>
        <time>2026-05-07T07:31:36.999Z</time>
      </trkpt>
      <trkpt lat="43.58723" lon="2.95699">
        <ele>379.9</ele>
        <time>2026-05-07T07:31:37.999Z</time>
      </trkpt>
      <trkpt lat="43.58724" lon="2.95699">
        <ele>379.6</ele>
        <time>2026-05-07T07:31:38.999Z</time>
      </trkpt>
      <trkpt lat="43.58725" lon="2.95698">
        <ele>379.3</ele>
        <time>2026-05-07T07:31:39.999Z</time>
      </trkpt>
      <trkpt lat="43.58726" lon="2.95698">
        <ele>379.8</ele>
        <time>2026-05-07T07:31:40.999Z</time>
      </trkpt>
      <trkpt lat="43.58727" lon="2.95698">
        <ele>380.7</ele>
        <time>2026-05-07T07:31:41.999Z</time>
      </trkpt>
      <trkpt lat="43.58729" lon="2.95697">
        <ele>381.5</ele>
        <time>2026-05-07T07:31:42.999Z</time>
      </trkpt>
      <trkpt lat="43.58729" lon="2.95697">
        <ele>381.5</ele>
        <time>2026-05-07T07:31:43.999Z</time>
      </trkpt>
      <trkpt lat="43.5873" lon="2.95697">
        <ele>381.1</ele>
        <time>2026-05-07T07:31:44.999Z</time>
      </trkpt>
      <trkpt lat="43.58732" lon="2.95697">
        <ele>381.1</ele>
        <time>2026-05-07T07:31:45.999Z</time>
      </trkpt>
      <trkpt lat="43.58733" lon="2.95697">
        <ele>381.3</ele>
        <time>2026-05-07T07:31:46.999Z</time>
      </trkpt>
      <trkpt lat="43.58735" lon="2.95698">
        <ele>381.7</ele>
        <time>2026-05-07T07:31:47.999Z</time>
      </trkpt>
      <trkpt lat="43.58736" lon="2.95698">
        <ele>382</ele>
        <time>2026-05-07T07:31:48.999Z</time>
      </trkpt>
      <trkpt lat="43.58737" lon="2.95699">
        <ele>382.1</ele>
        <time>2026-05-07T07:31:49.999Z</time>
      </trkpt>
      <trkpt lat="43.58738" lon="2.95699">
        <ele>381.9</ele>
        <time>2026-05-07T07:31:50.999Z</time>
      </trkpt>
      <trkpt lat="43.58738" lon="2.95699">
        <ele>382</ele>
        <time>2026-05-07T07:31:51.999Z</time>
      </trkpt>
      <trkpt lat="43.5874" lon="2.95699">
        <ele>382.2</ele>
        <time>2026-05-07T07:31:52.999Z</time>
      </trkpt>
      <trkpt lat="43.58741" lon="2.95699">
        <ele>382.2</ele>
        <time>2026-05-07T07:31:53.999Z</time>
      </trkpt>
      <trkpt lat="43.58742" lon="2.957">
        <ele>382.5</ele>
        <time>2026-05-07T07:31:54.999Z</time>
      </trkpt>
      <trkpt lat="43.58743" lon="2.95702">
        <ele>382.8</ele>
        <time>2026-05-07T07:31:55.999Z</time>
      </trkpt>
      <trkpt lat="43.58744" lon="2.95703">
        <ele>383.2</ele>
        <time>2026-05-07T07:31:56.999Z</time>
      </trkpt>
      <trkpt lat="43.58744" lon="2.95704">
        <ele>384.1</ele>
        <time>2026-05-07T07:31:57.999Z</time>
      </trkpt>
      <trkpt lat="43.58745" lon="2.95704">
        <ele>384.3</ele>
        <time>2026-05-07T07:31:58.999Z</time>
      </trkpt>
      <trkpt lat="43.58746" lon="2.95705">
        <ele>383.9</ele>
        <time>2026-05-07T07:31:59.999Z</time>
      </trkpt>
      <trkpt lat="43.58747" lon="2.95705">
        <ele>383.8</ele>
        <time>2026-05-07T07:32:00.999Z</time>
      </trkpt>
      <trkpt lat="43.58748" lon="2.95706">
        <ele>384</ele>
        <time>2026-05-07T07:32:01.999Z</time>
      </trkpt>
      <trkpt lat="43.58749" lon="2.95707">
        <ele>383.9</ele>
        <time>2026-05-07T07:32:02.999Z</time>
      </trkpt>
      <trkpt lat="43.5875" lon="2.95708">
        <ele>383.6</ele>
        <time>2026-05-07T07:32:03.999Z</time>
      </trkpt>
      <trkpt lat="43.58751" lon="2.95708">
        <ele>383.4</ele>
        <time>2026-05-07T07:32:04.999Z</time>
      </trkpt>
      <trkpt lat="43.58752" lon="2.95708">
        <ele>383.4</ele>
        <time>2026-05-07T07:32:05.999Z</time>
      </trkpt>
      <trkpt lat="43.58754" lon="2.95708">
        <ele>383.5</ele>
        <time>2026-05-07T07:32:06.999Z</time>
      </trkpt>
      <trkpt lat="43.58755" lon="2.95708">
        <ele>383.1</ele>
        <time>2026-05-07T07:32:07.999Z</time>
      </trkpt>
      <trkpt lat="43.58756" lon="2.95709">
        <ele>383.1</ele>
        <time>2026-05-07T07:32:08.999Z</time>
      </trkpt>
      <trkpt lat="43.58757" lon="2.9571">
        <ele>383.1</ele>
        <time>2026-05-07T07:32:09.999Z</time>
      </trkpt>
      <trkpt lat="43.58759" lon="2.9571">
        <ele>382.8</ele>
        <time>2026-05-07T07:32:10.999Z</time>
      </trkpt>
      <trkpt lat="43.5876" lon="2.9571">
        <ele>383.4</ele>
        <time>2026-05-07T07:32:11.999Z</time>
      </trkpt>
      <trkpt lat="43.58762" lon="2.9571">
        <ele>384</ele>
        <time>2026-05-07T07:32:12.999Z</time>
      </trkpt>
      <trkpt lat="43.58763" lon="2.9571">
        <ele>384.1</ele>
        <time>2026-05-07T07:32:13.999Z</time>
      </trkpt>
      <trkpt lat="43.58765" lon="2.9571">
        <ele>384.4</ele>
        <time>2026-05-07T07:32:14.999Z</time>
      </trkpt>
      <trkpt lat="43.58767" lon="2.9571">
        <ele>385</ele>
        <time>2026-05-07T07:32:15.999Z</time>
      </trkpt>
      <trkpt lat="43.58768" lon="2.9571">
        <ele>385.4</ele>
        <time>2026-05-07T07:32:16.999Z</time>
      </trkpt>
      <trkpt lat="43.5877" lon="2.9571">
        <ele>385.5</ele>
        <time>2026-05-07T07:32:17.999Z</time>
      </trkpt>
      <trkpt lat="43.58771" lon="2.9571">
        <ele>386</ele>
        <time>2026-05-07T07:32:18.999Z</time>
      </trkpt>
      <trkpt lat="43.58772" lon="2.9571">
        <ele>386.2</ele>
        <time>2026-05-07T07:32:19.999Z</time>
      </trkpt>
      <trkpt lat="43.58773" lon="2.9571">
        <ele>386</ele>
        <time>2026-05-07T07:32:20.999Z</time>
      </trkpt>
      <trkpt lat="43.58774" lon="2.95709">
        <ele>385.8</ele>
        <time>2026-05-07T07:32:21.999Z</time>
      </trkpt>
      <trkpt lat="43.58774" lon="2.95709">
        <ele>385.8</ele>
        <time>2026-05-07T07:32:22.999Z</time>
      </trkpt>
      <trkpt lat="43.58775" lon="2.95709">
        <ele>385.9</ele>
        <time>2026-05-07T07:32:23.999Z</time>
      </trkpt>
      <trkpt lat="43.58775" lon="2.95708">
        <ele>386.3</ele>
        <time>2026-05-07T07:32:24.999Z</time>
      </trkpt>
      <trkpt lat="43.58776" lon="2.95708">
        <ele>386.3</ele>
        <time>2026-05-07T07:32:25.999Z</time>
      </trkpt>
      <trkpt lat="43.58777" lon="2.95707">
        <ele>385.9</ele>
        <time>2026-05-07T07:32:26.999Z</time>
      </trkpt>
      <trkpt lat="43.58777" lon="2.95707">
        <ele>385.6</ele>
        <time>2026-05-07T07:32:27.999Z</time>
      </trkpt>
      <trkpt lat="43.58778" lon="2.95707">
        <ele>385.6</ele>
        <time>2026-05-07T07:32:28.999Z</time>
      </trkpt>
      <trkpt lat="43.58779" lon="2.95707">
        <ele>385.5</ele>
        <time>2026-05-07T07:32:29.999Z</time>
      </trkpt>
      <trkpt lat="43.58779" lon="2.95706">
        <ele>386.1</ele>
        <time>2026-05-07T07:32:30.999Z</time>
      </trkpt>
      <trkpt lat="43.5878" lon="2.95707">
        <ele>386.5</ele>
        <time>2026-05-07T07:32:31.999Z</time>
      </trkpt>
      <trkpt lat="43.58781" lon="2.95706">
        <ele>386.6</ele>
        <time>2026-05-07T07:32:32.999Z</time>
      </trkpt>
      <trkpt lat="43.58781" lon="2.95706">
        <ele>386.3</ele>
        <time>2026-05-07T07:32:33.999Z</time>
      </trkpt>
      <trkpt lat="43.58783" lon="2.95705">
        <ele>386.1</ele>
        <time>2026-05-07T07:32:34.999Z</time>
      </trkpt>
      <trkpt lat="43.58784" lon="2.95704">
        <ele>385.7</ele>
        <time>2026-05-07T07:32:35.999Z</time>
      </trkpt>
      <trkpt lat="43.58785" lon="2.95704">
        <ele>385.9</ele>
        <time>2026-05-07T07:32:36.999Z</time>
      </trkpt>
      <trkpt lat="43.58786" lon="2.95703">
        <ele>385.6</ele>
        <time>2026-05-07T07:32:37.999Z</time>
      </trkpt>
      <trkpt lat="43.58787" lon="2.95702">
        <ele>385.2</ele>
        <time>2026-05-07T07:32:38.999Z</time>
      </trkpt>
      <trkpt lat="43.58789" lon="2.95702">
        <ele>384.9</ele>
        <time>2026-05-07T07:32:39.999Z</time>
      </trkpt>
      <trkpt lat="43.5879" lon="2.95701">
        <ele>385</ele>
        <time>2026-05-07T07:32:40.999Z</time>
      </trkpt>
      <trkpt lat="43.58791" lon="2.95702">
        <ele>385.4</ele>
        <time>2026-05-07T07:32:41.999Z</time>
      </trkpt>
      <trkpt lat="43.58792" lon="2.95702">
        <ele>385.8</ele>
        <time>2026-05-07T07:32:42.999Z</time>
      </trkpt>
      <trkpt lat="43.58793" lon="2.95702">
        <ele>386.3</ele>
        <time>2026-05-07T07:32:43.999Z</time>
      </trkpt>
      <trkpt lat="43.58793" lon="2.95702">
        <ele>386.1</ele>
        <time>2026-05-07T07:32:44.999Z</time>
      </trkpt>
      <trkpt lat="43.58794" lon="2.95702">
        <ele>386.3</ele>
        <time>2026-05-07T07:32:45.999Z</time>
      </trkpt>
      <trkpt lat="43.58795" lon="2.95701">
        <ele>386.1</ele>
        <time>2026-05-07T07:32:46.999Z</time>
      </trkpt>
      <trkpt lat="43.58796" lon="2.957">
        <ele>386.6</ele>
        <time>2026-05-07T07:32:47.999Z</time>
      </trkpt>
      <trkpt lat="43.58797" lon="2.95699">
        <ele>387.1</ele>
        <time>2026-05-07T07:32:48.999Z</time>
      </trkpt>
      <trkpt lat="43.58798" lon="2.95698">
        <ele>387.4</ele>
        <time>2026-05-07T07:32:49.999Z</time>
      </trkpt>
      <trkpt lat="43.58799" lon="2.95698">
        <ele>387.5</ele>
        <time>2026-05-07T07:32:50.999Z</time>
      </trkpt>
      <trkpt lat="43.588" lon="2.95697">
        <ele>387.8</ele>
        <time>2026-05-07T07:32:51.999Z</time>
      </trkpt>
      <trkpt lat="43.58801" lon="2.95697">
        <ele>388</ele>
        <time>2026-05-07T07:32:52.999Z</time>
      </trkpt>
      <trkpt lat="43.58802" lon="2.95697">
        <ele>387.8</ele>
        <time>2026-05-07T07:32:53.999Z</time>
      </trkpt>
      <trkpt lat="43.58802" lon="2.95698">
        <ele>388</ele>
        <time>2026-05-07T07:32:54.999Z</time>
      </trkpt>
      <trkpt lat="43.58803" lon="2.95698">
        <ele>388</ele>
        <time>2026-05-07T07:32:55.999Z</time>
      </trkpt>
      <trkpt lat="43.58804" lon="2.95698">
        <ele>387.7</ele>
        <time>2026-05-07T07:32:56.999Z</time>
      </trkpt>
      <trkpt lat="43.58804" lon="2.95697">
        <ele>387.7</ele>
        <time>2026-05-07T07:32:57.999Z</time>
      </trkpt>
      <trkpt lat="43.58805" lon="2.95697">
        <ele>387.5</ele>
        <time>2026-05-07T07:32:58.999Z</time>
      </trkpt>
      <trkpt lat="43.58805" lon="2.95696">
        <ele>387.4</ele>
        <time>2026-05-07T07:32:59.999Z</time>
      </trkpt>
      <trkpt lat="43.58805" lon="2.95696">
        <ele>387.3</ele>
        <time>2026-05-07T07:33:00.999Z</time>
      </trkpt>
      <trkpt lat="43.58806" lon="2.95696">
        <ele>387</ele>
        <time>2026-05-07T07:33:01.999Z</time>
      </trkpt>
      <trkpt lat="43.58806" lon="2.95696">
        <ele>387.1</ele>
        <time>2026-05-07T07:33:02.999Z</time>
      </trkpt>
      <trkpt lat="43.58807" lon="2.95695">
        <ele>386.8</ele>
        <time>2026-05-07T07:33:03.999Z</time>
      </trkpt>
      <trkpt lat="43.58809" lon="2.95695">
        <ele>386.5</ele>
        <time>2026-05-07T07:33:04.999Z</time>
      </trkpt>
      <trkpt lat="43.5881" lon="2.95695">
        <ele>386.2</ele>
        <time>2026-05-07T07:33:05.999Z</time>
      </trkpt>
      <trkpt lat="43.58811" lon="2.95694">
        <ele>386.6</ele>
        <time>2026-05-07T07:33:06.999Z</time>
      </trkpt>
      <trkpt lat="43.58813" lon="2.95694">
        <ele>386.7</ele>
        <time>2026-05-07T07:33:07.999Z</time>
      </trkpt>
      <trkpt lat="43.58814" lon="2.95694">
        <ele>386.4</ele>
        <time>2026-05-07T07:33:08.999Z</time>
      </trkpt>
      <trkpt lat="43.58816" lon="2.95695">
        <ele>386.7</ele>
        <time>2026-05-07T07:33:09.999Z</time>
      </trkpt>
      <trkpt lat="43.58817" lon="2.95695">
        <ele>387.1</ele>
        <time>2026-05-07T07:33:10.999Z</time>
      </trkpt>
      <trkpt lat="43.58817" lon="2.95695">
        <ele>387.6</ele>
        <time>2026-05-07T07:33:11.999Z</time>
      </trkpt>
      <trkpt lat="43.58819" lon="2.95695">
        <ele>387.5</ele>
        <time>2026-05-07T07:33:12.999Z</time>
      </trkpt>
      <trkpt lat="43.5882" lon="2.95694">
        <ele>387.3</ele>
        <time>2026-05-07T07:33:13.999Z</time>
      </trkpt>
      <trkpt lat="43.58821" lon="2.95695">
        <ele>386.9</ele>
        <time>2026-05-07T07:33:14.999Z</time>
      </trkpt>
      <trkpt lat="43.58822" lon="2.95695">
        <ele>386.9</ele>
        <time>2026-05-07T07:33:15.999Z</time>
      </trkpt>
      <trkpt lat="43.58823" lon="2.95696">
        <ele>387</ele>
        <time>2026-05-07T07:33:16.999Z</time>
      </trkpt>
      <trkpt lat="43.58825" lon="2.95696">
        <ele>387</ele>
        <time>2026-05-07T07:33:17.999Z</time>
      </trkpt>
      <trkpt lat="43.58825" lon="2.95697">
        <ele>386.8</ele>
        <time>2026-05-07T07:33:18.999Z</time>
      </trkpt>
      <trkpt lat="43.58826" lon="2.95696">
        <ele>386.8</ele>
        <time>2026-05-07T07:33:19.999Z</time>
      </trkpt>
      <trkpt lat="43.58828" lon="2.95695">
        <ele>387.8</ele>
        <time>2026-05-07T07:33:20.999Z</time>
      </trkpt>
      <trkpt lat="43.58828" lon="2.95695">
        <ele>388.6</ele>
        <time>2026-05-07T07:33:21.999Z</time>
      </trkpt>
      <trkpt lat="43.58829" lon="2.95695">
        <ele>389.2</ele>
        <time>2026-05-07T07:33:22.999Z</time>
      </trkpt>
      <trkpt lat="43.58831" lon="2.95695">
        <ele>390.3</ele>
        <time>2026-05-07T07:33:23.999Z</time>
      </trkpt>
      <trkpt lat="43.58831" lon="2.95695">
        <ele>390.6</ele>
        <time>2026-05-07T07:33:24.999Z</time>
      </trkpt>
      <trkpt lat="43.58833" lon="2.95695">
        <ele>391</ele>
        <time>2026-05-07T07:33:25.999Z</time>
      </trkpt>
      <trkpt lat="43.58834" lon="2.95696">
        <ele>390.6</ele>
        <time>2026-05-07T07:33:26.999Z</time>
      </trkpt>
      <trkpt lat="43.58835" lon="2.95697">
        <ele>390.4</ele>
        <time>2026-05-07T07:33:27.999Z</time>
      </trkpt>
      <trkpt lat="43.58836" lon="2.95697">
        <ele>390.3</ele>
        <time>2026-05-07T07:33:28.999Z</time>
      </trkpt>
      <trkpt lat="43.58836" lon="2.95697">
        <ele>390.4</ele>
        <time>2026-05-07T07:33:29.999Z</time>
      </trkpt>
      <trkpt lat="43.58837" lon="2.95697">
        <ele>390.5</ele>
        <time>2026-05-07T07:33:30.999Z</time>
      </trkpt>
      <trkpt lat="43.58838" lon="2.95697">
        <ele>390.8</ele>
        <time>2026-05-07T07:33:31.999Z</time>
      </trkpt>
      <trkpt lat="43.58839" lon="2.95699">
        <ele>391.7</ele>
        <time>2026-05-07T07:33:32.999Z</time>
      </trkpt>
      <trkpt lat="43.5884" lon="2.95699">
        <ele>392.1</ele>
        <time>2026-05-07T07:33:33.999Z</time>
      </trkpt>
      <trkpt lat="43.58841" lon="2.957">
        <ele>392.5</ele>
        <time>2026-05-07T07:33:34.999Z</time>
      </trkpt>
      <trkpt lat="43.58842" lon="2.957">
        <ele>392.4</ele>
        <time>2026-05-07T07:33:35.999Z</time>
      </trkpt>
      <trkpt lat="43.58842" lon="2.957">
        <ele>392.8</ele>
        <time>2026-05-07T07:33:36.999Z</time>
      </trkpt>
      <trkpt lat="43.58842" lon="2.957">
        <ele>393</ele>
        <time>2026-05-07T07:33:37.999Z</time>
      </trkpt>
      <trkpt lat="43.58842" lon="2.957">
        <ele>392.6</ele>
        <time>2026-05-07T07:33:38.999Z</time>
      </trkpt>
      <trkpt lat="43.58842" lon="2.957">
        <ele>392.7</ele>
        <time>2026-05-07T07:33:39.999Z</time>
      </trkpt>
      <trkpt lat="43.58843" lon="2.95699">
        <ele>392.7</ele>
        <time>2026-05-07T07:33:40.999Z</time>
      </trkpt>
      <trkpt lat="43.58844" lon="2.95698">
        <ele>392.8</ele>
        <time>2026-05-07T07:33:41.999Z</time>
      </trkpt>
      <trkpt lat="43.58846" lon="2.95698">
        <ele>393</ele>
        <time>2026-05-07T07:33:42.999Z</time>
      </trkpt>
      <trkpt lat="43.58847" lon="2.95698">
        <ele>392.8</ele>
        <time>2026-05-07T07:33:43.999Z</time>
      </trkpt>
      <trkpt lat="43.58848" lon="2.95698">
        <ele>392.9</ele>
        <time>2026-05-07T07:33:44.999Z</time>
      </trkpt>
      <trkpt lat="43.58849" lon="2.95698">
        <ele>392.8</ele>
        <time>2026-05-07T07:33:45.999Z</time>
      </trkpt>
      <trkpt lat="43.5885" lon="2.95697">
        <ele>393.1</ele>
        <time>2026-05-07T07:33:46.999Z</time>
      </trkpt>
      <trkpt lat="43.58851" lon="2.95698">
        <ele>393.2</ele>
        <time>2026-05-07T07:33:47.999Z</time>
      </trkpt>
      <trkpt lat="43.58851" lon="2.95697">
        <ele>393.5</ele>
        <time>2026-05-07T07:33:48.999Z</time>
      </trkpt>
      <trkpt lat="43.58852" lon="2.95697">
        <ele>393.7</ele>
        <time>2026-05-07T07:33:49.999Z</time>
      </trkpt>
      <trkpt lat="43.58852" lon="2.95696">
        <ele>393.5</ele>
        <time>2026-05-07T07:33:50.999Z</time>
      </trkpt>
      <trkpt lat="43.58853" lon="2.95696">
        <ele>393.7</ele>
        <time>2026-05-07T07:33:51.999Z</time>
      </trkpt>
      <trkpt lat="43.58855" lon="2.95696">
        <ele>393.8</ele>
        <time>2026-05-07T07:33:52.999Z</time>
      </trkpt>
      <trkpt lat="43.58856" lon="2.95696">
        <ele>393.4</ele>
        <time>2026-05-07T07:33:53.999Z</time>
      </trkpt>
      <trkpt lat="43.58857" lon="2.95695">
        <ele>393.3</ele>
        <time>2026-05-07T07:33:54.999Z</time>
      </trkpt>
      <trkpt lat="43.58857" lon="2.95695">
        <ele>393.4</ele>
        <time>2026-05-07T07:33:55.999Z</time>
      </trkpt>
      <trkpt lat="43.58858" lon="2.95695">
        <ele>393.6</ele>
        <time>2026-05-07T07:33:56.999Z</time>
      </trkpt>
      <trkpt lat="43.58858" lon="2.95694">
        <ele>393.5</ele>
        <time>2026-05-07T07:33:57.999Z</time>
      </trkpt>
      <trkpt lat="43.58858" lon="2.95694">
        <ele>393.6</ele>
        <time>2026-05-07T07:33:58.999Z</time>
      </trkpt>
      <trkpt lat="43.58859" lon="2.95694">
        <ele>393.6</ele>
        <time>2026-05-07T07:33:59.999Z</time>
      </trkpt>
      <trkpt lat="43.5886" lon="2.95694">
        <ele>393.3</ele>
        <time>2026-05-07T07:34:00.999Z</time>
      </trkpt>
      <trkpt lat="43.5886" lon="2.95694">
        <ele>393.4</ele>
        <time>2026-05-07T07:34:01.999Z</time>
      </trkpt>
      <trkpt lat="43.58862" lon="2.95695">
        <ele>393.4</ele>
        <time>2026-05-07T07:34:02.999Z</time>
      </trkpt>
      <trkpt lat="43.58863" lon="2.95695">
        <ele>393</ele>
        <time>2026-05-07T07:34:03.999Z</time>
      </trkpt>
      <trkpt lat="43.58865" lon="2.95695">
        <ele>393</ele>
        <time>2026-05-07T07:34:04.999Z</time>
      </trkpt>
      <trkpt lat="43.58866" lon="2.95694">
        <ele>393</ele>
        <time>2026-05-07T07:34:05.999Z</time>
      </trkpt>
      <trkpt lat="43.58868" lon="2.95693">
        <ele>393.1</ele>
        <time>2026-05-07T07:34:06.999Z</time>
      </trkpt>
      <trkpt lat="43.5887" lon="2.95693">
        <ele>393.5</ele>
        <time>2026-05-07T07:34:07.999Z</time>
      </trkpt>
      <trkpt lat="43.58871" lon="2.95692">
        <ele>393.7</ele>
        <time>2026-05-07T07:34:08.999Z</time>
      </trkpt>
      <trkpt lat="43.58872" lon="2.95692">
        <ele>393.9</ele>
        <time>2026-05-07T07:34:09.999Z</time>
      </trkpt>
      <trkpt lat="43.58873" lon="2.95691">
        <ele>393.8</ele>
        <time>2026-05-07T07:34:10.999Z</time>
      </trkpt>
      <trkpt lat="43.58875" lon="2.95691">
        <ele>393.5</ele>
        <time>2026-05-07T07:34:11.999Z</time>
      </trkpt>
      <trkpt lat="43.58876" lon="2.9569">
        <ele>393.6</ele>
        <time>2026-05-07T07:34:12.999Z</time>
      </trkpt>
      <trkpt lat="43.58877" lon="2.9569">
        <ele>393.7</ele>
        <time>2026-05-07T07:34:13.999Z</time>
      </trkpt>
      <trkpt lat="43.58877" lon="2.9569">
        <ele>393.7</ele>
        <time>2026-05-07T07:34:14.999Z</time>
      </trkpt>
      <trkpt lat="43.58877" lon="2.95689">
        <ele>393.3</ele>
        <time>2026-05-07T07:34:15.999Z</time>
      </trkpt>
      <trkpt lat="43.58877" lon="2.95687">
        <ele>392.7</ele>
        <time>2026-05-07T07:34:16.999Z</time>
      </trkpt>
      <trkpt lat="43.58877" lon="2.95686">
        <ele>392.9</ele>
        <time>2026-05-07T07:34:17.999Z</time>
      </trkpt>
      <trkpt lat="43.58878" lon="2.95685">
        <ele>393.3</ele>
        <time>2026-05-07T07:34:18.999Z</time>
      </trkpt>
      <trkpt lat="43.58878" lon="2.95684">
        <ele>393.3</ele>
        <time>2026-05-07T07:34:19.999Z</time>
      </trkpt>
      <trkpt lat="43.58879" lon="2.95683">
        <ele>394</ele>
        <time>2026-05-07T07:34:20.999Z</time>
      </trkpt>
      <trkpt lat="43.58879" lon="2.95682">
        <ele>394.6</ele>
        <time>2026-05-07T07:34:21.999Z</time>
      </trkpt>
      <trkpt lat="43.58879" lon="2.9568">
        <ele>395</ele>
        <time>2026-05-07T07:34:22.999Z</time>
      </trkpt>
      <trkpt lat="43.58879" lon="2.95679">
        <ele>394.6</ele>
        <time>2026-05-07T07:34:23.999Z</time>
      </trkpt>
      <trkpt lat="43.58879" lon="2.95678">
        <ele>395</ele>
        <time>2026-05-07T07:34:24.999Z</time>
      </trkpt>
      <trkpt lat="43.5888" lon="2.95676">
        <ele>395.5</ele>
        <time>2026-05-07T07:34:25.999Z</time>
      </trkpt>
      <trkpt lat="43.5888" lon="2.95675">
        <ele>396</ele>
        <time>2026-05-07T07:34:26.999Z</time>
      </trkpt>
      <trkpt lat="43.5888" lon="2.95674">
        <ele>396.2</ele>
        <time>2026-05-07T07:34:27.999Z</time>
      </trkpt>
      <trkpt lat="43.5888" lon="2.95672">
        <ele>396.3</ele>
        <time>2026-05-07T07:34:28.999Z</time>
      </trkpt>
      <trkpt lat="43.5888" lon="2.95671">
        <ele>395.7</ele>
        <time>2026-05-07T07:34:29.999Z</time>
      </trkpt>
      <trkpt lat="43.5888" lon="2.95669">
        <ele>395.7</ele>
        <time>2026-05-07T07:34:30.999Z</time>
      </trkpt>
      <trkpt lat="43.5888" lon="2.95667">
        <ele>395.4</ele>
        <time>2026-05-07T07:34:31.999Z</time>
      </trkpt>
      <trkpt lat="43.58881" lon="2.95665">
        <ele>395</ele>
        <time>2026-05-07T07:34:32.999Z</time>
      </trkpt>
      <trkpt lat="43.58881" lon="2.95664">
        <ele>394.2</ele>
        <time>2026-05-07T07:34:33.999Z</time>
      </trkpt>
      <trkpt lat="43.58882" lon="2.95662">
        <ele>393.5</ele>
        <time>2026-05-07T07:34:34.999Z</time>
      </trkpt>
      <trkpt lat="43.58883" lon="2.95661">
        <ele>393.4</ele>
        <time>2026-05-07T07:34:35.999Z</time>
      </trkpt>
      <trkpt lat="43.58883" lon="2.9566">
        <ele>393.3</ele>
        <time>2026-05-07T07:34:36.999Z</time>
      </trkpt>
      <trkpt lat="43.58884" lon="2.95659">
        <ele>393.3</ele>
        <time>2026-05-07T07:34:37.999Z</time>
      </trkpt>
      <trkpt lat="43.58885" lon="2.95658">
        <ele>393.2</ele>
        <time>2026-05-07T07:34:38.999Z</time>
      </trkpt>
      <trkpt lat="43.58885" lon="2.95657">
        <ele>393.2</ele>
        <time>2026-05-07T07:34:39.999Z</time>
      </trkpt>
      <trkpt lat="43.58886" lon="2.95656">
        <ele>393.1</ele>
        <time>2026-05-07T07:34:40.999Z</time>
      </trkpt>
      <trkpt lat="43.58886" lon="2.95654">
        <ele>393.1</ele>
        <time>2026-05-07T07:34:41.999Z</time>
      </trkpt>
      <trkpt lat="43.58887" lon="2.95653">
        <ele>392.8</ele>
        <time>2026-05-07T07:34:42.999Z</time>
      </trkpt>
      <trkpt lat="43.58888" lon="2.95651">
        <ele>392.7</ele>
        <time>2026-05-07T07:34:43.999Z</time>
      </trkpt>
      <trkpt lat="43.58889" lon="2.9565">
        <ele>392.3</ele>
        <time>2026-05-07T07:34:44.999Z</time>
      </trkpt>
      <trkpt lat="43.5889" lon="2.95648">
        <ele>392</ele>
        <time>2026-05-07T07:34:45.999Z</time>
      </trkpt>
      <trkpt lat="43.5889" lon="2.95647">
        <ele>392.2</ele>
        <time>2026-05-07T07:34:46.999Z</time>
      </trkpt>
      <trkpt lat="43.5889" lon="2.95646">
        <ele>392.2</ele>
        <time>2026-05-07T07:34:47.999Z</time>
      </trkpt>
      <trkpt lat="43.5889" lon="2.95644">
        <ele>392.5</ele>
        <time>2026-05-07T07:34:48.999Z</time>
      </trkpt>
      <trkpt lat="43.58891" lon="2.95642">
        <ele>392.4</ele>
        <time>2026-05-07T07:34:49.999Z</time>
      </trkpt>
      <trkpt lat="43.58891" lon="2.95641">
        <ele>392.6</ele>
        <time>2026-05-07T07:34:50.999Z</time>
      </trkpt>
      <trkpt lat="43.58891" lon="2.95639">
        <ele>393.4</ele>
        <time>2026-05-07T07:34:51.999Z</time>
      </trkpt>
      <trkpt lat="43.58891" lon="2.95637">
        <ele>393.8</ele>
        <time>2026-05-07T07:34:52.999Z</time>
      </trkpt>
      <trkpt lat="43.58892" lon="2.95635">
        <ele>394.6</ele>
        <time>2026-05-07T07:34:53.999Z</time>
      </trkpt>
      <trkpt lat="43.58892" lon="2.95633">
        <ele>395.6</ele>
        <time>2026-05-07T07:34:54.999Z</time>
      </trkpt>
      <trkpt lat="43.58892" lon="2.95632">
        <ele>396.6</ele>
        <time>2026-05-07T07:34:55.999Z</time>
      </trkpt>
      <trkpt lat="43.58892" lon="2.95631">
        <ele>396.7</ele>
        <time>2026-05-07T07:34:56.999Z</time>
      </trkpt>
      <trkpt lat="43.58892" lon="2.9563">
        <ele>397</ele>
        <time>2026-05-07T07:34:57.999Z</time>
      </trkpt>
      <trkpt lat="43.58891" lon="2.95628">
        <ele>397.3</ele>
        <time>2026-05-07T07:34:58.999Z</time>
      </trkpt>
      <trkpt lat="43.5889" lon="2.95626">
        <ele>397.3</ele>
        <time>2026-05-07T07:34:59.999Z</time>
      </trkpt>
      <trkpt lat="43.58889" lon="2.95625">
        <ele>397.5</ele>
        <time>2026-05-07T07:35:00.999Z</time>
      </trkpt>
      <trkpt lat="43.58888" lon="2.95623">
        <ele>397.7</ele>
        <time>2026-05-07T07:35:01.999Z</time>
      </trkpt>
      <trkpt lat="43.58887" lon="2.95623">
        <ele>397.4</ele>
        <time>2026-05-07T07:35:02.999Z</time>
      </trkpt>
      <trkpt lat="43.58886" lon="2.95622">
        <ele>397.3</ele>
        <time>2026-05-07T07:35:03.999Z</time>
      </trkpt>
      <trkpt lat="43.58885" lon="2.95621">
        <ele>397.5</ele>
        <time>2026-05-07T07:35:04.999Z</time>
      </trkpt>
      <trkpt lat="43.58885" lon="2.95619">
        <ele>398</ele>
        <time>2026-05-07T07:35:05.999Z</time>
      </trkpt>
      <trkpt lat="43.58884" lon="2.95618">
        <ele>398</ele>
        <time>2026-05-07T07:35:06.999Z</time>
      </trkpt>
      <trkpt lat="43.58883" lon="2.95616">
        <ele>398.7</ele>
        <time>2026-05-07T07:35:07.999Z</time>
      </trkpt>
      <trkpt lat="43.58882" lon="2.95616">
        <ele>398.9</ele>
        <time>2026-05-07T07:35:08.999Z</time>
      </trkpt>
      <trkpt lat="43.58882" lon="2.95614">
        <ele>397.4</ele>
        <time>2026-05-07T07:35:09.999Z</time>
      </trkpt>
      <trkpt lat="43.58881" lon="2.95613">
        <ele>397.1</ele>
        <time>2026-05-07T07:35:10.999Z</time>
      </trkpt>
      <trkpt lat="43.5888" lon="2.95612">
        <ele>397.7</ele>
        <time>2026-05-07T07:35:11.999Z</time>
      </trkpt>
      <trkpt lat="43.58879" lon="2.95611">
        <ele>398.6</ele>
        <time>2026-05-07T07:35:12.999Z</time>
      </trkpt>
      <trkpt lat="43.58878" lon="2.95611">
        <ele>399.3</ele>
        <time>2026-05-07T07:35:13.999Z</time>
      </trkpt>
      <trkpt lat="43.58877" lon="2.9561">
        <ele>399.8</ele>
        <time>2026-05-07T07:35:14.999Z</time>
      </trkpt>
      <trkpt lat="43.58877" lon="2.95609">
        <ele>400.3</ele>
        <time>2026-05-07T07:35:15.999Z</time>
      </trkpt>
      <trkpt lat="43.58876" lon="2.95607">
        <ele>400.5</ele>
        <time>2026-05-07T07:35:16.999Z</time>
      </trkpt>
      <trkpt lat="43.58875" lon="2.95605">
        <ele>401</ele>
        <time>2026-05-07T07:35:17.999Z</time>
      </trkpt>
      <trkpt lat="43.58874" lon="2.95603">
        <ele>402</ele>
        <time>2026-05-07T07:35:18.999Z</time>
      </trkpt>
      <trkpt lat="43.58873" lon="2.95602">
        <ele>402.5</ele>
        <time>2026-05-07T07:35:19.999Z</time>
      </trkpt>
      <trkpt lat="43.58873" lon="2.95601">
        <ele>403</ele>
        <time>2026-05-07T07:35:20.999Z</time>
      </trkpt>
      <trkpt lat="43.58871" lon="2.95599">
        <ele>403.1</ele>
        <time>2026-05-07T07:35:21.999Z</time>
      </trkpt>
      <trkpt lat="43.5887" lon="2.95599">
        <ele>402.7</ele>
        <time>2026-05-07T07:35:22.999Z</time>
      </trkpt>
      <trkpt lat="43.58869" lon="2.95599">
        <ele>402.3</ele>
        <time>2026-05-07T07:35:23.999Z</time>
      </trkpt>
      <trkpt lat="43.58868" lon="2.95598">
        <ele>402.2</ele>
        <time>2026-05-07T07:35:24.999Z</time>
      </trkpt>
      <trkpt lat="43.58867" lon="2.95597">
        <ele>402.7</ele>
        <time>2026-05-07T07:35:25.999Z</time>
      </trkpt>
      <trkpt lat="43.58866" lon="2.95596">
        <ele>403</ele>
        <time>2026-05-07T07:35:26.999Z</time>
      </trkpt>
      <trkpt lat="43.58865" lon="2.95595">
        <ele>403.7</ele>
        <time>2026-05-07T07:35:27.999Z</time>
      </trkpt>
      <trkpt lat="43.58865" lon="2.95594">
        <ele>403.8</ele>
        <time>2026-05-07T07:35:28.999Z</time>
      </trkpt>
      <trkpt lat="43.58864" lon="2.95594">
        <ele>403.4</ele>
        <time>2026-05-07T07:35:29.999Z</time>
      </trkpt>
      <trkpt lat="43.58864" lon="2.95592">
        <ele>403</ele>
        <time>2026-05-07T07:35:30.999Z</time>
      </trkpt>
      <trkpt lat="43.58863" lon="2.95591">
        <ele>403.3</ele>
        <time>2026-05-07T07:35:31.999Z</time>
      </trkpt>
      <trkpt lat="43.58862" lon="2.95589">
        <ele>403.4</ele>
        <time>2026-05-07T07:35:32.999Z</time>
      </trkpt>
      <trkpt lat="43.58861" lon="2.95587">
        <ele>403.2</ele>
        <time>2026-05-07T07:35:33.999Z</time>
      </trkpt>
      <trkpt lat="43.58861" lon="2.95586">
        <ele>403</ele>
        <time>2026-05-07T07:35:34.999Z</time>
      </trkpt>
      <trkpt lat="43.58861" lon="2.95585">
        <ele>402.4</ele>
        <time>2026-05-07T07:35:35.999Z</time>
      </trkpt>
      <trkpt lat="43.58861" lon="2.95584">
        <ele>402.5</ele>
        <time>2026-05-07T07:35:36.999Z</time>
      </trkpt>
      <trkpt lat="43.5886" lon="2.95581">
        <ele>401.7</ele>
        <time>2026-05-07T07:35:37.999Z</time>
      </trkpt>
      <trkpt lat="43.5886" lon="2.95579">
        <ele>402</ele>
        <time>2026-05-07T07:35:38.999Z</time>
      </trkpt>
      <trkpt lat="43.58859" lon="2.95577">
        <ele>401.4</ele>
        <time>2026-05-07T07:35:39.999Z</time>
      </trkpt>
      <trkpt lat="43.58859" lon="2.95576">
        <ele>401.6</ele>
        <time>2026-05-07T07:35:40.999Z</time>
      </trkpt>
      <trkpt lat="43.58859" lon="2.95574">
        <ele>401.8</ele>
        <time>2026-05-07T07:35:41.999Z</time>
      </trkpt>
      <trkpt lat="43.58859" lon="2.95573">
        <ele>401.5</ele>
        <time>2026-05-07T07:35:42.999Z</time>
      </trkpt>
      <trkpt lat="43.58859" lon="2.95572">
        <ele>401.5</ele>
        <time>2026-05-07T07:35:43.999Z</time>
      </trkpt>
      <trkpt lat="43.58859" lon="2.9557">
        <ele>401.5</ele>
        <time>2026-05-07T07:35:44.999Z</time>
      </trkpt>
      <trkpt lat="43.58859" lon="2.95568">
        <ele>401.3</ele>
        <time>2026-05-07T07:35:45.999Z</time>
      </trkpt>
      <trkpt lat="43.58858" lon="2.95567">
        <ele>401.7</ele>
        <time>2026-05-07T07:35:46.999Z</time>
      </trkpt>
      <trkpt lat="43.58858" lon="2.95566">
        <ele>401.7</ele>
        <time>2026-05-07T07:35:47.999Z</time>
      </trkpt>
      <trkpt lat="43.58858" lon="2.95566">
        <ele>401.6</ele>
        <time>2026-05-07T07:35:48.999Z</time>
      </trkpt>
      <trkpt lat="43.58858" lon="2.95565">
        <ele>401.8</ele>
        <time>2026-05-07T07:35:49.999Z</time>
      </trkpt>
      <trkpt lat="43.58857" lon="2.95565">
        <ele>402.1</ele>
        <time>2026-05-07T07:35:50.999Z</time>
      </trkpt>
      <trkpt lat="43.58857" lon="2.95563">
        <ele>402.4</ele>
        <time>2026-05-07T07:35:51.999Z</time>
      </trkpt>
      <trkpt lat="43.58858" lon="2.95562">
        <ele>402.2</ele>
        <time>2026-05-07T07:35:52.999Z</time>
      </trkpt>
      <trkpt lat="43.58858" lon="2.9556">
        <ele>401.8</ele>
        <time>2026-05-07T07:35:53.999Z</time>
      </trkpt>
      <trkpt lat="43.58858" lon="2.95559">
        <ele>402</ele>
        <time>2026-05-07T07:35:54.999Z</time>
      </trkpt>
      <trkpt lat="43.58859" lon="2.95557">
        <ele>402</ele>
        <time>2026-05-07T07:35:55.999Z</time>
      </trkpt>
      <trkpt lat="43.58859" lon="2.95555">
        <ele>402.9</ele>
        <time>2026-05-07T07:35:56.999Z</time>
      </trkpt>
      <trkpt lat="43.58859" lon="2.95554">
        <ele>403.3</ele>
        <time>2026-05-07T07:35:57.999Z</time>
      </trkpt>
      <trkpt lat="43.5886" lon="2.95553">
        <ele>403.7</ele>
        <time>2026-05-07T07:35:58.999Z</time>
      </trkpt>
      <trkpt lat="43.5886" lon="2.95552">
        <ele>404.4</ele>
        <time>2026-05-07T07:35:59.999Z</time>
      </trkpt>
      <trkpt lat="43.5886" lon="2.95551">
        <ele>404.5</ele>
        <time>2026-05-07T07:36:00.999Z</time>
      </trkpt>
      <trkpt lat="43.5886" lon="2.95549">
        <ele>404.5</ele>
        <time>2026-05-07T07:36:01.999Z</time>
      </trkpt>
      <trkpt lat="43.58859" lon="2.95548">
        <ele>404.7</ele>
        <time>2026-05-07T07:36:02.999Z</time>
      </trkpt>
      <trkpt lat="43.58859" lon="2.95547">
        <ele>404.8</ele>
        <time>2026-05-07T07:36:03.999Z</time>
      </trkpt>
      <trkpt lat="43.58858" lon="2.95546">
        <ele>404.9</ele>
        <time>2026-05-07T07:36:04.999Z</time>
      </trkpt>
      <trkpt lat="43.58857" lon="2.95545">
        <ele>405.5</ele>
        <time>2026-05-07T07:36:05.999Z</time>
      </trkpt>
      <trkpt lat="43.58857" lon="2.95544">
        <ele>405.6</ele>
        <time>2026-05-07T07:36:06.999Z</time>
      </trkpt>
      <trkpt lat="43.58856" lon="2.95542">
        <ele>406.4</ele>
        <time>2026-05-07T07:36:07.999Z</time>
      </trkpt>
      <trkpt lat="43.58855" lon="2.9554">
        <ele>407.2</ele>
        <time>2026-05-07T07:36:08.999Z</time>
      </trkpt>
      <trkpt lat="43.58855" lon="2.95539">
        <ele>407.6</ele>
        <time>2026-05-07T07:36:09.999Z</time>
      </trkpt>
      <trkpt lat="43.58854" lon="2.95537">
        <ele>407.4</ele>
        <time>2026-05-07T07:36:10.999Z</time>
      </trkpt>
      <trkpt lat="43.58854" lon="2.95535">
        <ele>407</ele>
        <time>2026-05-07T07:36:11.999Z</time>
      </trkpt>
      <trkpt lat="43.58853" lon="2.95534">
        <ele>407.1</ele>
        <time>2026-05-07T07:36:12.999Z</time>
      </trkpt>
      <trkpt lat="43.58852" lon="2.95532">
        <ele>406.6</ele>
        <time>2026-05-07T07:36:13.999Z</time>
      </trkpt>
      <trkpt lat="43.58851" lon="2.95531">
        <ele>406.4</ele>
        <time>2026-05-07T07:36:14.999Z</time>
      </trkpt>
      <trkpt lat="43.5885" lon="2.95529">
        <ele>406.5</ele>
        <time>2026-05-07T07:36:15.999Z</time>
      </trkpt>
      <trkpt lat="43.5885" lon="2.95529">
        <ele>406.8</ele>
        <time>2026-05-07T07:36:16.999Z</time>
      </trkpt>
      <trkpt lat="43.5885" lon="2.95528">
        <ele>406.6</ele>
        <time>2026-05-07T07:36:17.999Z</time>
      </trkpt>
      <trkpt lat="43.58849" lon="2.95527">
        <ele>407.3</ele>
        <time>2026-05-07T07:36:18.999Z</time>
      </trkpt>
      <trkpt lat="43.58849" lon="2.95526">
        <ele>407.3</ele>
        <time>2026-05-07T07:36:19.999Z</time>
      </trkpt>
      <trkpt lat="43.58849" lon="2.95525">
        <ele>407.4</ele>
        <time>2026-05-07T07:36:20.999Z</time>
      </trkpt>
      <trkpt lat="43.58848" lon="2.95523">
        <ele>407.7</ele>
        <time>2026-05-07T07:36:21.999Z</time>
      </trkpt>
      <trkpt lat="43.58848" lon="2.95522">
        <ele>407.4</ele>
        <time>2026-05-07T07:36:22.999Z</time>
      </trkpt>
      <trkpt lat="43.58848" lon="2.95521">
        <ele>407.3</ele>
        <time>2026-05-07T07:36:23.999Z</time>
      </trkpt>
      <trkpt lat="43.58848" lon="2.95519">
        <ele>407.1</ele>
        <time>2026-05-07T07:36:24.999Z</time>
      </trkpt>
      <trkpt lat="43.58847" lon="2.95518">
        <ele>406.5</ele>
        <time>2026-05-07T07:36:25.999Z</time>
      </trkpt>
      <trkpt lat="43.58846" lon="2.95518">
        <ele>406.1</ele>
        <time>2026-05-07T07:36:26.999Z</time>
      </trkpt>
      <trkpt lat="43.58845" lon="2.95517">
        <ele>406</ele>
        <time>2026-05-07T07:36:27.999Z</time>
      </trkpt>
      <trkpt lat="43.58844" lon="2.95516">
        <ele>405.4</ele>
        <time>2026-05-07T07:36:28.999Z</time>
      </trkpt>
      <trkpt lat="43.58843" lon="2.95515">
        <ele>405</ele>
        <time>2026-05-07T07:36:29.999Z</time>
      </trkpt>
      <trkpt lat="43.58842" lon="2.95515">
        <ele>405.5</ele>
        <time>2026-05-07T07:36:30.999Z</time>
      </trkpt>
      <trkpt lat="43.58841" lon="2.95514">
        <ele>406.1</ele>
        <time>2026-05-07T07:36:31.999Z</time>
      </trkpt>
      <trkpt lat="43.5884" lon="2.95513">
        <ele>406.2</ele>
        <time>2026-05-07T07:36:32.999Z</time>
      </trkpt>
      <trkpt lat="43.58839" lon="2.95512">
        <ele>406.4</ele>
        <time>2026-05-07T07:36:33.999Z</time>
      </trkpt>
      <trkpt lat="43.58839" lon="2.95511">
        <ele>406.5</ele>
        <time>2026-05-07T07:36:34.999Z</time>
      </trkpt>
      <trkpt lat="43.58838" lon="2.9551">
        <ele>406.7</ele>
        <time>2026-05-07T07:36:35.999Z</time>
      </trkpt>
      <trkpt lat="43.58837" lon="2.95509">
        <ele>406.6</ele>
        <time>2026-05-07T07:36:36.999Z</time>
      </trkpt>
      <trkpt lat="43.58837" lon="2.95509">
        <ele>406.9</ele>
        <time>2026-05-07T07:36:37.999Z</time>
      </trkpt>
      <trkpt lat="43.58836" lon="2.95508">
        <ele>407.1</ele>
        <time>2026-05-07T07:36:38.999Z</time>
      </trkpt>
      <trkpt lat="43.58836" lon="2.95506">
        <ele>406.9</ele>
        <time>2026-05-07T07:36:39.999Z</time>
      </trkpt>
      <trkpt lat="43.58835" lon="2.95504">
        <ele>407.1</ele>
        <time>2026-05-07T07:36:40.999Z</time>
      </trkpt>
      <trkpt lat="43.58835" lon="2.95503">
        <ele>407.3</ele>
        <time>2026-05-07T07:36:41.999Z</time>
      </trkpt>
      <trkpt lat="43.58835" lon="2.95502">
        <ele>407</ele>
        <time>2026-05-07T07:36:42.999Z</time>
      </trkpt>
      <trkpt lat="43.58834" lon="2.95501">
        <ele>406.7</ele>
        <time>2026-05-07T07:36:43.999Z</time>
      </trkpt>
      <trkpt lat="43.58834" lon="2.955">
        <ele>406.8</ele>
        <time>2026-05-07T07:36:44.999Z</time>
      </trkpt>
      <trkpt lat="43.58834" lon="2.95499">
        <ele>406.5</ele>
        <time>2026-05-07T07:36:45.999Z</time>
      </trkpt>
      <trkpt lat="43.58834" lon="2.95499">
        <ele>406.3</ele>
        <time>2026-05-07T07:36:46.999Z</time>
      </trkpt>
      <trkpt lat="43.58834" lon="2.955">
        <ele>406.8</ele>
        <time>2026-05-07T07:36:47.999Z</time>
      </trkpt>
      <trkpt lat="43.58834" lon="2.955">
        <ele>406.8</ele>
        <time>2026-05-07T07:36:48.999Z</time>
      </trkpt>
      <trkpt lat="43.58834" lon="2.955">
        <ele>406.7</ele>
        <time>2026-05-07T07:36:49.999Z</time>
      </trkpt>
      <trkpt lat="43.58834" lon="2.955">
        <ele>407</ele>
        <time>2026-05-07T07:36:50.999Z</time>
      </trkpt>
      <trkpt lat="43.58834" lon="2.95499">
        <ele>407.2</ele>
        <time>2026-05-07T07:36:51.999Z</time>
      </trkpt>
      <trkpt lat="43.58835" lon="2.95499">
        <ele>407.1</ele>
        <time>2026-05-07T07:36:52.999Z</time>
      </trkpt>
      <trkpt lat="43.58835" lon="2.95499">
        <ele>407</ele>
        <time>2026-05-07T07:36:53.999Z</time>
      </trkpt>
      <trkpt lat="43.58836" lon="2.95499">
        <ele>406.6</ele>
        <time>2026-05-07T07:36:54.999Z</time>
      </trkpt>
      <trkpt lat="43.58837" lon="2.95499">
        <ele>406.8</ele>
        <time>2026-05-07T07:36:55.999Z</time>
      </trkpt>
      <trkpt lat="43.58837" lon="2.95499">
        <ele>406.8</ele>
        <time>2026-05-07T07:36:56.999Z</time>
      </trkpt>
      <trkpt lat="43.58837" lon="2.95499">
        <ele>407</ele>
        <time>2026-05-07T07:36:57.999Z</time>
      </trkpt>
      <trkpt lat="43.58837" lon="2.95498">
        <ele>407.3</ele>
        <time>2026-05-07T07:36:58.999Z</time>
      </trkpt>
      <trkpt lat="43.58837" lon="2.95498">
        <ele>407.3</ele>
        <time>2026-05-07T07:36:59.999Z</time>
      </trkpt>
      <trkpt lat="43.58837" lon="2.95498">
        <ele>407.3</ele>
        <time>2026-05-07T07:37:00.999Z</time>
      </trkpt>
      <trkpt lat="43.58837" lon="2.95498">
        <ele>407.8</ele>
        <time>2026-05-07T07:37:01.999Z</time>
      </trkpt>
      <trkpt lat="43.58837" lon="2.95498">
        <ele>408.1</ele>
        <time>2026-05-07T07:37:02.999Z</time>
      </trkpt>
      <trkpt lat="43.58837" lon="2.95498">
        <ele>407.9</ele>
        <time>2026-05-07T07:37:03.999Z</time>
      </trkpt>
      <trkpt lat="43.58837" lon="2.95498">
        <ele>408</ele>
        <time>2026-05-07T07:37:04.999Z</time>
      </trkpt>
      <trkpt lat="43.58837" lon="2.95498">
        <ele>408.2</ele>
        <time>2026-05-07T07:37:05.999Z</time>
      </trkpt>
      <trkpt lat="43.58836" lon="2.95498">
        <ele>408.6</ele>
        <time>2026-05-07T07:37:06.999Z</time>
      </trkpt>
      <trkpt lat="43.58835" lon="2.95498">
        <ele>408.8</ele>
        <time>2026-05-07T07:37:07.999Z</time>
      </trkpt>
      <trkpt lat="43.58835" lon="2.95498">
        <ele>409</ele>
        <time>2026-05-07T07:37:08.999Z</time>
      </trkpt>
      <trkpt lat="43.58835" lon="2.95498">
        <ele>409</ele>
        <time>2026-05-07T07:37:09.999Z</time>
      </trkpt>
      <trkpt lat="43.58835" lon="2.95498">
        <ele>408.8</ele>
        <time>2026-05-07T07:37:10.999Z</time>
      </trkpt>
      <trkpt lat="43.58835" lon="2.95498">
        <ele>408.6</ele>
        <time>2026-05-07T07:37:11.999Z</time>
      </trkpt>
      <trkpt lat="43.58835" lon="2.95498">
        <ele>408.2</ele>
        <time>2026-05-07T07:37:12.999Z</time>
      </trkpt>
      <trkpt lat="43.58835" lon="2.95498">
        <ele>407.7</ele>
        <time>2026-05-07T07:37:13.999Z</time>
      </trkpt>
      <trkpt lat="43.58835" lon="2.95498">
        <ele>407.9</ele>
        <time>2026-05-07T07:37:14.999Z</time>
      </trkpt>
      <trkpt lat="43.58835" lon="2.95498">
        <ele>407.9</ele>
        <time>2026-05-07T07:37:15.999Z</time>
      </trkpt>
      <trkpt lat="43.58835" lon="2.95498">
        <ele>407.7</ele>
        <time>2026-05-07T07:37:16.999Z</time>
      </trkpt>
      <trkpt lat="43.58835" lon="2.95498">
        <ele>407.6</ele>
        <time>2026-05-07T07:37:17.999Z</time>
      </trkpt>
      <trkpt lat="43.58835" lon="2.95498">
        <ele>407.6</ele>
        <time>2026-05-07T07:37:18.999Z</time>
      </trkpt>
      <trkpt lat="43.58835" lon="2.95498">
        <ele>407.8</ele>
        <time>2026-05-07T07:37:19.999Z</time>
      </trkpt>
      <trkpt lat="43.58835" lon="2.95498">
        <ele>407.8</ele>
        <time>2026-05-07T07:37:20.999Z</time>
      </trkpt>
      <trkpt lat="43.58835" lon="2.95498">
        <ele>407.7</ele>
        <time>2026-05-07T07:37:21.999Z</time>
      </trkpt>
      <trkpt lat="43.58835" lon="2.95498">
        <ele>407.5</ele>
        <time>2026-05-07T07:37:22.999Z</time>
      </trkpt>
      <trkpt lat="43.58835" lon="2.95498">
        <ele>407.4</ele>
        <time>2026-05-07T07:37:23.999Z</time>
      </trkpt>
      <trkpt lat="43.58835" lon="2.95498">
        <ele>407.4</ele>
        <time>2026-05-07T07:37:24.999Z</time>
      </trkpt>
      <trkpt lat="43.58835" lon="2.95498">
        <ele>407.1</ele>
        <time>2026-05-07T07:37:25.999Z</time>
      </trkpt>
      <trkpt lat="43.58835" lon="2.95498">
        <ele>407.2</ele>
        <time>2026-05-07T07:37:26.999Z</time>
      </trkpt>
      <trkpt lat="43.58836" lon="2.95498">
        <ele>407.2</ele>
        <time>2026-05-07T07:37:27.999Z</time>
      </trkpt>
      <trkpt lat="43.58836" lon="2.95498">
        <ele>407.5</ele>
        <time>2026-05-07T07:37:28.999Z</time>
      </trkpt>
      <trkpt lat="43.58836" lon="2.95498">
        <ele>407.5</ele>
        <time>2026-05-07T07:37:29.999Z</time>
      </trkpt>
      <trkpt lat="43.58836" lon="2.95499">
        <ele>407.7</ele>
        <time>2026-05-07T07:37:30.999Z</time>
      </trkpt>
      <trkpt lat="43.58836" lon="2.95499">
        <ele>407.8</ele>
        <time>2026-05-07T07:37:31.999Z</time>
      </trkpt>
      <trkpt lat="43.58836" lon="2.95499">
        <ele>407.8</ele>
        <time>2026-05-07T07:37:32.999Z</time>
      </trkpt>
      <trkpt lat="43.58835" lon="2.95499">
        <ele>407.6</ele>
        <time>2026-05-07T07:37:33.999Z</time>
      </trkpt>
      <trkpt lat="43.58835" lon="2.95499">
        <ele>407.6</ele>
        <time>2026-05-07T07:37:34.999Z</time>
      </trkpt>
      <trkpt lat="43.58835" lon="2.95499">
        <ele>407.7</ele>
        <time>2026-05-07T07:37:35.999Z</time>
      </trkpt>
      <trkpt lat="43.58835" lon="2.95499">
        <ele>407.5</ele>
        <time>2026-05-07T07:37:36.999Z</time>
      </trkpt>
      <trkpt lat="43.58835" lon="2.95499">
        <ele>407</ele>
        <time>2026-05-07T07:37:37.999Z</time>
      </trkpt>
      <trkpt lat="43.58835" lon="2.95499">
        <ele>406.6</ele>
        <time>2026-05-07T07:37:38.999Z</time>
      </trkpt>
      <trkpt lat="43.58835" lon="2.95499">
        <ele>406.3</ele>
        <time>2026-05-07T07:37:39.999Z</time>
      </trkpt>
      <trkpt lat="43.58835" lon="2.95499">
        <ele>406</ele>
        <time>2026-05-07T07:37:40.999Z</time>
      </trkpt>
      <trkpt lat="43.58835" lon="2.95499">
        <ele>405.9</ele>
        <time>2026-05-07T07:37:41.999Z</time>
      </trkpt>
      <trkpt lat="43.58835" lon="2.95499">
        <ele>405.4</ele>
        <time>2026-05-07T07:37:42.999Z</time>
      </trkpt>
      <trkpt lat="43.58835" lon="2.95499">
        <ele>405.5</ele>
        <time>2026-05-07T07:37:43.999Z</time>
      </trkpt>
      <trkpt lat="43.58835" lon="2.95499">
        <ele>405.4</ele>
        <time>2026-05-07T07:37:44.999Z</time>
      </trkpt>
      <trkpt lat="43.58835" lon="2.95499">
        <ele>405.7</ele>
        <time>2026-05-07T07:37:45.999Z</time>
      </trkpt>
      <trkpt lat="43.58835" lon="2.95499">
        <ele>406</ele>
        <time>2026-05-07T07:37:46.999Z</time>
      </trkpt>
      <trkpt lat="43.58835" lon="2.95499">
        <ele>406.3</ele>
        <time>2026-05-07T07:37:47.999Z</time>
      </trkpt>
      <trkpt lat="43.58834" lon="2.95499">
        <ele>406.4</ele>
        <time>2026-05-07T07:37:48.999Z</time>
      </trkpt>
      <trkpt lat="43.58834" lon="2.95498">
        <ele>406.4</ele>
        <time>2026-05-07T07:37:49.999Z</time>
      </trkpt>
      <trkpt lat="43.58834" lon="2.95498">
        <ele>406.8</ele>
        <time>2026-05-07T07:37:50.999Z</time>
      </trkpt>
      <trkpt lat="43.58834" lon="2.95498">
        <ele>407.3</ele>
        <time>2026-05-07T07:37:51.999Z</time>
      </trkpt>
      <trkpt lat="43.58834" lon="2.95498">
        <ele>407.9</ele>
        <time>2026-05-07T07:37:52.999Z</time>
      </trkpt>
      <trkpt lat="43.58834" lon="2.95498">
        <ele>408.4</ele>
        <time>2026-05-07T07:37:53.999Z</time>
      </trkpt>
      <trkpt lat="43.58834" lon="2.95498">
        <ele>408.6</ele>
        <time>2026-05-07T07:37:54.999Z</time>
      </trkpt>
      <trkpt lat="43.58834" lon="2.95498">
        <ele>408.6</ele>
        <time>2026-05-07T07:37:55.999Z</time>
      </trkpt>
      <trkpt lat="43.58834" lon="2.95497">
        <ele>408.6</ele>
        <time>2026-05-07T07:37:56.999Z</time>
      </trkpt>
      <trkpt lat="43.58833" lon="2.95497">
        <ele>408.7</ele>
        <time>2026-05-07T07:37:57.999Z</time>
      </trkpt>
      <trkpt lat="43.58833" lon="2.95497">
        <ele>408.8</ele>
        <time>2026-05-07T07:37:58.999Z</time>
      </trkpt>
      <trkpt lat="43.58833" lon="2.95497">
        <ele>408.5</ele>
        <time>2026-05-07T07:37:59.999Z</time>
      </trkpt>
      <trkpt lat="43.58833" lon="2.95497">
        <ele>408.3</ele>
        <time>2026-05-07T07:38:00.999Z</time>
      </trkpt>
      <trkpt lat="43.58833" lon="2.95497">
        <ele>407.9</ele>
        <time>2026-05-07T07:38:01.999Z</time>
      </trkpt>
      <trkpt lat="43.58833" lon="2.95497">
        <ele>407.8</ele>
        <time>2026-05-07T07:38:02.999Z</time>
      </trkpt>
      <trkpt lat="43.58834" lon="2.95497">
        <ele>407.9</ele>
        <time>2026-05-07T07:38:03.999Z</time>
      </trkpt>
      <trkpt lat="43.58833" lon="2.95498">
        <ele>407.8</ele>
        <time>2026-05-07T07:38:04.999Z</time>
      </trkpt>
      <trkpt lat="43.58833" lon="2.95499">
        <ele>407.8</ele>
        <time>2026-05-07T07:38:05.999Z</time>
      </trkpt>
      <trkpt lat="43.58833" lon="2.95499">
        <ele>407.9</ele>
        <time>2026-05-07T07:38:06.999Z</time>
      </trkpt>
      <trkpt lat="43.58833" lon="2.95499">
        <ele>408.2</ele>
        <time>2026-05-07T07:38:07.999Z</time>
      </trkpt>
      <trkpt lat="43.58833" lon="2.95499">
        <ele>408.1</ele>
        <time>2026-05-07T07:38:08.999Z</time>
      </trkpt>
      <trkpt lat="43.58833" lon="2.95499">
        <ele>408.1</ele>
        <time>2026-05-07T07:38:09.999Z</time>
      </trkpt>
      <trkpt lat="43.58833" lon="2.95499">
        <ele>408</ele>
        <time>2026-05-07T07:38:10.999Z</time>
      </trkpt>
      <trkpt lat="43.58833" lon="2.95499">
        <ele>408</ele>
        <time>2026-05-07T07:38:11.999Z</time>
      </trkpt>
      <trkpt lat="43.58834" lon="2.95499">
        <ele>408.1</ele>
        <time>2026-05-07T07:38:12.999Z</time>
      </trkpt>
      <trkpt lat="43.58834" lon="2.95498">
        <ele>408.4</ele>
        <time>2026-05-07T07:38:13.999Z</time>
      </trkpt>
      <trkpt lat="43.58835" lon="2.95498">
        <ele>408.7</ele>
        <time>2026-05-07T07:38:14.999Z</time>
      </trkpt>
      <trkpt lat="43.58835" lon="2.95498">
        <ele>409</ele>
        <time>2026-05-07T07:38:15.999Z</time>
      </trkpt>
      <trkpt lat="43.58835" lon="2.95498">
        <ele>409</ele>
        <time>2026-05-07T07:38:16.999Z</time>
      </trkpt>
      <trkpt lat="43.58835" lon="2.95498">
        <ele>408.6</ele>
        <time>2026-05-07T07:38:17.999Z</time>
      </trkpt>
      <trkpt lat="43.58835" lon="2.95498">
        <ele>408.2</ele>
        <time>2026-05-07T07:38:18.999Z</time>
      </trkpt>
      <trkpt lat="43.58835" lon="2.95498">
        <ele>408.2</ele>
        <time>2026-05-07T07:38:19.999Z</time>
      </trkpt>
      <trkpt lat="43.58835" lon="2.95498">
        <ele>407.9</ele>
        <time>2026-05-07T07:38:20.999Z</time>
      </trkpt>
      <trkpt lat="43.58835" lon="2.95498">
        <ele>407.9</ele>
        <time>2026-05-07T07:38:21.999Z</time>
      </trkpt>
      <trkpt lat="43.58835" lon="2.95498">
        <ele>407.9</ele>
        <time>2026-05-07T07:38:22.999Z</time>
      </trkpt>
      <trkpt lat="43.58835" lon="2.95498">
        <ele>408</ele>
        <time>2026-05-07T07:38:23.999Z</time>
      </trkpt>
      <trkpt lat="43.58835" lon="2.95499">
        <ele>408.1</ele>
        <time>2026-05-07T07:38:24.999Z</time>
      </trkpt>
      <trkpt lat="43.58835" lon="2.95499">
        <ele>408.1</ele>
        <time>2026-05-07T07:38:25.999Z</time>
      </trkpt>
      <trkpt lat="43.58835" lon="2.95499">
        <ele>407.9</ele>
        <time>2026-05-07T07:38:26.999Z</time>
      </trkpt>
      <trkpt lat="43.58835" lon="2.95499">
        <ele>408</ele>
        <time>2026-05-07T07:38:27.999Z</time>
      </trkpt>
      <trkpt lat="43.58835" lon="2.95499">
        <ele>408.1</ele>
        <time>2026-05-07T07:38:28.999Z</time>
      </trkpt>
      <trkpt lat="43.58835" lon="2.95499">
        <ele>408.1</ele>
        <time>2026-05-07T07:38:29.999Z</time>
      </trkpt>
      <trkpt lat="43.58834" lon="2.95499">
        <ele>408</ele>
        <time>2026-05-07T07:38:30.999Z</time>
      </trkpt>
      <trkpt lat="43.58834" lon="2.95499">
        <ele>408.1</ele>
        <time>2026-05-07T07:38:31.999Z</time>
      </trkpt>
      <trkpt lat="43.58834" lon="2.955">
        <ele>407.7</ele>
        <time>2026-05-07T07:38:32.999Z</time>
      </trkpt>
      <trkpt lat="43.58834" lon="2.955">
        <ele>407.3</ele>
        <time>2026-05-07T07:38:33.999Z</time>
      </trkpt>
      <trkpt lat="43.58834" lon="2.955">
        <ele>407.1</ele>
        <time>2026-05-07T07:38:34.999Z</time>
      </trkpt>
      <trkpt lat="43.58834" lon="2.955">
        <ele>407.2</ele>
        <time>2026-05-07T07:38:35.999Z</time>
      </trkpt>
      <trkpt lat="43.58834" lon="2.955">
        <ele>407.4</ele>
        <time>2026-05-07T07:38:36.999Z</time>
      </trkpt>
      <trkpt lat="43.58834" lon="2.955">
        <ele>407.4</ele>
        <time>2026-05-07T07:38:37.999Z</time>
      </trkpt>
      <trkpt lat="43.58834" lon="2.955">
        <ele>407.6</ele>
        <time>2026-05-07T07:38:38.999Z</time>
      </trkpt>
      <trkpt lat="43.58834" lon="2.955">
        <ele>407.8</ele>
        <time>2026-05-07T07:38:39.999Z</time>
      </trkpt>
      <trkpt lat="43.58834" lon="2.955">
        <ele>407.8</ele>
        <time>2026-05-07T07:38:40.999Z</time>
      </trkpt>
      <trkpt lat="43.58834" lon="2.955">
        <ele>407.9</ele>
        <time>2026-05-07T07:38:41.999Z</time>
      </trkpt>
      <trkpt lat="43.58834" lon="2.955">
        <ele>407.9</ele>
        <time>2026-05-07T07:38:42.999Z</time>
      </trkpt>
      <trkpt lat="43.58834" lon="2.955">
        <ele>408.2</ele>
        <time>2026-05-07T07:38:43.999Z</time>
      </trkpt>
      <trkpt lat="43.58834" lon="2.955">
        <ele>408.5</ele>
        <time>2026-05-07T07:38:44.999Z</time>
      </trkpt>
      <trkpt lat="43.58834" lon="2.955">
        <ele>408.7</ele>
        <time>2026-05-07T07:38:45.999Z</time>
      </trkpt>
      <trkpt lat="43.58834" lon="2.955">
        <ele>409</ele>
        <time>2026-05-07T07:38:46.999Z</time>
      </trkpt>
      <trkpt lat="43.58834" lon="2.955">
        <ele>409.1</ele>
        <time>2026-05-07T07:38:47.999Z</time>
      </trkpt>
      <trkpt lat="43.58834" lon="2.955">
        <ele>409.1</ele>
        <time>2026-05-07T07:38:48.999Z</time>
      </trkpt>
      <trkpt lat="43.58834" lon="2.955">
        <ele>409</ele>
        <time>2026-05-07T07:38:49.999Z</time>
      </trkpt>
      <trkpt lat="43.58834" lon="2.955">
        <ele>408.7</ele>
        <time>2026-05-07T07:38:51.000Z</time>
      </trkpt>
      <trkpt lat="43.58834" lon="2.955">
        <ele>408.4</ele>
        <time>2026-05-07T07:38:52.000Z</time>
      </trkpt>
      <trkpt lat="43.58834" lon="2.955">
        <ele>408.2</ele>
        <time>2026-05-07T07:38:53.000Z</time>
      </trkpt>
      <trkpt lat="43.58834" lon="2.955">
        <ele>408.3</ele>
        <time>2026-05-07T07:38:54.000Z</time>
      </trkpt>
      <trkpt lat="43.58834" lon="2.955">
        <ele>408.2</ele>
        <time>2026-05-07T07:38:55.000Z</time>
      </trkpt>
      <trkpt lat="43.58834" lon="2.955">
        <ele>408.1</ele>
        <time>2026-05-07T07:38:56.000Z</time>
      </trkpt>
      <trkpt lat="43.58834" lon="2.955">
        <ele>408.1</ele>
        <time>2026-05-07T07:38:57.000Z</time>
      </trkpt>
      <trkpt lat="43.58834" lon="2.955">
        <ele>408.1</ele>
        <time>2026-05-07T07:38:58.000Z</time>
      </trkpt>
      <trkpt lat="43.58834" lon="2.955">
        <ele>408</ele>
        <time>2026-05-07T07:38:59.000Z</time>
      </trkpt>
      <trkpt lat="43.58834" lon="2.955">
        <ele>407.9</ele>
        <time>2026-05-07T07:39:00.000Z</time>
      </trkpt>
      <trkpt lat="43.58834" lon="2.955">
        <ele>408</ele>
        <time>2026-05-07T07:39:01.000Z</time>
      </trkpt>
      <trkpt lat="43.58834" lon="2.95501">
        <ele>408</ele>
        <time>2026-05-07T07:39:02.000Z</time>
      </trkpt>
      <trkpt lat="43.58834" lon="2.95501">
        <ele>407.9</ele>
        <time>2026-05-07T07:39:03.000Z</time>
      </trkpt>
      <trkpt lat="43.58834" lon="2.95501">
        <ele>408</ele>
        <time>2026-05-07T07:39:04.000Z</time>
      </trkpt>
      <trkpt lat="43.58833" lon="2.95502">
        <ele>408.2</ele>
        <time>2026-05-07T07:39:05.000Z</time>
      </trkpt>
      <trkpt lat="43.58833" lon="2.95503">
        <ele>408.2</ele>
        <time>2026-05-07T07:39:06.000Z</time>
      </trkpt>
      <trkpt lat="43.58832" lon="2.95503">
        <ele>408</ele>
        <time>2026-05-07T07:39:07.000Z</time>
      </trkpt>
      <trkpt lat="43.58831" lon="2.95503">
        <ele>408.1</ele>
        <time>2026-05-07T07:39:08.000Z</time>
      </trkpt>
      <trkpt lat="43.5883" lon="2.95503">
        <ele>408.2</ele>
        <time>2026-05-07T07:39:09.000Z</time>
      </trkpt>
      <trkpt lat="43.5883" lon="2.95502">
        <ele>408.1</ele>
        <time>2026-05-07T07:39:10.000Z</time>
      </trkpt>
      <trkpt lat="43.58831" lon="2.95502">
        <ele>408</ele>
        <time>2026-05-07T07:39:11.000Z</time>
      </trkpt>
      <trkpt lat="43.58831" lon="2.95501">
        <ele>407.8</ele>
        <time>2026-05-07T07:39:12.000Z</time>
      </trkpt>
      <trkpt lat="43.58831" lon="2.95501">
        <ele>407.6</ele>
        <time>2026-05-07T07:39:13.000Z</time>
      </trkpt>
      <trkpt lat="43.58831" lon="2.95501">
        <ele>407.8</ele>
        <time>2026-05-07T07:39:14.000Z</time>
      </trkpt>
      <trkpt lat="43.58831" lon="2.95501">
        <ele>407.8</ele>
        <time>2026-05-07T07:39:15.000Z</time>
      </trkpt>
      <trkpt lat="43.58831" lon="2.95501">
        <ele>407.9</ele>
        <time>2026-05-07T07:39:16.000Z</time>
      </trkpt>
      <trkpt lat="43.58831" lon="2.95501">
        <ele>407.3</ele>
        <time>2026-05-07T07:39:17.000Z</time>
      </trkpt>
      <trkpt lat="43.58831" lon="2.95501">
        <ele>407.3</ele>
        <time>2026-05-07T07:39:18.000Z</time>
      </trkpt>
      <trkpt lat="43.58832" lon="2.95501">
        <ele>407.1</ele>
        <time>2026-05-07T07:39:19.000Z</time>
      </trkpt>
      <trkpt lat="43.58831" lon="2.95501">
        <ele>406.7</ele>
        <time>2026-05-07T07:39:20.000Z</time>
      </trkpt>
      <trkpt lat="43.58832" lon="2.95501">
        <ele>406.5</ele>
        <time>2026-05-07T07:39:21.000Z</time>
      </trkpt>
      <trkpt lat="43.58832" lon="2.95501">
        <ele>406.8</ele>
        <time>2026-05-07T07:39:22.000Z</time>
      </trkpt>
      <trkpt lat="43.58832" lon="2.95501">
        <ele>407</ele>
        <time>2026-05-07T07:39:23.000Z</time>
      </trkpt>
      <trkpt lat="43.58832" lon="2.95501">
        <ele>407.2</ele>
        <time>2026-05-07T07:39:24.000Z</time>
      </trkpt>
      <trkpt lat="43.58832" lon="2.95501">
        <ele>407.3</ele>
        <time>2026-05-07T07:39:25.000Z</time>
      </trkpt>
      <trkpt lat="43.58832" lon="2.95501">
        <ele>407.3</ele>
        <time>2026-05-07T07:39:26.000Z</time>
      </trkpt>
      <trkpt lat="43.58832" lon="2.95501">
        <ele>407.2</ele>
        <time>2026-05-07T07:39:27.000Z</time>
      </trkpt>
      <trkpt lat="43.58832" lon="2.95501">
        <ele>407.1</ele>
        <time>2026-05-07T07:39:28.000Z</time>
      </trkpt>
      <trkpt lat="43.58831" lon="2.95501">
        <ele>407.2</ele>
        <time>2026-05-07T07:39:29.000Z</time>
      </trkpt>
      <trkpt lat="43.58832" lon="2.95501">
        <ele>407</ele>
        <time>2026-05-07T07:39:30.000Z</time>
      </trkpt>
      <trkpt lat="43.58832" lon="2.95501">
        <ele>407.1</ele>
        <time>2026-05-07T07:39:31.000Z</time>
      </trkpt>
      <trkpt lat="43.58832" lon="2.955">
        <ele>407.4</ele>
        <time>2026-05-07T07:39:32.000Z</time>
      </trkpt>
      <trkpt lat="43.58832" lon="2.955">
        <ele>407.6</ele>
        <time>2026-05-07T07:39:33.000Z</time>
      </trkpt>
      <trkpt lat="43.58832" lon="2.95499">
        <ele>408</ele>
        <time>2026-05-07T07:39:34.000Z</time>
      </trkpt>
      <trkpt lat="43.58832" lon="2.95498">
        <ele>407.8</ele>
        <time>2026-05-07T07:39:35.000Z</time>
      </trkpt>
      <trkpt lat="43.58833" lon="2.95496">
        <ele>408</ele>
        <time>2026-05-07T07:39:36.000Z</time>
      </trkpt>
      <trkpt lat="43.58834" lon="2.95495">
        <ele>408.1</ele>
        <time>2026-05-07T07:39:37.000Z</time>
      </trkpt>
      <trkpt lat="43.58835" lon="2.95494">
        <ele>408</ele>
        <time>2026-05-07T07:39:38.000Z</time>
      </trkpt>
      <trkpt lat="43.58835" lon="2.95494">
        <ele>408.1</ele>
        <time>2026-05-07T07:39:39.000Z</time>
      </trkpt>
      <trkpt lat="43.58835" lon="2.95494">
        <ele>408.4</ele>
        <time>2026-05-07T07:39:40.000Z</time>
      </trkpt>
      <trkpt lat="43.58835" lon="2.95494">
        <ele>408.4</ele>
        <time>2026-05-07T07:39:41.000Z</time>
      </trkpt>
      <trkpt lat="43.58835" lon="2.95494">
        <ele>408.1</ele>
        <time>2026-05-07T07:39:42.000Z</time>
      </trkpt>
      <trkpt lat="43.58835" lon="2.95494">
        <ele>407.8</ele>
        <time>2026-05-07T07:39:43.000Z</time>
      </trkpt>
      <trkpt lat="43.58835" lon="2.95494">
        <ele>407.3</ele>
        <time>2026-05-07T07:39:44.000Z</time>
      </trkpt>
      <trkpt lat="43.58835" lon="2.95494">
        <ele>406.8</ele>
        <time>2026-05-07T07:39:45.000Z</time>
      </trkpt>
      <trkpt lat="43.58835" lon="2.95494">
        <ele>406.8</ele>
        <time>2026-05-07T07:39:46.000Z</time>
      </trkpt>
      <trkpt lat="43.58835" lon="2.95494">
        <ele>406.8</ele>
        <time>2026-05-07T07:39:47.000Z</time>
      </trkpt>
      <trkpt lat="43.58835" lon="2.95494">
        <ele>406.7</ele>
        <time>2026-05-07T07:39:48.000Z</time>
      </trkpt>
      <trkpt lat="43.58835" lon="2.95494">
        <ele>406.6</ele>
        <time>2026-05-07T07:39:49.000Z</time>
      </trkpt>
      <trkpt lat="43.58835" lon="2.95494">
        <ele>406.5</ele>
        <time>2026-05-07T07:39:50.000Z</time>
      </trkpt>
      <trkpt lat="43.58835" lon="2.95494">
        <ele>406.6</ele>
        <time>2026-05-07T07:39:51.000Z</time>
      </trkpt>
      <trkpt lat="43.58835" lon="2.95494">
        <ele>407</ele>
        <time>2026-05-07T07:39:52.000Z</time>
      </trkpt>
      <trkpt lat="43.58835" lon="2.95494">
        <ele>407.4</ele>
        <time>2026-05-07T07:39:53.000Z</time>
      </trkpt>
      <trkpt lat="43.58835" lon="2.95494">
        <ele>407.4</ele>
        <time>2026-05-07T07:39:54.000Z</time>
      </trkpt>
      <trkpt lat="43.58835" lon="2.95493">
        <ele>407.5</ele>
        <time>2026-05-07T07:39:55.000Z</time>
      </trkpt>
      <trkpt lat="43.58835" lon="2.95493">
        <ele>407.4</ele>
        <time>2026-05-07T07:39:56.000Z</time>
      </trkpt>
      <trkpt lat="43.58835" lon="2.95494">
        <ele>407.3</ele>
        <time>2026-05-07T07:39:57.000Z</time>
      </trkpt>
      <trkpt lat="43.58835" lon="2.95494">
        <ele>406.9</ele>
        <time>2026-05-07T07:39:58.000Z</time>
      </trkpt>
      <trkpt lat="43.58835" lon="2.95494">
        <ele>406.6</ele>
        <time>2026-05-07T07:39:59.000Z</time>
      </trkpt>
      <trkpt lat="43.58835" lon="2.95494">
        <ele>406.8</ele>
        <time>2026-05-07T07:40:00.000Z</time>
      </trkpt>
      <trkpt lat="43.58835" lon="2.95494">
        <ele>406.9</ele>
        <time>2026-05-07T07:40:01.000Z</time>
      </trkpt>
      <trkpt lat="43.58835" lon="2.95494">
        <ele>407.3</ele>
        <time>2026-05-07T07:40:02.000Z</time>
      </trkpt>
      <trkpt lat="43.58835" lon="2.95494">
        <ele>407.6</ele>
        <time>2026-05-07T07:40:03.000Z</time>
      </trkpt>
      <trkpt lat="43.58835" lon="2.95494">
        <ele>408.2</ele>
        <time>2026-05-07T07:40:04.000Z</time>
      </trkpt>
      <trkpt lat="43.58835" lon="2.95494">
        <ele>408.5</ele>
        <time>2026-05-07T07:40:05.000Z</time>
      </trkpt>
      <trkpt lat="43.58835" lon="2.95494">
        <ele>408.8</ele>
        <time>2026-05-07T07:40:06.000Z</time>
      </trkpt>
      <trkpt lat="43.58835" lon="2.95494">
        <ele>408.8</ele>
        <time>2026-05-07T07:40:07.000Z</time>
      </trkpt>
      <trkpt lat="43.58835" lon="2.95494">
        <ele>408.9</ele>
        <time>2026-05-07T07:40:08.000Z</time>
      </trkpt>
      <trkpt lat="43.58835" lon="2.95494">
        <ele>409</ele>
        <time>2026-05-07T07:40:09.000Z</time>
      </trkpt>
      <trkpt lat="43.58835" lon="2.95494">
        <ele>408.9</ele>
        <time>2026-05-07T07:40:10.000Z</time>
      </trkpt>
      <trkpt lat="43.58835" lon="2.95494">
        <ele>408.8</ele>
        <time>2026-05-07T07:40:11.000Z</time>
      </trkpt>
      <trkpt lat="43.58835" lon="2.95494">
        <ele>408.7</ele>
        <time>2026-05-07T07:40:12.000Z</time>
      </trkpt>
      <trkpt lat="43.58835" lon="2.95494">
        <ele>408.7</ele>
        <time>2026-05-07T07:40:13.000Z</time>
      </trkpt>
      <trkpt lat="43.58835" lon="2.95494">
        <ele>408.2</ele>
        <time>2026-05-07T07:40:14.000Z</time>
      </trkpt>
      <trkpt lat="43.58835" lon="2.95494">
        <ele>408</ele>
        <time>2026-05-07T07:40:15.000Z</time>
      </trkpt>
      <trkpt lat="43.58834" lon="2.95493">
        <ele>408.1</ele>
        <time>2026-05-07T07:40:16.000Z</time>
      </trkpt>
      <trkpt lat="43.58834" lon="2.95493">
        <ele>408.2</ele>
        <time>2026-05-07T07:40:17.000Z</time>
      </trkpt>
      <trkpt lat="43.58834" lon="2.95493">
        <ele>408.5</ele>
        <time>2026-05-07T07:40:18.000Z</time>
      </trkpt>
      <trkpt lat="43.58834" lon="2.95493">
        <ele>408.9</ele>
        <time>2026-05-07T07:40:19.000Z</time>
      </trkpt>
      <trkpt lat="43.58834" lon="2.95493">
        <ele>409.1</ele>
        <time>2026-05-07T07:40:20.000Z</time>
      </trkpt>
      <trkpt lat="43.58834" lon="2.95493">
        <ele>409.3</ele>
        <time>2026-05-07T07:40:21.000Z</time>
      </trkpt>
      <trkpt lat="43.58834" lon="2.95493">
        <ele>409.5</ele>
        <time>2026-05-07T07:40:22.000Z</time>
      </trkpt>
      <trkpt lat="43.58834" lon="2.95493">
        <ele>409.4</ele>
        <time>2026-05-07T07:40:23.000Z</time>
      </trkpt>
      <trkpt lat="43.58834" lon="2.95493">
        <ele>409.5</ele>
        <time>2026-05-07T07:40:24.000Z</time>
      </trkpt>
      <trkpt lat="43.58834" lon="2.95493">
        <ele>409.7</ele>
        <time>2026-05-07T07:40:25.000Z</time>
      </trkpt>
      <trkpt lat="43.58834" lon="2.95493">
        <ele>409.7</ele>
        <time>2026-05-07T07:40:26.000Z</time>
      </trkpt>
      <trkpt lat="43.58834" lon="2.95493">
        <ele>409.6</ele>
        <time>2026-05-07T07:40:27.000Z</time>
      </trkpt>
      <trkpt lat="43.58834" lon="2.95493">
        <ele>409.4</ele>
        <time>2026-05-07T07:40:28.000Z</time>
      </trkpt>
      <trkpt lat="43.58835" lon="2.95492">
        <ele>409.1</ele>
        <time>2026-05-07T07:40:29.000Z</time>
      </trkpt>
      <trkpt lat="43.58835" lon="2.95492">
        <ele>409</ele>
        <time>2026-05-07T07:40:30.000Z</time>
      </trkpt>
      <trkpt lat="43.58835" lon="2.95492">
        <ele>408.8</ele>
        <time>2026-05-07T07:40:31.000Z</time>
      </trkpt>
      <trkpt lat="43.58835" lon="2.95492">
        <ele>408.7</ele>
        <time>2026-05-07T07:40:32.000Z</time>
      </trkpt>
      <trkpt lat="43.58835" lon="2.95492">
        <ele>408.4</ele>
        <time>2026-05-07T07:40:33.000Z</time>
      </trkpt>
      <trkpt lat="43.58835" lon="2.95492">
        <ele>408.2</ele>
        <time>2026-05-07T07:40:34.000Z</time>
      </trkpt>
      <trkpt lat="43.58835" lon="2.95492">
        <ele>408.1</ele>
        <time>2026-05-07T07:40:35.000Z</time>
      </trkpt>
      <trkpt lat="43.58835" lon="2.95492">
        <ele>408.2</ele>
        <time>2026-05-07T07:40:36.000Z</time>
      </trkpt>
      <trkpt lat="43.58834" lon="2.95491">
        <ele>408.2</ele>
        <time>2026-05-07T07:40:37.000Z</time>
      </trkpt>
      <trkpt lat="43.58834" lon="2.9549">
        <ele>408.2</ele>
        <time>2026-05-07T07:40:38.000Z</time>
      </trkpt>
      <trkpt lat="43.58834" lon="2.9549">
        <ele>408.5</ele>
        <time>2026-05-07T07:40:39.000Z</time>
      </trkpt>
      <trkpt lat="43.58834" lon="2.9549">
        <ele>408.9</ele>
        <time>2026-05-07T07:40:40.000Z</time>
      </trkpt>
      <trkpt lat="43.58834" lon="2.9549">
        <ele>409.4</ele>
        <time>2026-05-07T07:40:41.000Z</time>
      </trkpt>
      <trkpt lat="43.58834" lon="2.9549">
        <ele>409.8</ele>
        <time>2026-05-07T07:40:42.000Z</time>
      </trkpt>
      <trkpt lat="43.58834" lon="2.9549">
        <ele>410</ele>
        <time>2026-05-07T07:40:43.000Z</time>
      </trkpt>
      <trkpt lat="43.58834" lon="2.9549">
        <ele>409.9</ele>
        <time>2026-05-07T07:40:44.000Z</time>
      </trkpt>
      <trkpt lat="43.58834" lon="2.9549">
        <ele>410</ele>
        <time>2026-05-07T07:40:45.000Z</time>
      </trkpt>
      <trkpt lat="43.58834" lon="2.9549">
        <ele>410</ele>
        <time>2026-05-07T07:40:46.000Z</time>
      </trkpt>
      <trkpt lat="43.58834" lon="2.9549">
        <ele>409.9</ele>
        <time>2026-05-07T07:40:47.000Z</time>
      </trkpt>
      <trkpt lat="43.58834" lon="2.9549">
        <ele>409.9</ele>
        <time>2026-05-07T07:40:48.000Z</time>
      </trkpt>
      <trkpt lat="43.58834" lon="2.9549">
        <ele>410</ele>
        <time>2026-05-07T07:40:49.000Z</time>
      </trkpt>
      <trkpt lat="43.58834" lon="2.9549">
        <ele>410.3</ele>
        <time>2026-05-07T07:40:50.000Z</time>
      </trkpt>
      <trkpt lat="43.58834" lon="2.9549">
        <ele>410.8</ele>
        <time>2026-05-07T07:40:51.000Z</time>
      </trkpt>
      <trkpt lat="43.58834" lon="2.95491">
        <ele>411</ele>
        <time>2026-05-07T07:40:52.000Z</time>
      </trkpt>
      <trkpt lat="43.58833" lon="2.95492">
        <ele>411.3</ele>
        <time>2026-05-07T07:40:53.000Z</time>
      </trkpt>
      <trkpt lat="43.58832" lon="2.95492">
        <ele>411.7</ele>
        <time>2026-05-07T07:40:54.000Z</time>
      </trkpt>
      <trkpt lat="43.58831" lon="2.95492">
        <ele>411.8</ele>
        <time>2026-05-07T07:40:55.000Z</time>
      </trkpt>
      <trkpt lat="43.58831" lon="2.95492">
        <ele>411.9</ele>
        <time>2026-05-07T07:40:56.000Z</time>
      </trkpt>
      <trkpt lat="43.58831" lon="2.95492">
        <ele>412</ele>
        <time>2026-05-07T07:40:57.000Z</time>
      </trkpt>
      <trkpt lat="43.58831" lon="2.95492">
        <ele>411.9</ele>
        <time>2026-05-07T07:40:58.000Z</time>
      </trkpt>
      <trkpt lat="43.58831" lon="2.95492">
        <ele>411.7</ele>
        <time>2026-05-07T07:40:59.000Z</time>
      </trkpt>
      <trkpt lat="43.58831" lon="2.95492">
        <ele>411.8</ele>
        <time>2026-05-07T07:41:00.000Z</time>
      </trkpt>
      <trkpt lat="43.58831" lon="2.95491">
        <ele>411.9</ele>
        <time>2026-05-07T07:41:01.000Z</time>
      </trkpt>
      <trkpt lat="43.58831" lon="2.95491">
        <ele>411.6</ele>
        <time>2026-05-07T07:41:02.000Z</time>
      </trkpt>
      <trkpt lat="43.58831" lon="2.95491">
        <ele>411.2</ele>
        <time>2026-05-07T07:41:03.000Z</time>
      </trkpt>
      <trkpt lat="43.58831" lon="2.95491">
        <ele>411.2</ele>
        <time>2026-05-07T07:41:04.000Z</time>
      </trkpt>
      <trkpt lat="43.58832" lon="2.95492">
        <ele>410.8</ele>
        <time>2026-05-07T07:41:05.000Z</time>
      </trkpt>
      <trkpt lat="43.58831" lon="2.95492">
        <ele>410.7</ele>
        <time>2026-05-07T07:41:06.000Z</time>
      </trkpt>
      <trkpt lat="43.58832" lon="2.95493">
        <ele>410.5</ele>
        <time>2026-05-07T07:41:07.000Z</time>
      </trkpt>
      <trkpt lat="43.58833" lon="2.95493">
        <ele>410.3</ele>
        <time>2026-05-07T07:41:08.000Z</time>
      </trkpt>
      <trkpt lat="43.58833" lon="2.95493">
        <ele>410.6</ele>
        <time>2026-05-07T07:41:09.000Z</time>
      </trkpt>
      <trkpt lat="43.58834" lon="2.95493">
        <ele>410.7</ele>
        <time>2026-05-07T07:41:10.000Z</time>
      </trkpt>
      <trkpt lat="43.58834" lon="2.95492">
        <ele>411</ele>
        <time>2026-05-07T07:41:11.000Z</time>
      </trkpt>
      <trkpt lat="43.58834" lon="2.95491">
        <ele>411</ele>
        <time>2026-05-07T07:41:12.000Z</time>
      </trkpt>
      <trkpt lat="43.58834" lon="2.9549">
        <ele>411</ele>
        <time>2026-05-07T07:41:13.000Z</time>
      </trkpt>
      <trkpt lat="43.58835" lon="2.9549">
        <ele>410.8</ele>
        <time>2026-05-07T07:41:14.000Z</time>
      </trkpt>
      <trkpt lat="43.58835" lon="2.9549">
        <ele>410.7</ele>
        <time>2026-05-07T07:41:15.000Z</time>
      </trkpt>
      <trkpt lat="43.58836" lon="2.95489">
        <ele>410.9</ele>
        <time>2026-05-07T07:41:16.000Z</time>
      </trkpt>
      <trkpt lat="43.58836" lon="2.95489">
        <ele>411</ele>
        <time>2026-05-07T07:41:17.000Z</time>
      </trkpt>
      <trkpt lat="43.58836" lon="2.95489">
        <ele>411</ele>
        <time>2026-05-07T07:41:18.000Z</time>
      </trkpt>
      <trkpt lat="43.58836" lon="2.95489">
        <ele>410.9</ele>
        <time>2026-05-07T07:41:19.000Z</time>
      </trkpt>
      <trkpt lat="43.58836" lon="2.95489">
        <ele>410.9</ele>
        <time>2026-05-07T07:41:20.000Z</time>
      </trkpt>
      <trkpt lat="43.58836" lon="2.95489">
        <ele>410.9</ele>
        <time>2026-05-07T07:41:21.000Z</time>
      </trkpt>
      <trkpt lat="43.58836" lon="2.95489">
        <ele>411.2</ele>
        <time>2026-05-07T07:41:22.000Z</time>
      </trkpt>
      <trkpt lat="43.58837" lon="2.95489">
        <ele>411.2</ele>
        <time>2026-05-07T07:41:23.000Z</time>
      </trkpt>
      <trkpt lat="43.58837" lon="2.9549">
        <ele>411.2</ele>
        <time>2026-05-07T07:41:24.000Z</time>
      </trkpt>
      <trkpt lat="43.58837" lon="2.95491">
        <ele>411.3</ele>
        <time>2026-05-07T07:41:25.000Z</time>
      </trkpt>
      <trkpt lat="43.58837" lon="2.95491">
        <ele>411.7</ele>
        <time>2026-05-07T07:41:26.000Z</time>
      </trkpt>
      <trkpt lat="43.58837" lon="2.95491">
        <ele>411.9</ele>
        <time>2026-05-07T07:41:27.000Z</time>
      </trkpt>
      <trkpt lat="43.58837" lon="2.95491">
        <ele>412</ele>
        <time>2026-05-07T07:41:28.000Z</time>
      </trkpt>
      <trkpt lat="43.58837" lon="2.95491">
        <ele>412.4</ele>
        <time>2026-05-07T07:41:29.000Z</time>
      </trkpt>
      <trkpt lat="43.58837" lon="2.95491">
        <ele>412.6</ele>
        <time>2026-05-07T07:41:30.000Z</time>
      </trkpt>
      <trkpt lat="43.58838" lon="2.95492">
        <ele>412.6</ele>
        <time>2026-05-07T07:41:31.000Z</time>
      </trkpt>
      <trkpt lat="43.58838" lon="2.95493">
        <ele>412.2</ele>
        <time>2026-05-07T07:41:32.000Z</time>
      </trkpt>
      <trkpt lat="43.58838" lon="2.95495">
        <ele>412.2</ele>
        <time>2026-05-07T07:41:33.000Z</time>
      </trkpt>
      <trkpt lat="43.58839" lon="2.95496">
        <ele>412.4</ele>
        <time>2026-05-07T07:41:34.000Z</time>
      </trkpt>
      <trkpt lat="43.58839" lon="2.95497">
        <ele>412.5</ele>
        <time>2026-05-07T07:41:35.000Z</time>
      </trkpt>
      <trkpt lat="43.5884" lon="2.95497">
        <ele>412.7</ele>
        <time>2026-05-07T07:41:36.000Z</time>
      </trkpt>
      <trkpt lat="43.58841" lon="2.95497">
        <ele>413.1</ele>
        <time>2026-05-07T07:41:37.000Z</time>
      </trkpt>
      <trkpt lat="43.58842" lon="2.95496">
        <ele>413.6</ele>
        <time>2026-05-07T07:41:38.000Z</time>
      </trkpt>
      <trkpt lat="43.58843" lon="2.95496">
        <ele>414</ele>
        <time>2026-05-07T07:41:39.000Z</time>
      </trkpt>
      <trkpt lat="43.58843" lon="2.95497">
        <ele>414</ele>
        <time>2026-05-07T07:41:40.000Z</time>
      </trkpt>
      <trkpt lat="43.58844" lon="2.95497">
        <ele>414.1</ele>
        <time>2026-05-07T07:41:41.000Z</time>
      </trkpt>
      <trkpt lat="43.58844" lon="2.95496">
        <ele>414.7</ele>
        <time>2026-05-07T07:41:42.000Z</time>
      </trkpt>
      <trkpt lat="43.58844" lon="2.95495">
        <ele>415.1</ele>
        <time>2026-05-07T07:41:43.000Z</time>
      </trkpt>
      <trkpt lat="43.58844" lon="2.95495">
        <ele>415.1</ele>
        <time>2026-05-07T07:41:44.000Z</time>
      </trkpt>
      <trkpt lat="43.58845" lon="2.95494">
        <ele>415.3</ele>
        <time>2026-05-07T07:41:45.000Z</time>
      </trkpt>
      <trkpt lat="43.58846" lon="2.95493">
        <ele>415.3</ele>
        <time>2026-05-07T07:41:46.000Z</time>
      </trkpt>
      <trkpt lat="43.58845" lon="2.95493">
        <ele>415.6</ele>
        <time>2026-05-07T07:41:47.000Z</time>
      </trkpt>
      <trkpt lat="43.58845" lon="2.95493">
        <ele>415.9</ele>
        <time>2026-05-07T07:41:48.000Z</time>
      </trkpt>
      <trkpt lat="43.58845" lon="2.95493">
        <ele>416.4</ele>
        <time>2026-05-07T07:41:49.000Z</time>
      </trkpt>
      <trkpt lat="43.58845" lon="2.95493">
        <ele>416.5</ele>
        <time>2026-05-07T07:41:50.000Z</time>
      </trkpt>
      <trkpt lat="43.58845" lon="2.95493">
        <ele>416.3</ele>
        <time>2026-05-07T07:41:51.000Z</time>
      </trkpt>
      <trkpt lat="43.58845" lon="2.95493">
        <ele>416.2</ele>
        <time>2026-05-07T07:41:52.000Z</time>
      </trkpt>
      <trkpt lat="43.58845" lon="2.95493">
        <ele>416.2</ele>
        <time>2026-05-07T07:41:53.000Z</time>
      </trkpt>
      <trkpt lat="43.58846" lon="2.95492">
        <ele>416.2</ele>
        <time>2026-05-07T07:41:54.000Z</time>
      </trkpt>
      <trkpt lat="43.58846" lon="2.95491">
        <ele>415.9</ele>
        <time>2026-05-07T07:41:55.000Z</time>
      </trkpt>
      <trkpt lat="43.58847" lon="2.95491">
        <ele>415.5</ele>
        <time>2026-05-07T07:41:56.000Z</time>
      </trkpt>
      <trkpt lat="43.58848" lon="2.95492">
        <ele>415.2</ele>
        <time>2026-05-07T07:41:57.000Z</time>
      </trkpt>
      <trkpt lat="43.58848" lon="2.95492">
        <ele>414.8</ele>
        <time>2026-05-07T07:41:58.000Z</time>
      </trkpt>
      <trkpt lat="43.58848" lon="2.95492">
        <ele>415</ele>
        <time>2026-05-07T07:41:59.000Z</time>
      </trkpt>
      <trkpt lat="43.58848" lon="2.95492">
        <ele>414.8</ele>
        <time>2026-05-07T07:42:00.000Z</time>
      </trkpt>
      <trkpt lat="43.58848" lon="2.95492">
        <ele>414.7</ele>
        <time>2026-05-07T07:42:01.000Z</time>
      </trkpt>
      <trkpt lat="43.58848" lon="2.95493">
        <ele>414.6</ele>
        <time>2026-05-07T07:42:02.000Z</time>
      </trkpt>
      <trkpt lat="43.58849" lon="2.95492">
        <ele>414.7</ele>
        <time>2026-05-07T07:42:03.000Z</time>
      </trkpt>
      <trkpt lat="43.5885" lon="2.95492">
        <ele>414.5</ele>
        <time>2026-05-07T07:42:04.000Z</time>
      </trkpt>
      <trkpt lat="43.58851" lon="2.95492">
        <ele>414.5</ele>
        <time>2026-05-07T07:42:05.000Z</time>
      </trkpt>
      <trkpt lat="43.58851" lon="2.95492">
        <ele>414.6</ele>
        <time>2026-05-07T07:42:06.000Z</time>
      </trkpt>
      <trkpt lat="43.58851" lon="2.95492">
        <ele>414.8</ele>
        <time>2026-05-07T07:42:07.000Z</time>
      </trkpt>
      <trkpt lat="43.58852" lon="2.95493">
        <ele>415.3</ele>
        <time>2026-05-07T07:42:08.000Z</time>
      </trkpt>
      <trkpt lat="43.58852" lon="2.95493">
        <ele>415.6</ele>
        <time>2026-05-07T07:42:09.000Z</time>
      </trkpt>
      <trkpt lat="43.58852" lon="2.95493">
        <ele>415.9</ele>
        <time>2026-05-07T07:42:10.000Z</time>
      </trkpt>
      <trkpt lat="43.58852" lon="2.95493">
        <ele>416.2</ele>
        <time>2026-05-07T07:42:11.000Z</time>
      </trkpt>
      <trkpt lat="43.58852" lon="2.95493">
        <ele>415.9</ele>
        <time>2026-05-07T07:42:12.000Z</time>
      </trkpt>
      <trkpt lat="43.58853" lon="2.95493">
        <ele>416.1</ele>
        <time>2026-05-07T07:42:13.000Z</time>
      </trkpt>
      <trkpt lat="43.58853" lon="2.95493">
        <ele>416</ele>
        <time>2026-05-07T07:42:14.000Z</time>
      </trkpt>
      <trkpt lat="43.58854" lon="2.95494">
        <ele>416.2</ele>
        <time>2026-05-07T07:42:15.000Z</time>
      </trkpt>
      <trkpt lat="43.58854" lon="2.95494">
        <ele>416.4</ele>
        <time>2026-05-07T07:42:16.000Z</time>
      </trkpt>
      <trkpt lat="43.58854" lon="2.95495">
        <ele>416.7</ele>
        <time>2026-05-07T07:42:17.000Z</time>
      </trkpt>
      <trkpt lat="43.58854" lon="2.95495">
        <ele>416.9</ele>
        <time>2026-05-07T07:42:18.000Z</time>
      </trkpt>
      <trkpt lat="43.58854" lon="2.95495">
        <ele>417.1</ele>
        <time>2026-05-07T07:42:19.000Z</time>
      </trkpt>
      <trkpt lat="43.58854" lon="2.95495">
        <ele>417.2</ele>
        <time>2026-05-07T07:42:20.000Z</time>
      </trkpt>
      <trkpt lat="43.58854" lon="2.95495">
        <ele>417.3</ele>
        <time>2026-05-07T07:42:21.000Z</time>
      </trkpt>
      <trkpt lat="43.58854" lon="2.95495">
        <ele>417.2</ele>
        <time>2026-05-07T07:42:22.000Z</time>
      </trkpt>
      <trkpt lat="43.58854" lon="2.95495">
        <ele>417.3</ele>
        <time>2026-05-07T07:42:23.000Z</time>
      </trkpt>
      <trkpt lat="43.58854" lon="2.95494">
        <ele>417.3</ele>
        <time>2026-05-07T07:42:24.000Z</time>
      </trkpt>
      <trkpt lat="43.58854" lon="2.95494">
        <ele>417.3</ele>
        <time>2026-05-07T07:42:25.000Z</time>
      </trkpt>
      <trkpt lat="43.58854" lon="2.95494">
        <ele>417.2</ele>
        <time>2026-05-07T07:42:26.000Z</time>
      </trkpt>
      <trkpt lat="43.58854" lon="2.95494">
        <ele>417.2</ele>
        <time>2026-05-07T07:42:27.000Z</time>
      </trkpt>
      <trkpt lat="43.58854" lon="2.95494">
        <ele>417</ele>
        <time>2026-05-07T07:42:28.000Z</time>
      </trkpt>
      <trkpt lat="43.58854" lon="2.95494">
        <ele>417</ele>
        <time>2026-05-07T07:42:29.000Z</time>
      </trkpt>
      <trkpt lat="43.58855" lon="2.95493">
        <ele>417.1</ele>
        <time>2026-05-07T07:42:30.000Z</time>
      </trkpt>
      <trkpt lat="43.58855" lon="2.95493">
        <ele>417.4</ele>
        <time>2026-05-07T07:42:31.000Z</time>
      </trkpt>
      <trkpt lat="43.58855" lon="2.95493">
        <ele>417.4</ele>
        <time>2026-05-07T07:42:32.000Z</time>
      </trkpt>
      <trkpt lat="43.58854" lon="2.95493">
        <ele>417.5</ele>
        <time>2026-05-07T07:42:33.000Z</time>
      </trkpt>
      <trkpt lat="43.58854" lon="2.95492">
        <ele>417.4</ele>
        <time>2026-05-07T07:42:34.000Z</time>
      </trkpt>
      <trkpt lat="43.58854" lon="2.95491">
        <ele>417.3</ele>
        <time>2026-05-07T07:42:35.000Z</time>
      </trkpt>
      <trkpt lat="43.58854" lon="2.9549">
        <ele>417.1</ele>
        <time>2026-05-07T07:42:36.000Z</time>
      </trkpt>
      <trkpt lat="43.58854" lon="2.9549">
        <ele>417.5</ele>
        <time>2026-05-07T07:42:37.000Z</time>
      </trkpt>
      <trkpt lat="43.58854" lon="2.9549">
        <ele>417.5</ele>
        <time>2026-05-07T07:42:38.000Z</time>
      </trkpt>
      <trkpt lat="43.58854" lon="2.9549">
        <ele>417.5</ele>
        <time>2026-05-07T07:42:39.000Z</time>
      </trkpt>
      <trkpt lat="43.58854" lon="2.9549">
        <ele>417.6</ele>
        <time>2026-05-07T07:42:40.000Z</time>
      </trkpt>
      <trkpt lat="43.58854" lon="2.9549">
        <ele>417.6</ele>
        <time>2026-05-07T07:42:41.000Z</time>
      </trkpt>
      <trkpt lat="43.58853" lon="2.95489">
        <ele>417.8</ele>
        <time>2026-05-07T07:42:42.000Z</time>
      </trkpt>
      <trkpt lat="43.58853" lon="2.95488">
        <ele>417.8</ele>
        <time>2026-05-07T07:42:43.000Z</time>
      </trkpt>
      <trkpt lat="43.58853" lon="2.95488">
        <ele>417.7</ele>
        <time>2026-05-07T07:42:44.000Z</time>
      </trkpt>
      <trkpt lat="43.58853" lon="2.95488">
        <ele>417.6</ele>
        <time>2026-05-07T07:42:45.000Z</time>
      </trkpt>
      <trkpt lat="43.58853" lon="2.95488">
        <ele>417.6</ele>
        <time>2026-05-07T07:42:46.000Z</time>
      </trkpt>
      <trkpt lat="43.58853" lon="2.95488">
        <ele>417.5</ele>
        <time>2026-05-07T07:42:47.000Z</time>
      </trkpt>
      <trkpt lat="43.58853" lon="2.95487">
        <ele>417.5</ele>
        <time>2026-05-07T07:42:48.000Z</time>
      </trkpt>
      <trkpt lat="43.58853" lon="2.95486">
        <ele>417.7</ele>
        <time>2026-05-07T07:42:49.000Z</time>
      </trkpt>
      <trkpt lat="43.58852" lon="2.95485">
        <ele>418</ele>
        <time>2026-05-07T07:42:50.000Z</time>
      </trkpt>
      <trkpt lat="43.58852" lon="2.95484">
        <ele>418.1</ele>
        <time>2026-05-07T07:42:51.000Z</time>
      </trkpt>
      <trkpt lat="43.58852" lon="2.95483">
        <ele>418.1</ele>
        <time>2026-05-07T07:42:52.000Z</time>
      </trkpt>
      <trkpt lat="43.58852" lon="2.95483">
        <ele>418.2</ele>
        <time>2026-05-07T07:42:53.000Z</time>
      </trkpt>
      <trkpt lat="43.58852" lon="2.95483">
        <ele>418.1</ele>
        <time>2026-05-07T07:42:54.000Z</time>
      </trkpt>
      <trkpt lat="43.58851" lon="2.95482">
        <ele>418.2</ele>
        <time>2026-05-07T07:42:55.000Z</time>
      </trkpt>
      <trkpt lat="43.58851" lon="2.95481">
        <ele>417.9</ele>
        <time>2026-05-07T07:42:56.000Z</time>
      </trkpt>
      <trkpt lat="43.5885" lon="2.9548">
        <ele>417.9</ele>
        <time>2026-05-07T07:42:57.000Z</time>
      </trkpt>
      <trkpt lat="43.5885" lon="2.9548">
        <ele>418.1</ele>
        <time>2026-05-07T07:42:58.000Z</time>
      </trkpt>
      <trkpt lat="43.5885" lon="2.9548">
        <ele>418.2</ele>
        <time>2026-05-07T07:42:59.000Z</time>
      </trkpt>
      <trkpt lat="43.58851" lon="2.9548">
        <ele>418.4</ele>
        <time>2026-05-07T07:43:00.000Z</time>
      </trkpt>
      <trkpt lat="43.58851" lon="2.9548">
        <ele>418.8</ele>
        <time>2026-05-07T07:43:01.000Z</time>
      </trkpt>
      <trkpt lat="43.58851" lon="2.9548">
        <ele>419.1</ele>
        <time>2026-05-07T07:43:02.000Z</time>
      </trkpt>
      <trkpt lat="43.58851" lon="2.9548">
        <ele>419.2</ele>
        <time>2026-05-07T07:43:03.000Z</time>
      </trkpt>
      <trkpt lat="43.58851" lon="2.9548">
        <ele>419.2</ele>
        <time>2026-05-07T07:43:04.000Z</time>
      </trkpt>
      <trkpt lat="43.58851" lon="2.9548">
        <ele>419.1</ele>
        <time>2026-05-07T07:43:05.000Z</time>
      </trkpt>
      <trkpt lat="43.58851" lon="2.95479">
        <ele>419.3</ele>
        <time>2026-05-07T07:43:06.000Z</time>
      </trkpt>
      <trkpt lat="43.58851" lon="2.95479">
        <ele>419.3</ele>
        <time>2026-05-07T07:43:07.000Z</time>
      </trkpt>
      <trkpt lat="43.58851" lon="2.95479">
        <ele>419.6</ele>
        <time>2026-05-07T07:43:08.000Z</time>
      </trkpt>
      <trkpt lat="43.58851" lon="2.95479">
        <ele>419.7</ele>
        <time>2026-05-07T07:43:09.000Z</time>
      </trkpt>
      <trkpt lat="43.58851" lon="2.95479">
        <ele>419.9</ele>
        <time>2026-05-07T07:43:10.000Z</time>
      </trkpt>
      <trkpt lat="43.58851" lon="2.95479">
        <ele>420.3</ele>
        <time>2026-05-07T07:43:11.000Z</time>
      </trkpt>
      <trkpt lat="43.58851" lon="2.95479">
        <ele>420.6</ele>
        <time>2026-05-07T07:43:12.000Z</time>
      </trkpt>
      <trkpt lat="43.58851" lon="2.95479">
        <ele>420.7</ele>
        <time>2026-05-07T07:43:13.000Z</time>
      </trkpt>
      <trkpt lat="43.58851" lon="2.95478">
        <ele>421.1</ele>
        <time>2026-05-07T07:43:14.000Z</time>
      </trkpt>
      <trkpt lat="43.58851" lon="2.95478">
        <ele>421.3</ele>
        <time>2026-05-07T07:43:15.000Z</time>
      </trkpt>
      <trkpt lat="43.58851" lon="2.95478">
        <ele>421.5</ele>
        <time>2026-05-07T07:43:16.000Z</time>
      </trkpt>
      <trkpt lat="43.58851" lon="2.95478">
        <ele>421.5</ele>
        <time>2026-05-07T07:43:17.000Z</time>
      </trkpt>
      <trkpt lat="43.58851" lon="2.95478">
        <ele>421.7</ele>
        <time>2026-05-07T07:43:18.000Z</time>
      </trkpt>
      <trkpt lat="43.58851" lon="2.95478">
        <ele>421.9</ele>
        <time>2026-05-07T07:43:19.000Z</time>
      </trkpt>
      <trkpt lat="43.58852" lon="2.95478">
        <ele>421.8</ele>
        <time>2026-05-07T07:43:20.000Z</time>
      </trkpt>
      <trkpt lat="43.58852" lon="2.95477">
        <ele>421.5</ele>
        <time>2026-05-07T07:43:21.000Z</time>
      </trkpt>
      <trkpt lat="43.58853" lon="2.95478">
        <ele>421.2</ele>
        <time>2026-05-07T07:43:22.000Z</time>
      </trkpt>
      <trkpt lat="43.58854" lon="2.95478">
        <ele>421.2</ele>
        <time>2026-05-07T07:43:23.000Z</time>
      </trkpt>
      <trkpt lat="43.58854" lon="2.95479">
        <ele>421.4</ele>
        <time>2026-05-07T07:43:24.000Z</time>
      </trkpt>
      <trkpt lat="43.58854" lon="2.9548">
        <ele>421.6</ele>
        <time>2026-05-07T07:43:25.000Z</time>
      </trkpt>
      <trkpt lat="43.58855" lon="2.9548">
        <ele>421.6</ele>
        <time>2026-05-07T07:43:26.000Z</time>
      </trkpt>
      <trkpt lat="43.58856" lon="2.95481">
        <ele>421.8</ele>
        <time>2026-05-07T07:43:27.000Z</time>
      </trkpt>
      <trkpt lat="43.58857" lon="2.9548">
        <ele>422.5</ele>
        <time>2026-05-07T07:43:28.000Z</time>
      </trkpt>
      <trkpt lat="43.58857" lon="2.9548">
        <ele>422.8</ele>
        <time>2026-05-07T07:43:29.000Z</time>
      </trkpt>
      <trkpt lat="43.58858" lon="2.9548">
        <ele>422.6</ele>
        <time>2026-05-07T07:43:30.000Z</time>
      </trkpt>
      <trkpt lat="43.58858" lon="2.9548">
        <ele>422.7</ele>
        <time>2026-05-07T07:43:31.000Z</time>
      </trkpt>
      <trkpt lat="43.58858" lon="2.9548">
        <ele>422.8</ele>
        <time>2026-05-07T07:43:32.000Z</time>
      </trkpt>
      <trkpt lat="43.58858" lon="2.9548">
        <ele>422.6</ele>
        <time>2026-05-07T07:43:33.000Z</time>
      </trkpt>
      <trkpt lat="43.58858" lon="2.95479">
        <ele>422.7</ele>
        <time>2026-05-07T07:43:34.000Z</time>
      </trkpt>
      <trkpt lat="43.58858" lon="2.95479">
        <ele>423.1</ele>
        <time>2026-05-07T07:43:35.000Z</time>
      </trkpt>
      <trkpt lat="43.58858" lon="2.95479">
        <ele>423.1</ele>
        <time>2026-05-07T07:43:36.000Z</time>
      </trkpt>
      <trkpt lat="43.58858" lon="2.95479">
        <ele>423.2</ele>
        <time>2026-05-07T07:43:37.000Z</time>
      </trkpt>
      <trkpt lat="43.58858" lon="2.9548">
        <ele>423.5</ele>
        <time>2026-05-07T07:43:38.000Z</time>
      </trkpt>
      <trkpt lat="43.58858" lon="2.9548">
        <ele>423.7</ele>
        <time>2026-05-07T07:43:39.000Z</time>
      </trkpt>
      <trkpt lat="43.58858" lon="2.9548">
        <ele>424.1</ele>
        <time>2026-05-07T07:43:40.000Z</time>
      </trkpt>
      <trkpt lat="43.5886" lon="2.9548">
        <ele>424.5</ele>
        <time>2026-05-07T07:43:41.000Z</time>
      </trkpt>
      <trkpt lat="43.58861" lon="2.95482">
        <ele>424.8</ele>
        <time>2026-05-07T07:43:42.000Z</time>
      </trkpt>
      <trkpt lat="43.58862" lon="2.95483">
        <ele>424.9</ele>
        <time>2026-05-07T07:43:43.000Z</time>
      </trkpt>
      <trkpt lat="43.58863" lon="2.95484">
        <ele>424.8</ele>
        <time>2026-05-07T07:43:44.000Z</time>
      </trkpt>
      <trkpt lat="43.58863" lon="2.95484">
        <ele>424.7</ele>
        <time>2026-05-07T07:43:45.000Z</time>
      </trkpt>
      <trkpt lat="43.58864" lon="2.95484">
        <ele>425.1</ele>
        <time>2026-05-07T07:43:46.000Z</time>
      </trkpt>
      <trkpt lat="43.58864" lon="2.95485">
        <ele>425.2</ele>
        <time>2026-05-07T07:43:47.000Z</time>
      </trkpt>
      <trkpt lat="43.58864" lon="2.95485">
        <ele>425.3</ele>
        <time>2026-05-07T07:43:48.000Z</time>
      </trkpt>
      <trkpt lat="43.58864" lon="2.95485">
        <ele>425.3</ele>
        <time>2026-05-07T07:43:49.000Z</time>
      </trkpt>
      <trkpt lat="43.58864" lon="2.95485">
        <ele>425.5</ele>
        <time>2026-05-07T07:43:50.000Z</time>
      </trkpt>
      <trkpt lat="43.58864" lon="2.95485">
        <ele>425.8</ele>
        <time>2026-05-07T07:43:51.000Z</time>
      </trkpt>
      <trkpt lat="43.58865" lon="2.95485">
        <ele>426.2</ele>
        <time>2026-05-07T07:43:52.000Z</time>
      </trkpt>
      <trkpt lat="43.58865" lon="2.95485">
        <ele>426.5</ele>
        <time>2026-05-07T07:43:53.000Z</time>
      </trkpt>
      <trkpt lat="43.58865" lon="2.95486">
        <ele>426.8</ele>
        <time>2026-05-07T07:43:54.000Z</time>
      </trkpt>
      <trkpt lat="43.58866" lon="2.95486">
        <ele>427</ele>
        <time>2026-05-07T07:43:55.000Z</time>
      </trkpt>
      <trkpt lat="43.58866" lon="2.95487">
        <ele>427.4</ele>
        <time>2026-05-07T07:43:56.000Z</time>
      </trkpt>
      <trkpt lat="43.58866" lon="2.95488">
        <ele>427.8</ele>
        <time>2026-05-07T07:43:57.000Z</time>
      </trkpt>
      <trkpt lat="43.58867" lon="2.95488">
        <ele>428</ele>
        <time>2026-05-07T07:43:58.000Z</time>
      </trkpt>
      <trkpt lat="43.58868" lon="2.95489">
        <ele>427.8</ele>
        <time>2026-05-07T07:43:59.000Z</time>
      </trkpt>
      <trkpt lat="43.58868" lon="2.95489">
        <ele>427.9</ele>
        <time>2026-05-07T07:44:00.000Z</time>
      </trkpt>
      <trkpt lat="43.58868" lon="2.9549">
        <ele>428.4</ele>
        <time>2026-05-07T07:44:01.000Z</time>
      </trkpt>
      <trkpt lat="43.58868" lon="2.9549">
        <ele>428.5</ele>
        <time>2026-05-07T07:44:02.000Z</time>
      </trkpt>
      <trkpt lat="43.58868" lon="2.9549">
        <ele>428.9</ele>
        <time>2026-05-07T07:44:03.000Z</time>
      </trkpt>
      <trkpt lat="43.58868" lon="2.9549">
        <ele>429.2</ele>
        <time>2026-05-07T07:44:04.000Z</time>
      </trkpt>
      <trkpt lat="43.58869" lon="2.95491">
        <ele>429.4</ele>
        <time>2026-05-07T07:44:05.000Z</time>
      </trkpt>
      <trkpt lat="43.58869" lon="2.95491">
        <ele>429.4</ele>
        <time>2026-05-07T07:44:06.000Z</time>
      </trkpt>
      <trkpt lat="43.58869" lon="2.9549">
        <ele>429.6</ele>
        <time>2026-05-07T07:44:07.000Z</time>
      </trkpt>
      <trkpt lat="43.58869" lon="2.95491">
        <ele>430.1</ele>
        <time>2026-05-07T07:44:08.000Z</time>
      </trkpt>
      <trkpt lat="43.58869" lon="2.95491">
        <ele>430.3</ele>
        <time>2026-05-07T07:44:09.000Z</time>
      </trkpt>
      <trkpt lat="43.5887" lon="2.95492">
        <ele>430.6</ele>
        <time>2026-05-07T07:44:10.000Z</time>
      </trkpt>
      <trkpt lat="43.5887" lon="2.95493">
        <ele>430.6</ele>
        <time>2026-05-07T07:44:11.000Z</time>
      </trkpt>
      <trkpt lat="43.58871" lon="2.95493">
        <ele>430.6</ele>
        <time>2026-05-07T07:44:12.000Z</time>
      </trkpt>
      <trkpt lat="43.58872" lon="2.95493">
        <ele>430.6</ele>
        <time>2026-05-07T07:44:13.000Z</time>
      </trkpt>
      <trkpt lat="43.58872" lon="2.95493">
        <ele>430.7</ele>
        <time>2026-05-07T07:44:14.000Z</time>
      </trkpt>
      <trkpt lat="43.58873" lon="2.95494">
        <ele>430.4</ele>
        <time>2026-05-07T07:44:15.000Z</time>
      </trkpt>
      <trkpt lat="43.58874" lon="2.95495">
        <ele>430.1</ele>
        <time>2026-05-07T07:44:16.000Z</time>
      </trkpt>
      <trkpt lat="43.58875" lon="2.95496">
        <ele>430.2</ele>
        <time>2026-05-07T07:44:17.000Z</time>
      </trkpt>
      <trkpt lat="43.58876" lon="2.95497">
        <ele>430.2</ele>
        <time>2026-05-07T07:44:18.000Z</time>
      </trkpt>
      <trkpt lat="43.58876" lon="2.95497">
        <ele>430.3</ele>
        <time>2026-05-07T07:44:19.000Z</time>
      </trkpt>
      <trkpt lat="43.58877" lon="2.95498">
        <ele>430.2</ele>
        <time>2026-05-07T07:44:20.000Z</time>
      </trkpt>
      <trkpt lat="43.58877" lon="2.95499">
        <ele>430.4</ele>
        <time>2026-05-07T07:44:21.000Z</time>
      </trkpt>
      <trkpt lat="43.58878" lon="2.95499">
        <ele>430.3</ele>
        <time>2026-05-07T07:44:22.000Z</time>
      </trkpt>
      <trkpt lat="43.58878" lon="2.95499">
        <ele>430.4</ele>
        <time>2026-05-07T07:44:23.000Z</time>
      </trkpt>
      <trkpt lat="43.58878" lon="2.955">
        <ele>430.7</ele>
        <time>2026-05-07T07:44:24.000Z</time>
      </trkpt>
      <trkpt lat="43.58878" lon="2.955">
        <ele>430.7</ele>
        <time>2026-05-07T07:44:25.000Z</time>
      </trkpt>
      <trkpt lat="43.58878" lon="2.955">
        <ele>430.9</ele>
        <time>2026-05-07T07:44:26.000Z</time>
      </trkpt>
      <trkpt lat="43.58878" lon="2.955">
        <ele>431.3</ele>
        <time>2026-05-07T07:44:27.000Z</time>
      </trkpt>
      <trkpt lat="43.58878" lon="2.95501">
        <ele>431.7</ele>
        <time>2026-05-07T07:44:28.000Z</time>
      </trkpt>
      <trkpt lat="43.58878" lon="2.95502">
        <ele>432</ele>
        <time>2026-05-07T07:44:29.000Z</time>
      </trkpt>
      <trkpt lat="43.58879" lon="2.95503">
        <ele>432.8</ele>
        <time>2026-05-07T07:44:30.000Z</time>
      </trkpt>
      <trkpt lat="43.58879" lon="2.95503">
        <ele>433</ele>
        <time>2026-05-07T07:44:31.000Z</time>
      </trkpt>
      <trkpt lat="43.58879" lon="2.95503">
        <ele>433.6</ele>
        <time>2026-05-07T07:44:32.000Z</time>
      </trkpt>
      <trkpt lat="43.58878" lon="2.95503">
        <ele>434.5</ele>
        <time>2026-05-07T07:44:33.000Z</time>
      </trkpt>
      <trkpt lat="43.58878" lon="2.95504">
        <ele>435.1</ele>
        <time>2026-05-07T07:44:34.000Z</time>
      </trkpt>
      <trkpt lat="43.58878" lon="2.95504">
        <ele>435.2</ele>
        <time>2026-05-07T07:44:35.000Z</time>
      </trkpt>
      <trkpt lat="43.58879" lon="2.95505">
        <ele>434.8</ele>
        <time>2026-05-07T07:44:36.000Z</time>
      </trkpt>
      <trkpt lat="43.58879" lon="2.95505">
        <ele>434.9</ele>
        <time>2026-05-07T07:44:37.000Z</time>
      </trkpt>
      <trkpt lat="43.5888" lon="2.95505">
        <ele>434.9</ele>
        <time>2026-05-07T07:44:38.000Z</time>
      </trkpt>
      <trkpt lat="43.58881" lon="2.95505">
        <ele>435</ele>
        <time>2026-05-07T07:44:39.000Z</time>
      </trkpt>
      <trkpt lat="43.58881" lon="2.95505">
        <ele>435.4</ele>
        <time>2026-05-07T07:44:40.000Z</time>
      </trkpt>
      <trkpt lat="43.58882" lon="2.95506">
        <ele>435.6</ele>
        <time>2026-05-07T07:44:41.000Z</time>
      </trkpt>
      <trkpt lat="43.58882" lon="2.95505">
        <ele>436.2</ele>
        <time>2026-05-07T07:44:42.000Z</time>
      </trkpt>
      <trkpt lat="43.58882" lon="2.95505">
        <ele>436.4</ele>
        <time>2026-05-07T07:44:43.000Z</time>
      </trkpt>
      <trkpt lat="43.58884" lon="2.95505">
        <ele>436.4</ele>
        <time>2026-05-07T07:44:45.000Z</time>
      </trkpt>
      <trkpt lat="43.58884" lon="2.95505">
        <ele>436.6</ele>
        <time>2026-05-07T07:44:46.000Z</time>
      </trkpt>
      <trkpt lat="43.58884" lon="2.95505">
        <ele>436.7</ele>
        <time>2026-05-07T07:44:47.000Z</time>
      </trkpt>
      <trkpt lat="43.58885" lon="2.95506">
        <ele>436.5</ele>
        <time>2026-05-07T07:44:48.000Z</time>
      </trkpt>
      <trkpt lat="43.58885" lon="2.95506">
        <ele>436.7</ele>
        <time>2026-05-07T07:44:49.000Z</time>
      </trkpt>
      <trkpt lat="43.58885" lon="2.95505">
        <ele>436.8</ele>
        <time>2026-05-07T07:44:50.000Z</time>
      </trkpt>
      <trkpt lat="43.58885" lon="2.95505">
        <ele>437.2</ele>
        <time>2026-05-07T07:44:51.000Z</time>
      </trkpt>
      <trkpt lat="43.58885" lon="2.95504">
        <ele>437.2</ele>
        <time>2026-05-07T07:44:52.000Z</time>
      </trkpt>
      <trkpt lat="43.58885" lon="2.95504">
        <ele>437.8</ele>
        <time>2026-05-07T07:44:53.000Z</time>
      </trkpt>
      <trkpt lat="43.58885" lon="2.95505">
        <ele>438.7</ele>
        <time>2026-05-07T07:44:54.000Z</time>
      </trkpt>
      <trkpt lat="43.58886" lon="2.95506">
        <ele>439</ele>
        <time>2026-05-07T07:44:55.000Z</time>
      </trkpt>
      <trkpt lat="43.58886" lon="2.95507">
        <ele>439.2</ele>
        <time>2026-05-07T07:44:56.000Z</time>
      </trkpt>
      <trkpt lat="43.58887" lon="2.95508">
        <ele>439.2</ele>
        <time>2026-05-07T07:44:57.000Z</time>
      </trkpt>
      <trkpt lat="43.58887" lon="2.95509">
        <ele>439</ele>
        <time>2026-05-07T07:44:58.000Z</time>
      </trkpt>
      <trkpt lat="43.58888" lon="2.95509">
        <ele>438.8</ele>
        <time>2026-05-07T07:44:59.000Z</time>
      </trkpt>
      <trkpt lat="43.58888" lon="2.9551">
        <ele>438.7</ele>
        <time>2026-05-07T07:45:00.000Z</time>
      </trkpt>
      <trkpt lat="43.58888" lon="2.9551">
        <ele>438.6</ele>
        <time>2026-05-07T07:45:01.000Z</time>
      </trkpt>
      <trkpt lat="43.58888" lon="2.9551">
        <ele>438.9</ele>
        <time>2026-05-07T07:45:02.000Z</time>
      </trkpt>
      <trkpt lat="43.58888" lon="2.95511">
        <ele>439.2</ele>
        <time>2026-05-07T07:45:03.000Z</time>
      </trkpt>
      <trkpt lat="43.58889" lon="2.9551">
        <ele>439.3</ele>
        <time>2026-05-07T07:45:04.000Z</time>
      </trkpt>
      <trkpt lat="43.58889" lon="2.9551">
        <ele>439.5</ele>
        <time>2026-05-07T07:45:05.000Z</time>
      </trkpt>
      <trkpt lat="43.58889" lon="2.9551">
        <ele>439.6</ele>
        <time>2026-05-07T07:45:06.000Z</time>
      </trkpt>
      <trkpt lat="43.58889" lon="2.9551">
        <ele>439.6</ele>
        <time>2026-05-07T07:45:07.000Z</time>
      </trkpt>
      <trkpt lat="43.58889" lon="2.95511">
        <ele>439.4</ele>
        <time>2026-05-07T07:45:08.000Z</time>
      </trkpt>
      <trkpt lat="43.58889" lon="2.95511">
        <ele>439.5</ele>
        <time>2026-05-07T07:45:09.000Z</time>
      </trkpt>
      <trkpt lat="43.5889" lon="2.9551">
        <ele>439.7</ele>
        <time>2026-05-07T07:45:10.000Z</time>
      </trkpt>
      <trkpt lat="43.5889" lon="2.9551">
        <ele>439.8</ele>
        <time>2026-05-07T07:45:11.000Z</time>
      </trkpt>
      <trkpt lat="43.58891" lon="2.9551">
        <ele>439.7</ele>
        <time>2026-05-07T07:45:12.000Z</time>
      </trkpt>
      <trkpt lat="43.58892" lon="2.95511">
        <ele>439.5</ele>
        <time>2026-05-07T07:45:13.000Z</time>
      </trkpt>
      <trkpt lat="43.58893" lon="2.95512">
        <ele>439.3</ele>
        <time>2026-05-07T07:45:14.000Z</time>
      </trkpt>
      <trkpt lat="43.58895" lon="2.95512">
        <ele>439.3</ele>
        <time>2026-05-07T07:45:15.000Z</time>
      </trkpt>
      <trkpt lat="43.58896" lon="2.95513">
        <ele>439.4</ele>
        <time>2026-05-07T07:45:16.000Z</time>
      </trkpt>
      <trkpt lat="43.58896" lon="2.95513">
        <ele>439.8</ele>
        <time>2026-05-07T07:45:17.000Z</time>
      </trkpt>
      <trkpt lat="43.58897" lon="2.95513">
        <ele>439.9</ele>
        <time>2026-05-07T07:45:18.000Z</time>
      </trkpt>
      <trkpt lat="43.58897" lon="2.95512">
        <ele>439.8</ele>
        <time>2026-05-07T07:45:19.000Z</time>
      </trkpt>
      <trkpt lat="43.58897" lon="2.95512">
        <ele>439.8</ele>
        <time>2026-05-07T07:45:20.000Z</time>
      </trkpt>
      <trkpt lat="43.58897" lon="2.95512">
        <ele>439.6</ele>
        <time>2026-05-07T07:45:21.000Z</time>
      </trkpt>
      <trkpt lat="43.58897" lon="2.95512">
        <ele>439.6</ele>
        <time>2026-05-07T07:45:22.000Z</time>
      </trkpt>
      <trkpt lat="43.58897" lon="2.95512">
        <ele>439.8</ele>
        <time>2026-05-07T07:45:23.000Z</time>
      </trkpt>
      <trkpt lat="43.58897" lon="2.95512">
        <ele>439.8</ele>
        <time>2026-05-07T07:45:24.000Z</time>
      </trkpt>
      <trkpt lat="43.58897" lon="2.95512">
        <ele>440</ele>
        <time>2026-05-07T07:45:25.000Z</time>
      </trkpt>
      <trkpt lat="43.58897" lon="2.95512">
        <ele>440.3</ele>
        <time>2026-05-07T07:45:26.000Z</time>
      </trkpt>
      <trkpt lat="43.58897" lon="2.95512">
        <ele>440.7</ele>
        <time>2026-05-07T07:45:27.000Z</time>
      </trkpt>
      <trkpt lat="43.58897" lon="2.95512">
        <ele>440.9</ele>
        <time>2026-05-07T07:45:28.000Z</time>
      </trkpt>
      <trkpt lat="43.58897" lon="2.95512">
        <ele>440.9</ele>
        <time>2026-05-07T07:45:29.000Z</time>
      </trkpt>
      <trkpt lat="43.58897" lon="2.95512">
        <ele>441.1</ele>
        <time>2026-05-07T07:45:30.000Z</time>
      </trkpt>
      <trkpt lat="43.58897" lon="2.95512">
        <ele>441.2</ele>
        <time>2026-05-07T07:45:31.000Z</time>
      </trkpt>
      <trkpt lat="43.58897" lon="2.95512">
        <ele>441.4</ele>
        <time>2026-05-07T07:45:32.000Z</time>
      </trkpt>
      <trkpt lat="43.58898" lon="2.95512">
        <ele>441.5</ele>
        <time>2026-05-07T07:45:33.000Z</time>
      </trkpt>
      <trkpt lat="43.58898" lon="2.95512">
        <ele>441.6</ele>
        <time>2026-05-07T07:45:34.000Z</time>
      </trkpt>
      <trkpt lat="43.58898" lon="2.95512">
        <ele>441.7</ele>
        <time>2026-05-07T07:45:35.000Z</time>
      </trkpt>
      <trkpt lat="43.58898" lon="2.95512">
        <ele>441.7</ele>
        <time>2026-05-07T07:45:36.000Z</time>
      </trkpt>
      <trkpt lat="43.58899" lon="2.95511">
        <ele>441.8</ele>
        <time>2026-05-07T07:45:37.000Z</time>
      </trkpt>
      <trkpt lat="43.589" lon="2.9551">
        <ele>441.6</ele>
        <time>2026-05-07T07:45:38.000Z</time>
      </trkpt>
      <trkpt lat="43.58901" lon="2.9551">
        <ele>441.5</ele>
        <time>2026-05-07T07:45:39.000Z</time>
      </trkpt>
      <trkpt lat="43.58902" lon="2.9551">
        <ele>441.5</ele>
        <time>2026-05-07T07:45:40.000Z</time>
      </trkpt>
      <trkpt lat="43.58902" lon="2.95509">
        <ele>441.7</ele>
        <time>2026-05-07T07:45:41.000Z</time>
      </trkpt>
      <trkpt lat="43.58902" lon="2.95509">
        <ele>442</ele>
        <time>2026-05-07T07:45:42.000Z</time>
      </trkpt>
      <trkpt lat="43.58902" lon="2.95509">
        <ele>441.8</ele>
        <time>2026-05-07T07:45:43.000Z</time>
      </trkpt>
      <trkpt lat="43.58902" lon="2.95509">
        <ele>441.7</ele>
        <time>2026-05-07T07:45:44.000Z</time>
      </trkpt>
      <trkpt lat="43.58902" lon="2.95509">
        <ele>441.8</ele>
        <time>2026-05-07T07:45:45.000Z</time>
      </trkpt>
      <trkpt lat="43.58902" lon="2.9551">
        <ele>441.9</ele>
        <time>2026-05-07T07:45:46.000Z</time>
      </trkpt>
      <trkpt lat="43.58902" lon="2.9551">
        <ele>441.8</ele>
        <time>2026-05-07T07:45:47.000Z</time>
      </trkpt>
      <trkpt lat="43.58902" lon="2.9551">
        <ele>441.7</ele>
        <time>2026-05-07T07:45:48.000Z</time>
      </trkpt>
      <trkpt lat="43.58902" lon="2.9551">
        <ele>441.6</ele>
        <time>2026-05-07T07:45:49.000Z</time>
      </trkpt>
      <trkpt lat="43.58902" lon="2.9551">
        <ele>441.8</ele>
        <time>2026-05-07T07:45:50.000Z</time>
      </trkpt>
      <trkpt lat="43.58902" lon="2.9551">
        <ele>442</ele>
        <time>2026-05-07T07:45:51.000Z</time>
      </trkpt>
      <trkpt lat="43.58902" lon="2.9551">
        <ele>442.4</ele>
        <time>2026-05-07T07:45:52.000Z</time>
      </trkpt>
      <trkpt lat="43.58902" lon="2.9551">
        <ele>442.8</ele>
        <time>2026-05-07T07:45:53.000Z</time>
      </trkpt>
      <trkpt lat="43.58902" lon="2.9551">
        <ele>443</ele>
        <time>2026-05-07T07:45:54.000Z</time>
      </trkpt>
      <trkpt lat="43.58903" lon="2.9551">
        <ele>443.2</ele>
        <time>2026-05-07T07:45:55.000Z</time>
      </trkpt>
      <trkpt lat="43.58903" lon="2.9551">
        <ele>443.3</ele>
        <time>2026-05-07T07:45:56.000Z</time>
      </trkpt>
      <trkpt lat="43.58903" lon="2.9551">
        <ele>443.6</ele>
        <time>2026-05-07T07:45:57.000Z</time>
      </trkpt>
      <trkpt lat="43.58904" lon="2.9551">
        <ele>443.7</ele>
        <time>2026-05-07T07:45:58.000Z</time>
      </trkpt>
      <trkpt lat="43.58904" lon="2.9551">
        <ele>443.8</ele>
        <time>2026-05-07T07:45:59.000Z</time>
      </trkpt>
      <trkpt lat="43.58904" lon="2.9551">
        <ele>443.9</ele>
        <time>2026-05-07T07:46:00.000Z</time>
      </trkpt>
      <trkpt lat="43.58904" lon="2.9551">
        <ele>443.9</ele>
        <time>2026-05-07T07:46:01.000Z</time>
      </trkpt>
      <trkpt lat="43.58904" lon="2.95511">
        <ele>444</ele>
        <time>2026-05-07T07:46:02.000Z</time>
      </trkpt>
      <trkpt lat="43.58904" lon="2.95512">
        <ele>444.2</ele>
        <time>2026-05-07T07:46:03.000Z</time>
      </trkpt>
      <trkpt lat="43.58904" lon="2.95512">
        <ele>444.4</ele>
        <time>2026-05-07T07:46:04.000Z</time>
      </trkpt>
      <trkpt lat="43.58905" lon="2.95512">
        <ele>444.5</ele>
        <time>2026-05-07T07:46:05.000Z</time>
      </trkpt>
      <trkpt lat="43.58905" lon="2.95512">
        <ele>444.8</ele>
        <time>2026-05-07T07:46:06.000Z</time>
      </trkpt>
      <trkpt lat="43.58906" lon="2.95512">
        <ele>445.3</ele>
        <time>2026-05-07T07:46:07.000Z</time>
      </trkpt>
      <trkpt lat="43.58906" lon="2.95512">
        <ele>445.7</ele>
        <time>2026-05-07T07:46:08.000Z</time>
      </trkpt>
      <trkpt lat="43.58906" lon="2.95513">
        <ele>446.1</ele>
        <time>2026-05-07T07:46:09.000Z</time>
      </trkpt>
      <trkpt lat="43.58908" lon="2.95513">
        <ele>446.5</ele>
        <time>2026-05-07T07:46:11.000Z</time>
      </trkpt>
      <trkpt lat="43.58909" lon="2.95513">
        <ele>446.5</ele>
        <time>2026-05-07T07:46:12.000Z</time>
      </trkpt>
      <trkpt lat="43.58909" lon="2.95513">
        <ele>446.5</ele>
        <time>2026-05-07T07:46:13.000Z</time>
      </trkpt>
      <trkpt lat="43.58909" lon="2.95513">
        <ele>446.5</ele>
        <time>2026-05-07T07:46:14.000Z</time>
      </trkpt>
      <trkpt lat="43.58909" lon="2.95514">
        <ele>446.6</ele>
        <time>2026-05-07T07:46:15.000Z</time>
      </trkpt>
      <trkpt lat="43.5891" lon="2.95515">
        <ele>446.5</ele>
        <time>2026-05-07T07:46:16.000Z</time>
      </trkpt>
      <trkpt lat="43.58911" lon="2.95515">
        <ele>446.2</ele>
        <time>2026-05-07T07:46:17.000Z</time>
      </trkpt>
      <trkpt lat="43.58912" lon="2.95515">
        <ele>446.1</ele>
        <time>2026-05-07T07:46:18.000Z</time>
      </trkpt>
      <trkpt lat="43.58912" lon="2.95515">
        <ele>445.7</ele>
        <time>2026-05-07T07:46:20.000Z</time>
      </trkpt>
      <trkpt lat="43.58912" lon="2.95515">
        <ele>445.6</ele>
        <time>2026-05-07T07:46:21.000Z</time>
      </trkpt>
      <trkpt lat="43.58912" lon="2.95515">
        <ele>445.1</ele>
        <time>2026-05-07T07:46:22.000Z</time>
      </trkpt>
      <trkpt lat="43.58913" lon="2.95515">
        <ele>444.9</ele>
        <time>2026-05-07T07:46:23.000Z</time>
      </trkpt>
      <trkpt lat="43.58913" lon="2.95516">
        <ele>444.9</ele>
        <time>2026-05-07T07:46:24.000Z</time>
      </trkpt>
      <trkpt lat="43.58913" lon="2.95516">
        <ele>444.7</ele>
        <time>2026-05-07T07:46:25.000Z</time>
      </trkpt>
      <trkpt lat="43.58914" lon="2.95516">
        <ele>444.8</ele>
        <time>2026-05-07T07:46:26.000Z</time>
      </trkpt>
      <trkpt lat="43.58915" lon="2.95515">
        <ele>445</ele>
        <time>2026-05-07T07:46:27.000Z</time>
      </trkpt>
      <trkpt lat="43.58915" lon="2.95515">
        <ele>445.3</ele>
        <time>2026-05-07T07:46:28.000Z</time>
      </trkpt>
      <trkpt lat="43.58915" lon="2.95515">
        <ele>445.4</ele>
        <time>2026-05-07T07:46:29.000Z</time>
      </trkpt>
      <trkpt lat="43.58916" lon="2.95515">
        <ele>445.9</ele>
        <time>2026-05-07T07:46:31.000Z</time>
      </trkpt>
      <trkpt lat="43.58916" lon="2.95516">
        <ele>446.1</ele>
        <time>2026-05-07T07:46:32.000Z</time>
      </trkpt>
      <trkpt lat="43.58916" lon="2.95516">
        <ele>446.5</ele>
        <time>2026-05-07T07:46:33.000Z</time>
      </trkpt>
      <trkpt lat="43.58916" lon="2.95516">
        <ele>446.7</ele>
        <time>2026-05-07T07:46:34.000Z</time>
      </trkpt>
      <trkpt lat="43.58916" lon="2.95516">
        <ele>446.7</ele>
        <time>2026-05-07T07:46:35.000Z</time>
      </trkpt>
      <trkpt lat="43.58916" lon="2.95516">
        <ele>446.8</ele>
        <time>2026-05-07T07:46:36.000Z</time>
      </trkpt>
      <trkpt lat="43.58916" lon="2.95516">
        <ele>447</ele>
        <time>2026-05-07T07:46:37.000Z</time>
      </trkpt>
      <trkpt lat="43.58916" lon="2.95516">
        <ele>446.9</ele>
        <time>2026-05-07T07:46:38.000Z</time>
      </trkpt>
      <trkpt lat="43.58916" lon="2.95516">
        <ele>447.1</ele>
        <time>2026-05-07T07:46:39.000Z</time>
      </trkpt>
      <trkpt lat="43.58916" lon="2.95516">
        <ele>447.3</ele>
        <time>2026-05-07T07:46:40.000Z</time>
      </trkpt>
      <trkpt lat="43.58917" lon="2.95516">
        <ele>447</ele>
        <time>2026-05-07T07:46:41.000Z</time>
      </trkpt>
      <trkpt lat="43.58918" lon="2.95516">
        <ele>447</ele>
        <time>2026-05-07T07:46:42.000Z</time>
      </trkpt>
      <trkpt lat="43.58918" lon="2.95517">
        <ele>446.9</ele>
        <time>2026-05-07T07:46:43.000Z</time>
      </trkpt>
      <trkpt lat="43.58919" lon="2.95517">
        <ele>446.8</ele>
        <time>2026-05-07T07:46:44.000Z</time>
      </trkpt>
      <trkpt lat="43.5892" lon="2.95517">
        <ele>447</ele>
        <time>2026-05-07T07:46:45.000Z</time>
      </trkpt>
      <trkpt lat="43.5892" lon="2.95517">
        <ele>447</ele>
        <time>2026-05-07T07:46:46.000Z</time>
      </trkpt>
      <trkpt lat="43.5892" lon="2.95517">
        <ele>447</ele>
        <time>2026-05-07T07:46:48.000Z</time>
      </trkpt>
      <trkpt lat="43.58921" lon="2.95517">
        <ele>447.1</ele>
        <time>2026-05-07T07:46:49.000Z</time>
      </trkpt>
      <trkpt lat="43.58921" lon="2.95517">
        <ele>447.2</ele>
        <time>2026-05-07T07:46:50.000Z</time>
      </trkpt>
      <trkpt lat="43.58922" lon="2.95518">
        <ele>447.2</ele>
        <time>2026-05-07T07:46:51.000Z</time>
      </trkpt>
      <trkpt lat="43.58923" lon="2.95518">
        <ele>447.3</ele>
        <time>2026-05-07T07:46:52.000Z</time>
      </trkpt>
      <trkpt lat="43.58923" lon="2.95518">
        <ele>447.3</ele>
        <time>2026-05-07T07:46:53.000Z</time>
      </trkpt>
      <trkpt lat="43.58923" lon="2.95518">
        <ele>447.4</ele>
        <time>2026-05-07T07:46:54.000Z</time>
      </trkpt>
      <trkpt lat="43.58923" lon="2.95518">
        <ele>447.4</ele>
        <time>2026-05-07T07:46:55.000Z</time>
      </trkpt>
      <trkpt lat="43.58923" lon="2.95518">
        <ele>447.3</ele>
        <time>2026-05-07T07:46:56.000Z</time>
      </trkpt>
      <trkpt lat="43.58923" lon="2.95518">
        <ele>447.2</ele>
        <time>2026-05-07T07:46:57.000Z</time>
      </trkpt>
      <trkpt lat="43.58923" lon="2.95518">
        <ele>447.3</ele>
        <time>2026-05-07T07:46:58.000Z</time>
      </trkpt>
      <trkpt lat="43.58923" lon="2.95518">
        <ele>447.3</ele>
        <time>2026-05-07T07:46:59.000Z</time>
      </trkpt>
      <trkpt lat="43.58923" lon="2.95518">
        <ele>447.5</ele>
        <time>2026-05-07T07:47:00.000Z</time>
      </trkpt>
      <trkpt lat="43.58923" lon="2.95518">
        <ele>447.6</ele>
        <time>2026-05-07T07:47:01.000Z</time>
      </trkpt>
      <trkpt lat="43.58923" lon="2.95518">
        <ele>447.9</ele>
        <time>2026-05-07T07:47:02.000Z</time>
      </trkpt>
      <trkpt lat="43.58923" lon="2.95518">
        <ele>448.1</ele>
        <time>2026-05-07T07:47:03.000Z</time>
      </trkpt>
      <trkpt lat="43.58923" lon="2.95518">
        <ele>448</ele>
        <time>2026-05-07T07:47:05.000Z</time>
      </trkpt>
      <trkpt lat="43.58923" lon="2.95518">
        <ele>447.9</ele>
        <time>2026-05-07T07:47:06.000Z</time>
      </trkpt>
      <trkpt lat="43.58923" lon="2.95518">
        <ele>448</ele>
        <time>2026-05-07T07:47:07.000Z</time>
      </trkpt>
      <trkpt lat="43.58923" lon="2.95518">
        <ele>448</ele>
        <time>2026-05-07T07:47:08.000Z</time>
      </trkpt>
      <trkpt lat="43.58923" lon="2.95518">
        <ele>447.9</ele>
        <time>2026-05-07T07:47:09.000Z</time>
      </trkpt>
      <trkpt lat="43.58923" lon="2.95518">
        <ele>447.8</ele>
        <time>2026-05-07T07:47:10.000Z</time>
      </trkpt>
      <trkpt lat="43.58923" lon="2.95518">
        <ele>447.8</ele>
        <time>2026-05-07T07:47:11.000Z</time>
      </trkpt>
      <trkpt lat="43.58923" lon="2.95518">
        <ele>447.7</ele>
        <time>2026-05-07T07:47:12.000Z</time>
      </trkpt>
      <trkpt lat="43.58923" lon="2.95518">
        <ele>447.5</ele>
        <time>2026-05-07T07:47:13.000Z</time>
      </trkpt>
      <trkpt lat="43.58923" lon="2.95517">
        <ele>447.4</ele>
        <time>2026-05-07T07:47:14.000Z</time>
      </trkpt>
      <trkpt lat="43.58924" lon="2.95518">
        <ele>447.7</ele>
        <time>2026-05-07T07:47:15.000Z</time>
      </trkpt>
      <trkpt lat="43.58924" lon="2.95518">
        <ele>448.1</ele>
        <time>2026-05-07T07:47:16.000Z</time>
      </trkpt>
      <trkpt lat="43.58925" lon="2.95518">
        <ele>448.2</ele>
        <time>2026-05-07T07:47:17.000Z</time>
      </trkpt>
      <trkpt lat="43.58925" lon="2.95519">
        <ele>448.2</ele>
        <time>2026-05-07T07:47:18.000Z</time>
      </trkpt>
      <trkpt lat="43.58926" lon="2.9552">
        <ele>448.2</ele>
        <time>2026-05-07T07:47:19.000Z</time>
      </trkpt>
      <trkpt lat="43.58927" lon="2.95521">
        <ele>448.3</ele>
        <time>2026-05-07T07:47:20.000Z</time>
      </trkpt>
      <trkpt lat="43.58928" lon="2.9552">
        <ele>448.2</ele>
        <time>2026-05-07T07:47:21.000Z</time>
      </trkpt>
      <trkpt lat="43.58928" lon="2.9552">
        <ele>448.2</ele>
        <time>2026-05-07T07:47:22.000Z</time>
      </trkpt>
      <trkpt lat="43.58929" lon="2.9552">
        <ele>448.4</ele>
        <time>2026-05-07T07:47:23.000Z</time>
      </trkpt>
      <trkpt lat="43.58929" lon="2.95521">
        <ele>448.4</ele>
        <time>2026-05-07T07:47:24.000Z</time>
      </trkpt>
      <trkpt lat="43.58929" lon="2.95521">
        <ele>448.5</ele>
        <time>2026-05-07T07:47:25.000Z</time>
      </trkpt>
      <trkpt lat="43.58929" lon="2.95521">
        <ele>448.5</ele>
        <time>2026-05-07T07:47:26.000Z</time>
      </trkpt>
      <trkpt lat="43.58928" lon="2.9552">
        <ele>449.1</ele>
        <time>2026-05-07T07:47:27.000Z</time>
      </trkpt>
      <trkpt lat="43.58929" lon="2.9552">
        <ele>449.6</ele>
        <time>2026-05-07T07:47:28.000Z</time>
      </trkpt>
      <trkpt lat="43.58929" lon="2.9552">
        <ele>449.6</ele>
        <time>2026-05-07T07:47:29.000Z</time>
      </trkpt>
      <trkpt lat="43.58931" lon="2.9552">
        <ele>449.9</ele>
        <time>2026-05-07T07:47:31.000Z</time>
      </trkpt>
      <trkpt lat="43.58931" lon="2.9552">
        <ele>449.9</ele>
        <time>2026-05-07T07:47:32.000Z</time>
      </trkpt>
      <trkpt lat="43.58931" lon="2.9552">
        <ele>450</ele>
        <time>2026-05-07T07:47:33.000Z</time>
      </trkpt>
      <trkpt lat="43.58932" lon="2.9552">
        <ele>450.2</ele>
        <time>2026-05-07T07:47:34.000Z</time>
      </trkpt>
      <trkpt lat="43.58932" lon="2.9552">
        <ele>450.5</ele>
        <time>2026-05-07T07:47:35.000Z</time>
      </trkpt>
      <trkpt lat="43.58933" lon="2.9552">
        <ele>450.7</ele>
        <time>2026-05-07T07:47:36.000Z</time>
      </trkpt>
      <trkpt lat="43.58934" lon="2.95521">
        <ele>450.6</ele>
        <time>2026-05-07T07:47:37.000Z</time>
      </trkpt>
      <trkpt lat="43.58934" lon="2.95521">
        <ele>450.6</ele>
        <time>2026-05-07T07:47:38.000Z</time>
      </trkpt>
      <trkpt lat="43.58935" lon="2.95521">
        <ele>450.4</ele>
        <time>2026-05-07T07:47:39.000Z</time>
      </trkpt>
      <trkpt lat="43.58936" lon="2.95521">
        <ele>450.3</ele>
        <time>2026-05-07T07:47:40.000Z</time>
      </trkpt>
      <trkpt lat="43.58936" lon="2.95521">
        <ele>450.2</ele>
        <time>2026-05-07T07:47:42.000Z</time>
      </trkpt>
      <trkpt lat="43.58936" lon="2.95521">
        <ele>450.2</ele>
        <time>2026-05-07T07:47:43.000Z</time>
      </trkpt>
      <trkpt lat="43.58937" lon="2.95521">
        <ele>450.2</ele>
        <time>2026-05-07T07:47:44.000Z</time>
      </trkpt>
      <trkpt lat="43.58937" lon="2.95521">
        <ele>450.2</ele>
        <time>2026-05-07T07:47:45.000Z</time>
      </trkpt>
      <trkpt lat="43.58937" lon="2.95521">
        <ele>450.4</ele>
        <time>2026-05-07T07:47:46.000Z</time>
      </trkpt>
      <trkpt lat="43.58937" lon="2.95522">
        <ele>450.4</ele>
        <time>2026-05-07T07:47:47.000Z</time>
      </trkpt>
      <trkpt lat="43.58937" lon="2.95522">
        <ele>450.5</ele>
        <time>2026-05-07T07:47:48.000Z</time>
      </trkpt>
      <trkpt lat="43.58938" lon="2.95522">
        <ele>450.6</ele>
        <time>2026-05-07T07:47:49.000Z</time>
      </trkpt>
      <trkpt lat="43.58939" lon="2.95523">
        <ele>450.7</ele>
        <time>2026-05-07T07:47:50.000Z</time>
      </trkpt>
      <trkpt lat="43.5894" lon="2.95523">
        <ele>450.9</ele>
        <time>2026-05-07T07:47:51.000Z</time>
      </trkpt>
      <trkpt lat="43.5894" lon="2.95523">
        <ele>451.1</ele>
        <time>2026-05-07T07:47:52.000Z</time>
      </trkpt>
      <trkpt lat="43.5894" lon="2.95523">
        <ele>451.1</ele>
        <time>2026-05-07T07:47:53.000Z</time>
      </trkpt>
      <trkpt lat="43.5894" lon="2.95523">
        <ele>451.3</ele>
        <time>2026-05-07T07:47:54.000Z</time>
      </trkpt>
      <trkpt lat="43.5894" lon="2.95523">
        <ele>451.5</ele>
        <time>2026-05-07T07:47:55.000Z</time>
      </trkpt>
      <trkpt lat="43.5894" lon="2.95523">
        <ele>451.7</ele>
        <time>2026-05-07T07:47:56.000Z</time>
      </trkpt>
      <trkpt lat="43.58941" lon="2.95523">
        <ele>451.4</ele>
        <time>2026-05-07T07:47:57.000Z</time>
      </trkpt>
      <trkpt lat="43.58941" lon="2.95522">
        <ele>451.2</ele>
        <time>2026-05-07T07:47:58.000Z</time>
      </trkpt>
      <trkpt lat="43.58942" lon="2.95522">
        <ele>451.1</ele>
        <time>2026-05-07T07:47:59.000Z</time>
      </trkpt>
      <trkpt lat="43.58943" lon="2.95523">
        <ele>450.9</ele>
        <time>2026-05-07T07:48:00.000Z</time>
      </trkpt>
      <trkpt lat="43.58944" lon="2.95523">
        <ele>450.9</ele>
        <time>2026-05-07T07:48:01.000Z</time>
      </trkpt>
      <trkpt lat="43.58945" lon="2.95523">
        <ele>450.9</ele>
        <time>2026-05-07T07:48:02.000Z</time>
      </trkpt>
      <trkpt lat="43.58946" lon="2.95524">
        <ele>451.1</ele>
        <time>2026-05-07T07:48:03.000Z</time>
      </trkpt>
      <trkpt lat="43.58947" lon="2.95524">
        <ele>451.1</ele>
        <time>2026-05-07T07:48:04.000Z</time>
      </trkpt>
      <trkpt lat="43.58947" lon="2.95524">
        <ele>451.2</ele>
        <time>2026-05-07T07:48:05.000Z</time>
      </trkpt>
      <trkpt lat="43.58948" lon="2.95525">
        <ele>451.3</ele>
        <time>2026-05-07T07:48:06.000Z</time>
      </trkpt>
      <trkpt lat="43.58948" lon="2.95525">
        <ele>451.7</ele>
        <time>2026-05-07T07:48:07.000Z</time>
      </trkpt>
      <trkpt lat="43.58948" lon="2.95525">
        <ele>451.7</ele>
        <time>2026-05-07T07:48:08.000Z</time>
      </trkpt>
      <trkpt lat="43.58948" lon="2.95525">
        <ele>451.9</ele>
        <time>2026-05-07T07:48:09.000Z</time>
      </trkpt>
      <trkpt lat="43.58948" lon="2.95525">
        <ele>452.2</ele>
        <time>2026-05-07T07:48:10.000Z</time>
      </trkpt>
      <trkpt lat="43.58948" lon="2.95525">
        <ele>452.1</ele>
        <time>2026-05-07T07:48:11.000Z</time>
      </trkpt>
      <trkpt lat="43.58948" lon="2.95525">
        <ele>452.2</ele>
        <time>2026-05-07T07:48:12.000Z</time>
      </trkpt>
      <trkpt lat="43.58948" lon="2.95525">
        <ele>452.2</ele>
        <time>2026-05-07T07:48:13.000Z</time>
      </trkpt>
      <trkpt lat="43.58948" lon="2.95525">
        <ele>452.5</ele>
        <time>2026-05-07T07:48:14.000Z</time>
      </trkpt>
      <trkpt lat="43.58948" lon="2.95525">
        <ele>452.7</ele>
        <time>2026-05-07T07:48:15.000Z</time>
      </trkpt>
      <trkpt lat="43.58948" lon="2.95525">
        <ele>452.8</ele>
        <time>2026-05-07T07:48:16.000Z</time>
      </trkpt>
      <trkpt lat="43.58948" lon="2.95525">
        <ele>453.1</ele>
        <time>2026-05-07T07:48:17.000Z</time>
      </trkpt>
      <trkpt lat="43.58948" lon="2.95525">
        <ele>453.5</ele>
        <time>2026-05-07T07:48:18.000Z</time>
      </trkpt>
      <trkpt lat="43.58948" lon="2.95525">
        <ele>453.6</ele>
        <time>2026-05-07T07:48:19.000Z</time>
      </trkpt>
      <trkpt lat="43.58948" lon="2.95525">
        <ele>453.7</ele>
        <time>2026-05-07T07:48:20.000Z</time>
      </trkpt>
      <trkpt lat="43.58948" lon="2.95525">
        <ele>453.7</ele>
        <time>2026-05-07T07:48:21.000Z</time>
      </trkpt>
      <trkpt lat="43.58948" lon="2.95526">
        <ele>453.9</ele>
        <time>2026-05-07T07:48:22.000Z</time>
      </trkpt>
      <trkpt lat="43.58948" lon="2.95526">
        <ele>454.1</ele>
        <time>2026-05-07T07:48:23.000Z</time>
      </trkpt>
      <trkpt lat="43.58949" lon="2.95526">
        <ele>454.5</ele>
        <time>2026-05-07T07:48:24.000Z</time>
      </trkpt>
      <trkpt lat="43.58949" lon="2.95526">
        <ele>454.6</ele>
        <time>2026-05-07T07:48:25.000Z</time>
      </trkpt>
      <trkpt lat="43.58949" lon="2.95526">
        <ele>454.8</ele>
        <time>2026-05-07T07:48:26.000Z</time>
      </trkpt>
      <trkpt lat="43.5895" lon="2.95526">
        <ele>455</ele>
        <time>2026-05-07T07:48:27.000Z</time>
      </trkpt>
      <trkpt lat="43.58951" lon="2.95526">
        <ele>454.8</ele>
        <time>2026-05-07T07:48:28.000Z</time>
      </trkpt>
      <trkpt lat="43.58951" lon="2.95526">
        <ele>454.6</ele>
        <time>2026-05-07T07:48:29.000Z</time>
      </trkpt>
      <trkpt lat="43.58951" lon="2.95527">
        <ele>454.6</ele>
        <time>2026-05-07T07:48:31.000Z</time>
      </trkpt>
      <trkpt lat="43.58951" lon="2.95527">
        <ele>454.6</ele>
        <time>2026-05-07T07:48:32.000Z</time>
      </trkpt>
      <trkpt lat="43.58952" lon="2.95527">
        <ele>454.8</ele>
        <time>2026-05-07T07:48:33.000Z</time>
      </trkpt>
      <trkpt lat="43.58952" lon="2.95527">
        <ele>454.7</ele>
        <time>2026-05-07T07:48:34.000Z</time>
      </trkpt>
      <trkpt lat="43.58952" lon="2.95527">
        <ele>454.5</ele>
        <time>2026-05-07T07:48:35.000Z</time>
      </trkpt>
      <trkpt lat="43.58952" lon="2.95527">
        <ele>454.6</ele>
        <time>2026-05-07T07:48:36.000Z</time>
      </trkpt>
      <trkpt lat="43.58952" lon="2.95527">
        <ele>454.7</ele>
        <time>2026-05-07T07:48:37.000Z</time>
      </trkpt>
      <trkpt lat="43.58953" lon="2.95527">
        <ele>454.7</ele>
        <time>2026-05-07T07:48:38.000Z</time>
      </trkpt>
      <trkpt lat="43.58952" lon="2.95526">
        <ele>454.9</ele>
        <time>2026-05-07T07:48:39.000Z</time>
      </trkpt>
      <trkpt lat="43.58953" lon="2.95526">
        <ele>454.9</ele>
        <time>2026-05-07T07:48:40.000Z</time>
      </trkpt>
      <trkpt lat="43.58953" lon="2.95526">
        <ele>454.9</ele>
        <time>2026-05-07T07:48:41.000Z</time>
      </trkpt>
      <trkpt lat="43.58953" lon="2.95526">
        <ele>454.9</ele>
        <time>2026-05-07T07:48:42.000Z</time>
      </trkpt>
      <trkpt lat="43.58953" lon="2.95526">
        <ele>454.8</ele>
        <time>2026-05-07T07:48:43.000Z</time>
      </trkpt>
      <trkpt lat="43.58953" lon="2.95526">
        <ele>455</ele>
        <time>2026-05-07T07:48:44.000Z</time>
      </trkpt>
      <trkpt lat="43.58953" lon="2.95526">
        <ele>454.8</ele>
        <time>2026-05-07T07:48:45.000Z</time>
      </trkpt>
      <trkpt lat="43.58953" lon="2.95527">
        <ele>454.9</ele>
        <time>2026-05-07T07:48:46.000Z</time>
      </trkpt>
      <trkpt lat="43.58953" lon="2.95528">
        <ele>454.9</ele>
        <time>2026-05-07T07:48:47.000Z</time>
      </trkpt>
      <trkpt lat="43.58953" lon="2.95528">
        <ele>455</ele>
        <time>2026-05-07T07:48:48.000Z</time>
      </trkpt>
      <trkpt lat="43.58954" lon="2.95528">
        <ele>454.8</ele>
        <time>2026-05-07T07:48:49.000Z</time>
      </trkpt>
      <trkpt lat="43.58954" lon="2.95528">
        <ele>454.9</ele>
        <time>2026-05-07T07:48:50.000Z</time>
      </trkpt>
      <trkpt lat="43.58955" lon="2.95529">
        <ele>454.9</ele>
        <time>2026-05-07T07:48:51.000Z</time>
      </trkpt>
      <trkpt lat="43.58955" lon="2.95529">
        <ele>455.1</ele>
        <time>2026-05-07T07:48:52.000Z</time>
      </trkpt>
      <trkpt lat="43.58956" lon="2.95529">
        <ele>455.4</ele>
        <time>2026-05-07T07:48:53.000Z</time>
      </trkpt>
      <trkpt lat="43.58957" lon="2.95529">
        <ele>455.5</ele>
        <time>2026-05-07T07:48:54.000Z</time>
      </trkpt>
      <trkpt lat="43.58957" lon="2.9553">
        <ele>455.8</ele>
        <time>2026-05-07T07:48:55.000Z</time>
      </trkpt>
      <trkpt lat="43.58958" lon="2.95531">
        <ele>455.8</ele>
        <time>2026-05-07T07:48:56.000Z</time>
      </trkpt>
      <trkpt lat="43.58959" lon="2.95531">
        <ele>455.8</ele>
        <time>2026-05-07T07:48:57.000Z</time>
      </trkpt>
      <trkpt lat="43.58959" lon="2.95531">
        <ele>456.9</ele>
        <time>2026-05-07T07:48:59.000Z</time>
      </trkpt>
      <trkpt lat="43.58959" lon="2.95531">
        <ele>457.5</ele>
        <time>2026-05-07T07:49:00.000Z</time>
      </trkpt>
      <trkpt lat="43.58959" lon="2.95531">
        <ele>458.1</ele>
        <time>2026-05-07T07:49:01.000Z</time>
      </trkpt>
      <trkpt lat="43.58959" lon="2.95531">
        <ele>458.5</ele>
        <time>2026-05-07T07:49:02.000Z</time>
      </trkpt>
      <trkpt lat="43.58959" lon="2.95531">
        <ele>458.6</ele>
        <time>2026-05-07T07:49:03.000Z</time>
      </trkpt>
      <trkpt lat="43.58959" lon="2.95531">
        <ele>458.7</ele>
        <time>2026-05-07T07:49:04.000Z</time>
      </trkpt>
      <trkpt lat="43.58959" lon="2.95531">
        <ele>458.6</ele>
        <time>2026-05-07T07:49:05.000Z</time>
      </trkpt>
      <trkpt lat="43.58959" lon="2.95531">
        <ele>458.5</ele>
        <time>2026-05-07T07:49:06.000Z</time>
      </trkpt>
      <trkpt lat="43.58959" lon="2.95531">
        <ele>458.2</ele>
        <time>2026-05-07T07:49:08.000Z</time>
      </trkpt>
      <trkpt lat="43.58959" lon="2.95531">
        <ele>458.3</ele>
        <time>2026-05-07T07:49:09.000Z</time>
      </trkpt>
      <trkpt lat="43.58959" lon="2.9553">
        <ele>458.2</ele>
        <time>2026-05-07T07:49:10.000Z</time>
      </trkpt>
      <trkpt lat="43.58959" lon="2.9553">
        <ele>458.1</ele>
        <time>2026-05-07T07:49:11.000Z</time>
      </trkpt>
      <trkpt lat="43.58959" lon="2.9553">
        <ele>458.2</ele>
        <time>2026-05-07T07:49:12.000Z</time>
      </trkpt>
      <trkpt lat="43.58959" lon="2.9553">
        <ele>458.4</ele>
        <time>2026-05-07T07:49:13.000Z</time>
      </trkpt>
      <trkpt lat="43.58959" lon="2.9553">
        <ele>458.7</ele>
        <time>2026-05-07T07:49:14.000Z</time>
      </trkpt>
      <trkpt lat="43.58959" lon="2.9553">
        <ele>458.8</ele>
        <time>2026-05-07T07:49:15.000Z</time>
      </trkpt>
      <trkpt lat="43.58959" lon="2.9553">
        <ele>459</ele>
        <time>2026-05-07T07:49:16.000Z</time>
      </trkpt>
      <trkpt lat="43.58959" lon="2.9553">
        <ele>459.2</ele>
        <time>2026-05-07T07:49:17.000Z</time>
      </trkpt>
      <trkpt lat="43.58959" lon="2.9553">
        <ele>458.9</ele>
        <time>2026-05-07T07:49:19.000Z</time>
      </trkpt>
      <trkpt lat="43.58959" lon="2.9553">
        <ele>458.8</ele>
        <time>2026-05-07T07:49:20.000Z</time>
      </trkpt>
      <trkpt lat="43.58959" lon="2.9553">
        <ele>458.9</ele>
        <time>2026-05-07T07:49:21.000Z</time>
      </trkpt>
      <trkpt lat="43.58959" lon="2.9553">
        <ele>458.9</ele>
        <time>2026-05-07T07:49:22.000Z</time>
      </trkpt>
      <trkpt lat="43.58959" lon="2.9553">
        <ele>458.8</ele>
        <time>2026-05-07T07:49:23.000Z</time>
      </trkpt>
      <trkpt lat="43.58959" lon="2.9553">
        <ele>458.7</ele>
        <time>2026-05-07T07:49:24.000Z</time>
      </trkpt>
      <trkpt lat="43.58959" lon="2.9553">
        <ele>458.6</ele>
        <time>2026-05-07T07:49:25.000Z</time>
      </trkpt>
      <trkpt lat="43.58959" lon="2.9553">
        <ele>458.5</ele>
        <time>2026-05-07T07:49:26.000Z</time>
      </trkpt>
      <trkpt lat="43.58959" lon="2.9553">
        <ele>458.5</ele>
        <time>2026-05-07T07:49:27.000Z</time>
      </trkpt>
      <trkpt lat="43.58959" lon="2.9553">
        <ele>458.7</ele>
        <time>2026-05-07T07:49:28.000Z</time>
      </trkpt>
      <trkpt lat="43.58959" lon="2.9553">
        <ele>458.8</ele>
        <time>2026-05-07T07:49:29.000Z</time>
      </trkpt>
      <trkpt lat="43.58959" lon="2.9553">
        <ele>458.9</ele>
        <time>2026-05-07T07:49:30.000Z</time>
      </trkpt>
      <trkpt lat="43.58959" lon="2.9553">
        <ele>459.2</ele>
        <time>2026-05-07T07:49:31.000Z</time>
      </trkpt>
      <trkpt lat="43.58959" lon="2.9553">
        <ele>459.3</ele>
        <time>2026-05-07T07:49:32.000Z</time>
      </trkpt>
      <trkpt lat="43.5896" lon="2.95529">
        <ele>459.5</ele>
        <time>2026-05-07T07:49:33.000Z</time>
      </trkpt>
      <trkpt lat="43.5896" lon="2.95529">
        <ele>459.5</ele>
        <time>2026-05-07T07:49:34.000Z</time>
      </trkpt>
      <trkpt lat="43.58961" lon="2.9553">
        <ele>459.6</ele>
        <time>2026-05-07T07:49:35.000Z</time>
      </trkpt>
      <trkpt lat="43.58961" lon="2.9553">
        <ele>459.5</ele>
        <time>2026-05-07T07:49:36.000Z</time>
      </trkpt>
      <trkpt lat="43.58961" lon="2.9553">
        <ele>459.4</ele>
        <time>2026-05-07T07:49:38.000Z</time>
      </trkpt>
      <trkpt lat="43.58961" lon="2.9553">
        <ele>459.5</ele>
        <time>2026-05-07T07:49:39.000Z</time>
      </trkpt>
      <trkpt lat="43.58962" lon="2.95531">
        <ele>459.7</ele>
        <time>2026-05-07T07:49:40.000Z</time>
      </trkpt>
      <trkpt lat="43.58961" lon="2.95531">
        <ele>460</ele>
        <time>2026-05-07T07:49:41.000Z</time>
      </trkpt>
      <trkpt lat="43.58961" lon="2.95531">
        <ele>460.3</ele>
        <time>2026-05-07T07:49:42.000Z</time>
      </trkpt>
      <trkpt lat="43.58962" lon="2.95531">
        <ele>460.3</ele>
        <time>2026-05-07T07:49:43.000Z</time>
      </trkpt>
      <trkpt lat="43.58963" lon="2.95532">
        <ele>460.6</ele>
        <time>2026-05-07T07:49:44.000Z</time>
      </trkpt>
      <trkpt lat="43.58963" lon="2.95531">
        <ele>460.8</ele>
        <time>2026-05-07T07:49:45.000Z</time>
      </trkpt>
      <trkpt lat="43.58963" lon="2.95532">
        <ele>461</ele>
        <time>2026-05-07T07:49:46.000Z</time>
      </trkpt>
      <trkpt lat="43.58963" lon="2.95532">
        <ele>460.9</ele>
        <time>2026-05-07T07:49:47.000Z</time>
      </trkpt>
      <trkpt lat="43.58963" lon="2.95533">
        <ele>461</ele>
        <time>2026-05-07T07:49:48.000Z</time>
      </trkpt>
      <trkpt lat="43.58963" lon="2.95534">
        <ele>461</ele>
        <time>2026-05-07T07:49:49.000Z</time>
      </trkpt>
      <trkpt lat="43.58964" lon="2.95535">
        <ele>460.9</ele>
        <time>2026-05-07T07:49:50.000Z</time>
      </trkpt>
      <trkpt lat="43.58965" lon="2.95535">
        <ele>460.9</ele>
        <time>2026-05-07T07:49:51.000Z</time>
      </trkpt>
      <trkpt lat="43.58965" lon="2.95536">
        <ele>461</ele>
        <time>2026-05-07T07:49:52.000Z</time>
      </trkpt>
      <trkpt lat="43.58966" lon="2.95536">
        <ele>461.1</ele>
        <time>2026-05-07T07:49:54.000Z</time>
      </trkpt>
      <trkpt lat="43.58966" lon="2.95536">
        <ele>461.1</ele>
        <time>2026-05-07T07:49:55.000Z</time>
      </trkpt>
      <trkpt lat="43.58966" lon="2.95537">
        <ele>461.3</ele>
        <time>2026-05-07T07:49:56.000Z</time>
      </trkpt>
      <trkpt lat="43.58966" lon="2.95537">
        <ele>461.4</ele>
        <time>2026-05-07T07:49:57.000Z</time>
      </trkpt>
      <trkpt lat="43.58966" lon="2.95537">
        <ele>461.5</ele>
        <time>2026-05-07T07:49:58.000Z</time>
      </trkpt>
      <trkpt lat="43.58967" lon="2.95537">
        <ele>461.8</ele>
        <time>2026-05-07T07:49:59.000Z</time>
      </trkpt>
      <trkpt lat="43.58967" lon="2.95538">
        <ele>461.8</ele>
        <time>2026-05-07T07:50:00.000Z</time>
      </trkpt>
      <trkpt lat="43.58967" lon="2.95538">
        <ele>462</ele>
        <time>2026-05-07T07:50:01.000Z</time>
      </trkpt>
      <trkpt lat="43.58966" lon="2.95538">
        <ele>462.3</ele>
        <time>2026-05-07T07:50:02.000Z</time>
      </trkpt>
      <trkpt lat="43.58967" lon="2.95538">
        <ele>462.3</ele>
        <time>2026-05-07T07:50:03.000Z</time>
      </trkpt>
      <trkpt lat="43.58967" lon="2.95538">
        <ele>462.3</ele>
        <time>2026-05-07T07:50:04.000Z</time>
      </trkpt>
      <trkpt lat="43.58967" lon="2.95538">
        <ele>462.4</ele>
        <time>2026-05-07T07:50:05.000Z</time>
      </trkpt>
      <trkpt lat="43.58968" lon="2.95537">
        <ele>462.3</ele>
        <time>2026-05-07T07:50:06.000Z</time>
      </trkpt>
      <trkpt lat="43.58968" lon="2.95537">
        <ele>462.1</ele>
        <time>2026-05-07T07:50:07.000Z</time>
      </trkpt>
      <trkpt lat="43.58968" lon="2.95537">
        <ele>461.8</ele>
        <time>2026-05-07T07:50:08.000Z</time>
      </trkpt>
      <trkpt lat="43.58968" lon="2.95537">
        <ele>461.6</ele>
        <time>2026-05-07T07:50:09.000Z</time>
      </trkpt>
      <trkpt lat="43.58968" lon="2.95538">
        <ele>461.7</ele>
        <time>2026-05-07T07:50:10.000Z</time>
      </trkpt>
      <trkpt lat="43.58968" lon="2.95539">
        <ele>461.9</ele>
        <time>2026-05-07T07:50:11.000Z</time>
      </trkpt>
      <trkpt lat="43.58968" lon="2.9554">
        <ele>462.1</ele>
        <time>2026-05-07T07:50:12.000Z</time>
      </trkpt>
      <trkpt lat="43.58968" lon="2.9554">
        <ele>462.4</ele>
        <time>2026-05-07T07:50:13.000Z</time>
      </trkpt>
      <trkpt lat="43.58968" lon="2.9554">
        <ele>462.4</ele>
        <time>2026-05-07T07:50:14.000Z</time>
      </trkpt>
      <trkpt lat="43.58968" lon="2.9554">
        <ele>462.5</ele>
        <time>2026-05-07T07:50:15.000Z</time>
      </trkpt>
      <trkpt lat="43.58968" lon="2.9554">
        <ele>462.6</ele>
        <time>2026-05-07T07:50:16.000Z</time>
      </trkpt>
      <trkpt lat="43.58968" lon="2.95541">
        <ele>462.7</ele>
        <time>2026-05-07T07:50:18.000Z</time>
      </trkpt>
      <trkpt lat="43.58968" lon="2.95541">
        <ele>462.5</ele>
        <time>2026-05-07T07:50:19.000Z</time>
      </trkpt>
      <trkpt lat="43.58969" lon="2.9554">
        <ele>462.4</ele>
        <time>2026-05-07T07:50:20.000Z</time>
      </trkpt>
      <trkpt lat="43.58969" lon="2.9554">
        <ele>462.5</ele>
        <time>2026-05-07T07:50:21.000Z</time>
      </trkpt>
      <trkpt lat="43.58969" lon="2.9554">
        <ele>462.6</ele>
        <time>2026-05-07T07:50:22.000Z</time>
      </trkpt>
      <trkpt lat="43.58969" lon="2.9554">
        <ele>462.8</ele>
        <time>2026-05-07T07:50:23.000Z</time>
      </trkpt>
      <trkpt lat="43.58969" lon="2.9554">
        <ele>462.8</ele>
        <time>2026-05-07T07:50:24.000Z</time>
      </trkpt>
      <trkpt lat="43.58969" lon="2.9554">
        <ele>463</ele>
        <time>2026-05-07T07:50:25.000Z</time>
      </trkpt>
      <trkpt lat="43.58969" lon="2.9554">
        <ele>463.2</ele>
        <time>2026-05-07T07:50:26.000Z</time>
      </trkpt>
      <trkpt lat="43.5897" lon="2.95539">
        <ele>463.3</ele>
        <time>2026-05-07T07:50:27.000Z</time>
      </trkpt>
      <trkpt lat="43.5897" lon="2.95539">
        <ele>463.4</ele>
        <time>2026-05-07T07:50:28.000Z</time>
      </trkpt>
      <trkpt lat="43.5897" lon="2.95538">
        <ele>463.4</ele>
        <time>2026-05-07T07:50:29.000Z</time>
      </trkpt>
      <trkpt lat="43.58971" lon="2.95538">
        <ele>463.4</ele>
        <time>2026-05-07T07:50:30.000Z</time>
      </trkpt>
      <trkpt lat="43.58971" lon="2.95537">
        <ele>463.4</ele>
        <time>2026-05-07T07:50:31.000Z</time>
      </trkpt>
      <trkpt lat="43.5897" lon="2.95537">
        <ele>463.4</ele>
        <time>2026-05-07T07:50:32.000Z</time>
      </trkpt>
      <trkpt lat="43.5897" lon="2.95535">
        <ele>463.3</ele>
        <time>2026-05-07T07:50:33.000Z</time>
      </trkpt>
      <trkpt lat="43.58971" lon="2.95535">
        <ele>463.2</ele>
        <time>2026-05-07T07:50:34.000Z</time>
      </trkpt>
      <trkpt lat="43.5897" lon="2.95534">
        <ele>463.3</ele>
        <time>2026-05-07T07:50:35.000Z</time>
      </trkpt>
      <trkpt lat="43.5897" lon="2.95535">
        <ele>463.2</ele>
        <time>2026-05-07T07:50:36.000Z</time>
      </trkpt>
      <trkpt lat="43.5897" lon="2.95535">
        <ele>463.7</ele>
        <time>2026-05-07T07:50:37.000Z</time>
      </trkpt>
      <trkpt lat="43.5897" lon="2.95535">
        <ele>463.6</ele>
        <time>2026-05-07T07:50:38.000Z</time>
      </trkpt>
      <trkpt lat="43.58971" lon="2.95535">
        <ele>463.9</ele>
        <time>2026-05-07T07:50:39.000Z</time>
      </trkpt>
      <trkpt lat="43.58972" lon="2.95536">
        <ele>464.2</ele>
        <time>2026-05-07T07:50:40.000Z</time>
      </trkpt>
      <trkpt lat="43.58972" lon="2.95536">
        <ele>464.4</ele>
        <time>2026-05-07T07:50:41.000Z</time>
      </trkpt>
      <trkpt lat="43.58973" lon="2.95536">
        <ele>464.2</ele>
        <time>2026-05-07T07:50:42.000Z</time>
      </trkpt>
      <trkpt lat="43.58973" lon="2.95536">
        <ele>464.4</ele>
        <time>2026-05-07T07:50:43.000Z</time>
      </trkpt>
      <trkpt lat="43.58973" lon="2.95536">
        <ele>464.7</ele>
        <time>2026-05-07T07:50:44.000Z</time>
      </trkpt>
      <trkpt lat="43.58973" lon="2.95536">
        <ele>464.8</ele>
        <time>2026-05-07T07:50:45.000Z</time>
      </trkpt>
      <trkpt lat="43.58973" lon="2.95536">
        <ele>465.3</ele>
        <time>2026-05-07T07:50:46.000Z</time>
      </trkpt>
      <trkpt lat="43.58973" lon="2.95536">
        <ele>465.5</ele>
        <time>2026-05-07T07:50:47.000Z</time>
      </trkpt>
      <trkpt lat="43.58973" lon="2.95537">
        <ele>465.9</ele>
        <time>2026-05-07T07:50:48.000Z</time>
      </trkpt>
      <trkpt lat="43.58973" lon="2.95537">
        <ele>466</ele>
        <time>2026-05-07T07:50:49.000Z</time>
      </trkpt>
      <trkpt lat="43.58973" lon="2.95537">
        <ele>466.1</ele>
        <time>2026-05-07T07:50:50.000Z</time>
      </trkpt>
      <trkpt lat="43.58974" lon="2.95537">
        <ele>466.1</ele>
        <time>2026-05-07T07:50:51.000Z</time>
      </trkpt>
      <trkpt lat="43.58975" lon="2.95537">
        <ele>466.2</ele>
        <time>2026-05-07T07:50:52.000Z</time>
      </trkpt>
      <trkpt lat="43.58976" lon="2.95537">
        <ele>466.4</ele>
        <time>2026-05-07T07:50:53.000Z</time>
      </trkpt>
      <trkpt lat="43.58977" lon="2.95538">
        <ele>466.6</ele>
        <time>2026-05-07T07:50:54.000Z</time>
      </trkpt>
      <trkpt lat="43.58977" lon="2.95537">
        <ele>466.8</ele>
        <time>2026-05-07T07:50:55.000Z</time>
      </trkpt>
      <trkpt lat="43.58977" lon="2.95537">
        <ele>466.9</ele>
        <time>2026-05-07T07:50:56.000Z</time>
      </trkpt>
      <trkpt lat="43.58977" lon="2.95537">
        <ele>466.8</ele>
        <time>2026-05-07T07:50:57.000Z</time>
      </trkpt>
      <trkpt lat="43.58977" lon="2.95537">
        <ele>467.2</ele>
        <time>2026-05-07T07:50:58.000Z</time>
      </trkpt>
      <trkpt lat="43.58977" lon="2.95538">
        <ele>467.4</ele>
        <time>2026-05-07T07:50:59.000Z</time>
      </trkpt>
      <trkpt lat="43.58977" lon="2.95538">
        <ele>467.7</ele>
        <time>2026-05-07T07:51:00.000Z</time>
      </trkpt>
      <trkpt lat="43.58978" lon="2.95539">
        <ele>468</ele>
        <time>2026-05-07T07:51:01.000Z</time>
      </trkpt>
      <trkpt lat="43.58979" lon="2.9554">
        <ele>468.2</ele>
        <time>2026-05-07T07:51:02.000Z</time>
      </trkpt>
      <trkpt lat="43.5898" lon="2.95542">
        <ele>468.4</ele>
        <time>2026-05-07T07:51:03.000Z</time>
      </trkpt>
      <trkpt lat="43.58981" lon="2.95543">
        <ele>468.6</ele>
        <time>2026-05-07T07:51:04.000Z</time>
      </trkpt>
      <trkpt lat="43.58981" lon="2.95543">
        <ele>468.5</ele>
        <time>2026-05-07T07:51:05.000Z</time>
      </trkpt>
      <trkpt lat="43.58982" lon="2.95543">
        <ele>468.5</ele>
        <time>2026-05-07T07:51:06.000Z</time>
      </trkpt>
      <trkpt lat="43.58982" lon="2.95543">
        <ele>468.6</ele>
        <time>2026-05-07T07:51:07.000Z</time>
      </trkpt>
      <trkpt lat="43.58982" lon="2.95544">
        <ele>469</ele>
        <time>2026-05-07T07:51:08.000Z</time>
      </trkpt>
      <trkpt lat="43.58983" lon="2.95545">
        <ele>469.3</ele>
        <time>2026-05-07T07:51:09.000Z</time>
      </trkpt>
      <trkpt lat="43.58983" lon="2.95545">
        <ele>469.5</ele>
        <time>2026-05-07T07:51:10.000Z</time>
      </trkpt>
      <trkpt lat="43.58983" lon="2.95545">
        <ele>469.4</ele>
        <time>2026-05-07T07:51:11.000Z</time>
      </trkpt>
      <trkpt lat="43.58983" lon="2.95545">
        <ele>469.6</ele>
        <time>2026-05-07T07:51:12.000Z</time>
      </trkpt>
      <trkpt lat="43.58984" lon="2.95544">
        <ele>469.7</ele>
        <time>2026-05-07T07:51:13.000Z</time>
      </trkpt>
      <trkpt lat="43.58985" lon="2.95543">
        <ele>470.3</ele>
        <time>2026-05-07T07:51:15.000Z</time>
      </trkpt>
      <trkpt lat="43.58985" lon="2.95544">
        <ele>470</ele>
        <time>2026-05-07T07:51:16.000Z</time>
      </trkpt>
      <trkpt lat="43.58985" lon="2.95544">
        <ele>470.1</ele>
        <time>2026-05-07T07:51:17.000Z</time>
      </trkpt>
      <trkpt lat="43.58986" lon="2.95544">
        <ele>470.5</ele>
        <time>2026-05-07T07:51:18.000Z</time>
      </trkpt>
      <trkpt lat="43.58987" lon="2.95545">
        <ele>471</ele>
        <time>2026-05-07T07:51:19.000Z</time>
      </trkpt>
      <trkpt lat="43.58987" lon="2.95545">
        <ele>471.1</ele>
        <time>2026-05-07T07:51:20.000Z</time>
      </trkpt>
      <trkpt lat="43.58988" lon="2.95546">
        <ele>471</ele>
        <time>2026-05-07T07:51:21.000Z</time>
      </trkpt>
      <trkpt lat="43.58988" lon="2.95546">
        <ele>471.1</ele>
        <time>2026-05-07T07:51:22.000Z</time>
      </trkpt>
      <trkpt lat="43.58988" lon="2.95544">
        <ele>471.1</ele>
        <time>2026-05-07T07:51:23.000Z</time>
      </trkpt>
      <trkpt lat="43.58988" lon="2.95543">
        <ele>470.8</ele>
        <time>2026-05-07T07:51:24.000Z</time>
      </trkpt>
      <trkpt lat="43.58988" lon="2.95543">
        <ele>470.7</ele>
        <time>2026-05-07T07:51:25.000Z</time>
      </trkpt>
      <trkpt lat="43.58989" lon="2.95543">
        <ele>470.8</ele>
        <time>2026-05-07T07:51:27.000Z</time>
      </trkpt>
      <trkpt lat="43.58989" lon="2.95543">
        <ele>471</ele>
        <time>2026-05-07T07:51:28.000Z</time>
      </trkpt>
      <trkpt lat="43.58989" lon="2.95542">
        <ele>471.3</ele>
        <time>2026-05-07T07:51:29.000Z</time>
      </trkpt>
      <trkpt lat="43.58989" lon="2.95542">
        <ele>471.2</ele>
        <time>2026-05-07T07:51:30.000Z</time>
      </trkpt>
      <trkpt lat="43.58989" lon="2.95542">
        <ele>471.6</ele>
        <time>2026-05-07T07:51:31.000Z</time>
      </trkpt>
      <trkpt lat="43.58989" lon="2.95542">
        <ele>471.7</ele>
        <time>2026-05-07T07:51:32.000Z</time>
      </trkpt>
      <trkpt lat="43.58989" lon="2.95542">
        <ele>471.9</ele>
        <time>2026-05-07T07:51:33.000Z</time>
      </trkpt>
      <trkpt lat="43.58989" lon="2.95542">
        <ele>472.2</ele>
        <time>2026-05-07T07:51:34.000Z</time>
      </trkpt>
      <trkpt lat="43.58989" lon="2.95542">
        <ele>472.2</ele>
        <time>2026-05-07T07:51:35.000Z</time>
      </trkpt>
      <trkpt lat="43.5899" lon="2.9554">
        <ele>471.6</ele>
        <time>2026-05-07T07:51:37.000Z</time>
      </trkpt>
      <trkpt lat="43.5899" lon="2.95539">
        <ele>471.4</ele>
        <time>2026-05-07T07:51:38.000Z</time>
      </trkpt>
      <trkpt lat="43.58991" lon="2.95539">
        <ele>471.3</ele>
        <time>2026-05-07T07:51:39.000Z</time>
      </trkpt>
      <trkpt lat="43.58991" lon="2.95538">
        <ele>471.3</ele>
        <time>2026-05-07T07:51:40.000Z</time>
      </trkpt>
      <trkpt lat="43.58991" lon="2.95538">
        <ele>472</ele>
        <time>2026-05-07T07:51:41.000Z</time>
      </trkpt>
      <trkpt lat="43.58991" lon="2.95538">
        <ele>472.6</ele>
        <time>2026-05-07T07:51:42.000Z</time>
      </trkpt>
      <trkpt lat="43.58991" lon="2.95538">
        <ele>472.9</ele>
        <time>2026-05-07T07:51:43.000Z</time>
      </trkpt>
      <trkpt lat="43.58991" lon="2.95538">
        <ele>472.9</ele>
        <time>2026-05-07T07:51:44.000Z</time>
      </trkpt>
      <trkpt lat="43.58991" lon="2.95538">
        <ele>473.1</ele>
        <time>2026-05-07T07:51:45.000Z</time>
      </trkpt>
      <trkpt lat="43.58992" lon="2.95538">
        <ele>473.2</ele>
        <time>2026-05-07T07:51:46.000Z</time>
      </trkpt>
      <trkpt lat="43.58992" lon="2.95539">
        <ele>473.3</ele>
        <time>2026-05-07T07:51:47.000Z</time>
      </trkpt>
      <trkpt lat="43.58993" lon="2.95539">
        <ele>473.4</ele>
        <time>2026-05-07T07:51:48.000Z</time>
      </trkpt>
      <trkpt lat="43.58993" lon="2.95538">
        <ele>473.5</ele>
        <time>2026-05-07T07:51:49.000Z</time>
      </trkpt>
      <trkpt lat="43.58994" lon="2.95539">
        <ele>473.7</ele>
        <time>2026-05-07T07:51:50.000Z</time>
      </trkpt>
      <trkpt lat="43.58994" lon="2.95539">
        <ele>474.1</ele>
        <time>2026-05-07T07:51:51.000Z</time>
      </trkpt>
      <trkpt lat="43.58994" lon="2.95539">
        <ele>474.2</ele>
        <time>2026-05-07T07:51:52.000Z</time>
      </trkpt>
      <trkpt lat="43.58994" lon="2.95539">
        <ele>474.2</ele>
        <time>2026-05-07T07:51:53.000Z</time>
      </trkpt>
      <trkpt lat="43.58994" lon="2.95539">
        <ele>474.4</ele>
        <time>2026-05-07T07:51:54.000Z</time>
      </trkpt>
      <trkpt lat="43.58994" lon="2.95538">
        <ele>474.2</ele>
        <time>2026-05-07T07:51:55.000Z</time>
      </trkpt>
      <trkpt lat="43.58995" lon="2.95537">
        <ele>473.9</ele>
        <time>2026-05-07T07:51:56.000Z</time>
      </trkpt>
      <trkpt lat="43.58995" lon="2.95537">
        <ele>473.8</ele>
        <time>2026-05-07T07:51:57.000Z</time>
      </trkpt>
      <trkpt lat="43.58995" lon="2.95537">
        <ele>473.8</ele>
        <time>2026-05-07T07:51:58.000Z</time>
      </trkpt>
      <trkpt lat="43.58995" lon="2.95537">
        <ele>473.7</ele>
        <time>2026-05-07T07:51:59.000Z</time>
      </trkpt>
      <trkpt lat="43.58995" lon="2.95537">
        <ele>473.7</ele>
        <time>2026-05-07T07:52:01.000Z</time>
      </trkpt>
      <trkpt lat="43.58995" lon="2.95537">
        <ele>473.6</ele>
        <time>2026-05-07T07:52:02.000Z</time>
      </trkpt>
      <trkpt lat="43.58995" lon="2.95537">
        <ele>473.8</ele>
        <time>2026-05-07T07:52:03.000Z</time>
      </trkpt>
      <trkpt lat="43.58995" lon="2.95537">
        <ele>474.1</ele>
        <time>2026-05-07T07:52:04.000Z</time>
      </trkpt>
      <trkpt lat="43.58996" lon="2.95537">
        <ele>474.2</ele>
        <time>2026-05-07T07:52:05.000Z</time>
      </trkpt>
      <trkpt lat="43.58996" lon="2.95537">
        <ele>474.1</ele>
        <time>2026-05-07T07:52:06.000Z</time>
      </trkpt>
      <trkpt lat="43.58996" lon="2.95537">
        <ele>474.3</ele>
        <time>2026-05-07T07:52:07.000Z</time>
      </trkpt>
      <trkpt lat="43.58996" lon="2.95536">
        <ele>474.7</ele>
        <time>2026-05-07T07:52:08.000Z</time>
      </trkpt>
      <trkpt lat="43.58996" lon="2.95536">
        <ele>474.8</ele>
        <time>2026-05-07T07:52:09.000Z</time>
      </trkpt>
      <trkpt lat="43.58996" lon="2.95536">
        <ele>474.9</ele>
        <time>2026-05-07T07:52:10.000Z</time>
      </trkpt>
      <trkpt lat="43.58996" lon="2.95536">
        <ele>475.4</ele>
        <time>2026-05-07T07:52:11.000Z</time>
      </trkpt>
      <trkpt lat="43.58996" lon="2.95536">
        <ele>476</ele>
        <time>2026-05-07T07:52:12.000Z</time>
      </trkpt>
      <trkpt lat="43.58996" lon="2.95536">
        <ele>476.3</ele>
        <time>2026-05-07T07:52:13.000Z</time>
      </trkpt>
      <trkpt lat="43.58997" lon="2.95537">
        <ele>476.6</ele>
        <time>2026-05-07T07:52:14.000Z</time>
      </trkpt>
      <trkpt lat="43.58998" lon="2.95537">
        <ele>476.7</ele>
        <time>2026-05-07T07:52:15.000Z</time>
      </trkpt>
      <trkpt lat="43.58998" lon="2.95538">
        <ele>476.4</ele>
        <time>2026-05-07T07:52:16.000Z</time>
      </trkpt>
      <trkpt lat="43.58998" lon="2.95539">
        <ele>476.4</ele>
        <time>2026-05-07T07:52:17.000Z</time>
      </trkpt>
      <trkpt lat="43.58998" lon="2.95539">
        <ele>476.4</ele>
        <time>2026-05-07T07:52:18.000Z</time>
      </trkpt>
      <trkpt lat="43.58999" lon="2.95538">
        <ele>476.2</ele>
        <time>2026-05-07T07:52:19.000Z</time>
      </trkpt>
      <trkpt lat="43.59" lon="2.95538">
        <ele>476.4</ele>
        <time>2026-05-07T07:52:20.000Z</time>
      </trkpt>
      <trkpt lat="43.59001" lon="2.95537">
        <ele>476.4</ele>
        <time>2026-05-07T07:52:21.000Z</time>
      </trkpt>
      <trkpt lat="43.59001" lon="2.95537">
        <ele>476.6</ele>
        <time>2026-05-07T07:52:22.000Z</time>
      </trkpt>
      <trkpt lat="43.59002" lon="2.95537">
        <ele>476.9</ele>
        <time>2026-05-07T07:52:23.000Z</time>
      </trkpt>
      <trkpt lat="43.59003" lon="2.95536">
        <ele>477.1</ele>
        <time>2026-05-07T07:52:25.000Z</time>
      </trkpt>
      <trkpt lat="43.59003" lon="2.95536">
        <ele>477.4</ele>
        <time>2026-05-07T07:52:26.000Z</time>
      </trkpt>
      <trkpt lat="43.59003" lon="2.95537">
        <ele>477.8</ele>
        <time>2026-05-07T07:52:27.000Z</time>
      </trkpt>
      <trkpt lat="43.59004" lon="2.95537">
        <ele>477.9</ele>
        <time>2026-05-07T07:52:28.000Z</time>
      </trkpt>
      <trkpt lat="43.59005" lon="2.95537">
        <ele>478</ele>
        <time>2026-05-07T07:52:29.000Z</time>
      </trkpt>
      <trkpt lat="43.59005" lon="2.95537">
        <ele>478.6</ele>
        <time>2026-05-07T07:52:30.000Z</time>
      </trkpt>
      <trkpt lat="43.59005" lon="2.95537">
        <ele>478.8</ele>
        <time>2026-05-07T07:52:31.000Z</time>
      </trkpt>
      <trkpt lat="43.59005" lon="2.95537">
        <ele>479.1</ele>
        <time>2026-05-07T07:52:32.000Z</time>
      </trkpt>
      <trkpt lat="43.59005" lon="2.95538">
        <ele>479.3</ele>
        <time>2026-05-07T07:52:33.000Z</time>
      </trkpt>
      <trkpt lat="43.59005" lon="2.95537">
        <ele>479.4</ele>
        <time>2026-05-07T07:52:34.000Z</time>
      </trkpt>
      <trkpt lat="43.59005" lon="2.95537">
        <ele>479.5</ele>
        <time>2026-05-07T07:52:35.000Z</time>
      </trkpt>
      <trkpt lat="43.59005" lon="2.95537">
        <ele>479.5</ele>
        <time>2026-05-07T07:52:36.000Z</time>
      </trkpt>
      <trkpt lat="43.59006" lon="2.95536">
        <ele>479.5</ele>
        <time>2026-05-07T07:52:37.000Z</time>
      </trkpt>
      <trkpt lat="43.59008" lon="2.95536">
        <ele>479.5</ele>
        <time>2026-05-07T07:52:38.000Z</time>
      </trkpt>
      <trkpt lat="43.59008" lon="2.95536">
        <ele>479.5</ele>
        <time>2026-05-07T07:52:39.000Z</time>
      </trkpt>
      <trkpt lat="43.59009" lon="2.95536">
        <ele>479.8</ele>
        <time>2026-05-07T07:52:40.000Z</time>
      </trkpt>
      <trkpt lat="43.59009" lon="2.95536">
        <ele>479.9</ele>
        <time>2026-05-07T07:52:41.000Z</time>
      </trkpt>
      <trkpt lat="43.5901" lon="2.95536">
        <ele>480</ele>
        <time>2026-05-07T07:52:42.000Z</time>
      </trkpt>
      <trkpt lat="43.59011" lon="2.95536">
        <ele>480.2</ele>
        <time>2026-05-07T07:52:43.000Z</time>
      </trkpt>
      <trkpt lat="43.59011" lon="2.95536">
        <ele>480.3</ele>
        <time>2026-05-07T07:52:44.000Z</time>
      </trkpt>
      <trkpt lat="43.59011" lon="2.95536">
        <ele>480.5</ele>
        <time>2026-05-07T07:52:45.000Z</time>
      </trkpt>
      <trkpt lat="43.59011" lon="2.95536">
        <ele>480.8</ele>
        <time>2026-05-07T07:52:46.000Z</time>
      </trkpt>
      <trkpt lat="43.59011" lon="2.95537">
        <ele>480.8</ele>
        <time>2026-05-07T07:52:47.000Z</time>
      </trkpt>
      <trkpt lat="43.59011" lon="2.95538">
        <ele>481</ele>
        <time>2026-05-07T07:52:48.000Z</time>
      </trkpt>
      <trkpt lat="43.59011" lon="2.95538">
        <ele>481</ele>
        <time>2026-05-07T07:52:49.000Z</time>
      </trkpt>
      <trkpt lat="43.59011" lon="2.95538">
        <ele>480.9</ele>
        <time>2026-05-07T07:52:50.000Z</time>
      </trkpt>
      <trkpt lat="43.59012" lon="2.95538">
        <ele>480.9</ele>
        <time>2026-05-07T07:52:51.000Z</time>
      </trkpt>
      <trkpt lat="43.59013" lon="2.95538">
        <ele>481.2</ele>
        <time>2026-05-07T07:52:52.000Z</time>
      </trkpt>
      <trkpt lat="43.59012" lon="2.95539">
        <ele>481</ele>
        <time>2026-05-07T07:52:53.000Z</time>
      </trkpt>
      <trkpt lat="43.59012" lon="2.9554">
        <ele>480.9</ele>
        <time>2026-05-07T07:52:54.000Z</time>
      </trkpt>
      <trkpt lat="43.59012" lon="2.9554">
        <ele>480.8</ele>
        <time>2026-05-07T07:52:55.000Z</time>
      </trkpt>
      <trkpt lat="43.59012" lon="2.9554">
        <ele>480.9</ele>
        <time>2026-05-07T07:52:56.000Z</time>
      </trkpt>
      <trkpt lat="43.59012" lon="2.9554">
        <ele>481</ele>
        <time>2026-05-07T07:52:57.000Z</time>
      </trkpt>
      <trkpt lat="43.59012" lon="2.9554">
        <ele>481.2</ele>
        <time>2026-05-07T07:52:58.000Z</time>
      </trkpt>
      <trkpt lat="43.59012" lon="2.95541">
        <ele>481.5</ele>
        <time>2026-05-07T07:52:59.000Z</time>
      </trkpt>
      <trkpt lat="43.59012" lon="2.95542">
        <ele>481.8</ele>
        <time>2026-05-07T07:53:00.000Z</time>
      </trkpt>
      <trkpt lat="43.59013" lon="2.95543">
        <ele>482.2</ele>
        <time>2026-05-07T07:53:01.000Z</time>
      </trkpt>
      <trkpt lat="43.59013" lon="2.95544">
        <ele>482.3</ele>
        <time>2026-05-07T07:53:02.000Z</time>
      </trkpt>
      <trkpt lat="43.59013" lon="2.95544">
        <ele>482.6</ele>
        <time>2026-05-07T07:53:03.000Z</time>
      </trkpt>
      <trkpt lat="43.59013" lon="2.95544">
        <ele>483</ele>
        <time>2026-05-07T07:53:04.000Z</time>
      </trkpt>
      <trkpt lat="43.59012" lon="2.95544">
        <ele>483.4</ele>
        <time>2026-05-07T07:53:05.000Z</time>
      </trkpt>
      <trkpt lat="43.59012" lon="2.95545">
        <ele>483.7</ele>
        <time>2026-05-07T07:53:06.000Z</time>
      </trkpt>
      <trkpt lat="43.59011" lon="2.95545">
        <ele>483.9</ele>
        <time>2026-05-07T07:53:07.000Z</time>
      </trkpt>
      <trkpt lat="43.59011" lon="2.95546">
        <ele>484</ele>
        <time>2026-05-07T07:53:08.000Z</time>
      </trkpt>
      <trkpt lat="43.59011" lon="2.95546">
        <ele>483.9</ele>
        <time>2026-05-07T07:53:09.000Z</time>
      </trkpt>
      <trkpt lat="43.5901" lon="2.95546">
        <ele>483.7</ele>
        <time>2026-05-07T07:53:10.000Z</time>
      </trkpt>
      <trkpt lat="43.5901" lon="2.95547">
        <ele>483.7</ele>
        <time>2026-05-07T07:53:11.000Z</time>
      </trkpt>
      <trkpt lat="43.5901" lon="2.95547">
        <ele>483.9</ele>
        <time>2026-05-07T07:53:12.000Z</time>
      </trkpt>
      <trkpt lat="43.5901" lon="2.95547">
        <ele>484</ele>
        <time>2026-05-07T07:53:13.000Z</time>
      </trkpt>
      <trkpt lat="43.5901" lon="2.95547">
        <ele>484</ele>
        <time>2026-05-07T07:53:14.000Z</time>
      </trkpt>
      <trkpt lat="43.5901" lon="2.95547">
        <ele>484</ele>
        <time>2026-05-07T07:53:15.000Z</time>
      </trkpt>
      <trkpt lat="43.5901" lon="2.95547">
        <ele>484</ele>
        <time>2026-05-07T07:53:16.000Z</time>
      </trkpt>
      <trkpt lat="43.5901" lon="2.95547">
        <ele>484.2</ele>
        <time>2026-05-07T07:53:17.000Z</time>
      </trkpt>
      <trkpt lat="43.5901" lon="2.95548">
        <ele>484.4</ele>
        <time>2026-05-07T07:53:18.000Z</time>
      </trkpt>
      <trkpt lat="43.5901" lon="2.95548">
        <ele>484.7</ele>
        <time>2026-05-07T07:53:19.000Z</time>
      </trkpt>
      <trkpt lat="43.5901" lon="2.95549">
        <ele>485.1</ele>
        <time>2026-05-07T07:53:20.000Z</time>
      </trkpt>
      <trkpt lat="43.5901" lon="2.9555">
        <ele>485.4</ele>
        <time>2026-05-07T07:53:21.000Z</time>
      </trkpt>
      <trkpt lat="43.5901" lon="2.9555">
        <ele>485.7</ele>
        <time>2026-05-07T07:53:22.000Z</time>
      </trkpt>
      <trkpt lat="43.5901" lon="2.9555">
        <ele>485.9</ele>
        <time>2026-05-07T07:53:23.000Z</time>
      </trkpt>
      <trkpt lat="43.59011" lon="2.9555">
        <ele>486.2</ele>
        <time>2026-05-07T07:53:24.000Z</time>
      </trkpt>
      <trkpt lat="43.59011" lon="2.9555">
        <ele>486.3</ele>
        <time>2026-05-07T07:53:25.000Z</time>
      </trkpt>
      <trkpt lat="43.59011" lon="2.9555">
        <ele>486.6</ele>
        <time>2026-05-07T07:53:26.000Z</time>
      </trkpt>
      <trkpt lat="43.59011" lon="2.9555">
        <ele>487</ele>
        <time>2026-05-07T07:53:27.000Z</time>
      </trkpt>
      <trkpt lat="43.59011" lon="2.95551">
        <ele>487.3</ele>
        <time>2026-05-07T07:53:28.000Z</time>
      </trkpt>
      <trkpt lat="43.59011" lon="2.95551">
        <ele>487.6</ele>
        <time>2026-05-07T07:53:29.000Z</time>
      </trkpt>
      <trkpt lat="43.59011" lon="2.95552">
        <ele>488</ele>
        <time>2026-05-07T07:53:30.000Z</time>
      </trkpt>
      <trkpt lat="43.59011" lon="2.95552">
        <ele>488.6</ele>
        <time>2026-05-07T07:53:31.000Z</time>
      </trkpt>
      <trkpt lat="43.59011" lon="2.95552">
        <ele>488.9</ele>
        <time>2026-05-07T07:53:32.000Z</time>
      </trkpt>
      <trkpt lat="43.59011" lon="2.95552">
        <ele>489.1</ele>
        <time>2026-05-07T07:53:33.000Z</time>
      </trkpt>
      <trkpt lat="43.59011" lon="2.95552">
        <ele>489.4</ele>
        <time>2026-05-07T07:53:34.000Z</time>
      </trkpt>
      <trkpt lat="43.59011" lon="2.95552">
        <ele>489.5</ele>
        <time>2026-05-07T07:53:35.000Z</time>
      </trkpt>
      <trkpt lat="43.59011" lon="2.95552">
        <ele>489.6</ele>
        <time>2026-05-07T07:53:36.000Z</time>
      </trkpt>
      <trkpt lat="43.59011" lon="2.95552">
        <ele>489.6</ele>
        <time>2026-05-07T07:53:37.000Z</time>
      </trkpt>
      <trkpt lat="43.59011" lon="2.95552">
        <ele>489.6</ele>
        <time>2026-05-07T07:53:38.000Z</time>
      </trkpt>
      <trkpt lat="43.59012" lon="2.95553">
        <ele>489.6</ele>
        <time>2026-05-07T07:53:39.000Z</time>
      </trkpt>
      <trkpt lat="43.59012" lon="2.95553">
        <ele>489.8</ele>
        <time>2026-05-07T07:53:40.000Z</time>
      </trkpt>
      <trkpt lat="43.59013" lon="2.95554">
        <ele>489.9</ele>
        <time>2026-05-07T07:53:41.000Z</time>
      </trkpt>
      <trkpt lat="43.59013" lon="2.95554">
        <ele>489.9</ele>
        <time>2026-05-07T07:53:42.000Z</time>
      </trkpt>
      <trkpt lat="43.59014" lon="2.95554">
        <ele>489.9</ele>
        <time>2026-05-07T07:53:44.000Z</time>
      </trkpt>
      <trkpt lat="43.59014" lon="2.95555">
        <ele>490.1</ele>
        <time>2026-05-07T07:53:45.000Z</time>
      </trkpt>
      <trkpt lat="43.59014" lon="2.95555">
        <ele>490.3</ele>
        <time>2026-05-07T07:53:46.000Z</time>
      </trkpt>
      <trkpt lat="43.59015" lon="2.95555">
        <ele>490.7</ele>
        <time>2026-05-07T07:53:47.000Z</time>
      </trkpt>
      <trkpt lat="43.59015" lon="2.95555">
        <ele>490.2</ele>
        <time>2026-05-07T07:53:48.000Z</time>
      </trkpt>
      <trkpt lat="43.59015" lon="2.95556">
        <ele>490.2</ele>
        <time>2026-05-07T07:53:49.000Z</time>
      </trkpt>
      <trkpt lat="43.59015" lon="2.95556">
        <ele>490.1</ele>
        <time>2026-05-07T07:53:50.000Z</time>
      </trkpt>
      <trkpt lat="43.59016" lon="2.95556">
        <ele>490.2</ele>
        <time>2026-05-07T07:53:51.000Z</time>
      </trkpt>
      <trkpt lat="43.59017" lon="2.95557">
        <ele>490.4</ele>
        <time>2026-05-07T07:53:52.000Z</time>
      </trkpt>
      <trkpt lat="43.59017" lon="2.95559">
        <ele>490.6</ele>
        <time>2026-05-07T07:53:53.000Z</time>
      </trkpt>
      <trkpt lat="43.59017" lon="2.95559">
        <ele>490.7</ele>
        <time>2026-05-07T07:53:54.000Z</time>
      </trkpt>
      <trkpt lat="43.59017" lon="2.95559">
        <ele>491</ele>
        <time>2026-05-07T07:53:55.000Z</time>
      </trkpt>
      <trkpt lat="43.59017" lon="2.95559">
        <ele>491.1</ele>
        <time>2026-05-07T07:53:57.000Z</time>
      </trkpt>
      <trkpt lat="43.59018" lon="2.95559">
        <ele>491</ele>
        <time>2026-05-07T07:53:58.000Z</time>
      </trkpt>
      <trkpt lat="43.59018" lon="2.9556">
        <ele>491.2</ele>
        <time>2026-05-07T07:53:59.000Z</time>
      </trkpt>
      <trkpt lat="43.59019" lon="2.9556">
        <ele>491.2</ele>
        <time>2026-05-07T07:54:00.000Z</time>
      </trkpt>
      <trkpt lat="43.59019" lon="2.9556">
        <ele>491.5</ele>
        <time>2026-05-07T07:54:01.000Z</time>
      </trkpt>
      <trkpt lat="43.59019" lon="2.9556">
        <ele>491.8</ele>
        <time>2026-05-07T07:54:02.000Z</time>
      </trkpt>
      <trkpt lat="43.59019" lon="2.9556">
        <ele>492.2</ele>
        <time>2026-05-07T07:54:03.000Z</time>
      </trkpt>
      <trkpt lat="43.59019" lon="2.9556">
        <ele>492.3</ele>
        <time>2026-05-07T07:54:04.000Z</time>
      </trkpt>
      <trkpt lat="43.59019" lon="2.9556">
        <ele>492.3</ele>
        <time>2026-05-07T07:54:05.000Z</time>
      </trkpt>
      <trkpt lat="43.59019" lon="2.9556">
        <ele>492.3</ele>
        <time>2026-05-07T07:54:06.000Z</time>
      </trkpt>
      <trkpt lat="43.5902" lon="2.9556">
        <ele>492.3</ele>
        <time>2026-05-07T07:54:07.000Z</time>
      </trkpt>
      <trkpt lat="43.5902" lon="2.9556">
        <ele>492.2</ele>
        <time>2026-05-07T07:54:08.000Z</time>
      </trkpt>
      <trkpt lat="43.59021" lon="2.9556">
        <ele>492.4</ele>
        <time>2026-05-07T07:54:09.000Z</time>
      </trkpt>
      <trkpt lat="43.59022" lon="2.95561">
        <ele>492.7</ele>
        <time>2026-05-07T07:54:10.000Z</time>
      </trkpt>
      <trkpt lat="43.59024" lon="2.95561">
        <ele>492.8</ele>
        <time>2026-05-07T07:54:12.000Z</time>
      </trkpt>
      <trkpt lat="43.59025" lon="2.95562">
        <ele>492.7</ele>
        <time>2026-05-07T07:54:13.000Z</time>
      </trkpt>
      <trkpt lat="43.59024" lon="2.95562">
        <ele>493.2</ele>
        <time>2026-05-07T07:54:14.000Z</time>
      </trkpt>
      <trkpt lat="43.59025" lon="2.95562">
        <ele>493.3</ele>
        <time>2026-05-07T07:54:15.000Z</time>
      </trkpt>
      <trkpt lat="43.59025" lon="2.95562">
        <ele>493.3</ele>
        <time>2026-05-07T07:54:16.000Z</time>
      </trkpt>
      <trkpt lat="43.59025" lon="2.95563">
        <ele>493.2</ele>
        <time>2026-05-07T07:54:17.000Z</time>
      </trkpt>
      <trkpt lat="43.59025" lon="2.95564">
        <ele>493.2</ele>
        <time>2026-05-07T07:54:18.000Z</time>
      </trkpt>
      <trkpt lat="43.59026" lon="2.95564">
        <ele>493.1</ele>
        <time>2026-05-07T07:54:19.000Z</time>
      </trkpt>
      <trkpt lat="43.59026" lon="2.95565">
        <ele>493.1</ele>
        <time>2026-05-07T07:54:20.000Z</time>
      </trkpt>
      <trkpt lat="43.59026" lon="2.95565">
        <ele>493.4</ele>
        <time>2026-05-07T07:54:21.000Z</time>
      </trkpt>
      <trkpt lat="43.59026" lon="2.95565">
        <ele>494</ele>
        <time>2026-05-07T07:54:22.000Z</time>
      </trkpt>
      <trkpt lat="43.59026" lon="2.95564">
        <ele>494.3</ele>
        <time>2026-05-07T07:54:23.000Z</time>
      </trkpt>
      <trkpt lat="43.59026" lon="2.95564">
        <ele>494.3</ele>
        <time>2026-05-07T07:54:24.000Z</time>
      </trkpt>
      <trkpt lat="43.59027" lon="2.95565">
        <ele>494.4</ele>
        <time>2026-05-07T07:54:25.000Z</time>
      </trkpt>
      <trkpt lat="43.59026" lon="2.95565">
        <ele>494.5</ele>
        <time>2026-05-07T07:54:26.000Z</time>
      </trkpt>
      <trkpt lat="43.59027" lon="2.95566">
        <ele>494.7</ele>
        <time>2026-05-07T07:54:27.000Z</time>
      </trkpt>
      <trkpt lat="43.59028" lon="2.95567">
        <ele>494.9</ele>
        <time>2026-05-07T07:54:28.000Z</time>
      </trkpt>
      <trkpt lat="43.59028" lon="2.95566">
        <ele>495.2</ele>
        <time>2026-05-07T07:54:29.000Z</time>
      </trkpt>
      <trkpt lat="43.59028" lon="2.95566">
        <ele>495.2</ele>
        <time>2026-05-07T07:54:30.000Z</time>
      </trkpt>
      <trkpt lat="43.59029" lon="2.95566">
        <ele>495.4</ele>
        <time>2026-05-07T07:54:31.000Z</time>
      </trkpt>
      <trkpt lat="43.59029" lon="2.95565">
        <ele>495.6</ele>
        <time>2026-05-07T07:54:32.000Z</time>
      </trkpt>
      <trkpt lat="43.59029" lon="2.95565">
        <ele>495.7</ele>
        <time>2026-05-07T07:54:33.000Z</time>
      </trkpt>
      <trkpt lat="43.59029" lon="2.95566">
        <ele>495.8</ele>
        <time>2026-05-07T07:54:34.000Z</time>
      </trkpt>
      <trkpt lat="43.5903" lon="2.95566">
        <ele>496.1</ele>
        <time>2026-05-07T07:54:35.000Z</time>
      </trkpt>
      <trkpt lat="43.5903" lon="2.95567">
        <ele>496.3</ele>
        <time>2026-05-07T07:54:36.000Z</time>
      </trkpt>
      <trkpt lat="43.59031" lon="2.95567">
        <ele>496.4</ele>
        <time>2026-05-07T07:54:38.000Z</time>
      </trkpt>
      <trkpt lat="43.59031" lon="2.95567">
        <ele>496.2</ele>
        <time>2026-05-07T07:54:39.000Z</time>
      </trkpt>
      <trkpt lat="43.59031" lon="2.95567">
        <ele>496.2</ele>
        <time>2026-05-07T07:54:40.000Z</time>
      </trkpt>
      <trkpt lat="43.59031" lon="2.95567">
        <ele>496.4</ele>
        <time>2026-05-07T07:54:41.000Z</time>
      </trkpt>
      <trkpt lat="43.59031" lon="2.95567">
        <ele>496.4</ele>
        <time>2026-05-07T07:54:42.000Z</time>
      </trkpt>
      <trkpt lat="43.59031" lon="2.95567">
        <ele>496.7</ele>
        <time>2026-05-07T07:54:43.000Z</time>
      </trkpt>
      <trkpt lat="43.59031" lon="2.95567">
        <ele>497.2</ele>
        <time>2026-05-07T07:54:44.000Z</time>
      </trkpt>
      <trkpt lat="43.59031" lon="2.95567">
        <ele>497.7</ele>
        <time>2026-05-07T07:54:45.000Z</time>
      </trkpt>
      <trkpt lat="43.59031" lon="2.95568">
        <ele>498.1</ele>
        <time>2026-05-07T07:54:46.000Z</time>
      </trkpt>
      <trkpt lat="43.59031" lon="2.95568">
        <ele>498.3</ele>
        <time>2026-05-07T07:54:47.000Z</time>
      </trkpt>
      <trkpt lat="43.59031" lon="2.95569">
        <ele>498.6</ele>
        <time>2026-05-07T07:54:49.000Z</time>
      </trkpt>
      <trkpt lat="43.59032" lon="2.9557">
        <ele>498.6</ele>
        <time>2026-05-07T07:54:50.000Z</time>
      </trkpt>
      <trkpt lat="43.59033" lon="2.9557">
        <ele>498.7</ele>
        <time>2026-05-07T07:54:51.000Z</time>
      </trkpt>
      <trkpt lat="43.59033" lon="2.95571">
        <ele>498.6</ele>
        <time>2026-05-07T07:54:52.000Z</time>
      </trkpt>
      <trkpt lat="43.59033" lon="2.95571">
        <ele>498.7</ele>
        <time>2026-05-07T07:54:53.000Z</time>
      </trkpt>
      <trkpt lat="43.59033" lon="2.95571">
        <ele>499</ele>
        <time>2026-05-07T07:54:54.000Z</time>
      </trkpt>
      <trkpt lat="43.59033" lon="2.95571">
        <ele>499.2</ele>
        <time>2026-05-07T07:54:55.000Z</time>
      </trkpt>
      <trkpt lat="43.59033" lon="2.95571">
        <ele>499.1</ele>
        <time>2026-05-07T07:54:56.000Z</time>
      </trkpt>
      <trkpt lat="43.59033" lon="2.95572">
        <ele>499.3</ele>
        <time>2026-05-07T07:54:57.000Z</time>
      </trkpt>
      <trkpt lat="43.59033" lon="2.95572">
        <ele>499.3</ele>
        <time>2026-05-07T07:54:58.000Z</time>
      </trkpt>
      <trkpt lat="43.59033" lon="2.95572">
        <ele>499.9</ele>
        <time>2026-05-07T07:54:59.000Z</time>
      </trkpt>
      <trkpt lat="43.59033" lon="2.95572">
        <ele>500</ele>
        <time>2026-05-07T07:55:00.000Z</time>
      </trkpt>
      <trkpt lat="43.59033" lon="2.95572">
        <ele>500.2</ele>
        <time>2026-05-07T07:55:01.000Z</time>
      </trkpt>
      <trkpt lat="43.59032" lon="2.95573">
        <ele>500.1</ele>
        <time>2026-05-07T07:55:02.000Z</time>
      </trkpt>
      <trkpt lat="43.59033" lon="2.95574">
        <ele>500</ele>
        <time>2026-05-07T07:55:03.000Z</time>
      </trkpt>
      <trkpt lat="43.59033" lon="2.95574">
        <ele>499.9</ele>
        <time>2026-05-07T07:55:04.000Z</time>
      </trkpt>
      <trkpt lat="43.59033" lon="2.95575">
        <ele>500.2</ele>
        <time>2026-05-07T07:55:05.000Z</time>
      </trkpt>
      <trkpt lat="43.59034" lon="2.95575">
        <ele>500.3</ele>
        <time>2026-05-07T07:55:06.000Z</time>
      </trkpt>
      <trkpt lat="43.59034" lon="2.95576">
        <ele>500.4</ele>
        <time>2026-05-07T07:55:07.000Z</time>
      </trkpt>
      <trkpt lat="43.59035" lon="2.95576">
        <ele>500.5</ele>
        <time>2026-05-07T07:55:08.000Z</time>
      </trkpt>
      <trkpt lat="43.59035" lon="2.95577">
        <ele>500.7</ele>
        <time>2026-05-07T07:55:09.000Z</time>
      </trkpt>
      <trkpt lat="43.59036" lon="2.95578">
        <ele>500.7</ele>
        <time>2026-05-07T07:55:10.000Z</time>
      </trkpt>
      <trkpt lat="43.59036" lon="2.95579">
        <ele>500.7</ele>
        <time>2026-05-07T07:55:11.000Z</time>
      </trkpt>
      <trkpt lat="43.59037" lon="2.95579">
        <ele>500.8</ele>
        <time>2026-05-07T07:55:12.000Z</time>
      </trkpt>
      <trkpt lat="43.59037" lon="2.9558">
        <ele>500.9</ele>
        <time>2026-05-07T07:55:13.000Z</time>
      </trkpt>
      <trkpt lat="43.59037" lon="2.9558">
        <ele>500.9</ele>
        <time>2026-05-07T07:55:14.000Z</time>
      </trkpt>
      <trkpt lat="43.59037" lon="2.95581">
        <ele>500.9</ele>
        <time>2026-05-07T07:55:15.000Z</time>
      </trkpt>
      <trkpt lat="43.59038" lon="2.95583">
        <ele>501</ele>
        <time>2026-05-07T07:55:17.000Z</time>
      </trkpt>
      <trkpt lat="43.59038" lon="2.95584">
        <ele>500.8</ele>
        <time>2026-05-07T07:55:18.000Z</time>
      </trkpt>
      <trkpt lat="43.59038" lon="2.95584">
        <ele>501</ele>
        <time>2026-05-07T07:55:19.000Z</time>
      </trkpt>
      <trkpt lat="43.59038" lon="2.95583">
        <ele>501.1</ele>
        <time>2026-05-07T07:55:20.000Z</time>
      </trkpt>
      <trkpt lat="43.59038" lon="2.95583">
        <ele>501</ele>
        <time>2026-05-07T07:55:21.000Z</time>
      </trkpt>
      <trkpt lat="43.59039" lon="2.95583">
        <ele>500.9</ele>
        <time>2026-05-07T07:55:22.000Z</time>
      </trkpt>
      <trkpt lat="43.59039" lon="2.95583">
        <ele>501.3</ele>
        <time>2026-05-07T07:55:23.000Z</time>
      </trkpt>
      <trkpt lat="43.59039" lon="2.95583">
        <ele>501.6</ele>
        <time>2026-05-07T07:55:24.000Z</time>
      </trkpt>
      <trkpt lat="43.59039" lon="2.95583">
        <ele>501.5</ele>
        <time>2026-05-07T07:55:25.000Z</time>
      </trkpt>
      <trkpt lat="43.59039" lon="2.95583">
        <ele>501.5</ele>
        <time>2026-05-07T07:55:26.000Z</time>
      </trkpt>
      <trkpt lat="43.59038" lon="2.95583">
        <ele>501.4</ele>
        <time>2026-05-07T07:55:27.000Z</time>
      </trkpt>
      <trkpt lat="43.59038" lon="2.95583">
        <ele>501.5</ele>
        <time>2026-05-07T07:55:28.000Z</time>
      </trkpt>
      <trkpt lat="43.59038" lon="2.95582">
        <ele>501.5</ele>
        <time>2026-05-07T07:55:29.000Z</time>
      </trkpt>
      <trkpt lat="43.59038" lon="2.95582">
        <ele>501.2</ele>
        <time>2026-05-07T07:55:30.000Z</time>
      </trkpt>
      <trkpt lat="43.59038" lon="2.95582">
        <ele>501.1</ele>
        <time>2026-05-07T07:55:31.000Z</time>
      </trkpt>
      <trkpt lat="43.59038" lon="2.95582">
        <ele>500.8</ele>
        <time>2026-05-07T07:55:32.000Z</time>
      </trkpt>
      <trkpt lat="43.59038" lon="2.95582">
        <ele>500.7</ele>
        <time>2026-05-07T07:55:33.000Z</time>
      </trkpt>
      <trkpt lat="43.59038" lon="2.95582">
        <ele>501</ele>
        <time>2026-05-07T07:55:34.000Z</time>
      </trkpt>
      <trkpt lat="43.59038" lon="2.95582">
        <ele>500.9</ele>
        <time>2026-05-07T07:55:35.000Z</time>
      </trkpt>
      <trkpt lat="43.59038" lon="2.95582">
        <ele>500.8</ele>
        <time>2026-05-07T07:55:36.000Z</time>
      </trkpt>
      <trkpt lat="43.59038" lon="2.95582">
        <ele>500.8</ele>
        <time>2026-05-07T07:55:37.000Z</time>
      </trkpt>
      <trkpt lat="43.59038" lon="2.95582">
        <ele>501.1</ele>
        <time>2026-05-07T07:55:38.999Z</time>
      </trkpt>
      <trkpt lat="43.59038" lon="2.95582">
        <ele>501.1</ele>
        <time>2026-05-07T07:55:39.999Z</time>
      </trkpt>
      <trkpt lat="43.59038" lon="2.95582">
        <ele>501</ele>
        <time>2026-05-07T07:55:40.999Z</time>
      </trkpt>
      <trkpt lat="43.59038" lon="2.95582">
        <ele>500.8</ele>
        <time>2026-05-07T07:55:41.999Z</time>
      </trkpt>
      <trkpt lat="43.59038" lon="2.95582">
        <ele>500.6</ele>
        <time>2026-05-07T07:55:42.999Z</time>
      </trkpt>
      <trkpt lat="43.59039" lon="2.95582">
        <ele>500.3</ele>
        <time>2026-05-07T07:55:43.999Z</time>
      </trkpt>
      <trkpt lat="43.5904" lon="2.95582">
        <ele>500.2</ele>
        <time>2026-05-07T07:55:44.999Z</time>
      </trkpt>
      <trkpt lat="43.59041" lon="2.95582">
        <ele>500</ele>
        <time>2026-05-07T07:55:45.999Z</time>
      </trkpt>
      <trkpt lat="43.59041" lon="2.95582">
        <ele>500.2</ele>
        <time>2026-05-07T07:55:46.999Z</time>
      </trkpt>
      <trkpt lat="43.5904" lon="2.95582">
        <ele>500.4</ele>
        <time>2026-05-07T07:55:47.999Z</time>
      </trkpt>
      <trkpt lat="43.5904" lon="2.95582">
        <ele>500.8</ele>
        <time>2026-05-07T07:55:48.999Z</time>
      </trkpt>
      <trkpt lat="43.5904" lon="2.95582">
        <ele>500.9</ele>
        <time>2026-05-07T07:55:49.999Z</time>
      </trkpt>
      <trkpt lat="43.59041" lon="2.95581">
        <ele>501.2</ele>
        <time>2026-05-07T07:55:50.999Z</time>
      </trkpt>
      <trkpt lat="43.59041" lon="2.95579">
        <ele>501.3</ele>
        <time>2026-05-07T07:55:52.999Z</time>
      </trkpt>
      <trkpt lat="43.59041" lon="2.95578">
        <ele>501.5</ele>
        <time>2026-05-07T07:55:53.999Z</time>
      </trkpt>
      <trkpt lat="43.5904" lon="2.95578">
        <ele>501.8</ele>
        <time>2026-05-07T07:55:54.999Z</time>
      </trkpt>
      <trkpt lat="43.5904" lon="2.95578">
        <ele>502</ele>
        <time>2026-05-07T07:55:55.999Z</time>
      </trkpt>
      <trkpt lat="43.5904" lon="2.95577">
        <ele>502</ele>
        <time>2026-05-07T07:55:56.999Z</time>
      </trkpt>
      <trkpt lat="43.59041" lon="2.95577">
        <ele>502.2</ele>
        <time>2026-05-07T07:55:57.999Z</time>
      </trkpt>
      <trkpt lat="43.59041" lon="2.95576">
        <ele>502.3</ele>
        <time>2026-05-07T07:55:58.999Z</time>
      </trkpt>
      <trkpt lat="43.59041" lon="2.95576">
        <ele>502.5</ele>
        <time>2026-05-07T07:55:59.999Z</time>
      </trkpt>
      <trkpt lat="43.59041" lon="2.95576">
        <ele>502.9</ele>
        <time>2026-05-07T07:56:00.999Z</time>
      </trkpt>
      <trkpt lat="43.59041" lon="2.95576">
        <ele>503.2</ele>
        <time>2026-05-07T07:56:01.999Z</time>
      </trkpt>
      <trkpt lat="43.59041" lon="2.95575">
        <ele>503.5</ele>
        <time>2026-05-07T07:56:02.999Z</time>
      </trkpt>
      <trkpt lat="43.59041" lon="2.95574">
        <ele>504.2</ele>
        <time>2026-05-07T07:56:03.999Z</time>
      </trkpt>
      <trkpt lat="43.59041" lon="2.95573">
        <ele>504.5</ele>
        <time>2026-05-07T07:56:04.999Z</time>
      </trkpt>
      <trkpt lat="43.5904" lon="2.95572">
        <ele>504.6</ele>
        <time>2026-05-07T07:56:05.999Z</time>
      </trkpt>
      <trkpt lat="43.5904" lon="2.95572">
        <ele>504.9</ele>
        <time>2026-05-07T07:56:06.999Z</time>
      </trkpt>
      <trkpt lat="43.5904" lon="2.95571">
        <ele>505.1</ele>
        <time>2026-05-07T07:56:07.999Z</time>
      </trkpt>
      <trkpt lat="43.5904" lon="2.95571">
        <ele>505.1</ele>
        <time>2026-05-07T07:56:08.999Z</time>
      </trkpt>
      <trkpt lat="43.59041" lon="2.95571">
        <ele>505</ele>
        <time>2026-05-07T07:56:09.999Z</time>
      </trkpt>
      <trkpt lat="43.59041" lon="2.95571">
        <ele>505.1</ele>
        <time>2026-05-07T07:56:10.999Z</time>
      </trkpt>
      <trkpt lat="43.59041" lon="2.95572">
        <ele>504.7</ele>
        <time>2026-05-07T07:56:11.999Z</time>
      </trkpt>
      <trkpt lat="43.59042" lon="2.95572">
        <ele>504.2</ele>
        <time>2026-05-07T07:56:12.999Z</time>
      </trkpt>
      <trkpt lat="43.59042" lon="2.95573">
        <ele>504.2</ele>
        <time>2026-05-07T07:56:13.999Z</time>
      </trkpt>
      <trkpt lat="43.59042" lon="2.95573">
        <ele>504.3</ele>
        <time>2026-05-07T07:56:14.999Z</time>
      </trkpt>
      <trkpt lat="43.59042" lon="2.95573">
        <ele>504.4</ele>
        <time>2026-05-07T07:56:15.999Z</time>
      </trkpt>
      <trkpt lat="43.59042" lon="2.95573">
        <ele>504.4</ele>
        <time>2026-05-07T07:56:16.999Z</time>
      </trkpt>
      <trkpt lat="43.59042" lon="2.95573">
        <ele>504.7</ele>
        <time>2026-05-07T07:56:17.999Z</time>
      </trkpt>
      <trkpt lat="43.59042" lon="2.95573">
        <ele>504.7</ele>
        <time>2026-05-07T07:56:18.999Z</time>
      </trkpt>
      <trkpt lat="43.59042" lon="2.95573">
        <ele>505</ele>
        <time>2026-05-07T07:56:19.999Z</time>
      </trkpt>
      <trkpt lat="43.59042" lon="2.95573">
        <ele>505.6</ele>
        <time>2026-05-07T07:56:21.999Z</time>
      </trkpt>
      <trkpt lat="43.59042" lon="2.95573">
        <ele>505.6</ele>
        <time>2026-05-07T07:56:22.999Z</time>
      </trkpt>
      <trkpt lat="43.59042" lon="2.95574">
        <ele>505.9</ele>
        <time>2026-05-07T07:56:23.999Z</time>
      </trkpt>
      <trkpt lat="43.59043" lon="2.95575">
        <ele>506.2</ele>
        <time>2026-05-07T07:56:24.999Z</time>
      </trkpt>
      <trkpt lat="43.59044" lon="2.95576">
        <ele>506.5</ele>
        <time>2026-05-07T07:56:25.999Z</time>
      </trkpt>
      <trkpt lat="43.59044" lon="2.95576">
        <ele>507.1</ele>
        <time>2026-05-07T07:56:26.999Z</time>
      </trkpt>
      <trkpt lat="43.59044" lon="2.95576">
        <ele>507.6</ele>
        <time>2026-05-07T07:56:27.999Z</time>
      </trkpt>
      <trkpt lat="43.59045" lon="2.95577">
        <ele>507.8</ele>
        <time>2026-05-07T07:56:28.999Z</time>
      </trkpt>
      <trkpt lat="43.59046" lon="2.95577">
        <ele>507.9</ele>
        <time>2026-05-07T07:56:29.999Z</time>
      </trkpt>
      <trkpt lat="43.59047" lon="2.95577">
        <ele>508</ele>
        <time>2026-05-07T07:56:30.999Z</time>
      </trkpt>
      <trkpt lat="43.59047" lon="2.95577">
        <ele>508.4</ele>
        <time>2026-05-07T07:56:31.999Z</time>
      </trkpt>
      <trkpt lat="43.59047" lon="2.95577">
        <ele>508.6</ele>
        <time>2026-05-07T07:56:32.999Z</time>
      </trkpt>
      <trkpt lat="43.59047" lon="2.95577">
        <ele>508.9</ele>
        <time>2026-05-07T07:56:33.999Z</time>
      </trkpt>
      <trkpt lat="43.59048" lon="2.95578">
        <ele>509.1</ele>
        <time>2026-05-07T07:56:34.999Z</time>
      </trkpt>
      <trkpt lat="43.59048" lon="2.95579">
        <ele>509.2</ele>
        <time>2026-05-07T07:56:35.999Z</time>
      </trkpt>
      <trkpt lat="43.59048" lon="2.9558">
        <ele>509.3</ele>
        <time>2026-05-07T07:56:36.999Z</time>
      </trkpt>
      <trkpt lat="43.59049" lon="2.9558">
        <ele>509.3</ele>
        <time>2026-05-07T07:56:37.999Z</time>
      </trkpt>
      <trkpt lat="43.59049" lon="2.9558">
        <ele>509.2</ele>
        <time>2026-05-07T07:56:38.999Z</time>
      </trkpt>
      <trkpt lat="43.5905" lon="2.9558">
        <ele>509.2</ele>
        <time>2026-05-07T07:56:39.999Z</time>
      </trkpt>
      <trkpt lat="43.59049" lon="2.95579">
        <ele>509.1</ele>
        <time>2026-05-07T07:56:40.999Z</time>
      </trkpt>
      <trkpt lat="43.5905" lon="2.95579">
        <ele>509.1</ele>
        <time>2026-05-07T07:56:41.999Z</time>
      </trkpt>
      <trkpt lat="43.5905" lon="2.9558">
        <ele>509</ele>
        <time>2026-05-07T07:56:42.999Z</time>
      </trkpt>
      <trkpt lat="43.5905" lon="2.95579">
        <ele>509.2</ele>
        <time>2026-05-07T07:56:43.999Z</time>
      </trkpt>
      <trkpt lat="43.59051" lon="2.9558">
        <ele>509</ele>
        <time>2026-05-07T07:56:44.999Z</time>
      </trkpt>
      <trkpt lat="43.59051" lon="2.9558">
        <ele>508.9</ele>
        <time>2026-05-07T07:56:45.999Z</time>
      </trkpt>
      <trkpt lat="43.59051" lon="2.95581">
        <ele>509</ele>
        <time>2026-05-07T07:56:46.999Z</time>
      </trkpt>
      <trkpt lat="43.59051" lon="2.95581">
        <ele>509.1</ele>
        <time>2026-05-07T07:56:48.999Z</time>
      </trkpt>
      <trkpt lat="43.59051" lon="2.95581">
        <ele>508.8</ele>
        <time>2026-05-07T07:56:49.999Z</time>
      </trkpt>
      <trkpt lat="43.59051" lon="2.95581">
        <ele>508.9</ele>
        <time>2026-05-07T07:56:50.999Z</time>
      </trkpt>
      <trkpt lat="43.59051" lon="2.95581">
        <ele>508.9</ele>
        <time>2026-05-07T07:56:51.999Z</time>
      </trkpt>
      <trkpt lat="43.59051" lon="2.95581">
        <ele>509.2</ele>
        <time>2026-05-07T07:56:52.999Z</time>
      </trkpt>
      <trkpt lat="43.59051" lon="2.95581">
        <ele>509.1</ele>
        <time>2026-05-07T07:56:53.999Z</time>
      </trkpt>
      <trkpt lat="43.59051" lon="2.95581">
        <ele>509.2</ele>
        <time>2026-05-07T07:56:54.999Z</time>
      </trkpt>
      <trkpt lat="43.59051" lon="2.95582">
        <ele>509.3</ele>
        <time>2026-05-07T07:56:55.999Z</time>
      </trkpt>
      <trkpt lat="43.59051" lon="2.95583">
        <ele>509.3</ele>
        <time>2026-05-07T07:56:56.999Z</time>
      </trkpt>
      <trkpt lat="43.59052" lon="2.95583">
        <ele>509.3</ele>
        <time>2026-05-07T07:56:57.999Z</time>
      </trkpt>
      <trkpt lat="43.59052" lon="2.95583">
        <ele>509.5</ele>
        <time>2026-05-07T07:56:58.999Z</time>
      </trkpt>
      <trkpt lat="43.59052" lon="2.95583">
        <ele>509.6</ele>
        <time>2026-05-07T07:56:59.999Z</time>
      </trkpt>
      <trkpt lat="43.59052" lon="2.95583">
        <ele>509.6</ele>
        <time>2026-05-07T07:57:00.999Z</time>
      </trkpt>
      <trkpt lat="43.59052" lon="2.95584">
        <ele>509.7</ele>
        <time>2026-05-07T07:57:01.999Z</time>
      </trkpt>
      <trkpt lat="43.59053" lon="2.95585">
        <ele>510</ele>
        <time>2026-05-07T07:57:02.999Z</time>
      </trkpt>
      <trkpt lat="43.59053" lon="2.95585">
        <ele>510.3</ele>
        <time>2026-05-07T07:57:03.999Z</time>
      </trkpt>
      <trkpt lat="43.59053" lon="2.95585">
        <ele>510.4</ele>
        <time>2026-05-07T07:57:04.999Z</time>
      </trkpt>
      <trkpt lat="43.59053" lon="2.95585">
        <ele>510.5</ele>
        <time>2026-05-07T07:57:05.999Z</time>
      </trkpt>
      <trkpt lat="43.59054" lon="2.95584">
        <ele>510.4</ele>
        <time>2026-05-07T07:57:06.999Z</time>
      </trkpt>
      <trkpt lat="43.59054" lon="2.95584">
        <ele>510.3</ele>
        <time>2026-05-07T07:57:07.999Z</time>
      </trkpt>
      <trkpt lat="43.59055" lon="2.95584">
        <ele>510.5</ele>
        <time>2026-05-07T07:57:08.999Z</time>
      </trkpt>
      <trkpt lat="43.59056" lon="2.95584">
        <ele>510.5</ele>
        <time>2026-05-07T07:57:09.999Z</time>
      </trkpt>
      <trkpt lat="43.59056" lon="2.95584">
        <ele>510.4</ele>
        <time>2026-05-07T07:57:10.999Z</time>
      </trkpt>
      <trkpt lat="43.59056" lon="2.95583">
        <ele>510.5</ele>
        <time>2026-05-07T07:57:11.999Z</time>
      </trkpt>
      <trkpt lat="43.59058" lon="2.95583">
        <ele>510.4</ele>
        <time>2026-05-07T07:57:13.999Z</time>
      </trkpt>
      <trkpt lat="43.59058" lon="2.95583">
        <ele>510.3</ele>
        <time>2026-05-07T07:57:14.999Z</time>
      </trkpt>
      <trkpt lat="43.59059" lon="2.95583">
        <ele>510.1</ele>
        <time>2026-05-07T07:57:15.999Z</time>
      </trkpt>
      <trkpt lat="43.5906" lon="2.95583">
        <ele>509.9</ele>
        <time>2026-05-07T07:57:16.999Z</time>
      </trkpt>
      <trkpt lat="43.5906" lon="2.95583">
        <ele>509.7</ele>
        <time>2026-05-07T07:57:17.999Z</time>
      </trkpt>
      <trkpt lat="43.5906" lon="2.95583">
        <ele>510</ele>
        <time>2026-05-07T07:57:18.999Z</time>
      </trkpt>
      <trkpt lat="43.59061" lon="2.95583">
        <ele>509.8</ele>
        <time>2026-05-07T07:57:19.999Z</time>
      </trkpt>
      <trkpt lat="43.59061" lon="2.95583">
        <ele>510.7</ele>
        <time>2026-05-07T07:57:20.999Z</time>
      </trkpt>
      <trkpt lat="43.59061" lon="2.95583">
        <ele>511.1</ele>
        <time>2026-05-07T07:57:21.999Z</time>
      </trkpt>
      <trkpt lat="43.59061" lon="2.95583">
        <ele>511.3</ele>
        <time>2026-05-07T07:57:22.999Z</time>
      </trkpt>
      <trkpt lat="43.59062" lon="2.95583">
        <ele>511.4</ele>
        <time>2026-05-07T07:57:23.999Z</time>
      </trkpt>
      <trkpt lat="43.59062" lon="2.95584">
        <ele>511.4</ele>
        <time>2026-05-07T07:57:24.999Z</time>
      </trkpt>
      <trkpt lat="43.59062" lon="2.95585">
        <ele>511.8</ele>
        <time>2026-05-07T07:57:25.999Z</time>
      </trkpt>
      <trkpt lat="43.59062" lon="2.95587">
        <ele>511.5</ele>
        <time>2026-05-07T07:57:26.999Z</time>
      </trkpt>
      <trkpt lat="43.59062" lon="2.95588">
        <ele>511.7</ele>
        <time>2026-05-07T07:57:27.999Z</time>
      </trkpt>
      <trkpt lat="43.59062" lon="2.95588">
        <ele>512.1</ele>
        <time>2026-05-07T07:57:28.999Z</time>
      </trkpt>
      <trkpt lat="43.59062" lon="2.95588">
        <ele>512.2</ele>
        <time>2026-05-07T07:57:29.999Z</time>
      </trkpt>
      <trkpt lat="43.59062" lon="2.95589">
        <ele>512.2</ele>
        <time>2026-05-07T07:57:30.999Z</time>
      </trkpt>
      <trkpt lat="43.59063" lon="2.95589">
        <ele>512.3</ele>
        <time>2026-05-07T07:57:31.999Z</time>
      </trkpt>
      <trkpt lat="43.59063" lon="2.95589">
        <ele>512.3</ele>
        <time>2026-05-07T07:57:32.999Z</time>
      </trkpt>
      <trkpt lat="43.59063" lon="2.95589">
        <ele>512.1</ele>
        <time>2026-05-07T07:57:33.999Z</time>
      </trkpt>
      <trkpt lat="43.59062" lon="2.95589">
        <ele>512.3</ele>
        <time>2026-05-07T07:57:34.999Z</time>
      </trkpt>
      <trkpt lat="43.59062" lon="2.95588">
        <ele>512.6</ele>
        <time>2026-05-07T07:57:35.999Z</time>
      </trkpt>
      <trkpt lat="43.59062" lon="2.95589">
        <ele>513.3</ele>
        <time>2026-05-07T07:57:36.999Z</time>
      </trkpt>
      <trkpt lat="43.59061" lon="2.95589">
        <ele>513.8</ele>
        <time>2026-05-07T07:57:37.999Z</time>
      </trkpt>
      <trkpt lat="43.59061" lon="2.9559">
        <ele>513.7</ele>
        <time>2026-05-07T07:57:38.999Z</time>
      </trkpt>
      <trkpt lat="43.59062" lon="2.95591">
        <ele>514.1</ele>
        <time>2026-05-07T07:57:40.999Z</time>
      </trkpt>
      <trkpt lat="43.59062" lon="2.95591">
        <ele>514.6</ele>
        <time>2026-05-07T07:57:41.999Z</time>
      </trkpt>
      <trkpt lat="43.59063" lon="2.95592">
        <ele>515</ele>
        <time>2026-05-07T07:57:42.999Z</time>
      </trkpt>
      <trkpt lat="43.59063" lon="2.95592">
        <ele>515.1</ele>
        <time>2026-05-07T07:57:43.999Z</time>
      </trkpt>
      <trkpt lat="43.59063" lon="2.95593">
        <ele>515.5</ele>
        <time>2026-05-07T07:57:44.999Z</time>
      </trkpt>
      <trkpt lat="43.59064" lon="2.95592">
        <ele>516</ele>
        <time>2026-05-07T07:57:45.999Z</time>
      </trkpt>
      <trkpt lat="43.59064" lon="2.95592">
        <ele>516.2</ele>
        <time>2026-05-07T07:57:46.999Z</time>
      </trkpt>
      <trkpt lat="43.59064" lon="2.95592">
        <ele>516.5</ele>
        <time>2026-05-07T07:57:47.999Z</time>
      </trkpt>
      <trkpt lat="43.59065" lon="2.95591">
        <ele>516.6</ele>
        <time>2026-05-07T07:57:48.999Z</time>
      </trkpt>
      <trkpt lat="43.59064" lon="2.95591">
        <ele>516.7</ele>
        <time>2026-05-07T07:57:49.999Z</time>
      </trkpt>
      <trkpt lat="43.59065" lon="2.95591">
        <ele>517</ele>
        <time>2026-05-07T07:57:50.999Z</time>
      </trkpt>
      <trkpt lat="43.59065" lon="2.95591">
        <ele>517</ele>
        <time>2026-05-07T07:57:51.999Z</time>
      </trkpt>
      <trkpt lat="43.59065" lon="2.95592">
        <ele>517.1</ele>
        <time>2026-05-07T07:57:52.999Z</time>
      </trkpt>
      <trkpt lat="43.59065" lon="2.95592">
        <ele>517.5</ele>
        <time>2026-05-07T07:57:53.999Z</time>
      </trkpt>
      <trkpt lat="43.59065" lon="2.95591">
        <ele>518.3</ele>
        <time>2026-05-07T07:57:54.999Z</time>
      </trkpt>
      <trkpt lat="43.59066" lon="2.95592">
        <ele>518.3</ele>
        <time>2026-05-07T07:57:55.999Z</time>
      </trkpt>
      <trkpt lat="43.59066" lon="2.95592">
        <ele>518.6</ele>
        <time>2026-05-07T07:57:56.999Z</time>
      </trkpt>
      <trkpt lat="43.59066" lon="2.95592">
        <ele>518.2</ele>
        <time>2026-05-07T07:57:57.999Z</time>
      </trkpt>
      <trkpt lat="43.59067" lon="2.95592">
        <ele>517.9</ele>
        <time>2026-05-07T07:57:58.999Z</time>
      </trkpt>
      <trkpt lat="43.59067" lon="2.95593">
        <ele>517.9</ele>
        <time>2026-05-07T07:57:59.999Z</time>
      </trkpt>
      <trkpt lat="43.59067" lon="2.95593">
        <ele>517.9</ele>
        <time>2026-05-07T07:58:00.999Z</time>
      </trkpt>
      <trkpt lat="43.59066" lon="2.95594">
        <ele>517.8</ele>
        <time>2026-05-07T07:58:01.999Z</time>
      </trkpt>
      <trkpt lat="43.59065" lon="2.95594">
        <ele>518.5</ele>
        <time>2026-05-07T07:58:02.999Z</time>
      </trkpt>
      <trkpt lat="43.59065" lon="2.95595">
        <ele>519.4</ele>
        <time>2026-05-07T07:58:03.999Z</time>
      </trkpt>
      <trkpt lat="43.59066" lon="2.95594">
        <ele>519.5</ele>
        <time>2026-05-07T07:58:04.999Z</time>
      </trkpt>
      <trkpt lat="43.59066" lon="2.95594">
        <ele>519.6</ele>
        <time>2026-05-07T07:58:05.999Z</time>
      </trkpt>
      <trkpt lat="43.59066" lon="2.95594">
        <ele>519.9</ele>
        <time>2026-05-07T07:58:06.999Z</time>
      </trkpt>
      <trkpt lat="43.59067" lon="2.95594">
        <ele>519.9</ele>
        <time>2026-05-07T07:58:07.999Z</time>
      </trkpt>
      <trkpt lat="43.59068" lon="2.95594">
        <ele>519.9</ele>
        <time>2026-05-07T07:58:08.999Z</time>
      </trkpt>
      <trkpt lat="43.59068" lon="2.95594">
        <ele>520.6</ele>
        <time>2026-05-07T07:58:10.999Z</time>
      </trkpt>
      <trkpt lat="43.59068" lon="2.95594">
        <ele>520.8</ele>
        <time>2026-05-07T07:58:11.999Z</time>
      </trkpt>
      <trkpt lat="43.59068" lon="2.95594">
        <ele>521</ele>
        <time>2026-05-07T07:58:12.999Z</time>
      </trkpt>
      <trkpt lat="43.59068" lon="2.95594">
        <ele>521.6</ele>
        <time>2026-05-07T07:58:13.999Z</time>
      </trkpt>
      <trkpt lat="43.59068" lon="2.95594">
        <ele>521.5</ele>
        <time>2026-05-07T07:58:14.999Z</time>
      </trkpt>
      <trkpt lat="43.59068" lon="2.95595">
        <ele>521.7</ele>
        <time>2026-05-07T07:58:15.999Z</time>
      </trkpt>
      <trkpt lat="43.59069" lon="2.95595">
        <ele>521.5</ele>
        <time>2026-05-07T07:58:16.999Z</time>
      </trkpt>
      <trkpt lat="43.59069" lon="2.95596">
        <ele>521.5</ele>
        <time>2026-05-07T07:58:17.999Z</time>
      </trkpt>
      <trkpt lat="43.5907" lon="2.95597">
        <ele>521.7</ele>
        <time>2026-05-07T07:58:18.999Z</time>
      </trkpt>
      <trkpt lat="43.5907" lon="2.95597">
        <ele>522</ele>
        <time>2026-05-07T07:58:19.999Z</time>
      </trkpt>
      <trkpt lat="43.5907" lon="2.95597">
        <ele>522.1</ele>
        <time>2026-05-07T07:58:20.999Z</time>
      </trkpt>
      <trkpt lat="43.59071" lon="2.95597">
        <ele>522.1</ele>
        <time>2026-05-07T07:58:21.999Z</time>
      </trkpt>
      <trkpt lat="43.59071" lon="2.95597">
        <ele>522.4</ele>
        <time>2026-05-07T07:58:22.999Z</time>
      </trkpt>
      <trkpt lat="43.59071" lon="2.95597">
        <ele>522.3</ele>
        <time>2026-05-07T07:58:23.999Z</time>
      </trkpt>
      <trkpt lat="43.59071" lon="2.95597">
        <ele>522.1</ele>
        <time>2026-05-07T07:58:24.999Z</time>
      </trkpt>
      <trkpt lat="43.59071" lon="2.95598">
        <ele>522.3</ele>
        <time>2026-05-07T07:58:25.999Z</time>
      </trkpt>
      <trkpt lat="43.59071" lon="2.95598">
        <ele>522</ele>
        <time>2026-05-07T07:58:26.999Z</time>
      </trkpt>
      <trkpt lat="43.59071" lon="2.95598">
        <ele>522.1</ele>
        <time>2026-05-07T07:58:27.999Z</time>
      </trkpt>
      <trkpt lat="43.59071" lon="2.95598">
        <ele>522.5</ele>
        <time>2026-05-07T07:58:28.999Z</time>
      </trkpt>
      <trkpt lat="43.59071" lon="2.95598">
        <ele>522.8</ele>
        <time>2026-05-07T07:58:29.999Z</time>
      </trkpt>
      <trkpt lat="43.59071" lon="2.95598">
        <ele>522.9</ele>
        <time>2026-05-07T07:58:30.999Z</time>
      </trkpt>
      <trkpt lat="43.59071" lon="2.95598">
        <ele>522.9</ele>
        <time>2026-05-07T07:58:31.999Z</time>
      </trkpt>
      <trkpt lat="43.59072" lon="2.95599">
        <ele>522.8</ele>
        <time>2026-05-07T07:58:32.999Z</time>
      </trkpt>
      <trkpt lat="43.59072" lon="2.95599">
        <ele>523.1</ele>
        <time>2026-05-07T07:58:33.999Z</time>
      </trkpt>
      <trkpt lat="43.59073" lon="2.956">
        <ele>523.1</ele>
        <time>2026-05-07T07:58:34.999Z</time>
      </trkpt>
      <trkpt lat="43.59073" lon="2.95601">
        <ele>523.1</ele>
        <time>2026-05-07T07:58:35.999Z</time>
      </trkpt>
      <trkpt lat="43.59074" lon="2.95601">
        <ele>522.9</ele>
        <time>2026-05-07T07:58:36.999Z</time>
      </trkpt>
      <trkpt lat="43.59075" lon="2.95601">
        <ele>522.9</ele>
        <time>2026-05-07T07:58:37.999Z</time>
      </trkpt>
      <trkpt lat="43.59076" lon="2.95601">
        <ele>523.1</ele>
        <time>2026-05-07T07:58:38.999Z</time>
      </trkpt>
      <trkpt lat="43.59076" lon="2.956">
        <ele>523.5</ele>
        <time>2026-05-07T07:58:39.999Z</time>
      </trkpt>
      <trkpt lat="43.59077" lon="2.95599">
        <ele>524</ele>
        <time>2026-05-07T07:58:40.999Z</time>
      </trkpt>
      <trkpt lat="43.59078" lon="2.95599">
        <ele>524.3</ele>
        <time>2026-05-07T07:58:41.999Z</time>
      </trkpt>
      <trkpt lat="43.59078" lon="2.95599">
        <ele>524</ele>
        <time>2026-05-07T07:58:42.999Z</time>
      </trkpt>
      <trkpt lat="43.59079" lon="2.95599">
        <ele>524.1</ele>
        <time>2026-05-07T07:58:43.999Z</time>
      </trkpt>
      <trkpt lat="43.5908" lon="2.956">
        <ele>523.9</ele>
        <time>2026-05-07T07:58:44.999Z</time>
      </trkpt>
      <trkpt lat="43.5908" lon="2.95599">
        <ele>523.7</ele>
        <time>2026-05-07T07:58:45.999Z</time>
      </trkpt>
      <trkpt lat="43.5908" lon="2.95599">
        <ele>523.8</ele>
        <time>2026-05-07T07:58:46.999Z</time>
      </trkpt>
      <trkpt lat="43.59081" lon="2.95598">
        <ele>523.6</ele>
        <time>2026-05-07T07:58:47.999Z</time>
      </trkpt>
      <trkpt lat="43.59081" lon="2.95598">
        <ele>523.8</ele>
        <time>2026-05-07T07:58:48.999Z</time>
      </trkpt>
      <trkpt lat="43.5908" lon="2.95598">
        <ele>524</ele>
        <time>2026-05-07T07:58:49.999Z</time>
      </trkpt>
      <trkpt lat="43.5908" lon="2.95599">
        <ele>523.7</ele>
        <time>2026-05-07T07:58:50.999Z</time>
      </trkpt>
      <trkpt lat="43.59081" lon="2.956">
        <ele>523.7</ele>
        <time>2026-05-07T07:58:51.999Z</time>
      </trkpt>
      <trkpt lat="43.59081" lon="2.95601">
        <ele>524</ele>
        <time>2026-05-07T07:58:52.999Z</time>
      </trkpt>
      <trkpt lat="43.59082" lon="2.95602">
        <ele>524</ele>
        <time>2026-05-07T07:58:53.999Z</time>
      </trkpt>
      <trkpt lat="43.59082" lon="2.95602">
        <ele>524.3</ele>
        <time>2026-05-07T07:58:54.999Z</time>
      </trkpt>
      <trkpt lat="43.59082" lon="2.95603">
        <ele>524.4</ele>
        <time>2026-05-07T07:58:55.999Z</time>
      </trkpt>
      <trkpt lat="43.59082" lon="2.95603">
        <ele>524.6</ele>
        <time>2026-05-07T07:58:56.999Z</time>
      </trkpt>
      <trkpt lat="43.59082" lon="2.95603">
        <ele>524.7</ele>
        <time>2026-05-07T07:58:57.999Z</time>
      </trkpt>
      <trkpt lat="43.59082" lon="2.95603">
        <ele>524.8</ele>
        <time>2026-05-07T07:58:58.999Z</time>
      </trkpt>
      <trkpt lat="43.59082" lon="2.95603">
        <ele>524.9</ele>
        <time>2026-05-07T07:58:59.999Z</time>
      </trkpt>
      <trkpt lat="43.59082" lon="2.95603">
        <ele>525.2</ele>
        <time>2026-05-07T07:59:00.999Z</time>
      </trkpt>
      <trkpt lat="43.59083" lon="2.95602">
        <ele>525.2</ele>
        <time>2026-05-07T07:59:01.999Z</time>
      </trkpt>
      <trkpt lat="43.59083" lon="2.95601">
        <ele>525.4</ele>
        <time>2026-05-07T07:59:02.999Z</time>
      </trkpt>
      <trkpt lat="43.59083" lon="2.95601">
        <ele>525.5</ele>
        <time>2026-05-07T07:59:03.999Z</time>
      </trkpt>
      <trkpt lat="43.59084" lon="2.95601">
        <ele>525.4</ele>
        <time>2026-05-07T07:59:04.999Z</time>
      </trkpt>
      <trkpt lat="43.59085" lon="2.95602">
        <ele>525.4</ele>
        <time>2026-05-07T07:59:05.999Z</time>
      </trkpt>
      <trkpt lat="43.59085" lon="2.95602">
        <ele>525.3</ele>
        <time>2026-05-07T07:59:06.999Z</time>
      </trkpt>
      <trkpt lat="43.59086" lon="2.95602">
        <ele>525.5</ele>
        <time>2026-05-07T07:59:07.999Z</time>
      </trkpt>
      <trkpt lat="43.59087" lon="2.95603">
        <ele>525.6</ele>
        <time>2026-05-07T07:59:08.999Z</time>
      </trkpt>
      <trkpt lat="43.59087" lon="2.95603">
        <ele>525.8</ele>
        <time>2026-05-07T07:59:09.999Z</time>
      </trkpt>
      <trkpt lat="43.59088" lon="2.95604">
        <ele>525.9</ele>
        <time>2026-05-07T07:59:10.999Z</time>
      </trkpt>
      <trkpt lat="43.59088" lon="2.95603">
        <ele>526</ele>
        <time>2026-05-07T07:59:11.999Z</time>
      </trkpt>
      <trkpt lat="43.59089" lon="2.95603">
        <ele>526.1</ele>
        <time>2026-05-07T07:59:12.999Z</time>
      </trkpt>
      <trkpt lat="43.59088" lon="2.95603">
        <ele>526.5</ele>
        <time>2026-05-07T07:59:13.999Z</time>
      </trkpt>
      <trkpt lat="43.59088" lon="2.95603">
        <ele>526.6</ele>
        <time>2026-05-07T07:59:14.999Z</time>
      </trkpt>
      <trkpt lat="43.59088" lon="2.95603">
        <ele>526.6</ele>
        <time>2026-05-07T07:59:15.999Z</time>
      </trkpt>
      <trkpt lat="43.59088" lon="2.95603">
        <ele>526.4</ele>
        <time>2026-05-07T07:59:16.999Z</time>
      </trkpt>
      <trkpt lat="43.59088" lon="2.95603">
        <ele>526.4</ele>
        <time>2026-05-07T07:59:17.999Z</time>
      </trkpt>
      <trkpt lat="43.59088" lon="2.95603">
        <ele>526.4</ele>
        <time>2026-05-07T07:59:18.999Z</time>
      </trkpt>
      <trkpt lat="43.59088" lon="2.95603">
        <ele>526.4</ele>
        <time>2026-05-07T07:59:19.999Z</time>
      </trkpt>
      <trkpt lat="43.59088" lon="2.95603">
        <ele>526.4</ele>
        <time>2026-05-07T07:59:20.999Z</time>
      </trkpt>
      <trkpt lat="43.59087" lon="2.95602">
        <ele>526.5</ele>
        <time>2026-05-07T07:59:21.999Z</time>
      </trkpt>
      <trkpt lat="43.59087" lon="2.95602">
        <ele>526.5</ele>
        <time>2026-05-07T07:59:22.999Z</time>
      </trkpt>
      <trkpt lat="43.59087" lon="2.95602">
        <ele>526.6</ele>
        <time>2026-05-07T07:59:23.999Z</time>
      </trkpt>
      <trkpt lat="43.59087" lon="2.95602">
        <ele>526.8</ele>
        <time>2026-05-07T07:59:24.999Z</time>
      </trkpt>
      <trkpt lat="43.59087" lon="2.95602">
        <ele>526.9</ele>
        <time>2026-05-07T07:59:25.999Z</time>
      </trkpt>
      <trkpt lat="43.59087" lon="2.95602">
        <ele>527</ele>
        <time>2026-05-07T07:59:26.999Z</time>
      </trkpt>
      <trkpt lat="43.59087" lon="2.95602">
        <ele>527.1</ele>
        <time>2026-05-07T07:59:27.999Z</time>
      </trkpt>
      <trkpt lat="43.59087" lon="2.95602">
        <ele>527.2</ele>
        <time>2026-05-07T07:59:28.999Z</time>
      </trkpt>
      <trkpt lat="43.59089" lon="2.95602">
        <ele>527.4</ele>
        <time>2026-05-07T07:59:30.999Z</time>
      </trkpt>
      <trkpt lat="43.59089" lon="2.95603">
        <ele>527.5</ele>
        <time>2026-05-07T07:59:31.999Z</time>
      </trkpt>
      <trkpt lat="43.59089" lon="2.95603">
        <ele>527.2</ele>
        <time>2026-05-07T07:59:32.999Z</time>
      </trkpt>
      <trkpt lat="43.59089" lon="2.95603">
        <ele>527.1</ele>
        <time>2026-05-07T07:59:33.999Z</time>
      </trkpt>
      <trkpt lat="43.59089" lon="2.95603">
        <ele>527</ele>
        <time>2026-05-07T07:59:34.999Z</time>
      </trkpt>
      <trkpt lat="43.59089" lon="2.95603">
        <ele>527</ele>
        <time>2026-05-07T07:59:35.999Z</time>
      </trkpt>
      <trkpt lat="43.59089" lon="2.95603">
        <ele>527</ele>
        <time>2026-05-07T07:59:36.999Z</time>
      </trkpt>
      <trkpt lat="43.59089" lon="2.95603">
        <ele>527.1</ele>
        <time>2026-05-07T07:59:37.999Z</time>
      </trkpt>
      <trkpt lat="43.59089" lon="2.95603">
        <ele>527.2</ele>
        <time>2026-05-07T07:59:38.999Z</time>
      </trkpt>
      <trkpt lat="43.59089" lon="2.95603">
        <ele>527.5</ele>
        <time>2026-05-07T07:59:39.999Z</time>
      </trkpt>
      <trkpt lat="43.59089" lon="2.95603">
        <ele>527.6</ele>
        <time>2026-05-07T07:59:40.999Z</time>
      </trkpt>
      <trkpt lat="43.59089" lon="2.95603">
        <ele>527.5</ele>
        <time>2026-05-07T07:59:41.999Z</time>
      </trkpt>
      <trkpt lat="43.59089" lon="2.95603">
        <ele>527.5</ele>
        <time>2026-05-07T07:59:42.999Z</time>
      </trkpt>
      <trkpt lat="43.59089" lon="2.95603">
        <ele>527.5</ele>
        <time>2026-05-07T07:59:43.999Z</time>
      </trkpt>
      <trkpt lat="43.59089" lon="2.95604">
        <ele>527.4</ele>
        <time>2026-05-07T07:59:44.999Z</time>
      </trkpt>
      <trkpt lat="43.59091" lon="2.95605">
        <ele>527.3</ele>
        <time>2026-05-07T07:59:45.999Z</time>
      </trkpt>
      <trkpt lat="43.59092" lon="2.95606">
        <ele>527.6</ele>
        <time>2026-05-07T07:59:46.999Z</time>
      </trkpt>
      <trkpt lat="43.59093" lon="2.95607">
        <ele>528</ele>
        <time>2026-05-07T07:59:47.999Z</time>
      </trkpt>
      <trkpt lat="43.59095" lon="2.95608">
        <ele>527.7</ele>
        <time>2026-05-07T07:59:49.999Z</time>
      </trkpt>
      <trkpt lat="43.59096" lon="2.95609">
        <ele>527.7</ele>
        <time>2026-05-07T07:59:50.999Z</time>
      </trkpt>
      <trkpt lat="43.59098" lon="2.95609">
        <ele>527.6</ele>
        <time>2026-05-07T07:59:51.999Z</time>
      </trkpt>
      <trkpt lat="43.59098" lon="2.9561">
        <ele>527.5</ele>
        <time>2026-05-07T07:59:52.999Z</time>
      </trkpt>
      <trkpt lat="43.59098" lon="2.9561">
        <ele>527.9</ele>
        <time>2026-05-07T07:59:53.999Z</time>
      </trkpt>
      <trkpt lat="43.59098" lon="2.9561">
        <ele>527.8</ele>
        <time>2026-05-07T07:59:54.999Z</time>
      </trkpt>
      <trkpt lat="43.591" lon="2.95611">
        <ele>527.5</ele>
        <time>2026-05-07T07:59:55.999Z</time>
      </trkpt>
      <trkpt lat="43.591" lon="2.95611">
        <ele>527.7</ele>
        <time>2026-05-07T07:59:56.999Z</time>
      </trkpt>
      <trkpt lat="43.591" lon="2.95611">
        <ele>527.8</ele>
        <time>2026-05-07T07:59:58.999Z</time>
      </trkpt>
      <trkpt lat="43.59101" lon="2.95611">
        <ele>527.8</ele>
        <time>2026-05-07T07:59:59.999Z</time>
      </trkpt>
      <trkpt lat="43.59101" lon="2.9561">
        <ele>527.6</ele>
        <time>2026-05-07T08:00:00.999Z</time>
      </trkpt>
      <trkpt lat="43.59102" lon="2.95611">
        <ele>527.5</ele>
        <time>2026-05-07T08:00:01.999Z</time>
      </trkpt>
      <trkpt lat="43.59102" lon="2.95612">
        <ele>527.7</ele>
        <time>2026-05-07T08:00:02.999Z</time>
      </trkpt>
      <trkpt lat="43.59102" lon="2.95612">
        <ele>527.7</ele>
        <time>2026-05-07T08:00:03.999Z</time>
      </trkpt>
      <trkpt lat="43.59102" lon="2.95613">
        <ele>527.4</ele>
        <time>2026-05-07T08:00:04.999Z</time>
      </trkpt>
      <trkpt lat="43.59102" lon="2.95614">
        <ele>527.1</ele>
        <time>2026-05-07T08:00:05.999Z</time>
      </trkpt>
      <trkpt lat="43.59102" lon="2.95615">
        <ele>527</ele>
        <time>2026-05-07T08:00:06.999Z</time>
      </trkpt>
      <trkpt lat="43.59102" lon="2.95615">
        <ele>527</ele>
        <time>2026-05-07T08:00:07.999Z</time>
      </trkpt>
      <trkpt lat="43.59102" lon="2.95615">
        <ele>527</ele>
        <time>2026-05-07T08:00:08.999Z</time>
      </trkpt>
      <trkpt lat="43.59103" lon="2.95615">
        <ele>526.9</ele>
        <time>2026-05-07T08:00:09.999Z</time>
      </trkpt>
      <trkpt lat="43.59103" lon="2.95615">
        <ele>527.1</ele>
        <time>2026-05-07T08:00:10.999Z</time>
      </trkpt>
      <trkpt lat="43.59103" lon="2.95615">
        <ele>527.6</ele>
        <time>2026-05-07T08:00:11.999Z</time>
      </trkpt>
      <trkpt lat="43.59103" lon="2.95616">
        <ele>529.2</ele>
        <time>2026-05-07T08:00:12.999Z</time>
      </trkpt>
      <trkpt lat="43.59103" lon="2.95616">
        <ele>530.1</ele>
        <time>2026-05-07T08:00:13.999Z</time>
      </trkpt>
      <trkpt lat="43.59103" lon="2.95616">
        <ele>530.9</ele>
        <time>2026-05-07T08:00:14.999Z</time>
      </trkpt>
      <trkpt lat="43.59103" lon="2.95617">
        <ele>531.4</ele>
        <time>2026-05-07T08:00:15.999Z</time>
      </trkpt>
      <trkpt lat="43.59103" lon="2.95617">
        <ele>531.9</ele>
        <time>2026-05-07T08:00:16.999Z</time>
      </trkpt>
      <trkpt lat="43.59103" lon="2.95618">
        <ele>532.3</ele>
        <time>2026-05-07T08:00:17.999Z</time>
      </trkpt>
      <trkpt lat="43.59104" lon="2.95619">
        <ele>531.9</ele>
        <time>2026-05-07T08:00:18.999Z</time>
      </trkpt>
      <trkpt lat="43.59105" lon="2.95619">
        <ele>530.9</ele>
        <time>2026-05-07T08:00:19.999Z</time>
      </trkpt>
      <trkpt lat="43.59105" lon="2.95618">
        <ele>530.8</ele>
        <time>2026-05-07T08:00:20.999Z</time>
      </trkpt>
      <trkpt lat="43.59105" lon="2.95619">
        <ele>530.7</ele>
        <time>2026-05-07T08:00:21.999Z</time>
      </trkpt>
      <trkpt lat="43.59105" lon="2.95619">
        <ele>530.8</ele>
        <time>2026-05-07T08:00:22.999Z</time>
      </trkpt>
      <trkpt lat="43.59105" lon="2.95619">
        <ele>530.8</ele>
        <time>2026-05-07T08:00:23.999Z</time>
      </trkpt>
      <trkpt lat="43.59106" lon="2.95619">
        <ele>530.5</ele>
        <time>2026-05-07T08:00:24.999Z</time>
      </trkpt>
      <trkpt lat="43.59107" lon="2.9562">
        <ele>530.6</ele>
        <time>2026-05-07T08:00:25.999Z</time>
      </trkpt>
      <trkpt lat="43.59107" lon="2.95621">
        <ele>530.7</ele>
        <time>2026-05-07T08:00:26.999Z</time>
      </trkpt>
      <trkpt lat="43.59107" lon="2.95621">
        <ele>530.6</ele>
        <time>2026-05-07T08:00:27.999Z</time>
      </trkpt>
      <trkpt lat="43.59107" lon="2.95621">
        <ele>530.8</ele>
        <time>2026-05-07T08:00:28.999Z</time>
      </trkpt>
      <trkpt lat="43.59107" lon="2.95621">
        <ele>531</ele>
        <time>2026-05-07T08:00:29.999Z</time>
      </trkpt>
      <trkpt lat="43.59107" lon="2.95621">
        <ele>531.2</ele>
        <time>2026-05-07T08:00:30.999Z</time>
      </trkpt>
      <trkpt lat="43.59107" lon="2.95621">
        <ele>531.6</ele>
        <time>2026-05-07T08:00:31.999Z</time>
      </trkpt>
      <trkpt lat="43.59107" lon="2.95621">
        <ele>531.9</ele>
        <time>2026-05-07T08:00:32.999Z</time>
      </trkpt>
      <trkpt lat="43.59108" lon="2.9562">
        <ele>532.2</ele>
        <time>2026-05-07T08:00:33.999Z</time>
      </trkpt>
      <trkpt lat="43.59108" lon="2.95619">
        <ele>532.1</ele>
        <time>2026-05-07T08:00:35.999Z</time>
      </trkpt>
      <trkpt lat="43.59108" lon="2.95619">
        <ele>532.3</ele>
        <time>2026-05-07T08:00:36.999Z</time>
      </trkpt>
      <trkpt lat="43.59109" lon="2.95619">
        <ele>532.6</ele>
        <time>2026-05-07T08:00:37.999Z</time>
      </trkpt>
      <trkpt lat="43.59109" lon="2.95619">
        <ele>533</ele>
        <time>2026-05-07T08:00:38.999Z</time>
      </trkpt>
      <trkpt lat="43.59109" lon="2.95619">
        <ele>533.2</ele>
        <time>2026-05-07T08:00:39.999Z</time>
      </trkpt>
      <trkpt lat="43.5911" lon="2.95619">
        <ele>533.4</ele>
        <time>2026-05-07T08:00:40.999Z</time>
      </trkpt>
      <trkpt lat="43.5911" lon="2.95619">
        <ele>533.3</ele>
        <time>2026-05-07T08:00:41.999Z</time>
      </trkpt>
      <trkpt lat="43.5911" lon="2.95619">
        <ele>533.2</ele>
        <time>2026-05-07T08:00:42.999Z</time>
      </trkpt>
      <trkpt lat="43.5911" lon="2.95619">
        <ele>533</ele>
        <time>2026-05-07T08:00:43.999Z</time>
      </trkpt>
      <trkpt lat="43.5911" lon="2.9562">
        <ele>533</ele>
        <time>2026-05-07T08:00:44.999Z</time>
      </trkpt>
      <trkpt lat="43.59111" lon="2.9562">
        <ele>532.8</ele>
        <time>2026-05-07T08:00:45.999Z</time>
      </trkpt>
      <trkpt lat="43.59111" lon="2.9562">
        <ele>532.6</ele>
        <time>2026-05-07T08:00:46.999Z</time>
      </trkpt>
      <trkpt lat="43.59111" lon="2.9562">
        <ele>532.3</ele>
        <time>2026-05-07T08:00:47.999Z</time>
      </trkpt>
      <trkpt lat="43.59111" lon="2.95621">
        <ele>532.2</ele>
        <time>2026-05-07T08:00:48.999Z</time>
      </trkpt>
      <trkpt lat="43.59112" lon="2.95621">
        <ele>532.5</ele>
        <time>2026-05-07T08:00:49.999Z</time>
      </trkpt>
      <trkpt lat="43.59112" lon="2.95621">
        <ele>532.7</ele>
        <time>2026-05-07T08:00:50.999Z</time>
      </trkpt>
      <trkpt lat="43.59113" lon="2.95623">
        <ele>533.2</ele>
        <time>2026-05-07T08:00:51.999Z</time>
      </trkpt>
      <trkpt lat="43.59113" lon="2.95622">
        <ele>533.2</ele>
        <time>2026-05-07T08:00:52.999Z</time>
      </trkpt>
      <trkpt lat="43.59114" lon="2.9562">
        <ele>533.9</ele>
        <time>2026-05-07T08:00:54.999Z</time>
      </trkpt>
      <trkpt lat="43.59115" lon="2.95619">
        <ele>534</ele>
        <time>2026-05-07T08:00:55.999Z</time>
      </trkpt>
      <trkpt lat="43.59115" lon="2.95619">
        <ele>533.9</ele>
        <time>2026-05-07T08:00:56.999Z</time>
      </trkpt>
      <trkpt lat="43.59115" lon="2.95617">
        <ele>534.2</ele>
        <time>2026-05-07T08:00:57.999Z</time>
      </trkpt>
      <trkpt lat="43.59115" lon="2.95617">
        <ele>534</ele>
        <time>2026-05-07T08:00:58.999Z</time>
      </trkpt>
      <trkpt lat="43.59115" lon="2.95617">
        <ele>534</ele>
        <time>2026-05-07T08:00:59.999Z</time>
      </trkpt>
      <trkpt lat="43.59115" lon="2.95617">
        <ele>533.8</ele>
        <time>2026-05-07T08:01:00.999Z</time>
      </trkpt>
      <trkpt lat="43.59115" lon="2.95616">
        <ele>533.8</ele>
        <time>2026-05-07T08:01:01.999Z</time>
      </trkpt>
      <trkpt lat="43.59116" lon="2.95616">
        <ele>533.6</ele>
        <time>2026-05-07T08:01:03.999Z</time>
      </trkpt>
      <trkpt lat="43.59117" lon="2.95616">
        <ele>533.5</ele>
        <time>2026-05-07T08:01:04.999Z</time>
      </trkpt>
      <trkpt lat="43.59117" lon="2.95615">
        <ele>533.4</ele>
        <time>2026-05-07T08:01:05.999Z</time>
      </trkpt>
      <trkpt lat="43.59118" lon="2.95616">
        <ele>533.5</ele>
        <time>2026-05-07T08:01:06.999Z</time>
      </trkpt>
      <trkpt lat="43.59118" lon="2.95616">
        <ele>533.6</ele>
        <time>2026-05-07T08:01:07.999Z</time>
      </trkpt>
      <trkpt lat="43.59118" lon="2.95617">
        <ele>534</ele>
        <time>2026-05-07T08:01:08.999Z</time>
      </trkpt>
      <trkpt lat="43.59118" lon="2.95617">
        <ele>534.3</ele>
        <time>2026-05-07T08:01:09.999Z</time>
      </trkpt>
      <trkpt lat="43.59118" lon="2.95616">
        <ele>534.4</ele>
        <time>2026-05-07T08:01:10.999Z</time>
      </trkpt>
      <trkpt lat="43.59118" lon="2.95616">
        <ele>534.3</ele>
        <time>2026-05-07T08:01:11.999Z</time>
      </trkpt>
      <trkpt lat="43.59118" lon="2.95617">
        <ele>534.5</ele>
        <time>2026-05-07T08:01:12.999Z</time>
      </trkpt>
      <trkpt lat="43.59118" lon="2.95616">
        <ele>534.4</ele>
        <time>2026-05-07T08:01:13.999Z</time>
      </trkpt>
      <trkpt lat="43.59119" lon="2.95616">
        <ele>534.2</ele>
        <time>2026-05-07T08:01:14.999Z</time>
      </trkpt>
      <trkpt lat="43.5912" lon="2.95617">
        <ele>534.1</ele>
        <time>2026-05-07T08:01:15.999Z</time>
      </trkpt>
      <trkpt lat="43.59121" lon="2.95617">
        <ele>534.5</ele>
        <time>2026-05-07T08:01:16.999Z</time>
      </trkpt>
      <trkpt lat="43.5912" lon="2.95619">
        <ele>535.6</ele>
        <time>2026-05-07T08:01:17.999Z</time>
      </trkpt>
      <trkpt lat="43.5912" lon="2.95619">
        <ele>536.2</ele>
        <time>2026-05-07T08:01:18.999Z</time>
      </trkpt>
      <trkpt lat="43.5912" lon="2.95619">
        <ele>537</ele>
        <time>2026-05-07T08:01:19.999Z</time>
      </trkpt>
      <trkpt lat="43.5912" lon="2.95619">
        <ele>537.3</ele>
        <time>2026-05-07T08:01:20.999Z</time>
      </trkpt>
      <trkpt lat="43.5912" lon="2.95619">
        <ele>537.5</ele>
        <time>2026-05-07T08:01:21.999Z</time>
      </trkpt>
      <trkpt lat="43.5912" lon="2.95619">
        <ele>537.9</ele>
        <time>2026-05-07T08:01:22.999Z</time>
      </trkpt>
      <trkpt lat="43.5912" lon="2.95619">
        <ele>538</ele>
        <time>2026-05-07T08:01:23.999Z</time>
      </trkpt>
      <trkpt lat="43.5912" lon="2.95619">
        <ele>537.9</ele>
        <time>2026-05-07T08:01:24.999Z</time>
      </trkpt>
      <trkpt lat="43.5912" lon="2.95619">
        <ele>538.3</ele>
        <time>2026-05-07T08:01:25.999Z</time>
      </trkpt>
      <trkpt lat="43.5912" lon="2.95619">
        <ele>538.2</ele>
        <time>2026-05-07T08:01:26.999Z</time>
      </trkpt>
      <trkpt lat="43.5912" lon="2.9562">
        <ele>538.4</ele>
        <time>2026-05-07T08:01:27.999Z</time>
      </trkpt>
      <trkpt lat="43.5912" lon="2.9562">
        <ele>538.6</ele>
        <time>2026-05-07T08:01:28.999Z</time>
      </trkpt>
      <trkpt lat="43.5912" lon="2.9562">
        <ele>538.7</ele>
        <time>2026-05-07T08:01:29.999Z</time>
      </trkpt>
      <trkpt lat="43.5912" lon="2.95621">
        <ele>538.7</ele>
        <time>2026-05-07T08:01:30.999Z</time>
      </trkpt>
      <trkpt lat="43.59121" lon="2.95622">
        <ele>538.3</ele>
        <time>2026-05-07T08:01:31.999Z</time>
      </trkpt>
      <trkpt lat="43.59122" lon="2.95622">
        <ele>538.4</ele>
        <time>2026-05-07T08:01:32.999Z</time>
      </trkpt>
      <trkpt lat="43.59123" lon="2.95623">
        <ele>538.5</ele>
        <time>2026-05-07T08:01:33.999Z</time>
      </trkpt>
      <trkpt lat="43.59123" lon="2.95624">
        <ele>538.7</ele>
        <time>2026-05-07T08:01:34.999Z</time>
      </trkpt>
      <trkpt lat="43.59124" lon="2.95624">
        <ele>539</ele>
        <time>2026-05-07T08:01:35.999Z</time>
      </trkpt>
      <trkpt lat="43.59124" lon="2.95624">
        <ele>539.3</ele>
        <time>2026-05-07T08:01:36.999Z</time>
      </trkpt>
      <trkpt lat="43.59125" lon="2.95623">
        <ele>539.5</ele>
        <time>2026-05-07T08:01:37.999Z</time>
      </trkpt>
      <trkpt lat="43.59126" lon="2.95623">
        <ele>539.8</ele>
        <time>2026-05-07T08:01:38.999Z</time>
      </trkpt>
      <trkpt lat="43.59126" lon="2.95623">
        <ele>540</ele>
        <time>2026-05-07T08:01:39.999Z</time>
      </trkpt>
      <trkpt lat="43.59126" lon="2.95623">
        <ele>539.8</ele>
        <time>2026-05-07T08:01:40.999Z</time>
      </trkpt>
      <trkpt lat="43.59126" lon="2.95623">
        <ele>539.9</ele>
        <time>2026-05-07T08:01:41.999Z</time>
      </trkpt>
      <trkpt lat="43.59125" lon="2.95623">
        <ele>539.8</ele>
        <time>2026-05-07T08:01:42.999Z</time>
      </trkpt>
      <trkpt lat="43.59125" lon="2.95623">
        <ele>539.1</ele>
        <time>2026-05-07T08:01:43.999Z</time>
      </trkpt>
      <trkpt lat="43.59125" lon="2.95624">
        <ele>539</ele>
        <time>2026-05-07T08:01:44.999Z</time>
      </trkpt>
      <trkpt lat="43.59125" lon="2.95623">
        <ele>539.2</ele>
        <time>2026-05-07T08:01:45.999Z</time>
      </trkpt>
      <trkpt lat="43.59126" lon="2.95623">
        <ele>538.8</ele>
        <time>2026-05-07T08:01:46.999Z</time>
      </trkpt>
      <trkpt lat="43.59126" lon="2.95623">
        <ele>538.8</ele>
        <time>2026-05-07T08:01:47.999Z</time>
      </trkpt>
      <trkpt lat="43.59126" lon="2.95624">
        <ele>539.2</ele>
        <time>2026-05-07T08:01:48.999Z</time>
      </trkpt>
      <trkpt lat="43.59126" lon="2.95624">
        <ele>539.1</ele>
        <time>2026-05-07T08:01:49.999Z</time>
      </trkpt>
      <trkpt lat="43.59126" lon="2.95624">
        <ele>539.3</ele>
        <time>2026-05-07T08:01:51.999Z</time>
      </trkpt>
      <trkpt lat="43.59126" lon="2.95624">
        <ele>539</ele>
        <time>2026-05-07T08:01:52.999Z</time>
      </trkpt>
      <trkpt lat="43.59126" lon="2.95624">
        <ele>538.8</ele>
        <time>2026-05-07T08:01:53.999Z</time>
      </trkpt>
      <trkpt lat="43.59126" lon="2.95624">
        <ele>538.7</ele>
        <time>2026-05-07T08:01:54.999Z</time>
      </trkpt>
      <trkpt lat="43.59126" lon="2.95624">
        <ele>538.9</ele>
        <time>2026-05-07T08:01:55.999Z</time>
      </trkpt>
      <trkpt lat="43.59126" lon="2.95623">
        <ele>539</ele>
        <time>2026-05-07T08:01:56.999Z</time>
      </trkpt>
      <trkpt lat="43.59126" lon="2.95624">
        <ele>539.1</ele>
        <time>2026-05-07T08:01:57.999Z</time>
      </trkpt>
      <trkpt lat="43.59126" lon="2.95624">
        <ele>539.4</ele>
        <time>2026-05-07T08:01:58.999Z</time>
      </trkpt>
      <trkpt lat="43.59126" lon="2.95623">
        <ele>539.8</ele>
        <time>2026-05-07T08:02:00.999Z</time>
      </trkpt>
      <trkpt lat="43.59126" lon="2.95623">
        <ele>540.4</ele>
        <time>2026-05-07T08:02:01.999Z</time>
      </trkpt>
      <trkpt lat="43.59126" lon="2.95623">
        <ele>540.7</ele>
        <time>2026-05-07T08:02:02.999Z</time>
      </trkpt>
      <trkpt lat="43.59126" lon="2.95623">
        <ele>541</ele>
        <time>2026-05-07T08:02:03.999Z</time>
      </trkpt>
      <trkpt lat="43.59126" lon="2.95624">
        <ele>541</ele>
        <time>2026-05-07T08:02:04.999Z</time>
      </trkpt>
      <trkpt lat="43.59126" lon="2.95624">
        <ele>541.2</ele>
        <time>2026-05-07T08:02:05.999Z</time>
      </trkpt>
      <trkpt lat="43.59126" lon="2.95624">
        <ele>541.3</ele>
        <time>2026-05-07T08:02:06.999Z</time>
      </trkpt>
      <trkpt lat="43.59127" lon="2.95624">
        <ele>541.4</ele>
        <time>2026-05-07T08:02:07.999Z</time>
      </trkpt>
      <trkpt lat="43.59127" lon="2.95624">
        <ele>541.5</ele>
        <time>2026-05-07T08:02:08.999Z</time>
      </trkpt>
      <trkpt lat="43.59127" lon="2.95624">
        <ele>541.6</ele>
        <time>2026-05-07T08:02:09.999Z</time>
      </trkpt>
      <trkpt lat="43.59127" lon="2.95624">
        <ele>541.8</ele>
        <time>2026-05-07T08:02:10.999Z</time>
      </trkpt>
      <trkpt lat="43.59127" lon="2.95625">
        <ele>542</ele>
        <time>2026-05-07T08:02:11.999Z</time>
      </trkpt>
      <trkpt lat="43.59127" lon="2.95625">
        <ele>541.9</ele>
        <time>2026-05-07T08:02:12.999Z</time>
      </trkpt>
      <trkpt lat="43.59127" lon="2.95626">
        <ele>542</ele>
        <time>2026-05-07T08:02:13.999Z</time>
      </trkpt>
      <trkpt lat="43.59127" lon="2.95626">
        <ele>542.1</ele>
        <time>2026-05-07T08:02:14.999Z</time>
      </trkpt>
      <trkpt lat="43.59127" lon="2.95624">
        <ele>541.9</ele>
        <time>2026-05-07T08:02:15.999Z</time>
      </trkpt>
      <trkpt lat="43.59127" lon="2.95622">
        <ele>541.8</ele>
        <time>2026-05-07T08:02:16.999Z</time>
      </trkpt>
      <trkpt lat="43.59127" lon="2.95621">
        <ele>542</ele>
        <time>2026-05-07T08:02:17.999Z</time>
      </trkpt>
      <trkpt lat="43.59127" lon="2.95619">
        <ele>542.1</ele>
        <time>2026-05-07T08:02:18.999Z</time>
      </trkpt>
      <trkpt lat="43.59127" lon="2.95619">
        <ele>542.1</ele>
        <time>2026-05-07T08:02:19.999Z</time>
      </trkpt>
      <trkpt lat="43.59128" lon="2.95618">
        <ele>542.1</ele>
        <time>2026-05-07T08:02:20.999Z</time>
      </trkpt>
      <trkpt lat="43.59129" lon="2.95617">
        <ele>542.1</ele>
        <time>2026-05-07T08:02:21.999Z</time>
      </trkpt>
      <trkpt lat="43.59129" lon="2.95617">
        <ele>541.6</ele>
        <time>2026-05-07T08:02:22.999Z</time>
      </trkpt>
      <trkpt lat="43.5913" lon="2.95615">
        <ele>541.4</ele>
        <time>2026-05-07T08:02:23.999Z</time>
      </trkpt>
      <trkpt lat="43.59131" lon="2.95615">
        <ele>541</ele>
        <time>2026-05-07T08:02:24.999Z</time>
      </trkpt>
      <trkpt lat="43.59132" lon="2.95615">
        <ele>540.7</ele>
        <time>2026-05-07T08:02:25.999Z</time>
      </trkpt>
      <trkpt lat="43.59132" lon="2.95615">
        <ele>540.4</ele>
        <time>2026-05-07T08:02:26.999Z</time>
      </trkpt>
      <trkpt lat="43.59133" lon="2.95615">
        <ele>540.4</ele>
        <time>2026-05-07T08:02:27.999Z</time>
      </trkpt>
      <trkpt lat="43.59133" lon="2.95616">
        <ele>540.2</ele>
        <time>2026-05-07T08:02:28.999Z</time>
      </trkpt>
      <trkpt lat="43.59133" lon="2.95615">
        <ele>540.1</ele>
        <time>2026-05-07T08:02:29.999Z</time>
      </trkpt>
      <trkpt lat="43.59132" lon="2.95615">
        <ele>540.1</ele>
        <time>2026-05-07T08:02:30.999Z</time>
      </trkpt>
      <trkpt lat="43.59133" lon="2.95615">
        <ele>540.3</ele>
        <time>2026-05-07T08:02:31.999Z</time>
      </trkpt>
      <trkpt lat="43.59133" lon="2.95614">
        <ele>540.5</ele>
        <time>2026-05-07T08:02:32.999Z</time>
      </trkpt>
      <trkpt lat="43.59132" lon="2.95615">
        <ele>540.8</ele>
        <time>2026-05-07T08:02:33.999Z</time>
      </trkpt>
      <trkpt lat="43.59132" lon="2.95615">
        <ele>541.3</ele>
        <time>2026-05-07T08:02:34.999Z</time>
      </trkpt>
      <trkpt lat="43.59132" lon="2.95616">
        <ele>541.8</ele>
        <time>2026-05-07T08:02:35.999Z</time>
      </trkpt>
      <trkpt lat="43.59131" lon="2.95616">
        <ele>541.8</ele>
        <time>2026-05-07T08:02:36.999Z</time>
      </trkpt>
      <trkpt lat="43.59132" lon="2.95616">
        <ele>541.7</ele>
        <time>2026-05-07T08:02:37.999Z</time>
      </trkpt>
      <trkpt lat="43.59133" lon="2.95617">
        <ele>541.9</ele>
        <time>2026-05-07T08:02:38.999Z</time>
      </trkpt>
      <trkpt lat="43.59132" lon="2.95616">
        <ele>542</ele>
        <time>2026-05-07T08:02:39.999Z</time>
      </trkpt>
      <trkpt lat="43.59133" lon="2.95616">
        <ele>541.5</ele>
        <time>2026-05-07T08:02:40.999Z</time>
      </trkpt>
      <trkpt lat="43.59133" lon="2.95616">
        <ele>542.1</ele>
        <time>2026-05-07T08:02:41.999Z</time>
      </trkpt>
      <trkpt lat="43.59133" lon="2.95614">
        <ele>542.3</ele>
        <time>2026-05-07T08:02:42.999Z</time>
      </trkpt>
      <trkpt lat="43.59134" lon="2.95614">
        <ele>542.6</ele>
        <time>2026-05-07T08:02:43.999Z</time>
      </trkpt>
      <trkpt lat="43.59134" lon="2.95614">
        <ele>543.1</ele>
        <time>2026-05-07T08:02:44.999Z</time>
      </trkpt>
      <trkpt lat="43.59134" lon="2.95614">
        <ele>543.3</ele>
        <time>2026-05-07T08:02:45.999Z</time>
      </trkpt>
      <trkpt lat="43.59134" lon="2.95614">
        <ele>543.4</ele>
        <time>2026-05-07T08:02:46.999Z</time>
      </trkpt>
      <trkpt lat="43.59134" lon="2.95615">
        <ele>543.6</ele>
        <time>2026-05-07T08:02:47.999Z</time>
      </trkpt>
      <trkpt lat="43.59134" lon="2.95616">
        <ele>543.5</ele>
        <time>2026-05-07T08:02:48.999Z</time>
      </trkpt>
      <trkpt lat="43.59134" lon="2.95616">
        <ele>543.9</ele>
        <time>2026-05-07T08:02:49.999Z</time>
      </trkpt>
      <trkpt lat="43.59135" lon="2.95616">
        <ele>543.9</ele>
        <time>2026-05-07T08:02:50.999Z</time>
      </trkpt>
      <trkpt lat="43.59135" lon="2.95617">
        <ele>543.8</ele>
        <time>2026-05-07T08:02:51.999Z</time>
      </trkpt>
      <trkpt lat="43.59135" lon="2.95617">
        <ele>543.8</ele>
        <time>2026-05-07T08:02:52.999Z</time>
      </trkpt>
      <trkpt lat="43.59135" lon="2.95617">
        <ele>543.9</ele>
        <time>2026-05-07T08:02:53.999Z</time>
      </trkpt>
      <trkpt lat="43.59136" lon="2.95615">
        <ele>543.8</ele>
        <time>2026-05-07T08:02:55.999Z</time>
      </trkpt>
      <trkpt lat="43.59136" lon="2.95615">
        <ele>543.7</ele>
        <time>2026-05-07T08:02:56.999Z</time>
      </trkpt>
      <trkpt lat="43.59136" lon="2.95616">
        <ele>543.8</ele>
        <time>2026-05-07T08:02:57.999Z</time>
      </trkpt>
      <trkpt lat="43.59137" lon="2.95616">
        <ele>543.3</ele>
        <time>2026-05-07T08:02:58.999Z</time>
      </trkpt>
      <trkpt lat="43.59136" lon="2.95616">
        <ele>543.7</ele>
        <time>2026-05-07T08:02:59.999Z</time>
      </trkpt>
      <trkpt lat="43.59136" lon="2.95616">
        <ele>543.6</ele>
        <time>2026-05-07T08:03:00.999Z</time>
      </trkpt>
      <trkpt lat="43.59137" lon="2.95616">
        <ele>543.7</ele>
        <time>2026-05-07T08:03:01.999Z</time>
      </trkpt>
      <trkpt lat="43.59137" lon="2.95616">
        <ele>543.9</ele>
        <time>2026-05-07T08:03:02.999Z</time>
      </trkpt>
      <trkpt lat="43.59136" lon="2.95616">
        <ele>544.2</ele>
        <time>2026-05-07T08:03:03.999Z</time>
      </trkpt>
      <trkpt lat="43.59136" lon="2.95616">
        <ele>544.4</ele>
        <time>2026-05-07T08:03:04.999Z</time>
      </trkpt>
      <trkpt lat="43.59136" lon="2.95615">
        <ele>544.5</ele>
        <time>2026-05-07T08:03:05.999Z</time>
      </trkpt>
      <trkpt lat="43.59136" lon="2.95615">
        <ele>544.3</ele>
        <time>2026-05-07T08:03:06.999Z</time>
      </trkpt>
      <trkpt lat="43.59136" lon="2.95616">
        <ele>544.1</ele>
        <time>2026-05-07T08:03:07.999Z</time>
      </trkpt>
      <trkpt lat="43.59136" lon="2.95616">
        <ele>544.6</ele>
        <time>2026-05-07T08:03:08.999Z</time>
      </trkpt>
      <trkpt lat="43.59136" lon="2.95616">
        <ele>544.6</ele>
        <time>2026-05-07T08:03:09.999Z</time>
      </trkpt>
      <trkpt lat="43.59136" lon="2.95615">
        <ele>544.6</ele>
        <time>2026-05-07T08:03:10.999Z</time>
      </trkpt>
      <trkpt lat="43.59136" lon="2.95615">
        <ele>544.8</ele>
        <time>2026-05-07T08:03:11.999Z</time>
      </trkpt>
      <trkpt lat="43.59136" lon="2.95615">
        <ele>545.1</ele>
        <time>2026-05-07T08:03:12.999Z</time>
      </trkpt>
      <trkpt lat="43.59136" lon="2.95615">
        <ele>545.2</ele>
        <time>2026-05-07T08:03:13.999Z</time>
      </trkpt>
      <trkpt lat="43.59136" lon="2.95615">
        <ele>545.6</ele>
        <time>2026-05-07T08:03:14.999Z</time>
      </trkpt>
      <trkpt lat="43.59136" lon="2.95616">
        <ele>546</ele>
        <time>2026-05-07T08:03:15.999Z</time>
      </trkpt>
      <trkpt lat="43.59136" lon="2.95617">
        <ele>546.3</ele>
        <time>2026-05-07T08:03:16.999Z</time>
      </trkpt>
      <trkpt lat="43.59136" lon="2.95617">
        <ele>546.6</ele>
        <time>2026-05-07T08:03:17.999Z</time>
      </trkpt>
      <trkpt lat="43.59136" lon="2.95617">
        <ele>546.5</ele>
        <time>2026-05-07T08:03:18.999Z</time>
      </trkpt>
      <trkpt lat="43.59138" lon="2.95619">
        <ele>546.5</ele>
        <time>2026-05-07T08:03:19.999Z</time>
      </trkpt>
      <trkpt lat="43.59138" lon="2.9562">
        <ele>546.9</ele>
        <time>2026-05-07T08:03:20.999Z</time>
      </trkpt>
      <trkpt lat="43.59139" lon="2.9562">
        <ele>546.9</ele>
        <time>2026-05-07T08:03:21.999Z</time>
      </trkpt>
      <trkpt lat="43.59139" lon="2.95621">
        <ele>547.3</ele>
        <time>2026-05-07T08:03:22.999Z</time>
      </trkpt>
      <trkpt lat="43.59139" lon="2.9562">
        <ele>547.8</ele>
        <time>2026-05-07T08:03:23.999Z</time>
      </trkpt>
      <trkpt lat="43.59138" lon="2.9562">
        <ele>548.3</ele>
        <time>2026-05-07T08:03:24.999Z</time>
      </trkpt>
      <trkpt lat="43.59138" lon="2.9562">
        <ele>548.6</ele>
        <time>2026-05-07T08:03:25.999Z</time>
      </trkpt>
      <trkpt lat="43.59138" lon="2.9562">
        <ele>548.5</ele>
        <time>2026-05-07T08:03:26.999Z</time>
      </trkpt>
      <trkpt lat="43.59139" lon="2.95621">
        <ele>548.4</ele>
        <time>2026-05-07T08:03:27.999Z</time>
      </trkpt>
      <trkpt lat="43.5914" lon="2.95621">
        <ele>548.7</ele>
        <time>2026-05-07T08:03:28.999Z</time>
      </trkpt>
      <trkpt lat="43.59141" lon="2.95621">
        <ele>548.7</ele>
        <time>2026-05-07T08:03:29.999Z</time>
      </trkpt>
      <trkpt lat="43.59142" lon="2.95622">
        <ele>548.9</ele>
        <time>2026-05-07T08:03:31.999Z</time>
      </trkpt>
      <trkpt lat="43.59143" lon="2.95622">
        <ele>548.6</ele>
        <time>2026-05-07T08:03:32.999Z</time>
      </trkpt>
      <trkpt lat="43.59143" lon="2.95622">
        <ele>548.7</ele>
        <time>2026-05-07T08:03:33.999Z</time>
      </trkpt>
      <trkpt lat="43.59143" lon="2.95622">
        <ele>548.9</ele>
        <time>2026-05-07T08:03:34.999Z</time>
      </trkpt>
      <trkpt lat="43.59143" lon="2.95622">
        <ele>549.2</ele>
        <time>2026-05-07T08:03:35.999Z</time>
      </trkpt>
      <trkpt lat="43.59143" lon="2.95623">
        <ele>549.4</ele>
        <time>2026-05-07T08:03:36.999Z</time>
      </trkpt>
      <trkpt lat="43.59143" lon="2.95623">
        <ele>549.8</ele>
        <time>2026-05-07T08:03:37.999Z</time>
      </trkpt>
      <trkpt lat="43.59144" lon="2.95623">
        <ele>549.9</ele>
        <time>2026-05-07T08:03:38.999Z</time>
      </trkpt>
      <trkpt lat="43.59144" lon="2.95624">
        <ele>549.8</ele>
        <time>2026-05-07T08:03:39.999Z</time>
      </trkpt>
      <trkpt lat="43.59145" lon="2.95625">
        <ele>549.9</ele>
        <time>2026-05-07T08:03:40.999Z</time>
      </trkpt>
      <trkpt lat="43.59146" lon="2.95626">
        <ele>549.7</ele>
        <time>2026-05-07T08:03:41.999Z</time>
      </trkpt>
      <trkpt lat="43.59147" lon="2.95627">
        <ele>549</ele>
        <time>2026-05-07T08:03:42.999Z</time>
      </trkpt>
      <trkpt lat="43.59147" lon="2.95627">
        <ele>548.8</ele>
        <time>2026-05-07T08:03:43.999Z</time>
      </trkpt>
      <trkpt lat="43.59147" lon="2.95627">
        <ele>548.6</ele>
        <time>2026-05-07T08:03:44.999Z</time>
      </trkpt>
      <trkpt lat="43.59147" lon="2.95627">
        <ele>548.4</ele>
        <time>2026-05-07T08:03:45.999Z</time>
      </trkpt>
      <trkpt lat="43.59147" lon="2.95627">
        <ele>548.5</ele>
        <time>2026-05-07T08:03:46.999Z</time>
      </trkpt>
      <trkpt lat="43.59147" lon="2.95627">
        <ele>548.8</ele>
        <time>2026-05-07T08:03:47.999Z</time>
      </trkpt>
      <trkpt lat="43.59147" lon="2.95627">
        <ele>548.9</ele>
        <time>2026-05-07T08:03:48.999Z</time>
      </trkpt>
      <trkpt lat="43.59148" lon="2.95629">
        <ele>549</ele>
        <time>2026-05-07T08:03:49.999Z</time>
      </trkpt>
      <trkpt lat="43.59148" lon="2.9563">
        <ele>549.3</ele>
        <time>2026-05-07T08:03:50.999Z</time>
      </trkpt>
      <trkpt lat="43.59148" lon="2.9563">
        <ele>549</ele>
        <time>2026-05-07T08:03:51.999Z</time>
      </trkpt>
      <trkpt lat="43.59149" lon="2.9563">
        <ele>548.6</ele>
        <time>2026-05-07T08:03:52.999Z</time>
      </trkpt>
      <trkpt lat="43.5915" lon="2.95631">
        <ele>548.2</ele>
        <time>2026-05-07T08:03:53.999Z</time>
      </trkpt>
      <trkpt lat="43.59151" lon="2.95631">
        <ele>548.3</ele>
        <time>2026-05-07T08:03:54.999Z</time>
      </trkpt>
      <trkpt lat="43.59151" lon="2.95632">
        <ele>548.5</ele>
        <time>2026-05-07T08:03:55.999Z</time>
      </trkpt>
      <trkpt lat="43.59152" lon="2.95632">
        <ele>548.3</ele>
        <time>2026-05-07T08:03:56.999Z</time>
      </trkpt>
      <trkpt lat="43.59153" lon="2.95633">
        <ele>548</ele>
        <time>2026-05-07T08:03:57.999Z</time>
      </trkpt>
      <trkpt lat="43.59153" lon="2.95633">
        <ele>547.7</ele>
        <time>2026-05-07T08:03:58.999Z</time>
      </trkpt>
      <trkpt lat="43.59154" lon="2.95633">
        <ele>547.4</ele>
        <time>2026-05-07T08:03:59.999Z</time>
      </trkpt>
      <trkpt lat="43.59154" lon="2.95633">
        <ele>547.1</ele>
        <time>2026-05-07T08:04:00.999Z</time>
      </trkpt>
      <trkpt lat="43.59155" lon="2.95633">
        <ele>547</ele>
        <time>2026-05-07T08:04:01.999Z</time>
      </trkpt>
      <trkpt lat="43.59155" lon="2.95633">
        <ele>547</ele>
        <time>2026-05-07T08:04:02.999Z</time>
      </trkpt>
      <trkpt lat="43.59155" lon="2.95633">
        <ele>547.1</ele>
        <time>2026-05-07T08:04:03.999Z</time>
      </trkpt>
      <trkpt lat="43.59155" lon="2.95634">
        <ele>547.1</ele>
        <time>2026-05-07T08:04:04.999Z</time>
      </trkpt>
      <trkpt lat="43.59156" lon="2.95634">
        <ele>547.2</ele>
        <time>2026-05-07T08:04:05.999Z</time>
      </trkpt>
      <trkpt lat="43.59156" lon="2.95634">
        <ele>547.6</ele>
        <time>2026-05-07T08:04:06.999Z</time>
      </trkpt>
      <trkpt lat="43.59156" lon="2.95634">
        <ele>547.9</ele>
        <time>2026-05-07T08:04:07.999Z</time>
      </trkpt>
      <trkpt lat="43.59156" lon="2.95634">
        <ele>548</ele>
        <time>2026-05-07T08:04:08.999Z</time>
      </trkpt>
      <trkpt lat="43.59156" lon="2.95635">
        <ele>547.6</ele>
        <time>2026-05-07T08:04:09.999Z</time>
      </trkpt>
      <trkpt lat="43.59157" lon="2.95634">
        <ele>547.6</ele>
        <time>2026-05-07T08:04:10.999Z</time>
      </trkpt>
      <trkpt lat="43.59157" lon="2.95634">
        <ele>548</ele>
        <time>2026-05-07T08:04:11.999Z</time>
      </trkpt>
      <trkpt lat="43.59157" lon="2.95634">
        <ele>548.4</ele>
        <time>2026-05-07T08:04:12.999Z</time>
      </trkpt>
      <trkpt lat="43.59157" lon="2.95634">
        <ele>548.7</ele>
        <time>2026-05-07T08:04:13.999Z</time>
      </trkpt>
      <trkpt lat="43.59157" lon="2.95634">
        <ele>548.8</ele>
        <time>2026-05-07T08:04:14.999Z</time>
      </trkpt>
      <trkpt lat="43.59157" lon="2.95634">
        <ele>548.9</ele>
        <time>2026-05-07T08:04:15.999Z</time>
      </trkpt>
      <trkpt lat="43.59158" lon="2.95633">
        <ele>549</ele>
        <time>2026-05-07T08:04:16.999Z</time>
      </trkpt>
      <trkpt lat="43.59158" lon="2.95634">
        <ele>548.9</ele>
        <time>2026-05-07T08:04:17.999Z</time>
      </trkpt>
      <trkpt lat="43.59158" lon="2.95634">
        <ele>549</ele>
        <time>2026-05-07T08:04:18.999Z</time>
      </trkpt>
      <trkpt lat="43.59158" lon="2.95636">
        <ele>549.1</ele>
        <time>2026-05-07T08:04:19.999Z</time>
      </trkpt>
      <trkpt lat="43.59159" lon="2.95636">
        <ele>548.9</ele>
        <time>2026-05-07T08:04:20.999Z</time>
      </trkpt>
      <trkpt lat="43.59159" lon="2.95638">
        <ele>548.5</ele>
        <time>2026-05-07T08:04:21.999Z</time>
      </trkpt>
      <trkpt lat="43.59159" lon="2.9564">
        <ele>548.1</ele>
        <time>2026-05-07T08:04:22.999Z</time>
      </trkpt>
      <trkpt lat="43.59159" lon="2.95643">
        <ele>547.6</ele>
        <time>2026-05-07T08:04:23.999Z</time>
      </trkpt>
      <trkpt lat="43.59159" lon="2.95646">
        <ele>547.9</ele>
        <time>2026-05-07T08:04:24.999Z</time>
      </trkpt>
      <trkpt lat="43.59159" lon="2.95647">
        <ele>548.6</ele>
        <time>2026-05-07T08:04:25.999Z</time>
      </trkpt>
      <trkpt lat="43.5916" lon="2.95648">
        <ele>548.6</ele>
        <time>2026-05-07T08:04:26.999Z</time>
      </trkpt>
      <trkpt lat="43.5916" lon="2.9565">
        <ele>549.1</ele>
        <time>2026-05-07T08:04:27.999Z</time>
      </trkpt>
      <trkpt lat="43.5916" lon="2.9565">
        <ele>549.3</ele>
        <time>2026-05-07T08:04:28.999Z</time>
      </trkpt>
      <trkpt lat="43.59161" lon="2.9565">
        <ele>549.5</ele>
        <time>2026-05-07T08:04:29.999Z</time>
      </trkpt>
      <trkpt lat="43.59161" lon="2.9565">
        <ele>549.5</ele>
        <time>2026-05-07T08:04:30.999Z</time>
      </trkpt>
      <trkpt lat="43.59161" lon="2.95651">
        <ele>550.2</ele>
        <time>2026-05-07T08:04:31.999Z</time>
      </trkpt>
      <trkpt lat="43.59162" lon="2.95652">
        <ele>550.6</ele>
        <time>2026-05-07T08:04:32.999Z</time>
      </trkpt>
      <trkpt lat="43.59162" lon="2.95652">
        <ele>550.9</ele>
        <time>2026-05-07T08:04:33.999Z</time>
      </trkpt>
      <trkpt lat="43.59162" lon="2.95652">
        <ele>551.1</ele>
        <time>2026-05-07T08:04:34.999Z</time>
      </trkpt>
      <trkpt lat="43.59162" lon="2.95651">
        <ele>551.6</ele>
        <time>2026-05-07T08:04:35.999Z</time>
      </trkpt>
      <trkpt lat="43.59163" lon="2.9565">
        <ele>551.6</ele>
        <time>2026-05-07T08:04:36.999Z</time>
      </trkpt>
      <trkpt lat="43.59162" lon="2.9565">
        <ele>552.1</ele>
        <time>2026-05-07T08:04:37.999Z</time>
      </trkpt>
      <trkpt lat="43.59162" lon="2.95649">
        <ele>552.6</ele>
        <time>2026-05-07T08:04:38.999Z</time>
      </trkpt>
      <trkpt lat="43.59162" lon="2.95648">
        <ele>553.3</ele>
        <time>2026-05-07T08:04:39.999Z</time>
      </trkpt>
      <trkpt lat="43.59162" lon="2.95648">
        <ele>553.9</ele>
        <time>2026-05-07T08:04:40.999Z</time>
      </trkpt>
      <trkpt lat="43.59162" lon="2.95649">
        <ele>554</ele>
        <time>2026-05-07T08:04:41.999Z</time>
      </trkpt>
      <trkpt lat="43.59162" lon="2.95649">
        <ele>554</ele>
        <time>2026-05-07T08:04:42.999Z</time>
      </trkpt>
      <trkpt lat="43.59162" lon="2.95649">
        <ele>554.3</ele>
        <time>2026-05-07T08:04:43.999Z</time>
      </trkpt>
      <trkpt lat="43.59162" lon="2.95648">
        <ele>554.5</ele>
        <time>2026-05-07T08:04:44.999Z</time>
      </trkpt>
      <trkpt lat="43.59162" lon="2.95647">
        <ele>554.3</ele>
        <time>2026-05-07T08:04:45.999Z</time>
      </trkpt>
      <trkpt lat="43.59162" lon="2.95646">
        <ele>554.4</ele>
        <time>2026-05-07T08:04:46.999Z</time>
      </trkpt>
      <trkpt lat="43.59161" lon="2.95646">
        <ele>554.7</ele>
        <time>2026-05-07T08:04:47.999Z</time>
      </trkpt>
      <trkpt lat="43.59161" lon="2.95647">
        <ele>554.5</ele>
        <time>2026-05-07T08:04:48.999Z</time>
      </trkpt>
      <trkpt lat="43.59162" lon="2.95647">
        <ele>554.3</ele>
        <time>2026-05-07T08:04:49.999Z</time>
      </trkpt>
      <trkpt lat="43.59162" lon="2.95648">
        <ele>554.4</ele>
        <time>2026-05-07T08:04:50.999Z</time>
      </trkpt>
      <trkpt lat="43.59162" lon="2.95648">
        <ele>554.5</ele>
        <time>2026-05-07T08:04:51.999Z</time>
      </trkpt>
      <trkpt lat="43.59162" lon="2.95649">
        <ele>554.8</ele>
        <time>2026-05-07T08:04:52.999Z</time>
      </trkpt>
      <trkpt lat="43.59162" lon="2.9565">
        <ele>554.6</ele>
        <time>2026-05-07T08:04:53.999Z</time>
      </trkpt>
      <trkpt lat="43.59163" lon="2.95651">
        <ele>554.2</ele>
        <time>2026-05-07T08:04:54.999Z</time>
      </trkpt>
      <trkpt lat="43.59163" lon="2.95652">
        <ele>554.2</ele>
        <time>2026-05-07T08:04:55.999Z</time>
      </trkpt>
      <trkpt lat="43.59163" lon="2.95652">
        <ele>554.8</ele>
        <time>2026-05-07T08:04:56.999Z</time>
      </trkpt>
      <trkpt lat="43.59163" lon="2.95652">
        <ele>555.1</ele>
        <time>2026-05-07T08:04:57.999Z</time>
      </trkpt>
      <trkpt lat="43.59163" lon="2.95653">
        <ele>555.2</ele>
        <time>2026-05-07T08:04:58.999Z</time>
      </trkpt>
      <trkpt lat="43.59164" lon="2.95653">
        <ele>555.5</ele>
        <time>2026-05-07T08:04:59.999Z</time>
      </trkpt>
      <trkpt lat="43.59164" lon="2.95652">
        <ele>556.6</ele>
        <time>2026-05-07T08:05:00.999Z</time>
      </trkpt>
      <trkpt lat="43.59164" lon="2.95653">
        <ele>557.6</ele>
        <time>2026-05-07T08:05:01.999Z</time>
      </trkpt>
      <trkpt lat="43.59164" lon="2.95653">
        <ele>557.3</ele>
        <time>2026-05-07T08:05:02.999Z</time>
      </trkpt>
      <trkpt lat="43.59164" lon="2.95653">
        <ele>557.1</ele>
        <time>2026-05-07T08:05:03.999Z</time>
      </trkpt>
      <trkpt lat="43.59164" lon="2.95653">
        <ele>557.1</ele>
        <time>2026-05-07T08:05:04.999Z</time>
      </trkpt>
      <trkpt lat="43.59165" lon="2.95656">
        <ele>557.1</ele>
        <time>2026-05-07T08:05:05.999Z</time>
      </trkpt>
      <trkpt lat="43.59166" lon="2.95656">
        <ele>557.1</ele>
        <time>2026-05-07T08:05:06.999Z</time>
      </trkpt>
      <trkpt lat="43.59167" lon="2.95657">
        <ele>557.6</ele>
        <time>2026-05-07T08:05:07.999Z</time>
      </trkpt>
      <trkpt lat="43.59166" lon="2.95656">
        <ele>559.2</ele>
        <time>2026-05-07T08:05:09.999Z</time>
      </trkpt>
      <trkpt lat="43.59167" lon="2.95655">
        <ele>559.7</ele>
        <time>2026-05-07T08:05:10.999Z</time>
      </trkpt>
      <trkpt lat="43.59167" lon="2.95654">
        <ele>559.7</ele>
        <time>2026-05-07T08:05:11.999Z</time>
      </trkpt>
      <trkpt lat="43.59167" lon="2.95653">
        <ele>559.6</ele>
        <time>2026-05-07T08:05:12.999Z</time>
      </trkpt>
      <trkpt lat="43.59167" lon="2.95652">
        <ele>559.5</ele>
        <time>2026-05-07T08:05:13.999Z</time>
      </trkpt>
      <trkpt lat="43.59167" lon="2.95652">
        <ele>559.4</ele>
        <time>2026-05-07T08:05:14.999Z</time>
      </trkpt>
      <trkpt lat="43.59167" lon="2.95651">
        <ele>559.3</ele>
        <time>2026-05-07T08:05:15.999Z</time>
      </trkpt>
      <trkpt lat="43.59167" lon="2.95649">
        <ele>558.8</ele>
        <time>2026-05-07T08:05:16.999Z</time>
      </trkpt>
      <trkpt lat="43.59167" lon="2.95648">
        <ele>558.3</ele>
        <time>2026-05-07T08:05:17.999Z</time>
      </trkpt>
      <trkpt lat="43.59167" lon="2.95648">
        <ele>558.5</ele>
        <time>2026-05-07T08:05:18.999Z</time>
      </trkpt>
      <trkpt lat="43.59167" lon="2.95648">
        <ele>559.2</ele>
        <time>2026-05-07T08:05:19.999Z</time>
      </trkpt>
      <trkpt lat="43.59167" lon="2.95648">
        <ele>559.3</ele>
        <time>2026-05-07T08:05:20.999Z</time>
      </trkpt>
      <trkpt lat="43.59167" lon="2.95648">
        <ele>559.6</ele>
        <time>2026-05-07T08:05:21.999Z</time>
      </trkpt>
      <trkpt lat="43.59168" lon="2.9565">
        <ele>560.1</ele>
        <time>2026-05-07T08:05:22.999Z</time>
      </trkpt>
      <trkpt lat="43.59169" lon="2.95651">
        <ele>559.7</ele>
        <time>2026-05-07T08:05:23.999Z</time>
      </trkpt>
      <trkpt lat="43.59169" lon="2.95651">
        <ele>559.6</ele>
        <time>2026-05-07T08:05:24.999Z</time>
      </trkpt>
      <trkpt lat="43.5917" lon="2.95651">
        <ele>559.3</ele>
        <time>2026-05-07T08:05:25.999Z</time>
      </trkpt>
      <trkpt lat="43.5917" lon="2.95651">
        <ele>559.5</ele>
        <time>2026-05-07T08:05:26.999Z</time>
      </trkpt>
      <trkpt lat="43.59169" lon="2.95651">
        <ele>559.8</ele>
        <time>2026-05-07T08:05:27.999Z</time>
      </trkpt>
      <trkpt lat="43.59169" lon="2.95651">
        <ele>560.2</ele>
        <time>2026-05-07T08:05:28.999Z</time>
      </trkpt>
      <trkpt lat="43.59169" lon="2.95651">
        <ele>560.8</ele>
        <time>2026-05-07T08:05:29.999Z</time>
      </trkpt>
      <trkpt lat="43.59168" lon="2.95652">
        <ele>561.5</ele>
        <time>2026-05-07T08:05:30.999Z</time>
      </trkpt>
      <trkpt lat="43.59169" lon="2.95652">
        <ele>561.8</ele>
        <time>2026-05-07T08:05:31.999Z</time>
      </trkpt>
      <trkpt lat="43.59169" lon="2.95652">
        <ele>562</ele>
        <time>2026-05-07T08:05:32.999Z</time>
      </trkpt>
      <trkpt lat="43.59169" lon="2.95652">
        <ele>561.9</ele>
        <time>2026-05-07T08:05:33.999Z</time>
      </trkpt>
      <trkpt lat="43.59169" lon="2.95652">
        <ele>562</ele>
        <time>2026-05-07T08:05:34.999Z</time>
      </trkpt>
      <trkpt lat="43.5917" lon="2.95652">
        <ele>561.9</ele>
        <time>2026-05-07T08:05:35.999Z</time>
      </trkpt>
      <trkpt lat="43.5917" lon="2.95652">
        <ele>561.8</ele>
        <time>2026-05-07T08:05:36.999Z</time>
      </trkpt>
      <trkpt lat="43.5917" lon="2.95652">
        <ele>561.9</ele>
        <time>2026-05-07T08:05:37.999Z</time>
      </trkpt>
      <trkpt lat="43.5917" lon="2.95652">
        <ele>561.7</ele>
        <time>2026-05-07T08:05:39.999Z</time>
      </trkpt>
      <trkpt lat="43.5917" lon="2.95652">
        <ele>561.8</ele>
        <time>2026-05-07T08:05:40.999Z</time>
      </trkpt>
      <trkpt lat="43.5917" lon="2.95652">
        <ele>562.2</ele>
        <time>2026-05-07T08:05:41.999Z</time>
      </trkpt>
      <trkpt lat="43.5917" lon="2.95652">
        <ele>562.3</ele>
        <time>2026-05-07T08:05:42.999Z</time>
      </trkpt>
      <trkpt lat="43.5917" lon="2.95651">
        <ele>562.7</ele>
        <time>2026-05-07T08:05:43.999Z</time>
      </trkpt>
      <trkpt lat="43.59172" lon="2.9565">
        <ele>563.4</ele>
        <time>2026-05-07T08:05:44.999Z</time>
      </trkpt>
      <trkpt lat="43.59174" lon="2.95648">
        <ele>564.2</ele>
        <time>2026-05-07T08:05:45.999Z</time>
      </trkpt>
      <trkpt lat="43.59174" lon="2.95647">
        <ele>564.3</ele>
        <time>2026-05-07T08:05:46.999Z</time>
      </trkpt>
      <trkpt lat="43.59174" lon="2.95647">
        <ele>564.7</ele>
        <time>2026-05-07T08:05:47.999Z</time>
      </trkpt>
      <trkpt lat="43.59174" lon="2.95646">
        <ele>565.1</ele>
        <time>2026-05-07T08:05:48.999Z</time>
      </trkpt>
      <trkpt lat="43.59174" lon="2.95646">
        <ele>565</ele>
        <time>2026-05-07T08:05:49.999Z</time>
      </trkpt>
      <trkpt lat="43.59174" lon="2.95645">
        <ele>565.3</ele>
        <time>2026-05-07T08:05:50.999Z</time>
      </trkpt>
      <trkpt lat="43.59174" lon="2.95644">
        <ele>565.4</ele>
        <time>2026-05-07T08:05:51.999Z</time>
      </trkpt>
      <trkpt lat="43.59174" lon="2.95644">
        <ele>565.2</ele>
        <time>2026-05-07T08:05:52.999Z</time>
      </trkpt>
      <trkpt lat="43.59174" lon="2.95644">
        <ele>565.4</ele>
        <time>2026-05-07T08:05:53.999Z</time>
      </trkpt>
      <trkpt lat="43.59174" lon="2.95644">
        <ele>565.5</ele>
        <time>2026-05-07T08:05:54.999Z</time>
      </trkpt>
      <trkpt lat="43.59174" lon="2.95643">
        <ele>565.1</ele>
        <time>2026-05-07T08:05:56.999Z</time>
      </trkpt>
      <trkpt lat="43.59173" lon="2.95644">
        <ele>564.8</ele>
        <time>2026-05-07T08:05:57.999Z</time>
      </trkpt>
      <trkpt lat="43.59173" lon="2.95644">
        <ele>565.1</ele>
        <time>2026-05-07T08:05:58.999Z</time>
      </trkpt>
      <trkpt lat="43.59172" lon="2.95644">
        <ele>565.7</ele>
        <time>2026-05-07T08:05:59.999Z</time>
      </trkpt>
      <trkpt lat="43.59172" lon="2.95644">
        <ele>566.2</ele>
        <time>2026-05-07T08:06:00.999Z</time>
      </trkpt>
      <trkpt lat="43.59172" lon="2.95644">
        <ele>566.6</ele>
        <time>2026-05-07T08:06:01.999Z</time>
      </trkpt>
      <trkpt lat="43.59173" lon="2.95644">
        <ele>566.7</ele>
        <time>2026-05-07T08:06:02.999Z</time>
      </trkpt>
      <trkpt lat="43.59172" lon="2.95644">
        <ele>566.7</ele>
        <time>2026-05-07T08:06:03.999Z</time>
      </trkpt>
      <trkpt lat="43.59172" lon="2.95645">
        <ele>566.8</ele>
        <time>2026-05-07T08:06:04.999Z</time>
      </trkpt>
      <trkpt lat="43.59172" lon="2.95645">
        <ele>567.1</ele>
        <time>2026-05-07T08:06:05.999Z</time>
      </trkpt>
      <trkpt lat="43.59172" lon="2.95644">
        <ele>567.7</ele>
        <time>2026-05-07T08:06:06.999Z</time>
      </trkpt>
      <trkpt lat="43.59172" lon="2.95643">
        <ele>568</ele>
        <time>2026-05-07T08:06:07.999Z</time>
      </trkpt>
      <trkpt lat="43.59172" lon="2.95643">
        <ele>568.2</ele>
        <time>2026-05-07T08:06:08.999Z</time>
      </trkpt>
      <trkpt lat="43.59172" lon="2.95645">
        <ele>568.7</ele>
        <time>2026-05-07T08:06:09.999Z</time>
      </trkpt>
      <trkpt lat="43.59172" lon="2.95646">
        <ele>569.4</ele>
        <time>2026-05-07T08:06:10.999Z</time>
      </trkpt>
      <trkpt lat="43.59172" lon="2.95646">
        <ele>569.9</ele>
        <time>2026-05-07T08:06:11.999Z</time>
      </trkpt>
      <trkpt lat="43.59172" lon="2.95646">
        <ele>570.1</ele>
        <time>2026-05-07T08:06:12.999Z</time>
      </trkpt>
      <trkpt lat="43.59172" lon="2.95646">
        <ele>570.4</ele>
        <time>2026-05-07T08:06:13.999Z</time>
      </trkpt>
      <trkpt lat="43.59172" lon="2.95646">
        <ele>570.6</ele>
        <time>2026-05-07T08:06:15.999Z</time>
      </trkpt>
      <trkpt lat="43.59172" lon="2.95646">
        <ele>570.9</ele>
        <time>2026-05-07T08:06:16.999Z</time>
      </trkpt>
      <trkpt lat="43.59172" lon="2.95646">
        <ele>571.4</ele>
        <time>2026-05-07T08:06:17.999Z</time>
      </trkpt>
      <trkpt lat="43.59172" lon="2.95647">
        <ele>571.7</ele>
        <time>2026-05-07T08:06:18.999Z</time>
      </trkpt>
      <trkpt lat="43.59172" lon="2.95648">
        <ele>572.2</ele>
        <time>2026-05-07T08:06:19.999Z</time>
      </trkpt>
      <trkpt lat="43.59172" lon="2.95648">
        <ele>572.3</ele>
        <time>2026-05-07T08:06:20.999Z</time>
      </trkpt>
      <trkpt lat="43.59172" lon="2.95648">
        <ele>572.7</ele>
        <time>2026-05-07T08:06:21.999Z</time>
      </trkpt>
      <trkpt lat="43.59172" lon="2.95648">
        <ele>572.9</ele>
        <time>2026-05-07T08:06:22.999Z</time>
      </trkpt>
      <trkpt lat="43.59172" lon="2.95648">
        <ele>572.6</ele>
        <time>2026-05-07T08:06:23.999Z</time>
      </trkpt>
      <trkpt lat="43.59172" lon="2.95648">
        <ele>572.5</ele>
        <time>2026-05-07T08:06:24.999Z</time>
      </trkpt>
      <trkpt lat="43.59172" lon="2.95648">
        <ele>572.6</ele>
        <time>2026-05-07T08:06:25.999Z</time>
      </trkpt>
      <trkpt lat="43.59172" lon="2.95648">
        <ele>572.5</ele>
        <time>2026-05-07T08:06:26.999Z</time>
      </trkpt>
      <trkpt lat="43.59172" lon="2.95648">
        <ele>572.5</ele>
        <time>2026-05-07T08:06:27.999Z</time>
      </trkpt>
      <trkpt lat="43.59172" lon="2.95648">
        <ele>572.6</ele>
        <time>2026-05-07T08:06:28.999Z</time>
      </trkpt>
      <trkpt lat="43.59172" lon="2.95648">
        <ele>572.5</ele>
        <time>2026-05-07T08:06:29.999Z</time>
      </trkpt>
      <trkpt lat="43.59173" lon="2.95649">
        <ele>572.6</ele>
        <time>2026-05-07T08:06:30.999Z</time>
      </trkpt>
      <trkpt lat="43.59173" lon="2.9565">
        <ele>572.6</ele>
        <time>2026-05-07T08:06:31.999Z</time>
      </trkpt>
      <trkpt lat="43.59173" lon="2.9565">
        <ele>572.9</ele>
        <time>2026-05-07T08:06:32.999Z</time>
      </trkpt>
      <trkpt lat="43.59172" lon="2.9565">
        <ele>572.8</ele>
        <time>2026-05-07T08:06:33.999Z</time>
      </trkpt>
      <trkpt lat="43.59172" lon="2.9565">
        <ele>572.6</ele>
        <time>2026-05-07T08:06:34.999Z</time>
      </trkpt>
      <trkpt lat="43.59172" lon="2.9565">
        <ele>573</ele>
        <time>2026-05-07T08:06:35.999Z</time>
      </trkpt>
      <trkpt lat="43.59172" lon="2.95649">
        <ele>573.5</ele>
        <time>2026-05-07T08:06:36.999Z</time>
      </trkpt>
      <trkpt lat="43.59172" lon="2.95649">
        <ele>573.7</ele>
        <time>2026-05-07T08:06:37.999Z</time>
      </trkpt>
      <trkpt lat="43.59172" lon="2.95649">
        <ele>574.1</ele>
        <time>2026-05-07T08:06:38.999Z</time>
      </trkpt>
      <trkpt lat="43.59172" lon="2.95648">
        <ele>574.7</ele>
        <time>2026-05-07T08:06:39.999Z</time>
      </trkpt>
      <trkpt lat="43.59173" lon="2.95648">
        <ele>574.7</ele>
        <time>2026-05-07T08:06:40.999Z</time>
      </trkpt>
      <trkpt lat="43.59173" lon="2.95647">
        <ele>574.8</ele>
        <time>2026-05-07T08:06:41.999Z</time>
      </trkpt>
      <trkpt lat="43.59173" lon="2.95646">
        <ele>575.1</ele>
        <time>2026-05-07T08:06:42.999Z</time>
      </trkpt>
      <trkpt lat="43.59175" lon="2.95646">
        <ele>575.5</ele>
        <time>2026-05-07T08:06:43.999Z</time>
      </trkpt>
      <trkpt lat="43.59176" lon="2.95646">
        <ele>575.9</ele>
        <time>2026-05-07T08:06:44.999Z</time>
      </trkpt>
      <trkpt lat="43.59177" lon="2.95647">
        <ele>576.4</ele>
        <time>2026-05-07T08:06:45.999Z</time>
      </trkpt>
      <trkpt lat="43.59178" lon="2.95647">
        <ele>577.1</ele>
        <time>2026-05-07T08:06:46.999Z</time>
      </trkpt>
      <trkpt lat="43.59178" lon="2.95648">
        <ele>577.6</ele>
        <time>2026-05-07T08:06:47.999Z</time>
      </trkpt>
      <trkpt lat="43.59178" lon="2.95648">
        <ele>577.9</ele>
        <time>2026-05-07T08:06:48.999Z</time>
      </trkpt>
      <trkpt lat="43.59178" lon="2.95648">
        <ele>578.2</ele>
        <time>2026-05-07T08:06:49.999Z</time>
      </trkpt>
      <trkpt lat="43.59179" lon="2.95648">
        <ele>578.8</ele>
        <time>2026-05-07T08:06:50.999Z</time>
      </trkpt>
      <trkpt lat="43.59179" lon="2.95648">
        <ele>578.8</ele>
        <time>2026-05-07T08:06:51.999Z</time>
      </trkpt>
      <trkpt lat="43.59179" lon="2.95648">
        <ele>578.7</ele>
        <time>2026-05-07T08:06:52.999Z</time>
      </trkpt>
      <trkpt lat="43.5918" lon="2.95648">
        <ele>578.9</ele>
        <time>2026-05-07T08:06:53.999Z</time>
      </trkpt>
      <trkpt lat="43.5918" lon="2.95649">
        <ele>579.1</ele>
        <time>2026-05-07T08:06:54.999Z</time>
      </trkpt>
      <trkpt lat="43.5918" lon="2.95649">
        <ele>579.1</ele>
        <time>2026-05-07T08:06:55.999Z</time>
      </trkpt>
      <trkpt lat="43.5918" lon="2.95649">
        <ele>579.3</ele>
        <time>2026-05-07T08:06:56.999Z</time>
      </trkpt>
      <trkpt lat="43.5918" lon="2.9565">
        <ele>579.8</ele>
        <time>2026-05-07T08:06:57.999Z</time>
      </trkpt>
      <trkpt lat="43.5918" lon="2.9565">
        <ele>580</ele>
        <time>2026-05-07T08:06:58.999Z</time>
      </trkpt>
      <trkpt lat="43.5918" lon="2.95649">
        <ele>580.1</ele>
        <time>2026-05-07T08:06:59.999Z</time>
      </trkpt>
      <trkpt lat="43.59181" lon="2.95649">
        <ele>580.3</ele>
        <time>2026-05-07T08:07:00.999Z</time>
      </trkpt>
      <trkpt lat="43.59181" lon="2.95648">
        <ele>580.6</ele>
        <time>2026-05-07T08:07:01.999Z</time>
      </trkpt>
      <trkpt lat="43.59181" lon="2.95648">
        <ele>580.7</ele>
        <time>2026-05-07T08:07:02.999Z</time>
      </trkpt>
      <trkpt lat="43.59181" lon="2.95646">
        <ele>580.7</ele>
        <time>2026-05-07T08:07:03.999Z</time>
      </trkpt>
      <trkpt lat="43.59182" lon="2.95645">
        <ele>580.8</ele>
        <time>2026-05-07T08:07:04.999Z</time>
      </trkpt>
      <trkpt lat="43.59182" lon="2.95643">
        <ele>580.3</ele>
        <time>2026-05-07T08:07:06.999Z</time>
      </trkpt>
      <trkpt lat="43.59183" lon="2.95643">
        <ele>580.2</ele>
        <time>2026-05-07T08:07:07.999Z</time>
      </trkpt>
      <trkpt lat="43.59183" lon="2.95643">
        <ele>580</ele>
        <time>2026-05-07T08:07:08.999Z</time>
      </trkpt>
      <trkpt lat="43.59183" lon="2.95643">
        <ele>579.8</ele>
        <time>2026-05-07T08:07:09.999Z</time>
      </trkpt>
      <trkpt lat="43.59182" lon="2.95643">
        <ele>579.2</ele>
        <time>2026-05-07T08:07:10.999Z</time>
      </trkpt>
      <trkpt lat="43.59182" lon="2.95642">
        <ele>578.4</ele>
        <time>2026-05-07T08:07:11.999Z</time>
      </trkpt>
      <trkpt lat="43.59182" lon="2.95641">
        <ele>577.9</ele>
        <time>2026-05-07T08:07:12.999Z</time>
      </trkpt>
      <trkpt lat="43.59182" lon="2.95641">
        <ele>577.6</ele>
        <time>2026-05-07T08:07:13.999Z</time>
      </trkpt>
      <trkpt lat="43.59182" lon="2.9564">
        <ele>577.1</ele>
        <time>2026-05-07T08:07:15.999Z</time>
      </trkpt>
      <trkpt lat="43.59182" lon="2.9564">
        <ele>576.7</ele>
        <time>2026-05-07T08:07:16.999Z</time>
      </trkpt>
      <trkpt lat="43.59182" lon="2.9564">
        <ele>577.4</ele>
        <time>2026-05-07T08:07:17.999Z</time>
      </trkpt>
      <trkpt lat="43.59182" lon="2.9564">
        <ele>577.4</ele>
        <time>2026-05-07T08:07:18.999Z</time>
      </trkpt>
      <trkpt lat="43.59182" lon="2.9564">
        <ele>577.4</ele>
        <time>2026-05-07T08:07:19.999Z</time>
      </trkpt>
      <trkpt lat="43.59182" lon="2.9564">
        <ele>577.5</ele>
        <time>2026-05-07T08:07:20.999Z</time>
      </trkpt>
      <trkpt lat="43.59182" lon="2.9564">
        <ele>577.8</ele>
        <time>2026-05-07T08:07:21.999Z</time>
      </trkpt>
      <trkpt lat="43.59182" lon="2.9564">
        <ele>578</ele>
        <time>2026-05-07T08:07:22.999Z</time>
      </trkpt>
      <trkpt lat="43.59182" lon="2.95641">
        <ele>578.5</ele>
        <time>2026-05-07T08:07:23.999Z</time>
      </trkpt>
      <trkpt lat="43.59182" lon="2.95641">
        <ele>578.8</ele>
        <time>2026-05-07T08:07:24.999Z</time>
      </trkpt>
      <trkpt lat="43.59183" lon="2.95642">
        <ele>578.8</ele>
        <time>2026-05-07T08:07:25.999Z</time>
      </trkpt>
      <trkpt lat="43.59183" lon="2.95642">
        <ele>579</ele>
        <time>2026-05-07T08:07:26.999Z</time>
      </trkpt>
      <trkpt lat="43.59183" lon="2.95642">
        <ele>579.2</ele>
        <time>2026-05-07T08:07:28.999Z</time>
      </trkpt>
      <trkpt lat="43.59183" lon="2.95643">
        <ele>579.1</ele>
        <time>2026-05-07T08:07:29.999Z</time>
      </trkpt>
      <trkpt lat="43.59183" lon="2.95643">
        <ele>578.9</ele>
        <time>2026-05-07T08:07:30.999Z</time>
      </trkpt>
      <trkpt lat="43.59183" lon="2.95643">
        <ele>578.9</ele>
        <time>2026-05-07T08:07:31.999Z</time>
      </trkpt>
      <trkpt lat="43.59183" lon="2.95643">
        <ele>579.1</ele>
        <time>2026-05-07T08:07:32.999Z</time>
      </trkpt>
      <trkpt lat="43.59183" lon="2.95643">
        <ele>579.3</ele>
        <time>2026-05-07T08:07:33.999Z</time>
      </trkpt>
      <trkpt lat="43.59183" lon="2.95642">
        <ele>579.6</ele>
        <time>2026-05-07T08:07:34.999Z</time>
      </trkpt>
      <trkpt lat="43.59183" lon="2.95642">
        <ele>579.2</ele>
        <time>2026-05-07T08:07:35.999Z</time>
      </trkpt>
      <trkpt lat="43.59183" lon="2.95642">
        <ele>578.7</ele>
        <time>2026-05-07T08:07:36.999Z</time>
      </trkpt>
      <trkpt lat="43.59183" lon="2.95642">
        <ele>577.8</ele>
        <time>2026-05-07T08:07:38.999Z</time>
      </trkpt>
      <trkpt lat="43.59183" lon="2.95642">
        <ele>577.8</ele>
        <time>2026-05-07T08:07:39.999Z</time>
      </trkpt>
      <trkpt lat="43.59183" lon="2.95642">
        <ele>577.7</ele>
        <time>2026-05-07T08:07:40.999Z</time>
      </trkpt>
      <trkpt lat="43.59183" lon="2.95642">
        <ele>577.7</ele>
        <time>2026-05-07T08:07:41.999Z</time>
      </trkpt>
      <trkpt lat="43.59183" lon="2.95642">
        <ele>578</ele>
        <time>2026-05-07T08:07:42.999Z</time>
      </trkpt>
      <trkpt lat="43.59183" lon="2.95642">
        <ele>578.2</ele>
        <time>2026-05-07T08:07:43.999Z</time>
      </trkpt>
      <trkpt lat="43.59183" lon="2.95641">
        <ele>578.3</ele>
        <time>2026-05-07T08:07:44.999Z</time>
      </trkpt>
      <trkpt lat="43.59183" lon="2.95641">
        <ele>578.5</ele>
        <time>2026-05-07T08:07:45.999Z</time>
      </trkpt>
      <trkpt lat="43.59183" lon="2.95641">
        <ele>578.7</ele>
        <time>2026-05-07T08:07:46.999Z</time>
      </trkpt>
      <trkpt lat="43.59184" lon="2.95638">
        <ele>578.5</ele>
        <time>2026-05-07T08:07:48.999Z</time>
      </trkpt>
      <trkpt lat="43.59185" lon="2.95637">
        <ele>578.6</ele>
        <time>2026-05-07T08:07:49.999Z</time>
      </trkpt>
      <trkpt lat="43.59184" lon="2.95637">
        <ele>578.6</ele>
        <time>2026-05-07T08:07:50.999Z</time>
      </trkpt>
      <trkpt lat="43.59183" lon="2.95636">
        <ele>578.9</ele>
        <time>2026-05-07T08:07:51.999Z</time>
      </trkpt>
      <trkpt lat="43.59183" lon="2.95635">
        <ele>579.1</ele>
        <time>2026-05-07T08:07:52.999Z</time>
      </trkpt>
      <trkpt lat="43.59183" lon="2.95635">
        <ele>579.2</ele>
        <time>2026-05-07T08:07:53.999Z</time>
      </trkpt>
      <trkpt lat="43.59183" lon="2.95634">
        <ele>579.1</ele>
        <time>2026-05-07T08:07:54.999Z</time>
      </trkpt>
      <trkpt lat="43.59183" lon="2.95633">
        <ele>579.3</ele>
        <time>2026-05-07T08:07:55.999Z</time>
      </trkpt>
      <trkpt lat="43.59183" lon="2.95633">
        <ele>579.7</ele>
        <time>2026-05-07T08:07:56.999Z</time>
      </trkpt>
      <trkpt lat="43.59182" lon="2.95633">
        <ele>580.1</ele>
        <time>2026-05-07T08:07:57.999Z</time>
      </trkpt>
      <trkpt lat="43.59183" lon="2.95634">
        <ele>580.2</ele>
        <time>2026-05-07T08:07:58.999Z</time>
      </trkpt>
      <trkpt lat="43.59183" lon="2.95633">
        <ele>580.3</ele>
        <time>2026-05-07T08:07:59.999Z</time>
      </trkpt>
      <trkpt lat="43.59183" lon="2.95633">
        <ele>580.2</ele>
        <time>2026-05-07T08:08:00.999Z</time>
      </trkpt>
      <trkpt lat="43.59183" lon="2.95634">
        <ele>579.9</ele>
        <time>2026-05-07T08:08:01.999Z</time>
      </trkpt>
      <trkpt lat="43.59183" lon="2.95634">
        <ele>579.8</ele>
        <time>2026-05-07T08:08:02.999Z</time>
      </trkpt>
      <trkpt lat="43.59183" lon="2.95634">
        <ele>579.9</ele>
        <time>2026-05-07T08:08:03.999Z</time>
      </trkpt>
      <trkpt lat="43.59183" lon="2.95633">
        <ele>579.8</ele>
        <time>2026-05-07T08:08:04.999Z</time>
      </trkpt>
      <trkpt lat="43.59184" lon="2.95634">
        <ele>580</ele>
        <time>2026-05-07T08:08:06.999Z</time>
      </trkpt>
      <trkpt lat="43.59184" lon="2.95633">
        <ele>580.1</ele>
        <time>2026-05-07T08:08:07.999Z</time>
      </trkpt>
      <trkpt lat="43.59183" lon="2.95632">
        <ele>580.2</ele>
        <time>2026-05-07T08:08:08.999Z</time>
      </trkpt>
      <trkpt lat="43.59183" lon="2.95631">
        <ele>580.1</ele>
        <time>2026-05-07T08:08:09.999Z</time>
      </trkpt>
      <trkpt lat="43.59183" lon="2.95631">
        <ele>580.1</ele>
        <time>2026-05-07T08:08:10.999Z</time>
      </trkpt>
      <trkpt lat="43.59182" lon="2.95631">
        <ele>580</ele>
        <time>2026-05-07T08:08:11.999Z</time>
      </trkpt>
      <trkpt lat="43.59182" lon="2.95631">
        <ele>580</ele>
        <time>2026-05-07T08:08:12.999Z</time>
      </trkpt>
      <trkpt lat="43.59182" lon="2.95629">
        <ele>580.2</ele>
        <time>2026-05-07T08:08:13.999Z</time>
      </trkpt>
      <trkpt lat="43.59182" lon="2.95629">
        <ele>580.3</ele>
        <time>2026-05-07T08:08:14.999Z</time>
      </trkpt>
      <trkpt lat="43.59183" lon="2.95629">
        <ele>580.5</ele>
        <time>2026-05-07T08:08:15.999Z</time>
      </trkpt>
      <trkpt lat="43.59183" lon="2.95629">
        <ele>580.7</ele>
        <time>2026-05-07T08:08:16.999Z</time>
      </trkpt>
      <trkpt lat="43.59183" lon="2.9563">
        <ele>581.3</ele>
        <time>2026-05-07T08:08:17.999Z</time>
      </trkpt>
      <trkpt lat="43.59182" lon="2.95631">
        <ele>581.1</ele>
        <time>2026-05-07T08:08:18.999Z</time>
      </trkpt>
      <trkpt lat="43.59182" lon="2.95631">
        <ele>581.4</ele>
        <time>2026-05-07T08:08:19.999Z</time>
      </trkpt>
      <trkpt lat="43.59182" lon="2.95631">
        <ele>581.4</ele>
        <time>2026-05-07T08:08:20.999Z</time>
      </trkpt>
      <trkpt lat="43.59182" lon="2.95631">
        <ele>581.6</ele>
        <time>2026-05-07T08:08:21.999Z</time>
      </trkpt>
      <trkpt lat="43.59182" lon="2.95631">
        <ele>581.7</ele>
        <time>2026-05-07T08:08:22.999Z</time>
      </trkpt>
      <trkpt lat="43.59182" lon="2.95631">
        <ele>582.1</ele>
        <time>2026-05-07T08:08:23.999Z</time>
      </trkpt>
      <trkpt lat="43.59182" lon="2.95631">
        <ele>582.4</ele>
        <time>2026-05-07T08:08:24.999Z</time>
      </trkpt>
      <trkpt lat="43.59182" lon="2.95631">
        <ele>582.6</ele>
        <time>2026-05-07T08:08:25.999Z</time>
      </trkpt>
      <trkpt lat="43.59183" lon="2.95632">
        <ele>582.8</ele>
        <time>2026-05-07T08:08:26.999Z</time>
      </trkpt>
      <trkpt lat="43.59183" lon="2.95632">
        <ele>583</ele>
        <time>2026-05-07T08:08:27.999Z</time>
      </trkpt>
      <trkpt lat="43.59183" lon="2.95632">
        <ele>583.3</ele>
        <time>2026-05-07T08:08:28.999Z</time>
      </trkpt>
      <trkpt lat="43.59183" lon="2.95633">
        <ele>583.4</ele>
        <time>2026-05-07T08:08:29.999Z</time>
      </trkpt>
      <trkpt lat="43.59183" lon="2.95635">
        <ele>583.2</ele>
        <time>2026-05-07T08:08:30.999Z</time>
      </trkpt>
      <trkpt lat="43.59183" lon="2.95636">
        <ele>583.3</ele>
        <time>2026-05-07T08:08:31.999Z</time>
      </trkpt>
      <trkpt lat="43.59182" lon="2.95636">
        <ele>583.3</ele>
        <time>2026-05-07T08:08:33.999Z</time>
      </trkpt>
      <trkpt lat="43.59182" lon="2.95636">
        <ele>583.4</ele>
        <time>2026-05-07T08:08:34.999Z</time>
      </trkpt>
      <trkpt lat="43.59182" lon="2.95636">
        <ele>583.5</ele>
        <time>2026-05-07T08:08:35.999Z</time>
      </trkpt>
      <trkpt lat="43.59182" lon="2.95637">
        <ele>583.7</ele>
        <time>2026-05-07T08:08:36.999Z</time>
      </trkpt>
      <trkpt lat="43.59182" lon="2.95636">
        <ele>583.8</ele>
        <time>2026-05-07T08:08:37.999Z</time>
      </trkpt>
      <trkpt lat="43.59181" lon="2.95636">
        <ele>583.8</ele>
        <time>2026-05-07T08:08:38.999Z</time>
      </trkpt>
      <trkpt lat="43.59181" lon="2.95637">
        <ele>583.9</ele>
        <time>2026-05-07T08:08:39.999Z</time>
      </trkpt>
      <trkpt lat="43.59181" lon="2.95637">
        <ele>583.9</ele>
        <time>2026-05-07T08:08:40.999Z</time>
      </trkpt>
      <trkpt lat="43.59182" lon="2.95637">
        <ele>583.9</ele>
        <time>2026-05-07T08:08:41.999Z</time>
      </trkpt>
      <trkpt lat="43.59182" lon="2.95637">
        <ele>584.3</ele>
        <time>2026-05-07T08:08:42.999Z</time>
      </trkpt>
      <trkpt lat="43.59181" lon="2.95637">
        <ele>584.7</ele>
        <time>2026-05-07T08:08:43.999Z</time>
      </trkpt>
      <trkpt lat="43.59182" lon="2.95635">
        <ele>586.4</ele>
        <time>2026-05-07T08:08:45.999Z</time>
      </trkpt>
      <trkpt lat="43.59182" lon="2.95635">
        <ele>586.7</ele>
        <time>2026-05-07T08:08:46.999Z</time>
      </trkpt>
      <trkpt lat="43.59182" lon="2.95635">
        <ele>585.9</ele>
        <time>2026-05-07T08:08:47.999Z</time>
      </trkpt>
      <trkpt lat="43.59183" lon="2.95635">
        <ele>586.3</ele>
        <time>2026-05-07T08:08:48.999Z</time>
      </trkpt>
      <trkpt lat="43.59184" lon="2.95636">
        <ele>586.3</ele>
        <time>2026-05-07T08:08:49.999Z</time>
      </trkpt>
      <trkpt lat="43.59185" lon="2.95635">
        <ele>586.8</ele>
        <time>2026-05-07T08:08:50.999Z</time>
      </trkpt>
      <trkpt lat="43.59185" lon="2.95635">
        <ele>587.2</ele>
        <time>2026-05-07T08:08:51.999Z</time>
      </trkpt>
      <trkpt lat="43.59185" lon="2.95635">
        <ele>587.6</ele>
        <time>2026-05-07T08:08:52.999Z</time>
      </trkpt>
      <trkpt lat="43.59185" lon="2.95635">
        <ele>587.7</ele>
        <time>2026-05-07T08:08:53.999Z</time>
      </trkpt>
      <trkpt lat="43.59185" lon="2.95635">
        <ele>587.8</ele>
        <time>2026-05-07T08:08:54.999Z</time>
      </trkpt>
      <trkpt lat="43.59185" lon="2.95634">
        <ele>587.8</ele>
        <time>2026-05-07T08:08:55.999Z</time>
      </trkpt>
      <trkpt lat="43.59186" lon="2.95634">
        <ele>587.6</ele>
        <time>2026-05-07T08:08:56.999Z</time>
      </trkpt>
      <trkpt lat="43.59185" lon="2.95634">
        <ele>587.5</ele>
        <time>2026-05-07T08:08:57.999Z</time>
      </trkpt>
      <trkpt lat="43.59186" lon="2.95635">
        <ele>587.2</ele>
        <time>2026-05-07T08:08:58.999Z</time>
      </trkpt>
      <trkpt lat="43.59187" lon="2.95635">
        <ele>586.9</ele>
        <time>2026-05-07T08:08:59.999Z</time>
      </trkpt>
      <trkpt lat="43.59189" lon="2.95635">
        <ele>586.8</ele>
        <time>2026-05-07T08:09:00.999Z</time>
      </trkpt>
      <trkpt lat="43.59189" lon="2.95635">
        <ele>586.8</ele>
        <time>2026-05-07T08:09:01.999Z</time>
      </trkpt>
      <trkpt lat="43.59189" lon="2.95633">
        <ele>587.3</ele>
        <time>2026-05-07T08:09:02.999Z</time>
      </trkpt>
      <trkpt lat="43.59189" lon="2.95633">
        <ele>588</ele>
        <time>2026-05-07T08:09:03.999Z</time>
      </trkpt>
      <trkpt lat="43.59189" lon="2.95635">
        <ele>587.8</ele>
        <time>2026-05-07T08:09:04.999Z</time>
      </trkpt>
      <trkpt lat="43.59189" lon="2.95636">
        <ele>587.8</ele>
        <time>2026-05-07T08:09:05.999Z</time>
      </trkpt>
      <trkpt lat="43.59191" lon="2.95637">
        <ele>587.4</ele>
        <time>2026-05-07T08:09:06.999Z</time>
      </trkpt>
      <trkpt lat="43.59191" lon="2.95637">
        <ele>587.5</ele>
        <time>2026-05-07T08:09:07.999Z</time>
      </trkpt>
      <trkpt lat="43.59191" lon="2.95637">
        <ele>587.6</ele>
        <time>2026-05-07T08:09:08.999Z</time>
      </trkpt>
      <trkpt lat="43.59191" lon="2.95637">
        <ele>587.8</ele>
        <time>2026-05-07T08:09:09.999Z</time>
      </trkpt>
      <trkpt lat="43.59192" lon="2.95636">
        <ele>588</ele>
        <time>2026-05-07T08:09:10.999Z</time>
      </trkpt>
      <trkpt lat="43.59192" lon="2.95635">
        <ele>588.4</ele>
        <time>2026-05-07T08:09:11.999Z</time>
      </trkpt>
      <trkpt lat="43.59193" lon="2.95635">
        <ele>588.4</ele>
        <time>2026-05-07T08:09:12.999Z</time>
      </trkpt>
      <trkpt lat="43.59193" lon="2.95635">
        <ele>588.5</ele>
        <time>2026-05-07T08:09:13.999Z</time>
      </trkpt>
      <trkpt lat="43.59195" lon="2.95635">
        <ele>588.4</ele>
        <time>2026-05-07T08:09:15.999Z</time>
      </trkpt>
      <trkpt lat="43.59194" lon="2.95634">
        <ele>589</ele>
        <time>2026-05-07T08:09:16.999Z</time>
      </trkpt>
      <trkpt lat="43.59195" lon="2.95635">
        <ele>589.2</ele>
        <time>2026-05-07T08:09:17.999Z</time>
      </trkpt>
      <trkpt lat="43.59195" lon="2.95634">
        <ele>589.6</ele>
        <time>2026-05-07T08:09:18.999Z</time>
      </trkpt>
      <trkpt lat="43.59195" lon="2.95634">
        <ele>589.6</ele>
        <time>2026-05-07T08:09:19.999Z</time>
      </trkpt>
      <trkpt lat="43.59195" lon="2.95634">
        <ele>590</ele>
        <time>2026-05-07T08:09:20.999Z</time>
      </trkpt>
      <trkpt lat="43.59195" lon="2.95634">
        <ele>590.2</ele>
        <time>2026-05-07T08:09:21.999Z</time>
      </trkpt>
      <trkpt lat="43.59195" lon="2.95634">
        <ele>590.1</ele>
        <time>2026-05-07T08:09:22.999Z</time>
      </trkpt>
      <trkpt lat="43.59195" lon="2.95635">
        <ele>590</ele>
        <time>2026-05-07T08:09:23.999Z</time>
      </trkpt>
      <trkpt lat="43.59195" lon="2.95635">
        <ele>590.1</ele>
        <time>2026-05-07T08:09:24.999Z</time>
      </trkpt>
      <trkpt lat="43.59196" lon="2.95632">
        <ele>590.4</ele>
        <time>2026-05-07T08:09:25.999Z</time>
      </trkpt>
      <trkpt lat="43.59196" lon="2.95633">
        <ele>590.4</ele>
        <time>2026-05-07T08:09:26.999Z</time>
      </trkpt>
      <trkpt lat="43.59197" lon="2.95632">
        <ele>590.4</ele>
        <time>2026-05-07T08:09:27.999Z</time>
      </trkpt>
      <trkpt lat="43.59197" lon="2.95632">
        <ele>590.4</ele>
        <time>2026-05-07T08:09:28.999Z</time>
      </trkpt>
      <trkpt lat="43.59197" lon="2.95632">
        <ele>591</ele>
        <time>2026-05-07T08:09:30.999Z</time>
      </trkpt>
      <trkpt lat="43.59197" lon="2.95633">
        <ele>591.4</ele>
        <time>2026-05-07T08:09:31.999Z</time>
      </trkpt>
      <trkpt lat="43.59198" lon="2.95633">
        <ele>591.7</ele>
        <time>2026-05-07T08:09:32.999Z</time>
      </trkpt>
      <trkpt lat="43.59199" lon="2.95634">
        <ele>591.9</ele>
        <time>2026-05-07T08:09:33.999Z</time>
      </trkpt>
      <trkpt lat="43.592" lon="2.95634">
        <ele>592.2</ele>
        <time>2026-05-07T08:09:34.999Z</time>
      </trkpt>
      <trkpt lat="43.59201" lon="2.95635">
        <ele>592.7</ele>
        <time>2026-05-07T08:09:35.999Z</time>
      </trkpt>
      <trkpt lat="43.59201" lon="2.95635">
        <ele>593.2</ele>
        <time>2026-05-07T08:09:36.999Z</time>
      </trkpt>
      <trkpt lat="43.59201" lon="2.95634">
        <ele>593.7</ele>
        <time>2026-05-07T08:09:37.999Z</time>
      </trkpt>
      <trkpt lat="43.59202" lon="2.95633">
        <ele>593.5</ele>
        <time>2026-05-07T08:09:38.999Z</time>
      </trkpt>
      <trkpt lat="43.59202" lon="2.95633">
        <ele>593.5</ele>
        <time>2026-05-07T08:09:39.999Z</time>
      </trkpt>
      <trkpt lat="43.59202" lon="2.95632">
        <ele>593.6</ele>
        <time>2026-05-07T08:09:40.999Z</time>
      </trkpt>
      <trkpt lat="43.59202" lon="2.95633">
        <ele>594</ele>
        <time>2026-05-07T08:09:41.999Z</time>
      </trkpt>
      <trkpt lat="43.59202" lon="2.95633">
        <ele>594.4</ele>
        <time>2026-05-07T08:09:42.999Z</time>
      </trkpt>
      <trkpt lat="43.59201" lon="2.95633">
        <ele>594.8</ele>
        <time>2026-05-07T08:09:43.999Z</time>
      </trkpt>
      <trkpt lat="43.59201" lon="2.95633">
        <ele>594.9</ele>
        <time>2026-05-07T08:09:44.999Z</time>
      </trkpt>
      <trkpt lat="43.59202" lon="2.95632">
        <ele>594.8</ele>
        <time>2026-05-07T08:09:45.999Z</time>
      </trkpt>
      <trkpt lat="43.59202" lon="2.95632">
        <ele>594.6</ele>
        <time>2026-05-07T08:09:46.999Z</time>
      </trkpt>
      <trkpt lat="43.59203" lon="2.95632">
        <ele>594.8</ele>
        <time>2026-05-07T08:09:48.999Z</time>
      </trkpt>
      <trkpt lat="43.59204" lon="2.95631">
        <ele>594.5</ele>
        <time>2026-05-07T08:09:49.999Z</time>
      </trkpt>
      <trkpt lat="43.59204" lon="2.95631">
        <ele>594.1</ele>
        <time>2026-05-07T08:09:50.999Z</time>
      </trkpt>
      <trkpt lat="43.59204" lon="2.95631">
        <ele>594.2</ele>
        <time>2026-05-07T08:09:51.999Z</time>
      </trkpt>
      <trkpt lat="43.59205" lon="2.95632">
        <ele>594.6</ele>
        <time>2026-05-07T08:09:52.999Z</time>
      </trkpt>
      <trkpt lat="43.59205" lon="2.95633">
        <ele>594.8</ele>
        <time>2026-05-07T08:09:53.999Z</time>
      </trkpt>
      <trkpt lat="43.59205" lon="2.95635">
        <ele>594.6</ele>
        <time>2026-05-07T08:09:54.999Z</time>
      </trkpt>
      <trkpt lat="43.59205" lon="2.95635">
        <ele>594.9</ele>
        <time>2026-05-07T08:09:55.999Z</time>
      </trkpt>
      <trkpt lat="43.59205" lon="2.95636">
        <ele>595.1</ele>
        <time>2026-05-07T08:09:56.999Z</time>
      </trkpt>
      <trkpt lat="43.59206" lon="2.95636">
        <ele>594.7</ele>
        <time>2026-05-07T08:09:57.999Z</time>
      </trkpt>
      <trkpt lat="43.59206" lon="2.95636">
        <ele>594.4</ele>
        <time>2026-05-07T08:09:58.999Z</time>
      </trkpt>
      <trkpt lat="43.59206" lon="2.95637">
        <ele>593.6</ele>
        <time>2026-05-07T08:09:59.999Z</time>
      </trkpt>
      <trkpt lat="43.59207" lon="2.95637">
        <ele>593.5</ele>
        <time>2026-05-07T08:10:00.999Z</time>
      </trkpt>
      <trkpt lat="43.59208" lon="2.95637">
        <ele>593.8</ele>
        <time>2026-05-07T08:10:01.999Z</time>
      </trkpt>
      <trkpt lat="43.59208" lon="2.95637">
        <ele>594.1</ele>
        <time>2026-05-07T08:10:02.999Z</time>
      </trkpt>
      <trkpt lat="43.59209" lon="2.95637">
        <ele>594.2</ele>
        <time>2026-05-07T08:10:03.999Z</time>
      </trkpt>
      <trkpt lat="43.5921" lon="2.95637">
        <ele>595</ele>
        <time>2026-05-07T08:10:05.999Z</time>
      </trkpt>
      <trkpt lat="43.59211" lon="2.95636">
        <ele>595</ele>
        <time>2026-05-07T08:10:06.999Z</time>
      </trkpt>
      <trkpt lat="43.59211" lon="2.95635">
        <ele>594.8</ele>
        <time>2026-05-07T08:10:07.999Z</time>
      </trkpt>
      <trkpt lat="43.59211" lon="2.95633">
        <ele>594.4</ele>
        <time>2026-05-07T08:10:08.999Z</time>
      </trkpt>
      <trkpt lat="43.59211" lon="2.95632">
        <ele>594.3</ele>
        <time>2026-05-07T08:10:09.999Z</time>
      </trkpt>
      <trkpt lat="43.59211" lon="2.95632">
        <ele>594.2</ele>
        <time>2026-05-07T08:10:10.999Z</time>
      </trkpt>
      <trkpt lat="43.59211" lon="2.95632">
        <ele>594</ele>
        <time>2026-05-07T08:10:11.999Z</time>
      </trkpt>
      <trkpt lat="43.59211" lon="2.95631">
        <ele>593.9</ele>
        <time>2026-05-07T08:10:12.999Z</time>
      </trkpt>
      <trkpt lat="43.59211" lon="2.95631">
        <ele>593.6</ele>
        <time>2026-05-07T08:10:13.999Z</time>
      </trkpt>
      <trkpt lat="43.59211" lon="2.9563">
        <ele>593.5</ele>
        <time>2026-05-07T08:10:14.999Z</time>
      </trkpt>
      <trkpt lat="43.59211" lon="2.9563">
        <ele>593.5</ele>
        <time>2026-05-07T08:10:15.999Z</time>
      </trkpt>
      <trkpt lat="43.5921" lon="2.9563">
        <ele>593.8</ele>
        <time>2026-05-07T08:10:16.999Z</time>
      </trkpt>
      <trkpt lat="43.59211" lon="2.9563">
        <ele>594</ele>
        <time>2026-05-07T08:10:17.999Z</time>
      </trkpt>
      <trkpt lat="43.59211" lon="2.9563">
        <ele>594.3</ele>
        <time>2026-05-07T08:10:18.999Z</time>
      </trkpt>
      <trkpt lat="43.59211" lon="2.9563">
        <ele>594.6</ele>
        <time>2026-05-07T08:10:19.999Z</time>
      </trkpt>
      <trkpt lat="43.59211" lon="2.95631">
        <ele>595.4</ele>
        <time>2026-05-07T08:10:20.999Z</time>
      </trkpt>
      <trkpt lat="43.59211" lon="2.95631">
        <ele>596.1</ele>
        <time>2026-05-07T08:10:21.999Z</time>
      </trkpt>
      <trkpt lat="43.59211" lon="2.95631">
        <ele>596.1</ele>
        <time>2026-05-07T08:10:22.999Z</time>
      </trkpt>
      <trkpt lat="43.59212" lon="2.9563">
        <ele>595.8</ele>
        <time>2026-05-07T08:10:23.999Z</time>
      </trkpt>
      <trkpt lat="43.59213" lon="2.9563">
        <ele>595.8</ele>
        <time>2026-05-07T08:10:24.999Z</time>
      </trkpt>
      <trkpt lat="43.59213" lon="2.9563">
        <ele>595.9</ele>
        <time>2026-05-07T08:10:25.999Z</time>
      </trkpt>
      <trkpt lat="43.59214" lon="2.95631">
        <ele>596.3</ele>
        <time>2026-05-07T08:10:26.999Z</time>
      </trkpt>
      <trkpt lat="43.59215" lon="2.95632">
        <ele>596.5</ele>
        <time>2026-05-07T08:10:27.999Z</time>
      </trkpt>
      <trkpt lat="43.59214" lon="2.95633">
        <ele>596.7</ele>
        <time>2026-05-07T08:10:28.999Z</time>
      </trkpt>
      <trkpt lat="43.59215" lon="2.95633">
        <ele>597.6</ele>
        <time>2026-05-07T08:10:29.999Z</time>
      </trkpt>
      <trkpt lat="43.59215" lon="2.95633">
        <ele>598.1</ele>
        <time>2026-05-07T08:10:30.999Z</time>
      </trkpt>
      <trkpt lat="43.59214" lon="2.95633">
        <ele>598.1</ele>
        <time>2026-05-07T08:10:31.999Z</time>
      </trkpt>
      <trkpt lat="43.59215" lon="2.95633">
        <ele>598.4</ele>
        <time>2026-05-07T08:10:32.999Z</time>
      </trkpt>
      <trkpt lat="43.59215" lon="2.95634">
        <ele>599</ele>
        <time>2026-05-07T08:10:33.999Z</time>
      </trkpt>
      <trkpt lat="43.59215" lon="2.95634">
        <ele>599.6</ele>
        <time>2026-05-07T08:10:34.999Z</time>
      </trkpt>
      <trkpt lat="43.59215" lon="2.95634">
        <ele>600</ele>
        <time>2026-05-07T08:10:35.999Z</time>
      </trkpt>
      <trkpt lat="43.59216" lon="2.95634">
        <ele>600.3</ele>
        <time>2026-05-07T08:10:36.999Z</time>
      </trkpt>
      <trkpt lat="43.59216" lon="2.95633">
        <ele>600.5</ele>
        <time>2026-05-07T08:10:37.999Z</time>
      </trkpt>
      <trkpt lat="43.59216" lon="2.95633">
        <ele>600.4</ele>
        <time>2026-05-07T08:10:38.999Z</time>
      </trkpt>
      <trkpt lat="43.59217" lon="2.95633">
        <ele>600.2</ele>
        <time>2026-05-07T08:10:39.999Z</time>
      </trkpt>
      <trkpt lat="43.59217" lon="2.95633">
        <ele>600.5</ele>
        <time>2026-05-07T08:10:40.999Z</time>
      </trkpt>
      <trkpt lat="43.59217" lon="2.95633">
        <ele>600.6</ele>
        <time>2026-05-07T08:10:41.999Z</time>
      </trkpt>
      <trkpt lat="43.59218" lon="2.95633">
        <ele>600.5</ele>
        <time>2026-05-07T08:10:42.999Z</time>
      </trkpt>
      <trkpt lat="43.59219" lon="2.95634">
        <ele>601</ele>
        <time>2026-05-07T08:10:43.999Z</time>
      </trkpt>
      <trkpt lat="43.59219" lon="2.95634">
        <ele>601.3</ele>
        <time>2026-05-07T08:10:44.999Z</time>
      </trkpt>
      <trkpt lat="43.59221" lon="2.95635">
        <ele>601.2</ele>
        <time>2026-05-07T08:10:45.999Z</time>
      </trkpt>
      <trkpt lat="43.59222" lon="2.95635">
        <ele>601.3</ele>
        <time>2026-05-07T08:10:46.999Z</time>
      </trkpt>
      <trkpt lat="43.59222" lon="2.95636">
        <ele>601.4</ele>
        <time>2026-05-07T08:10:47.999Z</time>
      </trkpt>
      <trkpt lat="43.59223" lon="2.95636">
        <ele>601.2</ele>
        <time>2026-05-07T08:10:48.999Z</time>
      </trkpt>
      <trkpt lat="43.59224" lon="2.95636">
        <ele>601.5</ele>
        <time>2026-05-07T08:10:49.999Z</time>
      </trkpt>
      <trkpt lat="43.59225" lon="2.95636">
        <ele>601.7</ele>
        <time>2026-05-07T08:10:50.999Z</time>
      </trkpt>
      <trkpt lat="43.59227" lon="2.95636">
        <ele>601.9</ele>
        <time>2026-05-07T08:10:51.999Z</time>
      </trkpt>
      <trkpt lat="43.59228" lon="2.95637">
        <ele>601.8</ele>
        <time>2026-05-07T08:10:52.999Z</time>
      </trkpt>
      <trkpt lat="43.59228" lon="2.95636">
        <ele>601.7</ele>
        <time>2026-05-07T08:10:53.999Z</time>
      </trkpt>
      <trkpt lat="43.59227" lon="2.95635">
        <ele>602.4</ele>
        <time>2026-05-07T08:10:54.999Z</time>
      </trkpt>
      <trkpt lat="43.59228" lon="2.95634">
        <ele>603.1</ele>
        <time>2026-05-07T08:10:55.999Z</time>
      </trkpt>
      <trkpt lat="43.59227" lon="2.95633">
        <ele>603.5</ele>
        <time>2026-05-07T08:10:56.999Z</time>
      </trkpt>
      <trkpt lat="43.59227" lon="2.95632">
        <ele>603.6</ele>
        <time>2026-05-07T08:10:57.999Z</time>
      </trkpt>
      <trkpt lat="43.59227" lon="2.95632">
        <ele>603.1</ele>
        <time>2026-05-07T08:10:58.999Z</time>
      </trkpt>
      <trkpt lat="43.59227" lon="2.95632">
        <ele>603.2</ele>
        <time>2026-05-07T08:10:59.999Z</time>
      </trkpt>
      <trkpt lat="43.59226" lon="2.95631">
        <ele>603</ele>
        <time>2026-05-07T08:11:00.999Z</time>
      </trkpt>
      <trkpt lat="43.59226" lon="2.95632">
        <ele>603.1</ele>
        <time>2026-05-07T08:11:01.999Z</time>
      </trkpt>
      <trkpt lat="43.59226" lon="2.95632">
        <ele>603.2</ele>
        <time>2026-05-07T08:11:02.999Z</time>
      </trkpt>
      <trkpt lat="43.59226" lon="2.95632">
        <ele>602.6</ele>
        <time>2026-05-07T08:11:03.999Z</time>
      </trkpt>
      <trkpt lat="43.59226" lon="2.95632">
        <ele>603.1</ele>
        <time>2026-05-07T08:11:04.999Z</time>
      </trkpt>
      <trkpt lat="43.59226" lon="2.95633">
        <ele>603.6</ele>
        <time>2026-05-07T08:11:05.999Z</time>
      </trkpt>
      <trkpt lat="43.59225" lon="2.95633">
        <ele>604.4</ele>
        <time>2026-05-07T08:11:06.999Z</time>
      </trkpt>
      <trkpt lat="43.59225" lon="2.95634">
        <ele>605.1</ele>
        <time>2026-05-07T08:11:07.999Z</time>
      </trkpt>
      <trkpt lat="43.59226" lon="2.95635">
        <ele>605.3</ele>
        <time>2026-05-07T08:11:08.999Z</time>
      </trkpt>
      <trkpt lat="43.59227" lon="2.95635">
        <ele>605.6</ele>
        <time>2026-05-07T08:11:09.999Z</time>
      </trkpt>
      <trkpt lat="43.59227" lon="2.95635">
        <ele>605.8</ele>
        <time>2026-05-07T08:11:10.999Z</time>
      </trkpt>
      <trkpt lat="43.59226" lon="2.95636">
        <ele>606.6</ele>
        <time>2026-05-07T08:11:11.999Z</time>
      </trkpt>
      <trkpt lat="43.59227" lon="2.95636">
        <ele>606.5</ele>
        <time>2026-05-07T08:11:12.999Z</time>
      </trkpt>
      <trkpt lat="43.59227" lon="2.95636">
        <ele>606.7</ele>
        <time>2026-05-07T08:11:13.999Z</time>
      </trkpt>
      <trkpt lat="43.59227" lon="2.95636">
        <ele>607.1</ele>
        <time>2026-05-07T08:11:14.999Z</time>
      </trkpt>
      <trkpt lat="43.59227" lon="2.95636">
        <ele>607.5</ele>
        <time>2026-05-07T08:11:15.999Z</time>
      </trkpt>
      <trkpt lat="43.59228" lon="2.95636">
        <ele>607.6</ele>
        <time>2026-05-07T08:11:16.999Z</time>
      </trkpt>
      <trkpt lat="43.5923" lon="2.95635">
        <ele>608.3</ele>
        <time>2026-05-07T08:11:17.999Z</time>
      </trkpt>
      <trkpt lat="43.5923" lon="2.95635">
        <ele>608.8</ele>
        <time>2026-05-07T08:11:18.999Z</time>
      </trkpt>
      <trkpt lat="43.5923" lon="2.95635">
        <ele>609.1</ele>
        <time>2026-05-07T08:11:19.999Z</time>
      </trkpt>
      <trkpt lat="43.5923" lon="2.95636">
        <ele>609.4</ele>
        <time>2026-05-07T08:11:20.999Z</time>
      </trkpt>
      <trkpt lat="43.59231" lon="2.95636">
        <ele>609.7</ele>
        <time>2026-05-07T08:11:21.999Z</time>
      </trkpt>
      <trkpt lat="43.59231" lon="2.95636">
        <ele>610</ele>
        <time>2026-05-07T08:11:22.999Z</time>
      </trkpt>
      <trkpt lat="43.59232" lon="2.95637">
        <ele>610.4</ele>
        <time>2026-05-07T08:11:23.999Z</time>
      </trkpt>
      <trkpt lat="43.59232" lon="2.95637">
        <ele>611.2</ele>
        <time>2026-05-07T08:11:24.999Z</time>
      </trkpt>
      <trkpt lat="43.59232" lon="2.95637">
        <ele>611.6</ele>
        <time>2026-05-07T08:11:25.999Z</time>
      </trkpt>
      <trkpt lat="43.59232" lon="2.95637">
        <ele>612.1</ele>
        <time>2026-05-07T08:11:26.999Z</time>
      </trkpt>
      <trkpt lat="43.59232" lon="2.95637">
        <ele>612.9</ele>
        <time>2026-05-07T08:11:27.999Z</time>
      </trkpt>
      <trkpt lat="43.59232" lon="2.95638">
        <ele>613.8</ele>
        <time>2026-05-07T08:11:28.999Z</time>
      </trkpt>
      <trkpt lat="43.59231" lon="2.95638">
        <ele>614.2</ele>
        <time>2026-05-07T08:11:29.999Z</time>
      </trkpt>
      <trkpt lat="43.59231" lon="2.95638">
        <ele>613.8</ele>
        <time>2026-05-07T08:11:30.999Z</time>
      </trkpt>
      <trkpt lat="43.59231" lon="2.95638">
        <ele>613.5</ele>
        <time>2026-05-07T08:11:31.999Z</time>
      </trkpt>
      <trkpt lat="43.59231" lon="2.95638">
        <ele>613.5</ele>
        <time>2026-05-07T08:11:32.999Z</time>
      </trkpt>
      <trkpt lat="43.59231" lon="2.95638">
        <ele>613.4</ele>
        <time>2026-05-07T08:11:33.999Z</time>
      </trkpt>
      <trkpt lat="43.59231" lon="2.95639">
        <ele>613.4</ele>
        <time>2026-05-07T08:11:34.999Z</time>
      </trkpt>
      <trkpt lat="43.59232" lon="2.95639">
        <ele>614.1</ele>
        <time>2026-05-07T08:11:35.999Z</time>
      </trkpt>
      <trkpt lat="43.59232" lon="2.95639">
        <ele>614.2</ele>
        <time>2026-05-07T08:11:36.999Z</time>
      </trkpt>
      <trkpt lat="43.59232" lon="2.9564">
        <ele>615.1</ele>
        <time>2026-05-07T08:11:37.999Z</time>
      </trkpt>
      <trkpt lat="43.59233" lon="2.95641">
        <ele>615.7</ele>
        <time>2026-05-07T08:11:38.999Z</time>
      </trkpt>
      <trkpt lat="43.59233" lon="2.95642">
        <ele>616.4</ele>
        <time>2026-05-07T08:11:39.999Z</time>
      </trkpt>
      <trkpt lat="43.59233" lon="2.95642">
        <ele>616.7</ele>
        <time>2026-05-07T08:11:40.999Z</time>
      </trkpt>
      <trkpt lat="43.59234" lon="2.95642">
        <ele>617.3</ele>
        <time>2026-05-07T08:11:41.999Z</time>
      </trkpt>
      <trkpt lat="43.59235" lon="2.95643">
        <ele>617.9</ele>
        <time>2026-05-07T08:11:42.999Z</time>
      </trkpt>
      <trkpt lat="43.59236" lon="2.95643">
        <ele>618.1</ele>
        <time>2026-05-07T08:11:43.999Z</time>
      </trkpt>
      <trkpt lat="43.59237" lon="2.95644">
        <ele>617.9</ele>
        <time>2026-05-07T08:11:44.999Z</time>
      </trkpt>
      <trkpt lat="43.59237" lon="2.95645">
        <ele>618.2</ele>
        <time>2026-05-07T08:11:45.999Z</time>
      </trkpt>
      <trkpt lat="43.59237" lon="2.95646">
        <ele>618.3</ele>
        <time>2026-05-07T08:11:46.999Z</time>
      </trkpt>
      <trkpt lat="43.59238" lon="2.95646">
        <ele>618.5</ele>
        <time>2026-05-07T08:11:47.999Z</time>
      </trkpt>
      <trkpt lat="43.59239" lon="2.95646">
        <ele>618.9</ele>
        <time>2026-05-07T08:11:48.999Z</time>
      </trkpt>
      <trkpt lat="43.5924" lon="2.95646">
        <ele>619.7</ele>
        <time>2026-05-07T08:11:49.999Z</time>
      </trkpt>
      <trkpt lat="43.5924" lon="2.95646">
        <ele>620.1</ele>
        <time>2026-05-07T08:11:50.999Z</time>
      </trkpt>
      <trkpt lat="43.5924" lon="2.95646">
        <ele>620.5</ele>
        <time>2026-05-07T08:11:51.999Z</time>
      </trkpt>
      <trkpt lat="43.59241" lon="2.95646">
        <ele>620.6</ele>
        <time>2026-05-07T08:11:52.999Z</time>
      </trkpt>
      <trkpt lat="43.59242" lon="2.95646">
        <ele>620.5</ele>
        <time>2026-05-07T08:11:53.999Z</time>
      </trkpt>
      <trkpt lat="43.59243" lon="2.95646">
        <ele>620.5</ele>
        <time>2026-05-07T08:11:54.999Z</time>
      </trkpt>
      <trkpt lat="43.59244" lon="2.95645">
        <ele>620.6</ele>
        <time>2026-05-07T08:11:55.999Z</time>
      </trkpt>
      <trkpt lat="43.59244" lon="2.95645">
        <ele>620.9</ele>
        <time>2026-05-07T08:11:56.999Z</time>
      </trkpt>
      <trkpt lat="43.59245" lon="2.95644">
        <ele>620.9</ele>
        <time>2026-05-07T08:11:57.999Z</time>
      </trkpt>
      <trkpt lat="43.59245" lon="2.95644">
        <ele>620.9</ele>
        <time>2026-05-07T08:11:58.999Z</time>
      </trkpt>
      <trkpt lat="43.59247" lon="2.95644">
        <ele>621.2</ele>
        <time>2026-05-07T08:12:00.999Z</time>
      </trkpt>
      <trkpt lat="43.59247" lon="2.95644">
        <ele>621.3</ele>
        <time>2026-05-07T08:12:01.999Z</time>
      </trkpt>
      <trkpt lat="43.59247" lon="2.95644">
        <ele>620.9</ele>
        <time>2026-05-07T08:12:02.999Z</time>
      </trkpt>
      <trkpt lat="43.59247" lon="2.95644">
        <ele>621.1</ele>
        <time>2026-05-07T08:12:03.999Z</time>
      </trkpt>
      <trkpt lat="43.59246" lon="2.95644">
        <ele>621.2</ele>
        <time>2026-05-07T08:12:04.999Z</time>
      </trkpt>
      <trkpt lat="43.59245" lon="2.95644">
        <ele>621.4</ele>
        <time>2026-05-07T08:12:05.999Z</time>
      </trkpt>
      <trkpt lat="43.59245" lon="2.95643">
        <ele>621.6</ele>
        <time>2026-05-07T08:12:06.999Z</time>
      </trkpt>
      <trkpt lat="43.59246" lon="2.95643">
        <ele>621.5</ele>
        <time>2026-05-07T08:12:07.999Z</time>
      </trkpt>
      <trkpt lat="43.59246" lon="2.95643">
        <ele>621.6</ele>
        <time>2026-05-07T08:12:08.999Z</time>
      </trkpt>
      <trkpt lat="43.59246" lon="2.95643">
        <ele>621.2</ele>
        <time>2026-05-07T08:12:09.999Z</time>
      </trkpt>
      <trkpt lat="43.59246" lon="2.95643">
        <ele>621.2</ele>
        <time>2026-05-07T08:12:10.999Z</time>
      </trkpt>
      <trkpt lat="43.59248" lon="2.95643">
        <ele>621.1</ele>
        <time>2026-05-07T08:12:11.999Z</time>
      </trkpt>
      <trkpt lat="43.59249" lon="2.95644">
        <ele>621</ele>
        <time>2026-05-07T08:12:12.999Z</time>
      </trkpt>
      <trkpt lat="43.5925" lon="2.95644">
        <ele>620.7</ele>
        <time>2026-05-07T08:12:13.999Z</time>
      </trkpt>
      <trkpt lat="43.5925" lon="2.95645">
        <ele>620.3</ele>
        <time>2026-05-07T08:12:14.999Z</time>
      </trkpt>
      <trkpt lat="43.59251" lon="2.95645">
        <ele>620.3</ele>
        <time>2026-05-07T08:12:15.999Z</time>
      </trkpt>
      <trkpt lat="43.5925" lon="2.95645">
        <ele>620.4</ele>
        <time>2026-05-07T08:12:16.999Z</time>
      </trkpt>
      <trkpt lat="43.5925" lon="2.95645">
        <ele>620.7</ele>
        <time>2026-05-07T08:12:17.999Z</time>
      </trkpt>
      <trkpt lat="43.5925" lon="2.95646">
        <ele>620.7</ele>
        <time>2026-05-07T08:12:19.000Z</time>
      </trkpt>
      <trkpt lat="43.5925" lon="2.95646">
        <ele>620.6</ele>
        <time>2026-05-07T08:12:20.000Z</time>
      </trkpt>
      <trkpt lat="43.59251" lon="2.95646">
        <ele>620.5</ele>
        <time>2026-05-07T08:12:21.000Z</time>
      </trkpt>
      <trkpt lat="43.59252" lon="2.95647">
        <ele>620.8</ele>
        <time>2026-05-07T08:12:22.000Z</time>
      </trkpt>
      <trkpt lat="43.59252" lon="2.95647">
        <ele>620.5</ele>
        <time>2026-05-07T08:12:23.000Z</time>
      </trkpt>
      <trkpt lat="43.59252" lon="2.95649">
        <ele>620.8</ele>
        <time>2026-05-07T08:12:24.000Z</time>
      </trkpt>
      <trkpt lat="43.59252" lon="2.9565">
        <ele>621.5</ele>
        <time>2026-05-07T08:12:25.000Z</time>
      </trkpt>
      <trkpt lat="43.59251" lon="2.95651">
        <ele>622</ele>
        <time>2026-05-07T08:12:26.000Z</time>
      </trkpt>
      <trkpt lat="43.59251" lon="2.95651">
        <ele>622.3</ele>
        <time>2026-05-07T08:12:27.000Z</time>
      </trkpt>
      <trkpt lat="43.59251" lon="2.95651">
        <ele>622.3</ele>
        <time>2026-05-07T08:12:28.000Z</time>
      </trkpt>
      <trkpt lat="43.59251" lon="2.95651">
        <ele>622.2</ele>
        <time>2026-05-07T08:12:29.000Z</time>
      </trkpt>
      <trkpt lat="43.59251" lon="2.95652">
        <ele>622.6</ele>
        <time>2026-05-07T08:12:30.000Z</time>
      </trkpt>
      <trkpt lat="43.59252" lon="2.95652">
        <ele>622.6</ele>
        <time>2026-05-07T08:12:31.000Z</time>
      </trkpt>
      <trkpt lat="43.59253" lon="2.95653">
        <ele>622.5</ele>
        <time>2026-05-07T08:12:32.000Z</time>
      </trkpt>
      <trkpt lat="43.59253" lon="2.95654">
        <ele>622.4</ele>
        <time>2026-05-07T08:12:33.000Z</time>
      </trkpt>
      <trkpt lat="43.59253" lon="2.95654">
        <ele>622.4</ele>
        <time>2026-05-07T08:12:34.000Z</time>
      </trkpt>
      <trkpt lat="43.59253" lon="2.95655">
        <ele>622.6</ele>
        <time>2026-05-07T08:12:35.000Z</time>
      </trkpt>
      <trkpt lat="43.59254" lon="2.95654">
        <ele>622.5</ele>
        <time>2026-05-07T08:12:36.000Z</time>
      </trkpt>
      <trkpt lat="43.59255" lon="2.95653">
        <ele>622.8</ele>
        <time>2026-05-07T08:12:37.000Z</time>
      </trkpt>
      <trkpt lat="43.59255" lon="2.95652">
        <ele>623.2</ele>
        <time>2026-05-07T08:12:38.000Z</time>
      </trkpt>
      <trkpt lat="43.59255" lon="2.9565">
        <ele>623</ele>
        <time>2026-05-07T08:12:40.000Z</time>
      </trkpt>
      <trkpt lat="43.59255" lon="2.9565">
        <ele>623.3</ele>
        <time>2026-05-07T08:12:41.000Z</time>
      </trkpt>
      <trkpt lat="43.59255" lon="2.9565">
        <ele>623.4</ele>
        <time>2026-05-07T08:12:42.000Z</time>
      </trkpt>
      <trkpt lat="43.59255" lon="2.95649">
        <ele>623</ele>
        <time>2026-05-07T08:12:43.000Z</time>
      </trkpt>
      <trkpt lat="43.59255" lon="2.9565">
        <ele>623.2</ele>
        <time>2026-05-07T08:12:44.000Z</time>
      </trkpt>
      <trkpt lat="43.59255" lon="2.95649">
        <ele>623.3</ele>
        <time>2026-05-07T08:12:45.000Z</time>
      </trkpt>
      <trkpt lat="43.59256" lon="2.9565">
        <ele>623.1</ele>
        <time>2026-05-07T08:12:46.000Z</time>
      </trkpt>
      <trkpt lat="43.59256" lon="2.9565">
        <ele>622.9</ele>
        <time>2026-05-07T08:12:47.000Z</time>
      </trkpt>
      <trkpt lat="43.59258" lon="2.95651">
        <ele>622.8</ele>
        <time>2026-05-07T08:12:49.000Z</time>
      </trkpt>
      <trkpt lat="43.59258" lon="2.95651">
        <ele>622.8</ele>
        <time>2026-05-07T08:12:50.000Z</time>
      </trkpt>
      <trkpt lat="43.59258" lon="2.95651">
        <ele>622.9</ele>
        <time>2026-05-07T08:12:51.000Z</time>
      </trkpt>
      <trkpt lat="43.59258" lon="2.95651">
        <ele>623.1</ele>
        <time>2026-05-07T08:12:52.000Z</time>
      </trkpt>
      <trkpt lat="43.59258" lon="2.95651">
        <ele>623</ele>
        <time>2026-05-07T08:12:53.000Z</time>
      </trkpt>
      <trkpt lat="43.59258" lon="2.95651">
        <ele>623</ele>
        <time>2026-05-07T08:12:54.000Z</time>
      </trkpt>
      <trkpt lat="43.59258" lon="2.95651">
        <ele>623</ele>
        <time>2026-05-07T08:12:55.000Z</time>
      </trkpt>
      <trkpt lat="43.59258" lon="2.95651">
        <ele>623.2</ele>
        <time>2026-05-07T08:12:56.000Z</time>
      </trkpt>
      <trkpt lat="43.59258" lon="2.95651">
        <ele>623.3</ele>
        <time>2026-05-07T08:12:57.000Z</time>
      </trkpt>
      <trkpt lat="43.59258" lon="2.95651">
        <ele>623.2</ele>
        <time>2026-05-07T08:12:58.000Z</time>
      </trkpt>
      <trkpt lat="43.59259" lon="2.95651">
        <ele>623</ele>
        <time>2026-05-07T08:12:59.000Z</time>
      </trkpt>
      <trkpt lat="43.59259" lon="2.95651">
        <ele>623</ele>
        <time>2026-05-07T08:13:00.000Z</time>
      </trkpt>
      <trkpt lat="43.59259" lon="2.9565">
        <ele>622.8</ele>
        <time>2026-05-07T08:13:01.000Z</time>
      </trkpt>
      <trkpt lat="43.5926" lon="2.95649">
        <ele>622.8</ele>
        <time>2026-05-07T08:13:02.000Z</time>
      </trkpt>
      <trkpt lat="43.5926" lon="2.95649">
        <ele>622.8</ele>
        <time>2026-05-07T08:13:03.000Z</time>
      </trkpt>
      <trkpt lat="43.5926" lon="2.95648">
        <ele>622.8</ele>
        <time>2026-05-07T08:13:04.000Z</time>
      </trkpt>
      <trkpt lat="43.5926" lon="2.95647">
        <ele>622.7</ele>
        <time>2026-05-07T08:13:05.000Z</time>
      </trkpt>
      <trkpt lat="43.5926" lon="2.95646">
        <ele>622.9</ele>
        <time>2026-05-07T08:13:06.000Z</time>
      </trkpt>
      <trkpt lat="43.5926" lon="2.95645">
        <ele>623.1</ele>
        <time>2026-05-07T08:13:07.000Z</time>
      </trkpt>
      <trkpt lat="43.5926" lon="2.95644">
        <ele>623.2</ele>
        <time>2026-05-07T08:13:08.000Z</time>
      </trkpt>
      <trkpt lat="43.5926" lon="2.95644">
        <ele>623.3</ele>
        <time>2026-05-07T08:13:09.000Z</time>
      </trkpt>
      <trkpt lat="43.59261" lon="2.95644">
        <ele>623.1</ele>
        <time>2026-05-07T08:13:10.000Z</time>
      </trkpt>
      <trkpt lat="43.59261" lon="2.95645">
        <ele>623.2</ele>
        <time>2026-05-07T08:13:11.000Z</time>
      </trkpt>
      <trkpt lat="43.59261" lon="2.95646">
        <ele>623.8</ele>
        <time>2026-05-07T08:13:12.000Z</time>
      </trkpt>
      <trkpt lat="43.59261" lon="2.95646">
        <ele>624</ele>
        <time>2026-05-07T08:13:13.000Z</time>
      </trkpt>
      <trkpt lat="43.59261" lon="2.95646">
        <ele>624.1</ele>
        <time>2026-05-07T08:13:14.000Z</time>
      </trkpt>
      <trkpt lat="43.59261" lon="2.95647">
        <ele>624.6</ele>
        <time>2026-05-07T08:13:15.000Z</time>
      </trkpt>
      <trkpt lat="43.59261" lon="2.95648">
        <ele>625.1</ele>
        <time>2026-05-07T08:13:16.000Z</time>
      </trkpt>
      <trkpt lat="43.59262" lon="2.95649">
        <ele>624.8</ele>
        <time>2026-05-07T08:13:17.000Z</time>
      </trkpt>
      <trkpt lat="43.59263" lon="2.95649">
        <ele>625.2</ele>
        <time>2026-05-07T08:13:18.000Z</time>
      </trkpt>
      <trkpt lat="43.59263" lon="2.95649">
        <ele>625.3</ele>
        <time>2026-05-07T08:13:19.000Z</time>
      </trkpt>
      <trkpt lat="43.59263" lon="2.95648">
        <ele>625.4</ele>
        <time>2026-05-07T08:13:20.000Z</time>
      </trkpt>
      <trkpt lat="43.59263" lon="2.95649">
        <ele>625.9</ele>
        <time>2026-05-07T08:13:21.000Z</time>
      </trkpt>
      <trkpt lat="43.59263" lon="2.95648">
        <ele>626.5</ele>
        <time>2026-05-07T08:13:22.000Z</time>
      </trkpt>
      <trkpt lat="43.59264" lon="2.95648">
        <ele>626.5</ele>
        <time>2026-05-07T08:13:24.000Z</time>
      </trkpt>
      <trkpt lat="43.59264" lon="2.95648">
        <ele>626.6</ele>
        <time>2026-05-07T08:13:25.000Z</time>
      </trkpt>
      <trkpt lat="43.59264" lon="2.95649">
        <ele>626.7</ele>
        <time>2026-05-07T08:13:26.000Z</time>
      </trkpt>
      <trkpt lat="43.59265" lon="2.95649">
        <ele>626.8</ele>
        <time>2026-05-07T08:13:27.000Z</time>
      </trkpt>
      <trkpt lat="43.59265" lon="2.9565">
        <ele>626.9</ele>
        <time>2026-05-07T08:13:28.000Z</time>
      </trkpt>
      <trkpt lat="43.59265" lon="2.9565">
        <ele>626.9</ele>
        <time>2026-05-07T08:13:29.000Z</time>
      </trkpt>
      <trkpt lat="43.59266" lon="2.95651">
        <ele>627.3</ele>
        <time>2026-05-07T08:13:30.000Z</time>
      </trkpt>
      <trkpt lat="43.59266" lon="2.95651">
        <ele>627.2</ele>
        <time>2026-05-07T08:13:31.000Z</time>
      </trkpt>
      <trkpt lat="43.59267" lon="2.9565">
        <ele>627.1</ele>
        <time>2026-05-07T08:13:32.000Z</time>
      </trkpt>
      <trkpt lat="43.59269" lon="2.95648">
        <ele>626.7</ele>
        <time>2026-05-07T08:13:33.000Z</time>
      </trkpt>
      <trkpt lat="43.5927" lon="2.95647">
        <ele>626.9</ele>
        <time>2026-05-07T08:13:34.000Z</time>
      </trkpt>
      <trkpt lat="43.5927" lon="2.95647">
        <ele>627.1</ele>
        <time>2026-05-07T08:13:35.000Z</time>
      </trkpt>
      <trkpt lat="43.59271" lon="2.95647">
        <ele>627.1</ele>
        <time>2026-05-07T08:13:36.000Z</time>
      </trkpt>
      <trkpt lat="43.59271" lon="2.95647">
        <ele>627.2</ele>
        <time>2026-05-07T08:13:37.000Z</time>
      </trkpt>
      <trkpt lat="43.59271" lon="2.95646">
        <ele>627.2</ele>
        <time>2026-05-07T08:13:38.000Z</time>
      </trkpt>
      <trkpt lat="43.59271" lon="2.95646">
        <ele>627</ele>
        <time>2026-05-07T08:13:39.000Z</time>
      </trkpt>
      <trkpt lat="43.59271" lon="2.95646">
        <ele>627.1</ele>
        <time>2026-05-07T08:13:40.000Z</time>
      </trkpt>
      <trkpt lat="43.59271" lon="2.95647">
        <ele>627.2</ele>
        <time>2026-05-07T08:13:41.000Z</time>
      </trkpt>
      <trkpt lat="43.59271" lon="2.95647">
        <ele>627.4</ele>
        <time>2026-05-07T08:13:42.000Z</time>
      </trkpt>
      <trkpt lat="43.59271" lon="2.95647">
        <ele>627.5</ele>
        <time>2026-05-07T08:13:43.000Z</time>
      </trkpt>
      <trkpt lat="43.59271" lon="2.95647">
        <ele>627</ele>
        <time>2026-05-07T08:13:44.000Z</time>
      </trkpt>
      <trkpt lat="43.59271" lon="2.95647">
        <ele>626.8</ele>
        <time>2026-05-07T08:13:45.000Z</time>
      </trkpt>
      <trkpt lat="43.59271" lon="2.95647">
        <ele>627.2</ele>
        <time>2026-05-07T08:13:46.000Z</time>
      </trkpt>
      <trkpt lat="43.59271" lon="2.95647">
        <ele>627.4</ele>
        <time>2026-05-07T08:13:47.000Z</time>
      </trkpt>
      <trkpt lat="43.59271" lon="2.95648">
        <ele>627</ele>
        <time>2026-05-07T08:13:48.000Z</time>
      </trkpt>
      <trkpt lat="43.59271" lon="2.95648">
        <ele>626.9</ele>
        <time>2026-05-07T08:13:49.000Z</time>
      </trkpt>
      <trkpt lat="43.59272" lon="2.95648">
        <ele>626.9</ele>
        <time>2026-05-07T08:13:50.000Z</time>
      </trkpt>
      <trkpt lat="43.59273" lon="2.95648">
        <ele>626.3</ele>
        <time>2026-05-07T08:13:52.000Z</time>
      </trkpt>
      <trkpt lat="43.59273" lon="2.95648">
        <ele>626.9</ele>
        <time>2026-05-07T08:13:53.000Z</time>
      </trkpt>
      <trkpt lat="43.59274" lon="2.95648">
        <ele>627.6</ele>
        <time>2026-05-07T08:13:54.000Z</time>
      </trkpt>
      <trkpt lat="43.59274" lon="2.95649">
        <ele>627.8</ele>
        <time>2026-05-07T08:13:55.000Z</time>
      </trkpt>
      <trkpt lat="43.59275" lon="2.9565">
        <ele>627.7</ele>
        <time>2026-05-07T08:13:56.000Z</time>
      </trkpt>
      <trkpt lat="43.59276" lon="2.95649">
        <ele>627.8</ele>
        <time>2026-05-07T08:13:57.000Z</time>
      </trkpt>
      <trkpt lat="43.59277" lon="2.95649">
        <ele>628.1</ele>
        <time>2026-05-07T08:13:58.000Z</time>
      </trkpt>
      <trkpt lat="43.59278" lon="2.95649">
        <ele>628.1</ele>
        <time>2026-05-07T08:13:59.000Z</time>
      </trkpt>
      <trkpt lat="43.59278" lon="2.95649">
        <ele>628.1</ele>
        <time>2026-05-07T08:14:00.000Z</time>
      </trkpt>
      <trkpt lat="43.59278" lon="2.95649">
        <ele>628.3</ele>
        <time>2026-05-07T08:14:01.000Z</time>
      </trkpt>
      <trkpt lat="43.59278" lon="2.95649">
        <ele>628.4</ele>
        <time>2026-05-07T08:14:02.000Z</time>
      </trkpt>
      <trkpt lat="43.59278" lon="2.95649">
        <ele>628.6</ele>
        <time>2026-05-07T08:14:03.000Z</time>
      </trkpt>
      <trkpt lat="43.59279" lon="2.95648">
        <ele>628.7</ele>
        <time>2026-05-07T08:14:04.000Z</time>
      </trkpt>
      <trkpt lat="43.59278" lon="2.95647">
        <ele>629.1</ele>
        <time>2026-05-07T08:14:05.000Z</time>
      </trkpt>
      <trkpt lat="43.59278" lon="2.95646">
        <ele>629.1</ele>
        <time>2026-05-07T08:14:06.000Z</time>
      </trkpt>
      <trkpt lat="43.59278" lon="2.95645">
        <ele>629</ele>
        <time>2026-05-07T08:14:07.000Z</time>
      </trkpt>
      <trkpt lat="43.59278" lon="2.95645">
        <ele>629</ele>
        <time>2026-05-07T08:14:08.000Z</time>
      </trkpt>
      <trkpt lat="43.59278" lon="2.95645">
        <ele>629.2</ele>
        <time>2026-05-07T08:14:09.000Z</time>
      </trkpt>
      <trkpt lat="43.59278" lon="2.95645">
        <ele>629.2</ele>
        <time>2026-05-07T08:14:10.000Z</time>
      </trkpt>
      <trkpt lat="43.59278" lon="2.95645">
        <ele>629.1</ele>
        <time>2026-05-07T08:14:11.000Z</time>
      </trkpt>
      <trkpt lat="43.59278" lon="2.95645">
        <ele>629.2</ele>
        <time>2026-05-07T08:14:12.000Z</time>
      </trkpt>
      <trkpt lat="43.59279" lon="2.95644">
        <ele>629.5</ele>
        <time>2026-05-07T08:14:13.000Z</time>
      </trkpt>
      <trkpt lat="43.59278" lon="2.95645">
        <ele>630</ele>
        <time>2026-05-07T08:14:14.000Z</time>
      </trkpt>
      <trkpt lat="43.59278" lon="2.95645">
        <ele>630.1</ele>
        <time>2026-05-07T08:14:15.000Z</time>
      </trkpt>
      <trkpt lat="43.59279" lon="2.95644">
        <ele>629.9</ele>
        <time>2026-05-07T08:14:16.000Z</time>
      </trkpt>
      <trkpt lat="43.59279" lon="2.95645">
        <ele>630</ele>
        <time>2026-05-07T08:14:17.000Z</time>
      </trkpt>
      <trkpt lat="43.59279" lon="2.95645">
        <ele>630</ele>
        <time>2026-05-07T08:14:18.000Z</time>
      </trkpt>
      <trkpt lat="43.59279" lon="2.95646">
        <ele>630.2</ele>
        <time>2026-05-07T08:14:19.000Z</time>
      </trkpt>
      <trkpt lat="43.59279" lon="2.95646">
        <ele>630.2</ele>
        <time>2026-05-07T08:14:20.000Z</time>
      </trkpt>
      <trkpt lat="43.59279" lon="2.95648">
        <ele>630.3</ele>
        <time>2026-05-07T08:14:21.000Z</time>
      </trkpt>
      <trkpt lat="43.59279" lon="2.95648">
        <ele>630.3</ele>
        <time>2026-05-07T08:14:22.000Z</time>
      </trkpt>
      <trkpt lat="43.5928" lon="2.95648">
        <ele>630.3</ele>
        <time>2026-05-07T08:14:23.000Z</time>
      </trkpt>
      <trkpt lat="43.5928" lon="2.95648">
        <ele>630.5</ele>
        <time>2026-05-07T08:14:24.000Z</time>
      </trkpt>
      <trkpt lat="43.5928" lon="2.95648">
        <ele>630.6</ele>
        <time>2026-05-07T08:14:25.000Z</time>
      </trkpt>
      <trkpt lat="43.5928" lon="2.95648">
        <ele>631</ele>
        <time>2026-05-07T08:14:26.000Z</time>
      </trkpt>
      <trkpt lat="43.5928" lon="2.95647">
        <ele>631.3</ele>
        <time>2026-05-07T08:14:27.000Z</time>
      </trkpt>
      <trkpt lat="43.5928" lon="2.95646">
        <ele>632</ele>
        <time>2026-05-07T08:14:28.000Z</time>
      </trkpt>
      <trkpt lat="43.59281" lon="2.95645">
        <ele>632.4</ele>
        <time>2026-05-07T08:14:29.000Z</time>
      </trkpt>
      <trkpt lat="43.59281" lon="2.95644">
        <ele>632.5</ele>
        <time>2026-05-07T08:14:30.000Z</time>
      </trkpt>
      <trkpt lat="43.59281" lon="2.95644">
        <ele>632.7</ele>
        <time>2026-05-07T08:14:31.000Z</time>
      </trkpt>
      <trkpt lat="43.59281" lon="2.95644">
        <ele>633</ele>
        <time>2026-05-07T08:14:32.000Z</time>
      </trkpt>
      <trkpt lat="43.59281" lon="2.95644">
        <ele>633.2</ele>
        <time>2026-05-07T08:14:33.000Z</time>
      </trkpt>
      <trkpt lat="43.59281" lon="2.95645">
        <ele>633.5</ele>
        <time>2026-05-07T08:14:34.000Z</time>
      </trkpt>
      <trkpt lat="43.59281" lon="2.95647">
        <ele>634</ele>
        <time>2026-05-07T08:14:35.000Z</time>
      </trkpt>
      <trkpt lat="43.59281" lon="2.95647">
        <ele>634.2</ele>
        <time>2026-05-07T08:14:36.000Z</time>
      </trkpt>
      <trkpt lat="43.59281" lon="2.95648">
        <ele>634.6</ele>
        <time>2026-05-07T08:14:37.000Z</time>
      </trkpt>
      <trkpt lat="43.59282" lon="2.95648">
        <ele>635</ele>
        <time>2026-05-07T08:14:38.000Z</time>
      </trkpt>
      <trkpt lat="43.59282" lon="2.95648">
        <ele>635.2</ele>
        <time>2026-05-07T08:14:39.000Z</time>
      </trkpt>
      <trkpt lat="43.59282" lon="2.95647">
        <ele>635.4</ele>
        <time>2026-05-07T08:14:40.000Z</time>
      </trkpt>
      <trkpt lat="43.59282" lon="2.95647">
        <ele>635.5</ele>
        <time>2026-05-07T08:14:41.000Z</time>
      </trkpt>
      <trkpt lat="43.59282" lon="2.95647">
        <ele>635.8</ele>
        <time>2026-05-07T08:14:42.000Z</time>
      </trkpt>
      <trkpt lat="43.59282" lon="2.95646">
        <ele>636.3</ele>
        <time>2026-05-07T08:14:43.000Z</time>
      </trkpt>
      <trkpt lat="43.59282" lon="2.95645">
        <ele>636.3</ele>
        <time>2026-05-07T08:14:44.000Z</time>
      </trkpt>
      <trkpt lat="43.59282" lon="2.95643">
        <ele>636.8</ele>
        <time>2026-05-07T08:14:45.000Z</time>
      </trkpt>
      <trkpt lat="43.59282" lon="2.95641">
        <ele>637.1</ele>
        <time>2026-05-07T08:14:46.000Z</time>
      </trkpt>
      <trkpt lat="43.59282" lon="2.95641">
        <ele>637.7</ele>
        <time>2026-05-07T08:14:47.000Z</time>
      </trkpt>
      <trkpt lat="43.59282" lon="2.95641">
        <ele>637.9</ele>
        <time>2026-05-07T08:14:48.000Z</time>
      </trkpt>
      <trkpt lat="43.59282" lon="2.9564">
        <ele>638.2</ele>
        <time>2026-05-07T08:14:50.000Z</time>
      </trkpt>
      <trkpt lat="43.59282" lon="2.9564">
        <ele>638.7</ele>
        <time>2026-05-07T08:14:51.000Z</time>
      </trkpt>
      <trkpt lat="43.59282" lon="2.9564">
        <ele>638.9</ele>
        <time>2026-05-07T08:14:52.000Z</time>
      </trkpt>
      <trkpt lat="43.59282" lon="2.95639">
        <ele>639.2</ele>
        <time>2026-05-07T08:14:53.000Z</time>
      </trkpt>
      <trkpt lat="43.59283" lon="2.9564">
        <ele>639.6</ele>
        <time>2026-05-07T08:14:54.000Z</time>
      </trkpt>
      <trkpt lat="43.59284" lon="2.95639">
        <ele>639.7</ele>
        <time>2026-05-07T08:14:55.000Z</time>
      </trkpt>
      <trkpt lat="43.59285" lon="2.95638">
        <ele>640.1</ele>
        <time>2026-05-07T08:14:56.000Z</time>
      </trkpt>
      <trkpt lat="43.59285" lon="2.95638">
        <ele>640.5</ele>
        <time>2026-05-07T08:14:57.000Z</time>
      </trkpt>
      <trkpt lat="43.59286" lon="2.95638">
        <ele>640.6</ele>
        <time>2026-05-07T08:14:58.000Z</time>
      </trkpt>
      <trkpt lat="43.59286" lon="2.95638">
        <ele>640.6</ele>
        <time>2026-05-07T08:14:59.000Z</time>
      </trkpt>
      <trkpt lat="43.59287" lon="2.95638">
        <ele>640.4</ele>
        <time>2026-05-07T08:15:00.000Z</time>
      </trkpt>
      <trkpt lat="43.59288" lon="2.95637">
        <ele>640.3</ele>
        <time>2026-05-07T08:15:01.000Z</time>
      </trkpt>
      <trkpt lat="43.59287" lon="2.95637">
        <ele>640.2</ele>
        <time>2026-05-07T08:15:02.000Z</time>
      </trkpt>
      <trkpt lat="43.59287" lon="2.95636">
        <ele>640.2</ele>
        <time>2026-05-07T08:15:03.000Z</time>
      </trkpt>
      <trkpt lat="43.59287" lon="2.95635">
        <ele>640</ele>
        <time>2026-05-07T08:15:04.000Z</time>
      </trkpt>
      <trkpt lat="43.59286" lon="2.95635">
        <ele>639.7</ele>
        <time>2026-05-07T08:15:05.000Z</time>
      </trkpt>
      <trkpt lat="43.59286" lon="2.95636">
        <ele>640</ele>
        <time>2026-05-07T08:15:06.000Z</time>
      </trkpt>
      <trkpt lat="43.59287" lon="2.95636">
        <ele>640</ele>
        <time>2026-05-07T08:15:07.000Z</time>
      </trkpt>
      <trkpt lat="43.59287" lon="2.95637">
        <ele>638.6</ele>
        <time>2026-05-07T08:15:08.000Z</time>
      </trkpt>
      <trkpt lat="43.59287" lon="2.95638">
        <ele>637.3</ele>
        <time>2026-05-07T08:15:09.000Z</time>
      </trkpt>
      <trkpt lat="43.59288" lon="2.95639">
        <ele>636</ele>
        <time>2026-05-07T08:15:10.000Z</time>
      </trkpt>
      <trkpt lat="43.59288" lon="2.95639">
        <ele>635.1</ele>
        <time>2026-05-07T08:15:11.000Z</time>
      </trkpt>
      <trkpt lat="43.59289" lon="2.95639">
        <ele>634.5</ele>
        <time>2026-05-07T08:15:12.000Z</time>
      </trkpt>
      <trkpt lat="43.59289" lon="2.95639">
        <ele>634.2</ele>
        <time>2026-05-07T08:15:13.000Z</time>
      </trkpt>
      <trkpt lat="43.59289" lon="2.95639">
        <ele>633.8</ele>
        <time>2026-05-07T08:15:14.000Z</time>
      </trkpt>
      <trkpt lat="43.59289" lon="2.9564">
        <ele>633.7</ele>
        <time>2026-05-07T08:15:15.000Z</time>
      </trkpt>
      <trkpt lat="43.59289" lon="2.9564">
        <ele>633.5</ele>
        <time>2026-05-07T08:15:16.000Z</time>
      </trkpt>
      <trkpt lat="43.59289" lon="2.9564">
        <ele>633.5</ele>
        <time>2026-05-07T08:15:17.000Z</time>
      </trkpt>
      <trkpt lat="43.59289" lon="2.9564">
        <ele>633.3</ele>
        <time>2026-05-07T08:15:18.000Z</time>
      </trkpt>
      <trkpt lat="43.59289" lon="2.9564">
        <ele>633.3</ele>
        <time>2026-05-07T08:15:19.000Z</time>
      </trkpt>
      <trkpt lat="43.59288" lon="2.9564">
        <ele>633.8</ele>
        <time>2026-05-07T08:15:20.000Z</time>
      </trkpt>
      <trkpt lat="43.59287" lon="2.9564">
        <ele>633.7</ele>
        <time>2026-05-07T08:15:21.000Z</time>
      </trkpt>
      <trkpt lat="43.59287" lon="2.95641">
        <ele>633.9</ele>
        <time>2026-05-07T08:15:22.000Z</time>
      </trkpt>
      <trkpt lat="43.59287" lon="2.95641">
        <ele>633.4</ele>
        <time>2026-05-07T08:15:23.000Z</time>
      </trkpt>
      <trkpt lat="43.59287" lon="2.95641">
        <ele>633.1</ele>
        <time>2026-05-07T08:15:24.000Z</time>
      </trkpt>
      <trkpt lat="43.59287" lon="2.95642">
        <ele>632.8</ele>
        <time>2026-05-07T08:15:25.000Z</time>
      </trkpt>
      <trkpt lat="43.59287" lon="2.95641">
        <ele>632.1</ele>
        <time>2026-05-07T08:15:26.000Z</time>
      </trkpt>
      <trkpt lat="43.59287" lon="2.95641">
        <ele>632.3</ele>
        <time>2026-05-07T08:15:27.000Z</time>
      </trkpt>
      <trkpt lat="43.59287" lon="2.95641">
        <ele>632.6</ele>
        <time>2026-05-07T08:15:28.000Z</time>
      </trkpt>
      <trkpt lat="43.59287" lon="2.95641">
        <ele>632.6</ele>
        <time>2026-05-07T08:15:29.000Z</time>
      </trkpt>
      <trkpt lat="43.59287" lon="2.95641">
        <ele>632.5</ele>
        <time>2026-05-07T08:15:30.000Z</time>
      </trkpt>
      <trkpt lat="43.59286" lon="2.95642">
        <ele>633</ele>
        <time>2026-05-07T08:15:31.000Z</time>
      </trkpt>
      <trkpt lat="43.59285" lon="2.95642">
        <ele>633.4</ele>
        <time>2026-05-07T08:15:32.000Z</time>
      </trkpt>
      <trkpt lat="43.59285" lon="2.95642">
        <ele>633.5</ele>
        <time>2026-05-07T08:15:33.000Z</time>
      </trkpt>
      <trkpt lat="43.59286" lon="2.95643">
        <ele>633.4</ele>
        <time>2026-05-07T08:15:34.000Z</time>
      </trkpt>
      <trkpt lat="43.59286" lon="2.95643">
        <ele>633.4</ele>
        <time>2026-05-07T08:15:35.000Z</time>
      </trkpt>
      <trkpt lat="43.59288" lon="2.95643">
        <ele>633.5</ele>
        <time>2026-05-07T08:15:36.000Z</time>
      </trkpt>
      <trkpt lat="43.59289" lon="2.95643">
        <ele>633.7</ele>
        <time>2026-05-07T08:15:37.000Z</time>
      </trkpt>
      <trkpt lat="43.59288" lon="2.95642">
        <ele>633.8</ele>
        <time>2026-05-07T08:15:38.000Z</time>
      </trkpt>
      <trkpt lat="43.59289" lon="2.95641">
        <ele>633.9</ele>
        <time>2026-05-07T08:15:39.000Z</time>
      </trkpt>
      <trkpt lat="43.59289" lon="2.95641">
        <ele>634.3</ele>
        <time>2026-05-07T08:15:40.000Z</time>
      </trkpt>
      <trkpt lat="43.59289" lon="2.95641">
        <ele>634.7</ele>
        <time>2026-05-07T08:15:41.000Z</time>
      </trkpt>
      <trkpt lat="43.59289" lon="2.95641">
        <ele>634.8</ele>
        <time>2026-05-07T08:15:42.000Z</time>
      </trkpt>
      <trkpt lat="43.59289" lon="2.95641">
        <ele>635</ele>
        <time>2026-05-07T08:15:43.000Z</time>
      </trkpt>
      <trkpt lat="43.59289" lon="2.95641">
        <ele>635.1</ele>
        <time>2026-05-07T08:15:44.000Z</time>
      </trkpt>
      <trkpt lat="43.5929" lon="2.95641">
        <ele>634.5</ele>
        <time>2026-05-07T08:15:45.000Z</time>
      </trkpt>
      <trkpt lat="43.59291" lon="2.95641">
        <ele>634.3</ele>
        <time>2026-05-07T08:15:46.000Z</time>
      </trkpt>
      <trkpt lat="43.59293" lon="2.95642">
        <ele>634.1</ele>
        <time>2026-05-07T08:15:47.000Z</time>
      </trkpt>
      <trkpt lat="43.59294" lon="2.95643">
        <ele>634.3</ele>
        <time>2026-05-07T08:15:48.000Z</time>
      </trkpt>
      <trkpt lat="43.59294" lon="2.95644">
        <ele>633.9</ele>
        <time>2026-05-07T08:15:49.000Z</time>
      </trkpt>
      <trkpt lat="43.59295" lon="2.95644">
        <ele>633.2</ele>
        <time>2026-05-07T08:15:50.000Z</time>
      </trkpt>
      <trkpt lat="43.59295" lon="2.95646">
        <ele>633.5</ele>
        <time>2026-05-07T08:15:51.000Z</time>
      </trkpt>
      <trkpt lat="43.59296" lon="2.95645">
        <ele>633.7</ele>
        <time>2026-05-07T08:15:52.000Z</time>
      </trkpt>
      <trkpt lat="43.59297" lon="2.95645">
        <ele>633.9</ele>
        <time>2026-05-07T08:15:53.000Z</time>
      </trkpt>
      <trkpt lat="43.59297" lon="2.95645">
        <ele>633.9</ele>
        <time>2026-05-07T08:15:54.000Z</time>
      </trkpt>
      <trkpt lat="43.59298" lon="2.95645">
        <ele>633.6</ele>
        <time>2026-05-07T08:15:55.000Z</time>
      </trkpt>
      <trkpt lat="43.59298" lon="2.95644">
        <ele>633.5</ele>
        <time>2026-05-07T08:15:56.000Z</time>
      </trkpt>
      <trkpt lat="43.59298" lon="2.95643">
        <ele>633.2</ele>
        <time>2026-05-07T08:15:57.000Z</time>
      </trkpt>
      <trkpt lat="43.59297" lon="2.95641">
        <ele>632.9</ele>
        <time>2026-05-07T08:15:59.000Z</time>
      </trkpt>
      <trkpt lat="43.59297" lon="2.95641">
        <ele>632.6</ele>
        <time>2026-05-07T08:16:00.000Z</time>
      </trkpt>
      <trkpt lat="43.59298" lon="2.95641">
        <ele>632.7</ele>
        <time>2026-05-07T08:16:01.000Z</time>
      </trkpt>
      <trkpt lat="43.59298" lon="2.95641">
        <ele>632.6</ele>
        <time>2026-05-07T08:16:02.000Z</time>
      </trkpt>
      <trkpt lat="43.59298" lon="2.95642">
        <ele>632.4</ele>
        <time>2026-05-07T08:16:03.000Z</time>
      </trkpt>
      <trkpt lat="43.59298" lon="2.95642">
        <ele>632.5</ele>
        <time>2026-05-07T08:16:04.000Z</time>
      </trkpt>
      <trkpt lat="43.59298" lon="2.95642">
        <ele>632.7</ele>
        <time>2026-05-07T08:16:05.000Z</time>
      </trkpt>
      <trkpt lat="43.59298" lon="2.95641">
        <ele>632.9</ele>
        <time>2026-05-07T08:16:06.000Z</time>
      </trkpt>
      <trkpt lat="43.59298" lon="2.95641">
        <ele>632.9</ele>
        <time>2026-05-07T08:16:07.000Z</time>
      </trkpt>
      <trkpt lat="43.59298" lon="2.9564">
        <ele>633</ele>
        <time>2026-05-07T08:16:08.000Z</time>
      </trkpt>
      <trkpt lat="43.59298" lon="2.9564">
        <ele>632.9</ele>
        <time>2026-05-07T08:16:09.000Z</time>
      </trkpt>
      <trkpt lat="43.59298" lon="2.9564">
        <ele>632.8</ele>
        <time>2026-05-07T08:16:10.000Z</time>
      </trkpt>
      <trkpt lat="43.59298" lon="2.9564">
        <ele>632.9</ele>
        <time>2026-05-07T08:16:11.000Z</time>
      </trkpt>
      <trkpt lat="43.59299" lon="2.95641">
        <ele>633.1</ele>
        <time>2026-05-07T08:16:12.000Z</time>
      </trkpt>
      <trkpt lat="43.59299" lon="2.95642">
        <ele>633.3</ele>
        <time>2026-05-07T08:16:13.000Z</time>
      </trkpt>
      <trkpt lat="43.59299" lon="2.95642">
        <ele>633.4</ele>
        <time>2026-05-07T08:16:14.000Z</time>
      </trkpt>
      <trkpt lat="43.59299" lon="2.95643">
        <ele>633.8</ele>
        <time>2026-05-07T08:16:15.000Z</time>
      </trkpt>
      <trkpt lat="43.593" lon="2.95643">
        <ele>633.4</ele>
        <time>2026-05-07T08:16:16.000Z</time>
      </trkpt>
      <trkpt lat="43.593" lon="2.95643">
        <ele>633.7</ele>
        <time>2026-05-07T08:16:17.000Z</time>
      </trkpt>
      <trkpt lat="43.593" lon="2.95643">
        <ele>634.3</ele>
        <time>2026-05-07T08:16:18.000Z</time>
      </trkpt>
      <trkpt lat="43.593" lon="2.95643">
        <ele>634.8</ele>
        <time>2026-05-07T08:16:19.000Z</time>
      </trkpt>
      <trkpt lat="43.593" lon="2.95643">
        <ele>635.3</ele>
        <time>2026-05-07T08:16:20.000Z</time>
      </trkpt>
      <trkpt lat="43.593" lon="2.95643">
        <ele>635.8</ele>
        <time>2026-05-07T08:16:21.000Z</time>
      </trkpt>
      <trkpt lat="43.593" lon="2.95643">
        <ele>636.4</ele>
        <time>2026-05-07T08:16:22.000Z</time>
      </trkpt>
      <trkpt lat="43.593" lon="2.95643">
        <ele>636.8</ele>
        <time>2026-05-07T08:16:23.000Z</time>
      </trkpt>
      <trkpt lat="43.593" lon="2.95643">
        <ele>636.9</ele>
        <time>2026-05-07T08:16:24.000Z</time>
      </trkpt>
      <trkpt lat="43.593" lon="2.95643">
        <ele>637.1</ele>
        <time>2026-05-07T08:16:25.000Z</time>
      </trkpt>
      <trkpt lat="43.593" lon="2.95643">
        <ele>637.1</ele>
        <time>2026-05-07T08:16:26.000Z</time>
      </trkpt>
      <trkpt lat="43.593" lon="2.95643">
        <ele>637.3</ele>
        <time>2026-05-07T08:16:27.000Z</time>
      </trkpt>
      <trkpt lat="43.593" lon="2.95643">
        <ele>637.6</ele>
        <time>2026-05-07T08:16:28.000Z</time>
      </trkpt>
      <trkpt lat="43.593" lon="2.95644">
        <ele>638</ele>
        <time>2026-05-07T08:16:29.000Z</time>
      </trkpt>
      <trkpt lat="43.593" lon="2.95644">
        <ele>638.4</ele>
        <time>2026-05-07T08:16:30.000Z</time>
      </trkpt>
      <trkpt lat="43.593" lon="2.95644">
        <ele>638.5</ele>
        <time>2026-05-07T08:16:31.000Z</time>
      </trkpt>
      <trkpt lat="43.59301" lon="2.95643">
        <ele>638.4</ele>
        <time>2026-05-07T08:16:32.000Z</time>
      </trkpt>
      <trkpt lat="43.59301" lon="2.95642">
        <ele>638.6</ele>
        <time>2026-05-07T08:16:33.000Z</time>
      </trkpt>
      <trkpt lat="43.59301" lon="2.95642">
        <ele>638.8</ele>
        <time>2026-05-07T08:16:34.000Z</time>
      </trkpt>
      <trkpt lat="43.59302" lon="2.95642">
        <ele>639</ele>
        <time>2026-05-07T08:16:35.000Z</time>
      </trkpt>
      <trkpt lat="43.59302" lon="2.95641">
        <ele>639.5</ele>
        <time>2026-05-07T08:16:36.000Z</time>
      </trkpt>
      <trkpt lat="43.59302" lon="2.95641">
        <ele>639.6</ele>
        <time>2026-05-07T08:16:37.000Z</time>
      </trkpt>
      <trkpt lat="43.59303" lon="2.95642">
        <ele>639.9</ele>
        <time>2026-05-07T08:16:38.000Z</time>
      </trkpt>
      <trkpt lat="43.59302" lon="2.95642">
        <ele>639.9</ele>
        <time>2026-05-07T08:16:39.000Z</time>
      </trkpt>
      <trkpt lat="43.59302" lon="2.95642">
        <ele>640</ele>
        <time>2026-05-07T08:16:40.000Z</time>
      </trkpt>
      <trkpt lat="43.59302" lon="2.95641">
        <ele>640.1</ele>
        <time>2026-05-07T08:16:41.000Z</time>
      </trkpt>
      <trkpt lat="43.59302" lon="2.95641">
        <ele>639.8</ele>
        <time>2026-05-07T08:16:42.000Z</time>
      </trkpt>
      <trkpt lat="43.59303" lon="2.9564">
        <ele>639.8</ele>
        <time>2026-05-07T08:16:43.000Z</time>
      </trkpt>
      <trkpt lat="43.59302" lon="2.95639">
        <ele>639.8</ele>
        <time>2026-05-07T08:16:44.000Z</time>
      </trkpt>
      <trkpt lat="43.59303" lon="2.95638">
        <ele>640.1</ele>
        <time>2026-05-07T08:16:45.000Z</time>
      </trkpt>
      <trkpt lat="43.59303" lon="2.95638">
        <ele>640.3</ele>
        <time>2026-05-07T08:16:46.000Z</time>
      </trkpt>
      <trkpt lat="43.59303" lon="2.95638">
        <ele>640.3</ele>
        <time>2026-05-07T08:16:47.000Z</time>
      </trkpt>
      <trkpt lat="43.59303" lon="2.95637">
        <ele>640.5</ele>
        <time>2026-05-07T08:16:49.000Z</time>
      </trkpt>
      <trkpt lat="43.59303" lon="2.95637">
        <ele>640.4</ele>
        <time>2026-05-07T08:16:50.000Z</time>
      </trkpt>
      <trkpt lat="43.59303" lon="2.95637">
        <ele>639.9</ele>
        <time>2026-05-07T08:16:51.000Z</time>
      </trkpt>
      <trkpt lat="43.59303" lon="2.95637">
        <ele>639.7</ele>
        <time>2026-05-07T08:16:52.000Z</time>
      </trkpt>
      <trkpt lat="43.59303" lon="2.95637">
        <ele>639.5</ele>
        <time>2026-05-07T08:16:53.000Z</time>
      </trkpt>
      <trkpt lat="43.59303" lon="2.95637">
        <ele>639.4</ele>
        <time>2026-05-07T08:16:54.000Z</time>
      </trkpt>
      <trkpt lat="43.59303" lon="2.95637">
        <ele>639</ele>
        <time>2026-05-07T08:16:55.000Z</time>
      </trkpt>
      <trkpt lat="43.59303" lon="2.95636">
        <ele>638.8</ele>
        <time>2026-05-07T08:16:56.000Z</time>
      </trkpt>
      <trkpt lat="43.59303" lon="2.95636">
        <ele>638.4</ele>
        <time>2026-05-07T08:16:57.000Z</time>
      </trkpt>
      <trkpt lat="43.59303" lon="2.95634">
        <ele>638</ele>
        <time>2026-05-07T08:16:58.000Z</time>
      </trkpt>
      <trkpt lat="43.59304" lon="2.95633">
        <ele>637.5</ele>
        <time>2026-05-07T08:16:59.000Z</time>
      </trkpt>
      <trkpt lat="43.59304" lon="2.95633">
        <ele>637.2</ele>
        <time>2026-05-07T08:17:00.000Z</time>
      </trkpt>
      <trkpt lat="43.59304" lon="2.95632">
        <ele>637.3</ele>
        <time>2026-05-07T08:17:01.000Z</time>
      </trkpt>
      <trkpt lat="43.59303" lon="2.95632">
        <ele>637.2</ele>
        <time>2026-05-07T08:17:02.000Z</time>
      </trkpt>
      <trkpt lat="43.59303" lon="2.95632">
        <ele>636.9</ele>
        <time>2026-05-07T08:17:03.000Z</time>
      </trkpt>
      <trkpt lat="43.59303" lon="2.95632">
        <ele>636.9</ele>
        <time>2026-05-07T08:17:04.000Z</time>
      </trkpt>
      <trkpt lat="43.59303" lon="2.95632">
        <ele>636.8</ele>
        <time>2026-05-07T08:17:05.000Z</time>
      </trkpt>
      <trkpt lat="43.59303" lon="2.95632">
        <ele>636.7</ele>
        <time>2026-05-07T08:17:06.000Z</time>
      </trkpt>
      <trkpt lat="43.59303" lon="2.95631">
        <ele>636.7</ele>
        <time>2026-05-07T08:17:07.000Z</time>
      </trkpt>
      <trkpt lat="43.59303" lon="2.95631">
        <ele>636.3</ele>
        <time>2026-05-07T08:17:08.000Z</time>
      </trkpt>
      <trkpt lat="43.59303" lon="2.95631">
        <ele>636.4</ele>
        <time>2026-05-07T08:17:09.000Z</time>
      </trkpt>
      <trkpt lat="43.59303" lon="2.95631">
        <ele>636.2</ele>
        <time>2026-05-07T08:17:10.000Z</time>
      </trkpt>
      <trkpt lat="43.59303" lon="2.95631">
        <ele>636.2</ele>
        <time>2026-05-07T08:17:11.000Z</time>
      </trkpt>
      <trkpt lat="43.59303" lon="2.95629">
        <ele>636.3</ele>
        <time>2026-05-07T08:17:13.000Z</time>
      </trkpt>
      <trkpt lat="43.59303" lon="2.95627">
        <ele>636.5</ele>
        <time>2026-05-07T08:17:14.000Z</time>
      </trkpt>
      <trkpt lat="43.59303" lon="2.95627">
        <ele>636.4</ele>
        <time>2026-05-07T08:17:15.000Z</time>
      </trkpt>
      <trkpt lat="43.59303" lon="2.95628">
        <ele>636.1</ele>
        <time>2026-05-07T08:17:16.000Z</time>
      </trkpt>
      <trkpt lat="43.59303" lon="2.95628">
        <ele>636.3</ele>
        <time>2026-05-07T08:17:17.000Z</time>
      </trkpt>
      <trkpt lat="43.59304" lon="2.95628">
        <ele>636.3</ele>
        <time>2026-05-07T08:17:18.000Z</time>
      </trkpt>
      <trkpt lat="43.59304" lon="2.95628">
        <ele>636.5</ele>
        <time>2026-05-07T08:17:19.000Z</time>
      </trkpt>
      <trkpt lat="43.59304" lon="2.95629">
        <ele>636.4</ele>
        <time>2026-05-07T08:17:20.000Z</time>
      </trkpt>
      <trkpt lat="43.59305" lon="2.9563">
        <ele>636.4</ele>
        <time>2026-05-07T08:17:21.000Z</time>
      </trkpt>
      <trkpt lat="43.59305" lon="2.95631">
        <ele>636.5</ele>
        <time>2026-05-07T08:17:22.000Z</time>
      </trkpt>
      <trkpt lat="43.59305" lon="2.95632">
        <ele>636.6</ele>
        <time>2026-05-07T08:17:23.000Z</time>
      </trkpt>
      <trkpt lat="43.59305" lon="2.95632">
        <ele>636.7</ele>
        <time>2026-05-07T08:17:24.000Z</time>
      </trkpt>
      <trkpt lat="43.59305" lon="2.95631">
        <ele>637.1</ele>
        <time>2026-05-07T08:17:25.000Z</time>
      </trkpt>
      <trkpt lat="43.59305" lon="2.95631">
        <ele>637.4</ele>
        <time>2026-05-07T08:17:26.000Z</time>
      </trkpt>
      <trkpt lat="43.59305" lon="2.95631">
        <ele>637.7</ele>
        <time>2026-05-07T08:17:27.000Z</time>
      </trkpt>
      <trkpt lat="43.59306" lon="2.95631">
        <ele>638.1</ele>
        <time>2026-05-07T08:17:28.000Z</time>
      </trkpt>
      <trkpt lat="43.59307" lon="2.95632">
        <ele>638.2</ele>
        <time>2026-05-07T08:17:29.000Z</time>
      </trkpt>
      <trkpt lat="43.59309" lon="2.95633">
        <ele>638.3</ele>
        <time>2026-05-07T08:17:30.000Z</time>
      </trkpt>
      <trkpt lat="43.59309" lon="2.95633">
        <ele>638.4</ele>
        <time>2026-05-07T08:17:31.000Z</time>
      </trkpt>
      <trkpt lat="43.59309" lon="2.95633">
        <ele>638.6</ele>
        <time>2026-05-07T08:17:32.000Z</time>
      </trkpt>
      <trkpt lat="43.59309" lon="2.95633">
        <ele>638.9</ele>
        <time>2026-05-07T08:17:33.000Z</time>
      </trkpt>
      <trkpt lat="43.59309" lon="2.95633">
        <ele>639.2</ele>
        <time>2026-05-07T08:17:34.000Z</time>
      </trkpt>
      <trkpt lat="43.59309" lon="2.95633">
        <ele>639.5</ele>
        <time>2026-05-07T08:17:35.000Z</time>
      </trkpt>
      <trkpt lat="43.59309" lon="2.95633">
        <ele>639.7</ele>
        <time>2026-05-07T08:17:36.000Z</time>
      </trkpt>
      <trkpt lat="43.59309" lon="2.95633">
        <ele>639.7</ele>
        <time>2026-05-07T08:17:37.000Z</time>
      </trkpt>
      <trkpt lat="43.59309" lon="2.95633">
        <ele>640</ele>
        <time>2026-05-07T08:17:38.000Z</time>
      </trkpt>
      <trkpt lat="43.59309" lon="2.95633">
        <ele>640.4</ele>
        <time>2026-05-07T08:17:39.000Z</time>
      </trkpt>
      <trkpt lat="43.59309" lon="2.95633">
        <ele>640.5</ele>
        <time>2026-05-07T08:17:40.000Z</time>
      </trkpt>
      <trkpt lat="43.59309" lon="2.95633">
        <ele>640.3</ele>
        <time>2026-05-07T08:17:41.000Z</time>
      </trkpt>
      <trkpt lat="43.59309" lon="2.95633">
        <ele>640.5</ele>
        <time>2026-05-07T08:17:42.000Z</time>
      </trkpt>
      <trkpt lat="43.59309" lon="2.95633">
        <ele>640.4</ele>
        <time>2026-05-07T08:17:43.000Z</time>
      </trkpt>
      <trkpt lat="43.59309" lon="2.95633">
        <ele>640.4</ele>
        <time>2026-05-07T08:17:44.000Z</time>
      </trkpt>
      <trkpt lat="43.59309" lon="2.95634">
        <ele>640.7</ele>
        <time>2026-05-07T08:17:45.000Z</time>
      </trkpt>
      <trkpt lat="43.59309" lon="2.95633">
        <ele>641.1</ele>
        <time>2026-05-07T08:17:46.000Z</time>
      </trkpt>
      <trkpt lat="43.5931" lon="2.95632">
        <ele>641.3</ele>
        <time>2026-05-07T08:17:47.000Z</time>
      </trkpt>
      <trkpt lat="43.5931" lon="2.95631">
        <ele>641.5</ele>
        <time>2026-05-07T08:17:48.000Z</time>
      </trkpt>
      <trkpt lat="43.5931" lon="2.95631">
        <ele>641.5</ele>
        <time>2026-05-07T08:17:49.000Z</time>
      </trkpt>
      <trkpt lat="43.5931" lon="2.9563">
        <ele>641.7</ele>
        <time>2026-05-07T08:17:50.000Z</time>
      </trkpt>
      <trkpt lat="43.5931" lon="2.9563">
        <ele>641.9</ele>
        <time>2026-05-07T08:17:51.000Z</time>
      </trkpt>
      <trkpt lat="43.59311" lon="2.9563">
        <ele>642.2</ele>
        <time>2026-05-07T08:17:52.000Z</time>
      </trkpt>
      <trkpt lat="43.59311" lon="2.9563">
        <ele>642.3</ele>
        <time>2026-05-07T08:17:53.000Z</time>
      </trkpt>
      <trkpt lat="43.59311" lon="2.95628">
        <ele>642.4</ele>
        <time>2026-05-07T08:17:54.000Z</time>
      </trkpt>
      <trkpt lat="43.59311" lon="2.95626">
        <ele>642.4</ele>
        <time>2026-05-07T08:17:55.000Z</time>
      </trkpt>
      <trkpt lat="43.59311" lon="2.95626">
        <ele>642.7</ele>
        <time>2026-05-07T08:17:56.000Z</time>
      </trkpt>
      <trkpt lat="43.59311" lon="2.95625">
        <ele>643.1</ele>
        <time>2026-05-07T08:17:57.000Z</time>
      </trkpt>
      <trkpt lat="43.59311" lon="2.95625">
        <ele>643.4</ele>
        <time>2026-05-07T08:17:58.000Z</time>
      </trkpt>
      <trkpt lat="43.59311" lon="2.95625">
        <ele>643.7</ele>
        <time>2026-05-07T08:17:59.000Z</time>
      </trkpt>
      <trkpt lat="43.59311" lon="2.95625">
        <ele>644.1</ele>
        <time>2026-05-07T08:18:01.000Z</time>
      </trkpt>
      <trkpt lat="43.59311" lon="2.95625">
        <ele>644</ele>
        <time>2026-05-07T08:18:02.000Z</time>
      </trkpt>
      <trkpt lat="43.59311" lon="2.95623">
        <ele>644</ele>
        <time>2026-05-07T08:18:03.000Z</time>
      </trkpt>
      <trkpt lat="43.59311" lon="2.95623">
        <ele>643.8</ele>
        <time>2026-05-07T08:18:04.000Z</time>
      </trkpt>
      <trkpt lat="43.59311" lon="2.95624">
        <ele>643.8</ele>
        <time>2026-05-07T08:18:05.000Z</time>
      </trkpt>
      <trkpt lat="43.59311" lon="2.95623">
        <ele>643.4</ele>
        <time>2026-05-07T08:18:06.000Z</time>
      </trkpt>
      <trkpt lat="43.59311" lon="2.95622">
        <ele>643.7</ele>
        <time>2026-05-07T08:18:07.000Z</time>
      </trkpt>
      <trkpt lat="43.59311" lon="2.9562">
        <ele>644.1</ele>
        <time>2026-05-07T08:18:08.000Z</time>
      </trkpt>
      <trkpt lat="43.59312" lon="2.95619">
        <ele>644.1</ele>
        <time>2026-05-07T08:18:09.000Z</time>
      </trkpt>
      <trkpt lat="43.59312" lon="2.95617">
        <ele>643.9</ele>
        <time>2026-05-07T08:18:10.000Z</time>
      </trkpt>
      <trkpt lat="43.59312" lon="2.95616">
        <ele>644.1</ele>
        <time>2026-05-07T08:18:11.000Z</time>
      </trkpt>
      <trkpt lat="43.59312" lon="2.95615">
        <ele>644.7</ele>
        <time>2026-05-07T08:18:13.000Z</time>
      </trkpt>
      <trkpt lat="43.59312" lon="2.95615">
        <ele>645.3</ele>
        <time>2026-05-07T08:18:14.000Z</time>
      </trkpt>
      <trkpt lat="43.59312" lon="2.95615">
        <ele>645.9</ele>
        <time>2026-05-07T08:18:15.000Z</time>
      </trkpt>
      <trkpt lat="43.59312" lon="2.95613">
        <ele>646.2</ele>
        <time>2026-05-07T08:18:16.000Z</time>
      </trkpt>
      <trkpt lat="43.59312" lon="2.95613">
        <ele>646.7</ele>
        <time>2026-05-07T08:18:17.000Z</time>
      </trkpt>
      <trkpt lat="43.59312" lon="2.95612">
        <ele>647.1</ele>
        <time>2026-05-07T08:18:18.000Z</time>
      </trkpt>
      <trkpt lat="43.59313" lon="2.95614">
        <ele>648.1</ele>
        <time>2026-05-07T08:18:20.000Z</time>
      </trkpt>
      <trkpt lat="43.59314" lon="2.95614">
        <ele>648.1</ele>
        <time>2026-05-07T08:18:21.000Z</time>
      </trkpt>
      <trkpt lat="43.59315" lon="2.95615">
        <ele>647.9</ele>
        <time>2026-05-07T08:18:22.000Z</time>
      </trkpt>
      <trkpt lat="43.59314" lon="2.95616">
        <ele>647.9</ele>
        <time>2026-05-07T08:18:23.000Z</time>
      </trkpt>
      <trkpt lat="43.59315" lon="2.95616">
        <ele>647.7</ele>
        <time>2026-05-07T08:18:24.000Z</time>
      </trkpt>
      <trkpt lat="43.59315" lon="2.95616">
        <ele>647.9</ele>
        <time>2026-05-07T08:18:25.000Z</time>
      </trkpt>
      <trkpt lat="43.59315" lon="2.95616">
        <ele>647.8</ele>
        <time>2026-05-07T08:18:26.000Z</time>
      </trkpt>
      <trkpt lat="43.59315" lon="2.95616">
        <ele>648</ele>
        <time>2026-05-07T08:18:27.000Z</time>
      </trkpt>
      <trkpt lat="43.59315" lon="2.95616">
        <ele>648.3</ele>
        <time>2026-05-07T08:18:28.000Z</time>
      </trkpt>
      <trkpt lat="43.59316" lon="2.95617">
        <ele>648.7</ele>
        <time>2026-05-07T08:18:29.000Z</time>
      </trkpt>
      <trkpt lat="43.59317" lon="2.95618">
        <ele>648.6</ele>
        <time>2026-05-07T08:18:30.000Z</time>
      </trkpt>
      <trkpt lat="43.59317" lon="2.95619">
        <ele>648.8</ele>
        <time>2026-05-07T08:18:31.000Z</time>
      </trkpt>
      <trkpt lat="43.59318" lon="2.95619">
        <ele>648.9</ele>
        <time>2026-05-07T08:18:32.000Z</time>
      </trkpt>
      <trkpt lat="43.59318" lon="2.95617">
        <ele>648.9</ele>
        <time>2026-05-07T08:18:33.000Z</time>
      </trkpt>
      <trkpt lat="43.59319" lon="2.95616">
        <ele>649.1</ele>
        <time>2026-05-07T08:18:35.000Z</time>
      </trkpt>
      <trkpt lat="43.59319" lon="2.95616">
        <ele>649.6</ele>
        <time>2026-05-07T08:18:36.000Z</time>
      </trkpt>
      <trkpt lat="43.59319" lon="2.95616">
        <ele>649.7</ele>
        <time>2026-05-07T08:18:37.000Z</time>
      </trkpt>
      <trkpt lat="43.59319" lon="2.95616">
        <ele>649.9</ele>
        <time>2026-05-07T08:18:38.000Z</time>
      </trkpt>
      <trkpt lat="43.59319" lon="2.95618">
        <ele>650.1</ele>
        <time>2026-05-07T08:18:39.000Z</time>
      </trkpt>
      <trkpt lat="43.5932" lon="2.95619">
        <ele>650.3</ele>
        <time>2026-05-07T08:18:40.000Z</time>
      </trkpt>
      <trkpt lat="43.5932" lon="2.9562">
        <ele>650.5</ele>
        <time>2026-05-07T08:18:41.000Z</time>
      </trkpt>
      <trkpt lat="43.59319" lon="2.95622">
        <ele>650.7</ele>
        <time>2026-05-07T08:18:42.000Z</time>
      </trkpt>
      <trkpt lat="43.59319" lon="2.95622">
        <ele>650.9</ele>
        <time>2026-05-07T08:18:43.000Z</time>
      </trkpt>
      <trkpt lat="43.59319" lon="2.95624">
        <ele>651.7</ele>
        <time>2026-05-07T08:18:44.000Z</time>
      </trkpt>
      <trkpt lat="43.59319" lon="2.95624">
        <ele>651.9</ele>
        <time>2026-05-07T08:18:45.000Z</time>
      </trkpt>
      <trkpt lat="43.59319" lon="2.95624">
        <ele>651.8</ele>
        <time>2026-05-07T08:18:46.000Z</time>
      </trkpt>
      <trkpt lat="43.59319" lon="2.95624">
        <ele>651.9</ele>
        <time>2026-05-07T08:18:47.000Z</time>
      </trkpt>
      <trkpt lat="43.59319" lon="2.95624">
        <ele>651.9</ele>
        <time>2026-05-07T08:18:48.000Z</time>
      </trkpt>
      <trkpt lat="43.59319" lon="2.95624">
        <ele>652.1</ele>
        <time>2026-05-07T08:18:49.000Z</time>
      </trkpt>
      <trkpt lat="43.59319" lon="2.95624">
        <ele>652.7</ele>
        <time>2026-05-07T08:18:50.000Z</time>
      </trkpt>
      <trkpt lat="43.59319" lon="2.95624">
        <ele>653</ele>
        <time>2026-05-07T08:18:51.000Z</time>
      </trkpt>
      <trkpt lat="43.59319" lon="2.95625">
        <ele>653.1</ele>
        <time>2026-05-07T08:18:52.000Z</time>
      </trkpt>
      <trkpt lat="43.59319" lon="2.95625">
        <ele>653.2</ele>
        <time>2026-05-07T08:18:53.000Z</time>
      </trkpt>
      <trkpt lat="43.59319" lon="2.95625">
        <ele>653.2</ele>
        <time>2026-05-07T08:18:54.000Z</time>
      </trkpt>
      <trkpt lat="43.59319" lon="2.95625">
        <ele>653.5</ele>
        <time>2026-05-07T08:18:55.000Z</time>
      </trkpt>
      <trkpt lat="43.59319" lon="2.95626">
        <ele>653.3</ele>
        <time>2026-05-07T08:18:56.000Z</time>
      </trkpt>
      <trkpt lat="43.5932" lon="2.95626">
        <ele>653.3</ele>
        <time>2026-05-07T08:18:57.000Z</time>
      </trkpt>
      <trkpt lat="43.59321" lon="2.95626">
        <ele>653.7</ele>
        <time>2026-05-07T08:18:58.000Z</time>
      </trkpt>
      <trkpt lat="43.59321" lon="2.95626">
        <ele>654.2</ele>
        <time>2026-05-07T08:18:59.000Z</time>
      </trkpt>
      <trkpt lat="43.59321" lon="2.95625">
        <ele>654.4</ele>
        <time>2026-05-07T08:19:01.000Z</time>
      </trkpt>
      <trkpt lat="43.59321" lon="2.95624">
        <ele>654.5</ele>
        <time>2026-05-07T08:19:02.000Z</time>
      </trkpt>
      <trkpt lat="43.59321" lon="2.95623">
        <ele>654.8</ele>
        <time>2026-05-07T08:19:03.000Z</time>
      </trkpt>
      <trkpt lat="43.59321" lon="2.95623">
        <ele>655.2</ele>
        <time>2026-05-07T08:19:04.000Z</time>
      </trkpt>
      <trkpt lat="43.59321" lon="2.95623">
        <ele>655.3</ele>
        <time>2026-05-07T08:19:05.000Z</time>
      </trkpt>
      <trkpt lat="43.59321" lon="2.95623">
        <ele>655.2</ele>
        <time>2026-05-07T08:19:06.000Z</time>
      </trkpt>
      <trkpt lat="43.59321" lon="2.95622">
        <ele>655.1</ele>
        <time>2026-05-07T08:19:07.000Z</time>
      </trkpt>
      <trkpt lat="43.59321" lon="2.95622">
        <ele>654.7</ele>
        <time>2026-05-07T08:19:08.000Z</time>
      </trkpt>
      <trkpt lat="43.59322" lon="2.95621">
        <ele>654.8</ele>
        <time>2026-05-07T08:19:09.000Z</time>
      </trkpt>
      <trkpt lat="43.59322" lon="2.9562">
        <ele>654.8</ele>
        <time>2026-05-07T08:19:10.000Z</time>
      </trkpt>
      <trkpt lat="43.59322" lon="2.95619">
        <ele>654.6</ele>
        <time>2026-05-07T08:19:11.000Z</time>
      </trkpt>
      <trkpt lat="43.59322" lon="2.95618">
        <ele>655.3</ele>
        <time>2026-05-07T08:19:13.000Z</time>
      </trkpt>
      <trkpt lat="43.59322" lon="2.95618">
        <ele>655.6</ele>
        <time>2026-05-07T08:19:14.000Z</time>
      </trkpt>
      <trkpt lat="43.59322" lon="2.95618">
        <ele>655.5</ele>
        <time>2026-05-07T08:19:15.000Z</time>
      </trkpt>
      <trkpt lat="43.59322" lon="2.95618">
        <ele>655.3</ele>
        <time>2026-05-07T08:19:16.000Z</time>
      </trkpt>
      <trkpt lat="43.59322" lon="2.95618">
        <ele>655.3</ele>
        <time>2026-05-07T08:19:17.000Z</time>
      </trkpt>
      <trkpt lat="43.59322" lon="2.95618">
        <ele>655.2</ele>
        <time>2026-05-07T08:19:18.000Z</time>
      </trkpt>
      <trkpt lat="43.59322" lon="2.95618">
        <ele>655</ele>
        <time>2026-05-07T08:19:19.000Z</time>
      </trkpt>
      <trkpt lat="43.59321" lon="2.95618">
        <ele>655</ele>
        <time>2026-05-07T08:19:20.000Z</time>
      </trkpt>
      <trkpt lat="43.59322" lon="2.95618">
        <ele>655</ele>
        <time>2026-05-07T08:19:21.000Z</time>
      </trkpt>
      <trkpt lat="43.59322" lon="2.95617">
        <ele>655.2</ele>
        <time>2026-05-07T08:19:22.000Z</time>
      </trkpt>
      <trkpt lat="43.59323" lon="2.95617">
        <ele>655.1</ele>
        <time>2026-05-07T08:19:23.000Z</time>
      </trkpt>
      <trkpt lat="43.59323" lon="2.95616">
        <ele>655.1</ele>
        <time>2026-05-07T08:19:24.000Z</time>
      </trkpt>
      <trkpt lat="43.59324" lon="2.95615">
        <ele>655</ele>
        <time>2026-05-07T08:19:25.000Z</time>
      </trkpt>
      <trkpt lat="43.59325" lon="2.95614">
        <ele>655</ele>
        <time>2026-05-07T08:19:26.000Z</time>
      </trkpt>
      <trkpt lat="43.59325" lon="2.95613">
        <ele>655</ele>
        <time>2026-05-07T08:19:27.000Z</time>
      </trkpt>
      <trkpt lat="43.59325" lon="2.95613">
        <ele>654.8</ele>
        <time>2026-05-07T08:19:28.000Z</time>
      </trkpt>
      <trkpt lat="43.59325" lon="2.95613">
        <ele>654.6</ele>
        <time>2026-05-07T08:19:29.000Z</time>
      </trkpt>
      <trkpt lat="43.59325" lon="2.95613">
        <ele>654.6</ele>
        <time>2026-05-07T08:19:30.000Z</time>
      </trkpt>
      <trkpt lat="43.59325" lon="2.95613">
        <ele>654.9</ele>
        <time>2026-05-07T08:19:31.000Z</time>
      </trkpt>
      <trkpt lat="43.59325" lon="2.95613">
        <ele>655.1</ele>
        <time>2026-05-07T08:19:32.000Z</time>
      </trkpt>
      <trkpt lat="43.59325" lon="2.95613">
        <ele>655.1</ele>
        <time>2026-05-07T08:19:33.000Z</time>
      </trkpt>
      <trkpt lat="43.59325" lon="2.95613">
        <ele>655.2</ele>
        <time>2026-05-07T08:19:34.000Z</time>
      </trkpt>
      <trkpt lat="43.59325" lon="2.95613">
        <ele>655.2</ele>
        <time>2026-05-07T08:19:35.000Z</time>
      </trkpt>
      <trkpt lat="43.59325" lon="2.95613">
        <ele>655.3</ele>
        <time>2026-05-07T08:19:36.000Z</time>
      </trkpt>
      <trkpt lat="43.59325" lon="2.95614">
        <ele>655.4</ele>
        <time>2026-05-07T08:19:37.000Z</time>
      </trkpt>
      <trkpt lat="43.59325" lon="2.95614">
        <ele>655.5</ele>
        <time>2026-05-07T08:19:38.000Z</time>
      </trkpt>
      <trkpt lat="43.59326" lon="2.95615">
        <ele>655.8</ele>
        <time>2026-05-07T08:19:39.000Z</time>
      </trkpt>
      <trkpt lat="43.59326" lon="2.95616">
        <ele>656.3</ele>
        <time>2026-05-07T08:19:40.000Z</time>
      </trkpt>
      <trkpt lat="43.59326" lon="2.95616">
        <ele>657</ele>
        <time>2026-05-07T08:19:41.000Z</time>
      </trkpt>
      <trkpt lat="43.59326" lon="2.95615">
        <ele>657.1</ele>
        <time>2026-05-07T08:19:42.000Z</time>
      </trkpt>
      <trkpt lat="43.59326" lon="2.95615">
        <ele>657.6</ele>
        <time>2026-05-07T08:19:43.000Z</time>
      </trkpt>
      <trkpt lat="43.59326" lon="2.95615">
        <ele>658</ele>
        <time>2026-05-07T08:19:44.000Z</time>
      </trkpt>
      <trkpt lat="43.59326" lon="2.95615">
        <ele>658.1</ele>
        <time>2026-05-07T08:19:45.000Z</time>
      </trkpt>
      <trkpt lat="43.59326" lon="2.95615">
        <ele>658.6</ele>
        <time>2026-05-07T08:19:46.000Z</time>
      </trkpt>
      <trkpt lat="43.59326" lon="2.95615">
        <ele>658.8</ele>
        <time>2026-05-07T08:19:47.000Z</time>
      </trkpt>
      <trkpt lat="43.59327" lon="2.95615">
        <ele>658.8</ele>
        <time>2026-05-07T08:19:48.000Z</time>
      </trkpt>
      <trkpt lat="43.59327" lon="2.95614">
        <ele>659</ele>
        <time>2026-05-07T08:19:49.000Z</time>
      </trkpt>
      <trkpt lat="43.59327" lon="2.95614">
        <ele>659.2</ele>
        <time>2026-05-07T08:19:50.000Z</time>
      </trkpt>
      <trkpt lat="43.59327" lon="2.95614">
        <ele>659.4</ele>
        <time>2026-05-07T08:19:51.000Z</time>
      </trkpt>
      <trkpt lat="43.59327" lon="2.95613">
        <ele>659.7</ele>
        <time>2026-05-07T08:19:52.000Z</time>
      </trkpt>
      <trkpt lat="43.59328" lon="2.95612">
        <ele>659.8</ele>
        <time>2026-05-07T08:19:53.000Z</time>
      </trkpt>
      <trkpt lat="43.59329" lon="2.95612">
        <ele>660.3</ele>
        <time>2026-05-07T08:19:55.000Z</time>
      </trkpt>
      <trkpt lat="43.59329" lon="2.95612">
        <ele>660.5</ele>
        <time>2026-05-07T08:19:56.000Z</time>
      </trkpt>
      <trkpt lat="43.59329" lon="2.95612">
        <ele>660.5</ele>
        <time>2026-05-07T08:19:57.000Z</time>
      </trkpt>
      <trkpt lat="43.59329" lon="2.95612">
        <ele>660.5</ele>
        <time>2026-05-07T08:19:58.000Z</time>
      </trkpt>
      <trkpt lat="43.59329" lon="2.95611">
        <ele>660.8</ele>
        <time>2026-05-07T08:19:59.000Z</time>
      </trkpt>
      <trkpt lat="43.5933" lon="2.95611">
        <ele>661.1</ele>
        <time>2026-05-07T08:20:00.000Z</time>
      </trkpt>
      <trkpt lat="43.59331" lon="2.9561">
        <ele>660.9</ele>
        <time>2026-05-07T08:20:01.000Z</time>
      </trkpt>
      <trkpt lat="43.59331" lon="2.95609">
        <ele>661</ele>
        <time>2026-05-07T08:20:02.000Z</time>
      </trkpt>
      <trkpt lat="43.59331" lon="2.95607">
        <ele>661.3</ele>
        <time>2026-05-07T08:20:03.000Z</time>
      </trkpt>
      <trkpt lat="43.59331" lon="2.95607">
        <ele>661.3</ele>
        <time>2026-05-07T08:20:04.000Z</time>
      </trkpt>
      <trkpt lat="43.59331" lon="2.95606">
        <ele>661.6</ele>
        <time>2026-05-07T08:20:05.000Z</time>
      </trkpt>
      <trkpt lat="43.59332" lon="2.95605">
        <ele>662</ele>
        <time>2026-05-07T08:20:06.000Z</time>
      </trkpt>
      <trkpt lat="43.59332" lon="2.95604">
        <ele>662.2</ele>
        <time>2026-05-07T08:20:07.000Z</time>
      </trkpt>
      <trkpt lat="43.59332" lon="2.95604">
        <ele>662.4</ele>
        <time>2026-05-07T08:20:08.000Z</time>
      </trkpt>
      <trkpt lat="43.59332" lon="2.95604">
        <ele>662.5</ele>
        <time>2026-05-07T08:20:09.000Z</time>
      </trkpt>
      <trkpt lat="43.59332" lon="2.95603">
        <ele>662.7</ele>
        <time>2026-05-07T08:20:10.000Z</time>
      </trkpt>
      <trkpt lat="43.59331" lon="2.95602">
        <ele>662.9</ele>
        <time>2026-05-07T08:20:11.000Z</time>
      </trkpt>
      <trkpt lat="43.59331" lon="2.95602">
        <ele>663.1</ele>
        <time>2026-05-07T08:20:12.000Z</time>
      </trkpt>
      <trkpt lat="43.59332" lon="2.95602">
        <ele>663.2</ele>
        <time>2026-05-07T08:20:13.000Z</time>
      </trkpt>
      <trkpt lat="43.59332" lon="2.95602">
        <ele>663.2</ele>
        <time>2026-05-07T08:20:14.000Z</time>
      </trkpt>
      <trkpt lat="43.59332" lon="2.95603">
        <ele>663.1</ele>
        <time>2026-05-07T08:20:15.000Z</time>
      </trkpt>
      <trkpt lat="43.59332" lon="2.95603">
        <ele>663.1</ele>
        <time>2026-05-07T08:20:16.000Z</time>
      </trkpt>
      <trkpt lat="43.59333" lon="2.95603">
        <ele>663.1</ele>
        <time>2026-05-07T08:20:17.000Z</time>
      </trkpt>
      <trkpt lat="43.59334" lon="2.95605">
        <ele>663.1</ele>
        <time>2026-05-07T08:20:18.000Z</time>
      </trkpt>
      <trkpt lat="43.59334" lon="2.95605">
        <ele>663.3</ele>
        <time>2026-05-07T08:20:19.000Z</time>
      </trkpt>
      <trkpt lat="43.59335" lon="2.95605">
        <ele>663.4</ele>
        <time>2026-05-07T08:20:20.000Z</time>
      </trkpt>
      <trkpt lat="43.59335" lon="2.95605">
        <ele>663.5</ele>
        <time>2026-05-07T08:20:21.000Z</time>
      </trkpt>
      <trkpt lat="43.59336" lon="2.95605">
        <ele>663.6</ele>
        <time>2026-05-07T08:20:22.000Z</time>
      </trkpt>
      <trkpt lat="43.59337" lon="2.95606">
        <ele>663.8</ele>
        <time>2026-05-07T08:20:23.000Z</time>
      </trkpt>
      <trkpt lat="43.59338" lon="2.95606">
        <ele>663.7</ele>
        <time>2026-05-07T08:20:24.000Z</time>
      </trkpt>
      <trkpt lat="43.59339" lon="2.95607">
        <ele>664.1</ele>
        <time>2026-05-07T08:20:25.000Z</time>
      </trkpt>
      <trkpt lat="43.59339" lon="2.95608">
        <ele>664.5</ele>
        <time>2026-05-07T08:20:26.000Z</time>
      </trkpt>
      <trkpt lat="43.59341" lon="2.95609">
        <ele>664.9</ele>
        <time>2026-05-07T08:20:27.000Z</time>
      </trkpt>
      <trkpt lat="43.59342" lon="2.95608">
        <ele>664.9</ele>
        <time>2026-05-07T08:20:28.000Z</time>
      </trkpt>
      <trkpt lat="43.59342" lon="2.95608">
        <ele>664.9</ele>
        <time>2026-05-07T08:20:29.000Z</time>
      </trkpt>
      <trkpt lat="43.59343" lon="2.95609">
        <ele>665.2</ele>
        <time>2026-05-07T08:20:30.000Z</time>
      </trkpt>
      <trkpt lat="43.59343" lon="2.9561">
        <ele>665.4</ele>
        <time>2026-05-07T08:20:31.000Z</time>
      </trkpt>
      <trkpt lat="43.59343" lon="2.95611">
        <ele>665.3</ele>
        <time>2026-05-07T08:20:32.000Z</time>
      </trkpt>
      <trkpt lat="43.59343" lon="2.95612">
        <ele>665.6</ele>
        <time>2026-05-07T08:20:33.000Z</time>
      </trkpt>
      <trkpt lat="43.59342" lon="2.95613">
        <ele>665.5</ele>
        <time>2026-05-07T08:20:34.000Z</time>
      </trkpt>
      <trkpt lat="43.59343" lon="2.95614">
        <ele>665.9</ele>
        <time>2026-05-07T08:20:35.000Z</time>
      </trkpt>
      <trkpt lat="43.59343" lon="2.95615">
        <ele>665.9</ele>
        <time>2026-05-07T08:20:36.000Z</time>
      </trkpt>
      <trkpt lat="43.59343" lon="2.95616">
        <ele>665.2</ele>
        <time>2026-05-07T08:20:37.000Z</time>
      </trkpt>
      <trkpt lat="43.59343" lon="2.95617">
        <ele>666.2</ele>
        <time>2026-05-07T08:20:38.000Z</time>
      </trkpt>
      <trkpt lat="43.59343" lon="2.95617">
        <ele>666.8</ele>
        <time>2026-05-07T08:20:39.000Z</time>
      </trkpt>
      <trkpt lat="43.59343" lon="2.95617">
        <ele>666.9</ele>
        <time>2026-05-07T08:20:40.000Z</time>
      </trkpt>
      <trkpt lat="43.59343" lon="2.95617">
        <ele>666.8</ele>
        <time>2026-05-07T08:20:41.000Z</time>
      </trkpt>
      <trkpt lat="43.59343" lon="2.95617">
        <ele>666.5</ele>
        <time>2026-05-07T08:20:42.000Z</time>
      </trkpt>
      <trkpt lat="43.59343" lon="2.95617">
        <ele>666.3</ele>
        <time>2026-05-07T08:20:43.000Z</time>
      </trkpt>
      <trkpt lat="43.59343" lon="2.95617">
        <ele>666.5</ele>
        <time>2026-05-07T08:20:44.000Z</time>
      </trkpt>
      <trkpt lat="43.59343" lon="2.95618">
        <ele>666.3</ele>
        <time>2026-05-07T08:20:45.000Z</time>
      </trkpt>
      <trkpt lat="43.59344" lon="2.95618">
        <ele>666.1</ele>
        <time>2026-05-07T08:20:46.000Z</time>
      </trkpt>
      <trkpt lat="43.59344" lon="2.95618">
        <ele>666.1</ele>
        <time>2026-05-07T08:20:47.000Z</time>
      </trkpt>
      <trkpt lat="43.59344" lon="2.95618">
        <ele>666.8</ele>
        <time>2026-05-07T08:20:48.000Z</time>
      </trkpt>
      <trkpt lat="43.59344" lon="2.95618">
        <ele>667</ele>
        <time>2026-05-07T08:20:49.000Z</time>
      </trkpt>
      <trkpt lat="43.59345" lon="2.95618">
        <ele>667.4</ele>
        <time>2026-05-07T08:20:50.000Z</time>
      </trkpt>
      <trkpt lat="43.59345" lon="2.95618">
        <ele>667.7</ele>
        <time>2026-05-07T08:20:51.000Z</time>
      </trkpt>
      <trkpt lat="43.59345" lon="2.95618">
        <ele>667.8</ele>
        <time>2026-05-07T08:20:52.000Z</time>
      </trkpt>
      <trkpt lat="43.59345" lon="2.95618">
        <ele>667.5</ele>
        <time>2026-05-07T08:20:53.000Z</time>
      </trkpt>
      <trkpt lat="43.59345" lon="2.95619">
        <ele>667.5</ele>
        <time>2026-05-07T08:20:54.000Z</time>
      </trkpt>
      <trkpt lat="43.59346" lon="2.9562">
        <ele>667.4</ele>
        <time>2026-05-07T08:20:55.000Z</time>
      </trkpt>
      <trkpt lat="43.59346" lon="2.95621">
        <ele>667.5</ele>
        <time>2026-05-07T08:20:56.000Z</time>
      </trkpt>
      <trkpt lat="43.59347" lon="2.95622">
        <ele>667.7</ele>
        <time>2026-05-07T08:20:57.000Z</time>
      </trkpt>
      <trkpt lat="43.59347" lon="2.95622">
        <ele>668.1</ele>
        <time>2026-05-07T08:20:58.000Z</time>
      </trkpt>
      <trkpt lat="43.59347" lon="2.95623">
        <ele>668.6</ele>
        <time>2026-05-07T08:20:59.000Z</time>
      </trkpt>
      <trkpt lat="43.59348" lon="2.95623">
        <ele>668.4</ele>
        <time>2026-05-07T08:21:00.000Z</time>
      </trkpt>
      <trkpt lat="43.59349" lon="2.95623">
        <ele>668.1</ele>
        <time>2026-05-07T08:21:01.000Z</time>
      </trkpt>
      <trkpt lat="43.59349" lon="2.95623">
        <ele>668.4</ele>
        <time>2026-05-07T08:21:02.000Z</time>
      </trkpt>
      <trkpt lat="43.59351" lon="2.95623">
        <ele>668.3</ele>
        <time>2026-05-07T08:21:03.000Z</time>
      </trkpt>
      <trkpt lat="43.59352" lon="2.95623">
        <ele>668.6</ele>
        <time>2026-05-07T08:21:04.000Z</time>
      </trkpt>
      <trkpt lat="43.59353" lon="2.95622">
        <ele>668.4</ele>
        <time>2026-05-07T08:21:05.000Z</time>
      </trkpt>
      <trkpt lat="43.59354" lon="2.9562">
        <ele>668.4</ele>
        <time>2026-05-07T08:21:06.000Z</time>
      </trkpt>
      <trkpt lat="43.59354" lon="2.9562">
        <ele>668.7</ele>
        <time>2026-05-07T08:21:07.000Z</time>
      </trkpt>
      <trkpt lat="43.59354" lon="2.95619">
        <ele>669</ele>
        <time>2026-05-07T08:21:09.000Z</time>
      </trkpt>
      <trkpt lat="43.59355" lon="2.95619">
        <ele>668.8</ele>
        <time>2026-05-07T08:21:10.000Z</time>
      </trkpt>
      <trkpt lat="43.59355" lon="2.95619">
        <ele>669.2</ele>
        <time>2026-05-07T08:21:11.000Z</time>
      </trkpt>
      <trkpt lat="43.59355" lon="2.95619">
        <ele>670.4</ele>
        <time>2026-05-07T08:21:12.000Z</time>
      </trkpt>
      <trkpt lat="43.59355" lon="2.95619">
        <ele>670.9</ele>
        <time>2026-05-07T08:21:13.000Z</time>
      </trkpt>
      <trkpt lat="43.59356" lon="2.95619">
        <ele>671.3</ele>
        <time>2026-05-07T08:21:14.000Z</time>
      </trkpt>
      <trkpt lat="43.59355" lon="2.9562">
        <ele>671.9</ele>
        <time>2026-05-07T08:21:15.000Z</time>
      </trkpt>
      <trkpt lat="43.59356" lon="2.95621">
        <ele>672.4</ele>
        <time>2026-05-07T08:21:16.000Z</time>
      </trkpt>
      <trkpt lat="43.59356" lon="2.95621">
        <ele>672.1</ele>
        <time>2026-05-07T08:21:17.000Z</time>
      </trkpt>
      <trkpt lat="43.59356" lon="2.95622">
        <ele>672</ele>
        <time>2026-05-07T08:21:18.000Z</time>
      </trkpt>
      <trkpt lat="43.59357" lon="2.95622">
        <ele>672.1</ele>
        <time>2026-05-07T08:21:19.000Z</time>
      </trkpt>
      <trkpt lat="43.59357" lon="2.95622">
        <ele>671.9</ele>
        <time>2026-05-07T08:21:20.000Z</time>
      </trkpt>
      <trkpt lat="43.59358" lon="2.95623">
        <ele>671.8</ele>
        <time>2026-05-07T08:21:21.000Z</time>
      </trkpt>
      <trkpt lat="43.59358" lon="2.95623">
        <ele>669.7</ele>
        <time>2026-05-07T08:21:22.000Z</time>
      </trkpt>
      <trkpt lat="43.59357" lon="2.95624">
        <ele>669.1</ele>
        <time>2026-05-07T08:21:23.000Z</time>
      </trkpt>
      <trkpt lat="43.59357" lon="2.95625">
        <ele>668.6</ele>
        <time>2026-05-07T08:21:24.000Z</time>
      </trkpt>
      <trkpt lat="43.59357" lon="2.95626">
        <ele>668.3</ele>
        <time>2026-05-07T08:21:25.000Z</time>
      </trkpt>
      <trkpt lat="43.59357" lon="2.95626">
        <ele>668.3</ele>
        <time>2026-05-07T08:21:26.000Z</time>
      </trkpt>
      <trkpt lat="43.59357" lon="2.95626">
        <ele>668.7</ele>
        <time>2026-05-07T08:21:27.000Z</time>
      </trkpt>
      <trkpt lat="43.59357" lon="2.95625">
        <ele>668.9</ele>
        <time>2026-05-07T08:21:28.000Z</time>
      </trkpt>
      <trkpt lat="43.59357" lon="2.95625">
        <ele>669.5</ele>
        <time>2026-05-07T08:21:29.000Z</time>
      </trkpt>
      <trkpt lat="43.59357" lon="2.95626">
        <ele>669.7</ele>
        <time>2026-05-07T08:21:30.000Z</time>
      </trkpt>
      <trkpt lat="43.59357" lon="2.95626">
        <ele>669.6</ele>
        <time>2026-05-07T08:21:31.000Z</time>
      </trkpt>
      <trkpt lat="43.59357" lon="2.95626">
        <ele>669.6</ele>
        <time>2026-05-07T08:21:32.000Z</time>
      </trkpt>
      <trkpt lat="43.59357" lon="2.95626">
        <ele>669.4</ele>
        <time>2026-05-07T08:21:33.000Z</time>
      </trkpt>
      <trkpt lat="43.59358" lon="2.95627">
        <ele>669.1</ele>
        <time>2026-05-07T08:21:34.000Z</time>
      </trkpt>
      <trkpt lat="43.59358" lon="2.95627">
        <ele>668.9</ele>
        <time>2026-05-07T08:21:35.000Z</time>
      </trkpt>
      <trkpt lat="43.59358" lon="2.95626">
        <ele>668.8</ele>
        <time>2026-05-07T08:21:36.000Z</time>
      </trkpt>
      <trkpt lat="43.59358" lon="2.95627">
        <ele>669</ele>
        <time>2026-05-07T08:21:37.000Z</time>
      </trkpt>
      <trkpt lat="43.59359" lon="2.95627">
        <ele>669</ele>
        <time>2026-05-07T08:21:38.000Z</time>
      </trkpt>
      <trkpt lat="43.59359" lon="2.95627">
        <ele>668.6</ele>
        <time>2026-05-07T08:21:39.000Z</time>
      </trkpt>
      <trkpt lat="43.59359" lon="2.95627">
        <ele>668.7</ele>
        <time>2026-05-07T08:21:40.000Z</time>
      </trkpt>
      <trkpt lat="43.59359" lon="2.95627">
        <ele>668.7</ele>
        <time>2026-05-07T08:21:41.000Z</time>
      </trkpt>
      <trkpt lat="43.59359" lon="2.95627">
        <ele>668.6</ele>
        <time>2026-05-07T08:21:42.000Z</time>
      </trkpt>
      <trkpt lat="43.59358" lon="2.95628">
        <ele>668.7</ele>
        <time>2026-05-07T08:21:43.000Z</time>
      </trkpt>
      <trkpt lat="43.59358" lon="2.95628">
        <ele>669.5</ele>
        <time>2026-05-07T08:21:44.000Z</time>
      </trkpt>
      <trkpt lat="43.59359" lon="2.95628">
        <ele>670.3</ele>
        <time>2026-05-07T08:21:45.000Z</time>
      </trkpt>
      <trkpt lat="43.59359" lon="2.95629">
        <ele>671.1</ele>
        <time>2026-05-07T08:21:46.000Z</time>
      </trkpt>
      <trkpt lat="43.59359" lon="2.9563">
        <ele>671.3</ele>
        <time>2026-05-07T08:21:47.000Z</time>
      </trkpt>
      <trkpt lat="43.59359" lon="2.9563">
        <ele>671.4</ele>
        <time>2026-05-07T08:21:48.000Z</time>
      </trkpt>
      <trkpt lat="43.5936" lon="2.95631">
        <ele>671.3</ele>
        <time>2026-05-07T08:21:49.000Z</time>
      </trkpt>
      <trkpt lat="43.5936" lon="2.95631">
        <ele>671.6</ele>
        <time>2026-05-07T08:21:50.000Z</time>
      </trkpt>
      <trkpt lat="43.59361" lon="2.95631">
        <ele>671.3</ele>
        <time>2026-05-07T08:21:51.000Z</time>
      </trkpt>
      <trkpt lat="43.59362" lon="2.95631">
        <ele>670.7</ele>
        <time>2026-05-07T08:21:52.000Z</time>
      </trkpt>
      <trkpt lat="43.59363" lon="2.95631">
        <ele>670.6</ele>
        <time>2026-05-07T08:21:53.000Z</time>
      </trkpt>
      <trkpt lat="43.59363" lon="2.95632">
        <ele>670.5</ele>
        <time>2026-05-07T08:21:54.000Z</time>
      </trkpt>
      <trkpt lat="43.59363" lon="2.95632">
        <ele>670.2</ele>
        <time>2026-05-07T08:21:55.000Z</time>
      </trkpt>
      <trkpt lat="43.59364" lon="2.95633">
        <ele>669.3</ele>
        <time>2026-05-07T08:21:56.000Z</time>
      </trkpt>
      <trkpt lat="43.59365" lon="2.95634">
        <ele>668.4</ele>
        <time>2026-05-07T08:21:57.000Z</time>
      </trkpt>
      <trkpt lat="43.59365" lon="2.95635">
        <ele>668.4</ele>
        <time>2026-05-07T08:21:58.000Z</time>
      </trkpt>
      <trkpt lat="43.59366" lon="2.95635">
        <ele>667.7</ele>
        <time>2026-05-07T08:21:59.000Z</time>
      </trkpt>
      <trkpt lat="43.59367" lon="2.95636">
        <ele>667.2</ele>
        <time>2026-05-07T08:22:00.000Z</time>
      </trkpt>
      <trkpt lat="43.59367" lon="2.95636">
        <ele>666.5</ele>
        <time>2026-05-07T08:22:01.000Z</time>
      </trkpt>
      <trkpt lat="43.59367" lon="2.95635">
        <ele>667.4</ele>
        <time>2026-05-07T08:22:02.000Z</time>
      </trkpt>
      <trkpt lat="43.59368" lon="2.95636">
        <ele>667.5</ele>
        <time>2026-05-07T08:22:03.000Z</time>
      </trkpt>
      <trkpt lat="43.59368" lon="2.95635">
        <ele>667.5</ele>
        <time>2026-05-07T08:22:04.000Z</time>
      </trkpt>
      <trkpt lat="43.59369" lon="2.95636">
        <ele>667</ele>
        <time>2026-05-07T08:22:05.000Z</time>
      </trkpt>
      <trkpt lat="43.5937" lon="2.95637">
        <ele>666.6</ele>
        <time>2026-05-07T08:22:06.000Z</time>
      </trkpt>
      <trkpt lat="43.5937" lon="2.95636">
        <ele>666.4</ele>
        <time>2026-05-07T08:22:07.000Z</time>
      </trkpt>
      <trkpt lat="43.5937" lon="2.95637">
        <ele>666.1</ele>
        <time>2026-05-07T08:22:08.000Z</time>
      </trkpt>
      <trkpt lat="43.5937" lon="2.95637">
        <ele>665.7</ele>
        <time>2026-05-07T08:22:09.000Z</time>
      </trkpt>
      <trkpt lat="43.59371" lon="2.95639">
        <ele>665.1</ele>
        <time>2026-05-07T08:22:10.000Z</time>
      </trkpt>
      <trkpt lat="43.59371" lon="2.95641">
        <ele>664.4</ele>
        <time>2026-05-07T08:22:11.000Z</time>
      </trkpt>
      <trkpt lat="43.59371" lon="2.95642">
        <ele>664.3</ele>
        <time>2026-05-07T08:22:12.000Z</time>
      </trkpt>
      <trkpt lat="43.59371" lon="2.95642">
        <ele>664.8</ele>
        <time>2026-05-07T08:22:13.000Z</time>
      </trkpt>
      <trkpt lat="43.59372" lon="2.95643">
        <ele>665.3</ele>
        <time>2026-05-07T08:22:14.000Z</time>
      </trkpt>
      <trkpt lat="43.59373" lon="2.95643">
        <ele>665.9</ele>
        <time>2026-05-07T08:22:15.000Z</time>
      </trkpt>
      <trkpt lat="43.59373" lon="2.95644">
        <ele>666.1</ele>
        <time>2026-05-07T08:22:16.000Z</time>
      </trkpt>
      <trkpt lat="43.59373" lon="2.95644">
        <ele>666.5</ele>
        <time>2026-05-07T08:22:17.000Z</time>
      </trkpt>
      <trkpt lat="43.59373" lon="2.95644">
        <ele>667.1</ele>
        <time>2026-05-07T08:22:18.000Z</time>
      </trkpt>
      <trkpt lat="43.59374" lon="2.95645">
        <ele>666.9</ele>
        <time>2026-05-07T08:22:19.000Z</time>
      </trkpt>
      <trkpt lat="43.59374" lon="2.95645">
        <ele>666.7</ele>
        <time>2026-05-07T08:22:20.000Z</time>
      </trkpt>
      <trkpt lat="43.59375" lon="2.95645">
        <ele>666.6</ele>
        <time>2026-05-07T08:22:21.000Z</time>
      </trkpt>
      <trkpt lat="43.59375" lon="2.95646">
        <ele>667</ele>
        <time>2026-05-07T08:22:22.000Z</time>
      </trkpt>
      <trkpt lat="43.59376" lon="2.95646">
        <ele>667</ele>
        <time>2026-05-07T08:22:23.000Z</time>
      </trkpt>
      <trkpt lat="43.59376" lon="2.95646">
        <ele>667.2</ele>
        <time>2026-05-07T08:22:24.000Z</time>
      </trkpt>
      <trkpt lat="43.59377" lon="2.95646">
        <ele>667.2</ele>
        <time>2026-05-07T08:22:25.000Z</time>
      </trkpt>
      <trkpt lat="43.59377" lon="2.95646">
        <ele>667.2</ele>
        <time>2026-05-07T08:22:26.000Z</time>
      </trkpt>
      <trkpt lat="43.59378" lon="2.95645">
        <ele>667.7</ele>
        <time>2026-05-07T08:22:27.000Z</time>
      </trkpt>
      <trkpt lat="43.59378" lon="2.95645">
        <ele>667.9</ele>
        <time>2026-05-07T08:22:28.000Z</time>
      </trkpt>
      <trkpt lat="43.59379" lon="2.95646">
        <ele>668</ele>
        <time>2026-05-07T08:22:29.000Z</time>
      </trkpt>
      <trkpt lat="43.59379" lon="2.95647">
        <ele>668.5</ele>
        <time>2026-05-07T08:22:30.000Z</time>
      </trkpt>
      <trkpt lat="43.5938" lon="2.95648">
        <ele>668.7</ele>
        <time>2026-05-07T08:22:31.000Z</time>
      </trkpt>
      <trkpt lat="43.5938" lon="2.95648">
        <ele>668.9</ele>
        <time>2026-05-07T08:22:32.000Z</time>
      </trkpt>
      <trkpt lat="43.59382" lon="2.95648">
        <ele>669.3</ele>
        <time>2026-05-07T08:22:33.000Z</time>
      </trkpt>
      <trkpt lat="43.59383" lon="2.95649">
        <ele>669.7</ele>
        <time>2026-05-07T08:22:34.000Z</time>
      </trkpt>
      <trkpt lat="43.59383" lon="2.9565">
        <ele>669.8</ele>
        <time>2026-05-07T08:22:35.000Z</time>
      </trkpt>
      <trkpt lat="43.59383" lon="2.95651">
        <ele>669.6</ele>
        <time>2026-05-07T08:22:36.000Z</time>
      </trkpt>
      <trkpt lat="43.59384" lon="2.95652">
        <ele>669.5</ele>
        <time>2026-05-07T08:22:37.000Z</time>
      </trkpt>
      <trkpt lat="43.59384" lon="2.95654">
        <ele>669.1</ele>
        <time>2026-05-07T08:22:38.000Z</time>
      </trkpt>
      <trkpt lat="43.59385" lon="2.95655">
        <ele>669</ele>
        <time>2026-05-07T08:22:39.000Z</time>
      </trkpt>
      <trkpt lat="43.59385" lon="2.95656">
        <ele>669.4</ele>
        <time>2026-05-07T08:22:40.000Z</time>
      </trkpt>
      <trkpt lat="43.59386" lon="2.95655">
        <ele>669.6</ele>
        <time>2026-05-07T08:22:41.000Z</time>
      </trkpt>
      <trkpt lat="43.59386" lon="2.95655">
        <ele>669.9</ele>
        <time>2026-05-07T08:22:42.000Z</time>
      </trkpt>
      <trkpt lat="43.59386" lon="2.95655">
        <ele>669.1</ele>
        <time>2026-05-07T08:22:44.000Z</time>
      </trkpt>
      <trkpt lat="43.59387" lon="2.95654">
        <ele>669.1</ele>
        <time>2026-05-07T08:22:45.000Z</time>
      </trkpt>
      <trkpt lat="43.59388" lon="2.95652">
        <ele>669.2</ele>
        <time>2026-05-07T08:22:46.000Z</time>
      </trkpt>
      <trkpt lat="43.59388" lon="2.9565">
        <ele>669.3</ele>
        <time>2026-05-07T08:22:47.000Z</time>
      </trkpt>
      <trkpt lat="43.59389" lon="2.95648">
        <ele>669.5</ele>
        <time>2026-05-07T08:22:48.000Z</time>
      </trkpt>
      <trkpt lat="43.59389" lon="2.95647">
        <ele>670.3</ele>
        <time>2026-05-07T08:22:49.000Z</time>
      </trkpt>
      <trkpt lat="43.59389" lon="2.95647">
        <ele>670.8</ele>
        <time>2026-05-07T08:22:50.000Z</time>
      </trkpt>
      <trkpt lat="43.59389" lon="2.95647">
        <ele>671.5</ele>
        <time>2026-05-07T08:22:51.000Z</time>
      </trkpt>
      <trkpt lat="43.5939" lon="2.95648">
        <ele>671.4</ele>
        <time>2026-05-07T08:22:52.000Z</time>
      </trkpt>
      <trkpt lat="43.5939" lon="2.95648">
        <ele>671.3</ele>
        <time>2026-05-07T08:22:53.000Z</time>
      </trkpt>
      <trkpt lat="43.59391" lon="2.95648">
        <ele>671.2</ele>
        <time>2026-05-07T08:22:54.000Z</time>
      </trkpt>
      <trkpt lat="43.59391" lon="2.95648">
        <ele>671.6</ele>
        <time>2026-05-07T08:22:55.000Z</time>
      </trkpt>
      <trkpt lat="43.59391" lon="2.95648">
        <ele>672.2</ele>
        <time>2026-05-07T08:22:57.000Z</time>
      </trkpt>
      <trkpt lat="43.59391" lon="2.95648">
        <ele>671.9</ele>
        <time>2026-05-07T08:22:58.000Z</time>
      </trkpt>
      <trkpt lat="43.59391" lon="2.95648">
        <ele>671.8</ele>
        <time>2026-05-07T08:22:59.000Z</time>
      </trkpt>
      <trkpt lat="43.59391" lon="2.95649">
        <ele>671.6</ele>
        <time>2026-05-07T08:23:00.000Z</time>
      </trkpt>
      <trkpt lat="43.59392" lon="2.9565">
        <ele>671.5</ele>
        <time>2026-05-07T08:23:01.000Z</time>
      </trkpt>
      <trkpt lat="43.59393" lon="2.95651">
        <ele>671.5</ele>
        <time>2026-05-07T08:23:02.000Z</time>
      </trkpt>
      <trkpt lat="43.59393" lon="2.9565">
        <ele>671.9</ele>
        <time>2026-05-07T08:23:03.000Z</time>
      </trkpt>
      <trkpt lat="43.59394" lon="2.9565">
        <ele>672.1</ele>
        <time>2026-05-07T08:23:04.000Z</time>
      </trkpt>
      <trkpt lat="43.59394" lon="2.95647">
        <ele>672.1</ele>
        <time>2026-05-07T08:23:06.000Z</time>
      </trkpt>
      <trkpt lat="43.59394" lon="2.95646">
        <ele>671.9</ele>
        <time>2026-05-07T08:23:07.000Z</time>
      </trkpt>
      <trkpt lat="43.59394" lon="2.95646">
        <ele>671.5</ele>
        <time>2026-05-07T08:23:08.000Z</time>
      </trkpt>
      <trkpt lat="43.59394" lon="2.95645">
        <ele>671.4</ele>
        <time>2026-05-07T08:23:09.000Z</time>
      </trkpt>
      <trkpt lat="43.59394" lon="2.95645">
        <ele>671</ele>
        <time>2026-05-07T08:23:10.000Z</time>
      </trkpt>
      <trkpt lat="43.59394" lon="2.95645">
        <ele>671.1</ele>
        <time>2026-05-07T08:23:11.000Z</time>
      </trkpt>
      <trkpt lat="43.59394" lon="2.95645">
        <ele>671.4</ele>
        <time>2026-05-07T08:23:12.000Z</time>
      </trkpt>
      <trkpt lat="43.59394" lon="2.95645">
        <ele>671.5</ele>
        <time>2026-05-07T08:23:13.000Z</time>
      </trkpt>
      <trkpt lat="43.59394" lon="2.95644">
        <ele>672</ele>
        <time>2026-05-07T08:23:14.000Z</time>
      </trkpt>
      <trkpt lat="43.59394" lon="2.95643">
        <ele>672.5</ele>
        <time>2026-05-07T08:23:15.000Z</time>
      </trkpt>
      <trkpt lat="43.59395" lon="2.95643">
        <ele>672.3</ele>
        <time>2026-05-07T08:23:16.000Z</time>
      </trkpt>
      <trkpt lat="43.59395" lon="2.95643">
        <ele>672.4</ele>
        <time>2026-05-07T08:23:17.000Z</time>
      </trkpt>
      <trkpt lat="43.59396" lon="2.95644">
        <ele>672.3</ele>
        <time>2026-05-07T08:23:18.000Z</time>
      </trkpt>
      <trkpt lat="43.59396" lon="2.95643">
        <ele>672.6</ele>
        <time>2026-05-07T08:23:19.000Z</time>
      </trkpt>
      <trkpt lat="43.59396" lon="2.95643">
        <ele>673.1</ele>
        <time>2026-05-07T08:23:20.000Z</time>
      </trkpt>
      <trkpt lat="43.59396" lon="2.95644">
        <ele>673.5</ele>
        <time>2026-05-07T08:23:21.000Z</time>
      </trkpt>
      <trkpt lat="43.59396" lon="2.95644">
        <ele>673.9</ele>
        <time>2026-05-07T08:23:22.000Z</time>
      </trkpt>
      <trkpt lat="43.59397" lon="2.95644">
        <ele>674.8</ele>
        <time>2026-05-07T08:23:24.000Z</time>
      </trkpt>
      <trkpt lat="43.59397" lon="2.95644">
        <ele>674.9</ele>
        <time>2026-05-07T08:23:25.000Z</time>
      </trkpt>
      <trkpt lat="43.59397" lon="2.95644">
        <ele>675.3</ele>
        <time>2026-05-07T08:23:26.000Z</time>
      </trkpt>
      <trkpt lat="43.59397" lon="2.95644">
        <ele>675.5</ele>
        <time>2026-05-07T08:23:27.000Z</time>
      </trkpt>
      <trkpt lat="43.59397" lon="2.95644">
        <ele>675.6</ele>
        <time>2026-05-07T08:23:28.000Z</time>
      </trkpt>
      <trkpt lat="43.59397" lon="2.95644">
        <ele>675.7</ele>
        <time>2026-05-07T08:23:29.000Z</time>
      </trkpt>
      <trkpt lat="43.59397" lon="2.95644">
        <ele>676</ele>
        <time>2026-05-07T08:23:30.000Z</time>
      </trkpt>
      <trkpt lat="43.59397" lon="2.95644">
        <ele>676.2</ele>
        <time>2026-05-07T08:23:31.000Z</time>
      </trkpt>
      <trkpt lat="43.59397" lon="2.95644">
        <ele>675.9</ele>
        <time>2026-05-07T08:23:32.000Z</time>
      </trkpt>
      <trkpt lat="43.59397" lon="2.95644">
        <ele>675.6</ele>
        <time>2026-05-07T08:23:33.000Z</time>
      </trkpt>
      <trkpt lat="43.59398" lon="2.95644">
        <ele>675.6</ele>
        <time>2026-05-07T08:23:34.000Z</time>
      </trkpt>
      <trkpt lat="43.59397" lon="2.95644">
        <ele>675.6</ele>
        <time>2026-05-07T08:23:35.000Z</time>
      </trkpt>
      <trkpt lat="43.59398" lon="2.95646">
        <ele>675.5</ele>
        <time>2026-05-07T08:23:37.000Z</time>
      </trkpt>
      <trkpt lat="43.59398" lon="2.95646">
        <ele>675.5</ele>
        <time>2026-05-07T08:23:38.000Z</time>
      </trkpt>
      <trkpt lat="43.59398" lon="2.95647">
        <ele>675.6</ele>
        <time>2026-05-07T08:23:39.000Z</time>
      </trkpt>
      <trkpt lat="43.59398" lon="2.95647">
        <ele>675.7</ele>
        <time>2026-05-07T08:23:40.000Z</time>
      </trkpt>
      <trkpt lat="43.59398" lon="2.95647">
        <ele>675.8</ele>
        <time>2026-05-07T08:23:41.000Z</time>
      </trkpt>
      <trkpt lat="43.59399" lon="2.95647">
        <ele>675.8</ele>
        <time>2026-05-07T08:23:42.000Z</time>
      </trkpt>
      <trkpt lat="43.59399" lon="2.95647">
        <ele>676.1</ele>
        <time>2026-05-07T08:23:43.000Z</time>
      </trkpt>
      <trkpt lat="43.59399" lon="2.95647">
        <ele>676.6</ele>
        <time>2026-05-07T08:23:44.000Z</time>
      </trkpt>
      <trkpt lat="43.59399" lon="2.95647">
        <ele>677</ele>
        <time>2026-05-07T08:23:45.000Z</time>
      </trkpt>
      <trkpt lat="43.59399" lon="2.95647">
        <ele>677.3</ele>
        <time>2026-05-07T08:23:46.000Z</time>
      </trkpt>
      <trkpt lat="43.59399" lon="2.95647">
        <ele>677.4</ele>
        <time>2026-05-07T08:23:47.000Z</time>
      </trkpt>
      <trkpt lat="43.59398" lon="2.95647">
        <ele>677.7</ele>
        <time>2026-05-07T08:23:48.000Z</time>
      </trkpt>
      <trkpt lat="43.59399" lon="2.95647">
        <ele>678.1</ele>
        <time>2026-05-07T08:23:49.000Z</time>
      </trkpt>
      <trkpt lat="43.59398" lon="2.95647">
        <ele>678.2</ele>
        <time>2026-05-07T08:23:50.000Z</time>
      </trkpt>
      <trkpt lat="43.59398" lon="2.95646">
        <ele>678.4</ele>
        <time>2026-05-07T08:23:51.000Z</time>
      </trkpt>
      <trkpt lat="43.59398" lon="2.95646">
        <ele>678.5</ele>
        <time>2026-05-07T08:23:52.000Z</time>
      </trkpt>
      <trkpt lat="43.59398" lon="2.95646">
        <ele>678.6</ele>
        <time>2026-05-07T08:23:53.000Z</time>
      </trkpt>
      <trkpt lat="43.59398" lon="2.95646">
        <ele>679</ele>
        <time>2026-05-07T08:23:54.000Z</time>
      </trkpt>
      <trkpt lat="43.59399" lon="2.95646">
        <ele>679.4</ele>
        <time>2026-05-07T08:23:55.000Z</time>
      </trkpt>
      <trkpt lat="43.59399" lon="2.95646">
        <ele>679.7</ele>
        <time>2026-05-07T08:23:56.000Z</time>
      </trkpt>
      <trkpt lat="43.59399" lon="2.95647">
        <ele>680.4</ele>
        <time>2026-05-07T08:23:58.000Z</time>
      </trkpt>
      <trkpt lat="43.59399" lon="2.95647">
        <ele>680.5</ele>
        <time>2026-05-07T08:23:59.000Z</time>
      </trkpt>
      <trkpt lat="43.594" lon="2.95647">
        <ele>680.8</ele>
        <time>2026-05-07T08:24:00.000Z</time>
      </trkpt>
      <trkpt lat="43.59401" lon="2.95647">
        <ele>680.5</ele>
        <time>2026-05-07T08:24:01.000Z</time>
      </trkpt>
      <trkpt lat="43.59401" lon="2.95646">
        <ele>680.3</ele>
        <time>2026-05-07T08:24:02.000Z</time>
      </trkpt>
      <trkpt lat="43.59401" lon="2.95646">
        <ele>680.5</ele>
        <time>2026-05-07T08:24:03.000Z</time>
      </trkpt>
      <trkpt lat="43.59401" lon="2.95645">
        <ele>680.9</ele>
        <time>2026-05-07T08:24:04.000Z</time>
      </trkpt>
      <trkpt lat="43.59401" lon="2.95645">
        <ele>681.1</ele>
        <time>2026-05-07T08:24:05.000Z</time>
      </trkpt>
      <trkpt lat="43.59401" lon="2.95645">
        <ele>681.4</ele>
        <time>2026-05-07T08:24:06.000Z</time>
      </trkpt>
      <trkpt lat="43.59401" lon="2.95645">
        <ele>681.7</ele>
        <time>2026-05-07T08:24:07.000Z</time>
      </trkpt>
      <trkpt lat="43.59401" lon="2.95645">
        <ele>681.9</ele>
        <time>2026-05-07T08:24:08.000Z</time>
      </trkpt>
      <trkpt lat="43.59401" lon="2.95645">
        <ele>682.1</ele>
        <time>2026-05-07T08:24:09.000Z</time>
      </trkpt>
      <trkpt lat="43.59401" lon="2.95645">
        <ele>682.1</ele>
        <time>2026-05-07T08:24:10.000Z</time>
      </trkpt>
      <trkpt lat="43.59402" lon="2.95644">
        <ele>682.3</ele>
        <time>2026-05-07T08:24:11.000Z</time>
      </trkpt>
      <trkpt lat="43.59402" lon="2.95643">
        <ele>682.6</ele>
        <time>2026-05-07T08:24:12.000Z</time>
      </trkpt>
      <trkpt lat="43.59403" lon="2.95643">
        <ele>682.9</ele>
        <time>2026-05-07T08:24:13.000Z</time>
      </trkpt>
      <trkpt lat="43.59403" lon="2.95643">
        <ele>683</ele>
        <time>2026-05-07T08:24:14.000Z</time>
      </trkpt>
      <trkpt lat="43.59403" lon="2.95643">
        <ele>683.3</ele>
        <time>2026-05-07T08:24:15.000Z</time>
      </trkpt>
      <trkpt lat="43.59403" lon="2.95643">
        <ele>683.3</ele>
        <time>2026-05-07T08:24:16.000Z</time>
      </trkpt>
      <trkpt lat="43.59404" lon="2.95642">
        <ele>683.4</ele>
        <time>2026-05-07T08:24:17.000Z</time>
      </trkpt>
      <trkpt lat="43.59404" lon="2.95642">
        <ele>683.5</ele>
        <time>2026-05-07T08:24:18.000Z</time>
      </trkpt>
      <trkpt lat="43.59404" lon="2.95641">
        <ele>683.4</ele>
        <time>2026-05-07T08:24:19.000Z</time>
      </trkpt>
      <trkpt lat="43.59405" lon="2.9564">
        <ele>683.5</ele>
        <time>2026-05-07T08:24:20.000Z</time>
      </trkpt>
      <trkpt lat="43.59405" lon="2.9564">
        <ele>683.6</ele>
        <time>2026-05-07T08:24:21.000Z</time>
      </trkpt>
      <trkpt lat="43.59405" lon="2.9564">
        <ele>683.9</ele>
        <time>2026-05-07T08:24:22.000Z</time>
      </trkpt>
      <trkpt lat="43.59405" lon="2.95639">
        <ele>684.1</ele>
        <time>2026-05-07T08:24:23.000Z</time>
      </trkpt>
      <trkpt lat="43.59405" lon="2.95639">
        <ele>684.4</ele>
        <time>2026-05-07T08:24:24.000Z</time>
      </trkpt>
      <trkpt lat="43.59406" lon="2.9564">
        <ele>684.7</ele>
        <time>2026-05-07T08:24:25.000Z</time>
      </trkpt>
      <trkpt lat="43.59407" lon="2.95641">
        <ele>684.8</ele>
        <time>2026-05-07T08:24:26.000Z</time>
      </trkpt>
      <trkpt lat="43.59408" lon="2.95641">
        <ele>684.8</ele>
        <time>2026-05-07T08:24:27.000Z</time>
      </trkpt>
      <trkpt lat="43.59408" lon="2.95641">
        <ele>684.8</ele>
        <time>2026-05-07T08:24:28.000Z</time>
      </trkpt>
      <trkpt lat="43.59408" lon="2.95641">
        <ele>685.1</ele>
        <time>2026-05-07T08:24:29.000Z</time>
      </trkpt>
      <trkpt lat="43.59408" lon="2.95642">
        <ele>685.3</ele>
        <time>2026-05-07T08:24:30.000Z</time>
      </trkpt>
      <trkpt lat="43.59408" lon="2.95642">
        <ele>685.5</ele>
        <time>2026-05-07T08:24:31.000Z</time>
      </trkpt>
      <trkpt lat="43.59409" lon="2.95642">
        <ele>685.7</ele>
        <time>2026-05-07T08:24:32.000Z</time>
      </trkpt>
      <trkpt lat="43.59408" lon="2.95642">
        <ele>685.4</ele>
        <time>2026-05-07T08:24:33.000Z</time>
      </trkpt>
      <trkpt lat="43.59408" lon="2.95641">
        <ele>685.9</ele>
        <time>2026-05-07T08:24:34.000Z</time>
      </trkpt>
      <trkpt lat="43.59409" lon="2.9564">
        <ele>686.6</ele>
        <time>2026-05-07T08:24:35.000Z</time>
      </trkpt>
      <trkpt lat="43.59409" lon="2.9564">
        <ele>686.9</ele>
        <time>2026-05-07T08:24:36.000Z</time>
      </trkpt>
      <trkpt lat="43.5941" lon="2.95639">
        <ele>687</ele>
        <time>2026-05-07T08:24:37.000Z</time>
      </trkpt>
      <trkpt lat="43.5941" lon="2.95639">
        <ele>687.2</ele>
        <time>2026-05-07T08:24:38.000Z</time>
      </trkpt>
      <trkpt lat="43.59409" lon="2.95638">
        <ele>687.1</ele>
        <time>2026-05-07T08:24:40.000Z</time>
      </trkpt>
      <trkpt lat="43.59409" lon="2.95638">
        <ele>686.8</ele>
        <time>2026-05-07T08:24:41.000Z</time>
      </trkpt>
      <trkpt lat="43.59409" lon="2.95638">
        <ele>686.8</ele>
        <time>2026-05-07T08:24:42.000Z</time>
      </trkpt>
      <trkpt lat="43.59409" lon="2.95638">
        <ele>687</ele>
        <time>2026-05-07T08:24:43.000Z</time>
      </trkpt>
      <trkpt lat="43.59409" lon="2.95638">
        <ele>686.8</ele>
        <time>2026-05-07T08:24:44.000Z</time>
      </trkpt>
      <trkpt lat="43.59409" lon="2.95638">
        <ele>686.9</ele>
        <time>2026-05-07T08:24:45.000Z</time>
      </trkpt>
      <trkpt lat="43.59409" lon="2.95638">
        <ele>687</ele>
        <time>2026-05-07T08:24:46.000Z</time>
      </trkpt>
      <trkpt lat="43.5941" lon="2.95639">
        <ele>687</ele>
        <time>2026-05-07T08:24:47.000Z</time>
      </trkpt>
      <trkpt lat="43.5941" lon="2.9564">
        <ele>687.3</ele>
        <time>2026-05-07T08:24:48.000Z</time>
      </trkpt>
      <trkpt lat="43.5941" lon="2.95639">
        <ele>687.4</ele>
        <time>2026-05-07T08:24:49.000Z</time>
      </trkpt>
      <trkpt lat="43.59411" lon="2.95639">
        <ele>687.3</ele>
        <time>2026-05-07T08:24:50.000Z</time>
      </trkpt>
      <trkpt lat="43.5941" lon="2.95639">
        <ele>687.5</ele>
        <time>2026-05-07T08:24:51.000Z</time>
      </trkpt>
      <trkpt lat="43.59411" lon="2.95639">
        <ele>687.6</ele>
        <time>2026-05-07T08:24:52.000Z</time>
      </trkpt>
      <trkpt lat="43.59411" lon="2.95639">
        <ele>687.5</ele>
        <time>2026-05-07T08:24:53.000Z</time>
      </trkpt>
      <trkpt lat="43.59411" lon="2.95638">
        <ele>687.4</ele>
        <time>2026-05-07T08:24:55.000Z</time>
      </trkpt>
      <trkpt lat="43.59411" lon="2.95638">
        <ele>687.3</ele>
        <time>2026-05-07T08:24:56.000Z</time>
      </trkpt>
      <trkpt lat="43.59411" lon="2.95637">
        <ele>687.2</ele>
        <time>2026-05-07T08:24:57.000Z</time>
      </trkpt>
      <trkpt lat="43.59412" lon="2.95636">
        <ele>687.2</ele>
        <time>2026-05-07T08:24:58.000Z</time>
      </trkpt>
      <trkpt lat="43.59412" lon="2.95637">
        <ele>687.1</ele>
        <time>2026-05-07T08:24:59.000Z</time>
      </trkpt>
      <trkpt lat="43.59412" lon="2.95636">
        <ele>687.1</ele>
        <time>2026-05-07T08:25:00.000Z</time>
      </trkpt>
      <trkpt lat="43.59412" lon="2.95636">
        <ele>687.2</ele>
        <time>2026-05-07T08:25:01.000Z</time>
      </trkpt>
      <trkpt lat="43.59413" lon="2.95636">
        <ele>687.2</ele>
        <time>2026-05-07T08:25:02.000Z</time>
      </trkpt>
      <trkpt lat="43.59413" lon="2.95636">
        <ele>687.2</ele>
        <time>2026-05-07T08:25:03.000Z</time>
      </trkpt>
      <trkpt lat="43.59413" lon="2.95636">
        <ele>687.6</ele>
        <time>2026-05-07T08:25:04.000Z</time>
      </trkpt>
      <trkpt lat="43.59413" lon="2.95636">
        <ele>687.7</ele>
        <time>2026-05-07T08:25:05.000Z</time>
      </trkpt>
      <trkpt lat="43.59413" lon="2.95636">
        <ele>687.7</ele>
        <time>2026-05-07T08:25:06.000Z</time>
      </trkpt>
      <trkpt lat="43.59414" lon="2.95637">
        <ele>687.7</ele>
        <time>2026-05-07T08:25:07.000Z</time>
      </trkpt>
      <trkpt lat="43.59414" lon="2.95637">
        <ele>688</ele>
        <time>2026-05-07T08:25:08.000Z</time>
      </trkpt>
      <trkpt lat="43.59414" lon="2.95637">
        <ele>688.1</ele>
        <time>2026-05-07T08:25:10.000Z</time>
      </trkpt>
      <trkpt lat="43.59414" lon="2.95637">
        <ele>688.1</ele>
        <time>2026-05-07T08:25:11.000Z</time>
      </trkpt>
      <trkpt lat="43.59414" lon="2.95637">
        <ele>688.2</ele>
        <time>2026-05-07T08:25:12.000Z</time>
      </trkpt>
      <trkpt lat="43.59414" lon="2.95637">
        <ele>688.2</ele>
        <time>2026-05-07T08:25:13.000Z</time>
      </trkpt>
      <trkpt lat="43.59414" lon="2.95637">
        <ele>688.4</ele>
        <time>2026-05-07T08:25:14.000Z</time>
      </trkpt>
      <trkpt lat="43.59414" lon="2.95637">
        <ele>688.7</ele>
        <time>2026-05-07T08:25:15.000Z</time>
      </trkpt>
      <trkpt lat="43.59414" lon="2.95637">
        <ele>688.9</ele>
        <time>2026-05-07T08:25:16.000Z</time>
      </trkpt>
      <trkpt lat="43.59414" lon="2.95637">
        <ele>689.1</ele>
        <time>2026-05-07T08:25:17.000Z</time>
      </trkpt>
      <trkpt lat="43.59414" lon="2.95637">
        <ele>689.2</ele>
        <time>2026-05-07T08:25:18.000Z</time>
      </trkpt>
      <trkpt lat="43.59415" lon="2.95637">
        <ele>689.3</ele>
        <time>2026-05-07T08:25:19.000Z</time>
      </trkpt>
      <trkpt lat="43.59415" lon="2.95638">
        <ele>689.3</ele>
        <time>2026-05-07T08:25:20.000Z</time>
      </trkpt>
      <trkpt lat="43.59415" lon="2.95637">
        <ele>689.5</ele>
        <time>2026-05-07T08:25:21.000Z</time>
      </trkpt>
      <trkpt lat="43.59416" lon="2.95638">
        <ele>689.6</ele>
        <time>2026-05-07T08:25:22.000Z</time>
      </trkpt>
      <trkpt lat="43.59417" lon="2.95638">
        <ele>689.5</ele>
        <time>2026-05-07T08:25:23.000Z</time>
      </trkpt>
      <trkpt lat="43.59418" lon="2.95638">
        <ele>689.3</ele>
        <time>2026-05-07T08:25:24.000Z</time>
      </trkpt>
      <trkpt lat="43.59418" lon="2.95639">
        <ele>689.3</ele>
        <time>2026-05-07T08:25:25.000Z</time>
      </trkpt>
      <trkpt lat="43.59418" lon="2.9564">
        <ele>689.2</ele>
        <time>2026-05-07T08:25:26.000Z</time>
      </trkpt>
      <trkpt lat="43.59418" lon="2.9564">
        <ele>689.3</ele>
        <time>2026-05-07T08:25:27.000Z</time>
      </trkpt>
      <trkpt lat="43.59418" lon="2.9564">
        <ele>689.4</ele>
        <time>2026-05-07T08:25:28.000Z</time>
      </trkpt>
      <trkpt lat="43.59418" lon="2.9564">
        <ele>689.6</ele>
        <time>2026-05-07T08:25:29.000Z</time>
      </trkpt>
      <trkpt lat="43.59418" lon="2.9564">
        <ele>689.6</ele>
        <time>2026-05-07T08:25:30.000Z</time>
      </trkpt>
      <trkpt lat="43.59418" lon="2.9564">
        <ele>689.9</ele>
        <time>2026-05-07T08:25:31.000Z</time>
      </trkpt>
      <trkpt lat="43.59419" lon="2.95639">
        <ele>690.1</ele>
        <time>2026-05-07T08:25:32.000Z</time>
      </trkpt>
      <trkpt lat="43.59419" lon="2.95639">
        <ele>690.8</ele>
        <time>2026-05-07T08:25:34.000Z</time>
      </trkpt>
      <trkpt lat="43.5942" lon="2.95638">
        <ele>691.3</ele>
        <time>2026-05-07T08:25:35.000Z</time>
      </trkpt>
      <trkpt lat="43.59419" lon="2.95637">
        <ele>691.5</ele>
        <time>2026-05-07T08:25:36.000Z</time>
      </trkpt>
      <trkpt lat="43.5942" lon="2.95637">
        <ele>691.4</ele>
        <time>2026-05-07T08:25:37.000Z</time>
      </trkpt>
      <trkpt lat="43.5942" lon="2.95637">
        <ele>691.4</ele>
        <time>2026-05-07T08:25:38.000Z</time>
      </trkpt>
      <trkpt lat="43.5942" lon="2.95636">
        <ele>691.7</ele>
        <time>2026-05-07T08:25:39.000Z</time>
      </trkpt>
      <trkpt lat="43.5942" lon="2.95635">
        <ele>691.8</ele>
        <time>2026-05-07T08:25:40.000Z</time>
      </trkpt>
      <trkpt lat="43.5942" lon="2.95635">
        <ele>692</ele>
        <time>2026-05-07T08:25:41.000Z</time>
      </trkpt>
      <trkpt lat="43.5942" lon="2.95635">
        <ele>692.7</ele>
        <time>2026-05-07T08:25:42.000Z</time>
      </trkpt>
      <trkpt lat="43.5942" lon="2.95635">
        <ele>693.1</ele>
        <time>2026-05-07T08:25:43.000Z</time>
      </trkpt>
      <trkpt lat="43.5942" lon="2.95635">
        <ele>693.3</ele>
        <time>2026-05-07T08:25:44.000Z</time>
      </trkpt>
      <trkpt lat="43.5942" lon="2.95634">
        <ele>693.5</ele>
        <time>2026-05-07T08:25:45.000Z</time>
      </trkpt>
      <trkpt lat="43.5942" lon="2.95633">
        <ele>693.6</ele>
        <time>2026-05-07T08:25:46.000Z</time>
      </trkpt>
      <trkpt lat="43.5942" lon="2.95633">
        <ele>693.5</ele>
        <time>2026-05-07T08:25:47.000Z</time>
      </trkpt>
      <trkpt lat="43.5942" lon="2.95633">
        <ele>693.8</ele>
        <time>2026-05-07T08:25:48.000Z</time>
      </trkpt>
      <trkpt lat="43.59421" lon="2.95634">
        <ele>693.8</ele>
        <time>2026-05-07T08:25:49.000Z</time>
      </trkpt>
      <trkpt lat="43.59421" lon="2.95635">
        <ele>694</ele>
        <time>2026-05-07T08:25:50.000Z</time>
      </trkpt>
      <trkpt lat="43.59422" lon="2.95635">
        <ele>694</ele>
        <time>2026-05-07T08:25:51.000Z</time>
      </trkpt>
      <trkpt lat="43.59423" lon="2.95635">
        <ele>694.1</ele>
        <time>2026-05-07T08:25:52.000Z</time>
      </trkpt>
      <trkpt lat="43.59424" lon="2.95634">
        <ele>694.4</ele>
        <time>2026-05-07T08:25:53.000Z</time>
      </trkpt>
      <trkpt lat="43.59425" lon="2.95634">
        <ele>694.8</ele>
        <time>2026-05-07T08:25:54.000Z</time>
      </trkpt>
      <trkpt lat="43.59425" lon="2.95633">
        <ele>695.3</ele>
        <time>2026-05-07T08:25:55.000Z</time>
      </trkpt>
      <trkpt lat="43.59425" lon="2.95633">
        <ele>695.3</ele>
        <time>2026-05-07T08:25:56.000Z</time>
      </trkpt>
      <trkpt lat="43.59425" lon="2.95633">
        <ele>695.2</ele>
        <time>2026-05-07T08:25:57.000Z</time>
      </trkpt>
      <trkpt lat="43.59425" lon="2.95633">
        <ele>695.2</ele>
        <time>2026-05-07T08:25:58.000Z</time>
      </trkpt>
      <trkpt lat="43.59425" lon="2.95633">
        <ele>695.5</ele>
        <time>2026-05-07T08:25:59.000Z</time>
      </trkpt>
      <trkpt lat="43.59425" lon="2.95633">
        <ele>695.9</ele>
        <time>2026-05-07T08:26:00.000Z</time>
      </trkpt>
      <trkpt lat="43.59425" lon="2.95633">
        <ele>696</ele>
        <time>2026-05-07T08:26:01.000Z</time>
      </trkpt>
      <trkpt lat="43.59425" lon="2.95632">
        <ele>696</ele>
        <time>2026-05-07T08:26:03.000Z</time>
      </trkpt>
      <trkpt lat="43.59426" lon="2.95632">
        <ele>696.3</ele>
        <time>2026-05-07T08:26:04.000Z</time>
      </trkpt>
      <trkpt lat="43.59426" lon="2.95632">
        <ele>696.5</ele>
        <time>2026-05-07T08:26:05.000Z</time>
      </trkpt>
      <trkpt lat="43.59426" lon="2.95632">
        <ele>696.6</ele>
        <time>2026-05-07T08:26:06.000Z</time>
      </trkpt>
      <trkpt lat="43.59425" lon="2.95632">
        <ele>696.9</ele>
        <time>2026-05-07T08:26:07.000Z</time>
      </trkpt>
      <trkpt lat="43.59425" lon="2.95632">
        <ele>697.4</ele>
        <time>2026-05-07T08:26:08.000Z</time>
      </trkpt>
      <trkpt lat="43.59426" lon="2.95632">
        <ele>697.6</ele>
        <time>2026-05-07T08:26:09.000Z</time>
      </trkpt>
      <trkpt lat="43.59425" lon="2.95632">
        <ele>697.7</ele>
        <time>2026-05-07T08:26:10.000Z</time>
      </trkpt>
      <trkpt lat="43.59425" lon="2.95632">
        <ele>698</ele>
        <time>2026-05-07T08:26:11.000Z</time>
      </trkpt>
      <trkpt lat="43.59425" lon="2.95631">
        <ele>698.4</ele>
        <time>2026-05-07T08:26:12.000Z</time>
      </trkpt>
      <trkpt lat="43.59426" lon="2.95632">
        <ele>698.5</ele>
        <time>2026-05-07T08:26:13.000Z</time>
      </trkpt>
      <trkpt lat="43.59426" lon="2.95632">
        <ele>698.4</ele>
        <time>2026-05-07T08:26:14.000Z</time>
      </trkpt>
      <trkpt lat="43.59426" lon="2.95631">
        <ele>698.5</ele>
        <time>2026-05-07T08:26:15.000Z</time>
      </trkpt>
      <trkpt lat="43.59426" lon="2.95631">
        <ele>698.7</ele>
        <time>2026-05-07T08:26:17.000Z</time>
      </trkpt>
      <trkpt lat="43.59426" lon="2.95631">
        <ele>698.9</ele>
        <time>2026-05-07T08:26:18.000Z</time>
      </trkpt>
      <trkpt lat="43.59426" lon="2.95631">
        <ele>699</ele>
        <time>2026-05-07T08:26:19.000Z</time>
      </trkpt>
      <trkpt lat="43.59426" lon="2.95631">
        <ele>699.3</ele>
        <time>2026-05-07T08:26:20.000Z</time>
      </trkpt>
      <trkpt lat="43.59426" lon="2.95631">
        <ele>699.2</ele>
        <time>2026-05-07T08:26:21.000Z</time>
      </trkpt>
      <trkpt lat="43.59426" lon="2.9563">
        <ele>699.2</ele>
        <time>2026-05-07T08:26:22.000Z</time>
      </trkpt>
      <trkpt lat="43.59426" lon="2.9563">
        <ele>699</ele>
        <time>2026-05-07T08:26:23.000Z</time>
      </trkpt>
      <trkpt lat="43.59426" lon="2.9563">
        <ele>698.9</ele>
        <time>2026-05-07T08:26:24.000Z</time>
      </trkpt>
      <trkpt lat="43.59427" lon="2.9563">
        <ele>698.8</ele>
        <time>2026-05-07T08:26:25.000Z</time>
      </trkpt>
      <trkpt lat="43.59427" lon="2.9563">
        <ele>698.6</ele>
        <time>2026-05-07T08:26:26.000Z</time>
      </trkpt>
      <trkpt lat="43.59427" lon="2.9563">
        <ele>698.6</ele>
        <time>2026-05-07T08:26:27.000Z</time>
      </trkpt>
      <trkpt lat="43.59427" lon="2.9563">
        <ele>698.8</ele>
        <time>2026-05-07T08:26:28.000Z</time>
      </trkpt>
      <trkpt lat="43.59427" lon="2.9563">
        <ele>699.1</ele>
        <time>2026-05-07T08:26:29.000Z</time>
      </trkpt>
      <trkpt lat="43.59427" lon="2.9563">
        <ele>699.3</ele>
        <time>2026-05-07T08:26:30.000Z</time>
      </trkpt>
      <trkpt lat="43.59428" lon="2.9563">
        <ele>699.3</ele>
        <time>2026-05-07T08:26:31.000Z</time>
      </trkpt>
      <trkpt lat="43.59428" lon="2.9563">
        <ele>699.2</ele>
        <time>2026-05-07T08:26:32.000Z</time>
      </trkpt>
      <trkpt lat="43.59428" lon="2.9563">
        <ele>699.1</ele>
        <time>2026-05-07T08:26:33.000Z</time>
      </trkpt>
      <trkpt lat="43.59428" lon="2.9563">
        <ele>699.1</ele>
        <time>2026-05-07T08:26:34.000Z</time>
      </trkpt>
      <trkpt lat="43.59428" lon="2.95629">
        <ele>699.3</ele>
        <time>2026-05-07T08:26:35.000Z</time>
      </trkpt>
      <trkpt lat="43.59429" lon="2.95629">
        <ele>699.4</ele>
        <time>2026-05-07T08:26:36.000Z</time>
      </trkpt>
      <trkpt lat="43.59429" lon="2.95628">
        <ele>699.8</ele>
        <time>2026-05-07T08:26:37.000Z</time>
      </trkpt>
      <trkpt lat="43.59429" lon="2.95628">
        <ele>700.1</ele>
        <time>2026-05-07T08:26:38.000Z</time>
      </trkpt>
      <trkpt lat="43.59429" lon="2.95628">
        <ele>700.3</ele>
        <time>2026-05-07T08:26:39.000Z</time>
      </trkpt>
      <trkpt lat="43.59429" lon="2.95628">
        <ele>700.5</ele>
        <time>2026-05-07T08:26:40.000Z</time>
      </trkpt>
      <trkpt lat="43.59429" lon="2.95628">
        <ele>700.8</ele>
        <time>2026-05-07T08:26:41.000Z</time>
      </trkpt>
      <trkpt lat="43.59429" lon="2.95628">
        <ele>700.9</ele>
        <time>2026-05-07T08:26:42.000Z</time>
      </trkpt>
      <trkpt lat="43.59429" lon="2.95628">
        <ele>701</ele>
        <time>2026-05-07T08:26:43.000Z</time>
      </trkpt>
      <trkpt lat="43.59429" lon="2.95627">
        <ele>701.5</ele>
        <time>2026-05-07T08:26:45.000Z</time>
      </trkpt>
      <trkpt lat="43.59429" lon="2.95627">
        <ele>701.6</ele>
        <time>2026-05-07T08:26:46.000Z</time>
      </trkpt>
      <trkpt lat="43.59429" lon="2.95627">
        <ele>701.9</ele>
        <time>2026-05-07T08:26:47.000Z</time>
      </trkpt>
      <trkpt lat="43.59429" lon="2.95627">
        <ele>702.4</ele>
        <time>2026-05-07T08:26:48.000Z</time>
      </trkpt>
      <trkpt lat="43.59429" lon="2.95627">
        <ele>702.4</ele>
        <time>2026-05-07T08:26:49.000Z</time>
      </trkpt>
      <trkpt lat="43.5943" lon="2.95628">
        <ele>702.6</ele>
        <time>2026-05-07T08:26:50.000Z</time>
      </trkpt>
      <trkpt lat="43.5943" lon="2.95628">
        <ele>702.8</ele>
        <time>2026-05-07T08:26:51.000Z</time>
      </trkpt>
      <trkpt lat="43.59431" lon="2.95628">
        <ele>703</ele>
        <time>2026-05-07T08:26:52.000Z</time>
      </trkpt>
      <trkpt lat="43.59431" lon="2.95629">
        <ele>703.4</ele>
        <time>2026-05-07T08:26:53.000Z</time>
      </trkpt>
      <trkpt lat="43.59431" lon="2.95629">
        <ele>703.8</ele>
        <time>2026-05-07T08:26:54.000Z</time>
      </trkpt>
      <trkpt lat="43.59431" lon="2.95629">
        <ele>703.9</ele>
        <time>2026-05-07T08:26:55.000Z</time>
      </trkpt>
      <trkpt lat="43.59431" lon="2.95629">
        <ele>704.2</ele>
        <time>2026-05-07T08:26:56.000Z</time>
      </trkpt>
      <trkpt lat="43.59431" lon="2.95629">
        <ele>704.4</ele>
        <time>2026-05-07T08:26:57.000Z</time>
      </trkpt>
      <trkpt lat="43.59431" lon="2.95629">
        <ele>704.8</ele>
        <time>2026-05-07T08:26:58.000Z</time>
      </trkpt>
      <trkpt lat="43.59431" lon="2.95629">
        <ele>705</ele>
        <time>2026-05-07T08:26:59.000Z</time>
      </trkpt>
      <trkpt lat="43.59431" lon="2.95629">
        <ele>704.9</ele>
        <time>2026-05-07T08:27:00.000Z</time>
      </trkpt>
      <trkpt lat="43.59431" lon="2.95629">
        <ele>705.1</ele>
        <time>2026-05-07T08:27:01.000Z</time>
      </trkpt>
      <trkpt lat="43.59431" lon="2.95629">
        <ele>705.4</ele>
        <time>2026-05-07T08:27:02.000Z</time>
      </trkpt>
      <trkpt lat="43.59431" lon="2.95629">
        <ele>705.6</ele>
        <time>2026-05-07T08:27:03.000Z</time>
      </trkpt>
      <trkpt lat="43.59431" lon="2.95629">
        <ele>706</ele>
        <time>2026-05-07T08:27:04.000Z</time>
      </trkpt>
      <trkpt lat="43.59431" lon="2.95629">
        <ele>706.2</ele>
        <time>2026-05-07T08:27:05.000Z</time>
      </trkpt>
      <trkpt lat="43.59432" lon="2.95629">
        <ele>706.5</ele>
        <time>2026-05-07T08:27:06.000Z</time>
      </trkpt>
      <trkpt lat="43.59432" lon="2.95629">
        <ele>706.7</ele>
        <time>2026-05-07T08:27:07.000Z</time>
      </trkpt>
      <trkpt lat="43.59432" lon="2.95629">
        <ele>707.1</ele>
        <time>2026-05-07T08:27:08.000Z</time>
      </trkpt>
      <trkpt lat="43.59432" lon="2.95629">
        <ele>707</ele>
        <time>2026-05-07T08:27:09.000Z</time>
      </trkpt>
      <trkpt lat="43.59432" lon="2.95629">
        <ele>707</ele>
        <time>2026-05-07T08:27:10.000Z</time>
      </trkpt>
      <trkpt lat="43.59433" lon="2.95629">
        <ele>707.2</ele>
        <time>2026-05-07T08:27:11.000Z</time>
      </trkpt>
      <trkpt lat="43.59433" lon="2.95629">
        <ele>707.3</ele>
        <time>2026-05-07T08:27:12.000Z</time>
      </trkpt>
      <trkpt lat="43.59434" lon="2.95628">
        <ele>707.5</ele>
        <time>2026-05-07T08:27:13.000Z</time>
      </trkpt>
      <trkpt lat="43.59434" lon="2.95628">
        <ele>707.7</ele>
        <time>2026-05-07T08:27:14.000Z</time>
      </trkpt>
      <trkpt lat="43.59435" lon="2.95627">
        <ele>708</ele>
        <time>2026-05-07T08:27:15.000Z</time>
      </trkpt>
      <trkpt lat="43.59435" lon="2.95627">
        <ele>708.1</ele>
        <time>2026-05-07T08:27:16.000Z</time>
      </trkpt>
      <trkpt lat="43.59436" lon="2.95626">
        <ele>707.9</ele>
        <time>2026-05-07T08:27:17.000Z</time>
      </trkpt>
      <trkpt lat="43.59436" lon="2.95626">
        <ele>707.6</ele>
        <time>2026-05-07T08:27:18.000Z</time>
      </trkpt>
      <trkpt lat="43.59436" lon="2.95626">
        <ele>707.3</ele>
        <time>2026-05-07T08:27:19.000Z</time>
      </trkpt>
      <trkpt lat="43.59437" lon="2.95626">
        <ele>706.9</ele>
        <time>2026-05-07T08:27:20.000Z</time>
      </trkpt>
      <trkpt lat="43.59437" lon="2.95626">
        <ele>706.8</ele>
        <time>2026-05-07T08:27:21.000Z</time>
      </trkpt>
      <trkpt lat="43.59437" lon="2.95626">
        <ele>706.9</ele>
        <time>2026-05-07T08:27:22.000Z</time>
      </trkpt>
      <trkpt lat="43.59437" lon="2.95626">
        <ele>706.5</ele>
        <time>2026-05-07T08:27:23.000Z</time>
      </trkpt>
      <trkpt lat="43.59437" lon="2.95625">
        <ele>706.5</ele>
        <time>2026-05-07T08:27:24.000Z</time>
      </trkpt>
      <trkpt lat="43.59437" lon="2.95625">
        <ele>706.5</ele>
        <time>2026-05-07T08:27:25.000Z</time>
      </trkpt>
      <trkpt lat="43.59438" lon="2.95624">
        <ele>706.5</ele>
        <time>2026-05-07T08:27:26.000Z</time>
      </trkpt>
      <trkpt lat="43.59438" lon="2.95624">
        <ele>706.5</ele>
        <time>2026-05-07T08:27:27.000Z</time>
      </trkpt>
      <trkpt lat="43.59438" lon="2.95624">
        <ele>706.6</ele>
        <time>2026-05-07T08:27:28.000Z</time>
      </trkpt>
      <trkpt lat="43.59438" lon="2.95624">
        <ele>706.8</ele>
        <time>2026-05-07T08:27:29.000Z</time>
      </trkpt>
      <trkpt lat="43.59438" lon="2.95623">
        <ele>706.7</ele>
        <time>2026-05-07T08:27:30.000Z</time>
      </trkpt>
      <trkpt lat="43.59437" lon="2.95621">
        <ele>706.5</ele>
        <time>2026-05-07T08:27:31.000Z</time>
      </trkpt>
      <trkpt lat="43.59437" lon="2.9562">
        <ele>706.5</ele>
        <time>2026-05-07T08:27:32.000Z</time>
      </trkpt>
      <trkpt lat="43.59437" lon="2.95619">
        <ele>706.5</ele>
        <time>2026-05-07T08:27:33.000Z</time>
      </trkpt>
      <trkpt lat="43.59438" lon="2.95619">
        <ele>706.8</ele>
        <time>2026-05-07T08:27:34.000Z</time>
      </trkpt>
      <trkpt lat="43.59439" lon="2.95618">
        <ele>707</ele>
        <time>2026-05-07T08:27:35.000Z</time>
      </trkpt>
      <trkpt lat="43.59439" lon="2.95619">
        <ele>707.1</ele>
        <time>2026-05-07T08:27:36.000Z</time>
      </trkpt>
      <trkpt lat="43.5944" lon="2.95619">
        <ele>707.4</ele>
        <time>2026-05-07T08:27:37.000Z</time>
      </trkpt>
      <trkpt lat="43.5944" lon="2.95619">
        <ele>708</ele>
        <time>2026-05-07T08:27:38.000Z</time>
      </trkpt>
      <trkpt lat="43.59441" lon="2.95621">
        <ele>708.5</ele>
        <time>2026-05-07T08:27:39.000Z</time>
      </trkpt>
      <trkpt lat="43.59441" lon="2.95621">
        <ele>709</ele>
        <time>2026-05-07T08:27:40.000Z</time>
      </trkpt>
      <trkpt lat="43.59442" lon="2.95621">
        <ele>709.4</ele>
        <time>2026-05-07T08:27:41.000Z</time>
      </trkpt>
      <trkpt lat="43.59442" lon="2.95622">
        <ele>709.4</ele>
        <time>2026-05-07T08:27:42.000Z</time>
      </trkpt>
      <trkpt lat="43.59442" lon="2.95622">
        <ele>709.5</ele>
        <time>2026-05-07T08:27:43.000Z</time>
      </trkpt>
      <trkpt lat="43.59442" lon="2.95622">
        <ele>709.7</ele>
        <time>2026-05-07T08:27:44.000Z</time>
      </trkpt>
      <trkpt lat="43.59442" lon="2.95622">
        <ele>710</ele>
        <time>2026-05-07T08:27:45.000Z</time>
      </trkpt>
      <trkpt lat="43.59442" lon="2.95622">
        <ele>710.2</ele>
        <time>2026-05-07T08:27:46.000Z</time>
      </trkpt>
      <trkpt lat="43.59443" lon="2.95622">
        <ele>710.3</ele>
        <time>2026-05-07T08:27:47.000Z</time>
      </trkpt>
      <trkpt lat="43.59443" lon="2.95622">
        <ele>710</ele>
        <time>2026-05-07T08:27:48.000Z</time>
      </trkpt>
      <trkpt lat="43.59443" lon="2.95622">
        <ele>709.6</ele>
        <time>2026-05-07T08:27:49.000Z</time>
      </trkpt>
      <trkpt lat="43.59443" lon="2.95622">
        <ele>709.4</ele>
        <time>2026-05-07T08:27:50.000Z</time>
      </trkpt>
      <trkpt lat="43.59443" lon="2.95622">
        <ele>709.5</ele>
        <time>2026-05-07T08:27:51.000Z</time>
      </trkpt>
      <trkpt lat="43.59443" lon="2.95622">
        <ele>709.6</ele>
        <time>2026-05-07T08:27:52.000Z</time>
      </trkpt>
      <trkpt lat="43.59443" lon="2.95622">
        <ele>709.6</ele>
        <time>2026-05-07T08:27:53.000Z</time>
      </trkpt>
      <trkpt lat="43.59443" lon="2.95622">
        <ele>709.8</ele>
        <time>2026-05-07T08:27:54.000Z</time>
      </trkpt>
      <trkpt lat="43.59443" lon="2.95621">
        <ele>709.9</ele>
        <time>2026-05-07T08:27:55.000Z</time>
      </trkpt>
      <trkpt lat="43.59443" lon="2.95621">
        <ele>710.1</ele>
        <time>2026-05-07T08:27:56.000Z</time>
      </trkpt>
      <trkpt lat="43.59443" lon="2.9562">
        <ele>710.4</ele>
        <time>2026-05-07T08:27:57.000Z</time>
      </trkpt>
      <trkpt lat="43.59443" lon="2.9562">
        <ele>710.3</ele>
        <time>2026-05-07T08:27:58.000Z</time>
      </trkpt>
      <trkpt lat="43.59443" lon="2.9562">
        <ele>710.6</ele>
        <time>2026-05-07T08:27:59.000Z</time>
      </trkpt>
      <trkpt lat="43.59443" lon="2.9562">
        <ele>710.8</ele>
        <time>2026-05-07T08:28:00.000Z</time>
      </trkpt>
      <trkpt lat="43.59443" lon="2.9562">
        <ele>711</ele>
        <time>2026-05-07T08:28:01.000Z</time>
      </trkpt>
      <trkpt lat="43.59444" lon="2.9562">
        <ele>711.3</ele>
        <time>2026-05-07T08:28:02.000Z</time>
      </trkpt>
      <trkpt lat="43.59444" lon="2.9562">
        <ele>711.7</ele>
        <time>2026-05-07T08:28:03.000Z</time>
      </trkpt>
      <trkpt lat="43.59444" lon="2.9562">
        <ele>711.8</ele>
        <time>2026-05-07T08:28:04.000Z</time>
      </trkpt>
      <trkpt lat="43.59444" lon="2.9562">
        <ele>711.8</ele>
        <time>2026-05-07T08:28:05.000Z</time>
      </trkpt>
      <trkpt lat="43.59443" lon="2.95619">
        <ele>712</ele>
        <time>2026-05-07T08:28:06.000Z</time>
      </trkpt>
      <trkpt lat="43.59443" lon="2.95618">
        <ele>712.1</ele>
        <time>2026-05-07T08:28:07.000Z</time>
      </trkpt>
      <trkpt lat="43.59444" lon="2.95618">
        <ele>712.5</ele>
        <time>2026-05-07T08:28:08.000Z</time>
      </trkpt>
      <trkpt lat="43.59445" lon="2.95618">
        <ele>713.4</ele>
        <time>2026-05-07T08:28:09.000Z</time>
      </trkpt>
      <trkpt lat="43.59446" lon="2.95618">
        <ele>713.9</ele>
        <time>2026-05-07T08:28:10.000Z</time>
      </trkpt>
      <trkpt lat="43.59447" lon="2.95618">
        <ele>714</ele>
        <time>2026-05-07T08:28:11.000Z</time>
      </trkpt>
      <trkpt lat="43.59448" lon="2.95617">
        <ele>714.3</ele>
        <time>2026-05-07T08:28:12.000Z</time>
      </trkpt>
      <trkpt lat="43.59449" lon="2.95617">
        <ele>714.9</ele>
        <time>2026-05-07T08:28:13.000Z</time>
      </trkpt>
      <trkpt lat="43.5945" lon="2.95617">
        <ele>715.2</ele>
        <time>2026-05-07T08:28:14.000Z</time>
      </trkpt>
      <trkpt lat="43.59451" lon="2.95617">
        <ele>715.3</ele>
        <time>2026-05-07T08:28:15.000Z</time>
      </trkpt>
      <trkpt lat="43.59452" lon="2.95617">
        <ele>715.1</ele>
        <time>2026-05-07T08:28:16.000Z</time>
      </trkpt>
      <trkpt lat="43.59452" lon="2.95617">
        <ele>715</ele>
        <time>2026-05-07T08:28:17.000Z</time>
      </trkpt>
      <trkpt lat="43.59452" lon="2.95617">
        <ele>715</ele>
        <time>2026-05-07T08:28:18.000Z</time>
      </trkpt>
      <trkpt lat="43.59452" lon="2.95617">
        <ele>715</ele>
        <time>2026-05-07T08:28:19.000Z</time>
      </trkpt>
      <trkpt lat="43.59453" lon="2.95617">
        <ele>715.1</ele>
        <time>2026-05-07T08:28:20.000Z</time>
      </trkpt>
      <trkpt lat="43.59453" lon="2.95617">
        <ele>715.2</ele>
        <time>2026-05-07T08:28:21.000Z</time>
      </trkpt>
      <trkpt lat="43.59453" lon="2.95617">
        <ele>715.2</ele>
        <time>2026-05-07T08:28:22.000Z</time>
      </trkpt>
      <trkpt lat="43.59454" lon="2.95617">
        <ele>715.2</ele>
        <time>2026-05-07T08:28:23.000Z</time>
      </trkpt>
      <trkpt lat="43.59454" lon="2.95617">
        <ele>715.4</ele>
        <time>2026-05-07T08:28:24.000Z</time>
      </trkpt>
      <trkpt lat="43.59455" lon="2.95617">
        <ele>715.4</ele>
        <time>2026-05-07T08:28:25.000Z</time>
      </trkpt>
      <trkpt lat="43.59455" lon="2.95617">
        <ele>715.7</ele>
        <time>2026-05-07T08:28:26.000Z</time>
      </trkpt>
      <trkpt lat="43.59456" lon="2.95617">
        <ele>715.8</ele>
        <time>2026-05-07T08:28:27.000Z</time>
      </trkpt>
      <trkpt lat="43.59457" lon="2.95616">
        <ele>716</ele>
        <time>2026-05-07T08:28:28.000Z</time>
      </trkpt>
      <trkpt lat="43.59458" lon="2.95616">
        <ele>716.2</ele>
        <time>2026-05-07T08:28:29.000Z</time>
      </trkpt>
      <trkpt lat="43.59458" lon="2.95616">
        <ele>716.4</ele>
        <time>2026-05-07T08:28:30.000Z</time>
      </trkpt>
      <trkpt lat="43.59459" lon="2.95615">
        <ele>716.7</ele>
        <time>2026-05-07T08:28:31.000Z</time>
      </trkpt>
      <trkpt lat="43.5946" lon="2.95615">
        <ele>717.3</ele>
        <time>2026-05-07T08:28:32.000Z</time>
      </trkpt>
      <trkpt lat="43.59461" lon="2.95616">
        <ele>718</ele>
        <time>2026-05-07T08:28:33.000Z</time>
      </trkpt>
      <trkpt lat="43.59461" lon="2.95615">
        <ele>718</ele>
        <time>2026-05-07T08:28:34.000Z</time>
      </trkpt>
      <trkpt lat="43.59461" lon="2.95615">
        <ele>718.1</ele>
        <time>2026-05-07T08:28:35.000Z</time>
      </trkpt>
      <trkpt lat="43.59461" lon="2.95615">
        <ele>718.3</ele>
        <time>2026-05-07T08:28:36.000Z</time>
      </trkpt>
      <trkpt lat="43.59462" lon="2.95615">
        <ele>718.3</ele>
        <time>2026-05-07T08:28:37.000Z</time>
      </trkpt>
      <trkpt lat="43.59462" lon="2.95615">
        <ele>718.4</ele>
        <time>2026-05-07T08:28:38.000Z</time>
      </trkpt>
      <trkpt lat="43.59463" lon="2.95613">
        <ele>718.5</ele>
        <time>2026-05-07T08:28:39.000Z</time>
      </trkpt>
      <trkpt lat="43.59462" lon="2.95613">
        <ele>718.1</ele>
        <time>2026-05-07T08:28:40.000Z</time>
      </trkpt>
      <trkpt lat="43.59462" lon="2.95612">
        <ele>718.1</ele>
        <time>2026-05-07T08:28:41.000Z</time>
      </trkpt>
      <trkpt lat="43.59462" lon="2.95612">
        <ele>718.4</ele>
        <time>2026-05-07T08:28:42.000Z</time>
      </trkpt>
      <trkpt lat="43.59462" lon="2.95612">
        <ele>718.5</ele>
        <time>2026-05-07T08:28:43.000Z</time>
      </trkpt>
      <trkpt lat="43.59462" lon="2.95612">
        <ele>718.3</ele>
        <time>2026-05-07T08:28:44.000Z</time>
      </trkpt>
      <trkpt lat="43.59462" lon="2.95611">
        <ele>718.3</ele>
        <time>2026-05-07T08:28:45.000Z</time>
      </trkpt>
      <trkpt lat="43.59462" lon="2.95611">
        <ele>718.7</ele>
        <time>2026-05-07T08:28:46.000Z</time>
      </trkpt>
      <trkpt lat="43.59462" lon="2.95609">
        <ele>718.9</ele>
        <time>2026-05-07T08:28:47.000Z</time>
      </trkpt>
      <trkpt lat="43.59463" lon="2.95609">
        <ele>719</ele>
        <time>2026-05-07T08:28:48.000Z</time>
      </trkpt>
      <trkpt lat="43.59463" lon="2.9561">
        <ele>719</ele>
        <time>2026-05-07T08:28:49.000Z</time>
      </trkpt>
      <trkpt lat="43.59463" lon="2.9561">
        <ele>718.8</ele>
        <time>2026-05-07T08:28:50.000Z</time>
      </trkpt>
      <trkpt lat="43.59463" lon="2.95611">
        <ele>718.9</ele>
        <time>2026-05-07T08:28:51.000Z</time>
      </trkpt>
      <trkpt lat="43.59463" lon="2.95611">
        <ele>718.8</ele>
        <time>2026-05-07T08:28:52.000Z</time>
      </trkpt>
      <trkpt lat="43.59463" lon="2.95611">
        <ele>718.9</ele>
        <time>2026-05-07T08:28:53.000Z</time>
      </trkpt>
      <trkpt lat="43.59464" lon="2.95612">
        <ele>718.3</ele>
        <time>2026-05-07T08:28:54.000Z</time>
      </trkpt>
      <trkpt lat="43.59464" lon="2.95612">
        <ele>718.4</ele>
        <time>2026-05-07T08:28:55.000Z</time>
      </trkpt>
      <trkpt lat="43.59465" lon="2.95612">
        <ele>718.9</ele>
        <time>2026-05-07T08:28:56.000Z</time>
      </trkpt>
      <trkpt lat="43.59465" lon="2.95613">
        <ele>719.3</ele>
        <time>2026-05-07T08:28:57.000Z</time>
      </trkpt>
      <trkpt lat="43.59464" lon="2.95613">
        <ele>719.2</ele>
        <time>2026-05-07T08:28:58.000Z</time>
      </trkpt>
      <trkpt lat="43.59464" lon="2.95612">
        <ele>719.2</ele>
        <time>2026-05-07T08:28:59.000Z</time>
      </trkpt>
      <trkpt lat="43.59465" lon="2.95613">
        <ele>719.2</ele>
        <time>2026-05-07T08:29:00.000Z</time>
      </trkpt>
      <trkpt lat="43.59466" lon="2.95613">
        <ele>719.6</ele>
        <time>2026-05-07T08:29:01.000Z</time>
      </trkpt>
      <trkpt lat="43.59467" lon="2.95612">
        <ele>719.8</ele>
        <time>2026-05-07T08:29:02.000Z</time>
      </trkpt>
      <trkpt lat="43.59468" lon="2.95611">
        <ele>720</ele>
        <time>2026-05-07T08:29:03.000Z</time>
      </trkpt>
      <trkpt lat="43.59468" lon="2.95611">
        <ele>720.2</ele>
        <time>2026-05-07T08:29:04.000Z</time>
      </trkpt>
      <trkpt lat="43.59469" lon="2.9561">
        <ele>719.9</ele>
        <time>2026-05-07T08:29:05.000Z</time>
      </trkpt>
      <trkpt lat="43.59469" lon="2.95609">
        <ele>719.8</ele>
        <time>2026-05-07T08:29:06.000Z</time>
      </trkpt>
      <trkpt lat="43.59469" lon="2.95609">
        <ele>719.9</ele>
        <time>2026-05-07T08:29:07.000Z</time>
      </trkpt>
      <trkpt lat="43.59469" lon="2.95609">
        <ele>720.1</ele>
        <time>2026-05-07T08:29:08.000Z</time>
      </trkpt>
      <trkpt lat="43.59469" lon="2.95609">
        <ele>720.4</ele>
        <time>2026-05-07T08:29:09.000Z</time>
      </trkpt>
      <trkpt lat="43.59469" lon="2.9561">
        <ele>720.6</ele>
        <time>2026-05-07T08:29:10.000Z</time>
      </trkpt>
      <trkpt lat="43.59469" lon="2.9561">
        <ele>720.8</ele>
        <time>2026-05-07T08:29:11.000Z</time>
      </trkpt>
      <trkpt lat="43.59469" lon="2.9561">
        <ele>721.1</ele>
        <time>2026-05-07T08:29:12.000Z</time>
      </trkpt>
      <trkpt lat="43.59469" lon="2.9561">
        <ele>720.7</ele>
        <time>2026-05-07T08:29:13.000Z</time>
      </trkpt>
      <trkpt lat="43.5947" lon="2.95609">
        <ele>720.1</ele>
        <time>2026-05-07T08:29:14.000Z</time>
      </trkpt>
      <trkpt lat="43.59471" lon="2.95609">
        <ele>720.2</ele>
        <time>2026-05-07T08:29:15.000Z</time>
      </trkpt>
      <trkpt lat="43.59471" lon="2.9561">
        <ele>720.9</ele>
        <time>2026-05-07T08:29:16.999Z</time>
      </trkpt>
      <trkpt lat="43.59471" lon="2.9561">
        <ele>721.1</ele>
        <time>2026-05-07T08:29:17.999Z</time>
      </trkpt>
      <trkpt lat="43.59471" lon="2.95611">
        <ele>721.1</ele>
        <time>2026-05-07T08:29:18.999Z</time>
      </trkpt>
      <trkpt lat="43.59471" lon="2.95611">
        <ele>721.5</ele>
        <time>2026-05-07T08:29:19.999Z</time>
      </trkpt>
      <trkpt lat="43.59472" lon="2.95611">
        <ele>721.7</ele>
        <time>2026-05-07T08:29:20.999Z</time>
      </trkpt>
      <trkpt lat="43.59472" lon="2.95613">
        <ele>722</ele>
        <time>2026-05-07T08:29:21.999Z</time>
      </trkpt>
      <trkpt lat="43.59473" lon="2.95614">
        <ele>721.8</ele>
        <time>2026-05-07T08:29:22.999Z</time>
      </trkpt>
      <trkpt lat="43.59473" lon="2.95614">
        <ele>721.6</ele>
        <time>2026-05-07T08:29:23.999Z</time>
      </trkpt>
      <trkpt lat="43.59473" lon="2.95613">
        <ele>722.2</ele>
        <time>2026-05-07T08:29:24.999Z</time>
      </trkpt>
      <trkpt lat="43.59474" lon="2.95614">
        <ele>722.4</ele>
        <time>2026-05-07T08:29:25.999Z</time>
      </trkpt>
      <trkpt lat="43.59474" lon="2.95615">
        <ele>723.4</ele>
        <time>2026-05-07T08:29:26.999Z</time>
      </trkpt>
      <trkpt lat="43.59474" lon="2.95616">
        <ele>722.9</ele>
        <time>2026-05-07T08:29:27.999Z</time>
      </trkpt>
      <trkpt lat="43.59473" lon="2.95617">
        <ele>722.6</ele>
        <time>2026-05-07T08:29:28.999Z</time>
      </trkpt>
      <trkpt lat="43.59473" lon="2.95619">
        <ele>722.2</ele>
        <time>2026-05-07T08:29:29.999Z</time>
      </trkpt>
      <trkpt lat="43.59473" lon="2.95621">
        <ele>722.3</ele>
        <time>2026-05-07T08:29:30.999Z</time>
      </trkpt>
      <trkpt lat="43.59473" lon="2.95622">
        <ele>723.3</ele>
        <time>2026-05-07T08:29:31.999Z</time>
      </trkpt>
      <trkpt lat="43.59473" lon="2.95622">
        <ele>723.6</ele>
        <time>2026-05-07T08:29:32.999Z</time>
      </trkpt>
      <trkpt lat="43.59474" lon="2.95622">
        <ele>724</ele>
        <time>2026-05-07T08:29:33.999Z</time>
      </trkpt>
      <trkpt lat="43.59475" lon="2.95622">
        <ele>724</ele>
        <time>2026-05-07T08:29:34.999Z</time>
      </trkpt>
      <trkpt lat="43.59476" lon="2.95622">
        <ele>724.3</ele>
        <time>2026-05-07T08:29:35.999Z</time>
      </trkpt>
      <trkpt lat="43.59476" lon="2.95623">
        <ele>724.5</ele>
        <time>2026-05-07T08:29:36.999Z</time>
      </trkpt>
      <trkpt lat="43.59476" lon="2.95623">
        <ele>724.6</ele>
        <time>2026-05-07T08:29:37.999Z</time>
      </trkpt>
      <trkpt lat="43.59477" lon="2.95623">
        <ele>724.3</ele>
        <time>2026-05-07T08:29:38.999Z</time>
      </trkpt>
      <trkpt lat="43.59478" lon="2.95624">
        <ele>724.2</ele>
        <time>2026-05-07T08:29:39.999Z</time>
      </trkpt>
      <trkpt lat="43.59478" lon="2.95625">
        <ele>724.6</ele>
        <time>2026-05-07T08:29:40.999Z</time>
      </trkpt>
      <trkpt lat="43.59478" lon="2.95626">
        <ele>725.3</ele>
        <time>2026-05-07T08:29:41.999Z</time>
      </trkpt>
      <trkpt lat="43.59479" lon="2.95627">
        <ele>725.5</ele>
        <time>2026-05-07T08:29:42.999Z</time>
      </trkpt>
      <trkpt lat="43.5948" lon="2.95628">
        <ele>725.5</ele>
        <time>2026-05-07T08:29:43.999Z</time>
      </trkpt>
      <trkpt lat="43.5948" lon="2.95628">
        <ele>725.5</ele>
        <time>2026-05-07T08:29:44.999Z</time>
      </trkpt>
      <trkpt lat="43.59481" lon="2.95627">
        <ele>725.7</ele>
        <time>2026-05-07T08:29:45.999Z</time>
      </trkpt>
      <trkpt lat="43.5948" lon="2.95626">
        <ele>725.9</ele>
        <time>2026-05-07T08:29:46.999Z</time>
      </trkpt>
      <trkpt lat="43.5948" lon="2.95624">
        <ele>725.8</ele>
        <time>2026-05-07T08:29:47.999Z</time>
      </trkpt>
      <trkpt lat="43.5948" lon="2.95623">
        <ele>725.7</ele>
        <time>2026-05-07T08:29:48.999Z</time>
      </trkpt>
      <trkpt lat="43.5948" lon="2.95623">
        <ele>725.7</ele>
        <time>2026-05-07T08:29:49.999Z</time>
      </trkpt>
      <trkpt lat="43.5948" lon="2.95623">
        <ele>725.5</ele>
        <time>2026-05-07T08:29:50.999Z</time>
      </trkpt>
      <trkpt lat="43.5948" lon="2.95623">
        <ele>725.6</ele>
        <time>2026-05-07T08:29:51.999Z</time>
      </trkpt>
      <trkpt lat="43.5948" lon="2.95623">
        <ele>725.9</ele>
        <time>2026-05-07T08:29:52.999Z</time>
      </trkpt>
      <trkpt lat="43.59479" lon="2.95623">
        <ele>726.1</ele>
        <time>2026-05-07T08:29:53.999Z</time>
      </trkpt>
      <trkpt lat="43.59479" lon="2.95623">
        <ele>726</ele>
        <time>2026-05-07T08:29:54.999Z</time>
      </trkpt>
      <trkpt lat="43.59479" lon="2.95624">
        <ele>726</ele>
        <time>2026-05-07T08:29:55.999Z</time>
      </trkpt>
      <trkpt lat="43.59478" lon="2.95625">
        <ele>725.9</ele>
        <time>2026-05-07T08:29:56.999Z</time>
      </trkpt>
      <trkpt lat="43.59478" lon="2.95626">
        <ele>726.2</ele>
        <time>2026-05-07T08:29:57.999Z</time>
      </trkpt>
      <trkpt lat="43.59478" lon="2.95626">
        <ele>726.4</ele>
        <time>2026-05-07T08:29:58.999Z</time>
      </trkpt>
      <trkpt lat="43.59478" lon="2.95626">
        <ele>726.6</ele>
        <time>2026-05-07T08:29:59.999Z</time>
      </trkpt>
      <trkpt lat="43.59478" lon="2.95626">
        <ele>726.6</ele>
        <time>2026-05-07T08:30:00.999Z</time>
      </trkpt>
      <trkpt lat="43.59478" lon="2.95626">
        <ele>726.6</ele>
        <time>2026-05-07T08:30:01.999Z</time>
      </trkpt>
      <trkpt lat="43.59478" lon="2.95626">
        <ele>726.2</ele>
        <time>2026-05-07T08:30:02.999Z</time>
      </trkpt>
      <trkpt lat="43.59478" lon="2.95626">
        <ele>726.2</ele>
        <time>2026-05-07T08:30:03.999Z</time>
      </trkpt>
      <trkpt lat="43.59478" lon="2.95626">
        <ele>726.3</ele>
        <time>2026-05-07T08:30:04.999Z</time>
      </trkpt>
      <trkpt lat="43.59478" lon="2.95626">
        <ele>726.4</ele>
        <time>2026-05-07T08:30:05.999Z</time>
      </trkpt>
      <trkpt lat="43.59478" lon="2.95626">
        <ele>726.5</ele>
        <time>2026-05-07T08:30:06.999Z</time>
      </trkpt>
      <trkpt lat="43.59478" lon="2.95626">
        <ele>726.4</ele>
        <time>2026-05-07T08:30:07.999Z</time>
      </trkpt>
      <trkpt lat="43.59478" lon="2.95626">
        <ele>726.3</ele>
        <time>2026-05-07T08:30:08.999Z</time>
      </trkpt>
      <trkpt lat="43.59478" lon="2.95627">
        <ele>726.3</ele>
        <time>2026-05-07T08:30:09.999Z</time>
      </trkpt>
      <trkpt lat="43.59478" lon="2.95627">
        <ele>726.2</ele>
        <time>2026-05-07T08:30:10.999Z</time>
      </trkpt>
      <trkpt lat="43.59478" lon="2.95627">
        <ele>726</ele>
        <time>2026-05-07T08:30:11.999Z</time>
      </trkpt>
      <trkpt lat="43.59478" lon="2.95627">
        <ele>725.9</ele>
        <time>2026-05-07T08:30:12.999Z</time>
      </trkpt>
      <trkpt lat="43.59478" lon="2.95627">
        <ele>725.9</ele>
        <time>2026-05-07T08:30:13.999Z</time>
      </trkpt>
      <trkpt lat="43.59478" lon="2.95627">
        <ele>725.8</ele>
        <time>2026-05-07T08:30:14.999Z</time>
      </trkpt>
      <trkpt lat="43.59478" lon="2.95627">
        <ele>725.8</ele>
        <time>2026-05-07T08:30:15.999Z</time>
      </trkpt>
      <trkpt lat="43.59478" lon="2.95626">
        <ele>726</ele>
        <time>2026-05-07T08:30:16.999Z</time>
      </trkpt>
      <trkpt lat="43.59478" lon="2.95626">
        <ele>726</ele>
        <time>2026-05-07T08:30:17.999Z</time>
      </trkpt>
      <trkpt lat="43.59478" lon="2.95626">
        <ele>725.8</ele>
        <time>2026-05-07T08:30:18.999Z</time>
      </trkpt>
      <trkpt lat="43.59478" lon="2.95626">
        <ele>725.7</ele>
        <time>2026-05-07T08:30:19.999Z</time>
      </trkpt>
      <trkpt lat="43.59478" lon="2.95626">
        <ele>725.6</ele>
        <time>2026-05-07T08:30:20.999Z</time>
      </trkpt>
      <trkpt lat="43.59478" lon="2.95626">
        <ele>725.5</ele>
        <time>2026-05-07T08:30:21.999Z</time>
      </trkpt>
      <trkpt lat="43.59478" lon="2.95626">
        <ele>725.4</ele>
        <time>2026-05-07T08:30:22.999Z</time>
      </trkpt>
      <trkpt lat="43.59478" lon="2.95626">
        <ele>725.5</ele>
        <time>2026-05-07T08:30:23.999Z</time>
      </trkpt>
      <trkpt lat="43.59478" lon="2.95626">
        <ele>725.5</ele>
        <time>2026-05-07T08:30:24.999Z</time>
      </trkpt>
      <trkpt lat="43.59478" lon="2.95626">
        <ele>725.5</ele>
        <time>2026-05-07T08:30:25.999Z</time>
      </trkpt>
      <trkpt lat="43.59478" lon="2.95626">
        <ele>725.8</ele>
        <time>2026-05-07T08:30:26.999Z</time>
      </trkpt>
      <trkpt lat="43.59478" lon="2.95626">
        <ele>726.1</ele>
        <time>2026-05-07T08:30:27.999Z</time>
      </trkpt>
      <trkpt lat="43.59478" lon="2.95626">
        <ele>726.3</ele>
        <time>2026-05-07T08:30:28.999Z</time>
      </trkpt>
      <trkpt lat="43.59478" lon="2.95627">
        <ele>726.5</ele>
        <time>2026-05-07T08:30:29.999Z</time>
      </trkpt>
      <trkpt lat="43.59478" lon="2.95627">
        <ele>726.7</ele>
        <time>2026-05-07T08:30:30.999Z</time>
      </trkpt>
      <trkpt lat="43.59478" lon="2.95627">
        <ele>726.8</ele>
        <time>2026-05-07T08:30:31.999Z</time>
      </trkpt>
      <trkpt lat="43.59478" lon="2.95627">
        <ele>726.9</ele>
        <time>2026-05-07T08:30:32.999Z</time>
      </trkpt>
      <trkpt lat="43.59478" lon="2.95627">
        <ele>726.9</ele>
        <time>2026-05-07T08:30:33.999Z</time>
      </trkpt>
      <trkpt lat="43.59478" lon="2.95627">
        <ele>727</ele>
        <time>2026-05-07T08:30:34.999Z</time>
      </trkpt>
      <trkpt lat="43.59478" lon="2.95627">
        <ele>727</ele>
        <time>2026-05-07T08:30:35.999Z</time>
      </trkpt>
      <trkpt lat="43.59477" lon="2.95627">
        <ele>726.9</ele>
        <time>2026-05-07T08:30:36.999Z</time>
      </trkpt>
      <trkpt lat="43.59478" lon="2.95627">
        <ele>726.9</ele>
        <time>2026-05-07T08:30:37.999Z</time>
      </trkpt>
      <trkpt lat="43.59478" lon="2.95628">
        <ele>727</ele>
        <time>2026-05-07T08:30:38.999Z</time>
      </trkpt>
      <trkpt lat="43.59478" lon="2.95628">
        <ele>727</ele>
        <time>2026-05-07T08:30:39.999Z</time>
      </trkpt>
      <trkpt lat="43.59478" lon="2.95628">
        <ele>727</ele>
        <time>2026-05-07T08:30:40.999Z</time>
      </trkpt>
      <trkpt lat="43.59478" lon="2.95628">
        <ele>727.2</ele>
        <time>2026-05-07T08:30:41.999Z</time>
      </trkpt>
      <trkpt lat="43.59478" lon="2.95628">
        <ele>727.3</ele>
        <time>2026-05-07T08:30:42.999Z</time>
      </trkpt>
      <trkpt lat="43.59478" lon="2.95628">
        <ele>727.2</ele>
        <time>2026-05-07T08:30:43.999Z</time>
      </trkpt>
      <trkpt lat="43.59478" lon="2.95628">
        <ele>727.3</ele>
        <time>2026-05-07T08:30:44.999Z</time>
      </trkpt>
      <trkpt lat="43.59479" lon="2.95627">
        <ele>727.5</ele>
        <time>2026-05-07T08:30:45.999Z</time>
      </trkpt>
      <trkpt lat="43.59479" lon="2.95627">
        <ele>727.6</ele>
        <time>2026-05-07T08:30:46.999Z</time>
      </trkpt>
      <trkpt lat="43.59478" lon="2.95627">
        <ele>727.7</ele>
        <time>2026-05-07T08:30:47.999Z</time>
      </trkpt>
      <trkpt lat="43.59478" lon="2.95627">
        <ele>727.9</ele>
        <time>2026-05-07T08:30:48.999Z</time>
      </trkpt>
      <trkpt lat="43.59478" lon="2.95627">
        <ele>727.7</ele>
        <time>2026-05-07T08:30:49.999Z</time>
      </trkpt>
      <trkpt lat="43.59479" lon="2.95627">
        <ele>727.8</ele>
        <time>2026-05-07T08:30:50.999Z</time>
      </trkpt>
      <trkpt lat="43.59479" lon="2.95627">
        <ele>727.9</ele>
        <time>2026-05-07T08:30:51.999Z</time>
      </trkpt>
      <trkpt lat="43.59479" lon="2.95627">
        <ele>727.9</ele>
        <time>2026-05-07T08:30:52.999Z</time>
      </trkpt>
      <trkpt lat="43.59479" lon="2.95627">
        <ele>727.9</ele>
        <time>2026-05-07T08:30:53.999Z</time>
      </trkpt>
      <trkpt lat="43.59479" lon="2.95627">
        <ele>727.9</ele>
        <time>2026-05-07T08:30:54.999Z</time>
      </trkpt>
      <trkpt lat="43.59479" lon="2.95627">
        <ele>727.8</ele>
        <time>2026-05-07T08:30:55.999Z</time>
      </trkpt>
      <trkpt lat="43.59479" lon="2.95627">
        <ele>727.8</ele>
        <time>2026-05-07T08:30:56.999Z</time>
      </trkpt>
      <trkpt lat="43.59479" lon="2.95627">
        <ele>727.9</ele>
        <time>2026-05-07T08:30:57.999Z</time>
      </trkpt>
      <trkpt lat="43.59479" lon="2.95627">
        <ele>728</ele>
        <time>2026-05-07T08:30:58.999Z</time>
      </trkpt>
      <trkpt lat="43.59479" lon="2.95627">
        <ele>727.9</ele>
        <time>2026-05-07T08:30:59.999Z</time>
      </trkpt>
      <trkpt lat="43.59479" lon="2.95627">
        <ele>727.8</ele>
        <time>2026-05-07T08:31:00.999Z</time>
      </trkpt>
      <trkpt lat="43.59479" lon="2.95627">
        <ele>727.7</ele>
        <time>2026-05-07T08:31:01.999Z</time>
      </trkpt>
      <trkpt lat="43.59478" lon="2.95627">
        <ele>727.5</ele>
        <time>2026-05-07T08:31:02.999Z</time>
      </trkpt>
      <trkpt lat="43.59478" lon="2.95627">
        <ele>727.5</ele>
        <time>2026-05-07T08:31:03.999Z</time>
      </trkpt>
      <trkpt lat="43.59478" lon="2.95627">
        <ele>727.5</ele>
        <time>2026-05-07T08:31:04.999Z</time>
      </trkpt>
      <trkpt lat="43.59478" lon="2.95627">
        <ele>727.5</ele>
        <time>2026-05-07T08:31:05.999Z</time>
      </trkpt>
      <trkpt lat="43.59478" lon="2.95627">
        <ele>727.5</ele>
        <time>2026-05-07T08:31:06.999Z</time>
      </trkpt>
      <trkpt lat="43.59478" lon="2.95627">
        <ele>727.6</ele>
        <time>2026-05-07T08:31:07.999Z</time>
      </trkpt>
      <trkpt lat="43.59478" lon="2.95627">
        <ele>727.6</ele>
        <time>2026-05-07T08:31:08.999Z</time>
      </trkpt>
      <trkpt lat="43.59478" lon="2.95627">
        <ele>727.7</ele>
        <time>2026-05-07T08:31:09.999Z</time>
      </trkpt>
      <trkpt lat="43.59478" lon="2.95627">
        <ele>727.8</ele>
        <time>2026-05-07T08:31:10.999Z</time>
      </trkpt>
      <trkpt lat="43.59478" lon="2.95627">
        <ele>727.8</ele>
        <time>2026-05-07T08:31:11.999Z</time>
      </trkpt>
      <trkpt lat="43.59478" lon="2.95627">
        <ele>727.9</ele>
        <time>2026-05-07T08:31:12.999Z</time>
      </trkpt>
      <trkpt lat="43.59478" lon="2.95626">
        <ele>728</ele>
        <time>2026-05-07T08:31:13.999Z</time>
      </trkpt>
      <trkpt lat="43.59479" lon="2.95626">
        <ele>727.9</ele>
        <time>2026-05-07T08:31:14.999Z</time>
      </trkpt>
      <trkpt lat="43.59479" lon="2.95626">
        <ele>728</ele>
        <time>2026-05-07T08:31:15.999Z</time>
      </trkpt>
      <trkpt lat="43.59479" lon="2.95626">
        <ele>727.9</ele>
        <time>2026-05-07T08:31:16.999Z</time>
      </trkpt>
      <trkpt lat="43.59479" lon="2.95626">
        <ele>727.9</ele>
        <time>2026-05-07T08:31:17.999Z</time>
      </trkpt>
      <trkpt lat="43.59479" lon="2.95626">
        <ele>727.9</ele>
        <time>2026-05-07T08:31:18.999Z</time>
      </trkpt>
      <trkpt lat="43.59479" lon="2.95626">
        <ele>728</ele>
        <time>2026-05-07T08:31:19.999Z</time>
      </trkpt>
      <trkpt lat="43.59478" lon="2.95626">
        <ele>728.1</ele>
        <time>2026-05-07T08:31:20.999Z</time>
      </trkpt>
      <trkpt lat="43.59478" lon="2.95626">
        <ele>728.3</ele>
        <time>2026-05-07T08:31:21.999Z</time>
      </trkpt>
      <trkpt lat="43.59479" lon="2.95626">
        <ele>728.8</ele>
        <time>2026-05-07T08:31:22.999Z</time>
      </trkpt>
      <trkpt lat="43.59479" lon="2.95626">
        <ele>729.1</ele>
        <time>2026-05-07T08:31:23.999Z</time>
      </trkpt>
      <trkpt lat="43.59479" lon="2.95626">
        <ele>729.1</ele>
        <time>2026-05-07T08:31:24.999Z</time>
      </trkpt>
      <trkpt lat="43.59479" lon="2.95626">
        <ele>728.9</ele>
        <time>2026-05-07T08:31:25.999Z</time>
      </trkpt>
      <trkpt lat="43.59479" lon="2.95626">
        <ele>729</ele>
        <time>2026-05-07T08:31:26.999Z</time>
      </trkpt>
      <trkpt lat="43.59479" lon="2.95626">
        <ele>729.2</ele>
        <time>2026-05-07T08:31:27.999Z</time>
      </trkpt>
      <trkpt lat="43.59479" lon="2.95626">
        <ele>729.5</ele>
        <time>2026-05-07T08:31:28.999Z</time>
      </trkpt>
      <trkpt lat="43.59479" lon="2.95626">
        <ele>729.9</ele>
        <time>2026-05-07T08:31:29.999Z</time>
      </trkpt>
      <trkpt lat="43.59479" lon="2.95626">
        <ele>730</ele>
        <time>2026-05-07T08:31:30.999Z</time>
      </trkpt>
      <trkpt lat="43.59479" lon="2.95626">
        <ele>730</ele>
        <time>2026-05-07T08:31:31.999Z</time>
      </trkpt>
      <trkpt lat="43.59479" lon="2.95626">
        <ele>729.9</ele>
        <time>2026-05-07T08:31:32.999Z</time>
      </trkpt>
      <trkpt lat="43.59479" lon="2.95626">
        <ele>729.9</ele>
        <time>2026-05-07T08:31:33.999Z</time>
      </trkpt>
      <trkpt lat="43.59479" lon="2.95626">
        <ele>730.1</ele>
        <time>2026-05-07T08:31:34.999Z</time>
      </trkpt>
      <trkpt lat="43.59479" lon="2.95626">
        <ele>730.2</ele>
        <time>2026-05-07T08:31:35.999Z</time>
      </trkpt>
      <trkpt lat="43.59479" lon="2.95626">
        <ele>730.2</ele>
        <time>2026-05-07T08:31:36.999Z</time>
      </trkpt>
      <trkpt lat="43.59479" lon="2.95626">
        <ele>730.2</ele>
        <time>2026-05-07T08:31:37.999Z</time>
      </trkpt>
      <trkpt lat="43.5948" lon="2.95626">
        <ele>730.2</ele>
        <time>2026-05-07T08:31:38.999Z</time>
      </trkpt>
      <trkpt lat="43.5948" lon="2.95626">
        <ele>730.1</ele>
        <time>2026-05-07T08:31:39.999Z</time>
      </trkpt>
      <trkpt lat="43.5948" lon="2.95626">
        <ele>730.2</ele>
        <time>2026-05-07T08:31:40.999Z</time>
      </trkpt>
      <trkpt lat="43.5948" lon="2.95626">
        <ele>730.4</ele>
        <time>2026-05-07T08:31:41.999Z</time>
      </trkpt>
      <trkpt lat="43.5948" lon="2.95626">
        <ele>730.6</ele>
        <time>2026-05-07T08:31:42.999Z</time>
      </trkpt>
      <trkpt lat="43.5948" lon="2.95626">
        <ele>730.9</ele>
        <time>2026-05-07T08:31:43.999Z</time>
      </trkpt>
      <trkpt lat="43.5948" lon="2.95626">
        <ele>731.1</ele>
        <time>2026-05-07T08:31:44.999Z</time>
      </trkpt>
      <trkpt lat="43.5948" lon="2.95626">
        <ele>731.1</ele>
        <time>2026-05-07T08:31:45.999Z</time>
      </trkpt>
      <trkpt lat="43.5948" lon="2.95626">
        <ele>731</ele>
        <time>2026-05-07T08:31:46.999Z</time>
      </trkpt>
      <trkpt lat="43.5948" lon="2.95626">
        <ele>730.7</ele>
        <time>2026-05-07T08:31:47.999Z</time>
      </trkpt>
      <trkpt lat="43.5948" lon="2.95626">
        <ele>730.3</ele>
        <time>2026-05-07T08:31:48.999Z</time>
      </trkpt>
      <trkpt lat="43.5948" lon="2.95626">
        <ele>730.1</ele>
        <time>2026-05-07T08:31:49.999Z</time>
      </trkpt>
      <trkpt lat="43.5948" lon="2.95625">
        <ele>729.9</ele>
        <time>2026-05-07T08:31:50.999Z</time>
      </trkpt>
      <trkpt lat="43.5948" lon="2.95625">
        <ele>729.7</ele>
        <time>2026-05-07T08:31:51.999Z</time>
      </trkpt>
      <trkpt lat="43.5948" lon="2.95625">
        <ele>729.8</ele>
        <time>2026-05-07T08:31:52.999Z</time>
      </trkpt>
      <trkpt lat="43.59479" lon="2.95625">
        <ele>729.8</ele>
        <time>2026-05-07T08:31:53.999Z</time>
      </trkpt>
      <trkpt lat="43.59479" lon="2.95625">
        <ele>729.8</ele>
        <time>2026-05-07T08:31:54.999Z</time>
      </trkpt>
      <trkpt lat="43.5948" lon="2.95625">
        <ele>729.8</ele>
        <time>2026-05-07T08:31:55.999Z</time>
      </trkpt>
      <trkpt lat="43.5948" lon="2.95625">
        <ele>729.8</ele>
        <time>2026-05-07T08:31:56.999Z</time>
      </trkpt>
      <trkpt lat="43.5948" lon="2.95624">
        <ele>730</ele>
        <time>2026-05-07T08:31:57.999Z</time>
      </trkpt>
      <trkpt lat="43.59481" lon="2.95626">
        <ele>729.9</ele>
        <time>2026-05-07T08:31:58.999Z</time>
      </trkpt>
      <trkpt lat="43.5948" lon="2.95626">
        <ele>729.9</ele>
        <time>2026-05-07T08:31:59.999Z</time>
      </trkpt>
      <trkpt lat="43.5948" lon="2.95627">
        <ele>729.5</ele>
        <time>2026-05-07T08:32:00.999Z</time>
      </trkpt>
      <trkpt lat="43.59479" lon="2.95627">
        <ele>729.3</ele>
        <time>2026-05-07T08:32:01.999Z</time>
      </trkpt>
      <trkpt lat="43.59479" lon="2.95628">
        <ele>729.4</ele>
        <time>2026-05-07T08:32:02.999Z</time>
      </trkpt>
      <trkpt lat="43.59478" lon="2.95628">
        <ele>729.3</ele>
        <time>2026-05-07T08:32:03.999Z</time>
      </trkpt>
      <trkpt lat="43.59478" lon="2.95628">
        <ele>729.4</ele>
        <time>2026-05-07T08:32:04.999Z</time>
      </trkpt>
      <trkpt lat="43.59478" lon="2.95628">
        <ele>729.1</ele>
        <time>2026-05-07T08:32:05.999Z</time>
      </trkpt>
      <trkpt lat="43.59478" lon="2.95628">
        <ele>728.9</ele>
        <time>2026-05-07T08:32:06.999Z</time>
      </trkpt>
      <trkpt lat="43.59478" lon="2.95628">
        <ele>728.9</ele>
        <time>2026-05-07T08:32:07.999Z</time>
      </trkpt>
      <trkpt lat="43.59478" lon="2.95627">
        <ele>728.5</ele>
        <time>2026-05-07T08:32:08.999Z</time>
      </trkpt>
      <trkpt lat="43.59478" lon="2.95627">
        <ele>728.2</ele>
        <time>2026-05-07T08:32:09.999Z</time>
      </trkpt>
      <trkpt lat="43.59478" lon="2.95627">
        <ele>728.2</ele>
        <time>2026-05-07T08:32:10.999Z</time>
      </trkpt>
      <trkpt lat="43.59478" lon="2.95627">
        <ele>728.1</ele>
        <time>2026-05-07T08:32:11.999Z</time>
      </trkpt>
      <trkpt lat="43.59478" lon="2.95627">
        <ele>728</ele>
        <time>2026-05-07T08:32:12.999Z</time>
      </trkpt>
      <trkpt lat="43.59478" lon="2.95627">
        <ele>728</ele>
        <time>2026-05-07T08:32:13.999Z</time>
      </trkpt>
      <trkpt lat="43.59478" lon="2.95627">
        <ele>727.8</ele>
        <time>2026-05-07T08:32:14.999Z</time>
      </trkpt>
      <trkpt lat="43.59478" lon="2.95627">
        <ele>727.7</ele>
        <time>2026-05-07T08:32:15.999Z</time>
      </trkpt>
      <trkpt lat="43.59478" lon="2.95627">
        <ele>727.7</ele>
        <time>2026-05-07T08:32:16.999Z</time>
      </trkpt>
      <trkpt lat="43.59478" lon="2.95627">
        <ele>727.7</ele>
        <time>2026-05-07T08:32:17.999Z</time>
      </trkpt>
      <trkpt lat="43.59478" lon="2.95627">
        <ele>727.6</ele>
        <time>2026-05-07T08:32:18.999Z</time>
      </trkpt>
      <trkpt lat="43.59478" lon="2.95627">
        <ele>727.5</ele>
        <time>2026-05-07T08:32:19.999Z</time>
      </trkpt>
      <trkpt lat="43.59478" lon="2.95627">
        <ele>727.4</ele>
        <time>2026-05-07T08:32:20.999Z</time>
      </trkpt>
      <trkpt lat="43.59479" lon="2.95626">
        <ele>727.3</ele>
        <time>2026-05-07T08:32:21.999Z</time>
      </trkpt>
      <trkpt lat="43.59479" lon="2.95626">
        <ele>727.3</ele>
        <time>2026-05-07T08:32:22.999Z</time>
      </trkpt>
      <trkpt lat="43.59479" lon="2.95626">
        <ele>727.5</ele>
        <time>2026-05-07T08:32:23.999Z</time>
      </trkpt>
      <trkpt lat="43.59479" lon="2.95626">
        <ele>727.6</ele>
        <time>2026-05-07T08:32:24.999Z</time>
      </trkpt>
      <trkpt lat="43.59479" lon="2.95626">
        <ele>727.7</ele>
        <time>2026-05-07T08:32:25.999Z</time>
      </trkpt>
      <trkpt lat="43.59479" lon="2.95626">
        <ele>728</ele>
        <time>2026-05-07T08:32:26.999Z</time>
      </trkpt>
      <trkpt lat="43.59479" lon="2.95626">
        <ele>728.1</ele>
        <time>2026-05-07T08:32:27.999Z</time>
      </trkpt>
      <trkpt lat="43.59479" lon="2.95626">
        <ele>728.1</ele>
        <time>2026-05-07T08:32:28.999Z</time>
      </trkpt>
      <trkpt lat="43.59479" lon="2.95626">
        <ele>728.2</ele>
        <time>2026-05-07T08:32:29.999Z</time>
      </trkpt>
      <trkpt lat="43.59479" lon="2.95626">
        <ele>728.4</ele>
        <time>2026-05-07T08:32:30.999Z</time>
      </trkpt>
      <trkpt lat="43.59479" lon="2.95626">
        <ele>728.5</ele>
        <time>2026-05-07T08:32:31.999Z</time>
      </trkpt>
      <trkpt lat="43.59479" lon="2.95626">
        <ele>729</ele>
        <time>2026-05-07T08:32:32.999Z</time>
      </trkpt>
      <trkpt lat="43.59479" lon="2.95626">
        <ele>729.3</ele>
        <time>2026-05-07T08:32:33.999Z</time>
      </trkpt>
      <trkpt lat="43.59479" lon="2.95626">
        <ele>729.5</ele>
        <time>2026-05-07T08:32:34.999Z</time>
      </trkpt>
      <trkpt lat="43.59479" lon="2.95627">
        <ele>729.7</ele>
        <time>2026-05-07T08:32:35.999Z</time>
      </trkpt>
      <trkpt lat="43.59479" lon="2.95627">
        <ele>730</ele>
        <time>2026-05-07T08:32:36.999Z</time>
      </trkpt>
      <trkpt lat="43.59479" lon="2.95627">
        <ele>730.1</ele>
        <time>2026-05-07T08:32:37.999Z</time>
      </trkpt>
      <trkpt lat="43.59479" lon="2.95627">
        <ele>730.2</ele>
        <time>2026-05-07T08:32:38.999Z</time>
      </trkpt>
      <trkpt lat="43.59479" lon="2.95627">
        <ele>730</ele>
        <time>2026-05-07T08:32:39.999Z</time>
      </trkpt>
      <trkpt lat="43.59478" lon="2.95627">
        <ele>729.7</ele>
        <time>2026-05-07T08:32:40.999Z</time>
      </trkpt>
      <trkpt lat="43.59478" lon="2.95627">
        <ele>729.6</ele>
        <time>2026-05-07T08:32:41.999Z</time>
      </trkpt>
      <trkpt lat="43.59478" lon="2.95626">
        <ele>729.5</ele>
        <time>2026-05-07T08:32:42.999Z</time>
      </trkpt>
      <trkpt lat="43.59478" lon="2.95627">
        <ele>729.3</ele>
        <time>2026-05-07T08:32:43.999Z</time>
      </trkpt>
      <trkpt lat="43.59478" lon="2.95627">
        <ele>729.1</ele>
        <time>2026-05-07T08:32:44.999Z</time>
      </trkpt>
      <trkpt lat="43.59478" lon="2.95627">
        <ele>728.8</ele>
        <time>2026-05-07T08:32:45.999Z</time>
      </trkpt>
      <trkpt lat="43.59478" lon="2.95627">
        <ele>728.6</ele>
        <time>2026-05-07T08:32:46.999Z</time>
      </trkpt>
      <trkpt lat="43.59478" lon="2.95627">
        <ele>728.4</ele>
        <time>2026-05-07T08:32:47.999Z</time>
      </trkpt>
      <trkpt lat="43.59478" lon="2.95627">
        <ele>728</ele>
        <time>2026-05-07T08:32:48.999Z</time>
      </trkpt>
      <trkpt lat="43.59478" lon="2.95627">
        <ele>727.8</ele>
        <time>2026-05-07T08:32:49.999Z</time>
      </trkpt>
      <trkpt lat="43.59479" lon="2.95627">
        <ele>727.7</ele>
        <time>2026-05-07T08:32:50.999Z</time>
      </trkpt>
      <trkpt lat="43.59479" lon="2.95627">
        <ele>727.6</ele>
        <time>2026-05-07T08:32:51.999Z</time>
      </trkpt>
      <trkpt lat="43.59479" lon="2.95627">
        <ele>727.5</ele>
        <time>2026-05-07T08:32:52.999Z</time>
      </trkpt>
      <trkpt lat="43.59479" lon="2.95627">
        <ele>727.6</ele>
        <time>2026-05-07T08:32:53.999Z</time>
      </trkpt>
      <trkpt lat="43.59479" lon="2.95627">
        <ele>727.7</ele>
        <time>2026-05-07T08:32:54.999Z</time>
      </trkpt>
      <trkpt lat="43.59479" lon="2.95627">
        <ele>727.6</ele>
        <time>2026-05-07T08:32:55.999Z</time>
      </trkpt>
      <trkpt lat="43.59479" lon="2.95627">
        <ele>727.4</ele>
        <time>2026-05-07T08:32:56.999Z</time>
      </trkpt>
      <trkpt lat="43.59479" lon="2.95627">
        <ele>727.2</ele>
        <time>2026-05-07T08:32:57.999Z</time>
      </trkpt>
      <trkpt lat="43.59479" lon="2.95627">
        <ele>727.5</ele>
        <time>2026-05-07T08:32:58.999Z</time>
      </trkpt>
      <trkpt lat="43.59479" lon="2.95627">
        <ele>727.8</ele>
        <time>2026-05-07T08:32:59.999Z</time>
      </trkpt>
      <trkpt lat="43.5948" lon="2.95627">
        <ele>727.7</ele>
        <time>2026-05-07T08:33:00.999Z</time>
      </trkpt>
      <trkpt lat="43.5948" lon="2.95628">
        <ele>727.6</ele>
        <time>2026-05-07T08:33:01.999Z</time>
      </trkpt>
      <trkpt lat="43.5948" lon="2.95628">
        <ele>727.6</ele>
        <time>2026-05-07T08:33:02.999Z</time>
      </trkpt>
      <trkpt lat="43.5948" lon="2.95628">
        <ele>727.8</ele>
        <time>2026-05-07T08:33:03.999Z</time>
      </trkpt>
      <trkpt lat="43.5948" lon="2.95627">
        <ele>728.2</ele>
        <time>2026-05-07T08:33:04.999Z</time>
      </trkpt>
      <trkpt lat="43.5948" lon="2.95627">
        <ele>728.6</ele>
        <time>2026-05-07T08:33:05.999Z</time>
      </trkpt>
      <trkpt lat="43.5948" lon="2.95627">
        <ele>729</ele>
        <time>2026-05-07T08:33:06.999Z</time>
      </trkpt>
      <trkpt lat="43.5948" lon="2.95627">
        <ele>729.1</ele>
        <time>2026-05-07T08:33:07.999Z</time>
      </trkpt>
      <trkpt lat="43.5948" lon="2.95627">
        <ele>729.2</ele>
        <time>2026-05-07T08:33:08.999Z</time>
      </trkpt>
      <trkpt lat="43.5948" lon="2.95627">
        <ele>729.3</ele>
        <time>2026-05-07T08:33:09.999Z</time>
      </trkpt>
      <trkpt lat="43.5948" lon="2.95627">
        <ele>729.5</ele>
        <time>2026-05-07T08:33:10.999Z</time>
      </trkpt>
      <trkpt lat="43.5948" lon="2.95627">
        <ele>729.7</ele>
        <time>2026-05-07T08:33:11.999Z</time>
      </trkpt>
      <trkpt lat="43.59481" lon="2.95627">
        <ele>729.9</ele>
        <time>2026-05-07T08:33:12.999Z</time>
      </trkpt>
      <trkpt lat="43.59481" lon="2.95627">
        <ele>730.2</ele>
        <time>2026-05-07T08:33:13.999Z</time>
      </trkpt>
      <trkpt lat="43.59481" lon="2.95627">
        <ele>730.4</ele>
        <time>2026-05-07T08:33:14.999Z</time>
      </trkpt>
      <trkpt lat="43.59481" lon="2.95627">
        <ele>730.4</ele>
        <time>2026-05-07T08:33:15.999Z</time>
      </trkpt>
      <trkpt lat="43.59481" lon="2.95627">
        <ele>730.4</ele>
        <time>2026-05-07T08:33:16.999Z</time>
      </trkpt>
      <trkpt lat="43.59481" lon="2.95627">
        <ele>730.3</ele>
        <time>2026-05-07T08:33:17.999Z</time>
      </trkpt>
      <trkpt lat="43.59481" lon="2.95627">
        <ele>730.3</ele>
        <time>2026-05-07T08:33:18.999Z</time>
      </trkpt>
      <trkpt lat="43.59481" lon="2.95627">
        <ele>730.3</ele>
        <time>2026-05-07T08:33:19.999Z</time>
      </trkpt>
      <trkpt lat="43.59481" lon="2.95627">
        <ele>730.2</ele>
        <time>2026-05-07T08:33:20.999Z</time>
      </trkpt>
      <trkpt lat="43.59481" lon="2.95627">
        <ele>729.9</ele>
        <time>2026-05-07T08:33:21.999Z</time>
      </trkpt>
      <trkpt lat="43.59481" lon="2.95627">
        <ele>729.7</ele>
        <time>2026-05-07T08:33:22.999Z</time>
      </trkpt>
      <trkpt lat="43.59481" lon="2.95627">
        <ele>729.6</ele>
        <time>2026-05-07T08:33:23.999Z</time>
      </trkpt>
      <trkpt lat="43.59481" lon="2.95627">
        <ele>729.7</ele>
        <time>2026-05-07T08:33:24.999Z</time>
      </trkpt>
      <trkpt lat="43.59481" lon="2.95627">
        <ele>729.7</ele>
        <time>2026-05-07T08:33:25.999Z</time>
      </trkpt>
      <trkpt lat="43.59481" lon="2.95627">
        <ele>729.8</ele>
        <time>2026-05-07T08:33:26.999Z</time>
      </trkpt>
      <trkpt lat="43.59481" lon="2.95627">
        <ele>730</ele>
        <time>2026-05-07T08:33:27.999Z</time>
      </trkpt>
      <trkpt lat="43.59481" lon="2.95628">
        <ele>730</ele>
        <time>2026-05-07T08:33:28.999Z</time>
      </trkpt>
      <trkpt lat="43.59481" lon="2.95628">
        <ele>730.3</ele>
        <time>2026-05-07T08:33:29.999Z</time>
      </trkpt>
      <trkpt lat="43.59481" lon="2.95628">
        <ele>730.1</ele>
        <time>2026-05-07T08:33:30.999Z</time>
      </trkpt>
      <trkpt lat="43.59481" lon="2.95627">
        <ele>730</ele>
        <time>2026-05-07T08:33:31.999Z</time>
      </trkpt>
      <trkpt lat="43.59481" lon="2.95627">
        <ele>730</ele>
        <time>2026-05-07T08:33:32.999Z</time>
      </trkpt>
      <trkpt lat="43.59481" lon="2.95627">
        <ele>730.2</ele>
        <time>2026-05-07T08:33:33.999Z</time>
      </trkpt>
      <trkpt lat="43.59481" lon="2.95627">
        <ele>730.1</ele>
        <time>2026-05-07T08:33:34.999Z</time>
      </trkpt>
      <trkpt lat="43.59481" lon="2.95627">
        <ele>730.5</ele>
        <time>2026-05-07T08:33:35.999Z</time>
      </trkpt>
      <trkpt lat="43.59481" lon="2.95627">
        <ele>730.7</ele>
        <time>2026-05-07T08:33:36.999Z</time>
      </trkpt>
      <trkpt lat="43.59481" lon="2.95627">
        <ele>731.1</ele>
        <time>2026-05-07T08:33:37.999Z</time>
      </trkpt>
      <trkpt lat="43.59481" lon="2.95627">
        <ele>731.3</ele>
        <time>2026-05-07T08:33:38.999Z</time>
      </trkpt>
      <trkpt lat="43.59481" lon="2.95627">
        <ele>731.3</ele>
        <time>2026-05-07T08:33:39.999Z</time>
      </trkpt>
      <trkpt lat="43.59481" lon="2.95627">
        <ele>731.4</ele>
        <time>2026-05-07T08:33:40.999Z</time>
      </trkpt>
      <trkpt lat="43.59481" lon="2.95627">
        <ele>731.5</ele>
        <time>2026-05-07T08:33:41.999Z</time>
      </trkpt>
      <trkpt lat="43.59481" lon="2.95627">
        <ele>731.6</ele>
        <time>2026-05-07T08:33:42.999Z</time>
      </trkpt>
      <trkpt lat="43.59481" lon="2.95627">
        <ele>731.9</ele>
        <time>2026-05-07T08:33:43.999Z</time>
      </trkpt>
      <trkpt lat="43.59481" lon="2.95627">
        <ele>732.1</ele>
        <time>2026-05-07T08:33:44.999Z</time>
      </trkpt>
      <trkpt lat="43.59481" lon="2.95627">
        <ele>732.3</ele>
        <time>2026-05-07T08:33:45.999Z</time>
      </trkpt>
      <trkpt lat="43.59481" lon="2.95627">
        <ele>732.6</ele>
        <time>2026-05-07T08:33:46.999Z</time>
      </trkpt>
      <trkpt lat="43.59481" lon="2.95627">
        <ele>732.9</ele>
        <time>2026-05-07T08:33:47.999Z</time>
      </trkpt>
      <trkpt lat="43.59481" lon="2.95627">
        <ele>733.1</ele>
        <time>2026-05-07T08:33:48.999Z</time>
      </trkpt>
      <trkpt lat="43.59482" lon="2.95627">
        <ele>733.1</ele>
        <time>2026-05-07T08:33:49.999Z</time>
      </trkpt>
      <trkpt lat="43.59482" lon="2.95627">
        <ele>733.2</ele>
        <time>2026-05-07T08:33:50.999Z</time>
      </trkpt>
      <trkpt lat="43.59482" lon="2.95627">
        <ele>733.2</ele>
        <time>2026-05-07T08:33:51.999Z</time>
      </trkpt>
      <trkpt lat="43.59482" lon="2.95626">
        <ele>733.1</ele>
        <time>2026-05-07T08:33:52.999Z</time>
      </trkpt>
      <trkpt lat="43.59482" lon="2.95626">
        <ele>733.1</ele>
        <time>2026-05-07T08:33:53.999Z</time>
      </trkpt>
      <trkpt lat="43.59482" lon="2.95626">
        <ele>733.1</ele>
        <time>2026-05-07T08:33:54.999Z</time>
      </trkpt>
      <trkpt lat="43.59482" lon="2.95626">
        <ele>732.9</ele>
        <time>2026-05-07T08:33:55.999Z</time>
      </trkpt>
      <trkpt lat="43.59482" lon="2.95626">
        <ele>732.8</ele>
        <time>2026-05-07T08:33:56.999Z</time>
      </trkpt>
      <trkpt lat="43.59482" lon="2.95626">
        <ele>732.6</ele>
        <time>2026-05-07T08:33:57.999Z</time>
      </trkpt>
      <trkpt lat="43.59482" lon="2.95626">
        <ele>732.3</ele>
        <time>2026-05-07T08:33:58.999Z</time>
      </trkpt>
      <trkpt lat="43.59482" lon="2.95626">
        <ele>732.2</ele>
        <time>2026-05-07T08:33:59.999Z</time>
      </trkpt>
      <trkpt lat="43.59482" lon="2.95626">
        <ele>731.8</ele>
        <time>2026-05-07T08:34:00.999Z</time>
      </trkpt>
      <trkpt lat="43.59483" lon="2.95626">
        <ele>731.4</ele>
        <time>2026-05-07T08:34:01.999Z</time>
      </trkpt>
      <trkpt lat="43.59482" lon="2.95626">
        <ele>731.2</ele>
        <time>2026-05-07T08:34:02.999Z</time>
      </trkpt>
      <trkpt lat="43.59482" lon="2.95626">
        <ele>731</ele>
        <time>2026-05-07T08:34:03.999Z</time>
      </trkpt>
      <trkpt lat="43.59481" lon="2.95626">
        <ele>730.8</ele>
        <time>2026-05-07T08:34:04.999Z</time>
      </trkpt>
      <trkpt lat="43.5948" lon="2.95627">
        <ele>730.9</ele>
        <time>2026-05-07T08:34:05.999Z</time>
      </trkpt>
      <trkpt lat="43.5948" lon="2.95627">
        <ele>731</ele>
        <time>2026-05-07T08:34:06.999Z</time>
      </trkpt>
      <trkpt lat="43.59479" lon="2.95626">
        <ele>731.1</ele>
        <time>2026-05-07T08:34:07.999Z</time>
      </trkpt>
      <trkpt lat="43.59478" lon="2.95625">
        <ele>730.9</ele>
        <time>2026-05-07T08:34:08.999Z</time>
      </trkpt>
      <trkpt lat="43.59478" lon="2.95625">
        <ele>730.8</ele>
        <time>2026-05-07T08:34:09.999Z</time>
      </trkpt>
      <trkpt lat="43.59478" lon="2.95625">
        <ele>730.6</ele>
        <time>2026-05-07T08:34:10.999Z</time>
      </trkpt>
      <trkpt lat="43.59478" lon="2.95625">
        <ele>730.4</ele>
        <time>2026-05-07T08:34:11.999Z</time>
      </trkpt>
      <trkpt lat="43.59478" lon="2.95625">
        <ele>730.1</ele>
        <time>2026-05-07T08:34:12.999Z</time>
      </trkpt>
      <trkpt lat="43.59478" lon="2.95625">
        <ele>729.8</ele>
        <time>2026-05-07T08:34:13.999Z</time>
      </trkpt>
      <trkpt lat="43.59478" lon="2.95625">
        <ele>729.6</ele>
        <time>2026-05-07T08:34:14.999Z</time>
      </trkpt>
      <trkpt lat="43.59478" lon="2.95625">
        <ele>729.3</ele>
        <time>2026-05-07T08:34:15.999Z</time>
      </trkpt>
      <trkpt lat="43.59478" lon="2.95625">
        <ele>729</ele>
        <time>2026-05-07T08:34:16.999Z</time>
      </trkpt>
      <trkpt lat="43.59478" lon="2.95625">
        <ele>729</ele>
        <time>2026-05-07T08:34:17.999Z</time>
      </trkpt>
      <trkpt lat="43.59478" lon="2.95625">
        <ele>729.1</ele>
        <time>2026-05-07T08:34:18.999Z</time>
      </trkpt>
      <trkpt lat="43.59478" lon="2.95625">
        <ele>729.2</ele>
        <time>2026-05-07T08:34:19.999Z</time>
      </trkpt>
      <trkpt lat="43.59478" lon="2.95625">
        <ele>729.1</ele>
        <time>2026-05-07T08:34:20.999Z</time>
      </trkpt>
      <trkpt lat="43.59478" lon="2.95627">
        <ele>728.8</ele>
        <time>2026-05-07T08:34:21.999Z</time>
      </trkpt>
      <trkpt lat="43.59478" lon="2.95627">
        <ele>728.5</ele>
        <time>2026-05-07T08:34:22.999Z</time>
      </trkpt>
      <trkpt lat="43.59478" lon="2.95627">
        <ele>728.5</ele>
        <time>2026-05-07T08:34:23.999Z</time>
      </trkpt>
      <trkpt lat="43.59478" lon="2.95627">
        <ele>728.4</ele>
        <time>2026-05-07T08:34:24.999Z</time>
      </trkpt>
      <trkpt lat="43.59478" lon="2.95627">
        <ele>728.4</ele>
        <time>2026-05-07T08:34:25.999Z</time>
      </trkpt>
      <trkpt lat="43.59478" lon="2.95627">
        <ele>728.5</ele>
        <time>2026-05-07T08:34:26.999Z</time>
      </trkpt>
      <trkpt lat="43.59478" lon="2.95627">
        <ele>728.5</ele>
        <time>2026-05-07T08:34:27.999Z</time>
      </trkpt>
      <trkpt lat="43.59478" lon="2.95627">
        <ele>728.6</ele>
        <time>2026-05-07T08:34:28.999Z</time>
      </trkpt>
      <trkpt lat="43.59478" lon="2.95627">
        <ele>728.7</ele>
        <time>2026-05-07T08:34:29.999Z</time>
      </trkpt>
      <trkpt lat="43.59478" lon="2.95627">
        <ele>728.8</ele>
        <time>2026-05-07T08:34:30.999Z</time>
      </trkpt>
      <trkpt lat="43.59478" lon="2.95627">
        <ele>728.9</ele>
        <time>2026-05-07T08:34:31.999Z</time>
      </trkpt>
      <trkpt lat="43.59478" lon="2.95627">
        <ele>729</ele>
        <time>2026-05-07T08:34:32.999Z</time>
      </trkpt>
      <trkpt lat="43.59478" lon="2.95628">
        <ele>729.4</ele>
        <time>2026-05-07T08:34:33.999Z</time>
      </trkpt>
      <trkpt lat="43.59478" lon="2.95627">
        <ele>729.6</ele>
        <time>2026-05-07T08:34:34.999Z</time>
      </trkpt>
      <trkpt lat="43.59478" lon="2.95627">
        <ele>729.6</ele>
        <time>2026-05-07T08:34:35.999Z</time>
      </trkpt>
      <trkpt lat="43.59478" lon="2.95627">
        <ele>729.7</ele>
        <time>2026-05-07T08:34:36.999Z</time>
      </trkpt>
      <trkpt lat="43.59478" lon="2.95627">
        <ele>729.9</ele>
        <time>2026-05-07T08:34:37.999Z</time>
      </trkpt>
      <trkpt lat="43.59478" lon="2.95628">
        <ele>729.8</ele>
        <time>2026-05-07T08:34:38.999Z</time>
      </trkpt>
      <trkpt lat="43.59478" lon="2.95628">
        <ele>729.8</ele>
        <time>2026-05-07T08:34:39.999Z</time>
      </trkpt>
      <trkpt lat="43.59478" lon="2.95628">
        <ele>729.9</ele>
        <time>2026-05-07T08:34:40.999Z</time>
      </trkpt>
      <trkpt lat="43.59478" lon="2.95628">
        <ele>729.8</ele>
        <time>2026-05-07T08:34:41.999Z</time>
      </trkpt>
      <trkpt lat="43.59478" lon="2.95628">
        <ele>729.6</ele>
        <time>2026-05-07T08:34:42.999Z</time>
      </trkpt>
      <trkpt lat="43.59478" lon="2.95628">
        <ele>729.4</ele>
        <time>2026-05-07T08:34:43.999Z</time>
      </trkpt>
      <trkpt lat="43.59478" lon="2.95628">
        <ele>729.4</ele>
        <time>2026-05-07T08:34:44.999Z</time>
      </trkpt>
      <trkpt lat="43.59478" lon="2.95628">
        <ele>729.1</ele>
        <time>2026-05-07T08:34:45.999Z</time>
      </trkpt>
      <trkpt lat="43.59478" lon="2.95628">
        <ele>729</ele>
        <time>2026-05-07T08:34:46.999Z</time>
      </trkpt>
      <trkpt lat="43.59478" lon="2.95629">
        <ele>729</ele>
        <time>2026-05-07T08:34:47.999Z</time>
      </trkpt>
      <trkpt lat="43.59478" lon="2.95629">
        <ele>728.9</ele>
        <time>2026-05-07T08:34:48.999Z</time>
      </trkpt>
      <trkpt lat="43.59478" lon="2.95629">
        <ele>728.6</ele>
        <time>2026-05-07T08:34:49.999Z</time>
      </trkpt>
      <trkpt lat="43.59478" lon="2.95629">
        <ele>728.4</ele>
        <time>2026-05-07T08:34:50.999Z</time>
      </trkpt>
      <trkpt lat="43.59478" lon="2.95629">
        <ele>728.3</ele>
        <time>2026-05-07T08:34:51.999Z</time>
      </trkpt>
      <trkpt lat="43.59478" lon="2.95629">
        <ele>728.4</ele>
        <time>2026-05-07T08:34:52.999Z</time>
      </trkpt>
      <trkpt lat="43.59478" lon="2.95629">
        <ele>728.7</ele>
        <time>2026-05-07T08:34:53.999Z</time>
      </trkpt>
      <trkpt lat="43.59478" lon="2.95629">
        <ele>728.7</ele>
        <time>2026-05-07T08:34:54.999Z</time>
      </trkpt>
      <trkpt lat="43.59478" lon="2.95628">
        <ele>728.5</ele>
        <time>2026-05-07T08:34:55.999Z</time>
      </trkpt>
      <trkpt lat="43.59478" lon="2.95628">
        <ele>728.4</ele>
        <time>2026-05-07T08:34:56.999Z</time>
      </trkpt>
      <trkpt lat="43.59478" lon="2.95628">
        <ele>728.5</ele>
        <time>2026-05-07T08:34:57.999Z</time>
      </trkpt>
      <trkpt lat="43.59478" lon="2.95628">
        <ele>728.8</ele>
        <time>2026-05-07T08:34:58.999Z</time>
      </trkpt>
      <trkpt lat="43.59478" lon="2.95628">
        <ele>728.8</ele>
        <time>2026-05-07T08:34:59.999Z</time>
      </trkpt>
      <trkpt lat="43.59478" lon="2.95628">
        <ele>728.9</ele>
        <time>2026-05-07T08:35:00.999Z</time>
      </trkpt>
      <trkpt lat="43.59478" lon="2.95628">
        <ele>728.8</ele>
        <time>2026-05-07T08:35:01.999Z</time>
      </trkpt>
      <trkpt lat="43.59478" lon="2.95628">
        <ele>728.6</ele>
        <time>2026-05-07T08:35:02.999Z</time>
      </trkpt>
      <trkpt lat="43.59478" lon="2.95628">
        <ele>728.6</ele>
        <time>2026-05-07T08:35:03.999Z</time>
      </trkpt>
      <trkpt lat="43.59478" lon="2.95628">
        <ele>728.4</ele>
        <time>2026-05-07T08:35:04.999Z</time>
      </trkpt>
      <trkpt lat="43.59478" lon="2.95628">
        <ele>728.4</ele>
        <time>2026-05-07T08:35:05.999Z</time>
      </trkpt>
      <trkpt lat="43.59478" lon="2.95628">
        <ele>728.5</ele>
        <time>2026-05-07T08:35:06.999Z</time>
      </trkpt>
      <trkpt lat="43.59478" lon="2.95628">
        <ele>728.7</ele>
        <time>2026-05-07T08:35:07.999Z</time>
      </trkpt>
      <trkpt lat="43.59478" lon="2.95628">
        <ele>728.8</ele>
        <time>2026-05-07T08:35:08.999Z</time>
      </trkpt>
      <trkpt lat="43.59478" lon="2.95628">
        <ele>728.8</ele>
        <time>2026-05-07T08:35:09.999Z</time>
      </trkpt>
      <trkpt lat="43.59478" lon="2.95628">
        <ele>728.8</ele>
        <time>2026-05-07T08:35:10.999Z</time>
      </trkpt>
      <trkpt lat="43.59478" lon="2.95628">
        <ele>728.7</ele>
        <time>2026-05-07T08:35:11.999Z</time>
      </trkpt>
      <trkpt lat="43.59479" lon="2.95627">
        <ele>728.9</ele>
        <time>2026-05-07T08:35:12.999Z</time>
      </trkpt>
      <trkpt lat="43.59479" lon="2.95627">
        <ele>728.8</ele>
        <time>2026-05-07T08:35:13.999Z</time>
      </trkpt>
      <trkpt lat="43.59479" lon="2.95627">
        <ele>728.7</ele>
        <time>2026-05-07T08:35:14.999Z</time>
      </trkpt>
      <trkpt lat="43.59479" lon="2.95627">
        <ele>728.8</ele>
        <time>2026-05-07T08:35:15.999Z</time>
      </trkpt>
      <trkpt lat="43.59479" lon="2.95627">
        <ele>728.5</ele>
        <time>2026-05-07T08:35:16.999Z</time>
      </trkpt>
      <trkpt lat="43.59479" lon="2.95627">
        <ele>728.2</ele>
        <time>2026-05-07T08:35:17.999Z</time>
      </trkpt>
      <trkpt lat="43.59478" lon="2.95626">
        <ele>727.9</ele>
        <time>2026-05-07T08:35:18.999Z</time>
      </trkpt>
      <trkpt lat="43.59478" lon="2.95625">
        <ele>728</ele>
        <time>2026-05-07T08:35:19.999Z</time>
      </trkpt>
      <trkpt lat="43.59479" lon="2.95625">
        <ele>728.2</ele>
        <time>2026-05-07T08:35:20.999Z</time>
      </trkpt>
      <trkpt lat="43.59479" lon="2.95625">
        <ele>728.3</ele>
        <time>2026-05-07T08:35:21.999Z</time>
      </trkpt>
      <trkpt lat="43.59479" lon="2.95625">
        <ele>728.4</ele>
        <time>2026-05-07T08:35:22.999Z</time>
      </trkpt>
      <trkpt lat="43.59479" lon="2.95625">
        <ele>728.6</ele>
        <time>2026-05-07T08:35:23.999Z</time>
      </trkpt>
      <trkpt lat="43.59478" lon="2.95625">
        <ele>728.8</ele>
        <time>2026-05-07T08:35:24.999Z</time>
      </trkpt>
      <trkpt lat="43.59478" lon="2.95625">
        <ele>728.7</ele>
        <time>2026-05-07T08:35:25.999Z</time>
      </trkpt>
      <trkpt lat="43.59478" lon="2.95625">
        <ele>728.7</ele>
        <time>2026-05-07T08:35:26.999Z</time>
      </trkpt>
      <trkpt lat="43.59478" lon="2.95624">
        <ele>728.7</ele>
        <time>2026-05-07T08:35:27.999Z</time>
      </trkpt>
      <trkpt lat="43.59479" lon="2.95624">
        <ele>728.4</ele>
        <time>2026-05-07T08:35:28.999Z</time>
      </trkpt>
      <trkpt lat="43.59479" lon="2.95624">
        <ele>728.3</ele>
        <time>2026-05-07T08:35:29.999Z</time>
      </trkpt>
      <trkpt lat="43.59478" lon="2.95624">
        <ele>728.4</ele>
        <time>2026-05-07T08:35:30.999Z</time>
      </trkpt>
      <trkpt lat="43.59478" lon="2.95624">
        <ele>728.5</ele>
        <time>2026-05-07T08:35:31.999Z</time>
      </trkpt>
      <trkpt lat="43.59478" lon="2.95624">
        <ele>728.5</ele>
        <time>2026-05-07T08:35:32.999Z</time>
      </trkpt>
      <trkpt lat="43.59478" lon="2.95624">
        <ele>728.6</ele>
        <time>2026-05-07T08:35:33.999Z</time>
      </trkpt>
      <trkpt lat="43.59478" lon="2.95623">
        <ele>728.8</ele>
        <time>2026-05-07T08:35:34.999Z</time>
      </trkpt>
      <trkpt lat="43.59478" lon="2.95623">
        <ele>728.9</ele>
        <time>2026-05-07T08:35:35.999Z</time>
      </trkpt>
      <trkpt lat="43.59478" lon="2.95623">
        <ele>728.8</ele>
        <time>2026-05-07T08:35:36.999Z</time>
      </trkpt>
      <trkpt lat="43.59478" lon="2.95623">
        <ele>728.7</ele>
        <time>2026-05-07T08:35:37.999Z</time>
      </trkpt>
      <trkpt lat="43.59478" lon="2.95623">
        <ele>728.7</ele>
        <time>2026-05-07T08:35:38.999Z</time>
      </trkpt>
      <trkpt lat="43.59478" lon="2.95623">
        <ele>728.6</ele>
        <time>2026-05-07T08:35:39.999Z</time>
      </trkpt>
      <trkpt lat="43.59478" lon="2.95624">
        <ele>728.5</ele>
        <time>2026-05-07T08:35:40.999Z</time>
      </trkpt>
      <trkpt lat="43.59478" lon="2.95624">
        <ele>728.2</ele>
        <time>2026-05-07T08:35:41.999Z</time>
      </trkpt>
      <trkpt lat="43.59478" lon="2.95624">
        <ele>728.2</ele>
        <time>2026-05-07T08:35:42.999Z</time>
      </trkpt>
      <trkpt lat="43.59478" lon="2.95624">
        <ele>728.2</ele>
        <time>2026-05-07T08:35:43.999Z</time>
      </trkpt>
      <trkpt lat="43.59477" lon="2.95624">
        <ele>728.2</ele>
        <time>2026-05-07T08:35:44.999Z</time>
      </trkpt>
      <trkpt lat="43.59477" lon="2.95624">
        <ele>728.2</ele>
        <time>2026-05-07T08:35:45.999Z</time>
      </trkpt>
      <trkpt lat="43.59478" lon="2.95624">
        <ele>728.2</ele>
        <time>2026-05-07T08:35:46.999Z</time>
      </trkpt>
      <trkpt lat="43.59478" lon="2.95624">
        <ele>728.1</ele>
        <time>2026-05-07T08:35:47.999Z</time>
      </trkpt>
      <trkpt lat="43.59478" lon="2.95624">
        <ele>728.2</ele>
        <time>2026-05-07T08:35:48.999Z</time>
      </trkpt>
      <trkpt lat="43.59478" lon="2.95624">
        <ele>728.1</ele>
        <time>2026-05-07T08:35:49.999Z</time>
      </trkpt>
      <trkpt lat="43.59478" lon="2.95624">
        <ele>728.3</ele>
        <time>2026-05-07T08:35:50.999Z</time>
      </trkpt>
      <trkpt lat="43.59478" lon="2.95624">
        <ele>728.6</ele>
        <time>2026-05-07T08:35:51.999Z</time>
      </trkpt>
      <trkpt lat="43.59478" lon="2.95624">
        <ele>728.9</ele>
        <time>2026-05-07T08:35:52.999Z</time>
      </trkpt>
      <trkpt lat="43.59479" lon="2.95624">
        <ele>729.2</ele>
        <time>2026-05-07T08:35:53.999Z</time>
      </trkpt>
      <trkpt lat="43.59479" lon="2.95624">
        <ele>729.3</ele>
        <time>2026-05-07T08:35:54.999Z</time>
      </trkpt>
      <trkpt lat="43.5948" lon="2.95623">
        <ele>729.5</ele>
        <time>2026-05-07T08:35:55.999Z</time>
      </trkpt>
      <trkpt lat="43.5948" lon="2.95622">
        <ele>729.7</ele>
        <time>2026-05-07T08:35:56.999Z</time>
      </trkpt>
      <trkpt lat="43.59481" lon="2.95622">
        <ele>729.9</ele>
        <time>2026-05-07T08:35:57.999Z</time>
      </trkpt>
      <trkpt lat="43.5948" lon="2.9562">
        <ele>730.2</ele>
        <time>2026-05-07T08:35:58.999Z</time>
      </trkpt>
      <trkpt lat="43.59481" lon="2.9562">
        <ele>730.2</ele>
        <time>2026-05-07T08:35:59.999Z</time>
      </trkpt>
      <trkpt lat="43.59481" lon="2.9562">
        <ele>730.1</ele>
        <time>2026-05-07T08:36:00.999Z</time>
      </trkpt>
      <trkpt lat="43.59481" lon="2.95619">
        <ele>729.9</ele>
        <time>2026-05-07T08:36:01.999Z</time>
      </trkpt>
      <trkpt lat="43.5948" lon="2.9562">
        <ele>730</ele>
        <time>2026-05-07T08:36:02.999Z</time>
      </trkpt>
      <trkpt lat="43.5948" lon="2.9562">
        <ele>730</ele>
        <time>2026-05-07T08:36:03.999Z</time>
      </trkpt>
      <trkpt lat="43.5948" lon="2.95621">
        <ele>729.9</ele>
        <time>2026-05-07T08:36:04.999Z</time>
      </trkpt>
      <trkpt lat="43.5948" lon="2.95621">
        <ele>729.8</ele>
        <time>2026-05-07T08:36:05.999Z</time>
      </trkpt>
      <trkpt lat="43.5948" lon="2.95621">
        <ele>729.4</ele>
        <time>2026-05-07T08:36:06.999Z</time>
      </trkpt>
      <trkpt lat="43.5948" lon="2.95621">
        <ele>729</ele>
        <time>2026-05-07T08:36:07.999Z</time>
      </trkpt>
      <trkpt lat="43.5948" lon="2.95621">
        <ele>728.8</ele>
        <time>2026-05-07T08:36:08.999Z</time>
      </trkpt>
      <trkpt lat="43.5948" lon="2.95621">
        <ele>728.7</ele>
        <time>2026-05-07T08:36:09.999Z</time>
      </trkpt>
      <trkpt lat="43.59479" lon="2.95621">
        <ele>728.8</ele>
        <time>2026-05-07T08:36:10.999Z</time>
      </trkpt>
      <trkpt lat="43.59479" lon="2.95621">
        <ele>728.8</ele>
        <time>2026-05-07T08:36:11.999Z</time>
      </trkpt>
      <trkpt lat="43.5948" lon="2.9562">
        <ele>728.8</ele>
        <time>2026-05-07T08:36:12.999Z</time>
      </trkpt>
      <trkpt lat="43.5948" lon="2.9562">
        <ele>728.7</ele>
        <time>2026-05-07T08:36:13.999Z</time>
      </trkpt>
      <trkpt lat="43.5948" lon="2.9562">
        <ele>729.2</ele>
        <time>2026-05-07T08:36:14.999Z</time>
      </trkpt>
      <trkpt lat="43.5948" lon="2.9562">
        <ele>729.6</ele>
        <time>2026-05-07T08:36:15.999Z</time>
      </trkpt>
      <trkpt lat="43.5948" lon="2.95621">
        <ele>729.9</ele>
        <time>2026-05-07T08:36:16.999Z</time>
      </trkpt>
      <trkpt lat="43.5948" lon="2.95621">
        <ele>729.8</ele>
        <time>2026-05-07T08:36:17.999Z</time>
      </trkpt>
      <trkpt lat="43.5948" lon="2.95621">
        <ele>729.4</ele>
        <time>2026-05-07T08:36:18.999Z</time>
      </trkpt>
      <trkpt lat="43.5948" lon="2.95621">
        <ele>729.3</ele>
        <time>2026-05-07T08:36:19.999Z</time>
      </trkpt>
      <trkpt lat="43.5948" lon="2.95621">
        <ele>729.4</ele>
        <time>2026-05-07T08:36:20.999Z</time>
      </trkpt>
      <trkpt lat="43.5948" lon="2.95621">
        <ele>729.4</ele>
        <time>2026-05-07T08:36:21.999Z</time>
      </trkpt>
      <trkpt lat="43.5948" lon="2.95621">
        <ele>729.6</ele>
        <time>2026-05-07T08:36:22.999Z</time>
      </trkpt>
      <trkpt lat="43.5948" lon="2.95621">
        <ele>729.6</ele>
        <time>2026-05-07T08:36:23.999Z</time>
      </trkpt>
      <trkpt lat="43.5948" lon="2.95621">
        <ele>729.4</ele>
        <time>2026-05-07T08:36:24.999Z</time>
      </trkpt>
      <trkpt lat="43.5948" lon="2.95621">
        <ele>729.1</ele>
        <time>2026-05-07T08:36:25.999Z</time>
      </trkpt>
      <trkpt lat="43.5948" lon="2.95621">
        <ele>729</ele>
        <time>2026-05-07T08:36:26.999Z</time>
      </trkpt>
      <trkpt lat="43.5948" lon="2.95621">
        <ele>729</ele>
        <time>2026-05-07T08:36:27.999Z</time>
      </trkpt>
      <trkpt lat="43.5948" lon="2.95621">
        <ele>729.2</ele>
        <time>2026-05-07T08:36:28.999Z</time>
      </trkpt>
      <trkpt lat="43.5948" lon="2.95621">
        <ele>729.3</ele>
        <time>2026-05-07T08:36:29.999Z</time>
      </trkpt>
      <trkpt lat="43.5948" lon="2.95621">
        <ele>729.2</ele>
        <time>2026-05-07T08:36:30.999Z</time>
      </trkpt>
      <trkpt lat="43.5948" lon="2.95621">
        <ele>728.9</ele>
        <time>2026-05-07T08:36:31.999Z</time>
      </trkpt>
      <trkpt lat="43.5948" lon="2.95621">
        <ele>728.7</ele>
        <time>2026-05-07T08:36:32.999Z</time>
      </trkpt>
      <trkpt lat="43.5948" lon="2.95621">
        <ele>728.7</ele>
        <time>2026-05-07T08:36:33.999Z</time>
      </trkpt>
      <trkpt lat="43.5948" lon="2.95621">
        <ele>728.9</ele>
        <time>2026-05-07T08:36:34.999Z</time>
      </trkpt>
      <trkpt lat="43.5948" lon="2.95621">
        <ele>728.7</ele>
        <time>2026-05-07T08:36:35.999Z</time>
      </trkpt>
      <trkpt lat="43.5948" lon="2.95621">
        <ele>728.6</ele>
        <time>2026-05-07T08:36:36.999Z</time>
      </trkpt>
      <trkpt lat="43.5948" lon="2.95621">
        <ele>728.6</ele>
        <time>2026-05-07T08:36:37.999Z</time>
      </trkpt>
      <trkpt lat="43.5948" lon="2.95621">
        <ele>728.6</ele>
        <time>2026-05-07T08:36:38.999Z</time>
      </trkpt>
      <trkpt lat="43.5948" lon="2.95621">
        <ele>729</ele>
        <time>2026-05-07T08:36:39.999Z</time>
      </trkpt>
      <trkpt lat="43.5948" lon="2.95621">
        <ele>728.9</ele>
        <time>2026-05-07T08:36:40.999Z</time>
      </trkpt>
      <trkpt lat="43.5948" lon="2.95622">
        <ele>728.8</ele>
        <time>2026-05-07T08:36:41.999Z</time>
      </trkpt>
      <trkpt lat="43.5948" lon="2.95622">
        <ele>728.7</ele>
        <time>2026-05-07T08:36:42.999Z</time>
      </trkpt>
      <trkpt lat="43.5948" lon="2.95622">
        <ele>728.5</ele>
        <time>2026-05-07T08:36:43.999Z</time>
      </trkpt>
      <trkpt lat="43.5948" lon="2.95622">
        <ele>728.4</ele>
        <time>2026-05-07T08:36:44.999Z</time>
      </trkpt>
      <trkpt lat="43.5948" lon="2.95622">
        <ele>728.2</ele>
        <time>2026-05-07T08:36:45.999Z</time>
      </trkpt>
      <trkpt lat="43.59481" lon="2.95622">
        <ele>728.1</ele>
        <time>2026-05-07T08:36:46.999Z</time>
      </trkpt>
      <trkpt lat="43.59481" lon="2.95622">
        <ele>727.9</ele>
        <time>2026-05-07T08:36:47.999Z</time>
      </trkpt>
      <trkpt lat="43.59481" lon="2.95623">
        <ele>728</ele>
        <time>2026-05-07T08:36:48.999Z</time>
      </trkpt>
      <trkpt lat="43.59481" lon="2.95622">
        <ele>728.1</ele>
        <time>2026-05-07T08:36:49.999Z</time>
      </trkpt>
      <trkpt lat="43.5948" lon="2.95622">
        <ele>728.1</ele>
        <time>2026-05-07T08:36:50.999Z</time>
      </trkpt>
      <trkpt lat="43.5948" lon="2.95623">
        <ele>728.1</ele>
        <time>2026-05-07T08:36:51.999Z</time>
      </trkpt>
      <trkpt lat="43.59479" lon="2.95623">
        <ele>728.2</ele>
        <time>2026-05-07T08:36:52.999Z</time>
      </trkpt>
      <trkpt lat="43.59479" lon="2.95624">
        <ele>728</ele>
        <time>2026-05-07T08:36:53.999Z</time>
      </trkpt>
      <trkpt lat="43.59479" lon="2.95624">
        <ele>728</ele>
        <time>2026-05-07T08:36:54.999Z</time>
      </trkpt>
      <trkpt lat="43.59479" lon="2.95624">
        <ele>728</ele>
        <time>2026-05-07T08:36:55.999Z</time>
      </trkpt>
      <trkpt lat="43.59479" lon="2.95625">
        <ele>727.9</ele>
        <time>2026-05-07T08:36:56.999Z</time>
      </trkpt>
      <trkpt lat="43.59479" lon="2.95625">
        <ele>728.3</ele>
        <time>2026-05-07T08:36:57.999Z</time>
      </trkpt>
      <trkpt lat="43.59479" lon="2.95625">
        <ele>728.1</ele>
        <time>2026-05-07T08:36:58.999Z</time>
      </trkpt>
      <trkpt lat="43.59479" lon="2.95625">
        <ele>727.8</ele>
        <time>2026-05-07T08:36:59.999Z</time>
      </trkpt>
      <trkpt lat="43.59479" lon="2.95625">
        <ele>727.8</ele>
        <time>2026-05-07T08:37:00.999Z</time>
      </trkpt>
      <trkpt lat="43.59478" lon="2.95626">
        <ele>727.8</ele>
        <time>2026-05-07T08:37:01.999Z</time>
      </trkpt>
      <trkpt lat="43.59476" lon="2.95626">
        <ele>727.6</ele>
        <time>2026-05-07T08:37:02.999Z</time>
      </trkpt>
      <trkpt lat="43.59475" lon="2.95627">
        <ele>727.4</ele>
        <time>2026-05-07T08:37:03.999Z</time>
      </trkpt>
      <trkpt lat="43.59475" lon="2.95627">
        <ele>727.4</ele>
        <time>2026-05-07T08:37:04.999Z</time>
      </trkpt>
      <trkpt lat="43.59474" lon="2.95627">
        <ele>727.5</ele>
        <time>2026-05-07T08:37:05.999Z</time>
      </trkpt>
      <trkpt lat="43.59473" lon="2.95627">
        <ele>727.4</ele>
        <time>2026-05-07T08:37:06.999Z</time>
      </trkpt>
      <trkpt lat="43.59473" lon="2.95628">
        <ele>727.4</ele>
        <time>2026-05-07T08:37:07.999Z</time>
      </trkpt>
      <trkpt lat="43.59473" lon="2.95629">
        <ele>727.4</ele>
        <time>2026-05-07T08:37:08.999Z</time>
      </trkpt>
      <trkpt lat="43.59473" lon="2.9563">
        <ele>727.4</ele>
        <time>2026-05-07T08:37:09.999Z</time>
      </trkpt>
      <trkpt lat="43.59472" lon="2.95632">
        <ele>727.7</ele>
        <time>2026-05-07T08:37:10.999Z</time>
      </trkpt>
      <trkpt lat="43.59472" lon="2.95633">
        <ele>727.9</ele>
        <time>2026-05-07T08:37:11.999Z</time>
      </trkpt>
      <trkpt lat="43.59472" lon="2.95634">
        <ele>728</ele>
        <time>2026-05-07T08:37:12.999Z</time>
      </trkpt>
      <trkpt lat="43.59472" lon="2.95634">
        <ele>728.1</ele>
        <time>2026-05-07T08:37:13.999Z</time>
      </trkpt>
      <trkpt lat="43.59472" lon="2.95634">
        <ele>728</ele>
        <time>2026-05-07T08:37:14.999Z</time>
      </trkpt>
      <trkpt lat="43.59471" lon="2.95635">
        <ele>728</ele>
        <time>2026-05-07T08:37:15.999Z</time>
      </trkpt>
      <trkpt lat="43.59471" lon="2.95636">
        <ele>727.7</ele>
        <time>2026-05-07T08:37:16.999Z</time>
      </trkpt>
      <trkpt lat="43.59471" lon="2.95637">
        <ele>727.6</ele>
        <time>2026-05-07T08:37:17.999Z</time>
      </trkpt>
      <trkpt lat="43.59471" lon="2.95638">
        <ele>727.7</ele>
        <time>2026-05-07T08:37:18.999Z</time>
      </trkpt>
      <trkpt lat="43.59472" lon="2.95638">
        <ele>727.8</ele>
        <time>2026-05-07T08:37:19.999Z</time>
      </trkpt>
      <trkpt lat="43.59471" lon="2.95638">
        <ele>728</ele>
        <time>2026-05-07T08:37:20.999Z</time>
      </trkpt>
      <trkpt lat="43.59471" lon="2.95639">
        <ele>728.3</ele>
        <time>2026-05-07T08:37:21.999Z</time>
      </trkpt>
      <trkpt lat="43.59471" lon="2.9564">
        <ele>728.4</ele>
        <time>2026-05-07T08:37:22.999Z</time>
      </trkpt>
      <trkpt lat="43.59471" lon="2.95641">
        <ele>728.1</ele>
        <time>2026-05-07T08:37:23.999Z</time>
      </trkpt>
      <trkpt lat="43.59471" lon="2.95641">
        <ele>728.1</ele>
        <time>2026-05-07T08:37:24.999Z</time>
      </trkpt>
      <trkpt lat="43.59471" lon="2.95641">
        <ele>728</ele>
        <time>2026-05-07T08:37:25.999Z</time>
      </trkpt>
      <trkpt lat="43.59471" lon="2.95641">
        <ele>728.5</ele>
        <time>2026-05-07T08:37:26.999Z</time>
      </trkpt>
      <trkpt lat="43.59471" lon="2.95641">
        <ele>728.5</ele>
        <time>2026-05-07T08:37:27.999Z</time>
      </trkpt>
      <trkpt lat="43.59471" lon="2.95641">
        <ele>728.7</ele>
        <time>2026-05-07T08:37:28.999Z</time>
      </trkpt>
      <trkpt lat="43.59471" lon="2.95642">
        <ele>729.1</ele>
        <time>2026-05-07T08:37:29.999Z</time>
      </trkpt>
      <trkpt lat="43.59471" lon="2.95642">
        <ele>728.9</ele>
        <time>2026-05-07T08:37:30.999Z</time>
      </trkpt>
      <trkpt lat="43.5947" lon="2.95643">
        <ele>728.8</ele>
        <time>2026-05-07T08:37:31.999Z</time>
      </trkpt>
      <trkpt lat="43.5947" lon="2.95643">
        <ele>728.5</ele>
        <time>2026-05-07T08:37:32.999Z</time>
      </trkpt>
      <trkpt lat="43.5947" lon="2.95644">
        <ele>728.2</ele>
        <time>2026-05-07T08:37:33.999Z</time>
      </trkpt>
      <trkpt lat="43.5947" lon="2.95645">
        <ele>728.4</ele>
        <time>2026-05-07T08:37:34.999Z</time>
      </trkpt>
      <trkpt lat="43.5947" lon="2.95645">
        <ele>728.4</ele>
        <time>2026-05-07T08:37:35.999Z</time>
      </trkpt>
      <trkpt lat="43.5947" lon="2.95646">
        <ele>728.9</ele>
        <time>2026-05-07T08:37:36.999Z</time>
      </trkpt>
      <trkpt lat="43.5947" lon="2.95646">
        <ele>728.9</ele>
        <time>2026-05-07T08:37:37.999Z</time>
      </trkpt>
      <trkpt lat="43.5947" lon="2.95646">
        <ele>729.2</ele>
        <time>2026-05-07T08:37:38.999Z</time>
      </trkpt>
      <trkpt lat="43.5947" lon="2.95646">
        <ele>729.3</ele>
        <time>2026-05-07T08:37:39.999Z</time>
      </trkpt>
      <trkpt lat="43.5947" lon="2.95647">
        <ele>729</ele>
        <time>2026-05-07T08:37:40.999Z</time>
      </trkpt>
      <trkpt lat="43.5947" lon="2.95647">
        <ele>729.1</ele>
        <time>2026-05-07T08:37:41.999Z</time>
      </trkpt>
      <trkpt lat="43.5947" lon="2.95647">
        <ele>729.2</ele>
        <time>2026-05-07T08:37:42.999Z</time>
      </trkpt>
      <trkpt lat="43.5947" lon="2.95647">
        <ele>729.3</ele>
        <time>2026-05-07T08:37:43.999Z</time>
      </trkpt>
      <trkpt lat="43.5947" lon="2.95647">
        <ele>729.7</ele>
        <time>2026-05-07T08:37:44.999Z</time>
      </trkpt>
      <trkpt lat="43.5947" lon="2.95648">
        <ele>730</ele>
        <time>2026-05-07T08:37:45.999Z</time>
      </trkpt>
      <trkpt lat="43.5947" lon="2.95648">
        <ele>730.4</ele>
        <time>2026-05-07T08:37:46.999Z</time>
      </trkpt>
      <trkpt lat="43.5947" lon="2.95648">
        <ele>730.8</ele>
        <time>2026-05-07T08:37:47.999Z</time>
      </trkpt>
      <trkpt lat="43.5947" lon="2.95648">
        <ele>731</ele>
        <time>2026-05-07T08:37:48.999Z</time>
      </trkpt>
      <trkpt lat="43.5947" lon="2.95648">
        <ele>731</ele>
        <time>2026-05-07T08:37:49.999Z</time>
      </trkpt>
      <trkpt lat="43.59469" lon="2.95648">
        <ele>731</ele>
        <time>2026-05-07T08:37:50.999Z</time>
      </trkpt>
      <trkpt lat="43.59469" lon="2.95649">
        <ele>731.2</ele>
        <time>2026-05-07T08:37:51.999Z</time>
      </trkpt>
      <trkpt lat="43.59469" lon="2.95649">
        <ele>731.5</ele>
        <time>2026-05-07T08:37:52.999Z</time>
      </trkpt>
      <trkpt lat="43.59469" lon="2.95649">
        <ele>731.5</ele>
        <time>2026-05-07T08:37:53.999Z</time>
      </trkpt>
      <trkpt lat="43.59469" lon="2.95649">
        <ele>731.4</ele>
        <time>2026-05-07T08:37:54.999Z</time>
      </trkpt>
      <trkpt lat="43.59469" lon="2.9565">
        <ele>731.2</ele>
        <time>2026-05-07T08:37:55.999Z</time>
      </trkpt>
      <trkpt lat="43.59468" lon="2.95651">
        <ele>731.3</ele>
        <time>2026-05-07T08:37:56.999Z</time>
      </trkpt>
      <trkpt lat="43.59468" lon="2.95653">
        <ele>731.1</ele>
        <time>2026-05-07T08:37:57.999Z</time>
      </trkpt>
      <trkpt lat="43.59467" lon="2.95655">
        <ele>730.8</ele>
        <time>2026-05-07T08:37:58.999Z</time>
      </trkpt>
      <trkpt lat="43.59467" lon="2.95656">
        <ele>730.8</ele>
        <time>2026-05-07T08:37:59.999Z</time>
      </trkpt>
      <trkpt lat="43.59467" lon="2.95657">
        <ele>730.8</ele>
        <time>2026-05-07T08:38:00.999Z</time>
      </trkpt>
      <trkpt lat="43.59467" lon="2.95657">
        <ele>730.6</ele>
        <time>2026-05-07T08:38:01.999Z</time>
      </trkpt>
      <trkpt lat="43.59466" lon="2.95657">
        <ele>730.5</ele>
        <time>2026-05-07T08:38:02.999Z</time>
      </trkpt>
      <trkpt lat="43.59466" lon="2.95658">
        <ele>730.3</ele>
        <time>2026-05-07T08:38:03.999Z</time>
      </trkpt>
      <trkpt lat="43.59466" lon="2.95658">
        <ele>730.3</ele>
        <time>2026-05-07T08:38:04.999Z</time>
      </trkpt>
      <trkpt lat="43.59466" lon="2.95658">
        <ele>730.3</ele>
        <time>2026-05-07T08:38:05.999Z</time>
      </trkpt>
      <trkpt lat="43.59466" lon="2.95659">
        <ele>730.3</ele>
        <time>2026-05-07T08:38:06.999Z</time>
      </trkpt>
      <trkpt lat="43.59466" lon="2.95659">
        <ele>730.8</ele>
        <time>2026-05-07T08:38:07.999Z</time>
      </trkpt>
      <trkpt lat="43.59466" lon="2.95659">
        <ele>731</ele>
        <time>2026-05-07T08:38:08.999Z</time>
      </trkpt>
      <trkpt lat="43.59467" lon="2.95659">
        <ele>731.3</ele>
        <time>2026-05-07T08:38:09.999Z</time>
      </trkpt>
      <trkpt lat="43.59467" lon="2.9566">
        <ele>731.2</ele>
        <time>2026-05-07T08:38:10.999Z</time>
      </trkpt>
      <trkpt lat="43.59467" lon="2.9566">
        <ele>731.1</ele>
        <time>2026-05-07T08:38:11.999Z</time>
      </trkpt>
      <trkpt lat="43.59467" lon="2.95662">
        <ele>731</ele>
        <time>2026-05-07T08:38:12.999Z</time>
      </trkpt>
      <trkpt lat="43.59467" lon="2.95663">
        <ele>731.2</ele>
        <time>2026-05-07T08:38:13.999Z</time>
      </trkpt>
      <trkpt lat="43.59466" lon="2.95663">
        <ele>731.3</ele>
        <time>2026-05-07T08:38:14.999Z</time>
      </trkpt>
      <trkpt lat="43.59466" lon="2.95663">
        <ele>731</ele>
        <time>2026-05-07T08:38:15.999Z</time>
      </trkpt>
      <trkpt lat="43.59466" lon="2.95663">
        <ele>731.1</ele>
        <time>2026-05-07T08:38:16.999Z</time>
      </trkpt>
      <trkpt lat="43.59466" lon="2.95663">
        <ele>731.2</ele>
        <time>2026-05-07T08:38:17.999Z</time>
      </trkpt>
      <trkpt lat="43.59466" lon="2.95663">
        <ele>731.2</ele>
        <time>2026-05-07T08:38:18.999Z</time>
      </trkpt>
      <trkpt lat="43.59466" lon="2.95663">
        <ele>731.2</ele>
        <time>2026-05-07T08:38:19.999Z</time>
      </trkpt>
      <trkpt lat="43.59466" lon="2.95663">
        <ele>731.1</ele>
        <time>2026-05-07T08:38:20.999Z</time>
      </trkpt>
      <trkpt lat="43.59466" lon="2.95663">
        <ele>730.9</ele>
        <time>2026-05-07T08:38:21.999Z</time>
      </trkpt>
      <trkpt lat="43.59466" lon="2.95664">
        <ele>730.8</ele>
        <time>2026-05-07T08:38:22.999Z</time>
      </trkpt>
      <trkpt lat="43.59465" lon="2.95664">
        <ele>730.8</ele>
        <time>2026-05-07T08:38:23.999Z</time>
      </trkpt>
      <trkpt lat="43.59465" lon="2.95664">
        <ele>731</ele>
        <time>2026-05-07T08:38:24.999Z</time>
      </trkpt>
      <trkpt lat="43.59465" lon="2.95664">
        <ele>731</ele>
        <time>2026-05-07T08:38:25.999Z</time>
      </trkpt>
      <trkpt lat="43.59465" lon="2.95664">
        <ele>731</ele>
        <time>2026-05-07T08:38:26.999Z</time>
      </trkpt>
      <trkpt lat="43.59465" lon="2.95664">
        <ele>731.1</ele>
        <time>2026-05-07T08:38:27.999Z</time>
      </trkpt>
      <trkpt lat="43.59464" lon="2.95665">
        <ele>731.1</ele>
        <time>2026-05-07T08:38:28.999Z</time>
      </trkpt>
      <trkpt lat="43.59463" lon="2.95665">
        <ele>731.2</ele>
        <time>2026-05-07T08:38:29.999Z</time>
      </trkpt>
      <trkpt lat="43.59463" lon="2.95666">
        <ele>731.2</ele>
        <time>2026-05-07T08:38:30.999Z</time>
      </trkpt>
      <trkpt lat="43.59463" lon="2.95666">
        <ele>731.5</ele>
        <time>2026-05-07T08:38:31.999Z</time>
      </trkpt>
      <trkpt lat="43.59463" lon="2.95666">
        <ele>731.7</ele>
        <time>2026-05-07T08:38:32.999Z</time>
      </trkpt>
      <trkpt lat="43.59462" lon="2.95666">
        <ele>731.8</ele>
        <time>2026-05-07T08:38:33.999Z</time>
      </trkpt>
      <trkpt lat="43.59462" lon="2.95666">
        <ele>732</ele>
        <time>2026-05-07T08:38:34.999Z</time>
      </trkpt>
      <trkpt lat="43.59462" lon="2.95667">
        <ele>732.3</ele>
        <time>2026-05-07T08:38:35.999Z</time>
      </trkpt>
      <trkpt lat="43.59461" lon="2.95667">
        <ele>732.7</ele>
        <time>2026-05-07T08:38:36.999Z</time>
      </trkpt>
      <trkpt lat="43.5946" lon="2.95668">
        <ele>732.7</ele>
        <time>2026-05-07T08:38:37.999Z</time>
      </trkpt>
      <trkpt lat="43.5946" lon="2.95668">
        <ele>732.8</ele>
        <time>2026-05-07T08:38:38.999Z</time>
      </trkpt>
      <trkpt lat="43.5946" lon="2.95668">
        <ele>733</ele>
        <time>2026-05-07T08:38:39.999Z</time>
      </trkpt>
      <trkpt lat="43.5946" lon="2.95668">
        <ele>732.9</ele>
        <time>2026-05-07T08:38:40.999Z</time>
      </trkpt>
      <trkpt lat="43.5946" lon="2.95668">
        <ele>733</ele>
        <time>2026-05-07T08:38:41.999Z</time>
      </trkpt>
      <trkpt lat="43.5946" lon="2.95668">
        <ele>733</ele>
        <time>2026-05-07T08:38:42.999Z</time>
      </trkpt>
      <trkpt lat="43.5946" lon="2.95668">
        <ele>733.2</ele>
        <time>2026-05-07T08:38:43.999Z</time>
      </trkpt>
      <trkpt lat="43.5946" lon="2.95668">
        <ele>733.1</ele>
        <time>2026-05-07T08:38:44.999Z</time>
      </trkpt>
      <trkpt lat="43.59459" lon="2.95669">
        <ele>733.1</ele>
        <time>2026-05-07T08:38:45.999Z</time>
      </trkpt>
      <trkpt lat="43.59459" lon="2.95669">
        <ele>733.1</ele>
        <time>2026-05-07T08:38:46.999Z</time>
      </trkpt>
      <trkpt lat="43.59459" lon="2.95669">
        <ele>733.2</ele>
        <time>2026-05-07T08:38:47.999Z</time>
      </trkpt>
      <trkpt lat="43.59459" lon="2.95669">
        <ele>733.7</ele>
        <time>2026-05-07T08:38:48.999Z</time>
      </trkpt>
      <trkpt lat="43.59459" lon="2.95669">
        <ele>733.9</ele>
        <time>2026-05-07T08:38:49.999Z</time>
      </trkpt>
      <trkpt lat="43.59459" lon="2.9567">
        <ele>734.1</ele>
        <time>2026-05-07T08:38:50.999Z</time>
      </trkpt>
      <trkpt lat="43.59459" lon="2.9567">
        <ele>734.2</ele>
        <time>2026-05-07T08:38:51.999Z</time>
      </trkpt>
      <trkpt lat="43.59459" lon="2.9567">
        <ele>734.3</ele>
        <time>2026-05-07T08:38:52.999Z</time>
      </trkpt>
      <trkpt lat="43.59459" lon="2.95671">
        <ele>734.4</ele>
        <time>2026-05-07T08:38:53.999Z</time>
      </trkpt>
      <trkpt lat="43.5946" lon="2.95671">
        <ele>734.5</ele>
        <time>2026-05-07T08:38:54.999Z</time>
      </trkpt>
      <trkpt lat="43.5946" lon="2.95672">
        <ele>734.8</ele>
        <time>2026-05-07T08:38:55.999Z</time>
      </trkpt>
      <trkpt lat="43.5946" lon="2.95672">
        <ele>734.8</ele>
        <time>2026-05-07T08:38:56.999Z</time>
      </trkpt>
      <trkpt lat="43.5946" lon="2.95672">
        <ele>734.9</ele>
        <time>2026-05-07T08:38:57.999Z</time>
      </trkpt>
      <trkpt lat="43.5946" lon="2.95672">
        <ele>734.9</ele>
        <time>2026-05-07T08:38:58.999Z</time>
      </trkpt>
      <trkpt lat="43.5946" lon="2.95672">
        <ele>734.8</ele>
        <time>2026-05-07T08:38:59.999Z</time>
      </trkpt>
      <trkpt lat="43.5946" lon="2.95672">
        <ele>734.6</ele>
        <time>2026-05-07T08:39:00.999Z</time>
      </trkpt>
      <trkpt lat="43.5946" lon="2.95672">
        <ele>734.3</ele>
        <time>2026-05-07T08:39:01.999Z</time>
      </trkpt>
      <trkpt lat="43.5946" lon="2.95672">
        <ele>734.1</ele>
        <time>2026-05-07T08:39:02.999Z</time>
      </trkpt>
      <trkpt lat="43.5946" lon="2.95672">
        <ele>734.1</ele>
        <time>2026-05-07T08:39:03.999Z</time>
      </trkpt>
      <trkpt lat="43.5946" lon="2.95672">
        <ele>734.1</ele>
        <time>2026-05-07T08:39:04.999Z</time>
      </trkpt>
      <trkpt lat="43.5946" lon="2.95673">
        <ele>733.9</ele>
        <time>2026-05-07T08:39:05.999Z</time>
      </trkpt>
      <trkpt lat="43.5946" lon="2.95673">
        <ele>733.8</ele>
        <time>2026-05-07T08:39:06.999Z</time>
      </trkpt>
      <trkpt lat="43.5946" lon="2.95673">
        <ele>733.8</ele>
        <time>2026-05-07T08:39:07.999Z</time>
      </trkpt>
      <trkpt lat="43.5946" lon="2.95673">
        <ele>733.9</ele>
        <time>2026-05-07T08:39:08.999Z</time>
      </trkpt>
      <trkpt lat="43.5946" lon="2.95673">
        <ele>734</ele>
        <time>2026-05-07T08:39:09.999Z</time>
      </trkpt>
      <trkpt lat="43.59461" lon="2.95673">
        <ele>734.3</ele>
        <time>2026-05-07T08:39:10.999Z</time>
      </trkpt>
      <trkpt lat="43.5946" lon="2.95673">
        <ele>734.4</ele>
        <time>2026-05-07T08:39:11.999Z</time>
      </trkpt>
      <trkpt lat="43.5946" lon="2.95673">
        <ele>734.2</ele>
        <time>2026-05-07T08:39:12.999Z</time>
      </trkpt>
      <trkpt lat="43.5946" lon="2.95673">
        <ele>734.2</ele>
        <time>2026-05-07T08:39:13.999Z</time>
      </trkpt>
      <trkpt lat="43.5946" lon="2.95673">
        <ele>734.1</ele>
        <time>2026-05-07T08:39:14.999Z</time>
      </trkpt>
      <trkpt lat="43.5946" lon="2.95673">
        <ele>734.1</ele>
        <time>2026-05-07T08:39:15.999Z</time>
      </trkpt>
      <trkpt lat="43.5946" lon="2.95673">
        <ele>734.1</ele>
        <time>2026-05-07T08:39:16.999Z</time>
      </trkpt>
      <trkpt lat="43.5946" lon="2.95673">
        <ele>734.1</ele>
        <time>2026-05-07T08:39:17.999Z</time>
      </trkpt>
      <trkpt lat="43.5946" lon="2.95673">
        <ele>734</ele>
        <time>2026-05-07T08:39:18.999Z</time>
      </trkpt>
      <trkpt lat="43.5946" lon="2.95673">
        <ele>733.9</ele>
        <time>2026-05-07T08:39:19.999Z</time>
      </trkpt>
      <trkpt lat="43.5946" lon="2.95676">
        <ele>733.7</ele>
        <time>2026-05-07T08:39:21.999Z</time>
      </trkpt>
      <trkpt lat="43.59461" lon="2.95677">
        <ele>733.3</ele>
        <time>2026-05-07T08:39:22.999Z</time>
      </trkpt>
      <trkpt lat="43.59461" lon="2.95677">
        <ele>733.4</ele>
        <time>2026-05-07T08:39:23.999Z</time>
      </trkpt>
      <trkpt lat="43.59461" lon="2.95678">
        <ele>733.4</ele>
        <time>2026-05-07T08:39:24.999Z</time>
      </trkpt>
      <trkpt lat="43.59461" lon="2.95679">
        <ele>733.5</ele>
        <time>2026-05-07T08:39:25.999Z</time>
      </trkpt>
      <trkpt lat="43.59461" lon="2.95681">
        <ele>733.7</ele>
        <time>2026-05-07T08:39:26.999Z</time>
      </trkpt>
      <trkpt lat="43.59461" lon="2.95681">
        <ele>733.9</ele>
        <time>2026-05-07T08:39:27.999Z</time>
      </trkpt>
      <trkpt lat="43.59461" lon="2.95681">
        <ele>733.8</ele>
        <time>2026-05-07T08:39:28.999Z</time>
      </trkpt>
      <trkpt lat="43.59461" lon="2.95682">
        <ele>733.8</ele>
        <time>2026-05-07T08:39:29.999Z</time>
      </trkpt>
      <trkpt lat="43.59461" lon="2.95681">
        <ele>734</ele>
        <time>2026-05-07T08:39:30.999Z</time>
      </trkpt>
      <trkpt lat="43.59461" lon="2.95681">
        <ele>733.9</ele>
        <time>2026-05-07T08:39:31.999Z</time>
      </trkpt>
      <trkpt lat="43.59461" lon="2.9568">
        <ele>733.9</ele>
        <time>2026-05-07T08:39:32.999Z</time>
      </trkpt>
      <trkpt lat="43.59461" lon="2.95681">
        <ele>733.9</ele>
        <time>2026-05-07T08:39:33.999Z</time>
      </trkpt>
      <trkpt lat="43.59462" lon="2.95679">
        <ele>734</ele>
        <time>2026-05-07T08:39:34.999Z</time>
      </trkpt>
      <trkpt lat="43.59462" lon="2.95679">
        <ele>733</ele>
        <time>2026-05-07T08:39:35.999Z</time>
      </trkpt>
      <trkpt lat="43.59462" lon="2.95679">
        <ele>733.1</ele>
        <time>2026-05-07T08:39:36.999Z</time>
      </trkpt>
      <trkpt lat="43.59462" lon="2.95679">
        <ele>733</ele>
        <time>2026-05-07T08:39:37.999Z</time>
      </trkpt>
      <trkpt lat="43.59462" lon="2.95679">
        <ele>733.2</ele>
        <time>2026-05-07T08:39:38.999Z</time>
      </trkpt>
      <trkpt lat="43.59462" lon="2.95679">
        <ele>733.3</ele>
        <time>2026-05-07T08:39:39.999Z</time>
      </trkpt>
      <trkpt lat="43.59462" lon="2.95679">
        <ele>733.2</ele>
        <time>2026-05-07T08:39:40.999Z</time>
      </trkpt>
      <trkpt lat="43.59462" lon="2.95679">
        <ele>733.1</ele>
        <time>2026-05-07T08:39:41.999Z</time>
      </trkpt>
      <trkpt lat="43.59462" lon="2.95679">
        <ele>733.2</ele>
        <time>2026-05-07T08:39:42.999Z</time>
      </trkpt>
      <trkpt lat="43.59462" lon="2.95679">
        <ele>733.3</ele>
        <time>2026-05-07T08:39:43.999Z</time>
      </trkpt>
      <trkpt lat="43.59462" lon="2.95679">
        <ele>733.2</ele>
        <time>2026-05-07T08:39:44.999Z</time>
      </trkpt>
      <trkpt lat="43.59462" lon="2.95679">
        <ele>733.1</ele>
        <time>2026-05-07T08:39:45.999Z</time>
      </trkpt>
      <trkpt lat="43.59462" lon="2.95679">
        <ele>732.8</ele>
        <time>2026-05-07T08:39:46.999Z</time>
      </trkpt>
      <trkpt lat="43.59462" lon="2.95679">
        <ele>732.8</ele>
        <time>2026-05-07T08:39:47.999Z</time>
      </trkpt>
      <trkpt lat="43.59462" lon="2.95679">
        <ele>732.7</ele>
        <time>2026-05-07T08:39:48.999Z</time>
      </trkpt>
      <trkpt lat="43.59462" lon="2.95679">
        <ele>732.3</ele>
        <time>2026-05-07T08:39:49.999Z</time>
      </trkpt>
      <trkpt lat="43.59462" lon="2.9568">
        <ele>732.1</ele>
        <time>2026-05-07T08:39:50.999Z</time>
      </trkpt>
      <trkpt lat="43.59462" lon="2.95681">
        <ele>732</ele>
        <time>2026-05-07T08:39:51.999Z</time>
      </trkpt>
      <trkpt lat="43.59462" lon="2.9568">
        <ele>731.8</ele>
        <time>2026-05-07T08:39:52.999Z</time>
      </trkpt>
      <trkpt lat="43.59462" lon="2.9568">
        <ele>731.7</ele>
        <time>2026-05-07T08:39:53.999Z</time>
      </trkpt>
      <trkpt lat="43.59462" lon="2.9568">
        <ele>731.5</ele>
        <time>2026-05-07T08:39:54.999Z</time>
      </trkpt>
      <trkpt lat="43.59463" lon="2.95681">
        <ele>731.2</ele>
        <time>2026-05-07T08:39:55.999Z</time>
      </trkpt>
      <trkpt lat="43.59463" lon="2.95681">
        <ele>731</ele>
        <time>2026-05-07T08:39:56.999Z</time>
      </trkpt>
      <trkpt lat="43.59464" lon="2.95682">
        <ele>730.5</ele>
        <time>2026-05-07T08:39:57.999Z</time>
      </trkpt>
      <trkpt lat="43.59465" lon="2.95683">
        <ele>730</ele>
        <time>2026-05-07T08:39:58.999Z</time>
      </trkpt>
      <trkpt lat="43.59465" lon="2.95684">
        <ele>730.6</ele>
        <time>2026-05-07T08:39:59.999Z</time>
      </trkpt>
      <trkpt lat="43.59466" lon="2.95684">
        <ele>730.5</ele>
        <time>2026-05-07T08:40:00.999Z</time>
      </trkpt>
      <trkpt lat="43.59466" lon="2.95684">
        <ele>730.5</ele>
        <time>2026-05-07T08:40:01.999Z</time>
      </trkpt>
      <trkpt lat="43.59466" lon="2.95684">
        <ele>730.4</ele>
        <time>2026-05-07T08:40:02.999Z</time>
      </trkpt>
      <trkpt lat="43.59466" lon="2.95684">
        <ele>730</ele>
        <time>2026-05-07T08:40:03.999Z</time>
      </trkpt>
      <trkpt lat="43.59466" lon="2.95684">
        <ele>729.8</ele>
        <time>2026-05-07T08:40:04.999Z</time>
      </trkpt>
      <trkpt lat="43.59467" lon="2.95684">
        <ele>729.7</ele>
        <time>2026-05-07T08:40:05.999Z</time>
      </trkpt>
      <trkpt lat="43.59467" lon="2.95684">
        <ele>729.8</ele>
        <time>2026-05-07T08:40:06.999Z</time>
      </trkpt>
      <trkpt lat="43.59466" lon="2.95684">
        <ele>729.7</ele>
        <time>2026-05-07T08:40:07.999Z</time>
      </trkpt>
      <trkpt lat="43.59467" lon="2.95685">
        <ele>729.8</ele>
        <time>2026-05-07T08:40:08.999Z</time>
      </trkpt>
      <trkpt lat="43.59467" lon="2.95685">
        <ele>729.5</ele>
        <time>2026-05-07T08:40:09.999Z</time>
      </trkpt>
      <trkpt lat="43.59467" lon="2.95685">
        <ele>729.5</ele>
        <time>2026-05-07T08:40:10.999Z</time>
      </trkpt>
      <trkpt lat="43.59467" lon="2.95685">
        <ele>729.3</ele>
        <time>2026-05-07T08:40:12.999Z</time>
      </trkpt>
      <trkpt lat="43.59467" lon="2.95685">
        <ele>729.3</ele>
        <time>2026-05-07T08:40:13.999Z</time>
      </trkpt>
      <trkpt lat="43.59467" lon="2.95685">
        <ele>729.3</ele>
        <time>2026-05-07T08:40:14.999Z</time>
      </trkpt>
      <trkpt lat="43.59467" lon="2.95686">
        <ele>729.2</ele>
        <time>2026-05-07T08:40:15.999Z</time>
      </trkpt>
      <trkpt lat="43.59468" lon="2.95686">
        <ele>729.3</ele>
        <time>2026-05-07T08:40:16.999Z</time>
      </trkpt>
      <trkpt lat="43.59468" lon="2.95686">
        <ele>729.2</ele>
        <time>2026-05-07T08:40:17.999Z</time>
      </trkpt>
      <trkpt lat="43.59468" lon="2.95686">
        <ele>729.1</ele>
        <time>2026-05-07T08:40:18.999Z</time>
      </trkpt>
      <trkpt lat="43.59468" lon="2.95686">
        <ele>729.2</ele>
        <time>2026-05-07T08:40:19.999Z</time>
      </trkpt>
      <trkpt lat="43.59469" lon="2.95686">
        <ele>729.3</ele>
        <time>2026-05-07T08:40:20.999Z</time>
      </trkpt>
      <trkpt lat="43.59469" lon="2.95686">
        <ele>729.2</ele>
        <time>2026-05-07T08:40:21.999Z</time>
      </trkpt>
      <trkpt lat="43.59469" lon="2.95688">
        <ele>728.8</ele>
        <time>2026-05-07T08:40:22.999Z</time>
      </trkpt>
      <trkpt lat="43.59468" lon="2.95689">
        <ele>728.5</ele>
        <time>2026-05-07T08:40:23.999Z</time>
      </trkpt>
      <trkpt lat="43.59467" lon="2.95689">
        <ele>728</ele>
        <time>2026-05-07T08:40:24.999Z</time>
      </trkpt>
      <trkpt lat="43.59467" lon="2.95689">
        <ele>726.4</ele>
        <time>2026-05-07T08:40:25.999Z</time>
      </trkpt>
      <trkpt lat="43.59467" lon="2.95689">
        <ele>726.2</ele>
        <time>2026-05-07T08:40:26.999Z</time>
      </trkpt>
      <trkpt lat="43.59467" lon="2.95689">
        <ele>726.3</ele>
        <time>2026-05-07T08:40:27.999Z</time>
      </trkpt>
      <trkpt lat="43.59467" lon="2.95689">
        <ele>726.5</ele>
        <time>2026-05-07T08:40:28.999Z</time>
      </trkpt>
      <trkpt lat="43.59468" lon="2.95688">
        <ele>726.6</ele>
        <time>2026-05-07T08:40:29.999Z</time>
      </trkpt>
      <trkpt lat="43.59468" lon="2.95688">
        <ele>726.6</ele>
        <time>2026-05-07T08:40:30.999Z</time>
      </trkpt>
      <trkpt lat="43.59468" lon="2.95688">
        <ele>726.8</ele>
        <time>2026-05-07T08:40:31.999Z</time>
      </trkpt>
      <trkpt lat="43.59468" lon="2.95688">
        <ele>727</ele>
        <time>2026-05-07T08:40:32.999Z</time>
      </trkpt>
      <trkpt lat="43.59468" lon="2.95688">
        <ele>727.2</ele>
        <time>2026-05-07T08:40:33.999Z</time>
      </trkpt>
      <trkpt lat="43.59468" lon="2.95687">
        <ele>727.4</ele>
        <time>2026-05-07T08:40:34.999Z</time>
      </trkpt>
      <trkpt lat="43.59468" lon="2.95687">
        <ele>727.5</ele>
        <time>2026-05-07T08:40:35.999Z</time>
      </trkpt>
      <trkpt lat="43.59468" lon="2.95687">
        <ele>727.5</ele>
        <time>2026-05-07T08:40:36.999Z</time>
      </trkpt>
      <trkpt lat="43.59468" lon="2.95687">
        <ele>727.6</ele>
        <time>2026-05-07T08:40:37.999Z</time>
      </trkpt>
      <trkpt lat="43.59468" lon="2.95687">
        <ele>727.5</ele>
        <time>2026-05-07T08:40:38.999Z</time>
      </trkpt>
      <trkpt lat="43.59468" lon="2.95687">
        <ele>727.5</ele>
        <time>2026-05-07T08:40:39.999Z</time>
      </trkpt>
      <trkpt lat="43.59468" lon="2.95687">
        <ele>727.7</ele>
        <time>2026-05-07T08:40:40.999Z</time>
      </trkpt>
      <trkpt lat="43.59468" lon="2.95687">
        <ele>727.6</ele>
        <time>2026-05-07T08:40:41.999Z</time>
      </trkpt>
      <trkpt lat="43.59468" lon="2.95687">
        <ele>727.6</ele>
        <time>2026-05-07T08:40:42.999Z</time>
      </trkpt>
      <trkpt lat="43.59468" lon="2.95687">
        <ele>727.6</ele>
        <time>2026-05-07T08:40:43.999Z</time>
      </trkpt>
      <trkpt lat="43.59468" lon="2.95687">
        <ele>727.7</ele>
        <time>2026-05-07T08:40:44.999Z</time>
      </trkpt>
      <trkpt lat="43.59468" lon="2.95688">
        <ele>727.7</ele>
        <time>2026-05-07T08:40:45.999Z</time>
      </trkpt>
      <trkpt lat="43.59467" lon="2.95688">
        <ele>727.7</ele>
        <time>2026-05-07T08:40:46.999Z</time>
      </trkpt>
      <trkpt lat="43.59468" lon="2.95688">
        <ele>727.6</ele>
        <time>2026-05-07T08:40:47.999Z</time>
      </trkpt>
      <trkpt lat="43.59468" lon="2.95687">
        <ele>727.5</ele>
        <time>2026-05-07T08:40:48.999Z</time>
      </trkpt>
      <trkpt lat="43.59469" lon="2.95688">
        <ele>727.3</ele>
        <time>2026-05-07T08:40:49.999Z</time>
      </trkpt>
      <trkpt lat="43.59469" lon="2.95689">
        <ele>727</ele>
        <time>2026-05-07T08:40:50.999Z</time>
      </trkpt>
      <trkpt lat="43.59468" lon="2.95689">
        <ele>726.8</ele>
        <time>2026-05-07T08:40:51.999Z</time>
      </trkpt>
      <trkpt lat="43.59468" lon="2.95689">
        <ele>726.6</ele>
        <time>2026-05-07T08:40:52.999Z</time>
      </trkpt>
      <trkpt lat="43.59468" lon="2.9569">
        <ele>726.5</ele>
        <time>2026-05-07T08:40:53.999Z</time>
      </trkpt>
      <trkpt lat="43.59469" lon="2.95689">
        <ele>726.3</ele>
        <time>2026-05-07T08:40:54.999Z</time>
      </trkpt>
      <trkpt lat="43.59469" lon="2.95689">
        <ele>726.4</ele>
        <time>2026-05-07T08:40:55.999Z</time>
      </trkpt>
      <trkpt lat="43.59469" lon="2.95689">
        <ele>726.6</ele>
        <time>2026-05-07T08:40:56.999Z</time>
      </trkpt>
      <trkpt lat="43.59469" lon="2.95689">
        <ele>726.6</ele>
        <time>2026-05-07T08:40:57.999Z</time>
      </trkpt>
      <trkpt lat="43.59469" lon="2.95688">
        <ele>726.4</ele>
        <time>2026-05-07T08:40:58.999Z</time>
      </trkpt>
      <trkpt lat="43.59469" lon="2.95689">
        <ele>726.2</ele>
        <time>2026-05-07T08:40:59.999Z</time>
      </trkpt>
      <trkpt lat="43.59468" lon="2.95689">
        <ele>725.9</ele>
        <time>2026-05-07T08:41:00.999Z</time>
      </trkpt>
      <trkpt lat="43.59468" lon="2.9569">
        <ele>725.6</ele>
        <time>2026-05-07T08:41:01.999Z</time>
      </trkpt>
      <trkpt lat="43.59467" lon="2.9569">
        <ele>725.8</ele>
        <time>2026-05-07T08:41:02.999Z</time>
      </trkpt>
      <trkpt lat="43.59467" lon="2.9569">
        <ele>725.9</ele>
        <time>2026-05-07T08:41:03.999Z</time>
      </trkpt>
      <trkpt lat="43.59467" lon="2.9569">
        <ele>725.8</ele>
        <time>2026-05-07T08:41:04.999Z</time>
      </trkpt>
      <trkpt lat="43.59468" lon="2.95691">
        <ele>725.5</ele>
        <time>2026-05-07T08:41:05.999Z</time>
      </trkpt>
      <trkpt lat="43.59468" lon="2.95691">
        <ele>725.3</ele>
        <time>2026-05-07T08:41:06.999Z</time>
      </trkpt>
      <trkpt lat="43.59468" lon="2.95692">
        <ele>725.2</ele>
        <time>2026-05-07T08:41:07.999Z</time>
      </trkpt>
      <trkpt lat="43.59469" lon="2.95692">
        <ele>725.3</ele>
        <time>2026-05-07T08:41:08.999Z</time>
      </trkpt>
      <trkpt lat="43.59469" lon="2.95691">
        <ele>725.3</ele>
        <time>2026-05-07T08:41:09.999Z</time>
      </trkpt>
      <trkpt lat="43.59469" lon="2.95691">
        <ele>725.3</ele>
        <time>2026-05-07T08:41:10.999Z</time>
      </trkpt>
      <trkpt lat="43.59469" lon="2.9569">
        <ele>725.5</ele>
        <time>2026-05-07T08:41:11.999Z</time>
      </trkpt>
      <trkpt lat="43.59469" lon="2.9569">
        <ele>725.8</ele>
        <time>2026-05-07T08:41:12.999Z</time>
      </trkpt>
      <trkpt lat="43.59469" lon="2.95689">
        <ele>725.9</ele>
        <time>2026-05-07T08:41:13.999Z</time>
      </trkpt>
      <trkpt lat="43.59469" lon="2.95688">
        <ele>726</ele>
        <time>2026-05-07T08:41:14.999Z</time>
      </trkpt>
      <trkpt lat="43.59468" lon="2.95686">
        <ele>726</ele>
        <time>2026-05-07T08:41:16.999Z</time>
      </trkpt>
      <trkpt lat="43.59468" lon="2.95686">
        <ele>726.1</ele>
        <time>2026-05-07T08:41:17.999Z</time>
      </trkpt>
      <trkpt lat="43.59469" lon="2.95686">
        <ele>726.2</ele>
        <time>2026-05-07T08:41:18.999Z</time>
      </trkpt>
      <trkpt lat="43.59469" lon="2.95687">
        <ele>726.5</ele>
        <time>2026-05-07T08:41:19.999Z</time>
      </trkpt>
      <trkpt lat="43.59468" lon="2.95688">
        <ele>726.4</ele>
        <time>2026-05-07T08:41:20.999Z</time>
      </trkpt>
      <trkpt lat="43.59468" lon="2.95688">
        <ele>726.4</ele>
        <time>2026-05-07T08:41:21.999Z</time>
      </trkpt>
      <trkpt lat="43.59468" lon="2.95688">
        <ele>726.4</ele>
        <time>2026-05-07T08:41:22.999Z</time>
      </trkpt>
      <trkpt lat="43.59468" lon="2.95688">
        <ele>726.9</ele>
        <time>2026-05-07T08:41:23.999Z</time>
      </trkpt>
      <trkpt lat="43.59468" lon="2.95688">
        <ele>727</ele>
        <time>2026-05-07T08:41:24.999Z</time>
      </trkpt>
      <trkpt lat="43.59468" lon="2.95689">
        <ele>727.1</ele>
        <time>2026-05-07T08:41:25.999Z</time>
      </trkpt>
      <trkpt lat="43.59468" lon="2.95689">
        <ele>727.2</ele>
        <time>2026-05-07T08:41:26.999Z</time>
      </trkpt>
      <trkpt lat="43.59468" lon="2.95689">
        <ele>727.4</ele>
        <time>2026-05-07T08:41:27.999Z</time>
      </trkpt>
      <trkpt lat="43.59468" lon="2.95689">
        <ele>727.4</ele>
        <time>2026-05-07T08:41:28.999Z</time>
      </trkpt>
      <trkpt lat="43.59468" lon="2.95688">
        <ele>727.3</ele>
        <time>2026-05-07T08:41:29.999Z</time>
      </trkpt>
      <trkpt lat="43.59469" lon="2.95688">
        <ele>727.2</ele>
        <time>2026-05-07T08:41:30.999Z</time>
      </trkpt>
      <trkpt lat="43.59469" lon="2.95688">
        <ele>727.2</ele>
        <time>2026-05-07T08:41:31.999Z</time>
      </trkpt>
      <trkpt lat="43.59469" lon="2.95688">
        <ele>727.3</ele>
        <time>2026-05-07T08:41:32.999Z</time>
      </trkpt>
      <trkpt lat="43.59469" lon="2.95688">
        <ele>727.2</ele>
        <time>2026-05-07T08:41:33.999Z</time>
      </trkpt>
      <trkpt lat="43.59469" lon="2.95688">
        <ele>727.2</ele>
        <time>2026-05-07T08:41:34.999Z</time>
      </trkpt>
      <trkpt lat="43.59469" lon="2.95688">
        <ele>727.4</ele>
        <time>2026-05-07T08:41:35.999Z</time>
      </trkpt>
      <trkpt lat="43.59469" lon="2.95689">
        <ele>727.6</ele>
        <time>2026-05-07T08:41:36.999Z</time>
      </trkpt>
      <trkpt lat="43.59469" lon="2.9569">
        <ele>727.5</ele>
        <time>2026-05-07T08:41:37.999Z</time>
      </trkpt>
      <trkpt lat="43.59469" lon="2.9569">
        <ele>727.6</ele>
        <time>2026-05-07T08:41:38.999Z</time>
      </trkpt>
      <trkpt lat="43.59469" lon="2.9569">
        <ele>728</ele>
        <time>2026-05-07T08:41:39.999Z</time>
      </trkpt>
      <trkpt lat="43.59469" lon="2.9569">
        <ele>728.2</ele>
        <time>2026-05-07T08:41:40.999Z</time>
      </trkpt>
      <trkpt lat="43.59469" lon="2.95691">
        <ele>728.3</ele>
        <time>2026-05-07T08:41:41.999Z</time>
      </trkpt>
      <trkpt lat="43.59469" lon="2.95691">
        <ele>728.5</ele>
        <time>2026-05-07T08:41:42.999Z</time>
      </trkpt>
      <trkpt lat="43.5947" lon="2.95691">
        <ele>728.6</ele>
        <time>2026-05-07T08:41:43.999Z</time>
      </trkpt>
      <trkpt lat="43.5947" lon="2.9569">
        <ele>728.7</ele>
        <time>2026-05-07T08:41:44.999Z</time>
      </trkpt>
      <trkpt lat="43.5947" lon="2.9569">
        <ele>729</ele>
        <time>2026-05-07T08:41:45.999Z</time>
      </trkpt>
      <trkpt lat="43.5947" lon="2.9569">
        <ele>729.2</ele>
        <time>2026-05-07T08:41:46.999Z</time>
      </trkpt>
      <trkpt lat="43.5947" lon="2.9569">
        <ele>729.1</ele>
        <time>2026-05-07T08:41:47.999Z</time>
      </trkpt>
      <trkpt lat="43.5947" lon="2.95689">
        <ele>728.7</ele>
        <time>2026-05-07T08:41:49.999Z</time>
      </trkpt>
      <trkpt lat="43.5947" lon="2.95689">
        <ele>728.6</ele>
        <time>2026-05-07T08:41:50.999Z</time>
      </trkpt>
      <trkpt lat="43.5947" lon="2.95689">
        <ele>728.7</ele>
        <time>2026-05-07T08:41:51.999Z</time>
      </trkpt>
      <trkpt lat="43.5947" lon="2.95689">
        <ele>728.9</ele>
        <time>2026-05-07T08:41:52.999Z</time>
      </trkpt>
      <trkpt lat="43.5947" lon="2.9569">
        <ele>728.7</ele>
        <time>2026-05-07T08:41:53.999Z</time>
      </trkpt>
      <trkpt lat="43.5947" lon="2.9569">
        <ele>728.8</ele>
        <time>2026-05-07T08:41:54.999Z</time>
      </trkpt>
      <trkpt lat="43.5947" lon="2.95692">
        <ele>729.1</ele>
        <time>2026-05-07T08:41:55.999Z</time>
      </trkpt>
      <trkpt lat="43.5947" lon="2.95692">
        <ele>729.1</ele>
        <time>2026-05-07T08:41:56.999Z</time>
      </trkpt>
      <trkpt lat="43.5947" lon="2.95692">
        <ele>729.2</ele>
        <time>2026-05-07T08:41:57.999Z</time>
      </trkpt>
      <trkpt lat="43.5947" lon="2.95692">
        <ele>729.1</ele>
        <time>2026-05-07T08:41:58.999Z</time>
      </trkpt>
      <trkpt lat="43.5947" lon="2.95692">
        <ele>728.7</ele>
        <time>2026-05-07T08:41:59.999Z</time>
      </trkpt>
      <trkpt lat="43.59469" lon="2.95692">
        <ele>728.2</ele>
        <time>2026-05-07T08:42:00.999Z</time>
      </trkpt>
      <trkpt lat="43.59469" lon="2.95692">
        <ele>727.9</ele>
        <time>2026-05-07T08:42:01.999Z</time>
      </trkpt>
      <trkpt lat="43.59469" lon="2.95692">
        <ele>728</ele>
        <time>2026-05-07T08:42:02.999Z</time>
      </trkpt>
      <trkpt lat="43.59469" lon="2.95692">
        <ele>728.1</ele>
        <time>2026-05-07T08:42:03.999Z</time>
      </trkpt>
      <trkpt lat="43.59469" lon="2.95692">
        <ele>728.1</ele>
        <time>2026-05-07T08:42:04.999Z</time>
      </trkpt>
      <trkpt lat="43.59469" lon="2.95692">
        <ele>728.1</ele>
        <time>2026-05-07T08:42:05.999Z</time>
      </trkpt>
      <trkpt lat="43.59469" lon="2.95692">
        <ele>728.2</ele>
        <time>2026-05-07T08:42:06.999Z</time>
      </trkpt>
      <trkpt lat="43.59469" lon="2.95692">
        <ele>728.4</ele>
        <time>2026-05-07T08:42:07.999Z</time>
      </trkpt>
      <trkpt lat="43.59469" lon="2.95691">
        <ele>728.5</ele>
        <time>2026-05-07T08:42:08.999Z</time>
      </trkpt>
      <trkpt lat="43.59469" lon="2.95691">
        <ele>728.4</ele>
        <time>2026-05-07T08:42:09.999Z</time>
      </trkpt>
      <trkpt lat="43.59468" lon="2.9569">
        <ele>728.2</ele>
        <time>2026-05-07T08:42:10.999Z</time>
      </trkpt>
      <trkpt lat="43.59468" lon="2.95689">
        <ele>728.2</ele>
        <time>2026-05-07T08:42:11.999Z</time>
      </trkpt>
      <trkpt lat="43.59468" lon="2.95689">
        <ele>728</ele>
        <time>2026-05-07T08:42:12.999Z</time>
      </trkpt>
      <trkpt lat="43.59469" lon="2.95688">
        <ele>727.8</ele>
        <time>2026-05-07T08:42:14.999Z</time>
      </trkpt>
      <trkpt lat="43.5947" lon="2.95688">
        <ele>727.7</ele>
        <time>2026-05-07T08:42:15.999Z</time>
      </trkpt>
      <trkpt lat="43.5947" lon="2.95688">
        <ele>727.8</ele>
        <time>2026-05-07T08:42:16.999Z</time>
      </trkpt>
      <trkpt lat="43.59471" lon="2.95688">
        <ele>728</ele>
        <time>2026-05-07T08:42:17.999Z</time>
      </trkpt>
      <trkpt lat="43.59471" lon="2.95688">
        <ele>728</ele>
        <time>2026-05-07T08:42:18.999Z</time>
      </trkpt>
      <trkpt lat="43.59471" lon="2.95688">
        <ele>728.1</ele>
        <time>2026-05-07T08:42:19.999Z</time>
      </trkpt>
      <trkpt lat="43.59471" lon="2.95688">
        <ele>728.2</ele>
        <time>2026-05-07T08:42:20.999Z</time>
      </trkpt>
      <trkpt lat="43.59471" lon="2.95688">
        <ele>728.3</ele>
        <time>2026-05-07T08:42:21.999Z</time>
      </trkpt>
      <trkpt lat="43.59472" lon="2.95689">
        <ele>728.4</ele>
        <time>2026-05-07T08:42:22.999Z</time>
      </trkpt>
      <trkpt lat="43.59472" lon="2.9569">
        <ele>728.4</ele>
        <time>2026-05-07T08:42:23.999Z</time>
      </trkpt>
      <trkpt lat="43.59472" lon="2.9569">
        <ele>728.6</ele>
        <time>2026-05-07T08:42:24.999Z</time>
      </trkpt>
      <trkpt lat="43.59473" lon="2.9569">
        <ele>728.6</ele>
        <time>2026-05-07T08:42:25.999Z</time>
      </trkpt>
      <trkpt lat="43.59473" lon="2.9569">
        <ele>728.6</ele>
        <time>2026-05-07T08:42:26.999Z</time>
      </trkpt>
      <trkpt lat="43.59473" lon="2.9569">
        <ele>728.4</ele>
        <time>2026-05-07T08:42:27.999Z</time>
      </trkpt>
      <trkpt lat="43.59473" lon="2.9569">
        <ele>728.4</ele>
        <time>2026-05-07T08:42:28.999Z</time>
      </trkpt>
      <trkpt lat="43.59473" lon="2.9569">
        <ele>728.4</ele>
        <time>2026-05-07T08:42:29.999Z</time>
      </trkpt>
      <trkpt lat="43.59473" lon="2.9569">
        <ele>728.4</ele>
        <time>2026-05-07T08:42:30.999Z</time>
      </trkpt>
      <trkpt lat="43.59473" lon="2.9569">
        <ele>728.2</ele>
        <time>2026-05-07T08:42:31.999Z</time>
      </trkpt>
      <trkpt lat="43.59473" lon="2.9569">
        <ele>728.3</ele>
        <time>2026-05-07T08:42:32.999Z</time>
      </trkpt>
      <trkpt lat="43.59473" lon="2.9569">
        <ele>728.3</ele>
        <time>2026-05-07T08:42:33.999Z</time>
      </trkpt>
      <trkpt lat="43.59472" lon="2.95689">
        <ele>728.2</ele>
        <time>2026-05-07T08:42:34.999Z</time>
      </trkpt>
      <trkpt lat="43.59472" lon="2.95688">
        <ele>728.1</ele>
        <time>2026-05-07T08:42:35.999Z</time>
      </trkpt>
      <trkpt lat="43.59472" lon="2.95688">
        <ele>728.1</ele>
        <time>2026-05-07T08:42:36.999Z</time>
      </trkpt>
      <trkpt lat="43.59472" lon="2.95688">
        <ele>727.9</ele>
        <time>2026-05-07T08:42:37.999Z</time>
      </trkpt>
      <trkpt lat="43.59472" lon="2.95688">
        <ele>727.8</ele>
        <time>2026-05-07T08:42:38.999Z</time>
      </trkpt>
      <trkpt lat="43.59472" lon="2.95688">
        <ele>727.8</ele>
        <time>2026-05-07T08:42:39.999Z</time>
      </trkpt>
      <trkpt lat="43.59472" lon="2.95688">
        <ele>727.7</ele>
        <time>2026-05-07T08:42:40.999Z</time>
      </trkpt>
      <trkpt lat="43.59472" lon="2.95688">
        <ele>727.5</ele>
        <time>2026-05-07T08:42:41.999Z</time>
      </trkpt>
      <trkpt lat="43.59471" lon="2.95687">
        <ele>727.6</ele>
        <time>2026-05-07T08:42:42.999Z</time>
      </trkpt>
      <trkpt lat="43.59471" lon="2.95687">
        <ele>727.7</ele>
        <time>2026-05-07T08:42:43.999Z</time>
      </trkpt>
      <trkpt lat="43.59471" lon="2.95687">
        <ele>727.9</ele>
        <time>2026-05-07T08:42:44.999Z</time>
      </trkpt>
      <trkpt lat="43.59471" lon="2.95686">
        <ele>728</ele>
        <time>2026-05-07T08:42:45.999Z</time>
      </trkpt>
      <trkpt lat="43.59471" lon="2.95684">
        <ele>728.2</ele>
        <time>2026-05-07T08:42:46.999Z</time>
      </trkpt>
      <trkpt lat="43.59471" lon="2.95683">
        <ele>728.5</ele>
        <time>2026-05-07T08:42:47.999Z</time>
      </trkpt>
      <trkpt lat="43.59471" lon="2.95683">
        <ele>728.8</ele>
        <time>2026-05-07T08:42:48.999Z</time>
      </trkpt>
      <trkpt lat="43.59471" lon="2.95683">
        <ele>728.9</ele>
        <time>2026-05-07T08:42:49.999Z</time>
      </trkpt>
      <trkpt lat="43.59471" lon="2.95683">
        <ele>728.9</ele>
        <time>2026-05-07T08:42:50.999Z</time>
      </trkpt>
      <trkpt lat="43.59471" lon="2.95683">
        <ele>728.9</ele>
        <time>2026-05-07T08:42:51.999Z</time>
      </trkpt>
      <trkpt lat="43.59471" lon="2.95684">
        <ele>728.9</ele>
        <time>2026-05-07T08:42:52.999Z</time>
      </trkpt>
      <trkpt lat="43.59471" lon="2.95684">
        <ele>728.8</ele>
        <time>2026-05-07T08:42:53.999Z</time>
      </trkpt>
      <trkpt lat="43.59471" lon="2.95684">
        <ele>728.8</ele>
        <time>2026-05-07T08:42:54.999Z</time>
      </trkpt>
      <trkpt lat="43.59471" lon="2.95684">
        <ele>728.7</ele>
        <time>2026-05-07T08:42:55.999Z</time>
      </trkpt>
      <trkpt lat="43.59471" lon="2.95684">
        <ele>728.6</ele>
        <time>2026-05-07T08:42:56.999Z</time>
      </trkpt>
      <trkpt lat="43.59472" lon="2.95684">
        <ele>728.4</ele>
        <time>2026-05-07T08:42:58.999Z</time>
      </trkpt>
      <trkpt lat="43.59473" lon="2.95683">
        <ele>728.5</ele>
        <time>2026-05-07T08:42:59.999Z</time>
      </trkpt>
      <trkpt lat="43.59473" lon="2.95683">
        <ele>728.5</ele>
        <time>2026-05-07T08:43:00.999Z</time>
      </trkpt>
      <trkpt lat="43.59473" lon="2.95682">
        <ele>728.5</ele>
        <time>2026-05-07T08:43:01.999Z</time>
      </trkpt>
      <trkpt lat="43.59473" lon="2.95682">
        <ele>728.5</ele>
        <time>2026-05-07T08:43:02.999Z</time>
      </trkpt>
      <trkpt lat="43.59473" lon="2.95682">
        <ele>728.5</ele>
        <time>2026-05-07T08:43:03.999Z</time>
      </trkpt>
      <trkpt lat="43.59472" lon="2.95682">
        <ele>728.5</ele>
        <time>2026-05-07T08:43:04.999Z</time>
      </trkpt>
      <trkpt lat="43.59471" lon="2.95683">
        <ele>728.4</ele>
        <time>2026-05-07T08:43:05.999Z</time>
      </trkpt>
      <trkpt lat="43.5947" lon="2.95683">
        <ele>728.2</ele>
        <time>2026-05-07T08:43:06.999Z</time>
      </trkpt>
      <trkpt lat="43.5947" lon="2.95683">
        <ele>728.3</ele>
        <time>2026-05-07T08:43:07.999Z</time>
      </trkpt>
      <trkpt lat="43.59469" lon="2.95683">
        <ele>728.3</ele>
        <time>2026-05-07T08:43:08.999Z</time>
      </trkpt>
      <trkpt lat="43.59469" lon="2.95683">
        <ele>728.3</ele>
        <time>2026-05-07T08:43:09.999Z</time>
      </trkpt>
      <trkpt lat="43.59469" lon="2.95683">
        <ele>728.3</ele>
        <time>2026-05-07T08:43:10.999Z</time>
      </trkpt>
      <trkpt lat="43.59469" lon="2.95683">
        <ele>728.1</ele>
        <time>2026-05-07T08:43:11.999Z</time>
      </trkpt>
      <trkpt lat="43.59469" lon="2.95683">
        <ele>728.1</ele>
        <time>2026-05-07T08:43:12.999Z</time>
      </trkpt>
      <trkpt lat="43.59469" lon="2.95683">
        <ele>728</ele>
        <time>2026-05-07T08:43:13.999Z</time>
      </trkpt>
      <trkpt lat="43.59469" lon="2.95683">
        <ele>727.9</ele>
        <time>2026-05-07T08:43:14.999Z</time>
      </trkpt>
      <trkpt lat="43.59469" lon="2.95683">
        <ele>727.9</ele>
        <time>2026-05-07T08:43:15.999Z</time>
      </trkpt>
      <trkpt lat="43.59469" lon="2.95683">
        <ele>728</ele>
        <time>2026-05-07T08:43:16.999Z</time>
      </trkpt>
      <trkpt lat="43.59469" lon="2.95683">
        <ele>728.1</ele>
        <time>2026-05-07T08:43:17.999Z</time>
      </trkpt>
      <trkpt lat="43.59469" lon="2.95683">
        <ele>728.2</ele>
        <time>2026-05-07T08:43:18.999Z</time>
      </trkpt>
      <trkpt lat="43.59469" lon="2.95683">
        <ele>728.2</ele>
        <time>2026-05-07T08:43:19.999Z</time>
      </trkpt>
      <trkpt lat="43.59469" lon="2.95683">
        <ele>728.3</ele>
        <time>2026-05-07T08:43:20.999Z</time>
      </trkpt>
      <trkpt lat="43.59469" lon="2.95683">
        <ele>728.3</ele>
        <time>2026-05-07T08:43:21.999Z</time>
      </trkpt>
      <trkpt lat="43.59469" lon="2.95683">
        <ele>728.3</ele>
        <time>2026-05-07T08:43:22.999Z</time>
      </trkpt>
      <trkpt lat="43.59469" lon="2.95683">
        <ele>728.3</ele>
        <time>2026-05-07T08:43:23.999Z</time>
      </trkpt>
      <trkpt lat="43.59469" lon="2.95683">
        <ele>728.2</ele>
        <time>2026-05-07T08:43:24.999Z</time>
      </trkpt>
      <trkpt lat="43.59469" lon="2.95683">
        <ele>728.1</ele>
        <time>2026-05-07T08:43:25.999Z</time>
      </trkpt>
      <trkpt lat="43.59468" lon="2.95683">
        <ele>728</ele>
        <time>2026-05-07T08:43:26.999Z</time>
      </trkpt>
      <trkpt lat="43.59468" lon="2.95684">
        <ele>728</ele>
        <time>2026-05-07T08:43:27.999Z</time>
      </trkpt>
      <trkpt lat="43.59467" lon="2.95684">
        <ele>728.1</ele>
        <time>2026-05-07T08:43:28.999Z</time>
      </trkpt>
      <trkpt lat="43.59467" lon="2.95686">
        <ele>727.8</ele>
        <time>2026-05-07T08:43:29.999Z</time>
      </trkpt>
      <trkpt lat="43.59467" lon="2.95686">
        <ele>727.7</ele>
        <time>2026-05-07T08:43:30.999Z</time>
      </trkpt>
      <trkpt lat="43.59467" lon="2.95686">
        <ele>727.7</ele>
        <time>2026-05-07T08:43:31.999Z</time>
      </trkpt>
      <trkpt lat="43.59467" lon="2.95686">
        <ele>727.8</ele>
        <time>2026-05-07T08:43:32.999Z</time>
      </trkpt>
      <trkpt lat="43.59467" lon="2.95686">
        <ele>727.8</ele>
        <time>2026-05-07T08:43:33.999Z</time>
      </trkpt>
      <trkpt lat="43.59467" lon="2.95686">
        <ele>727.7</ele>
        <time>2026-05-07T08:43:34.999Z</time>
      </trkpt>
      <trkpt lat="43.59467" lon="2.95686">
        <ele>727.7</ele>
        <time>2026-05-07T08:43:35.999Z</time>
      </trkpt>
      <trkpt lat="43.59467" lon="2.95687">
        <ele>727.5</ele>
        <time>2026-05-07T08:43:36.999Z</time>
      </trkpt>
      <trkpt lat="43.59467" lon="2.95687">
        <ele>727.4</ele>
        <time>2026-05-07T08:43:37.999Z</time>
      </trkpt>
      <trkpt lat="43.59467" lon="2.95688">
        <ele>727.5</ele>
        <time>2026-05-07T08:43:38.999Z</time>
      </trkpt>
      <trkpt lat="43.59467" lon="2.95689">
        <ele>727.4</ele>
        <time>2026-05-07T08:43:39.999Z</time>
      </trkpt>
      <trkpt lat="43.59467" lon="2.9569">
        <ele>727.3</ele>
        <time>2026-05-07T08:43:40.999Z</time>
      </trkpt>
      <trkpt lat="43.59467" lon="2.9569">
        <ele>727.5</ele>
        <time>2026-05-07T08:43:41.999Z</time>
      </trkpt>
      <trkpt lat="43.59467" lon="2.9569">
        <ele>727.6</ele>
        <time>2026-05-07T08:43:42.999Z</time>
      </trkpt>
      <trkpt lat="43.59467" lon="2.9569">
        <ele>727.7</ele>
        <time>2026-05-07T08:43:43.999Z</time>
      </trkpt>
      <trkpt lat="43.59467" lon="2.9569">
        <ele>727.8</ele>
        <time>2026-05-07T08:43:44.999Z</time>
      </trkpt>
      <trkpt lat="43.59467" lon="2.9569">
        <ele>727.7</ele>
        <time>2026-05-07T08:43:45.999Z</time>
      </trkpt>
      <trkpt lat="43.59467" lon="2.9569">
        <ele>727.6</ele>
        <time>2026-05-07T08:43:46.999Z</time>
      </trkpt>
      <trkpt lat="43.59466" lon="2.95689">
        <ele>727.5</ele>
        <time>2026-05-07T08:43:47.999Z</time>
      </trkpt>
      <trkpt lat="43.59466" lon="2.95689">
        <ele>727.2</ele>
        <time>2026-05-07T08:43:48.999Z</time>
      </trkpt>
      <trkpt lat="43.59466" lon="2.95689">
        <ele>727.2</ele>
        <time>2026-05-07T08:43:49.999Z</time>
      </trkpt>
      <trkpt lat="43.59465" lon="2.95688">
        <ele>727.2</ele>
        <time>2026-05-07T08:43:50.999Z</time>
      </trkpt>
      <trkpt lat="43.59465" lon="2.95689">
        <ele>727.3</ele>
        <time>2026-05-07T08:43:51.999Z</time>
      </trkpt>
      <trkpt lat="43.59465" lon="2.95689">
        <ele>727.3</ele>
        <time>2026-05-07T08:43:52.999Z</time>
      </trkpt>
      <trkpt lat="43.59465" lon="2.95688">
        <ele>727.3</ele>
        <time>2026-05-07T08:43:53.999Z</time>
      </trkpt>
      <trkpt lat="43.59465" lon="2.95688">
        <ele>727.2</ele>
        <time>2026-05-07T08:43:54.999Z</time>
      </trkpt>
      <trkpt lat="43.59465" lon="2.95688">
        <ele>727</ele>
        <time>2026-05-07T08:43:55.999Z</time>
      </trkpt>
      <trkpt lat="43.59465" lon="2.95688">
        <ele>726.6</ele>
        <time>2026-05-07T08:43:56.999Z</time>
      </trkpt>
      <trkpt lat="43.59465" lon="2.95688">
        <ele>726.5</ele>
        <time>2026-05-07T08:43:57.999Z</time>
      </trkpt>
      <trkpt lat="43.59464" lon="2.95688">
        <ele>726.3</ele>
        <time>2026-05-07T08:43:58.999Z</time>
      </trkpt>
      <trkpt lat="43.59464" lon="2.95688">
        <ele>726.2</ele>
        <time>2026-05-07T08:43:59.999Z</time>
      </trkpt>
      <trkpt lat="43.59464" lon="2.95688">
        <ele>726.3</ele>
        <time>2026-05-07T08:44:00.999Z</time>
      </trkpt>
      <trkpt lat="43.59464" lon="2.95688">
        <ele>726.3</ele>
        <time>2026-05-07T08:44:01.999Z</time>
      </trkpt>
      <trkpt lat="43.59464" lon="2.95688">
        <ele>726.3</ele>
        <time>2026-05-07T08:44:02.999Z</time>
      </trkpt>
      <trkpt lat="43.59464" lon="2.95688">
        <ele>726.6</ele>
        <time>2026-05-07T08:44:03.999Z</time>
      </trkpt>
      <trkpt lat="43.59464" lon="2.95687">
        <ele>726.9</ele>
        <time>2026-05-07T08:44:04.999Z</time>
      </trkpt>
      <trkpt lat="43.59464" lon="2.95686">
        <ele>727.2</ele>
        <time>2026-05-07T08:44:05.999Z</time>
      </trkpt>
      <trkpt lat="43.59464" lon="2.95686">
        <ele>727.4</ele>
        <time>2026-05-07T08:44:06.999Z</time>
      </trkpt>
      <trkpt lat="43.59463" lon="2.95686">
        <ele>727.5</ele>
        <time>2026-05-07T08:44:07.999Z</time>
      </trkpt>
      <trkpt lat="43.59464" lon="2.95686">
        <ele>727.5</ele>
        <time>2026-05-07T08:44:08.999Z</time>
      </trkpt>
      <trkpt lat="43.59464" lon="2.95685">
        <ele>727.3</ele>
        <time>2026-05-07T08:44:09.999Z</time>
      </trkpt>
      <trkpt lat="43.59464" lon="2.95685">
        <ele>727.4</ele>
        <time>2026-05-07T08:44:10.999Z</time>
      </trkpt>
      <trkpt lat="43.59464" lon="2.95685">
        <ele>727.4</ele>
        <time>2026-05-07T08:44:11.999Z</time>
      </trkpt>
      <trkpt lat="43.59463" lon="2.95685">
        <ele>727.7</ele>
        <time>2026-05-07T08:44:12.999Z</time>
      </trkpt>
      <trkpt lat="43.59463" lon="2.95685">
        <ele>727.8</ele>
        <time>2026-05-07T08:44:13.999Z</time>
      </trkpt>
      <trkpt lat="43.59463" lon="2.95685">
        <ele>728</ele>
        <time>2026-05-07T08:44:14.999Z</time>
      </trkpt>
      <trkpt lat="43.59462" lon="2.95685">
        <ele>728.1</ele>
        <time>2026-05-07T08:44:15.999Z</time>
      </trkpt>
      <trkpt lat="43.59462" lon="2.95685">
        <ele>728.1</ele>
        <time>2026-05-07T08:44:16.999Z</time>
      </trkpt>
      <trkpt lat="43.59462" lon="2.95685">
        <ele>728.1</ele>
        <time>2026-05-07T08:44:17.999Z</time>
      </trkpt>
      <trkpt lat="43.59462" lon="2.95685">
        <ele>728.2</ele>
        <time>2026-05-07T08:44:18.999Z</time>
      </trkpt>
      <trkpt lat="43.59462" lon="2.95685">
        <ele>728.4</ele>
        <time>2026-05-07T08:44:19.999Z</time>
      </trkpt>
      <trkpt lat="43.59462" lon="2.95686">
        <ele>728.5</ele>
        <time>2026-05-07T08:44:20.999Z</time>
      </trkpt>
      <trkpt lat="43.59462" lon="2.95686">
        <ele>728.8</ele>
        <time>2026-05-07T08:44:21.999Z</time>
      </trkpt>
      <trkpt lat="43.59462" lon="2.95686">
        <ele>728.9</ele>
        <time>2026-05-07T08:44:22.999Z</time>
      </trkpt>
      <trkpt lat="43.59462" lon="2.95686">
        <ele>729.1</ele>
        <time>2026-05-07T08:44:23.999Z</time>
      </trkpt>
      <trkpt lat="43.59462" lon="2.95686">
        <ele>729.3</ele>
        <time>2026-05-07T08:44:24.999Z</time>
      </trkpt>
      <trkpt lat="43.59462" lon="2.95686">
        <ele>729.6</ele>
        <time>2026-05-07T08:44:25.999Z</time>
      </trkpt>
      <trkpt lat="43.59462" lon="2.95686">
        <ele>729.8</ele>
        <time>2026-05-07T08:44:26.999Z</time>
      </trkpt>
      <trkpt lat="43.59462" lon="2.95686">
        <ele>729.9</ele>
        <time>2026-05-07T08:44:27.999Z</time>
      </trkpt>
      <trkpt lat="43.59462" lon="2.95686">
        <ele>730.1</ele>
        <time>2026-05-07T08:44:28.999Z</time>
      </trkpt>
      <trkpt lat="43.59462" lon="2.95686">
        <ele>730</ele>
        <time>2026-05-07T08:44:29.999Z</time>
      </trkpt>
      <trkpt lat="43.59462" lon="2.95686">
        <ele>730.2</ele>
        <time>2026-05-07T08:44:30.999Z</time>
      </trkpt>
      <trkpt lat="43.59462" lon="2.95686">
        <ele>730.3</ele>
        <time>2026-05-07T08:44:31.999Z</time>
      </trkpt>
      <trkpt lat="43.59462" lon="2.95686">
        <ele>730.2</ele>
        <time>2026-05-07T08:44:32.999Z</time>
      </trkpt>
      <trkpt lat="43.59462" lon="2.95686">
        <ele>730.1</ele>
        <time>2026-05-07T08:44:33.999Z</time>
      </trkpt>
      <trkpt lat="43.59462" lon="2.95687">
        <ele>730.1</ele>
        <time>2026-05-07T08:44:34.999Z</time>
      </trkpt>
      <trkpt lat="43.59462" lon="2.95687">
        <ele>730</ele>
        <time>2026-05-07T08:44:35.999Z</time>
      </trkpt>
      <trkpt lat="43.59462" lon="2.95687">
        <ele>729.9</ele>
        <time>2026-05-07T08:44:36.999Z</time>
      </trkpt>
      <trkpt lat="43.59462" lon="2.95687">
        <ele>729.8</ele>
        <time>2026-05-07T08:44:37.999Z</time>
      </trkpt>
      <trkpt lat="43.59462" lon="2.95686">
        <ele>729.7</ele>
        <time>2026-05-07T08:44:38.999Z</time>
      </trkpt>
      <trkpt lat="43.59462" lon="2.95686">
        <ele>729.4</ele>
        <time>2026-05-07T08:44:39.999Z</time>
      </trkpt>
      <trkpt lat="43.59461" lon="2.95686">
        <ele>729.4</ele>
        <time>2026-05-07T08:44:40.999Z</time>
      </trkpt>
      <trkpt lat="43.59461" lon="2.95686">
        <ele>729.2</ele>
        <time>2026-05-07T08:44:41.999Z</time>
      </trkpt>
      <trkpt lat="43.59461" lon="2.95686">
        <ele>729.2</ele>
        <time>2026-05-07T08:44:42.999Z</time>
      </trkpt>
      <trkpt lat="43.59461" lon="2.95686">
        <ele>729.2</ele>
        <time>2026-05-07T08:44:43.999Z</time>
      </trkpt>
      <trkpt lat="43.59461" lon="2.95686">
        <ele>729.2</ele>
        <time>2026-05-07T08:44:44.999Z</time>
      </trkpt>
      <trkpt lat="43.59462" lon="2.95687">
        <ele>729.2</ele>
        <time>2026-05-07T08:44:45.999Z</time>
      </trkpt>
      <trkpt lat="43.59462" lon="2.95687">
        <ele>729</ele>
        <time>2026-05-07T08:44:46.999Z</time>
      </trkpt>
      <trkpt lat="43.59462" lon="2.95687">
        <ele>728.9</ele>
        <time>2026-05-07T08:44:47.999Z</time>
      </trkpt>
      <trkpt lat="43.59462" lon="2.95687">
        <ele>729</ele>
        <time>2026-05-07T08:44:48.999Z</time>
      </trkpt>
      <trkpt lat="43.59462" lon="2.95687">
        <ele>729.2</ele>
        <time>2026-05-07T08:44:49.999Z</time>
      </trkpt>
      <trkpt lat="43.59461" lon="2.95687">
        <ele>729.4</ele>
        <time>2026-05-07T08:44:50.999Z</time>
      </trkpt>
      <trkpt lat="43.59461" lon="2.95687">
        <ele>729.5</ele>
        <time>2026-05-07T08:44:51.999Z</time>
      </trkpt>
      <trkpt lat="43.59461" lon="2.95687">
        <ele>729.6</ele>
        <time>2026-05-07T08:44:52.999Z</time>
      </trkpt>
      <trkpt lat="43.59461" lon="2.95687">
        <ele>729.7</ele>
        <time>2026-05-07T08:44:53.999Z</time>
      </trkpt>
      <trkpt lat="43.59461" lon="2.95687">
        <ele>729.6</ele>
        <time>2026-05-07T08:44:54.999Z</time>
      </trkpt>
      <trkpt lat="43.59461" lon="2.95687">
        <ele>729.5</ele>
        <time>2026-05-07T08:44:55.999Z</time>
      </trkpt>
      <trkpt lat="43.59461" lon="2.95687">
        <ele>729.3</ele>
        <time>2026-05-07T08:44:56.999Z</time>
      </trkpt>
      <trkpt lat="43.59461" lon="2.95687">
        <ele>729.4</ele>
        <time>2026-05-07T08:44:57.999Z</time>
      </trkpt>
      <trkpt lat="43.5946" lon="2.95688">
        <ele>729.4</ele>
        <time>2026-05-07T08:44:58.999Z</time>
      </trkpt>
      <trkpt lat="43.59459" lon="2.95689">
        <ele>729.3</ele>
        <time>2026-05-07T08:44:59.999Z</time>
      </trkpt>
      <trkpt lat="43.59459" lon="2.9569">
        <ele>729.2</ele>
        <time>2026-05-07T08:45:00.999Z</time>
      </trkpt>
      <trkpt lat="43.59459" lon="2.95691">
        <ele>729</ele>
        <time>2026-05-07T08:45:01.999Z</time>
      </trkpt>
      <trkpt lat="43.59459" lon="2.95691">
        <ele>728.8</ele>
        <time>2026-05-07T08:45:02.999Z</time>
      </trkpt>
      <trkpt lat="43.59459" lon="2.95691">
        <ele>728.6</ele>
        <time>2026-05-07T08:45:03.999Z</time>
      </trkpt>
      <trkpt lat="43.59459" lon="2.95692">
        <ele>728.4</ele>
        <time>2026-05-07T08:45:04.999Z</time>
      </trkpt>
      <trkpt lat="43.59459" lon="2.95693">
        <ele>728.1</ele>
        <time>2026-05-07T08:45:05.999Z</time>
      </trkpt>
      <trkpt lat="43.5946" lon="2.95695">
        <ele>727.5</ele>
        <time>2026-05-07T08:45:06.999Z</time>
      </trkpt>
      <trkpt lat="43.5946" lon="2.95697">
        <ele>727.2</ele>
        <time>2026-05-07T08:45:07.999Z</time>
      </trkpt>
      <trkpt lat="43.5946" lon="2.95698">
        <ele>726.5</ele>
        <time>2026-05-07T08:45:08.999Z</time>
      </trkpt>
      <trkpt lat="43.5946" lon="2.957">
        <ele>727.1</ele>
        <time>2026-05-07T08:45:09.999Z</time>
      </trkpt>
      <trkpt lat="43.5946" lon="2.95701">
        <ele>727.1</ele>
        <time>2026-05-07T08:45:10.999Z</time>
      </trkpt>
      <trkpt lat="43.59459" lon="2.95703">
        <ele>727.1</ele>
        <time>2026-05-07T08:45:11.999Z</time>
      </trkpt>
      <trkpt lat="43.59459" lon="2.95704">
        <ele>727.1</ele>
        <time>2026-05-07T08:45:12.999Z</time>
      </trkpt>
      <trkpt lat="43.59458" lon="2.95705">
        <ele>727.3</ele>
        <time>2026-05-07T08:45:13.999Z</time>
      </trkpt>
      <trkpt lat="43.59457" lon="2.95707">
        <ele>727.9</ele>
        <time>2026-05-07T08:45:14.999Z</time>
      </trkpt>
      <trkpt lat="43.59457" lon="2.95707">
        <ele>728.4</ele>
        <time>2026-05-07T08:45:15.999Z</time>
      </trkpt>
      <trkpt lat="43.59457" lon="2.95707">
        <ele>728.3</ele>
        <time>2026-05-07T08:45:16.999Z</time>
      </trkpt>
      <trkpt lat="43.59457" lon="2.95708">
        <ele>728</ele>
        <time>2026-05-07T08:45:17.999Z</time>
      </trkpt>
      <trkpt lat="43.59457" lon="2.95709">
        <ele>727.5</ele>
        <time>2026-05-07T08:45:18.999Z</time>
      </trkpt>
      <trkpt lat="43.59457" lon="2.95709">
        <ele>727.3</ele>
        <time>2026-05-07T08:45:19.999Z</time>
      </trkpt>
      <trkpt lat="43.59456" lon="2.9571">
        <ele>727.3</ele>
        <time>2026-05-07T08:45:20.999Z</time>
      </trkpt>
      <trkpt lat="43.59456" lon="2.9571">
        <ele>727.4</ele>
        <time>2026-05-07T08:45:21.999Z</time>
      </trkpt>
      <trkpt lat="43.59456" lon="2.95711">
        <ele>727.4</ele>
        <time>2026-05-07T08:45:22.999Z</time>
      </trkpt>
      <trkpt lat="43.59456" lon="2.95712">
        <ele>727</ele>
        <time>2026-05-07T08:45:23.999Z</time>
      </trkpt>
      <trkpt lat="43.59456" lon="2.95713">
        <ele>727.1</ele>
        <time>2026-05-07T08:45:24.999Z</time>
      </trkpt>
      <trkpt lat="43.59455" lon="2.95712">
        <ele>727.1</ele>
        <time>2026-05-07T08:45:25.999Z</time>
      </trkpt>
      <trkpt lat="43.59455" lon="2.95713">
        <ele>726.8</ele>
        <time>2026-05-07T08:45:26.999Z</time>
      </trkpt>
      <trkpt lat="43.59455" lon="2.95714">
        <ele>726.5</ele>
        <time>2026-05-07T08:45:27.999Z</time>
      </trkpt>
      <trkpt lat="43.59455" lon="2.95715">
        <ele>726.4</ele>
        <time>2026-05-07T08:45:28.999Z</time>
      </trkpt>
      <trkpt lat="43.59456" lon="2.95716">
        <ele>726.6</ele>
        <time>2026-05-07T08:45:29.999Z</time>
      </trkpt>
      <trkpt lat="43.59456" lon="2.95718">
        <ele>727.3</ele>
        <time>2026-05-07T08:45:30.999Z</time>
      </trkpt>
      <trkpt lat="43.59457" lon="2.95719">
        <ele>727.2</ele>
        <time>2026-05-07T08:45:31.999Z</time>
      </trkpt>
      <trkpt lat="43.59457" lon="2.9572">
        <ele>727.4</ele>
        <time>2026-05-07T08:45:32.999Z</time>
      </trkpt>
      <trkpt lat="43.59457" lon="2.95721">
        <ele>727.1</ele>
        <time>2026-05-07T08:45:33.999Z</time>
      </trkpt>
      <trkpt lat="43.59457" lon="2.95721">
        <ele>727.1</ele>
        <time>2026-05-07T08:45:34.999Z</time>
      </trkpt>
      <trkpt lat="43.59457" lon="2.95722">
        <ele>727.7</ele>
        <time>2026-05-07T08:45:35.999Z</time>
      </trkpt>
      <trkpt lat="43.59457" lon="2.95722">
        <ele>728.1</ele>
        <time>2026-05-07T08:45:36.999Z</time>
      </trkpt>
      <trkpt lat="43.59456" lon="2.95722">
        <ele>728.2</ele>
        <time>2026-05-07T08:45:37.999Z</time>
      </trkpt>
      <trkpt lat="43.59456" lon="2.95724">
        <ele>728.1</ele>
        <time>2026-05-07T08:45:38.999Z</time>
      </trkpt>
      <trkpt lat="43.59456" lon="2.95725">
        <ele>727.8</ele>
        <time>2026-05-07T08:45:39.999Z</time>
      </trkpt>
      <trkpt lat="43.59456" lon="2.95726">
        <ele>727.9</ele>
        <time>2026-05-07T08:45:40.999Z</time>
      </trkpt>
      <trkpt lat="43.59457" lon="2.95726">
        <ele>728.2</ele>
        <time>2026-05-07T08:45:41.999Z</time>
      </trkpt>
      <trkpt lat="43.59457" lon="2.95727">
        <ele>728.1</ele>
        <time>2026-05-07T08:45:42.999Z</time>
      </trkpt>
      <trkpt lat="43.59457" lon="2.95728">
        <ele>727.8</ele>
        <time>2026-05-07T08:45:43.999Z</time>
      </trkpt>
      <trkpt lat="43.59457" lon="2.95728">
        <ele>727.6</ele>
        <time>2026-05-07T08:45:44.999Z</time>
      </trkpt>
      <trkpt lat="43.59457" lon="2.95728">
        <ele>727.3</ele>
        <time>2026-05-07T08:45:45.999Z</time>
      </trkpt>
      <trkpt lat="43.59456" lon="2.95728">
        <ele>727.3</ele>
        <time>2026-05-07T08:45:46.999Z</time>
      </trkpt>
      <trkpt lat="43.59456" lon="2.95728">
        <ele>727.1</ele>
        <time>2026-05-07T08:45:47.999Z</time>
      </trkpt>
      <trkpt lat="43.59456" lon="2.95728">
        <ele>726.8</ele>
        <time>2026-05-07T08:45:48.999Z</time>
      </trkpt>
      <trkpt lat="43.59456" lon="2.95728">
        <ele>726.7</ele>
        <time>2026-05-07T08:45:49.999Z</time>
      </trkpt>
      <trkpt lat="43.59456" lon="2.95728">
        <ele>726.5</ele>
        <time>2026-05-07T08:45:50.999Z</time>
      </trkpt>
      <trkpt lat="43.59456" lon="2.95728">
        <ele>726.4</ele>
        <time>2026-05-07T08:45:51.999Z</time>
      </trkpt>
      <trkpt lat="43.59456" lon="2.95728">
        <ele>726.2</ele>
        <time>2026-05-07T08:45:52.999Z</time>
      </trkpt>
      <trkpt lat="43.59456" lon="2.95728">
        <ele>726.3</ele>
        <time>2026-05-07T08:45:53.999Z</time>
      </trkpt>
      <trkpt lat="43.59456" lon="2.95728">
        <ele>726</ele>
        <time>2026-05-07T08:45:54.999Z</time>
      </trkpt>
      <trkpt lat="43.59456" lon="2.95729">
        <ele>726</ele>
        <time>2026-05-07T08:45:55.999Z</time>
      </trkpt>
      <trkpt lat="43.59456" lon="2.95729">
        <ele>726.1</ele>
        <time>2026-05-07T08:45:56.999Z</time>
      </trkpt>
      <trkpt lat="43.59456" lon="2.95729">
        <ele>726.1</ele>
        <time>2026-05-07T08:45:57.999Z</time>
      </trkpt>
      <trkpt lat="43.59456" lon="2.95729">
        <ele>726.2</ele>
        <time>2026-05-07T08:45:58.999Z</time>
      </trkpt>
      <trkpt lat="43.59456" lon="2.95729">
        <ele>726.2</ele>
        <time>2026-05-07T08:45:59.999Z</time>
      </trkpt>
      <trkpt lat="43.59456" lon="2.95731">
        <ele>726.7</ele>
        <time>2026-05-07T08:46:00.999Z</time>
      </trkpt>
      <trkpt lat="43.59457" lon="2.95731">
        <ele>726.9</ele>
        <time>2026-05-07T08:46:01.999Z</time>
      </trkpt>
      <trkpt lat="43.59457" lon="2.95732">
        <ele>727.2</ele>
        <time>2026-05-07T08:46:03.000Z</time>
      </trkpt>
      <trkpt lat="43.59456" lon="2.95733">
        <ele>727.3</ele>
        <time>2026-05-07T08:46:04.000Z</time>
      </trkpt>
      <trkpt lat="43.59457" lon="2.95733">
        <ele>727.3</ele>
        <time>2026-05-07T08:46:05.000Z</time>
      </trkpt>
      <trkpt lat="43.59457" lon="2.95733">
        <ele>727.2</ele>
        <time>2026-05-07T08:46:06.000Z</time>
      </trkpt>
      <trkpt lat="43.59457" lon="2.95733">
        <ele>727.2</ele>
        <time>2026-05-07T08:46:07.000Z</time>
      </trkpt>
      <trkpt lat="43.59457" lon="2.95733">
        <ele>727.2</ele>
        <time>2026-05-07T08:46:08.000Z</time>
      </trkpt>
      <trkpt lat="43.59457" lon="2.95733">
        <ele>727.3</ele>
        <time>2026-05-07T08:46:09.000Z</time>
      </trkpt>
      <trkpt lat="43.59457" lon="2.95733">
        <ele>727.6</ele>
        <time>2026-05-07T08:46:10.000Z</time>
      </trkpt>
      <trkpt lat="43.59457" lon="2.95734">
        <ele>728.1</ele>
        <time>2026-05-07T08:46:11.000Z</time>
      </trkpt>
      <trkpt lat="43.59456" lon="2.95734">
        <ele>728.3</ele>
        <time>2026-05-07T08:46:12.000Z</time>
      </trkpt>
      <trkpt lat="43.59456" lon="2.95734">
        <ele>727.9</ele>
        <time>2026-05-07T08:46:13.000Z</time>
      </trkpt>
      <trkpt lat="43.59456" lon="2.95734">
        <ele>727.6</ele>
        <time>2026-05-07T08:46:14.000Z</time>
      </trkpt>
      <trkpt lat="43.59456" lon="2.95734">
        <ele>727.4</ele>
        <time>2026-05-07T08:46:15.000Z</time>
      </trkpt>
      <trkpt lat="43.59456" lon="2.95734">
        <ele>727.3</ele>
        <time>2026-05-07T08:46:16.000Z</time>
      </trkpt>
      <trkpt lat="43.59456" lon="2.95734">
        <ele>727.1</ele>
        <time>2026-05-07T08:46:17.000Z</time>
      </trkpt>
      <trkpt lat="43.59456" lon="2.95735">
        <ele>726.9</ele>
        <time>2026-05-07T08:46:18.000Z</time>
      </trkpt>
      <trkpt lat="43.59456" lon="2.95735">
        <ele>726.8</ele>
        <time>2026-05-07T08:46:19.000Z</time>
      </trkpt>
      <trkpt lat="43.59456" lon="2.95737">
        <ele>726.9</ele>
        <time>2026-05-07T08:46:20.000Z</time>
      </trkpt>
      <trkpt lat="43.59456" lon="2.95739">
        <ele>727.1</ele>
        <time>2026-05-07T08:46:21.000Z</time>
      </trkpt>
      <trkpt lat="43.59456" lon="2.9574">
        <ele>727.3</ele>
        <time>2026-05-07T08:46:22.000Z</time>
      </trkpt>
      <trkpt lat="43.59455" lon="2.95741">
        <ele>727.4</ele>
        <time>2026-05-07T08:46:23.000Z</time>
      </trkpt>
      <trkpt lat="43.59455" lon="2.95742">
        <ele>727.4</ele>
        <time>2026-05-07T08:46:24.000Z</time>
      </trkpt>
      <trkpt lat="43.59456" lon="2.95743">
        <ele>727.3</ele>
        <time>2026-05-07T08:46:25.000Z</time>
      </trkpt>
      <trkpt lat="43.59456" lon="2.95743">
        <ele>727.1</ele>
        <time>2026-05-07T08:46:26.000Z</time>
      </trkpt>
      <trkpt lat="43.59456" lon="2.95743">
        <ele>726.8</ele>
        <time>2026-05-07T08:46:27.000Z</time>
      </trkpt>
      <trkpt lat="43.59457" lon="2.95744">
        <ele>726.6</ele>
        <time>2026-05-07T08:46:28.000Z</time>
      </trkpt>
      <trkpt lat="43.59457" lon="2.95744">
        <ele>726.1</ele>
        <time>2026-05-07T08:46:29.000Z</time>
      </trkpt>
      <trkpt lat="43.59456" lon="2.95744">
        <ele>726.1</ele>
        <time>2026-05-07T08:46:30.000Z</time>
      </trkpt>
      <trkpt lat="43.59456" lon="2.95744">
        <ele>726.2</ele>
        <time>2026-05-07T08:46:31.000Z</time>
      </trkpt>
      <trkpt lat="43.59456" lon="2.95745">
        <ele>726.3</ele>
        <time>2026-05-07T08:46:32.000Z</time>
      </trkpt>
      <trkpt lat="43.59456" lon="2.95745">
        <ele>726.5</ele>
        <time>2026-05-07T08:46:33.000Z</time>
      </trkpt>
      <trkpt lat="43.59456" lon="2.95746">
        <ele>726.7</ele>
        <time>2026-05-07T08:46:34.000Z</time>
      </trkpt>
      <trkpt lat="43.59456" lon="2.95746">
        <ele>726.8</ele>
        <time>2026-05-07T08:46:35.000Z</time>
      </trkpt>
      <trkpt lat="43.59456" lon="2.95746">
        <ele>727</ele>
        <time>2026-05-07T08:46:36.000Z</time>
      </trkpt>
      <trkpt lat="43.59456" lon="2.95746">
        <ele>727.2</ele>
        <time>2026-05-07T08:46:37.000Z</time>
      </trkpt>
      <trkpt lat="43.59456" lon="2.95746">
        <ele>727.5</ele>
        <time>2026-05-07T08:46:38.000Z</time>
      </trkpt>
      <trkpt lat="43.59456" lon="2.95746">
        <ele>728</ele>
        <time>2026-05-07T08:46:39.000Z</time>
      </trkpt>
      <trkpt lat="43.59456" lon="2.95746">
        <ele>728.1</ele>
        <time>2026-05-07T08:46:40.000Z</time>
      </trkpt>
      <trkpt lat="43.59456" lon="2.95746">
        <ele>728</ele>
        <time>2026-05-07T08:46:41.000Z</time>
      </trkpt>
      <trkpt lat="43.59457" lon="2.95746">
        <ele>727.9</ele>
        <time>2026-05-07T08:46:42.000Z</time>
      </trkpt>
      <trkpt lat="43.59457" lon="2.95746">
        <ele>727.9</ele>
        <time>2026-05-07T08:46:43.000Z</time>
      </trkpt>
      <trkpt lat="43.59457" lon="2.95746">
        <ele>727.7</ele>
        <time>2026-05-07T08:46:44.000Z</time>
      </trkpt>
      <trkpt lat="43.59456" lon="2.95746">
        <ele>727.7</ele>
        <time>2026-05-07T08:46:45.000Z</time>
      </trkpt>
      <trkpt lat="43.59456" lon="2.95746">
        <ele>728.2</ele>
        <time>2026-05-07T08:46:47.000Z</time>
      </trkpt>
      <trkpt lat="43.59456" lon="2.95746">
        <ele>728.2</ele>
        <time>2026-05-07T08:46:48.000Z</time>
      </trkpt>
      <trkpt lat="43.59456" lon="2.95746">
        <ele>728.2</ele>
        <time>2026-05-07T08:46:49.000Z</time>
      </trkpt>
      <trkpt lat="43.59456" lon="2.95747">
        <ele>728.4</ele>
        <time>2026-05-07T08:46:50.000Z</time>
      </trkpt>
      <trkpt lat="43.59456" lon="2.95747">
        <ele>728.4</ele>
        <time>2026-05-07T08:46:51.000Z</time>
      </trkpt>
      <trkpt lat="43.59456" lon="2.95747">
        <ele>728.2</ele>
        <time>2026-05-07T08:46:52.000Z</time>
      </trkpt>
      <trkpt lat="43.59456" lon="2.95747">
        <ele>728.4</ele>
        <time>2026-05-07T08:46:53.000Z</time>
      </trkpt>
      <trkpt lat="43.59456" lon="2.95747">
        <ele>728.6</ele>
        <time>2026-05-07T08:46:54.000Z</time>
      </trkpt>
      <trkpt lat="43.59456" lon="2.95747">
        <ele>728.6</ele>
        <time>2026-05-07T08:46:55.000Z</time>
      </trkpt>
      <trkpt lat="43.59456" lon="2.95747">
        <ele>728.7</ele>
        <time>2026-05-07T08:46:56.000Z</time>
      </trkpt>
      <trkpt lat="43.59456" lon="2.95747">
        <ele>728.7</ele>
        <time>2026-05-07T08:46:57.000Z</time>
      </trkpt>
      <trkpt lat="43.59456" lon="2.95747">
        <ele>728.8</ele>
        <time>2026-05-07T08:46:58.000Z</time>
      </trkpt>
      <trkpt lat="43.59456" lon="2.95747">
        <ele>729.1</ele>
        <time>2026-05-07T08:46:59.000Z</time>
      </trkpt>
      <trkpt lat="43.59456" lon="2.95747">
        <ele>729.3</ele>
        <time>2026-05-07T08:47:00.000Z</time>
      </trkpt>
      <trkpt lat="43.59456" lon="2.95748">
        <ele>729.4</ele>
        <time>2026-05-07T08:47:01.000Z</time>
      </trkpt>
      <trkpt lat="43.59455" lon="2.95749">
        <ele>729.6</ele>
        <time>2026-05-07T08:47:02.000Z</time>
      </trkpt>
      <trkpt lat="43.59456" lon="2.95749">
        <ele>730</ele>
        <time>2026-05-07T08:47:03.000Z</time>
      </trkpt>
      <trkpt lat="43.59455" lon="2.95749">
        <ele>730.5</ele>
        <time>2026-05-07T08:47:04.000Z</time>
      </trkpt>
      <trkpt lat="43.59455" lon="2.95747">
        <ele>730.7</ele>
        <time>2026-05-07T08:47:05.000Z</time>
      </trkpt>
      <trkpt lat="43.59454" lon="2.95746">
        <ele>730.9</ele>
        <time>2026-05-07T08:47:06.000Z</time>
      </trkpt>
      <trkpt lat="43.59453" lon="2.95744">
        <ele>731.2</ele>
        <time>2026-05-07T08:47:07.000Z</time>
      </trkpt>
      <trkpt lat="43.59452" lon="2.95743">
        <ele>731.2</ele>
        <time>2026-05-07T08:47:08.000Z</time>
      </trkpt>
      <trkpt lat="43.59451" lon="2.95742">
        <ele>731.6</ele>
        <time>2026-05-07T08:47:09.000Z</time>
      </trkpt>
      <trkpt lat="43.5945" lon="2.95741">
        <ele>732.3</ele>
        <time>2026-05-07T08:47:10.000Z</time>
      </trkpt>
      <trkpt lat="43.59448" lon="2.9574">
        <ele>732.4</ele>
        <time>2026-05-07T08:47:11.000Z</time>
      </trkpt>
      <trkpt lat="43.59448" lon="2.95738">
        <ele>731.9</ele>
        <time>2026-05-07T08:47:12.000Z</time>
      </trkpt>
      <trkpt lat="43.59448" lon="2.95737">
        <ele>731.8</ele>
        <time>2026-05-07T08:47:13.000Z</time>
      </trkpt>
      <trkpt lat="43.59448" lon="2.95738">
        <ele>731.9</ele>
        <time>2026-05-07T08:47:14.000Z</time>
      </trkpt>
      <trkpt lat="43.59447" lon="2.95738">
        <ele>731.8</ele>
        <time>2026-05-07T08:47:15.000Z</time>
      </trkpt>
      <trkpt lat="43.59447" lon="2.95738">
        <ele>732</ele>
        <time>2026-05-07T08:47:16.000Z</time>
      </trkpt>
      <trkpt lat="43.59447" lon="2.95738">
        <ele>732.6</ele>
        <time>2026-05-07T08:47:17.000Z</time>
      </trkpt>
      <trkpt lat="43.59446" lon="2.95739">
        <ele>732.4</ele>
        <time>2026-05-07T08:47:18.000Z</time>
      </trkpt>
      <trkpt lat="43.59447" lon="2.95739">
        <ele>732.3</ele>
        <time>2026-05-07T08:47:19.000Z</time>
      </trkpt>
      <trkpt lat="43.59447" lon="2.95741">
        <ele>732</ele>
        <time>2026-05-07T08:47:20.000Z</time>
      </trkpt>
      <trkpt lat="43.59448" lon="2.9574">
        <ele>732.1</ele>
        <time>2026-05-07T08:47:21.000Z</time>
      </trkpt>
      <trkpt lat="43.59449" lon="2.95741">
        <ele>732.6</ele>
        <time>2026-05-07T08:47:22.000Z</time>
      </trkpt>
      <trkpt lat="43.59449" lon="2.95741">
        <ele>729</ele>
        <time>2026-05-07T08:47:23.000Z</time>
      </trkpt>
      <trkpt lat="43.59449" lon="2.95742">
        <ele>728.8</ele>
        <time>2026-05-07T08:47:24.000Z</time>
      </trkpt>
      <trkpt lat="43.5945" lon="2.95743">
        <ele>728.6</ele>
        <time>2026-05-07T08:47:25.000Z</time>
      </trkpt>
      <trkpt lat="43.59452" lon="2.95746">
        <ele>727.8</ele>
        <time>2026-05-07T08:47:26.000Z</time>
      </trkpt>
      <trkpt lat="43.59452" lon="2.95747">
        <ele>728.3</ele>
        <time>2026-05-07T08:47:27.000Z</time>
      </trkpt>
      <trkpt lat="43.59453" lon="2.95749">
        <ele>728.7</ele>
        <time>2026-05-07T08:47:28.000Z</time>
      </trkpt>
      <trkpt lat="43.59453" lon="2.9575">
        <ele>728.7</ele>
        <time>2026-05-07T08:47:29.000Z</time>
      </trkpt>
      <trkpt lat="43.59454" lon="2.95751">
        <ele>729.2</ele>
        <time>2026-05-07T08:47:30.000Z</time>
      </trkpt>
      <trkpt lat="43.59454" lon="2.95751">
        <ele>730.2</ele>
        <time>2026-05-07T08:47:31.000Z</time>
      </trkpt>
      <trkpt lat="43.59455" lon="2.9575">
        <ele>730.8</ele>
        <time>2026-05-07T08:47:32.000Z</time>
      </trkpt>
      <trkpt lat="43.59456" lon="2.9575">
        <ele>731.3</ele>
        <time>2026-05-07T08:47:33.000Z</time>
      </trkpt>
      <trkpt lat="43.59456" lon="2.95751">
        <ele>731.6</ele>
        <time>2026-05-07T08:47:34.000Z</time>
      </trkpt>
      <trkpt lat="43.59457" lon="2.95753">
        <ele>732</ele>
        <time>2026-05-07T08:47:35.000Z</time>
      </trkpt>
      <trkpt lat="43.59458" lon="2.95754">
        <ele>732.5</ele>
        <time>2026-05-07T08:47:36.000Z</time>
      </trkpt>
      <trkpt lat="43.59457" lon="2.95756">
        <ele>732.8</ele>
        <time>2026-05-07T08:47:37.000Z</time>
      </trkpt>
      <trkpt lat="43.59457" lon="2.95756">
        <ele>733</ele>
        <time>2026-05-07T08:47:38.000Z</time>
      </trkpt>
      <trkpt lat="43.59456" lon="2.95757">
        <ele>732.4</ele>
        <time>2026-05-07T08:47:39.000Z</time>
      </trkpt>
      <trkpt lat="43.59455" lon="2.95757">
        <ele>732.1</ele>
        <time>2026-05-07T08:47:40.000Z</time>
      </trkpt>
      <trkpt lat="43.59455" lon="2.95757">
        <ele>732.7</ele>
        <time>2026-05-07T08:47:41.000Z</time>
      </trkpt>
      <trkpt lat="43.59455" lon="2.95757">
        <ele>733.1</ele>
        <time>2026-05-07T08:47:42.000Z</time>
      </trkpt>
      <trkpt lat="43.59455" lon="2.95759">
        <ele>733.2</ele>
        <time>2026-05-07T08:47:43.000Z</time>
      </trkpt>
      <trkpt lat="43.59454" lon="2.9576">
        <ele>733.1</ele>
        <time>2026-05-07T08:47:44.000Z</time>
      </trkpt>
      <trkpt lat="43.59454" lon="2.95761">
        <ele>733.5</ele>
        <time>2026-05-07T08:47:45.000Z</time>
      </trkpt>
      <trkpt lat="43.59454" lon="2.95762">
        <ele>733.3</ele>
        <time>2026-05-07T08:47:46.000Z</time>
      </trkpt>
      <trkpt lat="43.59454" lon="2.95764">
        <ele>733.5</ele>
        <time>2026-05-07T08:47:47.000Z</time>
      </trkpt>
      <trkpt lat="43.59454" lon="2.95765">
        <ele>733.1</ele>
        <time>2026-05-07T08:47:49.000Z</time>
      </trkpt>
      <trkpt lat="43.59453" lon="2.95763">
        <ele>734.2</ele>
        <time>2026-05-07T08:47:50.000Z</time>
      </trkpt>
      <trkpt lat="43.59454" lon="2.95763">
        <ele>734.2</ele>
        <time>2026-05-07T08:47:51.000Z</time>
      </trkpt>
      <trkpt lat="43.59454" lon="2.95762">
        <ele>734.1</ele>
        <time>2026-05-07T08:47:52.000Z</time>
      </trkpt>
      <trkpt lat="43.59454" lon="2.95763">
        <ele>734.8</ele>
        <time>2026-05-07T08:47:53.000Z</time>
      </trkpt>
      <trkpt lat="43.59454" lon="2.95763">
        <ele>735.2</ele>
        <time>2026-05-07T08:47:54.000Z</time>
      </trkpt>
      <trkpt lat="43.59454" lon="2.95763">
        <ele>735.3</ele>
        <time>2026-05-07T08:47:55.000Z</time>
      </trkpt>
      <trkpt lat="43.59453" lon="2.95763">
        <ele>735.2</ele>
        <time>2026-05-07T08:47:56.000Z</time>
      </trkpt>
      <trkpt lat="43.59452" lon="2.95763">
        <ele>735</ele>
        <time>2026-05-07T08:47:57.000Z</time>
      </trkpt>
      <trkpt lat="43.59452" lon="2.95765">
        <ele>734.5</ele>
        <time>2026-05-07T08:47:58.000Z</time>
      </trkpt>
      <trkpt lat="43.59452" lon="2.95766">
        <ele>734.1</ele>
        <time>2026-05-07T08:47:59.000Z</time>
      </trkpt>
      <trkpt lat="43.59453" lon="2.95766">
        <ele>733.9</ele>
        <time>2026-05-07T08:48:00.000Z</time>
      </trkpt>
      <trkpt lat="43.59453" lon="2.95766">
        <ele>733.7</ele>
        <time>2026-05-07T08:48:01.000Z</time>
      </trkpt>
      <trkpt lat="43.59453" lon="2.95766">
        <ele>733.4</ele>
        <time>2026-05-07T08:48:02.000Z</time>
      </trkpt>
      <trkpt lat="43.59454" lon="2.95767">
        <ele>733</ele>
        <time>2026-05-07T08:48:03.000Z</time>
      </trkpt>
      <trkpt lat="43.59453" lon="2.95766">
        <ele>733.2</ele>
        <time>2026-05-07T08:48:04.000Z</time>
      </trkpt>
      <trkpt lat="43.59454" lon="2.95766">
        <ele>733.4</ele>
        <time>2026-05-07T08:48:05.000Z</time>
      </trkpt>
      <trkpt lat="43.59454" lon="2.95766">
        <ele>733.6</ele>
        <time>2026-05-07T08:48:06.000Z</time>
      </trkpt>
      <trkpt lat="43.59454" lon="2.95766">
        <ele>735</ele>
        <time>2026-05-07T08:48:07.000Z</time>
      </trkpt>
      <trkpt lat="43.59454" lon="2.95766">
        <ele>735</ele>
        <time>2026-05-07T08:48:08.000Z</time>
      </trkpt>
      <trkpt lat="43.59454" lon="2.95766">
        <ele>735</ele>
        <time>2026-05-07T08:48:09.000Z</time>
      </trkpt>
      <trkpt lat="43.59454" lon="2.95766">
        <ele>735.2</ele>
        <time>2026-05-07T08:48:10.000Z</time>
      </trkpt>
      <trkpt lat="43.59454" lon="2.95766">
        <ele>735.5</ele>
        <time>2026-05-07T08:48:11.000Z</time>
      </trkpt>
      <trkpt lat="43.59454" lon="2.95766">
        <ele>735.5</ele>
        <time>2026-05-07T08:48:12.000Z</time>
      </trkpt>
      <trkpt lat="43.59454" lon="2.95766">
        <ele>735.8</ele>
        <time>2026-05-07T08:48:13.000Z</time>
      </trkpt>
      <trkpt lat="43.59454" lon="2.95766">
        <ele>736</ele>
        <time>2026-05-07T08:48:14.000Z</time>
      </trkpt>
      <trkpt lat="43.59454" lon="2.95768">
        <ele>736.1</ele>
        <time>2026-05-07T08:48:15.000Z</time>
      </trkpt>
      <trkpt lat="43.59454" lon="2.95768">
        <ele>735.9</ele>
        <time>2026-05-07T08:48:16.000Z</time>
      </trkpt>
      <trkpt lat="43.59454" lon="2.95769">
        <ele>735.8</ele>
        <time>2026-05-07T08:48:17.000Z</time>
      </trkpt>
      <trkpt lat="43.59455" lon="2.95769">
        <ele>735.8</ele>
        <time>2026-05-07T08:48:18.000Z</time>
      </trkpt>
      <trkpt lat="43.59454" lon="2.95769">
        <ele>736</ele>
        <time>2026-05-07T08:48:19.000Z</time>
      </trkpt>
      <trkpt lat="43.59455" lon="2.95769">
        <ele>736</ele>
        <time>2026-05-07T08:48:20.000Z</time>
      </trkpt>
      <trkpt lat="43.59455" lon="2.95769">
        <ele>735.9</ele>
        <time>2026-05-07T08:48:21.000Z</time>
      </trkpt>
      <trkpt lat="43.59455" lon="2.95769">
        <ele>736</ele>
        <time>2026-05-07T08:48:22.000Z</time>
      </trkpt>
      <trkpt lat="43.59456" lon="2.95769">
        <ele>736</ele>
        <time>2026-05-07T08:48:23.000Z</time>
      </trkpt>
      <trkpt lat="43.59456" lon="2.95769">
        <ele>736.1</ele>
        <time>2026-05-07T08:48:24.000Z</time>
      </trkpt>
      <trkpt lat="43.59456" lon="2.95769">
        <ele>736.3</ele>
        <time>2026-05-07T08:48:25.000Z</time>
      </trkpt>
      <trkpt lat="43.59457" lon="2.95769">
        <ele>736.4</ele>
        <time>2026-05-07T08:48:26.000Z</time>
      </trkpt>
      <trkpt lat="43.59458" lon="2.95769">
        <ele>736.6</ele>
        <time>2026-05-07T08:48:27.000Z</time>
      </trkpt>
      <trkpt lat="43.59458" lon="2.9577">
        <ele>736.6</ele>
        <time>2026-05-07T08:48:28.000Z</time>
      </trkpt>
      <trkpt lat="43.59458" lon="2.95769">
        <ele>736.7</ele>
        <time>2026-05-07T08:48:29.000Z</time>
      </trkpt>
      <trkpt lat="43.59458" lon="2.95769">
        <ele>736.7</ele>
        <time>2026-05-07T08:48:30.000Z</time>
      </trkpt>
      <trkpt lat="43.59458" lon="2.95769">
        <ele>737.1</ele>
        <time>2026-05-07T08:48:31.000Z</time>
      </trkpt>
      <trkpt lat="43.59458" lon="2.95769">
        <ele>737.4</ele>
        <time>2026-05-07T08:48:32.000Z</time>
      </trkpt>
      <trkpt lat="43.59458" lon="2.95769">
        <ele>737.6</ele>
        <time>2026-05-07T08:48:33.000Z</time>
      </trkpt>
      <trkpt lat="43.59458" lon="2.95769">
        <ele>738.1</ele>
        <time>2026-05-07T08:48:34.000Z</time>
      </trkpt>
      <trkpt lat="43.59458" lon="2.95769">
        <ele>738.5</ele>
        <time>2026-05-07T08:48:35.000Z</time>
      </trkpt>
      <trkpt lat="43.59458" lon="2.95769">
        <ele>738.6</ele>
        <time>2026-05-07T08:48:36.000Z</time>
      </trkpt>
      <trkpt lat="43.59458" lon="2.95769">
        <ele>738.6</ele>
        <time>2026-05-07T08:48:37.000Z</time>
      </trkpt>
      <trkpt lat="43.59459" lon="2.95769">
        <ele>738.6</ele>
        <time>2026-05-07T08:48:38.000Z</time>
      </trkpt>
      <trkpt lat="43.59459" lon="2.95769">
        <ele>738.6</ele>
        <time>2026-05-07T08:48:39.000Z</time>
      </trkpt>
      <trkpt lat="43.59459" lon="2.95769">
        <ele>738.6</ele>
        <time>2026-05-07T08:48:40.000Z</time>
      </trkpt>
      <trkpt lat="43.59458" lon="2.95769">
        <ele>738.8</ele>
        <time>2026-05-07T08:48:41.000Z</time>
      </trkpt>
      <trkpt lat="43.59458" lon="2.95769">
        <ele>739.1</ele>
        <time>2026-05-07T08:48:42.000Z</time>
      </trkpt>
      <trkpt lat="43.59458" lon="2.95769">
        <ele>739.5</ele>
        <time>2026-05-07T08:48:43.000Z</time>
      </trkpt>
      <trkpt lat="43.59458" lon="2.95769">
        <ele>739.5</ele>
        <time>2026-05-07T08:48:44.000Z</time>
      </trkpt>
      <trkpt lat="43.59458" lon="2.95769">
        <ele>739.5</ele>
        <time>2026-05-07T08:48:45.000Z</time>
      </trkpt>
      <trkpt lat="43.59458" lon="2.95769">
        <ele>739.4</ele>
        <time>2026-05-07T08:48:46.000Z</time>
      </trkpt>
      <trkpt lat="43.59458" lon="2.95769">
        <ele>739.5</ele>
        <time>2026-05-07T08:48:47.000Z</time>
      </trkpt>
      <trkpt lat="43.59458" lon="2.95769">
        <ele>739.7</ele>
        <time>2026-05-07T08:48:48.000Z</time>
      </trkpt>
      <trkpt lat="43.59458" lon="2.95769">
        <ele>739.9</ele>
        <time>2026-05-07T08:48:49.000Z</time>
      </trkpt>
      <trkpt lat="43.59458" lon="2.95769">
        <ele>740.4</ele>
        <time>2026-05-07T08:48:50.000Z</time>
      </trkpt>
      <trkpt lat="43.59458" lon="2.95769">
        <ele>740.8</ele>
        <time>2026-05-07T08:48:51.000Z</time>
      </trkpt>
      <trkpt lat="43.59458" lon="2.95769">
        <ele>741.1</ele>
        <time>2026-05-07T08:48:52.000Z</time>
      </trkpt>
      <trkpt lat="43.59458" lon="2.95769">
        <ele>741.2</ele>
        <time>2026-05-07T08:48:53.000Z</time>
      </trkpt>
      <trkpt lat="43.59458" lon="2.95769">
        <ele>741.2</ele>
        <time>2026-05-07T08:48:54.000Z</time>
      </trkpt>
      <trkpt lat="43.59458" lon="2.95769">
        <ele>741.4</ele>
        <time>2026-05-07T08:48:55.000Z</time>
      </trkpt>
      <trkpt lat="43.59458" lon="2.95769">
        <ele>741.5</ele>
        <time>2026-05-07T08:48:56.000Z</time>
      </trkpt>
      <trkpt lat="43.59458" lon="2.95769">
        <ele>741.6</ele>
        <time>2026-05-07T08:48:57.000Z</time>
      </trkpt>
      <trkpt lat="43.59458" lon="2.95769">
        <ele>741.5</ele>
        <time>2026-05-07T08:48:58.000Z</time>
      </trkpt>
      <trkpt lat="43.59458" lon="2.95769">
        <ele>741.2</ele>
        <time>2026-05-07T08:48:59.000Z</time>
      </trkpt>
      <trkpt lat="43.59458" lon="2.9577">
        <ele>740.9</ele>
        <time>2026-05-07T08:49:00.000Z</time>
      </trkpt>
      <trkpt lat="43.59458" lon="2.95771">
        <ele>740.9</ele>
        <time>2026-05-07T08:49:01.000Z</time>
      </trkpt>
      <trkpt lat="43.59458" lon="2.95771">
        <ele>740.7</ele>
        <time>2026-05-07T08:49:02.000Z</time>
      </trkpt>
      <trkpt lat="43.59458" lon="2.95772">
        <ele>740.8</ele>
        <time>2026-05-07T08:49:03.000Z</time>
      </trkpt>
      <trkpt lat="43.59458" lon="2.95772">
        <ele>740.8</ele>
        <time>2026-05-07T08:49:04.000Z</time>
      </trkpt>
      <trkpt lat="43.59458" lon="2.95772">
        <ele>740.9</ele>
        <time>2026-05-07T08:49:05.000Z</time>
      </trkpt>
      <trkpt lat="43.59458" lon="2.95772">
        <ele>741</ele>
        <time>2026-05-07T08:49:06.000Z</time>
      </trkpt>
      <trkpt lat="43.59458" lon="2.95772">
        <ele>741.3</ele>
        <time>2026-05-07T08:49:07.000Z</time>
      </trkpt>
      <trkpt lat="43.59458" lon="2.95772">
        <ele>741.6</ele>
        <time>2026-05-07T08:49:08.000Z</time>
      </trkpt>
      <trkpt lat="43.59458" lon="2.95772">
        <ele>741.8</ele>
        <time>2026-05-07T08:49:09.000Z</time>
      </trkpt>
      <trkpt lat="43.59458" lon="2.95772">
        <ele>741.8</ele>
        <time>2026-05-07T08:49:10.000Z</time>
      </trkpt>
      <trkpt lat="43.59458" lon="2.95772">
        <ele>741.7</ele>
        <time>2026-05-07T08:49:11.000Z</time>
      </trkpt>
      <trkpt lat="43.59458" lon="2.95772">
        <ele>741.6</ele>
        <time>2026-05-07T08:49:12.000Z</time>
      </trkpt>
      <trkpt lat="43.59458" lon="2.95773">
        <ele>741.5</ele>
        <time>2026-05-07T08:49:13.000Z</time>
      </trkpt>
      <trkpt lat="43.59458" lon="2.95774">
        <ele>741.1</ele>
        <time>2026-05-07T08:49:14.000Z</time>
      </trkpt>
      <trkpt lat="43.59457" lon="2.95775">
        <ele>741.4</ele>
        <time>2026-05-07T08:49:15.000Z</time>
      </trkpt>
      <trkpt lat="43.59457" lon="2.95776">
        <ele>741.3</ele>
        <time>2026-05-07T08:49:16.000Z</time>
      </trkpt>
      <trkpt lat="43.59456" lon="2.95777">
        <ele>741.4</ele>
        <time>2026-05-07T08:49:17.000Z</time>
      </trkpt>
      <trkpt lat="43.59456" lon="2.95777">
        <ele>741.3</ele>
        <time>2026-05-07T08:49:18.000Z</time>
      </trkpt>
      <trkpt lat="43.59456" lon="2.95777">
        <ele>741.1</ele>
        <time>2026-05-07T08:49:19.000Z</time>
      </trkpt>
      <trkpt lat="43.59457" lon="2.95777">
        <ele>741.4</ele>
        <time>2026-05-07T08:49:20.000Z</time>
      </trkpt>
      <trkpt lat="43.59457" lon="2.95777">
        <ele>741.7</ele>
        <time>2026-05-07T08:49:21.000Z</time>
      </trkpt>
      <trkpt lat="43.59458" lon="2.95778">
        <ele>742</ele>
        <time>2026-05-07T08:49:22.000Z</time>
      </trkpt>
      <trkpt lat="43.59459" lon="2.95778">
        <ele>742.3</ele>
        <time>2026-05-07T08:49:23.000Z</time>
      </trkpt>
      <trkpt lat="43.59459" lon="2.95778">
        <ele>742.3</ele>
        <time>2026-05-07T08:49:24.000Z</time>
      </trkpt>
      <trkpt lat="43.5946" lon="2.95778">
        <ele>742.6</ele>
        <time>2026-05-07T08:49:25.000Z</time>
      </trkpt>
      <trkpt lat="43.59461" lon="2.95778">
        <ele>742.6</ele>
        <time>2026-05-07T08:49:26.000Z</time>
      </trkpt>
      <trkpt lat="43.59461" lon="2.95777">
        <ele>742.5</ele>
        <time>2026-05-07T08:49:27.000Z</time>
      </trkpt>
      <trkpt lat="43.59462" lon="2.95777">
        <ele>742.3</ele>
        <time>2026-05-07T08:49:28.000Z</time>
      </trkpt>
      <trkpt lat="43.59461" lon="2.95777">
        <ele>742.6</ele>
        <time>2026-05-07T08:49:29.000Z</time>
      </trkpt>
      <trkpt lat="43.59461" lon="2.95777">
        <ele>743</ele>
        <time>2026-05-07T08:49:30.000Z</time>
      </trkpt>
      <trkpt lat="43.59461" lon="2.95777">
        <ele>743.3</ele>
        <time>2026-05-07T08:49:31.000Z</time>
      </trkpt>
      <trkpt lat="43.59461" lon="2.95777">
        <ele>743.3</ele>
        <time>2026-05-07T08:49:32.000Z</time>
      </trkpt>
      <trkpt lat="43.59461" lon="2.95777">
        <ele>743.4</ele>
        <time>2026-05-07T08:49:33.000Z</time>
      </trkpt>
      <trkpt lat="43.59461" lon="2.95777">
        <ele>743.5</ele>
        <time>2026-05-07T08:49:34.000Z</time>
      </trkpt>
      <trkpt lat="43.59461" lon="2.95777">
        <ele>743.8</ele>
        <time>2026-05-07T08:49:35.000Z</time>
      </trkpt>
      <trkpt lat="43.59461" lon="2.95777">
        <ele>744</ele>
        <time>2026-05-07T08:49:36.000Z</time>
      </trkpt>
      <trkpt lat="43.59461" lon="2.95777">
        <ele>743.9</ele>
        <time>2026-05-07T08:49:37.000Z</time>
      </trkpt>
      <trkpt lat="43.59461" lon="2.95777">
        <ele>744.1</ele>
        <time>2026-05-07T08:49:38.000Z</time>
      </trkpt>
      <trkpt lat="43.59461" lon="2.95777">
        <ele>744.2</ele>
        <time>2026-05-07T08:49:39.000Z</time>
      </trkpt>
      <trkpt lat="43.59461" lon="2.95777">
        <ele>744.1</ele>
        <time>2026-05-07T08:49:40.000Z</time>
      </trkpt>
      <trkpt lat="43.59461" lon="2.95777">
        <ele>744</ele>
        <time>2026-05-07T08:49:41.000Z</time>
      </trkpt>
      <trkpt lat="43.5946" lon="2.95777">
        <ele>744</ele>
        <time>2026-05-07T08:49:42.000Z</time>
      </trkpt>
      <trkpt lat="43.5946" lon="2.95776">
        <ele>744</ele>
        <time>2026-05-07T08:49:43.000Z</time>
      </trkpt>
      <trkpt lat="43.5946" lon="2.95776">
        <ele>743.6</ele>
        <time>2026-05-07T08:49:44.000Z</time>
      </trkpt>
      <trkpt lat="43.5946" lon="2.95776">
        <ele>743.6</ele>
        <time>2026-05-07T08:49:45.000Z</time>
      </trkpt>
      <trkpt lat="43.5946" lon="2.95776">
        <ele>743.6</ele>
        <time>2026-05-07T08:49:46.000Z</time>
      </trkpt>
      <trkpt lat="43.5946" lon="2.95776">
        <ele>743.6</ele>
        <time>2026-05-07T08:49:47.000Z</time>
      </trkpt>
      <trkpt lat="43.5946" lon="2.95776">
        <ele>743.5</ele>
        <time>2026-05-07T08:49:48.000Z</time>
      </trkpt>
      <trkpt lat="43.5946" lon="2.95776">
        <ele>743.6</ele>
        <time>2026-05-07T08:49:49.000Z</time>
      </trkpt>
      <trkpt lat="43.5946" lon="2.95776">
        <ele>743.3</ele>
        <time>2026-05-07T08:49:50.000Z</time>
      </trkpt>
      <trkpt lat="43.5946" lon="2.95776">
        <ele>743.3</ele>
        <time>2026-05-07T08:49:51.000Z</time>
      </trkpt>
      <trkpt lat="43.5946" lon="2.95776">
        <ele>743.2</ele>
        <time>2026-05-07T08:49:52.000Z</time>
      </trkpt>
      <trkpt lat="43.5946" lon="2.95776">
        <ele>743</ele>
        <time>2026-05-07T08:49:53.000Z</time>
      </trkpt>
      <trkpt lat="43.5946" lon="2.95776">
        <ele>742.9</ele>
        <time>2026-05-07T08:49:54.000Z</time>
      </trkpt>
      <trkpt lat="43.5946" lon="2.95776">
        <ele>742.8</ele>
        <time>2026-05-07T08:49:55.000Z</time>
      </trkpt>
      <trkpt lat="43.5946" lon="2.95776">
        <ele>742.7</ele>
        <time>2026-05-07T08:49:56.000Z</time>
      </trkpt>
      <trkpt lat="43.5946" lon="2.95776">
        <ele>742.6</ele>
        <time>2026-05-07T08:49:57.000Z</time>
      </trkpt>
      <trkpt lat="43.5946" lon="2.95776">
        <ele>742.6</ele>
        <time>2026-05-07T08:49:58.000Z</time>
      </trkpt>
      <trkpt lat="43.5946" lon="2.95776">
        <ele>742.6</ele>
        <time>2026-05-07T08:49:59.000Z</time>
      </trkpt>
      <trkpt lat="43.5946" lon="2.95776">
        <ele>742.1</ele>
        <time>2026-05-07T08:50:00.000Z</time>
      </trkpt>
      <trkpt lat="43.5946" lon="2.95777">
        <ele>741.9</ele>
        <time>2026-05-07T08:50:01.000Z</time>
      </trkpt>
      <trkpt lat="43.5946" lon="2.95777">
        <ele>741.7</ele>
        <time>2026-05-07T08:50:02.000Z</time>
      </trkpt>
      <trkpt lat="43.5946" lon="2.95777">
        <ele>741.4</ele>
        <time>2026-05-07T08:50:03.000Z</time>
      </trkpt>
      <trkpt lat="43.5946" lon="2.95777">
        <ele>741.4</ele>
        <time>2026-05-07T08:50:04.000Z</time>
      </trkpt>
      <trkpt lat="43.5946" lon="2.95777">
        <ele>741.3</ele>
        <time>2026-05-07T08:50:05.000Z</time>
      </trkpt>
      <trkpt lat="43.5946" lon="2.95777">
        <ele>741.4</ele>
        <time>2026-05-07T08:50:06.000Z</time>
      </trkpt>
      <trkpt lat="43.5946" lon="2.95777">
        <ele>741.5</ele>
        <time>2026-05-07T08:50:07.000Z</time>
      </trkpt>
      <trkpt lat="43.59459" lon="2.95777">
        <ele>741.5</ele>
        <time>2026-05-07T08:50:08.000Z</time>
      </trkpt>
      <trkpt lat="43.5946" lon="2.95777">
        <ele>741.4</ele>
        <time>2026-05-07T08:50:09.000Z</time>
      </trkpt>
      <trkpt lat="43.5946" lon="2.95779">
        <ele>741.2</ele>
        <time>2026-05-07T08:50:10.000Z</time>
      </trkpt>
      <trkpt lat="43.5946" lon="2.9578">
        <ele>741</ele>
        <time>2026-05-07T08:50:11.000Z</time>
      </trkpt>
      <trkpt lat="43.59461" lon="2.9578">
        <ele>740.9</ele>
        <time>2026-05-07T08:50:12.000Z</time>
      </trkpt>
      <trkpt lat="43.59461" lon="2.9578">
        <ele>741</ele>
        <time>2026-05-07T08:50:13.000Z</time>
      </trkpt>
      <trkpt lat="43.59461" lon="2.9578">
        <ele>741.3</ele>
        <time>2026-05-07T08:50:14.000Z</time>
      </trkpt>
      <trkpt lat="43.59461" lon="2.9578">
        <ele>741.5</ele>
        <time>2026-05-07T08:50:15.000Z</time>
      </trkpt>
      <trkpt lat="43.59461" lon="2.9578">
        <ele>741.6</ele>
        <time>2026-05-07T08:50:16.000Z</time>
      </trkpt>
      <trkpt lat="43.59461" lon="2.9578">
        <ele>741.4</ele>
        <time>2026-05-07T08:50:17.000Z</time>
      </trkpt>
      <trkpt lat="43.59461" lon="2.9578">
        <ele>741.7</ele>
        <time>2026-05-07T08:50:18.000Z</time>
      </trkpt>
      <trkpt lat="43.5946" lon="2.9578">
        <ele>742.2</ele>
        <time>2026-05-07T08:50:19.000Z</time>
      </trkpt>
      <trkpt lat="43.59459" lon="2.95782">
        <ele>742.5</ele>
        <time>2026-05-07T08:50:20.000Z</time>
      </trkpt>
      <trkpt lat="43.59459" lon="2.95783">
        <ele>742.7</ele>
        <time>2026-05-07T08:50:21.000Z</time>
      </trkpt>
      <trkpt lat="43.59458" lon="2.95783">
        <ele>742.6</ele>
        <time>2026-05-07T08:50:22.000Z</time>
      </trkpt>
      <trkpt lat="43.59458" lon="2.95782">
        <ele>742.7</ele>
        <time>2026-05-07T08:50:23.000Z</time>
      </trkpt>
      <trkpt lat="43.59458" lon="2.95782">
        <ele>742.6</ele>
        <time>2026-05-07T08:50:24.000Z</time>
      </trkpt>
      <trkpt lat="43.59458" lon="2.95782">
        <ele>742.7</ele>
        <time>2026-05-07T08:50:25.000Z</time>
      </trkpt>
      <trkpt lat="43.59458" lon="2.95782">
        <ele>742.7</ele>
        <time>2026-05-07T08:50:26.000Z</time>
      </trkpt>
      <trkpt lat="43.59458" lon="2.95781">
        <ele>743.2</ele>
        <time>2026-05-07T08:50:27.000Z</time>
      </trkpt>
      <trkpt lat="43.59458" lon="2.95781">
        <ele>743.7</ele>
        <time>2026-05-07T08:50:28.000Z</time>
      </trkpt>
      <trkpt lat="43.59459" lon="2.95782">
        <ele>744.1</ele>
        <time>2026-05-07T08:50:29.000Z</time>
      </trkpt>
      <trkpt lat="43.59459" lon="2.95782">
        <ele>744.4</ele>
        <time>2026-05-07T08:50:30.000Z</time>
      </trkpt>
      <trkpt lat="43.59459" lon="2.95782">
        <ele>744.5</ele>
        <time>2026-05-07T08:50:31.000Z</time>
      </trkpt>
      <trkpt lat="43.59459" lon="2.95782">
        <ele>744.5</ele>
        <time>2026-05-07T08:50:32.000Z</time>
      </trkpt>
      <trkpt lat="43.59459" lon="2.95782">
        <ele>744.6</ele>
        <time>2026-05-07T08:50:33.000Z</time>
      </trkpt>
      <trkpt lat="43.59459" lon="2.95782">
        <ele>744.7</ele>
        <time>2026-05-07T08:50:34.000Z</time>
      </trkpt>
      <trkpt lat="43.59459" lon="2.95782">
        <ele>744.7</ele>
        <time>2026-05-07T08:50:35.000Z</time>
      </trkpt>
      <trkpt lat="43.59459" lon="2.95782">
        <ele>744.7</ele>
        <time>2026-05-07T08:50:36.000Z</time>
      </trkpt>
      <trkpt lat="43.59459" lon="2.95782">
        <ele>744.7</ele>
        <time>2026-05-07T08:50:37.000Z</time>
      </trkpt>
      <trkpt lat="43.59459" lon="2.95781">
        <ele>744.7</ele>
        <time>2026-05-07T08:50:38.000Z</time>
      </trkpt>
      <trkpt lat="43.59459" lon="2.9578">
        <ele>744.7</ele>
        <time>2026-05-07T08:50:39.000Z</time>
      </trkpt>
      <trkpt lat="43.59458" lon="2.95779">
        <ele>744.8</ele>
        <time>2026-05-07T08:50:40.000Z</time>
      </trkpt>
      <trkpt lat="43.59457" lon="2.95779">
        <ele>744.8</ele>
        <time>2026-05-07T08:50:41.000Z</time>
      </trkpt>
      <trkpt lat="43.59456" lon="2.95778">
        <ele>744.6</ele>
        <time>2026-05-07T08:50:42.000Z</time>
      </trkpt>
      <trkpt lat="43.59454" lon="2.95779">
        <ele>745.1</ele>
        <time>2026-05-07T08:50:44.000Z</time>
      </trkpt>
      <trkpt lat="43.59456" lon="2.9578">
        <ele>742.4</ele>
        <time>2026-05-07T08:50:45.000Z</time>
      </trkpt>
      <trkpt lat="43.59456" lon="2.9578">
        <ele>742.5</ele>
        <time>2026-05-07T08:50:46.000Z</time>
      </trkpt>
      <trkpt lat="43.59456" lon="2.9578">
        <ele>742.6</ele>
        <time>2026-05-07T08:50:47.000Z</time>
      </trkpt>
      <trkpt lat="43.59456" lon="2.9578">
        <ele>742.4</ele>
        <time>2026-05-07T08:50:48.000Z</time>
      </trkpt>
      <trkpt lat="43.59456" lon="2.95781">
        <ele>742.4</ele>
        <time>2026-05-07T08:50:49.000Z</time>
      </trkpt>
      <trkpt lat="43.59456" lon="2.95781">
        <ele>742.5</ele>
        <time>2026-05-07T08:50:50.000Z</time>
      </trkpt>
      <trkpt lat="43.59456" lon="2.95781">
        <ele>742.5</ele>
        <time>2026-05-07T08:50:51.000Z</time>
      </trkpt>
      <trkpt lat="43.59456" lon="2.95781">
        <ele>742.6</ele>
        <time>2026-05-07T08:50:52.000Z</time>
      </trkpt>
      <trkpt lat="43.59456" lon="2.95781">
        <ele>742.6</ele>
        <time>2026-05-07T08:50:53.000Z</time>
      </trkpt>
      <trkpt lat="43.59456" lon="2.95781">
        <ele>742.7</ele>
        <time>2026-05-07T08:50:54.000Z</time>
      </trkpt>
      <trkpt lat="43.59456" lon="2.95781">
        <ele>742.7</ele>
        <time>2026-05-07T08:50:55.000Z</time>
      </trkpt>
      <trkpt lat="43.59457" lon="2.95781">
        <ele>742.7</ele>
        <time>2026-05-07T08:50:56.000Z</time>
      </trkpt>
      <trkpt lat="43.59457" lon="2.95782">
        <ele>742.5</ele>
        <time>2026-05-07T08:50:57.000Z</time>
      </trkpt>
      <trkpt lat="43.59457" lon="2.95782">
        <ele>742.6</ele>
        <time>2026-05-07T08:50:58.000Z</time>
      </trkpt>
      <trkpt lat="43.59458" lon="2.95783">
        <ele>743</ele>
        <time>2026-05-07T08:50:59.000Z</time>
      </trkpt>
      <trkpt lat="43.59458" lon="2.95783">
        <ele>743.3</ele>
        <time>2026-05-07T08:51:00.000Z</time>
      </trkpt>
      <trkpt lat="43.59458" lon="2.95784">
        <ele>743.4</ele>
        <time>2026-05-07T08:51:01.000Z</time>
      </trkpt>
      <trkpt lat="43.59459" lon="2.95786">
        <ele>743.8</ele>
        <time>2026-05-07T08:51:02.000Z</time>
      </trkpt>
      <trkpt lat="43.59459" lon="2.95786">
        <ele>743.7</ele>
        <time>2026-05-07T08:51:03.000Z</time>
      </trkpt>
      <trkpt lat="43.59459" lon="2.95787">
        <ele>743.8</ele>
        <time>2026-05-07T08:51:04.000Z</time>
      </trkpt>
      <trkpt lat="43.59459" lon="2.95788">
        <ele>743.8</ele>
        <time>2026-05-07T08:51:05.000Z</time>
      </trkpt>
      <trkpt lat="43.5946" lon="2.95788">
        <ele>743.8</ele>
        <time>2026-05-07T08:51:06.000Z</time>
      </trkpt>
      <trkpt lat="43.59461" lon="2.95788">
        <ele>743.7</ele>
        <time>2026-05-07T08:51:07.000Z</time>
      </trkpt>
      <trkpt lat="43.59463" lon="2.95788">
        <ele>743.3</ele>
        <time>2026-05-07T08:51:09.000Z</time>
      </trkpt>
      <trkpt lat="43.59463" lon="2.95788">
        <ele>743.2</ele>
        <time>2026-05-07T08:51:10.000Z</time>
      </trkpt>
      <trkpt lat="43.59464" lon="2.95788">
        <ele>742.7</ele>
        <time>2026-05-07T08:51:11.000Z</time>
      </trkpt>
      <trkpt lat="43.59464" lon="2.95789">
        <ele>742.5</ele>
        <time>2026-05-07T08:51:12.000Z</time>
      </trkpt>
      <trkpt lat="43.59464" lon="2.9579">
        <ele>742.7</ele>
        <time>2026-05-07T08:51:13.000Z</time>
      </trkpt>
      <trkpt lat="43.59464" lon="2.9579">
        <ele>742.5</ele>
        <time>2026-05-07T08:51:14.000Z</time>
      </trkpt>
      <trkpt lat="43.59465" lon="2.9579">
        <ele>741.9</ele>
        <time>2026-05-07T08:51:15.000Z</time>
      </trkpt>
      <trkpt lat="43.59465" lon="2.95792">
        <ele>741.4</ele>
        <time>2026-05-07T08:51:16.000Z</time>
      </trkpt>
      <trkpt lat="43.59465" lon="2.95794">
        <ele>740.6</ele>
        <time>2026-05-07T08:51:17.000Z</time>
      </trkpt>
      <trkpt lat="43.59465" lon="2.95794">
        <ele>740.5</ele>
        <time>2026-05-07T08:51:18.000Z</time>
      </trkpt>
      <trkpt lat="43.59466" lon="2.95794">
        <ele>740.4</ele>
        <time>2026-05-07T08:51:19.000Z</time>
      </trkpt>
      <trkpt lat="43.59466" lon="2.95793">
        <ele>740.3</ele>
        <time>2026-05-07T08:51:20.000Z</time>
      </trkpt>
      <trkpt lat="43.59466" lon="2.95795">
        <ele>740.3</ele>
        <time>2026-05-07T08:51:21.000Z</time>
      </trkpt>
      <trkpt lat="43.59466" lon="2.95795">
        <ele>740.1</ele>
        <time>2026-05-07T08:51:22.000Z</time>
      </trkpt>
      <trkpt lat="43.59466" lon="2.95795">
        <ele>739.9</ele>
        <time>2026-05-07T08:51:23.000Z</time>
      </trkpt>
      <trkpt lat="43.59467" lon="2.95796">
        <ele>739.8</ele>
        <time>2026-05-07T08:51:24.000Z</time>
      </trkpt>
      <trkpt lat="43.59468" lon="2.95797">
        <ele>739.3</ele>
        <time>2026-05-07T08:51:25.000Z</time>
      </trkpt>
      <trkpt lat="43.59468" lon="2.95798">
        <ele>738.8</ele>
        <time>2026-05-07T08:51:26.000Z</time>
      </trkpt>
      <trkpt lat="43.59468" lon="2.958">
        <ele>738.6</ele>
        <time>2026-05-07T08:51:27.000Z</time>
      </trkpt>
      <trkpt lat="43.59468" lon="2.95802">
        <ele>738.4</ele>
        <time>2026-05-07T08:51:28.000Z</time>
      </trkpt>
      <trkpt lat="43.59468" lon="2.95803">
        <ele>737.8</ele>
        <time>2026-05-07T08:51:29.000Z</time>
      </trkpt>
      <trkpt lat="43.59468" lon="2.95803">
        <ele>737.8</ele>
        <time>2026-05-07T08:51:30.000Z</time>
      </trkpt>
      <trkpt lat="43.59469" lon="2.95803">
        <ele>737.2</ele>
        <time>2026-05-07T08:51:31.000Z</time>
      </trkpt>
      <trkpt lat="43.59469" lon="2.95804">
        <ele>736.9</ele>
        <time>2026-05-07T08:51:32.000Z</time>
      </trkpt>
      <trkpt lat="43.59468" lon="2.95805">
        <ele>736.6</ele>
        <time>2026-05-07T08:51:33.000Z</time>
      </trkpt>
      <trkpt lat="43.59466" lon="2.95806">
        <ele>736</ele>
        <time>2026-05-07T08:51:34.000Z</time>
      </trkpt>
      <trkpt lat="43.59466" lon="2.95808">
        <ele>737.3</ele>
        <time>2026-05-07T08:51:35.000Z</time>
      </trkpt>
      <trkpt lat="43.59465" lon="2.95808">
        <ele>737.5</ele>
        <time>2026-05-07T08:51:36.000Z</time>
      </trkpt>
      <trkpt lat="43.59464" lon="2.95808">
        <ele>737.3</ele>
        <time>2026-05-07T08:51:37.000Z</time>
      </trkpt>
      <trkpt lat="43.59464" lon="2.95808">
        <ele>737.2</ele>
        <time>2026-05-07T08:51:38.000Z</time>
      </trkpt>
      <trkpt lat="43.59463" lon="2.95809">
        <ele>737.2</ele>
        <time>2026-05-07T08:51:39.000Z</time>
      </trkpt>
      <trkpt lat="43.59463" lon="2.95809">
        <ele>737.6</ele>
        <time>2026-05-07T08:51:40.000Z</time>
      </trkpt>
      <trkpt lat="43.59464" lon="2.9581">
        <ele>737.6</ele>
        <time>2026-05-07T08:51:41.000Z</time>
      </trkpt>
      <trkpt lat="43.59464" lon="2.9581">
        <ele>737.8</ele>
        <time>2026-05-07T08:51:42.000Z</time>
      </trkpt>
      <trkpt lat="43.59465" lon="2.9581">
        <ele>737.5</ele>
        <time>2026-05-07T08:51:43.000Z</time>
      </trkpt>
      <trkpt lat="43.59464" lon="2.9581">
        <ele>737.5</ele>
        <time>2026-05-07T08:51:44.000Z</time>
      </trkpt>
      <trkpt lat="43.59464" lon="2.95809">
        <ele>737.2</ele>
        <time>2026-05-07T08:51:45.000Z</time>
      </trkpt>
      <trkpt lat="43.59463" lon="2.9581">
        <ele>736.7</ele>
        <time>2026-05-07T08:51:46.000Z</time>
      </trkpt>
      <trkpt lat="43.59462" lon="2.95812">
        <ele>736.2</ele>
        <time>2026-05-07T08:51:47.000Z</time>
      </trkpt>
      <trkpt lat="43.59462" lon="2.95812">
        <ele>736.6</ele>
        <time>2026-05-07T08:51:48.000Z</time>
      </trkpt>
      <trkpt lat="43.59462" lon="2.95812">
        <ele>737.9</ele>
        <time>2026-05-07T08:51:49.000Z</time>
      </trkpt>
      <trkpt lat="43.59461" lon="2.95812">
        <ele>738</ele>
        <time>2026-05-07T08:51:50.000Z</time>
      </trkpt>
      <trkpt lat="43.59461" lon="2.95812">
        <ele>738.2</ele>
        <time>2026-05-07T08:51:51.000Z</time>
      </trkpt>
      <trkpt lat="43.59461" lon="2.95812">
        <ele>738.1</ele>
        <time>2026-05-07T08:51:52.000Z</time>
      </trkpt>
      <trkpt lat="43.5946" lon="2.95813">
        <ele>738.1</ele>
        <time>2026-05-07T08:51:53.000Z</time>
      </trkpt>
      <trkpt lat="43.5946" lon="2.95813">
        <ele>738.2</ele>
        <time>2026-05-07T08:51:54.000Z</time>
      </trkpt>
      <trkpt lat="43.59459" lon="2.95813">
        <ele>738</ele>
        <time>2026-05-07T08:51:55.000Z</time>
      </trkpt>
      <trkpt lat="43.59459" lon="2.95813">
        <ele>738.1</ele>
        <time>2026-05-07T08:51:57.000Z</time>
      </trkpt>
      <trkpt lat="43.59459" lon="2.95814">
        <ele>737.9</ele>
        <time>2026-05-07T08:51:58.000Z</time>
      </trkpt>
      <trkpt lat="43.59459" lon="2.95814">
        <ele>737.8</ele>
        <time>2026-05-07T08:51:59.000Z</time>
      </trkpt>
      <trkpt lat="43.5946" lon="2.95815">
        <ele>737.8</ele>
        <time>2026-05-07T08:52:00.000Z</time>
      </trkpt>
      <trkpt lat="43.59459" lon="2.95816">
        <ele>737.8</ele>
        <time>2026-05-07T08:52:01.000Z</time>
      </trkpt>
      <trkpt lat="43.59459" lon="2.95818">
        <ele>738.1</ele>
        <time>2026-05-07T08:52:02.000Z</time>
      </trkpt>
      <trkpt lat="43.59459" lon="2.9582">
        <ele>737.7</ele>
        <time>2026-05-07T08:52:03.000Z</time>
      </trkpt>
      <trkpt lat="43.59459" lon="2.95821">
        <ele>737.7</ele>
        <time>2026-05-07T08:52:04.000Z</time>
      </trkpt>
      <trkpt lat="43.59459" lon="2.95822">
        <ele>737.8</ele>
        <time>2026-05-07T08:52:05.000Z</time>
      </trkpt>
      <trkpt lat="43.59459" lon="2.95823">
        <ele>737.9</ele>
        <time>2026-05-07T08:52:06.000Z</time>
      </trkpt>
      <trkpt lat="43.59459" lon="2.95825">
        <ele>737.3</ele>
        <time>2026-05-07T08:52:07.000Z</time>
      </trkpt>
      <trkpt lat="43.59459" lon="2.95826">
        <ele>737.1</ele>
        <time>2026-05-07T08:52:08.000Z</time>
      </trkpt>
      <trkpt lat="43.59458" lon="2.95827">
        <ele>736.7</ele>
        <time>2026-05-07T08:52:09.000Z</time>
      </trkpt>
      <trkpt lat="43.59458" lon="2.95829">
        <ele>736.4</ele>
        <time>2026-05-07T08:52:10.000Z</time>
      </trkpt>
      <trkpt lat="43.59457" lon="2.9583">
        <ele>736.6</ele>
        <time>2026-05-07T08:52:11.000Z</time>
      </trkpt>
      <trkpt lat="43.59458" lon="2.95831">
        <ele>736.5</ele>
        <time>2026-05-07T08:52:12.000Z</time>
      </trkpt>
      <trkpt lat="43.59459" lon="2.95832">
        <ele>736.4</ele>
        <time>2026-05-07T08:52:13.000Z</time>
      </trkpt>
      <trkpt lat="43.5946" lon="2.95832">
        <ele>736.4</ele>
        <time>2026-05-07T08:52:14.000Z</time>
      </trkpt>
      <trkpt lat="43.5946" lon="2.95832">
        <ele>736.5</ele>
        <time>2026-05-07T08:52:15.000Z</time>
      </trkpt>
      <trkpt lat="43.59459" lon="2.95832">
        <ele>736.8</ele>
        <time>2026-05-07T08:52:16.000Z</time>
      </trkpt>
      <trkpt lat="43.59459" lon="2.95833">
        <ele>736.5</ele>
        <time>2026-05-07T08:52:17.000Z</time>
      </trkpt>
      <trkpt lat="43.59461" lon="2.95833">
        <ele>736.1</ele>
        <time>2026-05-07T08:52:18.000Z</time>
      </trkpt>
      <trkpt lat="43.59461" lon="2.95834">
        <ele>736.3</ele>
        <time>2026-05-07T08:52:19.000Z</time>
      </trkpt>
      <trkpt lat="43.5946" lon="2.95835">
        <ele>736.1</ele>
        <time>2026-05-07T08:52:20.000Z</time>
      </trkpt>
      <trkpt lat="43.5946" lon="2.95836">
        <ele>736.1</ele>
        <time>2026-05-07T08:52:21.000Z</time>
      </trkpt>
      <trkpt lat="43.5946" lon="2.95836">
        <ele>736.2</ele>
        <time>2026-05-07T08:52:22.000Z</time>
      </trkpt>
      <trkpt lat="43.5946" lon="2.95836">
        <ele>736</ele>
        <time>2026-05-07T08:52:23.000Z</time>
      </trkpt>
      <trkpt lat="43.59459" lon="2.95836">
        <ele>736</ele>
        <time>2026-05-07T08:52:24.000Z</time>
      </trkpt>
      <trkpt lat="43.59458" lon="2.95836">
        <ele>736.4</ele>
        <time>2026-05-07T08:52:25.000Z</time>
      </trkpt>
      <trkpt lat="43.59458" lon="2.95836">
        <ele>736.3</ele>
        <time>2026-05-07T08:52:26.000Z</time>
      </trkpt>
      <trkpt lat="43.59458" lon="2.95836">
        <ele>736.3</ele>
        <time>2026-05-07T08:52:27.000Z</time>
      </trkpt>
      <trkpt lat="43.59457" lon="2.95837">
        <ele>736.3</ele>
        <time>2026-05-07T08:52:28.000Z</time>
      </trkpt>
      <trkpt lat="43.59454" lon="2.95838">
        <ele>737.4</ele>
        <time>2026-05-07T08:52:29.000Z</time>
      </trkpt>
      <trkpt lat="43.59452" lon="2.95838">
        <ele>737.8</ele>
        <time>2026-05-07T08:52:30.000Z</time>
      </trkpt>
      <trkpt lat="43.59451" lon="2.95839">
        <ele>738.2</ele>
        <time>2026-05-07T08:52:31.000Z</time>
      </trkpt>
      <trkpt lat="43.5945" lon="2.95841">
        <ele>738.6</ele>
        <time>2026-05-07T08:52:32.000Z</time>
      </trkpt>
      <trkpt lat="43.59449" lon="2.95841">
        <ele>738.5</ele>
        <time>2026-05-07T08:52:33.000Z</time>
      </trkpt>
      <trkpt lat="43.59448" lon="2.95842">
        <ele>738.6</ele>
        <time>2026-05-07T08:52:34.000Z</time>
      </trkpt>
      <trkpt lat="43.59448" lon="2.95844">
        <ele>738.6</ele>
        <time>2026-05-07T08:52:35.000Z</time>
      </trkpt>
      <trkpt lat="43.59447" lon="2.95845">
        <ele>738.5</ele>
        <time>2026-05-07T08:52:36.000Z</time>
      </trkpt>
      <trkpt lat="43.59447" lon="2.95847">
        <ele>738.5</ele>
        <time>2026-05-07T08:52:37.000Z</time>
      </trkpt>
      <trkpt lat="43.59447" lon="2.95849">
        <ele>738.6</ele>
        <time>2026-05-07T08:52:38.000Z</time>
      </trkpt>
      <trkpt lat="43.59448" lon="2.95851">
        <ele>738.5</ele>
        <time>2026-05-07T08:52:39.000Z</time>
      </trkpt>
      <trkpt lat="43.59448" lon="2.95851">
        <ele>738.2</ele>
        <time>2026-05-07T08:52:40.000Z</time>
      </trkpt>
      <trkpt lat="43.59448" lon="2.95852">
        <ele>738</ele>
        <time>2026-05-07T08:52:41.000Z</time>
      </trkpt>
      <trkpt lat="43.59449" lon="2.95853">
        <ele>738</ele>
        <time>2026-05-07T08:52:42.000Z</time>
      </trkpt>
      <trkpt lat="43.59449" lon="2.95854">
        <ele>738</ele>
        <time>2026-05-07T08:52:43.000Z</time>
      </trkpt>
      <trkpt lat="43.59449" lon="2.95855">
        <ele>738</ele>
        <time>2026-05-07T08:52:44.000Z</time>
      </trkpt>
      <trkpt lat="43.59449" lon="2.95856">
        <ele>738.1</ele>
        <time>2026-05-07T08:52:45.000Z</time>
      </trkpt>
      <trkpt lat="43.59449" lon="2.95856">
        <ele>738.2</ele>
        <time>2026-05-07T08:52:46.000Z</time>
      </trkpt>
      <trkpt lat="43.59448" lon="2.95856">
        <ele>738.2</ele>
        <time>2026-05-07T08:52:47.000Z</time>
      </trkpt>
      <trkpt lat="43.59447" lon="2.95857">
        <ele>738.1</ele>
        <time>2026-05-07T08:52:48.000Z</time>
      </trkpt>
      <trkpt lat="43.59447" lon="2.95857">
        <ele>738.2</ele>
        <time>2026-05-07T08:52:49.000Z</time>
      </trkpt>
      <trkpt lat="43.59447" lon="2.95858">
        <ele>738.3</ele>
        <time>2026-05-07T08:52:50.000Z</time>
      </trkpt>
      <trkpt lat="43.59447" lon="2.95858">
        <ele>738.3</ele>
        <time>2026-05-07T08:52:51.000Z</time>
      </trkpt>
      <trkpt lat="43.59447" lon="2.95858">
        <ele>738.2</ele>
        <time>2026-05-07T08:52:52.000Z</time>
      </trkpt>
      <trkpt lat="43.59447" lon="2.95858">
        <ele>738.2</ele>
        <time>2026-05-07T08:52:53.000Z</time>
      </trkpt>
      <trkpt lat="43.59447" lon="2.95858">
        <ele>738.1</ele>
        <time>2026-05-07T08:52:54.000Z</time>
      </trkpt>
      <trkpt lat="43.59447" lon="2.95859">
        <ele>737.9</ele>
        <time>2026-05-07T08:52:55.000Z</time>
      </trkpt>
      <trkpt lat="43.59447" lon="2.95859">
        <ele>737.8</ele>
        <time>2026-05-07T08:52:56.000Z</time>
      </trkpt>
      <trkpt lat="43.59447" lon="2.95859">
        <ele>737.8</ele>
        <time>2026-05-07T08:52:57.000Z</time>
      </trkpt>
      <trkpt lat="43.59447" lon="2.95859">
        <ele>737.7</ele>
        <time>2026-05-07T08:52:58.000Z</time>
      </trkpt>
      <trkpt lat="43.59447" lon="2.95859">
        <ele>737.1</ele>
        <time>2026-05-07T08:52:59.000Z</time>
      </trkpt>
      <trkpt lat="43.59447" lon="2.95859">
        <ele>736.6</ele>
        <time>2026-05-07T08:53:00.000Z</time>
      </trkpt>
      <trkpt lat="43.59447" lon="2.95861">
        <ele>736.4</ele>
        <time>2026-05-07T08:53:01.000Z</time>
      </trkpt>
      <trkpt lat="43.59446" lon="2.95862">
        <ele>736.6</ele>
        <time>2026-05-07T08:53:02.000Z</time>
      </trkpt>
      <trkpt lat="43.59446" lon="2.95863">
        <ele>736.7</ele>
        <time>2026-05-07T08:53:03.000Z</time>
      </trkpt>
      <trkpt lat="43.59447" lon="2.95864">
        <ele>736.8</ele>
        <time>2026-05-07T08:53:04.000Z</time>
      </trkpt>
      <trkpt lat="43.59447" lon="2.95864">
        <ele>737.1</ele>
        <time>2026-05-07T08:53:05.000Z</time>
      </trkpt>
      <trkpt lat="43.59447" lon="2.95864">
        <ele>737.3</ele>
        <time>2026-05-07T08:53:06.000Z</time>
      </trkpt>
      <trkpt lat="43.59446" lon="2.95864">
        <ele>737.4</ele>
        <time>2026-05-07T08:53:07.000Z</time>
      </trkpt>
      <trkpt lat="43.59446" lon="2.95864">
        <ele>737.6</ele>
        <time>2026-05-07T08:53:08.000Z</time>
      </trkpt>
      <trkpt lat="43.59447" lon="2.95865">
        <ele>738.2</ele>
        <time>2026-05-07T08:53:10.000Z</time>
      </trkpt>
      <trkpt lat="43.59447" lon="2.95866">
        <ele>738.7</ele>
        <time>2026-05-07T08:53:11.000Z</time>
      </trkpt>
      <trkpt lat="43.59446" lon="2.95868">
        <ele>739.1</ele>
        <time>2026-05-07T08:53:12.000Z</time>
      </trkpt>
      <trkpt lat="43.59445" lon="2.95869">
        <ele>739.3</ele>
        <time>2026-05-07T08:53:13.000Z</time>
      </trkpt>
      <trkpt lat="43.59444" lon="2.95869">
        <ele>739.6</ele>
        <time>2026-05-07T08:53:14.000Z</time>
      </trkpt>
      <trkpt lat="43.59443" lon="2.95869">
        <ele>739.7</ele>
        <time>2026-05-07T08:53:15.000Z</time>
      </trkpt>
      <trkpt lat="43.59442" lon="2.9587">
        <ele>739.7</ele>
        <time>2026-05-07T08:53:16.000Z</time>
      </trkpt>
      <trkpt lat="43.59442" lon="2.95871">
        <ele>739.7</ele>
        <time>2026-05-07T08:53:17.000Z</time>
      </trkpt>
      <trkpt lat="43.59441" lon="2.95871">
        <ele>739.7</ele>
        <time>2026-05-07T08:53:18.000Z</time>
      </trkpt>
      <trkpt lat="43.59441" lon="2.95871">
        <ele>739.4</ele>
        <time>2026-05-07T08:53:19.000Z</time>
      </trkpt>
      <trkpt lat="43.59441" lon="2.95871">
        <ele>739.3</ele>
        <time>2026-05-07T08:53:20.000Z</time>
      </trkpt>
      <trkpt lat="43.5944" lon="2.95871">
        <ele>739.5</ele>
        <time>2026-05-07T08:53:21.000Z</time>
      </trkpt>
      <trkpt lat="43.5944" lon="2.95872">
        <ele>740.1</ele>
        <time>2026-05-07T08:53:22.000Z</time>
      </trkpt>
      <trkpt lat="43.59439" lon="2.95872">
        <ele>740.5</ele>
        <time>2026-05-07T08:53:23.000Z</time>
      </trkpt>
      <trkpt lat="43.59439" lon="2.95874">
        <ele>740.8</ele>
        <time>2026-05-07T08:53:24.000Z</time>
      </trkpt>
      <trkpt lat="43.59438" lon="2.95875">
        <ele>740.7</ele>
        <time>2026-05-07T08:53:25.000Z</time>
      </trkpt>
      <trkpt lat="43.59438" lon="2.95877">
        <ele>740.9</ele>
        <time>2026-05-07T08:53:26.000Z</time>
      </trkpt>
      <trkpt lat="43.59437" lon="2.95878">
        <ele>741.2</ele>
        <time>2026-05-07T08:53:27.000Z</time>
      </trkpt>
      <trkpt lat="43.59437" lon="2.95881">
        <ele>741.3</ele>
        <time>2026-05-07T08:53:28.000Z</time>
      </trkpt>
      <trkpt lat="43.59437" lon="2.95882">
        <ele>741.5</ele>
        <time>2026-05-07T08:53:29.000Z</time>
      </trkpt>
      <trkpt lat="43.59437" lon="2.95883">
        <ele>741.6</ele>
        <time>2026-05-07T08:53:30.000Z</time>
      </trkpt>
      <trkpt lat="43.59438" lon="2.95884">
        <ele>741.5</ele>
        <time>2026-05-07T08:53:31.000Z</time>
      </trkpt>
      <trkpt lat="43.59438" lon="2.95884">
        <ele>741.7</ele>
        <time>2026-05-07T08:53:32.000Z</time>
      </trkpt>
      <trkpt lat="43.59438" lon="2.95885">
        <ele>741.6</ele>
        <time>2026-05-07T08:53:33.000Z</time>
      </trkpt>
      <trkpt lat="43.59438" lon="2.95885">
        <ele>741.3</ele>
        <time>2026-05-07T08:53:34.000Z</time>
      </trkpt>
      <trkpt lat="43.59439" lon="2.95886">
        <ele>740.8</ele>
        <time>2026-05-07T08:53:35.000Z</time>
      </trkpt>
      <trkpt lat="43.59439" lon="2.95887">
        <ele>740.3</ele>
        <time>2026-05-07T08:53:36.000Z</time>
      </trkpt>
      <trkpt lat="43.59439" lon="2.95887">
        <ele>740.1</ele>
        <time>2026-05-07T08:53:37.000Z</time>
      </trkpt>
      <trkpt lat="43.59439" lon="2.95887">
        <ele>740.3</ele>
        <time>2026-05-07T08:53:38.000Z</time>
      </trkpt>
      <trkpt lat="43.59439" lon="2.95887">
        <ele>740.4</ele>
        <time>2026-05-07T08:53:39.000Z</time>
      </trkpt>
      <trkpt lat="43.59439" lon="2.95887">
        <ele>740.5</ele>
        <time>2026-05-07T08:53:40.000Z</time>
      </trkpt>
      <trkpt lat="43.59438" lon="2.95887">
        <ele>740.6</ele>
        <time>2026-05-07T08:53:41.000Z</time>
      </trkpt>
      <trkpt lat="43.59438" lon="2.95887">
        <ele>740.8</ele>
        <time>2026-05-07T08:53:42.000Z</time>
      </trkpt>
      <trkpt lat="43.59438" lon="2.95887">
        <ele>740.9</ele>
        <time>2026-05-07T08:53:43.000Z</time>
      </trkpt>
      <trkpt lat="43.59437" lon="2.95888">
        <ele>740.9</ele>
        <time>2026-05-07T08:53:44.000Z</time>
      </trkpt>
      <trkpt lat="43.59436" lon="2.95888">
        <ele>740.9</ele>
        <time>2026-05-07T08:53:45.000Z</time>
      </trkpt>
      <trkpt lat="43.59435" lon="2.95888">
        <ele>740.8</ele>
        <time>2026-05-07T08:53:46.000Z</time>
      </trkpt>
      <trkpt lat="43.59433" lon="2.95888">
        <ele>740.6</ele>
        <time>2026-05-07T08:53:47.000Z</time>
      </trkpt>
      <trkpt lat="43.59432" lon="2.95889">
        <ele>740.5</ele>
        <time>2026-05-07T08:53:48.000Z</time>
      </trkpt>
      <trkpt lat="43.59431" lon="2.95889">
        <ele>740.3</ele>
        <time>2026-05-07T08:53:49.000Z</time>
      </trkpt>
      <trkpt lat="43.59431" lon="2.95889">
        <ele>740.3</ele>
        <time>2026-05-07T08:53:50.000Z</time>
      </trkpt>
      <trkpt lat="43.5943" lon="2.9589">
        <ele>739.5</ele>
        <time>2026-05-07T08:53:51.000Z</time>
      </trkpt>
      <trkpt lat="43.5943" lon="2.9589">
        <ele>739.4</ele>
        <time>2026-05-07T08:53:52.000Z</time>
      </trkpt>
      <trkpt lat="43.5943" lon="2.9589">
        <ele>738.9</ele>
        <time>2026-05-07T08:53:53.000Z</time>
      </trkpt>
      <trkpt lat="43.5943" lon="2.9589">
        <ele>738.9</ele>
        <time>2026-05-07T08:53:54.000Z</time>
      </trkpt>
      <trkpt lat="43.5943" lon="2.9589">
        <ele>739.1</ele>
        <time>2026-05-07T08:53:55.000Z</time>
      </trkpt>
      <trkpt lat="43.5943" lon="2.95891">
        <ele>739.3</ele>
        <time>2026-05-07T08:53:56.000Z</time>
      </trkpt>
      <trkpt lat="43.5943" lon="2.95892">
        <ele>739.6</ele>
        <time>2026-05-07T08:53:57.000Z</time>
      </trkpt>
      <trkpt lat="43.5943" lon="2.95892">
        <ele>739.7</ele>
        <time>2026-05-07T08:53:58.000Z</time>
      </trkpt>
      <trkpt lat="43.5943" lon="2.95893">
        <ele>740</ele>
        <time>2026-05-07T08:53:59.000Z</time>
      </trkpt>
      <trkpt lat="43.5943" lon="2.95893">
        <ele>740.3</ele>
        <time>2026-05-07T08:54:00.000Z</time>
      </trkpt>
      <trkpt lat="43.5943" lon="2.95893">
        <ele>740.1</ele>
        <time>2026-05-07T08:54:01.000Z</time>
      </trkpt>
      <trkpt lat="43.59429" lon="2.95893">
        <ele>740.3</ele>
        <time>2026-05-07T08:54:02.000Z</time>
      </trkpt>
      <trkpt lat="43.59428" lon="2.95893">
        <ele>740.5</ele>
        <time>2026-05-07T08:54:03.000Z</time>
      </trkpt>
      <trkpt lat="43.59427" lon="2.95892">
        <ele>740.4</ele>
        <time>2026-05-07T08:54:04.000Z</time>
      </trkpt>
      <trkpt lat="43.59426" lon="2.95892">
        <ele>740.4</ele>
        <time>2026-05-07T08:54:05.000Z</time>
      </trkpt>
      <trkpt lat="43.59426" lon="2.95892">
        <ele>740.1</ele>
        <time>2026-05-07T08:54:06.000Z</time>
      </trkpt>
      <trkpt lat="43.59425" lon="2.95892">
        <ele>739.7</ele>
        <time>2026-05-07T08:54:07.000Z</time>
      </trkpt>
      <trkpt lat="43.59425" lon="2.95892">
        <ele>739.5</ele>
        <time>2026-05-07T08:54:08.000Z</time>
      </trkpt>
      <trkpt lat="43.59425" lon="2.95892">
        <ele>739.3</ele>
        <time>2026-05-07T08:54:09.000Z</time>
      </trkpt>
      <trkpt lat="43.59425" lon="2.95892">
        <ele>739.2</ele>
        <time>2026-05-07T08:54:10.000Z</time>
      </trkpt>
      <trkpt lat="43.59425" lon="2.95893">
        <ele>739.3</ele>
        <time>2026-05-07T08:54:11.000Z</time>
      </trkpt>
      <trkpt lat="43.59424" lon="2.95894">
        <ele>739.4</ele>
        <time>2026-05-07T08:54:12.000Z</time>
      </trkpt>
      <trkpt lat="43.59424" lon="2.95895">
        <ele>739.4</ele>
        <time>2026-05-07T08:54:13.000Z</time>
      </trkpt>
      <trkpt lat="43.59423" lon="2.95895">
        <ele>739.7</ele>
        <time>2026-05-07T08:54:14.000Z</time>
      </trkpt>
      <trkpt lat="43.59423" lon="2.95895">
        <ele>739.9</ele>
        <time>2026-05-07T08:54:15.000Z</time>
      </trkpt>
      <trkpt lat="43.59423" lon="2.95895">
        <ele>740</ele>
        <time>2026-05-07T08:54:16.000Z</time>
      </trkpt>
      <trkpt lat="43.59423" lon="2.95895">
        <ele>740.2</ele>
        <time>2026-05-07T08:54:17.000Z</time>
      </trkpt>
      <trkpt lat="43.59423" lon="2.95895">
        <ele>740.1</ele>
        <time>2026-05-07T08:54:18.000Z</time>
      </trkpt>
      <trkpt lat="43.59423" lon="2.95895">
        <ele>740</ele>
        <time>2026-05-07T08:54:19.000Z</time>
      </trkpt>
      <trkpt lat="43.59423" lon="2.95895">
        <ele>740</ele>
        <time>2026-05-07T08:54:20.000Z</time>
      </trkpt>
      <trkpt lat="43.59422" lon="2.95895">
        <ele>740</ele>
        <time>2026-05-07T08:54:21.000Z</time>
      </trkpt>
      <trkpt lat="43.59422" lon="2.95895">
        <ele>740.1</ele>
        <time>2026-05-07T08:54:22.000Z</time>
      </trkpt>
      <trkpt lat="43.59421" lon="2.95894">
        <ele>740.2</ele>
        <time>2026-05-07T08:54:23.000Z</time>
      </trkpt>
      <trkpt lat="43.5942" lon="2.95895">
        <ele>740.4</ele>
        <time>2026-05-07T08:54:24.000Z</time>
      </trkpt>
      <trkpt lat="43.59419" lon="2.95895">
        <ele>740.4</ele>
        <time>2026-05-07T08:54:25.000Z</time>
      </trkpt>
      <trkpt lat="43.59418" lon="2.95897">
        <ele>740.4</ele>
        <time>2026-05-07T08:54:26.000Z</time>
      </trkpt>
      <trkpt lat="43.59418" lon="2.95898">
        <ele>740.4</ele>
        <time>2026-05-07T08:54:27.000Z</time>
      </trkpt>
      <trkpt lat="43.59418" lon="2.95899">
        <ele>740.4</ele>
        <time>2026-05-07T08:54:28.000Z</time>
      </trkpt>
      <trkpt lat="43.59417" lon="2.959">
        <ele>740.1</ele>
        <time>2026-05-07T08:54:29.000Z</time>
      </trkpt>
      <trkpt lat="43.59417" lon="2.959">
        <ele>740</ele>
        <time>2026-05-07T08:54:30.000Z</time>
      </trkpt>
      <trkpt lat="43.59416" lon="2.95901">
        <ele>740.1</ele>
        <time>2026-05-07T08:54:31.000Z</time>
      </trkpt>
      <trkpt lat="43.59416" lon="2.959">
        <ele>740.3</ele>
        <time>2026-05-07T08:54:32.000Z</time>
      </trkpt>
      <trkpt lat="43.59415" lon="2.95901">
        <ele>740.7</ele>
        <time>2026-05-07T08:54:33.000Z</time>
      </trkpt>
      <trkpt lat="43.59414" lon="2.95901">
        <ele>741</ele>
        <time>2026-05-07T08:54:34.000Z</time>
      </trkpt>
      <trkpt lat="43.59414" lon="2.95902">
        <ele>741.1</ele>
        <time>2026-05-07T08:54:35.000Z</time>
      </trkpt>
      <trkpt lat="43.59414" lon="2.95902">
        <ele>740.7</ele>
        <time>2026-05-07T08:54:36.000Z</time>
      </trkpt>
      <trkpt lat="43.59414" lon="2.95902">
        <ele>740.5</ele>
        <time>2026-05-07T08:54:37.000Z</time>
      </trkpt>
      <trkpt lat="43.59413" lon="2.95903">
        <ele>740.1</ele>
        <time>2026-05-07T08:54:38.000Z</time>
      </trkpt>
      <trkpt lat="43.59413" lon="2.95903">
        <ele>739.9</ele>
        <time>2026-05-07T08:54:39.000Z</time>
      </trkpt>
      <trkpt lat="43.59413" lon="2.95903">
        <ele>740</ele>
        <time>2026-05-07T08:54:40.000Z</time>
      </trkpt>
      <trkpt lat="43.59413" lon="2.95903">
        <ele>739.9</ele>
        <time>2026-05-07T08:54:41.000Z</time>
      </trkpt>
      <trkpt lat="43.59413" lon="2.95903">
        <ele>740</ele>
        <time>2026-05-07T08:54:42.000Z</time>
      </trkpt>
      <trkpt lat="43.59413" lon="2.95903">
        <ele>740.3</ele>
        <time>2026-05-07T08:54:43.000Z</time>
      </trkpt>
      <trkpt lat="43.59413" lon="2.95903">
        <ele>740.6</ele>
        <time>2026-05-07T08:54:44.000Z</time>
      </trkpt>
      <trkpt lat="43.59413" lon="2.95903">
        <ele>740.5</ele>
        <time>2026-05-07T08:54:45.000Z</time>
      </trkpt>
      <trkpt lat="43.59413" lon="2.95904">
        <ele>740.5</ele>
        <time>2026-05-07T08:54:46.000Z</time>
      </trkpt>
      <trkpt lat="43.59413" lon="2.95905">
        <ele>740.6</ele>
        <time>2026-05-07T08:54:47.000Z</time>
      </trkpt>
      <trkpt lat="43.59413" lon="2.95905">
        <ele>740.5</ele>
        <time>2026-05-07T08:54:48.000Z</time>
      </trkpt>
      <trkpt lat="43.59412" lon="2.95907">
        <ele>740.5</ele>
        <time>2026-05-07T08:54:49.000Z</time>
      </trkpt>
      <trkpt lat="43.59411" lon="2.95907">
        <ele>740.5</ele>
        <time>2026-05-07T08:54:50.000Z</time>
      </trkpt>
      <trkpt lat="43.59412" lon="2.95908">
        <ele>740.5</ele>
        <time>2026-05-07T08:54:51.000Z</time>
      </trkpt>
      <trkpt lat="43.59411" lon="2.95908">
        <ele>740.4</ele>
        <time>2026-05-07T08:54:52.000Z</time>
      </trkpt>
      <trkpt lat="43.59411" lon="2.95909">
        <ele>740.5</ele>
        <time>2026-05-07T08:54:53.000Z</time>
      </trkpt>
      <trkpt lat="43.59411" lon="2.95909">
        <ele>740.4</ele>
        <time>2026-05-07T08:54:54.000Z</time>
      </trkpt>
      <trkpt lat="43.59411" lon="2.95909">
        <ele>740.2</ele>
        <time>2026-05-07T08:54:55.000Z</time>
      </trkpt>
      <trkpt lat="43.59411" lon="2.9591">
        <ele>739.9</ele>
        <time>2026-05-07T08:54:56.000Z</time>
      </trkpt>
      <trkpt lat="43.5941" lon="2.95911">
        <ele>739.5</ele>
        <time>2026-05-07T08:54:57.000Z</time>
      </trkpt>
      <trkpt lat="43.5941" lon="2.95912">
        <ele>739.1</ele>
        <time>2026-05-07T08:54:58.000Z</time>
      </trkpt>
      <trkpt lat="43.59409" lon="2.95912">
        <ele>738.8</ele>
        <time>2026-05-07T08:54:59.000Z</time>
      </trkpt>
      <trkpt lat="43.5941" lon="2.95913">
        <ele>738.5</ele>
        <time>2026-05-07T08:55:00.000Z</time>
      </trkpt>
      <trkpt lat="43.59411" lon="2.95914">
        <ele>738</ele>
        <time>2026-05-07T08:55:01.000Z</time>
      </trkpt>
      <trkpt lat="43.59412" lon="2.95914">
        <ele>737.6</ele>
        <time>2026-05-07T08:55:02.000Z</time>
      </trkpt>
      <trkpt lat="43.59411" lon="2.95915">
        <ele>736.8</ele>
        <time>2026-05-07T08:55:03.000Z</time>
      </trkpt>
      <trkpt lat="43.59411" lon="2.95915">
        <ele>736.4</ele>
        <time>2026-05-07T08:55:04.000Z</time>
      </trkpt>
      <trkpt lat="43.59411" lon="2.95916">
        <ele>736.1</ele>
        <time>2026-05-07T08:55:05.000Z</time>
      </trkpt>
      <trkpt lat="43.5941" lon="2.95917">
        <ele>735.8</ele>
        <time>2026-05-07T08:55:06.000Z</time>
      </trkpt>
      <trkpt lat="43.5941" lon="2.95918">
        <ele>735.5</ele>
        <time>2026-05-07T08:55:07.000Z</time>
      </trkpt>
      <trkpt lat="43.59409" lon="2.95918">
        <ele>735.3</ele>
        <time>2026-05-07T08:55:08.000Z</time>
      </trkpt>
      <trkpt lat="43.59409" lon="2.95919">
        <ele>735.1</ele>
        <time>2026-05-07T08:55:09.000Z</time>
      </trkpt>
      <trkpt lat="43.59409" lon="2.95919">
        <ele>734.8</ele>
        <time>2026-05-07T08:55:10.000Z</time>
      </trkpt>
      <trkpt lat="43.59408" lon="2.9592">
        <ele>734.7</ele>
        <time>2026-05-07T08:55:11.000Z</time>
      </trkpt>
      <trkpt lat="43.59408" lon="2.95921">
        <ele>734.7</ele>
        <time>2026-05-07T08:55:12.000Z</time>
      </trkpt>
      <trkpt lat="43.59408" lon="2.95922">
        <ele>734.9</ele>
        <time>2026-05-07T08:55:13.000Z</time>
      </trkpt>
      <trkpt lat="43.59407" lon="2.95922">
        <ele>734.7</ele>
        <time>2026-05-07T08:55:14.000Z</time>
      </trkpt>
      <trkpt lat="43.59407" lon="2.95923">
        <ele>734.6</ele>
        <time>2026-05-07T08:55:15.000Z</time>
      </trkpt>
      <trkpt lat="43.59407" lon="2.95923">
        <ele>734.5</ele>
        <time>2026-05-07T08:55:16.000Z</time>
      </trkpt>
      <trkpt lat="43.59407" lon="2.95923">
        <ele>734.7</ele>
        <time>2026-05-07T08:55:17.000Z</time>
      </trkpt>
      <trkpt lat="43.59406" lon="2.95924">
        <ele>734.7</ele>
        <time>2026-05-07T08:55:18.000Z</time>
      </trkpt>
      <trkpt lat="43.59406" lon="2.95924">
        <ele>734.7</ele>
        <time>2026-05-07T08:55:19.000Z</time>
      </trkpt>
      <trkpt lat="43.59406" lon="2.95924">
        <ele>734.7</ele>
        <time>2026-05-07T08:55:20.000Z</time>
      </trkpt>
      <trkpt lat="43.59406" lon="2.95924">
        <ele>734.7</ele>
        <time>2026-05-07T08:55:21.000Z</time>
      </trkpt>
      <trkpt lat="43.59406" lon="2.95924">
        <ele>734.5</ele>
        <time>2026-05-07T08:55:22.000Z</time>
      </trkpt>
      <trkpt lat="43.59406" lon="2.95924">
        <ele>734.2</ele>
        <time>2026-05-07T08:55:23.000Z</time>
      </trkpt>
      <trkpt lat="43.59406" lon="2.95924">
        <ele>733.9</ele>
        <time>2026-05-07T08:55:24.000Z</time>
      </trkpt>
      <trkpt lat="43.59406" lon="2.95924">
        <ele>733.7</ele>
        <time>2026-05-07T08:55:25.000Z</time>
      </trkpt>
      <trkpt lat="43.59406" lon="2.95924">
        <ele>733.4</ele>
        <time>2026-05-07T08:55:26.000Z</time>
      </trkpt>
      <trkpt lat="43.59406" lon="2.95924">
        <ele>733.3</ele>
        <time>2026-05-07T08:55:27.000Z</time>
      </trkpt>
      <trkpt lat="43.59406" lon="2.95924">
        <ele>733</ele>
        <time>2026-05-07T08:55:28.000Z</time>
      </trkpt>
      <trkpt lat="43.59406" lon="2.95924">
        <ele>733.2</ele>
        <time>2026-05-07T08:55:29.000Z</time>
      </trkpt>
      <trkpt lat="43.59406" lon="2.95925">
        <ele>733.1</ele>
        <time>2026-05-07T08:55:30.000Z</time>
      </trkpt>
      <trkpt lat="43.59406" lon="2.95925">
        <ele>733.2</ele>
        <time>2026-05-07T08:55:31.000Z</time>
      </trkpt>
      <trkpt lat="43.59406" lon="2.95926">
        <ele>733.1</ele>
        <time>2026-05-07T08:55:32.000Z</time>
      </trkpt>
      <trkpt lat="43.59406" lon="2.95926">
        <ele>733.1</ele>
        <time>2026-05-07T08:55:33.000Z</time>
      </trkpt>
      <trkpt lat="43.59406" lon="2.95926">
        <ele>733.1</ele>
        <time>2026-05-07T08:55:34.000Z</time>
      </trkpt>
      <trkpt lat="43.59406" lon="2.95926">
        <ele>733.2</ele>
        <time>2026-05-07T08:55:35.000Z</time>
      </trkpt>
      <trkpt lat="43.59406" lon="2.95926">
        <ele>733.2</ele>
        <time>2026-05-07T08:55:36.000Z</time>
      </trkpt>
      <trkpt lat="43.59406" lon="2.95926">
        <ele>733.3</ele>
        <time>2026-05-07T08:55:37.000Z</time>
      </trkpt>
      <trkpt lat="43.59406" lon="2.95926">
        <ele>733.2</ele>
        <time>2026-05-07T08:55:38.000Z</time>
      </trkpt>
      <trkpt lat="43.59406" lon="2.95926">
        <ele>733.1</ele>
        <time>2026-05-07T08:55:39.000Z</time>
      </trkpt>
      <trkpt lat="43.59406" lon="2.95925">
        <ele>732.9</ele>
        <time>2026-05-07T08:55:40.000Z</time>
      </trkpt>
      <trkpt lat="43.59406" lon="2.95925">
        <ele>733</ele>
        <time>2026-05-07T08:55:41.000Z</time>
      </trkpt>
      <trkpt lat="43.59406" lon="2.95924">
        <ele>732.9</ele>
        <time>2026-05-07T08:55:42.000Z</time>
      </trkpt>
      <trkpt lat="43.59406" lon="2.95924">
        <ele>732.8</ele>
        <time>2026-05-07T08:55:43.000Z</time>
      </trkpt>
      <trkpt lat="43.59407" lon="2.95924">
        <ele>732.5</ele>
        <time>2026-05-07T08:55:44.000Z</time>
      </trkpt>
      <trkpt lat="43.59407" lon="2.95923">
        <ele>732.4</ele>
        <time>2026-05-07T08:55:45.000Z</time>
      </trkpt>
      <trkpt lat="43.59407" lon="2.95924">
        <ele>732.1</ele>
        <time>2026-05-07T08:55:46.000Z</time>
      </trkpt>
      <trkpt lat="43.59408" lon="2.95924">
        <ele>732.1</ele>
        <time>2026-05-07T08:55:47.000Z</time>
      </trkpt>
      <trkpt lat="43.59408" lon="2.95924">
        <ele>732</ele>
        <time>2026-05-07T08:55:48.000Z</time>
      </trkpt>
      <trkpt lat="43.59408" lon="2.95923">
        <ele>731.8</ele>
        <time>2026-05-07T08:55:49.000Z</time>
      </trkpt>
      <trkpt lat="43.59407" lon="2.95923">
        <ele>731.5</ele>
        <time>2026-05-07T08:55:50.000Z</time>
      </trkpt>
      <trkpt lat="43.59407" lon="2.95922">
        <ele>731.4</ele>
        <time>2026-05-07T08:55:51.000Z</time>
      </trkpt>
      <trkpt lat="43.59408" lon="2.95922">
        <ele>731.4</ele>
        <time>2026-05-07T08:55:52.000Z</time>
      </trkpt>
      <trkpt lat="43.59407" lon="2.95922">
        <ele>731.5</ele>
        <time>2026-05-07T08:55:53.000Z</time>
      </trkpt>
      <trkpt lat="43.59407" lon="2.95923">
        <ele>731.8</ele>
        <time>2026-05-07T08:55:54.000Z</time>
      </trkpt>
      <trkpt lat="43.59407" lon="2.95924">
        <ele>731.7</ele>
        <time>2026-05-07T08:55:55.000Z</time>
      </trkpt>
      <trkpt lat="43.59407" lon="2.95925">
        <ele>731.6</ele>
        <time>2026-05-07T08:55:56.000Z</time>
      </trkpt>
      <trkpt lat="43.59406" lon="2.95925">
        <ele>731.4</ele>
        <time>2026-05-07T08:55:57.000Z</time>
      </trkpt>
      <trkpt lat="43.59406" lon="2.95926">
        <ele>731.7</ele>
        <time>2026-05-07T08:55:58.000Z</time>
      </trkpt>
      <trkpt lat="43.59406" lon="2.95926">
        <ele>731.7</ele>
        <time>2026-05-07T08:55:59.000Z</time>
      </trkpt>
      <trkpt lat="43.59406" lon="2.95925">
        <ele>731.7</ele>
        <time>2026-05-07T08:56:00.000Z</time>
      </trkpt>
      <trkpt lat="43.59406" lon="2.95925">
        <ele>731.9</ele>
        <time>2026-05-07T08:56:01.000Z</time>
      </trkpt>
      <trkpt lat="43.59406" lon="2.95925">
        <ele>732</ele>
        <time>2026-05-07T08:56:02.000Z</time>
      </trkpt>
      <trkpt lat="43.59406" lon="2.95924">
        <ele>731.9</ele>
        <time>2026-05-07T08:56:03.000Z</time>
      </trkpt>
      <trkpt lat="43.59406" lon="2.95923">
        <ele>731.8</ele>
        <time>2026-05-07T08:56:04.000Z</time>
      </trkpt>
      <trkpt lat="43.59406" lon="2.95922">
        <ele>731.7</ele>
        <time>2026-05-07T08:56:05.000Z</time>
      </trkpt>
      <trkpt lat="43.59406" lon="2.95922">
        <ele>731.5</ele>
        <time>2026-05-07T08:56:06.000Z</time>
      </trkpt>
      <trkpt lat="43.59406" lon="2.95922">
        <ele>731.5</ele>
        <time>2026-05-07T08:56:07.000Z</time>
      </trkpt>
      <trkpt lat="43.59406" lon="2.95922">
        <ele>731.4</ele>
        <time>2026-05-07T08:56:08.000Z</time>
      </trkpt>
      <trkpt lat="43.59406" lon="2.95922">
        <ele>731.3</ele>
        <time>2026-05-07T08:56:09.000Z</time>
      </trkpt>
      <trkpt lat="43.59404" lon="2.95922">
        <ele>731.4</ele>
        <time>2026-05-07T08:56:10.000Z</time>
      </trkpt>
      <trkpt lat="43.59404" lon="2.95921">
        <ele>731.5</ele>
        <time>2026-05-07T08:56:11.000Z</time>
      </trkpt>
      <trkpt lat="43.59403" lon="2.95921">
        <ele>731.5</ele>
        <time>2026-05-07T08:56:12.000Z</time>
      </trkpt>
      <trkpt lat="43.59403" lon="2.95921">
        <ele>731.8</ele>
        <time>2026-05-07T08:56:13.000Z</time>
      </trkpt>
      <trkpt lat="43.59402" lon="2.95921">
        <ele>732</ele>
        <time>2026-05-07T08:56:14.000Z</time>
      </trkpt>
      <trkpt lat="43.59402" lon="2.9592">
        <ele>731.9</ele>
        <time>2026-05-07T08:56:15.000Z</time>
      </trkpt>
      <trkpt lat="43.59402" lon="2.9592">
        <ele>731.6</ele>
        <time>2026-05-07T08:56:16.000Z</time>
      </trkpt>
      <trkpt lat="43.59402" lon="2.9592">
        <ele>731.6</ele>
        <time>2026-05-07T08:56:17.000Z</time>
      </trkpt>
      <trkpt lat="43.59402" lon="2.9592">
        <ele>731.6</ele>
        <time>2026-05-07T08:56:18.000Z</time>
      </trkpt>
      <trkpt lat="43.59402" lon="2.95921">
        <ele>731.8</ele>
        <time>2026-05-07T08:56:19.000Z</time>
      </trkpt>
      <trkpt lat="43.59402" lon="2.95921">
        <ele>731.8</ele>
        <time>2026-05-07T08:56:20.000Z</time>
      </trkpt>
      <trkpt lat="43.59402" lon="2.95921">
        <ele>731.4</ele>
        <time>2026-05-07T08:56:21.000Z</time>
      </trkpt>
      <trkpt lat="43.59402" lon="2.95921">
        <ele>731.4</ele>
        <time>2026-05-07T08:56:22.000Z</time>
      </trkpt>
      <trkpt lat="43.59402" lon="2.95921">
        <ele>731.3</ele>
        <time>2026-05-07T08:56:23.000Z</time>
      </trkpt>
      <trkpt lat="43.59403" lon="2.95921">
        <ele>731.3</ele>
        <time>2026-05-07T08:56:24.000Z</time>
      </trkpt>
      <trkpt lat="43.59403" lon="2.95921">
        <ele>731.6</ele>
        <time>2026-05-07T08:56:25.000Z</time>
      </trkpt>
      <trkpt lat="43.59403" lon="2.95922">
        <ele>731.5</ele>
        <time>2026-05-07T08:56:26.000Z</time>
      </trkpt>
      <trkpt lat="43.59403" lon="2.95922">
        <ele>731.5</ele>
        <time>2026-05-07T08:56:27.000Z</time>
      </trkpt>
      <trkpt lat="43.59403" lon="2.95922">
        <ele>731.6</ele>
        <time>2026-05-07T08:56:28.000Z</time>
      </trkpt>
      <trkpt lat="43.59403" lon="2.95922">
        <ele>731.5</ele>
        <time>2026-05-07T08:56:29.000Z</time>
      </trkpt>
      <trkpt lat="43.59403" lon="2.95923">
        <ele>731.3</ele>
        <time>2026-05-07T08:56:30.000Z</time>
      </trkpt>
      <trkpt lat="43.59402" lon="2.95923">
        <ele>731.1</ele>
        <time>2026-05-07T08:56:31.000Z</time>
      </trkpt>
      <trkpt lat="43.59403" lon="2.95924">
        <ele>730.9</ele>
        <time>2026-05-07T08:56:32.000Z</time>
      </trkpt>
      <trkpt lat="43.59402" lon="2.95924">
        <ele>730.9</ele>
        <time>2026-05-07T08:56:33.000Z</time>
      </trkpt>
      <trkpt lat="43.59402" lon="2.95924">
        <ele>730.9</ele>
        <time>2026-05-07T08:56:34.000Z</time>
      </trkpt>
      <trkpt lat="43.59402" lon="2.95924">
        <ele>730.9</ele>
        <time>2026-05-07T08:56:35.000Z</time>
      </trkpt>
      <trkpt lat="43.59402" lon="2.95924">
        <ele>731</ele>
        <time>2026-05-07T08:56:36.000Z</time>
      </trkpt>
      <trkpt lat="43.59402" lon="2.95924">
        <ele>731.2</ele>
        <time>2026-05-07T08:56:37.000Z</time>
      </trkpt>
      <trkpt lat="43.59403" lon="2.95924">
        <ele>731.3</ele>
        <time>2026-05-07T08:56:38.000Z</time>
      </trkpt>
      <trkpt lat="43.59403" lon="2.95924">
        <ele>731.4</ele>
        <time>2026-05-07T08:56:39.000Z</time>
      </trkpt>
      <trkpt lat="43.59403" lon="2.95923">
        <ele>731.6</ele>
        <time>2026-05-07T08:56:40.000Z</time>
      </trkpt>
      <trkpt lat="43.59404" lon="2.95923">
        <ele>731.7</ele>
        <time>2026-05-07T08:56:41.000Z</time>
      </trkpt>
      <trkpt lat="43.59404" lon="2.95923">
        <ele>731.5</ele>
        <time>2026-05-07T08:56:42.000Z</time>
      </trkpt>
      <trkpt lat="43.59404" lon="2.95923">
        <ele>731.1</ele>
        <time>2026-05-07T08:56:43.000Z</time>
      </trkpt>
      <trkpt lat="43.59404" lon="2.95923">
        <ele>730.9</ele>
        <time>2026-05-07T08:56:44.000Z</time>
      </trkpt>
      <trkpt lat="43.59403" lon="2.95923">
        <ele>730.7</ele>
        <time>2026-05-07T08:56:45.000Z</time>
      </trkpt>
      <trkpt lat="43.59403" lon="2.95923">
        <ele>730.7</ele>
        <time>2026-05-07T08:56:46.000Z</time>
      </trkpt>
      <trkpt lat="43.59403" lon="2.95923">
        <ele>730.7</ele>
        <time>2026-05-07T08:56:47.000Z</time>
      </trkpt>
      <trkpt lat="43.59403" lon="2.95923">
        <ele>730.6</ele>
        <time>2026-05-07T08:56:48.000Z</time>
      </trkpt>
      <trkpt lat="43.59403" lon="2.95924">
        <ele>730.7</ele>
        <time>2026-05-07T08:56:49.000Z</time>
      </trkpt>
      <trkpt lat="43.59403" lon="2.95924">
        <ele>730.6</ele>
        <time>2026-05-07T08:56:50.000Z</time>
      </trkpt>
      <trkpt lat="43.59403" lon="2.95925">
        <ele>730.8</ele>
        <time>2026-05-07T08:56:51.000Z</time>
      </trkpt>
      <trkpt lat="43.59403" lon="2.95926">
        <ele>731</ele>
        <time>2026-05-07T08:56:52.000Z</time>
      </trkpt>
      <trkpt lat="43.59403" lon="2.95928">
        <ele>731</ele>
        <time>2026-05-07T08:56:53.000Z</time>
      </trkpt>
      <trkpt lat="43.59404" lon="2.95929">
        <ele>731</ele>
        <time>2026-05-07T08:56:54.000Z</time>
      </trkpt>
      <trkpt lat="43.59404" lon="2.95929">
        <ele>731</ele>
        <time>2026-05-07T08:56:55.000Z</time>
      </trkpt>
      <trkpt lat="43.59404" lon="2.95929">
        <ele>731.2</ele>
        <time>2026-05-07T08:56:56.000Z</time>
      </trkpt>
      <trkpt lat="43.59404" lon="2.9593">
        <ele>731.4</ele>
        <time>2026-05-07T08:56:57.000Z</time>
      </trkpt>
      <trkpt lat="43.59404" lon="2.9593">
        <ele>731.8</ele>
        <time>2026-05-07T08:56:58.000Z</time>
      </trkpt>
      <trkpt lat="43.59404" lon="2.9593">
        <ele>731.8</ele>
        <time>2026-05-07T08:56:59.000Z</time>
      </trkpt>
      <trkpt lat="43.59404" lon="2.9593">
        <ele>731.7</ele>
        <time>2026-05-07T08:57:00.000Z</time>
      </trkpt>
      <trkpt lat="43.59404" lon="2.9593">
        <ele>731.8</ele>
        <time>2026-05-07T08:57:01.000Z</time>
      </trkpt>
      <trkpt lat="43.59404" lon="2.9593">
        <ele>731.8</ele>
        <time>2026-05-07T08:57:02.000Z</time>
      </trkpt>
      <trkpt lat="43.59404" lon="2.9593">
        <ele>731.7</ele>
        <time>2026-05-07T08:57:03.000Z</time>
      </trkpt>
      <trkpt lat="43.59404" lon="2.9593">
        <ele>731.7</ele>
        <time>2026-05-07T08:57:04.000Z</time>
      </trkpt>
      <trkpt lat="43.59404" lon="2.9593">
        <ele>732</ele>
        <time>2026-05-07T08:57:05.000Z</time>
      </trkpt>
      <trkpt lat="43.59404" lon="2.95929">
        <ele>732.1</ele>
        <time>2026-05-07T08:57:06.000Z</time>
      </trkpt>
      <trkpt lat="43.59403" lon="2.95929">
        <ele>732</ele>
        <time>2026-05-07T08:57:07.000Z</time>
      </trkpt>
      <trkpt lat="43.59403" lon="2.95929">
        <ele>732.1</ele>
        <time>2026-05-07T08:57:08.000Z</time>
      </trkpt>
      <trkpt lat="43.59402" lon="2.95929">
        <ele>732.6</ele>
        <time>2026-05-07T08:57:09.000Z</time>
      </trkpt>
      <trkpt lat="43.59402" lon="2.95929">
        <ele>732.9</ele>
        <time>2026-05-07T08:57:10.000Z</time>
      </trkpt>
      <trkpt lat="43.59402" lon="2.95929">
        <ele>732.7</ele>
        <time>2026-05-07T08:57:11.000Z</time>
      </trkpt>
      <trkpt lat="43.59402" lon="2.95929">
        <ele>732.8</ele>
        <time>2026-05-07T08:57:12.000Z</time>
      </trkpt>
      <trkpt lat="43.59402" lon="2.95929">
        <ele>732.8</ele>
        <time>2026-05-07T08:57:13.000Z</time>
      </trkpt>
      <trkpt lat="43.59402" lon="2.95929">
        <ele>732.9</ele>
        <time>2026-05-07T08:57:14.000Z</time>
      </trkpt>
      <trkpt lat="43.59403" lon="2.9593">
        <ele>733.1</ele>
        <time>2026-05-07T08:57:15.000Z</time>
      </trkpt>
      <trkpt lat="43.59402" lon="2.9593">
        <ele>733</ele>
        <time>2026-05-07T08:57:16.000Z</time>
      </trkpt>
      <trkpt lat="43.59402" lon="2.95931">
        <ele>732.9</ele>
        <time>2026-05-07T08:57:17.000Z</time>
      </trkpt>
      <trkpt lat="43.59402" lon="2.95931">
        <ele>733.1</ele>
        <time>2026-05-07T08:57:18.000Z</time>
      </trkpt>
      <trkpt lat="43.59402" lon="2.9593">
        <ele>733.4</ele>
        <time>2026-05-07T08:57:19.000Z</time>
      </trkpt>
      <trkpt lat="43.59402" lon="2.9593">
        <ele>733.4</ele>
        <time>2026-05-07T08:57:20.000Z</time>
      </trkpt>
      <trkpt lat="43.59402" lon="2.95931">
        <ele>733.1</ele>
        <time>2026-05-07T08:57:21.000Z</time>
      </trkpt>
      <trkpt lat="43.59401" lon="2.95931">
        <ele>733.3</ele>
        <time>2026-05-07T08:57:22.000Z</time>
      </trkpt>
      <trkpt lat="43.59401" lon="2.95932">
        <ele>733.4</ele>
        <time>2026-05-07T08:57:23.000Z</time>
      </trkpt>
      <trkpt lat="43.594" lon="2.95932">
        <ele>733.7</ele>
        <time>2026-05-07T08:57:24.000Z</time>
      </trkpt>
      <trkpt lat="43.594" lon="2.95932">
        <ele>734.2</ele>
        <time>2026-05-07T08:57:25.000Z</time>
      </trkpt>
      <trkpt lat="43.594" lon="2.95932">
        <ele>734.3</ele>
        <time>2026-05-07T08:57:26.000Z</time>
      </trkpt>
      <trkpt lat="43.59399" lon="2.95933">
        <ele>734.3</ele>
        <time>2026-05-07T08:57:27.000Z</time>
      </trkpt>
      <trkpt lat="43.59399" lon="2.95933">
        <ele>734.4</ele>
        <time>2026-05-07T08:57:28.000Z</time>
      </trkpt>
      <trkpt lat="43.59399" lon="2.95933">
        <ele>734.4</ele>
        <time>2026-05-07T08:57:29.000Z</time>
      </trkpt>
      <trkpt lat="43.59399" lon="2.95933">
        <ele>734.5</ele>
        <time>2026-05-07T08:57:30.000Z</time>
      </trkpt>
      <trkpt lat="43.59399" lon="2.95934">
        <ele>734.7</ele>
        <time>2026-05-07T08:57:31.000Z</time>
      </trkpt>
      <trkpt lat="43.59399" lon="2.95935">
        <ele>735</ele>
        <time>2026-05-07T08:57:32.000Z</time>
      </trkpt>
      <trkpt lat="43.59398" lon="2.95934">
        <ele>735.3</ele>
        <time>2026-05-07T08:57:33.000Z</time>
      </trkpt>
      <trkpt lat="43.59397" lon="2.95935">
        <ele>735.5</ele>
        <time>2026-05-07T08:57:34.000Z</time>
      </trkpt>
      <trkpt lat="43.59397" lon="2.95936">
        <ele>735.5</ele>
        <time>2026-05-07T08:57:35.000Z</time>
      </trkpt>
      <trkpt lat="43.59397" lon="2.95937">
        <ele>735.4</ele>
        <time>2026-05-07T08:57:36.000Z</time>
      </trkpt>
      <trkpt lat="43.59397" lon="2.95937">
        <ele>735.5</ele>
        <time>2026-05-07T08:57:37.000Z</time>
      </trkpt>
      <trkpt lat="43.59397" lon="2.95937">
        <ele>735.6</ele>
        <time>2026-05-07T08:57:38.000Z</time>
      </trkpt>
      <trkpt lat="43.59397" lon="2.95936">
        <ele>735.8</ele>
        <time>2026-05-07T08:57:39.000Z</time>
      </trkpt>
      <trkpt lat="43.59396" lon="2.95936">
        <ele>736</ele>
        <time>2026-05-07T08:57:40.000Z</time>
      </trkpt>
      <trkpt lat="43.59396" lon="2.95936">
        <ele>736</ele>
        <time>2026-05-07T08:57:41.000Z</time>
      </trkpt>
      <trkpt lat="43.59396" lon="2.95937">
        <ele>736.2</ele>
        <time>2026-05-07T08:57:42.000Z</time>
      </trkpt>
      <trkpt lat="43.59396" lon="2.95937">
        <ele>736</ele>
        <time>2026-05-07T08:57:43.000Z</time>
      </trkpt>
      <trkpt lat="43.59395" lon="2.95937">
        <ele>735.8</ele>
        <time>2026-05-07T08:57:44.000Z</time>
      </trkpt>
      <trkpt lat="43.59395" lon="2.95936">
        <ele>735.8</ele>
        <time>2026-05-07T08:57:45.000Z</time>
      </trkpt>
      <trkpt lat="43.59395" lon="2.95936">
        <ele>735.8</ele>
        <time>2026-05-07T08:57:46.000Z</time>
      </trkpt>
      <trkpt lat="43.59395" lon="2.95936">
        <ele>735.9</ele>
        <time>2026-05-07T08:57:47.000Z</time>
      </trkpt>
      <trkpt lat="43.59394" lon="2.95936">
        <ele>736</ele>
        <time>2026-05-07T08:57:48.000Z</time>
      </trkpt>
      <trkpt lat="43.59394" lon="2.95937">
        <ele>736.1</ele>
        <time>2026-05-07T08:57:49.000Z</time>
      </trkpt>
      <trkpt lat="43.59394" lon="2.95936">
        <ele>736.2</ele>
        <time>2026-05-07T08:57:50.000Z</time>
      </trkpt>
      <trkpt lat="43.59394" lon="2.95936">
        <ele>736.1</ele>
        <time>2026-05-07T08:57:51.000Z</time>
      </trkpt>
      <trkpt lat="43.59393" lon="2.95936">
        <ele>736.2</ele>
        <time>2026-05-07T08:57:52.000Z</time>
      </trkpt>
      <trkpt lat="43.59394" lon="2.95936">
        <ele>736.3</ele>
        <time>2026-05-07T08:57:53.000Z</time>
      </trkpt>
      <trkpt lat="43.59394" lon="2.95937">
        <ele>736.4</ele>
        <time>2026-05-07T08:57:54.000Z</time>
      </trkpt>
      <trkpt lat="43.59394" lon="2.95937">
        <ele>737.1</ele>
        <time>2026-05-07T08:57:55.000Z</time>
      </trkpt>
      <trkpt lat="43.59394" lon="2.95937">
        <ele>737.3</ele>
        <time>2026-05-07T08:57:56.000Z</time>
      </trkpt>
      <trkpt lat="43.59394" lon="2.95937">
        <ele>737.5</ele>
        <time>2026-05-07T08:57:57.000Z</time>
      </trkpt>
      <trkpt lat="43.59394" lon="2.95937">
        <ele>737.4</ele>
        <time>2026-05-07T08:57:58.000Z</time>
      </trkpt>
      <trkpt lat="43.59394" lon="2.95938">
        <ele>737.6</ele>
        <time>2026-05-07T08:57:59.000Z</time>
      </trkpt>
      <trkpt lat="43.59394" lon="2.95938">
        <ele>738</ele>
        <time>2026-05-07T08:58:00.000Z</time>
      </trkpt>
      <trkpt lat="43.59393" lon="2.95939">
        <ele>738.2</ele>
        <time>2026-05-07T08:58:01.000Z</time>
      </trkpt>
      <trkpt lat="43.59393" lon="2.95939">
        <ele>738.2</ele>
        <time>2026-05-07T08:58:02.000Z</time>
      </trkpt>
      <trkpt lat="43.59393" lon="2.9594">
        <ele>738.5</ele>
        <time>2026-05-07T08:58:03.000Z</time>
      </trkpt>
      <trkpt lat="43.59392" lon="2.95941">
        <ele>738.7</ele>
        <time>2026-05-07T08:58:04.000Z</time>
      </trkpt>
      <trkpt lat="43.59393" lon="2.9594">
        <ele>739.3</ele>
        <time>2026-05-07T08:58:05.000Z</time>
      </trkpt>
      <trkpt lat="43.59393" lon="2.95941">
        <ele>739.3</ele>
        <time>2026-05-07T08:58:06.000Z</time>
      </trkpt>
      <trkpt lat="43.59393" lon="2.95941">
        <ele>739.1</ele>
        <time>2026-05-07T08:58:07.000Z</time>
      </trkpt>
      <trkpt lat="43.59393" lon="2.9594">
        <ele>739.1</ele>
        <time>2026-05-07T08:58:08.000Z</time>
      </trkpt>
      <trkpt lat="43.59393" lon="2.95941">
        <ele>738.9</ele>
        <time>2026-05-07T08:58:09.000Z</time>
      </trkpt>
      <trkpt lat="43.59393" lon="2.95941">
        <ele>739</ele>
        <time>2026-05-07T08:58:10.000Z</time>
      </trkpt>
      <trkpt lat="43.59393" lon="2.95941">
        <ele>739</ele>
        <time>2026-05-07T08:58:11.000Z</time>
      </trkpt>
      <trkpt lat="43.59393" lon="2.95941">
        <ele>739</ele>
        <time>2026-05-07T08:58:12.000Z</time>
      </trkpt>
      <trkpt lat="43.59392" lon="2.95942">
        <ele>738.9</ele>
        <time>2026-05-07T08:58:13.000Z</time>
      </trkpt>
      <trkpt lat="43.59392" lon="2.95941">
        <ele>738.8</ele>
        <time>2026-05-07T08:58:14.000Z</time>
      </trkpt>
      <trkpt lat="43.59391" lon="2.95942">
        <ele>738.6</ele>
        <time>2026-05-07T08:58:15.000Z</time>
      </trkpt>
      <trkpt lat="43.5939" lon="2.95942">
        <ele>739.1</ele>
        <time>2026-05-07T08:58:16.000Z</time>
      </trkpt>
      <trkpt lat="43.59389" lon="2.95942">
        <ele>739.5</ele>
        <time>2026-05-07T08:58:17.000Z</time>
      </trkpt>
      <trkpt lat="43.59389" lon="2.95942">
        <ele>740</ele>
        <time>2026-05-07T08:58:18.000Z</time>
      </trkpt>
      <trkpt lat="43.59389" lon="2.95942">
        <ele>740.3</ele>
        <time>2026-05-07T08:58:19.000Z</time>
      </trkpt>
      <trkpt lat="43.59389" lon="2.95941">
        <ele>740.4</ele>
        <time>2026-05-07T08:58:20.000Z</time>
      </trkpt>
      <trkpt lat="43.59389" lon="2.9594">
        <ele>740.8</ele>
        <time>2026-05-07T08:58:21.000Z</time>
      </trkpt>
      <trkpt lat="43.59389" lon="2.9594">
        <ele>739.5</ele>
        <time>2026-05-07T08:58:22.000Z</time>
      </trkpt>
      <trkpt lat="43.5939" lon="2.95939">
        <ele>740.1</ele>
        <time>2026-05-07T08:58:23.000Z</time>
      </trkpt>
      <trkpt lat="43.59391" lon="2.95937">
        <ele>740.1</ele>
        <time>2026-05-07T08:58:24.000Z</time>
      </trkpt>
      <trkpt lat="43.59391" lon="2.95936">
        <ele>740.1</ele>
        <time>2026-05-07T08:58:25.000Z</time>
      </trkpt>
      <trkpt lat="43.59391" lon="2.95935">
        <ele>740.6</ele>
        <time>2026-05-07T08:58:26.000Z</time>
      </trkpt>
      <trkpt lat="43.59392" lon="2.95934">
        <ele>741.4</ele>
        <time>2026-05-07T08:58:27.000Z</time>
      </trkpt>
      <trkpt lat="43.59392" lon="2.95932">
        <ele>742.2</ele>
        <time>2026-05-07T08:58:28.000Z</time>
      </trkpt>
      <trkpt lat="43.59391" lon="2.95931">
        <ele>743.4</ele>
        <time>2026-05-07T08:58:29.000Z</time>
      </trkpt>
      <trkpt lat="43.5939" lon="2.9593">
        <ele>744.6</ele>
        <time>2026-05-07T08:58:30.000Z</time>
      </trkpt>
      <trkpt lat="43.5939" lon="2.95929">
        <ele>745.3</ele>
        <time>2026-05-07T08:58:31.000Z</time>
      </trkpt>
      <trkpt lat="43.5939" lon="2.9593">
        <ele>746.5</ele>
        <time>2026-05-07T08:58:32.000Z</time>
      </trkpt>
      <trkpt lat="43.59387" lon="2.9593">
        <ele>746.4</ele>
        <time>2026-05-07T08:58:33.000Z</time>
      </trkpt>
      <trkpt lat="43.59385" lon="2.95931">
        <ele>745.8</ele>
        <time>2026-05-07T08:58:34.000Z</time>
      </trkpt>
      <trkpt lat="43.59382" lon="2.9593">
        <ele>745.9</ele>
        <time>2026-05-07T08:58:35.000Z</time>
      </trkpt>
      <trkpt lat="43.59381" lon="2.9593">
        <ele>746</ele>
        <time>2026-05-07T08:58:36.000Z</time>
      </trkpt>
      <trkpt lat="43.5938" lon="2.9593">
        <ele>746.4</ele>
        <time>2026-05-07T08:58:37.000Z</time>
      </trkpt>
      <trkpt lat="43.59379" lon="2.95931">
        <ele>745.5</ele>
        <time>2026-05-07T08:58:38.000Z</time>
      </trkpt>
      <trkpt lat="43.59378" lon="2.9593">
        <ele>745.4</ele>
        <time>2026-05-07T08:58:39.000Z</time>
      </trkpt>
      <trkpt lat="43.59376" lon="2.9593">
        <ele>745.5</ele>
        <time>2026-05-07T08:58:41.000Z</time>
      </trkpt>
      <trkpt lat="43.59375" lon="2.95931">
        <ele>745.9</ele>
        <time>2026-05-07T08:58:42.000Z</time>
      </trkpt>
      <trkpt lat="43.59373" lon="2.95931">
        <ele>746.9</ele>
        <time>2026-05-07T08:58:43.000Z</time>
      </trkpt>
      <trkpt lat="43.59372" lon="2.9593">
        <ele>747.5</ele>
        <time>2026-05-07T08:58:44.000Z</time>
      </trkpt>
      <trkpt lat="43.59372" lon="2.95929">
        <ele>748.2</ele>
        <time>2026-05-07T08:58:45.000Z</time>
      </trkpt>
      <trkpt lat="43.59373" lon="2.95932">
        <ele>748.4</ele>
        <time>2026-05-07T08:58:46.000Z</time>
      </trkpt>
      <trkpt lat="43.59373" lon="2.95932">
        <ele>741.3</ele>
        <time>2026-05-07T08:58:47.000Z</time>
      </trkpt>
      <trkpt lat="43.59374" lon="2.95932">
        <ele>741.4</ele>
        <time>2026-05-07T08:58:48.000Z</time>
      </trkpt>
      <trkpt lat="43.59374" lon="2.95933">
        <ele>741.5</ele>
        <time>2026-05-07T08:58:49.000Z</time>
      </trkpt>
      <trkpt lat="43.59374" lon="2.95933">
        <ele>741.8</ele>
        <time>2026-05-07T08:58:50.000Z</time>
      </trkpt>
      <trkpt lat="43.59374" lon="2.95933">
        <ele>742.1</ele>
        <time>2026-05-07T08:58:51.000Z</time>
      </trkpt>
      <trkpt lat="43.59374" lon="2.95935">
        <ele>742.8</ele>
        <time>2026-05-07T08:58:52.000Z</time>
      </trkpt>
      <trkpt lat="43.59374" lon="2.95937">
        <ele>743</ele>
        <time>2026-05-07T08:58:53.000Z</time>
      </trkpt>
      <trkpt lat="43.59374" lon="2.95938">
        <ele>743.7</ele>
        <time>2026-05-07T08:58:54.000Z</time>
      </trkpt>
      <trkpt lat="43.59374" lon="2.95939">
        <ele>743.9</ele>
        <time>2026-05-07T08:58:55.000Z</time>
      </trkpt>
      <trkpt lat="43.59373" lon="2.9594">
        <ele>744</ele>
        <time>2026-05-07T08:58:56.000Z</time>
      </trkpt>
      <trkpt lat="43.59373" lon="2.95941">
        <ele>743.9</ele>
        <time>2026-05-07T08:58:57.000Z</time>
      </trkpt>
      <trkpt lat="43.59374" lon="2.95941">
        <ele>743.9</ele>
        <time>2026-05-07T08:58:58.000Z</time>
      </trkpt>
      <trkpt lat="43.59375" lon="2.95941">
        <ele>744.1</ele>
        <time>2026-05-07T08:59:00.000Z</time>
      </trkpt>
      <trkpt lat="43.59376" lon="2.9594">
        <ele>744.7</ele>
        <time>2026-05-07T08:59:01.000Z</time>
      </trkpt>
      <trkpt lat="43.59376" lon="2.95941">
        <ele>745.1</ele>
        <time>2026-05-07T08:59:02.000Z</time>
      </trkpt>
      <trkpt lat="43.59376" lon="2.95942">
        <ele>745.4</ele>
        <time>2026-05-07T08:59:03.000Z</time>
      </trkpt>
      <trkpt lat="43.59376" lon="2.95942">
        <ele>745.6</ele>
        <time>2026-05-07T08:59:04.000Z</time>
      </trkpt>
      <trkpt lat="43.59376" lon="2.95942">
        <ele>745.8</ele>
        <time>2026-05-07T08:59:05.000Z</time>
      </trkpt>
      <trkpt lat="43.59376" lon="2.95942">
        <ele>746.1</ele>
        <time>2026-05-07T08:59:06.000Z</time>
      </trkpt>
      <trkpt lat="43.59376" lon="2.95943">
        <ele>746.2</ele>
        <time>2026-05-07T08:59:07.000Z</time>
      </trkpt>
      <trkpt lat="43.59376" lon="2.95944">
        <ele>746.5</ele>
        <time>2026-05-07T08:59:08.000Z</time>
      </trkpt>
      <trkpt lat="43.59376" lon="2.95945">
        <ele>745.9</ele>
        <time>2026-05-07T08:59:09.000Z</time>
      </trkpt>
      <trkpt lat="43.59376" lon="2.95948">
        <ele>746.3</ele>
        <time>2026-05-07T08:59:10.000Z</time>
      </trkpt>
      <trkpt lat="43.59377" lon="2.95951">
        <ele>746.8</ele>
        <time>2026-05-07T08:59:11.000Z</time>
      </trkpt>
      <trkpt lat="43.59378" lon="2.95953">
        <ele>746.6</ele>
        <time>2026-05-07T08:59:12.000Z</time>
      </trkpt>
      <trkpt lat="43.59378" lon="2.95954">
        <ele>746.3</ele>
        <time>2026-05-07T08:59:13.000Z</time>
      </trkpt>
      <trkpt lat="43.59378" lon="2.95956">
        <ele>746.8</ele>
        <time>2026-05-07T08:59:14.000Z</time>
      </trkpt>
      <trkpt lat="43.59378" lon="2.95958">
        <ele>747</ele>
        <time>2026-05-07T08:59:15.000Z</time>
      </trkpt>
      <trkpt lat="43.59377" lon="2.95958">
        <ele>746.7</ele>
        <time>2026-05-07T08:59:16.000Z</time>
      </trkpt>
      <trkpt lat="43.59377" lon="2.95959">
        <ele>746.5</ele>
        <time>2026-05-07T08:59:17.000Z</time>
      </trkpt>
      <trkpt lat="43.59376" lon="2.9596">
        <ele>746.9</ele>
        <time>2026-05-07T08:59:18.000Z</time>
      </trkpt>
      <trkpt lat="43.59376" lon="2.95962">
        <ele>747</ele>
        <time>2026-05-07T08:59:19.000Z</time>
      </trkpt>
      <trkpt lat="43.59376" lon="2.95963">
        <ele>746.7</ele>
        <time>2026-05-07T08:59:20.000Z</time>
      </trkpt>
      <trkpt lat="43.59376" lon="2.95964">
        <ele>746.7</ele>
        <time>2026-05-07T08:59:21.000Z</time>
      </trkpt>
      <trkpt lat="43.59377" lon="2.95967">
        <ele>746.8</ele>
        <time>2026-05-07T08:59:22.000Z</time>
      </trkpt>
      <trkpt lat="43.59376" lon="2.95968">
        <ele>747.1</ele>
        <time>2026-05-07T08:59:23.000Z</time>
      </trkpt>
      <trkpt lat="43.59376" lon="2.95969">
        <ele>747.2</ele>
        <time>2026-05-07T08:59:24.000Z</time>
      </trkpt>
      <trkpt lat="43.59376" lon="2.9597">
        <ele>747.6</ele>
        <time>2026-05-07T08:59:25.000Z</time>
      </trkpt>
      <trkpt lat="43.59377" lon="2.9597">
        <ele>748</ele>
        <time>2026-05-07T08:59:26.000Z</time>
      </trkpt>
      <trkpt lat="43.59377" lon="2.95972">
        <ele>747.7</ele>
        <time>2026-05-07T08:59:27.000Z</time>
      </trkpt>
      <trkpt lat="43.59377" lon="2.95973">
        <ele>747.3</ele>
        <time>2026-05-07T08:59:28.000Z</time>
      </trkpt>
      <trkpt lat="43.59377" lon="2.95973">
        <ele>747.1</ele>
        <time>2026-05-07T08:59:29.000Z</time>
      </trkpt>
      <trkpt lat="43.59377" lon="2.95973">
        <ele>746.7</ele>
        <time>2026-05-07T08:59:30.000Z</time>
      </trkpt>
      <trkpt lat="43.59378" lon="2.95973">
        <ele>746.3</ele>
        <time>2026-05-07T08:59:31.000Z</time>
      </trkpt>
      <trkpt lat="43.59378" lon="2.95973">
        <ele>746.4</ele>
        <time>2026-05-07T08:59:32.000Z</time>
      </trkpt>
      <trkpt lat="43.59376" lon="2.95971">
        <ele>746.8</ele>
        <time>2026-05-07T08:59:33.000Z</time>
      </trkpt>
      <trkpt lat="43.59377" lon="2.95973">
        <ele>746.1</ele>
        <time>2026-05-07T08:59:34.000Z</time>
      </trkpt>
      <trkpt lat="43.59376" lon="2.95972">
        <ele>746.6</ele>
        <time>2026-05-07T08:59:35.000Z</time>
      </trkpt>
      <trkpt lat="43.59375" lon="2.95973">
        <ele>746.2</ele>
        <time>2026-05-07T08:59:36.000Z</time>
      </trkpt>
      <trkpt lat="43.59375" lon="2.95973">
        <ele>745.7</ele>
        <time>2026-05-07T08:59:37.000Z</time>
      </trkpt>
      <trkpt lat="43.59374" lon="2.95973">
        <ele>746.1</ele>
        <time>2026-05-07T08:59:38.000Z</time>
      </trkpt>
      <trkpt lat="43.59374" lon="2.95973">
        <ele>747</ele>
        <time>2026-05-07T08:59:39.000Z</time>
      </trkpt>
      <trkpt lat="43.59374" lon="2.95973">
        <ele>746.8</ele>
        <time>2026-05-07T08:59:40.000Z</time>
      </trkpt>
      <trkpt lat="43.59374" lon="2.95973">
        <ele>746.8</ele>
        <time>2026-05-07T08:59:41.000Z</time>
      </trkpt>
      <trkpt lat="43.59373" lon="2.95973">
        <ele>747</ele>
        <time>2026-05-07T08:59:42.000Z</time>
      </trkpt>
      <trkpt lat="43.59372" lon="2.95972">
        <ele>747.2</ele>
        <time>2026-05-07T08:59:43.000Z</time>
      </trkpt>
      <trkpt lat="43.5937" lon="2.95972">
        <ele>747</ele>
        <time>2026-05-07T08:59:44.000Z</time>
      </trkpt>
      <trkpt lat="43.59369" lon="2.95972">
        <ele>746.8</ele>
        <time>2026-05-07T08:59:45.000Z</time>
      </trkpt>
      <trkpt lat="43.59368" lon="2.95972">
        <ele>747</ele>
        <time>2026-05-07T08:59:46.000Z</time>
      </trkpt>
      <trkpt lat="43.59368" lon="2.95972">
        <ele>746.9</ele>
        <time>2026-05-07T08:59:47.000Z</time>
      </trkpt>
      <trkpt lat="43.59367" lon="2.95972">
        <ele>746.6</ele>
        <time>2026-05-07T08:59:48.000Z</time>
      </trkpt>
      <trkpt lat="43.59367" lon="2.95972">
        <ele>747</ele>
        <time>2026-05-07T08:59:49.000Z</time>
      </trkpt>
      <trkpt lat="43.59366" lon="2.95972">
        <ele>747.7</ele>
        <time>2026-05-07T08:59:50.000Z</time>
      </trkpt>
      <trkpt lat="43.59365" lon="2.95973">
        <ele>748</ele>
        <time>2026-05-07T08:59:51.000Z</time>
      </trkpt>
      <trkpt lat="43.59365" lon="2.95973">
        <ele>748.2</ele>
        <time>2026-05-07T08:59:52.000Z</time>
      </trkpt>
      <trkpt lat="43.59365" lon="2.95973">
        <ele>748.3</ele>
        <time>2026-05-07T08:59:53.000Z</time>
      </trkpt>
      <trkpt lat="43.59365" lon="2.95974">
        <ele>748.8</ele>
        <time>2026-05-07T08:59:54.000Z</time>
      </trkpt>
      <trkpt lat="43.59366" lon="2.95975">
        <ele>749.3</ele>
        <time>2026-05-07T08:59:56.000Z</time>
      </trkpt>
      <trkpt lat="43.59366" lon="2.95975">
        <ele>749.6</ele>
        <time>2026-05-07T08:59:57.000Z</time>
      </trkpt>
      <trkpt lat="43.59366" lon="2.95975">
        <ele>749.3</ele>
        <time>2026-05-07T08:59:58.000Z</time>
      </trkpt>
      <trkpt lat="43.59366" lon="2.95975">
        <ele>749.1</ele>
        <time>2026-05-07T08:59:59.000Z</time>
      </trkpt>
      <trkpt lat="43.59366" lon="2.95975">
        <ele>749.3</ele>
        <time>2026-05-07T09:00:00.000Z</time>
      </trkpt>
      <trkpt lat="43.59366" lon="2.95975">
        <ele>749.2</ele>
        <time>2026-05-07T09:00:01.000Z</time>
      </trkpt>
      <trkpt lat="43.59366" lon="2.95975">
        <ele>749.1</ele>
        <time>2026-05-07T09:00:02.000Z</time>
      </trkpt>
      <trkpt lat="43.59366" lon="2.95975">
        <ele>749.1</ele>
        <time>2026-05-07T09:00:03.000Z</time>
      </trkpt>
      <trkpt lat="43.59366" lon="2.95975">
        <ele>749.4</ele>
        <time>2026-05-07T09:00:04.000Z</time>
      </trkpt>
      <trkpt lat="43.59365" lon="2.95976">
        <ele>749.5</ele>
        <time>2026-05-07T09:00:05.000Z</time>
      </trkpt>
      <trkpt lat="43.59364" lon="2.95976">
        <ele>749.7</ele>
        <time>2026-05-07T09:00:06.000Z</time>
      </trkpt>
      <trkpt lat="43.59364" lon="2.95976">
        <ele>749.7</ele>
        <time>2026-05-07T09:00:07.000Z</time>
      </trkpt>
      <trkpt lat="43.59363" lon="2.95976">
        <ele>749.8</ele>
        <time>2026-05-07T09:00:08.000Z</time>
      </trkpt>
      <trkpt lat="43.59362" lon="2.95975">
        <ele>749.7</ele>
        <time>2026-05-07T09:00:09.000Z</time>
      </trkpt>
      <trkpt lat="43.59362" lon="2.95975">
        <ele>749.9</ele>
        <time>2026-05-07T09:00:10.000Z</time>
      </trkpt>
      <trkpt lat="43.59362" lon="2.95975">
        <ele>750</ele>
        <time>2026-05-07T09:00:12.000Z</time>
      </trkpt>
      <trkpt lat="43.59362" lon="2.95975">
        <ele>749.8</ele>
        <time>2026-05-07T09:00:13.000Z</time>
      </trkpt>
      <trkpt lat="43.59362" lon="2.95975">
        <ele>750</ele>
        <time>2026-05-07T09:00:14.000Z</time>
      </trkpt>
      <trkpt lat="43.59362" lon="2.95975">
        <ele>749.9</ele>
        <time>2026-05-07T09:00:15.000Z</time>
      </trkpt>
      <trkpt lat="43.59362" lon="2.95976">
        <ele>749.7</ele>
        <time>2026-05-07T09:00:16.000Z</time>
      </trkpt>
      <trkpt lat="43.59362" lon="2.95975">
        <ele>749.8</ele>
        <time>2026-05-07T09:00:17.000Z</time>
      </trkpt>
      <trkpt lat="43.59362" lon="2.95976">
        <ele>749.9</ele>
        <time>2026-05-07T09:00:18.000Z</time>
      </trkpt>
      <trkpt lat="43.59362" lon="2.95976">
        <ele>750</ele>
        <time>2026-05-07T09:00:19.000Z</time>
      </trkpt>
      <trkpt lat="43.59362" lon="2.95977">
        <ele>750.1</ele>
        <time>2026-05-07T09:00:20.000Z</time>
      </trkpt>
      <trkpt lat="43.59362" lon="2.95977">
        <ele>750.3</ele>
        <time>2026-05-07T09:00:21.000Z</time>
      </trkpt>
      <trkpt lat="43.59362" lon="2.95977">
        <ele>750.2</ele>
        <time>2026-05-07T09:00:22.000Z</time>
      </trkpt>
      <trkpt lat="43.59362" lon="2.95977">
        <ele>750.4</ele>
        <time>2026-05-07T09:00:23.000Z</time>
      </trkpt>
      <trkpt lat="43.59362" lon="2.95977">
        <ele>750.4</ele>
        <time>2026-05-07T09:00:24.000Z</time>
      </trkpt>
      <trkpt lat="43.59362" lon="2.95977">
        <ele>750.6</ele>
        <time>2026-05-07T09:00:25.000Z</time>
      </trkpt>
      <trkpt lat="43.59361" lon="2.95976">
        <ele>750.7</ele>
        <time>2026-05-07T09:00:26.000Z</time>
      </trkpt>
      <trkpt lat="43.59361" lon="2.95975">
        <ele>750.8</ele>
        <time>2026-05-07T09:00:27.000Z</time>
      </trkpt>
      <trkpt lat="43.59361" lon="2.95975">
        <ele>751.1</ele>
        <time>2026-05-07T09:00:28.000Z</time>
      </trkpt>
      <trkpt lat="43.59361" lon="2.95975">
        <ele>751.2</ele>
        <time>2026-05-07T09:00:29.000Z</time>
      </trkpt>
      <trkpt lat="43.59361" lon="2.95975">
        <ele>751.6</ele>
        <time>2026-05-07T09:00:30.000Z</time>
      </trkpt>
      <trkpt lat="43.59361" lon="2.95976">
        <ele>751.5</ele>
        <time>2026-05-07T09:00:31.000Z</time>
      </trkpt>
      <trkpt lat="43.59362" lon="2.95976">
        <ele>751.5</ele>
        <time>2026-05-07T09:00:32.000Z</time>
      </trkpt>
      <trkpt lat="43.59362" lon="2.95977">
        <ele>751.5</ele>
        <time>2026-05-07T09:00:33.000Z</time>
      </trkpt>
      <trkpt lat="43.59362" lon="2.95977">
        <ele>751.5</ele>
        <time>2026-05-07T09:00:34.000Z</time>
      </trkpt>
      <trkpt lat="43.59363" lon="2.95978">
        <ele>752.1</ele>
        <time>2026-05-07T09:00:35.000Z</time>
      </trkpt>
      <trkpt lat="43.59363" lon="2.95979">
        <ele>752.3</ele>
        <time>2026-05-07T09:00:36.000Z</time>
      </trkpt>
      <trkpt lat="43.59364" lon="2.95981">
        <ele>752.9</ele>
        <time>2026-05-07T09:00:37.000Z</time>
      </trkpt>
      <trkpt lat="43.59364" lon="2.95982">
        <ele>753.4</ele>
        <time>2026-05-07T09:00:38.000Z</time>
      </trkpt>
      <trkpt lat="43.59364" lon="2.95983">
        <ele>753.5</ele>
        <time>2026-05-07T09:00:39.000Z</time>
      </trkpt>
      <trkpt lat="43.59365" lon="2.95984">
        <ele>753.6</ele>
        <time>2026-05-07T09:00:40.000Z</time>
      </trkpt>
      <trkpt lat="43.59366" lon="2.95984">
        <ele>753.6</ele>
        <time>2026-05-07T09:00:41.000Z</time>
      </trkpt>
      <trkpt lat="43.59366" lon="2.95985">
        <ele>754.1</ele>
        <time>2026-05-07T09:00:42.000Z</time>
      </trkpt>
      <trkpt lat="43.59366" lon="2.95985">
        <ele>754.4</ele>
        <time>2026-05-07T09:00:43.000Z</time>
      </trkpt>
      <trkpt lat="43.59367" lon="2.95986">
        <ele>754.1</ele>
        <time>2026-05-07T09:00:44.000Z</time>
      </trkpt>
      <trkpt lat="43.59367" lon="2.95985">
        <ele>754.2</ele>
        <time>2026-05-07T09:00:45.000Z</time>
      </trkpt>
      <trkpt lat="43.59367" lon="2.95986">
        <ele>754.7</ele>
        <time>2026-05-07T09:00:46.000Z</time>
      </trkpt>
      <trkpt lat="43.59367" lon="2.95986">
        <ele>754.8</ele>
        <time>2026-05-07T09:00:47.000Z</time>
      </trkpt>
      <trkpt lat="43.59368" lon="2.95987">
        <ele>755</ele>
        <time>2026-05-07T09:00:48.000Z</time>
      </trkpt>
      <trkpt lat="43.59368" lon="2.95987">
        <ele>755.8</ele>
        <time>2026-05-07T09:00:49.000Z</time>
      </trkpt>
      <trkpt lat="43.59369" lon="2.95986">
        <ele>756</ele>
        <time>2026-05-07T09:00:50.000Z</time>
      </trkpt>
      <trkpt lat="43.59369" lon="2.95987">
        <ele>756.4</ele>
        <time>2026-05-07T09:00:51.000Z</time>
      </trkpt>
      <trkpt lat="43.5937" lon="2.95987">
        <ele>756.5</ele>
        <time>2026-05-07T09:00:52.000Z</time>
      </trkpt>
      <trkpt lat="43.59371" lon="2.95988">
        <ele>756.6</ele>
        <time>2026-05-07T09:00:53.000Z</time>
      </trkpt>
      <trkpt lat="43.59371" lon="2.95988">
        <ele>757.4</ele>
        <time>2026-05-07T09:00:54.000Z</time>
      </trkpt>
      <trkpt lat="43.59372" lon="2.95989">
        <ele>757.6</ele>
        <time>2026-05-07T09:00:55.000Z</time>
      </trkpt>
      <trkpt lat="43.59372" lon="2.95989">
        <ele>758</ele>
        <time>2026-05-07T09:00:56.000Z</time>
      </trkpt>
      <trkpt lat="43.59374" lon="2.95989">
        <ele>758.1</ele>
        <time>2026-05-07T09:00:57.000Z</time>
      </trkpt>
      <trkpt lat="43.59373" lon="2.95988">
        <ele>758.1</ele>
        <time>2026-05-07T09:00:58.000Z</time>
      </trkpt>
      <trkpt lat="43.59375" lon="2.95988">
        <ele>758</ele>
        <time>2026-05-07T09:00:59.000Z</time>
      </trkpt>
      <trkpt lat="43.59376" lon="2.95988">
        <ele>757.9</ele>
        <time>2026-05-07T09:01:00.000Z</time>
      </trkpt>
      <trkpt lat="43.59376" lon="2.95987">
        <ele>758.2</ele>
        <time>2026-05-07T09:01:01.000Z</time>
      </trkpt>
      <trkpt lat="43.59377" lon="2.95988">
        <ele>758.3</ele>
        <time>2026-05-07T09:01:02.000Z</time>
      </trkpt>
      <trkpt lat="43.59378" lon="2.95988">
        <ele>758.5</ele>
        <time>2026-05-07T09:01:03.000Z</time>
      </trkpt>
      <trkpt lat="43.59378" lon="2.95989">
        <ele>757.9</ele>
        <time>2026-05-07T09:01:04.000Z</time>
      </trkpt>
      <trkpt lat="43.59379" lon="2.95988">
        <ele>758.2</ele>
        <time>2026-05-07T09:01:05.000Z</time>
      </trkpt>
      <trkpt lat="43.59379" lon="2.95988">
        <ele>758.3</ele>
        <time>2026-05-07T09:01:06.000Z</time>
      </trkpt>
      <trkpt lat="43.59379" lon="2.95988">
        <ele>759.2</ele>
        <time>2026-05-07T09:01:07.000Z</time>
      </trkpt>
      <trkpt lat="43.59379" lon="2.95988">
        <ele>759.6</ele>
        <time>2026-05-07T09:01:08.000Z</time>
      </trkpt>
      <trkpt lat="43.5938" lon="2.95987">
        <ele>760</ele>
        <time>2026-05-07T09:01:09.000Z</time>
      </trkpt>
      <trkpt lat="43.5938" lon="2.95986">
        <ele>760</ele>
        <time>2026-05-07T09:01:10.000Z</time>
      </trkpt>
      <trkpt lat="43.5938" lon="2.95986">
        <ele>760.7</ele>
        <time>2026-05-07T09:01:11.000Z</time>
      </trkpt>
      <trkpt lat="43.5938" lon="2.95985">
        <ele>761.1</ele>
        <time>2026-05-07T09:01:12.000Z</time>
      </trkpt>
      <trkpt lat="43.59381" lon="2.95986">
        <ele>760.6</ele>
        <time>2026-05-07T09:01:13.000Z</time>
      </trkpt>
      <trkpt lat="43.5938" lon="2.95988">
        <ele>758.8</ele>
        <time>2026-05-07T09:01:14.000Z</time>
      </trkpt>
      <trkpt lat="43.5938" lon="2.95988">
        <ele>758.3</ele>
        <time>2026-05-07T09:01:15.000Z</time>
      </trkpt>
      <trkpt lat="43.5938" lon="2.95988">
        <ele>757.3</ele>
        <time>2026-05-07T09:01:16.000Z</time>
      </trkpt>
      <trkpt lat="43.5938" lon="2.95988">
        <ele>756.7</ele>
        <time>2026-05-07T09:01:17.000Z</time>
      </trkpt>
      <trkpt lat="43.5938" lon="2.95988">
        <ele>756.5</ele>
        <time>2026-05-07T09:01:18.000Z</time>
      </trkpt>
      <trkpt lat="43.59378" lon="2.95988">
        <ele>755.8</ele>
        <time>2026-05-07T09:01:19.000Z</time>
      </trkpt>
      <trkpt lat="43.59377" lon="2.95988">
        <ele>756</ele>
        <time>2026-05-07T09:01:20.000Z</time>
      </trkpt>
      <trkpt lat="43.59377" lon="2.95988">
        <ele>756.5</ele>
        <time>2026-05-07T09:01:21.000Z</time>
      </trkpt>
      <trkpt lat="43.59376" lon="2.95989">
        <ele>756.7</ele>
        <time>2026-05-07T09:01:22.000Z</time>
      </trkpt>
      <trkpt lat="43.59376" lon="2.95989">
        <ele>756.9</ele>
        <time>2026-05-07T09:01:23.000Z</time>
      </trkpt>
      <trkpt lat="43.59376" lon="2.95989">
        <ele>757.1</ele>
        <time>2026-05-07T09:01:24.000Z</time>
      </trkpt>
      <trkpt lat="43.59376" lon="2.9599">
        <ele>756.9</ele>
        <time>2026-05-07T09:01:25.000Z</time>
      </trkpt>
      <trkpt lat="43.59376" lon="2.95991">
        <ele>756.4</ele>
        <time>2026-05-07T09:01:27.000Z</time>
      </trkpt>
      <trkpt lat="43.59375" lon="2.95992">
        <ele>756.3</ele>
        <time>2026-05-07T09:01:28.000Z</time>
      </trkpt>
      <trkpt lat="43.59375" lon="2.95992">
        <ele>756.5</ele>
        <time>2026-05-07T09:01:29.000Z</time>
      </trkpt>
      <trkpt lat="43.59375" lon="2.95992">
        <ele>756.9</ele>
        <time>2026-05-07T09:01:30.000Z</time>
      </trkpt>
      <trkpt lat="43.59375" lon="2.95992">
        <ele>757.1</ele>
        <time>2026-05-07T09:01:31.000Z</time>
      </trkpt>
      <trkpt lat="43.59375" lon="2.95992">
        <ele>757.7</ele>
        <time>2026-05-07T09:01:32.000Z</time>
      </trkpt>
      <trkpt lat="43.59375" lon="2.95992">
        <ele>757.9</ele>
        <time>2026-05-07T09:01:33.000Z</time>
      </trkpt>
      <trkpt lat="43.59375" lon="2.95993">
        <ele>758.1</ele>
        <time>2026-05-07T09:01:34.000Z</time>
      </trkpt>
      <trkpt lat="43.59375" lon="2.95993">
        <ele>758.3</ele>
        <time>2026-05-07T09:01:35.000Z</time>
      </trkpt>
      <trkpt lat="43.59375" lon="2.95993">
        <ele>758.6</ele>
        <time>2026-05-07T09:01:36.000Z</time>
      </trkpt>
      <trkpt lat="43.59375" lon="2.95994">
        <ele>758.9</ele>
        <time>2026-05-07T09:01:37.000Z</time>
      </trkpt>
      <trkpt lat="43.59375" lon="2.95994">
        <ele>759.2</ele>
        <time>2026-05-07T09:01:38.000Z</time>
      </trkpt>
      <trkpt lat="43.59374" lon="2.95994">
        <ele>759.3</ele>
        <time>2026-05-07T09:01:39.000Z</time>
      </trkpt>
      <trkpt lat="43.59375" lon="2.95994">
        <ele>759.3</ele>
        <time>2026-05-07T09:01:40.000Z</time>
      </trkpt>
      <trkpt lat="43.59375" lon="2.95994">
        <ele>759.6</ele>
        <time>2026-05-07T09:01:41.000Z</time>
      </trkpt>
      <trkpt lat="43.59375" lon="2.95995">
        <ele>759.9</ele>
        <time>2026-05-07T09:01:42.000Z</time>
      </trkpt>
      <trkpt lat="43.59375" lon="2.95995">
        <ele>760.4</ele>
        <time>2026-05-07T09:01:43.000Z</time>
      </trkpt>
      <trkpt lat="43.59375" lon="2.95995">
        <ele>760.8</ele>
        <time>2026-05-07T09:01:44.000Z</time>
      </trkpt>
      <trkpt lat="43.59375" lon="2.95995">
        <ele>761.2</ele>
        <time>2026-05-07T09:01:45.000Z</time>
      </trkpt>
      <trkpt lat="43.59374" lon="2.95996">
        <ele>761.3</ele>
        <time>2026-05-07T09:01:46.000Z</time>
      </trkpt>
      <trkpt lat="43.59374" lon="2.95996">
        <ele>761.6</ele>
        <time>2026-05-07T09:01:47.000Z</time>
      </trkpt>
      <trkpt lat="43.59374" lon="2.95995">
        <ele>762</ele>
        <time>2026-05-07T09:01:48.000Z</time>
      </trkpt>
      <trkpt lat="43.59373" lon="2.95995">
        <ele>762.6</ele>
        <time>2026-05-07T09:01:49.000Z</time>
      </trkpt>
      <trkpt lat="43.59373" lon="2.95996">
        <ele>763</ele>
        <time>2026-05-07T09:01:50.000Z</time>
      </trkpt>
      <trkpt lat="43.59372" lon="2.95995">
        <ele>763</ele>
        <time>2026-05-07T09:01:51.000Z</time>
      </trkpt>
      <trkpt lat="43.59372" lon="2.95995">
        <ele>762.4</ele>
        <time>2026-05-07T09:01:52.000Z</time>
      </trkpt>
      <trkpt lat="43.59372" lon="2.95995">
        <ele>762.4</ele>
        <time>2026-05-07T09:01:53.000Z</time>
      </trkpt>
      <trkpt lat="43.59372" lon="2.95995">
        <ele>762.4</ele>
        <time>2026-05-07T09:01:54.000Z</time>
      </trkpt>
      <trkpt lat="43.59372" lon="2.95995">
        <ele>762.5</ele>
        <time>2026-05-07T09:01:55.000Z</time>
      </trkpt>
      <trkpt lat="43.59371" lon="2.95994">
        <ele>762.7</ele>
        <time>2026-05-07T09:01:56.000Z</time>
      </trkpt>
      <trkpt lat="43.59371" lon="2.95994">
        <ele>762.9</ele>
        <time>2026-05-07T09:01:57.000Z</time>
      </trkpt>
      <trkpt lat="43.5937" lon="2.95994">
        <ele>763.2</ele>
        <time>2026-05-07T09:01:58.000Z</time>
      </trkpt>
      <trkpt lat="43.5937" lon="2.95994">
        <ele>763.4</ele>
        <time>2026-05-07T09:01:59.000Z</time>
      </trkpt>
      <trkpt lat="43.59369" lon="2.95995">
        <ele>763.5</ele>
        <time>2026-05-07T09:02:00.000Z</time>
      </trkpt>
      <trkpt lat="43.59369" lon="2.95996">
        <ele>763.5</ele>
        <time>2026-05-07T09:02:01.000Z</time>
      </trkpt>
      <trkpt lat="43.59369" lon="2.95995">
        <ele>763.8</ele>
        <time>2026-05-07T09:02:02.000Z</time>
      </trkpt>
      <trkpt lat="43.59368" lon="2.95996">
        <ele>764.1</ele>
        <time>2026-05-07T09:02:03.000Z</time>
      </trkpt>
      <trkpt lat="43.59368" lon="2.95996">
        <ele>764.2</ele>
        <time>2026-05-07T09:02:04.000Z</time>
      </trkpt>
      <trkpt lat="43.59368" lon="2.95997">
        <ele>764.6</ele>
        <time>2026-05-07T09:02:05.000Z</time>
      </trkpt>
      <trkpt lat="43.59368" lon="2.95997">
        <ele>764.7</ele>
        <time>2026-05-07T09:02:06.000Z</time>
      </trkpt>
      <trkpt lat="43.59366" lon="2.95996">
        <ele>765.1</ele>
        <time>2026-05-07T09:02:08.000Z</time>
      </trkpt>
      <trkpt lat="43.59366" lon="2.95996">
        <ele>765</ele>
        <time>2026-05-07T09:02:09.000Z</time>
      </trkpt>
      <trkpt lat="43.59367" lon="2.95996">
        <ele>765.3</ele>
        <time>2026-05-07T09:02:10.000Z</time>
      </trkpt>
      <trkpt lat="43.59368" lon="2.95997">
        <ele>765.6</ele>
        <time>2026-05-07T09:02:11.000Z</time>
      </trkpt>
      <trkpt lat="43.59368" lon="2.95997">
        <ele>765.8</ele>
        <time>2026-05-07T09:02:12.000Z</time>
      </trkpt>
      <trkpt lat="43.59369" lon="2.95997">
        <ele>766</ele>
        <time>2026-05-07T09:02:13.000Z</time>
      </trkpt>
      <trkpt lat="43.59369" lon="2.95999">
        <ele>766.2</ele>
        <time>2026-05-07T09:02:14.000Z</time>
      </trkpt>
      <trkpt lat="43.5937" lon="2.95998">
        <ele>766.2</ele>
        <time>2026-05-07T09:02:15.000Z</time>
      </trkpt>
      <trkpt lat="43.5937" lon="2.95998">
        <ele>766.5</ele>
        <time>2026-05-07T09:02:16.000Z</time>
      </trkpt>
      <trkpt lat="43.5937" lon="2.95999">
        <ele>766.2</ele>
        <time>2026-05-07T09:02:17.000Z</time>
      </trkpt>
      <trkpt lat="43.5937" lon="2.95999">
        <ele>766.2</ele>
        <time>2026-05-07T09:02:18.000Z</time>
      </trkpt>
      <trkpt lat="43.5937" lon="2.96">
        <ele>766.6</ele>
        <time>2026-05-07T09:02:19.000Z</time>
      </trkpt>
      <trkpt lat="43.5937" lon="2.96001">
        <ele>766.9</ele>
        <time>2026-05-07T09:02:20.000Z</time>
      </trkpt>
      <trkpt lat="43.5937" lon="2.96002">
        <ele>767.1</ele>
        <time>2026-05-07T09:02:21.000Z</time>
      </trkpt>
      <trkpt lat="43.5937" lon="2.96002">
        <ele>767.2</ele>
        <time>2026-05-07T09:02:22.000Z</time>
      </trkpt>
      <trkpt lat="43.59368" lon="2.96002">
        <ele>766.9</ele>
        <time>2026-05-07T09:02:23.000Z</time>
      </trkpt>
      <trkpt lat="43.59367" lon="2.96002">
        <ele>766.6</ele>
        <time>2026-05-07T09:02:24.000Z</time>
      </trkpt>
      <trkpt lat="43.59365" lon="2.96002">
        <ele>766.5</ele>
        <time>2026-05-07T09:02:25.000Z</time>
      </trkpt>
      <trkpt lat="43.59365" lon="2.96002">
        <ele>766.5</ele>
        <time>2026-05-07T09:02:26.000Z</time>
      </trkpt>
      <trkpt lat="43.59365" lon="2.96003">
        <ele>766.8</ele>
        <time>2026-05-07T09:02:27.000Z</time>
      </trkpt>
      <trkpt lat="43.59365" lon="2.96003">
        <ele>767</ele>
        <time>2026-05-07T09:02:28.000Z</time>
      </trkpt>
      <trkpt lat="43.59364" lon="2.96003">
        <ele>767.4</ele>
        <time>2026-05-07T09:02:29.000Z</time>
      </trkpt>
      <trkpt lat="43.59363" lon="2.96002">
        <ele>768.1</ele>
        <time>2026-05-07T09:02:30.000Z</time>
      </trkpt>
      <trkpt lat="43.59362" lon="2.96001">
        <ele>768.5</ele>
        <time>2026-05-07T09:02:31.000Z</time>
      </trkpt>
      <trkpt lat="43.59362" lon="2.96001">
        <ele>768.6</ele>
        <time>2026-05-07T09:02:32.000Z</time>
      </trkpt>
      <trkpt lat="43.59362" lon="2.96">
        <ele>768.9</ele>
        <time>2026-05-07T09:02:33.000Z</time>
      </trkpt>
      <trkpt lat="43.59361" lon="2.96">
        <ele>769.3</ele>
        <time>2026-05-07T09:02:34.000Z</time>
      </trkpt>
      <trkpt lat="43.59361" lon="2.96">
        <ele>769.7</ele>
        <time>2026-05-07T09:02:35.000Z</time>
      </trkpt>
      <trkpt lat="43.59361" lon="2.96">
        <ele>769.6</ele>
        <time>2026-05-07T09:02:36.000Z</time>
      </trkpt>
      <trkpt lat="43.59361" lon="2.96">
        <ele>769.5</ele>
        <time>2026-05-07T09:02:37.000Z</time>
      </trkpt>
      <trkpt lat="43.59361" lon="2.96001">
        <ele>769</ele>
        <time>2026-05-07T09:02:38.000Z</time>
      </trkpt>
      <trkpt lat="43.5936" lon="2.96">
        <ele>768.9</ele>
        <time>2026-05-07T09:02:39.000Z</time>
      </trkpt>
      <trkpt lat="43.5936" lon="2.96">
        <ele>768.9</ele>
        <time>2026-05-07T09:02:40.000Z</time>
      </trkpt>
      <trkpt lat="43.59359" lon="2.96">
        <ele>769.4</ele>
        <time>2026-05-07T09:02:41.000Z</time>
      </trkpt>
      <trkpt lat="43.59359" lon="2.96002">
        <ele>769.8</ele>
        <time>2026-05-07T09:02:43.000Z</time>
      </trkpt>
      <trkpt lat="43.59359" lon="2.96003">
        <ele>769.2</ele>
        <time>2026-05-07T09:02:44.000Z</time>
      </trkpt>
      <trkpt lat="43.59358" lon="2.96004">
        <ele>768.9</ele>
        <time>2026-05-07T09:02:45.000Z</time>
      </trkpt>
      <trkpt lat="43.59358" lon="2.96005">
        <ele>768.9</ele>
        <time>2026-05-07T09:02:46.000Z</time>
      </trkpt>
      <trkpt lat="43.59357" lon="2.96005">
        <ele>768.9</ele>
        <time>2026-05-07T09:02:47.000Z</time>
      </trkpt>
      <trkpt lat="43.59357" lon="2.96006">
        <ele>768.9</ele>
        <time>2026-05-07T09:02:48.000Z</time>
      </trkpt>
      <trkpt lat="43.59357" lon="2.96006">
        <ele>768.9</ele>
        <time>2026-05-07T09:02:49.000Z</time>
      </trkpt>
      <trkpt lat="43.59356" lon="2.96006">
        <ele>768.8</ele>
        <time>2026-05-07T09:02:50.000Z</time>
      </trkpt>
      <trkpt lat="43.59356" lon="2.96007">
        <ele>769</ele>
        <time>2026-05-07T09:02:51.000Z</time>
      </trkpt>
      <trkpt lat="43.59355" lon="2.96008">
        <ele>769.3</ele>
        <time>2026-05-07T09:02:52.000Z</time>
      </trkpt>
      <trkpt lat="43.59354" lon="2.96009">
        <ele>769.5</ele>
        <time>2026-05-07T09:02:53.000Z</time>
      </trkpt>
      <trkpt lat="43.59353" lon="2.96009">
        <ele>769.9</ele>
        <time>2026-05-07T09:02:54.999Z</time>
      </trkpt>
      <trkpt lat="43.59352" lon="2.9601">
        <ele>769.9</ele>
        <time>2026-05-07T09:02:55.999Z</time>
      </trkpt>
      <trkpt lat="43.59352" lon="2.9601">
        <ele>770</ele>
        <time>2026-05-07T09:02:56.999Z</time>
      </trkpt>
      <trkpt lat="43.59352" lon="2.9601">
        <ele>769.6</ele>
        <time>2026-05-07T09:02:57.999Z</time>
      </trkpt>
      <trkpt lat="43.59352" lon="2.9601">
        <ele>769.8</ele>
        <time>2026-05-07T09:02:58.999Z</time>
      </trkpt>
      <trkpt lat="43.59352" lon="2.9601">
        <ele>770</ele>
        <time>2026-05-07T09:02:59.999Z</time>
      </trkpt>
      <trkpt lat="43.59351" lon="2.9601">
        <ele>769.9</ele>
        <time>2026-05-07T09:03:00.999Z</time>
      </trkpt>
      <trkpt lat="43.5935" lon="2.9601">
        <ele>769.9</ele>
        <time>2026-05-07T09:03:01.999Z</time>
      </trkpt>
      <trkpt lat="43.59349" lon="2.96009">
        <ele>770.1</ele>
        <time>2026-05-07T09:03:02.999Z</time>
      </trkpt>
      <trkpt lat="43.59349" lon="2.9601">
        <ele>770.2</ele>
        <time>2026-05-07T09:03:03.999Z</time>
      </trkpt>
      <trkpt lat="43.59348" lon="2.9601">
        <ele>770.5</ele>
        <time>2026-05-07T09:03:04.999Z</time>
      </trkpt>
      <trkpt lat="43.59348" lon="2.9601">
        <ele>770.6</ele>
        <time>2026-05-07T09:03:05.999Z</time>
      </trkpt>
      <trkpt lat="43.59348" lon="2.9601">
        <ele>770.6</ele>
        <time>2026-05-07T09:03:06.999Z</time>
      </trkpt>
      <trkpt lat="43.59348" lon="2.9601">
        <ele>770.7</ele>
        <time>2026-05-07T09:03:07.999Z</time>
      </trkpt>
      <trkpt lat="43.59348" lon="2.9601">
        <ele>770.9</ele>
        <time>2026-05-07T09:03:08.999Z</time>
      </trkpt>
      <trkpt lat="43.59348" lon="2.9601">
        <ele>771.1</ele>
        <time>2026-05-07T09:03:09.999Z</time>
      </trkpt>
      <trkpt lat="43.59348" lon="2.9601">
        <ele>771.2</ele>
        <time>2026-05-07T09:03:10.999Z</time>
      </trkpt>
      <trkpt lat="43.59348" lon="2.9601">
        <ele>771.1</ele>
        <time>2026-05-07T09:03:11.999Z</time>
      </trkpt>
      <trkpt lat="43.59348" lon="2.9601">
        <ele>771.2</ele>
        <time>2026-05-07T09:03:12.999Z</time>
      </trkpt>
      <trkpt lat="43.59348" lon="2.9601">
        <ele>771.4</ele>
        <time>2026-05-07T09:03:13.999Z</time>
      </trkpt>
      <trkpt lat="43.59348" lon="2.9601">
        <ele>771.3</ele>
        <time>2026-05-07T09:03:14.999Z</time>
      </trkpt>
      <trkpt lat="43.59348" lon="2.9601">
        <ele>771.5</ele>
        <time>2026-05-07T09:03:15.999Z</time>
      </trkpt>
      <trkpt lat="43.59348" lon="2.96009">
        <ele>771.7</ele>
        <time>2026-05-07T09:03:16.999Z</time>
      </trkpt>
      <trkpt lat="43.59348" lon="2.96009">
        <ele>772.2</ele>
        <time>2026-05-07T09:03:17.999Z</time>
      </trkpt>
      <trkpt lat="43.59348" lon="2.96009">
        <ele>772.2</ele>
        <time>2026-05-07T09:03:18.999Z</time>
      </trkpt>
      <trkpt lat="43.59348" lon="2.96009">
        <ele>772.5</ele>
        <time>2026-05-07T09:03:19.999Z</time>
      </trkpt>
      <trkpt lat="43.59348" lon="2.96009">
        <ele>772.8</ele>
        <time>2026-05-07T09:03:20.999Z</time>
      </trkpt>
      <trkpt lat="43.59348" lon="2.96009">
        <ele>773</ele>
        <time>2026-05-07T09:03:21.999Z</time>
      </trkpt>
      <trkpt lat="43.59347" lon="2.96009">
        <ele>772.9</ele>
        <time>2026-05-07T09:03:22.999Z</time>
      </trkpt>
      <trkpt lat="43.59347" lon="2.9601">
        <ele>772.6</ele>
        <time>2026-05-07T09:03:23.999Z</time>
      </trkpt>
      <trkpt lat="43.59347" lon="2.96011">
        <ele>772.5</ele>
        <time>2026-05-07T09:03:24.999Z</time>
      </trkpt>
      <trkpt lat="43.59346" lon="2.96011">
        <ele>772.2</ele>
        <time>2026-05-07T09:03:25.999Z</time>
      </trkpt>
      <trkpt lat="43.59346" lon="2.9601">
        <ele>772.1</ele>
        <time>2026-05-07T09:03:26.999Z</time>
      </trkpt>
      <trkpt lat="43.59346" lon="2.9601">
        <ele>772.2</ele>
        <time>2026-05-07T09:03:27.999Z</time>
      </trkpt>
      <trkpt lat="43.59346" lon="2.9601">
        <ele>772.1</ele>
        <time>2026-05-07T09:03:28.999Z</time>
      </trkpt>
      <trkpt lat="43.59346" lon="2.9601">
        <ele>772.3</ele>
        <time>2026-05-07T09:03:29.999Z</time>
      </trkpt>
      <trkpt lat="43.59346" lon="2.9601">
        <ele>772.5</ele>
        <time>2026-05-07T09:03:30.999Z</time>
      </trkpt>
      <trkpt lat="43.59346" lon="2.9601">
        <ele>772.6</ele>
        <time>2026-05-07T09:03:31.999Z</time>
      </trkpt>
      <trkpt lat="43.59346" lon="2.96009">
        <ele>772.7</ele>
        <time>2026-05-07T09:03:32.999Z</time>
      </trkpt>
      <trkpt lat="43.59345" lon="2.96009">
        <ele>772.8</ele>
        <time>2026-05-07T09:03:33.999Z</time>
      </trkpt>
      <trkpt lat="43.59345" lon="2.96008">
        <ele>773</ele>
        <time>2026-05-07T09:03:34.999Z</time>
      </trkpt>
      <trkpt lat="43.59345" lon="2.96008">
        <ele>773.1</ele>
        <time>2026-05-07T09:03:35.999Z</time>
      </trkpt>
      <trkpt lat="43.59345" lon="2.96008">
        <ele>773.1</ele>
        <time>2026-05-07T09:03:36.999Z</time>
      </trkpt>
      <trkpt lat="43.59345" lon="2.96009">
        <ele>772.9</ele>
        <time>2026-05-07T09:03:37.999Z</time>
      </trkpt>
      <trkpt lat="43.59345" lon="2.96009">
        <ele>772.6</ele>
        <time>2026-05-07T09:03:38.999Z</time>
      </trkpt>
      <trkpt lat="43.59345" lon="2.96009">
        <ele>772.5</ele>
        <time>2026-05-07T09:03:39.999Z</time>
      </trkpt>
      <trkpt lat="43.59344" lon="2.96009">
        <ele>772.3</ele>
        <time>2026-05-07T09:03:40.999Z</time>
      </trkpt>
      <trkpt lat="43.59344" lon="2.96008">
        <ele>772.3</ele>
        <time>2026-05-07T09:03:41.999Z</time>
      </trkpt>
      <trkpt lat="43.59343" lon="2.96007">
        <ele>772</ele>
        <time>2026-05-07T09:03:42.999Z</time>
      </trkpt>
      <trkpt lat="43.59343" lon="2.96007">
        <ele>772.2</ele>
        <time>2026-05-07T09:03:43.999Z</time>
      </trkpt>
      <trkpt lat="43.59343" lon="2.96007">
        <ele>772.2</ele>
        <time>2026-05-07T09:03:44.999Z</time>
      </trkpt>
      <trkpt lat="43.59343" lon="2.96007">
        <ele>772.7</ele>
        <time>2026-05-07T09:03:45.999Z</time>
      </trkpt>
      <trkpt lat="43.59343" lon="2.96007">
        <ele>773.1</ele>
        <time>2026-05-07T09:03:46.999Z</time>
      </trkpt>
      <trkpt lat="43.59343" lon="2.96007">
        <ele>773.5</ele>
        <time>2026-05-07T09:03:47.999Z</time>
      </trkpt>
      <trkpt lat="43.59343" lon="2.96007">
        <ele>773.8</ele>
        <time>2026-05-07T09:03:48.999Z</time>
      </trkpt>
      <trkpt lat="43.59343" lon="2.96007">
        <ele>774</ele>
        <time>2026-05-07T09:03:49.999Z</time>
      </trkpt>
      <trkpt lat="43.59343" lon="2.96007">
        <ele>774.1</ele>
        <time>2026-05-07T09:03:50.999Z</time>
      </trkpt>
      <trkpt lat="43.59343" lon="2.96007">
        <ele>774.2</ele>
        <time>2026-05-07T09:03:51.999Z</time>
      </trkpt>
      <trkpt lat="43.59343" lon="2.96007">
        <ele>774.4</ele>
        <time>2026-05-07T09:03:52.999Z</time>
      </trkpt>
      <trkpt lat="43.59343" lon="2.96007">
        <ele>774.6</ele>
        <time>2026-05-07T09:03:53.999Z</time>
      </trkpt>
      <trkpt lat="43.59343" lon="2.96007">
        <ele>774.9</ele>
        <time>2026-05-07T09:03:54.999Z</time>
      </trkpt>
      <trkpt lat="43.59343" lon="2.96007">
        <ele>775</ele>
        <time>2026-05-07T09:03:55.999Z</time>
      </trkpt>
      <trkpt lat="43.59343" lon="2.96007">
        <ele>775</ele>
        <time>2026-05-07T09:03:56.999Z</time>
      </trkpt>
      <trkpt lat="43.59343" lon="2.96007">
        <ele>774.8</ele>
        <time>2026-05-07T09:03:57.999Z</time>
      </trkpt>
      <trkpt lat="43.59343" lon="2.96007">
        <ele>774.9</ele>
        <time>2026-05-07T09:03:58.999Z</time>
      </trkpt>
      <trkpt lat="43.59343" lon="2.96007">
        <ele>775</ele>
        <time>2026-05-07T09:03:59.999Z</time>
      </trkpt>
      <trkpt lat="43.59343" lon="2.96007">
        <ele>775.3</ele>
        <time>2026-05-07T09:04:00.999Z</time>
      </trkpt>
      <trkpt lat="43.59343" lon="2.96007">
        <ele>775.4</ele>
        <time>2026-05-07T09:04:01.999Z</time>
      </trkpt>
      <trkpt lat="43.59343" lon="2.96007">
        <ele>775.4</ele>
        <time>2026-05-07T09:04:02.999Z</time>
      </trkpt>
      <trkpt lat="43.59343" lon="2.96007">
        <ele>775.6</ele>
        <time>2026-05-07T09:04:03.999Z</time>
      </trkpt>
      <trkpt lat="43.59343" lon="2.96007">
        <ele>775.7</ele>
        <time>2026-05-07T09:04:04.999Z</time>
      </trkpt>
      <trkpt lat="43.59343" lon="2.96007">
        <ele>775.9</ele>
        <time>2026-05-07T09:04:05.999Z</time>
      </trkpt>
      <trkpt lat="43.59343" lon="2.96007">
        <ele>776</ele>
        <time>2026-05-07T09:04:06.999Z</time>
      </trkpt>
      <trkpt lat="43.59343" lon="2.96007">
        <ele>776.1</ele>
        <time>2026-05-07T09:04:07.999Z</time>
      </trkpt>
      <trkpt lat="43.59343" lon="2.96007">
        <ele>776.1</ele>
        <time>2026-05-07T09:04:08.999Z</time>
      </trkpt>
      <trkpt lat="43.59343" lon="2.96007">
        <ele>776.1</ele>
        <time>2026-05-07T09:04:09.999Z</time>
      </trkpt>
      <trkpt lat="43.59343" lon="2.96007">
        <ele>776.4</ele>
        <time>2026-05-07T09:04:10.999Z</time>
      </trkpt>
      <trkpt lat="43.59343" lon="2.96007">
        <ele>776.8</ele>
        <time>2026-05-07T09:04:11.999Z</time>
      </trkpt>
      <trkpt lat="43.59343" lon="2.96007">
        <ele>777</ele>
        <time>2026-05-07T09:04:12.999Z</time>
      </trkpt>
      <trkpt lat="43.59343" lon="2.96007">
        <ele>776.9</ele>
        <time>2026-05-07T09:04:13.999Z</time>
      </trkpt>
      <trkpt lat="43.59343" lon="2.96007">
        <ele>777</ele>
        <time>2026-05-07T09:04:14.999Z</time>
      </trkpt>
      <trkpt lat="43.59343" lon="2.96007">
        <ele>776.9</ele>
        <time>2026-05-07T09:04:15.999Z</time>
      </trkpt>
      <trkpt lat="43.59343" lon="2.96007">
        <ele>776.8</ele>
        <time>2026-05-07T09:04:16.999Z</time>
      </trkpt>
      <trkpt lat="43.59343" lon="2.96007">
        <ele>776.7</ele>
        <time>2026-05-07T09:04:17.999Z</time>
      </trkpt>
      <trkpt lat="43.59343" lon="2.96007">
        <ele>776.6</ele>
        <time>2026-05-07T09:04:18.999Z</time>
      </trkpt>
      <trkpt lat="43.59343" lon="2.96007">
        <ele>776.5</ele>
        <time>2026-05-07T09:04:19.999Z</time>
      </trkpt>
      <trkpt lat="43.59343" lon="2.96007">
        <ele>776.2</ele>
        <time>2026-05-07T09:04:20.999Z</time>
      </trkpt>
      <trkpt lat="43.59343" lon="2.96007">
        <ele>776.2</ele>
        <time>2026-05-07T09:04:21.999Z</time>
      </trkpt>
      <trkpt lat="43.59343" lon="2.96007">
        <ele>776.3</ele>
        <time>2026-05-07T09:04:22.999Z</time>
      </trkpt>
      <trkpt lat="43.59343" lon="2.96007">
        <ele>776.3</ele>
        <time>2026-05-07T09:04:23.999Z</time>
      </trkpt>
      <trkpt lat="43.59343" lon="2.96007">
        <ele>776.3</ele>
        <time>2026-05-07T09:04:24.999Z</time>
      </trkpt>
      <trkpt lat="43.59343" lon="2.96007">
        <ele>776.3</ele>
        <time>2026-05-07T09:04:25.999Z</time>
      </trkpt>
      <trkpt lat="43.59343" lon="2.96007">
        <ele>776.2</ele>
        <time>2026-05-07T09:04:26.999Z</time>
      </trkpt>
      <trkpt lat="43.59343" lon="2.96007">
        <ele>776.2</ele>
        <time>2026-05-07T09:04:27.999Z</time>
      </trkpt>
      <trkpt lat="43.59343" lon="2.96007">
        <ele>776</ele>
        <time>2026-05-07T09:04:28.999Z</time>
      </trkpt>
      <trkpt lat="43.59343" lon="2.96007">
        <ele>775.7</ele>
        <time>2026-05-07T09:04:29.999Z</time>
      </trkpt>
      <trkpt lat="43.59343" lon="2.96007">
        <ele>775.3</ele>
        <time>2026-05-07T09:04:30.999Z</time>
      </trkpt>
      <trkpt lat="43.59343" lon="2.96007">
        <ele>775.2</ele>
        <time>2026-05-07T09:04:31.999Z</time>
      </trkpt>
      <trkpt lat="43.59343" lon="2.96007">
        <ele>775.1</ele>
        <time>2026-05-07T09:04:32.999Z</time>
      </trkpt>
      <trkpt lat="43.59343" lon="2.96007">
        <ele>775.2</ele>
        <time>2026-05-07T09:04:33.999Z</time>
      </trkpt>
      <trkpt lat="43.59343" lon="2.96007">
        <ele>775</ele>
        <time>2026-05-07T09:04:34.999Z</time>
      </trkpt>
      <trkpt lat="43.59343" lon="2.96007">
        <ele>775</ele>
        <time>2026-05-07T09:04:35.999Z</time>
      </trkpt>
      <trkpt lat="43.59343" lon="2.96007">
        <ele>775</ele>
        <time>2026-05-07T09:04:36.999Z</time>
      </trkpt>
      <trkpt lat="43.59343" lon="2.96007">
        <ele>775.1</ele>
        <time>2026-05-07T09:04:37.999Z</time>
      </trkpt>
      <trkpt lat="43.59343" lon="2.96007">
        <ele>774.9</ele>
        <time>2026-05-07T09:04:38.999Z</time>
      </trkpt>
      <trkpt lat="43.59343" lon="2.96007">
        <ele>774.8</ele>
        <time>2026-05-07T09:04:39.999Z</time>
      </trkpt>
      <trkpt lat="43.59343" lon="2.96007">
        <ele>774.9</ele>
        <time>2026-05-07T09:04:40.999Z</time>
      </trkpt>
      <trkpt lat="43.59343" lon="2.96007">
        <ele>774.9</ele>
        <time>2026-05-07T09:04:41.999Z</time>
      </trkpt>
      <trkpt lat="43.59343" lon="2.96007">
        <ele>774.9</ele>
        <time>2026-05-07T09:04:42.999Z</time>
      </trkpt>
      <trkpt lat="43.59343" lon="2.96007">
        <ele>775</ele>
        <time>2026-05-07T09:04:43.999Z</time>
      </trkpt>
      <trkpt lat="43.59343" lon="2.96007">
        <ele>775.1</ele>
        <time>2026-05-07T09:04:44.999Z</time>
      </trkpt>
      <trkpt lat="43.59343" lon="2.96007">
        <ele>775.4</ele>
        <time>2026-05-07T09:04:45.999Z</time>
      </trkpt>
      <trkpt lat="43.59343" lon="2.96007">
        <ele>775.7</ele>
        <time>2026-05-07T09:04:46.999Z</time>
      </trkpt>
      <trkpt lat="43.59343" lon="2.96007">
        <ele>775.7</ele>
        <time>2026-05-07T09:04:47.999Z</time>
      </trkpt>
      <trkpt lat="43.59343" lon="2.96006">
        <ele>775.7</ele>
        <time>2026-05-07T09:04:48.999Z</time>
      </trkpt>
      <trkpt lat="43.59343" lon="2.96006">
        <ele>775.9</ele>
        <time>2026-05-07T09:04:49.999Z</time>
      </trkpt>
      <trkpt lat="43.59343" lon="2.96006">
        <ele>776</ele>
        <time>2026-05-07T09:04:50.999Z</time>
      </trkpt>
      <trkpt lat="43.59343" lon="2.96006">
        <ele>776.2</ele>
        <time>2026-05-07T09:04:51.999Z</time>
      </trkpt>
      <trkpt lat="43.59343" lon="2.96006">
        <ele>776.4</ele>
        <time>2026-05-07T09:04:52.999Z</time>
      </trkpt>
      <trkpt lat="43.59343" lon="2.96006">
        <ele>776.4</ele>
        <time>2026-05-07T09:04:53.999Z</time>
      </trkpt>
      <trkpt lat="43.59342" lon="2.96005">
        <ele>776.4</ele>
        <time>2026-05-07T09:04:54.999Z</time>
      </trkpt>
      <trkpt lat="43.59341" lon="2.96003">
        <ele>776.2</ele>
        <time>2026-05-07T09:04:55.999Z</time>
      </trkpt>
      <trkpt lat="43.59342" lon="2.96002">
        <ele>776.1</ele>
        <time>2026-05-07T09:04:56.999Z</time>
      </trkpt>
      <trkpt lat="43.59342" lon="2.96002">
        <ele>776.1</ele>
        <time>2026-05-07T09:04:57.999Z</time>
      </trkpt>
      <trkpt lat="43.59341" lon="2.96001">
        <ele>775.8</ele>
        <time>2026-05-07T09:04:58.999Z</time>
      </trkpt>
      <trkpt lat="43.59341" lon="2.96">
        <ele>775.8</ele>
        <time>2026-05-07T09:04:59.999Z</time>
      </trkpt>
      <trkpt lat="43.59342" lon="2.96">
        <ele>775.6</ele>
        <time>2026-05-07T09:05:00.999Z</time>
      </trkpt>
      <trkpt lat="43.59342" lon="2.96">
        <ele>775.5</ele>
        <time>2026-05-07T09:05:01.999Z</time>
      </trkpt>
      <trkpt lat="43.59342" lon="2.96">
        <ele>775.3</ele>
        <time>2026-05-07T09:05:02.999Z</time>
      </trkpt>
      <trkpt lat="43.59342" lon="2.96001">
        <ele>775.4</ele>
        <time>2026-05-07T09:05:03.999Z</time>
      </trkpt>
      <trkpt lat="43.59342" lon="2.96002">
        <ele>775.3</ele>
        <time>2026-05-07T09:05:04.999Z</time>
      </trkpt>
      <trkpt lat="43.59342" lon="2.96002">
        <ele>775.3</ele>
        <time>2026-05-07T09:05:05.999Z</time>
      </trkpt>
      <trkpt lat="43.59342" lon="2.96002">
        <ele>775.4</ele>
        <time>2026-05-07T09:05:06.999Z</time>
      </trkpt>
      <trkpt lat="43.59342" lon="2.96002">
        <ele>775.3</ele>
        <time>2026-05-07T09:05:07.999Z</time>
      </trkpt>
      <trkpt lat="43.59342" lon="2.96002">
        <ele>775.4</ele>
        <time>2026-05-07T09:05:08.999Z</time>
      </trkpt>
      <trkpt lat="43.59342" lon="2.96002">
        <ele>775.4</ele>
        <time>2026-05-07T09:05:09.999Z</time>
      </trkpt>
      <trkpt lat="43.59342" lon="2.96002">
        <ele>775.3</ele>
        <time>2026-05-07T09:05:10.999Z</time>
      </trkpt>
      <trkpt lat="43.59342" lon="2.96002">
        <ele>775.2</ele>
        <time>2026-05-07T09:05:11.999Z</time>
      </trkpt>
      <trkpt lat="43.59342" lon="2.96002">
        <ele>775.2</ele>
        <time>2026-05-07T09:05:12.999Z</time>
      </trkpt>
      <trkpt lat="43.59342" lon="2.96002">
        <ele>775.3</ele>
        <time>2026-05-07T09:05:13.999Z</time>
      </trkpt>
      <trkpt lat="43.59342" lon="2.96002">
        <ele>775.4</ele>
        <time>2026-05-07T09:05:14.999Z</time>
      </trkpt>
      <trkpt lat="43.59342" lon="2.96002">
        <ele>775.5</ele>
        <time>2026-05-07T09:05:15.999Z</time>
      </trkpt>
      <trkpt lat="43.59342" lon="2.96002">
        <ele>775.8</ele>
        <time>2026-05-07T09:05:16.999Z</time>
      </trkpt>
      <trkpt lat="43.59342" lon="2.96002">
        <ele>775.9</ele>
        <time>2026-05-07T09:05:17.999Z</time>
      </trkpt>
      <trkpt lat="43.59342" lon="2.96004">
        <ele>775.9</ele>
        <time>2026-05-07T09:05:18.999Z</time>
      </trkpt>
      <trkpt lat="43.59341" lon="2.96004">
        <ele>775.7</ele>
        <time>2026-05-07T09:05:19.999Z</time>
      </trkpt>
      <trkpt lat="43.59341" lon="2.96005">
        <ele>775.7</ele>
        <time>2026-05-07T09:05:20.999Z</time>
      </trkpt>
      <trkpt lat="43.59341" lon="2.96005">
        <ele>775.7</ele>
        <time>2026-05-07T09:05:21.999Z</time>
      </trkpt>
      <trkpt lat="43.59341" lon="2.96005">
        <ele>775.9</ele>
        <time>2026-05-07T09:05:22.999Z</time>
      </trkpt>
      <trkpt lat="43.59341" lon="2.96005">
        <ele>776.1</ele>
        <time>2026-05-07T09:05:23.999Z</time>
      </trkpt>
      <trkpt lat="43.59341" lon="2.96005">
        <ele>776.6</ele>
        <time>2026-05-07T09:05:24.999Z</time>
      </trkpt>
      <trkpt lat="43.59341" lon="2.96005">
        <ele>776.7</ele>
        <time>2026-05-07T09:05:25.999Z</time>
      </trkpt>
      <trkpt lat="43.59341" lon="2.96006">
        <ele>776.7</ele>
        <time>2026-05-07T09:05:26.999Z</time>
      </trkpt>
      <trkpt lat="43.59341" lon="2.96007">
        <ele>776.5</ele>
        <time>2026-05-07T09:05:27.999Z</time>
      </trkpt>
      <trkpt lat="43.59341" lon="2.96009">
        <ele>776.5</ele>
        <time>2026-05-07T09:05:28.999Z</time>
      </trkpt>
      <trkpt lat="43.59341" lon="2.9601">
        <ele>776.6</ele>
        <time>2026-05-07T09:05:29.999Z</time>
      </trkpt>
      <trkpt lat="43.59342" lon="2.9601">
        <ele>776.6</ele>
        <time>2026-05-07T09:05:30.999Z</time>
      </trkpt>
      <trkpt lat="43.59342" lon="2.9601">
        <ele>776.6</ele>
        <time>2026-05-07T09:05:31.999Z</time>
      </trkpt>
      <trkpt lat="43.59342" lon="2.96011">
        <ele>776.5</ele>
        <time>2026-05-07T09:05:32.999Z</time>
      </trkpt>
      <trkpt lat="43.59342" lon="2.96011">
        <ele>776.6</ele>
        <time>2026-05-07T09:05:33.999Z</time>
      </trkpt>
      <trkpt lat="43.59342" lon="2.96011">
        <ele>776.6</ele>
        <time>2026-05-07T09:05:34.999Z</time>
      </trkpt>
      <trkpt lat="43.59343" lon="2.96012">
        <ele>776.6</ele>
        <time>2026-05-07T09:05:35.999Z</time>
      </trkpt>
      <trkpt lat="43.59344" lon="2.96012">
        <ele>776.8</ele>
        <time>2026-05-07T09:05:36.999Z</time>
      </trkpt>
      <trkpt lat="43.59344" lon="2.96012">
        <ele>776.9</ele>
        <time>2026-05-07T09:05:37.999Z</time>
      </trkpt>
      <trkpt lat="43.59344" lon="2.96012">
        <ele>777.1</ele>
        <time>2026-05-07T09:05:38.999Z</time>
      </trkpt>
      <trkpt lat="43.59344" lon="2.96012">
        <ele>777.3</ele>
        <time>2026-05-07T09:05:39.999Z</time>
      </trkpt>
      <trkpt lat="43.59344" lon="2.96012">
        <ele>777.6</ele>
        <time>2026-05-07T09:05:40.999Z</time>
      </trkpt>
      <trkpt lat="43.59344" lon="2.96013">
        <ele>777.9</ele>
        <time>2026-05-07T09:05:41.999Z</time>
      </trkpt>
      <trkpt lat="43.59343" lon="2.96013">
        <ele>778.2</ele>
        <time>2026-05-07T09:05:42.999Z</time>
      </trkpt>
      <trkpt lat="43.59343" lon="2.96013">
        <ele>778.6</ele>
        <time>2026-05-07T09:05:43.999Z</time>
      </trkpt>
      <trkpt lat="43.59342" lon="2.96014">
        <ele>778.6</ele>
        <time>2026-05-07T09:05:44.999Z</time>
      </trkpt>
      <trkpt lat="43.59342" lon="2.96014">
        <ele>777.6</ele>
        <time>2026-05-07T09:05:45.999Z</time>
      </trkpt>
      <trkpt lat="43.59342" lon="2.96014">
        <ele>777.5</ele>
        <time>2026-05-07T09:05:46.999Z</time>
      </trkpt>
      <trkpt lat="43.59342" lon="2.96014">
        <ele>777.4</ele>
        <time>2026-05-07T09:05:47.999Z</time>
      </trkpt>
      <trkpt lat="43.59342" lon="2.96014">
        <ele>777.6</ele>
        <time>2026-05-07T09:05:48.999Z</time>
      </trkpt>
      <trkpt lat="43.59343" lon="2.96014">
        <ele>777.9</ele>
        <time>2026-05-07T09:05:49.999Z</time>
      </trkpt>
      <trkpt lat="43.59343" lon="2.96014">
        <ele>778.2</ele>
        <time>2026-05-07T09:05:50.999Z</time>
      </trkpt>
      <trkpt lat="43.59342" lon="2.96014">
        <ele>778.2</ele>
        <time>2026-05-07T09:05:51.999Z</time>
      </trkpt>
      <trkpt lat="43.59342" lon="2.96014">
        <ele>778.3</ele>
        <time>2026-05-07T09:05:52.999Z</time>
      </trkpt>
      <trkpt lat="43.59342" lon="2.96014">
        <ele>778.3</ele>
        <time>2026-05-07T09:05:53.999Z</time>
      </trkpt>
      <trkpt lat="43.59342" lon="2.96014">
        <ele>778.3</ele>
        <time>2026-05-07T09:05:54.999Z</time>
      </trkpt>
      <trkpt lat="43.59343" lon="2.96016">
        <ele>778.2</ele>
        <time>2026-05-07T09:05:55.999Z</time>
      </trkpt>
      <trkpt lat="43.59344" lon="2.96016">
        <ele>778.3</ele>
        <time>2026-05-07T09:05:56.999Z</time>
      </trkpt>
      <trkpt lat="43.59344" lon="2.96017">
        <ele>778.5</ele>
        <time>2026-05-07T09:05:57.999Z</time>
      </trkpt>
      <trkpt lat="43.59344" lon="2.96017">
        <ele>778</ele>
        <time>2026-05-07T09:05:58.999Z</time>
      </trkpt>
      <trkpt lat="43.59343" lon="2.96016">
        <ele>778.3</ele>
        <time>2026-05-07T09:05:59.999Z</time>
      </trkpt>
      <trkpt lat="43.59343" lon="2.96016">
        <ele>778.7</ele>
        <time>2026-05-07T09:06:00.999Z</time>
      </trkpt>
      <trkpt lat="43.59343" lon="2.96017">
        <ele>779</ele>
        <time>2026-05-07T09:06:01.999Z</time>
      </trkpt>
      <trkpt lat="43.59343" lon="2.96018">
        <ele>779.2</ele>
        <time>2026-05-07T09:06:02.999Z</time>
      </trkpt>
      <trkpt lat="43.59343" lon="2.96017">
        <ele>779.2</ele>
        <time>2026-05-07T09:06:03.999Z</time>
      </trkpt>
      <trkpt lat="43.59343" lon="2.96017">
        <ele>779.5</ele>
        <time>2026-05-07T09:06:04.999Z</time>
      </trkpt>
      <trkpt lat="43.59343" lon="2.96018">
        <ele>779.3</ele>
        <time>2026-05-07T09:06:05.999Z</time>
      </trkpt>
      <trkpt lat="43.59343" lon="2.96018">
        <ele>779.2</ele>
        <time>2026-05-07T09:06:06.999Z</time>
      </trkpt>
      <trkpt lat="43.59343" lon="2.96018">
        <ele>779.2</ele>
        <time>2026-05-07T09:06:07.999Z</time>
      </trkpt>
      <trkpt lat="43.59343" lon="2.96018">
        <ele>779.3</ele>
        <time>2026-05-07T09:06:08.999Z</time>
      </trkpt>
      <trkpt lat="43.59343" lon="2.96018">
        <ele>779.3</ele>
        <time>2026-05-07T09:06:09.999Z</time>
      </trkpt>
      <trkpt lat="43.59343" lon="2.96018">
        <ele>779.1</ele>
        <time>2026-05-07T09:06:10.999Z</time>
      </trkpt>
      <trkpt lat="43.59341" lon="2.96018">
        <ele>779</ele>
        <time>2026-05-07T09:06:12.999Z</time>
      </trkpt>
      <trkpt lat="43.59341" lon="2.96018">
        <ele>779</ele>
        <time>2026-05-07T09:06:13.999Z</time>
      </trkpt>
      <trkpt lat="43.5934" lon="2.96017">
        <ele>779.2</ele>
        <time>2026-05-07T09:06:14.999Z</time>
      </trkpt>
      <trkpt lat="43.59339" lon="2.96016">
        <ele>779.4</ele>
        <time>2026-05-07T09:06:15.999Z</time>
      </trkpt>
      <trkpt lat="43.59338" lon="2.96015">
        <ele>779.6</ele>
        <time>2026-05-07T09:06:16.999Z</time>
      </trkpt>
      <trkpt lat="43.59337" lon="2.96014">
        <ele>779.8</ele>
        <time>2026-05-07T09:06:17.999Z</time>
      </trkpt>
      <trkpt lat="43.59337" lon="2.96014">
        <ele>779.9</ele>
        <time>2026-05-07T09:06:18.999Z</time>
      </trkpt>
      <trkpt lat="43.59337" lon="2.96013">
        <ele>779.9</ele>
        <time>2026-05-07T09:06:19.999Z</time>
      </trkpt>
      <trkpt lat="43.59337" lon="2.96012">
        <ele>779.8</ele>
        <time>2026-05-07T09:06:20.999Z</time>
      </trkpt>
      <trkpt lat="43.59337" lon="2.96012">
        <ele>778.4</ele>
        <time>2026-05-07T09:06:21.999Z</time>
      </trkpt>
      <trkpt lat="43.59337" lon="2.96012">
        <ele>778.5</ele>
        <time>2026-05-07T09:06:22.999Z</time>
      </trkpt>
      <trkpt lat="43.59337" lon="2.9601">
        <ele>778.5</ele>
        <time>2026-05-07T09:06:23.999Z</time>
      </trkpt>
      <trkpt lat="43.59338" lon="2.96008">
        <ele>778.5</ele>
        <time>2026-05-07T09:06:24.999Z</time>
      </trkpt>
      <trkpt lat="43.59338" lon="2.96007">
        <ele>778.5</ele>
        <time>2026-05-07T09:06:25.999Z</time>
      </trkpt>
      <trkpt lat="43.59339" lon="2.96009">
        <ele>778.5</ele>
        <time>2026-05-07T09:06:26.999Z</time>
      </trkpt>
      <trkpt lat="43.59339" lon="2.96011">
        <ele>778.2</ele>
        <time>2026-05-07T09:06:27.999Z</time>
      </trkpt>
      <trkpt lat="43.5934" lon="2.96011">
        <ele>778.3</ele>
        <time>2026-05-07T09:06:28.999Z</time>
      </trkpt>
      <trkpt lat="43.5934" lon="2.96011">
        <ele>777.9</ele>
        <time>2026-05-07T09:06:29.999Z</time>
      </trkpt>
      <trkpt lat="43.59341" lon="2.96012">
        <ele>778</ele>
        <time>2026-05-07T09:06:30.999Z</time>
      </trkpt>
      <trkpt lat="43.59342" lon="2.96013">
        <ele>778</ele>
        <time>2026-05-07T09:06:31.999Z</time>
      </trkpt>
      <trkpt lat="43.59343" lon="2.96012">
        <ele>777.9</ele>
        <time>2026-05-07T09:06:32.999Z</time>
      </trkpt>
      <trkpt lat="43.59345" lon="2.96013">
        <ele>777.4</ele>
        <time>2026-05-07T09:06:33.999Z</time>
      </trkpt>
      <trkpt lat="43.59346" lon="2.96013">
        <ele>777.1</ele>
        <time>2026-05-07T09:06:34.999Z</time>
      </trkpt>
      <trkpt lat="43.59347" lon="2.96013">
        <ele>777</ele>
        <time>2026-05-07T09:06:35.999Z</time>
      </trkpt>
      <trkpt lat="43.59347" lon="2.96013">
        <ele>776.8</ele>
        <time>2026-05-07T09:06:36.999Z</time>
      </trkpt>
      <trkpt lat="43.59347" lon="2.96014">
        <ele>776.7</ele>
        <time>2026-05-07T09:06:37.999Z</time>
      </trkpt>
      <trkpt lat="43.59346" lon="2.96015">
        <ele>777</ele>
        <time>2026-05-07T09:06:38.999Z</time>
      </trkpt>
      <trkpt lat="43.59346" lon="2.96015">
        <ele>777.1</ele>
        <time>2026-05-07T09:06:39.999Z</time>
      </trkpt>
      <trkpt lat="43.59345" lon="2.96016">
        <ele>778</ele>
        <time>2026-05-07T09:06:40.999Z</time>
      </trkpt>
      <trkpt lat="43.59346" lon="2.96017">
        <ele>781.1</ele>
        <time>2026-05-07T09:06:41.999Z</time>
      </trkpt>
      <trkpt lat="43.59345" lon="2.96016">
        <ele>781</ele>
        <time>2026-05-07T09:06:42.999Z</time>
      </trkpt>
      <trkpt lat="43.59344" lon="2.96015">
        <ele>780.9</ele>
        <time>2026-05-07T09:06:43.999Z</time>
      </trkpt>
      <trkpt lat="43.59343" lon="2.96015">
        <ele>780.9</ele>
        <time>2026-05-07T09:06:44.999Z</time>
      </trkpt>
      <trkpt lat="43.59343" lon="2.96014">
        <ele>780.9</ele>
        <time>2026-05-07T09:06:45.999Z</time>
      </trkpt>
      <trkpt lat="43.59342" lon="2.96013">
        <ele>780.9</ele>
        <time>2026-05-07T09:06:46.999Z</time>
      </trkpt>
      <trkpt lat="43.59342" lon="2.96013">
        <ele>781</ele>
        <time>2026-05-07T09:06:47.999Z</time>
      </trkpt>
      <trkpt lat="43.59342" lon="2.96013">
        <ele>780.8</ele>
        <time>2026-05-07T09:06:48.999Z</time>
      </trkpt>
      <trkpt lat="43.59342" lon="2.96013">
        <ele>780.7</ele>
        <time>2026-05-07T09:06:49.999Z</time>
      </trkpt>
      <trkpt lat="43.59342" lon="2.96013">
        <ele>780.7</ele>
        <time>2026-05-07T09:06:50.999Z</time>
      </trkpt>
      <trkpt lat="43.59341" lon="2.96013">
        <ele>780.6</ele>
        <time>2026-05-07T09:06:51.999Z</time>
      </trkpt>
      <trkpt lat="43.59341" lon="2.96013">
        <ele>780.8</ele>
        <time>2026-05-07T09:06:52.999Z</time>
      </trkpt>
      <trkpt lat="43.59341" lon="2.96013">
        <ele>780.9</ele>
        <time>2026-05-07T09:06:53.999Z</time>
      </trkpt>
      <trkpt lat="43.59341" lon="2.96013">
        <ele>781</ele>
        <time>2026-05-07T09:06:54.999Z</time>
      </trkpt>
      <trkpt lat="43.59341" lon="2.96013">
        <ele>780.9</ele>
        <time>2026-05-07T09:06:55.999Z</time>
      </trkpt>
      <trkpt lat="43.59341" lon="2.96013">
        <ele>780.8</ele>
        <time>2026-05-07T09:06:56.999Z</time>
      </trkpt>
      <trkpt lat="43.59341" lon="2.96013">
        <ele>780.8</ele>
        <time>2026-05-07T09:06:57.999Z</time>
      </trkpt>
      <trkpt lat="43.59341" lon="2.96013">
        <ele>780.9</ele>
        <time>2026-05-07T09:06:58.999Z</time>
      </trkpt>
      <trkpt lat="43.59341" lon="2.96013">
        <ele>780.9</ele>
        <time>2026-05-07T09:06:59.999Z</time>
      </trkpt>
      <trkpt lat="43.59341" lon="2.96012">
        <ele>780.9</ele>
        <time>2026-05-07T09:07:00.999Z</time>
      </trkpt>
      <trkpt lat="43.59341" lon="2.96012">
        <ele>780.8</ele>
        <time>2026-05-07T09:07:01.999Z</time>
      </trkpt>
      <trkpt lat="43.59341" lon="2.96012">
        <ele>780.6</ele>
        <time>2026-05-07T09:07:02.999Z</time>
      </trkpt>
      <trkpt lat="43.59341" lon="2.96012">
        <ele>780.5</ele>
        <time>2026-05-07T09:07:03.999Z</time>
      </trkpt>
      <trkpt lat="43.5934" lon="2.96012">
        <ele>780.4</ele>
        <time>2026-05-07T09:07:04.999Z</time>
      </trkpt>
      <trkpt lat="43.5934" lon="2.96013">
        <ele>780.2</ele>
        <time>2026-05-07T09:07:05.999Z</time>
      </trkpt>
      <trkpt lat="43.5934" lon="2.96013">
        <ele>780.1</ele>
        <time>2026-05-07T09:07:06.999Z</time>
      </trkpt>
      <trkpt lat="43.59339" lon="2.96013">
        <ele>779.8</ele>
        <time>2026-05-07T09:07:07.999Z</time>
      </trkpt>
      <trkpt lat="43.59339" lon="2.96013">
        <ele>779.7</ele>
        <time>2026-05-07T09:07:08.999Z</time>
      </trkpt>
      <trkpt lat="43.59339" lon="2.96012">
        <ele>779.5</ele>
        <time>2026-05-07T09:07:09.999Z</time>
      </trkpt>
      <trkpt lat="43.59339" lon="2.96012">
        <ele>779.5</ele>
        <time>2026-05-07T09:07:10.999Z</time>
      </trkpt>
      <trkpt lat="43.59339" lon="2.96012">
        <ele>779.6</ele>
        <time>2026-05-07T09:07:11.999Z</time>
      </trkpt>
      <trkpt lat="43.59339" lon="2.96012">
        <ele>779.4</ele>
        <time>2026-05-07T09:07:12.999Z</time>
      </trkpt>
      <trkpt lat="43.59339" lon="2.96012">
        <ele>779.6</ele>
        <time>2026-05-07T09:07:13.999Z</time>
      </trkpt>
      <trkpt lat="43.59339" lon="2.96012">
        <ele>779.5</ele>
        <time>2026-05-07T09:07:14.999Z</time>
      </trkpt>
      <trkpt lat="43.59339" lon="2.96012">
        <ele>779.3</ele>
        <time>2026-05-07T09:07:15.999Z</time>
      </trkpt>
      <trkpt lat="43.59339" lon="2.96011">
        <ele>779.3</ele>
        <time>2026-05-07T09:07:16.999Z</time>
      </trkpt>
      <trkpt lat="43.59339" lon="2.96011">
        <ele>779.2</ele>
        <time>2026-05-07T09:07:17.999Z</time>
      </trkpt>
      <trkpt lat="43.5934" lon="2.9601">
        <ele>779.2</ele>
        <time>2026-05-07T09:07:18.999Z</time>
      </trkpt>
      <trkpt lat="43.5934" lon="2.9601">
        <ele>779.2</ele>
        <time>2026-05-07T09:07:19.999Z</time>
      </trkpt>
      <trkpt lat="43.5934" lon="2.96009">
        <ele>779.2</ele>
        <time>2026-05-07T09:07:20.999Z</time>
      </trkpt>
      <trkpt lat="43.5934" lon="2.96009">
        <ele>779.4</ele>
        <time>2026-05-07T09:07:21.999Z</time>
      </trkpt>
      <trkpt lat="43.5934" lon="2.9601">
        <ele>779.3</ele>
        <time>2026-05-07T09:07:22.999Z</time>
      </trkpt>
      <trkpt lat="43.59341" lon="2.9601">
        <ele>779.1</ele>
        <time>2026-05-07T09:07:23.999Z</time>
      </trkpt>
      <trkpt lat="43.59341" lon="2.96011">
        <ele>779</ele>
        <time>2026-05-07T09:07:24.999Z</time>
      </trkpt>
      <trkpt lat="43.59342" lon="2.96011">
        <ele>778.8</ele>
        <time>2026-05-07T09:07:25.999Z</time>
      </trkpt>
      <trkpt lat="43.59342" lon="2.96011">
        <ele>778.6</ele>
        <time>2026-05-07T09:07:26.999Z</time>
      </trkpt>
      <trkpt lat="43.59342" lon="2.96012">
        <ele>778.4</ele>
        <time>2026-05-07T09:07:27.999Z</time>
      </trkpt>
      <trkpt lat="43.59342" lon="2.96012">
        <ele>778.2</ele>
        <time>2026-05-07T09:07:28.999Z</time>
      </trkpt>
      <trkpt lat="43.59342" lon="2.96012">
        <ele>778.1</ele>
        <time>2026-05-07T09:07:29.999Z</time>
      </trkpt>
      <trkpt lat="43.59342" lon="2.96012">
        <ele>778.2</ele>
        <time>2026-05-07T09:07:30.999Z</time>
      </trkpt>
      <trkpt lat="43.59342" lon="2.96012">
        <ele>778.2</ele>
        <time>2026-05-07T09:07:31.999Z</time>
      </trkpt>
      <trkpt lat="43.59342" lon="2.96012">
        <ele>778.3</ele>
        <time>2026-05-07T09:07:32.999Z</time>
      </trkpt>
      <trkpt lat="43.59342" lon="2.96012">
        <ele>778.4</ele>
        <time>2026-05-07T09:07:33.999Z</time>
      </trkpt>
      <trkpt lat="43.59342" lon="2.96012">
        <ele>778.3</ele>
        <time>2026-05-07T09:07:34.999Z</time>
      </trkpt>
      <trkpt lat="43.59342" lon="2.96012">
        <ele>778.1</ele>
        <time>2026-05-07T09:07:35.999Z</time>
      </trkpt>
      <trkpt lat="43.59342" lon="2.96012">
        <ele>777.9</ele>
        <time>2026-05-07T09:07:36.999Z</time>
      </trkpt>
      <trkpt lat="43.59342" lon="2.96012">
        <ele>777.9</ele>
        <time>2026-05-07T09:07:37.999Z</time>
      </trkpt>
      <trkpt lat="43.59342" lon="2.96012">
        <ele>777.7</ele>
        <time>2026-05-07T09:07:38.999Z</time>
      </trkpt>
      <trkpt lat="43.59342" lon="2.96012">
        <ele>777.5</ele>
        <time>2026-05-07T09:07:39.999Z</time>
      </trkpt>
      <trkpt lat="43.59342" lon="2.96012">
        <ele>777.4</ele>
        <time>2026-05-07T09:07:40.999Z</time>
      </trkpt>
      <trkpt lat="43.59342" lon="2.96012">
        <ele>777.4</ele>
        <time>2026-05-07T09:07:41.999Z</time>
      </trkpt>
      <trkpt lat="43.59342" lon="2.96012">
        <ele>777.5</ele>
        <time>2026-05-07T09:07:42.999Z</time>
      </trkpt>
      <trkpt lat="43.59342" lon="2.96012">
        <ele>777.3</ele>
        <time>2026-05-07T09:07:43.999Z</time>
      </trkpt>
      <trkpt lat="43.59342" lon="2.96012">
        <ele>777.3</ele>
        <time>2026-05-07T09:07:44.999Z</time>
      </trkpt>
      <trkpt lat="43.59342" lon="2.96012">
        <ele>777.3</ele>
        <time>2026-05-07T09:07:45.999Z</time>
      </trkpt>
      <trkpt lat="43.59342" lon="2.96012">
        <ele>777.4</ele>
        <time>2026-05-07T09:07:46.999Z</time>
      </trkpt>
      <trkpt lat="43.59342" lon="2.96012">
        <ele>777.4</ele>
        <time>2026-05-07T09:07:47.999Z</time>
      </trkpt>
      <trkpt lat="43.59342" lon="2.96012">
        <ele>777.3</ele>
        <time>2026-05-07T09:07:48.999Z</time>
      </trkpt>
      <trkpt lat="43.59342" lon="2.96011">
        <ele>777.4</ele>
        <time>2026-05-07T09:07:49.999Z</time>
      </trkpt>
      <trkpt lat="43.59341" lon="2.9601">
        <ele>777.4</ele>
        <time>2026-05-07T09:07:50.999Z</time>
      </trkpt>
      <trkpt lat="43.59341" lon="2.96008">
        <ele>777.5</ele>
        <time>2026-05-07T09:07:51.999Z</time>
      </trkpt>
      <trkpt lat="43.5934" lon="2.96006">
        <ele>777.5</ele>
        <time>2026-05-07T09:07:52.999Z</time>
      </trkpt>
      <trkpt lat="43.5934" lon="2.96008">
        <ele>777.8</ele>
        <time>2026-05-07T09:07:53.999Z</time>
      </trkpt>
      <trkpt lat="43.5934" lon="2.96006">
        <ele>778</ele>
        <time>2026-05-07T09:07:54.999Z</time>
      </trkpt>
      <trkpt lat="43.5934" lon="2.96006">
        <ele>778.2</ele>
        <time>2026-05-07T09:07:55.999Z</time>
      </trkpt>
      <trkpt lat="43.5934" lon="2.96006">
        <ele>778.4</ele>
        <time>2026-05-07T09:07:56.999Z</time>
      </trkpt>
      <trkpt lat="43.5934" lon="2.96006">
        <ele>778.6</ele>
        <time>2026-05-07T09:07:57.999Z</time>
      </trkpt>
      <trkpt lat="43.5934" lon="2.96006">
        <ele>778.9</ele>
        <time>2026-05-07T09:07:58.999Z</time>
      </trkpt>
      <trkpt lat="43.5934" lon="2.96006">
        <ele>779.1</ele>
        <time>2026-05-07T09:07:59.999Z</time>
      </trkpt>
      <trkpt lat="43.5934" lon="2.96006">
        <ele>779.2</ele>
        <time>2026-05-07T09:08:00.999Z</time>
      </trkpt>
      <trkpt lat="43.59339" lon="2.96006">
        <ele>779.3</ele>
        <time>2026-05-07T09:08:01.999Z</time>
      </trkpt>
      <trkpt lat="43.59339" lon="2.96007">
        <ele>779</ele>
        <time>2026-05-07T09:08:02.999Z</time>
      </trkpt>
      <trkpt lat="43.59338" lon="2.96007">
        <ele>778.9</ele>
        <time>2026-05-07T09:08:04.999Z</time>
      </trkpt>
      <trkpt lat="43.59338" lon="2.96007">
        <ele>778.8</ele>
        <time>2026-05-07T09:08:05.999Z</time>
      </trkpt>
      <trkpt lat="43.59338" lon="2.96007">
        <ele>778.7</ele>
        <time>2026-05-07T09:08:06.999Z</time>
      </trkpt>
      <trkpt lat="43.59338" lon="2.96007">
        <ele>778.6</ele>
        <time>2026-05-07T09:08:07.999Z</time>
      </trkpt>
      <trkpt lat="43.59338" lon="2.96007">
        <ele>778.7</ele>
        <time>2026-05-07T09:08:08.999Z</time>
      </trkpt>
      <trkpt lat="43.59338" lon="2.96007">
        <ele>778.8</ele>
        <time>2026-05-07T09:08:09.999Z</time>
      </trkpt>
      <trkpt lat="43.59339" lon="2.96007">
        <ele>778.8</ele>
        <time>2026-05-07T09:08:10.999Z</time>
      </trkpt>
      <trkpt lat="43.59339" lon="2.96007">
        <ele>778.6</ele>
        <time>2026-05-07T09:08:11.999Z</time>
      </trkpt>
      <trkpt lat="43.59339" lon="2.96007">
        <ele>778.4</ele>
        <time>2026-05-07T09:08:12.999Z</time>
      </trkpt>
      <trkpt lat="43.59339" lon="2.96008">
        <ele>778.1</ele>
        <time>2026-05-07T09:08:13.999Z</time>
      </trkpt>
      <trkpt lat="43.59339" lon="2.96008">
        <ele>778</ele>
        <time>2026-05-07T09:08:14.999Z</time>
      </trkpt>
      <trkpt lat="43.59339" lon="2.96009">
        <ele>777.8</ele>
        <time>2026-05-07T09:08:15.999Z</time>
      </trkpt>
      <trkpt lat="43.59339" lon="2.96009">
        <ele>777.9</ele>
        <time>2026-05-07T09:08:16.999Z</time>
      </trkpt>
      <trkpt lat="43.59339" lon="2.96009">
        <ele>777.8</ele>
        <time>2026-05-07T09:08:17.999Z</time>
      </trkpt>
      <trkpt lat="43.59339" lon="2.96009">
        <ele>778</ele>
        <time>2026-05-07T09:08:18.999Z</time>
      </trkpt>
      <trkpt lat="43.59339" lon="2.96009">
        <ele>778</ele>
        <time>2026-05-07T09:08:19.999Z</time>
      </trkpt>
      <trkpt lat="43.59339" lon="2.96009">
        <ele>777.9</ele>
        <time>2026-05-07T09:08:20.999Z</time>
      </trkpt>
      <trkpt lat="43.59339" lon="2.96009">
        <ele>777.7</ele>
        <time>2026-05-07T09:08:21.999Z</time>
      </trkpt>
      <trkpt lat="43.59339" lon="2.9601">
        <ele>777.2</ele>
        <time>2026-05-07T09:08:22.999Z</time>
      </trkpt>
      <trkpt lat="43.59339" lon="2.9601">
        <ele>776.4</ele>
        <time>2026-05-07T09:08:23.999Z</time>
      </trkpt>
      <trkpt lat="43.59339" lon="2.9601">
        <ele>775.8</ele>
        <time>2026-05-07T09:08:24.999Z</time>
      </trkpt>
      <trkpt lat="43.59339" lon="2.9601">
        <ele>775.5</ele>
        <time>2026-05-07T09:08:25.999Z</time>
      </trkpt>
      <trkpt lat="43.59339" lon="2.9601">
        <ele>775.5</ele>
        <time>2026-05-07T09:08:26.999Z</time>
      </trkpt>
      <trkpt lat="43.59339" lon="2.96009">
        <ele>775.8</ele>
        <time>2026-05-07T09:08:27.999Z</time>
      </trkpt>
      <trkpt lat="43.59338" lon="2.96009">
        <ele>775.9</ele>
        <time>2026-05-07T09:08:28.999Z</time>
      </trkpt>
      <trkpt lat="43.59338" lon="2.96009">
        <ele>776.3</ele>
        <time>2026-05-07T09:08:29.999Z</time>
      </trkpt>
      <trkpt lat="43.59338" lon="2.96009">
        <ele>776.8</ele>
        <time>2026-05-07T09:08:30.999Z</time>
      </trkpt>
      <trkpt lat="43.59339" lon="2.9601">
        <ele>777.2</ele>
        <time>2026-05-07T09:08:31.999Z</time>
      </trkpt>
      <trkpt lat="43.5934" lon="2.96011">
        <ele>777.7</ele>
        <time>2026-05-07T09:08:32.999Z</time>
      </trkpt>
      <trkpt lat="43.5934" lon="2.96011">
        <ele>778</ele>
        <time>2026-05-07T09:08:33.999Z</time>
      </trkpt>
      <trkpt lat="43.5934" lon="2.96011">
        <ele>778.2</ele>
        <time>2026-05-07T09:08:34.999Z</time>
      </trkpt>
      <trkpt lat="43.5934" lon="2.9601">
        <ele>778.3</ele>
        <time>2026-05-07T09:08:35.999Z</time>
      </trkpt>
      <trkpt lat="43.5934" lon="2.96009">
        <ele>778.1</ele>
        <time>2026-05-07T09:08:36.999Z</time>
      </trkpt>
      <trkpt lat="43.59339" lon="2.96008">
        <ele>778.1</ele>
        <time>2026-05-07T09:08:37.999Z</time>
      </trkpt>
      <trkpt lat="43.59338" lon="2.96008">
        <ele>774.7</ele>
        <time>2026-05-07T09:08:38.999Z</time>
      </trkpt>
      <trkpt lat="43.59339" lon="2.96008">
        <ele>774.6</ele>
        <time>2026-05-07T09:08:39.999Z</time>
      </trkpt>
      <trkpt lat="43.59339" lon="2.96008">
        <ele>774.9</ele>
        <time>2026-05-07T09:08:40.999Z</time>
      </trkpt>
      <trkpt lat="43.59338" lon="2.96007">
        <ele>775.1</ele>
        <time>2026-05-07T09:08:41.999Z</time>
      </trkpt>
      <trkpt lat="43.59339" lon="2.96007">
        <ele>775.5</ele>
        <time>2026-05-07T09:08:42.999Z</time>
      </trkpt>
      <trkpt lat="43.59339" lon="2.96008">
        <ele>775.8</ele>
        <time>2026-05-07T09:08:43.999Z</time>
      </trkpt>
      <trkpt lat="43.59338" lon="2.96006">
        <ele>775.9</ele>
        <time>2026-05-07T09:08:44.999Z</time>
      </trkpt>
      <trkpt lat="43.59335" lon="2.96003">
        <ele>775.8</ele>
        <time>2026-05-07T09:08:46.999Z</time>
      </trkpt>
      <trkpt lat="43.59334" lon="2.96002">
        <ele>775.8</ele>
        <time>2026-05-07T09:08:47.999Z</time>
      </trkpt>
      <trkpt lat="43.59332" lon="2.95999">
        <ele>775.8</ele>
        <time>2026-05-07T09:08:48.999Z</time>
      </trkpt>
      <trkpt lat="43.59333" lon="2.96002">
        <ele>775.9</ele>
        <time>2026-05-07T09:08:49.999Z</time>
      </trkpt>
      <trkpt lat="43.59334" lon="2.96005">
        <ele>776.7</ele>
        <time>2026-05-07T09:08:50.999Z</time>
      </trkpt>
      <trkpt lat="43.59338" lon="2.96009">
        <ele>774.5</ele>
        <time>2026-05-07T09:08:51.999Z</time>
      </trkpt>
      <trkpt lat="43.59339" lon="2.96009">
        <ele>775.1</ele>
        <time>2026-05-07T09:08:52.999Z</time>
      </trkpt>
      <trkpt lat="43.59339" lon="2.9601">
        <ele>775.5</ele>
        <time>2026-05-07T09:08:53.999Z</time>
      </trkpt>
      <trkpt lat="43.5934" lon="2.9601">
        <ele>775.7</ele>
        <time>2026-05-07T09:08:54.999Z</time>
      </trkpt>
      <trkpt lat="43.5934" lon="2.9601">
        <ele>775.9</ele>
        <time>2026-05-07T09:08:55.999Z</time>
      </trkpt>
      <trkpt lat="43.59341" lon="2.9601">
        <ele>775.9</ele>
        <time>2026-05-07T09:08:56.999Z</time>
      </trkpt>
      <trkpt lat="43.59341" lon="2.9601">
        <ele>776</ele>
        <time>2026-05-07T09:08:57.999Z</time>
      </trkpt>
      <trkpt lat="43.59341" lon="2.96012">
        <ele>775.8</ele>
        <time>2026-05-07T09:08:58.999Z</time>
      </trkpt>
      <trkpt lat="43.59341" lon="2.96013">
        <ele>775.5</ele>
        <time>2026-05-07T09:08:59.999Z</time>
      </trkpt>
      <trkpt lat="43.59341" lon="2.96013">
        <ele>775.4</ele>
        <time>2026-05-07T09:09:00.999Z</time>
      </trkpt>
      <trkpt lat="43.59341" lon="2.96013">
        <ele>775.4</ele>
        <time>2026-05-07T09:09:01.999Z</time>
      </trkpt>
      <trkpt lat="43.59341" lon="2.96012">
        <ele>774.9</ele>
        <time>2026-05-07T09:09:02.999Z</time>
      </trkpt>
      <trkpt lat="43.59341" lon="2.96013">
        <ele>774.5</ele>
        <time>2026-05-07T09:09:03.999Z</time>
      </trkpt>
      <trkpt lat="43.5934" lon="2.96014">
        <ele>774.5</ele>
        <time>2026-05-07T09:09:04.999Z</time>
      </trkpt>
      <trkpt lat="43.59341" lon="2.96014">
        <ele>774.6</ele>
        <time>2026-05-07T09:09:05.999Z</time>
      </trkpt>
      <trkpt lat="43.59341" lon="2.96014">
        <ele>775.8</ele>
        <time>2026-05-07T09:09:06.999Z</time>
      </trkpt>
      <trkpt lat="43.5934" lon="2.96013">
        <ele>776</ele>
        <time>2026-05-07T09:09:07.999Z</time>
      </trkpt>
      <trkpt lat="43.59339" lon="2.96012">
        <ele>776.2</ele>
        <time>2026-05-07T09:09:08.999Z</time>
      </trkpt>
      <trkpt lat="43.59339" lon="2.96011">
        <ele>776.1</ele>
        <time>2026-05-07T09:09:09.999Z</time>
      </trkpt>
      <trkpt lat="43.59339" lon="2.96011">
        <ele>775.9</ele>
        <time>2026-05-07T09:09:10.999Z</time>
      </trkpt>
      <trkpt lat="43.59339" lon="2.96011">
        <ele>776</ele>
        <time>2026-05-07T09:09:11.999Z</time>
      </trkpt>
      <trkpt lat="43.59339" lon="2.96011">
        <ele>776.2</ele>
        <time>2026-05-07T09:09:12.999Z</time>
      </trkpt>
      <trkpt lat="43.59339" lon="2.96012">
        <ele>776.9</ele>
        <time>2026-05-07T09:09:13.999Z</time>
      </trkpt>
      <trkpt lat="43.5934" lon="2.96013">
        <ele>777.4</ele>
        <time>2026-05-07T09:09:14.999Z</time>
      </trkpt>
      <trkpt lat="43.59341" lon="2.96014">
        <ele>777.7</ele>
        <time>2026-05-07T09:09:15.999Z</time>
      </trkpt>
      <trkpt lat="43.59343" lon="2.96015">
        <ele>777.4</ele>
        <time>2026-05-07T09:09:16.999Z</time>
      </trkpt>
      <trkpt lat="43.59343" lon="2.96016">
        <ele>777.1</ele>
        <time>2026-05-07T09:09:17.999Z</time>
      </trkpt>
      <trkpt lat="43.59344" lon="2.96016">
        <ele>777</ele>
        <time>2026-05-07T09:09:18.999Z</time>
      </trkpt>
      <trkpt lat="43.59345" lon="2.96017">
        <ele>777</ele>
        <time>2026-05-07T09:09:19.999Z</time>
      </trkpt>
      <trkpt lat="43.59345" lon="2.96017">
        <ele>777</ele>
        <time>2026-05-07T09:09:20.999Z</time>
      </trkpt>
      <trkpt lat="43.59346" lon="2.96018">
        <ele>776.8</ele>
        <time>2026-05-07T09:09:21.999Z</time>
      </trkpt>
      <trkpt lat="43.59347" lon="2.96018">
        <ele>776.7</ele>
        <time>2026-05-07T09:09:22.999Z</time>
      </trkpt>
      <trkpt lat="43.59347" lon="2.96016">
        <ele>777.2</ele>
        <time>2026-05-07T09:09:23.999Z</time>
      </trkpt>
      <trkpt lat="43.59347" lon="2.96016">
        <ele>778</ele>
        <time>2026-05-07T09:09:24.999Z</time>
      </trkpt>
      <trkpt lat="43.59345" lon="2.96016">
        <ele>778.2</ele>
        <time>2026-05-07T09:09:25.999Z</time>
      </trkpt>
      <trkpt lat="43.59346" lon="2.96016">
        <ele>780.3</ele>
        <time>2026-05-07T09:09:26.999Z</time>
      </trkpt>
      <trkpt lat="43.59345" lon="2.96016">
        <ele>780.4</ele>
        <time>2026-05-07T09:09:27.999Z</time>
      </trkpt>
      <trkpt lat="43.59345" lon="2.96017">
        <ele>780.4</ele>
        <time>2026-05-07T09:09:28.999Z</time>
      </trkpt>
      <trkpt lat="43.59345" lon="2.96017">
        <ele>780.4</ele>
        <time>2026-05-07T09:09:29.999Z</time>
      </trkpt>
      <trkpt lat="43.59345" lon="2.96018">
        <ele>780.3</ele>
        <time>2026-05-07T09:09:30.999Z</time>
      </trkpt>
      <trkpt lat="43.59345" lon="2.96019">
        <ele>780.6</ele>
        <time>2026-05-07T09:09:31.999Z</time>
      </trkpt>
      <trkpt lat="43.59344" lon="2.96018">
        <ele>780.4</ele>
        <time>2026-05-07T09:09:32.999Z</time>
      </trkpt>
      <trkpt lat="43.59344" lon="2.96016">
        <ele>780.4</ele>
        <time>2026-05-07T09:09:33.999Z</time>
      </trkpt>
      <trkpt lat="43.59344" lon="2.96015">
        <ele>780.3</ele>
        <time>2026-05-07T09:09:34.999Z</time>
      </trkpt>
      <trkpt lat="43.59344" lon="2.96014">
        <ele>780.3</ele>
        <time>2026-05-07T09:09:35.999Z</time>
      </trkpt>
      <trkpt lat="43.59344" lon="2.96015">
        <ele>780</ele>
        <time>2026-05-07T09:09:36.999Z</time>
      </trkpt>
      <trkpt lat="43.59344" lon="2.96016">
        <ele>779.4</ele>
        <time>2026-05-07T09:09:37.999Z</time>
      </trkpt>
      <trkpt lat="43.59344" lon="2.96017">
        <ele>778.9</ele>
        <time>2026-05-07T09:09:38.999Z</time>
      </trkpt>
      <trkpt lat="43.59344" lon="2.96017">
        <ele>778.7</ele>
        <time>2026-05-07T09:09:39.999Z</time>
      </trkpt>
      <trkpt lat="43.59344" lon="2.96016">
        <ele>779</ele>
        <time>2026-05-07T09:09:40.999Z</time>
      </trkpt>
      <trkpt lat="43.59344" lon="2.96016">
        <ele>778.9</ele>
        <time>2026-05-07T09:09:41.999Z</time>
      </trkpt>
      <trkpt lat="43.59344" lon="2.96017">
        <ele>778.1</ele>
        <time>2026-05-07T09:09:42.999Z</time>
      </trkpt>
      <trkpt lat="43.59344" lon="2.96017">
        <ele>777.7</ele>
        <time>2026-05-07T09:09:43.999Z</time>
      </trkpt>
      <trkpt lat="43.59344" lon="2.96017">
        <ele>777.4</ele>
        <time>2026-05-07T09:09:44.999Z</time>
      </trkpt>
      <trkpt lat="43.59344" lon="2.96017">
        <ele>777</ele>
        <time>2026-05-07T09:09:45.999Z</time>
      </trkpt>
      <trkpt lat="43.59344" lon="2.96017">
        <ele>776.5</ele>
        <time>2026-05-07T09:09:46.999Z</time>
      </trkpt>
      <trkpt lat="43.59345" lon="2.96017">
        <ele>776.2</ele>
        <time>2026-05-07T09:09:47.999Z</time>
      </trkpt>
      <trkpt lat="43.59346" lon="2.96019">
        <ele>776.3</ele>
        <time>2026-05-07T09:09:48.999Z</time>
      </trkpt>
      <trkpt lat="43.59347" lon="2.96021">
        <ele>776.1</ele>
        <time>2026-05-07T09:09:49.999Z</time>
      </trkpt>
      <trkpt lat="43.59348" lon="2.96021">
        <ele>775.8</ele>
        <time>2026-05-07T09:09:50.999Z</time>
      </trkpt>
      <trkpt lat="43.59348" lon="2.96021">
        <ele>775.8</ele>
        <time>2026-05-07T09:09:51.999Z</time>
      </trkpt>
      <trkpt lat="43.59348" lon="2.96021">
        <ele>775.1</ele>
        <time>2026-05-07T09:09:52.999Z</time>
      </trkpt>
      <trkpt lat="43.59348" lon="2.96021">
        <ele>775</ele>
        <time>2026-05-07T09:09:53.999Z</time>
      </trkpt>
      <trkpt lat="43.59348" lon="2.96021">
        <ele>774.7</ele>
        <time>2026-05-07T09:09:54.999Z</time>
      </trkpt>
      <trkpt lat="43.59348" lon="2.96022">
        <ele>774.3</ele>
        <time>2026-05-07T09:09:55.999Z</time>
      </trkpt>
      <trkpt lat="43.59348" lon="2.96022">
        <ele>774.1</ele>
        <time>2026-05-07T09:09:56.999Z</time>
      </trkpt>
      <trkpt lat="43.59348" lon="2.96022">
        <ele>774.3</ele>
        <time>2026-05-07T09:09:57.999Z</time>
      </trkpt>
      <trkpt lat="43.59348" lon="2.96022">
        <ele>774.3</ele>
        <time>2026-05-07T09:09:58.999Z</time>
      </trkpt>
      <trkpt lat="43.59348" lon="2.96021">
        <ele>774.4</ele>
        <time>2026-05-07T09:09:59.999Z</time>
      </trkpt>
      <trkpt lat="43.59348" lon="2.96021">
        <ele>774.1</ele>
        <time>2026-05-07T09:10:01.999Z</time>
      </trkpt>
      <trkpt lat="43.59348" lon="2.96021">
        <ele>773.8</ele>
        <time>2026-05-07T09:10:02.999Z</time>
      </trkpt>
      <trkpt lat="43.59348" lon="2.96021">
        <ele>773.6</ele>
        <time>2026-05-07T09:10:03.999Z</time>
      </trkpt>
      <trkpt lat="43.59348" lon="2.96021">
        <ele>773.6</ele>
        <time>2026-05-07T09:10:04.999Z</time>
      </trkpt>
      <trkpt lat="43.59349" lon="2.96021">
        <ele>773.9</ele>
        <time>2026-05-07T09:10:05.999Z</time>
      </trkpt>
      <trkpt lat="43.59349" lon="2.96021">
        <ele>773.9</ele>
        <time>2026-05-07T09:10:06.999Z</time>
      </trkpt>
      <trkpt lat="43.59349" lon="2.96021">
        <ele>773.4</ele>
        <time>2026-05-07T09:10:07.999Z</time>
      </trkpt>
      <trkpt lat="43.59349" lon="2.96021">
        <ele>773.7</ele>
        <time>2026-05-07T09:10:08.999Z</time>
      </trkpt>
      <trkpt lat="43.59349" lon="2.96021">
        <ele>773.9</ele>
        <time>2026-05-07T09:10:09.999Z</time>
      </trkpt>
      <trkpt lat="43.59349" lon="2.96021">
        <ele>774.2</ele>
        <time>2026-05-07T09:10:10.999Z</time>
      </trkpt>
      <trkpt lat="43.59349" lon="2.96021">
        <ele>774.4</ele>
        <time>2026-05-07T09:10:11.999Z</time>
      </trkpt>
      <trkpt lat="43.59349" lon="2.96021">
        <ele>774.8</ele>
        <time>2026-05-07T09:10:12.999Z</time>
      </trkpt>
      <trkpt lat="43.59349" lon="2.96021">
        <ele>775.3</ele>
        <time>2026-05-07T09:10:13.999Z</time>
      </trkpt>
      <trkpt lat="43.59349" lon="2.9602">
        <ele>775.4</ele>
        <time>2026-05-07T09:10:14.999Z</time>
      </trkpt>
      <trkpt lat="43.59349" lon="2.9602">
        <ele>775.4</ele>
        <time>2026-05-07T09:10:15.999Z</time>
      </trkpt>
      <trkpt lat="43.5935" lon="2.96021">
        <ele>776.2</ele>
        <time>2026-05-07T09:10:16.999Z</time>
      </trkpt>
      <trkpt lat="43.5935" lon="2.96021">
        <ele>776.7</ele>
        <time>2026-05-07T09:10:17.999Z</time>
      </trkpt>
      <trkpt lat="43.5935" lon="2.9602">
        <ele>776.8</ele>
        <time>2026-05-07T09:10:18.999Z</time>
      </trkpt>
      <trkpt lat="43.59349" lon="2.96019">
        <ele>776.9</ele>
        <time>2026-05-07T09:10:19.999Z</time>
      </trkpt>
      <trkpt lat="43.5935" lon="2.96019">
        <ele>777</ele>
        <time>2026-05-07T09:10:20.999Z</time>
      </trkpt>
      <trkpt lat="43.5935" lon="2.96019">
        <ele>777.1</ele>
        <time>2026-05-07T09:10:21.999Z</time>
      </trkpt>
      <trkpt lat="43.5935" lon="2.9602">
        <ele>776.9</ele>
        <time>2026-05-07T09:10:22.999Z</time>
      </trkpt>
      <trkpt lat="43.59351" lon="2.9602">
        <ele>776.7</ele>
        <time>2026-05-07T09:10:23.999Z</time>
      </trkpt>
      <trkpt lat="43.59351" lon="2.96021">
        <ele>776.4</ele>
        <time>2026-05-07T09:10:24.999Z</time>
      </trkpt>
      <trkpt lat="43.59352" lon="2.96022">
        <ele>776.5</ele>
        <time>2026-05-07T09:10:25.999Z</time>
      </trkpt>
      <trkpt lat="43.59353" lon="2.96023">
        <ele>776.9</ele>
        <time>2026-05-07T09:10:26.999Z</time>
      </trkpt>
      <trkpt lat="43.59353" lon="2.96023">
        <ele>777.3</ele>
        <time>2026-05-07T09:10:27.999Z</time>
      </trkpt>
      <trkpt lat="43.59353" lon="2.96023">
        <ele>777.9</ele>
        <time>2026-05-07T09:10:28.999Z</time>
      </trkpt>
      <trkpt lat="43.59353" lon="2.96023">
        <ele>778.2</ele>
        <time>2026-05-07T09:10:29.999Z</time>
      </trkpt>
      <trkpt lat="43.59353" lon="2.96023">
        <ele>778.7</ele>
        <time>2026-05-07T09:10:30.999Z</time>
      </trkpt>
      <trkpt lat="43.59354" lon="2.96023">
        <ele>779</ele>
        <time>2026-05-07T09:10:31.999Z</time>
      </trkpt>
      <trkpt lat="43.59354" lon="2.96022">
        <ele>779.1</ele>
        <time>2026-05-07T09:10:32.999Z</time>
      </trkpt>
      <trkpt lat="43.59353" lon="2.96021">
        <ele>778.8</ele>
        <time>2026-05-07T09:10:33.999Z</time>
      </trkpt>
      <trkpt lat="43.59352" lon="2.9602">
        <ele>778.9</ele>
        <time>2026-05-07T09:10:34.999Z</time>
      </trkpt>
      <trkpt lat="43.59352" lon="2.96019">
        <ele>779</ele>
        <time>2026-05-07T09:10:35.999Z</time>
      </trkpt>
      <trkpt lat="43.59352" lon="2.96018">
        <ele>779.2</ele>
        <time>2026-05-07T09:10:36.999Z</time>
      </trkpt>
      <trkpt lat="43.59352" lon="2.96018">
        <ele>779.4</ele>
        <time>2026-05-07T09:10:37.999Z</time>
      </trkpt>
      <trkpt lat="43.59352" lon="2.96018">
        <ele>779.2</ele>
        <time>2026-05-07T09:10:38.999Z</time>
      </trkpt>
      <trkpt lat="43.59352" lon="2.96018">
        <ele>779.2</ele>
        <time>2026-05-07T09:10:39.999Z</time>
      </trkpt>
      <trkpt lat="43.59351" lon="2.96018">
        <ele>779.6</ele>
        <time>2026-05-07T09:10:40.999Z</time>
      </trkpt>
      <trkpt lat="43.59351" lon="2.96017">
        <ele>780.1</ele>
        <time>2026-05-07T09:10:41.999Z</time>
      </trkpt>
      <trkpt lat="43.59352" lon="2.96017">
        <ele>780.2</ele>
        <time>2026-05-07T09:10:42.999Z</time>
      </trkpt>
      <trkpt lat="43.59352" lon="2.96017">
        <ele>780.6</ele>
        <time>2026-05-07T09:10:44.999Z</time>
      </trkpt>
      <trkpt lat="43.59352" lon="2.96017">
        <ele>780.8</ele>
        <time>2026-05-07T09:10:45.999Z</time>
      </trkpt>
      <trkpt lat="43.59352" lon="2.96017">
        <ele>780.7</ele>
        <time>2026-05-07T09:10:46.999Z</time>
      </trkpt>
      <trkpt lat="43.59352" lon="2.96017">
        <ele>780.4</ele>
        <time>2026-05-07T09:10:47.999Z</time>
      </trkpt>
      <trkpt lat="43.59352" lon="2.96016">
        <ele>780.4</ele>
        <time>2026-05-07T09:10:48.999Z</time>
      </trkpt>
      <trkpt lat="43.59352" lon="2.96016">
        <ele>780.6</ele>
        <time>2026-05-07T09:10:49.999Z</time>
      </trkpt>
      <trkpt lat="43.59352" lon="2.96016">
        <ele>780.8</ele>
        <time>2026-05-07T09:10:50.999Z</time>
      </trkpt>
      <trkpt lat="43.59352" lon="2.96016">
        <ele>780.9</ele>
        <time>2026-05-07T09:10:51.999Z</time>
      </trkpt>
      <trkpt lat="43.59352" lon="2.96016">
        <ele>780.9</ele>
        <time>2026-05-07T09:10:52.999Z</time>
      </trkpt>
      <trkpt lat="43.59352" lon="2.96016">
        <ele>780.9</ele>
        <time>2026-05-07T09:10:53.999Z</time>
      </trkpt>
      <trkpt lat="43.59352" lon="2.96016">
        <ele>781.2</ele>
        <time>2026-05-07T09:10:54.999Z</time>
      </trkpt>
      <trkpt lat="43.59352" lon="2.96016">
        <ele>781.6</ele>
        <time>2026-05-07T09:10:55.999Z</time>
      </trkpt>
      <trkpt lat="43.59352" lon="2.96015">
        <ele>782.1</ele>
        <time>2026-05-07T09:10:56.999Z</time>
      </trkpt>
      <trkpt lat="43.59352" lon="2.96015">
        <ele>782.4</ele>
        <time>2026-05-07T09:10:57.999Z</time>
      </trkpt>
      <trkpt lat="43.59352" lon="2.96015">
        <ele>782.2</ele>
        <time>2026-05-07T09:10:58.999Z</time>
      </trkpt>
      <trkpt lat="43.59352" lon="2.96015">
        <ele>782.4</ele>
        <time>2026-05-07T09:10:59.999Z</time>
      </trkpt>
      <trkpt lat="43.59351" lon="2.96015">
        <ele>782.6</ele>
        <time>2026-05-07T09:11:00.999Z</time>
      </trkpt>
      <trkpt lat="43.59351" lon="2.96015">
        <ele>782.5</ele>
        <time>2026-05-07T09:11:01.999Z</time>
      </trkpt>
      <trkpt lat="43.59351" lon="2.96016">
        <ele>782.5</ele>
        <time>2026-05-07T09:11:02.999Z</time>
      </trkpt>
      <trkpt lat="43.59352" lon="2.96016">
        <ele>782.6</ele>
        <time>2026-05-07T09:11:03.999Z</time>
      </trkpt>
      <trkpt lat="43.59352" lon="2.96016">
        <ele>782.6</ele>
        <time>2026-05-07T09:11:04.999Z</time>
      </trkpt>
      <trkpt lat="43.59352" lon="2.96016">
        <ele>782.6</ele>
        <time>2026-05-07T09:11:05.999Z</time>
      </trkpt>
      <trkpt lat="43.59352" lon="2.96016">
        <ele>782.9</ele>
        <time>2026-05-07T09:11:06.999Z</time>
      </trkpt>
      <trkpt lat="43.59352" lon="2.96016">
        <ele>783</ele>
        <time>2026-05-07T09:11:07.999Z</time>
      </trkpt>
      <trkpt lat="43.59352" lon="2.96016">
        <ele>782.8</ele>
        <time>2026-05-07T09:11:08.999Z</time>
      </trkpt>
      <trkpt lat="43.59352" lon="2.96016">
        <ele>782.5</ele>
        <time>2026-05-07T09:11:09.999Z</time>
      </trkpt>
      <trkpt lat="43.59353" lon="2.96017">
        <ele>782.3</ele>
        <time>2026-05-07T09:11:10.999Z</time>
      </trkpt>
      <trkpt lat="43.59354" lon="2.96017">
        <ele>782.2</ele>
        <time>2026-05-07T09:11:11.999Z</time>
      </trkpt>
      <trkpt lat="43.59354" lon="2.96016">
        <ele>782.2</ele>
        <time>2026-05-07T09:11:12.999Z</time>
      </trkpt>
      <trkpt lat="43.59354" lon="2.96016">
        <ele>782.2</ele>
        <time>2026-05-07T09:11:13.999Z</time>
      </trkpt>
      <trkpt lat="43.59354" lon="2.96016">
        <ele>782.4</ele>
        <time>2026-05-07T09:11:14.999Z</time>
      </trkpt>
      <trkpt lat="43.59354" lon="2.96017">
        <ele>782.3</ele>
        <time>2026-05-07T09:11:15.999Z</time>
      </trkpt>
      <trkpt lat="43.59354" lon="2.96017">
        <ele>782.2</ele>
        <time>2026-05-07T09:11:16.999Z</time>
      </trkpt>
      <trkpt lat="43.59354" lon="2.96017">
        <ele>782.4</ele>
        <time>2026-05-07T09:11:17.999Z</time>
      </trkpt>
      <trkpt lat="43.59355" lon="2.96018">
        <ele>782.4</ele>
        <time>2026-05-07T09:11:18.999Z</time>
      </trkpt>
      <trkpt lat="43.59355" lon="2.96018">
        <ele>782.8</ele>
        <time>2026-05-07T09:11:19.999Z</time>
      </trkpt>
      <trkpt lat="43.59355" lon="2.96018">
        <ele>783.2</ele>
        <time>2026-05-07T09:11:20.999Z</time>
      </trkpt>
      <trkpt lat="43.59356" lon="2.96018">
        <ele>783.7</ele>
        <time>2026-05-07T09:11:21.999Z</time>
      </trkpt>
      <trkpt lat="43.59356" lon="2.96019">
        <ele>783.6</ele>
        <time>2026-05-07T09:11:22.999Z</time>
      </trkpt>
      <trkpt lat="43.59356" lon="2.96019">
        <ele>783.8</ele>
        <time>2026-05-07T09:11:23.999Z</time>
      </trkpt>
      <trkpt lat="43.59356" lon="2.96019">
        <ele>783.9</ele>
        <time>2026-05-07T09:11:24.999Z</time>
      </trkpt>
      <trkpt lat="43.59356" lon="2.96019">
        <ele>783.9</ele>
        <time>2026-05-07T09:11:25.999Z</time>
      </trkpt>
      <trkpt lat="43.59356" lon="2.96018">
        <ele>783.8</ele>
        <time>2026-05-07T09:11:26.999Z</time>
      </trkpt>
      <trkpt lat="43.59356" lon="2.96017">
        <ele>783.7</ele>
        <time>2026-05-07T09:11:27.999Z</time>
      </trkpt>
      <trkpt lat="43.59356" lon="2.96016">
        <ele>783.7</ele>
        <time>2026-05-07T09:11:28.999Z</time>
      </trkpt>
      <trkpt lat="43.59356" lon="2.96016">
        <ele>783.7</ele>
        <time>2026-05-07T09:11:29.999Z</time>
      </trkpt>
      <trkpt lat="43.59356" lon="2.96016">
        <ele>783.5</ele>
        <time>2026-05-07T09:11:31.999Z</time>
      </trkpt>
      <trkpt lat="43.59357" lon="2.96016">
        <ele>783.8</ele>
        <time>2026-05-07T09:11:32.999Z</time>
      </trkpt>
      <trkpt lat="43.59357" lon="2.96015">
        <ele>784.1</ele>
        <time>2026-05-07T09:11:33.999Z</time>
      </trkpt>
      <trkpt lat="43.59357" lon="2.96015">
        <ele>784</ele>
        <time>2026-05-07T09:11:34.999Z</time>
      </trkpt>
      <trkpt lat="43.59358" lon="2.96015">
        <ele>784.2</ele>
        <time>2026-05-07T09:11:35.999Z</time>
      </trkpt>
      <trkpt lat="43.59358" lon="2.96016">
        <ele>784.4</ele>
        <time>2026-05-07T09:11:36.999Z</time>
      </trkpt>
      <trkpt lat="43.59359" lon="2.96016">
        <ele>784.3</ele>
        <time>2026-05-07T09:11:37.999Z</time>
      </trkpt>
      <trkpt lat="43.59359" lon="2.96016">
        <ele>784.6</ele>
        <time>2026-05-07T09:11:38.999Z</time>
      </trkpt>
      <trkpt lat="43.5936" lon="2.96016">
        <ele>785.1</ele>
        <time>2026-05-07T09:11:39.999Z</time>
      </trkpt>
      <trkpt lat="43.5936" lon="2.96016">
        <ele>785.1</ele>
        <time>2026-05-07T09:11:40.999Z</time>
      </trkpt>
      <trkpt lat="43.5936" lon="2.96016">
        <ele>785.4</ele>
        <time>2026-05-07T09:11:41.999Z</time>
      </trkpt>
      <trkpt lat="43.5936" lon="2.96016">
        <ele>785.6</ele>
        <time>2026-05-07T09:11:42.999Z</time>
      </trkpt>
      <trkpt lat="43.5936" lon="2.96016">
        <ele>786</ele>
        <time>2026-05-07T09:11:43.999Z</time>
      </trkpt>
      <trkpt lat="43.59361" lon="2.96016">
        <ele>786.2</ele>
        <time>2026-05-07T09:11:44.999Z</time>
      </trkpt>
      <trkpt lat="43.59361" lon="2.96016">
        <ele>786.4</ele>
        <time>2026-05-07T09:11:45.999Z</time>
      </trkpt>
      <trkpt lat="43.59361" lon="2.96016">
        <ele>786.9</ele>
        <time>2026-05-07T09:11:46.999Z</time>
      </trkpt>
      <trkpt lat="43.59361" lon="2.96016">
        <ele>786.9</ele>
        <time>2026-05-07T09:11:47.999Z</time>
      </trkpt>
      <trkpt lat="43.5936" lon="2.96016">
        <ele>786.8</ele>
        <time>2026-05-07T09:11:48.999Z</time>
      </trkpt>
      <trkpt lat="43.5936" lon="2.96016">
        <ele>786.9</ele>
        <time>2026-05-07T09:11:49.999Z</time>
      </trkpt>
      <trkpt lat="43.5936" lon="2.96015">
        <ele>787.1</ele>
        <time>2026-05-07T09:11:50.999Z</time>
      </trkpt>
      <trkpt lat="43.5936" lon="2.96015">
        <ele>787.2</ele>
        <time>2026-05-07T09:11:51.999Z</time>
      </trkpt>
      <trkpt lat="43.5936" lon="2.96015">
        <ele>787.4</ele>
        <time>2026-05-07T09:11:52.999Z</time>
      </trkpt>
      <trkpt lat="43.5936" lon="2.96015">
        <ele>787.1</ele>
        <time>2026-05-07T09:11:53.999Z</time>
      </trkpt>
      <trkpt lat="43.5936" lon="2.96014">
        <ele>787.1</ele>
        <time>2026-05-07T09:11:54.999Z</time>
      </trkpt>
      <trkpt lat="43.59359" lon="2.96014">
        <ele>787.2</ele>
        <time>2026-05-07T09:11:55.999Z</time>
      </trkpt>
      <trkpt lat="43.59359" lon="2.96013">
        <ele>787.4</ele>
        <time>2026-05-07T09:11:56.999Z</time>
      </trkpt>
      <trkpt lat="43.59359" lon="2.96013">
        <ele>787.8</ele>
        <time>2026-05-07T09:11:57.999Z</time>
      </trkpt>
      <trkpt lat="43.59359" lon="2.96013">
        <ele>787.8</ele>
        <time>2026-05-07T09:11:58.999Z</time>
      </trkpt>
      <trkpt lat="43.59358" lon="2.96014">
        <ele>787.6</ele>
        <time>2026-05-07T09:11:59.999Z</time>
      </trkpt>
      <trkpt lat="43.59358" lon="2.96014">
        <ele>787.3</ele>
        <time>2026-05-07T09:12:00.999Z</time>
      </trkpt>
      <trkpt lat="43.59358" lon="2.96013">
        <ele>787.5</ele>
        <time>2026-05-07T09:12:01.999Z</time>
      </trkpt>
      <trkpt lat="43.59358" lon="2.96013">
        <ele>787.6</ele>
        <time>2026-05-07T09:12:02.999Z</time>
      </trkpt>
      <trkpt lat="43.59358" lon="2.96013">
        <ele>787.3</ele>
        <time>2026-05-07T09:12:03.999Z</time>
      </trkpt>
      <trkpt lat="43.59358" lon="2.96013">
        <ele>787.4</ele>
        <time>2026-05-07T09:12:04.999Z</time>
      </trkpt>
      <trkpt lat="43.59358" lon="2.96013">
        <ele>788.1</ele>
        <time>2026-05-07T09:12:05.999Z</time>
      </trkpt>
      <trkpt lat="43.59358" lon="2.96012">
        <ele>788.7</ele>
        <time>2026-05-07T09:12:06.999Z</time>
      </trkpt>
      <trkpt lat="43.59357" lon="2.96011">
        <ele>789.2</ele>
        <time>2026-05-07T09:12:07.999Z</time>
      </trkpt>
      <trkpt lat="43.59357" lon="2.9601">
        <ele>789.4</ele>
        <time>2026-05-07T09:12:08.999Z</time>
      </trkpt>
      <trkpt lat="43.59357" lon="2.9601">
        <ele>789.7</ele>
        <time>2026-05-07T09:12:09.999Z</time>
      </trkpt>
      <trkpt lat="43.59357" lon="2.9601">
        <ele>790</ele>
        <time>2026-05-07T09:12:10.999Z</time>
      </trkpt>
      <trkpt lat="43.59357" lon="2.9601">
        <ele>790.3</ele>
        <time>2026-05-07T09:12:11.999Z</time>
      </trkpt>
      <trkpt lat="43.59357" lon="2.9601">
        <ele>790.2</ele>
        <time>2026-05-07T09:12:12.999Z</time>
      </trkpt>
      <trkpt lat="43.59357" lon="2.9601">
        <ele>790.1</ele>
        <time>2026-05-07T09:12:13.999Z</time>
      </trkpt>
      <trkpt lat="43.59357" lon="2.9601">
        <ele>789.8</ele>
        <time>2026-05-07T09:12:14.999Z</time>
      </trkpt>
      <trkpt lat="43.59357" lon="2.9601">
        <ele>789.8</ele>
        <time>2026-05-07T09:12:15.999Z</time>
      </trkpt>
      <trkpt lat="43.59357" lon="2.9601">
        <ele>789.7</ele>
        <time>2026-05-07T09:12:16.999Z</time>
      </trkpt>
      <trkpt lat="43.59357" lon="2.9601">
        <ele>789.7</ele>
        <time>2026-05-07T09:12:17.999Z</time>
      </trkpt>
      <trkpt lat="43.59357" lon="2.9601">
        <ele>789.8</ele>
        <time>2026-05-07T09:12:18.999Z</time>
      </trkpt>
      <trkpt lat="43.59357" lon="2.96011">
        <ele>789.7</ele>
        <time>2026-05-07T09:12:19.999Z</time>
      </trkpt>
      <trkpt lat="43.59358" lon="2.96011">
        <ele>789.6</ele>
        <time>2026-05-07T09:12:20.999Z</time>
      </trkpt>
      <trkpt lat="43.59358" lon="2.96011">
        <ele>789.6</ele>
        <time>2026-05-07T09:12:21.999Z</time>
      </trkpt>
      <trkpt lat="43.59358" lon="2.96011">
        <ele>789.6</ele>
        <time>2026-05-07T09:12:22.999Z</time>
      </trkpt>
      <trkpt lat="43.59358" lon="2.96011">
        <ele>789.5</ele>
        <time>2026-05-07T09:12:23.999Z</time>
      </trkpt>
      <trkpt lat="43.59357" lon="2.96011">
        <ele>789.5</ele>
        <time>2026-05-07T09:12:24.999Z</time>
      </trkpt>
      <trkpt lat="43.59357" lon="2.96012">
        <ele>789.6</ele>
        <time>2026-05-07T09:12:25.999Z</time>
      </trkpt>
      <trkpt lat="43.59357" lon="2.96012">
        <ele>789.9</ele>
        <time>2026-05-07T09:12:26.999Z</time>
      </trkpt>
      <trkpt lat="43.59359" lon="2.96012">
        <ele>790.4</ele>
        <time>2026-05-07T09:12:28.999Z</time>
      </trkpt>
      <trkpt lat="43.5936" lon="2.96013">
        <ele>790.3</ele>
        <time>2026-05-07T09:12:29.999Z</time>
      </trkpt>
      <trkpt lat="43.5936" lon="2.96013">
        <ele>790.4</ele>
        <time>2026-05-07T09:12:30.999Z</time>
      </trkpt>
      <trkpt lat="43.59359" lon="2.96013">
        <ele>790</ele>
        <time>2026-05-07T09:12:31.999Z</time>
      </trkpt>
      <trkpt lat="43.59358" lon="2.96013">
        <ele>790.1</ele>
        <time>2026-05-07T09:12:32.999Z</time>
      </trkpt>
      <trkpt lat="43.59358" lon="2.96014">
        <ele>790.3</ele>
        <time>2026-05-07T09:12:33.999Z</time>
      </trkpt>
      <trkpt lat="43.59357" lon="2.96014">
        <ele>790.4</ele>
        <time>2026-05-07T09:12:34.999Z</time>
      </trkpt>
      <trkpt lat="43.59357" lon="2.96014">
        <ele>790.7</ele>
        <time>2026-05-07T09:12:35.999Z</time>
      </trkpt>
      <trkpt lat="43.59356" lon="2.96015">
        <ele>791.1</ele>
        <time>2026-05-07T09:12:36.999Z</time>
      </trkpt>
      <trkpt lat="43.59357" lon="2.96015">
        <ele>791.4</ele>
        <time>2026-05-07T09:12:37.999Z</time>
      </trkpt>
      <trkpt lat="43.59358" lon="2.96016">
        <ele>791.4</ele>
        <time>2026-05-07T09:12:38.999Z</time>
      </trkpt>
      <trkpt lat="43.59359" lon="2.96016">
        <ele>791.2</ele>
        <time>2026-05-07T09:12:39.999Z</time>
      </trkpt>
      <trkpt lat="43.59359" lon="2.96016">
        <ele>791.3</ele>
        <time>2026-05-07T09:12:40.999Z</time>
      </trkpt>
      <trkpt lat="43.5936" lon="2.96016">
        <ele>790.8</ele>
        <time>2026-05-07T09:12:41.999Z</time>
      </trkpt>
      <trkpt lat="43.59362" lon="2.96016">
        <ele>790.4</ele>
        <time>2026-05-07T09:12:42.999Z</time>
      </trkpt>
      <trkpt lat="43.59363" lon="2.96015">
        <ele>791</ele>
        <time>2026-05-07T09:12:43.999Z</time>
      </trkpt>
      <trkpt lat="43.59363" lon="2.96015">
        <ele>791.1</ele>
        <time>2026-05-07T09:12:44.999Z</time>
      </trkpt>
      <trkpt lat="43.59364" lon="2.96013">
        <ele>791.5</ele>
        <time>2026-05-07T09:12:45.999Z</time>
      </trkpt>
      <trkpt lat="43.59364" lon="2.96014">
        <ele>791.6</ele>
        <time>2026-05-07T09:12:46.999Z</time>
      </trkpt>
      <trkpt lat="43.59365" lon="2.96013">
        <ele>791.9</ele>
        <time>2026-05-07T09:12:47.999Z</time>
      </trkpt>
      <trkpt lat="43.59366" lon="2.96013">
        <ele>792.5</ele>
        <time>2026-05-07T09:12:48.999Z</time>
      </trkpt>
      <trkpt lat="43.59366" lon="2.96013">
        <ele>792.9</ele>
        <time>2026-05-07T09:12:49.999Z</time>
      </trkpt>
      <trkpt lat="43.59366" lon="2.96014">
        <ele>793.3</ele>
        <time>2026-05-07T09:12:50.999Z</time>
      </trkpt>
      <trkpt lat="43.59365" lon="2.96012">
        <ele>794.8</ele>
        <time>2026-05-07T09:12:51.999Z</time>
      </trkpt>
      <trkpt lat="43.59365" lon="2.96012">
        <ele>794.9</ele>
        <time>2026-05-07T09:12:52.999Z</time>
      </trkpt>
      <trkpt lat="43.59365" lon="2.96011">
        <ele>794.7</ele>
        <time>2026-05-07T09:12:53.999Z</time>
      </trkpt>
      <trkpt lat="43.59364" lon="2.96011">
        <ele>794.3</ele>
        <time>2026-05-07T09:12:54.999Z</time>
      </trkpt>
      <trkpt lat="43.59364" lon="2.96011">
        <ele>794.2</ele>
        <time>2026-05-07T09:12:55.999Z</time>
      </trkpt>
      <trkpt lat="43.59364" lon="2.96011">
        <ele>793.7</ele>
        <time>2026-05-07T09:12:56.999Z</time>
      </trkpt>
      <trkpt lat="43.59364" lon="2.96012">
        <ele>793.4</ele>
        <time>2026-05-07T09:12:57.999Z</time>
      </trkpt>
      <trkpt lat="43.59364" lon="2.96012">
        <ele>793.1</ele>
        <time>2026-05-07T09:12:58.999Z</time>
      </trkpt>
      <trkpt lat="43.59364" lon="2.96012">
        <ele>792.8</ele>
        <time>2026-05-07T09:12:59.999Z</time>
      </trkpt>
      <trkpt lat="43.59363" lon="2.96012">
        <ele>792.6</ele>
        <time>2026-05-07T09:13:00.999Z</time>
      </trkpt>
      <trkpt lat="43.59363" lon="2.96011">
        <ele>793.2</ele>
        <time>2026-05-07T09:13:01.999Z</time>
      </trkpt>
      <trkpt lat="43.59362" lon="2.9601">
        <ele>793.3</ele>
        <time>2026-05-07T09:13:02.999Z</time>
      </trkpt>
      <trkpt lat="43.59362" lon="2.9601">
        <ele>793.4</ele>
        <time>2026-05-07T09:13:03.999Z</time>
      </trkpt>
      <trkpt lat="43.59362" lon="2.96009">
        <ele>793.4</ele>
        <time>2026-05-07T09:13:04.999Z</time>
      </trkpt>
      <trkpt lat="43.59361" lon="2.96008">
        <ele>793.5</ele>
        <time>2026-05-07T09:13:05.999Z</time>
      </trkpt>
      <trkpt lat="43.59361" lon="2.96008">
        <ele>793.6</ele>
        <time>2026-05-07T09:13:06.999Z</time>
      </trkpt>
      <trkpt lat="43.59361" lon="2.96007">
        <ele>793.7</ele>
        <time>2026-05-07T09:13:07.999Z</time>
      </trkpt>
      <trkpt lat="43.59361" lon="2.96007">
        <ele>793.7</ele>
        <time>2026-05-07T09:13:08.999Z</time>
      </trkpt>
      <trkpt lat="43.59361" lon="2.96007">
        <ele>793.5</ele>
        <time>2026-05-07T09:13:10.999Z</time>
      </trkpt>
      <trkpt lat="43.59362" lon="2.96007">
        <ele>793.5</ele>
        <time>2026-05-07T09:13:11.999Z</time>
      </trkpt>
      <trkpt lat="43.59362" lon="2.96007">
        <ele>793.7</ele>
        <time>2026-05-07T09:13:12.999Z</time>
      </trkpt>
      <trkpt lat="43.59363" lon="2.96005">
        <ele>794</ele>
        <time>2026-05-07T09:13:13.999Z</time>
      </trkpt>
      <trkpt lat="43.59363" lon="2.96004">
        <ele>794.2</ele>
        <time>2026-05-07T09:13:14.999Z</time>
      </trkpt>
      <trkpt lat="43.59365" lon="2.96006">
        <ele>794.8</ele>
        <time>2026-05-07T09:13:15.999Z</time>
      </trkpt>
      <trkpt lat="43.59366" lon="2.96004">
        <ele>795.7</ele>
        <time>2026-05-07T09:13:16.999Z</time>
      </trkpt>
      <trkpt lat="43.59365" lon="2.96002">
        <ele>796.4</ele>
        <time>2026-05-07T09:13:17.999Z</time>
      </trkpt>
      <trkpt lat="43.59365" lon="2.96002">
        <ele>796.7</ele>
        <time>2026-05-07T09:13:18.999Z</time>
      </trkpt>
      <trkpt lat="43.59366" lon="2.96001">
        <ele>797.1</ele>
        <time>2026-05-07T09:13:19.999Z</time>
      </trkpt>
      <trkpt lat="43.59366" lon="2.96001">
        <ele>797.8</ele>
        <time>2026-05-07T09:13:20.999Z</time>
      </trkpt>
      <trkpt lat="43.59366" lon="2.96">
        <ele>798</ele>
        <time>2026-05-07T09:13:21.999Z</time>
      </trkpt>
      <trkpt lat="43.59367" lon="2.96001">
        <ele>797.5</ele>
        <time>2026-05-07T09:13:22.999Z</time>
      </trkpt>
      <trkpt lat="43.59366" lon="2.96001">
        <ele>797.5</ele>
        <time>2026-05-07T09:13:23.999Z</time>
      </trkpt>
      <trkpt lat="43.59366" lon="2.96001">
        <ele>797.9</ele>
        <time>2026-05-07T09:13:24.999Z</time>
      </trkpt>
      <trkpt lat="43.59365" lon="2.96002">
        <ele>797.5</ele>
        <time>2026-05-07T09:13:25.999Z</time>
      </trkpt>
      <trkpt lat="43.59365" lon="2.96003">
        <ele>797</ele>
        <time>2026-05-07T09:13:26.999Z</time>
      </trkpt>
      <trkpt lat="43.59366" lon="2.96004">
        <ele>797.6</ele>
        <time>2026-05-07T09:13:27.999Z</time>
      </trkpt>
      <trkpt lat="43.59368" lon="2.96006">
        <ele>797.9</ele>
        <time>2026-05-07T09:13:28.999Z</time>
      </trkpt>
      <trkpt lat="43.59369" lon="2.96007">
        <ele>797.9</ele>
        <time>2026-05-07T09:13:29.999Z</time>
      </trkpt>
      <trkpt lat="43.5937" lon="2.96007">
        <ele>797.7</ele>
        <time>2026-05-07T09:13:30.999Z</time>
      </trkpt>
      <trkpt lat="43.59372" lon="2.96009">
        <ele>797.4</ele>
        <time>2026-05-07T09:13:31.999Z</time>
      </trkpt>
      <trkpt lat="43.59372" lon="2.96012">
        <ele>798</ele>
        <time>2026-05-07T09:13:33.999Z</time>
      </trkpt>
      <trkpt lat="43.59372" lon="2.96012">
        <ele>797.6</ele>
        <time>2026-05-07T09:13:34.999Z</time>
      </trkpt>
      <trkpt lat="43.59373" lon="2.96014">
        <ele>797.2</ele>
        <time>2026-05-07T09:13:35.999Z</time>
      </trkpt>
      <trkpt lat="43.59374" lon="2.96016">
        <ele>797.3</ele>
        <time>2026-05-07T09:13:36.999Z</time>
      </trkpt>
      <trkpt lat="43.59373" lon="2.96015">
        <ele>798.6</ele>
        <time>2026-05-07T09:13:37.999Z</time>
      </trkpt>
      <trkpt lat="43.59373" lon="2.96015">
        <ele>798.7</ele>
        <time>2026-05-07T09:13:38.999Z</time>
      </trkpt>
      <trkpt lat="43.59373" lon="2.96015">
        <ele>798.8</ele>
        <time>2026-05-07T09:13:39.999Z</time>
      </trkpt>
      <trkpt lat="43.59374" lon="2.96016">
        <ele>799</ele>
        <time>2026-05-07T09:13:40.999Z</time>
      </trkpt>
      <trkpt lat="43.59374" lon="2.96016">
        <ele>798.6</ele>
        <time>2026-05-07T09:13:41.999Z</time>
      </trkpt>
      <trkpt lat="43.59373" lon="2.96016">
        <ele>798.8</ele>
        <time>2026-05-07T09:13:42.999Z</time>
      </trkpt>
      <trkpt lat="43.59373" lon="2.96015">
        <ele>798.7</ele>
        <time>2026-05-07T09:13:43.999Z</time>
      </trkpt>
      <trkpt lat="43.59372" lon="2.96014">
        <ele>798.4</ele>
        <time>2026-05-07T09:13:44.999Z</time>
      </trkpt>
      <trkpt lat="43.59371" lon="2.96013">
        <ele>798.5</ele>
        <time>2026-05-07T09:13:45.999Z</time>
      </trkpt>
      <trkpt lat="43.59371" lon="2.96013">
        <ele>798.7</ele>
        <time>2026-05-07T09:13:46.999Z</time>
      </trkpt>
      <trkpt lat="43.59371" lon="2.96014">
        <ele>799.1</ele>
        <time>2026-05-07T09:13:47.999Z</time>
      </trkpt>
      <trkpt lat="43.5937" lon="2.96014">
        <ele>799.3</ele>
        <time>2026-05-07T09:13:48.999Z</time>
      </trkpt>
      <trkpt lat="43.5937" lon="2.96014">
        <ele>799.2</ele>
        <time>2026-05-07T09:13:49.999Z</time>
      </trkpt>
      <trkpt lat="43.59368" lon="2.96011">
        <ele>798.9</ele>
        <time>2026-05-07T09:13:51.999Z</time>
      </trkpt>
      <trkpt lat="43.59367" lon="2.96012">
        <ele>798.4</ele>
        <time>2026-05-07T09:13:52.999Z</time>
      </trkpt>
      <trkpt lat="43.59365" lon="2.96011">
        <ele>798.2</ele>
        <time>2026-05-07T09:13:53.999Z</time>
      </trkpt>
      <trkpt lat="43.59364" lon="2.9601">
        <ele>798.2</ele>
        <time>2026-05-07T09:13:54.999Z</time>
      </trkpt>
      <trkpt lat="43.59364" lon="2.9601">
        <ele>798.2</ele>
        <time>2026-05-07T09:13:55.999Z</time>
      </trkpt>
      <trkpt lat="43.59364" lon="2.96011">
        <ele>798.4</ele>
        <time>2026-05-07T09:13:56.999Z</time>
      </trkpt>
      <trkpt lat="43.59366" lon="2.96012">
        <ele>798.1</ele>
        <time>2026-05-07T09:13:57.999Z</time>
      </trkpt>
      <trkpt lat="43.59365" lon="2.96011">
        <ele>797.8</ele>
        <time>2026-05-07T09:13:58.999Z</time>
      </trkpt>
      <trkpt lat="43.59365" lon="2.96011">
        <ele>798</ele>
        <time>2026-05-07T09:13:59.999Z</time>
      </trkpt>
      <trkpt lat="43.59365" lon="2.96009">
        <ele>798</ele>
        <time>2026-05-07T09:14:00.999Z</time>
      </trkpt>
      <trkpt lat="43.59366" lon="2.9601">
        <ele>798</ele>
        <time>2026-05-07T09:14:01.999Z</time>
      </trkpt>
      <trkpt lat="43.59366" lon="2.9601">
        <ele>798</ele>
        <time>2026-05-07T09:14:02.999Z</time>
      </trkpt>
      <trkpt lat="43.59367" lon="2.9601">
        <ele>798.4</ele>
        <time>2026-05-07T09:14:03.999Z</time>
      </trkpt>
      <trkpt lat="43.59368" lon="2.96009">
        <ele>798.8</ele>
        <time>2026-05-07T09:14:04.999Z</time>
      </trkpt>
      <trkpt lat="43.59368" lon="2.96009">
        <ele>798.6</ele>
        <time>2026-05-07T09:14:05.999Z</time>
      </trkpt>
      <trkpt lat="43.5937" lon="2.9601">
        <ele>798.6</ele>
        <time>2026-05-07T09:14:06.999Z</time>
      </trkpt>
      <trkpt lat="43.5937" lon="2.96009">
        <ele>798.8</ele>
        <time>2026-05-07T09:14:07.999Z</time>
      </trkpt>
      <trkpt lat="43.59371" lon="2.96009">
        <ele>798.5</ele>
        <time>2026-05-07T09:14:08.999Z</time>
      </trkpt>
      <trkpt lat="43.59372" lon="2.96008">
        <ele>798.8</ele>
        <time>2026-05-07T09:14:09.999Z</time>
      </trkpt>
      <trkpt lat="43.59373" lon="2.96007">
        <ele>799.2</ele>
        <time>2026-05-07T09:14:10.999Z</time>
      </trkpt>
      <trkpt lat="43.59373" lon="2.96006">
        <ele>799.5</ele>
        <time>2026-05-07T09:14:11.999Z</time>
      </trkpt>
      <trkpt lat="43.59374" lon="2.96005">
        <ele>799.9</ele>
        <time>2026-05-07T09:14:12.999Z</time>
      </trkpt>
      <trkpt lat="43.59374" lon="2.96005">
        <ele>799.7</ele>
        <time>2026-05-07T09:14:13.999Z</time>
      </trkpt>
      <trkpt lat="43.59375" lon="2.96006">
        <ele>800</ele>
        <time>2026-05-07T09:14:14.999Z</time>
      </trkpt>
      <trkpt lat="43.59375" lon="2.96004">
        <ele>800.8</ele>
        <time>2026-05-07T09:14:15.999Z</time>
      </trkpt>
      <trkpt lat="43.59375" lon="2.96005">
        <ele>801.6</ele>
        <time>2026-05-07T09:14:16.999Z</time>
      </trkpt>
      <trkpt lat="43.59375" lon="2.96004">
        <ele>801.8</ele>
        <time>2026-05-07T09:14:17.999Z</time>
      </trkpt>
      <trkpt lat="43.59375" lon="2.96004">
        <ele>801.4</ele>
        <time>2026-05-07T09:14:18.999Z</time>
      </trkpt>
      <trkpt lat="43.59376" lon="2.96004">
        <ele>801.8</ele>
        <time>2026-05-07T09:14:19.999Z</time>
      </trkpt>
      <trkpt lat="43.59376" lon="2.96005">
        <ele>801.8</ele>
        <time>2026-05-07T09:14:20.999Z</time>
      </trkpt>
      <trkpt lat="43.59376" lon="2.96006">
        <ele>802.1</ele>
        <time>2026-05-07T09:14:21.999Z</time>
      </trkpt>
      <trkpt lat="43.59376" lon="2.96006">
        <ele>802</ele>
        <time>2026-05-07T09:14:22.999Z</time>
      </trkpt>
      <trkpt lat="43.59376" lon="2.96006">
        <ele>802.2</ele>
        <time>2026-05-07T09:14:23.999Z</time>
      </trkpt>
      <trkpt lat="43.59377" lon="2.96007">
        <ele>801.8</ele>
        <time>2026-05-07T09:14:24.999Z</time>
      </trkpt>
      <trkpt lat="43.59377" lon="2.96007">
        <ele>801.7</ele>
        <time>2026-05-07T09:14:25.999Z</time>
      </trkpt>
      <trkpt lat="43.59377" lon="2.96007">
        <ele>805.4</ele>
        <time>2026-05-07T09:14:26.999Z</time>
      </trkpt>
      <trkpt lat="43.59378" lon="2.96008">
        <ele>805</ele>
        <time>2026-05-07T09:14:27.999Z</time>
      </trkpt>
      <trkpt lat="43.59378" lon="2.9601">
        <ele>804.6</ele>
        <time>2026-05-07T09:14:28.999Z</time>
      </trkpt>
      <trkpt lat="43.59379" lon="2.9601">
        <ele>804.3</ele>
        <time>2026-05-07T09:14:29.999Z</time>
      </trkpt>
      <trkpt lat="43.59379" lon="2.9601">
        <ele>804.3</ele>
        <time>2026-05-07T09:14:30.999Z</time>
      </trkpt>
      <trkpt lat="43.59379" lon="2.96013">
        <ele>803.4</ele>
        <time>2026-05-07T09:14:32.999Z</time>
      </trkpt>
      <trkpt lat="43.59379" lon="2.96014">
        <ele>803.1</ele>
        <time>2026-05-07T09:14:33.999Z</time>
      </trkpt>
      <trkpt lat="43.5938" lon="2.96014">
        <ele>802.9</ele>
        <time>2026-05-07T09:14:34.999Z</time>
      </trkpt>
      <trkpt lat="43.5938" lon="2.96014">
        <ele>802.8</ele>
        <time>2026-05-07T09:14:35.999Z</time>
      </trkpt>
      <trkpt lat="43.5938" lon="2.96015">
        <ele>802.7</ele>
        <time>2026-05-07T09:14:36.999Z</time>
      </trkpt>
      <trkpt lat="43.5938" lon="2.96013">
        <ele>803</ele>
        <time>2026-05-07T09:14:37.999Z</time>
      </trkpt>
      <trkpt lat="43.5938" lon="2.96012">
        <ele>803.1</ele>
        <time>2026-05-07T09:14:38.999Z</time>
      </trkpt>
      <trkpt lat="43.59379" lon="2.96012">
        <ele>803.2</ele>
        <time>2026-05-07T09:14:39.999Z</time>
      </trkpt>
      <trkpt lat="43.5938" lon="2.96014">
        <ele>801.1</ele>
        <time>2026-05-07T09:14:40.999Z</time>
      </trkpt>
      <trkpt lat="43.5938" lon="2.96013">
        <ele>801.3</ele>
        <time>2026-05-07T09:14:41.999Z</time>
      </trkpt>
      <trkpt lat="43.5938" lon="2.96013">
        <ele>801.4</ele>
        <time>2026-05-07T09:14:42.999Z</time>
      </trkpt>
      <trkpt lat="43.5938" lon="2.96013">
        <ele>801.6</ele>
        <time>2026-05-07T09:14:43.999Z</time>
      </trkpt>
      <trkpt lat="43.5938" lon="2.96013">
        <ele>801.7</ele>
        <time>2026-05-07T09:14:44.999Z</time>
      </trkpt>
      <trkpt lat="43.5938" lon="2.96013">
        <ele>802</ele>
        <time>2026-05-07T09:14:46.999Z</time>
      </trkpt>
      <trkpt lat="43.5938" lon="2.96013">
        <ele>802.1</ele>
        <time>2026-05-07T09:14:47.999Z</time>
      </trkpt>
      <trkpt lat="43.59379" lon="2.96012">
        <ele>802.2</ele>
        <time>2026-05-07T09:14:48.999Z</time>
      </trkpt>
      <trkpt lat="43.59379" lon="2.96012">
        <ele>802.3</ele>
        <time>2026-05-07T09:14:49.999Z</time>
      </trkpt>
      <trkpt lat="43.59378" lon="2.96012">
        <ele>802.2</ele>
        <time>2026-05-07T09:14:50.999Z</time>
      </trkpt>
      <trkpt lat="43.59378" lon="2.96011">
        <ele>802.4</ele>
        <time>2026-05-07T09:14:51.999Z</time>
      </trkpt>
      <trkpt lat="43.59376" lon="2.9601">
        <ele>803.6</ele>
        <time>2026-05-07T09:14:52.999Z</time>
      </trkpt>
      <trkpt lat="43.59374" lon="2.96007">
        <ele>804.5</ele>
        <time>2026-05-07T09:14:53.999Z</time>
      </trkpt>
      <trkpt lat="43.59373" lon="2.96005">
        <ele>804.4</ele>
        <time>2026-05-07T09:14:54.999Z</time>
      </trkpt>
      <trkpt lat="43.59373" lon="2.96003">
        <ele>804.5</ele>
        <time>2026-05-07T09:14:55.999Z</time>
      </trkpt>
      <trkpt lat="43.59374" lon="2.96002">
        <ele>804.5</ele>
        <time>2026-05-07T09:14:56.999Z</time>
      </trkpt>
      <trkpt lat="43.59375" lon="2.96001">
        <ele>804.2</ele>
        <time>2026-05-07T09:14:57.999Z</time>
      </trkpt>
      <trkpt lat="43.59377" lon="2.96002">
        <ele>805</ele>
        <time>2026-05-07T09:14:58.999Z</time>
      </trkpt>
      <trkpt lat="43.59379" lon="2.96004">
        <ele>805.7</ele>
        <time>2026-05-07T09:14:59.999Z</time>
      </trkpt>
      <trkpt lat="43.59381" lon="2.96005">
        <ele>805.2</ele>
        <time>2026-05-07T09:15:00.999Z</time>
      </trkpt>
      <trkpt lat="43.59382" lon="2.96006">
        <ele>806.1</ele>
        <time>2026-05-07T09:15:01.999Z</time>
      </trkpt>
      <trkpt lat="43.59382" lon="2.96007">
        <ele>806.4</ele>
        <time>2026-05-07T09:15:02.999Z</time>
      </trkpt>
      <trkpt lat="43.59382" lon="2.96009">
        <ele>806.1</ele>
        <time>2026-05-07T09:15:03.999Z</time>
      </trkpt>
      <trkpt lat="43.59384" lon="2.9601">
        <ele>805.9</ele>
        <time>2026-05-07T09:15:04.999Z</time>
      </trkpt>
      <trkpt lat="43.59384" lon="2.96011">
        <ele>805.9</ele>
        <time>2026-05-07T09:15:05.999Z</time>
      </trkpt>
      <trkpt lat="43.59384" lon="2.9601">
        <ele>806.7</ele>
        <time>2026-05-07T09:15:06.999Z</time>
      </trkpt>
      <trkpt lat="43.59384" lon="2.96011">
        <ele>807.4</ele>
        <time>2026-05-07T09:15:08.999Z</time>
      </trkpt>
      <trkpt lat="43.59384" lon="2.96012">
        <ele>807.6</ele>
        <time>2026-05-07T09:15:09.999Z</time>
      </trkpt>
      <trkpt lat="43.59384" lon="2.96013">
        <ele>807.5</ele>
        <time>2026-05-07T09:15:10.999Z</time>
      </trkpt>
      <trkpt lat="43.59385" lon="2.96014">
        <ele>807.7</ele>
        <time>2026-05-07T09:15:11.999Z</time>
      </trkpt>
      <trkpt lat="43.59385" lon="2.96015">
        <ele>808</ele>
        <time>2026-05-07T09:15:12.999Z</time>
      </trkpt>
      <trkpt lat="43.59385" lon="2.96016">
        <ele>807.8</ele>
        <time>2026-05-07T09:15:13.999Z</time>
      </trkpt>
      <trkpt lat="43.59386" lon="2.96018">
        <ele>807.5</ele>
        <time>2026-05-07T09:15:14.999Z</time>
      </trkpt>
      <trkpt lat="43.59386" lon="2.96017">
        <ele>807.7</ele>
        <time>2026-05-07T09:15:15.999Z</time>
      </trkpt>
      <trkpt lat="43.59385" lon="2.96014">
        <ele>808.5</ele>
        <time>2026-05-07T09:15:16.999Z</time>
      </trkpt>
      <trkpt lat="43.59385" lon="2.96014">
        <ele>808.9</ele>
        <time>2026-05-07T09:15:17.999Z</time>
      </trkpt>
      <trkpt lat="43.59386" lon="2.96014">
        <ele>809</ele>
        <time>2026-05-07T09:15:18.999Z</time>
      </trkpt>
      <trkpt lat="43.59387" lon="2.96014">
        <ele>808.8</ele>
        <time>2026-05-07T09:15:19.999Z</time>
      </trkpt>
      <trkpt lat="43.59387" lon="2.96014">
        <ele>808.8</ele>
        <time>2026-05-07T09:15:20.999Z</time>
      </trkpt>
      <trkpt lat="43.59388" lon="2.96014">
        <ele>808.4</ele>
        <time>2026-05-07T09:15:21.999Z</time>
      </trkpt>
      <trkpt lat="43.59388" lon="2.96014">
        <ele>807.8</ele>
        <time>2026-05-07T09:15:22.999Z</time>
      </trkpt>
      <trkpt lat="43.59388" lon="2.96014">
        <ele>808</ele>
        <time>2026-05-07T09:15:23.999Z</time>
      </trkpt>
      <trkpt lat="43.59388" lon="2.96015">
        <ele>807.6</ele>
        <time>2026-05-07T09:15:24.999Z</time>
      </trkpt>
      <trkpt lat="43.59388" lon="2.96015">
        <ele>807.6</ele>
        <time>2026-05-07T09:15:25.999Z</time>
      </trkpt>
      <trkpt lat="43.59388" lon="2.96016">
        <ele>807.6</ele>
        <time>2026-05-07T09:15:26.999Z</time>
      </trkpt>
      <trkpt lat="43.59389" lon="2.96018">
        <ele>807.2</ele>
        <time>2026-05-07T09:15:27.999Z</time>
      </trkpt>
      <trkpt lat="43.59389" lon="2.9602">
        <ele>807.4</ele>
        <time>2026-05-07T09:15:28.999Z</time>
      </trkpt>
      <trkpt lat="43.5939" lon="2.96019">
        <ele>806.6</ele>
        <time>2026-05-07T09:15:29.999Z</time>
      </trkpt>
      <trkpt lat="43.5939" lon="2.96019">
        <ele>806.1</ele>
        <time>2026-05-07T09:15:30.999Z</time>
      </trkpt>
      <trkpt lat="43.59391" lon="2.96019">
        <ele>808.8</ele>
        <time>2026-05-07T09:15:31.999Z</time>
      </trkpt>
      <trkpt lat="43.5939" lon="2.96019">
        <ele>808.4</ele>
        <time>2026-05-07T09:15:32.999Z</time>
      </trkpt>
      <trkpt lat="43.5939" lon="2.96019">
        <ele>808.3</ele>
        <time>2026-05-07T09:15:33.999Z</time>
      </trkpt>
      <trkpt lat="43.5939" lon="2.96018">
        <ele>808.2</ele>
        <time>2026-05-07T09:15:34.999Z</time>
      </trkpt>
      <trkpt lat="43.5939" lon="2.96017">
        <ele>808.3</ele>
        <time>2026-05-07T09:15:35.999Z</time>
      </trkpt>
      <trkpt lat="43.59391" lon="2.96015">
        <ele>808.4</ele>
        <time>2026-05-07T09:15:36.999Z</time>
      </trkpt>
      <trkpt lat="43.59392" lon="2.96015">
        <ele>808.3</ele>
        <time>2026-05-07T09:15:37.999Z</time>
      </trkpt>
      <trkpt lat="43.59392" lon="2.96015">
        <ele>808.2</ele>
        <time>2026-05-07T09:15:38.999Z</time>
      </trkpt>
      <trkpt lat="43.59392" lon="2.96014">
        <ele>808.4</ele>
        <time>2026-05-07T09:15:39.999Z</time>
      </trkpt>
      <trkpt lat="43.59392" lon="2.96014">
        <ele>808.4</ele>
        <time>2026-05-07T09:15:40.999Z</time>
      </trkpt>
      <trkpt lat="43.59392" lon="2.96014">
        <ele>808.2</ele>
        <time>2026-05-07T09:15:41.999Z</time>
      </trkpt>
      <trkpt lat="43.59392" lon="2.96014">
        <ele>807.3</ele>
        <time>2026-05-07T09:15:42.999Z</time>
      </trkpt>
      <trkpt lat="43.59392" lon="2.96014">
        <ele>807</ele>
        <time>2026-05-07T09:15:43.999Z</time>
      </trkpt>
      <trkpt lat="43.59392" lon="2.96013">
        <ele>807.1</ele>
        <time>2026-05-07T09:15:44.999Z</time>
      </trkpt>
      <trkpt lat="43.59391" lon="2.96013">
        <ele>807.2</ele>
        <time>2026-05-07T09:15:45.999Z</time>
      </trkpt>
      <trkpt lat="43.59391" lon="2.96012">
        <ele>807.2</ele>
        <time>2026-05-07T09:15:47.999Z</time>
      </trkpt>
      <trkpt lat="43.5939" lon="2.96012">
        <ele>807.4</ele>
        <time>2026-05-07T09:15:48.999Z</time>
      </trkpt>
      <trkpt lat="43.5939" lon="2.96012">
        <ele>807.7</ele>
        <time>2026-05-07T09:15:49.999Z</time>
      </trkpt>
      <trkpt lat="43.59389" lon="2.9601">
        <ele>807.8</ele>
        <time>2026-05-07T09:15:50.999Z</time>
      </trkpt>
      <trkpt lat="43.5939" lon="2.96011">
        <ele>807.7</ele>
        <time>2026-05-07T09:15:51.999Z</time>
      </trkpt>
      <trkpt lat="43.5939" lon="2.96011">
        <ele>807.7</ele>
        <time>2026-05-07T09:15:52.999Z</time>
      </trkpt>
      <trkpt lat="43.59391" lon="2.96012">
        <ele>807.7</ele>
        <time>2026-05-07T09:15:53.999Z</time>
      </trkpt>
      <trkpt lat="43.59391" lon="2.96012">
        <ele>807.7</ele>
        <time>2026-05-07T09:15:54.999Z</time>
      </trkpt>
      <trkpt lat="43.59391" lon="2.96013">
        <ele>807.6</ele>
        <time>2026-05-07T09:15:55.999Z</time>
      </trkpt>
      <trkpt lat="43.59392" lon="2.96014">
        <ele>807.2</ele>
        <time>2026-05-07T09:15:56.999Z</time>
      </trkpt>
      <trkpt lat="43.59392" lon="2.96013">
        <ele>805.1</ele>
        <time>2026-05-07T09:15:57.999Z</time>
      </trkpt>
      <trkpt lat="43.59392" lon="2.96013">
        <ele>805.5</ele>
        <time>2026-05-07T09:15:58.999Z</time>
      </trkpt>
      <trkpt lat="43.59391" lon="2.96013">
        <ele>805.8</ele>
        <time>2026-05-07T09:15:59.999Z</time>
      </trkpt>
      <trkpt lat="43.59391" lon="2.96013">
        <ele>805.7</ele>
        <time>2026-05-07T09:16:00.999Z</time>
      </trkpt>
      <trkpt lat="43.59391" lon="2.96014">
        <ele>805.6</ele>
        <time>2026-05-07T09:16:01.999Z</time>
      </trkpt>
      <trkpt lat="43.59391" lon="2.96014">
        <ele>805.8</ele>
        <time>2026-05-07T09:16:03.999Z</time>
      </trkpt>
      <trkpt lat="43.59391" lon="2.96012">
        <ele>806.1</ele>
        <time>2026-05-07T09:16:04.999Z</time>
      </trkpt>
      <trkpt lat="43.59392" lon="2.96013">
        <ele>806.2</ele>
        <time>2026-05-07T09:16:05.999Z</time>
      </trkpt>
      <trkpt lat="43.59392" lon="2.96013">
        <ele>806.3</ele>
        <time>2026-05-07T09:16:06.999Z</time>
      </trkpt>
      <trkpt lat="43.59393" lon="2.96014">
        <ele>806.2</ele>
        <time>2026-05-07T09:16:07.999Z</time>
      </trkpt>
      <trkpt lat="43.59394" lon="2.96016">
        <ele>806.1</ele>
        <time>2026-05-07T09:16:08.999Z</time>
      </trkpt>
      <trkpt lat="43.59395" lon="2.96017">
        <ele>806</ele>
        <time>2026-05-07T09:16:09.999Z</time>
      </trkpt>
      <trkpt lat="43.59395" lon="2.96018">
        <ele>805.9</ele>
        <time>2026-05-07T09:16:10.999Z</time>
      </trkpt>
      <trkpt lat="43.59395" lon="2.96018">
        <ele>806.4</ele>
        <time>2026-05-07T09:16:11.999Z</time>
      </trkpt>
      <trkpt lat="43.59395" lon="2.96018">
        <ele>807</ele>
        <time>2026-05-07T09:16:13.999Z</time>
      </trkpt>
      <trkpt lat="43.59396" lon="2.96017">
        <ele>807</ele>
        <time>2026-05-07T09:16:14.999Z</time>
      </trkpt>
      <trkpt lat="43.59396" lon="2.96018">
        <ele>807.1</ele>
        <time>2026-05-07T09:16:15.999Z</time>
      </trkpt>
      <trkpt lat="43.59396" lon="2.96017">
        <ele>807.7</ele>
        <time>2026-05-07T09:16:16.999Z</time>
      </trkpt>
      <trkpt lat="43.59396" lon="2.96017">
        <ele>807.9</ele>
        <time>2026-05-07T09:16:17.999Z</time>
      </trkpt>
      <trkpt lat="43.59395" lon="2.96017">
        <ele>807.9</ele>
        <time>2026-05-07T09:16:18.999Z</time>
      </trkpt>
      <trkpt lat="43.59395" lon="2.96017">
        <ele>807.8</ele>
        <time>2026-05-07T09:16:19.999Z</time>
      </trkpt>
      <trkpt lat="43.59395" lon="2.96017">
        <ele>807.4</ele>
        <time>2026-05-07T09:16:20.999Z</time>
      </trkpt>
      <trkpt lat="43.59396" lon="2.96016">
        <ele>807.3</ele>
        <time>2026-05-07T09:16:21.999Z</time>
      </trkpt>
      <trkpt lat="43.59396" lon="2.96016">
        <ele>807.4</ele>
        <time>2026-05-07T09:16:22.999Z</time>
      </trkpt>
      <trkpt lat="43.59396" lon="2.96016">
        <ele>807.1</ele>
        <time>2026-05-07T09:16:23.999Z</time>
      </trkpt>
      <trkpt lat="43.59396" lon="2.96016">
        <ele>807.1</ele>
        <time>2026-05-07T09:16:24.999Z</time>
      </trkpt>
      <trkpt lat="43.59396" lon="2.96016">
        <ele>808.5</ele>
        <time>2026-05-07T09:16:25.999Z</time>
      </trkpt>
      <trkpt lat="43.59396" lon="2.96016">
        <ele>808.2</ele>
        <time>2026-05-07T09:16:26.999Z</time>
      </trkpt>
      <trkpt lat="43.59395" lon="2.96014">
        <ele>808.2</ele>
        <time>2026-05-07T09:16:27.999Z</time>
      </trkpt>
      <trkpt lat="43.59394" lon="2.96014">
        <ele>808.4</ele>
        <time>2026-05-07T09:16:28.999Z</time>
      </trkpt>
      <trkpt lat="43.59393" lon="2.96013">
        <ele>808.7</ele>
        <time>2026-05-07T09:16:29.999Z</time>
      </trkpt>
      <trkpt lat="43.59392" lon="2.96011">
        <ele>809.2</ele>
        <time>2026-05-07T09:16:30.999Z</time>
      </trkpt>
      <trkpt lat="43.59391" lon="2.9601">
        <ele>809.6</ele>
        <time>2026-05-07T09:16:31.999Z</time>
      </trkpt>
      <trkpt lat="43.59391" lon="2.96009">
        <ele>809.7</ele>
        <time>2026-05-07T09:16:32.999Z</time>
      </trkpt>
      <trkpt lat="43.59391" lon="2.96008">
        <ele>809.8</ele>
        <time>2026-05-07T09:16:33.999Z</time>
      </trkpt>
      <trkpt lat="43.59391" lon="2.96008">
        <ele>809.7</ele>
        <time>2026-05-07T09:16:34.999Z</time>
      </trkpt>
      <trkpt lat="43.59391" lon="2.96008">
        <ele>809.6</ele>
        <time>2026-05-07T09:16:35.999Z</time>
      </trkpt>
      <trkpt lat="43.59393" lon="2.9601">
        <ele>809.7</ele>
        <time>2026-05-07T09:16:36.999Z</time>
      </trkpt>
      <trkpt lat="43.59393" lon="2.96009">
        <ele>807.4</ele>
        <time>2026-05-07T09:16:37.999Z</time>
      </trkpt>
      <trkpt lat="43.59393" lon="2.9601">
        <ele>807.5</ele>
        <time>2026-05-07T09:16:38.999Z</time>
      </trkpt>
      <trkpt lat="43.59394" lon="2.9601">
        <ele>807.6</ele>
        <time>2026-05-07T09:16:39.999Z</time>
      </trkpt>
      <trkpt lat="43.59395" lon="2.96011">
        <ele>807.8</ele>
        <time>2026-05-07T09:16:40.999Z</time>
      </trkpt>
      <trkpt lat="43.59395" lon="2.96012">
        <ele>808.1</ele>
        <time>2026-05-07T09:16:41.999Z</time>
      </trkpt>
      <trkpt lat="43.59395" lon="2.96012">
        <ele>808.3</ele>
        <time>2026-05-07T09:16:42.999Z</time>
      </trkpt>
      <trkpt lat="43.59395" lon="2.96012">
        <ele>808.3</ele>
        <time>2026-05-07T09:16:43.999Z</time>
      </trkpt>
      <trkpt lat="43.59395" lon="2.96012">
        <ele>808.4</ele>
        <time>2026-05-07T09:16:44.999Z</time>
      </trkpt>
      <trkpt lat="43.59395" lon="2.96011">
        <ele>808.6</ele>
        <time>2026-05-07T09:16:45.999Z</time>
      </trkpt>
      <trkpt lat="43.59395" lon="2.96012">
        <ele>808.8</ele>
        <time>2026-05-07T09:16:46.999Z</time>
      </trkpt>
      <trkpt lat="43.59394" lon="2.96013">
        <ele>808.7</ele>
        <time>2026-05-07T09:16:48.999Z</time>
      </trkpt>
      <trkpt lat="43.59394" lon="2.96013">
        <ele>808.8</ele>
        <time>2026-05-07T09:16:49.999Z</time>
      </trkpt>
      <trkpt lat="43.59394" lon="2.96012">
        <ele>809.2</ele>
        <time>2026-05-07T09:16:50.999Z</time>
      </trkpt>
      <trkpt lat="43.59394" lon="2.96012">
        <ele>807.7</ele>
        <time>2026-05-07T09:16:51.999Z</time>
      </trkpt>
      <trkpt lat="43.59394" lon="2.96012">
        <ele>807.6</ele>
        <time>2026-05-07T09:16:52.999Z</time>
      </trkpt>
      <trkpt lat="43.59394" lon="2.96012">
        <ele>807.5</ele>
        <time>2026-05-07T09:16:53.999Z</time>
      </trkpt>
      <trkpt lat="43.59394" lon="2.96012">
        <ele>807.4</ele>
        <time>2026-05-07T09:16:54.999Z</time>
      </trkpt>
      <trkpt lat="43.59394" lon="2.96012">
        <ele>807.7</ele>
        <time>2026-05-07T09:16:55.999Z</time>
      </trkpt>
      <trkpt lat="43.59394" lon="2.96012">
        <ele>808.1</ele>
        <time>2026-05-07T09:16:56.999Z</time>
      </trkpt>
      <trkpt lat="43.59394" lon="2.96012">
        <ele>808.3</ele>
        <time>2026-05-07T09:16:57.999Z</time>
      </trkpt>
      <trkpt lat="43.59394" lon="2.96012">
        <ele>808.3</ele>
        <time>2026-05-07T09:16:58.999Z</time>
      </trkpt>
      <trkpt lat="43.59393" lon="2.96012">
        <ele>808.3</ele>
        <time>2026-05-07T09:16:59.999Z</time>
      </trkpt>
      <trkpt lat="43.59393" lon="2.96012">
        <ele>808.4</ele>
        <time>2026-05-07T09:17:00.999Z</time>
      </trkpt>
      <trkpt lat="43.59393" lon="2.96012">
        <ele>808.4</ele>
        <time>2026-05-07T09:17:01.999Z</time>
      </trkpt>
      <trkpt lat="43.59392" lon="2.96011">
        <ele>808.5</ele>
        <time>2026-05-07T09:17:02.999Z</time>
      </trkpt>
      <trkpt lat="43.59392" lon="2.96011">
        <ele>808.5</ele>
        <time>2026-05-07T09:17:03.999Z</time>
      </trkpt>
      <trkpt lat="43.59392" lon="2.96011">
        <ele>808.5</ele>
        <time>2026-05-07T09:17:04.999Z</time>
      </trkpt>
      <trkpt lat="43.59391" lon="2.96011">
        <ele>808.5</ele>
        <time>2026-05-07T09:17:05.999Z</time>
      </trkpt>
      <trkpt lat="43.59391" lon="2.96011">
        <ele>808.6</ele>
        <time>2026-05-07T09:17:06.999Z</time>
      </trkpt>
      <trkpt lat="43.5939" lon="2.96011">
        <ele>808.6</ele>
        <time>2026-05-07T09:17:07.999Z</time>
      </trkpt>
      <trkpt lat="43.59391" lon="2.96014">
        <ele>808.5</ele>
        <time>2026-05-07T09:17:08.999Z</time>
      </trkpt>
      <trkpt lat="43.59391" lon="2.96016">
        <ele>808.5</ele>
        <time>2026-05-07T09:17:09.999Z</time>
      </trkpt>
      <trkpt lat="43.59392" lon="2.96017">
        <ele>808.3</ele>
        <time>2026-05-07T09:17:10.999Z</time>
      </trkpt>
      <trkpt lat="43.59392" lon="2.96017">
        <ele>808.3</ele>
        <time>2026-05-07T09:17:11.999Z</time>
      </trkpt>
      <trkpt lat="43.59392" lon="2.96018">
        <ele>808.4</ele>
        <time>2026-05-07T09:17:12.999Z</time>
      </trkpt>
      <trkpt lat="43.59392" lon="2.96017">
        <ele>808.8</ele>
        <time>2026-05-07T09:17:13.999Z</time>
      </trkpt>
      <trkpt lat="43.59392" lon="2.96017">
        <ele>808.7</ele>
        <time>2026-05-07T09:17:14.999Z</time>
      </trkpt>
      <trkpt lat="43.59393" lon="2.96018">
        <ele>808.7</ele>
        <time>2026-05-07T09:17:15.999Z</time>
      </trkpt>
      <trkpt lat="43.59393" lon="2.96017">
        <ele>808.5</ele>
        <time>2026-05-07T09:17:16.999Z</time>
      </trkpt>
      <trkpt lat="43.59393" lon="2.96016">
        <ele>808.6</ele>
        <time>2026-05-07T09:17:17.999Z</time>
      </trkpt>
      <trkpt lat="43.59394" lon="2.96017">
        <ele>810.6</ele>
        <time>2026-05-07T09:17:18.999Z</time>
      </trkpt>
      <trkpt lat="43.59394" lon="2.96016">
        <ele>810.7</ele>
        <time>2026-05-07T09:17:19.999Z</time>
      </trkpt>
      <trkpt lat="43.59394" lon="2.96016">
        <ele>810.9</ele>
        <time>2026-05-07T09:17:20.999Z</time>
      </trkpt>
      <trkpt lat="43.59394" lon="2.96017">
        <ele>810.7</ele>
        <time>2026-05-07T09:17:21.999Z</time>
      </trkpt>
      <trkpt lat="43.59394" lon="2.96017">
        <ele>810.4</ele>
        <time>2026-05-07T09:17:22.999Z</time>
      </trkpt>
      <trkpt lat="43.59395" lon="2.96017">
        <ele>810.1</ele>
        <time>2026-05-07T09:17:23.999Z</time>
      </trkpt>
      <trkpt lat="43.59395" lon="2.96017">
        <ele>810.4</ele>
        <time>2026-05-07T09:17:24.999Z</time>
      </trkpt>
      <trkpt lat="43.59395" lon="2.96017">
        <ele>810.3</ele>
        <time>2026-05-07T09:17:25.999Z</time>
      </trkpt>
      <trkpt lat="43.59395" lon="2.96018">
        <ele>810.2</ele>
        <time>2026-05-07T09:17:26.999Z</time>
      </trkpt>
      <trkpt lat="43.59395" lon="2.96019">
        <ele>810.3</ele>
        <time>2026-05-07T09:17:27.999Z</time>
      </trkpt>
      <trkpt lat="43.59396" lon="2.96019">
        <ele>810.4</ele>
        <time>2026-05-07T09:17:28.999Z</time>
      </trkpt>
      <trkpt lat="43.59396" lon="2.9602">
        <ele>810.3</ele>
        <time>2026-05-07T09:17:29.999Z</time>
      </trkpt>
      <trkpt lat="43.59397" lon="2.9602">
        <ele>810</ele>
        <time>2026-05-07T09:17:30.999Z</time>
      </trkpt>
      <trkpt lat="43.59397" lon="2.9602">
        <ele>810.2</ele>
        <time>2026-05-07T09:17:31.999Z</time>
      </trkpt>
      <trkpt lat="43.59397" lon="2.96021">
        <ele>810</ele>
        <time>2026-05-07T09:17:32.999Z</time>
      </trkpt>
      <trkpt lat="43.59397" lon="2.96022">
        <ele>810.2</ele>
        <time>2026-05-07T09:17:33.999Z</time>
      </trkpt>
      <trkpt lat="43.59398" lon="2.96023">
        <ele>810.3</ele>
        <time>2026-05-07T09:17:34.999Z</time>
      </trkpt>
      <trkpt lat="43.59397" lon="2.96022">
        <ele>810.7</ele>
        <time>2026-05-07T09:17:35.999Z</time>
      </trkpt>
      <trkpt lat="43.59396" lon="2.96022">
        <ele>811</ele>
        <time>2026-05-07T09:17:36.999Z</time>
      </trkpt>
      <trkpt lat="43.59396" lon="2.96022">
        <ele>811</ele>
        <time>2026-05-07T09:17:37.999Z</time>
      </trkpt>
      <trkpt lat="43.59396" lon="2.96023">
        <ele>810.8</ele>
        <time>2026-05-07T09:17:38.999Z</time>
      </trkpt>
      <trkpt lat="43.59397" lon="2.96023">
        <ele>810.9</ele>
        <time>2026-05-07T09:17:39.999Z</time>
      </trkpt>
      <trkpt lat="43.59397" lon="2.96024">
        <ele>810.6</ele>
        <time>2026-05-07T09:17:40.999Z</time>
      </trkpt>
      <trkpt lat="43.59397" lon="2.96023">
        <ele>810.8</ele>
        <time>2026-05-07T09:17:41.999Z</time>
      </trkpt>
      <trkpt lat="43.59397" lon="2.96023">
        <ele>811.1</ele>
        <time>2026-05-07T09:17:42.999Z</time>
      </trkpt>
      <trkpt lat="43.59398" lon="2.96023">
        <ele>811.3</ele>
        <time>2026-05-07T09:17:43.999Z</time>
      </trkpt>
      <trkpt lat="43.59398" lon="2.96023">
        <ele>811.8</ele>
        <time>2026-05-07T09:17:44.999Z</time>
      </trkpt>
      <trkpt lat="43.59398" lon="2.96023">
        <ele>812.9</ele>
        <time>2026-05-07T09:17:45.999Z</time>
      </trkpt>
      <trkpt lat="43.59398" lon="2.96023">
        <ele>813.1</ele>
        <time>2026-05-07T09:17:46.999Z</time>
      </trkpt>
      <trkpt lat="43.59398" lon="2.96023">
        <ele>813.1</ele>
        <time>2026-05-07T09:17:47.999Z</time>
      </trkpt>
      <trkpt lat="43.59399" lon="2.96023">
        <ele>813.2</ele>
        <time>2026-05-07T09:17:48.999Z</time>
      </trkpt>
      <trkpt lat="43.59399" lon="2.96022">
        <ele>813.3</ele>
        <time>2026-05-07T09:17:49.999Z</time>
      </trkpt>
      <trkpt lat="43.59399" lon="2.96022">
        <ele>813.4</ele>
        <time>2026-05-07T09:17:50.999Z</time>
      </trkpt>
      <trkpt lat="43.59399" lon="2.96023">
        <ele>813.4</ele>
        <time>2026-05-07T09:17:51.999Z</time>
      </trkpt>
      <trkpt lat="43.59399" lon="2.96023">
        <ele>813.3</ele>
        <time>2026-05-07T09:17:52.999Z</time>
      </trkpt>
      <trkpt lat="43.59399" lon="2.96023">
        <ele>813.2</ele>
        <time>2026-05-07T09:17:53.999Z</time>
      </trkpt>
      <trkpt lat="43.59399" lon="2.96023">
        <ele>813.1</ele>
        <time>2026-05-07T09:17:54.999Z</time>
      </trkpt>
      <trkpt lat="43.59399" lon="2.96022">
        <ele>813</ele>
        <time>2026-05-07T09:17:55.999Z</time>
      </trkpt>
      <trkpt lat="43.59399" lon="2.96021">
        <ele>813.1</ele>
        <time>2026-05-07T09:17:56.999Z</time>
      </trkpt>
      <trkpt lat="43.59399" lon="2.9602">
        <ele>813.2</ele>
        <time>2026-05-07T09:17:57.999Z</time>
      </trkpt>
      <trkpt lat="43.594" lon="2.9602">
        <ele>813.7</ele>
        <time>2026-05-07T09:17:58.999Z</time>
      </trkpt>
      <trkpt lat="43.59401" lon="2.9602">
        <ele>814</ele>
        <time>2026-05-07T09:17:59.999Z</time>
      </trkpt>
      <trkpt lat="43.59402" lon="2.96019">
        <ele>814.1</ele>
        <time>2026-05-07T09:18:00.999Z</time>
      </trkpt>
      <trkpt lat="43.59402" lon="2.96019">
        <ele>814.3</ele>
        <time>2026-05-07T09:18:01.999Z</time>
      </trkpt>
      <trkpt lat="43.59402" lon="2.96018">
        <ele>814.3</ele>
        <time>2026-05-07T09:18:02.999Z</time>
      </trkpt>
      <trkpt lat="43.59402" lon="2.96016">
        <ele>814.3</ele>
        <time>2026-05-07T09:18:04.999Z</time>
      </trkpt>
      <trkpt lat="43.59402" lon="2.96017">
        <ele>813.9</ele>
        <time>2026-05-07T09:18:05.999Z</time>
      </trkpt>
      <trkpt lat="43.59403" lon="2.96017">
        <ele>814.2</ele>
        <time>2026-05-07T09:18:06.999Z</time>
      </trkpt>
      <trkpt lat="43.59404" lon="2.96018">
        <ele>814.3</ele>
        <time>2026-05-07T09:18:07.999Z</time>
      </trkpt>
      <trkpt lat="43.59404" lon="2.96016">
        <ele>814.2</ele>
        <time>2026-05-07T09:18:08.999Z</time>
      </trkpt>
      <trkpt lat="43.59404" lon="2.96016">
        <ele>813.9</ele>
        <time>2026-05-07T09:18:09.999Z</time>
      </trkpt>
      <trkpt lat="43.59404" lon="2.96015">
        <ele>814.1</ele>
        <time>2026-05-07T09:18:10.999Z</time>
      </trkpt>
      <trkpt lat="43.59404" lon="2.96014">
        <ele>814.3</ele>
        <time>2026-05-07T09:18:11.999Z</time>
      </trkpt>
      <trkpt lat="43.59404" lon="2.96015">
        <ele>814.8</ele>
        <time>2026-05-07T09:18:12.999Z</time>
      </trkpt>
      <trkpt lat="43.59405" lon="2.96015">
        <ele>815.1</ele>
        <time>2026-05-07T09:18:13.999Z</time>
      </trkpt>
      <trkpt lat="43.59405" lon="2.96016">
        <ele>815.3</ele>
        <time>2026-05-07T09:18:14.999Z</time>
      </trkpt>
      <trkpt lat="43.59405" lon="2.96018">
        <ele>815.3</ele>
        <time>2026-05-07T09:18:15.999Z</time>
      </trkpt>
      <trkpt lat="43.59406" lon="2.96018">
        <ele>815.9</ele>
        <time>2026-05-07T09:18:16.999Z</time>
      </trkpt>
      <trkpt lat="43.59407" lon="2.96019">
        <ele>816.2</ele>
        <time>2026-05-07T09:18:17.999Z</time>
      </trkpt>
      <trkpt lat="43.59407" lon="2.9602">
        <ele>816.6</ele>
        <time>2026-05-07T09:18:18.999Z</time>
      </trkpt>
      <trkpt lat="43.59407" lon="2.96019">
        <ele>817.1</ele>
        <time>2026-05-07T09:18:19.999Z</time>
      </trkpt>
      <trkpt lat="43.59408" lon="2.9602">
        <ele>815.2</ele>
        <time>2026-05-07T09:18:20.999Z</time>
      </trkpt>
      <trkpt lat="43.59408" lon="2.9602">
        <ele>815.4</ele>
        <time>2026-05-07T09:18:21.999Z</time>
      </trkpt>
      <trkpt lat="43.59408" lon="2.9602">
        <ele>815.5</ele>
        <time>2026-05-07T09:18:22.999Z</time>
      </trkpt>
      <trkpt lat="43.59408" lon="2.9602">
        <ele>815.4</ele>
        <time>2026-05-07T09:18:23.999Z</time>
      </trkpt>
      <trkpt lat="43.59408" lon="2.9602">
        <ele>815.4</ele>
        <time>2026-05-07T09:18:24.999Z</time>
      </trkpt>
      <trkpt lat="43.59408" lon="2.96021">
        <ele>815.4</ele>
        <time>2026-05-07T09:18:25.999Z</time>
      </trkpt>
      <trkpt lat="43.59409" lon="2.96021">
        <ele>815.5</ele>
        <time>2026-05-07T09:18:26.999Z</time>
      </trkpt>
      <trkpt lat="43.59409" lon="2.96021">
        <ele>815.7</ele>
        <time>2026-05-07T09:18:27.999Z</time>
      </trkpt>
      <trkpt lat="43.59409" lon="2.96021">
        <ele>815.9</ele>
        <time>2026-05-07T09:18:28.999Z</time>
      </trkpt>
      <trkpt lat="43.5941" lon="2.96022">
        <ele>816</ele>
        <time>2026-05-07T09:18:29.999Z</time>
      </trkpt>
      <trkpt lat="43.5941" lon="2.96022">
        <ele>816.1</ele>
        <time>2026-05-07T09:18:30.999Z</time>
      </trkpt>
      <trkpt lat="43.5941" lon="2.96021">
        <ele>816</ele>
        <time>2026-05-07T09:18:32.000Z</time>
      </trkpt>
      <trkpt lat="43.5941" lon="2.96021">
        <ele>816.2</ele>
        <time>2026-05-07T09:18:33.000Z</time>
      </trkpt>
      <trkpt lat="43.5941" lon="2.96021">
        <ele>816.1</ele>
        <time>2026-05-07T09:18:34.000Z</time>
      </trkpt>
      <trkpt lat="43.5941" lon="2.96022">
        <ele>816.4</ele>
        <time>2026-05-07T09:18:35.000Z</time>
      </trkpt>
      <trkpt lat="43.59411" lon="2.96022">
        <ele>816.5</ele>
        <time>2026-05-07T09:18:36.000Z</time>
      </trkpt>
      <trkpt lat="43.59411" lon="2.96023">
        <ele>816.3</ele>
        <time>2026-05-07T09:18:37.000Z</time>
      </trkpt>
      <trkpt lat="43.59411" lon="2.96023">
        <ele>816.4</ele>
        <time>2026-05-07T09:18:38.000Z</time>
      </trkpt>
      <trkpt lat="43.59412" lon="2.96023">
        <ele>816.4</ele>
        <time>2026-05-07T09:18:39.000Z</time>
      </trkpt>
      <trkpt lat="43.59412" lon="2.96024">
        <ele>814.3</ele>
        <time>2026-05-07T09:18:40.000Z</time>
      </trkpt>
      <trkpt lat="43.59413" lon="2.96024">
        <ele>814.3</ele>
        <time>2026-05-07T09:18:41.000Z</time>
      </trkpt>
      <trkpt lat="43.59414" lon="2.96022">
        <ele>815.2</ele>
        <time>2026-05-07T09:18:42.000Z</time>
      </trkpt>
      <trkpt lat="43.59414" lon="2.96022">
        <ele>816.7</ele>
        <time>2026-05-07T09:18:43.000Z</time>
      </trkpt>
      <trkpt lat="43.59415" lon="2.96022">
        <ele>817.5</ele>
        <time>2026-05-07T09:18:44.000Z</time>
      </trkpt>
      <trkpt lat="43.59416" lon="2.96022">
        <ele>817</ele>
        <time>2026-05-07T09:18:45.000Z</time>
      </trkpt>
      <trkpt lat="43.59417" lon="2.96023">
        <ele>817.5</ele>
        <time>2026-05-07T09:18:46.000Z</time>
      </trkpt>
      <trkpt lat="43.59418" lon="2.96023">
        <ele>817.8</ele>
        <time>2026-05-07T09:18:47.000Z</time>
      </trkpt>
      <trkpt lat="43.5942" lon="2.96024">
        <ele>818.1</ele>
        <time>2026-05-07T09:18:48.000Z</time>
      </trkpt>
      <trkpt lat="43.5942" lon="2.96025">
        <ele>818.4</ele>
        <time>2026-05-07T09:18:49.000Z</time>
      </trkpt>
      <trkpt lat="43.59421" lon="2.96026">
        <ele>818</ele>
        <time>2026-05-07T09:18:50.000Z</time>
      </trkpt>
      <trkpt lat="43.59421" lon="2.96026">
        <ele>817.6</ele>
        <time>2026-05-07T09:18:51.000Z</time>
      </trkpt>
      <trkpt lat="43.5942" lon="2.96027">
        <ele>817.1</ele>
        <time>2026-05-07T09:18:52.000Z</time>
      </trkpt>
      <trkpt lat="43.5942" lon="2.96029">
        <ele>816.7</ele>
        <time>2026-05-07T09:18:53.000Z</time>
      </trkpt>
      <trkpt lat="43.5942" lon="2.96029">
        <ele>816.7</ele>
        <time>2026-05-07T09:18:54.000Z</time>
      </trkpt>
      <trkpt lat="43.5942" lon="2.96029">
        <ele>816.5</ele>
        <time>2026-05-07T09:18:55.000Z</time>
      </trkpt>
      <trkpt lat="43.59419" lon="2.96028">
        <ele>816.8</ele>
        <time>2026-05-07T09:18:56.000Z</time>
      </trkpt>
      <trkpt lat="43.59419" lon="2.96027">
        <ele>816.9</ele>
        <time>2026-05-07T09:18:57.000Z</time>
      </trkpt>
      <trkpt lat="43.59419" lon="2.96026">
        <ele>816.6</ele>
        <time>2026-05-07T09:18:58.000Z</time>
      </trkpt>
      <trkpt lat="43.59419" lon="2.96026">
        <ele>816.3</ele>
        <time>2026-05-07T09:18:59.000Z</time>
      </trkpt>
      <trkpt lat="43.59418" lon="2.96026">
        <ele>815.5</ele>
        <time>2026-05-07T09:19:00.000Z</time>
      </trkpt>
      <trkpt lat="43.59417" lon="2.96025">
        <ele>816</ele>
        <time>2026-05-07T09:19:01.000Z</time>
      </trkpt>
      <trkpt lat="43.59416" lon="2.96024">
        <ele>816.1</ele>
        <time>2026-05-07T09:19:02.000Z</time>
      </trkpt>
      <trkpt lat="43.59416" lon="2.96024">
        <ele>816</ele>
        <time>2026-05-07T09:19:03.000Z</time>
      </trkpt>
      <trkpt lat="43.59416" lon="2.96024">
        <ele>816.2</ele>
        <time>2026-05-07T09:19:04.000Z</time>
      </trkpt>
      <trkpt lat="43.59416" lon="2.96024">
        <ele>816.6</ele>
        <time>2026-05-07T09:19:05.000Z</time>
      </trkpt>
      <trkpt lat="43.59417" lon="2.96023">
        <ele>816.6</ele>
        <time>2026-05-07T09:19:06.000Z</time>
      </trkpt>
      <trkpt lat="43.59417" lon="2.96023">
        <ele>817</ele>
        <time>2026-05-07T09:19:07.000Z</time>
      </trkpt>
      <trkpt lat="43.59416" lon="2.96022">
        <ele>813.3</ele>
        <time>2026-05-07T09:19:08.000Z</time>
      </trkpt>
      <trkpt lat="43.59417" lon="2.96022">
        <ele>813.4</ele>
        <time>2026-05-07T09:19:09.000Z</time>
      </trkpt>
      <trkpt lat="43.59417" lon="2.96022">
        <ele>813.9</ele>
        <time>2026-05-07T09:19:10.000Z</time>
      </trkpt>
      <trkpt lat="43.59417" lon="2.96022">
        <ele>814.3</ele>
        <time>2026-05-07T09:19:11.000Z</time>
      </trkpt>
      <trkpt lat="43.59416" lon="2.96022">
        <ele>814.3</ele>
        <time>2026-05-07T09:19:12.000Z</time>
      </trkpt>
      <trkpt lat="43.59416" lon="2.96022">
        <ele>814.5</ele>
        <time>2026-05-07T09:19:13.000Z</time>
      </trkpt>
      <trkpt lat="43.59417" lon="2.96023">
        <ele>814.8</ele>
        <time>2026-05-07T09:19:14.000Z</time>
      </trkpt>
      <trkpt lat="43.59417" lon="2.96023">
        <ele>815</ele>
        <time>2026-05-07T09:19:15.000Z</time>
      </trkpt>
      <trkpt lat="43.59417" lon="2.96023">
        <ele>815.2</ele>
        <time>2026-05-07T09:19:16.000Z</time>
      </trkpt>
      <trkpt lat="43.59417" lon="2.96023">
        <ele>815.3</ele>
        <time>2026-05-07T09:19:18.000Z</time>
      </trkpt>
      <trkpt lat="43.59418" lon="2.96024">
        <ele>815.4</ele>
        <time>2026-05-07T09:19:19.000Z</time>
      </trkpt>
      <trkpt lat="43.59417" lon="2.96024">
        <ele>815.8</ele>
        <time>2026-05-07T09:19:20.000Z</time>
      </trkpt>
      <trkpt lat="43.59418" lon="2.96024">
        <ele>816.4</ele>
        <time>2026-05-07T09:19:21.000Z</time>
      </trkpt>
      <trkpt lat="43.59418" lon="2.96025">
        <ele>816.9</ele>
        <time>2026-05-07T09:19:22.000Z</time>
      </trkpt>
      <trkpt lat="43.59418" lon="2.96026">
        <ele>817</ele>
        <time>2026-05-07T09:19:23.000Z</time>
      </trkpt>
      <trkpt lat="43.59419" lon="2.96027">
        <ele>813.7</ele>
        <time>2026-05-07T09:19:24.000Z</time>
      </trkpt>
      <trkpt lat="43.59419" lon="2.96027">
        <ele>813.8</ele>
        <time>2026-05-07T09:19:25.000Z</time>
      </trkpt>
      <trkpt lat="43.59419" lon="2.96027">
        <ele>814.4</ele>
        <time>2026-05-07T09:19:26.000Z</time>
      </trkpt>
      <trkpt lat="43.59419" lon="2.96027">
        <ele>814.5</ele>
        <time>2026-05-07T09:19:27.000Z</time>
      </trkpt>
      <trkpt lat="43.59419" lon="2.96026">
        <ele>814.6</ele>
        <time>2026-05-07T09:19:29.000Z</time>
      </trkpt>
      <trkpt lat="43.59419" lon="2.96027">
        <ele>814.5</ele>
        <time>2026-05-07T09:19:30.000Z</time>
      </trkpt>
      <trkpt lat="43.59421" lon="2.96027">
        <ele>814.8</ele>
        <time>2026-05-07T09:19:31.000Z</time>
      </trkpt>
      <trkpt lat="43.59422" lon="2.96029">
        <ele>815</ele>
        <time>2026-05-07T09:19:32.000Z</time>
      </trkpt>
      <trkpt lat="43.59422" lon="2.9603">
        <ele>815.3</ele>
        <time>2026-05-07T09:19:33.000Z</time>
      </trkpt>
      <trkpt lat="43.59423" lon="2.96031">
        <ele>815.7</ele>
        <time>2026-05-07T09:19:34.000Z</time>
      </trkpt>
      <trkpt lat="43.59422" lon="2.96032">
        <ele>815.8</ele>
        <time>2026-05-07T09:19:35.000Z</time>
      </trkpt>
      <trkpt lat="43.59423" lon="2.96034">
        <ele>816.1</ele>
        <time>2026-05-07T09:19:36.000Z</time>
      </trkpt>
      <trkpt lat="43.59425" lon="2.96034">
        <ele>816.3</ele>
        <time>2026-05-07T09:19:37.000Z</time>
      </trkpt>
      <trkpt lat="43.59425" lon="2.96035">
        <ele>816.4</ele>
        <time>2026-05-07T09:19:38.000Z</time>
      </trkpt>
      <trkpt lat="43.59426" lon="2.96036">
        <ele>816.8</ele>
        <time>2026-05-07T09:19:39.000Z</time>
      </trkpt>
      <trkpt lat="43.59427" lon="2.96037">
        <ele>817.3</ele>
        <time>2026-05-07T09:19:40.000Z</time>
      </trkpt>
      <trkpt lat="43.59428" lon="2.96038">
        <ele>817.4</ele>
        <time>2026-05-07T09:19:41.000Z</time>
      </trkpt>
      <trkpt lat="43.5943" lon="2.96041">
        <ele>817.9</ele>
        <time>2026-05-07T09:19:43.000Z</time>
      </trkpt>
      <trkpt lat="43.59431" lon="2.96043">
        <ele>818.2</ele>
        <time>2026-05-07T09:19:44.000Z</time>
      </trkpt>
      <trkpt lat="43.59433" lon="2.96045">
        <ele>818.2</ele>
        <time>2026-05-07T09:19:45.000Z</time>
      </trkpt>
      <trkpt lat="43.59434" lon="2.96046">
        <ele>818.3</ele>
        <time>2026-05-07T09:19:46.000Z</time>
      </trkpt>
      <trkpt lat="43.59435" lon="2.96047">
        <ele>818.1</ele>
        <time>2026-05-07T09:19:47.000Z</time>
      </trkpt>
      <trkpt lat="43.59435" lon="2.96047">
        <ele>818.3</ele>
        <time>2026-05-07T09:19:48.000Z</time>
      </trkpt>
      <trkpt lat="43.59436" lon="2.96048">
        <ele>818.1</ele>
        <time>2026-05-07T09:19:49.000Z</time>
      </trkpt>
      <trkpt lat="43.59439" lon="2.9605">
        <ele>818.6</ele>
        <time>2026-05-07T09:19:50.000Z</time>
      </trkpt>
      <trkpt lat="43.59442" lon="2.96052">
        <ele>818.1</ele>
        <time>2026-05-07T09:19:51.000Z</time>
      </trkpt>
      <trkpt lat="43.59443" lon="2.96054">
        <ele>818.8</ele>
        <time>2026-05-07T09:19:52.000Z</time>
      </trkpt>
      <trkpt lat="43.59445" lon="2.96056">
        <ele>819.4</ele>
        <time>2026-05-07T09:19:53.000Z</time>
      </trkpt>
      <trkpt lat="43.59446" lon="2.96058">
        <ele>819.9</ele>
        <time>2026-05-07T09:19:54.000Z</time>
      </trkpt>
      <trkpt lat="43.59447" lon="2.96059">
        <ele>820.1</ele>
        <time>2026-05-07T09:19:55.000Z</time>
      </trkpt>
      <trkpt lat="43.59448" lon="2.9606">
        <ele>820.4</ele>
        <time>2026-05-07T09:19:56.000Z</time>
      </trkpt>
      <trkpt lat="43.5945" lon="2.9606">
        <ele>820.6</ele>
        <time>2026-05-07T09:19:57.000Z</time>
      </trkpt>
      <trkpt lat="43.5945" lon="2.96061">
        <ele>820.8</ele>
        <time>2026-05-07T09:19:58.000Z</time>
      </trkpt>
      <trkpt lat="43.59451" lon="2.96063">
        <ele>820.8</ele>
        <time>2026-05-07T09:19:59.000Z</time>
      </trkpt>
      <trkpt lat="43.59452" lon="2.96064">
        <ele>820.5</ele>
        <time>2026-05-07T09:20:00.000Z</time>
      </trkpt>
      <trkpt lat="43.59452" lon="2.96066">
        <ele>820.2</ele>
        <time>2026-05-07T09:20:01.000Z</time>
      </trkpt>
      <trkpt lat="43.59452" lon="2.96067">
        <ele>820.4</ele>
        <time>2026-05-07T09:20:02.000Z</time>
      </trkpt>
      <trkpt lat="43.59453" lon="2.96067">
        <ele>820.4</ele>
        <time>2026-05-07T09:20:03.000Z</time>
      </trkpt>
      <trkpt lat="43.59454" lon="2.96067">
        <ele>820</ele>
        <time>2026-05-07T09:20:04.000Z</time>
      </trkpt>
      <trkpt lat="43.59453" lon="2.96067">
        <ele>820.4</ele>
        <time>2026-05-07T09:20:05.000Z</time>
      </trkpt>
      <trkpt lat="43.59453" lon="2.96066">
        <ele>820.5</ele>
        <time>2026-05-07T09:20:06.000Z</time>
      </trkpt>
      <trkpt lat="43.59451" lon="2.96064">
        <ele>821</ele>
        <time>2026-05-07T09:20:07.000Z</time>
      </trkpt>
      <trkpt lat="43.5945" lon="2.96061">
        <ele>821.1</ele>
        <time>2026-05-07T09:20:08.000Z</time>
      </trkpt>
      <trkpt lat="43.59449" lon="2.96059">
        <ele>821.2</ele>
        <time>2026-05-07T09:20:09.000Z</time>
      </trkpt>
      <trkpt lat="43.59448" lon="2.96057">
        <ele>821.1</ele>
        <time>2026-05-07T09:20:10.000Z</time>
      </trkpt>
      <trkpt lat="43.59449" lon="2.96056">
        <ele>821.5</ele>
        <time>2026-05-07T09:20:11.000Z</time>
      </trkpt>
      <trkpt lat="43.5945" lon="2.96056">
        <ele>821.6</ele>
        <time>2026-05-07T09:20:12.000Z</time>
      </trkpt>
      <trkpt lat="43.59449" lon="2.96055">
        <ele>822</ele>
        <time>2026-05-07T09:20:13.000Z</time>
      </trkpt>
      <trkpt lat="43.59449" lon="2.96054">
        <ele>822.3</ele>
        <time>2026-05-07T09:20:14.000Z</time>
      </trkpt>
      <trkpt lat="43.59449" lon="2.96054">
        <ele>822.8</ele>
        <time>2026-05-07T09:20:16.000Z</time>
      </trkpt>
      <trkpt lat="43.59449" lon="2.96053">
        <ele>822.8</ele>
        <time>2026-05-07T09:20:17.000Z</time>
      </trkpt>
      <trkpt lat="43.59447" lon="2.9605">
        <ele>823.6</ele>
        <time>2026-05-07T09:20:18.000Z</time>
      </trkpt>
      <trkpt lat="43.59444" lon="2.96046">
        <ele>823.7</ele>
        <time>2026-05-07T09:20:19.000Z</time>
      </trkpt>
      <trkpt lat="43.59442" lon="2.96043">
        <ele>824.2</ele>
        <time>2026-05-07T09:20:20.000Z</time>
      </trkpt>
      <trkpt lat="43.59442" lon="2.96042">
        <ele>825</ele>
        <time>2026-05-07T09:20:21.000Z</time>
      </trkpt>
      <trkpt lat="43.59441" lon="2.9604">
        <ele>825.2</ele>
        <time>2026-05-07T09:20:22.000Z</time>
      </trkpt>
      <trkpt lat="43.59441" lon="2.96039">
        <ele>826.4</ele>
        <time>2026-05-07T09:20:23.000Z</time>
      </trkpt>
      <trkpt lat="43.59442" lon="2.96039">
        <ele>826.8</ele>
        <time>2026-05-07T09:20:24.000Z</time>
      </trkpt>
      <trkpt lat="43.59442" lon="2.96036">
        <ele>827.6</ele>
        <time>2026-05-07T09:20:26.000Z</time>
      </trkpt>
      <trkpt lat="43.59443" lon="2.96037">
        <ele>827.6</ele>
        <time>2026-05-07T09:20:27.000Z</time>
      </trkpt>
      <trkpt lat="43.59443" lon="2.96037">
        <ele>827.3</ele>
        <time>2026-05-07T09:20:28.000Z</time>
      </trkpt>
      <trkpt lat="43.59443" lon="2.96037">
        <ele>828</ele>
        <time>2026-05-07T09:20:29.000Z</time>
      </trkpt>
      <trkpt lat="43.59441" lon="2.96033">
        <ele>828.6</ele>
        <time>2026-05-07T09:20:30.000Z</time>
      </trkpt>
      <trkpt lat="43.59441" lon="2.96033">
        <ele>830.3</ele>
        <time>2026-05-07T09:20:31.000Z</time>
      </trkpt>
      <trkpt lat="43.59441" lon="2.96033">
        <ele>830.2</ele>
        <time>2026-05-07T09:20:32.000Z</time>
      </trkpt>
      <trkpt lat="43.59441" lon="2.96033">
        <ele>830.8</ele>
        <time>2026-05-07T09:20:33.000Z</time>
      </trkpt>
      <trkpt lat="43.59441" lon="2.96033">
        <ele>831</ele>
        <time>2026-05-07T09:20:34.000Z</time>
      </trkpt>
      <trkpt lat="43.59442" lon="2.96033">
        <ele>831.2</ele>
        <time>2026-05-07T09:20:35.000Z</time>
      </trkpt>
      <trkpt lat="43.59442" lon="2.96033">
        <ele>831.3</ele>
        <time>2026-05-07T09:20:36.000Z</time>
      </trkpt>
      <trkpt lat="43.59441" lon="2.96032">
        <ele>831.8</ele>
        <time>2026-05-07T09:20:37.000Z</time>
      </trkpt>
      <trkpt lat="43.5944" lon="2.96031">
        <ele>831.6</ele>
        <time>2026-05-07T09:20:38.000Z</time>
      </trkpt>
      <trkpt lat="43.5944" lon="2.96031">
        <ele>831.5</ele>
        <time>2026-05-07T09:20:39.000Z</time>
      </trkpt>
      <trkpt lat="43.59441" lon="2.96031">
        <ele>831.3</ele>
        <time>2026-05-07T09:20:40.000Z</time>
      </trkpt>
      <trkpt lat="43.59441" lon="2.96031">
        <ele>831.5</ele>
        <time>2026-05-07T09:20:41.000Z</time>
      </trkpt>
      <trkpt lat="43.59441" lon="2.96032">
        <ele>832.7</ele>
        <time>2026-05-07T09:20:42.000Z</time>
      </trkpt>
      <trkpt lat="43.59442" lon="2.96032">
        <ele>832.5</ele>
        <time>2026-05-07T09:20:44.000Z</time>
      </trkpt>
      <trkpt lat="43.59443" lon="2.96032">
        <ele>832.3</ele>
        <time>2026-05-07T09:20:45.000Z</time>
      </trkpt>
      <trkpt lat="43.59443" lon="2.96032">
        <ele>832.2</ele>
        <time>2026-05-07T09:20:46.000Z</time>
      </trkpt>
      <trkpt lat="43.59443" lon="2.96032">
        <ele>832</ele>
        <time>2026-05-07T09:20:47.000Z</time>
      </trkpt>
      <trkpt lat="43.59443" lon="2.96032">
        <ele>832</ele>
        <time>2026-05-07T09:20:48.000Z</time>
      </trkpt>
      <trkpt lat="43.59443" lon="2.96032">
        <ele>831.9</ele>
        <time>2026-05-07T09:20:49.000Z</time>
      </trkpt>
      <trkpt lat="43.59444" lon="2.96033">
        <ele>832</ele>
        <time>2026-05-07T09:20:50.000Z</time>
      </trkpt>
      <trkpt lat="43.59444" lon="2.96033">
        <ele>832</ele>
        <time>2026-05-07T09:20:51.000Z</time>
      </trkpt>
      <trkpt lat="43.59444" lon="2.96033">
        <ele>831.6</ele>
        <time>2026-05-07T09:20:52.000Z</time>
      </trkpt>
      <trkpt lat="43.59443" lon="2.96033">
        <ele>831.8</ele>
        <time>2026-05-07T09:20:53.000Z</time>
      </trkpt>
      <trkpt lat="43.59443" lon="2.96034">
        <ele>831.9</ele>
        <time>2026-05-07T09:20:54.000Z</time>
      </trkpt>
      <trkpt lat="43.59444" lon="2.96036">
        <ele>831.9</ele>
        <time>2026-05-07T09:20:55.000Z</time>
      </trkpt>
      <trkpt lat="43.59445" lon="2.96036">
        <ele>831.9</ele>
        <time>2026-05-07T09:20:56.000Z</time>
      </trkpt>
      <trkpt lat="43.59446" lon="2.96037">
        <ele>832.2</ele>
        <time>2026-05-07T09:20:57.000Z</time>
      </trkpt>
      <trkpt lat="43.59446" lon="2.96037">
        <ele>832.2</ele>
        <time>2026-05-07T09:20:58.000Z</time>
      </trkpt>
      <trkpt lat="43.59446" lon="2.96037">
        <ele>832.1</ele>
        <time>2026-05-07T09:20:59.000Z</time>
      </trkpt>
      <trkpt lat="43.59447" lon="2.96037">
        <ele>832.1</ele>
        <time>2026-05-07T09:21:00.000Z</time>
      </trkpt>
      <trkpt lat="43.59446" lon="2.96038">
        <ele>831.9</ele>
        <time>2026-05-07T09:21:01.000Z</time>
      </trkpt>
      <trkpt lat="43.59446" lon="2.96039">
        <ele>831.4</ele>
        <time>2026-05-07T09:21:02.000Z</time>
      </trkpt>
      <trkpt lat="43.59445" lon="2.96038">
        <ele>831.9</ele>
        <time>2026-05-07T09:21:04.000Z</time>
      </trkpt>
      <trkpt lat="43.59445" lon="2.96039">
        <ele>832</ele>
        <time>2026-05-07T09:21:05.000Z</time>
      </trkpt>
      <trkpt lat="43.59446" lon="2.9604">
        <ele>831.9</ele>
        <time>2026-05-07T09:21:06.000Z</time>
      </trkpt>
      <trkpt lat="43.59446" lon="2.96039">
        <ele>832</ele>
        <time>2026-05-07T09:21:07.000Z</time>
      </trkpt>
      <trkpt lat="43.59446" lon="2.96039">
        <ele>832</ele>
        <time>2026-05-07T09:21:08.000Z</time>
      </trkpt>
      <trkpt lat="43.59446" lon="2.96038">
        <ele>832</ele>
        <time>2026-05-07T09:21:09.000Z</time>
      </trkpt>
      <trkpt lat="43.59447" lon="2.96038">
        <ele>832</ele>
        <time>2026-05-07T09:21:10.000Z</time>
      </trkpt>
      <trkpt lat="43.59447" lon="2.96038">
        <ele>832.4</ele>
        <time>2026-05-07T09:21:11.000Z</time>
      </trkpt>
      <trkpt lat="43.59448" lon="2.96038">
        <ele>832.7</ele>
        <time>2026-05-07T09:21:12.000Z</time>
      </trkpt>
      <trkpt lat="43.59448" lon="2.96038">
        <ele>832.5</ele>
        <time>2026-05-07T09:21:13.000Z</time>
      </trkpt>
      <trkpt lat="43.59448" lon="2.96037">
        <ele>832.9</ele>
        <time>2026-05-07T09:21:14.000Z</time>
      </trkpt>
      <trkpt lat="43.59448" lon="2.96037">
        <ele>833.1</ele>
        <time>2026-05-07T09:21:15.000Z</time>
      </trkpt>
      <trkpt lat="43.59447" lon="2.96038">
        <ele>833.7</ele>
        <time>2026-05-07T09:21:17.000Z</time>
      </trkpt>
      <trkpt lat="43.59448" lon="2.96039">
        <ele>833.3</ele>
        <time>2026-05-07T09:21:18.000Z</time>
      </trkpt>
      <trkpt lat="43.59447" lon="2.9604">
        <ele>833.5</ele>
        <time>2026-05-07T09:21:19.000Z</time>
      </trkpt>
      <trkpt lat="43.59448" lon="2.96041">
        <ele>832.7</ele>
        <time>2026-05-07T09:21:20.000Z</time>
      </trkpt>
      <trkpt lat="43.59448" lon="2.9604">
        <ele>833.3</ele>
        <time>2026-05-07T09:21:21.000Z</time>
      </trkpt>
      <trkpt lat="43.59448" lon="2.9604">
        <ele>833.5</ele>
        <time>2026-05-07T09:21:22.000Z</time>
      </trkpt>
      <trkpt lat="43.59447" lon="2.96038">
        <ele>833.1</ele>
        <time>2026-05-07T09:21:23.000Z</time>
      </trkpt>
      <trkpt lat="43.59447" lon="2.96038">
        <ele>832.7</ele>
        <time>2026-05-07T09:21:24.000Z</time>
      </trkpt>
      <trkpt lat="43.59448" lon="2.96039">
        <ele>833</ele>
        <time>2026-05-07T09:21:25.000Z</time>
      </trkpt>
      <trkpt lat="43.59447" lon="2.9604">
        <ele>833.1</ele>
        <time>2026-05-07T09:21:26.000Z</time>
      </trkpt>
      <trkpt lat="43.59447" lon="2.9604">
        <ele>832.9</ele>
        <time>2026-05-07T09:21:27.000Z</time>
      </trkpt>
      <trkpt lat="43.59447" lon="2.9604">
        <ele>832.2</ele>
        <time>2026-05-07T09:21:28.000Z</time>
      </trkpt>
      <trkpt lat="43.59447" lon="2.9604">
        <ele>831.5</ele>
        <time>2026-05-07T09:21:29.000Z</time>
      </trkpt>
      <trkpt lat="43.59446" lon="2.96041">
        <ele>830.3</ele>
        <time>2026-05-07T09:21:31.000Z</time>
      </trkpt>
      <trkpt lat="43.59446" lon="2.96041">
        <ele>830.3</ele>
        <time>2026-05-07T09:21:32.000Z</time>
      </trkpt>
      <trkpt lat="43.59446" lon="2.96041">
        <ele>830.1</ele>
        <time>2026-05-07T09:21:33.000Z</time>
      </trkpt>
      <trkpt lat="43.59446" lon="2.9604">
        <ele>830</ele>
        <time>2026-05-07T09:21:34.000Z</time>
      </trkpt>
      <trkpt lat="43.59447" lon="2.9604">
        <ele>830</ele>
        <time>2026-05-07T09:21:35.000Z</time>
      </trkpt>
      <trkpt lat="43.59447" lon="2.96038">
        <ele>830.1</ele>
        <time>2026-05-07T09:21:36.000Z</time>
      </trkpt>
      <trkpt lat="43.59448" lon="2.96037">
        <ele>830.2</ele>
        <time>2026-05-07T09:21:37.000Z</time>
      </trkpt>
      <trkpt lat="43.59448" lon="2.96035">
        <ele>830.7</ele>
        <time>2026-05-07T09:21:38.000Z</time>
      </trkpt>
      <trkpt lat="43.59447" lon="2.96033">
        <ele>831.1</ele>
        <time>2026-05-07T09:21:39.000Z</time>
      </trkpt>
      <trkpt lat="43.59446" lon="2.96029">
        <ele>831.5</ele>
        <time>2026-05-07T09:21:40.000Z</time>
      </trkpt>
      <trkpt lat="43.59447" lon="2.96028">
        <ele>832.2</ele>
        <time>2026-05-07T09:21:41.000Z</time>
      </trkpt>
      <trkpt lat="43.59448" lon="2.96028">
        <ele>832.5</ele>
        <time>2026-05-07T09:21:42.000Z</time>
      </trkpt>
      <trkpt lat="43.59449" lon="2.96026">
        <ele>833.2</ele>
        <time>2026-05-07T09:21:43.000Z</time>
      </trkpt>
      <trkpt lat="43.59449" lon="2.96025">
        <ele>833.5</ele>
        <time>2026-05-07T09:21:44.000Z</time>
      </trkpt>
      <trkpt lat="43.59449" lon="2.96024">
        <ele>833.9</ele>
        <time>2026-05-07T09:21:46.000Z</time>
      </trkpt>
      <trkpt lat="43.59449" lon="2.96025">
        <ele>833</ele>
        <time>2026-05-07T09:21:47.000Z</time>
      </trkpt>
      <trkpt lat="43.59449" lon="2.96025">
        <ele>832.1</ele>
        <time>2026-05-07T09:21:48.000Z</time>
      </trkpt>
      <trkpt lat="43.59448" lon="2.96025">
        <ele>832</ele>
        <time>2026-05-07T09:21:49.000Z</time>
      </trkpt>
      <trkpt lat="43.59448" lon="2.96023">
        <ele>832.3</ele>
        <time>2026-05-07T09:21:50.000Z</time>
      </trkpt>
      <trkpt lat="43.59447" lon="2.96022">
        <ele>832.4</ele>
        <time>2026-05-07T09:21:51.000Z</time>
      </trkpt>
      <trkpt lat="43.59446" lon="2.96022">
        <ele>832.6</ele>
        <time>2026-05-07T09:21:52.000Z</time>
      </trkpt>
      <trkpt lat="43.59446" lon="2.96022">
        <ele>832.9</ele>
        <time>2026-05-07T09:21:53.000Z</time>
      </trkpt>
      <trkpt lat="43.59446" lon="2.96022">
        <ele>833.3</ele>
        <time>2026-05-07T09:21:54.000Z</time>
      </trkpt>
      <trkpt lat="43.59446" lon="2.96021">
        <ele>833.8</ele>
        <time>2026-05-07T09:21:55.000Z</time>
      </trkpt>
      <trkpt lat="43.59445" lon="2.9602">
        <ele>834.6</ele>
        <time>2026-05-07T09:21:56.000Z</time>
      </trkpt>
      <trkpt lat="43.59446" lon="2.9602">
        <ele>835.1</ele>
        <time>2026-05-07T09:21:57.000Z</time>
      </trkpt>
      <trkpt lat="43.59446" lon="2.9602">
        <ele>835.4</ele>
        <time>2026-05-07T09:21:58.000Z</time>
      </trkpt>
      <trkpt lat="43.59446" lon="2.9602">
        <ele>835.8</ele>
        <time>2026-05-07T09:21:59.000Z</time>
      </trkpt>
      <trkpt lat="43.59446" lon="2.9602">
        <ele>836.1</ele>
        <time>2026-05-07T09:22:00.000Z</time>
      </trkpt>
      <trkpt lat="43.59446" lon="2.9602">
        <ele>836.3</ele>
        <time>2026-05-07T09:22:01.000Z</time>
      </trkpt>
      <trkpt lat="43.59446" lon="2.9602">
        <ele>836.4</ele>
        <time>2026-05-07T09:22:02.000Z</time>
      </trkpt>
      <trkpt lat="43.59447" lon="2.96021">
        <ele>836.6</ele>
        <time>2026-05-07T09:22:03.000Z</time>
      </trkpt>
      <trkpt lat="43.59448" lon="2.96023">
        <ele>836.7</ele>
        <time>2026-05-07T09:22:04.000Z</time>
      </trkpt>
      <trkpt lat="43.59448" lon="2.96023">
        <ele>837.1</ele>
        <time>2026-05-07T09:22:05.000Z</time>
      </trkpt>
      <trkpt lat="43.59448" lon="2.96024">
        <ele>837.6</ele>
        <time>2026-05-07T09:22:06.000Z</time>
      </trkpt>
      <trkpt lat="43.59449" lon="2.96027">
        <ele>838.1</ele>
        <time>2026-05-07T09:22:07.000Z</time>
      </trkpt>
      <trkpt lat="43.5945" lon="2.96029">
        <ele>838</ele>
        <time>2026-05-07T09:22:08.000Z</time>
      </trkpt>
      <trkpt lat="43.5945" lon="2.96031">
        <ele>837.9</ele>
        <time>2026-05-07T09:22:09.000Z</time>
      </trkpt>
      <trkpt lat="43.5945" lon="2.96032">
        <ele>838</ele>
        <time>2026-05-07T09:22:10.000Z</time>
      </trkpt>
      <trkpt lat="43.5945" lon="2.96033">
        <ele>837.8</ele>
        <time>2026-05-07T09:22:11.000Z</time>
      </trkpt>
      <trkpt lat="43.5945" lon="2.96034">
        <ele>837.8</ele>
        <time>2026-05-07T09:22:12.000Z</time>
      </trkpt>
      <trkpt lat="43.5945" lon="2.96035">
        <ele>837.8</ele>
        <time>2026-05-07T09:22:13.000Z</time>
      </trkpt>
      <trkpt lat="43.59451" lon="2.96036">
        <ele>838.7</ele>
        <time>2026-05-07T09:22:14.000Z</time>
      </trkpt>
      <trkpt lat="43.59451" lon="2.96038">
        <ele>838.5</ele>
        <time>2026-05-07T09:22:15.000Z</time>
      </trkpt>
      <trkpt lat="43.59452" lon="2.96038">
        <ele>838.4</ele>
        <time>2026-05-07T09:22:16.000Z</time>
      </trkpt>
      <trkpt lat="43.59452" lon="2.96038">
        <ele>838.3</ele>
        <time>2026-05-07T09:22:17.000Z</time>
      </trkpt>
      <trkpt lat="43.59452" lon="2.96038">
        <ele>838</ele>
        <time>2026-05-07T09:22:18.000Z</time>
      </trkpt>
      <trkpt lat="43.59452" lon="2.96038">
        <ele>837.8</ele>
        <time>2026-05-07T09:22:19.000Z</time>
      </trkpt>
      <trkpt lat="43.59451" lon="2.96037">
        <ele>837.9</ele>
        <time>2026-05-07T09:22:20.000Z</time>
      </trkpt>
      <trkpt lat="43.59451" lon="2.96038">
        <ele>837.9</ele>
        <time>2026-05-07T09:22:21.000Z</time>
      </trkpt>
      <trkpt lat="43.59451" lon="2.96038">
        <ele>838.4</ele>
        <time>2026-05-07T09:22:22.000Z</time>
      </trkpt>
      <trkpt lat="43.59451" lon="2.96038">
        <ele>838.6</ele>
        <time>2026-05-07T09:22:23.000Z</time>
      </trkpt>
      <trkpt lat="43.59452" lon="2.96039">
        <ele>838.5</ele>
        <time>2026-05-07T09:22:24.000Z</time>
      </trkpt>
      <trkpt lat="43.59453" lon="2.96039">
        <ele>838.5</ele>
        <time>2026-05-07T09:22:25.000Z</time>
      </trkpt>
      <trkpt lat="43.59453" lon="2.96039">
        <ele>838.6</ele>
        <time>2026-05-07T09:22:26.000Z</time>
      </trkpt>
      <trkpt lat="43.59454" lon="2.96041">
        <ele>838.4</ele>
        <time>2026-05-07T09:22:27.000Z</time>
      </trkpt>
      <trkpt lat="43.59454" lon="2.96042">
        <ele>838</ele>
        <time>2026-05-07T09:22:28.000Z</time>
      </trkpt>
      <trkpt lat="43.59454" lon="2.96044">
        <ele>837.9</ele>
        <time>2026-05-07T09:22:29.000Z</time>
      </trkpt>
      <trkpt lat="43.59455" lon="2.96045">
        <ele>837.9</ele>
        <time>2026-05-07T09:22:30.000Z</time>
      </trkpt>
      <trkpt lat="43.59454" lon="2.96043">
        <ele>837.7</ele>
        <time>2026-05-07T09:22:31.000Z</time>
      </trkpt>
      <trkpt lat="43.59454" lon="2.96044">
        <ele>837.2</ele>
        <time>2026-05-07T09:22:32.000Z</time>
      </trkpt>
      <trkpt lat="43.59453" lon="2.96043">
        <ele>837.5</ele>
        <time>2026-05-07T09:22:33.000Z</time>
      </trkpt>
      <trkpt lat="43.59454" lon="2.96043">
        <ele>837.7</ele>
        <time>2026-05-07T09:22:34.000Z</time>
      </trkpt>
      <trkpt lat="43.59454" lon="2.96043">
        <ele>837.8</ele>
        <time>2026-05-07T09:22:35.000Z</time>
      </trkpt>
      <trkpt lat="43.59454" lon="2.96043">
        <ele>837.7</ele>
        <time>2026-05-07T09:22:36.000Z</time>
      </trkpt>
      <trkpt lat="43.59454" lon="2.96043">
        <ele>839.5</ele>
        <time>2026-05-07T09:22:37.000Z</time>
      </trkpt>
      <trkpt lat="43.59455" lon="2.96043">
        <ele>839.2</ele>
        <time>2026-05-07T09:22:38.000Z</time>
      </trkpt>
      <trkpt lat="43.59455" lon="2.96042">
        <ele>838.9</ele>
        <time>2026-05-07T09:22:39.000Z</time>
      </trkpt>
      <trkpt lat="43.59455" lon="2.96038">
        <ele>838.9</ele>
        <time>2026-05-07T09:22:40.000Z</time>
      </trkpt>
      <trkpt lat="43.59455" lon="2.96036">
        <ele>838.9</ele>
        <time>2026-05-07T09:22:41.000Z</time>
      </trkpt>
      <trkpt lat="43.59456" lon="2.96036">
        <ele>838.9</ele>
        <time>2026-05-07T09:22:42.000Z</time>
      </trkpt>
      <trkpt lat="43.59456" lon="2.96036">
        <ele>838.7</ele>
        <time>2026-05-07T09:22:43.000Z</time>
      </trkpt>
      <trkpt lat="43.59455" lon="2.96036">
        <ele>838.7</ele>
        <time>2026-05-07T09:22:44.000Z</time>
      </trkpt>
      <trkpt lat="43.59454" lon="2.96035">
        <ele>838.4</ele>
        <time>2026-05-07T09:22:45.000Z</time>
      </trkpt>
      <trkpt lat="43.59455" lon="2.96035">
        <ele>838.7</ele>
        <time>2026-05-07T09:22:46.000Z</time>
      </trkpt>
      <trkpt lat="43.59454" lon="2.96033">
        <ele>839</ele>
        <time>2026-05-07T09:22:47.000Z</time>
      </trkpt>
      <trkpt lat="43.59454" lon="2.96034">
        <ele>839</ele>
        <time>2026-05-07T09:22:48.000Z</time>
      </trkpt>
      <trkpt lat="43.59454" lon="2.96034">
        <ele>839</ele>
        <time>2026-05-07T09:22:49.000Z</time>
      </trkpt>
      <trkpt lat="43.59454" lon="2.96035">
        <ele>839</ele>
        <time>2026-05-07T09:22:50.000Z</time>
      </trkpt>
      <trkpt lat="43.59454" lon="2.96035">
        <ele>839.2</ele>
        <time>2026-05-07T09:22:51.000Z</time>
      </trkpt>
      <trkpt lat="43.59454" lon="2.96035">
        <ele>839.4</ele>
        <time>2026-05-07T09:22:52.000Z</time>
      </trkpt>
      <trkpt lat="43.59455" lon="2.96036">
        <ele>839.6</ele>
        <time>2026-05-07T09:22:53.000Z</time>
      </trkpt>
      <trkpt lat="43.59455" lon="2.96037">
        <ele>839.5</ele>
        <time>2026-05-07T09:22:54.000Z</time>
      </trkpt>
      <trkpt lat="43.59456" lon="2.96039">
        <ele>839.4</ele>
        <time>2026-05-07T09:22:55.000Z</time>
      </trkpt>
      <trkpt lat="43.59457" lon="2.96041">
        <ele>839.5</ele>
        <time>2026-05-07T09:22:56.000Z</time>
      </trkpt>
      <trkpt lat="43.59458" lon="2.96042">
        <ele>839.7</ele>
        <time>2026-05-07T09:22:57.000Z</time>
      </trkpt>
      <trkpt lat="43.59458" lon="2.96042">
        <ele>839.7</ele>
        <time>2026-05-07T09:22:58.000Z</time>
      </trkpt>
      <trkpt lat="43.59459" lon="2.96042">
        <ele>839.8</ele>
        <time>2026-05-07T09:23:00.000Z</time>
      </trkpt>
      <trkpt lat="43.59459" lon="2.96043">
        <ele>839.8</ele>
        <time>2026-05-07T09:23:01.000Z</time>
      </trkpt>
      <trkpt lat="43.59458" lon="2.96042">
        <ele>839.8</ele>
        <time>2026-05-07T09:23:02.000Z</time>
      </trkpt>
      <trkpt lat="43.59458" lon="2.96041">
        <ele>839.8</ele>
        <time>2026-05-07T09:23:03.000Z</time>
      </trkpt>
      <trkpt lat="43.59457" lon="2.96039">
        <ele>839.8</ele>
        <time>2026-05-07T09:23:04.000Z</time>
      </trkpt>
      <trkpt lat="43.59458" lon="2.96039">
        <ele>839.3</ele>
        <time>2026-05-07T09:23:05.000Z</time>
      </trkpt>
      <trkpt lat="43.59458" lon="2.96039">
        <ele>839.1</ele>
        <time>2026-05-07T09:23:06.000Z</time>
      </trkpt>
      <trkpt lat="43.59458" lon="2.96038">
        <ele>838.9</ele>
        <time>2026-05-07T09:23:07.000Z</time>
      </trkpt>
      <trkpt lat="43.59457" lon="2.96038">
        <ele>839.4</ele>
        <time>2026-05-07T09:23:08.000Z</time>
      </trkpt>
      <trkpt lat="43.59457" lon="2.96038">
        <ele>839.9</ele>
        <time>2026-05-07T09:23:09.000Z</time>
      </trkpt>
      <trkpt lat="43.59457" lon="2.96038">
        <ele>840.2</ele>
        <time>2026-05-07T09:23:10.000Z</time>
      </trkpt>
      <trkpt lat="43.59457" lon="2.96038">
        <ele>840.3</ele>
        <time>2026-05-07T09:23:11.000Z</time>
      </trkpt>
      <trkpt lat="43.59457" lon="2.96038">
        <ele>839.8</ele>
        <time>2026-05-07T09:23:12.000Z</time>
      </trkpt>
      <trkpt lat="43.59456" lon="2.96037">
        <ele>839.8</ele>
        <time>2026-05-07T09:23:13.000Z</time>
      </trkpt>
      <trkpt lat="43.59456" lon="2.96038">
        <ele>839.9</ele>
        <time>2026-05-07T09:23:14.000Z</time>
      </trkpt>
      <trkpt lat="43.59456" lon="2.96038">
        <ele>840.2</ele>
        <time>2026-05-07T09:23:15.000Z</time>
      </trkpt>
      <trkpt lat="43.59456" lon="2.96038">
        <ele>839.8</ele>
        <time>2026-05-07T09:23:16.000Z</time>
      </trkpt>
      <trkpt lat="43.59456" lon="2.96038">
        <ele>839.7</ele>
        <time>2026-05-07T09:23:17.000Z</time>
      </trkpt>
      <trkpt lat="43.59456" lon="2.96038">
        <ele>840.5</ele>
        <time>2026-05-07T09:23:19.000Z</time>
      </trkpt>
      <trkpt lat="43.59456" lon="2.96038">
        <ele>840.7</ele>
        <time>2026-05-07T09:23:20.000Z</time>
      </trkpt>
      <trkpt lat="43.59456" lon="2.96038">
        <ele>840.8</ele>
        <time>2026-05-07T09:23:21.000Z</time>
      </trkpt>
      <trkpt lat="43.59456" lon="2.96038">
        <ele>840.9</ele>
        <time>2026-05-07T09:23:22.000Z</time>
      </trkpt>
      <trkpt lat="43.59456" lon="2.96038">
        <ele>841.2</ele>
        <time>2026-05-07T09:23:23.000Z</time>
      </trkpt>
      <trkpt lat="43.59456" lon="2.96039">
        <ele>841.3</ele>
        <time>2026-05-07T09:23:24.000Z</time>
      </trkpt>
      <trkpt lat="43.59456" lon="2.96039">
        <ele>841.3</ele>
        <time>2026-05-07T09:23:25.000Z</time>
      </trkpt>
      <trkpt lat="43.59456" lon="2.96039">
        <ele>841.2</ele>
        <time>2026-05-07T09:23:26.000Z</time>
      </trkpt>
      <trkpt lat="43.59456" lon="2.96039">
        <ele>840.9</ele>
        <time>2026-05-07T09:23:27.000Z</time>
      </trkpt>
      <trkpt lat="43.59455" lon="2.96039">
        <ele>840.7</ele>
        <time>2026-05-07T09:23:28.000Z</time>
      </trkpt>
      <trkpt lat="43.59455" lon="2.96039">
        <ele>840.8</ele>
        <time>2026-05-07T09:23:29.000Z</time>
      </trkpt>
      <trkpt lat="43.59455" lon="2.96039">
        <ele>840.9</ele>
        <time>2026-05-07T09:23:30.000Z</time>
      </trkpt>
      <trkpt lat="43.59455" lon="2.96039">
        <ele>841</ele>
        <time>2026-05-07T09:23:31.000Z</time>
      </trkpt>
      <trkpt lat="43.59455" lon="2.96038">
        <ele>841.1</ele>
        <time>2026-05-07T09:23:32.000Z</time>
      </trkpt>
      <trkpt lat="43.59454" lon="2.96036">
        <ele>841.1</ele>
        <time>2026-05-07T09:23:33.000Z</time>
      </trkpt>
      <trkpt lat="43.59454" lon="2.96035">
        <ele>841.3</ele>
        <time>2026-05-07T09:23:34.000Z</time>
      </trkpt>
      <trkpt lat="43.59454" lon="2.96034">
        <ele>841.5</ele>
        <time>2026-05-07T09:23:35.000Z</time>
      </trkpt>
      <trkpt lat="43.59454" lon="2.96033">
        <ele>841.6</ele>
        <time>2026-05-07T09:23:36.000Z</time>
      </trkpt>
      <trkpt lat="43.59454" lon="2.96031">
        <ele>841.7</ele>
        <time>2026-05-07T09:23:37.000Z</time>
      </trkpt>
      <trkpt lat="43.59454" lon="2.96032">
        <ele>841.7</ele>
        <time>2026-05-07T09:23:38.000Z</time>
      </trkpt>
      <trkpt lat="43.59454" lon="2.96034">
        <ele>841.4</ele>
        <time>2026-05-07T09:23:39.000Z</time>
      </trkpt>
      <trkpt lat="43.59454" lon="2.96034">
        <ele>841.3</ele>
        <time>2026-05-07T09:23:40.000Z</time>
      </trkpt>
      <trkpt lat="43.59454" lon="2.96034">
        <ele>840.9</ele>
        <time>2026-05-07T09:23:41.000Z</time>
      </trkpt>
      <trkpt lat="43.59454" lon="2.96034">
        <ele>841</ele>
        <time>2026-05-07T09:23:42.000Z</time>
      </trkpt>
      <trkpt lat="43.59454" lon="2.96033">
        <ele>837.6</ele>
        <time>2026-05-07T09:23:43.000Z</time>
      </trkpt>
      <trkpt lat="43.59454" lon="2.96033">
        <ele>837.7</ele>
        <time>2026-05-07T09:23:44.000Z</time>
      </trkpt>
      <trkpt lat="43.59454" lon="2.96034">
        <ele>837.8</ele>
        <time>2026-05-07T09:23:45.000Z</time>
      </trkpt>
      <trkpt lat="43.59454" lon="2.96035">
        <ele>838</ele>
        <time>2026-05-07T09:23:46.000Z</time>
      </trkpt>
      <trkpt lat="43.59455" lon="2.96036">
        <ele>838.3</ele>
        <time>2026-05-07T09:23:47.000Z</time>
      </trkpt>
      <trkpt lat="43.59455" lon="2.96036">
        <ele>838.5</ele>
        <time>2026-05-07T09:23:48.000Z</time>
      </trkpt>
      <trkpt lat="43.59455" lon="2.96036">
        <ele>838.8</ele>
        <time>2026-05-07T09:23:49.000Z</time>
      </trkpt>
      <trkpt lat="43.59455" lon="2.96036">
        <ele>839</ele>
        <time>2026-05-07T09:23:50.000Z</time>
      </trkpt>
      <trkpt lat="43.59456" lon="2.96036">
        <ele>839.1</ele>
        <time>2026-05-07T09:23:51.000Z</time>
      </trkpt>
      <trkpt lat="43.59456" lon="2.96036">
        <ele>839.2</ele>
        <time>2026-05-07T09:23:53.000Z</time>
      </trkpt>
      <trkpt lat="43.59456" lon="2.96036">
        <ele>839.3</ele>
        <time>2026-05-07T09:23:54.000Z</time>
      </trkpt>
      <trkpt lat="43.59457" lon="2.96035">
        <ele>837.7</ele>
        <time>2026-05-07T09:23:55.000Z</time>
      </trkpt>
      <trkpt lat="43.59456" lon="2.96036">
        <ele>837.8</ele>
        <time>2026-05-07T09:23:56.000Z</time>
      </trkpt>
      <trkpt lat="43.59457" lon="2.96038">
        <ele>838</ele>
        <time>2026-05-07T09:23:57.000Z</time>
      </trkpt>
      <trkpt lat="43.59457" lon="2.96038">
        <ele>838.1</ele>
        <time>2026-05-07T09:23:58.000Z</time>
      </trkpt>
      <trkpt lat="43.59457" lon="2.96038">
        <ele>838.4</ele>
        <time>2026-05-07T09:23:59.000Z</time>
      </trkpt>
      <trkpt lat="43.59457" lon="2.96037">
        <ele>838.6</ele>
        <time>2026-05-07T09:24:00.000Z</time>
      </trkpt>
      <trkpt lat="43.59457" lon="2.96038">
        <ele>838.7</ele>
        <time>2026-05-07T09:24:01.000Z</time>
      </trkpt>
      <trkpt lat="43.59458" lon="2.9604">
        <ele>838.6</ele>
        <time>2026-05-07T09:24:02.000Z</time>
      </trkpt>
      <trkpt lat="43.59458" lon="2.9604">
        <ele>837.9</ele>
        <time>2026-05-07T09:24:03.000Z</time>
      </trkpt>
      <trkpt lat="43.59458" lon="2.9604">
        <ele>838</ele>
        <time>2026-05-07T09:24:04.000Z</time>
      </trkpt>
      <trkpt lat="43.59458" lon="2.9604">
        <ele>838.3</ele>
        <time>2026-05-07T09:24:05.000Z</time>
      </trkpt>
      <trkpt lat="43.59458" lon="2.96041">
        <ele>838.6</ele>
        <time>2026-05-07T09:24:06.000Z</time>
      </trkpt>
      <trkpt lat="43.59458" lon="2.96041">
        <ele>839</ele>
        <time>2026-05-07T09:24:08.000Z</time>
      </trkpt>
      <trkpt lat="43.59458" lon="2.9604">
        <ele>839.5</ele>
        <time>2026-05-07T09:24:09.000Z</time>
      </trkpt>
      <trkpt lat="43.59456" lon="2.9604">
        <ele>839.5</ele>
        <time>2026-05-07T09:24:10.000Z</time>
      </trkpt>
      <trkpt lat="43.59456" lon="2.96039">
        <ele>839.2</ele>
        <time>2026-05-07T09:24:11.000Z</time>
      </trkpt>
      <trkpt lat="43.59456" lon="2.96039">
        <ele>835.5</ele>
        <time>2026-05-07T09:24:12.000Z</time>
      </trkpt>
      <trkpt lat="43.59456" lon="2.96041">
        <ele>835.8</ele>
        <time>2026-05-07T09:24:13.000Z</time>
      </trkpt>
      <trkpt lat="43.59457" lon="2.96042">
        <ele>836.1</ele>
        <time>2026-05-07T09:24:14.000Z</time>
      </trkpt>
      <trkpt lat="43.59456" lon="2.96043">
        <ele>836.5</ele>
        <time>2026-05-07T09:24:15.000Z</time>
      </trkpt>
      <trkpt lat="43.59457" lon="2.96043">
        <ele>836.7</ele>
        <time>2026-05-07T09:24:16.000Z</time>
      </trkpt>
      <trkpt lat="43.59457" lon="2.96043">
        <ele>836.9</ele>
        <time>2026-05-07T09:24:17.000Z</time>
      </trkpt>
      <trkpt lat="43.59457" lon="2.96043">
        <ele>837.2</ele>
        <time>2026-05-07T09:24:18.000Z</time>
      </trkpt>
      <trkpt lat="43.59457" lon="2.96044">
        <ele>837.2</ele>
        <time>2026-05-07T09:24:19.000Z</time>
      </trkpt>
      <trkpt lat="43.59458" lon="2.96045">
        <ele>837.2</ele>
        <time>2026-05-07T09:24:20.000Z</time>
      </trkpt>
      <trkpt lat="43.59458" lon="2.96046">
        <ele>837.4</ele>
        <time>2026-05-07T09:24:21.000Z</time>
      </trkpt>
      <trkpt lat="43.59459" lon="2.96049">
        <ele>837.6</ele>
        <time>2026-05-07T09:24:22.000Z</time>
      </trkpt>
      <trkpt lat="43.59459" lon="2.96051">
        <ele>837.7</ele>
        <time>2026-05-07T09:24:23.000Z</time>
      </trkpt>
      <trkpt lat="43.5946" lon="2.96053">
        <ele>837.9</ele>
        <time>2026-05-07T09:24:24.000Z</time>
      </trkpt>
      <trkpt lat="43.5946" lon="2.96055">
        <ele>838</ele>
        <time>2026-05-07T09:24:25.000Z</time>
      </trkpt>
      <trkpt lat="43.5946" lon="2.96058">
        <ele>838.1</ele>
        <time>2026-05-07T09:24:26.000Z</time>
      </trkpt>
      <trkpt lat="43.59461" lon="2.96061">
        <ele>838.1</ele>
        <time>2026-05-07T09:24:27.000Z</time>
      </trkpt>
      <trkpt lat="43.59461" lon="2.96061">
        <ele>838</ele>
        <time>2026-05-07T09:24:28.000Z</time>
      </trkpt>
      <trkpt lat="43.59462" lon="2.96063">
        <ele>837.9</ele>
        <time>2026-05-07T09:24:29.000Z</time>
      </trkpt>
      <trkpt lat="43.59462" lon="2.96065">
        <ele>837.7</ele>
        <time>2026-05-07T09:24:30.000Z</time>
      </trkpt>
      <trkpt lat="43.59463" lon="2.96067">
        <ele>837.5</ele>
        <time>2026-05-07T09:24:31.000Z</time>
      </trkpt>
      <trkpt lat="43.59464" lon="2.9607">
        <ele>837.2</ele>
        <time>2026-05-07T09:24:32.000Z</time>
      </trkpt>
      <trkpt lat="43.59464" lon="2.96072">
        <ele>836.8</ele>
        <time>2026-05-07T09:24:33.000Z</time>
      </trkpt>
      <trkpt lat="43.59463" lon="2.96074">
        <ele>836.8</ele>
        <time>2026-05-07T09:24:34.000Z</time>
      </trkpt>
      <trkpt lat="43.59464" lon="2.96075">
        <ele>837</ele>
        <time>2026-05-07T09:24:35.000Z</time>
      </trkpt>
      <trkpt lat="43.59465" lon="2.96077">
        <ele>837.2</ele>
        <time>2026-05-07T09:24:36.000Z</time>
      </trkpt>
      <trkpt lat="43.59466" lon="2.96076">
        <ele>838</ele>
        <time>2026-05-07T09:24:37.000Z</time>
      </trkpt>
      <trkpt lat="43.59466" lon="2.96079">
        <ele>838.4</ele>
        <time>2026-05-07T09:24:38.000Z</time>
      </trkpt>
      <trkpt lat="43.59467" lon="2.96081">
        <ele>838.9</ele>
        <time>2026-05-07T09:24:40.000Z</time>
      </trkpt>
      <trkpt lat="43.59467" lon="2.96081">
        <ele>838.6</ele>
        <time>2026-05-07T09:24:41.000Z</time>
      </trkpt>
      <trkpt lat="43.59467" lon="2.9608">
        <ele>838.7</ele>
        <time>2026-05-07T09:24:42.000Z</time>
      </trkpt>
      <trkpt lat="43.59466" lon="2.9608">
        <ele>838.9</ele>
        <time>2026-05-07T09:24:43.000Z</time>
      </trkpt>
      <trkpt lat="43.59466" lon="2.9608">
        <ele>838.8</ele>
        <time>2026-05-07T09:24:44.000Z</time>
      </trkpt>
      <trkpt lat="43.59465" lon="2.96078">
        <ele>839.3</ele>
        <time>2026-05-07T09:24:45.000Z</time>
      </trkpt>
      <trkpt lat="43.59465" lon="2.96077">
        <ele>839.8</ele>
        <time>2026-05-07T09:24:46.000Z</time>
      </trkpt>
      <trkpt lat="43.59464" lon="2.96076">
        <ele>840</ele>
        <time>2026-05-07T09:24:47.000Z</time>
      </trkpt>
      <trkpt lat="43.59464" lon="2.96075">
        <ele>840.2</ele>
        <time>2026-05-07T09:24:48.000Z</time>
      </trkpt>
      <trkpt lat="43.59465" lon="2.96076">
        <ele>840.5</ele>
        <time>2026-05-07T09:24:49.000Z</time>
      </trkpt>
      <trkpt lat="43.59465" lon="2.96076">
        <ele>841.4</ele>
        <time>2026-05-07T09:24:50.000Z</time>
      </trkpt>
      <trkpt lat="43.59466" lon="2.96077">
        <ele>841.9</ele>
        <time>2026-05-07T09:24:51.000Z</time>
      </trkpt>
      <trkpt lat="43.59466" lon="2.96078">
        <ele>842.2</ele>
        <time>2026-05-07T09:24:52.000Z</time>
      </trkpt>
      <trkpt lat="43.59466" lon="2.96079">
        <ele>842.5</ele>
        <time>2026-05-07T09:24:53.000Z</time>
      </trkpt>
      <trkpt lat="43.59466" lon="2.96081">
        <ele>842.8</ele>
        <time>2026-05-07T09:24:54.000Z</time>
      </trkpt>
      <trkpt lat="43.59467" lon="2.96082">
        <ele>842.6</ele>
        <time>2026-05-07T09:24:55.000Z</time>
      </trkpt>
      <trkpt lat="43.59467" lon="2.96082">
        <ele>842.7</ele>
        <time>2026-05-07T09:24:56.000Z</time>
      </trkpt>
      <trkpt lat="43.59466" lon="2.96079">
        <ele>843</ele>
        <time>2026-05-07T09:24:57.000Z</time>
      </trkpt>
      <trkpt lat="43.59465" lon="2.96078">
        <ele>843.4</ele>
        <time>2026-05-07T09:24:58.000Z</time>
      </trkpt>
      <trkpt lat="43.59466" lon="2.96077">
        <ele>843.3</ele>
        <time>2026-05-07T09:24:59.000Z</time>
      </trkpt>
      <trkpt lat="43.59466" lon="2.96074">
        <ele>844</ele>
        <time>2026-05-07T09:25:00.000Z</time>
      </trkpt>
      <trkpt lat="43.59466" lon="2.96072">
        <ele>844.9</ele>
        <time>2026-05-07T09:25:01.000Z</time>
      </trkpt>
      <trkpt lat="43.59466" lon="2.96072">
        <ele>845</ele>
        <time>2026-05-07T09:25:02.000Z</time>
      </trkpt>
      <trkpt lat="43.59459" lon="2.96049">
        <ele>846.9</ele>
        <time>2026-05-07T09:25:03.000Z</time>
      </trkpt>
      <trkpt lat="43.5946" lon="2.96048">
        <ele>846.5</ele>
        <time>2026-05-07T09:25:04.000Z</time>
      </trkpt>
      <trkpt lat="43.59458" lon="2.96043">
        <ele>846.3</ele>
        <time>2026-05-07T09:25:05.000Z</time>
      </trkpt>
      <trkpt lat="43.59456" lon="2.96039">
        <ele>847.2</ele>
        <time>2026-05-07T09:25:06.000Z</time>
      </trkpt>
      <trkpt lat="43.59455" lon="2.96038">
        <ele>847.7</ele>
        <time>2026-05-07T09:25:07.000Z</time>
      </trkpt>
      <trkpt lat="43.59455" lon="2.9604">
        <ele>848</ele>
        <time>2026-05-07T09:25:08.000Z</time>
      </trkpt>
      <trkpt lat="43.59455" lon="2.9604">
        <ele>848.2</ele>
        <time>2026-05-07T09:25:09.000Z</time>
      </trkpt>
      <trkpt lat="43.59455" lon="2.9604">
        <ele>848.2</ele>
        <time>2026-05-07T09:25:10.000Z</time>
      </trkpt>
      <trkpt lat="43.59455" lon="2.96041">
        <ele>847.8</ele>
        <time>2026-05-07T09:25:11.000Z</time>
      </trkpt>
      <trkpt lat="43.59456" lon="2.96041">
        <ele>847.8</ele>
        <time>2026-05-07T09:25:12.000Z</time>
      </trkpt>
      <trkpt lat="43.59456" lon="2.9604">
        <ele>847.8</ele>
        <time>2026-05-07T09:25:13.000Z</time>
      </trkpt>
      <trkpt lat="43.59455" lon="2.96039">
        <ele>848.1</ele>
        <time>2026-05-07T09:25:14.000Z</time>
      </trkpt>
      <trkpt lat="43.59455" lon="2.96039">
        <ele>848.4</ele>
        <time>2026-05-07T09:25:15.000Z</time>
      </trkpt>
      <trkpt lat="43.59455" lon="2.96038">
        <ele>848.6</ele>
        <time>2026-05-07T09:25:16.000Z</time>
      </trkpt>
      <trkpt lat="43.59454" lon="2.96038">
        <ele>848.7</ele>
        <time>2026-05-07T09:25:17.000Z</time>
      </trkpt>
      <trkpt lat="43.59454" lon="2.96038">
        <ele>848.2</ele>
        <time>2026-05-07T09:25:18.000Z</time>
      </trkpt>
      <trkpt lat="43.59454" lon="2.96039">
        <ele>847.8</ele>
        <time>2026-05-07T09:25:19.000Z</time>
      </trkpt>
      <trkpt lat="43.59454" lon="2.9604">
        <ele>847.7</ele>
        <time>2026-05-07T09:25:20.000Z</time>
      </trkpt>
      <trkpt lat="43.59454" lon="2.96041">
        <ele>847.5</ele>
        <time>2026-05-07T09:25:21.000Z</time>
      </trkpt>
      <trkpt lat="43.59453" lon="2.96041">
        <ele>847.1</ele>
        <time>2026-05-07T09:25:22.000Z</time>
      </trkpt>
      <trkpt lat="43.59453" lon="2.96041">
        <ele>846.6</ele>
        <time>2026-05-07T09:25:23.000Z</time>
      </trkpt>
      <trkpt lat="43.59453" lon="2.96041">
        <ele>846.3</ele>
        <time>2026-05-07T09:25:24.000Z</time>
      </trkpt>
      <trkpt lat="43.59452" lon="2.9604">
        <ele>846</ele>
        <time>2026-05-07T09:25:25.000Z</time>
      </trkpt>
      <trkpt lat="43.59452" lon="2.9604">
        <ele>845.8</ele>
        <time>2026-05-07T09:25:26.000Z</time>
      </trkpt>
      <trkpt lat="43.59451" lon="2.96039">
        <ele>845.7</ele>
        <time>2026-05-07T09:25:27.000Z</time>
      </trkpt>
      <trkpt lat="43.5945" lon="2.96038">
        <ele>846.2</ele>
        <time>2026-05-07T09:25:28.000Z</time>
      </trkpt>
      <trkpt lat="43.5945" lon="2.96036">
        <ele>846.6</ele>
        <time>2026-05-07T09:25:29.000Z</time>
      </trkpt>
      <trkpt lat="43.59451" lon="2.96036">
        <ele>845.8</ele>
        <time>2026-05-07T09:25:30.000Z</time>
      </trkpt>
      <trkpt lat="43.59453" lon="2.96036">
        <ele>846.5</ele>
        <time>2026-05-07T09:25:31.000Z</time>
      </trkpt>
      <trkpt lat="43.59453" lon="2.96034">
        <ele>847.2</ele>
        <time>2026-05-07T09:25:32.000Z</time>
      </trkpt>
      <trkpt lat="43.59453" lon="2.96032">
        <ele>847.4</ele>
        <time>2026-05-07T09:25:33.000Z</time>
      </trkpt>
      <trkpt lat="43.59453" lon="2.96031">
        <ele>847.2</ele>
        <time>2026-05-07T09:25:34.000Z</time>
      </trkpt>
      <trkpt lat="43.59454" lon="2.96032">
        <ele>846.7</ele>
        <time>2026-05-07T09:25:35.000Z</time>
      </trkpt>
      <trkpt lat="43.59454" lon="2.96032">
        <ele>846.1</ele>
        <time>2026-05-07T09:25:36.000Z</time>
      </trkpt>
      <trkpt lat="43.59454" lon="2.96031">
        <ele>845.6</ele>
        <time>2026-05-07T09:25:37.000Z</time>
      </trkpt>
      <trkpt lat="43.59455" lon="2.96034">
        <ele>839.7</ele>
        <time>2026-05-07T09:25:39.000Z</time>
      </trkpt>
      <trkpt lat="43.59455" lon="2.96034">
        <ele>840.2</ele>
        <time>2026-05-07T09:25:40.000Z</time>
      </trkpt>
      <trkpt lat="43.59454" lon="2.96034">
        <ele>840.8</ele>
        <time>2026-05-07T09:25:41.000Z</time>
      </trkpt>
      <trkpt lat="43.59454" lon="2.96035">
        <ele>841.2</ele>
        <time>2026-05-07T09:25:42.000Z</time>
      </trkpt>
      <trkpt lat="43.59454" lon="2.96035">
        <ele>841.1</ele>
        <time>2026-05-07T09:25:43.000Z</time>
      </trkpt>
      <trkpt lat="43.59454" lon="2.96034">
        <ele>841.7</ele>
        <time>2026-05-07T09:25:44.000Z</time>
      </trkpt>
      <trkpt lat="43.59454" lon="2.96033">
        <ele>841.7</ele>
        <time>2026-05-07T09:25:45.000Z</time>
      </trkpt>
      <trkpt lat="43.59454" lon="2.96033">
        <ele>842</ele>
        <time>2026-05-07T09:25:46.000Z</time>
      </trkpt>
      <trkpt lat="43.59455" lon="2.96032">
        <ele>842.3</ele>
        <time>2026-05-07T09:25:47.000Z</time>
      </trkpt>
      <trkpt lat="43.59455" lon="2.96033">
        <ele>842.5</ele>
        <time>2026-05-07T09:25:48.000Z</time>
      </trkpt>
      <trkpt lat="43.59455" lon="2.96032">
        <ele>843</ele>
        <time>2026-05-07T09:25:49.000Z</time>
      </trkpt>
      <trkpt lat="43.59456" lon="2.96032">
        <ele>843.3</ele>
        <time>2026-05-07T09:25:50.000Z</time>
      </trkpt>
      <trkpt lat="43.59456" lon="2.96035">
        <ele>843.7</ele>
        <time>2026-05-07T09:25:51.000Z</time>
      </trkpt>
      <trkpt lat="43.59458" lon="2.96035">
        <ele>843.9</ele>
        <time>2026-05-07T09:25:52.000Z</time>
      </trkpt>
      <trkpt lat="43.59459" lon="2.96036">
        <ele>844</ele>
        <time>2026-05-07T09:25:53.000Z</time>
      </trkpt>
      <trkpt lat="43.5946" lon="2.96035">
        <ele>844.7</ele>
        <time>2026-05-07T09:25:54.000Z</time>
      </trkpt>
      <trkpt lat="43.5946" lon="2.96035">
        <ele>845.3</ele>
        <time>2026-05-07T09:25:55.000Z</time>
      </trkpt>
      <trkpt lat="43.59461" lon="2.96036">
        <ele>845.9</ele>
        <time>2026-05-07T09:25:57.000Z</time>
      </trkpt>
      <trkpt lat="43.59461" lon="2.96037">
        <ele>845.9</ele>
        <time>2026-05-07T09:25:58.000Z</time>
      </trkpt>
      <trkpt lat="43.59461" lon="2.96038">
        <ele>845.8</ele>
        <time>2026-05-07T09:25:59.000Z</time>
      </trkpt>
      <trkpt lat="43.59461" lon="2.96038">
        <ele>846.4</ele>
        <time>2026-05-07T09:26:00.000Z</time>
      </trkpt>
      <trkpt lat="43.59462" lon="2.96037">
        <ele>846.3</ele>
        <time>2026-05-07T09:26:01.000Z</time>
      </trkpt>
      <trkpt lat="43.59462" lon="2.96036">
        <ele>846.4</ele>
        <time>2026-05-07T09:26:02.000Z</time>
      </trkpt>
      <trkpt lat="43.59464" lon="2.96035">
        <ele>846.3</ele>
        <time>2026-05-07T09:26:03.000Z</time>
      </trkpt>
      <trkpt lat="43.59464" lon="2.96034">
        <ele>846.2</ele>
        <time>2026-05-07T09:26:04.000Z</time>
      </trkpt>
      <trkpt lat="43.59464" lon="2.96033">
        <ele>846.2</ele>
        <time>2026-05-07T09:26:05.000Z</time>
      </trkpt>
      <trkpt lat="43.59465" lon="2.96033">
        <ele>846.6</ele>
        <time>2026-05-07T09:26:06.000Z</time>
      </trkpt>
      <trkpt lat="43.59466" lon="2.96033">
        <ele>847.2</ele>
        <time>2026-05-07T09:26:07.000Z</time>
      </trkpt>
      <trkpt lat="43.59468" lon="2.96033">
        <ele>847.8</ele>
        <time>2026-05-07T09:26:08.000Z</time>
      </trkpt>
      <trkpt lat="43.59468" lon="2.96032">
        <ele>847.8</ele>
        <time>2026-05-07T09:26:09.000Z</time>
      </trkpt>
      <trkpt lat="43.59469" lon="2.96032">
        <ele>848</ele>
        <time>2026-05-07T09:26:10.000Z</time>
      </trkpt>
      <trkpt lat="43.59469" lon="2.96035">
        <ele>848.7</ele>
        <time>2026-05-07T09:26:11.000Z</time>
      </trkpt>
      <trkpt lat="43.59469" lon="2.96035">
        <ele>849.1</ele>
        <time>2026-05-07T09:26:12.000Z</time>
      </trkpt>
      <trkpt lat="43.5947" lon="2.96035">
        <ele>849.2</ele>
        <time>2026-05-07T09:26:13.000Z</time>
      </trkpt>
      <trkpt lat="43.59469" lon="2.96034">
        <ele>848.7</ele>
        <time>2026-05-07T09:26:14.000Z</time>
      </trkpt>
      <trkpt lat="43.59469" lon="2.96032">
        <ele>848.4</ele>
        <time>2026-05-07T09:26:16.000Z</time>
      </trkpt>
      <trkpt lat="43.59469" lon="2.96031">
        <ele>849.5</ele>
        <time>2026-05-07T09:26:17.000Z</time>
      </trkpt>
      <trkpt lat="43.5947" lon="2.96031">
        <ele>850.1</ele>
        <time>2026-05-07T09:26:18.000Z</time>
      </trkpt>
      <trkpt lat="43.5947" lon="2.96031">
        <ele>850.8</ele>
        <time>2026-05-07T09:26:19.000Z</time>
      </trkpt>
      <trkpt lat="43.5947" lon="2.96031">
        <ele>851.4</ele>
        <time>2026-05-07T09:26:20.000Z</time>
      </trkpt>
      <trkpt lat="43.5947" lon="2.96031">
        <ele>851.7</ele>
        <time>2026-05-07T09:26:21.000Z</time>
      </trkpt>
      <trkpt lat="43.59471" lon="2.96031">
        <ele>852.3</ele>
        <time>2026-05-07T09:26:23.000Z</time>
      </trkpt>
      <trkpt lat="43.59471" lon="2.96032">
        <ele>852.4</ele>
        <time>2026-05-07T09:26:24.000Z</time>
      </trkpt>
      <trkpt lat="43.59472" lon="2.96031">
        <ele>852.8</ele>
        <time>2026-05-07T09:26:25.000Z</time>
      </trkpt>
      <trkpt lat="43.59471" lon="2.96031">
        <ele>853</ele>
        <time>2026-05-07T09:26:26.000Z</time>
      </trkpt>
      <trkpt lat="43.59472" lon="2.96031">
        <ele>853.1</ele>
        <time>2026-05-07T09:26:27.000Z</time>
      </trkpt>
      <trkpt lat="43.59471" lon="2.96031">
        <ele>853.3</ele>
        <time>2026-05-07T09:26:28.000Z</time>
      </trkpt>
      <trkpt lat="43.59472" lon="2.96032">
        <ele>853.4</ele>
        <time>2026-05-07T09:26:29.000Z</time>
      </trkpt>
      <trkpt lat="43.59472" lon="2.96034">
        <ele>853.5</ele>
        <time>2026-05-07T09:26:30.000Z</time>
      </trkpt>
      <trkpt lat="43.59472" lon="2.96035">
        <ele>853.4</ele>
        <time>2026-05-07T09:26:31.000Z</time>
      </trkpt>
      <trkpt lat="43.59472" lon="2.96034">
        <ele>853.7</ele>
        <time>2026-05-07T09:26:32.000Z</time>
      </trkpt>
      <trkpt lat="43.59472" lon="2.96034">
        <ele>853.7</ele>
        <time>2026-05-07T09:26:33.000Z</time>
      </trkpt>
      <trkpt lat="43.59472" lon="2.96034">
        <ele>854</ele>
        <time>2026-05-07T09:26:34.000Z</time>
      </trkpt>
      <trkpt lat="43.59473" lon="2.96034">
        <ele>853.9</ele>
        <time>2026-05-07T09:26:35.000Z</time>
      </trkpt>
      <trkpt lat="43.59472" lon="2.96033">
        <ele>853.7</ele>
        <time>2026-05-07T09:26:36.000Z</time>
      </trkpt>
      <trkpt lat="43.59472" lon="2.96033">
        <ele>853.7</ele>
        <time>2026-05-07T09:26:37.000Z</time>
      </trkpt>
      <trkpt lat="43.59472" lon="2.96032">
        <ele>853.7</ele>
        <time>2026-05-07T09:26:38.000Z</time>
      </trkpt>
      <trkpt lat="43.59472" lon="2.96031">
        <ele>853.7</ele>
        <time>2026-05-07T09:26:39.000Z</time>
      </trkpt>
      <trkpt lat="43.59472" lon="2.9603">
        <ele>853.7</ele>
        <time>2026-05-07T09:26:40.000Z</time>
      </trkpt>
      <trkpt lat="43.59471" lon="2.96029">
        <ele>853.8</ele>
        <time>2026-05-07T09:26:41.000Z</time>
      </trkpt>
      <trkpt lat="43.59471" lon="2.96028">
        <ele>853.7</ele>
        <time>2026-05-07T09:26:42.000Z</time>
      </trkpt>
      <trkpt lat="43.5947" lon="2.96026">
        <ele>853.7</ele>
        <time>2026-05-07T09:26:43.000Z</time>
      </trkpt>
      <trkpt lat="43.5947" lon="2.96025">
        <ele>854.1</ele>
        <time>2026-05-07T09:26:44.000Z</time>
      </trkpt>
      <trkpt lat="43.5947" lon="2.96025">
        <ele>854.3</ele>
        <time>2026-05-07T09:26:45.000Z</time>
      </trkpt>
      <trkpt lat="43.5947" lon="2.96025">
        <ele>854.1</ele>
        <time>2026-05-07T09:26:46.000Z</time>
      </trkpt>
      <trkpt lat="43.5947" lon="2.96025">
        <ele>854</ele>
        <time>2026-05-07T09:26:47.000Z</time>
      </trkpt>
      <trkpt lat="43.59471" lon="2.96026">
        <ele>853.9</ele>
        <time>2026-05-07T09:26:48.000Z</time>
      </trkpt>
      <trkpt lat="43.59472" lon="2.96025">
        <ele>853.8</ele>
        <time>2026-05-07T09:26:49.000Z</time>
      </trkpt>
      <trkpt lat="43.59473" lon="2.96027">
        <ele>853.6</ele>
        <time>2026-05-07T09:26:50.000Z</time>
      </trkpt>
      <trkpt lat="43.59473" lon="2.96029">
        <ele>853.6</ele>
        <time>2026-05-07T09:26:51.000Z</time>
      </trkpt>
      <trkpt lat="43.59472" lon="2.96029">
        <ele>853.4</ele>
        <time>2026-05-07T09:26:52.000Z</time>
      </trkpt>
      <trkpt lat="43.59472" lon="2.96028">
        <ele>853.2</ele>
        <time>2026-05-07T09:26:53.000Z</time>
      </trkpt>
      <trkpt lat="43.59472" lon="2.96027">
        <ele>853.4</ele>
        <time>2026-05-07T09:26:54.000Z</time>
      </trkpt>
      <trkpt lat="43.59472" lon="2.96027">
        <ele>853.8</ele>
        <time>2026-05-07T09:26:55.000Z</time>
      </trkpt>
      <trkpt lat="43.59472" lon="2.96027">
        <ele>854.2</ele>
        <time>2026-05-07T09:26:56.000Z</time>
      </trkpt>
      <trkpt lat="43.59471" lon="2.96026">
        <ele>854.2</ele>
        <time>2026-05-07T09:26:57.000Z</time>
      </trkpt>
      <trkpt lat="43.5947" lon="2.96026">
        <ele>854.1</ele>
        <time>2026-05-07T09:26:58.000Z</time>
      </trkpt>
      <trkpt lat="43.59471" lon="2.96026">
        <ele>854.2</ele>
        <time>2026-05-07T09:26:59.000Z</time>
      </trkpt>
      <trkpt lat="43.59471" lon="2.96025">
        <ele>853.9</ele>
        <time>2026-05-07T09:27:01.000Z</time>
      </trkpt>
      <trkpt lat="43.5947" lon="2.96025">
        <ele>853.7</ele>
        <time>2026-05-07T09:27:02.000Z</time>
      </trkpt>
      <trkpt lat="43.5947" lon="2.96025">
        <ele>853.8</ele>
        <time>2026-05-07T09:27:03.000Z</time>
      </trkpt>
      <trkpt lat="43.5947" lon="2.96024">
        <ele>853.9</ele>
        <time>2026-05-07T09:27:04.000Z</time>
      </trkpt>
      <trkpt lat="43.5947" lon="2.96023">
        <ele>854</ele>
        <time>2026-05-07T09:27:05.000Z</time>
      </trkpt>
      <trkpt lat="43.5947" lon="2.96023">
        <ele>853.9</ele>
        <time>2026-05-07T09:27:06.000Z</time>
      </trkpt>
      <trkpt lat="43.5947" lon="2.96023">
        <ele>853.9</ele>
        <time>2026-05-07T09:27:07.000Z</time>
      </trkpt>
      <trkpt lat="43.59469" lon="2.96023">
        <ele>853.9</ele>
        <time>2026-05-07T09:27:08.000Z</time>
      </trkpt>
      <trkpt lat="43.59469" lon="2.96023">
        <ele>853.9</ele>
        <time>2026-05-07T09:27:09.000Z</time>
      </trkpt>
      <trkpt lat="43.5947" lon="2.96024">
        <ele>853.8</ele>
        <time>2026-05-07T09:27:10.000Z</time>
      </trkpt>
      <trkpt lat="43.5947" lon="2.96024">
        <ele>853.9</ele>
        <time>2026-05-07T09:27:11.000Z</time>
      </trkpt>
      <trkpt lat="43.5947" lon="2.96024">
        <ele>853.7</ele>
        <time>2026-05-07T09:27:12.000Z</time>
      </trkpt>
      <trkpt lat="43.5947" lon="2.96023">
        <ele>853.8</ele>
        <time>2026-05-07T09:27:13.000Z</time>
      </trkpt>
      <trkpt lat="43.5947" lon="2.96023">
        <ele>853.7</ele>
        <time>2026-05-07T09:27:14.000Z</time>
      </trkpt>
      <trkpt lat="43.59469" lon="2.96022">
        <ele>853.8</ele>
        <time>2026-05-07T09:27:15.000Z</time>
      </trkpt>
      <trkpt lat="43.59469" lon="2.96023">
        <ele>853.7</ele>
        <time>2026-05-07T09:27:16.000Z</time>
      </trkpt>
      <trkpt lat="43.59469" lon="2.96023">
        <ele>853.8</ele>
        <time>2026-05-07T09:27:17.000Z</time>
      </trkpt>
      <trkpt lat="43.59469" lon="2.96023">
        <ele>853.9</ele>
        <time>2026-05-07T09:27:18.000Z</time>
      </trkpt>
      <trkpt lat="43.59469" lon="2.96023">
        <ele>853.9</ele>
        <time>2026-05-07T09:27:19.000Z</time>
      </trkpt>
      <trkpt lat="43.59469" lon="2.96023">
        <ele>853.9</ele>
        <time>2026-05-07T09:27:20.000Z</time>
      </trkpt>
      <trkpt lat="43.59469" lon="2.96023">
        <ele>854</ele>
        <time>2026-05-07T09:27:21.000Z</time>
      </trkpt>
      <trkpt lat="43.59469" lon="2.96023">
        <ele>854</ele>
        <time>2026-05-07T09:27:22.000Z</time>
      </trkpt>
      <trkpt lat="43.59469" lon="2.96023">
        <ele>853.9</ele>
        <time>2026-05-07T09:27:23.000Z</time>
      </trkpt>
      <trkpt lat="43.59469" lon="2.96022">
        <ele>853.8</ele>
        <time>2026-05-07T09:27:24.000Z</time>
      </trkpt>
      <trkpt lat="43.59468" lon="2.96022">
        <ele>853.8</ele>
        <time>2026-05-07T09:27:25.000Z</time>
      </trkpt>
      <trkpt lat="43.59468" lon="2.96022">
        <ele>853.8</ele>
        <time>2026-05-07T09:27:26.000Z</time>
      </trkpt>
      <trkpt lat="43.59468" lon="2.96022">
        <ele>853.9</ele>
        <time>2026-05-07T09:27:27.000Z</time>
      </trkpt>
      <trkpt lat="43.59468" lon="2.96022">
        <ele>854.1</ele>
        <time>2026-05-07T09:27:28.000Z</time>
      </trkpt>
      <trkpt lat="43.59468" lon="2.96022">
        <ele>854.3</ele>
        <time>2026-05-07T09:27:29.000Z</time>
      </trkpt>
      <trkpt lat="43.59469" lon="2.96022">
        <ele>854.5</ele>
        <time>2026-05-07T09:27:30.000Z</time>
      </trkpt>
      <trkpt lat="43.59469" lon="2.96022">
        <ele>854.5</ele>
        <time>2026-05-07T09:27:31.000Z</time>
      </trkpt>
      <trkpt lat="43.59469" lon="2.96021">
        <ele>854.7</ele>
        <time>2026-05-07T09:27:33.000Z</time>
      </trkpt>
      <trkpt lat="43.59469" lon="2.96021">
        <ele>854.7</ele>
        <time>2026-05-07T09:27:34.000Z</time>
      </trkpt>
      <trkpt lat="43.59469" lon="2.96021">
        <ele>854.6</ele>
        <time>2026-05-07T09:27:35.000Z</time>
      </trkpt>
      <trkpt lat="43.59469" lon="2.96022">
        <ele>854.5</ele>
        <time>2026-05-07T09:27:36.000Z</time>
      </trkpt>
      <trkpt lat="43.59469" lon="2.96022">
        <ele>854.4</ele>
        <time>2026-05-07T09:27:37.000Z</time>
      </trkpt>
      <trkpt lat="43.59469" lon="2.96021">
        <ele>854.4</ele>
        <time>2026-05-07T09:27:38.000Z</time>
      </trkpt>
      <trkpt lat="43.59468" lon="2.96021">
        <ele>854.3</ele>
        <time>2026-05-07T09:27:39.000Z</time>
      </trkpt>
      <trkpt lat="43.59468" lon="2.9602">
        <ele>854.3</ele>
        <time>2026-05-07T09:27:40.000Z</time>
      </trkpt>
      <trkpt lat="43.59468" lon="2.9602">
        <ele>854.1</ele>
        <time>2026-05-07T09:27:41.000Z</time>
      </trkpt>
      <trkpt lat="43.59468" lon="2.9602">
        <ele>854.4</ele>
        <time>2026-05-07T09:27:42.000Z</time>
      </trkpt>
      <trkpt lat="43.59468" lon="2.9602">
        <ele>854.5</ele>
        <time>2026-05-07T09:27:43.000Z</time>
      </trkpt>
      <trkpt lat="43.59468" lon="2.9602">
        <ele>854.6</ele>
        <time>2026-05-07T09:27:44.000Z</time>
      </trkpt>
      <trkpt lat="43.59468" lon="2.96019">
        <ele>854.7</ele>
        <time>2026-05-07T09:27:45.000Z</time>
      </trkpt>
      <trkpt lat="43.59467" lon="2.96018">
        <ele>854.7</ele>
        <time>2026-05-07T09:27:46.000Z</time>
      </trkpt>
      <trkpt lat="43.59467" lon="2.96019">
        <ele>854.7</ele>
        <time>2026-05-07T09:27:47.000Z</time>
      </trkpt>
      <trkpt lat="43.59467" lon="2.96019">
        <ele>854.6</ele>
        <time>2026-05-07T09:27:48.000Z</time>
      </trkpt>
      <trkpt lat="43.59467" lon="2.96018">
        <ele>854.7</ele>
        <time>2026-05-07T09:27:49.000Z</time>
      </trkpt>
      <trkpt lat="43.59466" lon="2.96018">
        <ele>854.8</ele>
        <time>2026-05-07T09:27:50.000Z</time>
      </trkpt>
      <trkpt lat="43.59466" lon="2.96017">
        <ele>854.8</ele>
        <time>2026-05-07T09:27:51.000Z</time>
      </trkpt>
      <trkpt lat="43.59466" lon="2.96017">
        <ele>854.8</ele>
        <time>2026-05-07T09:27:52.000Z</time>
      </trkpt>
      <trkpt lat="43.59466" lon="2.96017">
        <ele>854.7</ele>
        <time>2026-05-07T09:27:53.000Z</time>
      </trkpt>
      <trkpt lat="43.59466" lon="2.96017">
        <ele>855.1</ele>
        <time>2026-05-07T09:27:54.000Z</time>
      </trkpt>
      <trkpt lat="43.59466" lon="2.96017">
        <ele>855.3</ele>
        <time>2026-05-07T09:27:55.000Z</time>
      </trkpt>
      <trkpt lat="43.59466" lon="2.96017">
        <ele>855.4</ele>
        <time>2026-05-07T09:27:56.000Z</time>
      </trkpt>
      <trkpt lat="43.59466" lon="2.96017">
        <ele>855.4</ele>
        <time>2026-05-07T09:27:57.000Z</time>
      </trkpt>
      <trkpt lat="43.59466" lon="2.96017">
        <ele>855.5</ele>
        <time>2026-05-07T09:27:58.000Z</time>
      </trkpt>
      <trkpt lat="43.59466" lon="2.96018">
        <ele>855.6</ele>
        <time>2026-05-07T09:27:59.000Z</time>
      </trkpt>
      <trkpt lat="43.59467" lon="2.96019">
        <ele>855.6</ele>
        <time>2026-05-07T09:28:00.000Z</time>
      </trkpt>
      <trkpt lat="43.59467" lon="2.9602">
        <ele>855.7</ele>
        <time>2026-05-07T09:28:01.000Z</time>
      </trkpt>
      <trkpt lat="43.59468" lon="2.96022">
        <ele>855.9</ele>
        <time>2026-05-07T09:28:02.000Z</time>
      </trkpt>
      <trkpt lat="43.59469" lon="2.96023">
        <ele>856.1</ele>
        <time>2026-05-07T09:28:03.000Z</time>
      </trkpt>
      <trkpt lat="43.59469" lon="2.96023">
        <ele>856.4</ele>
        <time>2026-05-07T09:28:04.000Z</time>
      </trkpt>
      <trkpt lat="43.59469" lon="2.96023">
        <ele>856.4</ele>
        <time>2026-05-07T09:28:05.000Z</time>
      </trkpt>
      <trkpt lat="43.59469" lon="2.96023">
        <ele>856.5</ele>
        <time>2026-05-07T09:28:06.000Z</time>
      </trkpt>
      <trkpt lat="43.59469" lon="2.96023">
        <ele>856.5</ele>
        <time>2026-05-07T09:28:07.000Z</time>
      </trkpt>
      <trkpt lat="43.59469" lon="2.96023">
        <ele>856.3</ele>
        <time>2026-05-07T09:28:08.000Z</time>
      </trkpt>
      <trkpt lat="43.59469" lon="2.96023">
        <ele>856.2</ele>
        <time>2026-05-07T09:28:09.000Z</time>
      </trkpt>
      <trkpt lat="43.59469" lon="2.96023">
        <ele>856.2</ele>
        <time>2026-05-07T09:28:10.000Z</time>
      </trkpt>
      <trkpt lat="43.59469" lon="2.96023">
        <ele>856.3</ele>
        <time>2026-05-07T09:28:11.000Z</time>
      </trkpt>
      <trkpt lat="43.5947" lon="2.96023">
        <ele>856.2</ele>
        <time>2026-05-07T09:28:12.000Z</time>
      </trkpt>
      <trkpt lat="43.5947" lon="2.96024">
        <ele>855.9</ele>
        <time>2026-05-07T09:28:13.000Z</time>
      </trkpt>
      <trkpt lat="43.5947" lon="2.96024">
        <ele>855.9</ele>
        <time>2026-05-07T09:28:14.000Z</time>
      </trkpt>
      <trkpt lat="43.59471" lon="2.96024">
        <ele>856.1</ele>
        <time>2026-05-07T09:28:16.000Z</time>
      </trkpt>
      <trkpt lat="43.59471" lon="2.96023">
        <ele>856</ele>
        <time>2026-05-07T09:28:17.000Z</time>
      </trkpt>
      <trkpt lat="43.5947" lon="2.96023">
        <ele>856.1</ele>
        <time>2026-05-07T09:28:18.000Z</time>
      </trkpt>
      <trkpt lat="43.5947" lon="2.96023">
        <ele>856.2</ele>
        <time>2026-05-07T09:28:19.000Z</time>
      </trkpt>
      <trkpt lat="43.5947" lon="2.96024">
        <ele>856.3</ele>
        <time>2026-05-07T09:28:20.000Z</time>
      </trkpt>
      <trkpt lat="43.59471" lon="2.96025">
        <ele>856.4</ele>
        <time>2026-05-07T09:28:21.000Z</time>
      </trkpt>
      <trkpt lat="43.59471" lon="2.96026">
        <ele>856.4</ele>
        <time>2026-05-07T09:28:22.000Z</time>
      </trkpt>
      <trkpt lat="43.59472" lon="2.96026">
        <ele>856.2</ele>
        <time>2026-05-07T09:28:23.000Z</time>
      </trkpt>
      <trkpt lat="43.59472" lon="2.96027">
        <ele>855.8</ele>
        <time>2026-05-07T09:28:24.000Z</time>
      </trkpt>
      <trkpt lat="43.59472" lon="2.96026">
        <ele>855.8</ele>
        <time>2026-05-07T09:28:25.000Z</time>
      </trkpt>
      <trkpt lat="43.59472" lon="2.96026">
        <ele>856.5</ele>
        <time>2026-05-07T09:28:26.000Z</time>
      </trkpt>
      <trkpt lat="43.59472" lon="2.96025">
        <ele>857.1</ele>
        <time>2026-05-07T09:28:27.000Z</time>
      </trkpt>
      <trkpt lat="43.59472" lon="2.96026">
        <ele>857.1</ele>
        <time>2026-05-07T09:28:28.000Z</time>
      </trkpt>
      <trkpt lat="43.59472" lon="2.96026">
        <ele>857.2</ele>
        <time>2026-05-07T09:28:29.000Z</time>
      </trkpt>
      <trkpt lat="43.59472" lon="2.96026">
        <ele>857.1</ele>
        <time>2026-05-07T09:28:30.000Z</time>
      </trkpt>
      <trkpt lat="43.59472" lon="2.96026">
        <ele>856.8</ele>
        <time>2026-05-07T09:28:31.000Z</time>
      </trkpt>
      <trkpt lat="43.59472" lon="2.96026">
        <ele>856.7</ele>
        <time>2026-05-07T09:28:32.000Z</time>
      </trkpt>
      <trkpt lat="43.59472" lon="2.96027">
        <ele>856.6</ele>
        <time>2026-05-07T09:28:33.000Z</time>
      </trkpt>
      <trkpt lat="43.59473" lon="2.96027">
        <ele>856.7</ele>
        <time>2026-05-07T09:28:34.000Z</time>
      </trkpt>
      <trkpt lat="43.59474" lon="2.96027">
        <ele>856.7</ele>
        <time>2026-05-07T09:28:35.000Z</time>
      </trkpt>
      <trkpt lat="43.59475" lon="2.96027">
        <ele>856.8</ele>
        <time>2026-05-07T09:28:36.000Z</time>
      </trkpt>
      <trkpt lat="43.59475" lon="2.96027">
        <ele>856.9</ele>
        <time>2026-05-07T09:28:37.000Z</time>
      </trkpt>
      <trkpt lat="43.59475" lon="2.96028">
        <ele>857</ele>
        <time>2026-05-07T09:28:39.000Z</time>
      </trkpt>
      <trkpt lat="43.59475" lon="2.96028">
        <ele>857.1</ele>
        <time>2026-05-07T09:28:40.000Z</time>
      </trkpt>
      <trkpt lat="43.59475" lon="2.96028">
        <ele>857.1</ele>
        <time>2026-05-07T09:28:41.000Z</time>
      </trkpt>
      <trkpt lat="43.59476" lon="2.96028">
        <ele>857.1</ele>
        <time>2026-05-07T09:28:42.000Z</time>
      </trkpt>
      <trkpt lat="43.59476" lon="2.96028">
        <ele>857.2</ele>
        <time>2026-05-07T09:28:43.000Z</time>
      </trkpt>
      <trkpt lat="43.59476" lon="2.96028">
        <ele>857.4</ele>
        <time>2026-05-07T09:28:44.000Z</time>
      </trkpt>
      <trkpt lat="43.59476" lon="2.96028">
        <ele>857.4</ele>
        <time>2026-05-07T09:28:45.000Z</time>
      </trkpt>
      <trkpt lat="43.59476" lon="2.96028">
        <ele>857.4</ele>
        <time>2026-05-07T09:28:46.000Z</time>
      </trkpt>
      <trkpt lat="43.59476" lon="2.96028">
        <ele>857.4</ele>
        <time>2026-05-07T09:28:47.000Z</time>
      </trkpt>
      <trkpt lat="43.59476" lon="2.96028">
        <ele>857.5</ele>
        <time>2026-05-07T09:28:48.000Z</time>
      </trkpt>
      <trkpt lat="43.59476" lon="2.96028">
        <ele>857.8</ele>
        <time>2026-05-07T09:28:49.000Z</time>
      </trkpt>
      <trkpt lat="43.59476" lon="2.96028">
        <ele>857.9</ele>
        <time>2026-05-07T09:28:50.000Z</time>
      </trkpt>
      <trkpt lat="43.59476" lon="2.96028">
        <ele>857.9</ele>
        <time>2026-05-07T09:28:51.000Z</time>
      </trkpt>
      <trkpt lat="43.59476" lon="2.96028">
        <ele>858</ele>
        <time>2026-05-07T09:28:52.000Z</time>
      </trkpt>
      <trkpt lat="43.59476" lon="2.96027">
        <ele>858.1</ele>
        <time>2026-05-07T09:28:54.000Z</time>
      </trkpt>
      <trkpt lat="43.59476" lon="2.96027">
        <ele>857.9</ele>
        <time>2026-05-07T09:28:55.000Z</time>
      </trkpt>
      <trkpt lat="43.59476" lon="2.96026">
        <ele>858</ele>
        <time>2026-05-07T09:28:56.000Z</time>
      </trkpt>
      <trkpt lat="43.59475" lon="2.96027">
        <ele>858.3</ele>
        <time>2026-05-07T09:28:57.000Z</time>
      </trkpt>
      <trkpt lat="43.59475" lon="2.96026">
        <ele>858.8</ele>
        <time>2026-05-07T09:28:58.000Z</time>
      </trkpt>
      <trkpt lat="43.59474" lon="2.96024">
        <ele>858.9</ele>
        <time>2026-05-07T09:28:59.000Z</time>
      </trkpt>
      <trkpt lat="43.59474" lon="2.96022">
        <ele>858.9</ele>
        <time>2026-05-07T09:29:00.000Z</time>
      </trkpt>
      <trkpt lat="43.59474" lon="2.96021">
        <ele>858.8</ele>
        <time>2026-05-07T09:29:01.000Z</time>
      </trkpt>
      <trkpt lat="43.59476" lon="2.96022">
        <ele>858.7</ele>
        <time>2026-05-07T09:29:02.000Z</time>
      </trkpt>
      <trkpt lat="43.59477" lon="2.96024">
        <ele>858.7</ele>
        <time>2026-05-07T09:29:03.000Z</time>
      </trkpt>
      <trkpt lat="43.59478" lon="2.96024">
        <ele>858.6</ele>
        <time>2026-05-07T09:29:04.000Z</time>
      </trkpt>
      <trkpt lat="43.59479" lon="2.96024">
        <ele>858.5</ele>
        <time>2026-05-07T09:29:05.000Z</time>
      </trkpt>
      <trkpt lat="43.5948" lon="2.96025">
        <ele>858.4</ele>
        <time>2026-05-07T09:29:06.000Z</time>
      </trkpt>
      <trkpt lat="43.5948" lon="2.96027">
        <ele>857.3</ele>
        <time>2026-05-07T09:29:07.000Z</time>
      </trkpt>
      <trkpt lat="43.59481" lon="2.96027">
        <ele>854.1</ele>
        <time>2026-05-07T09:29:08.000Z</time>
      </trkpt>
      <trkpt lat="43.59481" lon="2.96027">
        <ele>854</ele>
        <time>2026-05-07T09:29:09.000Z</time>
      </trkpt>
      <trkpt lat="43.59481" lon="2.96027">
        <ele>853.8</ele>
        <time>2026-05-07T09:29:10.000Z</time>
      </trkpt>
      <trkpt lat="43.59481" lon="2.96027">
        <ele>853.7</ele>
        <time>2026-05-07T09:29:11.000Z</time>
      </trkpt>
      <trkpt lat="43.59481" lon="2.96027">
        <ele>853.6</ele>
        <time>2026-05-07T09:29:12.000Z</time>
      </trkpt>
      <trkpt lat="43.59481" lon="2.96028">
        <ele>853.7</ele>
        <time>2026-05-07T09:29:13.000Z</time>
      </trkpt>
      <trkpt lat="43.59481" lon="2.96028">
        <ele>853.9</ele>
        <time>2026-05-07T09:29:14.000Z</time>
      </trkpt>
      <trkpt lat="43.59481" lon="2.96028">
        <ele>854</ele>
        <time>2026-05-07T09:29:15.000Z</time>
      </trkpt>
      <trkpt lat="43.59481" lon="2.9603">
        <ele>854.3</ele>
        <time>2026-05-07T09:29:16.000Z</time>
      </trkpt>
      <trkpt lat="43.59482" lon="2.96032">
        <ele>854.7</ele>
        <time>2026-05-07T09:29:17.000Z</time>
      </trkpt>
      <trkpt lat="43.59482" lon="2.96033">
        <ele>855.1</ele>
        <time>2026-05-07T09:29:18.000Z</time>
      </trkpt>
      <trkpt lat="43.59482" lon="2.96035">
        <ele>855.4</ele>
        <time>2026-05-07T09:29:19.000Z</time>
      </trkpt>
      <trkpt lat="43.59483" lon="2.96036">
        <ele>855.9</ele>
        <time>2026-05-07T09:29:20.000Z</time>
      </trkpt>
      <trkpt lat="43.59484" lon="2.96037">
        <ele>856</ele>
        <time>2026-05-07T09:29:21.000Z</time>
      </trkpt>
      <trkpt lat="43.59483" lon="2.96037">
        <ele>856.5</ele>
        <time>2026-05-07T09:29:22.000Z</time>
      </trkpt>
      <trkpt lat="43.59483" lon="2.96038">
        <ele>856.5</ele>
        <time>2026-05-07T09:29:23.000Z</time>
      </trkpt>
      <trkpt lat="43.59482" lon="2.96038">
        <ele>856.7</ele>
        <time>2026-05-07T09:29:24.000Z</time>
      </trkpt>
      <trkpt lat="43.59481" lon="2.96038">
        <ele>856.9</ele>
        <time>2026-05-07T09:29:25.000Z</time>
      </trkpt>
      <trkpt lat="43.59482" lon="2.96038">
        <ele>857.1</ele>
        <time>2026-05-07T09:29:26.000Z</time>
      </trkpt>
      <trkpt lat="43.59482" lon="2.96037">
        <ele>857.1</ele>
        <time>2026-05-07T09:29:27.000Z</time>
      </trkpt>
      <trkpt lat="43.59483" lon="2.96038">
        <ele>857</ele>
        <time>2026-05-07T09:29:28.000Z</time>
      </trkpt>
      <trkpt lat="43.59483" lon="2.96038">
        <ele>857.2</ele>
        <time>2026-05-07T09:29:29.000Z</time>
      </trkpt>
      <trkpt lat="43.59483" lon="2.96038">
        <ele>857.3</ele>
        <time>2026-05-07T09:29:30.000Z</time>
      </trkpt>
      <trkpt lat="43.59483" lon="2.96038">
        <ele>857.5</ele>
        <time>2026-05-07T09:29:31.000Z</time>
      </trkpt>
      <trkpt lat="43.59482" lon="2.96037">
        <ele>857.7</ele>
        <time>2026-05-07T09:29:32.000Z</time>
      </trkpt>
      <trkpt lat="43.59482" lon="2.96036">
        <ele>856.6</ele>
        <time>2026-05-07T09:29:33.000Z</time>
      </trkpt>
      <trkpt lat="43.59482" lon="2.96036">
        <ele>856.5</ele>
        <time>2026-05-07T09:29:34.000Z</time>
      </trkpt>
      <trkpt lat="43.59482" lon="2.96037">
        <ele>856.7</ele>
        <time>2026-05-07T09:29:36.000Z</time>
      </trkpt>
      <trkpt lat="43.59482" lon="2.96036">
        <ele>856.8</ele>
        <time>2026-05-07T09:29:37.000Z</time>
      </trkpt>
      <trkpt lat="43.59482" lon="2.96037">
        <ele>856.8</ele>
        <time>2026-05-07T09:29:38.000Z</time>
      </trkpt>
      <trkpt lat="43.59481" lon="2.96037">
        <ele>856.9</ele>
        <time>2026-05-07T09:29:39.000Z</time>
      </trkpt>
      <trkpt lat="43.59481" lon="2.96037">
        <ele>856.8</ele>
        <time>2026-05-07T09:29:40.000Z</time>
      </trkpt>
      <trkpt lat="43.59481" lon="2.96037">
        <ele>856.7</ele>
        <time>2026-05-07T09:29:41.000Z</time>
      </trkpt>
      <trkpt lat="43.59481" lon="2.96037">
        <ele>856.8</ele>
        <time>2026-05-07T09:29:42.000Z</time>
      </trkpt>
      <trkpt lat="43.59481" lon="2.96037">
        <ele>856.9</ele>
        <time>2026-05-07T09:29:43.000Z</time>
      </trkpt>
      <trkpt lat="43.59481" lon="2.96037">
        <ele>856.8</ele>
        <time>2026-05-07T09:29:44.000Z</time>
      </trkpt>
      <trkpt lat="43.59481" lon="2.96037">
        <ele>856.7</ele>
        <time>2026-05-07T09:29:45.000Z</time>
      </trkpt>
      <trkpt lat="43.59481" lon="2.96036">
        <ele>856.8</ele>
        <time>2026-05-07T09:29:46.000Z</time>
      </trkpt>
      <trkpt lat="43.59481" lon="2.96035">
        <ele>856.9</ele>
        <time>2026-05-07T09:29:47.000Z</time>
      </trkpt>
      <trkpt lat="43.5948" lon="2.96036">
        <ele>857</ele>
        <time>2026-05-07T09:29:48.000Z</time>
      </trkpt>
      <trkpt lat="43.5948" lon="2.96037">
        <ele>856.8</ele>
        <time>2026-05-07T09:29:49.000Z</time>
      </trkpt>
      <trkpt lat="43.5948" lon="2.96037">
        <ele>856.9</ele>
        <time>2026-05-07T09:29:50.000Z</time>
      </trkpt>
      <trkpt lat="43.59479" lon="2.96036">
        <ele>856.8</ele>
        <time>2026-05-07T09:29:51.000Z</time>
      </trkpt>
      <trkpt lat="43.59479" lon="2.96036">
        <ele>857</ele>
        <time>2026-05-07T09:29:52.000Z</time>
      </trkpt>
      <trkpt lat="43.59479" lon="2.96036">
        <ele>857.1</ele>
        <time>2026-05-07T09:29:53.000Z</time>
      </trkpt>
      <trkpt lat="43.59479" lon="2.96038">
        <ele>857.4</ele>
        <time>2026-05-07T09:29:54.000Z</time>
      </trkpt>
      <trkpt lat="43.59479" lon="2.96039">
        <ele>858.2</ele>
        <time>2026-05-07T09:29:55.000Z</time>
      </trkpt>
      <trkpt lat="43.59479" lon="2.96038">
        <ele>858.6</ele>
        <time>2026-05-07T09:29:56.000Z</time>
      </trkpt>
      <trkpt lat="43.59479" lon="2.96038">
        <ele>858.9</ele>
        <time>2026-05-07T09:29:57.000Z</time>
      </trkpt>
      <trkpt lat="43.59478" lon="2.96036">
        <ele>858.9</ele>
        <time>2026-05-07T09:29:58.000Z</time>
      </trkpt>
      <trkpt lat="43.59478" lon="2.96036">
        <ele>859</ele>
        <time>2026-05-07T09:29:59.000Z</time>
      </trkpt>
      <trkpt lat="43.59477" lon="2.96035">
        <ele>859</ele>
        <time>2026-05-07T09:30:00.000Z</time>
      </trkpt>
      <trkpt lat="43.59477" lon="2.96035">
        <ele>859.2</ele>
        <time>2026-05-07T09:30:01.000Z</time>
      </trkpt>
      <trkpt lat="43.59476" lon="2.96036">
        <ele>859.3</ele>
        <time>2026-05-07T09:30:02.000Z</time>
      </trkpt>
      <trkpt lat="43.59477" lon="2.96036">
        <ele>859.2</ele>
        <time>2026-05-07T09:30:03.000Z</time>
      </trkpt>
      <trkpt lat="43.59477" lon="2.96036">
        <ele>859.1</ele>
        <time>2026-05-07T09:30:04.000Z</time>
      </trkpt>
      <trkpt lat="43.59477" lon="2.96037">
        <ele>859.1</ele>
        <time>2026-05-07T09:30:05.000Z</time>
      </trkpt>
      <trkpt lat="43.59477" lon="2.96037">
        <ele>859</ele>
        <time>2026-05-07T09:30:06.000Z</time>
      </trkpt>
      <trkpt lat="43.59476" lon="2.96037">
        <ele>859</ele>
        <time>2026-05-07T09:30:07.000Z</time>
      </trkpt>
      <trkpt lat="43.59476" lon="2.96037">
        <ele>859.1</ele>
        <time>2026-05-07T09:30:08.000Z</time>
      </trkpt>
      <trkpt lat="43.59476" lon="2.96036">
        <ele>859.2</ele>
        <time>2026-05-07T09:30:09.000Z</time>
      </trkpt>
      <trkpt lat="43.59476" lon="2.96035">
        <ele>859.3</ele>
        <time>2026-05-07T09:30:10.000Z</time>
      </trkpt>
      <trkpt lat="43.59477" lon="2.96034">
        <ele>859.7</ele>
        <time>2026-05-07T09:30:11.000Z</time>
      </trkpt>
      <trkpt lat="43.59479" lon="2.96034">
        <ele>860</ele>
        <time>2026-05-07T09:30:12.000Z</time>
      </trkpt>
      <trkpt lat="43.5948" lon="2.96034">
        <ele>860.1</ele>
        <time>2026-05-07T09:30:13.000Z</time>
      </trkpt>
      <trkpt lat="43.59481" lon="2.96034">
        <ele>860.1</ele>
        <time>2026-05-07T09:30:14.000Z</time>
      </trkpt>
      <trkpt lat="43.59482" lon="2.96035">
        <ele>860.2</ele>
        <time>2026-05-07T09:30:15.000Z</time>
      </trkpt>
      <trkpt lat="43.59482" lon="2.96035">
        <ele>860.4</ele>
        <time>2026-05-07T09:30:16.000Z</time>
      </trkpt>
      <trkpt lat="43.59483" lon="2.96035">
        <ele>860.9</ele>
        <time>2026-05-07T09:30:17.000Z</time>
      </trkpt>
      <trkpt lat="43.59483" lon="2.96036">
        <ele>861.7</ele>
        <time>2026-05-07T09:30:18.000Z</time>
      </trkpt>
      <trkpt lat="43.59483" lon="2.96036">
        <ele>861.7</ele>
        <time>2026-05-07T09:30:19.000Z</time>
      </trkpt>
      <trkpt lat="43.59483" lon="2.96036">
        <ele>861.5</ele>
        <time>2026-05-07T09:30:20.000Z</time>
      </trkpt>
      <trkpt lat="43.59483" lon="2.96036">
        <ele>861.4</ele>
        <time>2026-05-07T09:30:21.000Z</time>
      </trkpt>
      <trkpt lat="43.59483" lon="2.96036">
        <ele>861.4</ele>
        <time>2026-05-07T09:30:22.000Z</time>
      </trkpt>
      <trkpt lat="43.59484" lon="2.96036">
        <ele>861.3</ele>
        <time>2026-05-07T09:30:23.000Z</time>
      </trkpt>
      <trkpt lat="43.59484" lon="2.96036">
        <ele>861.4</ele>
        <time>2026-05-07T09:30:24.000Z</time>
      </trkpt>
      <trkpt lat="43.59483" lon="2.96036">
        <ele>861.4</ele>
        <time>2026-05-07T09:30:25.000Z</time>
      </trkpt>
      <trkpt lat="43.59484" lon="2.96037">
        <ele>861.4</ele>
        <time>2026-05-07T09:30:26.000Z</time>
      </trkpt>
      <trkpt lat="43.59484" lon="2.96037">
        <ele>861.5</ele>
        <time>2026-05-07T09:30:27.000Z</time>
      </trkpt>
      <trkpt lat="43.59485" lon="2.96038">
        <ele>861.6</ele>
        <time>2026-05-07T09:30:28.000Z</time>
      </trkpt>
      <trkpt lat="43.59485" lon="2.96038">
        <ele>861.5</ele>
        <time>2026-05-07T09:30:29.000Z</time>
      </trkpt>
      <trkpt lat="43.59485" lon="2.96038">
        <ele>861.6</ele>
        <time>2026-05-07T09:30:30.000Z</time>
      </trkpt>
      <trkpt lat="43.59485" lon="2.96038">
        <ele>861.6</ele>
        <time>2026-05-07T09:30:31.000Z</time>
      </trkpt>
      <trkpt lat="43.59486" lon="2.96038">
        <ele>861.6</ele>
        <time>2026-05-07T09:30:32.000Z</time>
      </trkpt>
      <trkpt lat="43.59486" lon="2.96038">
        <ele>861.6</ele>
        <time>2026-05-07T09:30:33.000Z</time>
      </trkpt>
      <trkpt lat="43.59486" lon="2.96038">
        <ele>861.6</ele>
        <time>2026-05-07T09:30:34.000Z</time>
      </trkpt>
      <trkpt lat="43.59486" lon="2.96038">
        <ele>861.7</ele>
        <time>2026-05-07T09:30:35.000Z</time>
      </trkpt>
      <trkpt lat="43.59486" lon="2.96039">
        <ele>861.8</ele>
        <time>2026-05-07T09:30:36.000Z</time>
      </trkpt>
      <trkpt lat="43.59486" lon="2.96039">
        <ele>861.8</ele>
        <time>2026-05-07T09:30:37.000Z</time>
      </trkpt>
      <trkpt lat="43.59487" lon="2.9604">
        <ele>861.9</ele>
        <time>2026-05-07T09:30:38.000Z</time>
      </trkpt>
      <trkpt lat="43.59487" lon="2.96041">
        <ele>861.8</ele>
        <time>2026-05-07T09:30:39.000Z</time>
      </trkpt>
      <trkpt lat="43.59487" lon="2.96041">
        <ele>861.9</ele>
        <time>2026-05-07T09:30:40.000Z</time>
      </trkpt>
      <trkpt lat="43.59488" lon="2.96041">
        <ele>861.7</ele>
        <time>2026-05-07T09:30:41.000Z</time>
      </trkpt>
      <trkpt lat="43.59488" lon="2.96041">
        <ele>861.8</ele>
        <time>2026-05-07T09:30:42.000Z</time>
      </trkpt>
      <trkpt lat="43.59488" lon="2.96041">
        <ele>861.8</ele>
        <time>2026-05-07T09:30:43.000Z</time>
      </trkpt>
      <trkpt lat="43.59488" lon="2.96041">
        <ele>862.1</ele>
        <time>2026-05-07T09:30:44.000Z</time>
      </trkpt>
      <trkpt lat="43.59488" lon="2.96042">
        <ele>861.9</ele>
        <time>2026-05-07T09:30:45.000Z</time>
      </trkpt>
      <trkpt lat="43.59487" lon="2.96043">
        <ele>861.9</ele>
        <time>2026-05-07T09:30:46.000Z</time>
      </trkpt>
      <trkpt lat="43.59486" lon="2.96044">
        <ele>861.9</ele>
        <time>2026-05-07T09:30:47.000Z</time>
      </trkpt>
      <trkpt lat="43.59486" lon="2.96045">
        <ele>861.8</ele>
        <time>2026-05-07T09:30:48.000Z</time>
      </trkpt>
      <trkpt lat="43.59486" lon="2.96045">
        <ele>861.9</ele>
        <time>2026-05-07T09:30:49.000Z</time>
      </trkpt>
      <trkpt lat="43.59487" lon="2.96046">
        <ele>862.2</ele>
        <time>2026-05-07T09:30:50.000Z</time>
      </trkpt>
      <trkpt lat="43.59488" lon="2.96046">
        <ele>862.5</ele>
        <time>2026-05-07T09:30:51.000Z</time>
      </trkpt>
      <trkpt lat="43.59488" lon="2.96046">
        <ele>862.4</ele>
        <time>2026-05-07T09:30:52.000Z</time>
      </trkpt>
      <trkpt lat="43.59488" lon="2.96046">
        <ele>863</ele>
        <time>2026-05-07T09:30:53.000Z</time>
      </trkpt>
      <trkpt lat="43.59488" lon="2.96047">
        <ele>863.1</ele>
        <time>2026-05-07T09:30:54.000Z</time>
      </trkpt>
      <trkpt lat="43.59488" lon="2.96047">
        <ele>863.2</ele>
        <time>2026-05-07T09:30:55.000Z</time>
      </trkpt>
      <trkpt lat="43.59489" lon="2.96048">
        <ele>863.3</ele>
        <time>2026-05-07T09:30:56.000Z</time>
      </trkpt>
      <trkpt lat="43.59489" lon="2.96047">
        <ele>863.2</ele>
        <time>2026-05-07T09:30:57.000Z</time>
      </trkpt>
      <trkpt lat="43.59489" lon="2.96046">
        <ele>863.3</ele>
        <time>2026-05-07T09:30:58.000Z</time>
      </trkpt>
      <trkpt lat="43.59489" lon="2.96047">
        <ele>863.5</ele>
        <time>2026-05-07T09:30:59.000Z</time>
      </trkpt>
      <trkpt lat="43.5949" lon="2.96047">
        <ele>863.7</ele>
        <time>2026-05-07T09:31:00.000Z</time>
      </trkpt>
      <trkpt lat="43.5949" lon="2.96048">
        <ele>863.7</ele>
        <time>2026-05-07T09:31:01.000Z</time>
      </trkpt>
      <trkpt lat="43.5949" lon="2.96049">
        <ele>863.9</ele>
        <time>2026-05-07T09:31:02.000Z</time>
      </trkpt>
      <trkpt lat="43.59491" lon="2.96049">
        <ele>863.9</ele>
        <time>2026-05-07T09:31:03.000Z</time>
      </trkpt>
      <trkpt lat="43.59491" lon="2.96048">
        <ele>864</ele>
        <time>2026-05-07T09:31:04.000Z</time>
      </trkpt>
      <trkpt lat="43.59492" lon="2.96048">
        <ele>864.6</ele>
        <time>2026-05-07T09:31:05.000Z</time>
      </trkpt>
      <trkpt lat="43.59492" lon="2.96048">
        <ele>864.7</ele>
        <time>2026-05-07T09:31:06.000Z</time>
      </trkpt>
      <trkpt lat="43.59492" lon="2.96049">
        <ele>864.6</ele>
        <time>2026-05-07T09:31:07.000Z</time>
      </trkpt>
      <trkpt lat="43.59492" lon="2.96048">
        <ele>864.6</ele>
        <time>2026-05-07T09:31:08.000Z</time>
      </trkpt>
      <trkpt lat="43.59492" lon="2.96048">
        <ele>864.6</ele>
        <time>2026-05-07T09:31:09.000Z</time>
      </trkpt>
      <trkpt lat="43.59492" lon="2.96047">
        <ele>864.6</ele>
        <time>2026-05-07T09:31:10.000Z</time>
      </trkpt>
      <trkpt lat="43.59492" lon="2.96047">
        <ele>864.6</ele>
        <time>2026-05-07T09:31:11.000Z</time>
      </trkpt>
      <trkpt lat="43.59493" lon="2.96048">
        <ele>864.5</ele>
        <time>2026-05-07T09:31:13.000Z</time>
      </trkpt>
      <trkpt lat="43.59493" lon="2.96048">
        <ele>864.6</ele>
        <time>2026-05-07T09:31:14.000Z</time>
      </trkpt>
      <trkpt lat="43.59493" lon="2.96048">
        <ele>865</ele>
        <time>2026-05-07T09:31:15.000Z</time>
      </trkpt>
      <trkpt lat="43.59494" lon="2.96048">
        <ele>865.1</ele>
        <time>2026-05-07T09:31:16.000Z</time>
      </trkpt>
      <trkpt lat="43.59494" lon="2.96048">
        <ele>865.2</ele>
        <time>2026-05-07T09:31:17.000Z</time>
      </trkpt>
      <trkpt lat="43.59494" lon="2.96048">
        <ele>865.2</ele>
        <time>2026-05-07T09:31:18.000Z</time>
      </trkpt>
      <trkpt lat="43.59495" lon="2.96047">
        <ele>865.5</ele>
        <time>2026-05-07T09:31:20.000Z</time>
      </trkpt>
      <trkpt lat="43.59495" lon="2.96048">
        <ele>865.2</ele>
        <time>2026-05-07T09:31:21.000Z</time>
      </trkpt>
      <trkpt lat="43.59494" lon="2.96046">
        <ele>865.3</ele>
        <time>2026-05-07T09:31:22.000Z</time>
      </trkpt>
      <trkpt lat="43.59494" lon="2.96046">
        <ele>865.2</ele>
        <time>2026-05-07T09:31:23.000Z</time>
      </trkpt>
      <trkpt lat="43.59494" lon="2.96045">
        <ele>865.1</ele>
        <time>2026-05-07T09:31:24.000Z</time>
      </trkpt>
      <trkpt lat="43.59494" lon="2.96044">
        <ele>865</ele>
        <time>2026-05-07T09:31:25.000Z</time>
      </trkpt>
      <trkpt lat="43.59494" lon="2.96043">
        <ele>865.1</ele>
        <time>2026-05-07T09:31:26.000Z</time>
      </trkpt>
      <trkpt lat="43.59494" lon="2.96043">
        <ele>865.1</ele>
        <time>2026-05-07T09:31:27.000Z</time>
      </trkpt>
      <trkpt lat="43.59495" lon="2.96043">
        <ele>865</ele>
        <time>2026-05-07T09:31:28.000Z</time>
      </trkpt>
      <trkpt lat="43.59495" lon="2.96043">
        <ele>865.6</ele>
        <time>2026-05-07T09:31:29.000Z</time>
      </trkpt>
      <trkpt lat="43.59495" lon="2.96043">
        <ele>865.2</ele>
        <time>2026-05-07T09:31:30.000Z</time>
      </trkpt>
      <trkpt lat="43.59495" lon="2.96043">
        <ele>865.1</ele>
        <time>2026-05-07T09:31:31.000Z</time>
      </trkpt>
      <trkpt lat="43.59495" lon="2.96042">
        <ele>865.3</ele>
        <time>2026-05-07T09:31:32.000Z</time>
      </trkpt>
      <trkpt lat="43.59496" lon="2.96043">
        <ele>865.1</ele>
        <time>2026-05-07T09:31:33.000Z</time>
      </trkpt>
      <trkpt lat="43.59496" lon="2.96043">
        <ele>864.7</ele>
        <time>2026-05-07T09:31:34.000Z</time>
      </trkpt>
      <trkpt lat="43.59496" lon="2.96044">
        <ele>864.4</ele>
        <time>2026-05-07T09:31:35.000Z</time>
      </trkpt>
      <trkpt lat="43.59497" lon="2.96044">
        <ele>864.4</ele>
        <time>2026-05-07T09:31:36.000Z</time>
      </trkpt>
      <trkpt lat="43.59497" lon="2.96046">
        <ele>864.4</ele>
        <time>2026-05-07T09:31:37.000Z</time>
      </trkpt>
      <trkpt lat="43.59498" lon="2.96046">
        <ele>864.5</ele>
        <time>2026-05-07T09:31:38.000Z</time>
      </trkpt>
      <trkpt lat="43.59498" lon="2.96046">
        <ele>864.6</ele>
        <time>2026-05-07T09:31:39.000Z</time>
      </trkpt>
      <trkpt lat="43.59498" lon="2.96046">
        <ele>864.6</ele>
        <time>2026-05-07T09:31:40.000Z</time>
      </trkpt>
      <trkpt lat="43.59497" lon="2.96044">
        <ele>864.5</ele>
        <time>2026-05-07T09:31:42.000Z</time>
      </trkpt>
      <trkpt lat="43.59496" lon="2.96044">
        <ele>864.7</ele>
        <time>2026-05-07T09:31:43.000Z</time>
      </trkpt>
      <trkpt lat="43.59496" lon="2.96044">
        <ele>864.9</ele>
        <time>2026-05-07T09:31:44.000Z</time>
      </trkpt>
      <trkpt lat="43.59496" lon="2.96043">
        <ele>865.1</ele>
        <time>2026-05-07T09:31:45.000Z</time>
      </trkpt>
      <trkpt lat="43.59497" lon="2.96043">
        <ele>864.7</ele>
        <time>2026-05-07T09:31:46.000Z</time>
      </trkpt>
      <trkpt lat="43.59497" lon="2.96043">
        <ele>865.5</ele>
        <time>2026-05-07T09:31:47.000Z</time>
      </trkpt>
      <trkpt lat="43.59497" lon="2.96043">
        <ele>865.5</ele>
        <time>2026-05-07T09:31:48.000Z</time>
      </trkpt>
      <trkpt lat="43.59497" lon="2.96043">
        <ele>865.3</ele>
        <time>2026-05-07T09:31:49.000Z</time>
      </trkpt>
      <trkpt lat="43.59497" lon="2.96044">
        <ele>865.2</ele>
        <time>2026-05-07T09:31:50.000Z</time>
      </trkpt>
      <trkpt lat="43.59497" lon="2.96044">
        <ele>865.2</ele>
        <time>2026-05-07T09:31:51.000Z</time>
      </trkpt>
      <trkpt lat="43.59497" lon="2.96044">
        <ele>865.2</ele>
        <time>2026-05-07T09:31:52.000Z</time>
      </trkpt>
      <trkpt lat="43.59497" lon="2.96044">
        <ele>865.2</ele>
        <time>2026-05-07T09:31:53.000Z</time>
      </trkpt>
      <trkpt lat="43.59497" lon="2.96044">
        <ele>865.3</ele>
        <time>2026-05-07T09:31:54.000Z</time>
      </trkpt>
      <trkpt lat="43.59497" lon="2.96043">
        <ele>865.3</ele>
        <time>2026-05-07T09:31:55.000Z</time>
      </trkpt>
      <trkpt lat="43.59497" lon="2.96042">
        <ele>865.3</ele>
        <time>2026-05-07T09:31:56.000Z</time>
      </trkpt>
      <trkpt lat="43.59497" lon="2.96041">
        <ele>865.6</ele>
        <time>2026-05-07T09:31:57.000Z</time>
      </trkpt>
      <trkpt lat="43.59497" lon="2.96039">
        <ele>866</ele>
        <time>2026-05-07T09:31:58.000Z</time>
      </trkpt>
      <trkpt lat="43.59497" lon="2.96037">
        <ele>866.5</ele>
        <time>2026-05-07T09:31:59.000Z</time>
      </trkpt>
      <trkpt lat="43.59497" lon="2.96036">
        <ele>867</ele>
        <time>2026-05-07T09:32:00.000Z</time>
      </trkpt>
      <trkpt lat="43.59497" lon="2.96036">
        <ele>867.5</ele>
        <time>2026-05-07T09:32:01.000Z</time>
      </trkpt>
      <trkpt lat="43.59497" lon="2.96034">
        <ele>867.8</ele>
        <time>2026-05-07T09:32:02.000Z</time>
      </trkpt>
      <trkpt lat="43.59497" lon="2.96034">
        <ele>867.9</ele>
        <time>2026-05-07T09:32:03.000Z</time>
      </trkpt>
      <trkpt lat="43.59498" lon="2.96034">
        <ele>868.2</ele>
        <time>2026-05-07T09:32:04.000Z</time>
      </trkpt>
      <trkpt lat="43.59498" lon="2.96033">
        <ele>868.4</ele>
        <time>2026-05-07T09:32:05.000Z</time>
      </trkpt>
      <trkpt lat="43.59497" lon="2.96033">
        <ele>868.5</ele>
        <time>2026-05-07T09:32:06.000Z</time>
      </trkpt>
      <trkpt lat="43.59496" lon="2.96034">
        <ele>868.8</ele>
        <time>2026-05-07T09:32:07.000Z</time>
      </trkpt>
      <trkpt lat="43.59496" lon="2.96035">
        <ele>868.1</ele>
        <time>2026-05-07T09:32:08.000Z</time>
      </trkpt>
      <trkpt lat="43.59497" lon="2.96035">
        <ele>867.9</ele>
        <time>2026-05-07T09:32:09.000Z</time>
      </trkpt>
      <trkpt lat="43.59496" lon="2.96035">
        <ele>867.9</ele>
        <time>2026-05-07T09:32:10.000Z</time>
      </trkpt>
      <trkpt lat="43.59495" lon="2.96034">
        <ele>868.3</ele>
        <time>2026-05-07T09:32:11.000Z</time>
      </trkpt>
      <trkpt lat="43.59496" lon="2.96034">
        <ele>868.2</ele>
        <time>2026-05-07T09:32:12.000Z</time>
      </trkpt>
      <trkpt lat="43.59496" lon="2.96034">
        <ele>868</ele>
        <time>2026-05-07T09:32:13.000Z</time>
      </trkpt>
      <trkpt lat="43.59497" lon="2.96033">
        <ele>867.9</ele>
        <time>2026-05-07T09:32:14.000Z</time>
      </trkpt>
      <trkpt lat="43.59497" lon="2.96035">
        <ele>867.3</ele>
        <time>2026-05-07T09:32:15.000Z</time>
      </trkpt>
      <trkpt lat="43.59498" lon="2.96036">
        <ele>867.3</ele>
        <time>2026-05-07T09:32:16.000Z</time>
      </trkpt>
      <trkpt lat="43.59498" lon="2.96036">
        <ele>866.9</ele>
        <time>2026-05-07T09:32:17.000Z</time>
      </trkpt>
      <trkpt lat="43.59498" lon="2.96036">
        <ele>867.3</ele>
        <time>2026-05-07T09:32:18.000Z</time>
      </trkpt>
      <trkpt lat="43.59497" lon="2.96036">
        <ele>867.8</ele>
        <time>2026-05-07T09:32:19.000Z</time>
      </trkpt>
      <trkpt lat="43.59497" lon="2.96035">
        <ele>868</ele>
        <time>2026-05-07T09:32:20.000Z</time>
      </trkpt>
      <trkpt lat="43.59497" lon="2.96035">
        <ele>868.2</ele>
        <time>2026-05-07T09:32:21.000Z</time>
      </trkpt>
      <trkpt lat="43.59497" lon="2.96035">
        <ele>868.4</ele>
        <time>2026-05-07T09:32:22.000Z</time>
      </trkpt>
      <trkpt lat="43.59497" lon="2.96035">
        <ele>868.5</ele>
        <time>2026-05-07T09:32:23.000Z</time>
      </trkpt>
      <trkpt lat="43.59498" lon="2.96035">
        <ele>868.4</ele>
        <time>2026-05-07T09:32:24.000Z</time>
      </trkpt>
      <trkpt lat="43.59498" lon="2.96035">
        <ele>866.7</ele>
        <time>2026-05-07T09:32:25.000Z</time>
      </trkpt>
      <trkpt lat="43.59498" lon="2.96036">
        <ele>866.6</ele>
        <time>2026-05-07T09:32:26.000Z</time>
      </trkpt>
      <trkpt lat="43.59498" lon="2.96036">
        <ele>866.7</ele>
        <time>2026-05-07T09:32:27.000Z</time>
      </trkpt>
      <trkpt lat="43.59498" lon="2.96036">
        <ele>866.7</ele>
        <time>2026-05-07T09:32:28.000Z</time>
      </trkpt>
      <trkpt lat="43.59498" lon="2.96037">
        <ele>866.5</ele>
        <time>2026-05-07T09:32:29.000Z</time>
      </trkpt>
      <trkpt lat="43.59498" lon="2.96036">
        <ele>866.5</ele>
        <time>2026-05-07T09:32:30.000Z</time>
      </trkpt>
      <trkpt lat="43.59499" lon="2.96037">
        <ele>866.4</ele>
        <time>2026-05-07T09:32:32.000Z</time>
      </trkpt>
      <trkpt lat="43.59499" lon="2.96038">
        <ele>866.3</ele>
        <time>2026-05-07T09:32:33.000Z</time>
      </trkpt>
      <trkpt lat="43.59499" lon="2.96039">
        <ele>866.6</ele>
        <time>2026-05-07T09:32:34.000Z</time>
      </trkpt>
      <trkpt lat="43.595" lon="2.9604">
        <ele>866.5</ele>
        <time>2026-05-07T09:32:35.000Z</time>
      </trkpt>
      <trkpt lat="43.59501" lon="2.9604">
        <ele>866.8</ele>
        <time>2026-05-07T09:32:36.000Z</time>
      </trkpt>
      <trkpt lat="43.59501" lon="2.96041">
        <ele>867</ele>
        <time>2026-05-07T09:32:37.000Z</time>
      </trkpt>
      <trkpt lat="43.59501" lon="2.96041">
        <ele>867.1</ele>
        <time>2026-05-07T09:32:38.000Z</time>
      </trkpt>
      <trkpt lat="43.59501" lon="2.96041">
        <ele>865.7</ele>
        <time>2026-05-07T09:32:39.000Z</time>
      </trkpt>
      <trkpt lat="43.59501" lon="2.96041">
        <ele>866.3</ele>
        <time>2026-05-07T09:32:40.000Z</time>
      </trkpt>
      <trkpt lat="43.59502" lon="2.96041">
        <ele>866.5</ele>
        <time>2026-05-07T09:32:41.000Z</time>
      </trkpt>
      <trkpt lat="43.59502" lon="2.96041">
        <ele>866.6</ele>
        <time>2026-05-07T09:32:42.000Z</time>
      </trkpt>
      <trkpt lat="43.59502" lon="2.96041">
        <ele>866.8</ele>
        <time>2026-05-07T09:32:43.000Z</time>
      </trkpt>
      <trkpt lat="43.59502" lon="2.96042">
        <ele>867</ele>
        <time>2026-05-07T09:32:44.000Z</time>
      </trkpt>
      <trkpt lat="43.59502" lon="2.96043">
        <ele>867.1</ele>
        <time>2026-05-07T09:32:45.000Z</time>
      </trkpt>
      <trkpt lat="43.59503" lon="2.96043">
        <ele>867.5</ele>
        <time>2026-05-07T09:32:46.000Z</time>
      </trkpt>
      <trkpt lat="43.59504" lon="2.96044">
        <ele>867.3</ele>
        <time>2026-05-07T09:32:47.000Z</time>
      </trkpt>
      <trkpt lat="43.59504" lon="2.96045">
        <ele>867.4</ele>
        <time>2026-05-07T09:32:48.000Z</time>
      </trkpt>
      <trkpt lat="43.59504" lon="2.96045">
        <ele>867.3</ele>
        <time>2026-05-07T09:32:49.000Z</time>
      </trkpt>
      <trkpt lat="43.59504" lon="2.96046">
        <ele>867.5</ele>
        <time>2026-05-07T09:32:50.000Z</time>
      </trkpt>
      <trkpt lat="43.59505" lon="2.96046">
        <ele>867.4</ele>
        <time>2026-05-07T09:32:51.000Z</time>
      </trkpt>
      <trkpt lat="43.59505" lon="2.96046">
        <ele>867.4</ele>
        <time>2026-05-07T09:32:52.000Z</time>
      </trkpt>
      <trkpt lat="43.59505" lon="2.96046">
        <ele>867.1</ele>
        <time>2026-05-07T09:32:53.000Z</time>
      </trkpt>
      <trkpt lat="43.59505" lon="2.96046">
        <ele>867.4</ele>
        <time>2026-05-07T09:32:54.000Z</time>
      </trkpt>
      <trkpt lat="43.59505" lon="2.96046">
        <ele>867.8</ele>
        <time>2026-05-07T09:32:55.000Z</time>
      </trkpt>
      <trkpt lat="43.59505" lon="2.96047">
        <ele>867.9</ele>
        <time>2026-05-07T09:32:56.000Z</time>
      </trkpt>
      <trkpt lat="43.59506" lon="2.96048">
        <ele>868.2</ele>
        <time>2026-05-07T09:32:57.000Z</time>
      </trkpt>
      <trkpt lat="43.59506" lon="2.96049">
        <ele>868.6</ele>
        <time>2026-05-07T09:32:58.000Z</time>
      </trkpt>
      <trkpt lat="43.59506" lon="2.96051">
        <ele>868.7</ele>
        <time>2026-05-07T09:32:59.000Z</time>
      </trkpt>
      <trkpt lat="43.59507" lon="2.96051">
        <ele>868.9</ele>
        <time>2026-05-07T09:33:00.000Z</time>
      </trkpt>
      <trkpt lat="43.59506" lon="2.9605">
        <ele>869.8</ele>
        <time>2026-05-07T09:33:01.000Z</time>
      </trkpt>
      <trkpt lat="43.59505" lon="2.96049">
        <ele>870.2</ele>
        <time>2026-05-07T09:33:02.000Z</time>
      </trkpt>
      <trkpt lat="43.59505" lon="2.96049">
        <ele>870.5</ele>
        <time>2026-05-07T09:33:03.000Z</time>
      </trkpt>
      <trkpt lat="43.59504" lon="2.9605">
        <ele>870.7</ele>
        <time>2026-05-07T09:33:04.000Z</time>
      </trkpt>
      <trkpt lat="43.59504" lon="2.9605">
        <ele>871</ele>
        <time>2026-05-07T09:33:05.000Z</time>
      </trkpt>
      <trkpt lat="43.59504" lon="2.96051">
        <ele>871.2</ele>
        <time>2026-05-07T09:33:06.000Z</time>
      </trkpt>
      <trkpt lat="43.59504" lon="2.96052">
        <ele>871.5</ele>
        <time>2026-05-07T09:33:07.000Z</time>
      </trkpt>
      <trkpt lat="43.59503" lon="2.96051">
        <ele>872.4</ele>
        <time>2026-05-07T09:33:08.000Z</time>
      </trkpt>
      <trkpt lat="43.59503" lon="2.96049">
        <ele>873</ele>
        <time>2026-05-07T09:33:09.000Z</time>
      </trkpt>
      <trkpt lat="43.59502" lon="2.96047">
        <ele>873.7</ele>
        <time>2026-05-07T09:33:10.000Z</time>
      </trkpt>
      <trkpt lat="43.59502" lon="2.96046">
        <ele>874.1</ele>
        <time>2026-05-07T09:33:11.000Z</time>
      </trkpt>
      <trkpt lat="43.59503" lon="2.96047">
        <ele>873.8</ele>
        <time>2026-05-07T09:33:13.000Z</time>
      </trkpt>
      <trkpt lat="43.59502" lon="2.96047">
        <ele>873.8</ele>
        <time>2026-05-07T09:33:14.000Z</time>
      </trkpt>
      <trkpt lat="43.59502" lon="2.96048">
        <ele>873.9</ele>
        <time>2026-05-07T09:33:15.000Z</time>
      </trkpt>
      <trkpt lat="43.59502" lon="2.96048">
        <ele>875.2</ele>
        <time>2026-05-07T09:33:16.000Z</time>
      </trkpt>
      <trkpt lat="43.59502" lon="2.96048">
        <ele>875.2</ele>
        <time>2026-05-07T09:33:17.000Z</time>
      </trkpt>
      <trkpt lat="43.59504" lon="2.9605">
        <ele>874.9</ele>
        <time>2026-05-07T09:33:18.000Z</time>
      </trkpt>
      <trkpt lat="43.59504" lon="2.9605">
        <ele>875</ele>
        <time>2026-05-07T09:33:19.000Z</time>
      </trkpt>
      <trkpt lat="43.59504" lon="2.9605">
        <ele>875.3</ele>
        <time>2026-05-07T09:33:20.000Z</time>
      </trkpt>
      <trkpt lat="43.59504" lon="2.9605">
        <ele>875.5</ele>
        <time>2026-05-07T09:33:21.000Z</time>
      </trkpt>
      <trkpt lat="43.59505" lon="2.9605">
        <ele>875.6</ele>
        <time>2026-05-07T09:33:22.000Z</time>
      </trkpt>
      <trkpt lat="43.59505" lon="2.9605">
        <ele>875.9</ele>
        <time>2026-05-07T09:33:23.000Z</time>
      </trkpt>
      <trkpt lat="43.59506" lon="2.9605">
        <ele>875.9</ele>
        <time>2026-05-07T09:33:24.000Z</time>
      </trkpt>
      <trkpt lat="43.59506" lon="2.96051">
        <ele>875.9</ele>
        <time>2026-05-07T09:33:25.000Z</time>
      </trkpt>
      <trkpt lat="43.59507" lon="2.96052">
        <ele>875.9</ele>
        <time>2026-05-07T09:33:26.000Z</time>
      </trkpt>
      <trkpt lat="43.59507" lon="2.96051">
        <ele>875.8</ele>
        <time>2026-05-07T09:33:27.000Z</time>
      </trkpt>
      <trkpt lat="43.59508" lon="2.96051">
        <ele>875.6</ele>
        <time>2026-05-07T09:33:28.000Z</time>
      </trkpt>
      <trkpt lat="43.59509" lon="2.96051">
        <ele>875.4</ele>
        <time>2026-05-07T09:33:30.000Z</time>
      </trkpt>
      <trkpt lat="43.59509" lon="2.96051">
        <ele>875.6</ele>
        <time>2026-05-07T09:33:31.000Z</time>
      </trkpt>
      <trkpt lat="43.5951" lon="2.9605">
        <ele>875.9</ele>
        <time>2026-05-07T09:33:32.000Z</time>
      </trkpt>
      <trkpt lat="43.5951" lon="2.96049">
        <ele>876.2</ele>
        <time>2026-05-07T09:33:33.000Z</time>
      </trkpt>
      <trkpt lat="43.59511" lon="2.96049">
        <ele>876.6</ele>
        <time>2026-05-07T09:33:34.000Z</time>
      </trkpt>
      <trkpt lat="43.59511" lon="2.96048">
        <ele>876.9</ele>
        <time>2026-05-07T09:33:35.000Z</time>
      </trkpt>
      <trkpt lat="43.59511" lon="2.96049">
        <ele>877</ele>
        <time>2026-05-07T09:33:36.000Z</time>
      </trkpt>
      <trkpt lat="43.59511" lon="2.96048">
        <ele>877.4</ele>
        <time>2026-05-07T09:33:37.000Z</time>
      </trkpt>
      <trkpt lat="43.59511" lon="2.96048">
        <ele>877.2</ele>
        <time>2026-05-07T09:33:38.000Z</time>
      </trkpt>
      <trkpt lat="43.59511" lon="2.96048">
        <ele>877.1</ele>
        <time>2026-05-07T09:33:39.000Z</time>
      </trkpt>
      <trkpt lat="43.59511" lon="2.96048">
        <ele>877.4</ele>
        <time>2026-05-07T09:33:40.999Z</time>
      </trkpt>
      <trkpt lat="43.59512" lon="2.96047">
        <ele>877.5</ele>
        <time>2026-05-07T09:33:41.999Z</time>
      </trkpt>
      <trkpt lat="43.59512" lon="2.96047">
        <ele>877.7</ele>
        <time>2026-05-07T09:33:42.999Z</time>
      </trkpt>
      <trkpt lat="43.59512" lon="2.96046">
        <ele>877.7</ele>
        <time>2026-05-07T09:33:43.999Z</time>
      </trkpt>
      <trkpt lat="43.59513" lon="2.96046">
        <ele>877.6</ele>
        <time>2026-05-07T09:33:44.999Z</time>
      </trkpt>
      <trkpt lat="43.59513" lon="2.96046">
        <ele>877.5</ele>
        <time>2026-05-07T09:33:45.999Z</time>
      </trkpt>
      <trkpt lat="43.59513" lon="2.96046">
        <ele>877.6</ele>
        <time>2026-05-07T09:33:46.999Z</time>
      </trkpt>
      <trkpt lat="43.59513" lon="2.96045">
        <ele>877.7</ele>
        <time>2026-05-07T09:33:47.999Z</time>
      </trkpt>
      <trkpt lat="43.59512" lon="2.96045">
        <ele>877.9</ele>
        <time>2026-05-07T09:33:48.999Z</time>
      </trkpt>
      <trkpt lat="43.59512" lon="2.96045">
        <ele>877.7</ele>
        <time>2026-05-07T09:33:49.999Z</time>
      </trkpt>
      <trkpt lat="43.59512" lon="2.96045">
        <ele>877.2</ele>
        <time>2026-05-07T09:33:51.999Z</time>
      </trkpt>
      <trkpt lat="43.59512" lon="2.96045">
        <ele>877.4</ele>
        <time>2026-05-07T09:33:52.999Z</time>
      </trkpt>
      <trkpt lat="43.59512" lon="2.96045">
        <ele>877.5</ele>
        <time>2026-05-07T09:33:53.999Z</time>
      </trkpt>
      <trkpt lat="43.59512" lon="2.96044">
        <ele>877.3</ele>
        <time>2026-05-07T09:33:54.999Z</time>
      </trkpt>
      <trkpt lat="43.59512" lon="2.96044">
        <ele>877.4</ele>
        <time>2026-05-07T09:33:55.999Z</time>
      </trkpt>
      <trkpt lat="43.59512" lon="2.96043">
        <ele>877.4</ele>
        <time>2026-05-07T09:33:56.999Z</time>
      </trkpt>
      <trkpt lat="43.59512" lon="2.96043">
        <ele>877.2</ele>
        <time>2026-05-07T09:33:57.999Z</time>
      </trkpt>
      <trkpt lat="43.59512" lon="2.96043">
        <ele>877.1</ele>
        <time>2026-05-07T09:33:58.999Z</time>
      </trkpt>
      <trkpt lat="43.59512" lon="2.96043">
        <ele>877</ele>
        <time>2026-05-07T09:33:59.999Z</time>
      </trkpt>
      <trkpt lat="43.59512" lon="2.96043">
        <ele>877</ele>
        <time>2026-05-07T09:34:00.999Z</time>
      </trkpt>
      <trkpt lat="43.59512" lon="2.96042">
        <ele>877.4</ele>
        <time>2026-05-07T09:34:01.999Z</time>
      </trkpt>
      <trkpt lat="43.59511" lon="2.96042">
        <ele>877.7</ele>
        <time>2026-05-07T09:34:02.999Z</time>
      </trkpt>
      <trkpt lat="43.59511" lon="2.96041">
        <ele>877.5</ele>
        <time>2026-05-07T09:34:03.999Z</time>
      </trkpt>
      <trkpt lat="43.59511" lon="2.9604">
        <ele>877.4</ele>
        <time>2026-05-07T09:34:04.999Z</time>
      </trkpt>
      <trkpt lat="43.59511" lon="2.9604">
        <ele>877.4</ele>
        <time>2026-05-07T09:34:05.999Z</time>
      </trkpt>
      <trkpt lat="43.59512" lon="2.96039">
        <ele>877.7</ele>
        <time>2026-05-07T09:34:06.999Z</time>
      </trkpt>
      <trkpt lat="43.59512" lon="2.96038">
        <ele>878.3</ele>
        <time>2026-05-07T09:34:07.999Z</time>
      </trkpt>
      <trkpt lat="43.59512" lon="2.96037">
        <ele>878.5</ele>
        <time>2026-05-07T09:34:08.999Z</time>
      </trkpt>
      <trkpt lat="43.59512" lon="2.96036">
        <ele>879</ele>
        <time>2026-05-07T09:34:09.999Z</time>
      </trkpt>
      <trkpt lat="43.59512" lon="2.96036">
        <ele>878.9</ele>
        <time>2026-05-07T09:34:10.999Z</time>
      </trkpt>
      <trkpt lat="43.59512" lon="2.96035">
        <ele>878.9</ele>
        <time>2026-05-07T09:34:11.999Z</time>
      </trkpt>
      <trkpt lat="43.59512" lon="2.96036">
        <ele>878.6</ele>
        <time>2026-05-07T09:34:12.999Z</time>
      </trkpt>
      <trkpt lat="43.59512" lon="2.96038">
        <ele>878.4</ele>
        <time>2026-05-07T09:34:13.999Z</time>
      </trkpt>
      <trkpt lat="43.59512" lon="2.96038">
        <ele>878</ele>
        <time>2026-05-07T09:34:14.999Z</time>
      </trkpt>
      <trkpt lat="43.59513" lon="2.96037">
        <ele>877.5</ele>
        <time>2026-05-07T09:34:16.999Z</time>
      </trkpt>
      <trkpt lat="43.59513" lon="2.96037">
        <ele>877.8</ele>
        <time>2026-05-07T09:34:17.999Z</time>
      </trkpt>
      <trkpt lat="43.59513" lon="2.96037">
        <ele>877.9</ele>
        <time>2026-05-07T09:34:18.999Z</time>
      </trkpt>
      <trkpt lat="43.59513" lon="2.96037">
        <ele>877.8</ele>
        <time>2026-05-07T09:34:19.999Z</time>
      </trkpt>
      <trkpt lat="43.59513" lon="2.96036">
        <ele>877.9</ele>
        <time>2026-05-07T09:34:20.999Z</time>
      </trkpt>
      <trkpt lat="43.59514" lon="2.96037">
        <ele>878</ele>
        <time>2026-05-07T09:34:21.999Z</time>
      </trkpt>
      <trkpt lat="43.59514" lon="2.96037">
        <ele>877.9</ele>
        <time>2026-05-07T09:34:22.999Z</time>
      </trkpt>
      <trkpt lat="43.59514" lon="2.96036">
        <ele>878</ele>
        <time>2026-05-07T09:34:23.999Z</time>
      </trkpt>
      <trkpt lat="43.59514" lon="2.96036">
        <ele>877.9</ele>
        <time>2026-05-07T09:34:24.999Z</time>
      </trkpt>
      <trkpt lat="43.59515" lon="2.96036">
        <ele>877.6</ele>
        <time>2026-05-07T09:34:25.999Z</time>
      </trkpt>
      <trkpt lat="43.59516" lon="2.96036">
        <ele>877.6</ele>
        <time>2026-05-07T09:34:26.999Z</time>
      </trkpt>
      <trkpt lat="43.59516" lon="2.96035">
        <ele>877.8</ele>
        <time>2026-05-07T09:34:27.999Z</time>
      </trkpt>
      <trkpt lat="43.59517" lon="2.96035">
        <ele>878</ele>
        <time>2026-05-07T09:34:28.999Z</time>
      </trkpt>
      <trkpt lat="43.59517" lon="2.96035">
        <ele>878</ele>
        <time>2026-05-07T09:34:29.999Z</time>
      </trkpt>
      <trkpt lat="43.59517" lon="2.96035">
        <ele>878.5</ele>
        <time>2026-05-07T09:34:30.999Z</time>
      </trkpt>
      <trkpt lat="43.59517" lon="2.96035">
        <ele>878.5</ele>
        <time>2026-05-07T09:34:31.999Z</time>
      </trkpt>
      <trkpt lat="43.59517" lon="2.96035">
        <ele>878.8</ele>
        <time>2026-05-07T09:34:32.999Z</time>
      </trkpt>
      <trkpt lat="43.59517" lon="2.96037">
        <ele>878.7</ele>
        <time>2026-05-07T09:34:33.999Z</time>
      </trkpt>
      <trkpt lat="43.59517" lon="2.96038">
        <ele>879</ele>
        <time>2026-05-07T09:34:34.999Z</time>
      </trkpt>
      <trkpt lat="43.59517" lon="2.96038">
        <ele>879.5</ele>
        <time>2026-05-07T09:34:35.999Z</time>
      </trkpt>
      <trkpt lat="43.59518" lon="2.96038">
        <ele>880.2</ele>
        <time>2026-05-07T09:34:36.999Z</time>
      </trkpt>
      <trkpt lat="43.59518" lon="2.96038">
        <ele>880.6</ele>
        <time>2026-05-07T09:34:37.999Z</time>
      </trkpt>
      <trkpt lat="43.59517" lon="2.96037">
        <ele>880.9</ele>
        <time>2026-05-07T09:34:38.999Z</time>
      </trkpt>
      <trkpt lat="43.59517" lon="2.96036">
        <ele>881.3</ele>
        <time>2026-05-07T09:34:39.999Z</time>
      </trkpt>
      <trkpt lat="43.59517" lon="2.96037">
        <ele>881.4</ele>
        <time>2026-05-07T09:34:40.999Z</time>
      </trkpt>
      <trkpt lat="43.59517" lon="2.96038">
        <ele>881</ele>
        <time>2026-05-07T09:34:41.999Z</time>
      </trkpt>
      <trkpt lat="43.59517" lon="2.96038">
        <ele>881.4</ele>
        <time>2026-05-07T09:34:42.999Z</time>
      </trkpt>
      <trkpt lat="43.59517" lon="2.96037">
        <ele>882</ele>
        <time>2026-05-07T09:34:43.999Z</time>
      </trkpt>
      <trkpt lat="43.59518" lon="2.96038">
        <ele>882.4</ele>
        <time>2026-05-07T09:34:44.999Z</time>
      </trkpt>
      <trkpt lat="43.59518" lon="2.96038">
        <ele>882.8</ele>
        <time>2026-05-07T09:34:45.999Z</time>
      </trkpt>
      <trkpt lat="43.59518" lon="2.96038">
        <ele>883.1</ele>
        <time>2026-05-07T09:34:46.999Z</time>
      </trkpt>
      <trkpt lat="43.59518" lon="2.96038">
        <ele>882.9</ele>
        <time>2026-05-07T09:34:47.999Z</time>
      </trkpt>
      <trkpt lat="43.59518" lon="2.96037">
        <ele>883.3</ele>
        <time>2026-05-07T09:34:48.999Z</time>
      </trkpt>
      <trkpt lat="43.59519" lon="2.96037">
        <ele>883.3</ele>
        <time>2026-05-07T09:34:49.999Z</time>
      </trkpt>
      <trkpt lat="43.59519" lon="2.96036">
        <ele>883.3</ele>
        <time>2026-05-07T09:34:50.999Z</time>
      </trkpt>
      <trkpt lat="43.5952" lon="2.96035">
        <ele>883.2</ele>
        <time>2026-05-07T09:34:51.999Z</time>
      </trkpt>
      <trkpt lat="43.59521" lon="2.96034">
        <ele>883.2</ele>
        <time>2026-05-07T09:34:52.999Z</time>
      </trkpt>
      <trkpt lat="43.59521" lon="2.96034">
        <ele>882.8</ele>
        <time>2026-05-07T09:34:53.999Z</time>
      </trkpt>
      <trkpt lat="43.59521" lon="2.96033">
        <ele>882.7</ele>
        <time>2026-05-07T09:34:54.999Z</time>
      </trkpt>
      <trkpt lat="43.59522" lon="2.96031">
        <ele>884.1</ele>
        <time>2026-05-07T09:34:55.999Z</time>
      </trkpt>
      <trkpt lat="43.59522" lon="2.9603">
        <ele>884.6</ele>
        <time>2026-05-07T09:34:56.999Z</time>
      </trkpt>
      <trkpt lat="43.59522" lon="2.9603">
        <ele>884.8</ele>
        <time>2026-05-07T09:34:57.999Z</time>
      </trkpt>
      <trkpt lat="43.59522" lon="2.9603">
        <ele>884.7</ele>
        <time>2026-05-07T09:34:58.999Z</time>
      </trkpt>
      <trkpt lat="43.59522" lon="2.9603">
        <ele>884.9</ele>
        <time>2026-05-07T09:34:59.999Z</time>
      </trkpt>
      <trkpt lat="43.59522" lon="2.9603">
        <ele>885</ele>
        <time>2026-05-07T09:35:00.999Z</time>
      </trkpt>
      <trkpt lat="43.59522" lon="2.9603">
        <ele>885.2</ele>
        <time>2026-05-07T09:35:01.999Z</time>
      </trkpt>
      <trkpt lat="43.59523" lon="2.96029">
        <ele>885.4</ele>
        <time>2026-05-07T09:35:02.999Z</time>
      </trkpt>
      <trkpt lat="43.59523" lon="2.96028">
        <ele>886</ele>
        <time>2026-05-07T09:35:03.999Z</time>
      </trkpt>
      <trkpt lat="43.59524" lon="2.96027">
        <ele>886.6</ele>
        <time>2026-05-07T09:35:04.999Z</time>
      </trkpt>
      <trkpt lat="43.59524" lon="2.96026">
        <ele>887</ele>
        <time>2026-05-07T09:35:05.999Z</time>
      </trkpt>
      <trkpt lat="43.59523" lon="2.96025">
        <ele>887.2</ele>
        <time>2026-05-07T09:35:06.999Z</time>
      </trkpt>
      <trkpt lat="43.59524" lon="2.96026">
        <ele>886.7</ele>
        <time>2026-05-07T09:35:07.999Z</time>
      </trkpt>
      <trkpt lat="43.59524" lon="2.96026">
        <ele>886.2</ele>
        <time>2026-05-07T09:35:08.999Z</time>
      </trkpt>
      <trkpt lat="43.59524" lon="2.96026">
        <ele>886.1</ele>
        <time>2026-05-07T09:35:09.999Z</time>
      </trkpt>
      <trkpt lat="43.59525" lon="2.96026">
        <ele>886.3</ele>
        <time>2026-05-07T09:35:10.999Z</time>
      </trkpt>
      <trkpt lat="43.59525" lon="2.96026">
        <ele>886.2</ele>
        <time>2026-05-07T09:35:11.999Z</time>
      </trkpt>
      <trkpt lat="43.59525" lon="2.96026">
        <ele>886</ele>
        <time>2026-05-07T09:35:12.999Z</time>
      </trkpt>
      <trkpt lat="43.59525" lon="2.96025">
        <ele>885.9</ele>
        <time>2026-05-07T09:35:13.999Z</time>
      </trkpt>
      <trkpt lat="43.59525" lon="2.96024">
        <ele>885.5</ele>
        <time>2026-05-07T09:35:14.999Z</time>
      </trkpt>
      <trkpt lat="43.59525" lon="2.96023">
        <ele>885.2</ele>
        <time>2026-05-07T09:35:15.999Z</time>
      </trkpt>
      <trkpt lat="43.59525" lon="2.96023">
        <ele>885.3</ele>
        <time>2026-05-07T09:35:16.999Z</time>
      </trkpt>
      <trkpt lat="43.59525" lon="2.96023">
        <ele>885.1</ele>
        <time>2026-05-07T09:35:17.999Z</time>
      </trkpt>
      <trkpt lat="43.59525" lon="2.96024">
        <ele>885</ele>
        <time>2026-05-07T09:35:18.999Z</time>
      </trkpt>
      <trkpt lat="43.59526" lon="2.96024">
        <ele>885.2</ele>
        <time>2026-05-07T09:35:19.999Z</time>
      </trkpt>
      <trkpt lat="43.59526" lon="2.96024">
        <ele>885.3</ele>
        <time>2026-05-07T09:35:20.999Z</time>
      </trkpt>
      <trkpt lat="43.59526" lon="2.96024">
        <ele>885.3</ele>
        <time>2026-05-07T09:35:21.999Z</time>
      </trkpt>
      <trkpt lat="43.59526" lon="2.96023">
        <ele>885.4</ele>
        <time>2026-05-07T09:35:22.999Z</time>
      </trkpt>
      <trkpt lat="43.59526" lon="2.96023">
        <ele>885.3</ele>
        <time>2026-05-07T09:35:23.999Z</time>
      </trkpt>
      <trkpt lat="43.59526" lon="2.96022">
        <ele>885.1</ele>
        <time>2026-05-07T09:35:24.999Z</time>
      </trkpt>
      <trkpt lat="43.59526" lon="2.96022">
        <ele>885.1</ele>
        <time>2026-05-07T09:35:25.999Z</time>
      </trkpt>
      <trkpt lat="43.59527" lon="2.96022">
        <ele>885.2</ele>
        <time>2026-05-07T09:35:26.999Z</time>
      </trkpt>
      <trkpt lat="43.59527" lon="2.96022">
        <ele>885.3</ele>
        <time>2026-05-07T09:35:27.999Z</time>
      </trkpt>
      <trkpt lat="43.59527" lon="2.96022">
        <ele>885.4</ele>
        <time>2026-05-07T09:35:28.999Z</time>
      </trkpt>
      <trkpt lat="43.59528" lon="2.9602">
        <ele>885.8</ele>
        <time>2026-05-07T09:35:29.999Z</time>
      </trkpt>
      <trkpt lat="43.59528" lon="2.9602">
        <ele>886</ele>
        <time>2026-05-07T09:35:30.999Z</time>
      </trkpt>
      <trkpt lat="43.59528" lon="2.96019">
        <ele>885.8</ele>
        <time>2026-05-07T09:35:31.999Z</time>
      </trkpt>
      <trkpt lat="43.59528" lon="2.96019">
        <ele>885.5</ele>
        <time>2026-05-07T09:35:32.999Z</time>
      </trkpt>
      <trkpt lat="43.59528" lon="2.96019">
        <ele>885.4</ele>
        <time>2026-05-07T09:35:33.999Z</time>
      </trkpt>
      <trkpt lat="43.59528" lon="2.96019">
        <ele>885.1</ele>
        <time>2026-05-07T09:35:34.999Z</time>
      </trkpt>
      <trkpt lat="43.59528" lon="2.96019">
        <ele>884.8</ele>
        <time>2026-05-07T09:35:35.999Z</time>
      </trkpt>
      <trkpt lat="43.59528" lon="2.96019">
        <ele>885.1</ele>
        <time>2026-05-07T09:35:36.999Z</time>
      </trkpt>
      <trkpt lat="43.59528" lon="2.96018">
        <ele>885.3</ele>
        <time>2026-05-07T09:35:37.999Z</time>
      </trkpt>
      <trkpt lat="43.59528" lon="2.96018">
        <ele>886.1</ele>
        <time>2026-05-07T09:35:38.999Z</time>
      </trkpt>
      <trkpt lat="43.59528" lon="2.96018">
        <ele>886.5</ele>
        <time>2026-05-07T09:35:39.999Z</time>
      </trkpt>
      <trkpt lat="43.59528" lon="2.96018">
        <ele>887.2</ele>
        <time>2026-05-07T09:35:40.999Z</time>
      </trkpt>
      <trkpt lat="43.59528" lon="2.96018">
        <ele>887.1</ele>
        <time>2026-05-07T09:35:41.999Z</time>
      </trkpt>
      <trkpt lat="43.59528" lon="2.96017">
        <ele>887.1</ele>
        <time>2026-05-07T09:35:42.999Z</time>
      </trkpt>
      <trkpt lat="43.59528" lon="2.96016">
        <ele>886.7</ele>
        <time>2026-05-07T09:35:43.999Z</time>
      </trkpt>
      <trkpt lat="43.59528" lon="2.96015">
        <ele>886.6</ele>
        <time>2026-05-07T09:35:44.999Z</time>
      </trkpt>
      <trkpt lat="43.59528" lon="2.96015">
        <ele>886.7</ele>
        <time>2026-05-07T09:35:45.999Z</time>
      </trkpt>
      <trkpt lat="43.59528" lon="2.96014">
        <ele>886.5</ele>
        <time>2026-05-07T09:35:46.999Z</time>
      </trkpt>
      <trkpt lat="43.59528" lon="2.96014">
        <ele>886.4</ele>
        <time>2026-05-07T09:35:47.999Z</time>
      </trkpt>
      <trkpt lat="43.59528" lon="2.96014">
        <ele>886.6</ele>
        <time>2026-05-07T09:35:48.999Z</time>
      </trkpt>
      <trkpt lat="43.59528" lon="2.96013">
        <ele>886.6</ele>
        <time>2026-05-07T09:35:49.999Z</time>
      </trkpt>
      <trkpt lat="43.59527" lon="2.96013">
        <ele>886.5</ele>
        <time>2026-05-07T09:35:50.999Z</time>
      </trkpt>
      <trkpt lat="43.59527" lon="2.96012">
        <ele>886.3</ele>
        <time>2026-05-07T09:35:51.999Z</time>
      </trkpt>
      <trkpt lat="43.59527" lon="2.96012">
        <ele>886.2</ele>
        <time>2026-05-07T09:35:52.999Z</time>
      </trkpt>
      <trkpt lat="43.59527" lon="2.96011">
        <ele>886.1</ele>
        <time>2026-05-07T09:35:53.999Z</time>
      </trkpt>
      <trkpt lat="43.59527" lon="2.96011">
        <ele>885.9</ele>
        <time>2026-05-07T09:35:54.999Z</time>
      </trkpt>
      <trkpt lat="43.59527" lon="2.96011">
        <ele>886</ele>
        <time>2026-05-07T09:35:55.999Z</time>
      </trkpt>
      <trkpt lat="43.59528" lon="2.96012">
        <ele>886.1</ele>
        <time>2026-05-07T09:35:56.999Z</time>
      </trkpt>
      <trkpt lat="43.59528" lon="2.96011">
        <ele>886.5</ele>
        <time>2026-05-07T09:35:57.999Z</time>
      </trkpt>
      <trkpt lat="43.59528" lon="2.96012">
        <ele>886.1</ele>
        <time>2026-05-07T09:35:58.999Z</time>
      </trkpt>
      <trkpt lat="43.59527" lon="2.96012">
        <ele>886</ele>
        <time>2026-05-07T09:35:59.999Z</time>
      </trkpt>
      <trkpt lat="43.59527" lon="2.96012">
        <ele>886</ele>
        <time>2026-05-07T09:36:00.999Z</time>
      </trkpt>
      <trkpt lat="43.59527" lon="2.96012">
        <ele>886</ele>
        <time>2026-05-07T09:36:01.999Z</time>
      </trkpt>
      <trkpt lat="43.59527" lon="2.96012">
        <ele>885.6</ele>
        <time>2026-05-07T09:36:02.999Z</time>
      </trkpt>
      <trkpt lat="43.59528" lon="2.96013">
        <ele>885.3</ele>
        <time>2026-05-07T09:36:03.999Z</time>
      </trkpt>
      <trkpt lat="43.59527" lon="2.96013">
        <ele>885.2</ele>
        <time>2026-05-07T09:36:04.999Z</time>
      </trkpt>
      <trkpt lat="43.59527" lon="2.96013">
        <ele>885.5</ele>
        <time>2026-05-07T09:36:05.999Z</time>
      </trkpt>
      <trkpt lat="43.59527" lon="2.96013">
        <ele>885.7</ele>
        <time>2026-05-07T09:36:06.999Z</time>
      </trkpt>
      <trkpt lat="43.59527" lon="2.96013">
        <ele>885.9</ele>
        <time>2026-05-07T09:36:07.999Z</time>
      </trkpt>
      <trkpt lat="43.59527" lon="2.96013">
        <ele>886.1</ele>
        <time>2026-05-07T09:36:08.999Z</time>
      </trkpt>
      <trkpt lat="43.59527" lon="2.96013">
        <ele>886.2</ele>
        <time>2026-05-07T09:36:09.999Z</time>
      </trkpt>
      <trkpt lat="43.59527" lon="2.96013">
        <ele>886.4</ele>
        <time>2026-05-07T09:36:10.999Z</time>
      </trkpt>
      <trkpt lat="43.59527" lon="2.96013">
        <ele>886.9</ele>
        <time>2026-05-07T09:36:11.999Z</time>
      </trkpt>
      <trkpt lat="43.59527" lon="2.96013">
        <ele>887.2</ele>
        <time>2026-05-07T09:36:12.999Z</time>
      </trkpt>
      <trkpt lat="43.59527" lon="2.96013">
        <ele>887.6</ele>
        <time>2026-05-07T09:36:13.999Z</time>
      </trkpt>
      <trkpt lat="43.59527" lon="2.96013">
        <ele>888.2</ele>
        <time>2026-05-07T09:36:14.999Z</time>
      </trkpt>
      <trkpt lat="43.59528" lon="2.96013">
        <ele>888.1</ele>
        <time>2026-05-07T09:36:15.999Z</time>
      </trkpt>
      <trkpt lat="43.59528" lon="2.96012">
        <ele>888.5</ele>
        <time>2026-05-07T09:36:16.999Z</time>
      </trkpt>
      <trkpt lat="43.59528" lon="2.96011">
        <ele>888.3</ele>
        <time>2026-05-07T09:36:17.999Z</time>
      </trkpt>
      <trkpt lat="43.59527" lon="2.9601">
        <ele>887.1</ele>
        <time>2026-05-07T09:36:18.999Z</time>
      </trkpt>
      <trkpt lat="43.59527" lon="2.9601">
        <ele>887.1</ele>
        <time>2026-05-07T09:36:19.999Z</time>
      </trkpt>
      <trkpt lat="43.59527" lon="2.96009">
        <ele>887.2</ele>
        <time>2026-05-07T09:36:20.999Z</time>
      </trkpt>
      <trkpt lat="43.59527" lon="2.96008">
        <ele>887.5</ele>
        <time>2026-05-07T09:36:21.999Z</time>
      </trkpt>
      <trkpt lat="43.59527" lon="2.96006">
        <ele>887.5</ele>
        <time>2026-05-07T09:36:22.999Z</time>
      </trkpt>
      <trkpt lat="43.59528" lon="2.96005">
        <ele>887.6</ele>
        <time>2026-05-07T09:36:23.999Z</time>
      </trkpt>
      <trkpt lat="43.59528" lon="2.96004">
        <ele>887.8</ele>
        <time>2026-05-07T09:36:24.999Z</time>
      </trkpt>
      <trkpt lat="43.59528" lon="2.96004">
        <ele>887.6</ele>
        <time>2026-05-07T09:36:25.999Z</time>
      </trkpt>
      <trkpt lat="43.59528" lon="2.96004">
        <ele>887.6</ele>
        <time>2026-05-07T09:36:26.999Z</time>
      </trkpt>
      <trkpt lat="43.59529" lon="2.96003">
        <ele>887.5</ele>
        <time>2026-05-07T09:36:27.999Z</time>
      </trkpt>
      <trkpt lat="43.5953" lon="2.96003">
        <ele>887.6</ele>
        <time>2026-05-07T09:36:28.999Z</time>
      </trkpt>
      <trkpt lat="43.5953" lon="2.96002">
        <ele>888.3</ele>
        <time>2026-05-07T09:36:29.999Z</time>
      </trkpt>
      <trkpt lat="43.5953" lon="2.96002">
        <ele>888.8</ele>
        <time>2026-05-07T09:36:30.999Z</time>
      </trkpt>
      <trkpt lat="43.59529" lon="2.96002">
        <ele>888.3</ele>
        <time>2026-05-07T09:36:31.999Z</time>
      </trkpt>
      <trkpt lat="43.59529" lon="2.96003">
        <ele>888.1</ele>
        <time>2026-05-07T09:36:32.999Z</time>
      </trkpt>
      <trkpt lat="43.59529" lon="2.96004">
        <ele>888.3</ele>
        <time>2026-05-07T09:36:33.999Z</time>
      </trkpt>
      <trkpt lat="43.5953" lon="2.96005">
        <ele>888.5</ele>
        <time>2026-05-07T09:36:34.999Z</time>
      </trkpt>
      <trkpt lat="43.5953" lon="2.96005">
        <ele>888.4</ele>
        <time>2026-05-07T09:36:35.999Z</time>
      </trkpt>
      <trkpt lat="43.5953" lon="2.96006">
        <ele>888.1</ele>
        <time>2026-05-07T09:36:36.999Z</time>
      </trkpt>
      <trkpt lat="43.5953" lon="2.96005">
        <ele>887.3</ele>
        <time>2026-05-07T09:36:37.999Z</time>
      </trkpt>
      <trkpt lat="43.5953" lon="2.96006">
        <ele>887.9</ele>
        <time>2026-05-07T09:36:38.999Z</time>
      </trkpt>
      <trkpt lat="43.5953" lon="2.96007">
        <ele>888</ele>
        <time>2026-05-07T09:36:39.999Z</time>
      </trkpt>
      <trkpt lat="43.5953" lon="2.96007">
        <ele>888.6</ele>
        <time>2026-05-07T09:36:40.999Z</time>
      </trkpt>
      <trkpt lat="43.5953" lon="2.96006">
        <ele>888.9</ele>
        <time>2026-05-07T09:36:41.999Z</time>
      </trkpt>
      <trkpt lat="43.5953" lon="2.96006">
        <ele>889.4</ele>
        <time>2026-05-07T09:36:42.999Z</time>
      </trkpt>
      <trkpt lat="43.5953" lon="2.96006">
        <ele>889.7</ele>
        <time>2026-05-07T09:36:43.999Z</time>
      </trkpt>
      <trkpt lat="43.5953" lon="2.96006">
        <ele>889.8</ele>
        <time>2026-05-07T09:36:44.999Z</time>
      </trkpt>
      <trkpt lat="43.5953" lon="2.96007">
        <ele>889.9</ele>
        <time>2026-05-07T09:36:45.999Z</time>
      </trkpt>
      <trkpt lat="43.59531" lon="2.96007">
        <ele>890.4</ele>
        <time>2026-05-07T09:36:46.999Z</time>
      </trkpt>
      <trkpt lat="43.59531" lon="2.96007">
        <ele>890.8</ele>
        <time>2026-05-07T09:36:47.999Z</time>
      </trkpt>
      <trkpt lat="43.59531" lon="2.96007">
        <ele>891.1</ele>
        <time>2026-05-07T09:36:48.999Z</time>
      </trkpt>
      <trkpt lat="43.59531" lon="2.96007">
        <ele>891.1</ele>
        <time>2026-05-07T09:36:49.999Z</time>
      </trkpt>
      <trkpt lat="43.59531" lon="2.96007">
        <ele>891.1</ele>
        <time>2026-05-07T09:36:50.999Z</time>
      </trkpt>
      <trkpt lat="43.59531" lon="2.96007">
        <ele>890.9</ele>
        <time>2026-05-07T09:36:51.999Z</time>
      </trkpt>
      <trkpt lat="43.5953" lon="2.96008">
        <ele>890.5</ele>
        <time>2026-05-07T09:36:52.999Z</time>
      </trkpt>
      <trkpt lat="43.59529" lon="2.96009">
        <ele>890.2</ele>
        <time>2026-05-07T09:36:53.999Z</time>
      </trkpt>
      <trkpt lat="43.59529" lon="2.9601">
        <ele>890.1</ele>
        <time>2026-05-07T09:36:54.999Z</time>
      </trkpt>
      <trkpt lat="43.59529" lon="2.96009">
        <ele>890.1</ele>
        <time>2026-05-07T09:36:55.999Z</time>
      </trkpt>
      <trkpt lat="43.59529" lon="2.96009">
        <ele>890.1</ele>
        <time>2026-05-07T09:36:56.999Z</time>
      </trkpt>
      <trkpt lat="43.59528" lon="2.96009">
        <ele>890.3</ele>
        <time>2026-05-07T09:36:57.999Z</time>
      </trkpt>
      <trkpt lat="43.59528" lon="2.9601">
        <ele>891</ele>
        <time>2026-05-07T09:36:58.999Z</time>
      </trkpt>
      <trkpt lat="43.59528" lon="2.9601">
        <ele>891.1</ele>
        <time>2026-05-07T09:36:59.999Z</time>
      </trkpt>
      <trkpt lat="43.59528" lon="2.96011">
        <ele>891</ele>
        <time>2026-05-07T09:37:00.999Z</time>
      </trkpt>
      <trkpt lat="43.59529" lon="2.96011">
        <ele>891.2</ele>
        <time>2026-05-07T09:37:01.999Z</time>
      </trkpt>
      <trkpt lat="43.59529" lon="2.96011">
        <ele>890.2</ele>
        <time>2026-05-07T09:37:02.999Z</time>
      </trkpt>
      <trkpt lat="43.59529" lon="2.96011">
        <ele>890.5</ele>
        <time>2026-05-07T09:37:03.999Z</time>
      </trkpt>
      <trkpt lat="43.59529" lon="2.96011">
        <ele>890.4</ele>
        <time>2026-05-07T09:37:04.999Z</time>
      </trkpt>
      <trkpt lat="43.59529" lon="2.96011">
        <ele>890.5</ele>
        <time>2026-05-07T09:37:05.999Z</time>
      </trkpt>
      <trkpt lat="43.59531" lon="2.96011">
        <ele>890.5</ele>
        <time>2026-05-07T09:37:06.999Z</time>
      </trkpt>
      <trkpt lat="43.59531" lon="2.96012">
        <ele>890.6</ele>
        <time>2026-05-07T09:37:07.999Z</time>
      </trkpt>
      <trkpt lat="43.59532" lon="2.96011">
        <ele>890.9</ele>
        <time>2026-05-07T09:37:08.999Z</time>
      </trkpt>
      <trkpt lat="43.59533" lon="2.9601">
        <ele>891.1</ele>
        <time>2026-05-07T09:37:09.999Z</time>
      </trkpt>
      <trkpt lat="43.59534" lon="2.9601">
        <ele>890.9</ele>
        <time>2026-05-07T09:37:10.999Z</time>
      </trkpt>
      <trkpt lat="43.59534" lon="2.96009">
        <ele>890.5</ele>
        <time>2026-05-07T09:37:11.999Z</time>
      </trkpt>
      <trkpt lat="43.59534" lon="2.96011">
        <ele>891.3</ele>
        <time>2026-05-07T09:37:12.999Z</time>
      </trkpt>
      <trkpt lat="43.59534" lon="2.96012">
        <ele>891.5</ele>
        <time>2026-05-07T09:37:13.999Z</time>
      </trkpt>
      <trkpt lat="43.59535" lon="2.96012">
        <ele>891.6</ele>
        <time>2026-05-07T09:37:14.999Z</time>
      </trkpt>
      <trkpt lat="43.59535" lon="2.96013">
        <ele>891.7</ele>
        <time>2026-05-07T09:37:15.999Z</time>
      </trkpt>
      <trkpt lat="43.59536" lon="2.96013">
        <ele>891.8</ele>
        <time>2026-05-07T09:37:16.999Z</time>
      </trkpt>
      <trkpt lat="43.59536" lon="2.96013">
        <ele>892.3</ele>
        <time>2026-05-07T09:37:17.999Z</time>
      </trkpt>
      <trkpt lat="43.59536" lon="2.96013">
        <ele>892.1</ele>
        <time>2026-05-07T09:37:18.999Z</time>
      </trkpt>
      <trkpt lat="43.59537" lon="2.96013">
        <ele>891.4</ele>
        <time>2026-05-07T09:37:19.999Z</time>
      </trkpt>
      <trkpt lat="43.59537" lon="2.96015">
        <ele>890.4</ele>
        <time>2026-05-07T09:37:20.999Z</time>
      </trkpt>
      <trkpt lat="43.59538" lon="2.96017">
        <ele>889.9</ele>
        <time>2026-05-07T09:37:21.999Z</time>
      </trkpt>
      <trkpt lat="43.59538" lon="2.96018">
        <ele>890</ele>
        <time>2026-05-07T09:37:22.999Z</time>
      </trkpt>
      <trkpt lat="43.59538" lon="2.96018">
        <ele>889.8</ele>
        <time>2026-05-07T09:37:23.999Z</time>
      </trkpt>
      <trkpt lat="43.59539" lon="2.96017">
        <ele>889.2</ele>
        <time>2026-05-07T09:37:24.999Z</time>
      </trkpt>
      <trkpt lat="43.59539" lon="2.96018">
        <ele>889.1</ele>
        <time>2026-05-07T09:37:25.999Z</time>
      </trkpt>
      <trkpt lat="43.59539" lon="2.96017">
        <ele>889</ele>
        <time>2026-05-07T09:37:26.999Z</time>
      </trkpt>
      <trkpt lat="43.59539" lon="2.96018">
        <ele>889</ele>
        <time>2026-05-07T09:37:27.999Z</time>
      </trkpt>
      <trkpt lat="43.59539" lon="2.96016">
        <ele>889.5</ele>
        <time>2026-05-07T09:37:28.999Z</time>
      </trkpt>
      <trkpt lat="43.59538" lon="2.96015">
        <ele>889.8</ele>
        <time>2026-05-07T09:37:29.999Z</time>
      </trkpt>
      <trkpt lat="43.59538" lon="2.96014">
        <ele>890.2</ele>
        <time>2026-05-07T09:37:30.999Z</time>
      </trkpt>
      <trkpt lat="43.59538" lon="2.96013">
        <ele>890.2</ele>
        <time>2026-05-07T09:37:31.999Z</time>
      </trkpt>
      <trkpt lat="43.59538" lon="2.96015">
        <ele>890.1</ele>
        <time>2026-05-07T09:37:32.999Z</time>
      </trkpt>
      <trkpt lat="43.59539" lon="2.96016">
        <ele>890.5</ele>
        <time>2026-05-07T09:37:33.999Z</time>
      </trkpt>
      <trkpt lat="43.59539" lon="2.96017">
        <ele>890.9</ele>
        <time>2026-05-07T09:37:34.999Z</time>
      </trkpt>
      <trkpt lat="43.59539" lon="2.96017">
        <ele>890.6</ele>
        <time>2026-05-07T09:37:35.999Z</time>
      </trkpt>
      <trkpt lat="43.59538" lon="2.96018">
        <ele>890.7</ele>
        <time>2026-05-07T09:37:36.999Z</time>
      </trkpt>
      <trkpt lat="43.59538" lon="2.96018">
        <ele>890.4</ele>
        <time>2026-05-07T09:37:37.999Z</time>
      </trkpt>
      <trkpt lat="43.59538" lon="2.9602">
        <ele>889.7</ele>
        <time>2026-05-07T09:37:38.999Z</time>
      </trkpt>
      <trkpt lat="43.59537" lon="2.96021">
        <ele>889.2</ele>
        <time>2026-05-07T09:37:39.999Z</time>
      </trkpt>
      <trkpt lat="43.59538" lon="2.96021">
        <ele>888.8</ele>
        <time>2026-05-07T09:37:40.999Z</time>
      </trkpt>
      <trkpt lat="43.59537" lon="2.96021">
        <ele>890.8</ele>
        <time>2026-05-07T09:37:41.999Z</time>
      </trkpt>
      <trkpt lat="43.59537" lon="2.9602">
        <ele>891.4</ele>
        <time>2026-05-07T09:37:42.999Z</time>
      </trkpt>
      <trkpt lat="43.59537" lon="2.9602">
        <ele>892</ele>
        <time>2026-05-07T09:37:43.999Z</time>
      </trkpt>
      <trkpt lat="43.59537" lon="2.9602">
        <ele>892.7</ele>
        <time>2026-05-07T09:37:44.999Z</time>
      </trkpt>
      <trkpt lat="43.59537" lon="2.96019">
        <ele>893.2</ele>
        <time>2026-05-07T09:37:45.999Z</time>
      </trkpt>
      <trkpt lat="43.59537" lon="2.96019">
        <ele>893.7</ele>
        <time>2026-05-07T09:37:46.999Z</time>
      </trkpt>
      <trkpt lat="43.59537" lon="2.96018">
        <ele>893.8</ele>
        <time>2026-05-07T09:37:47.999Z</time>
      </trkpt>
      <trkpt lat="43.59536" lon="2.96016">
        <ele>894.1</ele>
        <time>2026-05-07T09:37:48.999Z</time>
      </trkpt>
      <trkpt lat="43.59536" lon="2.96014">
        <ele>894.4</ele>
        <time>2026-05-07T09:37:49.999Z</time>
      </trkpt>
      <trkpt lat="43.59536" lon="2.96011">
        <ele>894.4</ele>
        <time>2026-05-07T09:37:50.999Z</time>
      </trkpt>
      <trkpt lat="43.59537" lon="2.96011">
        <ele>894.8</ele>
        <time>2026-05-07T09:37:51.999Z</time>
      </trkpt>
      <trkpt lat="43.59537" lon="2.9601">
        <ele>894.9</ele>
        <time>2026-05-07T09:37:52.999Z</time>
      </trkpt>
      <trkpt lat="43.59537" lon="2.96009">
        <ele>895.1</ele>
        <time>2026-05-07T09:37:53.999Z</time>
      </trkpt>
      <trkpt lat="43.59537" lon="2.9601">
        <ele>895.5</ele>
        <time>2026-05-07T09:37:54.999Z</time>
      </trkpt>
      <trkpt lat="43.59536" lon="2.96008">
        <ele>896</ele>
        <time>2026-05-07T09:37:55.999Z</time>
      </trkpt>
      <trkpt lat="43.59536" lon="2.96007">
        <ele>896.6</ele>
        <time>2026-05-07T09:37:56.999Z</time>
      </trkpt>
      <trkpt lat="43.59535" lon="2.96005">
        <ele>896.9</ele>
        <time>2026-05-07T09:37:57.999Z</time>
      </trkpt>
      <trkpt lat="43.59536" lon="2.96008">
        <ele>896.5</ele>
        <time>2026-05-07T09:37:58.999Z</time>
      </trkpt>
      <trkpt lat="43.59536" lon="2.96008">
        <ele>896</ele>
        <time>2026-05-07T09:37:59.999Z</time>
      </trkpt>
      <trkpt lat="43.59537" lon="2.96008">
        <ele>895.6</ele>
        <time>2026-05-07T09:38:00.999Z</time>
      </trkpt>
      <trkpt lat="43.59538" lon="2.96008">
        <ele>895.9</ele>
        <time>2026-05-07T09:38:01.999Z</time>
      </trkpt>
      <trkpt lat="43.59539" lon="2.9601">
        <ele>895.9</ele>
        <time>2026-05-07T09:38:02.999Z</time>
      </trkpt>
      <trkpt lat="43.59539" lon="2.96009">
        <ele>896.8</ele>
        <time>2026-05-07T09:38:03.999Z</time>
      </trkpt>
      <trkpt lat="43.59539" lon="2.96007">
        <ele>898</ele>
        <time>2026-05-07T09:38:04.999Z</time>
      </trkpt>
      <trkpt lat="43.5954" lon="2.96009">
        <ele>897.4</ele>
        <time>2026-05-07T09:38:05.999Z</time>
      </trkpt>
      <trkpt lat="43.5954" lon="2.96009">
        <ele>896.9</ele>
        <time>2026-05-07T09:38:06.999Z</time>
      </trkpt>
      <trkpt lat="43.5954" lon="2.9601">
        <ele>896.7</ele>
        <time>2026-05-07T09:38:07.999Z</time>
      </trkpt>
      <trkpt lat="43.59541" lon="2.96011">
        <ele>896</ele>
        <time>2026-05-07T09:38:08.999Z</time>
      </trkpt>
      <trkpt lat="43.59541" lon="2.96013">
        <ele>895.8</ele>
        <time>2026-05-07T09:38:09.999Z</time>
      </trkpt>
      <trkpt lat="43.59541" lon="2.96014">
        <ele>895.3</ele>
        <time>2026-05-07T09:38:10.999Z</time>
      </trkpt>
      <trkpt lat="43.59542" lon="2.96015">
        <ele>895</ele>
        <time>2026-05-07T09:38:11.999Z</time>
      </trkpt>
      <trkpt lat="43.59543" lon="2.96015">
        <ele>895.5</ele>
        <time>2026-05-07T09:38:12.999Z</time>
      </trkpt>
      <trkpt lat="43.59542" lon="2.96015">
        <ele>894.9</ele>
        <time>2026-05-07T09:38:13.999Z</time>
      </trkpt>
      <trkpt lat="43.59542" lon="2.96015">
        <ele>894.5</ele>
        <time>2026-05-07T09:38:14.999Z</time>
      </trkpt>
      <trkpt lat="43.59542" lon="2.96015">
        <ele>893</ele>
        <time>2026-05-07T09:38:15.999Z</time>
      </trkpt>
      <trkpt lat="43.59542" lon="2.96015">
        <ele>893.2</ele>
        <time>2026-05-07T09:38:16.999Z</time>
      </trkpt>
      <trkpt lat="43.59542" lon="2.96015">
        <ele>893.9</ele>
        <time>2026-05-07T09:38:17.999Z</time>
      </trkpt>
      <trkpt lat="43.59542" lon="2.96016">
        <ele>894.2</ele>
        <time>2026-05-07T09:38:18.999Z</time>
      </trkpt>
      <trkpt lat="43.59542" lon="2.96017">
        <ele>894.3</ele>
        <time>2026-05-07T09:38:19.999Z</time>
      </trkpt>
      <trkpt lat="43.59543" lon="2.96018">
        <ele>894.7</ele>
        <time>2026-05-07T09:38:20.999Z</time>
      </trkpt>
      <trkpt lat="43.59543" lon="2.96019">
        <ele>895.3</ele>
        <time>2026-05-07T09:38:21.999Z</time>
      </trkpt>
      <trkpt lat="43.59544" lon="2.96019">
        <ele>895.8</ele>
        <time>2026-05-07T09:38:22.999Z</time>
      </trkpt>
      <trkpt lat="43.59545" lon="2.96019">
        <ele>895.8</ele>
        <time>2026-05-07T09:38:23.999Z</time>
      </trkpt>
      <trkpt lat="43.59545" lon="2.96019">
        <ele>895.9</ele>
        <time>2026-05-07T09:38:24.999Z</time>
      </trkpt>
      <trkpt lat="43.59546" lon="2.96018">
        <ele>895.8</ele>
        <time>2026-05-07T09:38:25.999Z</time>
      </trkpt>
      <trkpt lat="43.59546" lon="2.96018">
        <ele>895.5</ele>
        <time>2026-05-07T09:38:26.999Z</time>
      </trkpt>
      <trkpt lat="43.59546" lon="2.96017">
        <ele>895.4</ele>
        <time>2026-05-07T09:38:27.999Z</time>
      </trkpt>
      <trkpt lat="43.59546" lon="2.96017">
        <ele>895.3</ele>
        <time>2026-05-07T09:38:28.999Z</time>
      </trkpt>
      <trkpt lat="43.59546" lon="2.96018">
        <ele>894.9</ele>
        <time>2026-05-07T09:38:29.999Z</time>
      </trkpt>
      <trkpt lat="43.59546" lon="2.96019">
        <ele>894.9</ele>
        <time>2026-05-07T09:38:30.999Z</time>
      </trkpt>
      <trkpt lat="43.59547" lon="2.96021">
        <ele>894.5</ele>
        <time>2026-05-07T09:38:31.999Z</time>
      </trkpt>
      <trkpt lat="43.59547" lon="2.96022">
        <ele>894.1</ele>
        <time>2026-05-07T09:38:32.999Z</time>
      </trkpt>
      <trkpt lat="43.59548" lon="2.96024">
        <ele>893.5</ele>
        <time>2026-05-07T09:38:33.999Z</time>
      </trkpt>
      <trkpt lat="43.59548" lon="2.96026">
        <ele>893</ele>
        <time>2026-05-07T09:38:35.999Z</time>
      </trkpt>
      <trkpt lat="43.59548" lon="2.96028">
        <ele>892.7</ele>
        <time>2026-05-07T09:38:36.999Z</time>
      </trkpt>
      <trkpt lat="43.59548" lon="2.96029">
        <ele>892.1</ele>
        <time>2026-05-07T09:38:37.999Z</time>
      </trkpt>
      <trkpt lat="43.59548" lon="2.9603">
        <ele>891.3</ele>
        <time>2026-05-07T09:38:38.999Z</time>
      </trkpt>
      <trkpt lat="43.59548" lon="2.96032">
        <ele>891.4</ele>
        <time>2026-05-07T09:38:39.999Z</time>
      </trkpt>
      <trkpt lat="43.59548" lon="2.96033">
        <ele>891.3</ele>
        <time>2026-05-07T09:38:40.999Z</time>
      </trkpt>
      <trkpt lat="43.59548" lon="2.96034">
        <ele>891.1</ele>
        <time>2026-05-07T09:38:41.999Z</time>
      </trkpt>
      <trkpt lat="43.59548" lon="2.96035">
        <ele>891.2</ele>
        <time>2026-05-07T09:38:42.999Z</time>
      </trkpt>
      <trkpt lat="43.59549" lon="2.96035">
        <ele>891.1</ele>
        <time>2026-05-07T09:38:43.999Z</time>
      </trkpt>
      <trkpt lat="43.5955" lon="2.96034">
        <ele>891.8</ele>
        <time>2026-05-07T09:38:44.999Z</time>
      </trkpt>
      <trkpt lat="43.59551" lon="2.96033">
        <ele>892.5</ele>
        <time>2026-05-07T09:38:45.999Z</time>
      </trkpt>
      <trkpt lat="43.59551" lon="2.96032">
        <ele>892.5</ele>
        <time>2026-05-07T09:38:46.999Z</time>
      </trkpt>
      <trkpt lat="43.59552" lon="2.96031">
        <ele>892.4</ele>
        <time>2026-05-07T09:38:47.999Z</time>
      </trkpt>
      <trkpt lat="43.59552" lon="2.9603">
        <ele>892</ele>
        <time>2026-05-07T09:38:48.999Z</time>
      </trkpt>
      <trkpt lat="43.59552" lon="2.96029">
        <ele>891.5</ele>
        <time>2026-05-07T09:38:49.999Z</time>
      </trkpt>
      <trkpt lat="43.59552" lon="2.96028">
        <ele>891.7</ele>
        <time>2026-05-07T09:38:50.999Z</time>
      </trkpt>
      <trkpt lat="43.59553" lon="2.96027">
        <ele>891.7</ele>
        <time>2026-05-07T09:38:51.999Z</time>
      </trkpt>
      <trkpt lat="43.59553" lon="2.96026">
        <ele>891.7</ele>
        <time>2026-05-07T09:38:52.999Z</time>
      </trkpt>
      <trkpt lat="43.59553" lon="2.96027">
        <ele>891.3</ele>
        <time>2026-05-07T09:38:53.999Z</time>
      </trkpt>
      <trkpt lat="43.59553" lon="2.96026">
        <ele>891.4</ele>
        <time>2026-05-07T09:38:54.999Z</time>
      </trkpt>
      <trkpt lat="43.59553" lon="2.96026">
        <ele>891</ele>
        <time>2026-05-07T09:38:55.999Z</time>
      </trkpt>
      <trkpt lat="43.59553" lon="2.96025">
        <ele>891.1</ele>
        <time>2026-05-07T09:38:56.999Z</time>
      </trkpt>
      <trkpt lat="43.59554" lon="2.96025">
        <ele>890.9</ele>
        <time>2026-05-07T09:38:57.999Z</time>
      </trkpt>
      <trkpt lat="43.59554" lon="2.96024">
        <ele>890.7</ele>
        <time>2026-05-07T09:38:59.999Z</time>
      </trkpt>
      <trkpt lat="43.59554" lon="2.96024">
        <ele>891</ele>
        <time>2026-05-07T09:39:00.999Z</time>
      </trkpt>
      <trkpt lat="43.59555" lon="2.96025">
        <ele>890.7</ele>
        <time>2026-05-07T09:39:01.999Z</time>
      </trkpt>
      <trkpt lat="43.59555" lon="2.96026">
        <ele>890.5</ele>
        <time>2026-05-07T09:39:02.999Z</time>
      </trkpt>
      <trkpt lat="43.59555" lon="2.96027">
        <ele>891.1</ele>
        <time>2026-05-07T09:39:03.999Z</time>
      </trkpt>
      <trkpt lat="43.59554" lon="2.96028">
        <ele>891.4</ele>
        <time>2026-05-07T09:39:04.999Z</time>
      </trkpt>
      <trkpt lat="43.59554" lon="2.96028">
        <ele>891.8</ele>
        <time>2026-05-07T09:39:05.999Z</time>
      </trkpt>
      <trkpt lat="43.59553" lon="2.96027">
        <ele>892</ele>
        <time>2026-05-07T09:39:06.999Z</time>
      </trkpt>
      <trkpt lat="43.59553" lon="2.96026">
        <ele>892.6</ele>
        <time>2026-05-07T09:39:07.999Z</time>
      </trkpt>
      <trkpt lat="43.59553" lon="2.96025">
        <ele>892.5</ele>
        <time>2026-05-07T09:39:08.999Z</time>
      </trkpt>
      <trkpt lat="43.59553" lon="2.96025">
        <ele>892.3</ele>
        <time>2026-05-07T09:39:09.999Z</time>
      </trkpt>
      <trkpt lat="43.59554" lon="2.96024">
        <ele>892.5</ele>
        <time>2026-05-07T09:39:10.999Z</time>
      </trkpt>
      <trkpt lat="43.59553" lon="2.96024">
        <ele>892.6</ele>
        <time>2026-05-07T09:39:11.999Z</time>
      </trkpt>
      <trkpt lat="43.59553" lon="2.96024">
        <ele>892.8</ele>
        <time>2026-05-07T09:39:12.999Z</time>
      </trkpt>
      <trkpt lat="43.59553" lon="2.96024">
        <ele>893.3</ele>
        <time>2026-05-07T09:39:13.999Z</time>
      </trkpt>
      <trkpt lat="43.59553" lon="2.96024">
        <ele>893.4</ele>
        <time>2026-05-07T09:39:14.999Z</time>
      </trkpt>
      <trkpt lat="43.59554" lon="2.96024">
        <ele>894.5</ele>
        <time>2026-05-07T09:39:15.999Z</time>
      </trkpt>
      <trkpt lat="43.59553" lon="2.96024">
        <ele>894.6</ele>
        <time>2026-05-07T09:39:16.999Z</time>
      </trkpt>
      <trkpt lat="43.59554" lon="2.96023">
        <ele>894.9</ele>
        <time>2026-05-07T09:39:17.999Z</time>
      </trkpt>
      <trkpt lat="43.59553" lon="2.96022">
        <ele>894.5</ele>
        <time>2026-05-07T09:39:18.999Z</time>
      </trkpt>
      <trkpt lat="43.59553" lon="2.96022">
        <ele>894.4</ele>
        <time>2026-05-07T09:39:19.999Z</time>
      </trkpt>
      <trkpt lat="43.59553" lon="2.96022">
        <ele>894.5</ele>
        <time>2026-05-07T09:39:20.999Z</time>
      </trkpt>
      <trkpt lat="43.59553" lon="2.96023">
        <ele>894.5</ele>
        <time>2026-05-07T09:39:21.999Z</time>
      </trkpt>
      <trkpt lat="43.59553" lon="2.96023">
        <ele>894.5</ele>
        <time>2026-05-07T09:39:22.999Z</time>
      </trkpt>
      <trkpt lat="43.59554" lon="2.96022">
        <ele>894.9</ele>
        <time>2026-05-07T09:39:24.999Z</time>
      </trkpt>
      <trkpt lat="43.59554" lon="2.96022">
        <ele>895</ele>
        <time>2026-05-07T09:39:25.999Z</time>
      </trkpt>
      <trkpt lat="43.59554" lon="2.96021">
        <ele>894.9</ele>
        <time>2026-05-07T09:39:26.999Z</time>
      </trkpt>
      <trkpt lat="43.59555" lon="2.96021">
        <ele>895.1</ele>
        <time>2026-05-07T09:39:27.999Z</time>
      </trkpt>
      <trkpt lat="43.59555" lon="2.96021">
        <ele>895.5</ele>
        <time>2026-05-07T09:39:28.999Z</time>
      </trkpt>
      <trkpt lat="43.59555" lon="2.96021">
        <ele>895.5</ele>
        <time>2026-05-07T09:39:29.999Z</time>
      </trkpt>
      <trkpt lat="43.59555" lon="2.96021">
        <ele>895.4</ele>
        <time>2026-05-07T09:39:30.999Z</time>
      </trkpt>
      <trkpt lat="43.59555" lon="2.96021">
        <ele>895.5</ele>
        <time>2026-05-07T09:39:31.999Z</time>
      </trkpt>
      <trkpt lat="43.59555" lon="2.96021">
        <ele>895.4</ele>
        <time>2026-05-07T09:39:32.999Z</time>
      </trkpt>
      <trkpt lat="43.59556" lon="2.96021">
        <ele>895.3</ele>
        <time>2026-05-07T09:39:33.999Z</time>
      </trkpt>
      <trkpt lat="43.59555" lon="2.96021">
        <ele>895.5</ele>
        <time>2026-05-07T09:39:34.999Z</time>
      </trkpt>
      <trkpt lat="43.59555" lon="2.96018">
        <ele>895.6</ele>
        <time>2026-05-07T09:39:35.999Z</time>
      </trkpt>
      <trkpt lat="43.59555" lon="2.96017">
        <ele>895.9</ele>
        <time>2026-05-07T09:39:36.999Z</time>
      </trkpt>
      <trkpt lat="43.59554" lon="2.96018">
        <ele>896.2</ele>
        <time>2026-05-07T09:39:37.999Z</time>
      </trkpt>
      <trkpt lat="43.59554" lon="2.96019">
        <ele>896.3</ele>
        <time>2026-05-07T09:39:38.999Z</time>
      </trkpt>
      <trkpt lat="43.59553" lon="2.9602">
        <ele>896.5</ele>
        <time>2026-05-07T09:39:39.999Z</time>
      </trkpt>
      <trkpt lat="43.59553" lon="2.9602">
        <ele>896.4</ele>
        <time>2026-05-07T09:39:40.999Z</time>
      </trkpt>
      <trkpt lat="43.59553" lon="2.9602">
        <ele>896.6</ele>
        <time>2026-05-07T09:39:41.999Z</time>
      </trkpt>
      <trkpt lat="43.59553" lon="2.9602">
        <ele>896.8</ele>
        <time>2026-05-07T09:39:42.999Z</time>
      </trkpt>
      <trkpt lat="43.59553" lon="2.96019">
        <ele>896.9</ele>
        <time>2026-05-07T09:39:43.999Z</time>
      </trkpt>
      <trkpt lat="43.59554" lon="2.96019">
        <ele>897.1</ele>
        <time>2026-05-07T09:39:44.999Z</time>
      </trkpt>
      <trkpt lat="43.59554" lon="2.96019">
        <ele>897.1</ele>
        <time>2026-05-07T09:39:45.999Z</time>
      </trkpt>
      <trkpt lat="43.59555" lon="2.96019">
        <ele>897</ele>
        <time>2026-05-07T09:39:46.999Z</time>
      </trkpt>
      <trkpt lat="43.59555" lon="2.9602">
        <ele>897</ele>
        <time>2026-05-07T09:39:47.999Z</time>
      </trkpt>
      <trkpt lat="43.59556" lon="2.96022">
        <ele>896.9</ele>
        <time>2026-05-07T09:39:49.999Z</time>
      </trkpt>
      <trkpt lat="43.59556" lon="2.96022">
        <ele>896.8</ele>
        <time>2026-05-07T09:39:50.999Z</time>
      </trkpt>
      <trkpt lat="43.59556" lon="2.96022">
        <ele>896.7</ele>
        <time>2026-05-07T09:39:51.999Z</time>
      </trkpt>
      <trkpt lat="43.59556" lon="2.96022">
        <ele>896.6</ele>
        <time>2026-05-07T09:39:52.999Z</time>
      </trkpt>
      <trkpt lat="43.59557" lon="2.96021">
        <ele>896.6</ele>
        <time>2026-05-07T09:39:53.999Z</time>
      </trkpt>
      <trkpt lat="43.59557" lon="2.9602">
        <ele>896.6</ele>
        <time>2026-05-07T09:39:54.999Z</time>
      </trkpt>
      <trkpt lat="43.59556" lon="2.96019">
        <ele>896.6</ele>
        <time>2026-05-07T09:39:56.999Z</time>
      </trkpt>
      <trkpt lat="43.59556" lon="2.96018">
        <ele>896.9</ele>
        <time>2026-05-07T09:39:57.999Z</time>
      </trkpt>
      <trkpt lat="43.59556" lon="2.96018">
        <ele>896.9</ele>
        <time>2026-05-07T09:39:58.999Z</time>
      </trkpt>
      <trkpt lat="43.59556" lon="2.96017">
        <ele>897</ele>
        <time>2026-05-07T09:39:59.999Z</time>
      </trkpt>
      <trkpt lat="43.59555" lon="2.96016">
        <ele>897.1</ele>
        <time>2026-05-07T09:40:00.999Z</time>
      </trkpt>
      <trkpt lat="43.59554" lon="2.96016">
        <ele>897.3</ele>
        <time>2026-05-07T09:40:01.999Z</time>
      </trkpt>
      <trkpt lat="43.59555" lon="2.96016">
        <ele>897.3</ele>
        <time>2026-05-07T09:40:02.999Z</time>
      </trkpt>
      <trkpt lat="43.59556" lon="2.96017">
        <ele>897.2</ele>
        <time>2026-05-07T09:40:03.999Z</time>
      </trkpt>
      <trkpt lat="43.59557" lon="2.96017">
        <ele>897.1</ele>
        <time>2026-05-07T09:40:04.999Z</time>
      </trkpt>
      <trkpt lat="43.59558" lon="2.96018">
        <ele>896.1</ele>
        <time>2026-05-07T09:40:05.999Z</time>
      </trkpt>
      <trkpt lat="43.59558" lon="2.96017">
        <ele>896.4</ele>
        <time>2026-05-07T09:40:06.999Z</time>
      </trkpt>
      <trkpt lat="43.59559" lon="2.96017">
        <ele>896.6</ele>
        <time>2026-05-07T09:40:07.999Z</time>
      </trkpt>
      <trkpt lat="43.59558" lon="2.96017">
        <ele>896.6</ele>
        <time>2026-05-07T09:40:08.999Z</time>
      </trkpt>
      <trkpt lat="43.59558" lon="2.96016">
        <ele>897</ele>
        <time>2026-05-07T09:40:09.999Z</time>
      </trkpt>
      <trkpt lat="43.59558" lon="2.96015">
        <ele>897.2</ele>
        <time>2026-05-07T09:40:10.999Z</time>
      </trkpt>
      <trkpt lat="43.59558" lon="2.96015">
        <ele>897</ele>
        <time>2026-05-07T09:40:11.999Z</time>
      </trkpt>
      <trkpt lat="43.59558" lon="2.96015">
        <ele>897.9</ele>
        <time>2026-05-07T09:40:12.999Z</time>
      </trkpt>
      <trkpt lat="43.59558" lon="2.96015">
        <ele>897.8</ele>
        <time>2026-05-07T09:40:13.999Z</time>
      </trkpt>
      <trkpt lat="43.59559" lon="2.96016">
        <ele>897.5</ele>
        <time>2026-05-07T09:40:14.999Z</time>
      </trkpt>
      <trkpt lat="43.5956" lon="2.96018">
        <ele>897.5</ele>
        <time>2026-05-07T09:40:15.999Z</time>
      </trkpt>
      <trkpt lat="43.5956" lon="2.96018">
        <ele>897.4</ele>
        <time>2026-05-07T09:40:16.999Z</time>
      </trkpt>
      <trkpt lat="43.5956" lon="2.96019">
        <ele>897.4</ele>
        <time>2026-05-07T09:40:17.999Z</time>
      </trkpt>
      <trkpt lat="43.59561" lon="2.96019">
        <ele>897.3</ele>
        <time>2026-05-07T09:40:18.999Z</time>
      </trkpt>
      <trkpt lat="43.59561" lon="2.96019">
        <ele>897.3</ele>
        <time>2026-05-07T09:40:19.999Z</time>
      </trkpt>
      <trkpt lat="43.59562" lon="2.96019">
        <ele>897.2</ele>
        <time>2026-05-07T09:40:20.999Z</time>
      </trkpt>
      <trkpt lat="43.59562" lon="2.9602">
        <ele>896.9</ele>
        <time>2026-05-07T09:40:21.999Z</time>
      </trkpt>
      <trkpt lat="43.59563" lon="2.9602">
        <ele>896.8</ele>
        <time>2026-05-07T09:40:22.999Z</time>
      </trkpt>
      <trkpt lat="43.59562" lon="2.96019">
        <ele>897.1</ele>
        <time>2026-05-07T09:40:23.999Z</time>
      </trkpt>
      <trkpt lat="43.59561" lon="2.96018">
        <ele>897.4</ele>
        <time>2026-05-07T09:40:24.999Z</time>
      </trkpt>
      <trkpt lat="43.59561" lon="2.96017">
        <ele>897.7</ele>
        <time>2026-05-07T09:40:25.999Z</time>
      </trkpt>
      <trkpt lat="43.59561" lon="2.96016">
        <ele>897.8</ele>
        <time>2026-05-07T09:40:26.999Z</time>
      </trkpt>
      <trkpt lat="43.59561" lon="2.96016">
        <ele>897.5</ele>
        <time>2026-05-07T09:40:27.999Z</time>
      </trkpt>
      <trkpt lat="43.59561" lon="2.96016">
        <ele>897.3</ele>
        <time>2026-05-07T09:40:28.999Z</time>
      </trkpt>
      <trkpt lat="43.59561" lon="2.96016">
        <ele>897.6</ele>
        <time>2026-05-07T09:40:29.999Z</time>
      </trkpt>
      <trkpt lat="43.59561" lon="2.96016">
        <ele>897.7</ele>
        <time>2026-05-07T09:40:30.999Z</time>
      </trkpt>
      <trkpt lat="43.59561" lon="2.96016">
        <ele>897.3</ele>
        <time>2026-05-07T09:40:31.999Z</time>
      </trkpt>
      <trkpt lat="43.59561" lon="2.96016">
        <ele>897</ele>
        <time>2026-05-07T09:40:32.999Z</time>
      </trkpt>
      <trkpt lat="43.59561" lon="2.96014">
        <ele>897.3</ele>
        <time>2026-05-07T09:40:33.999Z</time>
      </trkpt>
      <trkpt lat="43.5956" lon="2.96014">
        <ele>897.5</ele>
        <time>2026-05-07T09:40:34.999Z</time>
      </trkpt>
      <trkpt lat="43.59561" lon="2.96014">
        <ele>897.7</ele>
        <time>2026-05-07T09:40:35.999Z</time>
      </trkpt>
      <trkpt lat="43.59561" lon="2.96014">
        <ele>897.8</ele>
        <time>2026-05-07T09:40:36.999Z</time>
      </trkpt>
      <trkpt lat="43.5956" lon="2.96014">
        <ele>897.7</ele>
        <time>2026-05-07T09:40:37.999Z</time>
      </trkpt>
      <trkpt lat="43.5956" lon="2.96014">
        <ele>897.8</ele>
        <time>2026-05-07T09:40:38.999Z</time>
      </trkpt>
      <trkpt lat="43.5956" lon="2.96013">
        <ele>897.7</ele>
        <time>2026-05-07T09:40:40.999Z</time>
      </trkpt>
      <trkpt lat="43.5956" lon="2.96013">
        <ele>897.9</ele>
        <time>2026-05-07T09:40:41.999Z</time>
      </trkpt>
      <trkpt lat="43.59561" lon="2.96013">
        <ele>898</ele>
        <time>2026-05-07T09:40:42.999Z</time>
      </trkpt>
      <trkpt lat="43.59561" lon="2.96013">
        <ele>898.1</ele>
        <time>2026-05-07T09:40:43.999Z</time>
      </trkpt>
      <trkpt lat="43.59561" lon="2.96013">
        <ele>898</ele>
        <time>2026-05-07T09:40:44.999Z</time>
      </trkpt>
      <trkpt lat="43.59561" lon="2.96013">
        <ele>898</ele>
        <time>2026-05-07T09:40:45.999Z</time>
      </trkpt>
      <trkpt lat="43.59561" lon="2.96013">
        <ele>898.1</ele>
        <time>2026-05-07T09:40:46.999Z</time>
      </trkpt>
      <trkpt lat="43.59561" lon="2.96012">
        <ele>898.2</ele>
        <time>2026-05-07T09:40:47.999Z</time>
      </trkpt>
      <trkpt lat="43.59561" lon="2.96012">
        <ele>898</ele>
        <time>2026-05-07T09:40:48.999Z</time>
      </trkpt>
      <trkpt lat="43.59561" lon="2.96013">
        <ele>898</ele>
        <time>2026-05-07T09:40:49.999Z</time>
      </trkpt>
      <trkpt lat="43.59562" lon="2.96013">
        <ele>898.4</ele>
        <time>2026-05-07T09:40:50.999Z</time>
      </trkpt>
      <trkpt lat="43.59563" lon="2.96013">
        <ele>898.7</ele>
        <time>2026-05-07T09:40:51.999Z</time>
      </trkpt>
      <trkpt lat="43.59563" lon="2.96013">
        <ele>898.8</ele>
        <time>2026-05-07T09:40:52.999Z</time>
      </trkpt>
      <trkpt lat="43.59563" lon="2.96014">
        <ele>897.9</ele>
        <time>2026-05-07T09:40:53.999Z</time>
      </trkpt>
      <trkpt lat="43.59563" lon="2.96015">
        <ele>898.1</ele>
        <time>2026-05-07T09:40:54.999Z</time>
      </trkpt>
      <trkpt lat="43.59562" lon="2.96015">
        <ele>898</ele>
        <time>2026-05-07T09:40:55.999Z</time>
      </trkpt>
      <trkpt lat="43.59562" lon="2.96015">
        <ele>898</ele>
        <time>2026-05-07T09:40:56.999Z</time>
      </trkpt>
      <trkpt lat="43.59562" lon="2.96015">
        <ele>897.9</ele>
        <time>2026-05-07T09:40:57.999Z</time>
      </trkpt>
      <trkpt lat="43.59562" lon="2.96015">
        <ele>897.9</ele>
        <time>2026-05-07T09:40:58.999Z</time>
      </trkpt>
      <trkpt lat="43.59563" lon="2.96015">
        <ele>898.2</ele>
        <time>2026-05-07T09:40:59.999Z</time>
      </trkpt>
      <trkpt lat="43.59564" lon="2.96016">
        <ele>898.2</ele>
        <time>2026-05-07T09:41:00.999Z</time>
      </trkpt>
      <trkpt lat="43.59564" lon="2.96016">
        <ele>898.1</ele>
        <time>2026-05-07T09:41:01.999Z</time>
      </trkpt>
      <trkpt lat="43.59564" lon="2.96017">
        <ele>898.6</ele>
        <time>2026-05-07T09:41:02.999Z</time>
      </trkpt>
      <trkpt lat="43.59565" lon="2.96018">
        <ele>898.8</ele>
        <time>2026-05-07T09:41:03.999Z</time>
      </trkpt>
      <trkpt lat="43.59565" lon="2.96019">
        <ele>898.8</ele>
        <time>2026-05-07T09:41:04.999Z</time>
      </trkpt>
      <trkpt lat="43.59565" lon="2.96019">
        <ele>898.9</ele>
        <time>2026-05-07T09:41:05.999Z</time>
      </trkpt>
      <trkpt lat="43.59566" lon="2.9602">
        <ele>898.8</ele>
        <time>2026-05-07T09:41:06.999Z</time>
      </trkpt>
      <trkpt lat="43.59567" lon="2.9602">
        <ele>898.8</ele>
        <time>2026-05-07T09:41:08.999Z</time>
      </trkpt>
      <trkpt lat="43.59568" lon="2.96021">
        <ele>898.7</ele>
        <time>2026-05-07T09:41:09.999Z</time>
      </trkpt>
      <trkpt lat="43.59568" lon="2.96021">
        <ele>899.1</ele>
        <time>2026-05-07T09:41:10.999Z</time>
      </trkpt>
      <trkpt lat="43.59569" lon="2.96021">
        <ele>899.3</ele>
        <time>2026-05-07T09:41:11.999Z</time>
      </trkpt>
      <trkpt lat="43.59569" lon="2.96021">
        <ele>899.4</ele>
        <time>2026-05-07T09:41:12.999Z</time>
      </trkpt>
      <trkpt lat="43.59569" lon="2.9602">
        <ele>898.9</ele>
        <time>2026-05-07T09:41:13.999Z</time>
      </trkpt>
      <trkpt lat="43.59569" lon="2.9602">
        <ele>899</ele>
        <time>2026-05-07T09:41:14.999Z</time>
      </trkpt>
      <trkpt lat="43.59569" lon="2.96019">
        <ele>899.3</ele>
        <time>2026-05-07T09:41:15.999Z</time>
      </trkpt>
      <trkpt lat="43.59569" lon="2.96019">
        <ele>899.3</ele>
        <time>2026-05-07T09:41:16.999Z</time>
      </trkpt>
      <trkpt lat="43.59569" lon="2.96019">
        <ele>899.3</ele>
        <time>2026-05-07T09:41:17.999Z</time>
      </trkpt>
      <trkpt lat="43.59569" lon="2.96019">
        <ele>899.1</ele>
        <time>2026-05-07T09:41:18.999Z</time>
      </trkpt>
      <trkpt lat="43.59569" lon="2.96019">
        <ele>898.8</ele>
        <time>2026-05-07T09:41:19.999Z</time>
      </trkpt>
      <trkpt lat="43.59569" lon="2.96019">
        <ele>898.5</ele>
        <time>2026-05-07T09:41:21.999Z</time>
      </trkpt>
      <trkpt lat="43.59569" lon="2.96019">
        <ele>898.7</ele>
        <time>2026-05-07T09:41:22.999Z</time>
      </trkpt>
      <trkpt lat="43.59571" lon="2.9602">
        <ele>899</ele>
        <time>2026-05-07T09:41:23.999Z</time>
      </trkpt>
      <trkpt lat="43.59571" lon="2.96021">
        <ele>899.2</ele>
        <time>2026-05-07T09:41:24.999Z</time>
      </trkpt>
      <trkpt lat="43.59571" lon="2.9602">
        <ele>899.3</ele>
        <time>2026-05-07T09:41:25.999Z</time>
      </trkpt>
      <trkpt lat="43.5957" lon="2.9602">
        <ele>899.1</ele>
        <time>2026-05-07T09:41:26.999Z</time>
      </trkpt>
      <trkpt lat="43.5957" lon="2.96019">
        <ele>899.1</ele>
        <time>2026-05-07T09:41:27.999Z</time>
      </trkpt>
      <trkpt lat="43.5957" lon="2.96019">
        <ele>899</ele>
        <time>2026-05-07T09:41:28.999Z</time>
      </trkpt>
      <trkpt lat="43.5957" lon="2.96018">
        <ele>899.4</ele>
        <time>2026-05-07T09:41:29.999Z</time>
      </trkpt>
      <trkpt lat="43.5957" lon="2.96018">
        <ele>899.7</ele>
        <time>2026-05-07T09:41:30.999Z</time>
      </trkpt>
      <trkpt lat="43.5957" lon="2.96018">
        <ele>899.9</ele>
        <time>2026-05-07T09:41:31.999Z</time>
      </trkpt>
      <trkpt lat="43.5957" lon="2.96018">
        <ele>900</ele>
        <time>2026-05-07T09:41:32.999Z</time>
      </trkpt>
      <trkpt lat="43.59571" lon="2.96018">
        <ele>900.2</ele>
        <time>2026-05-07T09:41:33.999Z</time>
      </trkpt>
      <trkpt lat="43.59571" lon="2.96017">
        <ele>900.3</ele>
        <time>2026-05-07T09:41:34.999Z</time>
      </trkpt>
      <trkpt lat="43.59571" lon="2.96017">
        <ele>900.3</ele>
        <time>2026-05-07T09:41:35.999Z</time>
      </trkpt>
      <trkpt lat="43.59572" lon="2.96018">
        <ele>900.5</ele>
        <time>2026-05-07T09:41:36.999Z</time>
      </trkpt>
      <trkpt lat="43.59573" lon="2.96018">
        <ele>900.7</ele>
        <time>2026-05-07T09:41:37.999Z</time>
      </trkpt>
      <trkpt lat="43.59574" lon="2.96019">
        <ele>900.8</ele>
        <time>2026-05-07T09:41:39.999Z</time>
      </trkpt>
      <trkpt lat="43.59575" lon="2.9602">
        <ele>900.9</ele>
        <time>2026-05-07T09:41:40.999Z</time>
      </trkpt>
      <trkpt lat="43.59575" lon="2.96019">
        <ele>901.3</ele>
        <time>2026-05-07T09:41:41.999Z</time>
      </trkpt>
      <trkpt lat="43.59575" lon="2.96019">
        <ele>901.5</ele>
        <time>2026-05-07T09:41:42.999Z</time>
      </trkpt>
      <trkpt lat="43.59575" lon="2.96018">
        <ele>901.6</ele>
        <time>2026-05-07T09:41:43.999Z</time>
      </trkpt>
      <trkpt lat="43.59575" lon="2.96017">
        <ele>901.7</ele>
        <time>2026-05-07T09:41:44.999Z</time>
      </trkpt>
      <trkpt lat="43.59575" lon="2.96017">
        <ele>901.8</ele>
        <time>2026-05-07T09:41:45.999Z</time>
      </trkpt>
      <trkpt lat="43.59575" lon="2.96017">
        <ele>901.9</ele>
        <time>2026-05-07T09:41:46.999Z</time>
      </trkpt>
      <trkpt lat="43.59576" lon="2.96017">
        <ele>902</ele>
        <time>2026-05-07T09:41:47.999Z</time>
      </trkpt>
      <trkpt lat="43.59576" lon="2.96017">
        <ele>902.2</ele>
        <time>2026-05-07T09:41:48.999Z</time>
      </trkpt>
      <trkpt lat="43.59576" lon="2.96016">
        <ele>902.3</ele>
        <time>2026-05-07T09:41:49.999Z</time>
      </trkpt>
      <trkpt lat="43.59575" lon="2.96016">
        <ele>902.2</ele>
        <time>2026-05-07T09:41:50.999Z</time>
      </trkpt>
      <trkpt lat="43.59574" lon="2.96015">
        <ele>902.2</ele>
        <time>2026-05-07T09:41:51.999Z</time>
      </trkpt>
      <trkpt lat="43.59574" lon="2.96014">
        <ele>902.2</ele>
        <time>2026-05-07T09:41:52.999Z</time>
      </trkpt>
      <trkpt lat="43.59573" lon="2.96014">
        <ele>902.4</ele>
        <time>2026-05-07T09:41:53.999Z</time>
      </trkpt>
      <trkpt lat="43.59573" lon="2.96014">
        <ele>902.5</ele>
        <time>2026-05-07T09:41:54.999Z</time>
      </trkpt>
      <trkpt lat="43.59572" lon="2.96013">
        <ele>902.8</ele>
        <time>2026-05-07T09:41:55.999Z</time>
      </trkpt>
      <trkpt lat="43.59572" lon="2.96013">
        <ele>903</ele>
        <time>2026-05-07T09:41:56.999Z</time>
      </trkpt>
      <trkpt lat="43.59572" lon="2.96014">
        <ele>903</ele>
        <time>2026-05-07T09:41:57.999Z</time>
      </trkpt>
      <trkpt lat="43.59572" lon="2.96014">
        <ele>903.2</ele>
        <time>2026-05-07T09:41:58.999Z</time>
      </trkpt>
      <trkpt lat="43.59572" lon="2.96014">
        <ele>903.3</ele>
        <time>2026-05-07T09:41:59.999Z</time>
      </trkpt>
      <trkpt lat="43.59572" lon="2.96014">
        <ele>903.5</ele>
        <time>2026-05-07T09:42:00.999Z</time>
      </trkpt>
      <trkpt lat="43.59572" lon="2.96014">
        <ele>903.5</ele>
        <time>2026-05-07T09:42:01.999Z</time>
      </trkpt>
      <trkpt lat="43.59573" lon="2.96014">
        <ele>903.6</ele>
        <time>2026-05-07T09:42:02.999Z</time>
      </trkpt>
      <trkpt lat="43.59573" lon="2.96015">
        <ele>903.6</ele>
        <time>2026-05-07T09:42:03.999Z</time>
      </trkpt>
      <trkpt lat="43.59573" lon="2.96015">
        <ele>903.6</ele>
        <time>2026-05-07T09:42:04.999Z</time>
      </trkpt>
      <trkpt lat="43.59573" lon="2.96016">
        <ele>903.6</ele>
        <time>2026-05-07T09:42:05.999Z</time>
      </trkpt>
      <trkpt lat="43.59573" lon="2.96016">
        <ele>903.6</ele>
        <time>2026-05-07T09:42:06.999Z</time>
      </trkpt>
      <trkpt lat="43.59573" lon="2.96016">
        <ele>903.8</ele>
        <time>2026-05-07T09:42:07.999Z</time>
      </trkpt>
      <trkpt lat="43.59573" lon="2.96017">
        <ele>903.6</ele>
        <time>2026-05-07T09:42:08.999Z</time>
      </trkpt>
      <trkpt lat="43.59572" lon="2.96016">
        <ele>903.5</ele>
        <time>2026-05-07T09:42:09.999Z</time>
      </trkpt>
      <trkpt lat="43.59572" lon="2.96016">
        <ele>903.7</ele>
        <time>2026-05-07T09:42:10.999Z</time>
      </trkpt>
      <trkpt lat="43.59573" lon="2.96017">
        <ele>903.8</ele>
        <time>2026-05-07T09:42:11.999Z</time>
      </trkpt>
      <trkpt lat="43.59573" lon="2.96017">
        <ele>903.9</ele>
        <time>2026-05-07T09:42:12.999Z</time>
      </trkpt>
      <trkpt lat="43.59573" lon="2.96017">
        <ele>903.9</ele>
        <time>2026-05-07T09:42:13.999Z</time>
      </trkpt>
      <trkpt lat="43.59573" lon="2.96017">
        <ele>904</ele>
        <time>2026-05-07T09:42:14.999Z</time>
      </trkpt>
      <trkpt lat="43.59573" lon="2.96017">
        <ele>904</ele>
        <time>2026-05-07T09:42:15.999Z</time>
      </trkpt>
      <trkpt lat="43.59574" lon="2.96018">
        <ele>904.1</ele>
        <time>2026-05-07T09:42:16.999Z</time>
      </trkpt>
      <trkpt lat="43.59574" lon="2.96018">
        <ele>904.1</ele>
        <time>2026-05-07T09:42:17.999Z</time>
      </trkpt>
      <trkpt lat="43.59574" lon="2.96018">
        <ele>904.2</ele>
        <time>2026-05-07T09:42:18.999Z</time>
      </trkpt>
      <trkpt lat="43.59575" lon="2.96018">
        <ele>904.2</ele>
        <time>2026-05-07T09:42:19.999Z</time>
      </trkpt>
      <trkpt lat="43.59575" lon="2.96018">
        <ele>904.3</ele>
        <time>2026-05-07T09:42:20.999Z</time>
      </trkpt>
      <trkpt lat="43.59574" lon="2.9602">
        <ele>904.4</ele>
        <time>2026-05-07T09:42:21.999Z</time>
      </trkpt>
      <trkpt lat="43.59574" lon="2.96021">
        <ele>904.8</ele>
        <time>2026-05-07T09:42:22.999Z</time>
      </trkpt>
      <trkpt lat="43.59574" lon="2.96021">
        <ele>904.9</ele>
        <time>2026-05-07T09:42:23.999Z</time>
      </trkpt>
      <trkpt lat="43.59574" lon="2.96021">
        <ele>905.1</ele>
        <time>2026-05-07T09:42:24.999Z</time>
      </trkpt>
      <trkpt lat="43.59574" lon="2.96021">
        <ele>904.9</ele>
        <time>2026-05-07T09:42:25.999Z</time>
      </trkpt>
      <trkpt lat="43.59576" lon="2.96023">
        <ele>904.7</ele>
        <time>2026-05-07T09:42:27.999Z</time>
      </trkpt>
      <trkpt lat="43.59577" lon="2.96023">
        <ele>905</ele>
        <time>2026-05-07T09:42:28.999Z</time>
      </trkpt>
      <trkpt lat="43.59577" lon="2.96023">
        <ele>905.3</ele>
        <time>2026-05-07T09:42:29.999Z</time>
      </trkpt>
      <trkpt lat="43.59577" lon="2.96023">
        <ele>905</ele>
        <time>2026-05-07T09:42:30.999Z</time>
      </trkpt>
      <trkpt lat="43.59577" lon="2.96022">
        <ele>905</ele>
        <time>2026-05-07T09:42:31.999Z</time>
      </trkpt>
      <trkpt lat="43.59577" lon="2.96023">
        <ele>904.9</ele>
        <time>2026-05-07T09:42:32.999Z</time>
      </trkpt>
      <trkpt lat="43.59577" lon="2.96023">
        <ele>905</ele>
        <time>2026-05-07T09:42:33.999Z</time>
      </trkpt>
      <trkpt lat="43.59577" lon="2.96023">
        <ele>904.9</ele>
        <time>2026-05-07T09:42:34.999Z</time>
      </trkpt>
      <trkpt lat="43.59577" lon="2.96023">
        <ele>904.9</ele>
        <time>2026-05-07T09:42:35.999Z</time>
      </trkpt>
      <trkpt lat="43.59577" lon="2.96023">
        <ele>905.3</ele>
        <time>2026-05-07T09:42:36.999Z</time>
      </trkpt>
      <trkpt lat="43.59577" lon="2.96023">
        <ele>905.6</ele>
        <time>2026-05-07T09:42:37.999Z</time>
      </trkpt>
      <trkpt lat="43.59577" lon="2.96023">
        <ele>905.5</ele>
        <time>2026-05-07T09:42:38.999Z</time>
      </trkpt>
      <trkpt lat="43.59577" lon="2.96023">
        <ele>905.5</ele>
        <time>2026-05-07T09:42:39.999Z</time>
      </trkpt>
      <trkpt lat="43.59576" lon="2.96022">
        <ele>905.6</ele>
        <time>2026-05-07T09:42:40.999Z</time>
      </trkpt>
      <trkpt lat="43.59577" lon="2.96021">
        <ele>905.9</ele>
        <time>2026-05-07T09:42:41.999Z</time>
      </trkpt>
      <trkpt lat="43.59578" lon="2.96021">
        <ele>906.2</ele>
        <time>2026-05-07T09:42:42.999Z</time>
      </trkpt>
      <trkpt lat="43.59578" lon="2.96021">
        <ele>906.3</ele>
        <time>2026-05-07T09:42:43.999Z</time>
      </trkpt>
      <trkpt lat="43.59579" lon="2.96021">
        <ele>906.4</ele>
        <time>2026-05-07T09:42:44.999Z</time>
      </trkpt>
      <trkpt lat="43.5958" lon="2.96021">
        <ele>906.4</ele>
        <time>2026-05-07T09:42:45.999Z</time>
      </trkpt>
      <trkpt lat="43.5958" lon="2.9602">
        <ele>906.5</ele>
        <time>2026-05-07T09:42:46.999Z</time>
      </trkpt>
      <trkpt lat="43.59579" lon="2.96019">
        <ele>906.6</ele>
        <time>2026-05-07T09:42:47.999Z</time>
      </trkpt>
      <trkpt lat="43.5958" lon="2.96019">
        <ele>906.8</ele>
        <time>2026-05-07T09:42:48.999Z</time>
      </trkpt>
      <trkpt lat="43.5958" lon="2.96018">
        <ele>906.8</ele>
        <time>2026-05-07T09:42:49.999Z</time>
      </trkpt>
      <trkpt lat="43.5958" lon="2.96018">
        <ele>906.9</ele>
        <time>2026-05-07T09:42:50.999Z</time>
      </trkpt>
      <trkpt lat="43.5958" lon="2.96018">
        <ele>907</ele>
        <time>2026-05-07T09:42:51.999Z</time>
      </trkpt>
      <trkpt lat="43.59581" lon="2.96019">
        <ele>907.1</ele>
        <time>2026-05-07T09:42:52.999Z</time>
      </trkpt>
      <trkpt lat="43.59581" lon="2.96019">
        <ele>907.3</ele>
        <time>2026-05-07T09:42:53.999Z</time>
      </trkpt>
      <trkpt lat="43.59581" lon="2.96019">
        <ele>907.5</ele>
        <time>2026-05-07T09:42:54.999Z</time>
      </trkpt>
      <trkpt lat="43.59581" lon="2.96019">
        <ele>907.8</ele>
        <time>2026-05-07T09:42:55.999Z</time>
      </trkpt>
      <trkpt lat="43.59581" lon="2.96019">
        <ele>908.1</ele>
        <time>2026-05-07T09:42:56.999Z</time>
      </trkpt>
      <trkpt lat="43.59581" lon="2.96018">
        <ele>908</ele>
        <time>2026-05-07T09:42:57.999Z</time>
      </trkpt>
      <trkpt lat="43.59581" lon="2.96017">
        <ele>908.4</ele>
        <time>2026-05-07T09:42:59.999Z</time>
      </trkpt>
      <trkpt lat="43.59581" lon="2.96017">
        <ele>908.5</ele>
        <time>2026-05-07T09:43:00.999Z</time>
      </trkpt>
      <trkpt lat="43.5958" lon="2.96017">
        <ele>908.7</ele>
        <time>2026-05-07T09:43:01.999Z</time>
      </trkpt>
      <trkpt lat="43.59581" lon="2.96017">
        <ele>908.8</ele>
        <time>2026-05-07T09:43:02.999Z</time>
      </trkpt>
      <trkpt lat="43.59581" lon="2.96017">
        <ele>908.8</ele>
        <time>2026-05-07T09:43:03.999Z</time>
      </trkpt>
      <trkpt lat="43.59581" lon="2.96016">
        <ele>908.7</ele>
        <time>2026-05-07T09:43:04.999Z</time>
      </trkpt>
      <trkpt lat="43.59581" lon="2.96016">
        <ele>908.7</ele>
        <time>2026-05-07T09:43:05.999Z</time>
      </trkpt>
      <trkpt lat="43.59581" lon="2.96017">
        <ele>909.1</ele>
        <time>2026-05-07T09:43:06.999Z</time>
      </trkpt>
      <trkpt lat="43.59581" lon="2.96017">
        <ele>909.1</ele>
        <time>2026-05-07T09:43:07.999Z</time>
      </trkpt>
      <trkpt lat="43.59581" lon="2.96018">
        <ele>909.1</ele>
        <time>2026-05-07T09:43:08.999Z</time>
      </trkpt>
      <trkpt lat="43.59581" lon="2.96018">
        <ele>909.4</ele>
        <time>2026-05-07T09:43:09.999Z</time>
      </trkpt>
      <trkpt lat="43.59582" lon="2.96018">
        <ele>909.5</ele>
        <time>2026-05-07T09:43:10.999Z</time>
      </trkpt>
      <trkpt lat="43.59582" lon="2.96018">
        <ele>909.3</ele>
        <time>2026-05-07T09:43:11.999Z</time>
      </trkpt>
      <trkpt lat="43.59582" lon="2.96018">
        <ele>909.5</ele>
        <time>2026-05-07T09:43:12.999Z</time>
      </trkpt>
      <trkpt lat="43.59582" lon="2.96018">
        <ele>909.5</ele>
        <time>2026-05-07T09:43:13.999Z</time>
      </trkpt>
      <trkpt lat="43.59582" lon="2.96018">
        <ele>909.5</ele>
        <time>2026-05-07T09:43:14.999Z</time>
      </trkpt>
      <trkpt lat="43.59582" lon="2.96018">
        <ele>909.7</ele>
        <time>2026-05-07T09:43:15.999Z</time>
      </trkpt>
      <trkpt lat="43.59581" lon="2.96017">
        <ele>910</ele>
        <time>2026-05-07T09:43:16.999Z</time>
      </trkpt>
      <trkpt lat="43.59581" lon="2.96017">
        <ele>909.7</ele>
        <time>2026-05-07T09:43:17.999Z</time>
      </trkpt>
      <trkpt lat="43.59581" lon="2.96017">
        <ele>909.6</ele>
        <time>2026-05-07T09:43:18.999Z</time>
      </trkpt>
      <trkpt lat="43.59581" lon="2.96018">
        <ele>909.6</ele>
        <time>2026-05-07T09:43:19.999Z</time>
      </trkpt>
      <trkpt lat="43.59581" lon="2.96018">
        <ele>909.6</ele>
        <time>2026-05-07T09:43:20.999Z</time>
      </trkpt>
      <trkpt lat="43.59581" lon="2.96017">
        <ele>909.8</ele>
        <time>2026-05-07T09:43:21.999Z</time>
      </trkpt>
      <trkpt lat="43.59581" lon="2.96017">
        <ele>909.8</ele>
        <time>2026-05-07T09:43:22.999Z</time>
      </trkpt>
      <trkpt lat="43.59581" lon="2.96017">
        <ele>909.8</ele>
        <time>2026-05-07T09:43:23.999Z</time>
      </trkpt>
      <trkpt lat="43.59582" lon="2.96017">
        <ele>909.8</ele>
        <time>2026-05-07T09:43:24.999Z</time>
      </trkpt>
      <trkpt lat="43.59582" lon="2.96018">
        <ele>909.7</ele>
        <time>2026-05-07T09:43:25.999Z</time>
      </trkpt>
      <trkpt lat="43.59582" lon="2.96018">
        <ele>908.4</ele>
        <time>2026-05-07T09:43:26.999Z</time>
      </trkpt>
      <trkpt lat="43.59582" lon="2.96018">
        <ele>908.5</ele>
        <time>2026-05-07T09:43:27.999Z</time>
      </trkpt>
      <trkpt lat="43.59582" lon="2.96018">
        <ele>908.7</ele>
        <time>2026-05-07T09:43:28.999Z</time>
      </trkpt>
      <trkpt lat="43.59582" lon="2.96018">
        <ele>909</ele>
        <time>2026-05-07T09:43:29.999Z</time>
      </trkpt>
      <trkpt lat="43.59582" lon="2.96017">
        <ele>909.1</ele>
        <time>2026-05-07T09:43:30.999Z</time>
      </trkpt>
      <trkpt lat="43.59582" lon="2.96017">
        <ele>909.2</ele>
        <time>2026-05-07T09:43:31.999Z</time>
      </trkpt>
      <trkpt lat="43.59583" lon="2.96018">
        <ele>909.4</ele>
        <time>2026-05-07T09:43:32.999Z</time>
      </trkpt>
      <trkpt lat="43.59583" lon="2.96018">
        <ele>909.2</ele>
        <time>2026-05-07T09:43:33.999Z</time>
      </trkpt>
      <trkpt lat="43.59583" lon="2.96018">
        <ele>909.4</ele>
        <time>2026-05-07T09:43:34.999Z</time>
      </trkpt>
      <trkpt lat="43.59583" lon="2.96018">
        <ele>909.5</ele>
        <time>2026-05-07T09:43:35.999Z</time>
      </trkpt>
      <trkpt lat="43.59584" lon="2.96018">
        <ele>909.7</ele>
        <time>2026-05-07T09:43:36.999Z</time>
      </trkpt>
      <trkpt lat="43.59584" lon="2.96018">
        <ele>909.7</ele>
        <time>2026-05-07T09:43:37.999Z</time>
      </trkpt>
      <trkpt lat="43.59585" lon="2.96018">
        <ele>909.9</ele>
        <time>2026-05-07T09:43:38.999Z</time>
      </trkpt>
      <trkpt lat="43.59585" lon="2.96017">
        <ele>910</ele>
        <time>2026-05-07T09:43:39.999Z</time>
      </trkpt>
      <trkpt lat="43.59585" lon="2.96017">
        <ele>909.8</ele>
        <time>2026-05-07T09:43:40.999Z</time>
      </trkpt>
      <trkpt lat="43.59585" lon="2.96017">
        <ele>909.8</ele>
        <time>2026-05-07T09:43:41.999Z</time>
      </trkpt>
      <trkpt lat="43.59585" lon="2.96017">
        <ele>909.9</ele>
        <time>2026-05-07T09:43:42.999Z</time>
      </trkpt>
      <trkpt lat="43.59585" lon="2.96017">
        <ele>910.1</ele>
        <time>2026-05-07T09:43:43.999Z</time>
      </trkpt>
      <trkpt lat="43.59585" lon="2.96017">
        <ele>910</ele>
        <time>2026-05-07T09:43:44.999Z</time>
      </trkpt>
      <trkpt lat="43.59585" lon="2.96017">
        <ele>910</ele>
        <time>2026-05-07T09:43:45.999Z</time>
      </trkpt>
      <trkpt lat="43.59584" lon="2.96017">
        <ele>909.9</ele>
        <time>2026-05-07T09:43:46.999Z</time>
      </trkpt>
      <trkpt lat="43.59584" lon="2.96017">
        <ele>910</ele>
        <time>2026-05-07T09:43:47.999Z</time>
      </trkpt>
      <trkpt lat="43.59584" lon="2.96017">
        <ele>910.2</ele>
        <time>2026-05-07T09:43:48.999Z</time>
      </trkpt>
      <trkpt lat="43.59583" lon="2.96017">
        <ele>910.3</ele>
        <time>2026-05-07T09:43:49.999Z</time>
      </trkpt>
      <trkpt lat="43.59583" lon="2.96017">
        <ele>910.4</ele>
        <time>2026-05-07T09:43:50.999Z</time>
      </trkpt>
      <trkpt lat="43.59584" lon="2.96017">
        <ele>910.5</ele>
        <time>2026-05-07T09:43:51.999Z</time>
      </trkpt>
      <trkpt lat="43.59584" lon="2.96016">
        <ele>910.6</ele>
        <time>2026-05-07T09:43:52.999Z</time>
      </trkpt>
      <trkpt lat="43.59585" lon="2.96016">
        <ele>910.7</ele>
        <time>2026-05-07T09:43:53.999Z</time>
      </trkpt>
      <trkpt lat="43.59585" lon="2.96016">
        <ele>910.9</ele>
        <time>2026-05-07T09:43:54.999Z</time>
      </trkpt>
      <trkpt lat="43.59585" lon="2.96017">
        <ele>910.8</ele>
        <time>2026-05-07T09:43:55.999Z</time>
      </trkpt>
      <trkpt lat="43.59585" lon="2.96017">
        <ele>910.9</ele>
        <time>2026-05-07T09:43:56.999Z</time>
      </trkpt>
      <trkpt lat="43.59585" lon="2.96017">
        <ele>911.2</ele>
        <time>2026-05-07T09:43:57.999Z</time>
      </trkpt>
      <trkpt lat="43.59585" lon="2.96018">
        <ele>911.2</ele>
        <time>2026-05-07T09:43:58.999Z</time>
      </trkpt>
      <trkpt lat="43.59585" lon="2.96019">
        <ele>911.2</ele>
        <time>2026-05-07T09:43:59.999Z</time>
      </trkpt>
      <trkpt lat="43.59586" lon="2.96019">
        <ele>911.2</ele>
        <time>2026-05-07T09:44:00.999Z</time>
      </trkpt>
      <trkpt lat="43.59585" lon="2.96019">
        <ele>911.6</ele>
        <time>2026-05-07T09:44:01.999Z</time>
      </trkpt>
      <trkpt lat="43.59585" lon="2.96018">
        <ele>912</ele>
        <time>2026-05-07T09:44:02.999Z</time>
      </trkpt>
      <trkpt lat="43.59585" lon="2.96017">
        <ele>912.2</ele>
        <time>2026-05-07T09:44:03.999Z</time>
      </trkpt>
      <trkpt lat="43.59586" lon="2.96017">
        <ele>912.6</ele>
        <time>2026-05-07T09:44:05.999Z</time>
      </trkpt>
      <trkpt lat="43.59586" lon="2.96017">
        <ele>912.5</ele>
        <time>2026-05-07T09:44:06.999Z</time>
      </trkpt>
      <trkpt lat="43.59586" lon="2.96017">
        <ele>913</ele>
        <time>2026-05-07T09:44:07.999Z</time>
      </trkpt>
      <trkpt lat="43.59586" lon="2.96017">
        <ele>913.3</ele>
        <time>2026-05-07T09:44:08.999Z</time>
      </trkpt>
      <trkpt lat="43.59587" lon="2.96017">
        <ele>913.4</ele>
        <time>2026-05-07T09:44:09.999Z</time>
      </trkpt>
      <trkpt lat="43.59587" lon="2.96017">
        <ele>913.4</ele>
        <time>2026-05-07T09:44:10.999Z</time>
      </trkpt>
      <trkpt lat="43.59587" lon="2.96017">
        <ele>912.9</ele>
        <time>2026-05-07T09:44:11.999Z</time>
      </trkpt>
      <trkpt lat="43.59587" lon="2.96017">
        <ele>913.6</ele>
        <time>2026-05-07T09:44:12.999Z</time>
      </trkpt>
      <trkpt lat="43.59587" lon="2.96017">
        <ele>913.9</ele>
        <time>2026-05-07T09:44:13.999Z</time>
      </trkpt>
      <trkpt lat="43.59587" lon="2.96017">
        <ele>913.8</ele>
        <time>2026-05-07T09:44:14.999Z</time>
      </trkpt>
      <trkpt lat="43.59588" lon="2.96018">
        <ele>913.7</ele>
        <time>2026-05-07T09:44:15.999Z</time>
      </trkpt>
      <trkpt lat="43.59589" lon="2.9602">
        <ele>913.6</ele>
        <time>2026-05-07T09:44:17.999Z</time>
      </trkpt>
      <trkpt lat="43.5959" lon="2.96021">
        <ele>913.7</ele>
        <time>2026-05-07T09:44:18.999Z</time>
      </trkpt>
      <trkpt lat="43.5959" lon="2.96021">
        <ele>913.7</ele>
        <time>2026-05-07T09:44:19.999Z</time>
      </trkpt>
      <trkpt lat="43.59589" lon="2.96022">
        <ele>913.7</ele>
        <time>2026-05-07T09:44:20.999Z</time>
      </trkpt>
      <trkpt lat="43.5959" lon="2.96021">
        <ele>913.8</ele>
        <time>2026-05-07T09:44:21.999Z</time>
      </trkpt>
      <trkpt lat="43.5959" lon="2.96022">
        <ele>913.7</ele>
        <time>2026-05-07T09:44:22.999Z</time>
      </trkpt>
      <trkpt lat="43.5959" lon="2.96022">
        <ele>914.2</ele>
        <time>2026-05-07T09:44:23.999Z</time>
      </trkpt>
      <trkpt lat="43.5959" lon="2.96022">
        <ele>914.2</ele>
        <time>2026-05-07T09:44:24.999Z</time>
      </trkpt>
      <trkpt lat="43.5959" lon="2.96022">
        <ele>914.4</ele>
        <time>2026-05-07T09:44:25.999Z</time>
      </trkpt>
      <trkpt lat="43.5959" lon="2.96022">
        <ele>914.4</ele>
        <time>2026-05-07T09:44:26.999Z</time>
      </trkpt>
      <trkpt lat="43.5959" lon="2.96022">
        <ele>914.6</ele>
        <time>2026-05-07T09:44:27.999Z</time>
      </trkpt>
      <trkpt lat="43.5959" lon="2.96022">
        <ele>914.6</ele>
        <time>2026-05-07T09:44:28.999Z</time>
      </trkpt>
      <trkpt lat="43.5959" lon="2.96022">
        <ele>914.7</ele>
        <time>2026-05-07T09:44:29.999Z</time>
      </trkpt>
      <trkpt lat="43.5959" lon="2.96022">
        <ele>914.8</ele>
        <time>2026-05-07T09:44:30.999Z</time>
      </trkpt>
      <trkpt lat="43.5959" lon="2.96022">
        <ele>914.7</ele>
        <time>2026-05-07T09:44:31.999Z</time>
      </trkpt>
      <trkpt lat="43.5959" lon="2.96022">
        <ele>914.6</ele>
        <time>2026-05-07T09:44:32.999Z</time>
      </trkpt>
      <trkpt lat="43.59591" lon="2.96022">
        <ele>914.5</ele>
        <time>2026-05-07T09:44:33.999Z</time>
      </trkpt>
      <trkpt lat="43.59591" lon="2.96022">
        <ele>914.6</ele>
        <time>2026-05-07T09:44:34.999Z</time>
      </trkpt>
      <trkpt lat="43.59591" lon="2.96022">
        <ele>914.9</ele>
        <time>2026-05-07T09:44:35.999Z</time>
      </trkpt>
      <trkpt lat="43.59591" lon="2.96022">
        <ele>915</ele>
        <time>2026-05-07T09:44:36.999Z</time>
      </trkpt>
      <trkpt lat="43.59591" lon="2.96022">
        <ele>915.1</ele>
        <time>2026-05-07T09:44:37.999Z</time>
      </trkpt>
      <trkpt lat="43.59591" lon="2.96023">
        <ele>915.2</ele>
        <time>2026-05-07T09:44:38.999Z</time>
      </trkpt>
      <trkpt lat="43.59591" lon="2.96023">
        <ele>915.6</ele>
        <time>2026-05-07T09:44:40.999Z</time>
      </trkpt>
      <trkpt lat="43.5959" lon="2.96023">
        <ele>915.7</ele>
        <time>2026-05-07T09:44:41.999Z</time>
      </trkpt>
      <trkpt lat="43.5959" lon="2.96025">
        <ele>915.8</ele>
        <time>2026-05-07T09:44:42.999Z</time>
      </trkpt>
      <trkpt lat="43.59589" lon="2.96023">
        <ele>915.8</ele>
        <time>2026-05-07T09:44:43.999Z</time>
      </trkpt>
      <trkpt lat="43.59588" lon="2.96021">
        <ele>915.7</ele>
        <time>2026-05-07T09:44:44.999Z</time>
      </trkpt>
      <trkpt lat="43.59587" lon="2.9602">
        <ele>915.8</ele>
        <time>2026-05-07T09:44:45.999Z</time>
      </trkpt>
      <trkpt lat="43.59587" lon="2.96019">
        <ele>916</ele>
        <time>2026-05-07T09:44:46.999Z</time>
      </trkpt>
      <trkpt lat="43.59587" lon="2.9602">
        <ele>916.1</ele>
        <time>2026-05-07T09:44:47.999Z</time>
      </trkpt>
      <trkpt lat="43.59588" lon="2.96021">
        <ele>916.2</ele>
        <time>2026-05-07T09:44:48.999Z</time>
      </trkpt>
      <trkpt lat="43.59589" lon="2.9602">
        <ele>916.4</ele>
        <time>2026-05-07T09:44:49.999Z</time>
      </trkpt>
      <trkpt lat="43.5959" lon="2.9602">
        <ele>916.4</ele>
        <time>2026-05-07T09:44:50.999Z</time>
      </trkpt>
      <trkpt lat="43.5959" lon="2.9602">
        <ele>916.3</ele>
        <time>2026-05-07T09:44:51.999Z</time>
      </trkpt>
      <trkpt lat="43.59591" lon="2.96019">
        <ele>916.5</ele>
        <time>2026-05-07T09:44:52.999Z</time>
      </trkpt>
      <trkpt lat="43.59592" lon="2.96019">
        <ele>916.3</ele>
        <time>2026-05-07T09:44:53.999Z</time>
      </trkpt>
      <trkpt lat="43.59592" lon="2.96019">
        <ele>913.9</ele>
        <time>2026-05-07T09:44:54.999Z</time>
      </trkpt>
      <trkpt lat="43.59593" lon="2.96019">
        <ele>913.7</ele>
        <time>2026-05-07T09:44:55.999Z</time>
      </trkpt>
      <trkpt lat="43.59593" lon="2.9602">
        <ele>913.8</ele>
        <time>2026-05-07T09:44:56.999Z</time>
      </trkpt>
      <trkpt lat="43.59594" lon="2.9602">
        <ele>913.9</ele>
        <time>2026-05-07T09:44:57.999Z</time>
      </trkpt>
      <trkpt lat="43.59595" lon="2.96021">
        <ele>913.8</ele>
        <time>2026-05-07T09:44:58.999Z</time>
      </trkpt>
      <trkpt lat="43.59595" lon="2.96021">
        <ele>913.6</ele>
        <time>2026-05-07T09:44:59.999Z</time>
      </trkpt>
      <trkpt lat="43.59595" lon="2.96021">
        <ele>913.6</ele>
        <time>2026-05-07T09:45:00.999Z</time>
      </trkpt>
      <trkpt lat="43.59596" lon="2.96021">
        <ele>913.7</ele>
        <time>2026-05-07T09:45:01.999Z</time>
      </trkpt>
      <trkpt lat="43.59596" lon="2.96021">
        <ele>913.7</ele>
        <time>2026-05-07T09:45:02.999Z</time>
      </trkpt>
      <trkpt lat="43.59597" lon="2.9602">
        <ele>914</ele>
        <time>2026-05-07T09:45:03.999Z</time>
      </trkpt>
      <trkpt lat="43.59597" lon="2.96019">
        <ele>914.5</ele>
        <time>2026-05-07T09:45:04.999Z</time>
      </trkpt>
      <trkpt lat="43.59597" lon="2.96018">
        <ele>914.5</ele>
        <time>2026-05-07T09:45:05.999Z</time>
      </trkpt>
      <trkpt lat="43.59597" lon="2.96018">
        <ele>914.7</ele>
        <time>2026-05-07T09:45:06.999Z</time>
      </trkpt>
      <trkpt lat="43.59597" lon="2.96018">
        <ele>914.6</ele>
        <time>2026-05-07T09:45:07.999Z</time>
      </trkpt>
      <trkpt lat="43.59597" lon="2.96018">
        <ele>914.3</ele>
        <time>2026-05-07T09:45:08.999Z</time>
      </trkpt>
      <trkpt lat="43.59598" lon="2.96018">
        <ele>913.8</ele>
        <time>2026-05-07T09:45:09.999Z</time>
      </trkpt>
      <trkpt lat="43.59598" lon="2.96018">
        <ele>913.6</ele>
        <time>2026-05-07T09:45:10.999Z</time>
      </trkpt>
      <trkpt lat="43.59598" lon="2.96018">
        <ele>913.6</ele>
        <time>2026-05-07T09:45:11.999Z</time>
      </trkpt>
      <trkpt lat="43.59598" lon="2.96018">
        <ele>913.5</ele>
        <time>2026-05-07T09:45:12.999Z</time>
      </trkpt>
      <trkpt lat="43.59598" lon="2.96018">
        <ele>911.6</ele>
        <time>2026-05-07T09:45:13.999Z</time>
      </trkpt>
      <trkpt lat="43.59599" lon="2.96019">
        <ele>911.9</ele>
        <time>2026-05-07T09:45:14.999Z</time>
      </trkpt>
      <trkpt lat="43.596" lon="2.9602">
        <ele>912</ele>
        <time>2026-05-07T09:45:15.999Z</time>
      </trkpt>
      <trkpt lat="43.59601" lon="2.9602">
        <ele>912.3</ele>
        <time>2026-05-07T09:45:16.999Z</time>
      </trkpt>
      <trkpt lat="43.59602" lon="2.96021">
        <ele>912.3</ele>
        <time>2026-05-07T09:45:17.999Z</time>
      </trkpt>
      <trkpt lat="43.59602" lon="2.96021">
        <ele>912.5</ele>
        <time>2026-05-07T09:45:18.999Z</time>
      </trkpt>
      <trkpt lat="43.59603" lon="2.96021">
        <ele>912.5</ele>
        <time>2026-05-07T09:45:19.999Z</time>
      </trkpt>
      <trkpt lat="43.59603" lon="2.96021">
        <ele>912.4</ele>
        <time>2026-05-07T09:45:20.999Z</time>
      </trkpt>
      <trkpt lat="43.59603" lon="2.96022">
        <ele>912</ele>
        <time>2026-05-07T09:45:21.999Z</time>
      </trkpt>
      <trkpt lat="43.59603" lon="2.96022">
        <ele>912</ele>
        <time>2026-05-07T09:45:22.999Z</time>
      </trkpt>
      <trkpt lat="43.59603" lon="2.96022">
        <ele>912.3</ele>
        <time>2026-05-07T09:45:23.999Z</time>
      </trkpt>
      <trkpt lat="43.59602" lon="2.96022">
        <ele>912.4</ele>
        <time>2026-05-07T09:45:24.999Z</time>
      </trkpt>
      <trkpt lat="43.59602" lon="2.96022">
        <ele>912.4</ele>
        <time>2026-05-07T09:45:25.999Z</time>
      </trkpt>
      <trkpt lat="43.59602" lon="2.96022">
        <ele>913.2</ele>
        <time>2026-05-07T09:45:26.999Z</time>
      </trkpt>
      <trkpt lat="43.59602" lon="2.96022">
        <ele>913.1</ele>
        <time>2026-05-07T09:45:27.999Z</time>
      </trkpt>
      <trkpt lat="43.59602" lon="2.96022">
        <ele>912.9</ele>
        <time>2026-05-07T09:45:28.999Z</time>
      </trkpt>
      <trkpt lat="43.59602" lon="2.96022">
        <ele>913</ele>
        <time>2026-05-07T09:45:29.999Z</time>
      </trkpt>
      <trkpt lat="43.59602" lon="2.96021">
        <ele>913</ele>
        <time>2026-05-07T09:45:30.999Z</time>
      </trkpt>
      <trkpt lat="43.59601" lon="2.96021">
        <ele>913.1</ele>
        <time>2026-05-07T09:45:31.999Z</time>
      </trkpt>
      <trkpt lat="43.596" lon="2.9602">
        <ele>913.1</ele>
        <time>2026-05-07T09:45:32.999Z</time>
      </trkpt>
      <trkpt lat="43.596" lon="2.9602">
        <ele>913.4</ele>
        <time>2026-05-07T09:45:33.999Z</time>
      </trkpt>
      <trkpt lat="43.59602" lon="2.96021">
        <ele>915.2</ele>
        <time>2026-05-07T09:45:35.999Z</time>
      </trkpt>
      <trkpt lat="43.59602" lon="2.96021">
        <ele>915.6</ele>
        <time>2026-05-07T09:45:36.999Z</time>
      </trkpt>
      <trkpt lat="43.59603" lon="2.96021">
        <ele>915.7</ele>
        <time>2026-05-07T09:45:37.999Z</time>
      </trkpt>
      <trkpt lat="43.59603" lon="2.96021">
        <ele>915.9</ele>
        <time>2026-05-07T09:45:38.999Z</time>
      </trkpt>
      <trkpt lat="43.59605" lon="2.9602">
        <ele>916.4</ele>
        <time>2026-05-07T09:45:39.999Z</time>
      </trkpt>
      <trkpt lat="43.59606" lon="2.9602">
        <ele>916.9</ele>
        <time>2026-05-07T09:45:40.999Z</time>
      </trkpt>
      <trkpt lat="43.59606" lon="2.9602">
        <ele>917</ele>
        <time>2026-05-07T09:45:41.999Z</time>
      </trkpt>
      <trkpt lat="43.59606" lon="2.96019">
        <ele>917.4</ele>
        <time>2026-05-07T09:45:42.999Z</time>
      </trkpt>
      <trkpt lat="43.59605" lon="2.96018">
        <ele>917.4</ele>
        <time>2026-05-07T09:45:43.999Z</time>
      </trkpt>
      <trkpt lat="43.59605" lon="2.96018">
        <ele>916.9</ele>
        <time>2026-05-07T09:45:44.999Z</time>
      </trkpt>
      <trkpt lat="43.59605" lon="2.96018">
        <ele>910.6</ele>
        <time>2026-05-07T09:45:46.999Z</time>
      </trkpt>
      <trkpt lat="43.59605" lon="2.96018">
        <ele>910.6</ele>
        <time>2026-05-07T09:45:47.999Z</time>
      </trkpt>
      <trkpt lat="43.59606" lon="2.96019">
        <ele>910.6</ele>
        <time>2026-05-07T09:45:48.999Z</time>
      </trkpt>
      <trkpt lat="43.59605" lon="2.96018">
        <ele>910.8</ele>
        <time>2026-05-07T09:45:49.999Z</time>
      </trkpt>
      <trkpt lat="43.59606" lon="2.96019">
        <ele>910.8</ele>
        <time>2026-05-07T09:45:50.999Z</time>
      </trkpt>
      <trkpt lat="43.59605" lon="2.9602">
        <ele>910.8</ele>
        <time>2026-05-07T09:45:51.999Z</time>
      </trkpt>
      <trkpt lat="43.59606" lon="2.9602">
        <ele>911.1</ele>
        <time>2026-05-07T09:45:52.999Z</time>
      </trkpt>
      <trkpt lat="43.59606" lon="2.96019">
        <ele>911</ele>
        <time>2026-05-07T09:45:53.999Z</time>
      </trkpt>
      <trkpt lat="43.59606" lon="2.96019">
        <ele>911.1</ele>
        <time>2026-05-07T09:45:54.999Z</time>
      </trkpt>
      <trkpt lat="43.59606" lon="2.96019">
        <ele>911.3</ele>
        <time>2026-05-07T09:45:55.999Z</time>
      </trkpt>
      <trkpt lat="43.59606" lon="2.96018">
        <ele>911.5</ele>
        <time>2026-05-07T09:45:56.999Z</time>
      </trkpt>
      <trkpt lat="43.59607" lon="2.96018">
        <ele>912.4</ele>
        <time>2026-05-07T09:45:57.999Z</time>
      </trkpt>
      <trkpt lat="43.59607" lon="2.96018">
        <ele>913</ele>
        <time>2026-05-07T09:45:58.999Z</time>
      </trkpt>
      <trkpt lat="43.59608" lon="2.96019">
        <ele>912.9</ele>
        <time>2026-05-07T09:45:59.999Z</time>
      </trkpt>
      <trkpt lat="43.59609" lon="2.96019">
        <ele>913</ele>
        <time>2026-05-07T09:46:00.999Z</time>
      </trkpt>
      <trkpt lat="43.59609" lon="2.96021">
        <ele>913</ele>
        <time>2026-05-07T09:46:01.999Z</time>
      </trkpt>
      <trkpt lat="43.5961" lon="2.96022">
        <ele>913.4</ele>
        <time>2026-05-07T09:46:02.999Z</time>
      </trkpt>
      <trkpt lat="43.59609" lon="2.96021">
        <ele>914</ele>
        <time>2026-05-07T09:46:03.999Z</time>
      </trkpt>
      <trkpt lat="43.59609" lon="2.9602">
        <ele>915</ele>
        <time>2026-05-07T09:46:04.999Z</time>
      </trkpt>
      <trkpt lat="43.59609" lon="2.96019">
        <ele>915.3</ele>
        <time>2026-05-07T09:46:05.999Z</time>
      </trkpt>
      <trkpt lat="43.59609" lon="2.96019">
        <ele>915.6</ele>
        <time>2026-05-07T09:46:06.999Z</time>
      </trkpt>
      <trkpt lat="43.59609" lon="2.96018">
        <ele>916.8</ele>
        <time>2026-05-07T09:46:07.999Z</time>
      </trkpt>
      <trkpt lat="43.59609" lon="2.96018">
        <ele>916.9</ele>
        <time>2026-05-07T09:46:08.999Z</time>
      </trkpt>
      <trkpt lat="43.59609" lon="2.96018">
        <ele>916.9</ele>
        <time>2026-05-07T09:46:09.999Z</time>
      </trkpt>
      <trkpt lat="43.59609" lon="2.96019">
        <ele>917</ele>
        <time>2026-05-07T09:46:10.999Z</time>
      </trkpt>
      <trkpt lat="43.5961" lon="2.9602">
        <ele>916.9</ele>
        <time>2026-05-07T09:46:11.999Z</time>
      </trkpt>
      <trkpt lat="43.5961" lon="2.9602">
        <ele>916.9</ele>
        <time>2026-05-07T09:46:12.999Z</time>
      </trkpt>
      <trkpt lat="43.5961" lon="2.96021">
        <ele>916.9</ele>
        <time>2026-05-07T09:46:13.999Z</time>
      </trkpt>
      <trkpt lat="43.59611" lon="2.96021">
        <ele>916.8</ele>
        <time>2026-05-07T09:46:14.999Z</time>
      </trkpt>
      <trkpt lat="43.59611" lon="2.96022">
        <ele>916.8</ele>
        <time>2026-05-07T09:46:15.999Z</time>
      </trkpt>
      <trkpt lat="43.59611" lon="2.96023">
        <ele>916.8</ele>
        <time>2026-05-07T09:46:16.999Z</time>
      </trkpt>
      <trkpt lat="43.59611" lon="2.96022">
        <ele>916.4</ele>
        <time>2026-05-07T09:46:17.999Z</time>
      </trkpt>
      <trkpt lat="43.59612" lon="2.96023">
        <ele>916.3</ele>
        <time>2026-05-07T09:46:18.999Z</time>
      </trkpt>
      <trkpt lat="43.59612" lon="2.96023">
        <ele>916.2</ele>
        <time>2026-05-07T09:46:19.999Z</time>
      </trkpt>
      <trkpt lat="43.59611" lon="2.96023">
        <ele>916.1</ele>
        <time>2026-05-07T09:46:20.999Z</time>
      </trkpt>
      <trkpt lat="43.59611" lon="2.96022">
        <ele>916</ele>
        <time>2026-05-07T09:46:21.999Z</time>
      </trkpt>
      <trkpt lat="43.59611" lon="2.96022">
        <ele>915.9</ele>
        <time>2026-05-07T09:46:22.999Z</time>
      </trkpt>
      <trkpt lat="43.59611" lon="2.96022">
        <ele>915.8</ele>
        <time>2026-05-07T09:46:23.999Z</time>
      </trkpt>
      <trkpt lat="43.59611" lon="2.96022">
        <ele>915.8</ele>
        <time>2026-05-07T09:46:24.999Z</time>
      </trkpt>
      <trkpt lat="43.5961" lon="2.96021">
        <ele>915.7</ele>
        <time>2026-05-07T09:46:25.999Z</time>
      </trkpt>
      <trkpt lat="43.5961" lon="2.96021">
        <ele>915.7</ele>
        <time>2026-05-07T09:46:26.999Z</time>
      </trkpt>
      <trkpt lat="43.5961" lon="2.96022">
        <ele>915.6</ele>
        <time>2026-05-07T09:46:27.999Z</time>
      </trkpt>
      <trkpt lat="43.5961" lon="2.96022">
        <ele>915.5</ele>
        <time>2026-05-07T09:46:28.999Z</time>
      </trkpt>
      <trkpt lat="43.59609" lon="2.96021">
        <ele>915.5</ele>
        <time>2026-05-07T09:46:29.999Z</time>
      </trkpt>
      <trkpt lat="43.59609" lon="2.96021">
        <ele>915.8</ele>
        <time>2026-05-07T09:46:30.999Z</time>
      </trkpt>
      <trkpt lat="43.59609" lon="2.96021">
        <ele>916</ele>
        <time>2026-05-07T09:46:31.999Z</time>
      </trkpt>
      <trkpt lat="43.59609" lon="2.96021">
        <ele>916</ele>
        <time>2026-05-07T09:46:32.999Z</time>
      </trkpt>
      <trkpt lat="43.59608" lon="2.9602">
        <ele>916</ele>
        <time>2026-05-07T09:46:33.999Z</time>
      </trkpt>
      <trkpt lat="43.59607" lon="2.96019">
        <ele>916.3</ele>
        <time>2026-05-07T09:46:34.999Z</time>
      </trkpt>
      <trkpt lat="43.59607" lon="2.96019">
        <ele>916.4</ele>
        <time>2026-05-07T09:46:35.999Z</time>
      </trkpt>
      <trkpt lat="43.59607" lon="2.9602">
        <ele>916.4</ele>
        <time>2026-05-07T09:46:36.999Z</time>
      </trkpt>
      <trkpt lat="43.59608" lon="2.9602">
        <ele>916.6</ele>
        <time>2026-05-07T09:46:37.999Z</time>
      </trkpt>
      <trkpt lat="43.5961" lon="2.96023">
        <ele>917.4</ele>
        <time>2026-05-07T09:46:38.999Z</time>
      </trkpt>
      <trkpt lat="43.59611" lon="2.96024">
        <ele>917.6</ele>
        <time>2026-05-07T09:46:39.999Z</time>
      </trkpt>
      <trkpt lat="43.59612" lon="2.96025">
        <ele>917.8</ele>
        <time>2026-05-07T09:46:40.999Z</time>
      </trkpt>
      <trkpt lat="43.59613" lon="2.96025">
        <ele>918.2</ele>
        <time>2026-05-07T09:46:41.999Z</time>
      </trkpt>
      <trkpt lat="43.59614" lon="2.96025">
        <ele>918.3</ele>
        <time>2026-05-07T09:46:42.999Z</time>
      </trkpt>
      <trkpt lat="43.59613" lon="2.96027">
        <ele>918.5</ele>
        <time>2026-05-07T09:46:43.999Z</time>
      </trkpt>
      <trkpt lat="43.59614" lon="2.96028">
        <ele>918.7</ele>
        <time>2026-05-07T09:46:44.999Z</time>
      </trkpt>
      <trkpt lat="43.59615" lon="2.96029">
        <ele>919.2</ele>
        <time>2026-05-07T09:46:45.999Z</time>
      </trkpt>
      <trkpt lat="43.59616" lon="2.96029">
        <ele>919.6</ele>
        <time>2026-05-07T09:46:46.999Z</time>
      </trkpt>
      <trkpt lat="43.59617" lon="2.96029">
        <ele>920.2</ele>
        <time>2026-05-07T09:46:47.999Z</time>
      </trkpt>
      <trkpt lat="43.59618" lon="2.96029">
        <ele>920.6</ele>
        <time>2026-05-07T09:46:48.999Z</time>
      </trkpt>
      <trkpt lat="43.59618" lon="2.96029">
        <ele>920.9</ele>
        <time>2026-05-07T09:46:49.999Z</time>
      </trkpt>
      <trkpt lat="43.59619" lon="2.96029">
        <ele>921.4</ele>
        <time>2026-05-07T09:46:50.999Z</time>
      </trkpt>
      <trkpt lat="43.5962" lon="2.9603">
        <ele>920.4</ele>
        <time>2026-05-07T09:46:51.999Z</time>
      </trkpt>
      <trkpt lat="43.59621" lon="2.9603">
        <ele>920.6</ele>
        <time>2026-05-07T09:46:52.999Z</time>
      </trkpt>
      <trkpt lat="43.59622" lon="2.9603">
        <ele>920.4</ele>
        <time>2026-05-07T09:46:53.999Z</time>
      </trkpt>
      <trkpt lat="43.59622" lon="2.96031">
        <ele>920.3</ele>
        <time>2026-05-07T09:46:54.999Z</time>
      </trkpt>
      <trkpt lat="43.59622" lon="2.96031">
        <ele>919.9</ele>
        <time>2026-05-07T09:46:55.999Z</time>
      </trkpt>
      <trkpt lat="43.59623" lon="2.96031">
        <ele>919.8</ele>
        <time>2026-05-07T09:46:56.999Z</time>
      </trkpt>
      <trkpt lat="43.59623" lon="2.96032">
        <ele>919.6</ele>
        <time>2026-05-07T09:46:57.999Z</time>
      </trkpt>
      <trkpt lat="43.59623" lon="2.96033">
        <ele>918.9</ele>
        <time>2026-05-07T09:46:59.999Z</time>
      </trkpt>
      <trkpt lat="43.59623" lon="2.96033">
        <ele>918.9</ele>
        <time>2026-05-07T09:47:00.999Z</time>
      </trkpt>
      <trkpt lat="43.59624" lon="2.96034">
        <ele>918.3</ele>
        <time>2026-05-07T09:47:01.999Z</time>
      </trkpt>
      <trkpt lat="43.59623" lon="2.96034">
        <ele>917.6</ele>
        <time>2026-05-07T09:47:02.999Z</time>
      </trkpt>
      <trkpt lat="43.59623" lon="2.96034">
        <ele>917.1</ele>
        <time>2026-05-07T09:47:03.999Z</time>
      </trkpt>
      <trkpt lat="43.59622" lon="2.96034">
        <ele>916.8</ele>
        <time>2026-05-07T09:47:04.999Z</time>
      </trkpt>
      <trkpt lat="43.59622" lon="2.96036">
        <ele>917</ele>
        <time>2026-05-07T09:47:05.999Z</time>
      </trkpt>
      <trkpt lat="43.59622" lon="2.96035">
        <ele>917.2</ele>
        <time>2026-05-07T09:47:06.999Z</time>
      </trkpt>
      <trkpt lat="43.59622" lon="2.96036">
        <ele>917.4</ele>
        <time>2026-05-07T09:47:07.999Z</time>
      </trkpt>
      <trkpt lat="43.59622" lon="2.96036">
        <ele>917.8</ele>
        <time>2026-05-07T09:47:08.999Z</time>
      </trkpt>
      <trkpt lat="43.59622" lon="2.96038">
        <ele>917.9</ele>
        <time>2026-05-07T09:47:10.999Z</time>
      </trkpt>
      <trkpt lat="43.59621" lon="2.96038">
        <ele>918.2</ele>
        <time>2026-05-07T09:47:11.999Z</time>
      </trkpt>
      <trkpt lat="43.59622" lon="2.96038">
        <ele>918.9</ele>
        <time>2026-05-07T09:47:12.999Z</time>
      </trkpt>
      <trkpt lat="43.59622" lon="2.96039">
        <ele>919.5</ele>
        <time>2026-05-07T09:47:13.999Z</time>
      </trkpt>
      <trkpt lat="43.59621" lon="2.96039">
        <ele>919</ele>
        <time>2026-05-07T09:47:14.999Z</time>
      </trkpt>
      <trkpt lat="43.59622" lon="2.9604">
        <ele>919.6</ele>
        <time>2026-05-07T09:47:15.999Z</time>
      </trkpt>
      <trkpt lat="43.59622" lon="2.9604">
        <ele>920.1</ele>
        <time>2026-05-07T09:47:16.999Z</time>
      </trkpt>
      <trkpt lat="43.59623" lon="2.96041">
        <ele>920.4</ele>
        <time>2026-05-07T09:47:18.999Z</time>
      </trkpt>
      <trkpt lat="43.59623" lon="2.96043">
        <ele>920.3</ele>
        <time>2026-05-07T09:47:19.999Z</time>
      </trkpt>
      <trkpt lat="43.59623" lon="2.96044">
        <ele>920.8</ele>
        <time>2026-05-07T09:47:20.999Z</time>
      </trkpt>
      <trkpt lat="43.59623" lon="2.96046">
        <ele>921.4</ele>
        <time>2026-05-07T09:47:21.999Z</time>
      </trkpt>
      <trkpt lat="43.59623" lon="2.96046">
        <ele>921.6</ele>
        <time>2026-05-07T09:47:22.999Z</time>
      </trkpt>
      <trkpt lat="43.59622" lon="2.96045">
        <ele>921.2</ele>
        <time>2026-05-07T09:47:23.999Z</time>
      </trkpt>
      <trkpt lat="43.59621" lon="2.96045">
        <ele>921.5</ele>
        <time>2026-05-07T09:47:24.999Z</time>
      </trkpt>
      <trkpt lat="43.59621" lon="2.96046">
        <ele>922.2</ele>
        <time>2026-05-07T09:47:25.999Z</time>
      </trkpt>
      <trkpt lat="43.59624" lon="2.96045">
        <ele>924.3</ele>
        <time>2026-05-07T09:47:26.999Z</time>
      </trkpt>
      <trkpt lat="43.59623" lon="2.96045">
        <ele>924.2</ele>
        <time>2026-05-07T09:47:27.999Z</time>
      </trkpt>
      <trkpt lat="43.59622" lon="2.96044">
        <ele>924.1</ele>
        <time>2026-05-07T09:47:28.999Z</time>
      </trkpt>
      <trkpt lat="43.59623" lon="2.96043">
        <ele>926</ele>
        <time>2026-05-07T09:47:29.999Z</time>
      </trkpt>
      <trkpt lat="43.59623" lon="2.96043">
        <ele>925.8</ele>
        <time>2026-05-07T09:47:30.999Z</time>
      </trkpt>
      <trkpt lat="43.59622" lon="2.96043">
        <ele>924.8</ele>
        <time>2026-05-07T09:47:31.999Z</time>
      </trkpt>
      <trkpt lat="43.59622" lon="2.96045">
        <ele>925.2</ele>
        <time>2026-05-07T09:47:32.999Z</time>
      </trkpt>
      <trkpt lat="43.59621" lon="2.96045">
        <ele>927.9</ele>
        <time>2026-05-07T09:47:33.999Z</time>
      </trkpt>
      <trkpt lat="43.59621" lon="2.96046">
        <ele>927.6</ele>
        <time>2026-05-07T09:47:34.999Z</time>
      </trkpt>
      <trkpt lat="43.59621" lon="2.96047">
        <ele>926.7</ele>
        <time>2026-05-07T09:47:35.999Z</time>
      </trkpt>
      <trkpt lat="43.59621" lon="2.96048">
        <ele>926.4</ele>
        <time>2026-05-07T09:47:36.999Z</time>
      </trkpt>
      <trkpt lat="43.59621" lon="2.96048">
        <ele>927.9</ele>
        <time>2026-05-07T09:47:37.999Z</time>
      </trkpt>
      <trkpt lat="43.59621" lon="2.96048">
        <ele>927.6</ele>
        <time>2026-05-07T09:47:38.999Z</time>
      </trkpt>
      <trkpt lat="43.59621" lon="2.96048">
        <ele>927.3</ele>
        <time>2026-05-07T09:47:39.999Z</time>
      </trkpt>
      <trkpt lat="43.59621" lon="2.96048">
        <ele>926.7</ele>
        <time>2026-05-07T09:47:40.999Z</time>
      </trkpt>
      <trkpt lat="43.59621" lon="2.96048">
        <ele>926.5</ele>
        <time>2026-05-07T09:47:41.999Z</time>
      </trkpt>
      <trkpt lat="43.59623" lon="2.96048">
        <ele>925.9</ele>
        <time>2026-05-07T09:47:42.999Z</time>
      </trkpt>
      <trkpt lat="43.59624" lon="2.96048">
        <ele>925.5</ele>
        <time>2026-05-07T09:47:43.999Z</time>
      </trkpt>
      <trkpt lat="43.59625" lon="2.96047">
        <ele>925.1</ele>
        <time>2026-05-07T09:47:44.999Z</time>
      </trkpt>
      <trkpt lat="43.59626" lon="2.96047">
        <ele>925.1</ele>
        <time>2026-05-07T09:47:45.999Z</time>
      </trkpt>
      <trkpt lat="43.59627" lon="2.96047">
        <ele>925.1</ele>
        <time>2026-05-07T09:47:46.999Z</time>
      </trkpt>
      <trkpt lat="43.59628" lon="2.96047">
        <ele>924.9</ele>
        <time>2026-05-07T09:47:47.999Z</time>
      </trkpt>
      <trkpt lat="43.59629" lon="2.96048">
        <ele>924.6</ele>
        <time>2026-05-07T09:47:48.999Z</time>
      </trkpt>
      <trkpt lat="43.5963" lon="2.96048">
        <ele>924.7</ele>
        <time>2026-05-07T09:47:49.999Z</time>
      </trkpt>
      <trkpt lat="43.5963" lon="2.96048">
        <ele>924.5</ele>
        <time>2026-05-07T09:47:50.999Z</time>
      </trkpt>
      <trkpt lat="43.59631" lon="2.96049">
        <ele>923.6</ele>
        <time>2026-05-07T09:47:51.999Z</time>
      </trkpt>
      <trkpt lat="43.59633" lon="2.96049">
        <ele>923.6</ele>
        <time>2026-05-07T09:47:52.999Z</time>
      </trkpt>
      <trkpt lat="43.59633" lon="2.9605">
        <ele>923.7</ele>
        <time>2026-05-07T09:47:53.999Z</time>
      </trkpt>
      <trkpt lat="43.59634" lon="2.9605">
        <ele>923.8</ele>
        <time>2026-05-07T09:47:54.999Z</time>
      </trkpt>
      <trkpt lat="43.59634" lon="2.9605">
        <ele>924.2</ele>
        <time>2026-05-07T09:47:55.999Z</time>
      </trkpt>
      <trkpt lat="43.59634" lon="2.9605">
        <ele>924.2</ele>
        <time>2026-05-07T09:47:56.999Z</time>
      </trkpt>
      <trkpt lat="43.59634" lon="2.9605">
        <ele>924.5</ele>
        <time>2026-05-07T09:47:57.999Z</time>
      </trkpt>
      <trkpt lat="43.59635" lon="2.96051">
        <ele>925.5</ele>
        <time>2026-05-07T09:47:58.999Z</time>
      </trkpt>
      <trkpt lat="43.59636" lon="2.96051">
        <ele>926</ele>
        <time>2026-05-07T09:47:59.999Z</time>
      </trkpt>
      <trkpt lat="43.59636" lon="2.96052">
        <ele>926.3</ele>
        <time>2026-05-07T09:48:00.999Z</time>
      </trkpt>
      <trkpt lat="43.59637" lon="2.96052">
        <ele>926.6</ele>
        <time>2026-05-07T09:48:01.999Z</time>
      </trkpt>
      <trkpt lat="43.59638" lon="2.96053">
        <ele>927.1</ele>
        <time>2026-05-07T09:48:02.999Z</time>
      </trkpt>
      <trkpt lat="43.59639" lon="2.96052">
        <ele>927.3</ele>
        <time>2026-05-07T09:48:03.999Z</time>
      </trkpt>
      <trkpt lat="43.59639" lon="2.96052">
        <ele>927.6</ele>
        <time>2026-05-07T09:48:04.999Z</time>
      </trkpt>
      <trkpt lat="43.59641" lon="2.96052">
        <ele>928.9</ele>
        <time>2026-05-07T09:48:05.999Z</time>
      </trkpt>
      <trkpt lat="43.59642" lon="2.96052">
        <ele>929.9</ele>
        <time>2026-05-07T09:48:06.999Z</time>
      </trkpt>
      <trkpt lat="43.59642" lon="2.96052">
        <ele>930.5</ele>
        <time>2026-05-07T09:48:07.999Z</time>
      </trkpt>
      <trkpt lat="43.59642" lon="2.96052">
        <ele>930.8</ele>
        <time>2026-05-07T09:48:08.999Z</time>
      </trkpt>
      <trkpt lat="43.59643" lon="2.96053">
        <ele>931.2</ele>
        <time>2026-05-07T09:48:09.999Z</time>
      </trkpt>
      <trkpt lat="43.59644" lon="2.96053">
        <ele>931.6</ele>
        <time>2026-05-07T09:48:10.999Z</time>
      </trkpt>
      <trkpt lat="43.59645" lon="2.96053">
        <ele>931.6</ele>
        <time>2026-05-07T09:48:11.999Z</time>
      </trkpt>
      <trkpt lat="43.59646" lon="2.96052">
        <ele>931.6</ele>
        <time>2026-05-07T09:48:12.999Z</time>
      </trkpt>
      <trkpt lat="43.59647" lon="2.96052">
        <ele>931.4</ele>
        <time>2026-05-07T09:48:13.999Z</time>
      </trkpt>
      <trkpt lat="43.59647" lon="2.96053">
        <ele>931.3</ele>
        <time>2026-05-07T09:48:14.999Z</time>
      </trkpt>
      <trkpt lat="43.59647" lon="2.96053">
        <ele>931.8</ele>
        <time>2026-05-07T09:48:15.999Z</time>
      </trkpt>
      <trkpt lat="43.59647" lon="2.96053">
        <ele>931.9</ele>
        <time>2026-05-07T09:48:16.999Z</time>
      </trkpt>
      <trkpt lat="43.59647" lon="2.96053">
        <ele>931.9</ele>
        <time>2026-05-07T09:48:17.999Z</time>
      </trkpt>
      <trkpt lat="43.59647" lon="2.96052">
        <ele>931.9</ele>
        <time>2026-05-07T09:48:18.999Z</time>
      </trkpt>
      <trkpt lat="43.59647" lon="2.96052">
        <ele>931.9</ele>
        <time>2026-05-07T09:48:19.999Z</time>
      </trkpt>
      <trkpt lat="43.59647" lon="2.96052">
        <ele>931.9</ele>
        <time>2026-05-07T09:48:20.999Z</time>
      </trkpt>
      <trkpt lat="43.59647" lon="2.96051">
        <ele>931.9</ele>
        <time>2026-05-07T09:48:21.999Z</time>
      </trkpt>
      <trkpt lat="43.59647" lon="2.96051">
        <ele>931.9</ele>
        <time>2026-05-07T09:48:22.999Z</time>
      </trkpt>
      <trkpt lat="43.59647" lon="2.96051">
        <ele>931.7</ele>
        <time>2026-05-07T09:48:23.999Z</time>
      </trkpt>
      <trkpt lat="43.59647" lon="2.96051">
        <ele>931.6</ele>
        <time>2026-05-07T09:48:24.999Z</time>
      </trkpt>
      <trkpt lat="43.59647" lon="2.96051">
        <ele>931.8</ele>
        <time>2026-05-07T09:48:25.999Z</time>
      </trkpt>
      <trkpt lat="43.59647" lon="2.96051">
        <ele>932</ele>
        <time>2026-05-07T09:48:26.999Z</time>
      </trkpt>
      <trkpt lat="43.59647" lon="2.96051">
        <ele>932.1</ele>
        <time>2026-05-07T09:48:27.999Z</time>
      </trkpt>
      <trkpt lat="43.59648" lon="2.96051">
        <ele>932.1</ele>
        <time>2026-05-07T09:48:28.999Z</time>
      </trkpt>
      <trkpt lat="43.59648" lon="2.96051">
        <ele>932.3</ele>
        <time>2026-05-07T09:48:29.999Z</time>
      </trkpt>
      <trkpt lat="43.59648" lon="2.96051">
        <ele>932.2</ele>
        <time>2026-05-07T09:48:31.000Z</time>
      </trkpt>
      <trkpt lat="43.59648" lon="2.96051">
        <ele>931.8</ele>
        <time>2026-05-07T09:48:32.000Z</time>
      </trkpt>
      <trkpt lat="43.59648" lon="2.9605">
        <ele>931.9</ele>
        <time>2026-05-07T09:48:33.000Z</time>
      </trkpt>
      <trkpt lat="43.59648" lon="2.96051">
        <ele>931.7</ele>
        <time>2026-05-07T09:48:34.000Z</time>
      </trkpt>
      <trkpt lat="43.59648" lon="2.96051">
        <ele>931.6</ele>
        <time>2026-05-07T09:48:35.000Z</time>
      </trkpt>
      <trkpt lat="43.59648" lon="2.9605">
        <ele>931.6</ele>
        <time>2026-05-07T09:48:36.000Z</time>
      </trkpt>
      <trkpt lat="43.59649" lon="2.96051">
        <ele>931.9</ele>
        <time>2026-05-07T09:48:37.000Z</time>
      </trkpt>
      <trkpt lat="43.59649" lon="2.96052">
        <ele>932.3</ele>
        <time>2026-05-07T09:48:38.000Z</time>
      </trkpt>
      <trkpt lat="43.5965" lon="2.96052">
        <ele>932.5</ele>
        <time>2026-05-07T09:48:39.000Z</time>
      </trkpt>
      <trkpt lat="43.5965" lon="2.96052">
        <ele>933.1</ele>
        <time>2026-05-07T09:48:40.000Z</time>
      </trkpt>
      <trkpt lat="43.5965" lon="2.96052">
        <ele>933</ele>
        <time>2026-05-07T09:48:41.000Z</time>
      </trkpt>
      <trkpt lat="43.5965" lon="2.96052">
        <ele>933.2</ele>
        <time>2026-05-07T09:48:42.000Z</time>
      </trkpt>
      <trkpt lat="43.5965" lon="2.96052">
        <ele>933.5</ele>
        <time>2026-05-07T09:48:43.000Z</time>
      </trkpt>
      <trkpt lat="43.5965" lon="2.96052">
        <ele>933.7</ele>
        <time>2026-05-07T09:48:44.000Z</time>
      </trkpt>
      <trkpt lat="43.5965" lon="2.96052">
        <ele>933.9</ele>
        <time>2026-05-07T09:48:45.000Z</time>
      </trkpt>
      <trkpt lat="43.5965" lon="2.96052">
        <ele>934.3</ele>
        <time>2026-05-07T09:48:46.000Z</time>
      </trkpt>
      <trkpt lat="43.5965" lon="2.96052">
        <ele>934.7</ele>
        <time>2026-05-07T09:48:47.000Z</time>
      </trkpt>
      <trkpt lat="43.5965" lon="2.96052">
        <ele>934.7</ele>
        <time>2026-05-07T09:48:48.000Z</time>
      </trkpt>
      <trkpt lat="43.5965" lon="2.96052">
        <ele>934.9</ele>
        <time>2026-05-07T09:48:49.000Z</time>
      </trkpt>
      <trkpt lat="43.5965" lon="2.96052">
        <ele>935.2</ele>
        <time>2026-05-07T09:48:50.000Z</time>
      </trkpt>
      <trkpt lat="43.59651" lon="2.96053">
        <ele>935.1</ele>
        <time>2026-05-07T09:48:51.000Z</time>
      </trkpt>
      <trkpt lat="43.59651" lon="2.96053">
        <ele>935.7</ele>
        <time>2026-05-07T09:48:52.000Z</time>
      </trkpt>
      <trkpt lat="43.59651" lon="2.96053">
        <ele>936.1</ele>
        <time>2026-05-07T09:48:53.000Z</time>
      </trkpt>
      <trkpt lat="43.59651" lon="2.96053">
        <ele>936.4</ele>
        <time>2026-05-07T09:48:54.000Z</time>
      </trkpt>
      <trkpt lat="43.59651" lon="2.96053">
        <ele>936.4</ele>
        <time>2026-05-07T09:48:55.000Z</time>
      </trkpt>
      <trkpt lat="43.59651" lon="2.96053">
        <ele>936.4</ele>
        <time>2026-05-07T09:48:56.000Z</time>
      </trkpt>
      <trkpt lat="43.5965" lon="2.96053">
        <ele>936.2</ele>
        <time>2026-05-07T09:48:57.000Z</time>
      </trkpt>
      <trkpt lat="43.5965" lon="2.96053">
        <ele>936.1</ele>
        <time>2026-05-07T09:48:58.000Z</time>
      </trkpt>
      <trkpt lat="43.59651" lon="2.96053">
        <ele>935.9</ele>
        <time>2026-05-07T09:48:59.000Z</time>
      </trkpt>
      <trkpt lat="43.59651" lon="2.96053">
        <ele>936</ele>
        <time>2026-05-07T09:49:00.000Z</time>
      </trkpt>
      <trkpt lat="43.59651" lon="2.96053">
        <ele>936.1</ele>
        <time>2026-05-07T09:49:01.000Z</time>
      </trkpt>
      <trkpt lat="43.59651" lon="2.96053">
        <ele>936.4</ele>
        <time>2026-05-07T09:49:02.000Z</time>
      </trkpt>
      <trkpt lat="43.59651" lon="2.96053">
        <ele>937</ele>
        <time>2026-05-07T09:49:03.000Z</time>
      </trkpt>
      <trkpt lat="43.59651" lon="2.96053">
        <ele>937.5</ele>
        <time>2026-05-07T09:49:04.000Z</time>
      </trkpt>
      <trkpt lat="43.59651" lon="2.96053">
        <ele>937.4</ele>
        <time>2026-05-07T09:49:05.000Z</time>
      </trkpt>
      <trkpt lat="43.59651" lon="2.96053">
        <ele>937.3</ele>
        <time>2026-05-07T09:49:06.000Z</time>
      </trkpt>
      <trkpt lat="43.59651" lon="2.96053">
        <ele>937.5</ele>
        <time>2026-05-07T09:49:07.000Z</time>
      </trkpt>
      <trkpt lat="43.59651" lon="2.96054">
        <ele>937.5</ele>
        <time>2026-05-07T09:49:08.000Z</time>
      </trkpt>
      <trkpt lat="43.59651" lon="2.96055">
        <ele>937.6</ele>
        <time>2026-05-07T09:49:09.000Z</time>
      </trkpt>
      <trkpt lat="43.59651" lon="2.96056">
        <ele>938</ele>
        <time>2026-05-07T09:49:10.000Z</time>
      </trkpt>
      <trkpt lat="43.59651" lon="2.96056">
        <ele>938.4</ele>
        <time>2026-05-07T09:49:11.000Z</time>
      </trkpt>
      <trkpt lat="43.59651" lon="2.96056">
        <ele>939</ele>
        <time>2026-05-07T09:49:12.000Z</time>
      </trkpt>
      <trkpt lat="43.59652" lon="2.96056">
        <ele>939.4</ele>
        <time>2026-05-07T09:49:13.000Z</time>
      </trkpt>
      <trkpt lat="43.59652" lon="2.96056">
        <ele>939.5</ele>
        <time>2026-05-07T09:49:14.000Z</time>
      </trkpt>
      <trkpt lat="43.59652" lon="2.96056">
        <ele>939.7</ele>
        <time>2026-05-07T09:49:15.000Z</time>
      </trkpt>
      <trkpt lat="43.59652" lon="2.96056">
        <ele>940.2</ele>
        <time>2026-05-07T09:49:16.000Z</time>
      </trkpt>
      <trkpt lat="43.59652" lon="2.96056">
        <ele>940.6</ele>
        <time>2026-05-07T09:49:17.000Z</time>
      </trkpt>
      <trkpt lat="43.59652" lon="2.96056">
        <ele>940.6</ele>
        <time>2026-05-07T09:49:18.000Z</time>
      </trkpt>
      <trkpt lat="43.59652" lon="2.96056">
        <ele>941</ele>
        <time>2026-05-07T09:49:19.000Z</time>
      </trkpt>
      <trkpt lat="43.59652" lon="2.96057">
        <ele>941.4</ele>
        <time>2026-05-07T09:49:20.000Z</time>
      </trkpt>
      <trkpt lat="43.59653" lon="2.96057">
        <ele>941.6</ele>
        <time>2026-05-07T09:49:21.000Z</time>
      </trkpt>
      <trkpt lat="43.59653" lon="2.96058">
        <ele>941.8</ele>
        <time>2026-05-07T09:49:22.000Z</time>
      </trkpt>
      <trkpt lat="43.59654" lon="2.96058">
        <ele>941.7</ele>
        <time>2026-05-07T09:49:23.000Z</time>
      </trkpt>
      <trkpt lat="43.59654" lon="2.96058">
        <ele>941.6</ele>
        <time>2026-05-07T09:49:24.000Z</time>
      </trkpt>
      <trkpt lat="43.59654" lon="2.96058">
        <ele>941.6</ele>
        <time>2026-05-07T09:49:25.000Z</time>
      </trkpt>
      <trkpt lat="43.59654" lon="2.96058">
        <ele>941.7</ele>
        <time>2026-05-07T09:49:26.000Z</time>
      </trkpt>
      <trkpt lat="43.59654" lon="2.96058">
        <ele>941.5</ele>
        <time>2026-05-07T09:49:27.000Z</time>
      </trkpt>
      <trkpt lat="43.59654" lon="2.96058">
        <ele>941.3</ele>
        <time>2026-05-07T09:49:28.000Z</time>
      </trkpt>
      <trkpt lat="43.59656" lon="2.96057">
        <ele>941.1</ele>
        <time>2026-05-07T09:49:29.000Z</time>
      </trkpt>
      <trkpt lat="43.59657" lon="2.96058">
        <ele>941</ele>
        <time>2026-05-07T09:49:30.000Z</time>
      </trkpt>
      <trkpt lat="43.59657" lon="2.96059">
        <ele>941.1</ele>
        <time>2026-05-07T09:49:31.000Z</time>
      </trkpt>
      <trkpt lat="43.59657" lon="2.9606">
        <ele>941.1</ele>
        <time>2026-05-07T09:49:32.000Z</time>
      </trkpt>
      <trkpt lat="43.59658" lon="2.9606">
        <ele>941.1</ele>
        <time>2026-05-07T09:49:33.000Z</time>
      </trkpt>
      <trkpt lat="43.59658" lon="2.9606">
        <ele>941</ele>
        <time>2026-05-07T09:49:34.000Z</time>
      </trkpt>
      <trkpt lat="43.59659" lon="2.9606">
        <ele>940.9</ele>
        <time>2026-05-07T09:49:35.000Z</time>
      </trkpt>
      <trkpt lat="43.59659" lon="2.96061">
        <ele>940.8</ele>
        <time>2026-05-07T09:49:36.000Z</time>
      </trkpt>
      <trkpt lat="43.59658" lon="2.96061">
        <ele>940.7</ele>
        <time>2026-05-07T09:49:37.000Z</time>
      </trkpt>
      <trkpt lat="43.59657" lon="2.96061">
        <ele>940.5</ele>
        <time>2026-05-07T09:49:38.000Z</time>
      </trkpt>
      <trkpt lat="43.59657" lon="2.96061">
        <ele>939.9</ele>
        <time>2026-05-07T09:49:39.000Z</time>
      </trkpt>
      <trkpt lat="43.59657" lon="2.96061">
        <ele>939.9</ele>
        <time>2026-05-07T09:49:40.000Z</time>
      </trkpt>
      <trkpt lat="43.59657" lon="2.96061">
        <ele>939.6</ele>
        <time>2026-05-07T09:49:41.000Z</time>
      </trkpt>
      <trkpt lat="43.59657" lon="2.96061">
        <ele>939.3</ele>
        <time>2026-05-07T09:49:42.000Z</time>
      </trkpt>
      <trkpt lat="43.59657" lon="2.96061">
        <ele>939</ele>
        <time>2026-05-07T09:49:43.000Z</time>
      </trkpt>
      <trkpt lat="43.59657" lon="2.96062">
        <ele>939.1</ele>
        <time>2026-05-07T09:49:44.000Z</time>
      </trkpt>
      <trkpt lat="43.59657" lon="2.96062">
        <ele>939.1</ele>
        <time>2026-05-07T09:49:45.000Z</time>
      </trkpt>
      <trkpt lat="43.59657" lon="2.96063">
        <ele>939.3</ele>
        <time>2026-05-07T09:49:46.000Z</time>
      </trkpt>
      <trkpt lat="43.59657" lon="2.96063">
        <ele>939.4</ele>
        <time>2026-05-07T09:49:47.000Z</time>
      </trkpt>
      <trkpt lat="43.59657" lon="2.96063">
        <ele>939.2</ele>
        <time>2026-05-07T09:49:48.000Z</time>
      </trkpt>
      <trkpt lat="43.59657" lon="2.96064">
        <ele>939.4</ele>
        <time>2026-05-07T09:49:49.000Z</time>
      </trkpt>
      <trkpt lat="43.59657" lon="2.96063">
        <ele>939.7</ele>
        <time>2026-05-07T09:49:50.000Z</time>
      </trkpt>
      <trkpt lat="43.59657" lon="2.96064">
        <ele>940</ele>
        <time>2026-05-07T09:49:51.000Z</time>
      </trkpt>
      <trkpt lat="43.59657" lon="2.96064">
        <ele>940</ele>
        <time>2026-05-07T09:49:52.000Z</time>
      </trkpt>
      <trkpt lat="43.59657" lon="2.96064">
        <ele>940</ele>
        <time>2026-05-07T09:49:53.000Z</time>
      </trkpt>
      <trkpt lat="43.59657" lon="2.96064">
        <ele>940</ele>
        <time>2026-05-07T09:49:54.000Z</time>
      </trkpt>
      <trkpt lat="43.59657" lon="2.96064">
        <ele>940</ele>
        <time>2026-05-07T09:49:55.000Z</time>
      </trkpt>
      <trkpt lat="43.59657" lon="2.96064">
        <ele>939.9</ele>
        <time>2026-05-07T09:49:56.000Z</time>
      </trkpt>
      <trkpt lat="43.59657" lon="2.96064">
        <ele>939.7</ele>
        <time>2026-05-07T09:49:57.000Z</time>
      </trkpt>
      <trkpt lat="43.59657" lon="2.96064">
        <ele>939.7</ele>
        <time>2026-05-07T09:49:58.000Z</time>
      </trkpt>
      <trkpt lat="43.59657" lon="2.96064">
        <ele>939.7</ele>
        <time>2026-05-07T09:49:59.000Z</time>
      </trkpt>
      <trkpt lat="43.59657" lon="2.96064">
        <ele>939.8</ele>
        <time>2026-05-07T09:50:00.000Z</time>
      </trkpt>
      <trkpt lat="43.59657" lon="2.96064">
        <ele>939.9</ele>
        <time>2026-05-07T09:50:01.000Z</time>
      </trkpt>
      <trkpt lat="43.59657" lon="2.96064">
        <ele>940.2</ele>
        <time>2026-05-07T09:50:02.000Z</time>
      </trkpt>
      <trkpt lat="43.59656" lon="2.96064">
        <ele>940.4</ele>
        <time>2026-05-07T09:50:03.000Z</time>
      </trkpt>
      <trkpt lat="43.59656" lon="2.96064">
        <ele>941.1</ele>
        <time>2026-05-07T09:50:04.000Z</time>
      </trkpt>
      <trkpt lat="43.59657" lon="2.96064">
        <ele>941.8</ele>
        <time>2026-05-07T09:50:05.000Z</time>
      </trkpt>
      <trkpt lat="43.59656" lon="2.96064">
        <ele>942.7</ele>
        <time>2026-05-07T09:50:06.000Z</time>
      </trkpt>
      <trkpt lat="43.59657" lon="2.96065">
        <ele>943.3</ele>
        <time>2026-05-07T09:50:07.000Z</time>
      </trkpt>
      <trkpt lat="43.59656" lon="2.96066">
        <ele>944.1</ele>
        <time>2026-05-07T09:50:08.000Z</time>
      </trkpt>
      <trkpt lat="43.59656" lon="2.96066">
        <ele>944.4</ele>
        <time>2026-05-07T09:50:09.000Z</time>
      </trkpt>
      <trkpt lat="43.59655" lon="2.96065">
        <ele>944.8</ele>
        <time>2026-05-07T09:50:10.000Z</time>
      </trkpt>
      <trkpt lat="43.59654" lon="2.96065">
        <ele>945.2</ele>
        <time>2026-05-07T09:50:11.000Z</time>
      </trkpt>
      <trkpt lat="43.59654" lon="2.96065">
        <ele>945.7</ele>
        <time>2026-05-07T09:50:12.000Z</time>
      </trkpt>
      <trkpt lat="43.59654" lon="2.96065">
        <ele>945.1</ele>
        <time>2026-05-07T09:50:13.000Z</time>
      </trkpt>
      <trkpt lat="43.59654" lon="2.96065">
        <ele>945.5</ele>
        <time>2026-05-07T09:50:14.000Z</time>
      </trkpt>
      <trkpt lat="43.59654" lon="2.96065">
        <ele>945.8</ele>
        <time>2026-05-07T09:50:15.000Z</time>
      </trkpt>
      <trkpt lat="43.59654" lon="2.96065">
        <ele>946.1</ele>
        <time>2026-05-07T09:50:16.000Z</time>
      </trkpt>
      <trkpt lat="43.59654" lon="2.96065">
        <ele>945.8</ele>
        <time>2026-05-07T09:50:17.000Z</time>
      </trkpt>
      <trkpt lat="43.59654" lon="2.96065">
        <ele>946</ele>
        <time>2026-05-07T09:50:18.000Z</time>
      </trkpt>
      <trkpt lat="43.59654" lon="2.96065">
        <ele>946.1</ele>
        <time>2026-05-07T09:50:19.000Z</time>
      </trkpt>
      <trkpt lat="43.59654" lon="2.96065">
        <ele>946.4</ele>
        <time>2026-05-07T09:50:20.000Z</time>
      </trkpt>
      <trkpt lat="43.59654" lon="2.96065">
        <ele>946.6</ele>
        <time>2026-05-07T09:50:21.000Z</time>
      </trkpt>
      <trkpt lat="43.59654" lon="2.96065">
        <ele>946.8</ele>
        <time>2026-05-07T09:50:22.000Z</time>
      </trkpt>
      <trkpt lat="43.59654" lon="2.96065">
        <ele>947.1</ele>
        <time>2026-05-07T09:50:23.000Z</time>
      </trkpt>
      <trkpt lat="43.59654" lon="2.96065">
        <ele>947.3</ele>
        <time>2026-05-07T09:50:24.000Z</time>
      </trkpt>
      <trkpt lat="43.59654" lon="2.96065">
        <ele>947.5</ele>
        <time>2026-05-07T09:50:25.000Z</time>
      </trkpt>
      <trkpt lat="43.59654" lon="2.96065">
        <ele>947.6</ele>
        <time>2026-05-07T09:50:26.000Z</time>
      </trkpt>
      <trkpt lat="43.59654" lon="2.96065">
        <ele>947.7</ele>
        <time>2026-05-07T09:50:27.000Z</time>
      </trkpt>
      <trkpt lat="43.59653" lon="2.96066">
        <ele>948.4</ele>
        <time>2026-05-07T09:50:28.000Z</time>
      </trkpt>
      <trkpt lat="43.59653" lon="2.96066">
        <ele>948.5</ele>
        <time>2026-05-07T09:50:29.000Z</time>
      </trkpt>
      <trkpt lat="43.59653" lon="2.96066">
        <ele>948.2</ele>
        <time>2026-05-07T09:50:30.000Z</time>
      </trkpt>
      <trkpt lat="43.59652" lon="2.96066">
        <ele>948.6</ele>
        <time>2026-05-07T09:50:32.000Z</time>
      </trkpt>
      <trkpt lat="43.59652" lon="2.96067">
        <ele>948.6</ele>
        <time>2026-05-07T09:50:33.000Z</time>
      </trkpt>
      <trkpt lat="43.59651" lon="2.96067">
        <ele>948.6</ele>
        <time>2026-05-07T09:50:34.000Z</time>
      </trkpt>
      <trkpt lat="43.59651" lon="2.96067">
        <ele>948.7</ele>
        <time>2026-05-07T09:50:35.000Z</time>
      </trkpt>
      <trkpt lat="43.59652" lon="2.96068">
        <ele>949.3</ele>
        <time>2026-05-07T09:50:36.000Z</time>
      </trkpt>
      <trkpt lat="43.59652" lon="2.96068">
        <ele>949.5</ele>
        <time>2026-05-07T09:50:37.000Z</time>
      </trkpt>
      <trkpt lat="43.59652" lon="2.96068">
        <ele>949.7</ele>
        <time>2026-05-07T09:50:38.000Z</time>
      </trkpt>
      <trkpt lat="43.59652" lon="2.96068">
        <ele>947.9</ele>
        <time>2026-05-07T09:50:39.000Z</time>
      </trkpt>
      <trkpt lat="43.59652" lon="2.96068">
        <ele>948</ele>
        <time>2026-05-07T09:50:40.000Z</time>
      </trkpt>
      <trkpt lat="43.59651" lon="2.96068">
        <ele>948.2</ele>
        <time>2026-05-07T09:50:41.000Z</time>
      </trkpt>
      <trkpt lat="43.59651" lon="2.96069">
        <ele>948.4</ele>
        <time>2026-05-07T09:50:42.000Z</time>
      </trkpt>
      <trkpt lat="43.59651" lon="2.96069">
        <ele>948.8</ele>
        <time>2026-05-07T09:50:43.000Z</time>
      </trkpt>
      <trkpt lat="43.59651" lon="2.96069">
        <ele>949.1</ele>
        <time>2026-05-07T09:50:44.000Z</time>
      </trkpt>
      <trkpt lat="43.59651" lon="2.96069">
        <ele>949.2</ele>
        <time>2026-05-07T09:50:45.000Z</time>
      </trkpt>
      <trkpt lat="43.59651" lon="2.96068">
        <ele>949.4</ele>
        <time>2026-05-07T09:50:46.000Z</time>
      </trkpt>
      <trkpt lat="43.59651" lon="2.96068">
        <ele>949.2</ele>
        <time>2026-05-07T09:50:47.000Z</time>
      </trkpt>
      <trkpt lat="43.59651" lon="2.96069">
        <ele>949.4</ele>
        <time>2026-05-07T09:50:48.000Z</time>
      </trkpt>
      <trkpt lat="43.5965" lon="2.96069">
        <ele>949.4</ele>
        <time>2026-05-07T09:50:49.000Z</time>
      </trkpt>
      <trkpt lat="43.5965" lon="2.96069">
        <ele>949.3</ele>
        <time>2026-05-07T09:50:50.000Z</time>
      </trkpt>
      <trkpt lat="43.59649" lon="2.96069">
        <ele>950.2</ele>
        <time>2026-05-07T09:50:51.000Z</time>
      </trkpt>
      <trkpt lat="43.5965" lon="2.96069">
        <ele>950.1</ele>
        <time>2026-05-07T09:50:52.000Z</time>
      </trkpt>
      <trkpt lat="43.5965" lon="2.96069">
        <ele>950</ele>
        <time>2026-05-07T09:50:53.000Z</time>
      </trkpt>
      <trkpt lat="43.59649" lon="2.9607">
        <ele>950.1</ele>
        <time>2026-05-07T09:50:54.000Z</time>
      </trkpt>
      <trkpt lat="43.59649" lon="2.96071">
        <ele>950.1</ele>
        <time>2026-05-07T09:50:55.000Z</time>
      </trkpt>
      <trkpt lat="43.59647" lon="2.96072">
        <ele>950.4</ele>
        <time>2026-05-07T09:50:56.000Z</time>
      </trkpt>
      <trkpt lat="43.59646" lon="2.96073">
        <ele>950.6</ele>
        <time>2026-05-07T09:50:57.000Z</time>
      </trkpt>
      <trkpt lat="43.59644" lon="2.96075">
        <ele>950.5</ele>
        <time>2026-05-07T09:50:58.000Z</time>
      </trkpt>
      <trkpt lat="43.59644" lon="2.96075">
        <ele>950.2</ele>
        <time>2026-05-07T09:50:59.000Z</time>
      </trkpt>
      <trkpt lat="43.59644" lon="2.96075">
        <ele>950.3</ele>
        <time>2026-05-07T09:51:00.000Z</time>
      </trkpt>
      <trkpt lat="43.59643" lon="2.96074">
        <ele>950.3</ele>
        <time>2026-05-07T09:51:01.000Z</time>
      </trkpt>
      <trkpt lat="43.59642" lon="2.96075">
        <ele>950.5</ele>
        <time>2026-05-07T09:51:02.000Z</time>
      </trkpt>
      <trkpt lat="43.59641" lon="2.96075">
        <ele>950.3</ele>
        <time>2026-05-07T09:51:03.000Z</time>
      </trkpt>
      <trkpt lat="43.59643" lon="2.96075">
        <ele>950.7</ele>
        <time>2026-05-07T09:51:04.000Z</time>
      </trkpt>
      <trkpt lat="43.59644" lon="2.96075">
        <ele>951.1</ele>
        <time>2026-05-07T09:51:05.000Z</time>
      </trkpt>
      <trkpt lat="43.59644" lon="2.96075">
        <ele>951.1</ele>
        <time>2026-05-07T09:51:06.000Z</time>
      </trkpt>
      <trkpt lat="43.59643" lon="2.96075">
        <ele>953.1</ele>
        <time>2026-05-07T09:51:07.000Z</time>
      </trkpt>
      <trkpt lat="43.59644" lon="2.96075">
        <ele>953.1</ele>
        <time>2026-05-07T09:51:08.000Z</time>
      </trkpt>
      <trkpt lat="43.59644" lon="2.96075">
        <ele>953.2</ele>
        <time>2026-05-07T09:51:09.000Z</time>
      </trkpt>
      <trkpt lat="43.59644" lon="2.96075">
        <ele>953.3</ele>
        <time>2026-05-07T09:51:10.000Z</time>
      </trkpt>
      <trkpt lat="43.59644" lon="2.96075">
        <ele>953.4</ele>
        <time>2026-05-07T09:51:11.000Z</time>
      </trkpt>
      <trkpt lat="43.59644" lon="2.96075">
        <ele>953.2</ele>
        <time>2026-05-07T09:51:12.000Z</time>
      </trkpt>
      <trkpt lat="43.59644" lon="2.96075">
        <ele>952.9</ele>
        <time>2026-05-07T09:51:13.000Z</time>
      </trkpt>
      <trkpt lat="43.59644" lon="2.96075">
        <ele>952.7</ele>
        <time>2026-05-07T09:51:14.000Z</time>
      </trkpt>
      <trkpt lat="43.59644" lon="2.96075">
        <ele>952.2</ele>
        <time>2026-05-07T09:51:15.000Z</time>
      </trkpt>
      <trkpt lat="43.59644" lon="2.96075">
        <ele>952</ele>
        <time>2026-05-07T09:51:16.000Z</time>
      </trkpt>
      <trkpt lat="43.59644" lon="2.96075">
        <ele>951.9</ele>
        <time>2026-05-07T09:51:17.000Z</time>
      </trkpt>
      <trkpt lat="43.59645" lon="2.96077">
        <ele>952.2</ele>
        <time>2026-05-07T09:51:18.000Z</time>
      </trkpt>
      <trkpt lat="43.59645" lon="2.96077">
        <ele>952.2</ele>
        <time>2026-05-07T09:51:19.000Z</time>
      </trkpt>
      <trkpt lat="43.59646" lon="2.96077">
        <ele>952.2</ele>
        <time>2026-05-07T09:51:20.000Z</time>
      </trkpt>
      <trkpt lat="43.59646" lon="2.96077">
        <ele>952</ele>
        <time>2026-05-07T09:51:21.000Z</time>
      </trkpt>
      <trkpt lat="43.59646" lon="2.96077">
        <ele>952</ele>
        <time>2026-05-07T09:51:22.000Z</time>
      </trkpt>
      <trkpt lat="43.59646" lon="2.96077">
        <ele>951.8</ele>
        <time>2026-05-07T09:51:23.000Z</time>
      </trkpt>
      <trkpt lat="43.59646" lon="2.96077">
        <ele>951.6</ele>
        <time>2026-05-07T09:51:24.000Z</time>
      </trkpt>
      <trkpt lat="43.59646" lon="2.96077">
        <ele>951.4</ele>
        <time>2026-05-07T09:51:25.000Z</time>
      </trkpt>
      <trkpt lat="43.59647" lon="2.96075">
        <ele>952.1</ele>
        <time>2026-05-07T09:51:27.000Z</time>
      </trkpt>
      <trkpt lat="43.59647" lon="2.96074">
        <ele>952.4</ele>
        <time>2026-05-07T09:51:28.000Z</time>
      </trkpt>
      <trkpt lat="43.59647" lon="2.96074">
        <ele>952.8</ele>
        <time>2026-05-07T09:51:29.000Z</time>
      </trkpt>
      <trkpt lat="43.59647" lon="2.96074">
        <ele>953.1</ele>
        <time>2026-05-07T09:51:30.000Z</time>
      </trkpt>
      <trkpt lat="43.59647" lon="2.96073">
        <ele>952.7</ele>
        <time>2026-05-07T09:51:31.000Z</time>
      </trkpt>
      <trkpt lat="43.59648" lon="2.96074">
        <ele>953.1</ele>
        <time>2026-05-07T09:51:32.000Z</time>
      </trkpt>
      <trkpt lat="43.59647" lon="2.96074">
        <ele>953.5</ele>
        <time>2026-05-07T09:51:33.000Z</time>
      </trkpt>
      <trkpt lat="43.59647" lon="2.96074">
        <ele>954.2</ele>
        <time>2026-05-07T09:51:34.000Z</time>
      </trkpt>
      <trkpt lat="43.59647" lon="2.96074">
        <ele>951.4</ele>
        <time>2026-05-07T09:51:35.000Z</time>
      </trkpt>
      <trkpt lat="43.59647" lon="2.96074">
        <ele>951.4</ele>
        <time>2026-05-07T09:51:36.000Z</time>
      </trkpt>
      <trkpt lat="43.59647" lon="2.96073">
        <ele>951.3</ele>
        <time>2026-05-07T09:51:37.000Z</time>
      </trkpt>
      <trkpt lat="43.59647" lon="2.96073">
        <ele>950.9</ele>
        <time>2026-05-07T09:51:38.000Z</time>
      </trkpt>
      <trkpt lat="43.59647" lon="2.96073">
        <ele>950.5</ele>
        <time>2026-05-07T09:51:39.000Z</time>
      </trkpt>
      <trkpt lat="43.59646" lon="2.96073">
        <ele>950.5</ele>
        <time>2026-05-07T09:51:40.000Z</time>
      </trkpt>
      <trkpt lat="43.59646" lon="2.96074">
        <ele>950.2</ele>
        <time>2026-05-07T09:51:41.000Z</time>
      </trkpt>
      <trkpt lat="43.59646" lon="2.96074">
        <ele>949.9</ele>
        <time>2026-05-07T09:51:42.000Z</time>
      </trkpt>
      <trkpt lat="43.59646" lon="2.96074">
        <ele>950</ele>
        <time>2026-05-07T09:51:43.000Z</time>
      </trkpt>
      <trkpt lat="43.59646" lon="2.96075">
        <ele>949.9</ele>
        <time>2026-05-07T09:51:44.000Z</time>
      </trkpt>
      <trkpt lat="43.59646" lon="2.96076">
        <ele>949.9</ele>
        <time>2026-05-07T09:51:45.000Z</time>
      </trkpt>
      <trkpt lat="43.59647" lon="2.96076">
        <ele>949.8</ele>
        <time>2026-05-07T09:51:46.000Z</time>
      </trkpt>
      <trkpt lat="43.59647" lon="2.96077">
        <ele>949.8</ele>
        <time>2026-05-07T09:51:47.000Z</time>
      </trkpt>
      <trkpt lat="43.59646" lon="2.96076">
        <ele>950.2</ele>
        <time>2026-05-07T09:51:48.000Z</time>
      </trkpt>
      <trkpt lat="43.59646" lon="2.96077">
        <ele>950</ele>
        <time>2026-05-07T09:51:49.000Z</time>
      </trkpt>
      <trkpt lat="43.59647" lon="2.96078">
        <ele>949.9</ele>
        <time>2026-05-07T09:51:50.000Z</time>
      </trkpt>
      <trkpt lat="43.59647" lon="2.96079">
        <ele>949.6</ele>
        <time>2026-05-07T09:51:51.000Z</time>
      </trkpt>
      <trkpt lat="43.59647" lon="2.96081">
        <ele>949.7</ele>
        <time>2026-05-07T09:51:52.000Z</time>
      </trkpt>
      <trkpt lat="43.59646" lon="2.96082">
        <ele>950.2</ele>
        <time>2026-05-07T09:51:53.000Z</time>
      </trkpt>
      <trkpt lat="43.59646" lon="2.96082">
        <ele>950.2</ele>
        <time>2026-05-07T09:51:54.000Z</time>
      </trkpt>
      <trkpt lat="43.59646" lon="2.96082">
        <ele>953.4</ele>
        <time>2026-05-07T09:51:55.000Z</time>
      </trkpt>
      <trkpt lat="43.59645" lon="2.96082">
        <ele>953.4</ele>
        <time>2026-05-07T09:51:56.000Z</time>
      </trkpt>
      <trkpt lat="43.59646" lon="2.96082">
        <ele>952</ele>
        <time>2026-05-07T09:51:57.000Z</time>
      </trkpt>
      <trkpt lat="43.59646" lon="2.96082">
        <ele>952.3</ele>
        <time>2026-05-07T09:51:58.000Z</time>
      </trkpt>
      <trkpt lat="43.59646" lon="2.96081">
        <ele>951.9</ele>
        <time>2026-05-07T09:51:59.000Z</time>
      </trkpt>
      <trkpt lat="43.59646" lon="2.96081">
        <ele>952</ele>
        <time>2026-05-07T09:52:00.000Z</time>
      </trkpt>
      <trkpt lat="43.59645" lon="2.96082">
        <ele>951.9</ele>
        <time>2026-05-07T09:52:01.000Z</time>
      </trkpt>
      <trkpt lat="43.59645" lon="2.96083">
        <ele>951.6</ele>
        <time>2026-05-07T09:52:02.000Z</time>
      </trkpt>
      <trkpt lat="43.59644" lon="2.96084">
        <ele>951.3</ele>
        <time>2026-05-07T09:52:03.000Z</time>
      </trkpt>
      <trkpt lat="43.59645" lon="2.96084">
        <ele>951.4</ele>
        <time>2026-05-07T09:52:04.000Z</time>
      </trkpt>
      <trkpt lat="43.59644" lon="2.96084">
        <ele>951.3</ele>
        <time>2026-05-07T09:52:05.000Z</time>
      </trkpt>
      <trkpt lat="43.59644" lon="2.96086">
        <ele>951.3</ele>
        <time>2026-05-07T09:52:06.000Z</time>
      </trkpt>
      <trkpt lat="43.59644" lon="2.96086">
        <ele>951.8</ele>
        <time>2026-05-07T09:52:07.000Z</time>
      </trkpt>
      <trkpt lat="43.59644" lon="2.96086">
        <ele>951.8</ele>
        <time>2026-05-07T09:52:08.000Z</time>
      </trkpt>
      <trkpt lat="43.59643" lon="2.96086">
        <ele>951.7</ele>
        <time>2026-05-07T09:52:09.000Z</time>
      </trkpt>
      <trkpt lat="43.59642" lon="2.96086">
        <ele>951.7</ele>
        <time>2026-05-07T09:52:10.000Z</time>
      </trkpt>
      <trkpt lat="43.59642" lon="2.96087">
        <ele>951.6</ele>
        <time>2026-05-07T09:52:11.000Z</time>
      </trkpt>
      <trkpt lat="43.59642" lon="2.96086">
        <ele>951.7</ele>
        <time>2026-05-07T09:52:12.000Z</time>
      </trkpt>
      <trkpt lat="43.59643" lon="2.96087">
        <ele>951.8</ele>
        <time>2026-05-07T09:52:14.000Z</time>
      </trkpt>
      <trkpt lat="43.59643" lon="2.96087">
        <ele>952.1</ele>
        <time>2026-05-07T09:52:15.000Z</time>
      </trkpt>
      <trkpt lat="43.59643" lon="2.96087">
        <ele>952.1</ele>
        <time>2026-05-07T09:52:16.000Z</time>
      </trkpt>
      <trkpt lat="43.59644" lon="2.96087">
        <ele>952.2</ele>
        <time>2026-05-07T09:52:17.000Z</time>
      </trkpt>
      <trkpt lat="43.59644" lon="2.96082">
        <ele>953.2</ele>
        <time>2026-05-07T09:52:18.000Z</time>
      </trkpt>
      <trkpt lat="43.59644" lon="2.9608">
        <ele>953.1</ele>
        <time>2026-05-07T09:52:19.000Z</time>
      </trkpt>
      <trkpt lat="43.59645" lon="2.96077">
        <ele>952.7</ele>
        <time>2026-05-07T09:52:20.000Z</time>
      </trkpt>
      <trkpt lat="43.59644" lon="2.96075">
        <ele>952.9</ele>
        <time>2026-05-07T09:52:21.000Z</time>
      </trkpt>
      <trkpt lat="43.59644" lon="2.96074">
        <ele>951.3</ele>
        <time>2026-05-07T09:52:22.000Z</time>
      </trkpt>
      <trkpt lat="43.59643" lon="2.96073">
        <ele>951.3</ele>
        <time>2026-05-07T09:52:23.000Z</time>
      </trkpt>
      <trkpt lat="43.59642" lon="2.96073">
        <ele>951</ele>
        <time>2026-05-07T09:52:24.000Z</time>
      </trkpt>
      <trkpt lat="43.59642" lon="2.96075">
        <ele>950.7</ele>
        <time>2026-05-07T09:52:25.000Z</time>
      </trkpt>
      <trkpt lat="43.59641" lon="2.96076">
        <ele>950.5</ele>
        <time>2026-05-07T09:52:26.000Z</time>
      </trkpt>
      <trkpt lat="43.59641" lon="2.96077">
        <ele>950.3</ele>
        <time>2026-05-07T09:52:27.000Z</time>
      </trkpt>
      <trkpt lat="43.59641" lon="2.96078">
        <ele>950.6</ele>
        <time>2026-05-07T09:52:28.000Z</time>
      </trkpt>
      <trkpt lat="43.59641" lon="2.96079">
        <ele>950.6</ele>
        <time>2026-05-07T09:52:29.000Z</time>
      </trkpt>
      <trkpt lat="43.59641" lon="2.96081">
        <ele>948.8</ele>
        <time>2026-05-07T09:52:30.000Z</time>
      </trkpt>
      <trkpt lat="43.59641" lon="2.96081">
        <ele>948.8</ele>
        <time>2026-05-07T09:52:31.000Z</time>
      </trkpt>
      <trkpt lat="43.59641" lon="2.96082">
        <ele>948.9</ele>
        <time>2026-05-07T09:52:32.000Z</time>
      </trkpt>
      <trkpt lat="43.59641" lon="2.96082">
        <ele>947.9</ele>
        <time>2026-05-07T09:52:33.000Z</time>
      </trkpt>
      <trkpt lat="43.59641" lon="2.96082">
        <ele>948.1</ele>
        <time>2026-05-07T09:52:34.000Z</time>
      </trkpt>
      <trkpt lat="43.59641" lon="2.96083">
        <ele>947.2</ele>
        <time>2026-05-07T09:52:35.000Z</time>
      </trkpt>
      <trkpt lat="43.59641" lon="2.96083">
        <ele>947.1</ele>
        <time>2026-05-07T09:52:36.000Z</time>
      </trkpt>
      <trkpt lat="43.59641" lon="2.96083">
        <ele>947</ele>
        <time>2026-05-07T09:52:37.000Z</time>
      </trkpt>
      <trkpt lat="43.59641" lon="2.96084">
        <ele>947</ele>
        <time>2026-05-07T09:52:38.000Z</time>
      </trkpt>
      <trkpt lat="43.59641" lon="2.96084">
        <ele>946.8</ele>
        <time>2026-05-07T09:52:39.000Z</time>
      </trkpt>
      <trkpt lat="43.59641" lon="2.96086">
        <ele>946.7</ele>
        <time>2026-05-07T09:52:40.000Z</time>
      </trkpt>
      <trkpt lat="43.59641" lon="2.96088">
        <ele>946.8</ele>
        <time>2026-05-07T09:52:41.000Z</time>
      </trkpt>
      <trkpt lat="43.59642" lon="2.96089">
        <ele>947</ele>
        <time>2026-05-07T09:52:42.000Z</time>
      </trkpt>
      <trkpt lat="43.59643" lon="2.9609">
        <ele>947.1</ele>
        <time>2026-05-07T09:52:43.000Z</time>
      </trkpt>
      <trkpt lat="43.59643" lon="2.9609">
        <ele>946.8</ele>
        <time>2026-05-07T09:52:44.000Z</time>
      </trkpt>
      <trkpt lat="43.59643" lon="2.96091">
        <ele>946.6</ele>
        <time>2026-05-07T09:52:45.000Z</time>
      </trkpt>
      <trkpt lat="43.59642" lon="2.96091">
        <ele>946.7</ele>
        <time>2026-05-07T09:52:46.000Z</time>
      </trkpt>
      <trkpt lat="43.59644" lon="2.96089">
        <ele>947.4</ele>
        <time>2026-05-07T09:52:47.000Z</time>
      </trkpt>
      <trkpt lat="43.59644" lon="2.96089">
        <ele>947.4</ele>
        <time>2026-05-07T09:52:48.000Z</time>
      </trkpt>
      <trkpt lat="43.59644" lon="2.96089">
        <ele>947.9</ele>
        <time>2026-05-07T09:52:49.000Z</time>
      </trkpt>
      <trkpt lat="43.59644" lon="2.9609">
        <ele>948.5</ele>
        <time>2026-05-07T09:52:50.000Z</time>
      </trkpt>
      <trkpt lat="43.59644" lon="2.9609">
        <ele>948.7</ele>
        <time>2026-05-07T09:52:51.000Z</time>
      </trkpt>
      <trkpt lat="43.59644" lon="2.9609">
        <ele>948.9</ele>
        <time>2026-05-07T09:52:52.000Z</time>
      </trkpt>
      <trkpt lat="43.59644" lon="2.96089">
        <ele>948.8</ele>
        <time>2026-05-07T09:52:53.000Z</time>
      </trkpt>
      <trkpt lat="43.59645" lon="2.96089">
        <ele>948.5</ele>
        <time>2026-05-07T09:52:54.000Z</time>
      </trkpt>
      <trkpt lat="43.59645" lon="2.96088">
        <ele>948.4</ele>
        <time>2026-05-07T09:52:55.000Z</time>
      </trkpt>
      <trkpt lat="43.59646" lon="2.96087">
        <ele>948.3</ele>
        <time>2026-05-07T09:52:56.000Z</time>
      </trkpt>
      <trkpt lat="43.59646" lon="2.96086">
        <ele>948.2</ele>
        <time>2026-05-07T09:52:57.000Z</time>
      </trkpt>
      <trkpt lat="43.59647" lon="2.96085">
        <ele>948.2</ele>
        <time>2026-05-07T09:52:58.000Z</time>
      </trkpt>
      <trkpt lat="43.59647" lon="2.96086">
        <ele>948.7</ele>
        <time>2026-05-07T09:52:59.000Z</time>
      </trkpt>
      <trkpt lat="43.59647" lon="2.96086">
        <ele>948.9</ele>
        <time>2026-05-07T09:53:00.000Z</time>
      </trkpt>
      <trkpt lat="43.59648" lon="2.96086">
        <ele>949</ele>
        <time>2026-05-07T09:53:01.000Z</time>
      </trkpt>
      <trkpt lat="43.59648" lon="2.96086">
        <ele>949.2</ele>
        <time>2026-05-07T09:53:02.000Z</time>
      </trkpt>
      <trkpt lat="43.59649" lon="2.96086">
        <ele>949.3</ele>
        <time>2026-05-07T09:53:03.000Z</time>
      </trkpt>
      <trkpt lat="43.59649" lon="2.96085">
        <ele>949.5</ele>
        <time>2026-05-07T09:53:04.000Z</time>
      </trkpt>
      <trkpt lat="43.59649" lon="2.96086">
        <ele>949.8</ele>
        <time>2026-05-07T09:53:05.000Z</time>
      </trkpt>
      <trkpt lat="43.59649" lon="2.96086">
        <ele>949.9</ele>
        <time>2026-05-07T09:53:06.000Z</time>
      </trkpt>
      <trkpt lat="43.5965" lon="2.96086">
        <ele>949.8</ele>
        <time>2026-05-07T09:53:07.000Z</time>
      </trkpt>
      <trkpt lat="43.59649" lon="2.96087">
        <ele>950.1</ele>
        <time>2026-05-07T09:53:08.000Z</time>
      </trkpt>
      <trkpt lat="43.59648" lon="2.96087">
        <ele>950.5</ele>
        <time>2026-05-07T09:53:10.000Z</time>
      </trkpt>
      <trkpt lat="43.59648" lon="2.96086">
        <ele>950.4</ele>
        <time>2026-05-07T09:53:11.000Z</time>
      </trkpt>
      <trkpt lat="43.59648" lon="2.96086">
        <ele>950.9</ele>
        <time>2026-05-07T09:53:12.000Z</time>
      </trkpt>
      <trkpt lat="43.59648" lon="2.96086">
        <ele>951.1</ele>
        <time>2026-05-07T09:53:13.000Z</time>
      </trkpt>
      <trkpt lat="43.59648" lon="2.96086">
        <ele>951.7</ele>
        <time>2026-05-07T09:53:14.000Z</time>
      </trkpt>
      <trkpt lat="43.59648" lon="2.96086">
        <ele>952.1</ele>
        <time>2026-05-07T09:53:15.000Z</time>
      </trkpt>
      <trkpt lat="43.59648" lon="2.96086">
        <ele>951.8</ele>
        <time>2026-05-07T09:53:16.000Z</time>
      </trkpt>
      <trkpt lat="43.59648" lon="2.96086">
        <ele>951.9</ele>
        <time>2026-05-07T09:53:17.000Z</time>
      </trkpt>
      <trkpt lat="43.59648" lon="2.96087">
        <ele>952.3</ele>
        <time>2026-05-07T09:53:18.000Z</time>
      </trkpt>
      <trkpt lat="43.59649" lon="2.96087">
        <ele>952.8</ele>
        <time>2026-05-07T09:53:19.000Z</time>
      </trkpt>
      <trkpt lat="43.59649" lon="2.96088">
        <ele>953.3</ele>
        <time>2026-05-07T09:53:20.000Z</time>
      </trkpt>
      <trkpt lat="43.59649" lon="2.96089">
        <ele>952.5</ele>
        <time>2026-05-07T09:53:21.000Z</time>
      </trkpt>
      <trkpt lat="43.59649" lon="2.96089">
        <ele>951.6</ele>
        <time>2026-05-07T09:53:22.000Z</time>
      </trkpt>
      <trkpt lat="43.59649" lon="2.9609">
        <ele>951.6</ele>
        <time>2026-05-07T09:53:23.000Z</time>
      </trkpt>
      <trkpt lat="43.59649" lon="2.9609">
        <ele>951.5</ele>
        <time>2026-05-07T09:53:24.000Z</time>
      </trkpt>
      <trkpt lat="43.59649" lon="2.9609">
        <ele>951.4</ele>
        <time>2026-05-07T09:53:25.000Z</time>
      </trkpt>
      <trkpt lat="43.59649" lon="2.9609">
        <ele>951.4</ele>
        <time>2026-05-07T09:53:26.000Z</time>
      </trkpt>
      <trkpt lat="43.59649" lon="2.9609">
        <ele>951.2</ele>
        <time>2026-05-07T09:53:27.000Z</time>
      </trkpt>
      <trkpt lat="43.59649" lon="2.9609">
        <ele>951.5</ele>
        <time>2026-05-07T09:53:28.000Z</time>
      </trkpt>
      <trkpt lat="43.59649" lon="2.9609">
        <ele>951.6</ele>
        <time>2026-05-07T09:53:29.000Z</time>
      </trkpt>
      <trkpt lat="43.59649" lon="2.9609">
        <ele>951.9</ele>
        <time>2026-05-07T09:53:30.000Z</time>
      </trkpt>
      <trkpt lat="43.59649" lon="2.9609">
        <ele>952.2</ele>
        <time>2026-05-07T09:53:31.000Z</time>
      </trkpt>
      <trkpt lat="43.5965" lon="2.9609">
        <ele>952.6</ele>
        <time>2026-05-07T09:53:32.000Z</time>
      </trkpt>
      <trkpt lat="43.59651" lon="2.96089">
        <ele>952.9</ele>
        <time>2026-05-07T09:53:33.000Z</time>
      </trkpt>
      <trkpt lat="43.59651" lon="2.96089">
        <ele>953</ele>
        <time>2026-05-07T09:53:34.000Z</time>
      </trkpt>
      <trkpt lat="43.59651" lon="2.9609">
        <ele>952.8</ele>
        <time>2026-05-07T09:53:35.000Z</time>
      </trkpt>
      <trkpt lat="43.59651" lon="2.96089">
        <ele>953.2</ele>
        <time>2026-05-07T09:53:36.000Z</time>
      </trkpt>
      <trkpt lat="43.59652" lon="2.9609">
        <ele>953.5</ele>
        <time>2026-05-07T09:53:37.000Z</time>
      </trkpt>
      <trkpt lat="43.59652" lon="2.9609">
        <ele>953.6</ele>
        <time>2026-05-07T09:53:38.000Z</time>
      </trkpt>
      <trkpt lat="43.59652" lon="2.9609">
        <ele>953.8</ele>
        <time>2026-05-07T09:53:39.000Z</time>
      </trkpt>
      <trkpt lat="43.59652" lon="2.9609">
        <ele>954.2</ele>
        <time>2026-05-07T09:53:40.000Z</time>
      </trkpt>
      <trkpt lat="43.59652" lon="2.96091">
        <ele>954.5</ele>
        <time>2026-05-07T09:53:41.000Z</time>
      </trkpt>
      <trkpt lat="43.59652" lon="2.96091">
        <ele>954.4</ele>
        <time>2026-05-07T09:53:42.000Z</time>
      </trkpt>
      <trkpt lat="43.59652" lon="2.96091">
        <ele>954.7</ele>
        <time>2026-05-07T09:53:43.000Z</time>
      </trkpt>
      <trkpt lat="43.59652" lon="2.96091">
        <ele>954.7</ele>
        <time>2026-05-07T09:53:44.000Z</time>
      </trkpt>
      <trkpt lat="43.59652" lon="2.9609">
        <ele>954.7</ele>
        <time>2026-05-07T09:53:45.000Z</time>
      </trkpt>
      <trkpt lat="43.59652" lon="2.9609">
        <ele>954.5</ele>
        <time>2026-05-07T09:53:46.000Z</time>
      </trkpt>
      <trkpt lat="43.59652" lon="2.9609">
        <ele>954.3</ele>
        <time>2026-05-07T09:53:47.000Z</time>
      </trkpt>
      <trkpt lat="43.59651" lon="2.9609">
        <ele>954.3</ele>
        <time>2026-05-07T09:53:48.000Z</time>
      </trkpt>
      <trkpt lat="43.59651" lon="2.96091">
        <ele>954.1</ele>
        <time>2026-05-07T09:53:49.000Z</time>
      </trkpt>
      <trkpt lat="43.59651" lon="2.96091">
        <ele>953.9</ele>
        <time>2026-05-07T09:53:50.000Z</time>
      </trkpt>
      <trkpt lat="43.5965" lon="2.96092">
        <ele>953.8</ele>
        <time>2026-05-07T09:53:51.000Z</time>
      </trkpt>
      <trkpt lat="43.5965" lon="2.96093">
        <ele>953.8</ele>
        <time>2026-05-07T09:53:52.000Z</time>
      </trkpt>
      <trkpt lat="43.59649" lon="2.96093">
        <ele>953.6</ele>
        <time>2026-05-07T09:53:53.000Z</time>
      </trkpt>
      <trkpt lat="43.59649" lon="2.96093">
        <ele>954.1</ele>
        <time>2026-05-07T09:53:54.000Z</time>
      </trkpt>
      <trkpt lat="43.59649" lon="2.96093">
        <ele>954.2</ele>
        <time>2026-05-07T09:53:55.000Z</time>
      </trkpt>
      <trkpt lat="43.59648" lon="2.96093">
        <ele>954.6</ele>
        <time>2026-05-07T09:53:56.000Z</time>
      </trkpt>
      <trkpt lat="43.59648" lon="2.96094">
        <ele>954.8</ele>
        <time>2026-05-07T09:53:57.000Z</time>
      </trkpt>
      <trkpt lat="43.59648" lon="2.96094">
        <ele>955</ele>
        <time>2026-05-07T09:53:58.000Z</time>
      </trkpt>
      <trkpt lat="43.59648" lon="2.96094">
        <ele>955.1</ele>
        <time>2026-05-07T09:53:59.000Z</time>
      </trkpt>
      <trkpt lat="43.59648" lon="2.96094">
        <ele>955.3</ele>
        <time>2026-05-07T09:54:00.000Z</time>
      </trkpt>
      <trkpt lat="43.59648" lon="2.96094">
        <ele>955.4</ele>
        <time>2026-05-07T09:54:01.000Z</time>
      </trkpt>
      <trkpt lat="43.59648" lon="2.96094">
        <ele>955.7</ele>
        <time>2026-05-07T09:54:02.000Z</time>
      </trkpt>
      <trkpt lat="43.59647" lon="2.96093">
        <ele>955.5</ele>
        <time>2026-05-07T09:54:03.000Z</time>
      </trkpt>
      <trkpt lat="43.59647" lon="2.96092">
        <ele>955.2</ele>
        <time>2026-05-07T09:54:04.000Z</time>
      </trkpt>
      <trkpt lat="43.59646" lon="2.96093">
        <ele>955</ele>
        <time>2026-05-07T09:54:05.000Z</time>
      </trkpt>
      <trkpt lat="43.59646" lon="2.96092">
        <ele>955.1</ele>
        <time>2026-05-07T09:54:06.000Z</time>
      </trkpt>
      <trkpt lat="43.59646" lon="2.96092">
        <ele>955.2</ele>
        <time>2026-05-07T09:54:07.000Z</time>
      </trkpt>
      <trkpt lat="43.59646" lon="2.96093">
        <ele>955.5</ele>
        <time>2026-05-07T09:54:08.000Z</time>
      </trkpt>
      <trkpt lat="43.59645" lon="2.96094">
        <ele>955.8</ele>
        <time>2026-05-07T09:54:09.000Z</time>
      </trkpt>
      <trkpt lat="43.59645" lon="2.96094">
        <ele>956.2</ele>
        <time>2026-05-07T09:54:10.000Z</time>
      </trkpt>
      <trkpt lat="43.59644" lon="2.96095">
        <ele>956.4</ele>
        <time>2026-05-07T09:54:11.000Z</time>
      </trkpt>
      <trkpt lat="43.59644" lon="2.96095">
        <ele>956.5</ele>
        <time>2026-05-07T09:54:12.000Z</time>
      </trkpt>
      <trkpt lat="43.59644" lon="2.96095">
        <ele>956.7</ele>
        <time>2026-05-07T09:54:13.000Z</time>
      </trkpt>
      <trkpt lat="43.59644" lon="2.96095">
        <ele>957.2</ele>
        <time>2026-05-07T09:54:14.000Z</time>
      </trkpt>
      <trkpt lat="43.59644" lon="2.96095">
        <ele>957.7</ele>
        <time>2026-05-07T09:54:15.000Z</time>
      </trkpt>
      <trkpt lat="43.59644" lon="2.96096">
        <ele>958.1</ele>
        <time>2026-05-07T09:54:16.000Z</time>
      </trkpt>
      <trkpt lat="43.59643" lon="2.96096">
        <ele>958.4</ele>
        <time>2026-05-07T09:54:17.000Z</time>
      </trkpt>
      <trkpt lat="43.59643" lon="2.96097">
        <ele>959</ele>
        <time>2026-05-07T09:54:18.000Z</time>
      </trkpt>
      <trkpt lat="43.59643" lon="2.96097">
        <ele>959.3</ele>
        <time>2026-05-07T09:54:19.000Z</time>
      </trkpt>
      <trkpt lat="43.59643" lon="2.96097">
        <ele>959.7</ele>
        <time>2026-05-07T09:54:20.000Z</time>
      </trkpt>
      <trkpt lat="43.59643" lon="2.96098">
        <ele>959.8</ele>
        <time>2026-05-07T09:54:21.000Z</time>
      </trkpt>
      <trkpt lat="43.59643" lon="2.96099">
        <ele>959.9</ele>
        <time>2026-05-07T09:54:22.000Z</time>
      </trkpt>
      <trkpt lat="43.59643" lon="2.96099">
        <ele>959.9</ele>
        <time>2026-05-07T09:54:23.000Z</time>
      </trkpt>
      <trkpt lat="43.59644" lon="2.961">
        <ele>959.8</ele>
        <time>2026-05-07T09:54:24.000Z</time>
      </trkpt>
      <trkpt lat="43.59644" lon="2.96102">
        <ele>959.8</ele>
        <time>2026-05-07T09:54:25.000Z</time>
      </trkpt>
      <trkpt lat="43.59644" lon="2.96103">
        <ele>959.8</ele>
        <time>2026-05-07T09:54:26.000Z</time>
      </trkpt>
      <trkpt lat="43.59644" lon="2.96103">
        <ele>960</ele>
        <time>2026-05-07T09:54:27.000Z</time>
      </trkpt>
      <trkpt lat="43.59644" lon="2.96103">
        <ele>960.6</ele>
        <time>2026-05-07T09:54:28.000Z</time>
      </trkpt>
      <trkpt lat="43.59644" lon="2.96102">
        <ele>960.6</ele>
        <time>2026-05-07T09:54:29.000Z</time>
      </trkpt>
      <trkpt lat="43.59644" lon="2.96103">
        <ele>960.6</ele>
        <time>2026-05-07T09:54:30.000Z</time>
      </trkpt>
      <trkpt lat="43.59644" lon="2.96103">
        <ele>960.5</ele>
        <time>2026-05-07T09:54:31.000Z</time>
      </trkpt>
      <trkpt lat="43.59644" lon="2.96104">
        <ele>960.2</ele>
        <time>2026-05-07T09:54:32.000Z</time>
      </trkpt>
      <trkpt lat="43.59644" lon="2.96103">
        <ele>960.1</ele>
        <time>2026-05-07T09:54:33.000Z</time>
      </trkpt>
      <trkpt lat="43.59643" lon="2.96102">
        <ele>960.2</ele>
        <time>2026-05-07T09:54:34.000Z</time>
      </trkpt>
      <trkpt lat="43.59643" lon="2.96101">
        <ele>960.1</ele>
        <time>2026-05-07T09:54:35.000Z</time>
      </trkpt>
      <trkpt lat="43.59643" lon="2.961">
        <ele>960</ele>
        <time>2026-05-07T09:54:36.000Z</time>
      </trkpt>
      <trkpt lat="43.59643" lon="2.96099">
        <ele>960.4</ele>
        <time>2026-05-07T09:54:37.000Z</time>
      </trkpt>
      <trkpt lat="43.59643" lon="2.96099">
        <ele>960.2</ele>
        <time>2026-05-07T09:54:38.000Z</time>
      </trkpt>
      <trkpt lat="43.59642" lon="2.96099">
        <ele>960.2</ele>
        <time>2026-05-07T09:54:39.000Z</time>
      </trkpt>
      <trkpt lat="43.59642" lon="2.96099">
        <ele>960.5</ele>
        <time>2026-05-07T09:54:40.000Z</time>
      </trkpt>
      <trkpt lat="43.59642" lon="2.96098">
        <ele>960.5</ele>
        <time>2026-05-07T09:54:41.000Z</time>
      </trkpt>
      <trkpt lat="43.59642" lon="2.96097">
        <ele>960.6</ele>
        <time>2026-05-07T09:54:42.000Z</time>
      </trkpt>
      <trkpt lat="43.59643" lon="2.96096">
        <ele>961</ele>
        <time>2026-05-07T09:54:44.000Z</time>
      </trkpt>
      <trkpt lat="43.59643" lon="2.96095">
        <ele>961</ele>
        <time>2026-05-07T09:54:45.000Z</time>
      </trkpt>
      <trkpt lat="43.59643" lon="2.96095">
        <ele>961.7</ele>
        <time>2026-05-07T09:54:46.000Z</time>
      </trkpt>
      <trkpt lat="43.59643" lon="2.96095">
        <ele>961.6</ele>
        <time>2026-05-07T09:54:47.000Z</time>
      </trkpt>
      <trkpt lat="43.59643" lon="2.96095">
        <ele>961.5</ele>
        <time>2026-05-07T09:54:48.000Z</time>
      </trkpt>
      <trkpt lat="43.59643" lon="2.96095">
        <ele>961.6</ele>
        <time>2026-05-07T09:54:49.000Z</time>
      </trkpt>
      <trkpt lat="43.59643" lon="2.96094">
        <ele>961.9</ele>
        <time>2026-05-07T09:54:50.000Z</time>
      </trkpt>
      <trkpt lat="43.59644" lon="2.96092">
        <ele>962.1</ele>
        <time>2026-05-07T09:54:51.000Z</time>
      </trkpt>
      <trkpt lat="43.59644" lon="2.9609">
        <ele>962.2</ele>
        <time>2026-05-07T09:54:52.000Z</time>
      </trkpt>
      <trkpt lat="43.59644" lon="2.9609">
        <ele>962.3</ele>
        <time>2026-05-07T09:54:53.000Z</time>
      </trkpt>
      <trkpt lat="43.59643" lon="2.96089">
        <ele>962.1</ele>
        <time>2026-05-07T09:54:54.000Z</time>
      </trkpt>
      <trkpt lat="43.59643" lon="2.9609">
        <ele>962.3</ele>
        <time>2026-05-07T09:54:55.000Z</time>
      </trkpt>
      <trkpt lat="43.59644" lon="2.9609">
        <ele>963.2</ele>
        <time>2026-05-07T09:54:56.000Z</time>
      </trkpt>
      <trkpt lat="43.59644" lon="2.96089">
        <ele>964.3</ele>
        <time>2026-05-07T09:54:57.000Z</time>
      </trkpt>
      <trkpt lat="43.59644" lon="2.96089">
        <ele>964.7</ele>
        <time>2026-05-07T09:54:58.000Z</time>
      </trkpt>
      <trkpt lat="43.59644" lon="2.96089">
        <ele>964.8</ele>
        <time>2026-05-07T09:54:59.000Z</time>
      </trkpt>
      <trkpt lat="43.59644" lon="2.96089">
        <ele>965.1</ele>
        <time>2026-05-07T09:55:00.000Z</time>
      </trkpt>
      <trkpt lat="43.59644" lon="2.9609">
        <ele>965.1</ele>
        <time>2026-05-07T09:55:02.000Z</time>
      </trkpt>
      <trkpt lat="43.59644" lon="2.9609">
        <ele>965.5</ele>
        <time>2026-05-07T09:55:03.000Z</time>
      </trkpt>
      <trkpt lat="43.59644" lon="2.96089">
        <ele>965.6</ele>
        <time>2026-05-07T09:55:04.000Z</time>
      </trkpt>
      <trkpt lat="43.59644" lon="2.96088">
        <ele>965.6</ele>
        <time>2026-05-07T09:55:05.000Z</time>
      </trkpt>
      <trkpt lat="43.59644" lon="2.96087">
        <ele>965.7</ele>
        <time>2026-05-07T09:55:06.000Z</time>
      </trkpt>
      <trkpt lat="43.59644" lon="2.96087">
        <ele>966</ele>
        <time>2026-05-07T09:55:07.000Z</time>
      </trkpt>
      <trkpt lat="43.59644" lon="2.96087">
        <ele>966</ele>
        <time>2026-05-07T09:55:08.000Z</time>
      </trkpt>
      <trkpt lat="43.59644" lon="2.96087">
        <ele>966.1</ele>
        <time>2026-05-07T09:55:09.000Z</time>
      </trkpt>
      <trkpt lat="43.59644" lon="2.96086">
        <ele>966.3</ele>
        <time>2026-05-07T09:55:10.000Z</time>
      </trkpt>
      <trkpt lat="43.59644" lon="2.96086">
        <ele>966.4</ele>
        <time>2026-05-07T09:55:11.000Z</time>
      </trkpt>
      <trkpt lat="43.59644" lon="2.96086">
        <ele>966.7</ele>
        <time>2026-05-07T09:55:12.000Z</time>
      </trkpt>
      <trkpt lat="43.59644" lon="2.96086">
        <ele>966.9</ele>
        <time>2026-05-07T09:55:13.000Z</time>
      </trkpt>
      <trkpt lat="43.59644" lon="2.96086">
        <ele>967.2</ele>
        <time>2026-05-07T09:55:14.000Z</time>
      </trkpt>
      <trkpt lat="43.59643" lon="2.96087">
        <ele>967.4</ele>
        <time>2026-05-07T09:55:15.000Z</time>
      </trkpt>
      <trkpt lat="43.59642" lon="2.96089">
        <ele>967.7</ele>
        <time>2026-05-07T09:55:16.000Z</time>
      </trkpt>
      <trkpt lat="43.59642" lon="2.9609">
        <ele>968</ele>
        <time>2026-05-07T09:55:17.000Z</time>
      </trkpt>
      <trkpt lat="43.59642" lon="2.9609">
        <ele>968.3</ele>
        <time>2026-05-07T09:55:18.000Z</time>
      </trkpt>
      <trkpt lat="43.59642" lon="2.96091">
        <ele>968.7</ele>
        <time>2026-05-07T09:55:19.000Z</time>
      </trkpt>
      <trkpt lat="43.59642" lon="2.96092">
        <ele>968.9</ele>
        <time>2026-05-07T09:55:20.000Z</time>
      </trkpt>
      <trkpt lat="43.59642" lon="2.96093">
        <ele>969.2</ele>
        <time>2026-05-07T09:55:21.000Z</time>
      </trkpt>
      <trkpt lat="43.59642" lon="2.96093">
        <ele>969.4</ele>
        <time>2026-05-07T09:55:22.000Z</time>
      </trkpt>
      <trkpt lat="43.59641" lon="2.96093">
        <ele>969.7</ele>
        <time>2026-05-07T09:55:23.000Z</time>
      </trkpt>
      <trkpt lat="43.5964" lon="2.96093">
        <ele>969.8</ele>
        <time>2026-05-07T09:55:24.000Z</time>
      </trkpt>
      <trkpt lat="43.59639" lon="2.96093">
        <ele>970</ele>
        <time>2026-05-07T09:55:25.000Z</time>
      </trkpt>
      <trkpt lat="43.5964" lon="2.96095">
        <ele>970.6</ele>
        <time>2026-05-07T09:55:26.000Z</time>
      </trkpt>
      <trkpt lat="43.5964" lon="2.96094">
        <ele>971.4</ele>
        <time>2026-05-07T09:55:27.000Z</time>
      </trkpt>
      <trkpt lat="43.5964" lon="2.96095">
        <ele>971.9</ele>
        <time>2026-05-07T09:55:28.000Z</time>
      </trkpt>
      <trkpt lat="43.5964" lon="2.96094">
        <ele>971.7</ele>
        <time>2026-05-07T09:55:29.000Z</time>
      </trkpt>
      <trkpt lat="43.5964" lon="2.96095">
        <ele>971.8</ele>
        <time>2026-05-07T09:55:30.000Z</time>
      </trkpt>
      <trkpt lat="43.5964" lon="2.96095">
        <ele>971.9</ele>
        <time>2026-05-07T09:55:31.000Z</time>
      </trkpt>
      <trkpt lat="43.5964" lon="2.96094">
        <ele>972.4</ele>
        <time>2026-05-07T09:55:32.000Z</time>
      </trkpt>
      <trkpt lat="43.5964" lon="2.96093">
        <ele>972.4</ele>
        <time>2026-05-07T09:55:33.000Z</time>
      </trkpt>
      <trkpt lat="43.5964" lon="2.96094">
        <ele>972.4</ele>
        <time>2026-05-07T09:55:34.000Z</time>
      </trkpt>
      <trkpt lat="43.5964" lon="2.96094">
        <ele>972.3</ele>
        <time>2026-05-07T09:55:35.000Z</time>
      </trkpt>
      <trkpt lat="43.59641" lon="2.96094">
        <ele>972.5</ele>
        <time>2026-05-07T09:55:36.000Z</time>
      </trkpt>
      <trkpt lat="43.59641" lon="2.96094">
        <ele>972.6</ele>
        <time>2026-05-07T09:55:37.000Z</time>
      </trkpt>
      <trkpt lat="43.5964" lon="2.96094">
        <ele>973.1</ele>
        <time>2026-05-07T09:55:38.000Z</time>
      </trkpt>
      <trkpt lat="43.5964" lon="2.96094">
        <ele>973.2</ele>
        <time>2026-05-07T09:55:39.000Z</time>
      </trkpt>
      <trkpt lat="43.5964" lon="2.96094">
        <ele>973.3</ele>
        <time>2026-05-07T09:55:40.000Z</time>
      </trkpt>
      <trkpt lat="43.5964" lon="2.96094">
        <ele>973.7</ele>
        <time>2026-05-07T09:55:41.000Z</time>
      </trkpt>
      <trkpt lat="43.5964" lon="2.96093">
        <ele>974.3</ele>
        <time>2026-05-07T09:55:42.000Z</time>
      </trkpt>
      <trkpt lat="43.5964" lon="2.96092">
        <ele>974.3</ele>
        <time>2026-05-07T09:55:43.000Z</time>
      </trkpt>
      <trkpt lat="43.59639" lon="2.96093">
        <ele>974.4</ele>
        <time>2026-05-07T09:55:44.000Z</time>
      </trkpt>
      <trkpt lat="43.59639" lon="2.96093">
        <ele>974.7</ele>
        <time>2026-05-07T09:55:45.000Z</time>
      </trkpt>
      <trkpt lat="43.59639" lon="2.96093">
        <ele>975</ele>
        <time>2026-05-07T09:55:46.000Z</time>
      </trkpt>
      <trkpt lat="43.59639" lon="2.96094">
        <ele>975</ele>
        <time>2026-05-07T09:55:47.000Z</time>
      </trkpt>
      <trkpt lat="43.59638" lon="2.96094">
        <ele>975</ele>
        <time>2026-05-07T09:55:48.000Z</time>
      </trkpt>
      <trkpt lat="43.59638" lon="2.96094">
        <ele>974.8</ele>
        <time>2026-05-07T09:55:49.000Z</time>
      </trkpt>
      <trkpt lat="43.59638" lon="2.96094">
        <ele>975</ele>
        <time>2026-05-07T09:55:50.000Z</time>
      </trkpt>
      <trkpt lat="43.59638" lon="2.96094">
        <ele>974.9</ele>
        <time>2026-05-07T09:55:51.000Z</time>
      </trkpt>
      <trkpt lat="43.59638" lon="2.96094">
        <ele>974.9</ele>
        <time>2026-05-07T09:55:52.000Z</time>
      </trkpt>
      <trkpt lat="43.59638" lon="2.96094">
        <ele>975.2</ele>
        <time>2026-05-07T09:55:53.000Z</time>
      </trkpt>
      <trkpt lat="43.59638" lon="2.96094">
        <ele>975.2</ele>
        <time>2026-05-07T09:55:54.000Z</time>
      </trkpt>
      <trkpt lat="43.59638" lon="2.96094">
        <ele>975.4</ele>
        <time>2026-05-07T09:55:55.000Z</time>
      </trkpt>
      <trkpt lat="43.59637" lon="2.96094">
        <ele>975</ele>
        <time>2026-05-07T09:55:56.000Z</time>
      </trkpt>
      <trkpt lat="43.59637" lon="2.96094">
        <ele>975.3</ele>
        <time>2026-05-07T09:55:57.000Z</time>
      </trkpt>
      <trkpt lat="43.59637" lon="2.96094">
        <ele>975.4</ele>
        <time>2026-05-07T09:55:58.000Z</time>
      </trkpt>
      <trkpt lat="43.59637" lon="2.96094">
        <ele>975.7</ele>
        <time>2026-05-07T09:55:59.000Z</time>
      </trkpt>
      <trkpt lat="43.59637" lon="2.96094">
        <ele>975.7</ele>
        <time>2026-05-07T09:56:00.000Z</time>
      </trkpt>
      <trkpt lat="43.59636" lon="2.96092">
        <ele>974.7</ele>
        <time>2026-05-07T09:56:01.000Z</time>
      </trkpt>
      <trkpt lat="43.59635" lon="2.96092">
        <ele>974.3</ele>
        <time>2026-05-07T09:56:02.000Z</time>
      </trkpt>
      <trkpt lat="43.59634" lon="2.96091">
        <ele>973.6</ele>
        <time>2026-05-07T09:56:03.000Z</time>
      </trkpt>
      <trkpt lat="43.59634" lon="2.96089">
        <ele>973</ele>
        <time>2026-05-07T09:56:04.000Z</time>
      </trkpt>
      <trkpt lat="43.59633" lon="2.9609">
        <ele>970.9</ele>
        <time>2026-05-07T09:56:05.000Z</time>
      </trkpt>
      <trkpt lat="43.59633" lon="2.9609">
        <ele>971</ele>
        <time>2026-05-07T09:56:06.000Z</time>
      </trkpt>
      <trkpt lat="43.59633" lon="2.9609">
        <ele>971</ele>
        <time>2026-05-07T09:56:07.000Z</time>
      </trkpt>
      <trkpt lat="43.59632" lon="2.9609">
        <ele>971.4</ele>
        <time>2026-05-07T09:56:08.000Z</time>
      </trkpt>
      <trkpt lat="43.59632" lon="2.9609">
        <ele>971.6</ele>
        <time>2026-05-07T09:56:09.000Z</time>
      </trkpt>
      <trkpt lat="43.59632" lon="2.9609">
        <ele>971.6</ele>
        <time>2026-05-07T09:56:10.000Z</time>
      </trkpt>
      <trkpt lat="43.59632" lon="2.9609">
        <ele>971.5</ele>
        <time>2026-05-07T09:56:11.000Z</time>
      </trkpt>
      <trkpt lat="43.59632" lon="2.96089">
        <ele>971.7</ele>
        <time>2026-05-07T09:56:12.000Z</time>
      </trkpt>
      <trkpt lat="43.59632" lon="2.96089">
        <ele>971.5</ele>
        <time>2026-05-07T09:56:13.000Z</time>
      </trkpt>
      <trkpt lat="43.59631" lon="2.9609">
        <ele>971.7</ele>
        <time>2026-05-07T09:56:15.000Z</time>
      </trkpt>
      <trkpt lat="43.59631" lon="2.9609">
        <ele>971.6</ele>
        <time>2026-05-07T09:56:16.000Z</time>
      </trkpt>
      <trkpt lat="43.59631" lon="2.96089">
        <ele>971.3</ele>
        <time>2026-05-07T09:56:17.000Z</time>
      </trkpt>
      <trkpt lat="43.59631" lon="2.96088">
        <ele>971.1</ele>
        <time>2026-05-07T09:56:18.000Z</time>
      </trkpt>
      <trkpt lat="43.5963" lon="2.96088">
        <ele>970.8</ele>
        <time>2026-05-07T09:56:19.000Z</time>
      </trkpt>
      <trkpt lat="43.5963" lon="2.96088">
        <ele>970.8</ele>
        <time>2026-05-07T09:56:20.000Z</time>
      </trkpt>
      <trkpt lat="43.5963" lon="2.9609">
        <ele>970.8</ele>
        <time>2026-05-07T09:56:21.000Z</time>
      </trkpt>
      <trkpt lat="43.5963" lon="2.96091">
        <ele>970.7</ele>
        <time>2026-05-07T09:56:22.000Z</time>
      </trkpt>
      <trkpt lat="43.59629" lon="2.96091">
        <ele>971.2</ele>
        <time>2026-05-07T09:56:23.000Z</time>
      </trkpt>
      <trkpt lat="43.5963" lon="2.96092">
        <ele>971.4</ele>
        <time>2026-05-07T09:56:24.000Z</time>
      </trkpt>
      <trkpt lat="43.5963" lon="2.96093">
        <ele>971.7</ele>
        <time>2026-05-07T09:56:25.000Z</time>
      </trkpt>
      <trkpt lat="43.5963" lon="2.96094">
        <ele>971.7</ele>
        <time>2026-05-07T09:56:26.000Z</time>
      </trkpt>
      <trkpt lat="43.5963" lon="2.96094">
        <ele>972.1</ele>
        <time>2026-05-07T09:56:27.000Z</time>
      </trkpt>
      <trkpt lat="43.5963" lon="2.96094">
        <ele>972.3</ele>
        <time>2026-05-07T09:56:28.000Z</time>
      </trkpt>
      <trkpt lat="43.5963" lon="2.96093">
        <ele>972.5</ele>
        <time>2026-05-07T09:56:29.000Z</time>
      </trkpt>
      <trkpt lat="43.59629" lon="2.96094">
        <ele>972.3</ele>
        <time>2026-05-07T09:56:30.000Z</time>
      </trkpt>
      <trkpt lat="43.59629" lon="2.96093">
        <ele>972.8</ele>
        <time>2026-05-07T09:56:31.000Z</time>
      </trkpt>
      <trkpt lat="43.59629" lon="2.96093">
        <ele>972.7</ele>
        <time>2026-05-07T09:56:32.000Z</time>
      </trkpt>
      <trkpt lat="43.59629" lon="2.96093">
        <ele>972.4</ele>
        <time>2026-05-07T09:56:33.000Z</time>
      </trkpt>
      <trkpt lat="43.5963" lon="2.96093">
        <ele>972.8</ele>
        <time>2026-05-07T09:56:34.000Z</time>
      </trkpt>
      <trkpt lat="43.5963" lon="2.96092">
        <ele>972.9</ele>
        <time>2026-05-07T09:56:35.000Z</time>
      </trkpt>
      <trkpt lat="43.5963" lon="2.96092">
        <ele>973.1</ele>
        <time>2026-05-07T09:56:36.000Z</time>
      </trkpt>
      <trkpt lat="43.59629" lon="2.96092">
        <ele>973</ele>
        <time>2026-05-07T09:56:37.000Z</time>
      </trkpt>
      <trkpt lat="43.59629" lon="2.96092">
        <ele>973.2</ele>
        <time>2026-05-07T09:56:39.000Z</time>
      </trkpt>
      <trkpt lat="43.59629" lon="2.96092">
        <ele>973.4</ele>
        <time>2026-05-07T09:56:40.000Z</time>
      </trkpt>
      <trkpt lat="43.59629" lon="2.96093">
        <ele>973.2</ele>
        <time>2026-05-07T09:56:41.000Z</time>
      </trkpt>
      <trkpt lat="43.5963" lon="2.96093">
        <ele>973.1</ele>
        <time>2026-05-07T09:56:42.000Z</time>
      </trkpt>
      <trkpt lat="43.5963" lon="2.96093">
        <ele>972.8</ele>
        <time>2026-05-07T09:56:43.000Z</time>
      </trkpt>
      <trkpt lat="43.5963" lon="2.96094">
        <ele>972.8</ele>
        <time>2026-05-07T09:56:44.000Z</time>
      </trkpt>
      <trkpt lat="43.59631" lon="2.96094">
        <ele>972.6</ele>
        <time>2026-05-07T09:56:45.000Z</time>
      </trkpt>
      <trkpt lat="43.59631" lon="2.96094">
        <ele>972.7</ele>
        <time>2026-05-07T09:56:46.000Z</time>
      </trkpt>
      <trkpt lat="43.59631" lon="2.96095">
        <ele>973.1</ele>
        <time>2026-05-07T09:56:47.000Z</time>
      </trkpt>
      <trkpt lat="43.59631" lon="2.96095">
        <ele>973.4</ele>
        <time>2026-05-07T09:56:48.000Z</time>
      </trkpt>
      <trkpt lat="43.5963" lon="2.96096">
        <ele>973.5</ele>
        <time>2026-05-07T09:56:49.000Z</time>
      </trkpt>
      <trkpt lat="43.5963" lon="2.96096">
        <ele>973.3</ele>
        <time>2026-05-07T09:56:50.000Z</time>
      </trkpt>
      <trkpt lat="43.5963" lon="2.96096">
        <ele>973.4</ele>
        <time>2026-05-07T09:56:51.000Z</time>
      </trkpt>
      <trkpt lat="43.5963" lon="2.96097">
        <ele>973.3</ele>
        <time>2026-05-07T09:56:52.000Z</time>
      </trkpt>
      <trkpt lat="43.5963" lon="2.96096">
        <ele>973.2</ele>
        <time>2026-05-07T09:56:53.000Z</time>
      </trkpt>
      <trkpt lat="43.5963" lon="2.96096">
        <ele>973.1</ele>
        <time>2026-05-07T09:56:54.000Z</time>
      </trkpt>
      <trkpt lat="43.5963" lon="2.96097">
        <ele>973.5</ele>
        <time>2026-05-07T09:56:55.000Z</time>
      </trkpt>
      <trkpt lat="43.5963" lon="2.96098">
        <ele>974.7</ele>
        <time>2026-05-07T09:56:56.000Z</time>
      </trkpt>
      <trkpt lat="43.5963" lon="2.96098">
        <ele>975</ele>
        <time>2026-05-07T09:56:57.000Z</time>
      </trkpt>
      <trkpt lat="43.59631" lon="2.961">
        <ele>975.1</ele>
        <time>2026-05-07T09:56:58.000Z</time>
      </trkpt>
      <trkpt lat="43.59631" lon="2.96101">
        <ele>975.5</ele>
        <time>2026-05-07T09:56:59.000Z</time>
      </trkpt>
      <trkpt lat="43.59632" lon="2.96103">
        <ele>975.8</ele>
        <time>2026-05-07T09:57:00.000Z</time>
      </trkpt>
      <trkpt lat="43.59633" lon="2.96102">
        <ele>975.5</ele>
        <time>2026-05-07T09:57:01.000Z</time>
      </trkpt>
      <trkpt lat="43.59634" lon="2.96103">
        <ele>975.6</ele>
        <time>2026-05-07T09:57:02.000Z</time>
      </trkpt>
      <trkpt lat="43.59634" lon="2.96103">
        <ele>976.6</ele>
        <time>2026-05-07T09:57:03.000Z</time>
      </trkpt>
      <trkpt lat="43.59634" lon="2.96102">
        <ele>977.5</ele>
        <time>2026-05-07T09:57:04.000Z</time>
      </trkpt>
      <trkpt lat="43.59634" lon="2.96102">
        <ele>978.4</ele>
        <time>2026-05-07T09:57:05.000Z</time>
      </trkpt>
      <trkpt lat="43.59635" lon="2.96101">
        <ele>979</ele>
        <time>2026-05-07T09:57:06.000Z</time>
      </trkpt>
      <trkpt lat="43.59635" lon="2.96102">
        <ele>979.3</ele>
        <time>2026-05-07T09:57:07.000Z</time>
      </trkpt>
      <trkpt lat="43.59636" lon="2.96102">
        <ele>979.1</ele>
        <time>2026-05-07T09:57:08.000Z</time>
      </trkpt>
      <trkpt lat="43.59637" lon="2.96102">
        <ele>978.7</ele>
        <time>2026-05-07T09:57:09.000Z</time>
      </trkpt>
      <trkpt lat="43.59638" lon="2.96102">
        <ele>978.5</ele>
        <time>2026-05-07T09:57:10.000Z</time>
      </trkpt>
      <trkpt lat="43.59638" lon="2.96102">
        <ele>978.3</ele>
        <time>2026-05-07T09:57:11.000Z</time>
      </trkpt>
      <trkpt lat="43.59641" lon="2.96102">
        <ele>977.6</ele>
        <time>2026-05-07T09:57:13.000Z</time>
      </trkpt>
      <trkpt lat="43.59637" lon="2.96103">
        <ele>977</ele>
        <time>2026-05-07T09:57:14.000Z</time>
      </trkpt>
      <trkpt lat="43.59636" lon="2.96104">
        <ele>976.6</ele>
        <time>2026-05-07T09:57:15.000Z</time>
      </trkpt>
      <trkpt lat="43.59635" lon="2.96104">
        <ele>976.3</ele>
        <time>2026-05-07T09:57:16.000Z</time>
      </trkpt>
      <trkpt lat="43.59633" lon="2.96105">
        <ele>976.4</ele>
        <time>2026-05-07T09:57:17.000Z</time>
      </trkpt>
      <trkpt lat="43.59633" lon="2.96106">
        <ele>977.4</ele>
        <time>2026-05-07T09:57:18.000Z</time>
      </trkpt>
      <trkpt lat="43.59633" lon="2.96106">
        <ele>977.7</ele>
        <time>2026-05-07T09:57:19.000Z</time>
      </trkpt>
      <trkpt lat="43.59634" lon="2.96107">
        <ele>978.7</ele>
        <time>2026-05-07T09:57:20.000Z</time>
      </trkpt>
      <trkpt lat="43.59633" lon="2.96108">
        <ele>979.2</ele>
        <time>2026-05-07T09:57:21.000Z</time>
      </trkpt>
      <trkpt lat="43.59634" lon="2.96108">
        <ele>979.5</ele>
        <time>2026-05-07T09:57:22.000Z</time>
      </trkpt>
      <trkpt lat="43.59634" lon="2.96108">
        <ele>980.1</ele>
        <time>2026-05-07T09:57:23.000Z</time>
      </trkpt>
      <trkpt lat="43.59635" lon="2.96107">
        <ele>980.5</ele>
        <time>2026-05-07T09:57:24.000Z</time>
      </trkpt>
      <trkpt lat="43.59635" lon="2.96107">
        <ele>979.9</ele>
        <time>2026-05-07T09:57:25.000Z</time>
      </trkpt>
      <trkpt lat="43.59635" lon="2.96107">
        <ele>979.9</ele>
        <time>2026-05-07T09:57:26.000Z</time>
      </trkpt>
      <trkpt lat="43.59634" lon="2.96107">
        <ele>980.3</ele>
        <time>2026-05-07T09:57:27.000Z</time>
      </trkpt>
      <trkpt lat="43.59634" lon="2.96107">
        <ele>980.7</ele>
        <time>2026-05-07T09:57:28.000Z</time>
      </trkpt>
      <trkpt lat="43.59634" lon="2.96107">
        <ele>981.2</ele>
        <time>2026-05-07T09:57:29.000Z</time>
      </trkpt>
      <trkpt lat="43.59634" lon="2.96108">
        <ele>981.5</ele>
        <time>2026-05-07T09:57:30.000Z</time>
      </trkpt>
      <trkpt lat="43.59634" lon="2.96107">
        <ele>981.6</ele>
        <time>2026-05-07T09:57:31.000Z</time>
      </trkpt>
      <trkpt lat="43.59633" lon="2.96108">
        <ele>981.2</ele>
        <time>2026-05-07T09:57:32.000Z</time>
      </trkpt>
      <trkpt lat="43.59633" lon="2.96108">
        <ele>980.9</ele>
        <time>2026-05-07T09:57:33.000Z</time>
      </trkpt>
      <trkpt lat="43.59632" lon="2.96109">
        <ele>980.8</ele>
        <time>2026-05-07T09:57:34.000Z</time>
      </trkpt>
      <trkpt lat="43.59631" lon="2.9611">
        <ele>980.8</ele>
        <time>2026-05-07T09:57:35.000Z</time>
      </trkpt>
      <trkpt lat="43.59631" lon="2.9611">
        <ele>980.6</ele>
        <time>2026-05-07T09:57:36.000Z</time>
      </trkpt>
      <trkpt lat="43.5963" lon="2.9611">
        <ele>980.3</ele>
        <time>2026-05-07T09:57:37.000Z</time>
      </trkpt>
      <trkpt lat="43.5963" lon="2.9611">
        <ele>980.7</ele>
        <time>2026-05-07T09:57:38.000Z</time>
      </trkpt>
      <trkpt lat="43.59631" lon="2.9611">
        <ele>980.6</ele>
        <time>2026-05-07T09:57:39.000Z</time>
      </trkpt>
      <trkpt lat="43.59631" lon="2.9611">
        <ele>980.4</ele>
        <time>2026-05-07T09:57:40.000Z</time>
      </trkpt>
      <trkpt lat="43.59631" lon="2.96111">
        <ele>980.3</ele>
        <time>2026-05-07T09:57:41.000Z</time>
      </trkpt>
      <trkpt lat="43.5963" lon="2.96112">
        <ele>980.7</ele>
        <time>2026-05-07T09:57:42.000Z</time>
      </trkpt>
      <trkpt lat="43.59629" lon="2.96113">
        <ele>980.7</ele>
        <time>2026-05-07T09:57:43.000Z</time>
      </trkpt>
      <trkpt lat="43.59629" lon="2.96113">
        <ele>980.5</ele>
        <time>2026-05-07T09:57:44.000Z</time>
      </trkpt>
      <trkpt lat="43.59628" lon="2.96112">
        <ele>980.2</ele>
        <time>2026-05-07T09:57:45.000Z</time>
      </trkpt>
      <trkpt lat="43.59627" lon="2.96112">
        <ele>980.3</ele>
        <time>2026-05-07T09:57:46.000Z</time>
      </trkpt>
      <trkpt lat="43.59626" lon="2.96113">
        <ele>980.1</ele>
        <time>2026-05-07T09:57:47.000Z</time>
      </trkpt>
      <trkpt lat="43.59626" lon="2.96112">
        <ele>979.8</ele>
        <time>2026-05-07T09:57:48.000Z</time>
      </trkpt>
      <trkpt lat="43.59626" lon="2.96112">
        <ele>979.6</ele>
        <time>2026-05-07T09:57:49.000Z</time>
      </trkpt>
      <trkpt lat="43.59625" lon="2.96112">
        <ele>979.2</ele>
        <time>2026-05-07T09:57:50.000Z</time>
      </trkpt>
      <trkpt lat="43.59625" lon="2.96112">
        <ele>979.2</ele>
        <time>2026-05-07T09:57:51.000Z</time>
      </trkpt>
      <trkpt lat="43.59624" lon="2.96113">
        <ele>978.9</ele>
        <time>2026-05-07T09:57:52.000Z</time>
      </trkpt>
      <trkpt lat="43.59624" lon="2.96114">
        <ele>979.1</ele>
        <time>2026-05-07T09:57:53.000Z</time>
      </trkpt>
      <trkpt lat="43.59625" lon="2.96115">
        <ele>979.7</ele>
        <time>2026-05-07T09:57:54.000Z</time>
      </trkpt>
      <trkpt lat="43.59625" lon="2.96116">
        <ele>980</ele>
        <time>2026-05-07T09:57:55.000Z</time>
      </trkpt>
      <trkpt lat="43.59626" lon="2.96116">
        <ele>980</ele>
        <time>2026-05-07T09:57:56.000Z</time>
      </trkpt>
      <trkpt lat="43.59626" lon="2.96116">
        <ele>979.7</ele>
        <time>2026-05-07T09:57:57.000Z</time>
      </trkpt>
      <trkpt lat="43.59626" lon="2.96117">
        <ele>979.6</ele>
        <time>2026-05-07T09:57:58.000Z</time>
      </trkpt>
      <trkpt lat="43.59626" lon="2.96118">
        <ele>979.7</ele>
        <time>2026-05-07T09:57:59.000Z</time>
      </trkpt>
      <trkpt lat="43.59626" lon="2.96118">
        <ele>980</ele>
        <time>2026-05-07T09:58:00.000Z</time>
      </trkpt>
      <trkpt lat="43.59626" lon="2.96119">
        <ele>980</ele>
        <time>2026-05-07T09:58:01.000Z</time>
      </trkpt>
      <trkpt lat="43.59626" lon="2.96119">
        <ele>983.1</ele>
        <time>2026-05-07T09:58:02.000Z</time>
      </trkpt>
      <trkpt lat="43.59626" lon="2.96119">
        <ele>983.1</ele>
        <time>2026-05-07T09:58:03.000Z</time>
      </trkpt>
      <trkpt lat="43.59626" lon="2.96119">
        <ele>982.6</ele>
        <time>2026-05-07T09:58:04.000Z</time>
      </trkpt>
      <trkpt lat="43.59625" lon="2.96119">
        <ele>982.4</ele>
        <time>2026-05-07T09:58:05.000Z</time>
      </trkpt>
      <trkpt lat="43.59626" lon="2.9612">
        <ele>982.4</ele>
        <time>2026-05-07T09:58:06.000Z</time>
      </trkpt>
      <trkpt lat="43.59626" lon="2.9612">
        <ele>982.3</ele>
        <time>2026-05-07T09:58:07.000Z</time>
      </trkpt>
      <trkpt lat="43.59626" lon="2.9612">
        <ele>982.2</ele>
        <time>2026-05-07T09:58:08.000Z</time>
      </trkpt>
      <trkpt lat="43.59627" lon="2.9612">
        <ele>982.2</ele>
        <time>2026-05-07T09:58:09.000Z</time>
      </trkpt>
      <trkpt lat="43.59627" lon="2.9612">
        <ele>982.1</ele>
        <time>2026-05-07T09:58:10.000Z</time>
      </trkpt>
      <trkpt lat="43.59627" lon="2.9612">
        <ele>981.9</ele>
        <time>2026-05-07T09:58:11.000Z</time>
      </trkpt>
      <trkpt lat="43.59627" lon="2.9612">
        <ele>981.9</ele>
        <time>2026-05-07T09:58:12.000Z</time>
      </trkpt>
      <trkpt lat="43.59627" lon="2.9612">
        <ele>981.9</ele>
        <time>2026-05-07T09:58:13.000Z</time>
      </trkpt>
      <trkpt lat="43.59627" lon="2.9612">
        <ele>981.6</ele>
        <time>2026-05-07T09:58:14.000Z</time>
      </trkpt>
      <trkpt lat="43.59627" lon="2.9612">
        <ele>981.4</ele>
        <time>2026-05-07T09:58:15.000Z</time>
      </trkpt>
      <trkpt lat="43.59627" lon="2.96121">
        <ele>981.4</ele>
        <time>2026-05-07T09:58:16.000Z</time>
      </trkpt>
      <trkpt lat="43.59627" lon="2.96121">
        <ele>981.2</ele>
        <time>2026-05-07T09:58:17.000Z</time>
      </trkpt>
      <trkpt lat="43.59627" lon="2.96121">
        <ele>981.2</ele>
        <time>2026-05-07T09:58:18.000Z</time>
      </trkpt>
      <trkpt lat="43.59627" lon="2.96121">
        <ele>981.3</ele>
        <time>2026-05-07T09:58:19.000Z</time>
      </trkpt>
      <trkpt lat="43.59628" lon="2.96121">
        <ele>981.3</ele>
        <time>2026-05-07T09:58:20.000Z</time>
      </trkpt>
      <trkpt lat="43.59628" lon="2.96121">
        <ele>981.3</ele>
        <time>2026-05-07T09:58:21.000Z</time>
      </trkpt>
      <trkpt lat="43.59628" lon="2.96121">
        <ele>981.3</ele>
        <time>2026-05-07T09:58:22.000Z</time>
      </trkpt>
      <trkpt lat="43.59628" lon="2.96121">
        <ele>981.1</ele>
        <time>2026-05-07T09:58:24.000Z</time>
      </trkpt>
      <trkpt lat="43.59628" lon="2.96121">
        <ele>981</ele>
        <time>2026-05-07T09:58:25.000Z</time>
      </trkpt>
      <trkpt lat="43.59628" lon="2.9612">
        <ele>981</ele>
        <time>2026-05-07T09:58:26.000Z</time>
      </trkpt>
      <trkpt lat="43.59627" lon="2.96119">
        <ele>980.9</ele>
        <time>2026-05-07T09:58:27.000Z</time>
      </trkpt>
      <trkpt lat="43.59628" lon="2.96119">
        <ele>980.9</ele>
        <time>2026-05-07T09:58:28.000Z</time>
      </trkpt>
      <trkpt lat="43.59628" lon="2.96118">
        <ele>981</ele>
        <time>2026-05-07T09:58:29.000Z</time>
      </trkpt>
      <trkpt lat="43.59628" lon="2.96118">
        <ele>981.6</ele>
        <time>2026-05-07T09:58:30.000Z</time>
      </trkpt>
      <trkpt lat="43.59628" lon="2.96117">
        <ele>982.4</ele>
        <time>2026-05-07T09:58:31.000Z</time>
      </trkpt>
      <trkpt lat="43.59628" lon="2.96117">
        <ele>982.7</ele>
        <time>2026-05-07T09:58:32.000Z</time>
      </trkpt>
      <trkpt lat="43.59628" lon="2.96117">
        <ele>982.6</ele>
        <time>2026-05-07T09:58:33.000Z</time>
      </trkpt>
      <trkpt lat="43.59628" lon="2.96117">
        <ele>982.5</ele>
        <time>2026-05-07T09:58:34.000Z</time>
      </trkpt>
      <trkpt lat="43.59628" lon="2.96118">
        <ele>982.3</ele>
        <time>2026-05-07T09:58:35.000Z</time>
      </trkpt>
      <trkpt lat="43.59628" lon="2.96119">
        <ele>982.4</ele>
        <time>2026-05-07T09:58:36.000Z</time>
      </trkpt>
      <trkpt lat="43.59628" lon="2.9612">
        <ele>982.7</ele>
        <time>2026-05-07T09:58:37.000Z</time>
      </trkpt>
      <trkpt lat="43.59628" lon="2.96122">
        <ele>983.4</ele>
        <time>2026-05-07T09:58:38.000Z</time>
      </trkpt>
      <trkpt lat="43.59628" lon="2.96122">
        <ele>983.3</ele>
        <time>2026-05-07T09:58:39.000Z</time>
      </trkpt>
      <trkpt lat="43.59628" lon="2.96122">
        <ele>983.3</ele>
        <time>2026-05-07T09:58:40.000Z</time>
      </trkpt>
      <trkpt lat="43.59628" lon="2.96122">
        <ele>983</ele>
        <time>2026-05-07T09:58:41.000Z</time>
      </trkpt>
      <trkpt lat="43.59628" lon="2.96122">
        <ele>983</ele>
        <time>2026-05-07T09:58:42.000Z</time>
      </trkpt>
      <trkpt lat="43.59628" lon="2.96122">
        <ele>982.8</ele>
        <time>2026-05-07T09:58:43.000Z</time>
      </trkpt>
      <trkpt lat="43.59628" lon="2.96122">
        <ele>983.1</ele>
        <time>2026-05-07T09:58:44.000Z</time>
      </trkpt>
      <trkpt lat="43.59629" lon="2.96123">
        <ele>983.1</ele>
        <time>2026-05-07T09:58:45.000Z</time>
      </trkpt>
      <trkpt lat="43.59628" lon="2.96124">
        <ele>983.7</ele>
        <time>2026-05-07T09:58:46.000Z</time>
      </trkpt>
      <trkpt lat="43.59629" lon="2.96124">
        <ele>984</ele>
        <time>2026-05-07T09:58:47.000Z</time>
      </trkpt>
      <trkpt lat="43.59628" lon="2.96125">
        <ele>984.3</ele>
        <time>2026-05-07T09:58:48.000Z</time>
      </trkpt>
      <trkpt lat="43.59627" lon="2.96126">
        <ele>984.8</ele>
        <time>2026-05-07T09:58:49.000Z</time>
      </trkpt>
      <trkpt lat="43.59626" lon="2.96127">
        <ele>984.9</ele>
        <time>2026-05-07T09:58:50.000Z</time>
      </trkpt>
      <trkpt lat="43.59626" lon="2.96127">
        <ele>985.1</ele>
        <time>2026-05-07T09:58:51.000Z</time>
      </trkpt>
      <trkpt lat="43.59627" lon="2.96127">
        <ele>985.6</ele>
        <time>2026-05-07T09:58:52.000Z</time>
      </trkpt>
      <trkpt lat="43.59626" lon="2.96128">
        <ele>985.7</ele>
        <time>2026-05-07T09:58:53.000Z</time>
      </trkpt>
      <trkpt lat="43.59625" lon="2.96128">
        <ele>983.9</ele>
        <time>2026-05-07T09:58:54.000Z</time>
      </trkpt>
      <trkpt lat="43.59626" lon="2.96129">
        <ele>984.3</ele>
        <time>2026-05-07T09:58:55.000Z</time>
      </trkpt>
      <trkpt lat="43.59626" lon="2.96129">
        <ele>984.6</ele>
        <time>2026-05-07T09:58:56.000Z</time>
      </trkpt>
      <trkpt lat="43.59627" lon="2.96129">
        <ele>984.7</ele>
        <time>2026-05-07T09:58:57.000Z</time>
      </trkpt>
      <trkpt lat="43.59627" lon="2.9613">
        <ele>984.8</ele>
        <time>2026-05-07T09:58:58.000Z</time>
      </trkpt>
      <trkpt lat="43.59627" lon="2.9613">
        <ele>984.6</ele>
        <time>2026-05-07T09:58:59.000Z</time>
      </trkpt>
      <trkpt lat="43.59628" lon="2.9613">
        <ele>984.5</ele>
        <time>2026-05-07T09:59:00.000Z</time>
      </trkpt>
      <trkpt lat="43.59628" lon="2.9613">
        <ele>984.6</ele>
        <time>2026-05-07T09:59:01.000Z</time>
      </trkpt>
      <trkpt lat="43.59628" lon="2.96129">
        <ele>984.8</ele>
        <time>2026-05-07T09:59:02.000Z</time>
      </trkpt>
      <trkpt lat="43.59627" lon="2.96129">
        <ele>984.8</ele>
        <time>2026-05-07T09:59:03.000Z</time>
      </trkpt>
      <trkpt lat="43.59627" lon="2.96129">
        <ele>984.7</ele>
        <time>2026-05-07T09:59:04.000Z</time>
      </trkpt>
      <trkpt lat="43.59627" lon="2.96129">
        <ele>984.8</ele>
        <time>2026-05-07T09:59:05.000Z</time>
      </trkpt>
      <trkpt lat="43.59628" lon="2.96129">
        <ele>984.8</ele>
        <time>2026-05-07T09:59:06.000Z</time>
      </trkpt>
      <trkpt lat="43.59628" lon="2.9613">
        <ele>985</ele>
        <time>2026-05-07T09:59:07.000Z</time>
      </trkpt>
      <trkpt lat="43.59628" lon="2.9613">
        <ele>985.2</ele>
        <time>2026-05-07T09:59:08.000Z</time>
      </trkpt>
      <trkpt lat="43.59628" lon="2.9613">
        <ele>985.5</ele>
        <time>2026-05-07T09:59:09.000Z</time>
      </trkpt>
      <trkpt lat="43.59628" lon="2.9613">
        <ele>985.6</ele>
        <time>2026-05-07T09:59:10.000Z</time>
      </trkpt>
      <trkpt lat="43.59628" lon="2.9613">
        <ele>985.5</ele>
        <time>2026-05-07T09:59:11.000Z</time>
      </trkpt>
      <trkpt lat="43.59628" lon="2.9613">
        <ele>985.5</ele>
        <time>2026-05-07T09:59:12.000Z</time>
      </trkpt>
      <trkpt lat="43.59628" lon="2.9613">
        <ele>985.6</ele>
        <time>2026-05-07T09:59:13.000Z</time>
      </trkpt>
      <trkpt lat="43.59628" lon="2.9613">
        <ele>985.7</ele>
        <time>2026-05-07T09:59:14.000Z</time>
      </trkpt>
      <trkpt lat="43.59628" lon="2.9613">
        <ele>985.7</ele>
        <time>2026-05-07T09:59:15.000Z</time>
      </trkpt>
      <trkpt lat="43.59628" lon="2.9613">
        <ele>985.8</ele>
        <time>2026-05-07T09:59:16.000Z</time>
      </trkpt>
      <trkpt lat="43.59628" lon="2.9613">
        <ele>985.7</ele>
        <time>2026-05-07T09:59:17.000Z</time>
      </trkpt>
      <trkpt lat="43.59629" lon="2.9613">
        <ele>985.7</ele>
        <time>2026-05-07T09:59:18.000Z</time>
      </trkpt>
      <trkpt lat="43.59629" lon="2.9613">
        <ele>985.6</ele>
        <time>2026-05-07T09:59:19.000Z</time>
      </trkpt>
      <trkpt lat="43.5963" lon="2.9613">
        <ele>985.4</ele>
        <time>2026-05-07T09:59:20.000Z</time>
      </trkpt>
      <trkpt lat="43.59628" lon="2.9613">
        <ele>985.8</ele>
        <time>2026-05-07T09:59:21.000Z</time>
      </trkpt>
      <trkpt lat="43.59627" lon="2.96131">
        <ele>986.3</ele>
        <time>2026-05-07T09:59:22.000Z</time>
      </trkpt>
      <trkpt lat="43.59627" lon="2.96131">
        <ele>986.3</ele>
        <time>2026-05-07T09:59:23.000Z</time>
      </trkpt>
      <trkpt lat="43.59627" lon="2.96131">
        <ele>985.2</ele>
        <time>2026-05-07T09:59:24.000Z</time>
      </trkpt>
      <trkpt lat="43.59627" lon="2.96131">
        <ele>985.2</ele>
        <time>2026-05-07T09:59:25.000Z</time>
      </trkpt>
      <trkpt lat="43.59627" lon="2.96131">
        <ele>985.3</ele>
        <time>2026-05-07T09:59:26.000Z</time>
      </trkpt>
      <trkpt lat="43.59627" lon="2.96131">
        <ele>985.7</ele>
        <time>2026-05-07T09:59:27.000Z</time>
      </trkpt>
      <trkpt lat="43.59628" lon="2.96131">
        <ele>985.8</ele>
        <time>2026-05-07T09:59:28.000Z</time>
      </trkpt>
      <trkpt lat="43.59628" lon="2.96131">
        <ele>985.8</ele>
        <time>2026-05-07T09:59:29.000Z</time>
      </trkpt>
      <trkpt lat="43.59628" lon="2.96131">
        <ele>986.4</ele>
        <time>2026-05-07T09:59:30.000Z</time>
      </trkpt>
      <trkpt lat="43.59628" lon="2.96131">
        <ele>986.9</ele>
        <time>2026-05-07T09:59:31.000Z</time>
      </trkpt>
      <trkpt lat="43.59628" lon="2.96131">
        <ele>987.1</ele>
        <time>2026-05-07T09:59:32.000Z</time>
      </trkpt>
      <trkpt lat="43.5963" lon="2.96131">
        <ele>987.3</ele>
        <time>2026-05-07T09:59:34.000Z</time>
      </trkpt>
      <trkpt lat="43.59631" lon="2.96129">
        <ele>987.4</ele>
        <time>2026-05-07T09:59:35.000Z</time>
      </trkpt>
      <trkpt lat="43.59633" lon="2.96128">
        <ele>987.6</ele>
        <time>2026-05-07T09:59:36.000Z</time>
      </trkpt>
      <trkpt lat="43.59634" lon="2.96126">
        <ele>987.6</ele>
        <time>2026-05-07T09:59:37.000Z</time>
      </trkpt>
      <trkpt lat="43.59636" lon="2.96125">
        <ele>987.7</ele>
        <time>2026-05-07T09:59:38.000Z</time>
      </trkpt>
      <trkpt lat="43.59637" lon="2.96124">
        <ele>988.1</ele>
        <time>2026-05-07T09:59:39.000Z</time>
      </trkpt>
      <trkpt lat="43.59638" lon="2.96125">
        <ele>988.5</ele>
        <time>2026-05-07T09:59:40.000Z</time>
      </trkpt>
      <trkpt lat="43.59638" lon="2.96124">
        <ele>988.9</ele>
        <time>2026-05-07T09:59:41.000Z</time>
      </trkpt>
      <trkpt lat="43.59638" lon="2.96124">
        <ele>989</ele>
        <time>2026-05-07T09:59:42.000Z</time>
      </trkpt>
      <trkpt lat="43.59639" lon="2.96125">
        <ele>989.5</ele>
        <time>2026-05-07T09:59:43.000Z</time>
      </trkpt>
      <trkpt lat="43.59639" lon="2.96126">
        <ele>990.2</ele>
        <time>2026-05-07T09:59:45.000Z</time>
      </trkpt>
      <trkpt lat="43.5964" lon="2.96126">
        <ele>990.3</ele>
        <time>2026-05-07T09:59:46.000Z</time>
      </trkpt>
      <trkpt lat="43.5964" lon="2.96126">
        <ele>990.5</ele>
        <time>2026-05-07T09:59:47.000Z</time>
      </trkpt>
      <trkpt lat="43.5964" lon="2.96126">
        <ele>985.6</ele>
        <time>2026-05-07T09:59:48.000Z</time>
      </trkpt>
      <trkpt lat="43.59639" lon="2.96127">
        <ele>985.9</ele>
        <time>2026-05-07T09:59:49.000Z</time>
      </trkpt>
      <trkpt lat="43.59638" lon="2.96127">
        <ele>985.9</ele>
        <time>2026-05-07T09:59:50.000Z</time>
      </trkpt>
      <trkpt lat="43.59637" lon="2.96128">
        <ele>986</ele>
        <time>2026-05-07T09:59:51.000Z</time>
      </trkpt>
      <trkpt lat="43.59638" lon="2.96129">
        <ele>986.1</ele>
        <time>2026-05-07T09:59:52.000Z</time>
      </trkpt>
      <trkpt lat="43.59639" lon="2.96129">
        <ele>986.3</ele>
        <time>2026-05-07T09:59:53.000Z</time>
      </trkpt>
      <trkpt lat="43.59639" lon="2.96129">
        <ele>986.3</ele>
        <time>2026-05-07T09:59:54.000Z</time>
      </trkpt>
      <trkpt lat="43.59639" lon="2.96129">
        <ele>986.2</ele>
        <time>2026-05-07T09:59:55.000Z</time>
      </trkpt>
      <trkpt lat="43.59638" lon="2.9613">
        <ele>986.1</ele>
        <time>2026-05-07T09:59:56.000Z</time>
      </trkpt>
      <trkpt lat="43.59636" lon="2.9613">
        <ele>986.5</ele>
        <time>2026-05-07T09:59:57.000Z</time>
      </trkpt>
      <trkpt lat="43.59636" lon="2.9613">
        <ele>989.1</ele>
        <time>2026-05-07T09:59:58.000Z</time>
      </trkpt>
      <trkpt lat="43.59636" lon="2.9613">
        <ele>989</ele>
        <time>2026-05-07T09:59:59.000Z</time>
      </trkpt>
      <trkpt lat="43.59635" lon="2.9613">
        <ele>988.7</ele>
        <time>2026-05-07T10:00:00.000Z</time>
      </trkpt>
      <trkpt lat="43.59634" lon="2.9613">
        <ele>988.4</ele>
        <time>2026-05-07T10:00:01.000Z</time>
      </trkpt>
      <trkpt lat="43.59634" lon="2.96131">
        <ele>988.2</ele>
        <time>2026-05-07T10:00:02.000Z</time>
      </trkpt>
      <trkpt lat="43.59632" lon="2.96131">
        <ele>988</ele>
        <time>2026-05-07T10:00:03.000Z</time>
      </trkpt>
      <trkpt lat="43.59631" lon="2.96132">
        <ele>987.9</ele>
        <time>2026-05-07T10:00:04.000Z</time>
      </trkpt>
      <trkpt lat="43.5963" lon="2.96132">
        <ele>988.3</ele>
        <time>2026-05-07T10:00:05.000Z</time>
      </trkpt>
      <trkpt lat="43.59629" lon="2.96132">
        <ele>988.7</ele>
        <time>2026-05-07T10:00:06.000Z</time>
      </trkpt>
      <trkpt lat="43.59628" lon="2.96132">
        <ele>988.9</ele>
        <time>2026-05-07T10:00:07.000Z</time>
      </trkpt>
      <trkpt lat="43.59627" lon="2.96132">
        <ele>989.5</ele>
        <time>2026-05-07T10:00:08.000Z</time>
      </trkpt>
      <trkpt lat="43.59626" lon="2.96133">
        <ele>990</ele>
        <time>2026-05-07T10:00:09.000Z</time>
      </trkpt>
      <trkpt lat="43.59627" lon="2.96132">
        <ele>990.5</ele>
        <time>2026-05-07T10:00:10.000Z</time>
      </trkpt>
      <trkpt lat="43.59627" lon="2.96132">
        <ele>990.7</ele>
        <time>2026-05-07T10:00:11.000Z</time>
      </trkpt>
      <trkpt lat="43.59628" lon="2.96132">
        <ele>991</ele>
        <time>2026-05-07T10:00:12.000Z</time>
      </trkpt>
      <trkpt lat="43.59627" lon="2.96132">
        <ele>992.3</ele>
        <time>2026-05-07T10:00:13.000Z</time>
      </trkpt>
      <trkpt lat="43.59629" lon="2.96132">
        <ele>992.8</ele>
        <time>2026-05-07T10:00:14.000Z</time>
      </trkpt>
      <trkpt lat="43.59629" lon="2.96131">
        <ele>993</ele>
        <time>2026-05-07T10:00:15.000Z</time>
      </trkpt>
      <trkpt lat="43.59629" lon="2.96132">
        <ele>992.9</ele>
        <time>2026-05-07T10:00:16.000Z</time>
      </trkpt>
      <trkpt lat="43.59628" lon="2.96132">
        <ele>993.3</ele>
        <time>2026-05-07T10:00:17.000Z</time>
      </trkpt>
      <trkpt lat="43.59628" lon="2.96132">
        <ele>993.6</ele>
        <time>2026-05-07T10:00:18.000Z</time>
      </trkpt>
      <trkpt lat="43.59628" lon="2.96133">
        <ele>993.7</ele>
        <time>2026-05-07T10:00:19.000Z</time>
      </trkpt>
      <trkpt lat="43.59627" lon="2.96133">
        <ele>993.8</ele>
        <time>2026-05-07T10:00:20.000Z</time>
      </trkpt>
      <trkpt lat="43.59627" lon="2.96134">
        <ele>993.6</ele>
        <time>2026-05-07T10:00:21.000Z</time>
      </trkpt>
      <trkpt lat="43.59626" lon="2.96134">
        <ele>993.8</ele>
        <time>2026-05-07T10:00:22.000Z</time>
      </trkpt>
      <trkpt lat="43.59625" lon="2.96134">
        <ele>993.7</ele>
        <time>2026-05-07T10:00:23.000Z</time>
      </trkpt>
      <trkpt lat="43.59625" lon="2.96135">
        <ele>993.8</ele>
        <time>2026-05-07T10:00:24.000Z</time>
      </trkpt>
      <trkpt lat="43.59625" lon="2.96135">
        <ele>994.1</ele>
        <time>2026-05-07T10:00:25.000Z</time>
      </trkpt>
      <trkpt lat="43.59625" lon="2.96135">
        <ele>994.1</ele>
        <time>2026-05-07T10:00:26.000Z</time>
      </trkpt>
      <trkpt lat="43.59624" lon="2.96135">
        <ele>993.9</ele>
        <time>2026-05-07T10:00:27.000Z</time>
      </trkpt>
      <trkpt lat="43.59624" lon="2.96135">
        <ele>993.8</ele>
        <time>2026-05-07T10:00:28.000Z</time>
      </trkpt>
      <trkpt lat="43.59624" lon="2.96135">
        <ele>993.7</ele>
        <time>2026-05-07T10:00:29.000Z</time>
      </trkpt>
      <trkpt lat="43.59624" lon="2.96135">
        <ele>993.7</ele>
        <time>2026-05-07T10:00:30.000Z</time>
      </trkpt>
      <trkpt lat="43.59625" lon="2.96135">
        <ele>993.4</ele>
        <time>2026-05-07T10:00:31.000Z</time>
      </trkpt>
      <trkpt lat="43.59625" lon="2.96134">
        <ele>992.9</ele>
        <time>2026-05-07T10:00:32.000Z</time>
      </trkpt>
      <trkpt lat="43.59626" lon="2.96134">
        <ele>992.6</ele>
        <time>2026-05-07T10:00:34.000Z</time>
      </trkpt>
      <trkpt lat="43.59626" lon="2.96134">
        <ele>992.7</ele>
        <time>2026-05-07T10:00:35.000Z</time>
      </trkpt>
      <trkpt lat="43.59626" lon="2.96134">
        <ele>992.7</ele>
        <time>2026-05-07T10:00:36.000Z</time>
      </trkpt>
      <trkpt lat="43.59626" lon="2.96134">
        <ele>992.6</ele>
        <time>2026-05-07T10:00:37.000Z</time>
      </trkpt>
      <trkpt lat="43.59626" lon="2.96134">
        <ele>992.7</ele>
        <time>2026-05-07T10:00:38.000Z</time>
      </trkpt>
      <trkpt lat="43.59626" lon="2.96134">
        <ele>992.7</ele>
        <time>2026-05-07T10:00:39.000Z</time>
      </trkpt>
      <trkpt lat="43.59626" lon="2.96134">
        <ele>992.5</ele>
        <time>2026-05-07T10:00:40.000Z</time>
      </trkpt>
      <trkpt lat="43.59626" lon="2.96134">
        <ele>992.7</ele>
        <time>2026-05-07T10:00:41.000Z</time>
      </trkpt>
      <trkpt lat="43.59626" lon="2.96135">
        <ele>992.7</ele>
        <time>2026-05-07T10:00:42.000Z</time>
      </trkpt>
      <trkpt lat="43.59626" lon="2.96135">
        <ele>992.4</ele>
        <time>2026-05-07T10:00:43.000Z</time>
      </trkpt>
      <trkpt lat="43.59626" lon="2.96136">
        <ele>992.4</ele>
        <time>2026-05-07T10:00:44.000Z</time>
      </trkpt>
      <trkpt lat="43.59626" lon="2.96136">
        <ele>992.7</ele>
        <time>2026-05-07T10:00:45.000Z</time>
      </trkpt>
      <trkpt lat="43.59626" lon="2.96136">
        <ele>993.2</ele>
        <time>2026-05-07T10:00:46.000Z</time>
      </trkpt>
      <trkpt lat="43.59626" lon="2.96136">
        <ele>993.4</ele>
        <time>2026-05-07T10:00:47.000Z</time>
      </trkpt>
      <trkpt lat="43.59626" lon="2.96136">
        <ele>993.7</ele>
        <time>2026-05-07T10:00:48.000Z</time>
      </trkpt>
      <trkpt lat="43.59626" lon="2.96136">
        <ele>993.7</ele>
        <time>2026-05-07T10:00:49.000Z</time>
      </trkpt>
      <trkpt lat="43.59626" lon="2.96136">
        <ele>993.9</ele>
        <time>2026-05-07T10:00:50.000Z</time>
      </trkpt>
      <trkpt lat="43.59627" lon="2.96137">
        <ele>993.8</ele>
        <time>2026-05-07T10:00:51.000Z</time>
      </trkpt>
      <trkpt lat="43.59627" lon="2.96138">
        <ele>993.9</ele>
        <time>2026-05-07T10:00:52.000Z</time>
      </trkpt>
      <trkpt lat="43.59627" lon="2.96139">
        <ele>994.5</ele>
        <time>2026-05-07T10:00:53.000Z</time>
      </trkpt>
      <trkpt lat="43.59627" lon="2.96139">
        <ele>995.3</ele>
        <time>2026-05-07T10:00:54.000Z</time>
      </trkpt>
      <trkpt lat="43.59627" lon="2.9614">
        <ele>995.6</ele>
        <time>2026-05-07T10:00:55.000Z</time>
      </trkpt>
      <trkpt lat="43.59627" lon="2.9614">
        <ele>995.6</ele>
        <time>2026-05-07T10:00:56.000Z</time>
      </trkpt>
      <trkpt lat="43.59627" lon="2.9614">
        <ele>995.2</ele>
        <time>2026-05-07T10:00:57.000Z</time>
      </trkpt>
      <trkpt lat="43.59626" lon="2.96139">
        <ele>994.6</ele>
        <time>2026-05-07T10:00:58.000Z</time>
      </trkpt>
      <trkpt lat="43.59626" lon="2.96138">
        <ele>994.2</ele>
        <time>2026-05-07T10:00:59.000Z</time>
      </trkpt>
      <trkpt lat="43.59626" lon="2.96138">
        <ele>994</ele>
        <time>2026-05-07T10:01:00.000Z</time>
      </trkpt>
      <trkpt lat="43.59625" lon="2.96138">
        <ele>994.5</ele>
        <time>2026-05-07T10:01:01.000Z</time>
      </trkpt>
      <trkpt lat="43.59625" lon="2.96138">
        <ele>991</ele>
        <time>2026-05-07T10:01:02.000Z</time>
      </trkpt>
      <trkpt lat="43.59625" lon="2.96138">
        <ele>990.8</ele>
        <time>2026-05-07T10:01:03.000Z</time>
      </trkpt>
      <trkpt lat="43.59625" lon="2.96138">
        <ele>990.6</ele>
        <time>2026-05-07T10:01:04.000Z</time>
      </trkpt>
      <trkpt lat="43.59625" lon="2.96139">
        <ele>990.7</ele>
        <time>2026-05-07T10:01:05.000Z</time>
      </trkpt>
      <trkpt lat="43.59624" lon="2.96139">
        <ele>990.6</ele>
        <time>2026-05-07T10:01:06.000Z</time>
      </trkpt>
      <trkpt lat="43.59624" lon="2.96139">
        <ele>990.5</ele>
        <time>2026-05-07T10:01:07.000Z</time>
      </trkpt>
      <trkpt lat="43.59624" lon="2.9614">
        <ele>990.3</ele>
        <time>2026-05-07T10:01:08.000Z</time>
      </trkpt>
      <trkpt lat="43.59624" lon="2.9614">
        <ele>990.3</ele>
        <time>2026-05-07T10:01:09.000Z</time>
      </trkpt>
      <trkpt lat="43.59623" lon="2.9614">
        <ele>990.5</ele>
        <time>2026-05-07T10:01:10.000Z</time>
      </trkpt>
      <trkpt lat="43.59623" lon="2.9614">
        <ele>990.4</ele>
        <time>2026-05-07T10:01:11.000Z</time>
      </trkpt>
      <trkpt lat="43.59623" lon="2.9614">
        <ele>990.6</ele>
        <time>2026-05-07T10:01:12.000Z</time>
      </trkpt>
      <trkpt lat="43.59623" lon="2.9614">
        <ele>991.2</ele>
        <time>2026-05-07T10:01:13.000Z</time>
      </trkpt>
      <trkpt lat="43.59623" lon="2.9614">
        <ele>991.5</ele>
        <time>2026-05-07T10:01:14.000Z</time>
      </trkpt>
      <trkpt lat="43.59623" lon="2.9614">
        <ele>991.8</ele>
        <time>2026-05-07T10:01:15.000Z</time>
      </trkpt>
      <trkpt lat="43.59623" lon="2.9614">
        <ele>992.2</ele>
        <time>2026-05-07T10:01:16.000Z</time>
      </trkpt>
      <trkpt lat="43.59623" lon="2.9614">
        <ele>992.6</ele>
        <time>2026-05-07T10:01:17.000Z</time>
      </trkpt>
      <trkpt lat="43.59623" lon="2.96141">
        <ele>992.8</ele>
        <time>2026-05-07T10:01:18.000Z</time>
      </trkpt>
      <trkpt lat="43.59623" lon="2.96141">
        <ele>992.7</ele>
        <time>2026-05-07T10:01:19.000Z</time>
      </trkpt>
      <trkpt lat="43.59621" lon="2.96142">
        <ele>992.7</ele>
        <time>2026-05-07T10:01:20.000Z</time>
      </trkpt>
      <trkpt lat="43.59621" lon="2.96143">
        <ele>992.4</ele>
        <time>2026-05-07T10:01:21.000Z</time>
      </trkpt>
      <trkpt lat="43.5962" lon="2.96144">
        <ele>992.4</ele>
        <time>2026-05-07T10:01:22.000Z</time>
      </trkpt>
      <trkpt lat="43.5962" lon="2.96145">
        <ele>992.8</ele>
        <time>2026-05-07T10:01:23.000Z</time>
      </trkpt>
      <trkpt lat="43.5962" lon="2.96146">
        <ele>993.1</ele>
        <time>2026-05-07T10:01:24.000Z</time>
      </trkpt>
      <trkpt lat="43.5962" lon="2.96146">
        <ele>993.4</ele>
        <time>2026-05-07T10:01:25.000Z</time>
      </trkpt>
      <trkpt lat="43.59619" lon="2.96148">
        <ele>993.9</ele>
        <time>2026-05-07T10:01:26.000Z</time>
      </trkpt>
      <trkpt lat="43.59619" lon="2.96149">
        <ele>994.3</ele>
        <time>2026-05-07T10:01:27.000Z</time>
      </trkpt>
      <trkpt lat="43.59618" lon="2.9615">
        <ele>994.4</ele>
        <time>2026-05-07T10:01:28.000Z</time>
      </trkpt>
      <trkpt lat="43.59617" lon="2.96151">
        <ele>994.2</ele>
        <time>2026-05-07T10:01:29.000Z</time>
      </trkpt>
      <trkpt lat="43.59617" lon="2.96152">
        <ele>994.3</ele>
        <time>2026-05-07T10:01:30.000Z</time>
      </trkpt>
      <trkpt lat="43.59616" lon="2.96152">
        <ele>994.6</ele>
        <time>2026-05-07T10:01:31.000Z</time>
      </trkpt>
      <trkpt lat="43.59616" lon="2.96152">
        <ele>994.6</ele>
        <time>2026-05-07T10:01:32.000Z</time>
      </trkpt>
      <trkpt lat="43.59615" lon="2.96153">
        <ele>994.7</ele>
        <time>2026-05-07T10:01:33.000Z</time>
      </trkpt>
      <trkpt lat="43.59614" lon="2.96153">
        <ele>994.7</ele>
        <time>2026-05-07T10:01:34.000Z</time>
      </trkpt>
      <trkpt lat="43.59614" lon="2.96154">
        <ele>995</ele>
        <time>2026-05-07T10:01:35.000Z</time>
      </trkpt>
      <trkpt lat="43.59614" lon="2.96154">
        <ele>995</ele>
        <time>2026-05-07T10:01:36.000Z</time>
      </trkpt>
      <trkpt lat="43.59614" lon="2.96154">
        <ele>995.6</ele>
        <time>2026-05-07T10:01:37.000Z</time>
      </trkpt>
      <trkpt lat="43.59614" lon="2.96155">
        <ele>995.7</ele>
        <time>2026-05-07T10:01:38.000Z</time>
      </trkpt>
      <trkpt lat="43.59613" lon="2.96155">
        <ele>996.2</ele>
        <time>2026-05-07T10:01:39.000Z</time>
      </trkpt>
      <trkpt lat="43.59613" lon="2.96155">
        <ele>996.9</ele>
        <time>2026-05-07T10:01:40.000Z</time>
      </trkpt>
      <trkpt lat="43.59613" lon="2.96155">
        <ele>997.4</ele>
        <time>2026-05-07T10:01:41.000Z</time>
      </trkpt>
      <trkpt lat="43.59612" lon="2.96155">
        <ele>997.7</ele>
        <time>2026-05-07T10:01:42.000Z</time>
      </trkpt>
      <trkpt lat="43.59612" lon="2.96155">
        <ele>998.3</ele>
        <time>2026-05-07T10:01:43.000Z</time>
      </trkpt>
      <trkpt lat="43.59613" lon="2.96155">
        <ele>998.6</ele>
        <time>2026-05-07T10:01:44.000Z</time>
      </trkpt>
      <trkpt lat="43.59612" lon="2.96155">
        <ele>998.8</ele>
        <time>2026-05-07T10:01:45.000Z</time>
      </trkpt>
      <trkpt lat="43.59612" lon="2.96155">
        <ele>999.3</ele>
        <time>2026-05-07T10:01:46.000Z</time>
      </trkpt>
      <trkpt lat="43.59611" lon="2.96155">
        <ele>999.4</ele>
        <time>2026-05-07T10:01:47.000Z</time>
      </trkpt>
      <trkpt lat="43.59611" lon="2.96155">
        <ele>999.8</ele>
        <time>2026-05-07T10:01:48.000Z</time>
      </trkpt>
      <trkpt lat="43.59611" lon="2.96154">
        <ele>1000</ele>
        <time>2026-05-07T10:01:49.000Z</time>
      </trkpt>
      <trkpt lat="43.59611" lon="2.96154">
        <ele>1000.3</ele>
        <time>2026-05-07T10:01:50.000Z</time>
      </trkpt>
      <trkpt lat="43.59612" lon="2.96154">
        <ele>1000.9</ele>
        <time>2026-05-07T10:01:51.000Z</time>
      </trkpt>
      <trkpt lat="43.59612" lon="2.96155">
        <ele>1000.8</ele>
        <time>2026-05-07T10:01:52.000Z</time>
      </trkpt>
      <trkpt lat="43.59611" lon="2.96155">
        <ele>1001</ele>
        <time>2026-05-07T10:01:54.000Z</time>
      </trkpt>
      <trkpt lat="43.59611" lon="2.96155">
        <ele>1001.4</ele>
        <time>2026-05-07T10:01:55.000Z</time>
      </trkpt>
      <trkpt lat="43.59611" lon="2.96155">
        <ele>1001.3</ele>
        <time>2026-05-07T10:01:56.000Z</time>
      </trkpt>
      <trkpt lat="43.59611" lon="2.96156">
        <ele>1001.4</ele>
        <time>2026-05-07T10:01:57.000Z</time>
      </trkpt>
      <trkpt lat="43.5961" lon="2.96156">
        <ele>1001.1</ele>
        <time>2026-05-07T10:01:58.000Z</time>
      </trkpt>
      <trkpt lat="43.5961" lon="2.96157">
        <ele>1001.3</ele>
        <time>2026-05-07T10:01:59.000Z</time>
      </trkpt>
      <trkpt lat="43.5961" lon="2.96157">
        <ele>1001.7</ele>
        <time>2026-05-07T10:02:00.000Z</time>
      </trkpt>
      <trkpt lat="43.5961" lon="2.96157">
        <ele>1003</ele>
        <time>2026-05-07T10:02:01.000Z</time>
      </trkpt>
      <trkpt lat="43.5961" lon="2.96158">
        <ele>1003</ele>
        <time>2026-05-07T10:02:02.000Z</time>
      </trkpt>
      <trkpt lat="43.59611" lon="2.96158">
        <ele>1003.5</ele>
        <time>2026-05-07T10:02:03.000Z</time>
      </trkpt>
      <trkpt lat="43.59611" lon="2.96158">
        <ele>1003.6</ele>
        <time>2026-05-07T10:02:04.000Z</time>
      </trkpt>
      <trkpt lat="43.59612" lon="2.96159">
        <ele>1003.7</ele>
        <time>2026-05-07T10:02:05.000Z</time>
      </trkpt>
      <trkpt lat="43.59611" lon="2.96158">
        <ele>1003.7</ele>
        <time>2026-05-07T10:02:06.000Z</time>
      </trkpt>
      <trkpt lat="43.59611" lon="2.96159">
        <ele>1003.6</ele>
        <time>2026-05-07T10:02:07.000Z</time>
      </trkpt>
      <trkpt lat="43.5961" lon="2.96159">
        <ele>1003.3</ele>
        <time>2026-05-07T10:02:08.000Z</time>
      </trkpt>
      <trkpt lat="43.59611" lon="2.96159">
        <ele>1003</ele>
        <time>2026-05-07T10:02:10.000Z</time>
      </trkpt>
      <trkpt lat="43.59612" lon="2.96158">
        <ele>1003.2</ele>
        <time>2026-05-07T10:02:11.000Z</time>
      </trkpt>
      <trkpt lat="43.59613" lon="2.96158">
        <ele>1003.4</ele>
        <time>2026-05-07T10:02:12.000Z</time>
      </trkpt>
      <trkpt lat="43.59612" lon="2.96158">
        <ele>1003.3</ele>
        <time>2026-05-07T10:02:13.000Z</time>
      </trkpt>
      <trkpt lat="43.59612" lon="2.96158">
        <ele>1003.1</ele>
        <time>2026-05-07T10:02:14.000Z</time>
      </trkpt>
      <trkpt lat="43.59612" lon="2.96158">
        <ele>1002.9</ele>
        <time>2026-05-07T10:02:15.000Z</time>
      </trkpt>
      <trkpt lat="43.59611" lon="2.96158">
        <ele>1002.6</ele>
        <time>2026-05-07T10:02:16.000Z</time>
      </trkpt>
      <trkpt lat="43.59611" lon="2.96157">
        <ele>1002.4</ele>
        <time>2026-05-07T10:02:17.000Z</time>
      </trkpt>
      <trkpt lat="43.59611" lon="2.96157">
        <ele>1002.1</ele>
        <time>2026-05-07T10:02:18.000Z</time>
      </trkpt>
      <trkpt lat="43.59611" lon="2.96156">
        <ele>1002.2</ele>
        <time>2026-05-07T10:02:19.000Z</time>
      </trkpt>
      <trkpt lat="43.59611" lon="2.96157">
        <ele>1002</ele>
        <time>2026-05-07T10:02:20.000Z</time>
      </trkpt>
      <trkpt lat="43.59611" lon="2.96157">
        <ele>1002.4</ele>
        <time>2026-05-07T10:02:21.000Z</time>
      </trkpt>
      <trkpt lat="43.59611" lon="2.96157">
        <ele>1002.3</ele>
        <time>2026-05-07T10:02:22.000Z</time>
      </trkpt>
      <trkpt lat="43.5961" lon="2.96157">
        <ele>1002.7</ele>
        <time>2026-05-07T10:02:23.000Z</time>
      </trkpt>
      <trkpt lat="43.5961" lon="2.96155">
        <ele>1002.7</ele>
        <time>2026-05-07T10:02:24.000Z</time>
      </trkpt>
      <trkpt lat="43.5961" lon="2.96155">
        <ele>1003.1</ele>
        <time>2026-05-07T10:02:25.000Z</time>
      </trkpt>
      <trkpt lat="43.5961" lon="2.96154">
        <ele>1003.5</ele>
        <time>2026-05-07T10:02:26.000Z</time>
      </trkpt>
      <trkpt lat="43.5961" lon="2.96155">
        <ele>1003.5</ele>
        <time>2026-05-07T10:02:27.000Z</time>
      </trkpt>
      <trkpt lat="43.5961" lon="2.96155">
        <ele>1003.5</ele>
        <time>2026-05-07T10:02:28.000Z</time>
      </trkpt>
      <trkpt lat="43.59611" lon="2.96154">
        <ele>1003.5</ele>
        <time>2026-05-07T10:02:29.000Z</time>
      </trkpt>
      <trkpt lat="43.5961" lon="2.96154">
        <ele>1003.6</ele>
        <time>2026-05-07T10:02:30.000Z</time>
      </trkpt>
      <trkpt lat="43.5961" lon="2.96156">
        <ele>1003.5</ele>
        <time>2026-05-07T10:02:31.000Z</time>
      </trkpt>
      <trkpt lat="43.5961" lon="2.96156">
        <ele>1003.7</ele>
        <time>2026-05-07T10:02:32.000Z</time>
      </trkpt>
      <trkpt lat="43.59609" lon="2.96157">
        <ele>1004</ele>
        <time>2026-05-07T10:02:33.000Z</time>
      </trkpt>
      <trkpt lat="43.59609" lon="2.96157">
        <ele>1004.2</ele>
        <time>2026-05-07T10:02:34.000Z</time>
      </trkpt>
      <trkpt lat="43.5961" lon="2.96157">
        <ele>1004.4</ele>
        <time>2026-05-07T10:02:35.000Z</time>
      </trkpt>
      <trkpt lat="43.5961" lon="2.96158">
        <ele>1004.6</ele>
        <time>2026-05-07T10:02:36.000Z</time>
      </trkpt>
      <trkpt lat="43.5961" lon="2.96159">
        <ele>1005.2</ele>
        <time>2026-05-07T10:02:37.000Z</time>
      </trkpt>
      <trkpt lat="43.5961" lon="2.96159">
        <ele>1006.3</ele>
        <time>2026-05-07T10:02:38.000Z</time>
      </trkpt>
      <trkpt lat="43.5961" lon="2.96159">
        <ele>1006</ele>
        <time>2026-05-07T10:02:39.000Z</time>
      </trkpt>
      <trkpt lat="43.5961" lon="2.96159">
        <ele>1006.4</ele>
        <time>2026-05-07T10:02:40.000Z</time>
      </trkpt>
      <trkpt lat="43.5961" lon="2.96159">
        <ele>1006.5</ele>
        <time>2026-05-07T10:02:41.000Z</time>
      </trkpt>
      <trkpt lat="43.5961" lon="2.96159">
        <ele>1007</ele>
        <time>2026-05-07T10:02:42.000Z</time>
      </trkpt>
      <trkpt lat="43.5961" lon="2.96159">
        <ele>1006.8</ele>
        <time>2026-05-07T10:02:43.000Z</time>
      </trkpt>
      <trkpt lat="43.5961" lon="2.96159">
        <ele>1006.7</ele>
        <time>2026-05-07T10:02:44.000Z</time>
      </trkpt>
      <trkpt lat="43.5961" lon="2.96159">
        <ele>1006.8</ele>
        <time>2026-05-07T10:02:45.000Z</time>
      </trkpt>
      <trkpt lat="43.5961" lon="2.96159">
        <ele>1006.8</ele>
        <time>2026-05-07T10:02:46.000Z</time>
      </trkpt>
      <trkpt lat="43.5961" lon="2.96159">
        <ele>1006.8</ele>
        <time>2026-05-07T10:02:47.000Z</time>
      </trkpt>
      <trkpt lat="43.5961" lon="2.96159">
        <ele>1006.8</ele>
        <time>2026-05-07T10:02:48.000Z</time>
      </trkpt>
      <trkpt lat="43.5961" lon="2.96159">
        <ele>1006.7</ele>
        <time>2026-05-07T10:02:49.000Z</time>
      </trkpt>
      <trkpt lat="43.5961" lon="2.96159">
        <ele>1007.1</ele>
        <time>2026-05-07T10:02:50.000Z</time>
      </trkpt>
      <trkpt lat="43.5961" lon="2.96159">
        <ele>1007.3</ele>
        <time>2026-05-07T10:02:51.000Z</time>
      </trkpt>
      <trkpt lat="43.5961" lon="2.96159">
        <ele>1007.4</ele>
        <time>2026-05-07T10:02:52.000Z</time>
      </trkpt>
      <trkpt lat="43.5961" lon="2.96159">
        <ele>1007.3</ele>
        <time>2026-05-07T10:02:53.000Z</time>
      </trkpt>
      <trkpt lat="43.5961" lon="2.9616">
        <ele>1007.2</ele>
        <time>2026-05-07T10:02:54.000Z</time>
      </trkpt>
      <trkpt lat="43.59609" lon="2.9616">
        <ele>1007.2</ele>
        <time>2026-05-07T10:02:55.000Z</time>
      </trkpt>
      <trkpt lat="43.59609" lon="2.96161">
        <ele>1007.5</ele>
        <time>2026-05-07T10:02:56.000Z</time>
      </trkpt>
      <trkpt lat="43.59609" lon="2.96161">
        <ele>1007.8</ele>
        <time>2026-05-07T10:02:57.000Z</time>
      </trkpt>
      <trkpt lat="43.59609" lon="2.96162">
        <ele>1008</ele>
        <time>2026-05-07T10:02:58.000Z</time>
      </trkpt>
      <trkpt lat="43.59609" lon="2.96162">
        <ele>1007.9</ele>
        <time>2026-05-07T10:02:59.000Z</time>
      </trkpt>
      <trkpt lat="43.59609" lon="2.96161">
        <ele>1007.8</ele>
        <time>2026-05-07T10:03:00.000Z</time>
      </trkpt>
      <trkpt lat="43.59609" lon="2.96161">
        <ele>1007.7</ele>
        <time>2026-05-07T10:03:01.000Z</time>
      </trkpt>
      <trkpt lat="43.59609" lon="2.9616">
        <ele>1007.7</ele>
        <time>2026-05-07T10:03:02.000Z</time>
      </trkpt>
      <trkpt lat="43.5961" lon="2.96159">
        <ele>1007.3</ele>
        <time>2026-05-07T10:03:04.000Z</time>
      </trkpt>
      <trkpt lat="43.59609" lon="2.9616">
        <ele>1007.1</ele>
        <time>2026-05-07T10:03:05.000Z</time>
      </trkpt>
      <trkpt lat="43.59609" lon="2.9616">
        <ele>1007</ele>
        <time>2026-05-07T10:03:06.000Z</time>
      </trkpt>
      <trkpt lat="43.59609" lon="2.9616">
        <ele>1006.7</ele>
        <time>2026-05-07T10:03:07.000Z</time>
      </trkpt>
      <trkpt lat="43.59609" lon="2.9616">
        <ele>1006.5</ele>
        <time>2026-05-07T10:03:08.000Z</time>
      </trkpt>
      <trkpt lat="43.59609" lon="2.96161">
        <ele>1006.5</ele>
        <time>2026-05-07T10:03:09.000Z</time>
      </trkpt>
      <trkpt lat="43.59609" lon="2.96161">
        <ele>1006.3</ele>
        <time>2026-05-07T10:03:10.000Z</time>
      </trkpt>
      <trkpt lat="43.59609" lon="2.9616">
        <ele>1006.9</ele>
        <time>2026-05-07T10:03:11.000Z</time>
      </trkpt>
      <trkpt lat="43.59608" lon="2.9616">
        <ele>1006.8</ele>
        <time>2026-05-07T10:03:12.000Z</time>
      </trkpt>
      <trkpt lat="43.59608" lon="2.9616">
        <ele>1006.8</ele>
        <time>2026-05-07T10:03:13.000Z</time>
      </trkpt>
      <trkpt lat="43.59608" lon="2.9616">
        <ele>1007.6</ele>
        <time>2026-05-07T10:03:14.000Z</time>
      </trkpt>
      <trkpt lat="43.59608" lon="2.9616">
        <ele>1007.6</ele>
        <time>2026-05-07T10:03:15.000Z</time>
      </trkpt>
      <trkpt lat="43.59608" lon="2.9616">
        <ele>1007.5</ele>
        <time>2026-05-07T10:03:16.000Z</time>
      </trkpt>
      <trkpt lat="43.59608" lon="2.9616">
        <ele>1007.6</ele>
        <time>2026-05-07T10:03:17.000Z</time>
      </trkpt>
      <trkpt lat="43.59608" lon="2.9616">
        <ele>1007.4</ele>
        <time>2026-05-07T10:03:18.000Z</time>
      </trkpt>
      <trkpt lat="43.59607" lon="2.9616">
        <ele>1007.9</ele>
        <time>2026-05-07T10:03:19.000Z</time>
      </trkpt>
      <trkpt lat="43.59607" lon="2.96161">
        <ele>1007.9</ele>
        <time>2026-05-07T10:03:20.000Z</time>
      </trkpt>
      <trkpt lat="43.59608" lon="2.96161">
        <ele>1008</ele>
        <time>2026-05-07T10:03:21.000Z</time>
      </trkpt>
      <trkpt lat="43.59608" lon="2.96161">
        <ele>1008.6</ele>
        <time>2026-05-07T10:03:22.000Z</time>
      </trkpt>
      <trkpt lat="43.59608" lon="2.96161">
        <ele>1008.8</ele>
        <time>2026-05-07T10:03:23.000Z</time>
      </trkpt>
      <trkpt lat="43.59607" lon="2.96162">
        <ele>1009.1</ele>
        <time>2026-05-07T10:03:24.000Z</time>
      </trkpt>
      <trkpt lat="43.59607" lon="2.96162">
        <ele>1009.4</ele>
        <time>2026-05-07T10:03:25.000Z</time>
      </trkpt>
      <trkpt lat="43.59607" lon="2.96162">
        <ele>1009.5</ele>
        <time>2026-05-07T10:03:26.000Z</time>
      </trkpt>
      <trkpt lat="43.59607" lon="2.96162">
        <ele>1009.7</ele>
        <time>2026-05-07T10:03:27.999Z</time>
      </trkpt>
      <trkpt lat="43.59607" lon="2.96162">
        <ele>1010</ele>
        <time>2026-05-07T10:03:28.999Z</time>
      </trkpt>
      <trkpt lat="43.59607" lon="2.96162">
        <ele>1010.2</ele>
        <time>2026-05-07T10:03:29.999Z</time>
      </trkpt>
      <trkpt lat="43.59607" lon="2.96162">
        <ele>1010.4</ele>
        <time>2026-05-07T10:03:30.999Z</time>
      </trkpt>
      <trkpt lat="43.59607" lon="2.96162">
        <ele>1010.3</ele>
        <time>2026-05-07T10:03:31.999Z</time>
      </trkpt>
      <trkpt lat="43.59607" lon="2.96162">
        <ele>1010.4</ele>
        <time>2026-05-07T10:03:32.999Z</time>
      </trkpt>
      <trkpt lat="43.59608" lon="2.96162">
        <ele>1010.4</ele>
        <time>2026-05-07T10:03:33.999Z</time>
      </trkpt>
      <trkpt lat="43.59608" lon="2.96162">
        <ele>1010.3</ele>
        <time>2026-05-07T10:03:34.999Z</time>
      </trkpt>
      <trkpt lat="43.59608" lon="2.96162">
        <ele>1010.3</ele>
        <time>2026-05-07T10:03:35.999Z</time>
      </trkpt>
      <trkpt lat="43.59607" lon="2.96163">
        <ele>1010.3</ele>
        <time>2026-05-07T10:03:36.999Z</time>
      </trkpt>
      <trkpt lat="43.59607" lon="2.96162">
        <ele>1010.5</ele>
        <time>2026-05-07T10:03:37.999Z</time>
      </trkpt>
      <trkpt lat="43.59607" lon="2.96162">
        <ele>1010.4</ele>
        <time>2026-05-07T10:03:38.999Z</time>
      </trkpt>
      <trkpt lat="43.59607" lon="2.96162">
        <ele>1010.5</ele>
        <time>2026-05-07T10:03:39.999Z</time>
      </trkpt>
      <trkpt lat="43.59608" lon="2.96162">
        <ele>1010.6</ele>
        <time>2026-05-07T10:03:40.999Z</time>
      </trkpt>
      <trkpt lat="43.59608" lon="2.96161">
        <ele>1010.6</ele>
        <time>2026-05-07T10:03:41.999Z</time>
      </trkpt>
      <trkpt lat="43.59607" lon="2.96162">
        <ele>1010.7</ele>
        <time>2026-05-07T10:03:42.999Z</time>
      </trkpt>
      <trkpt lat="43.59607" lon="2.96163">
        <ele>1011.1</ele>
        <time>2026-05-07T10:03:43.999Z</time>
      </trkpt>
      <trkpt lat="43.59606" lon="2.96163">
        <ele>1011.5</ele>
        <time>2026-05-07T10:03:44.999Z</time>
      </trkpt>
      <trkpt lat="43.59607" lon="2.96163">
        <ele>1011.3</ele>
        <time>2026-05-07T10:03:45.999Z</time>
      </trkpt>
      <trkpt lat="43.59607" lon="2.96163">
        <ele>1011.2</ele>
        <time>2026-05-07T10:03:46.999Z</time>
      </trkpt>
      <trkpt lat="43.59607" lon="2.96163">
        <ele>1011.3</ele>
        <time>2026-05-07T10:03:47.999Z</time>
      </trkpt>
      <trkpt lat="43.59607" lon="2.96163">
        <ele>1012</ele>
        <time>2026-05-07T10:03:49.999Z</time>
      </trkpt>
      <trkpt lat="43.59608" lon="2.96164">
        <ele>1012.3</ele>
        <time>2026-05-07T10:03:50.999Z</time>
      </trkpt>
      <trkpt lat="43.59608" lon="2.96164">
        <ele>1012.3</ele>
        <time>2026-05-07T10:03:51.999Z</time>
      </trkpt>
      <trkpt lat="43.59608" lon="2.96164">
        <ele>1012.3</ele>
        <time>2026-05-07T10:03:52.999Z</time>
      </trkpt>
      <trkpt lat="43.59609" lon="2.96163">
        <ele>1012.1</ele>
        <time>2026-05-07T10:03:53.999Z</time>
      </trkpt>
      <trkpt lat="43.59608" lon="2.96163">
        <ele>1013</ele>
        <time>2026-05-07T10:03:54.999Z</time>
      </trkpt>
      <trkpt lat="43.59609" lon="2.96162">
        <ele>1013</ele>
        <time>2026-05-07T10:03:55.999Z</time>
      </trkpt>
      <trkpt lat="43.59608" lon="2.96161">
        <ele>1012.9</ele>
        <time>2026-05-07T10:03:56.999Z</time>
      </trkpt>
      <trkpt lat="43.59608" lon="2.96161">
        <ele>1012.6</ele>
        <time>2026-05-07T10:03:57.999Z</time>
      </trkpt>
      <trkpt lat="43.59608" lon="2.96161">
        <ele>1012.5</ele>
        <time>2026-05-07T10:03:58.999Z</time>
      </trkpt>
      <trkpt lat="43.59608" lon="2.96161">
        <ele>1012.6</ele>
        <time>2026-05-07T10:03:59.999Z</time>
      </trkpt>
      <trkpt lat="43.59608" lon="2.96161">
        <ele>1012.7</ele>
        <time>2026-05-07T10:04:00.999Z</time>
      </trkpt>
      <trkpt lat="43.59608" lon="2.96161">
        <ele>1012.8</ele>
        <time>2026-05-07T10:04:01.999Z</time>
      </trkpt>
      <trkpt lat="43.59608" lon="2.96161">
        <ele>1012.9</ele>
        <time>2026-05-07T10:04:02.999Z</time>
      </trkpt>
      <trkpt lat="43.59608" lon="2.96161">
        <ele>1012.6</ele>
        <time>2026-05-07T10:04:03.999Z</time>
      </trkpt>
      <trkpt lat="43.59608" lon="2.96162">
        <ele>1012.8</ele>
        <time>2026-05-07T10:04:04.999Z</time>
      </trkpt>
      <trkpt lat="43.59608" lon="2.96162">
        <ele>1012.9</ele>
        <time>2026-05-07T10:04:05.999Z</time>
      </trkpt>
      <trkpt lat="43.59608" lon="2.96162">
        <ele>1013.3</ele>
        <time>2026-05-07T10:04:06.999Z</time>
      </trkpt>
      <trkpt lat="43.59608" lon="2.96163">
        <ele>1013.7</ele>
        <time>2026-05-07T10:04:07.999Z</time>
      </trkpt>
      <trkpt lat="43.59609" lon="2.96163">
        <ele>1013.8</ele>
        <time>2026-05-07T10:04:08.999Z</time>
      </trkpt>
      <trkpt lat="43.59609" lon="2.96163">
        <ele>1013.9</ele>
        <time>2026-05-07T10:04:09.999Z</time>
      </trkpt>
      <trkpt lat="43.59609" lon="2.96164">
        <ele>1014.1</ele>
        <time>2026-05-07T10:04:10.999Z</time>
      </trkpt>
      <trkpt lat="43.59609" lon="2.96165">
        <ele>1014.1</ele>
        <time>2026-05-07T10:04:11.999Z</time>
      </trkpt>
      <trkpt lat="43.59608" lon="2.96166">
        <ele>1014.3</ele>
        <time>2026-05-07T10:04:12.999Z</time>
      </trkpt>
      <trkpt lat="43.59608" lon="2.96166">
        <ele>1014.5</ele>
        <time>2026-05-07T10:04:13.999Z</time>
      </trkpt>
      <trkpt lat="43.59608" lon="2.96166">
        <ele>1014.6</ele>
        <time>2026-05-07T10:04:14.999Z</time>
      </trkpt>
      <trkpt lat="43.59609" lon="2.96166">
        <ele>1014.8</ele>
        <time>2026-05-07T10:04:15.999Z</time>
      </trkpt>
      <trkpt lat="43.59609" lon="2.96166">
        <ele>1015.2</ele>
        <time>2026-05-07T10:04:16.999Z</time>
      </trkpt>
      <trkpt lat="43.59609" lon="2.96166">
        <ele>1015.4</ele>
        <time>2026-05-07T10:04:17.999Z</time>
      </trkpt>
      <trkpt lat="43.59609" lon="2.96166">
        <ele>1015.5</ele>
        <time>2026-05-07T10:04:18.999Z</time>
      </trkpt>
      <trkpt lat="43.59609" lon="2.96166">
        <ele>1015.4</ele>
        <time>2026-05-07T10:04:19.999Z</time>
      </trkpt>
      <trkpt lat="43.59609" lon="2.96166">
        <ele>1015.4</ele>
        <time>2026-05-07T10:04:20.999Z</time>
      </trkpt>
      <trkpt lat="43.59609" lon="2.96166">
        <ele>1015.5</ele>
        <time>2026-05-07T10:04:21.999Z</time>
      </trkpt>
      <trkpt lat="43.59609" lon="2.96165">
        <ele>1015.5</ele>
        <time>2026-05-07T10:04:22.999Z</time>
      </trkpt>
      <trkpt lat="43.59609" lon="2.96164">
        <ele>1015.7</ele>
        <time>2026-05-07T10:04:23.999Z</time>
      </trkpt>
      <trkpt lat="43.59609" lon="2.96164">
        <ele>1016.2</ele>
        <time>2026-05-07T10:04:24.999Z</time>
      </trkpt>
      <trkpt lat="43.59609" lon="2.96165">
        <ele>1016.4</ele>
        <time>2026-05-07T10:04:25.999Z</time>
      </trkpt>
      <trkpt lat="43.59608" lon="2.96165">
        <ele>1016.6</ele>
        <time>2026-05-07T10:04:26.999Z</time>
      </trkpt>
      <trkpt lat="43.59608" lon="2.96166">
        <ele>1017.2</ele>
        <time>2026-05-07T10:04:27.999Z</time>
      </trkpt>
      <trkpt lat="43.59608" lon="2.96167">
        <ele>1017.3</ele>
        <time>2026-05-07T10:04:28.999Z</time>
      </trkpt>
      <trkpt lat="43.59608" lon="2.96167">
        <ele>1017.3</ele>
        <time>2026-05-07T10:04:29.999Z</time>
      </trkpt>
      <trkpt lat="43.59608" lon="2.96167">
        <ele>1017.7</ele>
        <time>2026-05-07T10:04:30.999Z</time>
      </trkpt>
      <trkpt lat="43.59608" lon="2.96167">
        <ele>1017.6</ele>
        <time>2026-05-07T10:04:31.999Z</time>
      </trkpt>
      <trkpt lat="43.59608" lon="2.96166">
        <ele>1017.8</ele>
        <time>2026-05-07T10:04:32.999Z</time>
      </trkpt>
      <trkpt lat="43.59608" lon="2.96166">
        <ele>1018.1</ele>
        <time>2026-05-07T10:04:33.999Z</time>
      </trkpt>
      <trkpt lat="43.59608" lon="2.96166">
        <ele>1018.7</ele>
        <time>2026-05-07T10:04:34.999Z</time>
      </trkpt>
      <trkpt lat="43.59608" lon="2.96166">
        <ele>1019</ele>
        <time>2026-05-07T10:04:35.999Z</time>
      </trkpt>
      <trkpt lat="43.59608" lon="2.96166">
        <ele>1019</ele>
        <time>2026-05-07T10:04:36.999Z</time>
      </trkpt>
      <trkpt lat="43.59608" lon="2.96166">
        <ele>1019.1</ele>
        <time>2026-05-07T10:04:37.999Z</time>
      </trkpt>
      <trkpt lat="43.59608" lon="2.96166">
        <ele>1018.9</ele>
        <time>2026-05-07T10:04:38.999Z</time>
      </trkpt>
      <trkpt lat="43.59608" lon="2.96166">
        <ele>1018.7</ele>
        <time>2026-05-07T10:04:39.999Z</time>
      </trkpt>
      <trkpt lat="43.59608" lon="2.96166">
        <ele>1019.1</ele>
        <time>2026-05-07T10:04:40.999Z</time>
      </trkpt>
      <trkpt lat="43.59607" lon="2.96166">
        <ele>1019.3</ele>
        <time>2026-05-07T10:04:41.999Z</time>
      </trkpt>
      <trkpt lat="43.59608" lon="2.96166">
        <ele>1019.6</ele>
        <time>2026-05-07T10:04:42.999Z</time>
      </trkpt>
      <trkpt lat="43.59608" lon="2.96166">
        <ele>1019.2</ele>
        <time>2026-05-07T10:04:43.999Z</time>
      </trkpt>
      <trkpt lat="43.59608" lon="2.96165">
        <ele>1019</ele>
        <time>2026-05-07T10:04:44.999Z</time>
      </trkpt>
      <trkpt lat="43.59608" lon="2.96165">
        <ele>1019.1</ele>
        <time>2026-05-07T10:04:45.999Z</time>
      </trkpt>
      <trkpt lat="43.59608" lon="2.96164">
        <ele>1019.2</ele>
        <time>2026-05-07T10:04:46.999Z</time>
      </trkpt>
      <trkpt lat="43.59607" lon="2.96165">
        <ele>1019.4</ele>
        <time>2026-05-07T10:04:47.999Z</time>
      </trkpt>
      <trkpt lat="43.59607" lon="2.96164">
        <ele>1019.8</ele>
        <time>2026-05-07T10:04:49.999Z</time>
      </trkpt>
      <trkpt lat="43.59607" lon="2.96164">
        <ele>1019.8</ele>
        <time>2026-05-07T10:04:50.999Z</time>
      </trkpt>
      <trkpt lat="43.59606" lon="2.96164">
        <ele>1019.9</ele>
        <time>2026-05-07T10:04:51.999Z</time>
      </trkpt>
      <trkpt lat="43.59606" lon="2.96164">
        <ele>1019.9</ele>
        <time>2026-05-07T10:04:52.999Z</time>
      </trkpt>
      <trkpt lat="43.59606" lon="2.96164">
        <ele>1019.8</ele>
        <time>2026-05-07T10:04:53.999Z</time>
      </trkpt>
      <trkpt lat="43.59606" lon="2.96164">
        <ele>1020</ele>
        <time>2026-05-07T10:04:54.999Z</time>
      </trkpt>
      <trkpt lat="43.59606" lon="2.96164">
        <ele>1019.8</ele>
        <time>2026-05-07T10:04:55.999Z</time>
      </trkpt>
      <trkpt lat="43.59606" lon="2.96164">
        <ele>1019.9</ele>
        <time>2026-05-07T10:04:56.999Z</time>
      </trkpt>
      <trkpt lat="43.59606" lon="2.96164">
        <ele>1020</ele>
        <time>2026-05-07T10:04:57.999Z</time>
      </trkpt>
      <trkpt lat="43.59606" lon="2.96164">
        <ele>1020.2</ele>
        <time>2026-05-07T10:04:58.999Z</time>
      </trkpt>
      <trkpt lat="43.59606" lon="2.96164">
        <ele>1020.5</ele>
        <time>2026-05-07T10:04:59.999Z</time>
      </trkpt>
      <trkpt lat="43.59606" lon="2.96164">
        <ele>1020.7</ele>
        <time>2026-05-07T10:05:00.999Z</time>
      </trkpt>
      <trkpt lat="43.59606" lon="2.96164">
        <ele>1021</ele>
        <time>2026-05-07T10:05:01.999Z</time>
      </trkpt>
      <trkpt lat="43.59606" lon="2.96164">
        <ele>1021.2</ele>
        <time>2026-05-07T10:05:02.999Z</time>
      </trkpt>
      <trkpt lat="43.59606" lon="2.96164">
        <ele>1021.4</ele>
        <time>2026-05-07T10:05:03.999Z</time>
      </trkpt>
      <trkpt lat="43.59605" lon="2.96165">
        <ele>1021.6</ele>
        <time>2026-05-07T10:05:04.999Z</time>
      </trkpt>
      <trkpt lat="43.59605" lon="2.96165">
        <ele>1021.6</ele>
        <time>2026-05-07T10:05:05.999Z</time>
      </trkpt>
      <trkpt lat="43.59604" lon="2.96166">
        <ele>1021.5</ele>
        <time>2026-05-07T10:05:06.999Z</time>
      </trkpt>
      <trkpt lat="43.59604" lon="2.96167">
        <ele>1021.2</ele>
        <time>2026-05-07T10:05:07.999Z</time>
      </trkpt>
      <trkpt lat="43.59604" lon="2.96167">
        <ele>1021.4</ele>
        <time>2026-05-07T10:05:08.999Z</time>
      </trkpt>
      <trkpt lat="43.59604" lon="2.96167">
        <ele>1021.6</ele>
        <time>2026-05-07T10:05:09.999Z</time>
      </trkpt>
      <trkpt lat="43.59604" lon="2.96167">
        <ele>1021.8</ele>
        <time>2026-05-07T10:05:10.999Z</time>
      </trkpt>
      <trkpt lat="43.59604" lon="2.96167">
        <ele>1021.8</ele>
        <time>2026-05-07T10:05:11.999Z</time>
      </trkpt>
      <trkpt lat="43.59603" lon="2.96169">
        <ele>1022</ele>
        <time>2026-05-07T10:05:12.999Z</time>
      </trkpt>
      <trkpt lat="43.59602" lon="2.9617">
        <ele>1022.3</ele>
        <time>2026-05-07T10:05:13.999Z</time>
      </trkpt>
      <trkpt lat="43.59601" lon="2.96171">
        <ele>1022.8</ele>
        <time>2026-05-07T10:05:14.999Z</time>
      </trkpt>
      <trkpt lat="43.59601" lon="2.96172">
        <ele>1022.9</ele>
        <time>2026-05-07T10:05:15.999Z</time>
      </trkpt>
      <trkpt lat="43.59601" lon="2.96172">
        <ele>1022.5</ele>
        <time>2026-05-07T10:05:16.999Z</time>
      </trkpt>
      <trkpt lat="43.59601" lon="2.96172">
        <ele>1022.2</ele>
        <time>2026-05-07T10:05:17.999Z</time>
      </trkpt>
      <trkpt lat="43.59601" lon="2.96172">
        <ele>1022.3</ele>
        <time>2026-05-07T10:05:19.999Z</time>
      </trkpt>
      <trkpt lat="43.59601" lon="2.96172">
        <ele>1022.1</ele>
        <time>2026-05-07T10:05:20.999Z</time>
      </trkpt>
      <trkpt lat="43.59601" lon="2.96172">
        <ele>1022.3</ele>
        <time>2026-05-07T10:05:21.999Z</time>
      </trkpt>
      <trkpt lat="43.59601" lon="2.96172">
        <ele>1022.7</ele>
        <time>2026-05-07T10:05:22.999Z</time>
      </trkpt>
      <trkpt lat="43.59602" lon="2.96173">
        <ele>1023</ele>
        <time>2026-05-07T10:05:23.999Z</time>
      </trkpt>
      <trkpt lat="43.59602" lon="2.96173">
        <ele>1023.3</ele>
        <time>2026-05-07T10:05:24.999Z</time>
      </trkpt>
      <trkpt lat="43.59602" lon="2.96173">
        <ele>1023</ele>
        <time>2026-05-07T10:05:25.999Z</time>
      </trkpt>
      <trkpt lat="43.59603" lon="2.96172">
        <ele>1023.1</ele>
        <time>2026-05-07T10:05:26.999Z</time>
      </trkpt>
      <trkpt lat="43.59602" lon="2.96172">
        <ele>1022.2</ele>
        <time>2026-05-07T10:05:27.999Z</time>
      </trkpt>
      <trkpt lat="43.59602" lon="2.96171">
        <ele>1021.5</ele>
        <time>2026-05-07T10:05:28.999Z</time>
      </trkpt>
      <trkpt lat="43.59603" lon="2.9617">
        <ele>1021.1</ele>
        <time>2026-05-07T10:05:29.999Z</time>
      </trkpt>
      <trkpt lat="43.59604" lon="2.96171">
        <ele>1021.5</ele>
        <time>2026-05-07T10:05:30.999Z</time>
      </trkpt>
      <trkpt lat="43.59604" lon="2.96171">
        <ele>1022</ele>
        <time>2026-05-07T10:05:31.999Z</time>
      </trkpt>
      <trkpt lat="43.59605" lon="2.96171">
        <ele>1023.2</ele>
        <time>2026-05-07T10:05:33.999Z</time>
      </trkpt>
      <trkpt lat="43.59605" lon="2.96171">
        <ele>1024</ele>
        <time>2026-05-07T10:05:34.999Z</time>
      </trkpt>
      <trkpt lat="43.59605" lon="2.96171">
        <ele>1023.6</ele>
        <time>2026-05-07T10:05:35.999Z</time>
      </trkpt>
      <trkpt lat="43.59605" lon="2.96171">
        <ele>1023.8</ele>
        <time>2026-05-07T10:05:36.999Z</time>
      </trkpt>
      <trkpt lat="43.59605" lon="2.96171">
        <ele>1023.7</ele>
        <time>2026-05-07T10:05:37.999Z</time>
      </trkpt>
      <trkpt lat="43.59605" lon="2.96171">
        <ele>1023.2</ele>
        <time>2026-05-07T10:05:38.999Z</time>
      </trkpt>
      <trkpt lat="43.59605" lon="2.96171">
        <ele>1022.9</ele>
        <time>2026-05-07T10:05:39.999Z</time>
      </trkpt>
      <trkpt lat="43.59605" lon="2.96171">
        <ele>1022.7</ele>
        <time>2026-05-07T10:05:40.999Z</time>
      </trkpt>
      <trkpt lat="43.59605" lon="2.96171">
        <ele>1022.8</ele>
        <time>2026-05-07T10:05:41.999Z</time>
      </trkpt>
      <trkpt lat="43.59605" lon="2.96172">
        <ele>1022.7</ele>
        <time>2026-05-07T10:05:42.999Z</time>
      </trkpt>
      <trkpt lat="43.59605" lon="2.96172">
        <ele>1022.6</ele>
        <time>2026-05-07T10:05:43.999Z</time>
      </trkpt>
      <trkpt lat="43.59605" lon="2.96172">
        <ele>1022.5</ele>
        <time>2026-05-07T10:05:44.999Z</time>
      </trkpt>
      <trkpt lat="43.59604" lon="2.96172">
        <ele>1022.3</ele>
        <time>2026-05-07T10:05:45.999Z</time>
      </trkpt>
      <trkpt lat="43.59604" lon="2.96173">
        <ele>1022.1</ele>
        <time>2026-05-07T10:05:46.999Z</time>
      </trkpt>
      <trkpt lat="43.59604" lon="2.96173">
        <ele>1021.9</ele>
        <time>2026-05-07T10:05:47.999Z</time>
      </trkpt>
      <trkpt lat="43.59604" lon="2.96174">
        <ele>1021.8</ele>
        <time>2026-05-07T10:05:48.999Z</time>
      </trkpt>
      <trkpt lat="43.59604" lon="2.96174">
        <ele>1021.8</ele>
        <time>2026-05-07T10:05:49.999Z</time>
      </trkpt>
      <trkpt lat="43.59604" lon="2.96176">
        <ele>1021.7</ele>
        <time>2026-05-07T10:05:50.999Z</time>
      </trkpt>
      <trkpt lat="43.59603" lon="2.96177">
        <ele>1021.5</ele>
        <time>2026-05-07T10:05:51.999Z</time>
      </trkpt>
      <trkpt lat="43.59603" lon="2.96178">
        <ele>1021.3</ele>
        <time>2026-05-07T10:05:52.999Z</time>
      </trkpt>
      <trkpt lat="43.59603" lon="2.96179">
        <ele>1021.2</ele>
        <time>2026-05-07T10:05:53.999Z</time>
      </trkpt>
      <trkpt lat="43.59603" lon="2.96179">
        <ele>1020.8</ele>
        <time>2026-05-07T10:05:54.999Z</time>
      </trkpt>
      <trkpt lat="43.59603" lon="2.96179">
        <ele>1020.7</ele>
        <time>2026-05-07T10:05:55.999Z</time>
      </trkpt>
      <trkpt lat="43.59604" lon="2.96177">
        <ele>1020.3</ele>
        <time>2026-05-07T10:05:56.999Z</time>
      </trkpt>
      <trkpt lat="43.59605" lon="2.96175">
        <ele>1019.8</ele>
        <time>2026-05-07T10:05:58.999Z</time>
      </trkpt>
      <trkpt lat="43.59605" lon="2.96175">
        <ele>1019.6</ele>
        <time>2026-05-07T10:05:59.999Z</time>
      </trkpt>
      <trkpt lat="43.59605" lon="2.96175">
        <ele>1020</ele>
        <time>2026-05-07T10:06:00.999Z</time>
      </trkpt>
      <trkpt lat="43.59605" lon="2.96175">
        <ele>1019.9</ele>
        <time>2026-05-07T10:06:01.999Z</time>
      </trkpt>
      <trkpt lat="43.59605" lon="2.96175">
        <ele>1019.9</ele>
        <time>2026-05-07T10:06:02.999Z</time>
      </trkpt>
      <trkpt lat="43.59605" lon="2.96174">
        <ele>1019.7</ele>
        <time>2026-05-07T10:06:03.999Z</time>
      </trkpt>
      <trkpt lat="43.59604" lon="2.96174">
        <ele>1019.6</ele>
        <time>2026-05-07T10:06:04.999Z</time>
      </trkpt>
      <trkpt lat="43.59604" lon="2.96174">
        <ele>1019.6</ele>
        <time>2026-05-07T10:06:05.999Z</time>
      </trkpt>
      <trkpt lat="43.59604" lon="2.96173">
        <ele>1019.6</ele>
        <time>2026-05-07T10:06:06.999Z</time>
      </trkpt>
      <trkpt lat="43.59605" lon="2.96172">
        <ele>1019.8</ele>
        <time>2026-05-07T10:06:07.999Z</time>
      </trkpt>
      <trkpt lat="43.59605" lon="2.96172">
        <ele>1019.6</ele>
        <time>2026-05-07T10:06:08.999Z</time>
      </trkpt>
      <trkpt lat="43.59605" lon="2.96171">
        <ele>1019.6</ele>
        <time>2026-05-07T10:06:09.999Z</time>
      </trkpt>
      <trkpt lat="43.59606" lon="2.96171">
        <ele>1019.6</ele>
        <time>2026-05-07T10:06:10.999Z</time>
      </trkpt>
      <trkpt lat="43.59606" lon="2.96171">
        <ele>1019.7</ele>
        <time>2026-05-07T10:06:11.999Z</time>
      </trkpt>
      <trkpt lat="43.59607" lon="2.96171">
        <ele>1019.9</ele>
        <time>2026-05-07T10:06:12.999Z</time>
      </trkpt>
      <trkpt lat="43.59607" lon="2.9617">
        <ele>1019.8</ele>
        <time>2026-05-07T10:06:13.999Z</time>
      </trkpt>
      <trkpt lat="43.59607" lon="2.9617">
        <ele>1019.6</ele>
        <time>2026-05-07T10:06:14.999Z</time>
      </trkpt>
      <trkpt lat="43.59607" lon="2.9617">
        <ele>1020.1</ele>
        <time>2026-05-07T10:06:15.999Z</time>
      </trkpt>
      <trkpt lat="43.59607" lon="2.9617">
        <ele>1020</ele>
        <time>2026-05-07T10:06:16.999Z</time>
      </trkpt>
      <trkpt lat="43.59607" lon="2.9617">
        <ele>1019.9</ele>
        <time>2026-05-07T10:06:17.999Z</time>
      </trkpt>
      <trkpt lat="43.59608" lon="2.9617">
        <ele>1019.7</ele>
        <time>2026-05-07T10:06:18.999Z</time>
      </trkpt>
      <trkpt lat="43.59608" lon="2.9617">
        <ele>1019.5</ele>
        <time>2026-05-07T10:06:19.999Z</time>
      </trkpt>
      <trkpt lat="43.59607" lon="2.9617">
        <ele>1019.3</ele>
        <time>2026-05-07T10:06:20.999Z</time>
      </trkpt>
      <trkpt lat="43.59607" lon="2.96172">
        <ele>1019.4</ele>
        <time>2026-05-07T10:06:21.999Z</time>
      </trkpt>
      <trkpt lat="43.59607" lon="2.96173">
        <ele>1019.9</ele>
        <time>2026-05-07T10:06:22.999Z</time>
      </trkpt>
      <trkpt lat="43.59607" lon="2.96174">
        <ele>1019.9</ele>
        <time>2026-05-07T10:06:23.999Z</time>
      </trkpt>
      <trkpt lat="43.59607" lon="2.96174">
        <ele>1019.6</ele>
        <time>2026-05-07T10:06:24.999Z</time>
      </trkpt>
      <trkpt lat="43.59607" lon="2.96174">
        <ele>1019.4</ele>
        <time>2026-05-07T10:06:25.999Z</time>
      </trkpt>
      <trkpt lat="43.59607" lon="2.96174">
        <ele>1019.4</ele>
        <time>2026-05-07T10:06:26.999Z</time>
      </trkpt>
      <trkpt lat="43.59607" lon="2.96175">
        <ele>1019.3</ele>
        <time>2026-05-07T10:06:27.999Z</time>
      </trkpt>
      <trkpt lat="43.59607" lon="2.96174">
        <ele>1018.8</ele>
        <time>2026-05-07T10:06:28.999Z</time>
      </trkpt>
      <trkpt lat="43.59607" lon="2.96174">
        <ele>1018.6</ele>
        <time>2026-05-07T10:06:29.999Z</time>
      </trkpt>
      <trkpt lat="43.59607" lon="2.96174">
        <ele>1018.5</ele>
        <time>2026-05-07T10:06:30.999Z</time>
      </trkpt>
      <trkpt lat="43.59607" lon="2.96174">
        <ele>1018.9</ele>
        <time>2026-05-07T10:06:31.999Z</time>
      </trkpt>
      <trkpt lat="43.59607" lon="2.96174">
        <ele>1019.2</ele>
        <time>2026-05-07T10:06:32.999Z</time>
      </trkpt>
      <trkpt lat="43.59607" lon="2.96174">
        <ele>1019.6</ele>
        <time>2026-05-07T10:06:33.999Z</time>
      </trkpt>
      <trkpt lat="43.59607" lon="2.96174">
        <ele>1019.3</ele>
        <time>2026-05-07T10:06:34.999Z</time>
      </trkpt>
      <trkpt lat="43.59607" lon="2.96174">
        <ele>1019.3</ele>
        <time>2026-05-07T10:06:35.999Z</time>
      </trkpt>
      <trkpt lat="43.59607" lon="2.96174">
        <ele>1019.3</ele>
        <time>2026-05-07T10:06:36.999Z</time>
      </trkpt>
      <trkpt lat="43.59607" lon="2.96174">
        <ele>1019.1</ele>
        <time>2026-05-07T10:06:37.999Z</time>
      </trkpt>
      <trkpt lat="43.59607" lon="2.96172">
        <ele>1018.9</ele>
        <time>2026-05-07T10:06:38.999Z</time>
      </trkpt>
      <trkpt lat="43.59608" lon="2.9617">
        <ele>1019</ele>
        <time>2026-05-07T10:06:39.999Z</time>
      </trkpt>
      <trkpt lat="43.59609" lon="2.96168">
        <ele>1018.9</ele>
        <time>2026-05-07T10:06:40.999Z</time>
      </trkpt>
      <trkpt lat="43.5961" lon="2.96166">
        <ele>1019.3</ele>
        <time>2026-05-07T10:06:41.999Z</time>
      </trkpt>
      <trkpt lat="43.5961" lon="2.96167">
        <ele>1019.7</ele>
        <time>2026-05-07T10:06:42.999Z</time>
      </trkpt>
      <trkpt lat="43.5961" lon="2.96168">
        <ele>1019.8</ele>
        <time>2026-05-07T10:06:43.999Z</time>
      </trkpt>
      <trkpt lat="43.5961" lon="2.96168">
        <ele>1019.7</ele>
        <time>2026-05-07T10:06:44.999Z</time>
      </trkpt>
      <trkpt lat="43.59609" lon="2.96169">
        <ele>1019.6</ele>
        <time>2026-05-07T10:06:45.999Z</time>
      </trkpt>
      <trkpt lat="43.59609" lon="2.96168">
        <ele>1019.3</ele>
        <time>2026-05-07T10:06:46.999Z</time>
      </trkpt>
      <trkpt lat="43.59609" lon="2.96168">
        <ele>1018.9</ele>
        <time>2026-05-07T10:06:47.999Z</time>
      </trkpt>
      <trkpt lat="43.59609" lon="2.96167">
        <ele>1018.1</ele>
        <time>2026-05-07T10:06:48.999Z</time>
      </trkpt>
      <trkpt lat="43.59609" lon="2.96168">
        <ele>1018</ele>
        <time>2026-05-07T10:06:49.999Z</time>
      </trkpt>
      <trkpt lat="43.59609" lon="2.96168">
        <ele>1017.9</ele>
        <time>2026-05-07T10:06:50.999Z</time>
      </trkpt>
      <trkpt lat="43.59609" lon="2.96168">
        <ele>1017.6</ele>
        <time>2026-05-07T10:06:52.999Z</time>
      </trkpt>
      <trkpt lat="43.59608" lon="2.96169">
        <ele>1017.3</ele>
        <time>2026-05-07T10:06:53.999Z</time>
      </trkpt>
      <trkpt lat="43.59608" lon="2.96169">
        <ele>1017</ele>
        <time>2026-05-07T10:06:54.999Z</time>
      </trkpt>
      <trkpt lat="43.59607" lon="2.96169">
        <ele>1016.9</ele>
        <time>2026-05-07T10:06:55.999Z</time>
      </trkpt>
      <trkpt lat="43.59607" lon="2.96169">
        <ele>1016.7</ele>
        <time>2026-05-07T10:06:56.999Z</time>
      </trkpt>
      <trkpt lat="43.59607" lon="2.96169">
        <ele>1016.3</ele>
        <time>2026-05-07T10:06:57.999Z</time>
      </trkpt>
      <trkpt lat="43.59607" lon="2.96168">
        <ele>1016.1</ele>
        <time>2026-05-07T10:06:58.999Z</time>
      </trkpt>
      <trkpt lat="43.59607" lon="2.96169">
        <ele>1016.2</ele>
        <time>2026-05-07T10:06:59.999Z</time>
      </trkpt>
      <trkpt lat="43.59607" lon="2.96169">
        <ele>1016.2</ele>
        <time>2026-05-07T10:07:00.999Z</time>
      </trkpt>
      <trkpt lat="43.59607" lon="2.96169">
        <ele>1016.4</ele>
        <time>2026-05-07T10:07:01.999Z</time>
      </trkpt>
      <trkpt lat="43.59607" lon="2.96169">
        <ele>1016.5</ele>
        <time>2026-05-07T10:07:02.999Z</time>
      </trkpt>
      <trkpt lat="43.59607" lon="2.96169">
        <ele>1016.4</ele>
        <time>2026-05-07T10:07:03.999Z</time>
      </trkpt>
      <trkpt lat="43.59607" lon="2.96169">
        <ele>1016.1</ele>
        <time>2026-05-07T10:07:04.999Z</time>
      </trkpt>
      <trkpt lat="43.59607" lon="2.96169">
        <ele>1016.5</ele>
        <time>2026-05-07T10:07:05.999Z</time>
      </trkpt>
      <trkpt lat="43.59607" lon="2.96169">
        <ele>1016.4</ele>
        <time>2026-05-07T10:07:07.999Z</time>
      </trkpt>
      <trkpt lat="43.59607" lon="2.96169">
        <ele>1016.4</ele>
        <time>2026-05-07T10:07:08.999Z</time>
      </trkpt>
      <trkpt lat="43.59607" lon="2.96168">
        <ele>1016.5</ele>
        <time>2026-05-07T10:07:09.999Z</time>
      </trkpt>
      <trkpt lat="43.59607" lon="2.96168">
        <ele>1016.6</ele>
        <time>2026-05-07T10:07:10.999Z</time>
      </trkpt>
      <trkpt lat="43.59607" lon="2.96168">
        <ele>1016.9</ele>
        <time>2026-05-07T10:07:11.999Z</time>
      </trkpt>
      <trkpt lat="43.59607" lon="2.96168">
        <ele>1017.4</ele>
        <time>2026-05-07T10:07:12.999Z</time>
      </trkpt>
      <trkpt lat="43.59607" lon="2.96168">
        <ele>1017.8</ele>
        <time>2026-05-07T10:07:13.999Z</time>
      </trkpt>
      <trkpt lat="43.59607" lon="2.96168">
        <ele>1018.4</ele>
        <time>2026-05-07T10:07:14.999Z</time>
      </trkpt>
      <trkpt lat="43.59607" lon="2.96168">
        <ele>1018.5</ele>
        <time>2026-05-07T10:07:15.999Z</time>
      </trkpt>
      <trkpt lat="43.59607" lon="2.96168">
        <ele>1018.6</ele>
        <time>2026-05-07T10:07:16.999Z</time>
      </trkpt>
      <trkpt lat="43.59607" lon="2.96168">
        <ele>1018.9</ele>
        <time>2026-05-07T10:07:17.999Z</time>
      </trkpt>
      <trkpt lat="43.59607" lon="2.96168">
        <ele>1019.1</ele>
        <time>2026-05-07T10:07:18.999Z</time>
      </trkpt>
      <trkpt lat="43.59607" lon="2.96168">
        <ele>1019.2</ele>
        <time>2026-05-07T10:07:19.999Z</time>
      </trkpt>
      <trkpt lat="43.59607" lon="2.96168">
        <ele>1019.3</ele>
        <time>2026-05-07T10:07:20.999Z</time>
      </trkpt>
      <trkpt lat="43.59608" lon="2.96167">
        <ele>1019.4</ele>
        <time>2026-05-07T10:07:21.999Z</time>
      </trkpt>
      <trkpt lat="43.59608" lon="2.96166">
        <ele>1019.2</ele>
        <time>2026-05-07T10:07:22.999Z</time>
      </trkpt>
      <trkpt lat="43.59608" lon="2.96166">
        <ele>1018.6</ele>
        <time>2026-05-07T10:07:23.999Z</time>
      </trkpt>
      <trkpt lat="43.59609" lon="2.96166">
        <ele>1018.5</ele>
        <time>2026-05-07T10:07:24.999Z</time>
      </trkpt>
      <trkpt lat="43.59609" lon="2.96167">
        <ele>1018.5</ele>
        <time>2026-05-07T10:07:25.999Z</time>
      </trkpt>
      <trkpt lat="43.59609" lon="2.96167">
        <ele>1018.4</ele>
        <time>2026-05-07T10:07:26.999Z</time>
      </trkpt>
      <trkpt lat="43.59608" lon="2.96168">
        <ele>1019.4</ele>
        <time>2026-05-07T10:07:27.999Z</time>
      </trkpt>
      <trkpt lat="43.59608" lon="2.96171">
        <ele>1020</ele>
        <time>2026-05-07T10:07:28.999Z</time>
      </trkpt>
      <trkpt lat="43.59607" lon="2.96173">
        <ele>1020.4</ele>
        <time>2026-05-07T10:07:29.999Z</time>
      </trkpt>
      <trkpt lat="43.59607" lon="2.96173">
        <ele>1020.3</ele>
        <time>2026-05-07T10:07:30.999Z</time>
      </trkpt>
      <trkpt lat="43.59607" lon="2.96173">
        <ele>1020.1</ele>
        <time>2026-05-07T10:07:31.999Z</time>
      </trkpt>
      <trkpt lat="43.59607" lon="2.96173">
        <ele>1019.9</ele>
        <time>2026-05-07T10:07:32.999Z</time>
      </trkpt>
      <trkpt lat="43.59607" lon="2.96173">
        <ele>1020.1</ele>
        <time>2026-05-07T10:07:33.999Z</time>
      </trkpt>
      <trkpt lat="43.59607" lon="2.96173">
        <ele>1020</ele>
        <time>2026-05-07T10:07:34.999Z</time>
      </trkpt>
      <trkpt lat="43.59607" lon="2.96174">
        <ele>1019.8</ele>
        <time>2026-05-07T10:07:35.999Z</time>
      </trkpt>
      <trkpt lat="43.59607" lon="2.96174">
        <ele>1019.7</ele>
        <time>2026-05-07T10:07:36.999Z</time>
      </trkpt>
      <trkpt lat="43.59607" lon="2.96173">
        <ele>1019.6</ele>
        <time>2026-05-07T10:07:37.999Z</time>
      </trkpt>
      <trkpt lat="43.59608" lon="2.96171">
        <ele>1019.6</ele>
        <time>2026-05-07T10:07:38.999Z</time>
      </trkpt>
      <trkpt lat="43.59608" lon="2.96171">
        <ele>1019.7</ele>
        <time>2026-05-07T10:07:39.999Z</time>
      </trkpt>
      <trkpt lat="43.59608" lon="2.96171">
        <ele>1020.1</ele>
        <time>2026-05-07T10:07:40.999Z</time>
      </trkpt>
      <trkpt lat="43.59608" lon="2.96171">
        <ele>1020.1</ele>
        <time>2026-05-07T10:07:41.999Z</time>
      </trkpt>
      <trkpt lat="43.59608" lon="2.96171">
        <ele>1020.3</ele>
        <time>2026-05-07T10:07:42.999Z</time>
      </trkpt>
      <trkpt lat="43.59608" lon="2.96171">
        <ele>1020.3</ele>
        <time>2026-05-07T10:07:43.999Z</time>
      </trkpt>
      <trkpt lat="43.59608" lon="2.96171">
        <ele>1020.2</ele>
        <time>2026-05-07T10:07:44.999Z</time>
      </trkpt>
      <trkpt lat="43.59608" lon="2.96171">
        <ele>1020</ele>
        <time>2026-05-07T10:07:45.999Z</time>
      </trkpt>
      <trkpt lat="43.59608" lon="2.96171">
        <ele>1020.4</ele>
        <time>2026-05-07T10:07:46.999Z</time>
      </trkpt>
      <trkpt lat="43.59608" lon="2.96171">
        <ele>1021.1</ele>
        <time>2026-05-07T10:07:47.999Z</time>
      </trkpt>
      <trkpt lat="43.59608" lon="2.96171">
        <ele>1021.4</ele>
        <time>2026-05-07T10:07:48.999Z</time>
      </trkpt>
      <trkpt lat="43.59608" lon="2.96171">
        <ele>1021.8</ele>
        <time>2026-05-07T10:07:49.999Z</time>
      </trkpt>
      <trkpt lat="43.59608" lon="2.96171">
        <ele>1021.7</ele>
        <time>2026-05-07T10:07:50.999Z</time>
      </trkpt>
      <trkpt lat="43.59608" lon="2.96171">
        <ele>1021.7</ele>
        <time>2026-05-07T10:07:51.999Z</time>
      </trkpt>
      <trkpt lat="43.59608" lon="2.96171">
        <ele>1021.8</ele>
        <time>2026-05-07T10:07:52.999Z</time>
      </trkpt>
      <trkpt lat="43.59608" lon="2.96171">
        <ele>1022.1</ele>
        <time>2026-05-07T10:07:53.999Z</time>
      </trkpt>
      <trkpt lat="43.59608" lon="2.96171">
        <ele>1022.2</ele>
        <time>2026-05-07T10:07:54.999Z</time>
      </trkpt>
      <trkpt lat="43.59608" lon="2.96171">
        <ele>1022.1</ele>
        <time>2026-05-07T10:07:55.999Z</time>
      </trkpt>
      <trkpt lat="43.59608" lon="2.96172">
        <ele>1021.8</ele>
        <time>2026-05-07T10:07:56.999Z</time>
      </trkpt>
      <trkpt lat="43.59608" lon="2.96172">
        <ele>1021.7</ele>
        <time>2026-05-07T10:07:57.999Z</time>
      </trkpt>
      <trkpt lat="43.59608" lon="2.96171">
        <ele>1021.4</ele>
        <time>2026-05-07T10:07:58.999Z</time>
      </trkpt>
      <trkpt lat="43.59608" lon="2.96171">
        <ele>1021.1</ele>
        <time>2026-05-07T10:07:59.999Z</time>
      </trkpt>
      <trkpt lat="43.59608" lon="2.96171">
        <ele>1020.9</ele>
        <time>2026-05-07T10:08:00.999Z</time>
      </trkpt>
      <trkpt lat="43.59608" lon="2.9617">
        <ele>1020.8</ele>
        <time>2026-05-07T10:08:01.999Z</time>
      </trkpt>
      <trkpt lat="43.59608" lon="2.9617">
        <ele>1020.8</ele>
        <time>2026-05-07T10:08:02.999Z</time>
      </trkpt>
      <trkpt lat="43.59609" lon="2.96169">
        <ele>1020.8</ele>
        <time>2026-05-07T10:08:03.999Z</time>
      </trkpt>
      <trkpt lat="43.59609" lon="2.96169">
        <ele>1020.8</ele>
        <time>2026-05-07T10:08:04.999Z</time>
      </trkpt>
      <trkpt lat="43.59609" lon="2.96168">
        <ele>1020.8</ele>
        <time>2026-05-07T10:08:05.999Z</time>
      </trkpt>
      <trkpt lat="43.59609" lon="2.96168">
        <ele>1020.8</ele>
        <time>2026-05-07T10:08:06.999Z</time>
      </trkpt>
      <trkpt lat="43.59609" lon="2.96169">
        <ele>1020.7</ele>
        <time>2026-05-07T10:08:07.999Z</time>
      </trkpt>
      <trkpt lat="43.59608" lon="2.96171">
        <ele>1020.8</ele>
        <time>2026-05-07T10:08:08.999Z</time>
      </trkpt>
      <trkpt lat="43.59608" lon="2.96171">
        <ele>1020.7</ele>
        <time>2026-05-07T10:08:09.999Z</time>
      </trkpt>
      <trkpt lat="43.59608" lon="2.96171">
        <ele>1020.2</ele>
        <time>2026-05-07T10:08:10.999Z</time>
      </trkpt>
      <trkpt lat="43.59608" lon="2.9617">
        <ele>1019.4</ele>
        <time>2026-05-07T10:08:11.999Z</time>
      </trkpt>
      <trkpt lat="43.59608" lon="2.9617">
        <ele>1019.2</ele>
        <time>2026-05-07T10:08:12.999Z</time>
      </trkpt>
      <trkpt lat="43.59608" lon="2.96169">
        <ele>1018.9</ele>
        <time>2026-05-07T10:08:13.999Z</time>
      </trkpt>
      <trkpt lat="43.59608" lon="2.96169">
        <ele>1018.6</ele>
        <time>2026-05-07T10:08:14.999Z</time>
      </trkpt>
      <trkpt lat="43.59608" lon="2.9617">
        <ele>1018.6</ele>
        <time>2026-05-07T10:08:15.999Z</time>
      </trkpt>
      <trkpt lat="43.59608" lon="2.9617">
        <ele>1018.7</ele>
        <time>2026-05-07T10:08:16.999Z</time>
      </trkpt>
      <trkpt lat="43.59607" lon="2.96169">
        <ele>1018.9</ele>
        <time>2026-05-07T10:08:17.999Z</time>
      </trkpt>
      <trkpt lat="43.59607" lon="2.9617">
        <ele>1018.9</ele>
        <time>2026-05-07T10:08:18.999Z</time>
      </trkpt>
      <trkpt lat="43.59607" lon="2.96169">
        <ele>1018.5</ele>
        <time>2026-05-07T10:08:19.999Z</time>
      </trkpt>
      <trkpt lat="43.59607" lon="2.96168">
        <ele>1018.3</ele>
        <time>2026-05-07T10:08:20.999Z</time>
      </trkpt>
      <trkpt lat="43.59607" lon="2.96168">
        <ele>1019.2</ele>
        <time>2026-05-07T10:08:21.999Z</time>
      </trkpt>
      <trkpt lat="43.59607" lon="2.96168">
        <ele>1020</ele>
        <time>2026-05-07T10:08:22.999Z</time>
      </trkpt>
      <trkpt lat="43.59608" lon="2.96168">
        <ele>1020.2</ele>
        <time>2026-05-07T10:08:23.999Z</time>
      </trkpt>
      <trkpt lat="43.59607" lon="2.96168">
        <ele>1020.2</ele>
        <time>2026-05-07T10:08:24.999Z</time>
      </trkpt>
      <trkpt lat="43.59607" lon="2.96167">
        <ele>1020.2</ele>
        <time>2026-05-07T10:08:25.999Z</time>
      </trkpt>
      <trkpt lat="43.59608" lon="2.96167">
        <ele>1020.1</ele>
        <time>2026-05-07T10:08:26.999Z</time>
      </trkpt>
      <trkpt lat="43.59608" lon="2.96166">
        <ele>1020.3</ele>
        <time>2026-05-07T10:08:27.999Z</time>
      </trkpt>
      <trkpt lat="43.59608" lon="2.96166">
        <ele>1020.2</ele>
        <time>2026-05-07T10:08:28.999Z</time>
      </trkpt>
      <trkpt lat="43.59609" lon="2.96166">
        <ele>1019.9</ele>
        <time>2026-05-07T10:08:29.999Z</time>
      </trkpt>
      <trkpt lat="43.5961" lon="2.96165">
        <ele>1019.3</ele>
        <time>2026-05-07T10:08:30.999Z</time>
      </trkpt>
      <trkpt lat="43.59611" lon="2.96165">
        <ele>1018.9</ele>
        <time>2026-05-07T10:08:31.999Z</time>
      </trkpt>
      <trkpt lat="43.59611" lon="2.96165">
        <ele>1018.7</ele>
        <time>2026-05-07T10:08:32.999Z</time>
      </trkpt>
      <trkpt lat="43.59611" lon="2.96165">
        <ele>1018.6</ele>
        <time>2026-05-07T10:08:33.999Z</time>
      </trkpt>
      <trkpt lat="43.5961" lon="2.96166">
        <ele>1018.5</ele>
        <time>2026-05-07T10:08:34.999Z</time>
      </trkpt>
      <trkpt lat="43.5961" lon="2.96167">
        <ele>1018.4</ele>
        <time>2026-05-07T10:08:35.999Z</time>
      </trkpt>
      <trkpt lat="43.59609" lon="2.96166">
        <ele>1018.1</ele>
        <time>2026-05-07T10:08:36.999Z</time>
      </trkpt>
      <trkpt lat="43.59609" lon="2.96166">
        <ele>1018</ele>
        <time>2026-05-07T10:08:37.999Z</time>
      </trkpt>
      <trkpt lat="43.5961" lon="2.96167">
        <ele>1018.9</ele>
        <time>2026-05-07T10:08:38.999Z</time>
      </trkpt>
      <trkpt lat="43.5961" lon="2.96166">
        <ele>1019.1</ele>
        <time>2026-05-07T10:08:39.999Z</time>
      </trkpt>
      <trkpt lat="43.5961" lon="2.96166">
        <ele>1019</ele>
        <time>2026-05-07T10:08:40.999Z</time>
      </trkpt>
      <trkpt lat="43.5961" lon="2.96166">
        <ele>1018.6</ele>
        <time>2026-05-07T10:08:41.999Z</time>
      </trkpt>
      <trkpt lat="43.5961" lon="2.96166">
        <ele>1018.6</ele>
        <time>2026-05-07T10:08:42.999Z</time>
      </trkpt>
      <trkpt lat="43.5961" lon="2.96166">
        <ele>1018.6</ele>
        <time>2026-05-07T10:08:43.999Z</time>
      </trkpt>
      <trkpt lat="43.59609" lon="2.96166">
        <ele>1019</ele>
        <time>2026-05-07T10:08:44.999Z</time>
      </trkpt>
      <trkpt lat="43.59609" lon="2.96165">
        <ele>1019.7</ele>
        <time>2026-05-07T10:08:45.999Z</time>
      </trkpt>
      <trkpt lat="43.5961" lon="2.96165">
        <ele>1020.3</ele>
        <time>2026-05-07T10:08:46.999Z</time>
      </trkpt>
      <trkpt lat="43.5961" lon="2.96164">
        <ele>1021</ele>
        <time>2026-05-07T10:08:48.999Z</time>
      </trkpt>
      <trkpt lat="43.5961" lon="2.96164">
        <ele>1021.1</ele>
        <time>2026-05-07T10:08:49.999Z</time>
      </trkpt>
      <trkpt lat="43.5961" lon="2.96164">
        <ele>1020.9</ele>
        <time>2026-05-07T10:08:50.999Z</time>
      </trkpt>
      <trkpt lat="43.5961" lon="2.96164">
        <ele>1020.1</ele>
        <time>2026-05-07T10:08:51.999Z</time>
      </trkpt>
      <trkpt lat="43.5961" lon="2.96164">
        <ele>1020.5</ele>
        <time>2026-05-07T10:08:52.999Z</time>
      </trkpt>
      <trkpt lat="43.59609" lon="2.96164">
        <ele>1020.5</ele>
        <time>2026-05-07T10:08:53.999Z</time>
      </trkpt>
      <trkpt lat="43.59608" lon="2.96163">
        <ele>1020.3</ele>
        <time>2026-05-07T10:08:54.999Z</time>
      </trkpt>
      <trkpt lat="43.59608" lon="2.96163">
        <ele>1020.6</ele>
        <time>2026-05-07T10:08:55.999Z</time>
      </trkpt>
      <trkpt lat="43.59607" lon="2.96163">
        <ele>1021</ele>
        <time>2026-05-07T10:08:56.999Z</time>
      </trkpt>
      <trkpt lat="43.59607" lon="2.96164">
        <ele>1021.8</ele>
        <time>2026-05-07T10:08:57.999Z</time>
      </trkpt>
      <trkpt lat="43.59607" lon="2.96164">
        <ele>1021.7</ele>
        <time>2026-05-07T10:08:58.999Z</time>
      </trkpt>
      <trkpt lat="43.59606" lon="2.96163">
        <ele>1021.7</ele>
        <time>2026-05-07T10:08:59.999Z</time>
      </trkpt>
      <trkpt lat="43.59606" lon="2.96163">
        <ele>1021.8</ele>
        <time>2026-05-07T10:09:00.999Z</time>
      </trkpt>
      <trkpt lat="43.59605" lon="2.96161">
        <ele>1021.9</ele>
        <time>2026-05-07T10:09:01.999Z</time>
      </trkpt>
      <trkpt lat="43.59605" lon="2.96161">
        <ele>1021.9</ele>
        <time>2026-05-07T10:09:02.999Z</time>
      </trkpt>
      <trkpt lat="43.59605" lon="2.96161">
        <ele>1022</ele>
        <time>2026-05-07T10:09:03.999Z</time>
      </trkpt>
      <trkpt lat="43.59604" lon="2.9616">
        <ele>1022</ele>
        <time>2026-05-07T10:09:04.999Z</time>
      </trkpt>
      <trkpt lat="43.59604" lon="2.9616">
        <ele>1022.1</ele>
        <time>2026-05-07T10:09:05.999Z</time>
      </trkpt>
      <trkpt lat="43.59605" lon="2.9616">
        <ele>1022</ele>
        <time>2026-05-07T10:09:06.999Z</time>
      </trkpt>
      <trkpt lat="43.59604" lon="2.96161">
        <ele>1021.9</ele>
        <time>2026-05-07T10:09:07.999Z</time>
      </trkpt>
      <trkpt lat="43.59604" lon="2.96161">
        <ele>1022</ele>
        <time>2026-05-07T10:09:08.999Z</time>
      </trkpt>
      <trkpt lat="43.59604" lon="2.9616">
        <ele>1022.2</ele>
        <time>2026-05-07T10:09:09.999Z</time>
      </trkpt>
      <trkpt lat="43.59604" lon="2.9616">
        <ele>1022.7</ele>
        <time>2026-05-07T10:09:10.999Z</time>
      </trkpt>
      <trkpt lat="43.59604" lon="2.96159">
        <ele>1023</ele>
        <time>2026-05-07T10:09:11.999Z</time>
      </trkpt>
      <trkpt lat="43.59605" lon="2.9616">
        <ele>1023.2</ele>
        <time>2026-05-07T10:09:12.999Z</time>
      </trkpt>
      <trkpt lat="43.59605" lon="2.96161">
        <ele>1024</ele>
        <time>2026-05-07T10:09:14.999Z</time>
      </trkpt>
      <trkpt lat="43.59605" lon="2.9616">
        <ele>1024.2</ele>
        <time>2026-05-07T10:09:15.999Z</time>
      </trkpt>
      <trkpt lat="43.59605" lon="2.96161">
        <ele>1024.4</ele>
        <time>2026-05-07T10:09:16.999Z</time>
      </trkpt>
      <trkpt lat="43.59605" lon="2.96161">
        <ele>1024.5</ele>
        <time>2026-05-07T10:09:17.999Z</time>
      </trkpt>
      <trkpt lat="43.59607" lon="2.96161">
        <ele>1024.8</ele>
        <time>2026-05-07T10:09:18.999Z</time>
      </trkpt>
      <trkpt lat="43.59608" lon="2.96161">
        <ele>1024.7</ele>
        <time>2026-05-07T10:09:19.999Z</time>
      </trkpt>
      <trkpt lat="43.5961" lon="2.96161">
        <ele>1025</ele>
        <time>2026-05-07T10:09:20.999Z</time>
      </trkpt>
      <trkpt lat="43.5961" lon="2.96162">
        <ele>1024.5</ele>
        <time>2026-05-07T10:09:21.999Z</time>
      </trkpt>
      <trkpt lat="43.5961" lon="2.96162">
        <ele>1024.1</ele>
        <time>2026-05-07T10:09:22.999Z</time>
      </trkpt>
      <trkpt lat="43.5961" lon="2.96162">
        <ele>1023.9</ele>
        <time>2026-05-07T10:09:23.999Z</time>
      </trkpt>
      <trkpt lat="43.5961" lon="2.96162">
        <ele>1023.5</ele>
        <time>2026-05-07T10:09:24.999Z</time>
      </trkpt>
      <trkpt lat="43.5961" lon="2.96162">
        <ele>1024.2</ele>
        <time>2026-05-07T10:09:25.999Z</time>
      </trkpt>
      <trkpt lat="43.5961" lon="2.96162">
        <ele>1024.4</ele>
        <time>2026-05-07T10:09:26.999Z</time>
      </trkpt>
      <trkpt lat="43.5961" lon="2.96162">
        <ele>1024</ele>
        <time>2026-05-07T10:09:27.999Z</time>
      </trkpt>
      <trkpt lat="43.5961" lon="2.96162">
        <ele>1023.8</ele>
        <time>2026-05-07T10:09:28.999Z</time>
      </trkpt>
      <trkpt lat="43.5961" lon="2.96162">
        <ele>1023.9</ele>
        <time>2026-05-07T10:09:29.999Z</time>
      </trkpt>
      <trkpt lat="43.5961" lon="2.96162">
        <ele>1024</ele>
        <time>2026-05-07T10:09:30.999Z</time>
      </trkpt>
      <trkpt lat="43.5961" lon="2.96162">
        <ele>1024.2</ele>
        <time>2026-05-07T10:09:31.999Z</time>
      </trkpt>
      <trkpt lat="43.59609" lon="2.96162">
        <ele>1024.5</ele>
        <time>2026-05-07T10:09:32.999Z</time>
      </trkpt>
      <trkpt lat="43.59609" lon="2.96162">
        <ele>1025</ele>
        <time>2026-05-07T10:09:33.999Z</time>
      </trkpt>
      <trkpt lat="43.59609" lon="2.96162">
        <ele>1025.3</ele>
        <time>2026-05-07T10:09:34.999Z</time>
      </trkpt>
      <trkpt lat="43.5961" lon="2.96162">
        <ele>1025.2</ele>
        <time>2026-05-07T10:09:35.999Z</time>
      </trkpt>
      <trkpt lat="43.5961" lon="2.96162">
        <ele>1025.3</ele>
        <time>2026-05-07T10:09:36.999Z</time>
      </trkpt>
      <trkpt lat="43.5961" lon="2.96162">
        <ele>1025.2</ele>
        <time>2026-05-07T10:09:37.999Z</time>
      </trkpt>
      <trkpt lat="43.5961" lon="2.96163">
        <ele>1025.2</ele>
        <time>2026-05-07T10:09:38.999Z</time>
      </trkpt>
      <trkpt lat="43.5961" lon="2.96163">
        <ele>1025.2</ele>
        <time>2026-05-07T10:09:39.999Z</time>
      </trkpt>
      <trkpt lat="43.5961" lon="2.96164">
        <ele>1024.9</ele>
        <time>2026-05-07T10:09:40.999Z</time>
      </trkpt>
      <trkpt lat="43.5961" lon="2.96164">
        <ele>1024.9</ele>
        <time>2026-05-07T10:09:41.999Z</time>
      </trkpt>
      <trkpt lat="43.59611" lon="2.96164">
        <ele>1024.9</ele>
        <time>2026-05-07T10:09:42.999Z</time>
      </trkpt>
      <trkpt lat="43.59611" lon="2.96165">
        <ele>1025.1</ele>
        <time>2026-05-07T10:09:43.999Z</time>
      </trkpt>
      <trkpt lat="43.59611" lon="2.96165">
        <ele>1025.1</ele>
        <time>2026-05-07T10:09:44.999Z</time>
      </trkpt>
      <trkpt lat="43.59612" lon="2.96164">
        <ele>1025</ele>
        <time>2026-05-07T10:09:45.999Z</time>
      </trkpt>
      <trkpt lat="43.59613" lon="2.96162">
        <ele>1024.9</ele>
        <time>2026-05-07T10:09:46.999Z</time>
      </trkpt>
      <trkpt lat="43.59614" lon="2.96161">
        <ele>1024.9</ele>
        <time>2026-05-07T10:09:47.999Z</time>
      </trkpt>
      <trkpt lat="43.59615" lon="2.96162">
        <ele>1025</ele>
        <time>2026-05-07T10:09:48.999Z</time>
      </trkpt>
      <trkpt lat="43.59615" lon="2.96162">
        <ele>1025</ele>
        <time>2026-05-07T10:09:49.999Z</time>
      </trkpt>
      <trkpt lat="43.59615" lon="2.96163">
        <ele>1025.4</ele>
        <time>2026-05-07T10:09:50.999Z</time>
      </trkpt>
      <trkpt lat="43.59616" lon="2.96163">
        <ele>1025.5</ele>
        <time>2026-05-07T10:09:51.999Z</time>
      </trkpt>
      <trkpt lat="43.59617" lon="2.96163">
        <ele>1025.6</ele>
        <time>2026-05-07T10:09:52.999Z</time>
      </trkpt>
      <trkpt lat="43.59617" lon="2.96164">
        <ele>1025.4</ele>
        <time>2026-05-07T10:09:53.999Z</time>
      </trkpt>
      <trkpt lat="43.59618" lon="2.96165">
        <ele>1025.2</ele>
        <time>2026-05-07T10:09:54.999Z</time>
      </trkpt>
      <trkpt lat="43.59618" lon="2.96165">
        <ele>1024.2</ele>
        <time>2026-05-07T10:09:55.999Z</time>
      </trkpt>
      <trkpt lat="43.59619" lon="2.96166">
        <ele>1023.6</ele>
        <time>2026-05-07T10:09:56.999Z</time>
      </trkpt>
      <trkpt lat="43.5962" lon="2.96166">
        <ele>1023.3</ele>
        <time>2026-05-07T10:09:57.999Z</time>
      </trkpt>
      <trkpt lat="43.59621" lon="2.96167">
        <ele>1023</ele>
        <time>2026-05-07T10:09:58.999Z</time>
      </trkpt>
      <trkpt lat="43.59621" lon="2.96168">
        <ele>1025.4</ele>
        <time>2026-05-07T10:09:59.999Z</time>
      </trkpt>
      <trkpt lat="43.5962" lon="2.9617">
        <ele>1026.5</ele>
        <time>2026-05-07T10:10:00.999Z</time>
      </trkpt>
      <trkpt lat="43.5962" lon="2.96169">
        <ele>1025.9</ele>
        <time>2026-05-07T10:10:01.999Z</time>
      </trkpt>
      <trkpt lat="43.59618" lon="2.96168">
        <ele>1026.7</ele>
        <time>2026-05-07T10:10:02.999Z</time>
      </trkpt>
      <trkpt lat="43.59618" lon="2.9617">
        <ele>1027.6</ele>
        <time>2026-05-07T10:10:03.999Z</time>
      </trkpt>
      <trkpt lat="43.59619" lon="2.96171">
        <ele>1026.8</ele>
        <time>2026-05-07T10:10:05.999Z</time>
      </trkpt>
      <trkpt lat="43.59619" lon="2.96172">
        <ele>1026.7</ele>
        <time>2026-05-07T10:10:06.999Z</time>
      </trkpt>
      <trkpt lat="43.59619" lon="2.96172">
        <ele>1026.4</ele>
        <time>2026-05-07T10:10:07.999Z</time>
      </trkpt>
      <trkpt lat="43.59619" lon="2.96174">
        <ele>1028.4</ele>
        <time>2026-05-07T10:10:08.999Z</time>
      </trkpt>
      <trkpt lat="43.5962" lon="2.96175">
        <ele>1028.6</ele>
        <time>2026-05-07T10:10:09.999Z</time>
      </trkpt>
      <trkpt lat="43.59619" lon="2.96176">
        <ele>1028.7</ele>
        <time>2026-05-07T10:10:10.999Z</time>
      </trkpt>
      <trkpt lat="43.59617" lon="2.96175">
        <ele>1028.2</ele>
        <time>2026-05-07T10:10:11.999Z</time>
      </trkpt>
      <trkpt lat="43.59617" lon="2.96175">
        <ele>1028.3</ele>
        <time>2026-05-07T10:10:12.999Z</time>
      </trkpt>
      <trkpt lat="43.59617" lon="2.96174">
        <ele>1028.6</ele>
        <time>2026-05-07T10:10:13.999Z</time>
      </trkpt>
      <trkpt lat="43.59617" lon="2.96175">
        <ele>1029.3</ele>
        <time>2026-05-07T10:10:14.999Z</time>
      </trkpt>
      <trkpt lat="43.59615" lon="2.96174">
        <ele>1028.5</ele>
        <time>2026-05-07T10:10:15.999Z</time>
      </trkpt>
      <trkpt lat="43.59615" lon="2.96174">
        <ele>1032.1</ele>
        <time>2026-05-07T10:10:16.999Z</time>
      </trkpt>
      <trkpt lat="43.59615" lon="2.96174">
        <ele>1032.1</ele>
        <time>2026-05-07T10:10:17.999Z</time>
      </trkpt>
      <trkpt lat="43.59614" lon="2.96173">
        <ele>1032.2</ele>
        <time>2026-05-07T10:10:18.999Z</time>
      </trkpt>
      <trkpt lat="43.59614" lon="2.96173">
        <ele>1032</ele>
        <time>2026-05-07T10:10:19.999Z</time>
      </trkpt>
      <trkpt lat="43.59614" lon="2.96173">
        <ele>1031.8</ele>
        <time>2026-05-07T10:10:20.999Z</time>
      </trkpt>
      <trkpt lat="43.59613" lon="2.96174">
        <ele>1031.5</ele>
        <time>2026-05-07T10:10:21.999Z</time>
      </trkpt>
      <trkpt lat="43.59612" lon="2.96174">
        <ele>1031.1</ele>
        <time>2026-05-07T10:10:22.999Z</time>
      </trkpt>
      <trkpt lat="43.59612" lon="2.96173">
        <ele>1030.9</ele>
        <time>2026-05-07T10:10:23.999Z</time>
      </trkpt>
      <trkpt lat="43.59611" lon="2.96173">
        <ele>1030.3</ele>
        <time>2026-05-07T10:10:24.999Z</time>
      </trkpt>
      <trkpt lat="43.59611" lon="2.96172">
        <ele>1030.2</ele>
        <time>2026-05-07T10:10:25.999Z</time>
      </trkpt>
      <trkpt lat="43.5961" lon="2.96172">
        <ele>1030.8</ele>
        <time>2026-05-07T10:10:26.999Z</time>
      </trkpt>
      <trkpt lat="43.59609" lon="2.96171">
        <ele>1030.6</ele>
        <time>2026-05-07T10:10:27.999Z</time>
      </trkpt>
      <trkpt lat="43.59608" lon="2.9617">
        <ele>1030.3</ele>
        <time>2026-05-07T10:10:28.999Z</time>
      </trkpt>
      <trkpt lat="43.59606" lon="2.96169">
        <ele>1030</ele>
        <time>2026-05-07T10:10:29.999Z</time>
      </trkpt>
      <trkpt lat="43.59606" lon="2.96168">
        <ele>1029.7</ele>
        <time>2026-05-07T10:10:30.999Z</time>
      </trkpt>
      <trkpt lat="43.59604" lon="2.96167">
        <ele>1028.7</ele>
        <time>2026-05-07T10:10:31.999Z</time>
      </trkpt>
      <trkpt lat="43.59603" lon="2.96165">
        <ele>1027.9</ele>
        <time>2026-05-07T10:10:32.999Z</time>
      </trkpt>
      <trkpt lat="43.59603" lon="2.96164">
        <ele>1027.3</ele>
        <time>2026-05-07T10:10:33.999Z</time>
      </trkpt>
      <trkpt lat="43.59602" lon="2.96166">
        <ele>1026.1</ele>
        <time>2026-05-07T10:10:34.999Z</time>
      </trkpt>
      <trkpt lat="43.59601" lon="2.96166">
        <ele>1025.3</ele>
        <time>2026-05-07T10:10:35.999Z</time>
      </trkpt>
      <trkpt lat="43.59601" lon="2.96166">
        <ele>1024.9</ele>
        <time>2026-05-07T10:10:36.999Z</time>
      </trkpt>
      <trkpt lat="43.596" lon="2.96167">
        <ele>1024.8</ele>
        <time>2026-05-07T10:10:37.999Z</time>
      </trkpt>
      <trkpt lat="43.596" lon="2.96167">
        <ele>1024.3</ele>
        <time>2026-05-07T10:10:38.999Z</time>
      </trkpt>
      <trkpt lat="43.59599" lon="2.96167">
        <ele>1024.1</ele>
        <time>2026-05-07T10:10:39.999Z</time>
      </trkpt>
      <trkpt lat="43.59599" lon="2.96168">
        <ele>1024.2</ele>
        <time>2026-05-07T10:10:40.999Z</time>
      </trkpt>
      <trkpt lat="43.59599" lon="2.96169">
        <ele>1024.4</ele>
        <time>2026-05-07T10:10:41.999Z</time>
      </trkpt>
      <trkpt lat="43.59599" lon="2.9617">
        <ele>1024.5</ele>
        <time>2026-05-07T10:10:42.999Z</time>
      </trkpt>
      <trkpt lat="43.59598" lon="2.9617">
        <ele>1024.9</ele>
        <time>2026-05-07T10:10:43.999Z</time>
      </trkpt>
      <trkpt lat="43.59598" lon="2.9617">
        <ele>1024.8</ele>
        <time>2026-05-07T10:10:44.999Z</time>
      </trkpt>
      <trkpt lat="43.59597" lon="2.96169">
        <ele>1023.8</ele>
        <time>2026-05-07T10:10:45.999Z</time>
      </trkpt>
      <trkpt lat="43.59596" lon="2.96168">
        <ele>1023.1</ele>
        <time>2026-05-07T10:10:46.999Z</time>
      </trkpt>
      <trkpt lat="43.59595" lon="2.96167">
        <ele>1021.9</ele>
        <time>2026-05-07T10:10:47.999Z</time>
      </trkpt>
      <trkpt lat="43.59595" lon="2.96167">
        <ele>1022.3</ele>
        <time>2026-05-07T10:10:48.999Z</time>
      </trkpt>
      <trkpt lat="43.59595" lon="2.96167">
        <ele>1022.7</ele>
        <time>2026-05-07T10:10:49.999Z</time>
      </trkpt>
      <trkpt lat="43.59595" lon="2.96167">
        <ele>1022.9</ele>
        <time>2026-05-07T10:10:50.999Z</time>
      </trkpt>
      <trkpt lat="43.59596" lon="2.96167">
        <ele>1023.3</ele>
        <time>2026-05-07T10:10:51.999Z</time>
      </trkpt>
      <trkpt lat="43.59595" lon="2.96167">
        <ele>1022.6</ele>
        <time>2026-05-07T10:10:52.999Z</time>
      </trkpt>
      <trkpt lat="43.59593" lon="2.96167">
        <ele>1021.7</ele>
        <time>2026-05-07T10:10:53.999Z</time>
      </trkpt>
      <trkpt lat="43.59591" lon="2.96168">
        <ele>1020.8</ele>
        <time>2026-05-07T10:10:54.999Z</time>
      </trkpt>
      <trkpt lat="43.59589" lon="2.96168">
        <ele>1019.9</ele>
        <time>2026-05-07T10:10:55.999Z</time>
      </trkpt>
      <trkpt lat="43.59588" lon="2.96168">
        <ele>1018.6</ele>
        <time>2026-05-07T10:10:56.999Z</time>
      </trkpt>
      <trkpt lat="43.59587" lon="2.96168">
        <ele>1017.9</ele>
        <time>2026-05-07T10:10:57.999Z</time>
      </trkpt>
      <trkpt lat="43.59586" lon="2.96168">
        <ele>1017.1</ele>
        <time>2026-05-07T10:10:58.999Z</time>
      </trkpt>
      <trkpt lat="43.59587" lon="2.96168">
        <ele>1017.2</ele>
        <time>2026-05-07T10:10:59.999Z</time>
      </trkpt>
      <trkpt lat="43.59587" lon="2.96169">
        <ele>1017.5</ele>
        <time>2026-05-07T10:11:00.999Z</time>
      </trkpt>
      <trkpt lat="43.59586" lon="2.96169">
        <ele>1016.5</ele>
        <time>2026-05-07T10:11:01.999Z</time>
      </trkpt>
      <trkpt lat="43.59586" lon="2.96168">
        <ele>1016.1</ele>
        <time>2026-05-07T10:11:02.999Z</time>
      </trkpt>
      <trkpt lat="43.59586" lon="2.96168">
        <ele>1016.3</ele>
        <time>2026-05-07T10:11:07.999Z</time>
      </trkpt>
      <trkpt lat="43.59586" lon="2.96168">
        <ele>1018.3</ele>
        <time>2026-05-07T10:11:08.999Z</time>
      </trkpt>
      <trkpt lat="43.59586" lon="2.96168">
        <ele>1018.8</ele>
        <time>2026-05-07T10:11:09.999Z</time>
      </trkpt>
      <trkpt lat="43.59587" lon="2.96168">
        <ele>1018.9</ele>
        <time>2026-05-07T10:11:10.999Z</time>
      </trkpt>
      <trkpt lat="43.59586" lon="2.96169">
        <ele>1018.3</ele>
        <time>2026-05-07T10:11:11.999Z</time>
      </trkpt>
      <trkpt lat="43.59586" lon="2.96169">
        <ele>1017.7</ele>
        <time>2026-05-07T10:11:12.999Z</time>
      </trkpt>
      <trkpt lat="43.59586" lon="2.96169">
        <ele>1016.9</ele>
        <time>2026-05-07T10:11:13.999Z</time>
      </trkpt>
      <trkpt lat="43.59587" lon="2.96169">
        <ele>1016.7</ele>
        <time>2026-05-07T10:11:14.999Z</time>
      </trkpt>
      <trkpt lat="43.59587" lon="2.96169">
        <ele>1016.9</ele>
        <time>2026-05-07T10:11:15.999Z</time>
      </trkpt>
      <trkpt lat="43.59586" lon="2.9617">
        <ele>1016.9</ele>
        <time>2026-05-07T10:11:16.999Z</time>
      </trkpt>
      <trkpt lat="43.59586" lon="2.96171">
        <ele>1016.5</ele>
        <time>2026-05-07T10:11:17.999Z</time>
      </trkpt>
      <trkpt lat="43.59586" lon="2.96171">
        <ele>1016.3</ele>
        <time>2026-05-07T10:11:18.999Z</time>
      </trkpt>
      <trkpt lat="43.59586" lon="2.96171">
        <ele>1016</ele>
        <time>2026-05-07T10:11:19.999Z</time>
      </trkpt>
      <trkpt lat="43.59587" lon="2.96171">
        <ele>1016.3</ele>
        <time>2026-05-07T10:11:20.999Z</time>
      </trkpt>
      <trkpt lat="43.59588" lon="2.96171">
        <ele>1015.8</ele>
        <time>2026-05-07T10:11:21.999Z</time>
      </trkpt>
      <trkpt lat="43.59589" lon="2.96171">
        <ele>1016.3</ele>
        <time>2026-05-07T10:11:22.999Z</time>
      </trkpt>
      <trkpt lat="43.5959" lon="2.96171">
        <ele>1016.7</ele>
        <time>2026-05-07T10:11:23.999Z</time>
      </trkpt>
      <trkpt lat="43.5959" lon="2.9617">
        <ele>1017.1</ele>
        <time>2026-05-07T10:11:24.999Z</time>
      </trkpt>
      <trkpt lat="43.59592" lon="2.9617">
        <ele>1017.6</ele>
        <time>2026-05-07T10:11:25.999Z</time>
      </trkpt>
      <trkpt lat="43.59593" lon="2.96169">
        <ele>1018</ele>
        <time>2026-05-07T10:11:26.999Z</time>
      </trkpt>
      <trkpt lat="43.59594" lon="2.96169">
        <ele>1018</ele>
        <time>2026-05-07T10:11:27.999Z</time>
      </trkpt>
      <trkpt lat="43.59594" lon="2.96169">
        <ele>1017.5</ele>
        <time>2026-05-07T10:11:28.999Z</time>
      </trkpt>
      <trkpt lat="43.59594" lon="2.9617">
        <ele>1017.5</ele>
        <time>2026-05-07T10:11:29.999Z</time>
      </trkpt>
      <trkpt lat="43.59595" lon="2.96169">
        <ele>1017.6</ele>
        <time>2026-05-07T10:11:30.999Z</time>
      </trkpt>
      <trkpt lat="43.59595" lon="2.96169">
        <ele>1017.3</ele>
        <time>2026-05-07T10:11:31.999Z</time>
      </trkpt>
      <trkpt lat="43.59595" lon="2.9617">
        <ele>1017.1</ele>
        <time>2026-05-07T10:11:32.999Z</time>
      </trkpt>
      <trkpt lat="43.59594" lon="2.96171">
        <ele>1016.8</ele>
        <time>2026-05-07T10:11:33.999Z</time>
      </trkpt>
      <trkpt lat="43.59594" lon="2.96172">
        <ele>1016.5</ele>
        <time>2026-05-07T10:11:34.999Z</time>
      </trkpt>
      <trkpt lat="43.59594" lon="2.96172">
        <ele>1016.5</ele>
        <time>2026-05-07T10:11:35.999Z</time>
      </trkpt>
      <trkpt lat="43.59594" lon="2.96172">
        <ele>1017.2</ele>
        <time>2026-05-07T10:11:36.999Z</time>
      </trkpt>
      <trkpt lat="43.59594" lon="2.96172">
        <ele>1017.3</ele>
        <time>2026-05-07T10:11:37.999Z</time>
      </trkpt>
      <trkpt lat="43.59595" lon="2.96172">
        <ele>1019</ele>
        <time>2026-05-07T10:11:38.999Z</time>
      </trkpt>
      <trkpt lat="43.59596" lon="2.96171">
        <ele>1019.9</ele>
        <time>2026-05-07T10:11:39.999Z</time>
      </trkpt>
      <trkpt lat="43.59597" lon="2.96171">
        <ele>1020.5</ele>
        <time>2026-05-07T10:11:40.999Z</time>
      </trkpt>
      <trkpt lat="43.59597" lon="2.96171">
        <ele>1021.1</ele>
        <time>2026-05-07T10:11:41.999Z</time>
      </trkpt>
      <trkpt lat="43.59597" lon="2.96171">
        <ele>1022.1</ele>
        <time>2026-05-07T10:11:42.999Z</time>
      </trkpt>
      <trkpt lat="43.59597" lon="2.96171">
        <ele>1022.5</ele>
        <time>2026-05-07T10:11:43.999Z</time>
      </trkpt>
      <trkpt lat="43.59597" lon="2.96171">
        <ele>1022.8</ele>
        <time>2026-05-07T10:11:44.999Z</time>
      </trkpt>
      <trkpt lat="43.59597" lon="2.96171">
        <ele>1023.4</ele>
        <time>2026-05-07T10:11:45.999Z</time>
      </trkpt>
      <trkpt lat="43.59597" lon="2.96171">
        <ele>1025.7</ele>
        <time>2026-05-07T10:11:46.999Z</time>
      </trkpt>
      <trkpt lat="43.59597" lon="2.96171">
        <ele>1025.9</ele>
        <time>2026-05-07T10:11:47.999Z</time>
      </trkpt>
      <trkpt lat="43.59597" lon="2.96171">
        <ele>1026.4</ele>
        <time>2026-05-07T10:11:48.999Z</time>
      </trkpt>
      <trkpt lat="43.59597" lon="2.96171">
        <ele>1026.7</ele>
        <time>2026-05-07T10:11:49.999Z</time>
      </trkpt>
      <trkpt lat="43.59598" lon="2.96171">
        <ele>1027</ele>
        <time>2026-05-07T10:11:50.999Z</time>
      </trkpt>
      <trkpt lat="43.59599" lon="2.9617">
        <ele>1027.3</ele>
        <time>2026-05-07T10:11:51.999Z</time>
      </trkpt>
      <trkpt lat="43.59599" lon="2.9617">
        <ele>1027.3</ele>
        <time>2026-05-07T10:11:52.999Z</time>
      </trkpt>
      <trkpt lat="43.59599" lon="2.9617">
        <ele>1027.3</ele>
        <time>2026-05-07T10:11:53.999Z</time>
      </trkpt>
      <trkpt lat="43.59599" lon="2.96171">
        <ele>1027.4</ele>
        <time>2026-05-07T10:11:54.999Z</time>
      </trkpt>
      <trkpt lat="43.59599" lon="2.96171">
        <ele>1027.3</ele>
        <time>2026-05-07T10:11:55.999Z</time>
      </trkpt>
      <trkpt lat="43.59599" lon="2.96171">
        <ele>1027.2</ele>
        <time>2026-05-07T10:11:56.999Z</time>
      </trkpt>
      <trkpt lat="43.59599" lon="2.96171">
        <ele>1027.1</ele>
        <time>2026-05-07T10:11:57.999Z</time>
      </trkpt>
      <trkpt lat="43.59599" lon="2.96171">
        <ele>1026.4</ele>
        <time>2026-05-07T10:11:58.999Z</time>
      </trkpt>
      <trkpt lat="43.59599" lon="2.9617">
        <ele>1026.5</ele>
        <time>2026-05-07T10:11:59.999Z</time>
      </trkpt>
      <trkpt lat="43.59599" lon="2.96171">
        <ele>1027.5</ele>
        <time>2026-05-07T10:12:00.999Z</time>
      </trkpt>
      <trkpt lat="43.59599" lon="2.96171">
        <ele>1027</ele>
        <time>2026-05-07T10:12:01.999Z</time>
      </trkpt>
      <trkpt lat="43.59599" lon="2.96171">
        <ele>1026.9</ele>
        <time>2026-05-07T10:12:02.999Z</time>
      </trkpt>
      <trkpt lat="43.59599" lon="2.9617">
        <ele>1026.8</ele>
        <time>2026-05-07T10:12:03.999Z</time>
      </trkpt>
      <trkpt lat="43.59599" lon="2.9617">
        <ele>1026.9</ele>
        <time>2026-05-07T10:12:04.999Z</time>
      </trkpt>
      <trkpt lat="43.59599" lon="2.9617">
        <ele>1026.9</ele>
        <time>2026-05-07T10:12:05.999Z</time>
      </trkpt>
      <trkpt lat="43.59599" lon="2.9617">
        <ele>1027</ele>
        <time>2026-05-07T10:12:06.999Z</time>
      </trkpt>
      <trkpt lat="43.59599" lon="2.9617">
        <ele>1026.8</ele>
        <time>2026-05-07T10:12:07.999Z</time>
      </trkpt>
      <trkpt lat="43.59599" lon="2.9617">
        <ele>1026.6</ele>
        <time>2026-05-07T10:12:08.999Z</time>
      </trkpt>
      <trkpt lat="43.59599" lon="2.96171">
        <ele>1026.5</ele>
        <time>2026-05-07T10:12:09.999Z</time>
      </trkpt>
      <trkpt lat="43.59599" lon="2.96171">
        <ele>1026.3</ele>
        <time>2026-05-07T10:12:10.999Z</time>
      </trkpt>
      <trkpt lat="43.59598" lon="2.96172">
        <ele>1026.3</ele>
        <time>2026-05-07T10:12:11.999Z</time>
      </trkpt>
      <trkpt lat="43.59598" lon="2.96173">
        <ele>1026.5</ele>
        <time>2026-05-07T10:12:12.999Z</time>
      </trkpt>
      <trkpt lat="43.59598" lon="2.96173">
        <ele>1026.4</ele>
        <time>2026-05-07T10:12:13.999Z</time>
      </trkpt>
      <trkpt lat="43.59599" lon="2.96174">
        <ele>1027.5</ele>
        <time>2026-05-07T10:12:14.999Z</time>
      </trkpt>
      <trkpt lat="43.59598" lon="2.96175">
        <ele>1027.8</ele>
        <time>2026-05-07T10:12:15.999Z</time>
      </trkpt>
      <trkpt lat="43.59599" lon="2.96176">
        <ele>1028.5</ele>
        <time>2026-05-07T10:12:16.999Z</time>
      </trkpt>
      <trkpt lat="43.596" lon="2.96175">
        <ele>1028.3</ele>
        <time>2026-05-07T10:12:17.999Z</time>
      </trkpt>
      <trkpt lat="43.596" lon="2.96175">
        <ele>1028.2</ele>
        <time>2026-05-07T10:12:18.999Z</time>
      </trkpt>
      <trkpt lat="43.596" lon="2.96175">
        <ele>1029.4</ele>
        <time>2026-05-07T10:12:19.999Z</time>
      </trkpt>
      <trkpt lat="43.596" lon="2.96175">
        <ele>1029.4</ele>
        <time>2026-05-07T10:12:20.999Z</time>
      </trkpt>
      <trkpt lat="43.596" lon="2.96174">
        <ele>1029.4</ele>
        <time>2026-05-07T10:12:21.999Z</time>
      </trkpt>
      <trkpt lat="43.59601" lon="2.96174">
        <ele>1029.2</ele>
        <time>2026-05-07T10:12:22.999Z</time>
      </trkpt>
      <trkpt lat="43.59601" lon="2.96174">
        <ele>1029.1</ele>
        <time>2026-05-07T10:12:23.999Z</time>
      </trkpt>
      <trkpt lat="43.59601" lon="2.96173">
        <ele>1029.1</ele>
        <time>2026-05-07T10:12:24.999Z</time>
      </trkpt>
      <trkpt lat="43.59601" lon="2.96173">
        <ele>1028.9</ele>
        <time>2026-05-07T10:12:25.999Z</time>
      </trkpt>
      <trkpt lat="43.59601" lon="2.96173">
        <ele>1028.6</ele>
        <time>2026-05-07T10:12:26.999Z</time>
      </trkpt>
      <trkpt lat="43.59601" lon="2.96173">
        <ele>1028.4</ele>
        <time>2026-05-07T10:12:27.999Z</time>
      </trkpt>
      <trkpt lat="43.59601" lon="2.96173">
        <ele>1028.7</ele>
        <time>2026-05-07T10:12:28.999Z</time>
      </trkpt>
      <trkpt lat="43.59601" lon="2.96173">
        <ele>1028.6</ele>
        <time>2026-05-07T10:12:29.999Z</time>
      </trkpt>
      <trkpt lat="43.59601" lon="2.96173">
        <ele>1028.5</ele>
        <time>2026-05-07T10:12:30.999Z</time>
      </trkpt>
      <trkpt lat="43.59601" lon="2.96173">
        <ele>1028.6</ele>
        <time>2026-05-07T10:12:31.999Z</time>
      </trkpt>
      <trkpt lat="43.59602" lon="2.96173">
        <ele>1028.3</ele>
        <time>2026-05-07T10:12:32.999Z</time>
      </trkpt>
      <trkpt lat="43.59602" lon="2.96173">
        <ele>1028.3</ele>
        <time>2026-05-07T10:12:33.999Z</time>
      </trkpt>
      <trkpt lat="43.59602" lon="2.96173">
        <ele>1028.1</ele>
        <time>2026-05-07T10:12:34.999Z</time>
      </trkpt>
      <trkpt lat="43.59602" lon="2.96173">
        <ele>1027.9</ele>
        <time>2026-05-07T10:12:35.999Z</time>
      </trkpt>
      <trkpt lat="43.59602" lon="2.96172">
        <ele>1027.5</ele>
        <time>2026-05-07T10:12:36.999Z</time>
      </trkpt>
      <trkpt lat="43.59602" lon="2.96172">
        <ele>1027.5</ele>
        <time>2026-05-07T10:12:37.999Z</time>
      </trkpt>
      <trkpt lat="43.59601" lon="2.96172">
        <ele>1027.4</ele>
        <time>2026-05-07T10:12:38.999Z</time>
      </trkpt>
      <trkpt lat="43.59601" lon="2.96172">
        <ele>1027.3</ele>
        <time>2026-05-07T10:12:39.999Z</time>
      </trkpt>
      <trkpt lat="43.59601" lon="2.96172">
        <ele>1027.5</ele>
        <time>2026-05-07T10:12:40.999Z</time>
      </trkpt>
      <trkpt lat="43.59601" lon="2.96171">
        <ele>1027.6</ele>
        <time>2026-05-07T10:12:41.999Z</time>
      </trkpt>
      <trkpt lat="43.59601" lon="2.96172">
        <ele>1027.5</ele>
        <time>2026-05-07T10:12:42.999Z</time>
      </trkpt>
      <trkpt lat="43.59601" lon="2.96171">
        <ele>1027.1</ele>
        <time>2026-05-07T10:12:44.999Z</time>
      </trkpt>
      <trkpt lat="43.59601" lon="2.96171">
        <ele>1026.8</ele>
        <time>2026-05-07T10:12:45.999Z</time>
      </trkpt>
      <trkpt lat="43.59602" lon="2.9617">
        <ele>1026.5</ele>
        <time>2026-05-07T10:12:46.999Z</time>
      </trkpt>
      <trkpt lat="43.59602" lon="2.9617">
        <ele>1026.4</ele>
        <time>2026-05-07T10:12:47.999Z</time>
      </trkpt>
      <trkpt lat="43.59602" lon="2.96169">
        <ele>1026.5</ele>
        <time>2026-05-07T10:12:48.999Z</time>
      </trkpt>
      <trkpt lat="43.59603" lon="2.96169">
        <ele>1026.6</ele>
        <time>2026-05-07T10:12:49.999Z</time>
      </trkpt>
      <trkpt lat="43.59603" lon="2.96169">
        <ele>1026.6</ele>
        <time>2026-05-07T10:12:50.999Z</time>
      </trkpt>
      <trkpt lat="43.59603" lon="2.96169">
        <ele>1026.9</ele>
        <time>2026-05-07T10:12:51.999Z</time>
      </trkpt>
      <trkpt lat="43.59603" lon="2.96168">
        <ele>1026.8</ele>
        <time>2026-05-07T10:12:52.999Z</time>
      </trkpt>
      <trkpt lat="43.59603" lon="2.96168">
        <ele>1026.7</ele>
        <time>2026-05-07T10:12:53.999Z</time>
      </trkpt>
      <trkpt lat="43.59603" lon="2.96168">
        <ele>1026.7</ele>
        <time>2026-05-07T10:12:54.999Z</time>
      </trkpt>
      <trkpt lat="43.59603" lon="2.96168">
        <ele>1026.8</ele>
        <time>2026-05-07T10:12:55.999Z</time>
      </trkpt>
      <trkpt lat="43.59603" lon="2.96168">
        <ele>1027.1</ele>
        <time>2026-05-07T10:12:56.999Z</time>
      </trkpt>
      <trkpt lat="43.59603" lon="2.96168">
        <ele>1026.8</ele>
        <time>2026-05-07T10:12:57.999Z</time>
      </trkpt>
      <trkpt lat="43.59603" lon="2.96168">
        <ele>1026.9</ele>
        <time>2026-05-07T10:12:58.999Z</time>
      </trkpt>
      <trkpt lat="43.59603" lon="2.96168">
        <ele>1026.8</ele>
        <time>2026-05-07T10:12:59.999Z</time>
      </trkpt>
      <trkpt lat="43.59603" lon="2.96167">
        <ele>1026.9</ele>
        <time>2026-05-07T10:13:00.999Z</time>
      </trkpt>
      <trkpt lat="43.59603" lon="2.96166">
        <ele>1026.8</ele>
        <time>2026-05-07T10:13:01.999Z</time>
      </trkpt>
      <trkpt lat="43.59603" lon="2.96166">
        <ele>1026.6</ele>
        <time>2026-05-07T10:13:02.999Z</time>
      </trkpt>
      <trkpt lat="43.59603" lon="2.96166">
        <ele>1026.6</ele>
        <time>2026-05-07T10:13:03.999Z</time>
      </trkpt>
      <trkpt lat="43.59603" lon="2.96166">
        <ele>1026.4</ele>
        <time>2026-05-07T10:13:04.999Z</time>
      </trkpt>
      <trkpt lat="43.59603" lon="2.96166">
        <ele>1026</ele>
        <time>2026-05-07T10:13:06.999Z</time>
      </trkpt>
      <trkpt lat="43.59603" lon="2.96164">
        <ele>1026.1</ele>
        <time>2026-05-07T10:13:07.999Z</time>
      </trkpt>
      <trkpt lat="43.59604" lon="2.96164">
        <ele>1026.1</ele>
        <time>2026-05-07T10:13:08.999Z</time>
      </trkpt>
      <trkpt lat="43.59603" lon="2.96164">
        <ele>1025.7</ele>
        <time>2026-05-07T10:13:09.999Z</time>
      </trkpt>
      <trkpt lat="43.59603" lon="2.96165">
        <ele>1025.4</ele>
        <time>2026-05-07T10:13:10.999Z</time>
      </trkpt>
      <trkpt lat="43.59603" lon="2.96165">
        <ele>1024.9</ele>
        <time>2026-05-07T10:13:11.999Z</time>
      </trkpt>
      <trkpt lat="43.59603" lon="2.96164">
        <ele>1024.9</ele>
        <time>2026-05-07T10:13:12.999Z</time>
      </trkpt>
      <trkpt lat="43.59603" lon="2.96165">
        <ele>1025.2</ele>
        <time>2026-05-07T10:13:13.999Z</time>
      </trkpt>
      <trkpt lat="43.59603" lon="2.96165">
        <ele>1024.9</ele>
        <time>2026-05-07T10:13:14.999Z</time>
      </trkpt>
      <trkpt lat="43.59602" lon="2.96165">
        <ele>1024.1</ele>
        <time>2026-05-07T10:13:15.999Z</time>
      </trkpt>
      <trkpt lat="43.59602" lon="2.96166">
        <ele>1023.6</ele>
        <time>2026-05-07T10:13:16.999Z</time>
      </trkpt>
      <trkpt lat="43.59602" lon="2.96167">
        <ele>1024.2</ele>
        <time>2026-05-07T10:13:17.999Z</time>
      </trkpt>
      <trkpt lat="43.59602" lon="2.96167">
        <ele>1024</ele>
        <time>2026-05-07T10:13:18.999Z</time>
      </trkpt>
      <trkpt lat="43.59603" lon="2.96167">
        <ele>1023.9</ele>
        <time>2026-05-07T10:13:19.999Z</time>
      </trkpt>
      <trkpt lat="43.59604" lon="2.96167">
        <ele>1023.6</ele>
        <time>2026-05-07T10:13:20.999Z</time>
      </trkpt>
      <trkpt lat="43.59604" lon="2.96168">
        <ele>1023.1</ele>
        <time>2026-05-07T10:13:21.999Z</time>
      </trkpt>
      <trkpt lat="43.59605" lon="2.96168">
        <ele>1022.4</ele>
        <time>2026-05-07T10:13:22.999Z</time>
      </trkpt>
      <trkpt lat="43.59605" lon="2.96169">
        <ele>1021.7</ele>
        <time>2026-05-07T10:13:24.999Z</time>
      </trkpt>
      <trkpt lat="43.59606" lon="2.96169">
        <ele>1022</ele>
        <time>2026-05-07T10:13:25.999Z</time>
      </trkpt>
      <trkpt lat="43.59608" lon="2.96171">
        <ele>1022.6</ele>
        <time>2026-05-07T10:13:26.999Z</time>
      </trkpt>
      <trkpt lat="43.5961" lon="2.96172">
        <ele>1023.5</ele>
        <time>2026-05-07T10:13:27.999Z</time>
      </trkpt>
      <trkpt lat="43.59612" lon="2.96173">
        <ele>1024.2</ele>
        <time>2026-05-07T10:13:28.999Z</time>
      </trkpt>
      <trkpt lat="43.59613" lon="2.96174">
        <ele>1024.4</ele>
        <time>2026-05-07T10:13:29.999Z</time>
      </trkpt>
      <trkpt lat="43.59615" lon="2.96172">
        <ele>1024.2</ele>
        <time>2026-05-07T10:13:30.999Z</time>
      </trkpt>
      <trkpt lat="43.59617" lon="2.96172">
        <ele>1024.7</ele>
        <time>2026-05-07T10:13:31.999Z</time>
      </trkpt>
      <trkpt lat="43.59615" lon="2.96171">
        <ele>1023.8</ele>
        <time>2026-05-07T10:13:32.999Z</time>
      </trkpt>
      <trkpt lat="43.59617" lon="2.9617">
        <ele>1024.5</ele>
        <time>2026-05-07T10:13:34.999Z</time>
      </trkpt>
      <trkpt lat="43.59614" lon="2.96168">
        <ele>1023.9</ele>
        <time>2026-05-07T10:13:35.999Z</time>
      </trkpt>
      <trkpt lat="43.59612" lon="2.96167">
        <ele>1023.5</ele>
        <time>2026-05-07T10:13:36.999Z</time>
      </trkpt>
      <trkpt lat="43.59612" lon="2.96166">
        <ele>1023.6</ele>
        <time>2026-05-07T10:13:37.999Z</time>
      </trkpt>
      <trkpt lat="43.59611" lon="2.96166">
        <ele>1022.6</ele>
        <time>2026-05-07T10:13:38.999Z</time>
      </trkpt>
      <trkpt lat="43.59611" lon="2.96167">
        <ele>1022.6</ele>
        <time>2026-05-07T10:13:39.999Z</time>
      </trkpt>
      <trkpt lat="43.59611" lon="2.96168">
        <ele>1024.7</ele>
        <time>2026-05-07T10:13:40.999Z</time>
      </trkpt>
      <trkpt lat="43.5961" lon="2.96168">
        <ele>1024.3</ele>
        <time>2026-05-07T10:13:41.999Z</time>
      </trkpt>
      <trkpt lat="43.59609" lon="2.96168">
        <ele>1023.5</ele>
        <time>2026-05-07T10:13:42.999Z</time>
      </trkpt>
      <trkpt lat="43.5961" lon="2.96169">
        <ele>1023.5</ele>
        <time>2026-05-07T10:13:43.999Z</time>
      </trkpt>
      <trkpt lat="43.5961" lon="2.96168">
        <ele>1022.7</ele>
        <time>2026-05-07T10:13:44.999Z</time>
      </trkpt>
      <trkpt lat="43.59609" lon="2.96169">
        <ele>1022.3</ele>
        <time>2026-05-07T10:13:45.999Z</time>
      </trkpt>
      <trkpt lat="43.5961" lon="2.96169">
        <ele>1022.4</ele>
        <time>2026-05-07T10:13:46.999Z</time>
      </trkpt>
      <trkpt lat="43.5961" lon="2.9617">
        <ele>1022.3</ele>
        <time>2026-05-07T10:13:47.999Z</time>
      </trkpt>
      <trkpt lat="43.59612" lon="2.96171">
        <ele>1022.9</ele>
        <time>2026-05-07T10:13:48.999Z</time>
      </trkpt>
      <trkpt lat="43.59613" lon="2.96171">
        <ele>1023.2</ele>
        <time>2026-05-07T10:13:49.999Z</time>
      </trkpt>
      <trkpt lat="43.59613" lon="2.96171">
        <ele>1023.3</ele>
        <time>2026-05-07T10:13:50.999Z</time>
      </trkpt>
      <trkpt lat="43.59614" lon="2.96171">
        <ele>1020.9</ele>
        <time>2026-05-07T10:13:51.999Z</time>
      </trkpt>
      <trkpt lat="43.59613" lon="2.96172">
        <ele>1020.8</ele>
        <time>2026-05-07T10:13:52.999Z</time>
      </trkpt>
      <trkpt lat="43.59613" lon="2.96171">
        <ele>1020.9</ele>
        <time>2026-05-07T10:13:53.999Z</time>
      </trkpt>
      <trkpt lat="43.59613" lon="2.96171">
        <ele>1021.1</ele>
        <time>2026-05-07T10:13:54.999Z</time>
      </trkpt>
      <trkpt lat="43.59612" lon="2.96171">
        <ele>1021.2</ele>
        <time>2026-05-07T10:13:55.999Z</time>
      </trkpt>
      <trkpt lat="43.59612" lon="2.96171">
        <ele>1021</ele>
        <time>2026-05-07T10:13:56.999Z</time>
      </trkpt>
      <trkpt lat="43.59612" lon="2.96171">
        <ele>1021.2</ele>
        <time>2026-05-07T10:13:57.999Z</time>
      </trkpt>
      <trkpt lat="43.59611" lon="2.96171">
        <ele>1021.2</ele>
        <time>2026-05-07T10:13:58.999Z</time>
      </trkpt>
      <trkpt lat="43.59612" lon="2.96171">
        <ele>1019.8</ele>
        <time>2026-05-07T10:13:59.999Z</time>
      </trkpt>
      <trkpt lat="43.59612" lon="2.96171">
        <ele>1020.2</ele>
        <time>2026-05-07T10:14:01.999Z</time>
      </trkpt>
      <trkpt lat="43.59611" lon="2.96171">
        <ele>1020.4</ele>
        <time>2026-05-07T10:14:02.999Z</time>
      </trkpt>
      <trkpt lat="43.59611" lon="2.96171">
        <ele>1020.5</ele>
        <time>2026-05-07T10:14:03.999Z</time>
      </trkpt>
      <trkpt lat="43.59611" lon="2.96172">
        <ele>1020.5</ele>
        <time>2026-05-07T10:14:04.999Z</time>
      </trkpt>
      <trkpt lat="43.59611" lon="2.96172">
        <ele>1020.5</ele>
        <time>2026-05-07T10:14:05.999Z</time>
      </trkpt>
      <trkpt lat="43.59612" lon="2.96172">
        <ele>1020.8</ele>
        <time>2026-05-07T10:14:06.999Z</time>
      </trkpt>
      <trkpt lat="43.59612" lon="2.96172">
        <ele>1020.7</ele>
        <time>2026-05-07T10:14:07.999Z</time>
      </trkpt>
      <trkpt lat="43.59613" lon="2.96173">
        <ele>1020.8</ele>
        <time>2026-05-07T10:14:08.999Z</time>
      </trkpt>
      <trkpt lat="43.59611" lon="2.96174">
        <ele>1021.1</ele>
        <time>2026-05-07T10:14:09.999Z</time>
      </trkpt>
      <trkpt lat="43.5961" lon="2.96174">
        <ele>1021.9</ele>
        <time>2026-05-07T10:14:10.999Z</time>
      </trkpt>
      <trkpt lat="43.59611" lon="2.96174">
        <ele>1022.4</ele>
        <time>2026-05-07T10:14:11.999Z</time>
      </trkpt>
      <trkpt lat="43.59611" lon="2.96174">
        <ele>1022.5</ele>
        <time>2026-05-07T10:14:12.999Z</time>
      </trkpt>
      <trkpt lat="43.59611" lon="2.96174">
        <ele>1022.5</ele>
        <time>2026-05-07T10:14:13.999Z</time>
      </trkpt>
      <trkpt lat="43.5961" lon="2.96175">
        <ele>1022.5</ele>
        <time>2026-05-07T10:14:14.999Z</time>
      </trkpt>
      <trkpt lat="43.5961" lon="2.96175">
        <ele>1022.2</ele>
        <time>2026-05-07T10:14:15.999Z</time>
      </trkpt>
      <trkpt lat="43.59611" lon="2.96174">
        <ele>1022.3</ele>
        <time>2026-05-07T10:14:16.999Z</time>
      </trkpt>
      <trkpt lat="43.5961" lon="2.96174">
        <ele>1021.9</ele>
        <time>2026-05-07T10:14:17.999Z</time>
      </trkpt>
      <trkpt lat="43.59609" lon="2.96173">
        <ele>1021.7</ele>
        <time>2026-05-07T10:14:18.999Z</time>
      </trkpt>
      <trkpt lat="43.59609" lon="2.96173">
        <ele>1021.7</ele>
        <time>2026-05-07T10:14:19.999Z</time>
      </trkpt>
      <trkpt lat="43.59608" lon="2.96172">
        <ele>1021.9</ele>
        <time>2026-05-07T10:14:20.999Z</time>
      </trkpt>
      <trkpt lat="43.59607" lon="2.96172">
        <ele>1021.7</ele>
        <time>2026-05-07T10:14:21.999Z</time>
      </trkpt>
      <trkpt lat="43.59606" lon="2.96171">
        <ele>1022.1</ele>
        <time>2026-05-07T10:14:22.999Z</time>
      </trkpt>
      <trkpt lat="43.59606" lon="2.96171">
        <ele>1022.1</ele>
        <time>2026-05-07T10:14:23.999Z</time>
      </trkpt>
      <trkpt lat="43.59606" lon="2.96171">
        <ele>1022.5</ele>
        <time>2026-05-07T10:14:24.999Z</time>
      </trkpt>
      <trkpt lat="43.59606" lon="2.96171">
        <ele>1022.7</ele>
        <time>2026-05-07T10:14:25.999Z</time>
      </trkpt>
      <trkpt lat="43.59606" lon="2.96171">
        <ele>1022.9</ele>
        <time>2026-05-07T10:14:26.999Z</time>
      </trkpt>
      <trkpt lat="43.59606" lon="2.9617">
        <ele>1022.9</ele>
        <time>2026-05-07T10:14:27.999Z</time>
      </trkpt>
      <trkpt lat="43.59606" lon="2.9617">
        <ele>1023.1</ele>
        <time>2026-05-07T10:14:28.999Z</time>
      </trkpt>
      <trkpt lat="43.59606" lon="2.9617">
        <ele>1023.2</ele>
        <time>2026-05-07T10:14:29.999Z</time>
      </trkpt>
      <trkpt lat="43.59606" lon="2.96169">
        <ele>1023</ele>
        <time>2026-05-07T10:14:30.999Z</time>
      </trkpt>
      <trkpt lat="43.59606" lon="2.9617">
        <ele>1023.3</ele>
        <time>2026-05-07T10:14:31.999Z</time>
      </trkpt>
      <trkpt lat="43.59605" lon="2.9617">
        <ele>1023.1</ele>
        <time>2026-05-07T10:14:32.999Z</time>
      </trkpt>
      <trkpt lat="43.59605" lon="2.96169">
        <ele>1022.6</ele>
        <time>2026-05-07T10:14:33.999Z</time>
      </trkpt>
      <trkpt lat="43.59605" lon="2.96168">
        <ele>1022.1</ele>
        <time>2026-05-07T10:14:34.999Z</time>
      </trkpt>
      <trkpt lat="43.59604" lon="2.96168">
        <ele>1022.4</ele>
        <time>2026-05-07T10:14:35.999Z</time>
      </trkpt>
      <trkpt lat="43.59603" lon="2.96169">
        <ele>1022.3</ele>
        <time>2026-05-07T10:14:36.999Z</time>
      </trkpt>
      <trkpt lat="43.59603" lon="2.9617">
        <ele>1022.3</ele>
        <time>2026-05-07T10:14:37.999Z</time>
      </trkpt>
      <trkpt lat="43.59603" lon="2.96169">
        <ele>1021.7</ele>
        <time>2026-05-07T10:14:38.999Z</time>
      </trkpt>
      <trkpt lat="43.59601" lon="2.9617">
        <ele>1021.9</ele>
        <time>2026-05-07T10:14:39.999Z</time>
      </trkpt>
      <trkpt lat="43.596" lon="2.96169">
        <ele>1021.6</ele>
        <time>2026-05-07T10:14:40.999Z</time>
      </trkpt>
      <trkpt lat="43.596" lon="2.96168">
        <ele>1021.6</ele>
        <time>2026-05-07T10:14:41.999Z</time>
      </trkpt>
      <trkpt lat="43.59599" lon="2.96168">
        <ele>1021.8</ele>
        <time>2026-05-07T10:14:42.999Z</time>
      </trkpt>
      <trkpt lat="43.59598" lon="2.96168">
        <ele>1021.8</ele>
        <time>2026-05-07T10:14:43.999Z</time>
      </trkpt>
      <trkpt lat="43.59597" lon="2.96168">
        <ele>1022</ele>
        <time>2026-05-07T10:14:44.999Z</time>
      </trkpt>
      <trkpt lat="43.59596" lon="2.96168">
        <ele>1022.1</ele>
        <time>2026-05-07T10:14:45.999Z</time>
      </trkpt>
      <trkpt lat="43.59596" lon="2.96169">
        <ele>1022.1</ele>
        <time>2026-05-07T10:14:46.999Z</time>
      </trkpt>
      <trkpt lat="43.59595" lon="2.96169">
        <ele>1022.1</ele>
        <time>2026-05-07T10:14:47.999Z</time>
      </trkpt>
      <trkpt lat="43.59594" lon="2.9617">
        <ele>1022</ele>
        <time>2026-05-07T10:14:48.999Z</time>
      </trkpt>
      <trkpt lat="43.59593" lon="2.96169">
        <ele>1021.8</ele>
        <time>2026-05-07T10:14:49.999Z</time>
      </trkpt>
      <trkpt lat="43.59592" lon="2.96169">
        <ele>1021.7</ele>
        <time>2026-05-07T10:14:50.999Z</time>
      </trkpt>
      <trkpt lat="43.5959" lon="2.96169">
        <ele>1021.4</ele>
        <time>2026-05-07T10:14:51.999Z</time>
      </trkpt>
      <trkpt lat="43.5959" lon="2.96169">
        <ele>1021.5</ele>
        <time>2026-05-07T10:14:52.999Z</time>
      </trkpt>
      <trkpt lat="43.59601" lon="2.96172">
        <ele>1026</ele>
        <time>2026-05-07T10:16:08.999Z</time>
      </trkpt>
      <trkpt lat="43.59603" lon="2.96172">
        <ele>1026.8</ele>
        <time>2026-05-07T10:16:09.999Z</time>
      </trkpt>
      <trkpt lat="43.59604" lon="2.96172">
        <ele>1027.1</ele>
        <time>2026-05-07T10:16:10.999Z</time>
      </trkpt>
      <trkpt lat="43.59604" lon="2.96172">
        <ele>1028.3</ele>
        <time>2026-05-07T10:16:11.999Z</time>
      </trkpt>
      <trkpt lat="43.59604" lon="2.96172">
        <ele>1029.1</ele>
        <time>2026-05-07T10:16:12.999Z</time>
      </trkpt>
      <trkpt lat="43.59604" lon="2.96172">
        <ele>1029.2</ele>
        <time>2026-05-07T10:16:13.999Z</time>
      </trkpt>
      <trkpt lat="43.59605" lon="2.96172">
        <ele>1029.4</ele>
        <time>2026-05-07T10:16:14.999Z</time>
      </trkpt>
      <trkpt lat="43.59605" lon="2.96171">
        <ele>1029.8</ele>
        <time>2026-05-07T10:16:15.999Z</time>
      </trkpt>
      <trkpt lat="43.59605" lon="2.96171">
        <ele>1030.1</ele>
        <time>2026-05-07T10:16:16.999Z</time>
      </trkpt>
      <trkpt lat="43.59605" lon="2.96172">
        <ele>1030.2</ele>
        <time>2026-05-07T10:16:17.999Z</time>
      </trkpt>
      <trkpt lat="43.59605" lon="2.96172">
        <ele>1030.1</ele>
        <time>2026-05-07T10:16:18.999Z</time>
      </trkpt>
      <trkpt lat="43.59605" lon="2.96173">
        <ele>1030.2</ele>
        <time>2026-05-07T10:16:19.999Z</time>
      </trkpt>
      <trkpt lat="43.59604" lon="2.96172">
        <ele>1030</ele>
        <time>2026-05-07T10:16:20.999Z</time>
      </trkpt>
      <trkpt lat="43.59604" lon="2.96172">
        <ele>1029.9</ele>
        <time>2026-05-07T10:16:21.999Z</time>
      </trkpt>
      <trkpt lat="43.59603" lon="2.96173">
        <ele>1029.4</ele>
        <time>2026-05-07T10:16:22.999Z</time>
      </trkpt>
      <trkpt lat="43.59603" lon="2.96172">
        <ele>1028.6</ele>
        <time>2026-05-07T10:16:23.999Z</time>
      </trkpt>
      <trkpt lat="43.59603" lon="2.96171">
        <ele>1028.4</ele>
        <time>2026-05-07T10:16:24.999Z</time>
      </trkpt>
      <trkpt lat="43.59603" lon="2.96171">
        <ele>1028.4</ele>
        <time>2026-05-07T10:16:25.999Z</time>
      </trkpt>
      <trkpt lat="43.59603" lon="2.96171">
        <ele>1028.2</ele>
        <time>2026-05-07T10:16:26.999Z</time>
      </trkpt>
      <trkpt lat="43.59603" lon="2.96171">
        <ele>1028.6</ele>
        <time>2026-05-07T10:16:27.999Z</time>
      </trkpt>
      <trkpt lat="43.59603" lon="2.9617">
        <ele>1028.7</ele>
        <time>2026-05-07T10:16:28.999Z</time>
      </trkpt>
      <trkpt lat="43.59603" lon="2.9617">
        <ele>1027.7</ele>
        <time>2026-05-07T10:16:29.999Z</time>
      </trkpt>
      <trkpt lat="43.59603" lon="2.9617">
        <ele>1027.4</ele>
        <time>2026-05-07T10:16:30.999Z</time>
      </trkpt>
      <trkpt lat="43.59603" lon="2.96171">
        <ele>1027.4</ele>
        <time>2026-05-07T10:16:31.999Z</time>
      </trkpt>
      <trkpt lat="43.59603" lon="2.96171">
        <ele>1027.5</ele>
        <time>2026-05-07T10:16:32.999Z</time>
      </trkpt>
      <trkpt lat="43.59603" lon="2.96171">
        <ele>1027.5</ele>
        <time>2026-05-07T10:16:33.999Z</time>
      </trkpt>
      <trkpt lat="43.59604" lon="2.96171">
        <ele>1026.9</ele>
        <time>2026-05-07T10:16:34.999Z</time>
      </trkpt>
      <trkpt lat="43.59604" lon="2.96172">
        <ele>1026.9</ele>
        <time>2026-05-07T10:16:35.999Z</time>
      </trkpt>
      <trkpt lat="43.59604" lon="2.96172">
        <ele>1027.1</ele>
        <time>2026-05-07T10:16:36.999Z</time>
      </trkpt>
      <trkpt lat="43.59603" lon="2.96172">
        <ele>1027.2</ele>
        <time>2026-05-07T10:16:37.999Z</time>
      </trkpt>
      <trkpt lat="43.59603" lon="2.96172">
        <ele>1027.2</ele>
        <time>2026-05-07T10:16:38.999Z</time>
      </trkpt>
      <trkpt lat="43.59603" lon="2.96172">
        <ele>1027.1</ele>
        <time>2026-05-07T10:16:39.999Z</time>
      </trkpt>
      <trkpt lat="43.59602" lon="2.96171">
        <ele>1026.7</ele>
        <time>2026-05-07T10:16:40.999Z</time>
      </trkpt>
      <trkpt lat="43.59602" lon="2.96172">
        <ele>1026.5</ele>
        <time>2026-05-07T10:16:41.999Z</time>
      </trkpt>
      <trkpt lat="43.59602" lon="2.96172">
        <ele>1025.7</ele>
        <time>2026-05-07T10:16:42.999Z</time>
      </trkpt>
      <trkpt lat="43.59603" lon="2.9617">
        <ele>1024.8</ele>
        <time>2026-05-07T10:16:43.999Z</time>
      </trkpt>
      <trkpt lat="43.59603" lon="2.9617">
        <ele>1024.4</ele>
        <time>2026-05-07T10:16:44.999Z</time>
      </trkpt>
      <trkpt lat="43.59603" lon="2.9617">
        <ele>1024.2</ele>
        <time>2026-05-07T10:16:45.999Z</time>
      </trkpt>
      <trkpt lat="43.59603" lon="2.96169">
        <ele>1024.1</ele>
        <time>2026-05-07T10:16:46.999Z</time>
      </trkpt>
      <trkpt lat="43.59604" lon="2.96168">
        <ele>1024.1</ele>
        <time>2026-05-07T10:16:47.999Z</time>
      </trkpt>
      <trkpt lat="43.59604" lon="2.96168">
        <ele>1024</ele>
        <time>2026-05-07T10:16:48.999Z</time>
      </trkpt>
      <trkpt lat="43.59604" lon="2.96167">
        <ele>1024</ele>
        <time>2026-05-07T10:16:49.999Z</time>
      </trkpt>
      <trkpt lat="43.59604" lon="2.96167">
        <ele>1023.5</ele>
        <time>2026-05-07T10:16:50.999Z</time>
      </trkpt>
      <trkpt lat="43.59604" lon="2.96166">
        <ele>1023.2</ele>
        <time>2026-05-07T10:16:51.999Z</time>
      </trkpt>
      <trkpt lat="43.59604" lon="2.96165">
        <ele>1022.7</ele>
        <time>2026-05-07T10:16:53.999Z</time>
      </trkpt>
      <trkpt lat="43.59605" lon="2.96164">
        <ele>1022.5</ele>
        <time>2026-05-07T10:16:54.999Z</time>
      </trkpt>
      <trkpt lat="43.59605" lon="2.96164">
        <ele>1023.4</ele>
        <time>2026-05-07T10:16:55.999Z</time>
      </trkpt>
      <trkpt lat="43.59605" lon="2.96164">
        <ele>1023.1</ele>
        <time>2026-05-07T10:16:56.999Z</time>
      </trkpt>
      <trkpt lat="43.59605" lon="2.96164">
        <ele>1023.1</ele>
        <time>2026-05-07T10:16:57.999Z</time>
      </trkpt>
      <trkpt lat="43.59605" lon="2.96164">
        <ele>1023.3</ele>
        <time>2026-05-07T10:16:58.999Z</time>
      </trkpt>
      <trkpt lat="43.59605" lon="2.96164">
        <ele>1023.3</ele>
        <time>2026-05-07T10:16:59.999Z</time>
      </trkpt>
      <trkpt lat="43.59605" lon="2.96164">
        <ele>1022.9</ele>
        <time>2026-05-07T10:17:00.999Z</time>
      </trkpt>
      <trkpt lat="43.59606" lon="2.96165">
        <ele>1023</ele>
        <time>2026-05-07T10:17:01.999Z</time>
      </trkpt>
      <trkpt lat="43.59606" lon="2.96165">
        <ele>1022.6</ele>
        <time>2026-05-07T10:17:03.999Z</time>
      </trkpt>
      <trkpt lat="43.59606" lon="2.96164">
        <ele>1022.4</ele>
        <time>2026-05-07T10:17:04.999Z</time>
      </trkpt>
      <trkpt lat="43.59606" lon="2.96164">
        <ele>1022.6</ele>
        <time>2026-05-07T10:17:05.999Z</time>
      </trkpt>
      <trkpt lat="43.59606" lon="2.96164">
        <ele>1022.3</ele>
        <time>2026-05-07T10:17:06.999Z</time>
      </trkpt>
      <trkpt lat="43.59606" lon="2.96165">
        <ele>1022.2</ele>
        <time>2026-05-07T10:17:07.999Z</time>
      </trkpt>
      <trkpt lat="43.59606" lon="2.96165">
        <ele>1022.7</ele>
        <time>2026-05-07T10:17:08.999Z</time>
      </trkpt>
      <trkpt lat="43.59606" lon="2.96165">
        <ele>1022.7</ele>
        <time>2026-05-07T10:17:09.999Z</time>
      </trkpt>
      <trkpt lat="43.59607" lon="2.96165">
        <ele>1022.6</ele>
        <time>2026-05-07T10:17:10.999Z</time>
      </trkpt>
      <trkpt lat="43.59608" lon="2.96165">
        <ele>1022.7</ele>
        <time>2026-05-07T10:17:11.999Z</time>
      </trkpt>
      <trkpt lat="43.59608" lon="2.96164">
        <ele>1022.9</ele>
        <time>2026-05-07T10:17:12.999Z</time>
      </trkpt>
      <trkpt lat="43.59609" lon="2.96164">
        <ele>1023</ele>
        <time>2026-05-07T10:17:13.999Z</time>
      </trkpt>
      <trkpt lat="43.59608" lon="2.96164">
        <ele>1023.1</ele>
        <time>2026-05-07T10:17:14.999Z</time>
      </trkpt>
      <trkpt lat="43.59607" lon="2.96164">
        <ele>1023.4</ele>
        <time>2026-05-07T10:17:15.999Z</time>
      </trkpt>
      <trkpt lat="43.59607" lon="2.96163">
        <ele>1023.6</ele>
        <time>2026-05-07T10:17:16.999Z</time>
      </trkpt>
      <trkpt lat="43.59606" lon="2.96162">
        <ele>1023.9</ele>
        <time>2026-05-07T10:17:17.999Z</time>
      </trkpt>
      <trkpt lat="43.59605" lon="2.96163">
        <ele>1024</ele>
        <time>2026-05-07T10:17:18.999Z</time>
      </trkpt>
      <trkpt lat="43.59605" lon="2.96164">
        <ele>1024.3</ele>
        <time>2026-05-07T10:17:19.999Z</time>
      </trkpt>
      <trkpt lat="43.59604" lon="2.96164">
        <ele>1024.6</ele>
        <time>2026-05-07T10:17:20.999Z</time>
      </trkpt>
      <trkpt lat="43.59605" lon="2.96165">
        <ele>1024.9</ele>
        <time>2026-05-07T10:17:21.999Z</time>
      </trkpt>
      <trkpt lat="43.59604" lon="2.96165">
        <ele>1025.3</ele>
        <time>2026-05-07T10:17:22.999Z</time>
      </trkpt>
      <trkpt lat="43.59604" lon="2.96166">
        <ele>1025.3</ele>
        <time>2026-05-07T10:17:23.999Z</time>
      </trkpt>
      <trkpt lat="43.59603" lon="2.96165">
        <ele>1024.9</ele>
        <time>2026-05-07T10:17:24.999Z</time>
      </trkpt>
      <trkpt lat="43.59603" lon="2.96165">
        <ele>1024.9</ele>
        <time>2026-05-07T10:17:25.999Z</time>
      </trkpt>
      <trkpt lat="43.59604" lon="2.96164">
        <ele>1024.7</ele>
        <time>2026-05-07T10:17:27.999Z</time>
      </trkpt>
      <trkpt lat="43.59604" lon="2.96163">
        <ele>1024.6</ele>
        <time>2026-05-07T10:17:28.999Z</time>
      </trkpt>
      <trkpt lat="43.59604" lon="2.96162">
        <ele>1024.7</ele>
        <time>2026-05-07T10:17:29.999Z</time>
      </trkpt>
      <trkpt lat="43.59604" lon="2.96162">
        <ele>1024.8</ele>
        <time>2026-05-07T10:17:30.999Z</time>
      </trkpt>
      <trkpt lat="43.59605" lon="2.96161">
        <ele>1024.8</ele>
        <time>2026-05-07T10:17:31.999Z</time>
      </trkpt>
      <trkpt lat="43.59605" lon="2.96161">
        <ele>1024.7</ele>
        <time>2026-05-07T10:17:32.999Z</time>
      </trkpt>
      <trkpt lat="43.59605" lon="2.9616">
        <ele>1024.5</ele>
        <time>2026-05-07T10:17:33.999Z</time>
      </trkpt>
      <trkpt lat="43.59605" lon="2.9616">
        <ele>1024.6</ele>
        <time>2026-05-07T10:17:34.999Z</time>
      </trkpt>
      <trkpt lat="43.59604" lon="2.96161">
        <ele>1024.7</ele>
        <time>2026-05-07T10:17:35.999Z</time>
      </trkpt>
      <trkpt lat="43.59604" lon="2.96162">
        <ele>1025.1</ele>
        <time>2026-05-07T10:17:43.999Z</time>
      </trkpt>
      <trkpt lat="43.59606" lon="2.96163">
        <ele>1027</ele>
        <time>2026-05-07T10:17:44.999Z</time>
      </trkpt>
      <trkpt lat="43.59608" lon="2.96164">
        <ele>1028.2</ele>
        <time>2026-05-07T10:17:45.999Z</time>
      </trkpt>
      <trkpt lat="43.59609" lon="2.96165">
        <ele>1029.1</ele>
        <time>2026-05-07T10:17:46.999Z</time>
      </trkpt>
      <trkpt lat="43.59609" lon="2.96165">
        <ele>1029.1</ele>
        <time>2026-05-07T10:17:47.999Z</time>
      </trkpt>
      <trkpt lat="43.59608" lon="2.96165">
        <ele>1027.9</ele>
        <time>2026-05-07T10:17:48.999Z</time>
      </trkpt>
      <trkpt lat="43.59607" lon="2.96165">
        <ele>1026.9</ele>
        <time>2026-05-07T10:17:49.999Z</time>
      </trkpt>
      <trkpt lat="43.59607" lon="2.96166">
        <ele>1026.7</ele>
        <time>2026-05-07T10:17:50.999Z</time>
      </trkpt>
      <trkpt lat="43.59608" lon="2.96167">
        <ele>1026.8</ele>
        <time>2026-05-07T10:17:51.999Z</time>
      </trkpt>
      <trkpt lat="43.59608" lon="2.96167">
        <ele>1027</ele>
        <time>2026-05-07T10:17:52.999Z</time>
      </trkpt>
      <trkpt lat="43.59608" lon="2.96167">
        <ele>1026.5</ele>
        <time>2026-05-07T10:17:53.999Z</time>
      </trkpt>
      <trkpt lat="43.59606" lon="2.96166">
        <ele>1025.7</ele>
        <time>2026-05-07T10:17:54.999Z</time>
      </trkpt>
      <trkpt lat="43.59606" lon="2.96167">
        <ele>1025.7</ele>
        <time>2026-05-07T10:17:55.999Z</time>
      </trkpt>
      <trkpt lat="43.59606" lon="2.96168">
        <ele>1026</ele>
        <time>2026-05-07T10:17:56.999Z</time>
      </trkpt>
      <trkpt lat="43.59607" lon="2.96168">
        <ele>1026.3</ele>
        <time>2026-05-07T10:17:57.999Z</time>
      </trkpt>
      <trkpt lat="43.59607" lon="2.96167">
        <ele>1026.4</ele>
        <time>2026-05-07T10:17:58.999Z</time>
      </trkpt>
      <trkpt lat="43.59607" lon="2.96168">
        <ele>1026.4</ele>
        <time>2026-05-07T10:17:59.999Z</time>
      </trkpt>
      <trkpt lat="43.59606" lon="2.96169">
        <ele>1026.4</ele>
        <time>2026-05-07T10:18:00.999Z</time>
      </trkpt>
      <trkpt lat="43.59606" lon="2.96169">
        <ele>1026.6</ele>
        <time>2026-05-07T10:18:01.999Z</time>
      </trkpt>
      <trkpt lat="43.59606" lon="2.96169">
        <ele>1026.2</ele>
        <time>2026-05-07T10:18:02.999Z</time>
      </trkpt>
      <trkpt lat="43.59606" lon="2.96169">
        <ele>1026</ele>
        <time>2026-05-07T10:18:03.999Z</time>
      </trkpt>
      <trkpt lat="43.59606" lon="2.96169">
        <ele>1026.7</ele>
        <time>2026-05-07T10:18:04.999Z</time>
      </trkpt>
      <trkpt lat="43.59605" lon="2.96169">
        <ele>1027.4</ele>
        <time>2026-05-07T10:18:05.999Z</time>
      </trkpt>
      <trkpt lat="43.59605" lon="2.96168">
        <ele>1026.8</ele>
        <time>2026-05-07T10:18:06.999Z</time>
      </trkpt>
      <trkpt lat="43.59604" lon="2.96167">
        <ele>1026.4</ele>
        <time>2026-05-07T10:18:07.999Z</time>
      </trkpt>
      <trkpt lat="43.59604" lon="2.96166">
        <ele>1026.3</ele>
        <time>2026-05-07T10:18:08.999Z</time>
      </trkpt>
      <trkpt lat="43.59603" lon="2.96165">
        <ele>1025.8</ele>
        <time>2026-05-07T10:18:09.999Z</time>
      </trkpt>
      <trkpt lat="43.59603" lon="2.96164">
        <ele>1026.1</ele>
        <time>2026-05-07T10:18:11.999Z</time>
      </trkpt>
      <trkpt lat="43.59604" lon="2.96163">
        <ele>1026.1</ele>
        <time>2026-05-07T10:18:12.999Z</time>
      </trkpt>
      <trkpt lat="43.59603" lon="2.96162">
        <ele>1026.2</ele>
        <time>2026-05-07T10:18:13.999Z</time>
      </trkpt>
      <trkpt lat="43.59602" lon="2.96163">
        <ele>1026.5</ele>
        <time>2026-05-07T10:18:14.999Z</time>
      </trkpt>
      <trkpt lat="43.59603" lon="2.96164">
        <ele>1026.5</ele>
        <time>2026-05-07T10:18:15.999Z</time>
      </trkpt>
      <trkpt lat="43.59602" lon="2.96163">
        <ele>1027</ele>
        <time>2026-05-07T10:18:16.999Z</time>
      </trkpt>
      <trkpt lat="43.59602" lon="2.96163">
        <ele>1026.4</ele>
        <time>2026-05-07T10:18:17.999Z</time>
      </trkpt>
      <trkpt lat="43.59602" lon="2.96163">
        <ele>1025.8</ele>
        <time>2026-05-07T10:18:18.999Z</time>
      </trkpt>
      <trkpt lat="43.59602" lon="2.96163">
        <ele>1025.4</ele>
        <time>2026-05-07T10:18:19.999Z</time>
      </trkpt>
      <trkpt lat="43.59602" lon="2.96163">
        <ele>1025.5</ele>
        <time>2026-05-07T10:18:20.999Z</time>
      </trkpt>
      <trkpt lat="43.59602" lon="2.96163">
        <ele>1025.8</ele>
        <time>2026-05-07T10:18:21.999Z</time>
      </trkpt>
      <trkpt lat="43.59602" lon="2.96163">
        <ele>1026.2</ele>
        <time>2026-05-07T10:18:22.999Z</time>
      </trkpt>
      <trkpt lat="43.59602" lon="2.96163">
        <ele>1026.9</ele>
        <time>2026-05-07T10:18:23.999Z</time>
      </trkpt>
      <trkpt lat="43.59602" lon="2.96163">
        <ele>1027.3</ele>
        <time>2026-05-07T10:18:24.999Z</time>
      </trkpt>
      <trkpt lat="43.59603" lon="2.96165">
        <ele>1028.2</ele>
        <time>2026-05-07T10:18:25.999Z</time>
      </trkpt>
      <trkpt lat="43.59603" lon="2.96165">
        <ele>1028.2</ele>
        <time>2026-05-07T10:18:26.999Z</time>
      </trkpt>
      <trkpt lat="43.59603" lon="2.96165">
        <ele>1028.4</ele>
        <time>2026-05-07T10:18:27.999Z</time>
      </trkpt>
      <trkpt lat="43.59603" lon="2.96166">
        <ele>1028.5</ele>
        <time>2026-05-07T10:18:28.999Z</time>
      </trkpt>
      <trkpt lat="43.59602" lon="2.96168">
        <ele>1028.7</ele>
        <time>2026-05-07T10:18:29.999Z</time>
      </trkpt>
      <trkpt lat="43.59602" lon="2.96169">
        <ele>1028.7</ele>
        <time>2026-05-07T10:18:30.999Z</time>
      </trkpt>
      <trkpt lat="43.59602" lon="2.96171">
        <ele>1028.6</ele>
        <time>2026-05-07T10:18:31.999Z</time>
      </trkpt>
      <trkpt lat="43.59603" lon="2.96172">
        <ele>1028.6</ele>
        <time>2026-05-07T10:18:32.999Z</time>
      </trkpt>
      <trkpt lat="43.59604" lon="2.96174">
        <ele>1028.7</ele>
        <time>2026-05-07T10:18:33.999Z</time>
      </trkpt>
      <trkpt lat="43.59605" lon="2.96175">
        <ele>1029.3</ele>
        <time>2026-05-07T10:18:34.999Z</time>
      </trkpt>
      <trkpt lat="43.59607" lon="2.96177">
        <ele>1029.8</ele>
        <time>2026-05-07T10:18:35.999Z</time>
      </trkpt>
      <trkpt lat="43.59606" lon="2.96177">
        <ele>1030</ele>
        <time>2026-05-07T10:18:36.999Z</time>
      </trkpt>
      <trkpt lat="43.59607" lon="2.96179">
        <ele>1030</ele>
        <time>2026-05-07T10:18:37.999Z</time>
      </trkpt>
      <trkpt lat="43.5961" lon="2.96186">
        <ele>1030.6</ele>
        <time>2026-05-07T10:18:39.999Z</time>
      </trkpt>
      <trkpt lat="43.59611" lon="2.96189">
        <ele>1030.1</ele>
        <time>2026-05-07T10:18:40.999Z</time>
      </trkpt>
      <trkpt lat="43.59613" lon="2.96192">
        <ele>1030.4</ele>
        <time>2026-05-07T10:18:41.999Z</time>
      </trkpt>
      <trkpt lat="43.59614" lon="2.96196">
        <ele>1030.5</ele>
        <time>2026-05-07T10:18:42.999Z</time>
      </trkpt>
      <trkpt lat="43.59614" lon="2.96199">
        <ele>1029.8</ele>
        <time>2026-05-07T10:18:43.999Z</time>
      </trkpt>
      <trkpt lat="43.59612" lon="2.96199">
        <ele>1031.3</ele>
        <time>2026-05-07T10:18:44.999Z</time>
      </trkpt>
      <trkpt lat="43.59612" lon="2.96198">
        <ele>1031.9</ele>
        <time>2026-05-07T10:18:45.999Z</time>
      </trkpt>
      <trkpt lat="43.59613" lon="2.96198">
        <ele>1032</ele>
        <time>2026-05-07T10:18:46.999Z</time>
      </trkpt>
      <trkpt lat="43.59613" lon="2.96198">
        <ele>1031.7</ele>
        <time>2026-05-07T10:18:47.999Z</time>
      </trkpt>
      <trkpt lat="43.59612" lon="2.96195">
        <ele>1032.1</ele>
        <time>2026-05-07T10:18:48.999Z</time>
      </trkpt>
      <trkpt lat="43.59612" lon="2.96195">
        <ele>1031.3</ele>
        <time>2026-05-07T10:18:49.999Z</time>
      </trkpt>
      <trkpt lat="43.59611" lon="2.96194">
        <ele>1030.7</ele>
        <time>2026-05-07T10:18:50.999Z</time>
      </trkpt>
      <trkpt lat="43.59611" lon="2.96193">
        <ele>1030.8</ele>
        <time>2026-05-07T10:18:51.999Z</time>
      </trkpt>
      <trkpt lat="43.59611" lon="2.96193">
        <ele>1027.1</ele>
        <time>2026-05-07T10:18:52.999Z</time>
      </trkpt>
      <trkpt lat="43.5961" lon="2.96192">
        <ele>1027.6</ele>
        <time>2026-05-07T10:18:53.999Z</time>
      </trkpt>
      <trkpt lat="43.5961" lon="2.9619">
        <ele>1027.9</ele>
        <time>2026-05-07T10:18:54.999Z</time>
      </trkpt>
      <trkpt lat="43.5961" lon="2.96189">
        <ele>1028.2</ele>
        <time>2026-05-07T10:18:55.999Z</time>
      </trkpt>
      <trkpt lat="43.59609" lon="2.96186">
        <ele>1028.3</ele>
        <time>2026-05-07T10:18:56.999Z</time>
      </trkpt>
      <trkpt lat="43.59609" lon="2.96185">
        <ele>1028.2</ele>
        <time>2026-05-07T10:18:57.999Z</time>
      </trkpt>
      <trkpt lat="43.59608" lon="2.96184">
        <ele>1028.3</ele>
        <time>2026-05-07T10:18:58.999Z</time>
      </trkpt>
      <trkpt lat="43.59608" lon="2.96181">
        <ele>1027.8</ele>
        <time>2026-05-07T10:18:59.999Z</time>
      </trkpt>
      <trkpt lat="43.59607" lon="2.9618">
        <ele>1027.5</ele>
        <time>2026-05-07T10:19:00.999Z</time>
      </trkpt>
      <trkpt lat="43.59605" lon="2.96178">
        <ele>1026.9</ele>
        <time>2026-05-07T10:19:01.999Z</time>
      </trkpt>
      <trkpt lat="43.59605" lon="2.96177">
        <ele>1026.9</ele>
        <time>2026-05-07T10:19:02.999Z</time>
      </trkpt>
      <trkpt lat="43.59604" lon="2.96177">
        <ele>1027.5</ele>
        <time>2026-05-07T10:19:03.999Z</time>
      </trkpt>
      <trkpt lat="43.59604" lon="2.96177">
        <ele>1027.7</ele>
        <time>2026-05-07T10:19:04.999Z</time>
      </trkpt>
      <trkpt lat="43.59604" lon="2.96177">
        <ele>1027.7</ele>
        <time>2026-05-07T10:19:05.999Z</time>
      </trkpt>
      <trkpt lat="43.59603" lon="2.96176">
        <ele>1027.6</ele>
        <time>2026-05-07T10:19:06.999Z</time>
      </trkpt>
      <trkpt lat="43.59603" lon="2.96175">
        <ele>1027.3</ele>
        <time>2026-05-07T10:19:07.999Z</time>
      </trkpt>
      <trkpt lat="43.59602" lon="2.96174">
        <ele>1026.9</ele>
        <time>2026-05-07T10:19:08.999Z</time>
      </trkpt>
      <trkpt lat="43.59602" lon="2.96174">
        <ele>1026.2</ele>
        <time>2026-05-07T10:19:09.999Z</time>
      </trkpt>
      <trkpt lat="43.59602" lon="2.96173">
        <ele>1025.5</ele>
        <time>2026-05-07T10:19:10.999Z</time>
      </trkpt>
      <trkpt lat="43.59602" lon="2.96173">
        <ele>1025</ele>
        <time>2026-05-07T10:19:11.999Z</time>
      </trkpt>
      <trkpt lat="43.59602" lon="2.96172">
        <ele>1024.6</ele>
        <time>2026-05-07T10:19:12.999Z</time>
      </trkpt>
      <trkpt lat="43.59602" lon="2.96172">
        <ele>1024.7</ele>
        <time>2026-05-07T10:19:13.999Z</time>
      </trkpt>
      <trkpt lat="43.59603" lon="2.96173">
        <ele>1024.8</ele>
        <time>2026-05-07T10:19:15.999Z</time>
      </trkpt>
      <trkpt lat="43.59603" lon="2.96172">
        <ele>1024.7</ele>
        <time>2026-05-07T10:19:17.000Z</time>
      </trkpt>
      <trkpt lat="43.59602" lon="2.96172">
        <ele>1024.8</ele>
        <time>2026-05-07T10:19:18.000Z</time>
      </trkpt>
      <trkpt lat="43.59602" lon="2.96172">
        <ele>1024.9</ele>
        <time>2026-05-07T10:19:19.000Z</time>
      </trkpt>
      <trkpt lat="43.59602" lon="2.96172">
        <ele>1024.6</ele>
        <time>2026-05-07T10:19:20.000Z</time>
      </trkpt>
      <trkpt lat="43.59602" lon="2.96172">
        <ele>1024.3</ele>
        <time>2026-05-07T10:19:21.000Z</time>
      </trkpt>
      <trkpt lat="43.59601" lon="2.9617">
        <ele>1024.1</ele>
        <time>2026-05-07T10:19:22.000Z</time>
      </trkpt>
      <trkpt lat="43.59601" lon="2.9617">
        <ele>1024.3</ele>
        <time>2026-05-07T10:19:23.000Z</time>
      </trkpt>
      <trkpt lat="43.596" lon="2.9617">
        <ele>1024.5</ele>
        <time>2026-05-07T10:19:24.000Z</time>
      </trkpt>
      <trkpt lat="43.596" lon="2.96169">
        <ele>1024.5</ele>
        <time>2026-05-07T10:19:25.000Z</time>
      </trkpt>
      <trkpt lat="43.596" lon="2.96169">
        <ele>1024.2</ele>
        <time>2026-05-07T10:19:26.000Z</time>
      </trkpt>
      <trkpt lat="43.59599" lon="2.96169">
        <ele>1024.1</ele>
        <time>2026-05-07T10:19:27.000Z</time>
      </trkpt>
      <trkpt lat="43.596" lon="2.96169">
        <ele>1024.2</ele>
        <time>2026-05-07T10:19:28.000Z</time>
      </trkpt>
      <trkpt lat="43.59599" lon="2.96169">
        <ele>1023.9</ele>
        <time>2026-05-07T10:19:30.000Z</time>
      </trkpt>
      <trkpt lat="43.59598" lon="2.96167">
        <ele>1024</ele>
        <time>2026-05-07T10:19:31.000Z</time>
      </trkpt>
      <trkpt lat="43.59598" lon="2.96167">
        <ele>1023.9</ele>
        <time>2026-05-07T10:19:32.000Z</time>
      </trkpt>
      <trkpt lat="43.59597" lon="2.96167">
        <ele>1023.8</ele>
        <time>2026-05-07T10:19:33.000Z</time>
      </trkpt>
      <trkpt lat="43.59597" lon="2.96167">
        <ele>1023.8</ele>
        <time>2026-05-07T10:19:34.000Z</time>
      </trkpt>
      <trkpt lat="43.59597" lon="2.96167">
        <ele>1024.1</ele>
        <time>2026-05-07T10:19:35.000Z</time>
      </trkpt>
      <trkpt lat="43.59597" lon="2.96168">
        <ele>1024.5</ele>
        <time>2026-05-07T10:19:36.000Z</time>
      </trkpt>
      <trkpt lat="43.59597" lon="2.96169">
        <ele>1024.9</ele>
        <time>2026-05-07T10:19:37.000Z</time>
      </trkpt>
      <trkpt lat="43.59597" lon="2.96169">
        <ele>1024.2</ele>
        <time>2026-05-07T10:19:38.000Z</time>
      </trkpt>
      <trkpt lat="43.59597" lon="2.96169">
        <ele>1023.9</ele>
        <time>2026-05-07T10:19:39.000Z</time>
      </trkpt>
      <trkpt lat="43.59596" lon="2.96169">
        <ele>1023.7</ele>
        <time>2026-05-07T10:19:40.000Z</time>
      </trkpt>
      <trkpt lat="43.59596" lon="2.96169">
        <ele>1024.9</ele>
        <time>2026-05-07T10:19:41.000Z</time>
      </trkpt>
      <trkpt lat="43.59596" lon="2.96169">
        <ele>1024.7</ele>
        <time>2026-05-07T10:19:42.000Z</time>
      </trkpt>
      <trkpt lat="43.59597" lon="2.96168">
        <ele>1024.7</ele>
        <time>2026-05-07T10:19:43.000Z</time>
      </trkpt>
      <trkpt lat="43.59597" lon="2.96169">
        <ele>1024.9</ele>
        <time>2026-05-07T10:19:44.000Z</time>
      </trkpt>
      <trkpt lat="43.59597" lon="2.96169">
        <ele>1025.1</ele>
        <time>2026-05-07T10:19:45.000Z</time>
      </trkpt>
      <trkpt lat="43.59597" lon="2.96169">
        <ele>1025</ele>
        <time>2026-05-07T10:19:46.000Z</time>
      </trkpt>
      <trkpt lat="43.59597" lon="2.9617">
        <ele>1025</ele>
        <time>2026-05-07T10:19:47.000Z</time>
      </trkpt>
      <trkpt lat="43.59597" lon="2.9617">
        <ele>1025.1</ele>
        <time>2026-05-07T10:19:48.000Z</time>
      </trkpt>
      <trkpt lat="43.59597" lon="2.96171">
        <ele>1024.9</ele>
        <time>2026-05-07T10:19:50.000Z</time>
      </trkpt>
      <trkpt lat="43.59597" lon="2.96171">
        <ele>1024.9</ele>
        <time>2026-05-07T10:19:51.000Z</time>
      </trkpt>
      <trkpt lat="43.59597" lon="2.96171">
        <ele>1024.7</ele>
        <time>2026-05-07T10:19:52.000Z</time>
      </trkpt>
      <trkpt lat="43.59597" lon="2.96172">
        <ele>1024.6</ele>
        <time>2026-05-07T10:19:53.000Z</time>
      </trkpt>
      <trkpt lat="43.59597" lon="2.96172">
        <ele>1024.6</ele>
        <time>2026-05-07T10:19:54.000Z</time>
      </trkpt>
      <trkpt lat="43.59597" lon="2.96172">
        <ele>1024.9</ele>
        <time>2026-05-07T10:19:55.000Z</time>
      </trkpt>
      <trkpt lat="43.59597" lon="2.96172">
        <ele>1024.9</ele>
        <time>2026-05-07T10:19:56.000Z</time>
      </trkpt>
      <trkpt lat="43.59597" lon="2.96172">
        <ele>1024.8</ele>
        <time>2026-05-07T10:19:57.000Z</time>
      </trkpt>
      <trkpt lat="43.59597" lon="2.96172">
        <ele>1024.7</ele>
        <time>2026-05-07T10:19:58.000Z</time>
      </trkpt>
      <trkpt lat="43.59597" lon="2.96172">
        <ele>1024.5</ele>
        <time>2026-05-07T10:19:59.000Z</time>
      </trkpt>
      <trkpt lat="43.59597" lon="2.96172">
        <ele>1024.3</ele>
        <time>2026-05-07T10:20:00.000Z</time>
      </trkpt>
      <trkpt lat="43.59597" lon="2.96172">
        <ele>1024.2</ele>
        <time>2026-05-07T10:20:01.000Z</time>
      </trkpt>
      <trkpt lat="43.59597" lon="2.96172">
        <ele>1024.1</ele>
        <time>2026-05-07T10:20:02.000Z</time>
      </trkpt>
      <trkpt lat="43.59597" lon="2.96171">
        <ele>1024</ele>
        <time>2026-05-07T10:20:03.000Z</time>
      </trkpt>
      <trkpt lat="43.59595" lon="2.96169">
        <ele>1023.6</ele>
        <time>2026-05-07T10:20:04.000Z</time>
      </trkpt>
      <trkpt lat="43.59594" lon="2.96168">
        <ele>1023.6</ele>
        <time>2026-05-07T10:20:05.000Z</time>
      </trkpt>
      <trkpt lat="43.59594" lon="2.96169">
        <ele>1023.4</ele>
        <time>2026-05-07T10:20:06.000Z</time>
      </trkpt>
      <trkpt lat="43.59594" lon="2.96169">
        <ele>1023.5</ele>
        <time>2026-05-07T10:20:07.000Z</time>
      </trkpt>
      <trkpt lat="43.59595" lon="2.96169">
        <ele>1023.6</ele>
        <time>2026-05-07T10:20:08.000Z</time>
      </trkpt>
      <trkpt lat="43.59595" lon="2.9617">
        <ele>1023.5</ele>
        <time>2026-05-07T10:20:09.000Z</time>
      </trkpt>
      <trkpt lat="43.59595" lon="2.96169">
        <ele>1023.5</ele>
        <time>2026-05-07T10:20:10.000Z</time>
      </trkpt>
      <trkpt lat="43.59595" lon="2.9617">
        <ele>1023.6</ele>
        <time>2026-05-07T10:20:11.000Z</time>
      </trkpt>
      <trkpt lat="43.59595" lon="2.96169">
        <ele>1023.7</ele>
        <time>2026-05-07T10:20:12.000Z</time>
      </trkpt>
      <trkpt lat="43.59594" lon="2.9617">
        <ele>1022.9</ele>
        <time>2026-05-07T10:20:14.000Z</time>
      </trkpt>
      <trkpt lat="43.59594" lon="2.9617">
        <ele>1023</ele>
        <time>2026-05-07T10:20:15.000Z</time>
      </trkpt>
      <trkpt lat="43.59594" lon="2.9617">
        <ele>1023</ele>
        <time>2026-05-07T10:20:16.000Z</time>
      </trkpt>
      <trkpt lat="43.59594" lon="2.9617">
        <ele>1023.1</ele>
        <time>2026-05-07T10:20:17.000Z</time>
      </trkpt>
      <trkpt lat="43.59594" lon="2.9617">
        <ele>1023</ele>
        <time>2026-05-07T10:20:18.000Z</time>
      </trkpt>
      <trkpt lat="43.59594" lon="2.9617">
        <ele>1022.9</ele>
        <time>2026-05-07T10:20:19.000Z</time>
      </trkpt>
      <trkpt lat="43.59594" lon="2.9617">
        <ele>1023</ele>
        <time>2026-05-07T10:20:20.000Z</time>
      </trkpt>
      <trkpt lat="43.59594" lon="2.96171">
        <ele>1023.5</ele>
        <time>2026-05-07T10:20:21.000Z</time>
      </trkpt>
      <trkpt lat="43.59594" lon="2.96171">
        <ele>1023.6</ele>
        <time>2026-05-07T10:20:22.000Z</time>
      </trkpt>
      <trkpt lat="43.59594" lon="2.9617">
        <ele>1024</ele>
        <time>2026-05-07T10:20:23.000Z</time>
      </trkpt>
      <trkpt lat="43.59594" lon="2.9617">
        <ele>1024.1</ele>
        <time>2026-05-07T10:20:24.000Z</time>
      </trkpt>
      <trkpt lat="43.59594" lon="2.9617">
        <ele>1023.9</ele>
        <time>2026-05-07T10:20:25.000Z</time>
      </trkpt>
      <trkpt lat="43.59594" lon="2.9617">
        <ele>1024</ele>
        <time>2026-05-07T10:20:26.000Z</time>
      </trkpt>
      <trkpt lat="43.59594" lon="2.9617">
        <ele>1024.3</ele>
        <time>2026-05-07T10:20:27.000Z</time>
      </trkpt>
      <trkpt lat="43.59594" lon="2.96171">
        <ele>1024.6</ele>
        <time>2026-05-07T10:20:28.000Z</time>
      </trkpt>
      <trkpt lat="43.59594" lon="2.96171">
        <ele>1024.5</ele>
        <time>2026-05-07T10:20:29.000Z</time>
      </trkpt>
      <trkpt lat="43.59594" lon="2.96171">
        <ele>1024.5</ele>
        <time>2026-05-07T10:20:30.000Z</time>
      </trkpt>
      <trkpt lat="43.59594" lon="2.96171">
        <ele>1025.1</ele>
        <time>2026-05-07T10:20:31.000Z</time>
      </trkpt>
      <trkpt lat="43.59594" lon="2.96171">
        <ele>1025.4</ele>
        <time>2026-05-07T10:20:32.000Z</time>
      </trkpt>
      <trkpt lat="43.59594" lon="2.96172">
        <ele>1025.4</ele>
        <time>2026-05-07T10:20:33.000Z</time>
      </trkpt>
      <trkpt lat="43.59594" lon="2.96172">
        <ele>1025.5</ele>
        <time>2026-05-07T10:20:34.000Z</time>
      </trkpt>
      <trkpt lat="43.59594" lon="2.96172">
        <ele>1025.4</ele>
        <time>2026-05-07T10:20:35.000Z</time>
      </trkpt>
      <trkpt lat="43.59594" lon="2.96172">
        <ele>1025.5</ele>
        <time>2026-05-07T10:20:36.000Z</time>
      </trkpt>
      <trkpt lat="43.59594" lon="2.96172">
        <ele>1025.6</ele>
        <time>2026-05-07T10:20:37.000Z</time>
      </trkpt>
      <trkpt lat="43.59594" lon="2.96172">
        <ele>1026</ele>
        <time>2026-05-07T10:20:38.000Z</time>
      </trkpt>
      <trkpt lat="43.59594" lon="2.96172">
        <ele>1026.4</ele>
        <time>2026-05-07T10:20:39.000Z</time>
      </trkpt>
      <trkpt lat="43.59594" lon="2.96171">
        <ele>1026.9</ele>
        <time>2026-05-07T10:20:40.000Z</time>
      </trkpt>
      <trkpt lat="43.59594" lon="2.9617">
        <ele>1027.1</ele>
        <time>2026-05-07T10:20:41.000Z</time>
      </trkpt>
      <trkpt lat="43.59594" lon="2.9617">
        <ele>1027.1</ele>
        <time>2026-05-07T10:20:42.000Z</time>
      </trkpt>
      <trkpt lat="43.59594" lon="2.9617">
        <ele>1026.5</ele>
        <time>2026-05-07T10:20:43.000Z</time>
      </trkpt>
      <trkpt lat="43.59594" lon="2.9617">
        <ele>1026.5</ele>
        <time>2026-05-07T10:20:44.000Z</time>
      </trkpt>
      <trkpt lat="43.59594" lon="2.9617">
        <ele>1026.5</ele>
        <time>2026-05-07T10:20:45.000Z</time>
      </trkpt>
      <trkpt lat="43.59595" lon="2.9617">
        <ele>1026.5</ele>
        <time>2026-05-07T10:20:46.000Z</time>
      </trkpt>
      <trkpt lat="43.59595" lon="2.9617">
        <ele>1026.5</ele>
        <time>2026-05-07T10:20:47.000Z</time>
      </trkpt>
      <trkpt lat="43.59595" lon="2.9617">
        <ele>1026.4</ele>
        <time>2026-05-07T10:20:48.000Z</time>
      </trkpt>
      <trkpt lat="43.59595" lon="2.96171">
        <ele>1026.4</ele>
        <time>2026-05-07T10:20:49.000Z</time>
      </trkpt>
      <trkpt lat="43.59595" lon="2.96171">
        <ele>1026.4</ele>
        <time>2026-05-07T10:20:50.000Z</time>
      </trkpt>
      <trkpt lat="43.59595" lon="2.96171">
        <ele>1026.3</ele>
        <time>2026-05-07T10:20:51.000Z</time>
      </trkpt>
      <trkpt lat="43.59595" lon="2.96171">
        <ele>1026.3</ele>
        <time>2026-05-07T10:20:52.000Z</time>
      </trkpt>
      <trkpt lat="43.59596" lon="2.96172">
        <ele>1026.3</ele>
        <time>2026-05-07T10:20:53.000Z</time>
      </trkpt>
      <trkpt lat="43.59596" lon="2.96172">
        <ele>1026.2</ele>
        <time>2026-05-07T10:20:54.000Z</time>
      </trkpt>
      <trkpt lat="43.59596" lon="2.96172">
        <ele>1026.3</ele>
        <time>2026-05-07T10:20:55.000Z</time>
      </trkpt>
      <trkpt lat="43.59595" lon="2.96171">
        <ele>1026.2</ele>
        <time>2026-05-07T10:20:56.000Z</time>
      </trkpt>
      <trkpt lat="43.59595" lon="2.96171">
        <ele>1026.4</ele>
        <time>2026-05-07T10:20:57.000Z</time>
      </trkpt>
      <trkpt lat="43.59595" lon="2.96171">
        <ele>1026.8</ele>
        <time>2026-05-07T10:20:58.000Z</time>
      </trkpt>
      <trkpt lat="43.59595" lon="2.96171">
        <ele>1027.1</ele>
        <time>2026-05-07T10:20:59.000Z</time>
      </trkpt>
      <trkpt lat="43.59595" lon="2.96171">
        <ele>1026.6</ele>
        <time>2026-05-07T10:21:00.000Z</time>
      </trkpt>
      <trkpt lat="43.59595" lon="2.96171">
        <ele>1026.8</ele>
        <time>2026-05-07T10:21:01.000Z</time>
      </trkpt>
      <trkpt lat="43.59595" lon="2.9617">
        <ele>1027.2</ele>
        <time>2026-05-07T10:21:02.000Z</time>
      </trkpt>
      <trkpt lat="43.59595" lon="2.9617">
        <ele>1027.5</ele>
        <time>2026-05-07T10:21:03.000Z</time>
      </trkpt>
      <trkpt lat="43.59595" lon="2.9617">
        <ele>1027.6</ele>
        <time>2026-05-07T10:21:04.000Z</time>
      </trkpt>
      <trkpt lat="43.59595" lon="2.9617">
        <ele>1027.7</ele>
        <time>2026-05-07T10:21:05.000Z</time>
      </trkpt>
      <trkpt lat="43.59595" lon="2.9617">
        <ele>1027.5</ele>
        <time>2026-05-07T10:21:06.000Z</time>
      </trkpt>
      <trkpt lat="43.59595" lon="2.9617">
        <ele>1027.2</ele>
        <time>2026-05-07T10:21:07.000Z</time>
      </trkpt>
      <trkpt lat="43.59595" lon="2.96169">
        <ele>1027.3</ele>
        <time>2026-05-07T10:21:08.000Z</time>
      </trkpt>
      <trkpt lat="43.59595" lon="2.96169">
        <ele>1027.5</ele>
        <time>2026-05-07T10:21:09.000Z</time>
      </trkpt>
      <trkpt lat="43.59595" lon="2.96169">
        <ele>1027.8</ele>
        <time>2026-05-07T10:21:10.000Z</time>
      </trkpt>
      <trkpt lat="43.59596" lon="2.96169">
        <ele>1028.2</ele>
        <time>2026-05-07T10:21:11.000Z</time>
      </trkpt>
      <trkpt lat="43.59596" lon="2.9617">
        <ele>1028.4</ele>
        <time>2026-05-07T10:21:12.000Z</time>
      </trkpt>
      <trkpt lat="43.59596" lon="2.9617">
        <ele>1028.5</ele>
        <time>2026-05-07T10:21:13.000Z</time>
      </trkpt>
      <trkpt lat="43.59596" lon="2.9617">
        <ele>1028.5</ele>
        <time>2026-05-07T10:21:14.000Z</time>
      </trkpt>
      <trkpt lat="43.59597" lon="2.9617">
        <ele>1028.6</ele>
        <time>2026-05-07T10:21:15.000Z</time>
      </trkpt>
      <trkpt lat="43.59597" lon="2.9617">
        <ele>1028.4</ele>
        <time>2026-05-07T10:21:16.000Z</time>
      </trkpt>
      <trkpt lat="43.59596" lon="2.9617">
        <ele>1028.5</ele>
        <time>2026-05-07T10:21:17.000Z</time>
      </trkpt>
      <trkpt lat="43.59596" lon="2.9617">
        <ele>1028.9</ele>
        <time>2026-05-07T10:21:18.000Z</time>
      </trkpt>
      <trkpt lat="43.59596" lon="2.9617">
        <ele>1029.1</ele>
        <time>2026-05-07T10:21:19.000Z</time>
      </trkpt>
      <trkpt lat="43.59596" lon="2.9617">
        <ele>1029.5</ele>
        <time>2026-05-07T10:21:20.000Z</time>
      </trkpt>
      <trkpt lat="43.59596" lon="2.9617">
        <ele>1029.6</ele>
        <time>2026-05-07T10:21:21.000Z</time>
      </trkpt>
      <trkpt lat="43.59596" lon="2.9617">
        <ele>1029.9</ele>
        <time>2026-05-07T10:21:22.000Z</time>
      </trkpt>
      <trkpt lat="43.59596" lon="2.96169">
        <ele>1030.2</ele>
        <time>2026-05-07T10:21:23.000Z</time>
      </trkpt>
      <trkpt lat="43.59596" lon="2.96169">
        <ele>1030.2</ele>
        <time>2026-05-07T10:21:24.000Z</time>
      </trkpt>
      <trkpt lat="43.59596" lon="2.96169">
        <ele>1030.2</ele>
        <time>2026-05-07T10:21:25.000Z</time>
      </trkpt>
      <trkpt lat="43.59596" lon="2.96169">
        <ele>1030.1</ele>
        <time>2026-05-07T10:21:26.000Z</time>
      </trkpt>
      <trkpt lat="43.59596" lon="2.96169">
        <ele>1030.1</ele>
        <time>2026-05-07T10:21:27.000Z</time>
      </trkpt>
      <trkpt lat="43.59596" lon="2.96169">
        <ele>1030.2</ele>
        <time>2026-05-07T10:21:28.000Z</time>
      </trkpt>
      <trkpt lat="43.59596" lon="2.96169">
        <ele>1030.1</ele>
        <time>2026-05-07T10:21:29.000Z</time>
      </trkpt>
      <trkpt lat="43.59596" lon="2.9617">
        <ele>1030.2</ele>
        <time>2026-05-07T10:21:30.000Z</time>
      </trkpt>
      <trkpt lat="43.59596" lon="2.9617">
        <ele>1030.2</ele>
        <time>2026-05-07T10:21:31.000Z</time>
      </trkpt>
      <trkpt lat="43.59596" lon="2.9617">
        <ele>1030.1</ele>
        <time>2026-05-07T10:21:32.000Z</time>
      </trkpt>
      <trkpt lat="43.59595" lon="2.9617">
        <ele>1030.2</ele>
        <time>2026-05-07T10:21:33.000Z</time>
      </trkpt>
      <trkpt lat="43.59595" lon="2.9617">
        <ele>1030.5</ele>
        <time>2026-05-07T10:21:34.000Z</time>
      </trkpt>
      <trkpt lat="43.59595" lon="2.9617">
        <ele>1030.5</ele>
        <time>2026-05-07T10:21:35.000Z</time>
      </trkpt>
      <trkpt lat="43.59595" lon="2.9617">
        <ele>1030.6</ele>
        <time>2026-05-07T10:21:36.000Z</time>
      </trkpt>
      <trkpt lat="43.59595" lon="2.96169">
        <ele>1030.6</ele>
        <time>2026-05-07T10:21:37.000Z</time>
      </trkpt>
      <trkpt lat="43.59595" lon="2.96169">
        <ele>1030.8</ele>
        <time>2026-05-07T10:21:38.000Z</time>
      </trkpt>
      <trkpt lat="43.59595" lon="2.96169">
        <ele>1030.9</ele>
        <time>2026-05-07T10:21:39.000Z</time>
      </trkpt>
      <trkpt lat="43.59595" lon="2.96169">
        <ele>1031.3</ele>
        <time>2026-05-07T10:21:40.000Z</time>
      </trkpt>
      <trkpt lat="43.59595" lon="2.96169">
        <ele>1031.4</ele>
        <time>2026-05-07T10:21:41.000Z</time>
      </trkpt>
      <trkpt lat="43.59595" lon="2.96169">
        <ele>1031.5</ele>
        <time>2026-05-07T10:21:42.000Z</time>
      </trkpt>
      <trkpt lat="43.59595" lon="2.96169">
        <ele>1031.4</ele>
        <time>2026-05-07T10:21:43.000Z</time>
      </trkpt>
      <trkpt lat="43.59595" lon="2.96169">
        <ele>1031.6</ele>
        <time>2026-05-07T10:21:44.000Z</time>
      </trkpt>
      <trkpt lat="43.59595" lon="2.96169">
        <ele>1031.6</ele>
        <time>2026-05-07T10:21:45.000Z</time>
      </trkpt>
      <trkpt lat="43.59595" lon="2.9617">
        <ele>1031.8</ele>
        <time>2026-05-07T10:21:46.000Z</time>
      </trkpt>
      <trkpt lat="43.59595" lon="2.9617">
        <ele>1031.9</ele>
        <time>2026-05-07T10:21:47.000Z</time>
      </trkpt>
      <trkpt lat="43.59595" lon="2.9617">
        <ele>1032.1</ele>
        <time>2026-05-07T10:21:48.000Z</time>
      </trkpt>
      <trkpt lat="43.59595" lon="2.9617">
        <ele>1032.2</ele>
        <time>2026-05-07T10:21:49.000Z</time>
      </trkpt>
      <trkpt lat="43.59595" lon="2.9617">
        <ele>1032.1</ele>
        <time>2026-05-07T10:21:50.000Z</time>
      </trkpt>
      <trkpt lat="43.59595" lon="2.9617">
        <ele>1032.5</ele>
        <time>2026-05-07T10:21:51.000Z</time>
      </trkpt>
      <trkpt lat="43.59595" lon="2.9617">
        <ele>1032.8</ele>
        <time>2026-05-07T10:21:52.000Z</time>
      </trkpt>
      <trkpt lat="43.59595" lon="2.9617">
        <ele>1032.9</ele>
        <time>2026-05-07T10:21:53.000Z</time>
      </trkpt>
      <trkpt lat="43.59595" lon="2.9617">
        <ele>1032.9</ele>
        <time>2026-05-07T10:21:54.000Z</time>
      </trkpt>
      <trkpt lat="43.59595" lon="2.9617">
        <ele>1032.9</ele>
        <time>2026-05-07T10:21:55.000Z</time>
      </trkpt>
      <trkpt lat="43.59595" lon="2.9617">
        <ele>1033</ele>
        <time>2026-05-07T10:21:56.000Z</time>
      </trkpt>
      <trkpt lat="43.59595" lon="2.9617">
        <ele>1033.1</ele>
        <time>2026-05-07T10:21:57.000Z</time>
      </trkpt>
      <trkpt lat="43.59594" lon="2.9617">
        <ele>1033.3</ele>
        <time>2026-05-07T10:21:58.000Z</time>
      </trkpt>
      <trkpt lat="43.59594" lon="2.9617">
        <ele>1033.3</ele>
        <time>2026-05-07T10:21:59.000Z</time>
      </trkpt>
      <trkpt lat="43.59594" lon="2.9617">
        <ele>1032.6</ele>
        <time>2026-05-07T10:22:00.000Z</time>
      </trkpt>
      <trkpt lat="43.59594" lon="2.9617">
        <ele>1032.6</ele>
        <time>2026-05-07T10:22:01.000Z</time>
      </trkpt>
      <trkpt lat="43.59594" lon="2.9617">
        <ele>1032.6</ele>
        <time>2026-05-07T10:22:02.000Z</time>
      </trkpt>
      <trkpt lat="43.59595" lon="2.96169">
        <ele>1032.4</ele>
        <time>2026-05-07T10:22:03.000Z</time>
      </trkpt>
      <trkpt lat="43.59594" lon="2.96169">
        <ele>1032.1</ele>
        <time>2026-05-07T10:22:04.000Z</time>
      </trkpt>
      <trkpt lat="43.59594" lon="2.9617">
        <ele>1031.8</ele>
        <time>2026-05-07T10:22:05.000Z</time>
      </trkpt>
      <trkpt lat="43.59595" lon="2.96171">
        <ele>1031.3</ele>
        <time>2026-05-07T10:22:06.000Z</time>
      </trkpt>
      <trkpt lat="43.59595" lon="2.96172">
        <ele>1030.7</ele>
        <time>2026-05-07T10:22:07.000Z</time>
      </trkpt>
      <trkpt lat="43.59596" lon="2.96172">
        <ele>1030.6</ele>
        <time>2026-05-07T10:22:08.000Z</time>
      </trkpt>
      <trkpt lat="43.59597" lon="2.96172">
        <ele>1030.5</ele>
        <time>2026-05-07T10:22:09.000Z</time>
      </trkpt>
      <trkpt lat="43.59597" lon="2.96172">
        <ele>1030.5</ele>
        <time>2026-05-07T10:22:10.000Z</time>
      </trkpt>
      <trkpt lat="43.59598" lon="2.96172">
        <ele>1030.4</ele>
        <time>2026-05-07T10:22:11.000Z</time>
      </trkpt>
      <trkpt lat="43.59598" lon="2.96172">
        <ele>1030.3</ele>
        <time>2026-05-07T10:22:12.000Z</time>
      </trkpt>
      <trkpt lat="43.59598" lon="2.96172">
        <ele>1030.2</ele>
        <time>2026-05-07T10:22:13.000Z</time>
      </trkpt>
      <trkpt lat="43.59598" lon="2.96172">
        <ele>1030.3</ele>
        <time>2026-05-07T10:22:14.000Z</time>
      </trkpt>
      <trkpt lat="43.59598" lon="2.96172">
        <ele>1030.5</ele>
        <time>2026-05-07T10:22:15.000Z</time>
      </trkpt>
      <trkpt lat="43.59598" lon="2.96172">
        <ele>1030.7</ele>
        <time>2026-05-07T10:22:16.000Z</time>
      </trkpt>
      <trkpt lat="43.59598" lon="2.96172">
        <ele>1030.7</ele>
        <time>2026-05-07T10:22:17.000Z</time>
      </trkpt>
      <trkpt lat="43.59598" lon="2.96172">
        <ele>1030.8</ele>
        <time>2026-05-07T10:22:18.000Z</time>
      </trkpt>
      <trkpt lat="43.59598" lon="2.96172">
        <ele>1030.5</ele>
        <time>2026-05-07T10:22:19.000Z</time>
      </trkpt>
      <trkpt lat="43.59598" lon="2.96172">
        <ele>1030.4</ele>
        <time>2026-05-07T10:22:20.000Z</time>
      </trkpt>
      <trkpt lat="43.59599" lon="2.96172">
        <ele>1030.3</ele>
        <time>2026-05-07T10:22:21.000Z</time>
      </trkpt>
      <trkpt lat="43.59599" lon="2.96172">
        <ele>1030.2</ele>
        <time>2026-05-07T10:22:22.000Z</time>
      </trkpt>
      <trkpt lat="43.59599" lon="2.96172">
        <ele>1030.1</ele>
        <time>2026-05-07T10:22:23.000Z</time>
      </trkpt>
      <trkpt lat="43.59599" lon="2.96172">
        <ele>1029.8</ele>
        <time>2026-05-07T10:22:24.000Z</time>
      </trkpt>
      <trkpt lat="43.59598" lon="2.96172">
        <ele>1029.6</ele>
        <time>2026-05-07T10:22:25.000Z</time>
      </trkpt>
      <trkpt lat="43.59598" lon="2.96172">
        <ele>1029.7</ele>
        <time>2026-05-07T10:22:26.000Z</time>
      </trkpt>
      <trkpt lat="43.59598" lon="2.96172">
        <ele>1029.8</ele>
        <time>2026-05-07T10:22:27.000Z</time>
      </trkpt>
      <trkpt lat="43.59598" lon="2.96172">
        <ele>1030</ele>
        <time>2026-05-07T10:22:28.000Z</time>
      </trkpt>
      <trkpt lat="43.59598" lon="2.96172">
        <ele>1030.1</ele>
        <time>2026-05-07T10:22:29.000Z</time>
      </trkpt>
      <trkpt lat="43.59598" lon="2.96172">
        <ele>1030.3</ele>
        <time>2026-05-07T10:22:30.000Z</time>
      </trkpt>
      <trkpt lat="43.59598" lon="2.96172">
        <ele>1030.6</ele>
        <time>2026-05-07T10:22:31.000Z</time>
      </trkpt>
      <trkpt lat="43.59598" lon="2.96172">
        <ele>1030.9</ele>
        <time>2026-05-07T10:22:32.000Z</time>
      </trkpt>
      <trkpt lat="43.59598" lon="2.96172">
        <ele>1031</ele>
        <time>2026-05-07T10:22:33.000Z</time>
      </trkpt>
      <trkpt lat="43.59598" lon="2.96172">
        <ele>1030.9</ele>
        <time>2026-05-07T10:22:34.000Z</time>
      </trkpt>
      <trkpt lat="43.59598" lon="2.96172">
        <ele>1030.9</ele>
        <time>2026-05-07T10:22:35.000Z</time>
      </trkpt>
      <trkpt lat="43.59598" lon="2.96172">
        <ele>1030.7</ele>
        <time>2026-05-07T10:22:36.000Z</time>
      </trkpt>
      <trkpt lat="43.59598" lon="2.96172">
        <ele>1030.5</ele>
        <time>2026-05-07T10:22:37.000Z</time>
      </trkpt>
      <trkpt lat="43.59598" lon="2.96172">
        <ele>1030.2</ele>
        <time>2026-05-07T10:22:38.000Z</time>
      </trkpt>
      <trkpt lat="43.59598" lon="2.96172">
        <ele>1029.9</ele>
        <time>2026-05-07T10:22:39.000Z</time>
      </trkpt>
      <trkpt lat="43.59598" lon="2.96172">
        <ele>1029.8</ele>
        <time>2026-05-07T10:22:40.000Z</time>
      </trkpt>
      <trkpt lat="43.59599" lon="2.96173">
        <ele>1029.9</ele>
        <time>2026-05-07T10:22:41.000Z</time>
      </trkpt>
      <trkpt lat="43.59599" lon="2.96173">
        <ele>1029.9</ele>
        <time>2026-05-07T10:22:42.000Z</time>
      </trkpt>
      <trkpt lat="43.59599" lon="2.96173">
        <ele>1030</ele>
        <time>2026-05-07T10:22:43.000Z</time>
      </trkpt>
      <trkpt lat="43.59599" lon="2.96173">
        <ele>1030.3</ele>
        <time>2026-05-07T10:22:44.000Z</time>
      </trkpt>
      <trkpt lat="43.59599" lon="2.96173">
        <ele>1030.3</ele>
        <time>2026-05-07T10:22:45.000Z</time>
      </trkpt>
      <trkpt lat="43.59599" lon="2.96173">
        <ele>1030.3</ele>
        <time>2026-05-07T10:22:46.000Z</time>
      </trkpt>
      <trkpt lat="43.59599" lon="2.96173">
        <ele>1030.3</ele>
        <time>2026-05-07T10:22:47.000Z</time>
      </trkpt>
      <trkpt lat="43.59599" lon="2.96173">
        <ele>1030.4</ele>
        <time>2026-05-07T10:22:48.000Z</time>
      </trkpt>
      <trkpt lat="43.59598" lon="2.96172">
        <ele>1030.4</ele>
        <time>2026-05-07T10:22:49.000Z</time>
      </trkpt>
      <trkpt lat="43.59598" lon="2.96172">
        <ele>1030.5</ele>
        <time>2026-05-07T10:22:50.000Z</time>
      </trkpt>
      <trkpt lat="43.59598" lon="2.96172">
        <ele>1030.5</ele>
        <time>2026-05-07T10:22:51.000Z</time>
      </trkpt>
      <trkpt lat="43.59598" lon="2.96172">
        <ele>1030.6</ele>
        <time>2026-05-07T10:22:52.000Z</time>
      </trkpt>
      <trkpt lat="43.59598" lon="2.96172">
        <ele>1030.8</ele>
        <time>2026-05-07T10:22:53.000Z</time>
      </trkpt>
      <trkpt lat="43.59598" lon="2.96172">
        <ele>1030.9</ele>
        <time>2026-05-07T10:22:54.000Z</time>
      </trkpt>
      <trkpt lat="43.59598" lon="2.96172">
        <ele>1030.9</ele>
        <time>2026-05-07T10:22:55.000Z</time>
      </trkpt>
      <trkpt lat="43.59599" lon="2.96171">
        <ele>1031.1</ele>
        <time>2026-05-07T10:22:56.000Z</time>
      </trkpt>
      <trkpt lat="43.59599" lon="2.96171">
        <ele>1031.3</ele>
        <time>2026-05-07T10:22:57.000Z</time>
      </trkpt>
      <trkpt lat="43.59599" lon="2.96172">
        <ele>1031.4</ele>
        <time>2026-05-07T10:22:58.000Z</time>
      </trkpt>
      <trkpt lat="43.59599" lon="2.96172">
        <ele>1031.1</ele>
        <time>2026-05-07T10:22:59.000Z</time>
      </trkpt>
      <trkpt lat="43.59599" lon="2.96172">
        <ele>1030.9</ele>
        <time>2026-05-07T10:23:00.000Z</time>
      </trkpt>
      <trkpt lat="43.59599" lon="2.96172">
        <ele>1030.6</ele>
        <time>2026-05-07T10:23:01.000Z</time>
      </trkpt>
      <trkpt lat="43.59599" lon="2.96172">
        <ele>1030.5</ele>
        <time>2026-05-07T10:23:02.000Z</time>
      </trkpt>
      <trkpt lat="43.59599" lon="2.96172">
        <ele>1030.6</ele>
        <time>2026-05-07T10:23:03.000Z</time>
      </trkpt>
      <trkpt lat="43.59599" lon="2.96172">
        <ele>1030.4</ele>
        <time>2026-05-07T10:23:04.000Z</time>
      </trkpt>
      <trkpt lat="43.59599" lon="2.96172">
        <ele>1030.3</ele>
        <time>2026-05-07T10:23:05.000Z</time>
      </trkpt>
      <trkpt lat="43.59599" lon="2.96172">
        <ele>1030.3</ele>
        <time>2026-05-07T10:23:06.000Z</time>
      </trkpt>
      <trkpt lat="43.59599" lon="2.96172">
        <ele>1030.4</ele>
        <time>2026-05-07T10:23:07.000Z</time>
      </trkpt>
      <trkpt lat="43.596" lon="2.96172">
        <ele>1030.5</ele>
        <time>2026-05-07T10:23:08.000Z</time>
      </trkpt>
      <trkpt lat="43.596" lon="2.96172">
        <ele>1030.3</ele>
        <time>2026-05-07T10:23:09.000Z</time>
      </trkpt>
      <trkpt lat="43.59599" lon="2.96171">
        <ele>1030.2</ele>
        <time>2026-05-07T10:23:10.000Z</time>
      </trkpt>
      <trkpt lat="43.59599" lon="2.96171">
        <ele>1029.9</ele>
        <time>2026-05-07T10:23:11.000Z</time>
      </trkpt>
      <trkpt lat="43.59599" lon="2.96171">
        <ele>1029.9</ele>
        <time>2026-05-07T10:23:12.000Z</time>
      </trkpt>
      <trkpt lat="43.59599" lon="2.96171">
        <ele>1029.8</ele>
        <time>2026-05-07T10:23:13.000Z</time>
      </trkpt>
      <trkpt lat="43.59599" lon="2.96171">
        <ele>1029.9</ele>
        <time>2026-05-07T10:23:14.000Z</time>
      </trkpt>
      <trkpt lat="43.59599" lon="2.96171">
        <ele>1029.9</ele>
        <time>2026-05-07T10:23:15.000Z</time>
      </trkpt>
      <trkpt lat="43.59599" lon="2.96171">
        <ele>1029.7</ele>
        <time>2026-05-07T10:23:16.000Z</time>
      </trkpt>
      <trkpt lat="43.59599" lon="2.96171">
        <ele>1029.6</ele>
        <time>2026-05-07T10:23:17.000Z</time>
      </trkpt>
      <trkpt lat="43.59599" lon="2.96171">
        <ele>1029.3</ele>
        <time>2026-05-07T10:23:18.000Z</time>
      </trkpt>
      <trkpt lat="43.59599" lon="2.96171">
        <ele>1029.2</ele>
        <time>2026-05-07T10:23:19.000Z</time>
      </trkpt>
      <trkpt lat="43.59599" lon="2.96171">
        <ele>1029.4</ele>
        <time>2026-05-07T10:23:20.000Z</time>
      </trkpt>
      <trkpt lat="43.59599" lon="2.96171">
        <ele>1029.4</ele>
        <time>2026-05-07T10:23:21.000Z</time>
      </trkpt>
      <trkpt lat="43.59599" lon="2.96171">
        <ele>1029.6</ele>
        <time>2026-05-07T10:23:22.000Z</time>
      </trkpt>
      <trkpt lat="43.59598" lon="2.96171">
        <ele>1029.6</ele>
        <time>2026-05-07T10:23:23.000Z</time>
      </trkpt>
      <trkpt lat="43.59598" lon="2.96171">
        <ele>1029.9</ele>
        <time>2026-05-07T10:23:24.000Z</time>
      </trkpt>
      <trkpt lat="43.59598" lon="2.96172">
        <ele>1030.1</ele>
        <time>2026-05-07T10:23:25.000Z</time>
      </trkpt>
      <trkpt lat="43.59598" lon="2.96173">
        <ele>1030.4</ele>
        <time>2026-05-07T10:23:26.000Z</time>
      </trkpt>
      <trkpt lat="43.59598" lon="2.96174">
        <ele>1030.6</ele>
        <time>2026-05-07T10:23:27.000Z</time>
      </trkpt>
      <trkpt lat="43.59597" lon="2.96175">
        <ele>1030.7</ele>
        <time>2026-05-07T10:23:28.000Z</time>
      </trkpt>
      <trkpt lat="43.59597" lon="2.96175">
        <ele>1030.7</ele>
        <time>2026-05-07T10:23:29.000Z</time>
      </trkpt>
      <trkpt lat="43.59597" lon="2.96176">
        <ele>1030.4</ele>
        <time>2026-05-07T10:23:30.000Z</time>
      </trkpt>
      <trkpt lat="43.59598" lon="2.96176">
        <ele>1030.2</ele>
        <time>2026-05-07T10:23:31.000Z</time>
      </trkpt>
      <trkpt lat="43.59598" lon="2.96176">
        <ele>1030.2</ele>
        <time>2026-05-07T10:23:32.000Z</time>
      </trkpt>
      <trkpt lat="43.59598" lon="2.96176">
        <ele>1030.3</ele>
        <time>2026-05-07T10:23:33.000Z</time>
      </trkpt>
      <trkpt lat="43.59599" lon="2.96176">
        <ele>1030.3</ele>
        <time>2026-05-07T10:23:35.000Z</time>
      </trkpt>
      <trkpt lat="43.596" lon="2.96176">
        <ele>1030.2</ele>
        <time>2026-05-07T10:23:36.000Z</time>
      </trkpt>
      <trkpt lat="43.596" lon="2.96176">
        <ele>1030.2</ele>
        <time>2026-05-07T10:23:37.000Z</time>
      </trkpt>
      <trkpt lat="43.596" lon="2.96176">
        <ele>1030.2</ele>
        <time>2026-05-07T10:23:38.000Z</time>
      </trkpt>
      <trkpt lat="43.596" lon="2.96177">
        <ele>1030.2</ele>
        <time>2026-05-07T10:23:39.000Z</time>
      </trkpt>
      <trkpt lat="43.596" lon="2.96177">
        <ele>1030.3</ele>
        <time>2026-05-07T10:23:40.000Z</time>
      </trkpt>
      <trkpt lat="43.59601" lon="2.96178">
        <ele>1030.3</ele>
        <time>2026-05-07T10:23:41.000Z</time>
      </trkpt>
      <trkpt lat="43.59601" lon="2.96178">
        <ele>1030.4</ele>
        <time>2026-05-07T10:23:42.000Z</time>
      </trkpt>
      <trkpt lat="43.59602" lon="2.96178">
        <ele>1030.5</ele>
        <time>2026-05-07T10:23:43.000Z</time>
      </trkpt>
      <trkpt lat="43.59602" lon="2.96178">
        <ele>1030.5</ele>
        <time>2026-05-07T10:23:44.000Z</time>
      </trkpt>
      <trkpt lat="43.59603" lon="2.96179">
        <ele>1030.7</ele>
        <time>2026-05-07T10:23:45.000Z</time>
      </trkpt>
      <trkpt lat="43.59604" lon="2.9618">
        <ele>1030.7</ele>
        <time>2026-05-07T10:23:46.000Z</time>
      </trkpt>
      <trkpt lat="43.59605" lon="2.96181">
        <ele>1030.8</ele>
        <time>2026-05-07T10:23:47.000Z</time>
      </trkpt>
      <trkpt lat="43.59605" lon="2.96183">
        <ele>1031</ele>
        <time>2026-05-07T10:23:48.000Z</time>
      </trkpt>
      <trkpt lat="43.59606" lon="2.96184">
        <ele>1031</ele>
        <time>2026-05-07T10:23:49.000Z</time>
      </trkpt>
      <trkpt lat="43.59606" lon="2.96185">
        <ele>1031</ele>
        <time>2026-05-07T10:23:50.000Z</time>
      </trkpt>
      <trkpt lat="43.59567" lon="2.96173">
        <ele>1008.2</ele>
        <time>2026-05-07T10:25:47.000Z</time>
      </trkpt>
      <trkpt lat="43.59567" lon="2.96173">
        <ele>1008.4</ele>
        <time>2026-05-07T10:25:48.000Z</time>
      </trkpt>
      <trkpt lat="43.59567" lon="2.96174">
        <ele>1008.8</ele>
        <time>2026-05-07T10:25:49.000Z</time>
      </trkpt>
      <trkpt lat="43.59566" lon="2.96173">
        <ele>1007.5</ele>
        <time>2026-05-07T10:25:50.000Z</time>
      </trkpt>
      <trkpt lat="43.59566" lon="2.96173">
        <ele>1006.4</ele>
        <time>2026-05-07T10:25:51.000Z</time>
      </trkpt>
      <trkpt lat="43.59566" lon="2.96173">
        <ele>1006.7</ele>
        <time>2026-05-07T10:25:52.000Z</time>
      </trkpt>
      <trkpt lat="43.59566" lon="2.96173">
        <ele>1006.6</ele>
        <time>2026-05-07T10:25:53.000Z</time>
      </trkpt>
      <trkpt lat="43.59566" lon="2.96173">
        <ele>1006.3</ele>
        <time>2026-05-07T10:25:54.000Z</time>
      </trkpt>
      <trkpt lat="43.59566" lon="2.96174">
        <ele>1006</ele>
        <time>2026-05-07T10:25:55.000Z</time>
      </trkpt>
      <trkpt lat="43.59566" lon="2.96174">
        <ele>1005.7</ele>
        <time>2026-05-07T10:25:56.000Z</time>
      </trkpt>
      <trkpt lat="43.59566" lon="2.96174">
        <ele>1005.5</ele>
        <time>2026-05-07T10:25:57.000Z</time>
      </trkpt>
      <trkpt lat="43.59566" lon="2.96174">
        <ele>1005</ele>
        <time>2026-05-07T10:25:58.000Z</time>
      </trkpt>
      <trkpt lat="43.59566" lon="2.96174">
        <ele>1004.9</ele>
        <time>2026-05-07T10:25:59.000Z</time>
      </trkpt>
      <trkpt lat="43.59567" lon="2.96174">
        <ele>1005.4</ele>
        <time>2026-05-07T10:26:00.000Z</time>
      </trkpt>
      <trkpt lat="43.59567" lon="2.96173">
        <ele>1006.1</ele>
        <time>2026-05-07T10:26:01.000Z</time>
      </trkpt>
      <trkpt lat="43.59568" lon="2.96173">
        <ele>1006.4</ele>
        <time>2026-05-07T10:26:02.000Z</time>
      </trkpt>
      <trkpt lat="43.59568" lon="2.96173">
        <ele>1006.4</ele>
        <time>2026-05-07T10:26:03.000Z</time>
      </trkpt>
      <trkpt lat="43.59573" lon="2.96172">
        <ele>1010.4</ele>
        <time>2026-05-07T10:26:04.000Z</time>
      </trkpt>
      <trkpt lat="43.59574" lon="2.96171">
        <ele>1010.6</ele>
        <time>2026-05-07T10:26:05.000Z</time>
      </trkpt>
      <trkpt lat="43.59574" lon="2.9617">
        <ele>1010.6</ele>
        <time>2026-05-07T10:26:07.000Z</time>
      </trkpt>
      <trkpt lat="43.59577" lon="2.96169">
        <ele>1010.8</ele>
        <time>2026-05-07T10:26:08.000Z</time>
      </trkpt>
      <trkpt lat="43.59579" lon="2.96168">
        <ele>1011</ele>
        <time>2026-05-07T10:26:09.000Z</time>
      </trkpt>
      <trkpt lat="43.59581" lon="2.96166">
        <ele>1011.1</ele>
        <time>2026-05-07T10:26:10.000Z</time>
      </trkpt>
      <trkpt lat="43.59583" lon="2.96165">
        <ele>1010.6</ele>
        <time>2026-05-07T10:26:25.000Z</time>
      </trkpt>
      <trkpt lat="43.59584" lon="2.96168">
        <ele>1011.3</ele>
        <time>2026-05-07T10:26:26.000Z</time>
      </trkpt>
      <trkpt lat="43.59588" lon="2.96169">
        <ele>1015.1</ele>
        <time>2026-05-07T10:26:27.000Z</time>
      </trkpt>
      <trkpt lat="43.59592" lon="2.9617">
        <ele>1017.7</ele>
        <time>2026-05-07T10:26:28.000Z</time>
      </trkpt>
      <trkpt lat="43.59595" lon="2.9617">
        <ele>1019.6</ele>
        <time>2026-05-07T10:26:29.000Z</time>
      </trkpt>
      <trkpt lat="43.59595" lon="2.96171">
        <ele>1018.9</ele>
        <time>2026-05-07T10:26:30.000Z</time>
      </trkpt>
      <trkpt lat="43.59595" lon="2.96171">
        <ele>1020.3</ele>
        <time>2026-05-07T10:26:31.000Z</time>
      </trkpt>
      <trkpt lat="43.59595" lon="2.96171">
        <ele>1020.6</ele>
        <time>2026-05-07T10:26:32.000Z</time>
      </trkpt>
      <trkpt lat="43.59595" lon="2.96171">
        <ele>1020.8</ele>
        <time>2026-05-07T10:26:33.000Z</time>
      </trkpt>
      <trkpt lat="43.59595" lon="2.96172">
        <ele>1021.4</ele>
        <time>2026-05-07T10:26:34.000Z</time>
      </trkpt>
      <trkpt lat="43.59594" lon="2.96173">
        <ele>1021.6</ele>
        <time>2026-05-07T10:26:35.000Z</time>
      </trkpt>
      <trkpt lat="43.59594" lon="2.96173">
        <ele>1021.7</ele>
        <time>2026-05-07T10:26:36.000Z</time>
      </trkpt>
      <trkpt lat="43.59593" lon="2.96173">
        <ele>1022.5</ele>
        <time>2026-05-07T10:26:37.000Z</time>
      </trkpt>
      <trkpt lat="43.59591" lon="2.96173">
        <ele>1022.4</ele>
        <time>2026-05-07T10:26:38.000Z</time>
      </trkpt>
      <trkpt lat="43.59592" lon="2.96173">
        <ele>1022.7</ele>
        <time>2026-05-07T10:26:39.000Z</time>
      </trkpt>
      <trkpt lat="43.59592" lon="2.96173">
        <ele>1022.9</ele>
        <time>2026-05-07T10:26:40.000Z</time>
      </trkpt>
      <trkpt lat="43.59591" lon="2.96173">
        <ele>1023.2</ele>
        <time>2026-05-07T10:26:41.000Z</time>
      </trkpt>
      <trkpt lat="43.59591" lon="2.96173">
        <ele>1023.6</ele>
        <time>2026-05-07T10:26:42.000Z</time>
      </trkpt>
      <trkpt lat="43.59592" lon="2.96172">
        <ele>1024.1</ele>
        <time>2026-05-07T10:26:43.000Z</time>
      </trkpt>
      <trkpt lat="43.59593" lon="2.96172">
        <ele>1025.2</ele>
        <time>2026-05-07T10:26:44.000Z</time>
      </trkpt>
      <trkpt lat="43.59593" lon="2.96172">
        <ele>1025.2</ele>
        <time>2026-05-07T10:26:45.000Z</time>
      </trkpt>
      <trkpt lat="43.59593" lon="2.96172">
        <ele>1025.2</ele>
        <time>2026-05-07T10:26:46.000Z</time>
      </trkpt>
      <trkpt lat="43.59593" lon="2.96171">
        <ele>1025.3</ele>
        <time>2026-05-07T10:26:47.000Z</time>
      </trkpt>
      <trkpt lat="43.59593" lon="2.96171">
        <ele>1025.3</ele>
        <time>2026-05-07T10:26:48.000Z</time>
      </trkpt>
      <trkpt lat="43.59593" lon="2.96171">
        <ele>1025.1</ele>
        <time>2026-05-07T10:26:49.000Z</time>
      </trkpt>
      <trkpt lat="43.59593" lon="2.9617">
        <ele>1025</ele>
        <time>2026-05-07T10:26:50.000Z</time>
      </trkpt>
      <trkpt lat="43.59594" lon="2.9617">
        <ele>1025.6</ele>
        <time>2026-05-07T10:26:51.000Z</time>
      </trkpt>
      <trkpt lat="43.59593" lon="2.96169">
        <ele>1025</ele>
        <time>2026-05-07T10:26:52.000Z</time>
      </trkpt>
      <trkpt lat="43.59592" lon="2.96168">
        <ele>1024.7</ele>
        <time>2026-05-07T10:26:54.000Z</time>
      </trkpt>
      <trkpt lat="43.59591" lon="2.96168">
        <ele>1023.9</ele>
        <time>2026-05-07T10:26:55.000Z</time>
      </trkpt>
      <trkpt lat="43.5959" lon="2.96168">
        <ele>1023.6</ele>
        <time>2026-05-07T10:26:56.000Z</time>
      </trkpt>
      <trkpt lat="43.59591" lon="2.96168">
        <ele>1023.7</ele>
        <time>2026-05-07T10:26:57.000Z</time>
      </trkpt>
      <trkpt lat="43.59591" lon="2.96168">
        <ele>1023.8</ele>
        <time>2026-05-07T10:26:58.000Z</time>
      </trkpt>
      <trkpt lat="43.59592" lon="2.96168">
        <ele>1023.9</ele>
        <time>2026-05-07T10:26:59.000Z</time>
      </trkpt>
      <trkpt lat="43.59593" lon="2.96169">
        <ele>1024.3</ele>
        <time>2026-05-07T10:27:00.000Z</time>
      </trkpt>
      <trkpt lat="43.59594" lon="2.9617">
        <ele>1024.4</ele>
        <time>2026-05-07T10:27:01.000Z</time>
      </trkpt>
      <trkpt lat="43.59595" lon="2.96172">
        <ele>1024.6</ele>
        <time>2026-05-07T10:27:02.000Z</time>
      </trkpt>
      <trkpt lat="43.59591" lon="2.9618">
        <ele>1016.8</ele>
        <time>2026-05-07T10:28:11.000Z</time>
      </trkpt>
      <trkpt lat="43.59588" lon="2.96181">
        <ele>1019.1</ele>
        <time>2026-05-07T10:28:12.000Z</time>
      </trkpt>
      <trkpt lat="43.59588" lon="2.96181">
        <ele>1020.7</ele>
        <time>2026-05-07T10:28:13.000Z</time>
      </trkpt>
      <trkpt lat="43.59588" lon="2.96182">
        <ele>1020.9</ele>
        <time>2026-05-07T10:28:14.000Z</time>
      </trkpt>
      <trkpt lat="43.59588" lon="2.96183">
        <ele>1021.6</ele>
        <time>2026-05-07T10:28:15.000Z</time>
      </trkpt>
      <trkpt lat="43.59588" lon="2.96182">
        <ele>1019.6</ele>
        <time>2026-05-07T10:28:16.000Z</time>
      </trkpt>
      <trkpt lat="43.59589" lon="2.96183">
        <ele>1017.8</ele>
        <time>2026-05-07T10:28:17.000Z</time>
      </trkpt>
      <trkpt lat="43.5959" lon="2.96183">
        <ele>1016.1</ele>
        <time>2026-05-07T10:28:18.000Z</time>
      </trkpt>
      <trkpt lat="43.59591" lon="2.96183">
        <ele>1015.1</ele>
        <time>2026-05-07T10:28:19.000Z</time>
      </trkpt>
      <trkpt lat="43.59591" lon="2.96183">
        <ele>1014</ele>
        <time>2026-05-07T10:28:20.000Z</time>
      </trkpt>
      <trkpt lat="43.59592" lon="2.96182">
        <ele>1014.8</ele>
        <time>2026-05-07T10:28:21.000Z</time>
      </trkpt>
      <trkpt lat="43.59592" lon="2.96182">
        <ele>1015</ele>
        <time>2026-05-07T10:28:22.000Z</time>
      </trkpt>
      <trkpt lat="43.59592" lon="2.96182">
        <ele>1015.1</ele>
        <time>2026-05-07T10:28:23.000Z</time>
      </trkpt>
      <trkpt lat="43.59592" lon="2.96182">
        <ele>1016.5</ele>
        <time>2026-05-07T10:28:24.000Z</time>
      </trkpt>
      <trkpt lat="43.59592" lon="2.96182">
        <ele>1018.7</ele>
        <time>2026-05-07T10:28:25.000Z</time>
      </trkpt>
      <trkpt lat="43.59591" lon="2.96182">
        <ele>1019.9</ele>
        <time>2026-05-07T10:28:26.000Z</time>
      </trkpt>
      <trkpt lat="43.59591" lon="2.96182">
        <ele>1019.6</ele>
        <time>2026-05-07T10:28:27.000Z</time>
      </trkpt>
      <trkpt lat="43.59591" lon="2.96182">
        <ele>1020</ele>
        <time>2026-05-07T10:28:28.000Z</time>
      </trkpt>
      <trkpt lat="43.59591" lon="2.96182">
        <ele>1019.9</ele>
        <time>2026-05-07T10:28:29.000Z</time>
      </trkpt>
      <trkpt lat="43.59591" lon="2.96182">
        <ele>1020.3</ele>
        <time>2026-05-07T10:28:30.000Z</time>
      </trkpt>
      <trkpt lat="43.59591" lon="2.96182">
        <ele>1020.3</ele>
        <time>2026-05-07T10:28:31.000Z</time>
      </trkpt>
      <trkpt lat="43.59591" lon="2.96181">
        <ele>1020.3</ele>
        <time>2026-05-07T10:28:32.000Z</time>
      </trkpt>
      <trkpt lat="43.59591" lon="2.96181">
        <ele>1022.1</ele>
        <time>2026-05-07T10:28:33.000Z</time>
      </trkpt>
      <trkpt lat="43.59591" lon="2.96181">
        <ele>1022.7</ele>
        <time>2026-05-07T10:28:34.000Z</time>
      </trkpt>
      <trkpt lat="43.59591" lon="2.96181">
        <ele>1023.3</ele>
        <time>2026-05-07T10:28:35.000Z</time>
      </trkpt>
      <trkpt lat="43.59591" lon="2.96181">
        <ele>1023.7</ele>
        <time>2026-05-07T10:28:36.000Z</time>
      </trkpt>
      <trkpt lat="43.59591" lon="2.9618">
        <ele>1023.6</ele>
        <time>2026-05-07T10:28:37.000Z</time>
      </trkpt>
      <trkpt lat="43.59591" lon="2.96179">
        <ele>1023.5</ele>
        <time>2026-05-07T10:28:38.000Z</time>
      </trkpt>
      <trkpt lat="43.5959" lon="2.96179">
        <ele>1023.2</ele>
        <time>2026-05-07T10:28:39.000Z</time>
      </trkpt>
      <trkpt lat="43.5959" lon="2.96179">
        <ele>1024</ele>
        <time>2026-05-07T10:28:40.000Z</time>
      </trkpt>
      <trkpt lat="43.5959" lon="2.96179">
        <ele>1024.3</ele>
        <time>2026-05-07T10:28:41.000Z</time>
      </trkpt>
      <trkpt lat="43.5959" lon="2.96179">
        <ele>1024.1</ele>
        <time>2026-05-07T10:28:42.000Z</time>
      </trkpt>
      <trkpt lat="43.5959" lon="2.96179">
        <ele>1023.6</ele>
        <time>2026-05-07T10:28:43.000Z</time>
      </trkpt>
      <trkpt lat="43.5959" lon="2.96178">
        <ele>1027</ele>
        <time>2026-05-07T10:28:44.000Z</time>
      </trkpt>
      <trkpt lat="43.5959" lon="2.96178">
        <ele>1030</ele>
        <time>2026-05-07T10:28:45.000Z</time>
      </trkpt>
      <trkpt lat="43.5959" lon="2.96178">
        <ele>1032.1</ele>
        <time>2026-05-07T10:28:46.000Z</time>
      </trkpt>
      <trkpt lat="43.5959" lon="2.96178">
        <ele>1033.7</ele>
        <time>2026-05-07T10:28:47.000Z</time>
      </trkpt>
      <trkpt lat="43.5959" lon="2.96178">
        <ele>1033.9</ele>
        <time>2026-05-07T10:28:48.000Z</time>
      </trkpt>
      <trkpt lat="43.5959" lon="2.96178">
        <ele>1033.8</ele>
        <time>2026-05-07T10:28:49.000Z</time>
      </trkpt>
      <trkpt lat="43.5959" lon="2.96178">
        <ele>1033.7</ele>
        <time>2026-05-07T10:28:50.000Z</time>
      </trkpt>
      <trkpt lat="43.5959" lon="2.96177">
        <ele>1033.9</ele>
        <time>2026-05-07T10:28:51.000Z</time>
      </trkpt>
      <trkpt lat="43.5959" lon="2.96178">
        <ele>1034.4</ele>
        <time>2026-05-07T10:28:52.000Z</time>
      </trkpt>
      <trkpt lat="43.5959" lon="2.96177">
        <ele>1034.2</ele>
        <time>2026-05-07T10:28:53.000Z</time>
      </trkpt>
      <trkpt lat="43.5959" lon="2.96176">
        <ele>1034</ele>
        <time>2026-05-07T10:28:54.000Z</time>
      </trkpt>
      <trkpt lat="43.59589" lon="2.96176">
        <ele>1034.2</ele>
        <time>2026-05-07T10:28:55.000Z</time>
      </trkpt>
      <trkpt lat="43.5959" lon="2.96177">
        <ele>1034.9</ele>
        <time>2026-05-07T10:28:56.000Z</time>
      </trkpt>
      <trkpt lat="43.5959" lon="2.96177">
        <ele>1035.1</ele>
        <time>2026-05-07T10:28:57.000Z</time>
      </trkpt>
      <trkpt lat="43.5959" lon="2.96178">
        <ele>1035.3</ele>
        <time>2026-05-07T10:28:58.000Z</time>
      </trkpt>
      <trkpt lat="43.5959" lon="2.96178">
        <ele>1035.7</ele>
        <time>2026-05-07T10:28:59.000Z</time>
      </trkpt>
      <trkpt lat="43.5959" lon="2.96178">
        <ele>1035.9</ele>
        <time>2026-05-07T10:29:00.000Z</time>
      </trkpt>
      <trkpt lat="43.5959" lon="2.96178">
        <ele>1035.8</ele>
        <time>2026-05-07T10:29:01.000Z</time>
      </trkpt>
      <trkpt lat="43.5959" lon="2.96178">
        <ele>1036</ele>
        <time>2026-05-07T10:29:02.000Z</time>
      </trkpt>
      <trkpt lat="43.5959" lon="2.96178">
        <ele>1036.2</ele>
        <time>2026-05-07T10:29:03.000Z</time>
      </trkpt>
      <trkpt lat="43.5959" lon="2.96178">
        <ele>1036.4</ele>
        <time>2026-05-07T10:29:04.000Z</time>
      </trkpt>
      <trkpt lat="43.5959" lon="2.96179">
        <ele>1037.4</ele>
        <time>2026-05-07T10:29:05.000Z</time>
      </trkpt>
      <trkpt lat="43.5959" lon="2.9618">
        <ele>1037.5</ele>
        <time>2026-05-07T10:29:06.000Z</time>
      </trkpt>
      <trkpt lat="43.5959" lon="2.9618">
        <ele>1037.5</ele>
        <time>2026-05-07T10:29:07.000Z</time>
      </trkpt>
      <trkpt lat="43.59588" lon="2.9618">
        <ele>1037.7</ele>
        <time>2026-05-07T10:29:09.000Z</time>
      </trkpt>
      <trkpt lat="43.59588" lon="2.9618">
        <ele>1037.5</ele>
        <time>2026-05-07T10:29:10.000Z</time>
      </trkpt>
      <trkpt lat="43.59588" lon="2.9618">
        <ele>1037</ele>
        <time>2026-05-07T10:29:11.000Z</time>
      </trkpt>
      <trkpt lat="43.59588" lon="2.9618">
        <ele>1037.1</ele>
        <time>2026-05-07T10:29:12.000Z</time>
      </trkpt>
      <trkpt lat="43.59589" lon="2.9618">
        <ele>1037.1</ele>
        <time>2026-05-07T10:29:13.000Z</time>
      </trkpt>
      <trkpt lat="43.59589" lon="2.9618">
        <ele>1037.3</ele>
        <time>2026-05-07T10:29:14.000Z</time>
      </trkpt>
      <trkpt lat="43.5959" lon="2.9618">
        <ele>1037.3</ele>
        <time>2026-05-07T10:29:15.000Z</time>
      </trkpt>
      <trkpt lat="43.5959" lon="2.9618">
        <ele>1033</ele>
        <time>2026-05-07T10:29:16.000Z</time>
      </trkpt>
      <trkpt lat="43.5959" lon="2.9618">
        <ele>1033.2</ele>
        <time>2026-05-07T10:29:17.000Z</time>
      </trkpt>
      <trkpt lat="43.5959" lon="2.96181">
        <ele>1033.4</ele>
        <time>2026-05-07T10:29:18.000Z</time>
      </trkpt>
      <trkpt lat="43.5959" lon="2.9618">
        <ele>1033.4</ele>
        <time>2026-05-07T10:29:19.000Z</time>
      </trkpt>
      <trkpt lat="43.5959" lon="2.9618">
        <ele>1033.6</ele>
        <time>2026-05-07T10:29:20.000Z</time>
      </trkpt>
      <trkpt lat="43.5959" lon="2.96181">
        <ele>1033.6</ele>
        <time>2026-05-07T10:29:21.000Z</time>
      </trkpt>
      <trkpt lat="43.59589" lon="2.9618">
        <ele>1034.1</ele>
        <time>2026-05-07T10:29:22.000Z</time>
      </trkpt>
      <trkpt lat="43.59589" lon="2.9618">
        <ele>1034.9</ele>
        <time>2026-05-07T10:29:23.000Z</time>
      </trkpt>
      <trkpt lat="43.59589" lon="2.9618">
        <ele>1034.9</ele>
        <time>2026-05-07T10:29:24.000Z</time>
      </trkpt>
      <trkpt lat="43.59588" lon="2.96179">
        <ele>1034.7</ele>
        <time>2026-05-07T10:29:25.000Z</time>
      </trkpt>
      <trkpt lat="43.59588" lon="2.96179">
        <ele>1034.6</ele>
        <time>2026-05-07T10:29:26.000Z</time>
      </trkpt>
      <trkpt lat="43.59588" lon="2.9618">
        <ele>1034.8</ele>
        <time>2026-05-07T10:29:27.000Z</time>
      </trkpt>
      <trkpt lat="43.59587" lon="2.9618">
        <ele>1034.6</ele>
        <time>2026-05-07T10:29:28.000Z</time>
      </trkpt>
      <trkpt lat="43.59587" lon="2.9618">
        <ele>1034.6</ele>
        <time>2026-05-07T10:29:29.000Z</time>
      </trkpt>
      <trkpt lat="43.59587" lon="2.96181">
        <ele>1034.6</ele>
        <time>2026-05-07T10:29:30.000Z</time>
      </trkpt>
      <trkpt lat="43.59586" lon="2.96181">
        <ele>1034.4</ele>
        <time>2026-05-07T10:29:31.000Z</time>
      </trkpt>
      <trkpt lat="43.59586" lon="2.96181">
        <ele>1034.5</ele>
        <time>2026-05-07T10:29:32.000Z</time>
      </trkpt>
      <trkpt lat="43.59585" lon="2.96182">
        <ele>1034.5</ele>
        <time>2026-05-07T10:29:33.000Z</time>
      </trkpt>
      <trkpt lat="43.59585" lon="2.96182">
        <ele>1034.7</ele>
        <time>2026-05-07T10:29:34.000Z</time>
      </trkpt>
      <trkpt lat="43.59585" lon="2.96181">
        <ele>1034.7</ele>
        <time>2026-05-07T10:29:35.000Z</time>
      </trkpt>
      <trkpt lat="43.59585" lon="2.9618">
        <ele>1034.8</ele>
        <time>2026-05-07T10:29:36.000Z</time>
      </trkpt>
      <trkpt lat="43.59585" lon="2.9618">
        <ele>1034.8</ele>
        <time>2026-05-07T10:29:37.000Z</time>
      </trkpt>
      <trkpt lat="43.59586" lon="2.9618">
        <ele>1034.7</ele>
        <time>2026-05-07T10:29:38.000Z</time>
      </trkpt>
      <trkpt lat="43.59587" lon="2.96181">
        <ele>1034.6</ele>
        <time>2026-05-07T10:29:39.000Z</time>
      </trkpt>
      <trkpt lat="43.59587" lon="2.96179">
        <ele>1034.7</ele>
        <time>2026-05-07T10:29:40.000Z</time>
      </trkpt>
      <trkpt lat="43.59587" lon="2.96178">
        <ele>1034.6</ele>
        <time>2026-05-07T10:29:41.000Z</time>
      </trkpt>
      <trkpt lat="43.59589" lon="2.96177">
        <ele>1034.8</ele>
        <time>2026-05-07T10:29:42.000Z</time>
      </trkpt>
      <trkpt lat="43.59589" lon="2.96177">
        <ele>1035.2</ele>
        <time>2026-05-07T10:29:43.000Z</time>
      </trkpt>
      <trkpt lat="43.59591" lon="2.96177">
        <ele>1035.2</ele>
        <time>2026-05-07T10:29:44.000Z</time>
      </trkpt>
      <trkpt lat="43.59593" lon="2.96178">
        <ele>1035.2</ele>
        <time>2026-05-07T10:29:45.000Z</time>
      </trkpt>
      <trkpt lat="43.59595" lon="2.96179">
        <ele>1035.3</ele>
        <time>2026-05-07T10:29:46.000Z</time>
      </trkpt>
      <trkpt lat="43.59596" lon="2.96179">
        <ele>1035.5</ele>
        <time>2026-05-07T10:29:47.000Z</time>
      </trkpt>
      <trkpt lat="43.59596" lon="2.96179">
        <ele>1034.8</ele>
        <time>2026-05-07T10:29:48.000Z</time>
      </trkpt>
      <trkpt lat="43.59596" lon="2.96179">
        <ele>1034.3</ele>
        <time>2026-05-07T10:29:49.000Z</time>
      </trkpt>
      <trkpt lat="43.59595" lon="2.96178">
        <ele>1033.7</ele>
        <time>2026-05-07T10:29:50.000Z</time>
      </trkpt>
      <trkpt lat="43.59595" lon="2.96178">
        <ele>1033.7</ele>
        <time>2026-05-07T10:29:51.000Z</time>
      </trkpt>
      <trkpt lat="43.59594" lon="2.96178">
        <ele>1034.2</ele>
        <time>2026-05-07T10:29:52.000Z</time>
      </trkpt>
      <trkpt lat="43.59593" lon="2.96177">
        <ele>1034.2</ele>
        <time>2026-05-07T10:29:53.000Z</time>
      </trkpt>
      <trkpt lat="43.59591" lon="2.96177">
        <ele>1034.5</ele>
        <time>2026-05-07T10:29:54.000Z</time>
      </trkpt>
      <trkpt lat="43.5959" lon="2.96177">
        <ele>1034.3</ele>
        <time>2026-05-07T10:29:55.000Z</time>
      </trkpt>
      <trkpt lat="43.59589" lon="2.96177">
        <ele>1034.7</ele>
        <time>2026-05-07T10:29:56.000Z</time>
      </trkpt>
      <trkpt lat="43.59588" lon="2.96177">
        <ele>1034.6</ele>
        <time>2026-05-07T10:29:57.000Z</time>
      </trkpt>
      <trkpt lat="43.59587" lon="2.96176">
        <ele>1034.6</ele>
        <time>2026-05-07T10:29:58.000Z</time>
      </trkpt>
      <trkpt lat="43.59585" lon="2.96176">
        <ele>1034.7</ele>
        <time>2026-05-07T10:29:59.000Z</time>
      </trkpt>
      <trkpt lat="43.59583" lon="2.96176">
        <ele>1034.6</ele>
        <time>2026-05-07T10:30:00.000Z</time>
      </trkpt>
      <trkpt lat="43.59583" lon="2.96176">
        <ele>1034.4</ele>
        <time>2026-05-07T10:30:01.000Z</time>
      </trkpt>
      <trkpt lat="43.59582" lon="2.96176">
        <ele>1034.3</ele>
        <time>2026-05-07T10:30:02.000Z</time>
      </trkpt>
      <trkpt lat="43.59582" lon="2.96175">
        <ele>1035</ele>
        <time>2026-05-07T10:30:03.000Z</time>
      </trkpt>
      <trkpt lat="43.59583" lon="2.96174">
        <ele>1035</ele>
        <time>2026-05-07T10:30:04.000Z</time>
      </trkpt>
      <trkpt lat="43.59583" lon="2.96174">
        <ele>1034.8</ele>
        <time>2026-05-07T10:30:05.000Z</time>
      </trkpt>
      <trkpt lat="43.59583" lon="2.96173">
        <ele>1035.4</ele>
        <time>2026-05-07T10:30:06.000Z</time>
      </trkpt>
      <trkpt lat="43.59583" lon="2.96174">
        <ele>1036.1</ele>
        <time>2026-05-07T10:30:07.000Z</time>
      </trkpt>
      <trkpt lat="43.59582" lon="2.96174">
        <ele>1036.2</ele>
        <time>2026-05-07T10:30:08.000Z</time>
      </trkpt>
      <trkpt lat="43.59582" lon="2.96173">
        <ele>1036.4</ele>
        <time>2026-05-07T10:30:09.000Z</time>
      </trkpt>
      <trkpt lat="43.59582" lon="2.96173">
        <ele>1036.1</ele>
        <time>2026-05-07T10:30:10.000Z</time>
      </trkpt>
      <trkpt lat="43.59583" lon="2.96172">
        <ele>1036.2</ele>
        <time>2026-05-07T10:30:11.000Z</time>
      </trkpt>
      <trkpt lat="43.59584" lon="2.96172">
        <ele>1037</ele>
        <time>2026-05-07T10:30:12.000Z</time>
      </trkpt>
      <trkpt lat="43.59584" lon="2.96171">
        <ele>1037.4</ele>
        <time>2026-05-07T10:30:13.000Z</time>
      </trkpt>
      <trkpt lat="43.59584" lon="2.96172">
        <ele>1037.9</ele>
        <time>2026-05-07T10:30:14.000Z</time>
      </trkpt>
      <trkpt lat="43.59585" lon="2.96172">
        <ele>1038.5</ele>
        <time>2026-05-07T10:30:15.000Z</time>
      </trkpt>
      <trkpt lat="43.59586" lon="2.96172">
        <ele>1039</ele>
        <time>2026-05-07T10:30:16.000Z</time>
      </trkpt>
      <trkpt lat="43.59586" lon="2.96172">
        <ele>1039</ele>
        <time>2026-05-07T10:30:17.000Z</time>
      </trkpt>
      <trkpt lat="43.59587" lon="2.96172">
        <ele>1039.3</ele>
        <time>2026-05-07T10:30:18.000Z</time>
      </trkpt>
      <trkpt lat="43.59587" lon="2.96171">
        <ele>1040.1</ele>
        <time>2026-05-07T10:30:19.000Z</time>
      </trkpt>
      <trkpt lat="43.59588" lon="2.96171">
        <ele>1041.1</ele>
        <time>2026-05-07T10:30:20.000Z</time>
      </trkpt>
      <trkpt lat="43.59588" lon="2.96171">
        <ele>1041.5</ele>
        <time>2026-05-07T10:30:21.000Z</time>
      </trkpt>
      <trkpt lat="43.59588" lon="2.9617">
        <ele>1041.9</ele>
        <time>2026-05-07T10:30:22.000Z</time>
      </trkpt>
      <trkpt lat="43.59588" lon="2.9617">
        <ele>1041.9</ele>
        <time>2026-05-07T10:30:23.000Z</time>
      </trkpt>
      <trkpt lat="43.59587" lon="2.9617">
        <ele>1042</ele>
        <time>2026-05-07T10:30:24.000Z</time>
      </trkpt>
      <trkpt lat="43.59587" lon="2.9617">
        <ele>1041.9</ele>
        <time>2026-05-07T10:30:25.000Z</time>
      </trkpt>
      <trkpt lat="43.59587" lon="2.9617">
        <ele>1042.3</ele>
        <time>2026-05-07T10:30:26.000Z</time>
      </trkpt>
      <trkpt lat="43.59587" lon="2.9617">
        <ele>1042.5</ele>
        <time>2026-05-07T10:30:27.000Z</time>
      </trkpt>
      <trkpt lat="43.59587" lon="2.96172">
        <ele>1043.4</ele>
        <time>2026-05-07T10:30:28.000Z</time>
      </trkpt>
      <trkpt lat="43.59587" lon="2.96173">
        <ele>1043.6</ele>
        <time>2026-05-07T10:30:29.000Z</time>
      </trkpt>
      <trkpt lat="43.59587" lon="2.96173">
        <ele>1044.6</ele>
        <time>2026-05-07T10:30:30.000Z</time>
      </trkpt>
      <trkpt lat="43.59587" lon="2.96173">
        <ele>1044.6</ele>
        <time>2026-05-07T10:30:31.000Z</time>
      </trkpt>
      <trkpt lat="43.59587" lon="2.96173">
        <ele>1044.6</ele>
        <time>2026-05-07T10:30:32.000Z</time>
      </trkpt>
      <trkpt lat="43.59587" lon="2.96173">
        <ele>1044.6</ele>
        <time>2026-05-07T10:30:33.000Z</time>
      </trkpt>
      <trkpt lat="43.59587" lon="2.96173">
        <ele>1044.5</ele>
        <time>2026-05-07T10:30:34.000Z</time>
      </trkpt>
      <trkpt lat="43.59587" lon="2.96173">
        <ele>1044.5</ele>
        <time>2026-05-07T10:30:35.000Z</time>
      </trkpt>
      <trkpt lat="43.59588" lon="2.96174">
        <ele>1044.2</ele>
        <time>2026-05-07T10:30:36.000Z</time>
      </trkpt>
      <trkpt lat="43.59588" lon="2.96174">
        <ele>1044.1</ele>
        <time>2026-05-07T10:30:37.000Z</time>
      </trkpt>
      <trkpt lat="43.59587" lon="2.96174">
        <ele>1044.3</ele>
        <time>2026-05-07T10:30:38.000Z</time>
      </trkpt>
      <trkpt lat="43.59587" lon="2.96174">
        <ele>1044.1</ele>
        <time>2026-05-07T10:30:39.000Z</time>
      </trkpt>
      <trkpt lat="43.59587" lon="2.96174">
        <ele>1043.9</ele>
        <time>2026-05-07T10:30:40.000Z</time>
      </trkpt>
      <trkpt lat="43.59587" lon="2.96174">
        <ele>1043.8</ele>
        <time>2026-05-07T10:30:41.000Z</time>
      </trkpt>
      <trkpt lat="43.59587" lon="2.96174">
        <ele>1043.7</ele>
        <time>2026-05-07T10:30:42.000Z</time>
      </trkpt>
      <trkpt lat="43.59587" lon="2.96174">
        <ele>1043.7</ele>
        <time>2026-05-07T10:30:43.000Z</time>
      </trkpt>
      <trkpt lat="43.59587" lon="2.96173">
        <ele>1043.6</ele>
        <time>2026-05-07T10:30:44.000Z</time>
      </trkpt>
      <trkpt lat="43.59588" lon="2.96173">
        <ele>1043.4</ele>
        <time>2026-05-07T10:30:45.000Z</time>
      </trkpt>
      <trkpt lat="43.59588" lon="2.96172">
        <ele>1043.5</ele>
        <time>2026-05-07T10:30:46.000Z</time>
      </trkpt>
      <trkpt lat="43.59588" lon="2.96172">
        <ele>1043.6</ele>
        <time>2026-05-07T10:30:47.000Z</time>
      </trkpt>
      <trkpt lat="43.59589" lon="2.96171">
        <ele>1043.7</ele>
        <time>2026-05-07T10:30:48.000Z</time>
      </trkpt>
      <trkpt lat="43.59589" lon="2.96171">
        <ele>1043.7</ele>
        <time>2026-05-07T10:30:49.000Z</time>
      </trkpt>
      <trkpt lat="43.59589" lon="2.9617">
        <ele>1043.8</ele>
        <time>2026-05-07T10:30:50.000Z</time>
      </trkpt>
      <trkpt lat="43.5959" lon="2.9617">
        <ele>1043.8</ele>
        <time>2026-05-07T10:30:51.000Z</time>
      </trkpt>
      <trkpt lat="43.5959" lon="2.96169">
        <ele>1044.1</ele>
        <time>2026-05-07T10:30:52.000Z</time>
      </trkpt>
      <trkpt lat="43.5959" lon="2.96169">
        <ele>1044.3</ele>
        <time>2026-05-07T10:30:53.000Z</time>
      </trkpt>
      <trkpt lat="43.5959" lon="2.96169">
        <ele>1044.5</ele>
        <time>2026-05-07T10:30:54.000Z</time>
      </trkpt>
      <trkpt lat="43.5959" lon="2.96169">
        <ele>1044.8</ele>
        <time>2026-05-07T10:30:55.000Z</time>
      </trkpt>
      <trkpt lat="43.5959" lon="2.96169">
        <ele>1045.4</ele>
        <time>2026-05-07T10:30:56.000Z</time>
      </trkpt>
      <trkpt lat="43.5959" lon="2.96169">
        <ele>1045.5</ele>
        <time>2026-05-07T10:30:57.000Z</time>
      </trkpt>
      <trkpt lat="43.59589" lon="2.96169">
        <ele>1045.6</ele>
        <time>2026-05-07T10:30:58.000Z</time>
      </trkpt>
      <trkpt lat="43.59589" lon="2.96169">
        <ele>1045.8</ele>
        <time>2026-05-07T10:30:59.000Z</time>
      </trkpt>
      <trkpt lat="43.59589" lon="2.96169">
        <ele>1046.1</ele>
        <time>2026-05-07T10:31:00.000Z</time>
      </trkpt>
      <trkpt lat="43.59588" lon="2.96169">
        <ele>1046.1</ele>
        <time>2026-05-07T10:31:01.000Z</time>
      </trkpt>
      <trkpt lat="43.59588" lon="2.96169">
        <ele>1046.2</ele>
        <time>2026-05-07T10:31:02.000Z</time>
      </trkpt>
      <trkpt lat="43.59588" lon="2.9617">
        <ele>1046.2</ele>
        <time>2026-05-07T10:31:03.000Z</time>
      </trkpt>
      <trkpt lat="43.59588" lon="2.9617">
        <ele>1046.3</ele>
        <time>2026-05-07T10:31:04.000Z</time>
      </trkpt>
      <trkpt lat="43.59588" lon="2.9617">
        <ele>1046.8</ele>
        <time>2026-05-07T10:31:05.000Z</time>
      </trkpt>
      <trkpt lat="43.59588" lon="2.9617">
        <ele>1047.1</ele>
        <time>2026-05-07T10:31:06.000Z</time>
      </trkpt>
      <trkpt lat="43.59588" lon="2.9617">
        <ele>1047.3</ele>
        <time>2026-05-07T10:31:07.000Z</time>
      </trkpt>
      <trkpt lat="43.59588" lon="2.9617">
        <ele>1047.2</ele>
        <time>2026-05-07T10:31:08.000Z</time>
      </trkpt>
      <trkpt lat="43.59588" lon="2.9617">
        <ele>1047.4</ele>
        <time>2026-05-07T10:31:09.000Z</time>
      </trkpt>
      <trkpt lat="43.59588" lon="2.9617">
        <ele>1047.9</ele>
        <time>2026-05-07T10:31:10.000Z</time>
      </trkpt>
      <trkpt lat="43.59588" lon="2.96173">
        <ele>1048.2</ele>
        <time>2026-05-07T10:31:11.000Z</time>
      </trkpt>
      <trkpt lat="43.59587" lon="2.96174">
        <ele>1048.2</ele>
        <time>2026-05-07T10:31:12.000Z</time>
      </trkpt>
      <trkpt lat="43.59587" lon="2.96175">
        <ele>1048.3</ele>
        <time>2026-05-07T10:31:13.000Z</time>
      </trkpt>
      <trkpt lat="43.59587" lon="2.96175">
        <ele>1048.3</ele>
        <time>2026-05-07T10:31:14.000Z</time>
      </trkpt>
      <trkpt lat="43.59587" lon="2.96175">
        <ele>1048.3</ele>
        <time>2026-05-07T10:31:15.000Z</time>
      </trkpt>
      <trkpt lat="43.59587" lon="2.96174">
        <ele>1048.3</ele>
        <time>2026-05-07T10:31:16.000Z</time>
      </trkpt>
      <trkpt lat="43.59587" lon="2.96174">
        <ele>1048.1</ele>
        <time>2026-05-07T10:31:17.000Z</time>
      </trkpt>
      <trkpt lat="43.59588" lon="2.96174">
        <ele>1047.8</ele>
        <time>2026-05-07T10:31:18.000Z</time>
      </trkpt>
      <trkpt lat="43.59588" lon="2.96174">
        <ele>1048</ele>
        <time>2026-05-07T10:31:19.000Z</time>
      </trkpt>
      <trkpt lat="43.59588" lon="2.96173">
        <ele>1048</ele>
        <time>2026-05-07T10:31:20.000Z</time>
      </trkpt>
      <trkpt lat="43.59588" lon="2.96173">
        <ele>1048.2</ele>
        <time>2026-05-07T10:31:21.000Z</time>
      </trkpt>
      <trkpt lat="43.59588" lon="2.96174">
        <ele>1048.1</ele>
        <time>2026-05-07T10:31:22.000Z</time>
      </trkpt>
      <trkpt lat="43.59588" lon="2.96174">
        <ele>1048</ele>
        <time>2026-05-07T10:31:23.000Z</time>
      </trkpt>
      <trkpt lat="43.59588" lon="2.96173">
        <ele>1048</ele>
        <time>2026-05-07T10:31:24.000Z</time>
      </trkpt>
      <trkpt lat="43.59588" lon="2.96173">
        <ele>1047.7</ele>
        <time>2026-05-07T10:31:25.000Z</time>
      </trkpt>
      <trkpt lat="43.59588" lon="2.96173">
        <ele>1047.4</ele>
        <time>2026-05-07T10:31:26.000Z</time>
      </trkpt>
      <trkpt lat="43.59588" lon="2.96173">
        <ele>1047.3</ele>
        <time>2026-05-07T10:31:27.000Z</time>
      </trkpt>
      <trkpt lat="43.59588" lon="2.96173">
        <ele>1047.1</ele>
        <time>2026-05-07T10:31:28.000Z</time>
      </trkpt>
      <trkpt lat="43.59588" lon="2.96173">
        <ele>1047</ele>
        <time>2026-05-07T10:31:29.000Z</time>
      </trkpt>
      <trkpt lat="43.59587" lon="2.96173">
        <ele>1046.9</ele>
        <time>2026-05-07T10:31:30.000Z</time>
      </trkpt>
      <trkpt lat="43.59586" lon="2.96172">
        <ele>1046.6</ele>
        <time>2026-05-07T10:31:31.000Z</time>
      </trkpt>
      <trkpt lat="43.59586" lon="2.96171">
        <ele>1046.2</ele>
        <time>2026-05-07T10:31:32.000Z</time>
      </trkpt>
      <trkpt lat="43.59586" lon="2.96171">
        <ele>1045.9</ele>
        <time>2026-05-07T10:31:33.000Z</time>
      </trkpt>
      <trkpt lat="43.59586" lon="2.96171">
        <ele>1045.6</ele>
        <time>2026-05-07T10:31:34.000Z</time>
      </trkpt>
      <trkpt lat="43.59586" lon="2.96171">
        <ele>1045.4</ele>
        <time>2026-05-07T10:31:35.000Z</time>
      </trkpt>
      <trkpt lat="43.59586" lon="2.96171">
        <ele>1045</ele>
        <time>2026-05-07T10:31:36.000Z</time>
      </trkpt>
      <trkpt lat="43.59586" lon="2.96171">
        <ele>1044.7</ele>
        <time>2026-05-07T10:31:37.000Z</time>
      </trkpt>
      <trkpt lat="43.59586" lon="2.96171">
        <ele>1044.6</ele>
        <time>2026-05-07T10:31:38.000Z</time>
      </trkpt>
      <trkpt lat="43.59586" lon="2.96171">
        <ele>1044.7</ele>
        <time>2026-05-07T10:31:39.000Z</time>
      </trkpt>
      <trkpt lat="43.59586" lon="2.96171">
        <ele>1044.8</ele>
        <time>2026-05-07T10:31:40.000Z</time>
      </trkpt>
      <trkpt lat="43.59586" lon="2.9617">
        <ele>1045.1</ele>
        <time>2026-05-07T10:31:41.000Z</time>
      </trkpt>
      <trkpt lat="43.59586" lon="2.96171">
        <ele>1045</ele>
        <time>2026-05-07T10:31:42.000Z</time>
      </trkpt>
      <trkpt lat="43.59586" lon="2.96171">
        <ele>1045.2</ele>
        <time>2026-05-07T10:31:43.000Z</time>
      </trkpt>
      <trkpt lat="43.59587" lon="2.96172">
        <ele>1045.2</ele>
        <time>2026-05-07T10:31:44.000Z</time>
      </trkpt>
      <trkpt lat="43.59587" lon="2.96172">
        <ele>1045.1</ele>
        <time>2026-05-07T10:31:45.000Z</time>
      </trkpt>
      <trkpt lat="43.59587" lon="2.96172">
        <ele>1044.8</ele>
        <time>2026-05-07T10:31:46.000Z</time>
      </trkpt>
      <trkpt lat="43.59587" lon="2.96172">
        <ele>1044.7</ele>
        <time>2026-05-07T10:31:47.000Z</time>
      </trkpt>
      <trkpt lat="43.59587" lon="2.96172">
        <ele>1044.8</ele>
        <time>2026-05-07T10:31:48.000Z</time>
      </trkpt>
      <trkpt lat="43.59587" lon="2.96172">
        <ele>1044.9</ele>
        <time>2026-05-07T10:31:49.000Z</time>
      </trkpt>
      <trkpt lat="43.59589" lon="2.96172">
        <ele>1045.1</ele>
        <time>2026-05-07T10:31:50.000Z</time>
      </trkpt>
      <trkpt lat="43.59588" lon="2.96171">
        <ele>1045.9</ele>
        <time>2026-05-07T10:31:51.000Z</time>
      </trkpt>
      <trkpt lat="43.59589" lon="2.96171">
        <ele>1046.3</ele>
        <time>2026-05-07T10:31:52.000Z</time>
      </trkpt>
      <trkpt lat="43.59589" lon="2.96172">
        <ele>1046.7</ele>
        <time>2026-05-07T10:31:53.000Z</time>
      </trkpt>
      <trkpt lat="43.59589" lon="2.96172">
        <ele>1047.3</ele>
        <time>2026-05-07T10:31:54.000Z</time>
      </trkpt>
      <trkpt lat="43.59589" lon="2.96173">
        <ele>1047.5</ele>
        <time>2026-05-07T10:31:55.000Z</time>
      </trkpt>
      <trkpt lat="43.59588" lon="2.96174">
        <ele>1048.1</ele>
        <time>2026-05-07T10:31:56.000Z</time>
      </trkpt>
      <trkpt lat="43.59588" lon="2.96174">
        <ele>1048.5</ele>
        <time>2026-05-07T10:31:57.000Z</time>
      </trkpt>
      <trkpt lat="43.59588" lon="2.96175">
        <ele>1048.9</ele>
        <time>2026-05-07T10:31:58.000Z</time>
      </trkpt>
      <trkpt lat="43.59589" lon="2.96175">
        <ele>1047.2</ele>
        <time>2026-05-07T10:31:59.000Z</time>
      </trkpt>
      <trkpt lat="43.59588" lon="2.96174">
        <ele>1047.6</ele>
        <time>2026-05-07T10:32:00.000Z</time>
      </trkpt>
      <trkpt lat="43.59588" lon="2.96174">
        <ele>1047.8</ele>
        <time>2026-05-07T10:32:01.000Z</time>
      </trkpt>
      <trkpt lat="43.59588" lon="2.96174">
        <ele>1048.2</ele>
        <time>2026-05-07T10:32:02.000Z</time>
      </trkpt>
      <trkpt lat="43.59588" lon="2.96174">
        <ele>1048</ele>
        <time>2026-05-07T10:32:03.000Z</time>
      </trkpt>
      <trkpt lat="43.59587" lon="2.96174">
        <ele>1048.1</ele>
        <time>2026-05-07T10:32:04.000Z</time>
      </trkpt>
      <trkpt lat="43.59587" lon="2.96174">
        <ele>1048.1</ele>
        <time>2026-05-07T10:32:05.000Z</time>
      </trkpt>
      <trkpt lat="43.59587" lon="2.96175">
        <ele>1048.1</ele>
        <time>2026-05-07T10:32:06.000Z</time>
      </trkpt>
      <trkpt lat="43.59587" lon="2.96175">
        <ele>1048.1</ele>
        <time>2026-05-07T10:32:07.000Z</time>
      </trkpt>
      <trkpt lat="43.59587" lon="2.96175">
        <ele>1048.2</ele>
        <time>2026-05-07T10:32:08.000Z</time>
      </trkpt>
      <trkpt lat="43.59587" lon="2.96175">
        <ele>1048.5</ele>
        <time>2026-05-07T10:32:09.000Z</time>
      </trkpt>
      <trkpt lat="43.59587" lon="2.96175">
        <ele>1048.5</ele>
        <time>2026-05-07T10:32:10.000Z</time>
      </trkpt>
      <trkpt lat="43.59587" lon="2.96175">
        <ele>1048.6</ele>
        <time>2026-05-07T10:32:11.000Z</time>
      </trkpt>
      <trkpt lat="43.59587" lon="2.96176">
        <ele>1048.8</ele>
        <time>2026-05-07T10:32:12.000Z</time>
      </trkpt>
      <trkpt lat="43.59587" lon="2.96177">
        <ele>1049</ele>
        <time>2026-05-07T10:32:13.000Z</time>
      </trkpt>
      <trkpt lat="43.59588" lon="2.96177">
        <ele>1049.3</ele>
        <time>2026-05-07T10:32:14.000Z</time>
      </trkpt>
      <trkpt lat="43.59589" lon="2.96177">
        <ele>1050.2</ele>
        <time>2026-05-07T10:32:15.000Z</time>
      </trkpt>
      <trkpt lat="43.59589" lon="2.96177">
        <ele>1050.3</ele>
        <time>2026-05-07T10:32:16.000Z</time>
      </trkpt>
      <trkpt lat="43.5959" lon="2.96179">
        <ele>1050.5</ele>
        <time>2026-05-07T10:32:17.000Z</time>
      </trkpt>
      <trkpt lat="43.59591" lon="2.96182">
        <ele>1050.9</ele>
        <time>2026-05-07T10:32:18.000Z</time>
      </trkpt>
      <trkpt lat="43.59592" lon="2.96182">
        <ele>1051</ele>
        <time>2026-05-07T10:32:19.000Z</time>
      </trkpt>
      <trkpt lat="43.59593" lon="2.96181">
        <ele>1051.3</ele>
        <time>2026-05-07T10:32:20.000Z</time>
      </trkpt>
      <trkpt lat="43.59592" lon="2.9618">
        <ele>1050.9</ele>
        <time>2026-05-07T10:32:21.000Z</time>
      </trkpt>
      <trkpt lat="43.59591" lon="2.96179">
        <ele>1050.2</ele>
        <time>2026-05-07T10:32:22.000Z</time>
      </trkpt>
      <trkpt lat="43.59591" lon="2.96178">
        <ele>1047.5</ele>
        <time>2026-05-07T10:32:23.000Z</time>
      </trkpt>
      <trkpt lat="43.59591" lon="2.96178">
        <ele>1047.5</ele>
        <time>2026-05-07T10:32:24.000Z</time>
      </trkpt>
      <trkpt lat="43.59591" lon="2.96178">
        <ele>1047.7</ele>
        <time>2026-05-07T10:32:25.000Z</time>
      </trkpt>
      <trkpt lat="43.59591" lon="2.96177">
        <ele>1047.7</ele>
        <time>2026-05-07T10:32:26.000Z</time>
      </trkpt>
      <trkpt lat="43.59591" lon="2.96177">
        <ele>1047.8</ele>
        <time>2026-05-07T10:32:27.000Z</time>
      </trkpt>
      <trkpt lat="43.5959" lon="2.96177">
        <ele>1047.9</ele>
        <time>2026-05-07T10:32:28.000Z</time>
      </trkpt>
      <trkpt lat="43.5959" lon="2.96177">
        <ele>1048.1</ele>
        <time>2026-05-07T10:32:29.000Z</time>
      </trkpt>
      <trkpt lat="43.5959" lon="2.96176">
        <ele>1048.2</ele>
        <time>2026-05-07T10:32:30.000Z</time>
      </trkpt>
      <trkpt lat="43.5959" lon="2.96176">
        <ele>1048.4</ele>
        <time>2026-05-07T10:32:31.000Z</time>
      </trkpt>
      <trkpt lat="43.5959" lon="2.96176">
        <ele>1048.7</ele>
        <time>2026-05-07T10:32:32.000Z</time>
      </trkpt>
      <trkpt lat="43.5959" lon="2.96176">
        <ele>1048.9</ele>
        <time>2026-05-07T10:32:33.000Z</time>
      </trkpt>
      <trkpt lat="43.5959" lon="2.96176">
        <ele>1049.1</ele>
        <time>2026-05-07T10:32:34.000Z</time>
      </trkpt>
      <trkpt lat="43.5959" lon="2.96176">
        <ele>1049.3</ele>
        <time>2026-05-07T10:32:35.000Z</time>
      </trkpt>
      <trkpt lat="43.5959" lon="2.96176">
        <ele>1049.5</ele>
        <time>2026-05-07T10:32:36.000Z</time>
      </trkpt>
      <trkpt lat="43.5959" lon="2.96176">
        <ele>1049.7</ele>
        <time>2026-05-07T10:32:37.000Z</time>
      </trkpt>
      <trkpt lat="43.5959" lon="2.96176">
        <ele>1049.9</ele>
        <time>2026-05-07T10:32:38.000Z</time>
      </trkpt>
      <trkpt lat="43.5959" lon="2.96176">
        <ele>1050.1</ele>
        <time>2026-05-07T10:32:39.000Z</time>
      </trkpt>
      <trkpt lat="43.5959" lon="2.96176">
        <ele>1050.3</ele>
        <time>2026-05-07T10:32:40.000Z</time>
      </trkpt>
      <trkpt lat="43.5959" lon="2.96176">
        <ele>1050.6</ele>
        <time>2026-05-07T10:32:41.000Z</time>
      </trkpt>
      <trkpt lat="43.59589" lon="2.96176">
        <ele>1050.8</ele>
        <time>2026-05-07T10:32:42.000Z</time>
      </trkpt>
      <trkpt lat="43.59589" lon="2.96176">
        <ele>1050.9</ele>
        <time>2026-05-07T10:32:43.000Z</time>
      </trkpt>
      <trkpt lat="43.59589" lon="2.96176">
        <ele>1051.2</ele>
        <time>2026-05-07T10:32:44.000Z</time>
      </trkpt>
      <trkpt lat="43.59589" lon="2.96175">
        <ele>1051.5</ele>
        <time>2026-05-07T10:32:45.000Z</time>
      </trkpt>
      <trkpt lat="43.59589" lon="2.96175">
        <ele>1051.6</ele>
        <time>2026-05-07T10:32:46.000Z</time>
      </trkpt>
      <trkpt lat="43.59589" lon="2.96175">
        <ele>1051.6</ele>
        <time>2026-05-07T10:32:47.000Z</time>
      </trkpt>
      <trkpt lat="43.59589" lon="2.96175">
        <ele>1051.5</ele>
        <time>2026-05-07T10:32:48.000Z</time>
      </trkpt>
      <trkpt lat="43.59589" lon="2.96175">
        <ele>1051.6</ele>
        <time>2026-05-07T10:32:49.000Z</time>
      </trkpt>
      <trkpt lat="43.59588" lon="2.96174">
        <ele>1051.9</ele>
        <time>2026-05-07T10:32:50.000Z</time>
      </trkpt>
      <trkpt lat="43.59588" lon="2.96173">
        <ele>1052</ele>
        <time>2026-05-07T10:32:51.000Z</time>
      </trkpt>
      <trkpt lat="43.59587" lon="2.96172">
        <ele>1052.1</ele>
        <time>2026-05-07T10:32:52.000Z</time>
      </trkpt>
      <trkpt lat="43.59587" lon="2.96171">
        <ele>1052.3</ele>
        <time>2026-05-07T10:32:54.000Z</time>
      </trkpt>
      <trkpt lat="43.59587" lon="2.96172">
        <ele>1052.4</ele>
        <time>2026-05-07T10:32:55.000Z</time>
      </trkpt>
      <trkpt lat="43.59586" lon="2.96171">
        <ele>1052.4</ele>
        <time>2026-05-07T10:32:56.000Z</time>
      </trkpt>
      <trkpt lat="43.59586" lon="2.9617">
        <ele>1051.6</ele>
        <time>2026-05-07T10:32:57.000Z</time>
      </trkpt>
      <trkpt lat="43.59586" lon="2.9617">
        <ele>1051.5</ele>
        <time>2026-05-07T10:32:58.000Z</time>
      </trkpt>
      <trkpt lat="43.59586" lon="2.9617">
        <ele>1051.4</ele>
        <time>2026-05-07T10:32:59.000Z</time>
      </trkpt>
      <trkpt lat="43.59586" lon="2.9617">
        <ele>1051.3</ele>
        <time>2026-05-07T10:33:00.000Z</time>
      </trkpt>
      <trkpt lat="43.59584" lon="2.9617">
        <ele>1050.5</ele>
        <time>2026-05-07T10:33:01.000Z</time>
      </trkpt>
      <trkpt lat="43.59582" lon="2.96169">
        <ele>1049.5</ele>
        <time>2026-05-07T10:33:02.000Z</time>
      </trkpt>
      <trkpt lat="43.59581" lon="2.96169">
        <ele>1048.9</ele>
        <time>2026-05-07T10:33:03.000Z</time>
      </trkpt>
      <trkpt lat="43.5958" lon="2.96168">
        <ele>1048.2</ele>
        <time>2026-05-07T10:33:04.000Z</time>
      </trkpt>
      <trkpt lat="43.59579" lon="2.96168">
        <ele>1047.4</ele>
        <time>2026-05-07T10:33:05.000Z</time>
      </trkpt>
      <trkpt lat="43.59577" lon="2.96167">
        <ele>1046.9</ele>
        <time>2026-05-07T10:33:06.000Z</time>
      </trkpt>
      <trkpt lat="43.59577" lon="2.96166">
        <ele>1046.7</ele>
        <time>2026-05-07T10:33:07.000Z</time>
      </trkpt>
      <trkpt lat="43.59576" lon="2.96165">
        <ele>1046.6</ele>
        <time>2026-05-07T10:33:08.000Z</time>
      </trkpt>
      <trkpt lat="43.59576" lon="2.96164">
        <ele>1046.2</ele>
        <time>2026-05-07T10:33:09.000Z</time>
      </trkpt>
      <trkpt lat="43.59575" lon="2.96164">
        <ele>1045.7</ele>
        <time>2026-05-07T10:33:10.000Z</time>
      </trkpt>
      <trkpt lat="43.59575" lon="2.96163">
        <ele>1045.7</ele>
        <time>2026-05-07T10:33:11.000Z</time>
      </trkpt>
      <trkpt lat="43.59573" lon="2.96162">
        <ele>1045.4</ele>
        <time>2026-05-07T10:33:12.000Z</time>
      </trkpt>
      <trkpt lat="43.59572" lon="2.96161">
        <ele>1045</ele>
        <time>2026-05-07T10:33:13.000Z</time>
      </trkpt>
      <trkpt lat="43.59571" lon="2.9616">
        <ele>1044.8</ele>
        <time>2026-05-07T10:33:14.000Z</time>
      </trkpt>
      <trkpt lat="43.59571" lon="2.96161">
        <ele>1045.1</ele>
        <time>2026-05-07T10:33:15.000Z</time>
      </trkpt>
      <trkpt lat="43.59572" lon="2.96164">
        <ele>1045.2</ele>
        <time>2026-05-07T10:33:16.000Z</time>
      </trkpt>
      <trkpt lat="43.59573" lon="2.96165">
        <ele>1045.6</ele>
        <time>2026-05-07T10:33:17.000Z</time>
      </trkpt>
      <trkpt lat="43.59573" lon="2.96166">
        <ele>1045.5</ele>
        <time>2026-05-07T10:33:18.000Z</time>
      </trkpt>
      <trkpt lat="43.59573" lon="2.96166">
        <ele>1045.4</ele>
        <time>2026-05-07T10:33:19.000Z</time>
      </trkpt>
      <trkpt lat="43.59574" lon="2.96166">
        <ele>1045.6</ele>
        <time>2026-05-07T10:33:20.000Z</time>
      </trkpt>
      <trkpt lat="43.59574" lon="2.96165">
        <ele>1045.6</ele>
        <time>2026-05-07T10:33:21.000Z</time>
      </trkpt>
      <trkpt lat="43.59574" lon="2.96165">
        <ele>1045.3</ele>
        <time>2026-05-07T10:33:22.000Z</time>
      </trkpt>
      <trkpt lat="43.59574" lon="2.96165">
        <ele>1045.5</ele>
        <time>2026-05-07T10:33:23.000Z</time>
      </trkpt>
      <trkpt lat="43.59574" lon="2.96165">
        <ele>1045.9</ele>
        <time>2026-05-07T10:33:24.000Z</time>
      </trkpt>
      <trkpt lat="43.59574" lon="2.96165">
        <ele>1046.2</ele>
        <time>2026-05-07T10:33:25.000Z</time>
      </trkpt>
      <trkpt lat="43.59574" lon="2.96165">
        <ele>1046.2</ele>
        <time>2026-05-07T10:33:26.000Z</time>
      </trkpt>
      <trkpt lat="43.59574" lon="2.96165">
        <ele>1046</ele>
        <time>2026-05-07T10:33:27.000Z</time>
      </trkpt>
      <trkpt lat="43.59573" lon="2.96165">
        <ele>1045.8</ele>
        <time>2026-05-07T10:33:28.000Z</time>
      </trkpt>
      <trkpt lat="43.59573" lon="2.96165">
        <ele>1045.8</ele>
        <time>2026-05-07T10:33:29.000Z</time>
      </trkpt>
      <trkpt lat="43.59573" lon="2.96165">
        <ele>1045.6</ele>
        <time>2026-05-07T10:33:30.000Z</time>
      </trkpt>
      <trkpt lat="43.59573" lon="2.96165">
        <ele>1045.5</ele>
        <time>2026-05-07T10:33:31.000Z</time>
      </trkpt>
      <trkpt lat="43.59573" lon="2.96164">
        <ele>1045</ele>
        <time>2026-05-07T10:33:32.000Z</time>
      </trkpt>
      <trkpt lat="43.59573" lon="2.96164">
        <ele>1044.6</ele>
        <time>2026-05-07T10:33:33.000Z</time>
      </trkpt>
      <trkpt lat="43.59573" lon="2.96164">
        <ele>1044.4</ele>
        <time>2026-05-07T10:33:34.000Z</time>
      </trkpt>
      <trkpt lat="43.59573" lon="2.96163">
        <ele>1044</ele>
        <time>2026-05-07T10:33:35.000Z</time>
      </trkpt>
      <trkpt lat="43.59573" lon="2.96163">
        <ele>1043.7</ele>
        <time>2026-05-07T10:33:36.000Z</time>
      </trkpt>
      <trkpt lat="43.59573" lon="2.96163">
        <ele>1043.6</ele>
        <time>2026-05-07T10:33:37.000Z</time>
      </trkpt>
      <trkpt lat="43.59573" lon="2.96163">
        <ele>1043.6</ele>
        <time>2026-05-07T10:33:38.000Z</time>
      </trkpt>
      <trkpt lat="43.59573" lon="2.96163">
        <ele>1043.6</ele>
        <time>2026-05-07T10:33:39.000Z</time>
      </trkpt>
      <trkpt lat="43.59573" lon="2.96163">
        <ele>1043.5</ele>
        <time>2026-05-07T10:33:40.000Z</time>
      </trkpt>
      <trkpt lat="43.59573" lon="2.96163">
        <ele>1043.6</ele>
        <time>2026-05-07T10:33:41.000Z</time>
      </trkpt>
      <trkpt lat="43.59572" lon="2.96163">
        <ele>1043.7</ele>
        <time>2026-05-07T10:33:42.000Z</time>
      </trkpt>
      <trkpt lat="43.59572" lon="2.96163">
        <ele>1043.6</ele>
        <time>2026-05-07T10:33:43.000Z</time>
      </trkpt>
      <trkpt lat="43.59571" lon="2.96163">
        <ele>1043.6</ele>
        <time>2026-05-07T10:33:44.000Z</time>
      </trkpt>
      <trkpt lat="43.59571" lon="2.96163">
        <ele>1043.6</ele>
        <time>2026-05-07T10:33:45.000Z</time>
      </trkpt>
      <trkpt lat="43.59571" lon="2.96163">
        <ele>1044</ele>
        <time>2026-05-07T10:33:46.000Z</time>
      </trkpt>
      <trkpt lat="43.59571" lon="2.96163">
        <ele>1044.2</ele>
        <time>2026-05-07T10:33:47.000Z</time>
      </trkpt>
      <trkpt lat="43.59571" lon="2.96163">
        <ele>1044.5</ele>
        <time>2026-05-07T10:33:48.000Z</time>
      </trkpt>
      <trkpt lat="43.59571" lon="2.96163">
        <ele>1044.7</ele>
        <time>2026-05-07T10:33:49.000Z</time>
      </trkpt>
      <trkpt lat="43.59571" lon="2.96163">
        <ele>1044.9</ele>
        <time>2026-05-07T10:33:50.000Z</time>
      </trkpt>
      <trkpt lat="43.59571" lon="2.96163">
        <ele>1045.1</ele>
        <time>2026-05-07T10:33:51.000Z</time>
      </trkpt>
      <trkpt lat="43.59571" lon="2.96163">
        <ele>1045.3</ele>
        <time>2026-05-07T10:33:52.000Z</time>
      </trkpt>
      <trkpt lat="43.59571" lon="2.96163">
        <ele>1045.2</ele>
        <time>2026-05-07T10:33:53.000Z</time>
      </trkpt>
      <trkpt lat="43.59571" lon="2.96163">
        <ele>1045.3</ele>
        <time>2026-05-07T10:33:54.000Z</time>
      </trkpt>
      <trkpt lat="43.59571" lon="2.96163">
        <ele>1045.3</ele>
        <time>2026-05-07T10:33:55.000Z</time>
      </trkpt>
      <trkpt lat="43.59571" lon="2.96163">
        <ele>1045.2</ele>
        <time>2026-05-07T10:33:56.000Z</time>
      </trkpt>
      <trkpt lat="43.59571" lon="2.96163">
        <ele>1045.2</ele>
        <time>2026-05-07T10:33:57.000Z</time>
      </trkpt>
      <trkpt lat="43.59571" lon="2.96163">
        <ele>1045.4</ele>
        <time>2026-05-07T10:33:58.000Z</time>
      </trkpt>
      <trkpt lat="43.59571" lon="2.96163">
        <ele>1045.5</ele>
        <time>2026-05-07T10:33:59.000Z</time>
      </trkpt>
      <trkpt lat="43.59571" lon="2.96163">
        <ele>1045.7</ele>
        <time>2026-05-07T10:34:00.000Z</time>
      </trkpt>
      <trkpt lat="43.59571" lon="2.96163">
        <ele>1045.7</ele>
        <time>2026-05-07T10:34:01.000Z</time>
      </trkpt>
      <trkpt lat="43.59571" lon="2.96163">
        <ele>1045.7</ele>
        <time>2026-05-07T10:34:02.000Z</time>
      </trkpt>
      <trkpt lat="43.59571" lon="2.96163">
        <ele>1045.6</ele>
        <time>2026-05-07T10:34:03.000Z</time>
      </trkpt>
      <trkpt lat="43.59571" lon="2.96163">
        <ele>1045.4</ele>
        <time>2026-05-07T10:34:04.000Z</time>
      </trkpt>
      <trkpt lat="43.59571" lon="2.96163">
        <ele>1045.4</ele>
        <time>2026-05-07T10:34:05.000Z</time>
      </trkpt>
      <trkpt lat="43.59571" lon="2.96163">
        <ele>1045.1</ele>
        <time>2026-05-07T10:34:06.000Z</time>
      </trkpt>
      <trkpt lat="43.59571" lon="2.96163">
        <ele>1045</ele>
        <time>2026-05-07T10:34:07.000Z</time>
      </trkpt>
      <trkpt lat="43.59571" lon="2.96163">
        <ele>1044.6</ele>
        <time>2026-05-07T10:34:08.000Z</time>
      </trkpt>
      <trkpt lat="43.59572" lon="2.96163">
        <ele>1044.6</ele>
        <time>2026-05-07T10:34:09.000Z</time>
      </trkpt>
      <trkpt lat="43.59572" lon="2.96164">
        <ele>1044.4</ele>
        <time>2026-05-07T10:34:10.000Z</time>
      </trkpt>
      <trkpt lat="43.59572" lon="2.96164">
        <ele>1044.2</ele>
        <time>2026-05-07T10:34:11.000Z</time>
      </trkpt>
      <trkpt lat="43.59572" lon="2.96164">
        <ele>1044.1</ele>
        <time>2026-05-07T10:34:12.000Z</time>
      </trkpt>
      <trkpt lat="43.59572" lon="2.96164">
        <ele>1043.9</ele>
        <time>2026-05-07T10:34:13.000Z</time>
      </trkpt>
      <trkpt lat="43.59572" lon="2.96164">
        <ele>1043.8</ele>
        <time>2026-05-07T10:34:14.000Z</time>
      </trkpt>
      <trkpt lat="43.59572" lon="2.96164">
        <ele>1043.9</ele>
        <time>2026-05-07T10:34:15.000Z</time>
      </trkpt>
      <trkpt lat="43.59572" lon="2.96164">
        <ele>1043.6</ele>
        <time>2026-05-07T10:34:16.000Z</time>
      </trkpt>
      <trkpt lat="43.59572" lon="2.96164">
        <ele>1043.5</ele>
        <time>2026-05-07T10:34:17.000Z</time>
      </trkpt>
      <trkpt lat="43.59571" lon="2.96164">
        <ele>1043.3</ele>
        <time>2026-05-07T10:34:18.000Z</time>
      </trkpt>
      <trkpt lat="43.59571" lon="2.96164">
        <ele>1043.2</ele>
        <time>2026-05-07T10:34:19.000Z</time>
      </trkpt>
      <trkpt lat="43.59571" lon="2.96165">
        <ele>1043.1</ele>
        <time>2026-05-07T10:34:20.000Z</time>
      </trkpt>
      <trkpt lat="43.59571" lon="2.96165">
        <ele>1043</ele>
        <time>2026-05-07T10:34:21.000Z</time>
      </trkpt>
      <trkpt lat="43.59571" lon="2.96165">
        <ele>1043</ele>
        <time>2026-05-07T10:34:22.000Z</time>
      </trkpt>
      <trkpt lat="43.59571" lon="2.96165">
        <ele>1043</ele>
        <time>2026-05-07T10:34:23.000Z</time>
      </trkpt>
      <trkpt lat="43.59571" lon="2.96165">
        <ele>1042.9</ele>
        <time>2026-05-07T10:34:24.000Z</time>
      </trkpt>
      <trkpt lat="43.59571" lon="2.96165">
        <ele>1042.9</ele>
        <time>2026-05-07T10:34:25.000Z</time>
      </trkpt>
      <trkpt lat="43.59571" lon="2.96165">
        <ele>1042.9</ele>
        <time>2026-05-07T10:34:26.000Z</time>
      </trkpt>
      <trkpt lat="43.59571" lon="2.96165">
        <ele>1043</ele>
        <time>2026-05-07T10:34:27.000Z</time>
      </trkpt>
      <trkpt lat="43.59572" lon="2.96165">
        <ele>1043.1</ele>
        <time>2026-05-07T10:34:28.000Z</time>
      </trkpt>
      <trkpt lat="43.59572" lon="2.96165">
        <ele>1043.2</ele>
        <time>2026-05-07T10:34:29.000Z</time>
      </trkpt>
      <trkpt lat="43.59572" lon="2.96166">
        <ele>1043</ele>
        <time>2026-05-07T10:34:30.000Z</time>
      </trkpt>
      <trkpt lat="43.59572" lon="2.96166">
        <ele>1042.9</ele>
        <time>2026-05-07T10:34:31.000Z</time>
      </trkpt>
      <trkpt lat="43.59572" lon="2.96166">
        <ele>1043</ele>
        <time>2026-05-07T10:34:32.000Z</time>
      </trkpt>
      <trkpt lat="43.59572" lon="2.96166">
        <ele>1043.1</ele>
        <time>2026-05-07T10:34:33.000Z</time>
      </trkpt>
      <trkpt lat="43.59572" lon="2.96166">
        <ele>1043.2</ele>
        <time>2026-05-07T10:34:34.000Z</time>
      </trkpt>
      <trkpt lat="43.59572" lon="2.96166">
        <ele>1043</ele>
        <time>2026-05-07T10:34:35.000Z</time>
      </trkpt>
      <trkpt lat="43.59572" lon="2.96166">
        <ele>1043.1</ele>
        <time>2026-05-07T10:34:36.000Z</time>
      </trkpt>
      <trkpt lat="43.59572" lon="2.96166">
        <ele>1043.1</ele>
        <time>2026-05-07T10:34:37.000Z</time>
      </trkpt>
      <trkpt lat="43.59572" lon="2.96166">
        <ele>1043</ele>
        <time>2026-05-07T10:34:38.000Z</time>
      </trkpt>
      <trkpt lat="43.59572" lon="2.96167">
        <ele>1043</ele>
        <time>2026-05-07T10:34:39.000Z</time>
      </trkpt>
      <trkpt lat="43.59572" lon="2.96167">
        <ele>1043</ele>
        <time>2026-05-07T10:34:40.000Z</time>
      </trkpt>
      <trkpt lat="43.59572" lon="2.96167">
        <ele>1042.9</ele>
        <time>2026-05-07T10:34:41.000Z</time>
      </trkpt>
      <trkpt lat="43.59572" lon="2.96167">
        <ele>1042.9</ele>
        <time>2026-05-07T10:34:42.000Z</time>
      </trkpt>
      <trkpt lat="43.59572" lon="2.96167">
        <ele>1042.9</ele>
        <time>2026-05-07T10:34:43.000Z</time>
      </trkpt>
      <trkpt lat="43.59572" lon="2.96167">
        <ele>1043</ele>
        <time>2026-05-07T10:34:44.999Z</time>
      </trkpt>
      <trkpt lat="43.59572" lon="2.96167">
        <ele>1043</ele>
        <time>2026-05-07T10:34:45.999Z</time>
      </trkpt>
      <trkpt lat="43.59572" lon="2.96167">
        <ele>1043</ele>
        <time>2026-05-07T10:34:46.999Z</time>
      </trkpt>
      <trkpt lat="43.59572" lon="2.96166">
        <ele>1043</ele>
        <time>2026-05-07T10:34:47.999Z</time>
      </trkpt>
      <trkpt lat="43.59573" lon="2.96166">
        <ele>1042.6</ele>
        <time>2026-05-07T10:34:48.999Z</time>
      </trkpt>
      <trkpt lat="43.59573" lon="2.96165">
        <ele>1042.5</ele>
        <time>2026-05-07T10:34:49.999Z</time>
      </trkpt>
      <trkpt lat="43.59574" lon="2.96165">
        <ele>1042.4</ele>
        <time>2026-05-07T10:34:50.999Z</time>
      </trkpt>
      <trkpt lat="43.59574" lon="2.96165">
        <ele>1042.4</ele>
        <time>2026-05-07T10:34:51.999Z</time>
      </trkpt>
      <trkpt lat="43.59574" lon="2.96165">
        <ele>1042.5</ele>
        <time>2026-05-07T10:34:52.999Z</time>
      </trkpt>
      <trkpt lat="43.59574" lon="2.96165">
        <ele>1042.5</ele>
        <time>2026-05-07T10:34:53.999Z</time>
      </trkpt>
      <trkpt lat="43.59574" lon="2.96165">
        <ele>1042.5</ele>
        <time>2026-05-07T10:34:54.999Z</time>
      </trkpt>
      <trkpt lat="43.59574" lon="2.96165">
        <ele>1042.5</ele>
        <time>2026-05-07T10:34:55.999Z</time>
      </trkpt>
      <trkpt lat="43.59574" lon="2.96165">
        <ele>1042.5</ele>
        <time>2026-05-07T10:34:56.999Z</time>
      </trkpt>
      <trkpt lat="43.59574" lon="2.96165">
        <ele>1042.4</ele>
        <time>2026-05-07T10:34:57.999Z</time>
      </trkpt>
      <trkpt lat="43.59574" lon="2.96165">
        <ele>1042.5</ele>
        <time>2026-05-07T10:34:58.999Z</time>
      </trkpt>
      <trkpt lat="43.59574" lon="2.96165">
        <ele>1042.5</ele>
        <time>2026-05-07T10:34:59.999Z</time>
      </trkpt>
      <trkpt lat="43.59574" lon="2.96165">
        <ele>1042.6</ele>
        <time>2026-05-07T10:35:00.999Z</time>
      </trkpt>
      <trkpt lat="43.59574" lon="2.96165">
        <ele>1042.8</ele>
        <time>2026-05-07T10:35:01.999Z</time>
      </trkpt>
      <trkpt lat="43.59574" lon="2.96165">
        <ele>1043</ele>
        <time>2026-05-07T10:35:02.999Z</time>
      </trkpt>
      <trkpt lat="43.59574" lon="2.96165">
        <ele>1043.2</ele>
        <time>2026-05-07T10:35:03.999Z</time>
      </trkpt>
      <trkpt lat="43.59574" lon="2.96165">
        <ele>1043.4</ele>
        <time>2026-05-07T10:35:04.999Z</time>
      </trkpt>
      <trkpt lat="43.59574" lon="2.96165">
        <ele>1043.4</ele>
        <time>2026-05-07T10:35:05.999Z</time>
      </trkpt>
      <trkpt lat="43.59574" lon="2.96165">
        <ele>1043.6</ele>
        <time>2026-05-07T10:35:06.999Z</time>
      </trkpt>
      <trkpt lat="43.59574" lon="2.96164">
        <ele>1043.9</ele>
        <time>2026-05-07T10:35:07.999Z</time>
      </trkpt>
      <trkpt lat="43.59574" lon="2.96164">
        <ele>1044.3</ele>
        <time>2026-05-07T10:35:08.999Z</time>
      </trkpt>
      <trkpt lat="43.59575" lon="2.96164">
        <ele>1044.5</ele>
        <time>2026-05-07T10:35:09.999Z</time>
      </trkpt>
      <trkpt lat="43.59574" lon="2.96165">
        <ele>1044.7</ele>
        <time>2026-05-07T10:35:10.999Z</time>
      </trkpt>
      <trkpt lat="43.59574" lon="2.96167">
        <ele>1045.1</ele>
        <time>2026-05-07T10:35:11.999Z</time>
      </trkpt>
      <trkpt lat="43.59574" lon="2.96168">
        <ele>1045.4</ele>
        <time>2026-05-07T10:35:12.999Z</time>
      </trkpt>
      <trkpt lat="43.59574" lon="2.9617">
        <ele>1045.4</ele>
        <time>2026-05-07T10:35:13.999Z</time>
      </trkpt>
      <trkpt lat="43.59574" lon="2.9617">
        <ele>1045.9</ele>
        <time>2026-05-07T10:35:14.999Z</time>
      </trkpt>
      <trkpt lat="43.59574" lon="2.96171">
        <ele>1045.8</ele>
        <time>2026-05-07T10:35:15.999Z</time>
      </trkpt>
      <trkpt lat="43.59574" lon="2.96171">
        <ele>1045.6</ele>
        <time>2026-05-07T10:35:16.999Z</time>
      </trkpt>
      <trkpt lat="43.59576" lon="2.96171">
        <ele>1046.2</ele>
        <time>2026-05-07T10:35:17.999Z</time>
      </trkpt>
      <trkpt lat="43.59576" lon="2.9617">
        <ele>1045.2</ele>
        <time>2026-05-07T10:35:18.999Z</time>
      </trkpt>
      <trkpt lat="43.59575" lon="2.96169">
        <ele>1044.1</ele>
        <time>2026-05-07T10:35:19.999Z</time>
      </trkpt>
      <trkpt lat="43.59574" lon="2.96168">
        <ele>1043.8</ele>
        <time>2026-05-07T10:35:20.999Z</time>
      </trkpt>
      <trkpt lat="43.59574" lon="2.96168">
        <ele>1043.9</ele>
        <time>2026-05-07T10:35:21.999Z</time>
      </trkpt>
      <trkpt lat="43.59574" lon="2.96168">
        <ele>1042.7</ele>
        <time>2026-05-07T10:35:22.999Z</time>
      </trkpt>
      <trkpt lat="43.59574" lon="2.96168">
        <ele>1042.6</ele>
        <time>2026-05-07T10:35:23.999Z</time>
      </trkpt>
      <trkpt lat="43.59574" lon="2.96168">
        <ele>1042.5</ele>
        <time>2026-05-07T10:35:24.999Z</time>
      </trkpt>
      <trkpt lat="43.59572" lon="2.96169">
        <ele>1042</ele>
        <time>2026-05-07T10:35:26.999Z</time>
      </trkpt>
      <trkpt lat="43.59572" lon="2.96169">
        <ele>1042.2</ele>
        <time>2026-05-07T10:35:27.999Z</time>
      </trkpt>
      <trkpt lat="43.59572" lon="2.96168">
        <ele>1041.8</ele>
        <time>2026-05-07T10:35:28.999Z</time>
      </trkpt>
      <trkpt lat="43.59572" lon="2.96168">
        <ele>1042</ele>
        <time>2026-05-07T10:35:29.999Z</time>
      </trkpt>
      <trkpt lat="43.59572" lon="2.96168">
        <ele>1041.7</ele>
        <time>2026-05-07T10:35:30.999Z</time>
      </trkpt>
      <trkpt lat="43.59572" lon="2.96168">
        <ele>1041.6</ele>
        <time>2026-05-07T10:35:31.999Z</time>
      </trkpt>
      <trkpt lat="43.59572" lon="2.96168">
        <ele>1041.3</ele>
        <time>2026-05-07T10:35:32.999Z</time>
      </trkpt>
      <trkpt lat="43.59572" lon="2.96168">
        <ele>1041.3</ele>
        <time>2026-05-07T10:35:33.999Z</time>
      </trkpt>
      <trkpt lat="43.59572" lon="2.96168">
        <ele>1040.9</ele>
        <time>2026-05-07T10:35:34.999Z</time>
      </trkpt>
      <trkpt lat="43.59572" lon="2.96168">
        <ele>1040.8</ele>
        <time>2026-05-07T10:35:35.999Z</time>
      </trkpt>
      <trkpt lat="43.59572" lon="2.96168">
        <ele>1040.2</ele>
        <time>2026-05-07T10:35:36.999Z</time>
      </trkpt>
      <trkpt lat="43.59572" lon="2.96168">
        <ele>1039.9</ele>
        <time>2026-05-07T10:35:37.999Z</time>
      </trkpt>
      <trkpt lat="43.59572" lon="2.96168">
        <ele>1039.7</ele>
        <time>2026-05-07T10:35:38.999Z</time>
      </trkpt>
      <trkpt lat="43.59572" lon="2.96168">
        <ele>1039.5</ele>
        <time>2026-05-07T10:35:39.999Z</time>
      </trkpt>
      <trkpt lat="43.59572" lon="2.96168">
        <ele>1039.5</ele>
        <time>2026-05-07T10:35:40.999Z</time>
      </trkpt>
      <trkpt lat="43.59572" lon="2.96167">
        <ele>1039.4</ele>
        <time>2026-05-07T10:35:41.999Z</time>
      </trkpt>
      <trkpt lat="43.59572" lon="2.96167">
        <ele>1039.4</ele>
        <time>2026-05-07T10:35:42.999Z</time>
      </trkpt>
      <trkpt lat="43.59571" lon="2.96167">
        <ele>1039.4</ele>
        <time>2026-05-07T10:35:43.999Z</time>
      </trkpt>
      <trkpt lat="43.5957" lon="2.96167">
        <ele>1039.5</ele>
        <time>2026-05-07T10:35:44.999Z</time>
      </trkpt>
      <trkpt lat="43.59571" lon="2.96167">
        <ele>1039.6</ele>
        <time>2026-05-07T10:35:45.999Z</time>
      </trkpt>
      <trkpt lat="43.59571" lon="2.96167">
        <ele>1039.9</ele>
        <time>2026-05-07T10:35:46.999Z</time>
      </trkpt>
      <trkpt lat="43.59571" lon="2.96166">
        <ele>1040.2</ele>
        <time>2026-05-07T10:35:47.999Z</time>
      </trkpt>
      <trkpt lat="43.59571" lon="2.96166">
        <ele>1040.6</ele>
        <time>2026-05-07T10:35:48.999Z</time>
      </trkpt>
      <trkpt lat="43.59571" lon="2.96166">
        <ele>1041.1</ele>
        <time>2026-05-07T10:35:49.999Z</time>
      </trkpt>
      <trkpt lat="43.59571" lon="2.96166">
        <ele>1041.3</ele>
        <time>2026-05-07T10:35:50.999Z</time>
      </trkpt>
      <trkpt lat="43.59571" lon="2.96166">
        <ele>1041.7</ele>
        <time>2026-05-07T10:35:51.999Z</time>
      </trkpt>
      <trkpt lat="43.59571" lon="2.96166">
        <ele>1041.9</ele>
        <time>2026-05-07T10:35:52.999Z</time>
      </trkpt>
      <trkpt lat="43.59571" lon="2.96167">
        <ele>1041.8</ele>
        <time>2026-05-07T10:35:53.999Z</time>
      </trkpt>
      <trkpt lat="43.59571" lon="2.96167">
        <ele>1041.8</ele>
        <time>2026-05-07T10:35:54.999Z</time>
      </trkpt>
      <trkpt lat="43.59571" lon="2.96166">
        <ele>1042.1</ele>
        <time>2026-05-07T10:35:55.999Z</time>
      </trkpt>
      <trkpt lat="43.59571" lon="2.96166">
        <ele>1042.1</ele>
        <time>2026-05-07T10:35:56.999Z</time>
      </trkpt>
      <trkpt lat="43.59572" lon="2.96166">
        <ele>1042.1</ele>
        <time>2026-05-07T10:35:57.999Z</time>
      </trkpt>
      <trkpt lat="43.59571" lon="2.96167">
        <ele>1042.1</ele>
        <time>2026-05-07T10:35:58.999Z</time>
      </trkpt>
      <trkpt lat="43.59571" lon="2.96167">
        <ele>1042</ele>
        <time>2026-05-07T10:35:59.999Z</time>
      </trkpt>
      <trkpt lat="43.59571" lon="2.9617">
        <ele>1042.2</ele>
        <time>2026-05-07T10:36:01.999Z</time>
      </trkpt>
      <trkpt lat="43.59571" lon="2.9617">
        <ele>1042.4</ele>
        <time>2026-05-07T10:36:02.999Z</time>
      </trkpt>
      <trkpt lat="43.59572" lon="2.9617">
        <ele>1042.3</ele>
        <time>2026-05-07T10:36:03.999Z</time>
      </trkpt>
      <trkpt lat="43.59572" lon="2.96169">
        <ele>1042</ele>
        <time>2026-05-07T10:36:04.999Z</time>
      </trkpt>
      <trkpt lat="43.59572" lon="2.96169">
        <ele>1041.9</ele>
        <time>2026-05-07T10:36:05.999Z</time>
      </trkpt>
      <trkpt lat="43.59571" lon="2.96169">
        <ele>1041.8</ele>
        <time>2026-05-07T10:36:06.999Z</time>
      </trkpt>
      <trkpt lat="43.59571" lon="2.96169">
        <ele>1041.9</ele>
        <time>2026-05-07T10:36:07.999Z</time>
      </trkpt>
      <trkpt lat="43.59571" lon="2.9617">
        <ele>1041.8</ele>
        <time>2026-05-07T10:36:08.999Z</time>
      </trkpt>
      <trkpt lat="43.5957" lon="2.9617">
        <ele>1041.8</ele>
        <time>2026-05-07T10:36:09.999Z</time>
      </trkpt>
      <trkpt lat="43.5957" lon="2.9617">
        <ele>1041.5</ele>
        <time>2026-05-07T10:36:10.999Z</time>
      </trkpt>
      <trkpt lat="43.5957" lon="2.9617">
        <ele>1041.9</ele>
        <time>2026-05-07T10:36:11.999Z</time>
      </trkpt>
      <trkpt lat="43.5957" lon="2.96169">
        <ele>1042.1</ele>
        <time>2026-05-07T10:36:12.999Z</time>
      </trkpt>
      <trkpt lat="43.59569" lon="2.96168">
        <ele>1042.4</ele>
        <time>2026-05-07T10:36:13.999Z</time>
      </trkpt>
      <trkpt lat="43.59568" lon="2.96168">
        <ele>1042.6</ele>
        <time>2026-05-07T10:36:14.999Z</time>
      </trkpt>
      <trkpt lat="43.59568" lon="2.96167">
        <ele>1042.5</ele>
        <time>2026-05-07T10:36:15.999Z</time>
      </trkpt>
      <trkpt lat="43.59569" lon="2.96165">
        <ele>1042.5</ele>
        <time>2026-05-07T10:36:16.999Z</time>
      </trkpt>
      <trkpt lat="43.59569" lon="2.96164">
        <ele>1043.2</ele>
        <time>2026-05-07T10:36:17.999Z</time>
      </trkpt>
      <trkpt lat="43.5957" lon="2.96164">
        <ele>1043.8</ele>
        <time>2026-05-07T10:36:18.999Z</time>
      </trkpt>
      <trkpt lat="43.59569" lon="2.96162">
        <ele>1044.3</ele>
        <time>2026-05-07T10:36:19.999Z</time>
      </trkpt>
      <trkpt lat="43.59569" lon="2.96161">
        <ele>1044.9</ele>
        <time>2026-05-07T10:36:20.999Z</time>
      </trkpt>
      <trkpt lat="43.59569" lon="2.96161">
        <ele>1045.8</ele>
        <time>2026-05-07T10:36:21.999Z</time>
      </trkpt>
      <trkpt lat="43.59569" lon="2.96162">
        <ele>1044.9</ele>
        <time>2026-05-07T10:36:22.999Z</time>
      </trkpt>
      <trkpt lat="43.59569" lon="2.96162">
        <ele>1044.8</ele>
        <time>2026-05-07T10:36:23.999Z</time>
      </trkpt>
      <trkpt lat="43.59568" lon="2.96163">
        <ele>1045.3</ele>
        <time>2026-05-07T10:36:24.999Z</time>
      </trkpt>
      <trkpt lat="43.59568" lon="2.96165">
        <ele>1046.5</ele>
        <time>2026-05-07T10:36:25.999Z</time>
      </trkpt>
      <trkpt lat="43.59569" lon="2.96167">
        <ele>1047.2</ele>
        <time>2026-05-07T10:36:26.999Z</time>
      </trkpt>
      <trkpt lat="43.59569" lon="2.96168">
        <ele>1047.3</ele>
        <time>2026-05-07T10:36:27.999Z</time>
      </trkpt>
      <trkpt lat="43.5957" lon="2.96169">
        <ele>1047.5</ele>
        <time>2026-05-07T10:36:28.999Z</time>
      </trkpt>
      <trkpt lat="43.5957" lon="2.9617">
        <ele>1047.7</ele>
        <time>2026-05-07T10:36:29.999Z</time>
      </trkpt>
      <trkpt lat="43.59571" lon="2.96171">
        <ele>1047.6</ele>
        <time>2026-05-07T10:36:30.999Z</time>
      </trkpt>
      <trkpt lat="43.59571" lon="2.96172">
        <ele>1047.1</ele>
        <time>2026-05-07T10:36:31.999Z</time>
      </trkpt>
      <trkpt lat="43.59573" lon="2.96173">
        <ele>1047.6</ele>
        <time>2026-05-07T10:36:32.999Z</time>
      </trkpt>
      <trkpt lat="43.59574" lon="2.96173">
        <ele>1047.9</ele>
        <time>2026-05-07T10:36:33.999Z</time>
      </trkpt>
      <trkpt lat="43.59575" lon="2.96173">
        <ele>1048.2</ele>
        <time>2026-05-07T10:36:34.999Z</time>
      </trkpt>
      <trkpt lat="43.59575" lon="2.96173">
        <ele>1047.9</ele>
        <time>2026-05-07T10:36:35.999Z</time>
      </trkpt>
      <trkpt lat="43.59575" lon="2.96174">
        <ele>1047.8</ele>
        <time>2026-05-07T10:36:37.999Z</time>
      </trkpt>
      <trkpt lat="43.59575" lon="2.96173">
        <ele>1049.2</ele>
        <time>2026-05-07T10:36:38.999Z</time>
      </trkpt>
      <trkpt lat="43.59575" lon="2.96173">
        <ele>1049.9</ele>
        <time>2026-05-07T10:36:39.999Z</time>
      </trkpt>
      <trkpt lat="43.59575" lon="2.96174">
        <ele>1050</ele>
        <time>2026-05-07T10:36:40.999Z</time>
      </trkpt>
      <trkpt lat="43.59575" lon="2.96175">
        <ele>1050.1</ele>
        <time>2026-05-07T10:36:41.999Z</time>
      </trkpt>
      <trkpt lat="43.59574" lon="2.96176">
        <ele>1050.5</ele>
        <time>2026-05-07T10:36:42.999Z</time>
      </trkpt>
      <trkpt lat="43.59574" lon="2.96176">
        <ele>1051.7</ele>
        <time>2026-05-07T10:36:43.999Z</time>
      </trkpt>
      <trkpt lat="43.59574" lon="2.96177">
        <ele>1052.9</ele>
        <time>2026-05-07T10:36:44.999Z</time>
      </trkpt>
      <trkpt lat="43.59574" lon="2.96177">
        <ele>1053.1</ele>
        <time>2026-05-07T10:36:45.999Z</time>
      </trkpt>
      <trkpt lat="43.59573" lon="2.96178">
        <ele>1053.3</ele>
        <time>2026-05-07T10:36:46.999Z</time>
      </trkpt>
      <trkpt lat="43.59573" lon="2.96178">
        <ele>1053.2</ele>
        <time>2026-05-07T10:36:47.999Z</time>
      </trkpt>
      <trkpt lat="43.59574" lon="2.96178">
        <ele>1053.4</ele>
        <time>2026-05-07T10:36:48.999Z</time>
      </trkpt>
      <trkpt lat="43.59574" lon="2.96178">
        <ele>1053.5</ele>
        <time>2026-05-07T10:36:49.999Z</time>
      </trkpt>
      <trkpt lat="43.59574" lon="2.96178">
        <ele>1053.7</ele>
        <time>2026-05-07T10:36:50.999Z</time>
      </trkpt>
      <trkpt lat="43.59574" lon="2.96178">
        <ele>1053.8</ele>
        <time>2026-05-07T10:36:51.999Z</time>
      </trkpt>
      <trkpt lat="43.59574" lon="2.96178">
        <ele>1053.8</ele>
        <time>2026-05-07T10:36:52.999Z</time>
      </trkpt>
      <trkpt lat="43.59574" lon="2.96179">
        <ele>1053.6</ele>
        <time>2026-05-07T10:36:53.999Z</time>
      </trkpt>
      <trkpt lat="43.59574" lon="2.96179">
        <ele>1053.4</ele>
        <time>2026-05-07T10:36:54.999Z</time>
      </trkpt>
      <trkpt lat="43.59574" lon="2.96179">
        <ele>1053.4</ele>
        <time>2026-05-07T10:36:55.999Z</time>
      </trkpt>
      <trkpt lat="43.59574" lon="2.96179">
        <ele>1053.3</ele>
        <time>2026-05-07T10:36:56.999Z</time>
      </trkpt>
      <trkpt lat="43.59574" lon="2.96179">
        <ele>1053.4</ele>
        <time>2026-05-07T10:36:57.999Z</time>
      </trkpt>
      <trkpt lat="43.59574" lon="2.96179">
        <ele>1053.7</ele>
        <time>2026-05-07T10:36:58.999Z</time>
      </trkpt>
      <trkpt lat="43.59574" lon="2.9618">
        <ele>1053.9</ele>
        <time>2026-05-07T10:36:59.999Z</time>
      </trkpt>
      <trkpt lat="43.59574" lon="2.9618">
        <ele>1054</ele>
        <time>2026-05-07T10:37:00.999Z</time>
      </trkpt>
      <trkpt lat="43.59573" lon="2.96182">
        <ele>1054.5</ele>
        <time>2026-05-07T10:37:01.999Z</time>
      </trkpt>
      <trkpt lat="43.59573" lon="2.96183">
        <ele>1055.1</ele>
        <time>2026-05-07T10:37:02.999Z</time>
      </trkpt>
      <trkpt lat="43.59574" lon="2.96184">
        <ele>1055.6</ele>
        <time>2026-05-07T10:37:03.999Z</time>
      </trkpt>
      <trkpt lat="43.59575" lon="2.96184">
        <ele>1056.3</ele>
        <time>2026-05-07T10:37:04.999Z</time>
      </trkpt>
      <trkpt lat="43.59576" lon="2.96185">
        <ele>1056.9</ele>
        <time>2026-05-07T10:37:05.999Z</time>
      </trkpt>
      <trkpt lat="43.59577" lon="2.96185">
        <ele>1057.1</ele>
        <time>2026-05-07T10:37:06.999Z</time>
      </trkpt>
      <trkpt lat="43.59576" lon="2.96184">
        <ele>1057.1</ele>
        <time>2026-05-07T10:37:07.999Z</time>
      </trkpt>
      <trkpt lat="43.59577" lon="2.96185">
        <ele>1057.3</ele>
        <time>2026-05-07T10:37:08.999Z</time>
      </trkpt>
      <trkpt lat="43.59578" lon="2.96187">
        <ele>1057.7</ele>
        <time>2026-05-07T10:37:09.999Z</time>
      </trkpt>
      <trkpt lat="43.59579" lon="2.96187">
        <ele>1057.7</ele>
        <time>2026-05-07T10:37:10.999Z</time>
      </trkpt>
      <trkpt lat="43.5958" lon="2.96187">
        <ele>1057.7</ele>
        <time>2026-05-07T10:37:11.999Z</time>
      </trkpt>
      <trkpt lat="43.59579" lon="2.96186">
        <ele>1058.6</ele>
        <time>2026-05-07T10:37:12.999Z</time>
      </trkpt>
      <trkpt lat="43.59579" lon="2.96185">
        <ele>1059.2</ele>
        <time>2026-05-07T10:37:13.999Z</time>
      </trkpt>
      <trkpt lat="43.59579" lon="2.96183">
        <ele>1059.3</ele>
        <time>2026-05-07T10:37:14.999Z</time>
      </trkpt>
      <trkpt lat="43.59578" lon="2.96182">
        <ele>1059.3</ele>
        <time>2026-05-07T10:37:15.999Z</time>
      </trkpt>
      <trkpt lat="43.59579" lon="2.96182">
        <ele>1059.3</ele>
        <time>2026-05-07T10:37:16.999Z</time>
      </trkpt>
      <trkpt lat="43.59579" lon="2.96181">
        <ele>1059.6</ele>
        <time>2026-05-07T10:37:17.999Z</time>
      </trkpt>
      <trkpt lat="43.59578" lon="2.96182">
        <ele>1059.7</ele>
        <time>2026-05-07T10:37:18.999Z</time>
      </trkpt>
      <trkpt lat="43.59578" lon="2.96182">
        <ele>1059.9</ele>
        <time>2026-05-07T10:37:19.999Z</time>
      </trkpt>
      <trkpt lat="43.59578" lon="2.96183">
        <ele>1060.3</ele>
        <time>2026-05-07T10:37:20.999Z</time>
      </trkpt>
      <trkpt lat="43.59579" lon="2.96183">
        <ele>1060.5</ele>
        <time>2026-05-07T10:37:21.999Z</time>
      </trkpt>
      <trkpt lat="43.59578" lon="2.96184">
        <ele>1060.8</ele>
        <time>2026-05-07T10:37:22.999Z</time>
      </trkpt>
      <trkpt lat="43.59578" lon="2.96185">
        <ele>1060.7</ele>
        <time>2026-05-07T10:37:23.999Z</time>
      </trkpt>
      <trkpt lat="43.59578" lon="2.96186">
        <ele>1060.8</ele>
        <time>2026-05-07T10:37:24.999Z</time>
      </trkpt>
      <trkpt lat="43.59577" lon="2.96186">
        <ele>1060.4</ele>
        <time>2026-05-07T10:37:25.999Z</time>
      </trkpt>
      <trkpt lat="43.59576" lon="2.96186">
        <ele>1060.4</ele>
        <time>2026-05-07T10:37:26.999Z</time>
      </trkpt>
      <trkpt lat="43.59575" lon="2.96185">
        <ele>1060.4</ele>
        <time>2026-05-07T10:37:27.999Z</time>
      </trkpt>
      <trkpt lat="43.59575" lon="2.96185">
        <ele>1059.5</ele>
        <time>2026-05-07T10:37:28.999Z</time>
      </trkpt>
      <trkpt lat="43.59575" lon="2.96185">
        <ele>1059.5</ele>
        <time>2026-05-07T10:37:29.999Z</time>
      </trkpt>
      <trkpt lat="43.59575" lon="2.96185">
        <ele>1059.2</ele>
        <time>2026-05-07T10:37:31.999Z</time>
      </trkpt>
      <trkpt lat="43.59576" lon="2.96184">
        <ele>1059.2</ele>
        <time>2026-05-07T10:37:32.999Z</time>
      </trkpt>
      <trkpt lat="43.59576" lon="2.96183">
        <ele>1059.3</ele>
        <time>2026-05-07T10:37:33.999Z</time>
      </trkpt>
      <trkpt lat="43.59575" lon="2.96184">
        <ele>1059.4</ele>
        <time>2026-05-07T10:37:34.999Z</time>
      </trkpt>
      <trkpt lat="43.59576" lon="2.96184">
        <ele>1059.6</ele>
        <time>2026-05-07T10:37:35.999Z</time>
      </trkpt>
      <trkpt lat="43.59576" lon="2.96183">
        <ele>1060</ele>
        <time>2026-05-07T10:37:36.999Z</time>
      </trkpt>
      <trkpt lat="43.59576" lon="2.96183">
        <ele>1059.8</ele>
        <time>2026-05-07T10:37:37.999Z</time>
      </trkpt>
      <trkpt lat="43.59576" lon="2.96184">
        <ele>1059.4</ele>
        <time>2026-05-07T10:37:38.999Z</time>
      </trkpt>
      <trkpt lat="43.59575" lon="2.96185">
        <ele>1059</ele>
        <time>2026-05-07T10:37:39.999Z</time>
      </trkpt>
      <trkpt lat="43.59574" lon="2.96185">
        <ele>1058.6</ele>
        <time>2026-05-07T10:37:40.999Z</time>
      </trkpt>
      <trkpt lat="43.59573" lon="2.96185">
        <ele>1059</ele>
        <time>2026-05-07T10:37:41.999Z</time>
      </trkpt>
      <trkpt lat="43.59573" lon="2.96185">
        <ele>1058.3</ele>
        <time>2026-05-07T10:37:42.999Z</time>
      </trkpt>
      <trkpt lat="43.59572" lon="2.96186">
        <ele>1058.5</ele>
        <time>2026-05-07T10:37:43.999Z</time>
      </trkpt>
      <trkpt lat="43.59571" lon="2.96187">
        <ele>1058.4</ele>
        <time>2026-05-07T10:37:44.999Z</time>
      </trkpt>
      <trkpt lat="43.59571" lon="2.96187">
        <ele>1058.6</ele>
        <time>2026-05-07T10:37:45.999Z</time>
      </trkpt>
      <trkpt lat="43.59572" lon="2.96188">
        <ele>1058.8</ele>
        <time>2026-05-07T10:37:46.999Z</time>
      </trkpt>
      <trkpt lat="43.59571" lon="2.96189">
        <ele>1057.8</ele>
        <time>2026-05-07T10:37:47.999Z</time>
      </trkpt>
      <trkpt lat="43.59572" lon="2.96188">
        <ele>1059.5</ele>
        <time>2026-05-07T10:37:48.999Z</time>
      </trkpt>
      <trkpt lat="43.59573" lon="2.96188">
        <ele>1059.3</ele>
        <time>2026-05-07T10:37:49.999Z</time>
      </trkpt>
      <trkpt lat="43.59574" lon="2.96188">
        <ele>1059.3</ele>
        <time>2026-05-07T10:37:50.999Z</time>
      </trkpt>
      <trkpt lat="43.59574" lon="2.96189">
        <ele>1059.2</ele>
        <time>2026-05-07T10:37:51.999Z</time>
      </trkpt>
      <trkpt lat="43.59574" lon="2.9619">
        <ele>1059.3</ele>
        <time>2026-05-07T10:37:52.999Z</time>
      </trkpt>
      <trkpt lat="43.59574" lon="2.9619">
        <ele>1059.1</ele>
        <time>2026-05-07T10:37:53.999Z</time>
      </trkpt>
      <trkpt lat="43.59574" lon="2.9619">
        <ele>1059.4</ele>
        <time>2026-05-07T10:37:54.999Z</time>
      </trkpt>
      <trkpt lat="43.59574" lon="2.9619">
        <ele>1060</ele>
        <time>2026-05-07T10:37:55.999Z</time>
      </trkpt>
      <trkpt lat="43.59573" lon="2.96191">
        <ele>1060.5</ele>
        <time>2026-05-07T10:37:56.999Z</time>
      </trkpt>
      <trkpt lat="43.59573" lon="2.96193">
        <ele>1060.8</ele>
        <time>2026-05-07T10:37:57.999Z</time>
      </trkpt>
      <trkpt lat="43.59573" lon="2.96194">
        <ele>1061.5</ele>
        <time>2026-05-07T10:37:58.999Z</time>
      </trkpt>
      <trkpt lat="43.59573" lon="2.96194">
        <ele>1062.1</ele>
        <time>2026-05-07T10:37:59.999Z</time>
      </trkpt>
      <trkpt lat="43.59573" lon="2.96194">
        <ele>1062.8</ele>
        <time>2026-05-07T10:38:00.999Z</time>
      </trkpt>
      <trkpt lat="43.59573" lon="2.96193">
        <ele>1063.6</ele>
        <time>2026-05-07T10:38:01.999Z</time>
      </trkpt>
      <trkpt lat="43.59573" lon="2.96192">
        <ele>1063.9</ele>
        <time>2026-05-07T10:38:02.999Z</time>
      </trkpt>
      <trkpt lat="43.59573" lon="2.9619">
        <ele>1064</ele>
        <time>2026-05-07T10:38:03.999Z</time>
      </trkpt>
      <trkpt lat="43.59573" lon="2.96189">
        <ele>1064.4</ele>
        <time>2026-05-07T10:38:04.999Z</time>
      </trkpt>
      <trkpt lat="43.59573" lon="2.96189">
        <ele>1064.1</ele>
        <time>2026-05-07T10:38:05.999Z</time>
      </trkpt>
      <trkpt lat="43.59573" lon="2.96189">
        <ele>1063.8</ele>
        <time>2026-05-07T10:38:06.999Z</time>
      </trkpt>
      <trkpt lat="43.59572" lon="2.96189">
        <ele>1063.1</ele>
        <time>2026-05-07T10:38:07.999Z</time>
      </trkpt>
      <trkpt lat="43.59572" lon="2.9619">
        <ele>1062.6</ele>
        <time>2026-05-07T10:38:08.999Z</time>
      </trkpt>
      <trkpt lat="43.59572" lon="2.96191">
        <ele>1061.6</ele>
        <time>2026-05-07T10:38:09.999Z</time>
      </trkpt>
      <trkpt lat="43.59572" lon="2.96191">
        <ele>1061.2</ele>
        <time>2026-05-07T10:38:10.999Z</time>
      </trkpt>
      <trkpt lat="43.59572" lon="2.96191">
        <ele>1059.7</ele>
        <time>2026-05-07T10:38:11.999Z</time>
      </trkpt>
      <trkpt lat="43.59572" lon="2.96191">
        <ele>1059</ele>
        <time>2026-05-07T10:38:12.999Z</time>
      </trkpt>
      <trkpt lat="43.59572" lon="2.96191">
        <ele>1058.5</ele>
        <time>2026-05-07T10:38:13.999Z</time>
      </trkpt>
      <trkpt lat="43.59572" lon="2.96192">
        <ele>1058.4</ele>
        <time>2026-05-07T10:38:14.999Z</time>
      </trkpt>
      <trkpt lat="43.59572" lon="2.96192">
        <ele>1058.4</ele>
        <time>2026-05-07T10:38:15.999Z</time>
      </trkpt>
      <trkpt lat="43.59572" lon="2.96192">
        <ele>1058.2</ele>
        <time>2026-05-07T10:38:16.999Z</time>
      </trkpt>
      <trkpt lat="43.59572" lon="2.96192">
        <ele>1058.6</ele>
        <time>2026-05-07T10:38:18.999Z</time>
      </trkpt>
      <trkpt lat="43.59572" lon="2.96192">
        <ele>1059.1</ele>
        <time>2026-05-07T10:38:19.999Z</time>
      </trkpt>
      <trkpt lat="43.59572" lon="2.96193">
        <ele>1059.3</ele>
        <time>2026-05-07T10:38:20.999Z</time>
      </trkpt>
      <trkpt lat="43.59572" lon="2.96193">
        <ele>1059.5</ele>
        <time>2026-05-07T10:38:21.999Z</time>
      </trkpt>
      <trkpt lat="43.59572" lon="2.96192">
        <ele>1059.8</ele>
        <time>2026-05-07T10:38:22.999Z</time>
      </trkpt>
      <trkpt lat="43.59572" lon="2.96192">
        <ele>1060</ele>
        <time>2026-05-07T10:38:23.999Z</time>
      </trkpt>
      <trkpt lat="43.59572" lon="2.96191">
        <ele>1060.2</ele>
        <time>2026-05-07T10:38:24.999Z</time>
      </trkpt>
      <trkpt lat="43.59572" lon="2.96191">
        <ele>1060.4</ele>
        <time>2026-05-07T10:38:25.999Z</time>
      </trkpt>
      <trkpt lat="43.59572" lon="2.9619">
        <ele>1060.3</ele>
        <time>2026-05-07T10:38:26.999Z</time>
      </trkpt>
      <trkpt lat="43.59571" lon="2.9619">
        <ele>1060.3</ele>
        <time>2026-05-07T10:38:27.999Z</time>
      </trkpt>
      <trkpt lat="43.59571" lon="2.96189">
        <ele>1060.4</ele>
        <time>2026-05-07T10:38:28.999Z</time>
      </trkpt>
      <trkpt lat="43.59571" lon="2.9619">
        <ele>1060.4</ele>
        <time>2026-05-07T10:38:29.999Z</time>
      </trkpt>
      <trkpt lat="43.59571" lon="2.96189">
        <ele>1060.2</ele>
        <time>2026-05-07T10:38:30.999Z</time>
      </trkpt>
      <trkpt lat="43.59571" lon="2.96189">
        <ele>1060.3</ele>
        <time>2026-05-07T10:38:31.999Z</time>
      </trkpt>
      <trkpt lat="43.5957" lon="2.96189">
        <ele>1060.6</ele>
        <time>2026-05-07T10:38:32.999Z</time>
      </trkpt>
      <trkpt lat="43.5957" lon="2.96188">
        <ele>1061.1</ele>
        <time>2026-05-07T10:38:33.999Z</time>
      </trkpt>
      <trkpt lat="43.5957" lon="2.96189">
        <ele>1061.1</ele>
        <time>2026-05-07T10:38:34.999Z</time>
      </trkpt>
      <trkpt lat="43.59569" lon="2.9619">
        <ele>1061.1</ele>
        <time>2026-05-07T10:38:35.999Z</time>
      </trkpt>
      <trkpt lat="43.59569" lon="2.9619">
        <ele>1061.2</ele>
        <time>2026-05-07T10:38:36.999Z</time>
      </trkpt>
      <trkpt lat="43.59569" lon="2.9619">
        <ele>1061.4</ele>
        <time>2026-05-07T10:38:37.999Z</time>
      </trkpt>
      <trkpt lat="43.59569" lon="2.96191">
        <ele>1061.6</ele>
        <time>2026-05-07T10:38:38.999Z</time>
      </trkpt>
      <trkpt lat="43.59568" lon="2.96192">
        <ele>1061.8</ele>
        <time>2026-05-07T10:38:39.999Z</time>
      </trkpt>
      <trkpt lat="43.59567" lon="2.96194">
        <ele>1062</ele>
        <time>2026-05-07T10:38:40.999Z</time>
      </trkpt>
      <trkpt lat="43.59567" lon="2.96195">
        <ele>1061.9</ele>
        <time>2026-05-07T10:38:41.999Z</time>
      </trkpt>
      <trkpt lat="43.59567" lon="2.96196">
        <ele>1062.4</ele>
        <time>2026-05-07T10:38:42.999Z</time>
      </trkpt>
      <trkpt lat="43.59567" lon="2.96196">
        <ele>1063</ele>
        <time>2026-05-07T10:38:43.999Z</time>
      </trkpt>
      <trkpt lat="43.59567" lon="2.96195">
        <ele>1063.4</ele>
        <time>2026-05-07T10:38:44.999Z</time>
      </trkpt>
      <trkpt lat="43.59566" lon="2.96195">
        <ele>1063.7</ele>
        <time>2026-05-07T10:38:45.999Z</time>
      </trkpt>
      <trkpt lat="43.59566" lon="2.96195">
        <ele>1064.1</ele>
        <time>2026-05-07T10:38:46.999Z</time>
      </trkpt>
      <trkpt lat="43.59565" lon="2.96195">
        <ele>1064</ele>
        <time>2026-05-07T10:38:47.999Z</time>
      </trkpt>
      <trkpt lat="43.59565" lon="2.96195">
        <ele>1064.1</ele>
        <time>2026-05-07T10:38:48.999Z</time>
      </trkpt>
      <trkpt lat="43.59565" lon="2.96196">
        <ele>1064.8</ele>
        <time>2026-05-07T10:38:49.999Z</time>
      </trkpt>
      <trkpt lat="43.59565" lon="2.96198">
        <ele>1065.7</ele>
        <time>2026-05-07T10:38:50.999Z</time>
      </trkpt>
      <trkpt lat="43.59564" lon="2.96199">
        <ele>1066.7</ele>
        <time>2026-05-07T10:38:51.999Z</time>
      </trkpt>
      <trkpt lat="43.59565" lon="2.962">
        <ele>1067.6</ele>
        <time>2026-05-07T10:38:52.999Z</time>
      </trkpt>
      <trkpt lat="43.59565" lon="2.96201">
        <ele>1068.3</ele>
        <time>2026-05-07T10:38:53.999Z</time>
      </trkpt>
      <trkpt lat="43.59566" lon="2.96203">
        <ele>1068.7</ele>
        <time>2026-05-07T10:38:54.999Z</time>
      </trkpt>
      <trkpt lat="43.59567" lon="2.96204">
        <ele>1069.1</ele>
        <time>2026-05-07T10:38:55.999Z</time>
      </trkpt>
      <trkpt lat="43.59568" lon="2.96204">
        <ele>1069.6</ele>
        <time>2026-05-07T10:38:56.999Z</time>
      </trkpt>
      <trkpt lat="43.59568" lon="2.96204">
        <ele>1070.2</ele>
        <time>2026-05-07T10:38:57.999Z</time>
      </trkpt>
      <trkpt lat="43.59568" lon="2.96204">
        <ele>1070.9</ele>
        <time>2026-05-07T10:38:58.999Z</time>
      </trkpt>
      <trkpt lat="43.59568" lon="2.96204">
        <ele>1071</ele>
        <time>2026-05-07T10:38:59.999Z</time>
      </trkpt>
      <trkpt lat="43.59568" lon="2.96204">
        <ele>1070.9</ele>
        <time>2026-05-07T10:39:00.999Z</time>
      </trkpt>
      <trkpt lat="43.59568" lon="2.96204">
        <ele>1071.4</ele>
        <time>2026-05-07T10:39:02.999Z</time>
      </trkpt>
      <trkpt lat="43.59568" lon="2.96204">
        <ele>1071.6</ele>
        <time>2026-05-07T10:39:03.999Z</time>
      </trkpt>
      <trkpt lat="43.59568" lon="2.96205">
        <ele>1071.9</ele>
        <time>2026-05-07T10:39:04.999Z</time>
      </trkpt>
      <trkpt lat="43.59568" lon="2.96206">
        <ele>1071.9</ele>
        <time>2026-05-07T10:39:05.999Z</time>
      </trkpt>
      <trkpt lat="43.59569" lon="2.96207">
        <ele>1072.1</ele>
        <time>2026-05-07T10:39:06.999Z</time>
      </trkpt>
      <trkpt lat="43.59569" lon="2.96208">
        <ele>1072.4</ele>
        <time>2026-05-07T10:39:07.999Z</time>
      </trkpt>
      <trkpt lat="43.59569" lon="2.96209">
        <ele>1072.4</ele>
        <time>2026-05-07T10:39:08.999Z</time>
      </trkpt>
      <trkpt lat="43.59569" lon="2.9621">
        <ele>1072.6</ele>
        <time>2026-05-07T10:39:09.999Z</time>
      </trkpt>
      <trkpt lat="43.59569" lon="2.9621">
        <ele>1073</ele>
        <time>2026-05-07T10:39:10.999Z</time>
      </trkpt>
      <trkpt lat="43.59569" lon="2.9621">
        <ele>1073.6</ele>
        <time>2026-05-07T10:39:11.999Z</time>
      </trkpt>
      <trkpt lat="43.59568" lon="2.96211">
        <ele>1073.6</ele>
        <time>2026-05-07T10:39:12.999Z</time>
      </trkpt>
      <trkpt lat="43.59567" lon="2.96211">
        <ele>1073.4</ele>
        <time>2026-05-07T10:39:13.999Z</time>
      </trkpt>
      <trkpt lat="43.59567" lon="2.96212">
        <ele>1073</ele>
        <time>2026-05-07T10:39:14.999Z</time>
      </trkpt>
      <trkpt lat="43.59566" lon="2.96212">
        <ele>1072.7</ele>
        <time>2026-05-07T10:39:15.999Z</time>
      </trkpt>
      <trkpt lat="43.59567" lon="2.96212">
        <ele>1072.7</ele>
        <time>2026-05-07T10:39:16.999Z</time>
      </trkpt>
      <trkpt lat="43.59567" lon="2.96213">
        <ele>1072.7</ele>
        <time>2026-05-07T10:39:17.999Z</time>
      </trkpt>
      <trkpt lat="43.59567" lon="2.96213">
        <ele>1072.4</ele>
        <time>2026-05-07T10:39:18.999Z</time>
      </trkpt>
      <trkpt lat="43.59567" lon="2.96213">
        <ele>1073</ele>
        <time>2026-05-07T10:39:19.999Z</time>
      </trkpt>
      <trkpt lat="43.59567" lon="2.96213">
        <ele>1072.8</ele>
        <time>2026-05-07T10:39:20.999Z</time>
      </trkpt>
      <trkpt lat="43.59567" lon="2.96215">
        <ele>1072.6</ele>
        <time>2026-05-07T10:39:21.999Z</time>
      </trkpt>
      <trkpt lat="43.59567" lon="2.96216">
        <ele>1072.5</ele>
        <time>2026-05-07T10:39:22.999Z</time>
      </trkpt>
      <trkpt lat="43.59566" lon="2.96216">
        <ele>1072.1</ele>
        <time>2026-05-07T10:39:23.999Z</time>
      </trkpt>
      <trkpt lat="43.59565" lon="2.96216">
        <ele>1072</ele>
        <time>2026-05-07T10:39:24.999Z</time>
      </trkpt>
      <trkpt lat="43.59565" lon="2.96216">
        <ele>1072</ele>
        <time>2026-05-07T10:39:25.999Z</time>
      </trkpt>
      <trkpt lat="43.59565" lon="2.96216">
        <ele>1072</ele>
        <time>2026-05-07T10:39:26.999Z</time>
      </trkpt>
      <trkpt lat="43.59565" lon="2.96216">
        <ele>1072.1</ele>
        <time>2026-05-07T10:39:27.999Z</time>
      </trkpt>
      <trkpt lat="43.59565" lon="2.96217">
        <ele>1071.9</ele>
        <time>2026-05-07T10:39:28.999Z</time>
      </trkpt>
      <trkpt lat="43.59564" lon="2.96217">
        <ele>1071.6</ele>
        <time>2026-05-07T10:39:29.999Z</time>
      </trkpt>
      <trkpt lat="43.59564" lon="2.96218">
        <ele>1071.4</ele>
        <time>2026-05-07T10:39:30.999Z</time>
      </trkpt>
      <trkpt lat="43.59564" lon="2.96219">
        <ele>1071.2</ele>
        <time>2026-05-07T10:39:31.999Z</time>
      </trkpt>
      <trkpt lat="43.59564" lon="2.96219">
        <ele>1071.2</ele>
        <time>2026-05-07T10:39:32.999Z</time>
      </trkpt>
      <trkpt lat="43.59563" lon="2.96219">
        <ele>1070.8</ele>
        <time>2026-05-07T10:39:33.999Z</time>
      </trkpt>
      <trkpt lat="43.59563" lon="2.96219">
        <ele>1070.4</ele>
        <time>2026-05-07T10:39:34.999Z</time>
      </trkpt>
      <trkpt lat="43.59563" lon="2.96219">
        <ele>1070</ele>
        <time>2026-05-07T10:39:35.999Z</time>
      </trkpt>
      <trkpt lat="43.59562" lon="2.96219">
        <ele>1069.4</ele>
        <time>2026-05-07T10:39:36.999Z</time>
      </trkpt>
      <trkpt lat="43.59559" lon="2.96219">
        <ele>1068.5</ele>
        <time>2026-05-07T10:39:37.999Z</time>
      </trkpt>
      <trkpt lat="43.59558" lon="2.96219">
        <ele>1067.8</ele>
        <time>2026-05-07T10:39:38.999Z</time>
      </trkpt>
      <trkpt lat="43.59557" lon="2.96219">
        <ele>1067</ele>
        <time>2026-05-07T10:39:39.999Z</time>
      </trkpt>
      <trkpt lat="43.59557" lon="2.96219">
        <ele>1066.4</ele>
        <time>2026-05-07T10:39:40.999Z</time>
      </trkpt>
      <trkpt lat="43.59557" lon="2.96218">
        <ele>1067.2</ele>
        <time>2026-05-07T10:39:41.999Z</time>
      </trkpt>
      <trkpt lat="43.59557" lon="2.96218">
        <ele>1066.9</ele>
        <time>2026-05-07T10:39:42.999Z</time>
      </trkpt>
      <trkpt lat="43.59557" lon="2.96219">
        <ele>1066.6</ele>
        <time>2026-05-07T10:39:43.999Z</time>
      </trkpt>
      <trkpt lat="43.59557" lon="2.96219">
        <ele>1066.4</ele>
        <time>2026-05-07T10:39:44.999Z</time>
      </trkpt>
      <trkpt lat="43.59557" lon="2.96219">
        <ele>1066.1</ele>
        <time>2026-05-07T10:39:45.999Z</time>
      </trkpt>
      <trkpt lat="43.59557" lon="2.96219">
        <ele>1066.1</ele>
        <time>2026-05-07T10:39:46.999Z</time>
      </trkpt>
      <trkpt lat="43.59557" lon="2.96219">
        <ele>1065.9</ele>
        <time>2026-05-07T10:39:47.999Z</time>
      </trkpt>
      <trkpt lat="43.59557" lon="2.96219">
        <ele>1065.6</ele>
        <time>2026-05-07T10:39:48.999Z</time>
      </trkpt>
      <trkpt lat="43.59557" lon="2.96221">
        <ele>1065.6</ele>
        <time>2026-05-07T10:39:49.999Z</time>
      </trkpt>
      <trkpt lat="43.59557" lon="2.96222">
        <ele>1065.8</ele>
        <time>2026-05-07T10:39:50.999Z</time>
      </trkpt>
      <trkpt lat="43.59557" lon="2.96222">
        <ele>1065.8</ele>
        <time>2026-05-07T10:39:51.999Z</time>
      </trkpt>
      <trkpt lat="43.59556" lon="2.96223">
        <ele>1066.9</ele>
        <time>2026-05-07T10:39:52.999Z</time>
      </trkpt>
      <trkpt lat="43.59556" lon="2.96223">
        <ele>1067.1</ele>
        <time>2026-05-07T10:39:53.999Z</time>
      </trkpt>
      <trkpt lat="43.59556" lon="2.96223">
        <ele>1067.1</ele>
        <time>2026-05-07T10:39:55.999Z</time>
      </trkpt>
      <trkpt lat="43.59556" lon="2.96223">
        <ele>1066.9</ele>
        <time>2026-05-07T10:39:56.999Z</time>
      </trkpt>
      <trkpt lat="43.59556" lon="2.96223">
        <ele>1066.9</ele>
        <time>2026-05-07T10:39:57.999Z</time>
      </trkpt>
      <trkpt lat="43.59556" lon="2.96224">
        <ele>1066.8</ele>
        <time>2026-05-07T10:39:58.999Z</time>
      </trkpt>
      <trkpt lat="43.59555" lon="2.96224">
        <ele>1066.7</ele>
        <time>2026-05-07T10:39:59.999Z</time>
      </trkpt>
      <trkpt lat="43.59555" lon="2.96224">
        <ele>1066.2</ele>
        <time>2026-05-07T10:40:00.999Z</time>
      </trkpt>
      <trkpt lat="43.59555" lon="2.96224">
        <ele>1065.9</ele>
        <time>2026-05-07T10:40:01.999Z</time>
      </trkpt>
      <trkpt lat="43.59555" lon="2.96225">
        <ele>1065.6</ele>
        <time>2026-05-07T10:40:02.999Z</time>
      </trkpt>
      <trkpt lat="43.59555" lon="2.96225">
        <ele>1065.7</ele>
        <time>2026-05-07T10:40:03.999Z</time>
      </trkpt>
      <trkpt lat="43.59555" lon="2.96225">
        <ele>1065.4</ele>
        <time>2026-05-07T10:40:04.999Z</time>
      </trkpt>
      <trkpt lat="43.59555" lon="2.96225">
        <ele>1065.4</ele>
        <time>2026-05-07T10:40:05.999Z</time>
      </trkpt>
      <trkpt lat="43.59555" lon="2.96227">
        <ele>1065.4</ele>
        <time>2026-05-07T10:40:06.999Z</time>
      </trkpt>
      <trkpt lat="43.59555" lon="2.96229">
        <ele>1065.1</ele>
        <time>2026-05-07T10:40:07.999Z</time>
      </trkpt>
      <trkpt lat="43.59555" lon="2.96229">
        <ele>1064.8</ele>
        <time>2026-05-07T10:40:08.999Z</time>
      </trkpt>
      <trkpt lat="43.59554" lon="2.96231">
        <ele>1064.3</ele>
        <time>2026-05-07T10:40:09.999Z</time>
      </trkpt>
      <trkpt lat="43.59554" lon="2.96232">
        <ele>1063.9</ele>
        <time>2026-05-07T10:40:10.999Z</time>
      </trkpt>
      <trkpt lat="43.59554" lon="2.96232">
        <ele>1063.6</ele>
        <time>2026-05-07T10:40:11.999Z</time>
      </trkpt>
      <trkpt lat="43.59553" lon="2.96232">
        <ele>1063.3</ele>
        <time>2026-05-07T10:40:12.999Z</time>
      </trkpt>
      <trkpt lat="43.59552" lon="2.96231">
        <ele>1062.9</ele>
        <time>2026-05-07T10:40:13.999Z</time>
      </trkpt>
      <trkpt lat="43.59552" lon="2.9623">
        <ele>1062.5</ele>
        <time>2026-05-07T10:40:14.999Z</time>
      </trkpt>
      <trkpt lat="43.59551" lon="2.96228">
        <ele>1062</ele>
        <time>2026-05-07T10:40:15.999Z</time>
      </trkpt>
      <trkpt lat="43.59551" lon="2.96227">
        <ele>1061.5</ele>
        <time>2026-05-07T10:40:16.999Z</time>
      </trkpt>
      <trkpt lat="43.5955" lon="2.96227">
        <ele>1061.4</ele>
        <time>2026-05-07T10:40:17.999Z</time>
      </trkpt>
      <trkpt lat="43.5955" lon="2.96226">
        <ele>1061.1</ele>
        <time>2026-05-07T10:40:18.999Z</time>
      </trkpt>
      <trkpt lat="43.59549" lon="2.96227">
        <ele>1060.7</ele>
        <time>2026-05-07T10:40:19.999Z</time>
      </trkpt>
      <trkpt lat="43.59549" lon="2.96227">
        <ele>1062.6</ele>
        <time>2026-05-07T10:40:20.999Z</time>
      </trkpt>
      <trkpt lat="43.59549" lon="2.96228">
        <ele>1063.1</ele>
        <time>2026-05-07T10:40:21.999Z</time>
      </trkpt>
      <trkpt lat="43.59549" lon="2.96228">
        <ele>1063.2</ele>
        <time>2026-05-07T10:40:22.999Z</time>
      </trkpt>
      <trkpt lat="43.59549" lon="2.96228">
        <ele>1063.4</ele>
        <time>2026-05-07T10:40:23.999Z</time>
      </trkpt>
      <trkpt lat="43.59549" lon="2.96228">
        <ele>1063.2</ele>
        <time>2026-05-07T10:40:24.999Z</time>
      </trkpt>
      <trkpt lat="43.59549" lon="2.96229">
        <ele>1062.8</ele>
        <time>2026-05-07T10:40:25.999Z</time>
      </trkpt>
      <trkpt lat="43.59549" lon="2.96229">
        <ele>1062.5</ele>
        <time>2026-05-07T10:40:26.999Z</time>
      </trkpt>
      <trkpt lat="43.59549" lon="2.96229">
        <ele>1062.7</ele>
        <time>2026-05-07T10:40:27.999Z</time>
      </trkpt>
      <trkpt lat="43.59549" lon="2.96229">
        <ele>1063</ele>
        <time>2026-05-07T10:40:28.999Z</time>
      </trkpt>
      <trkpt lat="43.59549" lon="2.96229">
        <ele>1062.9</ele>
        <time>2026-05-07T10:40:29.999Z</time>
      </trkpt>
      <trkpt lat="43.59549" lon="2.96229">
        <ele>1062.8</ele>
        <time>2026-05-07T10:40:30.999Z</time>
      </trkpt>
      <trkpt lat="43.59548" lon="2.9623">
        <ele>1062.6</ele>
        <time>2026-05-07T10:40:31.999Z</time>
      </trkpt>
      <trkpt lat="43.59548" lon="2.9623">
        <ele>1062.4</ele>
        <time>2026-05-07T10:40:32.999Z</time>
      </trkpt>
      <trkpt lat="43.59548" lon="2.9623">
        <ele>1062.3</ele>
        <time>2026-05-07T10:40:33.999Z</time>
      </trkpt>
      <trkpt lat="43.59548" lon="2.96231">
        <ele>1062.2</ele>
        <time>2026-05-07T10:40:34.999Z</time>
      </trkpt>
      <trkpt lat="43.59548" lon="2.96231">
        <ele>1062.1</ele>
        <time>2026-05-07T10:40:35.999Z</time>
      </trkpt>
      <trkpt lat="43.59548" lon="2.96231">
        <ele>1062.2</ele>
        <time>2026-05-07T10:40:36.999Z</time>
      </trkpt>
      <trkpt lat="43.59548" lon="2.96231">
        <ele>1062.3</ele>
        <time>2026-05-07T10:40:37.999Z</time>
      </trkpt>
      <trkpt lat="43.59548" lon="2.96231">
        <ele>1062.4</ele>
        <time>2026-05-07T10:40:38.999Z</time>
      </trkpt>
      <trkpt lat="43.59547" lon="2.96231">
        <ele>1062.5</ele>
        <time>2026-05-07T10:40:39.999Z</time>
      </trkpt>
      <trkpt lat="43.59547" lon="2.96232">
        <ele>1062.4</ele>
        <time>2026-05-07T10:40:40.999Z</time>
      </trkpt>
      <trkpt lat="43.59547" lon="2.96232">
        <ele>1062.3</ele>
        <time>2026-05-07T10:40:41.999Z</time>
      </trkpt>
      <trkpt lat="43.59547" lon="2.96232">
        <ele>1062.4</ele>
        <time>2026-05-07T10:40:42.999Z</time>
      </trkpt>
      <trkpt lat="43.59547" lon="2.96232">
        <ele>1062.8</ele>
        <time>2026-05-07T10:40:43.999Z</time>
      </trkpt>
      <trkpt lat="43.59547" lon="2.96232">
        <ele>1062.6</ele>
        <time>2026-05-07T10:40:44.999Z</time>
      </trkpt>
      <trkpt lat="43.59547" lon="2.96232">
        <ele>1062.6</ele>
        <time>2026-05-07T10:40:45.999Z</time>
      </trkpt>
      <trkpt lat="43.59547" lon="2.96232">
        <ele>1062.6</ele>
        <time>2026-05-07T10:40:46.999Z</time>
      </trkpt>
      <trkpt lat="43.59547" lon="2.96232">
        <ele>1062.6</ele>
        <time>2026-05-07T10:40:47.999Z</time>
      </trkpt>
      <trkpt lat="43.59547" lon="2.96232">
        <ele>1062.7</ele>
        <time>2026-05-07T10:40:48.999Z</time>
      </trkpt>
      <trkpt lat="43.59547" lon="2.96232">
        <ele>1062.8</ele>
        <time>2026-05-07T10:40:49.999Z</time>
      </trkpt>
      <trkpt lat="43.59547" lon="2.96232">
        <ele>1062.8</ele>
        <time>2026-05-07T10:40:50.999Z</time>
      </trkpt>
      <trkpt lat="43.59546" lon="2.96233">
        <ele>1062.8</ele>
        <time>2026-05-07T10:40:51.999Z</time>
      </trkpt>
      <trkpt lat="43.59546" lon="2.96233">
        <ele>1062.6</ele>
        <time>2026-05-07T10:40:52.999Z</time>
      </trkpt>
      <trkpt lat="43.59546" lon="2.96233">
        <ele>1062.7</ele>
        <time>2026-05-07T10:40:53.999Z</time>
      </trkpt>
      <trkpt lat="43.59546" lon="2.96232">
        <ele>1062.8</ele>
        <time>2026-05-07T10:40:54.999Z</time>
      </trkpt>
      <trkpt lat="43.59547" lon="2.96231">
        <ele>1062.7</ele>
        <time>2026-05-07T10:40:55.999Z</time>
      </trkpt>
      <trkpt lat="43.59547" lon="2.96231">
        <ele>1062.5</ele>
        <time>2026-05-07T10:40:56.999Z</time>
      </trkpt>
      <trkpt lat="43.59547" lon="2.96231">
        <ele>1062.4</ele>
        <time>2026-05-07T10:40:57.999Z</time>
      </trkpt>
      <trkpt lat="43.59546" lon="2.9623">
        <ele>1062.3</ele>
        <time>2026-05-07T10:40:58.999Z</time>
      </trkpt>
      <trkpt lat="43.59546" lon="2.9623">
        <ele>1062.5</ele>
        <time>2026-05-07T10:40:59.999Z</time>
      </trkpt>
      <trkpt lat="43.59546" lon="2.9623">
        <ele>1062.6</ele>
        <time>2026-05-07T10:41:00.999Z</time>
      </trkpt>
      <trkpt lat="43.59546" lon="2.9623">
        <ele>1062.7</ele>
        <time>2026-05-07T10:41:01.999Z</time>
      </trkpt>
      <trkpt lat="43.59546" lon="2.9623">
        <ele>1062.9</ele>
        <time>2026-05-07T10:41:02.999Z</time>
      </trkpt>
      <trkpt lat="43.59544" lon="2.9623">
        <ele>1063</ele>
        <time>2026-05-07T10:41:03.999Z</time>
      </trkpt>
      <trkpt lat="43.59543" lon="2.9623">
        <ele>1063</ele>
        <time>2026-05-07T10:41:04.999Z</time>
      </trkpt>
      <trkpt lat="43.59542" lon="2.9623">
        <ele>1063.3</ele>
        <time>2026-05-07T10:41:05.999Z</time>
      </trkpt>
      <trkpt lat="43.59542" lon="2.9623">
        <ele>1063.3</ele>
        <time>2026-05-07T10:41:06.999Z</time>
      </trkpt>
      <trkpt lat="43.59542" lon="2.9623">
        <ele>1063.1</ele>
        <time>2026-05-07T10:41:07.999Z</time>
      </trkpt>
      <trkpt lat="43.59542" lon="2.9623">
        <ele>1062.8</ele>
        <time>2026-05-07T10:41:08.999Z</time>
      </trkpt>
      <trkpt lat="43.59543" lon="2.9623">
        <ele>1062.5</ele>
        <time>2026-05-07T10:41:09.999Z</time>
      </trkpt>
      <trkpt lat="43.59543" lon="2.9623">
        <ele>1062.4</ele>
        <time>2026-05-07T10:41:10.999Z</time>
      </trkpt>
      <trkpt lat="43.59542" lon="2.96231">
        <ele>1062.2</ele>
        <time>2026-05-07T10:41:11.999Z</time>
      </trkpt>
      <trkpt lat="43.59542" lon="2.9623">
        <ele>1061.9</ele>
        <time>2026-05-07T10:41:12.999Z</time>
      </trkpt>
      <trkpt lat="43.59542" lon="2.9623">
        <ele>1062.1</ele>
        <time>2026-05-07T10:41:13.999Z</time>
      </trkpt>
      <trkpt lat="43.59542" lon="2.9623">
        <ele>1062.2</ele>
        <time>2026-05-07T10:41:14.999Z</time>
      </trkpt>
      <trkpt lat="43.59542" lon="2.9623">
        <ele>1062.2</ele>
        <time>2026-05-07T10:41:15.999Z</time>
      </trkpt>
      <trkpt lat="43.59542" lon="2.9623">
        <ele>1061.9</ele>
        <time>2026-05-07T10:41:16.999Z</time>
      </trkpt>
      <trkpt lat="43.59542" lon="2.9623">
        <ele>1061.7</ele>
        <time>2026-05-07T10:41:17.999Z</time>
      </trkpt>
      <trkpt lat="43.59542" lon="2.9623">
        <ele>1061.4</ele>
        <time>2026-05-07T10:41:18.999Z</time>
      </trkpt>
      <trkpt lat="43.59542" lon="2.9623">
        <ele>1061.1</ele>
        <time>2026-05-07T10:41:19.999Z</time>
      </trkpt>
      <trkpt lat="43.59542" lon="2.96231">
        <ele>1061.6</ele>
        <time>2026-05-07T10:41:20.999Z</time>
      </trkpt>
      <trkpt lat="43.59542" lon="2.96231">
        <ele>1061.8</ele>
        <time>2026-05-07T10:41:21.999Z</time>
      </trkpt>
      <trkpt lat="43.59542" lon="2.96231">
        <ele>1061.7</ele>
        <time>2026-05-07T10:41:22.999Z</time>
      </trkpt>
      <trkpt lat="43.59542" lon="2.96231">
        <ele>1061.6</ele>
        <time>2026-05-07T10:41:23.999Z</time>
      </trkpt>
      <trkpt lat="43.59542" lon="2.96231">
        <ele>1061.8</ele>
        <time>2026-05-07T10:41:24.999Z</time>
      </trkpt>
      <trkpt lat="43.59541" lon="2.96231">
        <ele>1061.8</ele>
        <time>2026-05-07T10:41:25.999Z</time>
      </trkpt>
      <trkpt lat="43.5954" lon="2.96231">
        <ele>1061.7</ele>
        <time>2026-05-07T10:41:26.999Z</time>
      </trkpt>
      <trkpt lat="43.5954" lon="2.96232">
        <ele>1062</ele>
        <time>2026-05-07T10:41:27.999Z</time>
      </trkpt>
      <trkpt lat="43.59539" lon="2.96233">
        <ele>1062.3</ele>
        <time>2026-05-07T10:41:28.999Z</time>
      </trkpt>
      <trkpt lat="43.59538" lon="2.96232">
        <ele>1062.6</ele>
        <time>2026-05-07T10:41:29.999Z</time>
      </trkpt>
      <trkpt lat="43.59538" lon="2.96231">
        <ele>1062.8</ele>
        <time>2026-05-07T10:41:30.999Z</time>
      </trkpt>
      <trkpt lat="43.59537" lon="2.9623">
        <ele>1063</ele>
        <time>2026-05-07T10:41:31.999Z</time>
      </trkpt>
      <trkpt lat="43.59537" lon="2.96229">
        <ele>1063.1</ele>
        <time>2026-05-07T10:41:32.999Z</time>
      </trkpt>
      <trkpt lat="43.59536" lon="2.96229">
        <ele>1063.1</ele>
        <time>2026-05-07T10:41:33.999Z</time>
      </trkpt>
      <trkpt lat="43.59536" lon="2.96229">
        <ele>1062.9</ele>
        <time>2026-05-07T10:41:34.999Z</time>
      </trkpt>
      <trkpt lat="43.59535" lon="2.9623">
        <ele>1062.4</ele>
        <time>2026-05-07T10:41:35.999Z</time>
      </trkpt>
      <trkpt lat="43.59535" lon="2.96231">
        <ele>1062.1</ele>
        <time>2026-05-07T10:41:36.999Z</time>
      </trkpt>
      <trkpt lat="43.59534" lon="2.96231">
        <ele>1061.8</ele>
        <time>2026-05-07T10:41:37.999Z</time>
      </trkpt>
      <trkpt lat="43.59534" lon="2.96231">
        <ele>1061.8</ele>
        <time>2026-05-07T10:41:38.999Z</time>
      </trkpt>
      <trkpt lat="43.59534" lon="2.96231">
        <ele>1061.8</ele>
        <time>2026-05-07T10:41:39.999Z</time>
      </trkpt>
      <trkpt lat="43.59534" lon="2.96231">
        <ele>1061.7</ele>
        <time>2026-05-07T10:41:40.999Z</time>
      </trkpt>
      <trkpt lat="43.59534" lon="2.96231">
        <ele>1061.6</ele>
        <time>2026-05-07T10:41:41.999Z</time>
      </trkpt>
      <trkpt lat="43.59534" lon="2.96231">
        <ele>1061.7</ele>
        <time>2026-05-07T10:41:42.999Z</time>
      </trkpt>
      <trkpt lat="43.59534" lon="2.96231">
        <ele>1061.8</ele>
        <time>2026-05-07T10:41:43.999Z</time>
      </trkpt>
      <trkpt lat="43.59534" lon="2.96231">
        <ele>1061.7</ele>
        <time>2026-05-07T10:41:44.999Z</time>
      </trkpt>
      <trkpt lat="43.59534" lon="2.96231">
        <ele>1061.7</ele>
        <time>2026-05-07T10:41:45.999Z</time>
      </trkpt>
      <trkpt lat="43.59534" lon="2.96231">
        <ele>1061.7</ele>
        <time>2026-05-07T10:41:46.999Z</time>
      </trkpt>
      <trkpt lat="43.59534" lon="2.96232">
        <ele>1061.4</ele>
        <time>2026-05-07T10:41:47.999Z</time>
      </trkpt>
      <trkpt lat="43.59534" lon="2.96232">
        <ele>1061.3</ele>
        <time>2026-05-07T10:41:48.999Z</time>
      </trkpt>
      <trkpt lat="43.59534" lon="2.96232">
        <ele>1061.2</ele>
        <time>2026-05-07T10:41:49.999Z</time>
      </trkpt>
      <trkpt lat="43.59533" lon="2.96233">
        <ele>1061.2</ele>
        <time>2026-05-07T10:41:50.999Z</time>
      </trkpt>
      <trkpt lat="43.59533" lon="2.96233">
        <ele>1061.2</ele>
        <time>2026-05-07T10:41:51.999Z</time>
      </trkpt>
      <trkpt lat="43.59533" lon="2.96233">
        <ele>1061.1</ele>
        <time>2026-05-07T10:41:52.999Z</time>
      </trkpt>
      <trkpt lat="43.59532" lon="2.96232">
        <ele>1061.1</ele>
        <time>2026-05-07T10:41:53.999Z</time>
      </trkpt>
      <trkpt lat="43.59532" lon="2.96232">
        <ele>1061.2</ele>
        <time>2026-05-07T10:41:54.999Z</time>
      </trkpt>
      <trkpt lat="43.59532" lon="2.96232">
        <ele>1061</ele>
        <time>2026-05-07T10:41:55.999Z</time>
      </trkpt>
      <trkpt lat="43.59532" lon="2.96232">
        <ele>1061</ele>
        <time>2026-05-07T10:41:56.999Z</time>
      </trkpt>
      <trkpt lat="43.59531" lon="2.96232">
        <ele>1060.9</ele>
        <time>2026-05-07T10:41:57.999Z</time>
      </trkpt>
      <trkpt lat="43.59531" lon="2.96232">
        <ele>1060.9</ele>
        <time>2026-05-07T10:41:58.999Z</time>
      </trkpt>
      <trkpt lat="43.59532" lon="2.96232">
        <ele>1060.7</ele>
        <time>2026-05-07T10:41:59.999Z</time>
      </trkpt>
      <trkpt lat="43.59531" lon="2.96232">
        <ele>1060.4</ele>
        <time>2026-05-07T10:42:00.999Z</time>
      </trkpt>
      <trkpt lat="43.5953" lon="2.96231">
        <ele>1060.2</ele>
        <time>2026-05-07T10:42:01.999Z</time>
      </trkpt>
      <trkpt lat="43.59529" lon="2.96231">
        <ele>1060.1</ele>
        <time>2026-05-07T10:42:02.999Z</time>
      </trkpt>
      <trkpt lat="43.59528" lon="2.96231">
        <ele>1060</ele>
        <time>2026-05-07T10:42:03.999Z</time>
      </trkpt>
      <trkpt lat="43.59528" lon="2.96231">
        <ele>1060</ele>
        <time>2026-05-07T10:42:04.999Z</time>
      </trkpt>
      <trkpt lat="43.59528" lon="2.96231">
        <ele>1060.4</ele>
        <time>2026-05-07T10:42:05.999Z</time>
      </trkpt>
      <trkpt lat="43.59527" lon="2.96231">
        <ele>1060.9</ele>
        <time>2026-05-07T10:42:06.999Z</time>
      </trkpt>
      <trkpt lat="43.59527" lon="2.96231">
        <ele>1061.1</ele>
        <time>2026-05-07T10:42:07.999Z</time>
      </trkpt>
      <trkpt lat="43.59527" lon="2.96231">
        <ele>1061.1</ele>
        <time>2026-05-07T10:42:08.999Z</time>
      </trkpt>
      <trkpt lat="43.59527" lon="2.96231">
        <ele>1061.1</ele>
        <time>2026-05-07T10:42:09.999Z</time>
      </trkpt>
      <trkpt lat="43.59527" lon="2.96231">
        <ele>1061.3</ele>
        <time>2026-05-07T10:42:10.999Z</time>
      </trkpt>
      <trkpt lat="43.59527" lon="2.96231">
        <ele>1061.4</ele>
        <time>2026-05-07T10:42:11.999Z</time>
      </trkpt>
      <trkpt lat="43.59527" lon="2.96231">
        <ele>1061.4</ele>
        <time>2026-05-07T10:42:12.999Z</time>
      </trkpt>
      <trkpt lat="43.59527" lon="2.96231">
        <ele>1061.5</ele>
        <time>2026-05-07T10:42:13.999Z</time>
      </trkpt>
      <trkpt lat="43.59527" lon="2.96231">
        <ele>1062</ele>
        <time>2026-05-07T10:42:14.999Z</time>
      </trkpt>
      <trkpt lat="43.59527" lon="2.96231">
        <ele>1062.3</ele>
        <time>2026-05-07T10:42:15.999Z</time>
      </trkpt>
      <trkpt lat="43.59527" lon="2.96232">
        <ele>1062.7</ele>
        <time>2026-05-07T10:42:16.999Z</time>
      </trkpt>
      <trkpt lat="43.59527" lon="2.96232">
        <ele>1062.9</ele>
        <time>2026-05-07T10:42:17.999Z</time>
      </trkpt>
      <trkpt lat="43.59527" lon="2.96233">
        <ele>1063.2</ele>
        <time>2026-05-07T10:42:18.999Z</time>
      </trkpt>
      <trkpt lat="43.59527" lon="2.96233">
        <ele>1063.3</ele>
        <time>2026-05-07T10:42:19.999Z</time>
      </trkpt>
      <trkpt lat="43.59527" lon="2.96233">
        <ele>1063.4</ele>
        <time>2026-05-07T10:42:20.999Z</time>
      </trkpt>
      <trkpt lat="43.59527" lon="2.96233">
        <ele>1063.5</ele>
        <time>2026-05-07T10:42:21.999Z</time>
      </trkpt>
      <trkpt lat="43.59527" lon="2.96233">
        <ele>1063.7</ele>
        <time>2026-05-07T10:42:22.999Z</time>
      </trkpt>
      <trkpt lat="43.59527" lon="2.96233">
        <ele>1063.9</ele>
        <time>2026-05-07T10:42:23.999Z</time>
      </trkpt>
      <trkpt lat="43.59527" lon="2.96233">
        <ele>1064</ele>
        <time>2026-05-07T10:42:24.999Z</time>
      </trkpt>
      <trkpt lat="43.59527" lon="2.96233">
        <ele>1064.1</ele>
        <time>2026-05-07T10:42:25.999Z</time>
      </trkpt>
      <trkpt lat="43.59527" lon="2.96233">
        <ele>1064.2</ele>
        <time>2026-05-07T10:42:26.999Z</time>
      </trkpt>
      <trkpt lat="43.59527" lon="2.96233">
        <ele>1064.3</ele>
        <time>2026-05-07T10:42:27.999Z</time>
      </trkpt>
      <trkpt lat="43.59527" lon="2.96233">
        <ele>1064.5</ele>
        <time>2026-05-07T10:42:28.999Z</time>
      </trkpt>
      <trkpt lat="43.59527" lon="2.96233">
        <ele>1064.7</ele>
        <time>2026-05-07T10:42:29.999Z</time>
      </trkpt>
      <trkpt lat="43.59527" lon="2.96234">
        <ele>1064.6</ele>
        <time>2026-05-07T10:42:30.999Z</time>
      </trkpt>
      <trkpt lat="43.59527" lon="2.96234">
        <ele>1064.7</ele>
        <time>2026-05-07T10:42:31.999Z</time>
      </trkpt>
      <trkpt lat="43.59527" lon="2.96234">
        <ele>1065</ele>
        <time>2026-05-07T10:42:32.999Z</time>
      </trkpt>
      <trkpt lat="43.59527" lon="2.96234">
        <ele>1064.9</ele>
        <time>2026-05-07T10:42:33.999Z</time>
      </trkpt>
      <trkpt lat="43.59527" lon="2.96234">
        <ele>1064.9</ele>
        <time>2026-05-07T10:42:34.999Z</time>
      </trkpt>
      <trkpt lat="43.59527" lon="2.96234">
        <ele>1064.6</ele>
        <time>2026-05-07T10:42:35.999Z</time>
      </trkpt>
      <trkpt lat="43.59526" lon="2.96234">
        <ele>1064.6</ele>
        <time>2026-05-07T10:42:36.999Z</time>
      </trkpt>
      <trkpt lat="43.59526" lon="2.96234">
        <ele>1064.5</ele>
        <time>2026-05-07T10:42:37.999Z</time>
      </trkpt>
      <trkpt lat="43.59526" lon="2.96234">
        <ele>1064.5</ele>
        <time>2026-05-07T10:42:38.999Z</time>
      </trkpt>
      <trkpt lat="43.59526" lon="2.96234">
        <ele>1064.4</ele>
        <time>2026-05-07T10:42:39.999Z</time>
      </trkpt>
      <trkpt lat="43.59526" lon="2.96234">
        <ele>1064.4</ele>
        <time>2026-05-07T10:42:40.999Z</time>
      </trkpt>
      <trkpt lat="43.59526" lon="2.96234">
        <ele>1064.4</ele>
        <time>2026-05-07T10:42:41.999Z</time>
      </trkpt>
      <trkpt lat="43.59526" lon="2.96234">
        <ele>1064.1</ele>
        <time>2026-05-07T10:42:42.999Z</time>
      </trkpt>
      <trkpt lat="43.59526" lon="2.96234">
        <ele>1064.2</ele>
        <time>2026-05-07T10:42:43.999Z</time>
      </trkpt>
      <trkpt lat="43.59525" lon="2.96234">
        <ele>1064.2</ele>
        <time>2026-05-07T10:42:44.999Z</time>
      </trkpt>
      <trkpt lat="43.59525" lon="2.96234">
        <ele>1064.2</ele>
        <time>2026-05-07T10:42:45.999Z</time>
      </trkpt>
      <trkpt lat="43.59524" lon="2.96234">
        <ele>1064</ele>
        <time>2026-05-07T10:42:46.999Z</time>
      </trkpt>
      <trkpt lat="43.59523" lon="2.96234">
        <ele>1063.8</ele>
        <time>2026-05-07T10:42:47.999Z</time>
      </trkpt>
      <trkpt lat="43.59522" lon="2.96233">
        <ele>1063.8</ele>
        <time>2026-05-07T10:42:48.999Z</time>
      </trkpt>
      <trkpt lat="43.59522" lon="2.96233">
        <ele>1063.9</ele>
        <time>2026-05-07T10:42:49.999Z</time>
      </trkpt>
      <trkpt lat="43.59522" lon="2.96232">
        <ele>1063.9</ele>
        <time>2026-05-07T10:42:50.999Z</time>
      </trkpt>
      <trkpt lat="43.59522" lon="2.96233">
        <ele>1064</ele>
        <time>2026-05-07T10:42:51.999Z</time>
      </trkpt>
      <trkpt lat="43.59521" lon="2.96234">
        <ele>1063.9</ele>
        <time>2026-05-07T10:42:52.999Z</time>
      </trkpt>
      <trkpt lat="43.59521" lon="2.96234">
        <ele>1064</ele>
        <time>2026-05-07T10:42:53.999Z</time>
      </trkpt>
      <trkpt lat="43.59521" lon="2.96234">
        <ele>1063.8</ele>
        <time>2026-05-07T10:42:54.999Z</time>
      </trkpt>
      <trkpt lat="43.59521" lon="2.96234">
        <ele>1063.9</ele>
        <time>2026-05-07T10:42:55.999Z</time>
      </trkpt>
      <trkpt lat="43.59521" lon="2.96234">
        <ele>1063.9</ele>
        <time>2026-05-07T10:42:56.999Z</time>
      </trkpt>
      <trkpt lat="43.5952" lon="2.96234">
        <ele>1064</ele>
        <time>2026-05-07T10:42:57.999Z</time>
      </trkpt>
      <trkpt lat="43.5952" lon="2.96234">
        <ele>1064.1</ele>
        <time>2026-05-07T10:42:58.999Z</time>
      </trkpt>
      <trkpt lat="43.5952" lon="2.96234">
        <ele>1064</ele>
        <time>2026-05-07T10:42:59.999Z</time>
      </trkpt>
      <trkpt lat="43.5952" lon="2.96234">
        <ele>1064</ele>
        <time>2026-05-07T10:43:00.999Z</time>
      </trkpt>
      <trkpt lat="43.5952" lon="2.96234">
        <ele>1064.2</ele>
        <time>2026-05-07T10:43:01.999Z</time>
      </trkpt>
      <trkpt lat="43.5952" lon="2.96234">
        <ele>1064.5</ele>
        <time>2026-05-07T10:43:02.999Z</time>
      </trkpt>
      <trkpt lat="43.5952" lon="2.96234">
        <ele>1064.8</ele>
        <time>2026-05-07T10:43:03.999Z</time>
      </trkpt>
      <trkpt lat="43.5952" lon="2.96234">
        <ele>1064.9</ele>
        <time>2026-05-07T10:43:04.999Z</time>
      </trkpt>
      <trkpt lat="43.5952" lon="2.96234">
        <ele>1064.7</ele>
        <time>2026-05-07T10:43:05.999Z</time>
      </trkpt>
      <trkpt lat="43.5952" lon="2.96234">
        <ele>1064.7</ele>
        <time>2026-05-07T10:43:06.999Z</time>
      </trkpt>
      <trkpt lat="43.5952" lon="2.96234">
        <ele>1064.6</ele>
        <time>2026-05-07T10:43:07.999Z</time>
      </trkpt>
      <trkpt lat="43.59519" lon="2.96234">
        <ele>1064.6</ele>
        <time>2026-05-07T10:43:08.999Z</time>
      </trkpt>
      <trkpt lat="43.59518" lon="2.96233">
        <ele>1064.6</ele>
        <time>2026-05-07T10:43:09.999Z</time>
      </trkpt>
      <trkpt lat="43.59518" lon="2.96233">
        <ele>1064.8</ele>
        <time>2026-05-07T10:43:10.999Z</time>
      </trkpt>
      <trkpt lat="43.59518" lon="2.96234">
        <ele>1064.8</ele>
        <time>2026-05-07T10:43:11.999Z</time>
      </trkpt>
      <trkpt lat="43.59518" lon="2.96234">
        <ele>1064.9</ele>
        <time>2026-05-07T10:43:12.999Z</time>
      </trkpt>
      <trkpt lat="43.59518" lon="2.96234">
        <ele>1065.1</ele>
        <time>2026-05-07T10:43:13.999Z</time>
      </trkpt>
      <trkpt lat="43.59517" lon="2.96234">
        <ele>1065</ele>
        <time>2026-05-07T10:43:14.999Z</time>
      </trkpt>
      <trkpt lat="43.59517" lon="2.96234">
        <ele>1065.2</ele>
        <time>2026-05-07T10:43:15.999Z</time>
      </trkpt>
      <trkpt lat="43.59517" lon="2.96234">
        <ele>1065.2</ele>
        <time>2026-05-07T10:43:16.999Z</time>
      </trkpt>
      <trkpt lat="43.59518" lon="2.96234">
        <ele>1065.1</ele>
        <time>2026-05-07T10:43:17.999Z</time>
      </trkpt>
      <trkpt lat="43.59518" lon="2.96234">
        <ele>1065</ele>
        <time>2026-05-07T10:43:18.999Z</time>
      </trkpt>
      <trkpt lat="43.59518" lon="2.96235">
        <ele>1065</ele>
        <time>2026-05-07T10:43:19.999Z</time>
      </trkpt>
      <trkpt lat="43.59518" lon="2.96235">
        <ele>1065</ele>
        <time>2026-05-07T10:43:20.999Z</time>
      </trkpt>
      <trkpt lat="43.59518" lon="2.96235">
        <ele>1065.1</ele>
        <time>2026-05-07T10:43:21.999Z</time>
      </trkpt>
      <trkpt lat="43.59518" lon="2.96235">
        <ele>1065</ele>
        <time>2026-05-07T10:43:22.999Z</time>
      </trkpt>
      <trkpt lat="43.59518" lon="2.96235">
        <ele>1064.9</ele>
        <time>2026-05-07T10:43:23.999Z</time>
      </trkpt>
      <trkpt lat="43.59518" lon="2.96235">
        <ele>1064.9</ele>
        <time>2026-05-07T10:43:24.999Z</time>
      </trkpt>
      <trkpt lat="43.59518" lon="2.96235">
        <ele>1064.9</ele>
        <time>2026-05-07T10:43:25.999Z</time>
      </trkpt>
      <trkpt lat="43.59518" lon="2.96236">
        <ele>1064.8</ele>
        <time>2026-05-07T10:43:26.999Z</time>
      </trkpt>
      <trkpt lat="43.59517" lon="2.96238">
        <ele>1064.8</ele>
        <time>2026-05-07T10:43:27.999Z</time>
      </trkpt>
      <trkpt lat="43.59517" lon="2.96239">
        <ele>1065</ele>
        <time>2026-05-07T10:43:28.999Z</time>
      </trkpt>
      <trkpt lat="43.59517" lon="2.9624">
        <ele>1065.2</ele>
        <time>2026-05-07T10:43:29.999Z</time>
      </trkpt>
      <trkpt lat="43.59516" lon="2.9624">
        <ele>1065.1</ele>
        <time>2026-05-07T10:43:30.999Z</time>
      </trkpt>
      <trkpt lat="43.59516" lon="2.96241">
        <ele>1065.2</ele>
        <time>2026-05-07T10:43:31.999Z</time>
      </trkpt>
      <trkpt lat="43.59516" lon="2.96241">
        <ele>1065.2</ele>
        <time>2026-05-07T10:43:32.999Z</time>
      </trkpt>
      <trkpt lat="43.59516" lon="2.96241">
        <ele>1065.1</ele>
        <time>2026-05-07T10:43:33.999Z</time>
      </trkpt>
      <trkpt lat="43.59516" lon="2.96241">
        <ele>1065.1</ele>
        <time>2026-05-07T10:43:34.999Z</time>
      </trkpt>
      <trkpt lat="43.59516" lon="2.96241">
        <ele>1065</ele>
        <time>2026-05-07T10:43:35.999Z</time>
      </trkpt>
      <trkpt lat="43.59516" lon="2.96241">
        <ele>1064.8</ele>
        <time>2026-05-07T10:43:36.999Z</time>
      </trkpt>
      <trkpt lat="43.59516" lon="2.96241">
        <ele>1064.7</ele>
        <time>2026-05-07T10:43:37.999Z</time>
      </trkpt>
      <trkpt lat="43.59516" lon="2.96241">
        <ele>1064.7</ele>
        <time>2026-05-07T10:43:38.999Z</time>
      </trkpt>
      <trkpt lat="43.59515" lon="2.96241">
        <ele>1064.7</ele>
        <time>2026-05-07T10:43:39.999Z</time>
      </trkpt>
      <trkpt lat="43.59515" lon="2.96241">
        <ele>1064.5</ele>
        <time>2026-05-07T10:43:40.999Z</time>
      </trkpt>
      <trkpt lat="43.59514" lon="2.96242">
        <ele>1064.4</ele>
        <time>2026-05-07T10:43:41.999Z</time>
      </trkpt>
      <trkpt lat="43.59514" lon="2.96242">
        <ele>1064.4</ele>
        <time>2026-05-07T10:43:42.999Z</time>
      </trkpt>
      <trkpt lat="43.59514" lon="2.96242">
        <ele>1064.7</ele>
        <time>2026-05-07T10:43:43.999Z</time>
      </trkpt>
      <trkpt lat="43.59514" lon="2.96242">
        <ele>1064.7</ele>
        <time>2026-05-07T10:43:44.999Z</time>
      </trkpt>
      <trkpt lat="43.59514" lon="2.96242">
        <ele>1064.8</ele>
        <time>2026-05-07T10:43:45.999Z</time>
      </trkpt>
      <trkpt lat="43.59514" lon="2.96242">
        <ele>1065.3</ele>
        <time>2026-05-07T10:43:46.999Z</time>
      </trkpt>
      <trkpt lat="43.59514" lon="2.96242">
        <ele>1065.7</ele>
        <time>2026-05-07T10:43:47.999Z</time>
      </trkpt>
      <trkpt lat="43.59514" lon="2.96243">
        <ele>1065.7</ele>
        <time>2026-05-07T10:43:48.999Z</time>
      </trkpt>
      <trkpt lat="43.59514" lon="2.96243">
        <ele>1065.6</ele>
        <time>2026-05-07T10:43:49.999Z</time>
      </trkpt>
      <trkpt lat="43.59514" lon="2.96243">
        <ele>1065.5</ele>
        <time>2026-05-07T10:43:50.999Z</time>
      </trkpt>
      <trkpt lat="43.59514" lon="2.96243">
        <ele>1065.4</ele>
        <time>2026-05-07T10:43:51.999Z</time>
      </trkpt>
      <trkpt lat="43.59514" lon="2.96243">
        <ele>1065.7</ele>
        <time>2026-05-07T10:43:52.999Z</time>
      </trkpt>
      <trkpt lat="43.59515" lon="2.96244">
        <ele>1065.8</ele>
        <time>2026-05-07T10:43:53.999Z</time>
      </trkpt>
      <trkpt lat="43.59515" lon="2.96244">
        <ele>1065.8</ele>
        <time>2026-05-07T10:43:54.999Z</time>
      </trkpt>
      <trkpt lat="43.59514" lon="2.96245">
        <ele>1065.7</ele>
        <time>2026-05-07T10:43:55.999Z</time>
      </trkpt>
      <trkpt lat="43.59514" lon="2.96245">
        <ele>1065.6</ele>
        <time>2026-05-07T10:43:56.999Z</time>
      </trkpt>
      <trkpt lat="43.59514" lon="2.96245">
        <ele>1065.7</ele>
        <time>2026-05-07T10:43:57.999Z</time>
      </trkpt>
      <trkpt lat="43.59514" lon="2.96246">
        <ele>1065.9</ele>
        <time>2026-05-07T10:43:58.999Z</time>
      </trkpt>
      <trkpt lat="43.59515" lon="2.96247">
        <ele>1066.1</ele>
        <time>2026-05-07T10:43:59.999Z</time>
      </trkpt>
      <trkpt lat="43.59515" lon="2.96249">
        <ele>1066.3</ele>
        <time>2026-05-07T10:44:00.999Z</time>
      </trkpt>
      <trkpt lat="43.59515" lon="2.9625">
        <ele>1066.8</ele>
        <time>2026-05-07T10:44:01.999Z</time>
      </trkpt>
      <trkpt lat="43.59515" lon="2.96253">
        <ele>1067.3</ele>
        <time>2026-05-07T10:44:02.999Z</time>
      </trkpt>
      <trkpt lat="43.59516" lon="2.96256">
        <ele>1067.2</ele>
        <time>2026-05-07T10:44:03.999Z</time>
      </trkpt>
      <trkpt lat="43.59515" lon="2.96258">
        <ele>1067.9</ele>
        <time>2026-05-07T10:44:04.999Z</time>
      </trkpt>
      <trkpt lat="43.59516" lon="2.9626">
        <ele>1068.3</ele>
        <time>2026-05-07T10:44:05.999Z</time>
      </trkpt>
      <trkpt lat="43.59517" lon="2.96261">
        <ele>1068.8</ele>
        <time>2026-05-07T10:44:06.999Z</time>
      </trkpt>
      <trkpt lat="43.59518" lon="2.96262">
        <ele>1068.8</ele>
        <time>2026-05-07T10:44:07.999Z</time>
      </trkpt>
      <trkpt lat="43.59517" lon="2.96262">
        <ele>1068.3</ele>
        <time>2026-05-07T10:44:09.999Z</time>
      </trkpt>
      <trkpt lat="43.59519" lon="2.96263">
        <ele>1067.8</ele>
        <time>2026-05-07T10:44:10.999Z</time>
      </trkpt>
      <trkpt lat="43.59519" lon="2.96264">
        <ele>1067.6</ele>
        <time>2026-05-07T10:44:11.999Z</time>
      </trkpt>
      <trkpt lat="43.59518" lon="2.96264">
        <ele>1065.5</ele>
        <time>2026-05-07T10:44:12.999Z</time>
      </trkpt>
      <trkpt lat="43.59518" lon="2.96264">
        <ele>1066.2</ele>
        <time>2026-05-07T10:44:13.999Z</time>
      </trkpt>
      <trkpt lat="43.59518" lon="2.96264">
        <ele>1065.9</ele>
        <time>2026-05-07T10:44:14.999Z</time>
      </trkpt>
      <trkpt lat="43.59518" lon="2.96266">
        <ele>1067.4</ele>
        <time>2026-05-07T10:44:15.999Z</time>
      </trkpt>
      <trkpt lat="43.59518" lon="2.96266">
        <ele>1068.3</ele>
        <time>2026-05-07T10:44:16.999Z</time>
      </trkpt>
      <trkpt lat="43.59518" lon="2.96268">
        <ele>1068.5</ele>
        <time>2026-05-07T10:44:17.999Z</time>
      </trkpt>
      <trkpt lat="43.59517" lon="2.96269">
        <ele>1069.1</ele>
        <time>2026-05-07T10:44:18.999Z</time>
      </trkpt>
      <trkpt lat="43.59517" lon="2.9627">
        <ele>1070.1</ele>
        <time>2026-05-07T10:44:19.999Z</time>
      </trkpt>
      <trkpt lat="43.59517" lon="2.96271">
        <ele>1070.6</ele>
        <time>2026-05-07T10:44:20.999Z</time>
      </trkpt>
      <trkpt lat="43.59516" lon="2.96271">
        <ele>1070.9</ele>
        <time>2026-05-07T10:44:21.999Z</time>
      </trkpt>
      <trkpt lat="43.59516" lon="2.96271">
        <ele>1069</ele>
        <time>2026-05-07T10:44:22.999Z</time>
      </trkpt>
      <trkpt lat="43.59516" lon="2.96271">
        <ele>1069.3</ele>
        <time>2026-05-07T10:44:23.999Z</time>
      </trkpt>
      <trkpt lat="43.59515" lon="2.96271">
        <ele>1069.5</ele>
        <time>2026-05-07T10:44:24.999Z</time>
      </trkpt>
      <trkpt lat="43.59515" lon="2.96271">
        <ele>1069.6</ele>
        <time>2026-05-07T10:44:25.999Z</time>
      </trkpt>
      <trkpt lat="43.59513" lon="2.96271">
        <ele>1069.6</ele>
        <time>2026-05-07T10:44:26.999Z</time>
      </trkpt>
      <trkpt lat="43.59513" lon="2.96271">
        <ele>1069.6</ele>
        <time>2026-05-07T10:44:27.999Z</time>
      </trkpt>
      <trkpt lat="43.59514" lon="2.96271">
        <ele>1070</ele>
        <time>2026-05-07T10:44:28.999Z</time>
      </trkpt>
      <trkpt lat="43.59515" lon="2.96271">
        <ele>1071.1</ele>
        <time>2026-05-07T10:44:29.999Z</time>
      </trkpt>
      <trkpt lat="43.59515" lon="2.96272">
        <ele>1071.7</ele>
        <time>2026-05-07T10:44:30.999Z</time>
      </trkpt>
      <trkpt lat="43.59515" lon="2.96272">
        <ele>1071.9</ele>
        <time>2026-05-07T10:44:31.999Z</time>
      </trkpt>
      <trkpt lat="43.59514" lon="2.96272">
        <ele>1072.6</ele>
        <time>2026-05-07T10:44:32.999Z</time>
      </trkpt>
      <trkpt lat="43.59514" lon="2.96272">
        <ele>1073.1</ele>
        <time>2026-05-07T10:44:33.999Z</time>
      </trkpt>
      <trkpt lat="43.59514" lon="2.96271">
        <ele>1073.8</ele>
        <time>2026-05-07T10:44:34.999Z</time>
      </trkpt>
      <trkpt lat="43.59514" lon="2.96271">
        <ele>1074.5</ele>
        <time>2026-05-07T10:44:35.999Z</time>
      </trkpt>
      <trkpt lat="43.59513" lon="2.96272">
        <ele>1075.7</ele>
        <time>2026-05-07T10:44:36.999Z</time>
      </trkpt>
      <trkpt lat="43.59513" lon="2.96273">
        <ele>1076.3</ele>
        <time>2026-05-07T10:44:37.999Z</time>
      </trkpt>
      <trkpt lat="43.59514" lon="2.96274">
        <ele>1076.8</ele>
        <time>2026-05-07T10:44:38.999Z</time>
      </trkpt>
      <trkpt lat="43.59514" lon="2.96274">
        <ele>1077.6</ele>
        <time>2026-05-07T10:44:39.999Z</time>
      </trkpt>
      <trkpt lat="43.59514" lon="2.96274">
        <ele>1077.7</ele>
        <time>2026-05-07T10:44:40.999Z</time>
      </trkpt>
      <trkpt lat="43.59513" lon="2.96274">
        <ele>1077.9</ele>
        <time>2026-05-07T10:44:41.999Z</time>
      </trkpt>
      <trkpt lat="43.59514" lon="2.96274">
        <ele>1077.8</ele>
        <time>2026-05-07T10:44:42.999Z</time>
      </trkpt>
      <trkpt lat="43.59515" lon="2.96274">
        <ele>1077.8</ele>
        <time>2026-05-07T10:44:43.999Z</time>
      </trkpt>
      <trkpt lat="43.59515" lon="2.96274">
        <ele>1077.5</ele>
        <time>2026-05-07T10:44:44.999Z</time>
      </trkpt>
      <trkpt lat="43.59515" lon="2.96274">
        <ele>1077.4</ele>
        <time>2026-05-07T10:44:45.999Z</time>
      </trkpt>
      <trkpt lat="43.59514" lon="2.96273">
        <ele>1077.3</ele>
        <time>2026-05-07T10:44:46.999Z</time>
      </trkpt>
      <trkpt lat="43.59514" lon="2.96273">
        <ele>1077.4</ele>
        <time>2026-05-07T10:44:47.999Z</time>
      </trkpt>
      <trkpt lat="43.59514" lon="2.96273">
        <ele>1077.5</ele>
        <time>2026-05-07T10:44:48.999Z</time>
      </trkpt>
      <trkpt lat="43.59514" lon="2.96273">
        <ele>1077.7</ele>
        <time>2026-05-07T10:44:50.999Z</time>
      </trkpt>
      <trkpt lat="43.59514" lon="2.96273">
        <ele>1078.1</ele>
        <time>2026-05-07T10:44:51.999Z</time>
      </trkpt>
      <trkpt lat="43.59514" lon="2.96273">
        <ele>1078.4</ele>
        <time>2026-05-07T10:44:52.999Z</time>
      </trkpt>
      <trkpt lat="43.59514" lon="2.96273">
        <ele>1078.4</ele>
        <time>2026-05-07T10:44:53.999Z</time>
      </trkpt>
      <trkpt lat="43.59514" lon="2.96274">
        <ele>1077.9</ele>
        <time>2026-05-07T10:44:54.999Z</time>
      </trkpt>
      <trkpt lat="43.59513" lon="2.96274">
        <ele>1077.1</ele>
        <time>2026-05-07T10:44:55.999Z</time>
      </trkpt>
      <trkpt lat="43.59513" lon="2.96274">
        <ele>1077.1</ele>
        <time>2026-05-07T10:44:56.999Z</time>
      </trkpt>
      <trkpt lat="43.59513" lon="2.96274">
        <ele>1077.2</ele>
        <time>2026-05-07T10:44:57.999Z</time>
      </trkpt>
      <trkpt lat="43.59513" lon="2.96274">
        <ele>1077</ele>
        <time>2026-05-07T10:44:58.999Z</time>
      </trkpt>
      <trkpt lat="43.59513" lon="2.96274">
        <ele>1076.7</ele>
        <time>2026-05-07T10:44:59.999Z</time>
      </trkpt>
      <trkpt lat="43.59514" lon="2.96275">
        <ele>1076.8</ele>
        <time>2026-05-07T10:45:00.999Z</time>
      </trkpt>
      <trkpt lat="43.59514" lon="2.96275">
        <ele>1076.9</ele>
        <time>2026-05-07T10:45:01.999Z</time>
      </trkpt>
      <trkpt lat="43.59514" lon="2.96276">
        <ele>1076.8</ele>
        <time>2026-05-07T10:45:02.999Z</time>
      </trkpt>
      <trkpt lat="43.59514" lon="2.96276">
        <ele>1076.7</ele>
        <time>2026-05-07T10:45:03.999Z</time>
      </trkpt>
      <trkpt lat="43.59514" lon="2.96277">
        <ele>1076.4</ele>
        <time>2026-05-07T10:45:04.999Z</time>
      </trkpt>
      <trkpt lat="43.59514" lon="2.96277">
        <ele>1076.3</ele>
        <time>2026-05-07T10:45:05.999Z</time>
      </trkpt>
      <trkpt lat="43.59513" lon="2.96279">
        <ele>1076.4</ele>
        <time>2026-05-07T10:45:06.999Z</time>
      </trkpt>
      <trkpt lat="43.59512" lon="2.9628">
        <ele>1076.4</ele>
        <time>2026-05-07T10:45:07.999Z</time>
      </trkpt>
      <trkpt lat="43.59512" lon="2.96281">
        <ele>1076.2</ele>
        <time>2026-05-07T10:45:08.999Z</time>
      </trkpt>
      <trkpt lat="43.59511" lon="2.96281">
        <ele>1076.3</ele>
        <time>2026-05-07T10:45:09.999Z</time>
      </trkpt>
      <trkpt lat="43.5951" lon="2.96281">
        <ele>1076.4</ele>
        <time>2026-05-07T10:45:10.999Z</time>
      </trkpt>
      <trkpt lat="43.5951" lon="2.96281">
        <ele>1076.5</ele>
        <time>2026-05-07T10:45:11.999Z</time>
      </trkpt>
      <trkpt lat="43.5951" lon="2.96282">
        <ele>1076.7</ele>
        <time>2026-05-07T10:45:12.999Z</time>
      </trkpt>
      <trkpt lat="43.5951" lon="2.96282">
        <ele>1076.8</ele>
        <time>2026-05-07T10:45:13.999Z</time>
      </trkpt>
      <trkpt lat="43.5951" lon="2.96282">
        <ele>1077.8</ele>
        <time>2026-05-07T10:45:14.999Z</time>
      </trkpt>
      <trkpt lat="43.5951" lon="2.96282">
        <ele>1077.9</ele>
        <time>2026-05-07T10:45:15.999Z</time>
      </trkpt>
      <trkpt lat="43.5951" lon="2.96282">
        <ele>1077.5</ele>
        <time>2026-05-07T10:45:16.999Z</time>
      </trkpt>
      <trkpt lat="43.5951" lon="2.96282">
        <ele>1077.4</ele>
        <time>2026-05-07T10:45:17.999Z</time>
      </trkpt>
      <trkpt lat="43.5951" lon="2.96282">
        <ele>1077.5</ele>
        <time>2026-05-07T10:45:18.999Z</time>
      </trkpt>
      <trkpt lat="43.5951" lon="2.96282">
        <ele>1077.4</ele>
        <time>2026-05-07T10:45:19.999Z</time>
      </trkpt>
      <trkpt lat="43.5951" lon="2.96282">
        <ele>1077.2</ele>
        <time>2026-05-07T10:45:20.999Z</time>
      </trkpt>
      <trkpt lat="43.5951" lon="2.96282">
        <ele>1077.3</ele>
        <time>2026-05-07T10:45:21.999Z</time>
      </trkpt>
      <trkpt lat="43.5951" lon="2.96282">
        <ele>1077.4</ele>
        <time>2026-05-07T10:45:22.999Z</time>
      </trkpt>
      <trkpt lat="43.5951" lon="2.96282">
        <ele>1077.1</ele>
        <time>2026-05-07T10:45:23.999Z</time>
      </trkpt>
      <trkpt lat="43.59509" lon="2.96282">
        <ele>1076</ele>
        <time>2026-05-07T10:45:24.999Z</time>
      </trkpt>
      <trkpt lat="43.59509" lon="2.96282">
        <ele>1075.7</ele>
        <time>2026-05-07T10:45:25.999Z</time>
      </trkpt>
      <trkpt lat="43.59509" lon="2.96282">
        <ele>1075.3</ele>
        <time>2026-05-07T10:45:26.999Z</time>
      </trkpt>
      <trkpt lat="43.59508" lon="2.96283">
        <ele>1074.9</ele>
        <time>2026-05-07T10:45:27.999Z</time>
      </trkpt>
      <trkpt lat="43.59508" lon="2.96283">
        <ele>1074.7</ele>
        <time>2026-05-07T10:45:28.999Z</time>
      </trkpt>
      <trkpt lat="43.59508" lon="2.96283">
        <ele>1074.2</ele>
        <time>2026-05-07T10:45:29.999Z</time>
      </trkpt>
      <trkpt lat="43.59508" lon="2.96283">
        <ele>1074</ele>
        <time>2026-05-07T10:45:30.999Z</time>
      </trkpt>
      <trkpt lat="43.59508" lon="2.96283">
        <ele>1073.8</ele>
        <time>2026-05-07T10:45:31.999Z</time>
      </trkpt>
      <trkpt lat="43.59508" lon="2.96283">
        <ele>1073.8</ele>
        <time>2026-05-07T10:45:32.999Z</time>
      </trkpt>
      <trkpt lat="43.59508" lon="2.96284">
        <ele>1073.8</ele>
        <time>2026-05-07T10:45:33.999Z</time>
      </trkpt>
      <trkpt lat="43.59507" lon="2.96284">
        <ele>1073.8</ele>
        <time>2026-05-07T10:45:34.999Z</time>
      </trkpt>
      <trkpt lat="43.59506" lon="2.96285">
        <ele>1073.9</ele>
        <time>2026-05-07T10:45:35.999Z</time>
      </trkpt>
      <trkpt lat="43.59505" lon="2.96286">
        <ele>1074</ele>
        <time>2026-05-07T10:45:36.999Z</time>
      </trkpt>
      <trkpt lat="43.59505" lon="2.96287">
        <ele>1074.4</ele>
        <time>2026-05-07T10:45:37.999Z</time>
      </trkpt>
      <trkpt lat="43.59505" lon="2.96287">
        <ele>1074.5</ele>
        <time>2026-05-07T10:45:38.999Z</time>
      </trkpt>
      <trkpt lat="43.59504" lon="2.96288">
        <ele>1074.8</ele>
        <time>2026-05-07T10:45:39.999Z</time>
      </trkpt>
      <trkpt lat="43.59503" lon="2.96289">
        <ele>1074.8</ele>
        <time>2026-05-07T10:45:40.999Z</time>
      </trkpt>
      <trkpt lat="43.59503" lon="2.9629">
        <ele>1075.1</ele>
        <time>2026-05-07T10:45:41.999Z</time>
      </trkpt>
      <trkpt lat="43.59503" lon="2.96291">
        <ele>1075.8</ele>
        <time>2026-05-07T10:45:43.999Z</time>
      </trkpt>
      <trkpt lat="43.59502" lon="2.96291">
        <ele>1076.1</ele>
        <time>2026-05-07T10:45:44.999Z</time>
      </trkpt>
      <trkpt lat="43.59502" lon="2.96292">
        <ele>1076.4</ele>
        <time>2026-05-07T10:45:45.999Z</time>
      </trkpt>
      <trkpt lat="43.59501" lon="2.96293">
        <ele>1076.1</ele>
        <time>2026-05-07T10:45:46.999Z</time>
      </trkpt>
      <trkpt lat="43.59499" lon="2.96294">
        <ele>1075.8</ele>
        <time>2026-05-07T10:45:47.999Z</time>
      </trkpt>
      <trkpt lat="43.59497" lon="2.96296">
        <ele>1075.6</ele>
        <time>2026-05-07T10:45:48.999Z</time>
      </trkpt>
      <trkpt lat="43.59496" lon="2.96296">
        <ele>1075.4</ele>
        <time>2026-05-07T10:45:49.999Z</time>
      </trkpt>
      <trkpt lat="43.59496" lon="2.96297">
        <ele>1075.5</ele>
        <time>2026-05-07T10:45:50.999Z</time>
      </trkpt>
      <trkpt lat="43.59496" lon="2.96298">
        <ele>1075.6</ele>
        <time>2026-05-07T10:45:51.999Z</time>
      </trkpt>
      <trkpt lat="43.59497" lon="2.96298">
        <ele>1075.9</ele>
        <time>2026-05-07T10:45:52.999Z</time>
      </trkpt>
      <trkpt lat="43.59497" lon="2.96299">
        <ele>1076.4</ele>
        <time>2026-05-07T10:45:53.999Z</time>
      </trkpt>
      <trkpt lat="43.59497" lon="2.96298">
        <ele>1076.6</ele>
        <time>2026-05-07T10:45:54.999Z</time>
      </trkpt>
      <trkpt lat="43.59497" lon="2.96298">
        <ele>1076.7</ele>
        <time>2026-05-07T10:45:55.999Z</time>
      </trkpt>
      <trkpt lat="43.59497" lon="2.96298">
        <ele>1076.8</ele>
        <time>2026-05-07T10:45:56.999Z</time>
      </trkpt>
      <trkpt lat="43.59497" lon="2.96298">
        <ele>1077.3</ele>
        <time>2026-05-07T10:45:57.999Z</time>
      </trkpt>
      <trkpt lat="43.59497" lon="2.96298">
        <ele>1077.5</ele>
        <time>2026-05-07T10:45:58.999Z</time>
      </trkpt>
      <trkpt lat="43.59497" lon="2.96298">
        <ele>1077.8</ele>
        <time>2026-05-07T10:45:59.999Z</time>
      </trkpt>
      <trkpt lat="43.59497" lon="2.96298">
        <ele>1078.2</ele>
        <time>2026-05-07T10:46:00.999Z</time>
      </trkpt>
      <trkpt lat="43.59497" lon="2.96298">
        <ele>1078.4</ele>
        <time>2026-05-07T10:46:01.999Z</time>
      </trkpt>
      <trkpt lat="43.59497" lon="2.96299">
        <ele>1078.6</ele>
        <time>2026-05-07T10:46:02.999Z</time>
      </trkpt>
      <trkpt lat="43.59497" lon="2.96299">
        <ele>1078.7</ele>
        <time>2026-05-07T10:46:03.999Z</time>
      </trkpt>
      <trkpt lat="43.59497" lon="2.96299">
        <ele>1078.4</ele>
        <time>2026-05-07T10:46:04.999Z</time>
      </trkpt>
      <trkpt lat="43.59496" lon="2.96299">
        <ele>1078.3</ele>
        <time>2026-05-07T10:46:05.999Z</time>
      </trkpt>
      <trkpt lat="43.59496" lon="2.96299">
        <ele>1078</ele>
        <time>2026-05-07T10:46:06.999Z</time>
      </trkpt>
      <trkpt lat="43.59496" lon="2.96301">
        <ele>1077.8</ele>
        <time>2026-05-07T10:46:07.999Z</time>
      </trkpt>
      <trkpt lat="43.59496" lon="2.96302">
        <ele>1077.7</ele>
        <time>2026-05-07T10:46:08.999Z</time>
      </trkpt>
      <trkpt lat="43.59495" lon="2.96305">
        <ele>1077.6</ele>
        <time>2026-05-07T10:46:09.999Z</time>
      </trkpt>
      <trkpt lat="43.59495" lon="2.96308">
        <ele>1077.6</ele>
        <time>2026-05-07T10:46:10.999Z</time>
      </trkpt>
      <trkpt lat="43.59495" lon="2.9631">
        <ele>1077.2</ele>
        <time>2026-05-07T10:46:11.999Z</time>
      </trkpt>
      <trkpt lat="43.59494" lon="2.96311">
        <ele>1077</ele>
        <time>2026-05-07T10:46:12.999Z</time>
      </trkpt>
      <trkpt lat="43.59493" lon="2.96312">
        <ele>1076.7</ele>
        <time>2026-05-07T10:46:13.999Z</time>
      </trkpt>
      <trkpt lat="43.59489" lon="2.9631">
        <ele>1076</ele>
        <time>2026-05-07T10:46:14.999Z</time>
      </trkpt>
      <trkpt lat="43.59487" lon="2.96309">
        <ele>1075.6</ele>
        <time>2026-05-07T10:46:15.999Z</time>
      </trkpt>
      <trkpt lat="43.59487" lon="2.96311">
        <ele>1075.6</ele>
        <time>2026-05-07T10:46:16.999Z</time>
      </trkpt>
      <trkpt lat="43.59486" lon="2.96311">
        <ele>1075.5</ele>
        <time>2026-05-07T10:46:17.999Z</time>
      </trkpt>
      <trkpt lat="43.59486" lon="2.96312">
        <ele>1075</ele>
        <time>2026-05-07T10:46:18.999Z</time>
      </trkpt>
      <trkpt lat="43.59485" lon="2.9631">
        <ele>1074.2</ele>
        <time>2026-05-07T10:46:19.999Z</time>
      </trkpt>
      <trkpt lat="43.59485" lon="2.9631">
        <ele>1073.8</ele>
        <time>2026-05-07T10:46:20.999Z</time>
      </trkpt>
      <trkpt lat="43.59484" lon="2.9631">
        <ele>1073.8</ele>
        <time>2026-05-07T10:46:21.999Z</time>
      </trkpt>
      <trkpt lat="43.59484" lon="2.9631">
        <ele>1073.7</ele>
        <time>2026-05-07T10:46:22.999Z</time>
      </trkpt>
      <trkpt lat="43.59483" lon="2.9631">
        <ele>1073.7</ele>
        <time>2026-05-07T10:46:23.999Z</time>
      </trkpt>
      <trkpt lat="43.59482" lon="2.96309">
        <ele>1074.1</ele>
        <time>2026-05-07T10:46:24.999Z</time>
      </trkpt>
      <trkpt lat="43.59481" lon="2.96309">
        <ele>1074.3</ele>
        <time>2026-05-07T10:46:25.999Z</time>
      </trkpt>
      <trkpt lat="43.5948" lon="2.9631">
        <ele>1074.2</ele>
        <time>2026-05-07T10:46:26.999Z</time>
      </trkpt>
      <trkpt lat="43.59479" lon="2.9631">
        <ele>1074</ele>
        <time>2026-05-07T10:46:27.999Z</time>
      </trkpt>
      <trkpt lat="43.5948" lon="2.9631">
        <ele>1073.8</ele>
        <time>2026-05-07T10:46:28.999Z</time>
      </trkpt>
      <trkpt lat="43.5948" lon="2.96311">
        <ele>1073.6</ele>
        <time>2026-05-07T10:46:29.999Z</time>
      </trkpt>
      <trkpt lat="43.5948" lon="2.9631">
        <ele>1073.9</ele>
        <time>2026-05-07T10:46:30.999Z</time>
      </trkpt>
      <trkpt lat="43.5948" lon="2.9631">
        <ele>1074.2</ele>
        <time>2026-05-07T10:46:31.999Z</time>
      </trkpt>
      <trkpt lat="43.5948" lon="2.9631">
        <ele>1074.7</ele>
        <time>2026-05-07T10:46:32.999Z</time>
      </trkpt>
      <trkpt lat="43.5948" lon="2.9631">
        <ele>1074.8</ele>
        <time>2026-05-07T10:46:33.999Z</time>
      </trkpt>
      <trkpt lat="43.59479" lon="2.9631">
        <ele>1075.1</ele>
        <time>2026-05-07T10:46:34.999Z</time>
      </trkpt>
      <trkpt lat="43.59479" lon="2.9631">
        <ele>1075.1</ele>
        <time>2026-05-07T10:46:35.999Z</time>
      </trkpt>
      <trkpt lat="43.59479" lon="2.9631">
        <ele>1075.1</ele>
        <time>2026-05-07T10:46:36.999Z</time>
      </trkpt>
      <trkpt lat="43.59479" lon="2.9631">
        <ele>1074.9</ele>
        <time>2026-05-07T10:46:37.999Z</time>
      </trkpt>
      <trkpt lat="43.59479" lon="2.9631">
        <ele>1074.7</ele>
        <time>2026-05-07T10:46:38.999Z</time>
      </trkpt>
      <trkpt lat="43.59479" lon="2.9631">
        <ele>1074.5</ele>
        <time>2026-05-07T10:46:39.999Z</time>
      </trkpt>
      <trkpt lat="43.59479" lon="2.9631">
        <ele>1074.4</ele>
        <time>2026-05-07T10:46:40.999Z</time>
      </trkpt>
      <trkpt lat="43.59479" lon="2.9631">
        <ele>1074.2</ele>
        <time>2026-05-07T10:46:41.999Z</time>
      </trkpt>
      <trkpt lat="43.59479" lon="2.9631">
        <ele>1074</ele>
        <time>2026-05-07T10:46:42.999Z</time>
      </trkpt>
      <trkpt lat="43.59479" lon="2.9631">
        <ele>1074</ele>
        <time>2026-05-07T10:46:43.999Z</time>
      </trkpt>
      <trkpt lat="43.59479" lon="2.9631">
        <ele>1074</ele>
        <time>2026-05-07T10:46:44.999Z</time>
      </trkpt>
      <trkpt lat="43.59479" lon="2.9631">
        <ele>1074</ele>
        <time>2026-05-07T10:46:45.999Z</time>
      </trkpt>
      <trkpt lat="43.59479" lon="2.9631">
        <ele>1074</ele>
        <time>2026-05-07T10:46:46.999Z</time>
      </trkpt>
      <trkpt lat="43.59479" lon="2.96309">
        <ele>1074</ele>
        <time>2026-05-07T10:46:47.999Z</time>
      </trkpt>
      <trkpt lat="43.59478" lon="2.96308">
        <ele>1074</ele>
        <time>2026-05-07T10:46:48.999Z</time>
      </trkpt>
      <trkpt lat="43.59477" lon="2.96307">
        <ele>1074</ele>
        <time>2026-05-07T10:46:49.999Z</time>
      </trkpt>
      <trkpt lat="43.59476" lon="2.96306">
        <ele>1074</ele>
        <time>2026-05-07T10:46:50.999Z</time>
      </trkpt>
      <trkpt lat="43.59475" lon="2.96305">
        <ele>1074</ele>
        <time>2026-05-07T10:46:51.999Z</time>
      </trkpt>
      <trkpt lat="43.59474" lon="2.96304">
        <ele>1073.8</ele>
        <time>2026-05-07T10:46:52.999Z</time>
      </trkpt>
      <trkpt lat="43.59473" lon="2.96304">
        <ele>1073.9</ele>
        <time>2026-05-07T10:46:53.999Z</time>
      </trkpt>
      <trkpt lat="43.59473" lon="2.96303">
        <ele>1073.8</ele>
        <time>2026-05-07T10:46:54.999Z</time>
      </trkpt>
      <trkpt lat="43.59472" lon="2.96302">
        <ele>1074.2</ele>
        <time>2026-05-07T10:46:55.999Z</time>
      </trkpt>
      <trkpt lat="43.59471" lon="2.96302">
        <ele>1074.3</ele>
        <time>2026-05-07T10:46:56.999Z</time>
      </trkpt>
      <trkpt lat="43.59471" lon="2.96301">
        <ele>1074.5</ele>
        <time>2026-05-07T10:46:57.999Z</time>
      </trkpt>
      <trkpt lat="43.5947" lon="2.96301">
        <ele>1074.7</ele>
        <time>2026-05-07T10:46:58.999Z</time>
      </trkpt>
      <trkpt lat="43.5947" lon="2.96301">
        <ele>1074.9</ele>
        <time>2026-05-07T10:46:59.999Z</time>
      </trkpt>
      <trkpt lat="43.59469" lon="2.96301">
        <ele>1074.9</ele>
        <time>2026-05-07T10:47:00.999Z</time>
      </trkpt>
      <trkpt lat="43.59469" lon="2.963">
        <ele>1074.6</ele>
        <time>2026-05-07T10:47:01.999Z</time>
      </trkpt>
      <trkpt lat="43.59468" lon="2.96299">
        <ele>1074.3</ele>
        <time>2026-05-07T10:47:02.999Z</time>
      </trkpt>
      <trkpt lat="43.59469" lon="2.96299">
        <ele>1074.1</ele>
        <time>2026-05-07T10:47:03.999Z</time>
      </trkpt>
      <trkpt lat="43.5947" lon="2.96298">
        <ele>1074.1</ele>
        <time>2026-05-07T10:47:04.999Z</time>
      </trkpt>
      <trkpt lat="43.5947" lon="2.96298">
        <ele>1074.2</ele>
        <time>2026-05-07T10:47:05.999Z</time>
      </trkpt>
      <trkpt lat="43.5947" lon="2.96297">
        <ele>1074.2</ele>
        <time>2026-05-07T10:47:06.999Z</time>
      </trkpt>
      <trkpt lat="43.5947" lon="2.96297">
        <ele>1074.7</ele>
        <time>2026-05-07T10:47:07.999Z</time>
      </trkpt>
      <trkpt lat="43.5947" lon="2.96296">
        <ele>1074.4</ele>
        <time>2026-05-07T10:47:08.999Z</time>
      </trkpt>
      <trkpt lat="43.59469" lon="2.96297">
        <ele>1074.1</ele>
        <time>2026-05-07T10:47:09.999Z</time>
      </trkpt>
      <trkpt lat="43.59469" lon="2.96297">
        <ele>1074</ele>
        <time>2026-05-07T10:47:10.999Z</time>
      </trkpt>
      <trkpt lat="43.59468" lon="2.96297">
        <ele>1073.8</ele>
        <time>2026-05-07T10:47:11.999Z</time>
      </trkpt>
      <trkpt lat="43.59468" lon="2.96297">
        <ele>1073.5</ele>
        <time>2026-05-07T10:47:12.999Z</time>
      </trkpt>
      <trkpt lat="43.59468" lon="2.96297">
        <ele>1073.6</ele>
        <time>2026-05-07T10:47:13.999Z</time>
      </trkpt>
      <trkpt lat="43.59468" lon="2.96297">
        <ele>1073.3</ele>
        <time>2026-05-07T10:47:14.999Z</time>
      </trkpt>
      <trkpt lat="43.59468" lon="2.96297">
        <ele>1072.8</ele>
        <time>2026-05-07T10:47:15.999Z</time>
      </trkpt>
      <trkpt lat="43.59468" lon="2.96297">
        <ele>1072.5</ele>
        <time>2026-05-07T10:47:16.999Z</time>
      </trkpt>
      <trkpt lat="43.59468" lon="2.96297">
        <ele>1072.4</ele>
        <time>2026-05-07T10:47:17.999Z</time>
      </trkpt>
      <trkpt lat="43.59467" lon="2.96297">
        <ele>1072.6</ele>
        <time>2026-05-07T10:47:18.999Z</time>
      </trkpt>
      <trkpt lat="43.59467" lon="2.96297">
        <ele>1072.5</ele>
        <time>2026-05-07T10:47:19.999Z</time>
      </trkpt>
      <trkpt lat="43.59467" lon="2.96297">
        <ele>1072.4</ele>
        <time>2026-05-07T10:47:20.999Z</time>
      </trkpt>
      <trkpt lat="43.59466" lon="2.96297">
        <ele>1072.3</ele>
        <time>2026-05-07T10:47:21.999Z</time>
      </trkpt>
      <trkpt lat="43.59465" lon="2.96297">
        <ele>1072.3</ele>
        <time>2026-05-07T10:47:22.999Z</time>
      </trkpt>
      <trkpt lat="43.59464" lon="2.96296">
        <ele>1072.3</ele>
        <time>2026-05-07T10:47:23.999Z</time>
      </trkpt>
      <trkpt lat="43.59463" lon="2.96296">
        <ele>1072.1</ele>
        <time>2026-05-07T10:47:24.999Z</time>
      </trkpt>
      <trkpt lat="43.59463" lon="2.96296">
        <ele>1072</ele>
        <time>2026-05-07T10:47:25.999Z</time>
      </trkpt>
      <trkpt lat="43.59463" lon="2.96296">
        <ele>1071.8</ele>
        <time>2026-05-07T10:47:26.999Z</time>
      </trkpt>
      <trkpt lat="43.59462" lon="2.96295">
        <ele>1071.7</ele>
        <time>2026-05-07T10:47:27.999Z</time>
      </trkpt>
      <trkpt lat="43.59462" lon="2.96295">
        <ele>1071.6</ele>
        <time>2026-05-07T10:47:28.999Z</time>
      </trkpt>
      <trkpt lat="43.59462" lon="2.96296">
        <ele>1071.6</ele>
        <time>2026-05-07T10:47:29.999Z</time>
      </trkpt>
      <trkpt lat="43.59462" lon="2.96296">
        <ele>1071.6</ele>
        <time>2026-05-07T10:47:30.999Z</time>
      </trkpt>
      <trkpt lat="43.59461" lon="2.96296">
        <ele>1071.6</ele>
        <time>2026-05-07T10:47:31.999Z</time>
      </trkpt>
      <trkpt lat="43.59461" lon="2.96296">
        <ele>1071.6</ele>
        <time>2026-05-07T10:47:32.999Z</time>
      </trkpt>
      <trkpt lat="43.59461" lon="2.96296">
        <ele>1071.5</ele>
        <time>2026-05-07T10:47:33.999Z</time>
      </trkpt>
      <trkpt lat="43.59461" lon="2.96296">
        <ele>1071.5</ele>
        <time>2026-05-07T10:47:34.999Z</time>
      </trkpt>
      <trkpt lat="43.59461" lon="2.96296">
        <ele>1071.5</ele>
        <time>2026-05-07T10:47:35.999Z</time>
      </trkpt>
      <trkpt lat="43.59461" lon="2.96296">
        <ele>1071.5</ele>
        <time>2026-05-07T10:47:36.999Z</time>
      </trkpt>
      <trkpt lat="43.59461" lon="2.96296">
        <ele>1071.5</ele>
        <time>2026-05-07T10:47:37.999Z</time>
      </trkpt>
      <trkpt lat="43.5946" lon="2.96296">
        <ele>1071.5</ele>
        <time>2026-05-07T10:47:38.999Z</time>
      </trkpt>
      <trkpt lat="43.5946" lon="2.96295">
        <ele>1071.5</ele>
        <time>2026-05-07T10:47:39.999Z</time>
      </trkpt>
      <trkpt lat="43.59459" lon="2.96295">
        <ele>1071.5</ele>
        <time>2026-05-07T10:47:40.999Z</time>
      </trkpt>
      <trkpt lat="43.59459" lon="2.96294">
        <ele>1071.4</ele>
        <time>2026-05-07T10:47:41.999Z</time>
      </trkpt>
      <trkpt lat="43.59458" lon="2.96293">
        <ele>1071.4</ele>
        <time>2026-05-07T10:47:42.999Z</time>
      </trkpt>
      <trkpt lat="43.59457" lon="2.96292">
        <ele>1071.4</ele>
        <time>2026-05-07T10:47:43.999Z</time>
      </trkpt>
      <trkpt lat="43.59456" lon="2.96291">
        <ele>1071.5</ele>
        <time>2026-05-07T10:47:44.999Z</time>
      </trkpt>
      <trkpt lat="43.59455" lon="2.9629">
        <ele>1071.4</ele>
        <time>2026-05-07T10:47:45.999Z</time>
      </trkpt>
      <trkpt lat="43.59455" lon="2.9629">
        <ele>1071.4</ele>
        <time>2026-05-07T10:47:46.999Z</time>
      </trkpt>
      <trkpt lat="43.59454" lon="2.96289">
        <ele>1071.4</ele>
        <time>2026-05-07T10:47:47.999Z</time>
      </trkpt>
      <trkpt lat="43.59454" lon="2.96289">
        <ele>1071.3</ele>
        <time>2026-05-07T10:47:48.999Z</time>
      </trkpt>
      <trkpt lat="43.59453" lon="2.96288">
        <ele>1071.2</ele>
        <time>2026-05-07T10:47:49.999Z</time>
      </trkpt>
      <trkpt lat="43.59453" lon="2.96287">
        <ele>1071.1</ele>
        <time>2026-05-07T10:47:50.999Z</time>
      </trkpt>
      <trkpt lat="43.59452" lon="2.96286">
        <ele>1071.6</ele>
        <time>2026-05-07T10:47:51.999Z</time>
      </trkpt>
      <trkpt lat="43.59452" lon="2.96285">
        <ele>1071.4</ele>
        <time>2026-05-07T10:47:52.999Z</time>
      </trkpt>
      <trkpt lat="43.59452" lon="2.96285">
        <ele>1071.7</ele>
        <time>2026-05-07T10:47:53.999Z</time>
      </trkpt>
      <trkpt lat="43.59452" lon="2.96285">
        <ele>1072</ele>
        <time>2026-05-07T10:47:54.999Z</time>
      </trkpt>
      <trkpt lat="43.59452" lon="2.96285">
        <ele>1072.4</ele>
        <time>2026-05-07T10:47:55.999Z</time>
      </trkpt>
      <trkpt lat="43.59452" lon="2.96285">
        <ele>1072.6</ele>
        <time>2026-05-07T10:47:56.999Z</time>
      </trkpt>
      <trkpt lat="43.59452" lon="2.96285">
        <ele>1072.9</ele>
        <time>2026-05-07T10:47:57.999Z</time>
      </trkpt>
      <trkpt lat="43.59452" lon="2.96285">
        <ele>1073.5</ele>
        <time>2026-05-07T10:47:58.999Z</time>
      </trkpt>
      <trkpt lat="43.59452" lon="2.96285">
        <ele>1074</ele>
        <time>2026-05-07T10:47:59.999Z</time>
      </trkpt>
      <trkpt lat="43.59452" lon="2.96285">
        <ele>1075.7</ele>
        <time>2026-05-07T10:48:00.999Z</time>
      </trkpt>
      <trkpt lat="43.59452" lon="2.96285">
        <ele>1077.1</ele>
        <time>2026-05-07T10:48:01.999Z</time>
      </trkpt>
      <trkpt lat="43.59451" lon="2.96285">
        <ele>1078.1</ele>
        <time>2026-05-07T10:48:02.999Z</time>
      </trkpt>
      <trkpt lat="43.59451" lon="2.96285">
        <ele>1078.6</ele>
        <time>2026-05-07T10:48:03.999Z</time>
      </trkpt>
      <trkpt lat="43.59452" lon="2.96285">
        <ele>1079.1</ele>
        <time>2026-05-07T10:48:04.999Z</time>
      </trkpt>
      <trkpt lat="43.59452" lon="2.96285">
        <ele>1080.1</ele>
        <time>2026-05-07T10:48:05.999Z</time>
      </trkpt>
      <trkpt lat="43.59452" lon="2.96285">
        <ele>1080.6</ele>
        <time>2026-05-07T10:48:06.999Z</time>
      </trkpt>
      <trkpt lat="43.59452" lon="2.96285">
        <ele>1081</ele>
        <time>2026-05-07T10:48:07.999Z</time>
      </trkpt>
      <trkpt lat="43.59452" lon="2.96285">
        <ele>1081.3</ele>
        <time>2026-05-07T10:48:08.999Z</time>
      </trkpt>
      <trkpt lat="43.59452" lon="2.96285">
        <ele>1081.7</ele>
        <time>2026-05-07T10:48:09.999Z</time>
      </trkpt>
      <trkpt lat="43.59452" lon="2.96285">
        <ele>1082.1</ele>
        <time>2026-05-07T10:48:10.999Z</time>
      </trkpt>
      <trkpt lat="43.59451" lon="2.96285">
        <ele>1082.8</ele>
        <time>2026-05-07T10:48:11.999Z</time>
      </trkpt>
      <trkpt lat="43.59451" lon="2.96285">
        <ele>1083.5</ele>
        <time>2026-05-07T10:48:12.999Z</time>
      </trkpt>
      <trkpt lat="43.59451" lon="2.96285">
        <ele>1084</ele>
        <time>2026-05-07T10:48:13.999Z</time>
      </trkpt>
      <trkpt lat="43.59451" lon="2.96285">
        <ele>1083.9</ele>
        <time>2026-05-07T10:48:14.999Z</time>
      </trkpt>
      <trkpt lat="43.59451" lon="2.96285">
        <ele>1084.3</ele>
        <time>2026-05-07T10:48:15.999Z</time>
      </trkpt>
      <trkpt lat="43.59451" lon="2.96284">
        <ele>1084.2</ele>
        <time>2026-05-07T10:48:16.999Z</time>
      </trkpt>
      <trkpt lat="43.59451" lon="2.96284">
        <ele>1084</ele>
        <time>2026-05-07T10:48:17.999Z</time>
      </trkpt>
      <trkpt lat="43.59451" lon="2.96284">
        <ele>1083.8</ele>
        <time>2026-05-07T10:48:18.999Z</time>
      </trkpt>
      <trkpt lat="43.59451" lon="2.96284">
        <ele>1083.8</ele>
        <time>2026-05-07T10:48:19.999Z</time>
      </trkpt>
      <trkpt lat="43.59451" lon="2.96284">
        <ele>1083.9</ele>
        <time>2026-05-07T10:48:20.999Z</time>
      </trkpt>
      <trkpt lat="43.59451" lon="2.96284">
        <ele>1084</ele>
        <time>2026-05-07T10:48:21.999Z</time>
      </trkpt>
      <trkpt lat="43.59451" lon="2.96284">
        <ele>1083.8</ele>
        <time>2026-05-07T10:48:22.999Z</time>
      </trkpt>
      <trkpt lat="43.59451" lon="2.96284">
        <ele>1083.8</ele>
        <time>2026-05-07T10:48:23.999Z</time>
      </trkpt>
      <trkpt lat="43.59451" lon="2.96284">
        <ele>1083.8</ele>
        <time>2026-05-07T10:48:24.999Z</time>
      </trkpt>
      <trkpt lat="43.59451" lon="2.96284">
        <ele>1083.9</ele>
        <time>2026-05-07T10:48:25.999Z</time>
      </trkpt>
      <trkpt lat="43.59451" lon="2.96284">
        <ele>1083.9</ele>
        <time>2026-05-07T10:48:26.999Z</time>
      </trkpt>
      <trkpt lat="43.59451" lon="2.96284">
        <ele>1084</ele>
        <time>2026-05-07T10:48:27.999Z</time>
      </trkpt>
      <trkpt lat="43.59451" lon="2.96285">
        <ele>1084.1</ele>
        <time>2026-05-07T10:48:28.999Z</time>
      </trkpt>
      <trkpt lat="43.5945" lon="2.96285">
        <ele>1084.4</ele>
        <time>2026-05-07T10:48:29.999Z</time>
      </trkpt>
      <trkpt lat="43.59449" lon="2.96285">
        <ele>1084.3</ele>
        <time>2026-05-07T10:48:31.999Z</time>
      </trkpt>
      <trkpt lat="43.59448" lon="2.96284">
        <ele>1084.2</ele>
        <time>2026-05-07T10:48:32.999Z</time>
      </trkpt>
      <trkpt lat="43.59447" lon="2.96282">
        <ele>1084.6</ele>
        <time>2026-05-07T10:48:33.999Z</time>
      </trkpt>
      <trkpt lat="43.59446" lon="2.96283">
        <ele>1084.6</ele>
        <time>2026-05-07T10:48:34.999Z</time>
      </trkpt>
      <trkpt lat="43.59446" lon="2.96282">
        <ele>1084.8</ele>
        <time>2026-05-07T10:48:35.999Z</time>
      </trkpt>
      <trkpt lat="43.59445" lon="2.96282">
        <ele>1084.7</ele>
        <time>2026-05-07T10:48:36.999Z</time>
      </trkpt>
      <trkpt lat="43.59445" lon="2.96283">
        <ele>1084.8</ele>
        <time>2026-05-07T10:48:37.999Z</time>
      </trkpt>
      <trkpt lat="43.59445" lon="2.96283">
        <ele>1084.8</ele>
        <time>2026-05-07T10:48:38.999Z</time>
      </trkpt>
      <trkpt lat="43.59445" lon="2.96284">
        <ele>1084.8</ele>
        <time>2026-05-07T10:48:39.999Z</time>
      </trkpt>
      <trkpt lat="43.59445" lon="2.96284">
        <ele>1083.8</ele>
        <time>2026-05-07T10:48:40.999Z</time>
      </trkpt>
      <trkpt lat="43.59445" lon="2.96284">
        <ele>1083.9</ele>
        <time>2026-05-07T10:48:41.999Z</time>
      </trkpt>
      <trkpt lat="43.59445" lon="2.96283">
        <ele>1084</ele>
        <time>2026-05-07T10:48:42.999Z</time>
      </trkpt>
      <trkpt lat="43.59446" lon="2.96283">
        <ele>1084</ele>
        <time>2026-05-07T10:48:43.999Z</time>
      </trkpt>
      <trkpt lat="43.59446" lon="2.96283">
        <ele>1083.9</ele>
        <time>2026-05-07T10:48:44.999Z</time>
      </trkpt>
      <trkpt lat="43.59447" lon="2.96283">
        <ele>1083.7</ele>
        <time>2026-05-07T10:48:45.999Z</time>
      </trkpt>
      <trkpt lat="43.59447" lon="2.96283">
        <ele>1083.3</ele>
        <time>2026-05-07T10:48:46.999Z</time>
      </trkpt>
      <trkpt lat="43.59446" lon="2.96283">
        <ele>1083.4</ele>
        <time>2026-05-07T10:48:47.999Z</time>
      </trkpt>
      <trkpt lat="43.59447" lon="2.96283">
        <ele>1083.9</ele>
        <time>2026-05-07T10:48:48.999Z</time>
      </trkpt>
      <trkpt lat="43.59447" lon="2.96284">
        <ele>1083.9</ele>
        <time>2026-05-07T10:48:49.999Z</time>
      </trkpt>
      <trkpt lat="43.59447" lon="2.96284">
        <ele>1083.5</ele>
        <time>2026-05-07T10:48:50.999Z</time>
      </trkpt>
      <trkpt lat="43.59447" lon="2.96283">
        <ele>1083.4</ele>
        <time>2026-05-07T10:48:51.999Z</time>
      </trkpt>
      <trkpt lat="43.59447" lon="2.96283">
        <ele>1083.3</ele>
        <time>2026-05-07T10:48:52.999Z</time>
      </trkpt>
      <trkpt lat="43.59447" lon="2.96283">
        <ele>1083.4</ele>
        <time>2026-05-07T10:48:53.999Z</time>
      </trkpt>
      <trkpt lat="43.59447" lon="2.96284">
        <ele>1082.8</ele>
        <time>2026-05-07T10:48:54.999Z</time>
      </trkpt>
      <trkpt lat="43.59447" lon="2.96285">
        <ele>1082.4</ele>
        <time>2026-05-07T10:48:55.999Z</time>
      </trkpt>
      <trkpt lat="43.59447" lon="2.96285">
        <ele>1082.5</ele>
        <time>2026-05-07T10:48:56.999Z</time>
      </trkpt>
      <trkpt lat="43.59447" lon="2.96285">
        <ele>1082.7</ele>
        <time>2026-05-07T10:48:57.999Z</time>
      </trkpt>
      <trkpt lat="43.59447" lon="2.96285">
        <ele>1082.6</ele>
        <time>2026-05-07T10:48:58.999Z</time>
      </trkpt>
      <trkpt lat="43.59447" lon="2.96285">
        <ele>1082.6</ele>
        <time>2026-05-07T10:48:59.999Z</time>
      </trkpt>
      <trkpt lat="43.59447" lon="2.96285">
        <ele>1082.3</ele>
        <time>2026-05-07T10:49:00.999Z</time>
      </trkpt>
      <trkpt lat="43.59447" lon="2.96285">
        <ele>1082.4</ele>
        <time>2026-05-07T10:49:01.999Z</time>
      </trkpt>
      <trkpt lat="43.59447" lon="2.96285">
        <ele>1082.5</ele>
        <time>2026-05-07T10:49:02.999Z</time>
      </trkpt>
      <trkpt lat="43.59447" lon="2.96285">
        <ele>1082.5</ele>
        <time>2026-05-07T10:49:03.999Z</time>
      </trkpt>
      <trkpt lat="43.59447" lon="2.96285">
        <ele>1082.5</ele>
        <time>2026-05-07T10:49:04.999Z</time>
      </trkpt>
      <trkpt lat="43.59447" lon="2.96285">
        <ele>1082.6</ele>
        <time>2026-05-07T10:49:05.999Z</time>
      </trkpt>
      <trkpt lat="43.59447" lon="2.96286">
        <ele>1082.8</ele>
        <time>2026-05-07T10:49:06.999Z</time>
      </trkpt>
      <trkpt lat="43.59447" lon="2.96287">
        <ele>1083</ele>
        <time>2026-05-07T10:49:07.999Z</time>
      </trkpt>
      <trkpt lat="43.59447" lon="2.96288">
        <ele>1083</ele>
        <time>2026-05-07T10:49:09.000Z</time>
      </trkpt>
      <trkpt lat="43.59447" lon="2.96288">
        <ele>1083</ele>
        <time>2026-05-07T10:49:10.000Z</time>
      </trkpt>
      <trkpt lat="43.59447" lon="2.96288">
        <ele>1083.1</ele>
        <time>2026-05-07T10:49:11.000Z</time>
      </trkpt>
      <trkpt lat="43.59447" lon="2.96288">
        <ele>1083.3</ele>
        <time>2026-05-07T10:49:12.000Z</time>
      </trkpt>
      <trkpt lat="43.59447" lon="2.96288">
        <ele>1083.1</ele>
        <time>2026-05-07T10:49:13.000Z</time>
      </trkpt>
      <trkpt lat="43.59447" lon="2.96288">
        <ele>1083.1</ele>
        <time>2026-05-07T10:49:14.000Z</time>
      </trkpt>
      <trkpt lat="43.59447" lon="2.96288">
        <ele>1083.1</ele>
        <time>2026-05-07T10:49:15.000Z</time>
      </trkpt>
      <trkpt lat="43.59447" lon="2.96288">
        <ele>1083.2</ele>
        <time>2026-05-07T10:49:16.000Z</time>
      </trkpt>
      <trkpt lat="43.59447" lon="2.96288">
        <ele>1083.5</ele>
        <time>2026-05-07T10:49:17.000Z</time>
      </trkpt>
      <trkpt lat="43.59447" lon="2.96288">
        <ele>1083.7</ele>
        <time>2026-05-07T10:49:18.000Z</time>
      </trkpt>
      <trkpt lat="43.59447" lon="2.96288">
        <ele>1083.5</ele>
        <time>2026-05-07T10:49:19.000Z</time>
      </trkpt>
      <trkpt lat="43.59447" lon="2.96288">
        <ele>1083.4</ele>
        <time>2026-05-07T10:49:20.000Z</time>
      </trkpt>
      <trkpt lat="43.59447" lon="2.96288">
        <ele>1083.2</ele>
        <time>2026-05-07T10:49:21.000Z</time>
      </trkpt>
      <trkpt lat="43.59447" lon="2.96288">
        <ele>1083.2</ele>
        <time>2026-05-07T10:49:22.000Z</time>
      </trkpt>
      <trkpt lat="43.59447" lon="2.96288">
        <ele>1083.4</ele>
        <time>2026-05-07T10:49:23.000Z</time>
      </trkpt>
      <trkpt lat="43.59447" lon="2.96288">
        <ele>1083.3</ele>
        <time>2026-05-07T10:49:24.000Z</time>
      </trkpt>
      <trkpt lat="43.59447" lon="2.96288">
        <ele>1083.5</ele>
        <time>2026-05-07T10:49:25.000Z</time>
      </trkpt>
      <trkpt lat="43.59447" lon="2.96288">
        <ele>1083.6</ele>
        <time>2026-05-07T10:49:26.000Z</time>
      </trkpt>
      <trkpt lat="43.59447" lon="2.96289">
        <ele>1083.8</ele>
        <time>2026-05-07T10:49:27.000Z</time>
      </trkpt>
      <trkpt lat="43.59447" lon="2.96289">
        <ele>1083.7</ele>
        <time>2026-05-07T10:49:28.000Z</time>
      </trkpt>
      <trkpt lat="43.59447" lon="2.96289">
        <ele>1083.8</ele>
        <time>2026-05-07T10:49:29.000Z</time>
      </trkpt>
      <trkpt lat="43.59447" lon="2.96289">
        <ele>1083.9</ele>
        <time>2026-05-07T10:49:30.000Z</time>
      </trkpt>
      <trkpt lat="43.59447" lon="2.96289">
        <ele>1084.1</ele>
        <time>2026-05-07T10:49:31.000Z</time>
      </trkpt>
      <trkpt lat="43.59447" lon="2.96289">
        <ele>1084.1</ele>
        <time>2026-05-07T10:49:32.000Z</time>
      </trkpt>
      <trkpt lat="43.59447" lon="2.96289">
        <ele>1084.8</ele>
        <time>2026-05-07T10:49:33.000Z</time>
      </trkpt>
      <trkpt lat="43.59447" lon="2.96289">
        <ele>1085.3</ele>
        <time>2026-05-07T10:49:34.000Z</time>
      </trkpt>
      <trkpt lat="43.59447" lon="2.96289">
        <ele>1085.7</ele>
        <time>2026-05-07T10:49:35.000Z</time>
      </trkpt>
      <trkpt lat="43.59447" lon="2.96289">
        <ele>1085.9</ele>
        <time>2026-05-07T10:49:36.000Z</time>
      </trkpt>
      <trkpt lat="43.59447" lon="2.96289">
        <ele>1086.1</ele>
        <time>2026-05-07T10:49:37.000Z</time>
      </trkpt>
      <trkpt lat="43.59447" lon="2.96289">
        <ele>1086.2</ele>
        <time>2026-05-07T10:49:38.000Z</time>
      </trkpt>
      <trkpt lat="43.59447" lon="2.96289">
        <ele>1086.3</ele>
        <time>2026-05-07T10:49:39.000Z</time>
      </trkpt>
      <trkpt lat="43.59447" lon="2.96289">
        <ele>1086.6</ele>
        <time>2026-05-07T10:49:40.000Z</time>
      </trkpt>
      <trkpt lat="43.59446" lon="2.96289">
        <ele>1087</ele>
        <time>2026-05-07T10:49:41.000Z</time>
      </trkpt>
      <trkpt lat="43.59447" lon="2.96289">
        <ele>1087.4</ele>
        <time>2026-05-07T10:49:42.000Z</time>
      </trkpt>
      <trkpt lat="43.59447" lon="2.96289">
        <ele>1087.9</ele>
        <time>2026-05-07T10:49:43.000Z</time>
      </trkpt>
      <trkpt lat="43.59446" lon="2.96289">
        <ele>1088.2</ele>
        <time>2026-05-07T10:49:44.000Z</time>
      </trkpt>
      <trkpt lat="43.59446" lon="2.96289">
        <ele>1088.6</ele>
        <time>2026-05-07T10:49:45.000Z</time>
      </trkpt>
      <trkpt lat="43.59446" lon="2.96289">
        <ele>1088.8</ele>
        <time>2026-05-07T10:49:46.000Z</time>
      </trkpt>
      <trkpt lat="43.59446" lon="2.96289">
        <ele>1088.7</ele>
        <time>2026-05-07T10:49:47.000Z</time>
      </trkpt>
      <trkpt lat="43.59446" lon="2.96289">
        <ele>1088.8</ele>
        <time>2026-05-07T10:49:48.000Z</time>
      </trkpt>
      <trkpt lat="43.59446" lon="2.96289">
        <ele>1089.1</ele>
        <time>2026-05-07T10:49:50.000Z</time>
      </trkpt>
      <trkpt lat="43.59446" lon="2.96289">
        <ele>1089.4</ele>
        <time>2026-05-07T10:49:51.000Z</time>
      </trkpt>
      <trkpt lat="43.59446" lon="2.96289">
        <ele>1089.4</ele>
        <time>2026-05-07T10:49:52.000Z</time>
      </trkpt>
      <trkpt lat="43.59446" lon="2.96289">
        <ele>1089.6</ele>
        <time>2026-05-07T10:49:53.000Z</time>
      </trkpt>
      <trkpt lat="43.59446" lon="2.96289">
        <ele>1089.6</ele>
        <time>2026-05-07T10:49:54.000Z</time>
      </trkpt>
      <trkpt lat="43.59446" lon="2.96289">
        <ele>1089.3</ele>
        <time>2026-05-07T10:49:55.000Z</time>
      </trkpt>
      <trkpt lat="43.59446" lon="2.96289">
        <ele>1089.1</ele>
        <time>2026-05-07T10:49:56.000Z</time>
      </trkpt>
      <trkpt lat="43.59446" lon="2.96289">
        <ele>1088.9</ele>
        <time>2026-05-07T10:49:57.000Z</time>
      </trkpt>
      <trkpt lat="43.59446" lon="2.96289">
        <ele>1088.9</ele>
        <time>2026-05-07T10:49:58.000Z</time>
      </trkpt>
      <trkpt lat="43.59446" lon="2.96289">
        <ele>1088.9</ele>
        <time>2026-05-07T10:49:59.000Z</time>
      </trkpt>
      <trkpt lat="43.59446" lon="2.96289">
        <ele>1088.8</ele>
        <time>2026-05-07T10:50:00.000Z</time>
      </trkpt>
      <trkpt lat="43.59446" lon="2.9629">
        <ele>1088.8</ele>
        <time>2026-05-07T10:50:01.000Z</time>
      </trkpt>
      <trkpt lat="43.59446" lon="2.96289">
        <ele>1088.6</ele>
        <time>2026-05-07T10:50:02.000Z</time>
      </trkpt>
      <trkpt lat="43.59446" lon="2.96289">
        <ele>1088.6</ele>
        <time>2026-05-07T10:50:03.000Z</time>
      </trkpt>
      <trkpt lat="43.59446" lon="2.96289">
        <ele>1088.5</ele>
        <time>2026-05-07T10:50:04.000Z</time>
      </trkpt>
      <trkpt lat="43.59446" lon="2.96289">
        <ele>1088.4</ele>
        <time>2026-05-07T10:50:05.000Z</time>
      </trkpt>
      <trkpt lat="43.59446" lon="2.9629">
        <ele>1088.3</ele>
        <time>2026-05-07T10:50:06.000Z</time>
      </trkpt>
      <trkpt lat="43.59446" lon="2.9629">
        <ele>1088.3</ele>
        <time>2026-05-07T10:50:07.000Z</time>
      </trkpt>
      <trkpt lat="43.59446" lon="2.9629">
        <ele>1088.2</ele>
        <time>2026-05-07T10:50:08.000Z</time>
      </trkpt>
      <trkpt lat="43.59446" lon="2.9629">
        <ele>1088.2</ele>
        <time>2026-05-07T10:50:09.000Z</time>
      </trkpt>
      <trkpt lat="43.59446" lon="2.9629">
        <ele>1088.1</ele>
        <time>2026-05-07T10:50:10.000Z</time>
      </trkpt>
      <trkpt lat="43.59446" lon="2.9629">
        <ele>1088.1</ele>
        <time>2026-05-07T10:50:11.000Z</time>
      </trkpt>
      <trkpt lat="43.59446" lon="2.9629">
        <ele>1087.9</ele>
        <time>2026-05-07T10:50:12.000Z</time>
      </trkpt>
      <trkpt lat="43.59446" lon="2.9629">
        <ele>1087.7</ele>
        <time>2026-05-07T10:50:13.000Z</time>
      </trkpt>
      <trkpt lat="43.59446" lon="2.96289">
        <ele>1087.6</ele>
        <time>2026-05-07T10:50:14.000Z</time>
      </trkpt>
      <trkpt lat="43.59446" lon="2.96288">
        <ele>1087.6</ele>
        <time>2026-05-07T10:50:15.000Z</time>
      </trkpt>
      <trkpt lat="43.59447" lon="2.96287">
        <ele>1087.8</ele>
        <time>2026-05-07T10:50:16.000Z</time>
      </trkpt>
      <trkpt lat="43.59447" lon="2.96286">
        <ele>1087.6</ele>
        <time>2026-05-07T10:50:17.000Z</time>
      </trkpt>
      <trkpt lat="43.59447" lon="2.96286">
        <ele>1087.4</ele>
        <time>2026-05-07T10:50:18.000Z</time>
      </trkpt>
      <trkpt lat="43.59448" lon="2.96286">
        <ele>1087</ele>
        <time>2026-05-07T10:50:19.000Z</time>
      </trkpt>
      <trkpt lat="43.59449" lon="2.96286">
        <ele>1086.8</ele>
        <time>2026-05-07T10:50:20.000Z</time>
      </trkpt>
      <trkpt lat="43.59449" lon="2.96285">
        <ele>1086.2</ele>
        <time>2026-05-07T10:50:21.000Z</time>
      </trkpt>
      <trkpt lat="43.59449" lon="2.96283">
        <ele>1085.8</ele>
        <time>2026-05-07T10:50:22.000Z</time>
      </trkpt>
      <trkpt lat="43.59449" lon="2.96283">
        <ele>1085.4</ele>
        <time>2026-05-07T10:50:23.000Z</time>
      </trkpt>
      <trkpt lat="43.59449" lon="2.96282">
        <ele>1085.2</ele>
        <time>2026-05-07T10:50:24.000Z</time>
      </trkpt>
      <trkpt lat="43.59449" lon="2.96282">
        <ele>1085.5</ele>
        <time>2026-05-07T10:50:25.000Z</time>
      </trkpt>
      <trkpt lat="43.59449" lon="2.96282">
        <ele>1085.2</ele>
        <time>2026-05-07T10:50:26.000Z</time>
      </trkpt>
      <trkpt lat="43.59449" lon="2.96282">
        <ele>1085</ele>
        <time>2026-05-07T10:50:27.000Z</time>
      </trkpt>
      <trkpt lat="43.59449" lon="2.96282">
        <ele>1084.7</ele>
        <time>2026-05-07T10:50:28.000Z</time>
      </trkpt>
      <trkpt lat="43.59449" lon="2.96282">
        <ele>1084.5</ele>
        <time>2026-05-07T10:50:29.000Z</time>
      </trkpt>
      <trkpt lat="43.59449" lon="2.96282">
        <ele>1084.3</ele>
        <time>2026-05-07T10:50:30.000Z</time>
      </trkpt>
      <trkpt lat="43.59448" lon="2.96283">
        <ele>1084</ele>
        <time>2026-05-07T10:50:31.000Z</time>
      </trkpt>
      <trkpt lat="43.59448" lon="2.96283">
        <ele>1083.7</ele>
        <time>2026-05-07T10:50:32.000Z</time>
      </trkpt>
      <trkpt lat="43.59448" lon="2.96283">
        <ele>1083.2</ele>
        <time>2026-05-07T10:50:33.000Z</time>
      </trkpt>
      <trkpt lat="43.59448" lon="2.96283">
        <ele>1083</ele>
        <time>2026-05-07T10:50:34.000Z</time>
      </trkpt>
      <trkpt lat="43.59448" lon="2.96283">
        <ele>1082.7</ele>
        <time>2026-05-07T10:50:35.000Z</time>
      </trkpt>
      <trkpt lat="43.59448" lon="2.96283">
        <ele>1082.6</ele>
        <time>2026-05-07T10:50:36.000Z</time>
      </trkpt>
      <trkpt lat="43.59448" lon="2.96283">
        <ele>1082.6</ele>
        <time>2026-05-07T10:50:37.000Z</time>
      </trkpt>
      <trkpt lat="43.59448" lon="2.96284">
        <ele>1082.7</ele>
        <time>2026-05-07T10:50:38.000Z</time>
      </trkpt>
      <trkpt lat="43.59448" lon="2.96284">
        <ele>1082.6</ele>
        <time>2026-05-07T10:50:39.000Z</time>
      </trkpt>
      <trkpt lat="43.59447" lon="2.96284">
        <ele>1082.5</ele>
        <time>2026-05-07T10:50:40.000Z</time>
      </trkpt>
      <trkpt lat="43.59447" lon="2.96284">
        <ele>1082.5</ele>
        <time>2026-05-07T10:50:41.000Z</time>
      </trkpt>
      <trkpt lat="43.59447" lon="2.96284">
        <ele>1082.6</ele>
        <time>2026-05-07T10:50:42.000Z</time>
      </trkpt>
      <trkpt lat="43.59447" lon="2.96284">
        <ele>1082.6</ele>
        <time>2026-05-07T10:50:43.000Z</time>
      </trkpt>
      <trkpt lat="43.59447" lon="2.96284">
        <ele>1082.4</ele>
        <time>2026-05-07T10:50:44.000Z</time>
      </trkpt>
      <trkpt lat="43.59447" lon="2.96284">
        <ele>1082.3</ele>
        <time>2026-05-07T10:50:45.000Z</time>
      </trkpt>
      <trkpt lat="43.59447" lon="2.96285">
        <ele>1082.2</ele>
        <time>2026-05-07T10:50:46.000Z</time>
      </trkpt>
      <trkpt lat="43.59447" lon="2.96285">
        <ele>1082.2</ele>
        <time>2026-05-07T10:50:47.000Z</time>
      </trkpt>
      <trkpt lat="43.59447" lon="2.96285">
        <ele>1082.2</ele>
        <time>2026-05-07T10:50:48.000Z</time>
      </trkpt>
      <trkpt lat="43.59446" lon="2.96285">
        <ele>1082.3</ele>
        <time>2026-05-07T10:50:49.000Z</time>
      </trkpt>
      <trkpt lat="43.59446" lon="2.96285">
        <ele>1082.3</ele>
        <time>2026-05-07T10:50:50.000Z</time>
      </trkpt>
      <trkpt lat="43.59446" lon="2.96285">
        <ele>1082.3</ele>
        <time>2026-05-07T10:50:51.000Z</time>
      </trkpt>
      <trkpt lat="43.59446" lon="2.96286">
        <ele>1082.1</ele>
        <time>2026-05-07T10:50:52.000Z</time>
      </trkpt>
      <trkpt lat="43.59446" lon="2.96286">
        <ele>1081.7</ele>
        <time>2026-05-07T10:50:53.000Z</time>
      </trkpt>
      <trkpt lat="43.59446" lon="2.96286">
        <ele>1081.7</ele>
        <time>2026-05-07T10:50:54.000Z</time>
      </trkpt>
      <trkpt lat="43.59446" lon="2.96286">
        <ele>1081.6</ele>
        <time>2026-05-07T10:50:55.000Z</time>
      </trkpt>
      <trkpt lat="43.59446" lon="2.96286">
        <ele>1081.6</ele>
        <time>2026-05-07T10:50:56.000Z</time>
      </trkpt>
      <trkpt lat="43.59446" lon="2.96286">
        <ele>1082</ele>
        <time>2026-05-07T10:50:57.000Z</time>
      </trkpt>
      <trkpt lat="43.59446" lon="2.96286">
        <ele>1081.9</ele>
        <time>2026-05-07T10:50:58.000Z</time>
      </trkpt>
      <trkpt lat="43.59446" lon="2.96286">
        <ele>1081.9</ele>
        <time>2026-05-07T10:50:59.000Z</time>
      </trkpt>
      <trkpt lat="43.59446" lon="2.96286">
        <ele>1081.7</ele>
        <time>2026-05-07T10:51:00.000Z</time>
      </trkpt>
      <trkpt lat="43.59446" lon="2.96286">
        <ele>1081.7</ele>
        <time>2026-05-07T10:51:01.000Z</time>
      </trkpt>
      <trkpt lat="43.59446" lon="2.96286">
        <ele>1081.7</ele>
        <time>2026-05-07T10:51:02.000Z</time>
      </trkpt>
      <trkpt lat="43.59446" lon="2.96287">
        <ele>1081.5</ele>
        <time>2026-05-07T10:51:03.000Z</time>
      </trkpt>
      <trkpt lat="43.59446" lon="2.96287">
        <ele>1081.4</ele>
        <time>2026-05-07T10:51:04.000Z</time>
      </trkpt>
      <trkpt lat="43.59446" lon="2.96287">
        <ele>1081.2</ele>
        <time>2026-05-07T10:51:05.000Z</time>
      </trkpt>
      <trkpt lat="43.59446" lon="2.96287">
        <ele>1081.2</ele>
        <time>2026-05-07T10:51:06.000Z</time>
      </trkpt>
      <trkpt lat="43.59445" lon="2.96287">
        <ele>1081.1</ele>
        <time>2026-05-07T10:51:07.000Z</time>
      </trkpt>
      <trkpt lat="43.59445" lon="2.96287">
        <ele>1081.3</ele>
        <time>2026-05-07T10:51:08.000Z</time>
      </trkpt>
      <trkpt lat="43.59445" lon="2.96287">
        <ele>1082</ele>
        <time>2026-05-07T10:51:09.000Z</time>
      </trkpt>
      <trkpt lat="43.59445" lon="2.96287">
        <ele>1082</ele>
        <time>2026-05-07T10:51:10.000Z</time>
      </trkpt>
      <trkpt lat="43.59445" lon="2.96287">
        <ele>1082.2</ele>
        <time>2026-05-07T10:51:11.000Z</time>
      </trkpt>
      <trkpt lat="43.59445" lon="2.96287">
        <ele>1082.5</ele>
        <time>2026-05-07T10:51:12.000Z</time>
      </trkpt>
      <trkpt lat="43.59445" lon="2.96287">
        <ele>1082.3</ele>
        <time>2026-05-07T10:51:13.000Z</time>
      </trkpt>
      <trkpt lat="43.59445" lon="2.96287">
        <ele>1082.2</ele>
        <time>2026-05-07T10:51:14.000Z</time>
      </trkpt>
      <trkpt lat="43.59445" lon="2.96287">
        <ele>1081.9</ele>
        <time>2026-05-07T10:51:15.000Z</time>
      </trkpt>
      <trkpt lat="43.59445" lon="2.96287">
        <ele>1081.9</ele>
        <time>2026-05-07T10:51:16.000Z</time>
      </trkpt>
      <trkpt lat="43.59445" lon="2.96287">
        <ele>1081.8</ele>
        <time>2026-05-07T10:51:17.000Z</time>
      </trkpt>
      <trkpt lat="43.59445" lon="2.96287">
        <ele>1081.7</ele>
        <time>2026-05-07T10:51:18.000Z</time>
      </trkpt>
      <trkpt lat="43.59445" lon="2.96287">
        <ele>1082</ele>
        <time>2026-05-07T10:51:19.000Z</time>
      </trkpt>
      <trkpt lat="43.59445" lon="2.96287">
        <ele>1082.1</ele>
        <time>2026-05-07T10:51:20.000Z</time>
      </trkpt>
      <trkpt lat="43.59445" lon="2.96287">
        <ele>1082</ele>
        <time>2026-05-07T10:51:21.000Z</time>
      </trkpt>
      <trkpt lat="43.59445" lon="2.96287">
        <ele>1082.1</ele>
        <time>2026-05-07T10:51:22.000Z</time>
      </trkpt>
      <trkpt lat="43.59445" lon="2.96287">
        <ele>1082.1</ele>
        <time>2026-05-07T10:51:23.000Z</time>
      </trkpt>
      <trkpt lat="43.59445" lon="2.96287">
        <ele>1082.1</ele>
        <time>2026-05-07T10:51:24.000Z</time>
      </trkpt>
      <trkpt lat="43.59445" lon="2.96288">
        <ele>1082.2</ele>
        <time>2026-05-07T10:51:25.000Z</time>
      </trkpt>
      <trkpt lat="43.59445" lon="2.96288">
        <ele>1082.2</ele>
        <time>2026-05-07T10:51:26.000Z</time>
      </trkpt>
      <trkpt lat="43.59445" lon="2.96288">
        <ele>1082.2</ele>
        <time>2026-05-07T10:51:27.000Z</time>
      </trkpt>
      <trkpt lat="43.59445" lon="2.96288">
        <ele>1082</ele>
        <time>2026-05-07T10:51:28.000Z</time>
      </trkpt>
      <trkpt lat="43.59445" lon="2.96288">
        <ele>1081.7</ele>
        <time>2026-05-07T10:51:29.000Z</time>
      </trkpt>
      <trkpt lat="43.59445" lon="2.96288">
        <ele>1081.7</ele>
        <time>2026-05-07T10:51:30.000Z</time>
      </trkpt>
      <trkpt lat="43.59445" lon="2.96288">
        <ele>1081.9</ele>
        <time>2026-05-07T10:51:31.000Z</time>
      </trkpt>
      <trkpt lat="43.59445" lon="2.96288">
        <ele>1082</ele>
        <time>2026-05-07T10:51:32.000Z</time>
      </trkpt>
      <trkpt lat="43.59444" lon="2.96288">
        <ele>1081.9</ele>
        <time>2026-05-07T10:51:33.000Z</time>
      </trkpt>
      <trkpt lat="43.59444" lon="2.96288">
        <ele>1081.9</ele>
        <time>2026-05-07T10:51:34.000Z</time>
      </trkpt>
      <trkpt lat="43.59444" lon="2.96288">
        <ele>1082</ele>
        <time>2026-05-07T10:51:35.000Z</time>
      </trkpt>
      <trkpt lat="43.59444" lon="2.96288">
        <ele>1082.3</ele>
        <time>2026-05-07T10:51:36.000Z</time>
      </trkpt>
      <trkpt lat="43.59444" lon="2.96288">
        <ele>1082.4</ele>
        <time>2026-05-07T10:51:37.000Z</time>
      </trkpt>
      <trkpt lat="43.59444" lon="2.96288">
        <ele>1082.6</ele>
        <time>2026-05-07T10:51:38.000Z</time>
      </trkpt>
      <trkpt lat="43.59444" lon="2.96288">
        <ele>1082.9</ele>
        <time>2026-05-07T10:51:39.000Z</time>
      </trkpt>
      <trkpt lat="43.59444" lon="2.96288">
        <ele>1083</ele>
        <time>2026-05-07T10:51:40.000Z</time>
      </trkpt>
      <trkpt lat="43.59444" lon="2.96288">
        <ele>1083.2</ele>
        <time>2026-05-07T10:51:41.000Z</time>
      </trkpt>
      <trkpt lat="43.59444" lon="2.96288">
        <ele>1083.4</ele>
        <time>2026-05-07T10:51:42.000Z</time>
      </trkpt>
      <trkpt lat="43.59444" lon="2.96289">
        <ele>1083.7</ele>
        <time>2026-05-07T10:51:43.000Z</time>
      </trkpt>
      <trkpt lat="43.59444" lon="2.96289">
        <ele>1083.8</ele>
        <time>2026-05-07T10:51:44.000Z</time>
      </trkpt>
      <trkpt lat="43.59444" lon="2.96289">
        <ele>1083.5</ele>
        <time>2026-05-07T10:51:45.000Z</time>
      </trkpt>
      <trkpt lat="43.59443" lon="2.96289">
        <ele>1083.6</ele>
        <time>2026-05-07T10:51:46.000Z</time>
      </trkpt>
      <trkpt lat="43.59443" lon="2.96289">
        <ele>1083.7</ele>
        <time>2026-05-07T10:51:47.000Z</time>
      </trkpt>
      <trkpt lat="43.59443" lon="2.96289">
        <ele>1083.7</ele>
        <time>2026-05-07T10:51:48.000Z</time>
      </trkpt>
      <trkpt lat="43.59443" lon="2.96289">
        <ele>1083.6</ele>
        <time>2026-05-07T10:51:49.000Z</time>
      </trkpt>
      <trkpt lat="43.59443" lon="2.96289">
        <ele>1083.5</ele>
        <time>2026-05-07T10:51:50.000Z</time>
      </trkpt>
      <trkpt lat="43.59443" lon="2.96289">
        <ele>1083.6</ele>
        <time>2026-05-07T10:51:51.000Z</time>
      </trkpt>
      <trkpt lat="43.59443" lon="2.96289">
        <ele>1083.7</ele>
        <time>2026-05-07T10:51:52.000Z</time>
      </trkpt>
      <trkpt lat="43.59443" lon="2.96289">
        <ele>1084</ele>
        <time>2026-05-07T10:51:53.000Z</time>
      </trkpt>
      <trkpt lat="43.59443" lon="2.96289">
        <ele>1084.1</ele>
        <time>2026-05-07T10:51:54.000Z</time>
      </trkpt>
      <trkpt lat="43.59443" lon="2.96289">
        <ele>1084.1</ele>
        <time>2026-05-07T10:51:55.000Z</time>
      </trkpt>
      <trkpt lat="43.59443" lon="2.96289">
        <ele>1084.2</ele>
        <time>2026-05-07T10:51:56.000Z</time>
      </trkpt>
      <trkpt lat="43.59443" lon="2.96289">
        <ele>1084.3</ele>
        <time>2026-05-07T10:51:57.000Z</time>
      </trkpt>
      <trkpt lat="43.59443" lon="2.96289">
        <ele>1084.2</ele>
        <time>2026-05-07T10:51:58.000Z</time>
      </trkpt>
      <trkpt lat="43.59443" lon="2.96289">
        <ele>1084.2</ele>
        <time>2026-05-07T10:51:59.000Z</time>
      </trkpt>
      <trkpt lat="43.59443" lon="2.96289">
        <ele>1084.2</ele>
        <time>2026-05-07T10:52:00.000Z</time>
      </trkpt>
      <trkpt lat="43.59443" lon="2.96289">
        <ele>1084.3</ele>
        <time>2026-05-07T10:52:01.000Z</time>
      </trkpt>
      <trkpt lat="43.59443" lon="2.96289">
        <ele>1084.1</ele>
        <time>2026-05-07T10:52:02.000Z</time>
      </trkpt>
      <trkpt lat="43.59443" lon="2.96289">
        <ele>1084.2</ele>
        <time>2026-05-07T10:52:03.000Z</time>
      </trkpt>
      <trkpt lat="43.59443" lon="2.96289">
        <ele>1084.2</ele>
        <time>2026-05-07T10:52:04.000Z</time>
      </trkpt>
      <trkpt lat="43.59443" lon="2.96289">
        <ele>1084.1</ele>
        <time>2026-05-07T10:52:05.000Z</time>
      </trkpt>
      <trkpt lat="43.59443" lon="2.96289">
        <ele>1084</ele>
        <time>2026-05-07T10:52:06.000Z</time>
      </trkpt>
      <trkpt lat="43.59443" lon="2.96289">
        <ele>1083.9</ele>
        <time>2026-05-07T10:52:07.000Z</time>
      </trkpt>
      <trkpt lat="43.59443" lon="2.96289">
        <ele>1083.8</ele>
        <time>2026-05-07T10:52:08.000Z</time>
      </trkpt>
      <trkpt lat="43.59443" lon="2.96289">
        <ele>1083.8</ele>
        <time>2026-05-07T10:52:09.000Z</time>
      </trkpt>
      <trkpt lat="43.59443" lon="2.96289">
        <ele>1084.1</ele>
        <time>2026-05-07T10:52:10.000Z</time>
      </trkpt>
      <trkpt lat="43.59443" lon="2.96289">
        <ele>1084.3</ele>
        <time>2026-05-07T10:52:11.000Z</time>
      </trkpt>
      <trkpt lat="43.59443" lon="2.96289">
        <ele>1084.5</ele>
        <time>2026-05-07T10:52:12.000Z</time>
      </trkpt>
      <trkpt lat="43.59443" lon="2.96289">
        <ele>1084.6</ele>
        <time>2026-05-07T10:52:13.000Z</time>
      </trkpt>
      <trkpt lat="43.59443" lon="2.96289">
        <ele>1084.6</ele>
        <time>2026-05-07T10:52:14.000Z</time>
      </trkpt>
      <trkpt lat="43.59443" lon="2.96289">
        <ele>1084.6</ele>
        <time>2026-05-07T10:52:15.000Z</time>
      </trkpt>
      <trkpt lat="43.59443" lon="2.96289">
        <ele>1084.5</ele>
        <time>2026-05-07T10:52:16.000Z</time>
      </trkpt>
      <trkpt lat="43.59443" lon="2.96289">
        <ele>1084.4</ele>
        <time>2026-05-07T10:52:17.000Z</time>
      </trkpt>
      <trkpt lat="43.59443" lon="2.96289">
        <ele>1084.3</ele>
        <time>2026-05-07T10:52:18.000Z</time>
      </trkpt>
      <trkpt lat="43.59443" lon="2.96289">
        <ele>1084.3</ele>
        <time>2026-05-07T10:52:19.000Z</time>
      </trkpt>
      <trkpt lat="43.59443" lon="2.96289">
        <ele>1084.1</ele>
        <time>2026-05-07T10:52:20.000Z</time>
      </trkpt>
      <trkpt lat="43.59443" lon="2.96289">
        <ele>1084.2</ele>
        <time>2026-05-07T10:52:21.000Z</time>
      </trkpt>
      <trkpt lat="43.59443" lon="2.96289">
        <ele>1084.3</ele>
        <time>2026-05-07T10:52:22.000Z</time>
      </trkpt>
      <trkpt lat="43.59443" lon="2.96289">
        <ele>1084.3</ele>
        <time>2026-05-07T10:52:23.000Z</time>
      </trkpt>
      <trkpt lat="43.59443" lon="2.96289">
        <ele>1084.4</ele>
        <time>2026-05-07T10:52:24.000Z</time>
      </trkpt>
      <trkpt lat="43.59443" lon="2.96289">
        <ele>1084.3</ele>
        <time>2026-05-07T10:52:25.000Z</time>
      </trkpt>
      <trkpt lat="43.59443" lon="2.96289">
        <ele>1084.3</ele>
        <time>2026-05-07T10:52:26.000Z</time>
      </trkpt>
      <trkpt lat="43.59443" lon="2.96289">
        <ele>1084.4</ele>
        <time>2026-05-07T10:52:27.000Z</time>
      </trkpt>
      <trkpt lat="43.59443" lon="2.96289">
        <ele>1084.7</ele>
        <time>2026-05-07T10:52:28.000Z</time>
      </trkpt>
      <trkpt lat="43.59442" lon="2.96289">
        <ele>1085</ele>
        <time>2026-05-07T10:52:29.000Z</time>
      </trkpt>
      <trkpt lat="43.59442" lon="2.96289">
        <ele>1085.1</ele>
        <time>2026-05-07T10:52:30.000Z</time>
      </trkpt>
      <trkpt lat="43.59443" lon="2.96289">
        <ele>1085.3</ele>
        <time>2026-05-07T10:52:31.000Z</time>
      </trkpt>
      <trkpt lat="43.59443" lon="2.96289">
        <ele>1085.3</ele>
        <time>2026-05-07T10:52:32.000Z</time>
      </trkpt>
      <trkpt lat="43.59443" lon="2.96289">
        <ele>1085.2</ele>
        <time>2026-05-07T10:52:33.000Z</time>
      </trkpt>
      <trkpt lat="43.59443" lon="2.96289">
        <ele>1085.2</ele>
        <time>2026-05-07T10:52:34.000Z</time>
      </trkpt>
      <trkpt lat="43.59443" lon="2.96289">
        <ele>1085</ele>
        <time>2026-05-07T10:52:35.000Z</time>
      </trkpt>
      <trkpt lat="43.59443" lon="2.96289">
        <ele>1084.8</ele>
        <time>2026-05-07T10:52:36.000Z</time>
      </trkpt>
      <trkpt lat="43.59443" lon="2.96289">
        <ele>1084.7</ele>
        <time>2026-05-07T10:52:37.000Z</time>
      </trkpt>
      <trkpt lat="43.59443" lon="2.96289">
        <ele>1084.7</ele>
        <time>2026-05-07T10:52:38.000Z</time>
      </trkpt>
      <trkpt lat="43.59443" lon="2.96289">
        <ele>1084.5</ele>
        <time>2026-05-07T10:52:39.000Z</time>
      </trkpt>
      <trkpt lat="43.59443" lon="2.96289">
        <ele>1084.4</ele>
        <time>2026-05-07T10:52:40.000Z</time>
      </trkpt>
      <trkpt lat="43.59443" lon="2.96289">
        <ele>1084.4</ele>
        <time>2026-05-07T10:52:41.000Z</time>
      </trkpt>
      <trkpt lat="43.59443" lon="2.96289">
        <ele>1084.3</ele>
        <time>2026-05-07T10:52:42.000Z</time>
      </trkpt>
      <trkpt lat="43.59442" lon="2.96289">
        <ele>1084.2</ele>
        <time>2026-05-07T10:52:43.000Z</time>
      </trkpt>
      <trkpt lat="43.59443" lon="2.96289">
        <ele>1084.2</ele>
        <time>2026-05-07T10:52:44.000Z</time>
      </trkpt>
      <trkpt lat="43.59443" lon="2.96289">
        <ele>1084.2</ele>
        <time>2026-05-07T10:52:45.000Z</time>
      </trkpt>
      <trkpt lat="43.59442" lon="2.96289">
        <ele>1084.3</ele>
        <time>2026-05-07T10:52:46.000Z</time>
      </trkpt>
      <trkpt lat="43.59442" lon="2.96289">
        <ele>1084.3</ele>
        <time>2026-05-07T10:52:47.000Z</time>
      </trkpt>
      <trkpt lat="43.59442" lon="2.96289">
        <ele>1084.3</ele>
        <time>2026-05-07T10:52:48.000Z</time>
      </trkpt>
      <trkpt lat="43.59442" lon="2.96289">
        <ele>1084.4</ele>
        <time>2026-05-07T10:52:49.000Z</time>
      </trkpt>
      <trkpt lat="43.59442" lon="2.96289">
        <ele>1084.5</ele>
        <time>2026-05-07T10:52:50.000Z</time>
      </trkpt>
      <trkpt lat="43.59442" lon="2.96289">
        <ele>1084.5</ele>
        <time>2026-05-07T10:52:51.000Z</time>
      </trkpt>
      <trkpt lat="43.59442" lon="2.96289">
        <ele>1084.6</ele>
        <time>2026-05-07T10:52:52.000Z</time>
      </trkpt>
      <trkpt lat="43.59442" lon="2.96289">
        <ele>1084.6</ele>
        <time>2026-05-07T10:52:53.000Z</time>
      </trkpt>
      <trkpt lat="43.59442" lon="2.96289">
        <ele>1084.7</ele>
        <time>2026-05-07T10:52:54.000Z</time>
      </trkpt>
      <trkpt lat="43.59443" lon="2.96289">
        <ele>1084.9</ele>
        <time>2026-05-07T10:52:55.000Z</time>
      </trkpt>
      <trkpt lat="43.59443" lon="2.96289">
        <ele>1085.1</ele>
        <time>2026-05-07T10:52:56.000Z</time>
      </trkpt>
      <trkpt lat="43.59443" lon="2.96289">
        <ele>1085.1</ele>
        <time>2026-05-07T10:52:57.000Z</time>
      </trkpt>
      <trkpt lat="43.59443" lon="2.96289">
        <ele>1085.3</ele>
        <time>2026-05-07T10:52:58.000Z</time>
      </trkpt>
      <trkpt lat="43.59443" lon="2.96289">
        <ele>1085.4</ele>
        <time>2026-05-07T10:52:59.000Z</time>
      </trkpt>
      <trkpt lat="43.59443" lon="2.96289">
        <ele>1085.6</ele>
        <time>2026-05-07T10:53:00.000Z</time>
      </trkpt>
      <trkpt lat="43.59443" lon="2.96289">
        <ele>1086</ele>
        <time>2026-05-07T10:53:01.000Z</time>
      </trkpt>
      <trkpt lat="43.59442" lon="2.96289">
        <ele>1086.1</ele>
        <time>2026-05-07T10:53:02.000Z</time>
      </trkpt>
      <trkpt lat="43.59442" lon="2.96289">
        <ele>1086.2</ele>
        <time>2026-05-07T10:53:03.000Z</time>
      </trkpt>
      <trkpt lat="43.59442" lon="2.96289">
        <ele>1086.3</ele>
        <time>2026-05-07T10:53:04.000Z</time>
      </trkpt>
      <trkpt lat="43.59442" lon="2.96289">
        <ele>1086.3</ele>
        <time>2026-05-07T10:53:05.000Z</time>
      </trkpt>
      <trkpt lat="43.59442" lon="2.96289">
        <ele>1086.2</ele>
        <time>2026-05-07T10:53:06.000Z</time>
      </trkpt>
      <trkpt lat="43.59442" lon="2.96289">
        <ele>1086.2</ele>
        <time>2026-05-07T10:53:07.000Z</time>
      </trkpt>
      <trkpt lat="43.59442" lon="2.96289">
        <ele>1086.1</ele>
        <time>2026-05-07T10:53:08.000Z</time>
      </trkpt>
      <trkpt lat="43.59442" lon="2.96289">
        <ele>1086.1</ele>
        <time>2026-05-07T10:53:09.000Z</time>
      </trkpt>
      <trkpt lat="43.59442" lon="2.96289">
        <ele>1086.1</ele>
        <time>2026-05-07T10:53:10.000Z</time>
      </trkpt>
      <trkpt lat="43.59442" lon="2.96289">
        <ele>1085.9</ele>
        <time>2026-05-07T10:53:11.000Z</time>
      </trkpt>
      <trkpt lat="43.59442" lon="2.96289">
        <ele>1086</ele>
        <time>2026-05-07T10:53:12.000Z</time>
      </trkpt>
      <trkpt lat="43.59442" lon="2.96289">
        <ele>1086</ele>
        <time>2026-05-07T10:53:13.000Z</time>
      </trkpt>
      <trkpt lat="43.59442" lon="2.96289">
        <ele>1086</ele>
        <time>2026-05-07T10:53:14.000Z</time>
      </trkpt>
      <trkpt lat="43.59442" lon="2.96289">
        <ele>1085.9</ele>
        <time>2026-05-07T10:53:15.000Z</time>
      </trkpt>
      <trkpt lat="43.59442" lon="2.96289">
        <ele>1085.8</ele>
        <time>2026-05-07T10:53:16.000Z</time>
      </trkpt>
      <trkpt lat="43.59442" lon="2.96289">
        <ele>1085.7</ele>
        <time>2026-05-07T10:53:17.000Z</time>
      </trkpt>
      <trkpt lat="43.59442" lon="2.96289">
        <ele>1085.6</ele>
        <time>2026-05-07T10:53:18.000Z</time>
      </trkpt>
      <trkpt lat="43.59442" lon="2.96289">
        <ele>1085.5</ele>
        <time>2026-05-07T10:53:19.000Z</time>
      </trkpt>
      <trkpt lat="43.59442" lon="2.96289">
        <ele>1085.5</ele>
        <time>2026-05-07T10:53:20.000Z</time>
      </trkpt>
      <trkpt lat="43.59442" lon="2.96289">
        <ele>1085.4</ele>
        <time>2026-05-07T10:53:21.000Z</time>
      </trkpt>
      <trkpt lat="43.59442" lon="2.96289">
        <ele>1085.5</ele>
        <time>2026-05-07T10:53:22.000Z</time>
      </trkpt>
      <trkpt lat="43.59442" lon="2.96289">
        <ele>1085.5</ele>
        <time>2026-05-07T10:53:23.000Z</time>
      </trkpt>
      <trkpt lat="43.59442" lon="2.96289">
        <ele>1085.4</ele>
        <time>2026-05-07T10:53:24.000Z</time>
      </trkpt>
      <trkpt lat="43.59442" lon="2.96289">
        <ele>1085.2</ele>
        <time>2026-05-07T10:53:25.000Z</time>
      </trkpt>
      <trkpt lat="43.59442" lon="2.9629">
        <ele>1085.2</ele>
        <time>2026-05-07T10:53:26.000Z</time>
      </trkpt>
      <trkpt lat="43.59442" lon="2.9629">
        <ele>1085.1</ele>
        <time>2026-05-07T10:53:27.000Z</time>
      </trkpt>
      <trkpt lat="43.59442" lon="2.9629">
        <ele>1085</ele>
        <time>2026-05-07T10:53:28.000Z</time>
      </trkpt>
      <trkpt lat="43.59442" lon="2.9629">
        <ele>1084.9</ele>
        <time>2026-05-07T10:53:29.000Z</time>
      </trkpt>
      <trkpt lat="43.59442" lon="2.9629">
        <ele>1085</ele>
        <time>2026-05-07T10:53:30.000Z</time>
      </trkpt>
      <trkpt lat="43.59442" lon="2.9629">
        <ele>1085.2</ele>
        <time>2026-05-07T10:53:31.000Z</time>
      </trkpt>
      <trkpt lat="43.59442" lon="2.9629">
        <ele>1085.3</ele>
        <time>2026-05-07T10:53:32.000Z</time>
      </trkpt>
      <trkpt lat="43.59442" lon="2.9629">
        <ele>1085.4</ele>
        <time>2026-05-07T10:53:33.000Z</time>
      </trkpt>
      <trkpt lat="43.59442" lon="2.9629">
        <ele>1085.7</ele>
        <time>2026-05-07T10:53:34.000Z</time>
      </trkpt>
      <trkpt lat="43.59442" lon="2.9629">
        <ele>1086.1</ele>
        <time>2026-05-07T10:53:35.000Z</time>
      </trkpt>
      <trkpt lat="43.59442" lon="2.9629">
        <ele>1086.2</ele>
        <time>2026-05-07T10:53:36.000Z</time>
      </trkpt>
      <trkpt lat="43.59442" lon="2.9629">
        <ele>1086.2</ele>
        <time>2026-05-07T10:53:37.000Z</time>
      </trkpt>
      <trkpt lat="43.59442" lon="2.9629">
        <ele>1086.3</ele>
        <time>2026-05-07T10:53:38.000Z</time>
      </trkpt>
      <trkpt lat="43.59442" lon="2.9629">
        <ele>1086.6</ele>
        <time>2026-05-07T10:53:39.000Z</time>
      </trkpt>
      <trkpt lat="43.59442" lon="2.96289">
        <ele>1086.9</ele>
        <time>2026-05-07T10:53:40.000Z</time>
      </trkpt>
      <trkpt lat="43.59442" lon="2.9629">
        <ele>1087.3</ele>
        <time>2026-05-07T10:53:41.000Z</time>
      </trkpt>
      <trkpt lat="43.59442" lon="2.9629">
        <ele>1087.3</ele>
        <time>2026-05-07T10:53:42.000Z</time>
      </trkpt>
      <trkpt lat="43.59442" lon="2.9629">
        <ele>1087.1</ele>
        <time>2026-05-07T10:53:43.000Z</time>
      </trkpt>
      <trkpt lat="43.59442" lon="2.9629">
        <ele>1086.9</ele>
        <time>2026-05-07T10:53:44.000Z</time>
      </trkpt>
      <trkpt lat="43.59442" lon="2.9629">
        <ele>1086.8</ele>
        <time>2026-05-07T10:53:45.000Z</time>
      </trkpt>
      <trkpt lat="43.59442" lon="2.9629">
        <ele>1086.9</ele>
        <time>2026-05-07T10:53:46.000Z</time>
      </trkpt>
      <trkpt lat="43.59442" lon="2.9629">
        <ele>1086.8</ele>
        <time>2026-05-07T10:53:47.000Z</time>
      </trkpt>
      <trkpt lat="43.59442" lon="2.9629">
        <ele>1086.5</ele>
        <time>2026-05-07T10:53:48.000Z</time>
      </trkpt>
      <trkpt lat="43.59442" lon="2.9629">
        <ele>1086.5</ele>
        <time>2026-05-07T10:53:49.000Z</time>
      </trkpt>
      <trkpt lat="43.59442" lon="2.9629">
        <ele>1086.5</ele>
        <time>2026-05-07T10:53:50.000Z</time>
      </trkpt>
      <trkpt lat="43.59442" lon="2.9629">
        <ele>1086.6</ele>
        <time>2026-05-07T10:53:51.000Z</time>
      </trkpt>
      <trkpt lat="43.59442" lon="2.9629">
        <ele>1086.6</ele>
        <time>2026-05-07T10:53:52.000Z</time>
      </trkpt>
      <trkpt lat="43.59442" lon="2.9629">
        <ele>1086.6</ele>
        <time>2026-05-07T10:53:53.000Z</time>
      </trkpt>
      <trkpt lat="43.59442" lon="2.9629">
        <ele>1086.7</ele>
        <time>2026-05-07T10:53:54.000Z</time>
      </trkpt>
      <trkpt lat="43.59442" lon="2.9629">
        <ele>1086.6</ele>
        <time>2026-05-07T10:53:55.000Z</time>
      </trkpt>
      <trkpt lat="43.59442" lon="2.9629">
        <ele>1086.3</ele>
        <time>2026-05-07T10:53:56.000Z</time>
      </trkpt>
      <trkpt lat="43.59442" lon="2.9629">
        <ele>1086.4</ele>
        <time>2026-05-07T10:53:57.000Z</time>
      </trkpt>
      <trkpt lat="43.59442" lon="2.9629">
        <ele>1086.5</ele>
        <time>2026-05-07T10:53:58.000Z</time>
      </trkpt>
      <trkpt lat="43.59442" lon="2.9629">
        <ele>1086.7</ele>
        <time>2026-05-07T10:53:59.000Z</time>
      </trkpt>
      <trkpt lat="43.59442" lon="2.9629">
        <ele>1086.8</ele>
        <time>2026-05-07T10:54:00.000Z</time>
      </trkpt>
      <trkpt lat="43.59442" lon="2.9629">
        <ele>1086.7</ele>
        <time>2026-05-07T10:54:01.000Z</time>
      </trkpt>
      <trkpt lat="43.59442" lon="2.9629">
        <ele>1086.6</ele>
        <time>2026-05-07T10:54:02.000Z</time>
      </trkpt>
      <trkpt lat="43.59442" lon="2.9629">
        <ele>1086.6</ele>
        <time>2026-05-07T10:54:03.000Z</time>
      </trkpt>
      <trkpt lat="43.59442" lon="2.9629">
        <ele>1086.6</ele>
        <time>2026-05-07T10:54:04.000Z</time>
      </trkpt>
      <trkpt lat="43.59442" lon="2.9629">
        <ele>1086.8</ele>
        <time>2026-05-07T10:54:05.000Z</time>
      </trkpt>
      <trkpt lat="43.59442" lon="2.9629">
        <ele>1086.8</ele>
        <time>2026-05-07T10:54:06.000Z</time>
      </trkpt>
      <trkpt lat="43.59442" lon="2.9629">
        <ele>1086.8</ele>
        <time>2026-05-07T10:54:07.000Z</time>
      </trkpt>
      <trkpt lat="43.59442" lon="2.9629">
        <ele>1086.9</ele>
        <time>2026-05-07T10:54:08.000Z</time>
      </trkpt>
      <trkpt lat="43.59442" lon="2.9629">
        <ele>1086.9</ele>
        <time>2026-05-07T10:54:09.000Z</time>
      </trkpt>
      <trkpt lat="43.59442" lon="2.96289">
        <ele>1086.9</ele>
        <time>2026-05-07T10:54:10.000Z</time>
      </trkpt>
      <trkpt lat="43.59442" lon="2.96289">
        <ele>1086.8</ele>
        <time>2026-05-07T10:54:11.000Z</time>
      </trkpt>
      <trkpt lat="43.59442" lon="2.96289">
        <ele>1086.6</ele>
        <time>2026-05-07T10:54:12.000Z</time>
      </trkpt>
      <trkpt lat="43.59442" lon="2.96289">
        <ele>1086.6</ele>
        <time>2026-05-07T10:54:13.000Z</time>
      </trkpt>
      <trkpt lat="43.59442" lon="2.96289">
        <ele>1086.5</ele>
        <time>2026-05-07T10:54:14.000Z</time>
      </trkpt>
      <trkpt lat="43.59442" lon="2.96289">
        <ele>1086.3</ele>
        <time>2026-05-07T10:54:15.000Z</time>
      </trkpt>
      <trkpt lat="43.59442" lon="2.96289">
        <ele>1086.1</ele>
        <time>2026-05-07T10:54:16.000Z</time>
      </trkpt>
      <trkpt lat="43.59442" lon="2.96289">
        <ele>1086.1</ele>
        <time>2026-05-07T10:54:17.000Z</time>
      </trkpt>
      <trkpt lat="43.59442" lon="2.96289">
        <ele>1085.9</ele>
        <time>2026-05-07T10:54:18.000Z</time>
      </trkpt>
      <trkpt lat="43.59442" lon="2.96289">
        <ele>1085.6</ele>
        <time>2026-05-07T10:54:19.000Z</time>
      </trkpt>
      <trkpt lat="43.59442" lon="2.96289">
        <ele>1085.5</ele>
        <time>2026-05-07T10:54:20.000Z</time>
      </trkpt>
      <trkpt lat="43.59442" lon="2.96289">
        <ele>1085.4</ele>
        <time>2026-05-07T10:54:21.000Z</time>
      </trkpt>
      <trkpt lat="43.59442" lon="2.96289">
        <ele>1085.2</ele>
        <time>2026-05-07T10:54:22.000Z</time>
      </trkpt>
      <trkpt lat="43.59442" lon="2.96289">
        <ele>1085.3</ele>
        <time>2026-05-07T10:54:23.000Z</time>
      </trkpt>
      <trkpt lat="43.59442" lon="2.96289">
        <ele>1085.2</ele>
        <time>2026-05-07T10:54:24.000Z</time>
      </trkpt>
      <trkpt lat="43.59442" lon="2.96289">
        <ele>1085.3</ele>
        <time>2026-05-07T10:54:25.000Z</time>
      </trkpt>
      <trkpt lat="43.59441" lon="2.96289">
        <ele>1085.5</ele>
        <time>2026-05-07T10:54:26.000Z</time>
      </trkpt>
      <trkpt lat="43.59441" lon="2.96289">
        <ele>1085.6</ele>
        <time>2026-05-07T10:54:27.000Z</time>
      </trkpt>
      <trkpt lat="43.59441" lon="2.9629">
        <ele>1085.5</ele>
        <time>2026-05-07T10:54:28.000Z</time>
      </trkpt>
      <trkpt lat="43.59441" lon="2.9629">
        <ele>1085.5</ele>
        <time>2026-05-07T10:54:29.000Z</time>
      </trkpt>
      <trkpt lat="43.59441" lon="2.9629">
        <ele>1085.3</ele>
        <time>2026-05-07T10:54:30.000Z</time>
      </trkpt>
      <trkpt lat="43.59441" lon="2.9629">
        <ele>1085.4</ele>
        <time>2026-05-07T10:54:31.000Z</time>
      </trkpt>
      <trkpt lat="43.59441" lon="2.9629">
        <ele>1085.2</ele>
        <time>2026-05-07T10:54:32.000Z</time>
      </trkpt>
      <trkpt lat="43.59441" lon="2.9629">
        <ele>1085.1</ele>
        <time>2026-05-07T10:54:33.000Z</time>
      </trkpt>
      <trkpt lat="43.59441" lon="2.9629">
        <ele>1085.1</ele>
        <time>2026-05-07T10:54:34.000Z</time>
      </trkpt>
      <trkpt lat="43.59441" lon="2.9629">
        <ele>1085.1</ele>
        <time>2026-05-07T10:54:35.000Z</time>
      </trkpt>
      <trkpt lat="43.59441" lon="2.9629">
        <ele>1085.2</ele>
        <time>2026-05-07T10:54:36.000Z</time>
      </trkpt>
      <trkpt lat="43.59441" lon="2.9629">
        <ele>1085.2</ele>
        <time>2026-05-07T10:54:37.000Z</time>
      </trkpt>
      <trkpt lat="43.59441" lon="2.9629">
        <ele>1085.1</ele>
        <time>2026-05-07T10:54:38.000Z</time>
      </trkpt>
      <trkpt lat="43.59441" lon="2.9629">
        <ele>1085.1</ele>
        <time>2026-05-07T10:54:39.000Z</time>
      </trkpt>
      <trkpt lat="43.59441" lon="2.9629">
        <ele>1085.1</ele>
        <time>2026-05-07T10:54:40.000Z</time>
      </trkpt>
      <trkpt lat="43.59441" lon="2.9629">
        <ele>1085.1</ele>
        <time>2026-05-07T10:54:41.000Z</time>
      </trkpt>
      <trkpt lat="43.59441" lon="2.9629">
        <ele>1085.1</ele>
        <time>2026-05-07T10:54:42.000Z</time>
      </trkpt>
      <trkpt lat="43.59441" lon="2.9629">
        <ele>1085.1</ele>
        <time>2026-05-07T10:54:43.000Z</time>
      </trkpt>
      <trkpt lat="43.59441" lon="2.9629">
        <ele>1085.2</ele>
        <time>2026-05-07T10:54:44.000Z</time>
      </trkpt>
      <trkpt lat="43.59441" lon="2.9629">
        <ele>1085.1</ele>
        <time>2026-05-07T10:54:45.000Z</time>
      </trkpt>
      <trkpt lat="43.59441" lon="2.9629">
        <ele>1085</ele>
        <time>2026-05-07T10:54:46.000Z</time>
      </trkpt>
      <trkpt lat="43.59441" lon="2.9629">
        <ele>1085</ele>
        <time>2026-05-07T10:54:47.000Z</time>
      </trkpt>
      <trkpt lat="43.59441" lon="2.9629">
        <ele>1084.9</ele>
        <time>2026-05-07T10:54:48.000Z</time>
      </trkpt>
      <trkpt lat="43.59441" lon="2.9629">
        <ele>1084.8</ele>
        <time>2026-05-07T10:54:49.000Z</time>
      </trkpt>
      <trkpt lat="43.59441" lon="2.9629">
        <ele>1084.6</ele>
        <time>2026-05-07T10:54:50.000Z</time>
      </trkpt>
      <trkpt lat="43.59441" lon="2.9629">
        <ele>1084.6</ele>
        <time>2026-05-07T10:54:51.000Z</time>
      </trkpt>
      <trkpt lat="43.59442" lon="2.9629">
        <ele>1084.5</ele>
        <time>2026-05-07T10:54:52.000Z</time>
      </trkpt>
      <trkpt lat="43.59442" lon="2.9629">
        <ele>1084.5</ele>
        <time>2026-05-07T10:54:53.000Z</time>
      </trkpt>
      <trkpt lat="43.59442" lon="2.9629">
        <ele>1084.4</ele>
        <time>2026-05-07T10:54:54.000Z</time>
      </trkpt>
      <trkpt lat="43.59441" lon="2.9629">
        <ele>1084.1</ele>
        <time>2026-05-07T10:54:55.000Z</time>
      </trkpt>
      <trkpt lat="43.59441" lon="2.9629">
        <ele>1083.9</ele>
        <time>2026-05-07T10:54:56.000Z</time>
      </trkpt>
      <trkpt lat="43.59442" lon="2.9629">
        <ele>1083.9</ele>
        <time>2026-05-07T10:54:57.000Z</time>
      </trkpt>
      <trkpt lat="43.59442" lon="2.9629">
        <ele>1083.7</ele>
        <time>2026-05-07T10:54:58.000Z</time>
      </trkpt>
      <trkpt lat="43.59442" lon="2.9629">
        <ele>1083.6</ele>
        <time>2026-05-07T10:54:59.000Z</time>
      </trkpt>
      <trkpt lat="43.59442" lon="2.9629">
        <ele>1083.6</ele>
        <time>2026-05-07T10:55:00.000Z</time>
      </trkpt>
      <trkpt lat="43.59441" lon="2.9629">
        <ele>1083.7</ele>
        <time>2026-05-07T10:55:01.000Z</time>
      </trkpt>
      <trkpt lat="43.59442" lon="2.9629">
        <ele>1083.6</ele>
        <time>2026-05-07T10:55:02.000Z</time>
      </trkpt>
      <trkpt lat="43.59442" lon="2.9629">
        <ele>1083.7</ele>
        <time>2026-05-07T10:55:03.000Z</time>
      </trkpt>
      <trkpt lat="43.59442" lon="2.9629">
        <ele>1083.7</ele>
        <time>2026-05-07T10:55:04.000Z</time>
      </trkpt>
      <trkpt lat="43.59442" lon="2.9629">
        <ele>1083.8</ele>
        <time>2026-05-07T10:55:05.000Z</time>
      </trkpt>
      <trkpt lat="43.59442" lon="2.9629">
        <ele>1083.7</ele>
        <time>2026-05-07T10:55:06.000Z</time>
      </trkpt>
      <trkpt lat="43.59442" lon="2.9629">
        <ele>1083.7</ele>
        <time>2026-05-07T10:55:07.000Z</time>
      </trkpt>
      <trkpt lat="43.59441" lon="2.9629">
        <ele>1083.6</ele>
        <time>2026-05-07T10:55:08.000Z</time>
      </trkpt>
      <trkpt lat="43.59441" lon="2.9629">
        <ele>1083.5</ele>
        <time>2026-05-07T10:55:09.000Z</time>
      </trkpt>
      <trkpt lat="43.59442" lon="2.9629">
        <ele>1083.4</ele>
        <time>2026-05-07T10:55:10.000Z</time>
      </trkpt>
      <trkpt lat="43.59442" lon="2.9629">
        <ele>1083.3</ele>
        <time>2026-05-07T10:55:11.000Z</time>
      </trkpt>
      <trkpt lat="43.59442" lon="2.9629">
        <ele>1083.5</ele>
        <time>2026-05-07T10:55:12.000Z</time>
      </trkpt>
      <trkpt lat="43.59442" lon="2.9629">
        <ele>1083.4</ele>
        <time>2026-05-07T10:55:13.000Z</time>
      </trkpt>
      <trkpt lat="43.59442" lon="2.9629">
        <ele>1083.3</ele>
        <time>2026-05-07T10:55:14.000Z</time>
      </trkpt>
      <trkpt lat="43.59442" lon="2.9629">
        <ele>1083.3</ele>
        <time>2026-05-07T10:55:15.000Z</time>
      </trkpt>
      <trkpt lat="43.59442" lon="2.9629">
        <ele>1083.2</ele>
        <time>2026-05-07T10:55:16.000Z</time>
      </trkpt>
      <trkpt lat="43.59442" lon="2.9629">
        <ele>1083.2</ele>
        <time>2026-05-07T10:55:17.000Z</time>
      </trkpt>
      <trkpt lat="43.59442" lon="2.9629">
        <ele>1083.3</ele>
        <time>2026-05-07T10:55:18.000Z</time>
      </trkpt>
      <trkpt lat="43.59442" lon="2.9629">
        <ele>1083.3</ele>
        <time>2026-05-07T10:55:19.000Z</time>
      </trkpt>
      <trkpt lat="43.59442" lon="2.9629">
        <ele>1083.5</ele>
        <time>2026-05-07T10:55:20.000Z</time>
      </trkpt>
      <trkpt lat="43.59442" lon="2.9629">
        <ele>1083.7</ele>
        <time>2026-05-07T10:55:21.000Z</time>
      </trkpt>
      <trkpt lat="43.59442" lon="2.9629">
        <ele>1083.8</ele>
        <time>2026-05-07T10:55:22.000Z</time>
      </trkpt>
      <trkpt lat="43.59442" lon="2.9629">
        <ele>1083.9</ele>
        <time>2026-05-07T10:55:23.000Z</time>
      </trkpt>
      <trkpt lat="43.59442" lon="2.9629">
        <ele>1084</ele>
        <time>2026-05-07T10:55:24.000Z</time>
      </trkpt>
      <trkpt lat="43.59442" lon="2.9629">
        <ele>1084.1</ele>
        <time>2026-05-07T10:55:25.000Z</time>
      </trkpt>
      <trkpt lat="43.59442" lon="2.9629">
        <ele>1084.2</ele>
        <time>2026-05-07T10:55:26.000Z</time>
      </trkpt>
      <trkpt lat="43.59442" lon="2.9629">
        <ele>1084.2</ele>
        <time>2026-05-07T10:55:27.000Z</time>
      </trkpt>
      <trkpt lat="43.59442" lon="2.9629">
        <ele>1084.3</ele>
        <time>2026-05-07T10:55:28.000Z</time>
      </trkpt>
      <trkpt lat="43.59442" lon="2.9629">
        <ele>1084.4</ele>
        <time>2026-05-07T10:55:29.000Z</time>
      </trkpt>
      <trkpt lat="43.59442" lon="2.9629">
        <ele>1084.5</ele>
        <time>2026-05-07T10:55:30.000Z</time>
      </trkpt>
      <trkpt lat="43.59442" lon="2.9629">
        <ele>1084.5</ele>
        <time>2026-05-07T10:55:31.000Z</time>
      </trkpt>
      <trkpt lat="43.59442" lon="2.9629">
        <ele>1084.7</ele>
        <time>2026-05-07T10:55:32.000Z</time>
      </trkpt>
      <trkpt lat="43.59442" lon="2.9629">
        <ele>1084.8</ele>
        <time>2026-05-07T10:55:33.000Z</time>
      </trkpt>
      <trkpt lat="43.59442" lon="2.9629">
        <ele>1084.9</ele>
        <time>2026-05-07T10:55:34.000Z</time>
      </trkpt>
      <trkpt lat="43.59442" lon="2.9629">
        <ele>1084.8</ele>
        <time>2026-05-07T10:55:35.000Z</time>
      </trkpt>
      <trkpt lat="43.59442" lon="2.9629">
        <ele>1085</ele>
        <time>2026-05-07T10:55:36.000Z</time>
      </trkpt>
      <trkpt lat="43.59442" lon="2.9629">
        <ele>1085</ele>
        <time>2026-05-07T10:55:37.000Z</time>
      </trkpt>
      <trkpt lat="43.59441" lon="2.9629">
        <ele>1084.9</ele>
        <time>2026-05-07T10:55:38.000Z</time>
      </trkpt>
      <trkpt lat="43.59441" lon="2.9629">
        <ele>1084.8</ele>
        <time>2026-05-07T10:55:39.000Z</time>
      </trkpt>
      <trkpt lat="43.59441" lon="2.9629">
        <ele>1084.8</ele>
        <time>2026-05-07T10:55:40.000Z</time>
      </trkpt>
      <trkpt lat="43.59441" lon="2.9629">
        <ele>1084.6</ele>
        <time>2026-05-07T10:55:41.000Z</time>
      </trkpt>
      <trkpt lat="43.59441" lon="2.9629">
        <ele>1084.4</ele>
        <time>2026-05-07T10:55:42.000Z</time>
      </trkpt>
      <trkpt lat="43.59441" lon="2.9629">
        <ele>1084.2</ele>
        <time>2026-05-07T10:55:43.000Z</time>
      </trkpt>
      <trkpt lat="43.59441" lon="2.9629">
        <ele>1084.1</ele>
        <time>2026-05-07T10:55:44.000Z</time>
      </trkpt>
      <trkpt lat="43.59441" lon="2.9629">
        <ele>1083.9</ele>
        <time>2026-05-07T10:55:45.000Z</time>
      </trkpt>
      <trkpt lat="43.59441" lon="2.9629">
        <ele>1084.1</ele>
        <time>2026-05-07T10:55:46.000Z</time>
      </trkpt>
      <trkpt lat="43.59441" lon="2.9629">
        <ele>1083.9</ele>
        <time>2026-05-07T10:55:47.000Z</time>
      </trkpt>
      <trkpt lat="43.59441" lon="2.96291">
        <ele>1083.8</ele>
        <time>2026-05-07T10:55:48.000Z</time>
      </trkpt>
      <trkpt lat="43.59441" lon="2.96291">
        <ele>1083.7</ele>
        <time>2026-05-07T10:55:49.000Z</time>
      </trkpt>
      <trkpt lat="43.59441" lon="2.96291">
        <ele>1083.7</ele>
        <time>2026-05-07T10:55:50.000Z</time>
      </trkpt>
      <trkpt lat="43.59441" lon="2.96291">
        <ele>1083.5</ele>
        <time>2026-05-07T10:55:51.000Z</time>
      </trkpt>
      <trkpt lat="43.59441" lon="2.96291">
        <ele>1083.5</ele>
        <time>2026-05-07T10:55:52.000Z</time>
      </trkpt>
      <trkpt lat="43.59441" lon="2.96291">
        <ele>1083.5</ele>
        <time>2026-05-07T10:55:53.000Z</time>
      </trkpt>
      <trkpt lat="43.59441" lon="2.96291">
        <ele>1083.5</ele>
        <time>2026-05-07T10:55:54.000Z</time>
      </trkpt>
      <trkpt lat="43.59441" lon="2.96291">
        <ele>1083.8</ele>
        <time>2026-05-07T10:55:55.000Z</time>
      </trkpt>
      <trkpt lat="43.59441" lon="2.96291">
        <ele>1083.8</ele>
        <time>2026-05-07T10:55:56.000Z</time>
      </trkpt>
      <trkpt lat="43.59441" lon="2.96291">
        <ele>1083.7</ele>
        <time>2026-05-07T10:55:57.000Z</time>
      </trkpt>
      <trkpt lat="43.59441" lon="2.96291">
        <ele>1083.8</ele>
        <time>2026-05-07T10:55:58.000Z</time>
      </trkpt>
      <trkpt lat="43.59441" lon="2.96291">
        <ele>1083.7</ele>
        <time>2026-05-07T10:55:59.000Z</time>
      </trkpt>
      <trkpt lat="43.59441" lon="2.96291">
        <ele>1083.7</ele>
        <time>2026-05-07T10:56:00.000Z</time>
      </trkpt>
      <trkpt lat="43.59441" lon="2.96291">
        <ele>1083.5</ele>
        <time>2026-05-07T10:56:01.000Z</time>
      </trkpt>
      <trkpt lat="43.59441" lon="2.96291">
        <ele>1083.5</ele>
        <time>2026-05-07T10:56:02.000Z</time>
      </trkpt>
      <trkpt lat="43.59441" lon="2.96291">
        <ele>1083.7</ele>
        <time>2026-05-07T10:56:03.000Z</time>
      </trkpt>
      <trkpt lat="43.59441" lon="2.96291">
        <ele>1083.6</ele>
        <time>2026-05-07T10:56:04.000Z</time>
      </trkpt>
      <trkpt lat="43.59441" lon="2.96291">
        <ele>1083.7</ele>
        <time>2026-05-07T10:56:05.000Z</time>
      </trkpt>
      <trkpt lat="43.59441" lon="2.96291">
        <ele>1083.7</ele>
        <time>2026-05-07T10:56:06.000Z</time>
      </trkpt>
      <trkpt lat="43.59441" lon="2.96291">
        <ele>1083.6</ele>
        <time>2026-05-07T10:56:07.000Z</time>
      </trkpt>
      <trkpt lat="43.59441" lon="2.96291">
        <ele>1083.6</ele>
        <time>2026-05-07T10:56:08.000Z</time>
      </trkpt>
      <trkpt lat="43.59441" lon="2.96291">
        <ele>1083.7</ele>
        <time>2026-05-07T10:56:09.000Z</time>
      </trkpt>
      <trkpt lat="43.59441" lon="2.96291">
        <ele>1083.7</ele>
        <time>2026-05-07T10:56:10.000Z</time>
      </trkpt>
      <trkpt lat="43.59441" lon="2.96291">
        <ele>1083.6</ele>
        <time>2026-05-07T10:56:11.000Z</time>
      </trkpt>
      <trkpt lat="43.59441" lon="2.96291">
        <ele>1083.4</ele>
        <time>2026-05-07T10:56:12.000Z</time>
      </trkpt>
      <trkpt lat="43.59441" lon="2.96291">
        <ele>1083.3</ele>
        <time>2026-05-07T10:56:13.000Z</time>
      </trkpt>
      <trkpt lat="43.59441" lon="2.96291">
        <ele>1083.2</ele>
        <time>2026-05-07T10:56:14.000Z</time>
      </trkpt>
      <trkpt lat="43.59441" lon="2.96291">
        <ele>1083.3</ele>
        <time>2026-05-07T10:56:15.000Z</time>
      </trkpt>
      <trkpt lat="43.59441" lon="2.96291">
        <ele>1083.5</ele>
        <time>2026-05-07T10:56:16.000Z</time>
      </trkpt>
      <trkpt lat="43.59441" lon="2.96291">
        <ele>1083.5</ele>
        <time>2026-05-07T10:56:17.000Z</time>
      </trkpt>
      <trkpt lat="43.59441" lon="2.96291">
        <ele>1083.6</ele>
        <time>2026-05-07T10:56:18.000Z</time>
      </trkpt>
      <trkpt lat="43.59441" lon="2.96291">
        <ele>1083.5</ele>
        <time>2026-05-07T10:56:19.000Z</time>
      </trkpt>
      <trkpt lat="43.59441" lon="2.96291">
        <ele>1083.5</ele>
        <time>2026-05-07T10:56:20.000Z</time>
      </trkpt>
      <trkpt lat="43.59441" lon="2.96291">
        <ele>1083.6</ele>
        <time>2026-05-07T10:56:21.000Z</time>
      </trkpt>
      <trkpt lat="43.59441" lon="2.96291">
        <ele>1083.7</ele>
        <time>2026-05-07T10:56:22.000Z</time>
      </trkpt>
      <trkpt lat="43.59441" lon="2.96291">
        <ele>1083.7</ele>
        <time>2026-05-07T10:56:23.000Z</time>
      </trkpt>
      <trkpt lat="43.59441" lon="2.96291">
        <ele>1083.8</ele>
        <time>2026-05-07T10:56:24.000Z</time>
      </trkpt>
      <trkpt lat="43.59441" lon="2.96291">
        <ele>1083.9</ele>
        <time>2026-05-07T10:56:25.000Z</time>
      </trkpt>
      <trkpt lat="43.59441" lon="2.96291">
        <ele>1083.9</ele>
        <time>2026-05-07T10:56:26.000Z</time>
      </trkpt>
      <trkpt lat="43.59441" lon="2.96291">
        <ele>1083.7</ele>
        <time>2026-05-07T10:56:27.000Z</time>
      </trkpt>
      <trkpt lat="43.59441" lon="2.96291">
        <ele>1083.8</ele>
        <time>2026-05-07T10:56:28.000Z</time>
      </trkpt>
      <trkpt lat="43.59441" lon="2.96291">
        <ele>1083.7</ele>
        <time>2026-05-07T10:56:29.000Z</time>
      </trkpt>
      <trkpt lat="43.59441" lon="2.96291">
        <ele>1083.5</ele>
        <time>2026-05-07T10:56:30.000Z</time>
      </trkpt>
      <trkpt lat="43.59441" lon="2.96291">
        <ele>1083.3</ele>
        <time>2026-05-07T10:56:31.000Z</time>
      </trkpt>
      <trkpt lat="43.59441" lon="2.96291">
        <ele>1083.2</ele>
        <time>2026-05-07T10:56:32.000Z</time>
      </trkpt>
      <trkpt lat="43.59441" lon="2.96291">
        <ele>1083</ele>
        <time>2026-05-07T10:56:33.000Z</time>
      </trkpt>
      <trkpt lat="43.59441" lon="2.96291">
        <ele>1082.9</ele>
        <time>2026-05-07T10:56:34.000Z</time>
      </trkpt>
      <trkpt lat="43.59441" lon="2.96291">
        <ele>1082.7</ele>
        <time>2026-05-07T10:56:35.000Z</time>
      </trkpt>
      <trkpt lat="43.59441" lon="2.96291">
        <ele>1082.5</ele>
        <time>2026-05-07T10:56:36.000Z</time>
      </trkpt>
      <trkpt lat="43.59441" lon="2.96291">
        <ele>1082.3</ele>
        <time>2026-05-07T10:56:37.000Z</time>
      </trkpt>
      <trkpt lat="43.59441" lon="2.96291">
        <ele>1082</ele>
        <time>2026-05-07T10:56:38.000Z</time>
      </trkpt>
      <trkpt lat="43.59441" lon="2.96291">
        <ele>1081.8</ele>
        <time>2026-05-07T10:56:39.000Z</time>
      </trkpt>
      <trkpt lat="43.59441" lon="2.96291">
        <ele>1081.6</ele>
        <time>2026-05-07T10:56:40.000Z</time>
      </trkpt>
      <trkpt lat="43.59441" lon="2.96291">
        <ele>1081.4</ele>
        <time>2026-05-07T10:56:41.000Z</time>
      </trkpt>
      <trkpt lat="43.59441" lon="2.96291">
        <ele>1081.3</ele>
        <time>2026-05-07T10:56:42.000Z</time>
      </trkpt>
      <trkpt lat="43.59441" lon="2.96291">
        <ele>1081.1</ele>
        <time>2026-05-07T10:56:43.000Z</time>
      </trkpt>
      <trkpt lat="43.59441" lon="2.96291">
        <ele>1081.1</ele>
        <time>2026-05-07T10:56:44.000Z</time>
      </trkpt>
      <trkpt lat="43.59441" lon="2.96291">
        <ele>1081</ele>
        <time>2026-05-07T10:56:45.000Z</time>
      </trkpt>
      <trkpt lat="43.59441" lon="2.96291">
        <ele>1081</ele>
        <time>2026-05-07T10:56:46.000Z</time>
      </trkpt>
      <trkpt lat="43.59441" lon="2.96291">
        <ele>1081</ele>
        <time>2026-05-07T10:56:47.000Z</time>
      </trkpt>
      <trkpt lat="43.59441" lon="2.96291">
        <ele>1081</ele>
        <time>2026-05-07T10:56:48.000Z</time>
      </trkpt>
      <trkpt lat="43.59441" lon="2.9629">
        <ele>1080.9</ele>
        <time>2026-05-07T10:56:49.000Z</time>
      </trkpt>
      <trkpt lat="43.59441" lon="2.9629">
        <ele>1081.1</ele>
        <time>2026-05-07T10:56:50.000Z</time>
      </trkpt>
      <trkpt lat="43.59441" lon="2.9629">
        <ele>1081.2</ele>
        <time>2026-05-07T10:56:51.000Z</time>
      </trkpt>
      <trkpt lat="43.59441" lon="2.9629">
        <ele>1081.4</ele>
        <time>2026-05-07T10:56:52.000Z</time>
      </trkpt>
      <trkpt lat="43.59441" lon="2.9629">
        <ele>1081.7</ele>
        <time>2026-05-07T10:56:53.000Z</time>
      </trkpt>
      <trkpt lat="43.59441" lon="2.9629">
        <ele>1081.9</ele>
        <time>2026-05-07T10:56:54.000Z</time>
      </trkpt>
      <trkpt lat="43.59441" lon="2.9629">
        <ele>1082.2</ele>
        <time>2026-05-07T10:56:55.000Z</time>
      </trkpt>
      <trkpt lat="43.59441" lon="2.9629">
        <ele>1082.5</ele>
        <time>2026-05-07T10:56:56.000Z</time>
      </trkpt>
      <trkpt lat="43.59441" lon="2.9629">
        <ele>1082.8</ele>
        <time>2026-05-07T10:56:57.000Z</time>
      </trkpt>
      <trkpt lat="43.59441" lon="2.9629">
        <ele>1082.8</ele>
        <time>2026-05-07T10:56:58.000Z</time>
      </trkpt>
      <trkpt lat="43.59441" lon="2.9629">
        <ele>1082.9</ele>
        <time>2026-05-07T10:56:59.000Z</time>
      </trkpt>
      <trkpt lat="43.59441" lon="2.9629">
        <ele>1082.9</ele>
        <time>2026-05-07T10:57:00.000Z</time>
      </trkpt>
      <trkpt lat="43.59441" lon="2.9629">
        <ele>1082.9</ele>
        <time>2026-05-07T10:57:01.000Z</time>
      </trkpt>
      <trkpt lat="43.59441" lon="2.9629">
        <ele>1082.9</ele>
        <time>2026-05-07T10:57:02.000Z</time>
      </trkpt>
      <trkpt lat="43.59441" lon="2.9629">
        <ele>1082.9</ele>
        <time>2026-05-07T10:57:03.000Z</time>
      </trkpt>
      <trkpt lat="43.59441" lon="2.9629">
        <ele>1082.9</ele>
        <time>2026-05-07T10:57:04.000Z</time>
      </trkpt>
      <trkpt lat="43.59441" lon="2.9629">
        <ele>1082.8</ele>
        <time>2026-05-07T10:57:05.000Z</time>
      </trkpt>
      <trkpt lat="43.59441" lon="2.9629">
        <ele>1082.8</ele>
        <time>2026-05-07T10:57:06.000Z</time>
      </trkpt>
      <trkpt lat="43.59441" lon="2.9629">
        <ele>1082.9</ele>
        <time>2026-05-07T10:57:07.000Z</time>
      </trkpt>
      <trkpt lat="43.59441" lon="2.9629">
        <ele>1083.1</ele>
        <time>2026-05-07T10:57:08.000Z</time>
      </trkpt>
      <trkpt lat="43.59441" lon="2.9629">
        <ele>1083.2</ele>
        <time>2026-05-07T10:57:09.000Z</time>
      </trkpt>
      <trkpt lat="43.59441" lon="2.9629">
        <ele>1083.5</ele>
        <time>2026-05-07T10:57:10.000Z</time>
      </trkpt>
      <trkpt lat="43.59441" lon="2.9629">
        <ele>1083.5</ele>
        <time>2026-05-07T10:57:11.000Z</time>
      </trkpt>
      <trkpt lat="43.59441" lon="2.9629">
        <ele>1083.7</ele>
        <time>2026-05-07T10:57:12.000Z</time>
      </trkpt>
      <trkpt lat="43.59441" lon="2.9629">
        <ele>1084</ele>
        <time>2026-05-07T10:57:13.000Z</time>
      </trkpt>
      <trkpt lat="43.59441" lon="2.9629">
        <ele>1083.9</ele>
        <time>2026-05-07T10:57:14.000Z</time>
      </trkpt>
      <trkpt lat="43.59441" lon="2.9629">
        <ele>1083.9</ele>
        <time>2026-05-07T10:57:15.000Z</time>
      </trkpt>
      <trkpt lat="43.59441" lon="2.9629">
        <ele>1083.9</ele>
        <time>2026-05-07T10:57:16.000Z</time>
      </trkpt>
      <trkpt lat="43.59441" lon="2.9629">
        <ele>1083.7</ele>
        <time>2026-05-07T10:57:17.000Z</time>
      </trkpt>
      <trkpt lat="43.59441" lon="2.9629">
        <ele>1083.5</ele>
        <time>2026-05-07T10:57:18.000Z</time>
      </trkpt>
      <trkpt lat="43.59441" lon="2.9629">
        <ele>1083.4</ele>
        <time>2026-05-07T10:57:19.000Z</time>
      </trkpt>
      <trkpt lat="43.59441" lon="2.9629">
        <ele>1083.4</ele>
        <time>2026-05-07T10:57:20.000Z</time>
      </trkpt>
      <trkpt lat="43.59441" lon="2.9629">
        <ele>1083.4</ele>
        <time>2026-05-07T10:57:21.000Z</time>
      </trkpt>
      <trkpt lat="43.59441" lon="2.9629">
        <ele>1083.6</ele>
        <time>2026-05-07T10:57:22.000Z</time>
      </trkpt>
      <trkpt lat="43.59441" lon="2.9629">
        <ele>1083.5</ele>
        <time>2026-05-07T10:57:23.000Z</time>
      </trkpt>
      <trkpt lat="43.59441" lon="2.9629">
        <ele>1083.6</ele>
        <time>2026-05-07T10:57:24.000Z</time>
      </trkpt>
      <trkpt lat="43.59441" lon="2.9629">
        <ele>1083.8</ele>
        <time>2026-05-07T10:57:25.000Z</time>
      </trkpt>
      <trkpt lat="43.59441" lon="2.9629">
        <ele>1083.9</ele>
        <time>2026-05-07T10:57:26.000Z</time>
      </trkpt>
      <trkpt lat="43.59441" lon="2.9629">
        <ele>1084.1</ele>
        <time>2026-05-07T10:57:27.000Z</time>
      </trkpt>
      <trkpt lat="43.59441" lon="2.9629">
        <ele>1084.3</ele>
        <time>2026-05-07T10:57:28.000Z</time>
      </trkpt>
      <trkpt lat="43.59441" lon="2.9629">
        <ele>1084.4</ele>
        <time>2026-05-07T10:57:29.000Z</time>
      </trkpt>
      <trkpt lat="43.59441" lon="2.9629">
        <ele>1084.6</ele>
        <time>2026-05-07T10:57:30.000Z</time>
      </trkpt>
      <trkpt lat="43.59441" lon="2.9629">
        <ele>1084.8</ele>
        <time>2026-05-07T10:57:31.000Z</time>
      </trkpt>
      <trkpt lat="43.59441" lon="2.9629">
        <ele>1084.8</ele>
        <time>2026-05-07T10:57:32.000Z</time>
      </trkpt>
      <trkpt lat="43.59441" lon="2.9629">
        <ele>1084.8</ele>
        <time>2026-05-07T10:57:33.000Z</time>
      </trkpt>
      <trkpt lat="43.59441" lon="2.9629">
        <ele>1084.7</ele>
        <time>2026-05-07T10:57:34.000Z</time>
      </trkpt>
      <trkpt lat="43.59441" lon="2.9629">
        <ele>1084.7</ele>
        <time>2026-05-07T10:57:35.000Z</time>
      </trkpt>
      <trkpt lat="43.59441" lon="2.9629">
        <ele>1084.7</ele>
        <time>2026-05-07T10:57:36.000Z</time>
      </trkpt>
      <trkpt lat="43.59441" lon="2.9629">
        <ele>1084.6</ele>
        <time>2026-05-07T10:57:37.000Z</time>
      </trkpt>
      <trkpt lat="43.59441" lon="2.9629">
        <ele>1084.5</ele>
        <time>2026-05-07T10:57:38.000Z</time>
      </trkpt>
      <trkpt lat="43.59441" lon="2.9629">
        <ele>1084.2</ele>
        <time>2026-05-07T10:57:39.000Z</time>
      </trkpt>
      <trkpt lat="43.59441" lon="2.9629">
        <ele>1084.1</ele>
        <time>2026-05-07T10:57:40.000Z</time>
      </trkpt>
      <trkpt lat="43.59441" lon="2.9629">
        <ele>1083.9</ele>
        <time>2026-05-07T10:57:41.000Z</time>
      </trkpt>
      <trkpt lat="43.59441" lon="2.9629">
        <ele>1084</ele>
        <time>2026-05-07T10:57:42.000Z</time>
      </trkpt>
      <trkpt lat="43.59441" lon="2.9629">
        <ele>1083.8</ele>
        <time>2026-05-07T10:57:43.000Z</time>
      </trkpt>
      <trkpt lat="43.59441" lon="2.9629">
        <ele>1083.9</ele>
        <time>2026-05-07T10:57:44.000Z</time>
      </trkpt>
      <trkpt lat="43.59441" lon="2.9629">
        <ele>1084.1</ele>
        <time>2026-05-07T10:57:45.000Z</time>
      </trkpt>
      <trkpt lat="43.59441" lon="2.9629">
        <ele>1084.1</ele>
        <time>2026-05-07T10:57:46.000Z</time>
      </trkpt>
      <trkpt lat="43.59441" lon="2.9629">
        <ele>1084.2</ele>
        <time>2026-05-07T10:57:47.000Z</time>
      </trkpt>
      <trkpt lat="43.59441" lon="2.9629">
        <ele>1084.3</ele>
        <time>2026-05-07T10:57:48.000Z</time>
      </trkpt>
      <trkpt lat="43.59441" lon="2.9629">
        <ele>1084.3</ele>
        <time>2026-05-07T10:57:49.000Z</time>
      </trkpt>
      <trkpt lat="43.59441" lon="2.9629">
        <ele>1084.4</ele>
        <time>2026-05-07T10:57:50.000Z</time>
      </trkpt>
      <trkpt lat="43.59441" lon="2.9629">
        <ele>1084.5</ele>
        <time>2026-05-07T10:57:51.000Z</time>
      </trkpt>
      <trkpt lat="43.59441" lon="2.9629">
        <ele>1084.6</ele>
        <time>2026-05-07T10:57:52.000Z</time>
      </trkpt>
      <trkpt lat="43.59441" lon="2.9629">
        <ele>1084.8</ele>
        <time>2026-05-07T10:57:53.000Z</time>
      </trkpt>
      <trkpt lat="43.59441" lon="2.9629">
        <ele>1085</ele>
        <time>2026-05-07T10:57:54.000Z</time>
      </trkpt>
      <trkpt lat="43.59441" lon="2.9629">
        <ele>1085</ele>
        <time>2026-05-07T10:57:55.000Z</time>
      </trkpt>
      <trkpt lat="43.59441" lon="2.9629">
        <ele>1085</ele>
        <time>2026-05-07T10:57:56.000Z</time>
      </trkpt>
      <trkpt lat="43.59441" lon="2.9629">
        <ele>1085</ele>
        <time>2026-05-07T10:57:57.000Z</time>
      </trkpt>
      <trkpt lat="43.59441" lon="2.9629">
        <ele>1084.9</ele>
        <time>2026-05-07T10:57:58.000Z</time>
      </trkpt>
      <trkpt lat="43.59441" lon="2.9629">
        <ele>1084.8</ele>
        <time>2026-05-07T10:57:59.000Z</time>
      </trkpt>
      <trkpt lat="43.59441" lon="2.9629">
        <ele>1084.8</ele>
        <time>2026-05-07T10:58:00.000Z</time>
      </trkpt>
      <trkpt lat="43.59441" lon="2.9629">
        <ele>1084.9</ele>
        <time>2026-05-07T10:58:01.000Z</time>
      </trkpt>
      <trkpt lat="43.59441" lon="2.9629">
        <ele>1085</ele>
        <time>2026-05-07T10:58:02.000Z</time>
      </trkpt>
      <trkpt lat="43.59441" lon="2.9629">
        <ele>1084.7</ele>
        <time>2026-05-07T10:58:03.000Z</time>
      </trkpt>
      <trkpt lat="43.59441" lon="2.9629">
        <ele>1084.6</ele>
        <time>2026-05-07T10:58:04.000Z</time>
      </trkpt>
      <trkpt lat="43.59441" lon="2.96291">
        <ele>1084.4</ele>
        <time>2026-05-07T10:58:05.000Z</time>
      </trkpt>
      <trkpt lat="43.59441" lon="2.96291">
        <ele>1084.1</ele>
        <time>2026-05-07T10:58:06.000Z</time>
      </trkpt>
      <trkpt lat="43.59441" lon="2.96291">
        <ele>1083.9</ele>
        <time>2026-05-07T10:58:07.000Z</time>
      </trkpt>
      <trkpt lat="43.59441" lon="2.96291">
        <ele>1083.7</ele>
        <time>2026-05-07T10:58:08.000Z</time>
      </trkpt>
      <trkpt lat="43.59441" lon="2.96291">
        <ele>1083.6</ele>
        <time>2026-05-07T10:58:09.000Z</time>
      </trkpt>
      <trkpt lat="43.59441" lon="2.96291">
        <ele>1083.4</ele>
        <time>2026-05-07T10:58:10.000Z</time>
      </trkpt>
      <trkpt lat="43.59441" lon="2.96291">
        <ele>1083.3</ele>
        <time>2026-05-07T10:58:11.000Z</time>
      </trkpt>
      <trkpt lat="43.59441" lon="2.96291">
        <ele>1083.2</ele>
        <time>2026-05-07T10:58:12.000Z</time>
      </trkpt>
      <trkpt lat="43.59441" lon="2.96291">
        <ele>1083.1</ele>
        <time>2026-05-07T10:58:13.000Z</time>
      </trkpt>
      <trkpt lat="43.59441" lon="2.96291">
        <ele>1083</ele>
        <time>2026-05-07T10:58:14.000Z</time>
      </trkpt>
      <trkpt lat="43.59441" lon="2.96291">
        <ele>1082.9</ele>
        <time>2026-05-07T10:58:15.000Z</time>
      </trkpt>
      <trkpt lat="43.59441" lon="2.96291">
        <ele>1082.8</ele>
        <time>2026-05-07T10:58:16.000Z</time>
      </trkpt>
      <trkpt lat="43.59441" lon="2.96291">
        <ele>1082.7</ele>
        <time>2026-05-07T10:58:17.000Z</time>
      </trkpt>
      <trkpt lat="43.59441" lon="2.96291">
        <ele>1082.6</ele>
        <time>2026-05-07T10:58:18.000Z</time>
      </trkpt>
      <trkpt lat="43.59441" lon="2.96291">
        <ele>1082.5</ele>
        <time>2026-05-07T10:58:19.000Z</time>
      </trkpt>
      <trkpt lat="43.59441" lon="2.96291">
        <ele>1082.4</ele>
        <time>2026-05-07T10:58:20.000Z</time>
      </trkpt>
      <trkpt lat="43.59441" lon="2.96291">
        <ele>1082.3</ele>
        <time>2026-05-07T10:58:21.000Z</time>
      </trkpt>
      <trkpt lat="43.59441" lon="2.96291">
        <ele>1082.4</ele>
        <time>2026-05-07T10:58:22.000Z</time>
      </trkpt>
      <trkpt lat="43.59441" lon="2.96291">
        <ele>1082.4</ele>
        <time>2026-05-07T10:58:23.000Z</time>
      </trkpt>
      <trkpt lat="43.59441" lon="2.96291">
        <ele>1082.3</ele>
        <time>2026-05-07T10:58:24.000Z</time>
      </trkpt>
      <trkpt lat="43.59441" lon="2.96291">
        <ele>1082.2</ele>
        <time>2026-05-07T10:58:25.000Z</time>
      </trkpt>
      <trkpt lat="43.59441" lon="2.96291">
        <ele>1082.1</ele>
        <time>2026-05-07T10:58:26.000Z</time>
      </trkpt>
      <trkpt lat="43.59441" lon="2.96291">
        <ele>1082</ele>
        <time>2026-05-07T10:58:27.000Z</time>
      </trkpt>
      <trkpt lat="43.59441" lon="2.96292">
        <ele>1082</ele>
        <time>2026-05-07T10:58:28.000Z</time>
      </trkpt>
      <trkpt lat="43.59441" lon="2.96292">
        <ele>1082</ele>
        <time>2026-05-07T10:58:29.000Z</time>
      </trkpt>
      <trkpt lat="43.59441" lon="2.96292">
        <ele>1082.1</ele>
        <time>2026-05-07T10:58:30.000Z</time>
      </trkpt>
      <trkpt lat="43.59441" lon="2.96292">
        <ele>1082.2</ele>
        <time>2026-05-07T10:58:31.000Z</time>
      </trkpt>
      <trkpt lat="43.59441" lon="2.96292">
        <ele>1082.2</ele>
        <time>2026-05-07T10:58:32.000Z</time>
      </trkpt>
      <trkpt lat="43.59441" lon="2.96292">
        <ele>1082.2</ele>
        <time>2026-05-07T10:58:33.000Z</time>
      </trkpt>
      <trkpt lat="43.59441" lon="2.96292">
        <ele>1082.1</ele>
        <time>2026-05-07T10:58:34.000Z</time>
      </trkpt>
      <trkpt lat="43.59441" lon="2.96292">
        <ele>1082.1</ele>
        <time>2026-05-07T10:58:35.000Z</time>
      </trkpt>
      <trkpt lat="43.59441" lon="2.96292">
        <ele>1082.1</ele>
        <time>2026-05-07T10:58:36.000Z</time>
      </trkpt>
      <trkpt lat="43.59441" lon="2.96292">
        <ele>1082</ele>
        <time>2026-05-07T10:58:37.000Z</time>
      </trkpt>
      <trkpt lat="43.59441" lon="2.96292">
        <ele>1082</ele>
        <time>2026-05-07T10:58:38.000Z</time>
      </trkpt>
      <trkpt lat="43.59441" lon="2.96292">
        <ele>1082</ele>
        <time>2026-05-07T10:58:39.000Z</time>
      </trkpt>
      <trkpt lat="43.59441" lon="2.96292">
        <ele>1082.1</ele>
        <time>2026-05-07T10:58:40.000Z</time>
      </trkpt>
      <trkpt lat="43.59441" lon="2.96292">
        <ele>1082.1</ele>
        <time>2026-05-07T10:58:41.000Z</time>
      </trkpt>
      <trkpt lat="43.59441" lon="2.96291">
        <ele>1082.1</ele>
        <time>2026-05-07T10:58:42.000Z</time>
      </trkpt>
      <trkpt lat="43.59441" lon="2.96291">
        <ele>1082</ele>
        <time>2026-05-07T10:58:43.000Z</time>
      </trkpt>
      <trkpt lat="43.59441" lon="2.96291">
        <ele>1081.9</ele>
        <time>2026-05-07T10:58:44.000Z</time>
      </trkpt>
      <trkpt lat="43.59441" lon="2.96291">
        <ele>1081.9</ele>
        <time>2026-05-07T10:58:45.000Z</time>
      </trkpt>
      <trkpt lat="43.59441" lon="2.96291">
        <ele>1081.9</ele>
        <time>2026-05-07T10:58:46.000Z</time>
      </trkpt>
      <trkpt lat="43.59441" lon="2.96291">
        <ele>1081.8</ele>
        <time>2026-05-07T10:58:47.000Z</time>
      </trkpt>
      <trkpt lat="43.59441" lon="2.96291">
        <ele>1081.8</ele>
        <time>2026-05-07T10:58:48.000Z</time>
      </trkpt>
      <trkpt lat="43.59441" lon="2.96291">
        <ele>1081.7</ele>
        <time>2026-05-07T10:58:49.000Z</time>
      </trkpt>
      <trkpt lat="43.59441" lon="2.96291">
        <ele>1081.7</ele>
        <time>2026-05-07T10:58:50.000Z</time>
      </trkpt>
      <trkpt lat="43.59441" lon="2.96291">
        <ele>1081.6</ele>
        <time>2026-05-07T10:58:51.000Z</time>
      </trkpt>
      <trkpt lat="43.59441" lon="2.96291">
        <ele>1081.5</ele>
        <time>2026-05-07T10:58:52.000Z</time>
      </trkpt>
      <trkpt lat="43.59441" lon="2.96291">
        <ele>1081.4</ele>
        <time>2026-05-07T10:58:53.000Z</time>
      </trkpt>
      <trkpt lat="43.59441" lon="2.96291">
        <ele>1081.5</ele>
        <time>2026-05-07T10:58:54.000Z</time>
      </trkpt>
      <trkpt lat="43.59441" lon="2.96291">
        <ele>1081.5</ele>
        <time>2026-05-07T10:58:55.000Z</time>
      </trkpt>
      <trkpt lat="43.59441" lon="2.96291">
        <ele>1081.5</ele>
        <time>2026-05-07T10:58:56.000Z</time>
      </trkpt>
      <trkpt lat="43.59441" lon="2.96291">
        <ele>1081.5</ele>
        <time>2026-05-07T10:58:57.000Z</time>
      </trkpt>
      <trkpt lat="43.59441" lon="2.96291">
        <ele>1081.6</ele>
        <time>2026-05-07T10:58:58.000Z</time>
      </trkpt>
      <trkpt lat="43.59441" lon="2.96291">
        <ele>1081.7</ele>
        <time>2026-05-07T10:58:59.000Z</time>
      </trkpt>
      <trkpt lat="43.59441" lon="2.96291">
        <ele>1081.9</ele>
        <time>2026-05-07T10:59:00.000Z</time>
      </trkpt>
      <trkpt lat="43.59441" lon="2.96291">
        <ele>1082</ele>
        <time>2026-05-07T10:59:01.000Z</time>
      </trkpt>
      <trkpt lat="43.59441" lon="2.96291">
        <ele>1082.2</ele>
        <time>2026-05-07T10:59:02.000Z</time>
      </trkpt>
      <trkpt lat="43.59441" lon="2.96291">
        <ele>1082.4</ele>
        <time>2026-05-07T10:59:03.000Z</time>
      </trkpt>
      <trkpt lat="43.59441" lon="2.96291">
        <ele>1082.7</ele>
        <time>2026-05-07T10:59:04.000Z</time>
      </trkpt>
      <trkpt lat="43.59441" lon="2.96291">
        <ele>1082.7</ele>
        <time>2026-05-07T10:59:05.000Z</time>
      </trkpt>
      <trkpt lat="43.59441" lon="2.96291">
        <ele>1082.8</ele>
        <time>2026-05-07T10:59:06.000Z</time>
      </trkpt>
      <trkpt lat="43.59441" lon="2.96291">
        <ele>1082.7</ele>
        <time>2026-05-07T10:59:07.000Z</time>
      </trkpt>
      <trkpt lat="43.59441" lon="2.96291">
        <ele>1082.8</ele>
        <time>2026-05-07T10:59:08.000Z</time>
      </trkpt>
      <trkpt lat="43.59441" lon="2.96291">
        <ele>1082.8</ele>
        <time>2026-05-07T10:59:09.000Z</time>
      </trkpt>
      <trkpt lat="43.59441" lon="2.96291">
        <ele>1083</ele>
        <time>2026-05-07T10:59:10.000Z</time>
      </trkpt>
      <trkpt lat="43.59441" lon="2.96291">
        <ele>1083</ele>
        <time>2026-05-07T10:59:11.000Z</time>
      </trkpt>
      <trkpt lat="43.59441" lon="2.96291">
        <ele>1083.1</ele>
        <time>2026-05-07T10:59:12.000Z</time>
      </trkpt>
      <trkpt lat="43.59441" lon="2.96291">
        <ele>1083.2</ele>
        <time>2026-05-07T10:59:13.000Z</time>
      </trkpt>
      <trkpt lat="43.59441" lon="2.9629">
        <ele>1083.3</ele>
        <time>2026-05-07T10:59:14.000Z</time>
      </trkpt>
      <trkpt lat="43.59441" lon="2.9629">
        <ele>1083.3</ele>
        <time>2026-05-07T10:59:15.000Z</time>
      </trkpt>
      <trkpt lat="43.59441" lon="2.9629">
        <ele>1083.4</ele>
        <time>2026-05-07T10:59:16.000Z</time>
      </trkpt>
      <trkpt lat="43.59441" lon="2.9629">
        <ele>1083.5</ele>
        <time>2026-05-07T10:59:17.000Z</time>
      </trkpt>
      <trkpt lat="43.59441" lon="2.96289">
        <ele>1083.6</ele>
        <time>2026-05-07T10:59:18.000Z</time>
      </trkpt>
      <trkpt lat="43.59441" lon="2.96289">
        <ele>1083.6</ele>
        <time>2026-05-07T10:59:19.000Z</time>
      </trkpt>
      <trkpt lat="43.59441" lon="2.96289">
        <ele>1083.7</ele>
        <time>2026-05-07T10:59:20.000Z</time>
      </trkpt>
      <trkpt lat="43.59441" lon="2.96289">
        <ele>1083.8</ele>
        <time>2026-05-07T10:59:21.000Z</time>
      </trkpt>
      <trkpt lat="43.59441" lon="2.96289">
        <ele>1083.9</ele>
        <time>2026-05-07T10:59:22.000Z</time>
      </trkpt>
      <trkpt lat="43.59441" lon="2.96289">
        <ele>1083.9</ele>
        <time>2026-05-07T10:59:23.000Z</time>
      </trkpt>
      <trkpt lat="43.59441" lon="2.96289">
        <ele>1083.9</ele>
        <time>2026-05-07T10:59:24.000Z</time>
      </trkpt>
      <trkpt lat="43.59441" lon="2.96289">
        <ele>1083.9</ele>
        <time>2026-05-07T10:59:25.000Z</time>
      </trkpt>
      <trkpt lat="43.59441" lon="2.96289">
        <ele>1084</ele>
        <time>2026-05-07T10:59:26.000Z</time>
      </trkpt>
      <trkpt lat="43.59441" lon="2.96289">
        <ele>1084.1</ele>
        <time>2026-05-07T10:59:27.000Z</time>
      </trkpt>
      <trkpt lat="43.59441" lon="2.96289">
        <ele>1084.1</ele>
        <time>2026-05-07T10:59:28.000Z</time>
      </trkpt>
      <trkpt lat="43.59441" lon="2.96289">
        <ele>1084</ele>
        <time>2026-05-07T10:59:29.000Z</time>
      </trkpt>
      <trkpt lat="43.59441" lon="2.96289">
        <ele>1083.9</ele>
        <time>2026-05-07T10:59:30.000Z</time>
      </trkpt>
      <trkpt lat="43.59441" lon="2.96289">
        <ele>1083.7</ele>
        <time>2026-05-07T10:59:31.000Z</time>
      </trkpt>
      <trkpt lat="43.59441" lon="2.96289">
        <ele>1083.6</ele>
        <time>2026-05-07T10:59:32.000Z</time>
      </trkpt>
      <trkpt lat="43.59441" lon="2.96289">
        <ele>1083.6</ele>
        <time>2026-05-07T10:59:33.000Z</time>
      </trkpt>
      <trkpt lat="43.59441" lon="2.96289">
        <ele>1083.6</ele>
        <time>2026-05-07T10:59:34.000Z</time>
      </trkpt>
      <trkpt lat="43.59441" lon="2.96289">
        <ele>1084</ele>
        <time>2026-05-07T10:59:35.000Z</time>
      </trkpt>
      <trkpt lat="43.59441" lon="2.96289">
        <ele>1084.1</ele>
        <time>2026-05-07T10:59:36.000Z</time>
      </trkpt>
      <trkpt lat="43.59441" lon="2.96289">
        <ele>1084.3</ele>
        <time>2026-05-07T10:59:37.000Z</time>
      </trkpt>
      <trkpt lat="43.59441" lon="2.96289">
        <ele>1084.6</ele>
        <time>2026-05-07T10:59:38.000Z</time>
      </trkpt>
      <trkpt lat="43.59441" lon="2.96289">
        <ele>1084.3</ele>
        <time>2026-05-07T10:59:39.000Z</time>
      </trkpt>
      <trkpt lat="43.59441" lon="2.9629">
        <ele>1084.3</ele>
        <time>2026-05-07T10:59:40.000Z</time>
      </trkpt>
      <trkpt lat="43.59442" lon="2.9629">
        <ele>1084.1</ele>
        <time>2026-05-07T10:59:41.000Z</time>
      </trkpt>
      <trkpt lat="43.59442" lon="2.9629">
        <ele>1084.1</ele>
        <time>2026-05-07T10:59:42.000Z</time>
      </trkpt>
      <trkpt lat="43.59442" lon="2.9629">
        <ele>1084.2</ele>
        <time>2026-05-07T10:59:43.000Z</time>
      </trkpt>
      <trkpt lat="43.59442" lon="2.9629">
        <ele>1084.9</ele>
        <time>2026-05-07T10:59:44.000Z</time>
      </trkpt>
      <trkpt lat="43.59443" lon="2.9629">
        <ele>1085</ele>
        <time>2026-05-07T10:59:46.000Z</time>
      </trkpt>
      <trkpt lat="43.59442" lon="2.96289">
        <ele>1085.4</ele>
        <time>2026-05-07T10:59:47.000Z</time>
      </trkpt>
      <trkpt lat="43.59442" lon="2.96287">
        <ele>1085.8</ele>
        <time>2026-05-07T10:59:48.000Z</time>
      </trkpt>
      <trkpt lat="43.59442" lon="2.96285">
        <ele>1086.4</ele>
        <time>2026-05-07T10:59:49.000Z</time>
      </trkpt>
      <trkpt lat="43.59441" lon="2.96283">
        <ele>1086.9</ele>
        <time>2026-05-07T10:59:50.000Z</time>
      </trkpt>
      <trkpt lat="43.59441" lon="2.96281">
        <ele>1087.1</ele>
        <time>2026-05-07T10:59:51.000Z</time>
      </trkpt>
      <trkpt lat="43.59441" lon="2.96279">
        <ele>1086.8</ele>
        <time>2026-05-07T10:59:52.000Z</time>
      </trkpt>
      <trkpt lat="43.5944" lon="2.96277">
        <ele>1086.9</ele>
        <time>2026-05-07T10:59:53.000Z</time>
      </trkpt>
      <trkpt lat="43.59439" lon="2.96275">
        <ele>1087</ele>
        <time>2026-05-07T10:59:54.000Z</time>
      </trkpt>
      <trkpt lat="43.59439" lon="2.96274">
        <ele>1086.9</ele>
        <time>2026-05-07T10:59:55.000Z</time>
      </trkpt>
      <trkpt lat="43.59438" lon="2.96273">
        <ele>1086.8</ele>
        <time>2026-05-07T10:59:56.000Z</time>
      </trkpt>
      <trkpt lat="43.59439" lon="2.96272">
        <ele>1087</ele>
        <time>2026-05-07T10:59:57.000Z</time>
      </trkpt>
      <trkpt lat="43.59439" lon="2.96272">
        <ele>1087</ele>
        <time>2026-05-07T10:59:58.000Z</time>
      </trkpt>
      <trkpt lat="43.59438" lon="2.96273">
        <ele>1086.9</ele>
        <time>2026-05-07T10:59:59.000Z</time>
      </trkpt>
      <trkpt lat="43.59439" lon="2.96274">
        <ele>1086.2</ele>
        <time>2026-05-07T11:00:00.000Z</time>
      </trkpt>
      <trkpt lat="43.59439" lon="2.96274">
        <ele>1085.9</ele>
        <time>2026-05-07T11:00:01.000Z</time>
      </trkpt>
      <trkpt lat="43.59439" lon="2.96274">
        <ele>1085.4</ele>
        <time>2026-05-07T11:00:02.000Z</time>
      </trkpt>
      <trkpt lat="43.59439" lon="2.96274">
        <ele>1085.1</ele>
        <time>2026-05-07T11:00:03.000Z</time>
      </trkpt>
      <trkpt lat="43.59439" lon="2.96274">
        <ele>1085</ele>
        <time>2026-05-07T11:00:04.000Z</time>
      </trkpt>
      <trkpt lat="43.59439" lon="2.96274">
        <ele>1085.2</ele>
        <time>2026-05-07T11:00:05.000Z</time>
      </trkpt>
      <trkpt lat="43.59439" lon="2.96274">
        <ele>1085.1</ele>
        <time>2026-05-07T11:00:06.000Z</time>
      </trkpt>
      <trkpt lat="43.59439" lon="2.96274">
        <ele>1085.1</ele>
        <time>2026-05-07T11:00:07.000Z</time>
      </trkpt>
      <trkpt lat="43.59439" lon="2.96274">
        <ele>1085.4</ele>
        <time>2026-05-07T11:00:08.000Z</time>
      </trkpt>
      <trkpt lat="43.59439" lon="2.96274">
        <ele>1085.7</ele>
        <time>2026-05-07T11:00:09.000Z</time>
      </trkpt>
      <trkpt lat="43.59439" lon="2.96274">
        <ele>1086</ele>
        <time>2026-05-07T11:00:10.000Z</time>
      </trkpt>
      <trkpt lat="43.59439" lon="2.96274">
        <ele>1086.1</ele>
        <time>2026-05-07T11:00:11.000Z</time>
      </trkpt>
      <trkpt lat="43.59439" lon="2.96275">
        <ele>1086.3</ele>
        <time>2026-05-07T11:00:12.000Z</time>
      </trkpt>
      <trkpt lat="43.59439" lon="2.96275">
        <ele>1086.2</ele>
        <time>2026-05-07T11:00:13.000Z</time>
      </trkpt>
      <trkpt lat="43.59439" lon="2.96275">
        <ele>1086.1</ele>
        <time>2026-05-07T11:00:14.000Z</time>
      </trkpt>
      <trkpt lat="43.59439" lon="2.96275">
        <ele>1086.3</ele>
        <time>2026-05-07T11:00:15.000Z</time>
      </trkpt>
      <trkpt lat="43.59439" lon="2.96275">
        <ele>1086.6</ele>
        <time>2026-05-07T11:00:16.000Z</time>
      </trkpt>
      <trkpt lat="43.59438" lon="2.96275">
        <ele>1086.3</ele>
        <time>2026-05-07T11:00:17.000Z</time>
      </trkpt>
      <trkpt lat="43.59438" lon="2.96276">
        <ele>1086.1</ele>
        <time>2026-05-07T11:00:18.000Z</time>
      </trkpt>
      <trkpt lat="43.59438" lon="2.96276">
        <ele>1085.8</ele>
        <time>2026-05-07T11:00:19.000Z</time>
      </trkpt>
      <trkpt lat="43.59438" lon="2.96277">
        <ele>1085.6</ele>
        <time>2026-05-07T11:00:20.000Z</time>
      </trkpt>
      <trkpt lat="43.59438" lon="2.96277">
        <ele>1085.2</ele>
        <time>2026-05-07T11:00:21.000Z</time>
      </trkpt>
      <trkpt lat="43.59438" lon="2.96277">
        <ele>1085</ele>
        <time>2026-05-07T11:00:22.000Z</time>
      </trkpt>
      <trkpt lat="43.59438" lon="2.96277">
        <ele>1085</ele>
        <time>2026-05-07T11:00:23.000Z</time>
      </trkpt>
      <trkpt lat="43.59438" lon="2.96277">
        <ele>1084.7</ele>
        <time>2026-05-07T11:00:24.000Z</time>
      </trkpt>
      <trkpt lat="43.59438" lon="2.96277">
        <ele>1084.5</ele>
        <time>2026-05-07T11:00:25.000Z</time>
      </trkpt>
      <trkpt lat="43.59438" lon="2.96278">
        <ele>1084.4</ele>
        <time>2026-05-07T11:00:26.000Z</time>
      </trkpt>
      <trkpt lat="43.59438" lon="2.96278">
        <ele>1084.5</ele>
        <time>2026-05-07T11:00:27.000Z</time>
      </trkpt>
      <trkpt lat="43.59438" lon="2.96278">
        <ele>1084.5</ele>
        <time>2026-05-07T11:00:28.000Z</time>
      </trkpt>
      <trkpt lat="43.59438" lon="2.96278">
        <ele>1084.3</ele>
        <time>2026-05-07T11:00:29.000Z</time>
      </trkpt>
      <trkpt lat="43.59438" lon="2.96278">
        <ele>1084.2</ele>
        <time>2026-05-07T11:00:30.000Z</time>
      </trkpt>
      <trkpt lat="43.59438" lon="2.96278">
        <ele>1083.9</ele>
        <time>2026-05-07T11:00:31.000Z</time>
      </trkpt>
      <trkpt lat="43.59438" lon="2.96279">
        <ele>1083.5</ele>
        <time>2026-05-07T11:00:32.000Z</time>
      </trkpt>
      <trkpt lat="43.59438" lon="2.96279">
        <ele>1083.3</ele>
        <time>2026-05-07T11:00:33.000Z</time>
      </trkpt>
      <trkpt lat="43.59438" lon="2.96279">
        <ele>1082.9</ele>
        <time>2026-05-07T11:00:34.000Z</time>
      </trkpt>
      <trkpt lat="43.59438" lon="2.96279">
        <ele>1082.7</ele>
        <time>2026-05-07T11:00:35.000Z</time>
      </trkpt>
      <trkpt lat="43.59439" lon="2.9628">
        <ele>1082.6</ele>
        <time>2026-05-07T11:00:36.000Z</time>
      </trkpt>
      <trkpt lat="43.59439" lon="2.9628">
        <ele>1082.5</ele>
        <time>2026-05-07T11:00:37.000Z</time>
      </trkpt>
      <trkpt lat="43.59439" lon="2.9628">
        <ele>1082.3</ele>
        <time>2026-05-07T11:00:38.000Z</time>
      </trkpt>
      <trkpt lat="43.59439" lon="2.9628">
        <ele>1082.2</ele>
        <time>2026-05-07T11:00:39.000Z</time>
      </trkpt>
      <trkpt lat="43.59439" lon="2.9628">
        <ele>1081.9</ele>
        <time>2026-05-07T11:00:40.000Z</time>
      </trkpt>
      <trkpt lat="43.59439" lon="2.9628">
        <ele>1081.3</ele>
        <time>2026-05-07T11:00:41.000Z</time>
      </trkpt>
      <trkpt lat="43.59439" lon="2.9628">
        <ele>1080.9</ele>
        <time>2026-05-07T11:00:42.000Z</time>
      </trkpt>
      <trkpt lat="43.59439" lon="2.9628">
        <ele>1080.5</ele>
        <time>2026-05-07T11:00:43.000Z</time>
      </trkpt>
      <trkpt lat="43.59439" lon="2.9628">
        <ele>1080.1</ele>
        <time>2026-05-07T11:00:44.000Z</time>
      </trkpt>
      <trkpt lat="43.59439" lon="2.96281">
        <ele>1079.8</ele>
        <time>2026-05-07T11:00:45.000Z</time>
      </trkpt>
      <trkpt lat="43.59439" lon="2.96281">
        <ele>1079.6</ele>
        <time>2026-05-07T11:00:46.000Z</time>
      </trkpt>
      <trkpt lat="43.59439" lon="2.96281">
        <ele>1079.3</ele>
        <time>2026-05-07T11:00:47.000Z</time>
      </trkpt>
      <trkpt lat="43.59439" lon="2.96281">
        <ele>1079.1</ele>
        <time>2026-05-07T11:00:48.000Z</time>
      </trkpt>
      <trkpt lat="43.59439" lon="2.96281">
        <ele>1078.9</ele>
        <time>2026-05-07T11:00:49.000Z</time>
      </trkpt>
      <trkpt lat="43.59439" lon="2.96281">
        <ele>1078.9</ele>
        <time>2026-05-07T11:00:50.000Z</time>
      </trkpt>
      <trkpt lat="43.59439" lon="2.96281">
        <ele>1078.9</ele>
        <time>2026-05-07T11:00:51.000Z</time>
      </trkpt>
      <trkpt lat="43.59439" lon="2.96281">
        <ele>1078.9</ele>
        <time>2026-05-07T11:00:52.000Z</time>
      </trkpt>
      <trkpt lat="43.59439" lon="2.96281">
        <ele>1078.8</ele>
        <time>2026-05-07T11:00:53.000Z</time>
      </trkpt>
      <trkpt lat="43.59439" lon="2.96281">
        <ele>1078.9</ele>
        <time>2026-05-07T11:00:54.000Z</time>
      </trkpt>
      <trkpt lat="43.59439" lon="2.96281">
        <ele>1078.8</ele>
        <time>2026-05-07T11:00:55.000Z</time>
      </trkpt>
      <trkpt lat="43.59439" lon="2.96281">
        <ele>1078.8</ele>
        <time>2026-05-07T11:00:56.000Z</time>
      </trkpt>
      <trkpt lat="43.59439" lon="2.96281">
        <ele>1078.8</ele>
        <time>2026-05-07T11:00:57.000Z</time>
      </trkpt>
      <trkpt lat="43.59439" lon="2.96281">
        <ele>1078.7</ele>
        <time>2026-05-07T11:00:58.000Z</time>
      </trkpt>
      <trkpt lat="43.59439" lon="2.96281">
        <ele>1078.5</ele>
        <time>2026-05-07T11:00:59.000Z</time>
      </trkpt>
      <trkpt lat="43.59439" lon="2.96281">
        <ele>1078.6</ele>
        <time>2026-05-07T11:01:00.000Z</time>
      </trkpt>
      <trkpt lat="43.59439" lon="2.96281">
        <ele>1078.6</ele>
        <time>2026-05-07T11:01:01.000Z</time>
      </trkpt>
      <trkpt lat="43.59439" lon="2.96281">
        <ele>1078.6</ele>
        <time>2026-05-07T11:01:02.000Z</time>
      </trkpt>
      <trkpt lat="43.59439" lon="2.96282">
        <ele>1078.5</ele>
        <time>2026-05-07T11:01:03.000Z</time>
      </trkpt>
      <trkpt lat="43.59439" lon="2.96282">
        <ele>1078.5</ele>
        <time>2026-05-07T11:01:04.000Z</time>
      </trkpt>
      <trkpt lat="43.59439" lon="2.96282">
        <ele>1078.5</ele>
        <time>2026-05-07T11:01:05.000Z</time>
      </trkpt>
      <trkpt lat="43.59439" lon="2.96282">
        <ele>1078.4</ele>
        <time>2026-05-07T11:01:06.000Z</time>
      </trkpt>
      <trkpt lat="43.59439" lon="2.96282">
        <ele>1078.5</ele>
        <time>2026-05-07T11:01:07.000Z</time>
      </trkpt>
      <trkpt lat="43.59439" lon="2.96282">
        <ele>1078.5</ele>
        <time>2026-05-07T11:01:08.000Z</time>
      </trkpt>
      <trkpt lat="43.59439" lon="2.96282">
        <ele>1078.3</ele>
        <time>2026-05-07T11:01:09.000Z</time>
      </trkpt>
      <trkpt lat="43.59439" lon="2.96282">
        <ele>1078.4</ele>
        <time>2026-05-07T11:01:10.000Z</time>
      </trkpt>
      <trkpt lat="43.59439" lon="2.96282">
        <ele>1078.6</ele>
        <time>2026-05-07T11:01:11.000Z</time>
      </trkpt>
      <trkpt lat="43.59439" lon="2.96282">
        <ele>1078.6</ele>
        <time>2026-05-07T11:01:12.000Z</time>
      </trkpt>
      <trkpt lat="43.5944" lon="2.96282">
        <ele>1078.6</ele>
        <time>2026-05-07T11:01:13.000Z</time>
      </trkpt>
      <trkpt lat="43.5944" lon="2.96282">
        <ele>1078.3</ele>
        <time>2026-05-07T11:01:14.000Z</time>
      </trkpt>
      <trkpt lat="43.5944" lon="2.96282">
        <ele>1078.2</ele>
        <time>2026-05-07T11:01:15.000Z</time>
      </trkpt>
      <trkpt lat="43.5944" lon="2.96282">
        <ele>1078.2</ele>
        <time>2026-05-07T11:01:16.000Z</time>
      </trkpt>
      <trkpt lat="43.5944" lon="2.96282">
        <ele>1078</ele>
        <time>2026-05-07T11:01:17.000Z</time>
      </trkpt>
      <trkpt lat="43.5944" lon="2.96282">
        <ele>1077.9</ele>
        <time>2026-05-07T11:01:18.000Z</time>
      </trkpt>
      <trkpt lat="43.5944" lon="2.96283">
        <ele>1078.1</ele>
        <time>2026-05-07T11:01:19.000Z</time>
      </trkpt>
      <trkpt lat="43.5944" lon="2.96283">
        <ele>1078.1</ele>
        <time>2026-05-07T11:01:20.000Z</time>
      </trkpt>
      <trkpt lat="43.5944" lon="2.96283">
        <ele>1078.2</ele>
        <time>2026-05-07T11:01:21.000Z</time>
      </trkpt>
      <trkpt lat="43.5944" lon="2.96283">
        <ele>1078.2</ele>
        <time>2026-05-07T11:01:22.000Z</time>
      </trkpt>
      <trkpt lat="43.5944" lon="2.96283">
        <ele>1078.2</ele>
        <time>2026-05-07T11:01:23.000Z</time>
      </trkpt>
      <trkpt lat="43.5944" lon="2.96283">
        <ele>1078.2</ele>
        <time>2026-05-07T11:01:24.000Z</time>
      </trkpt>
      <trkpt lat="43.5944" lon="2.96283">
        <ele>1078.4</ele>
        <time>2026-05-07T11:01:25.000Z</time>
      </trkpt>
      <trkpt lat="43.5944" lon="2.96283">
        <ele>1078.6</ele>
        <time>2026-05-07T11:01:26.000Z</time>
      </trkpt>
      <trkpt lat="43.5944" lon="2.96283">
        <ele>1078.6</ele>
        <time>2026-05-07T11:01:27.000Z</time>
      </trkpt>
      <trkpt lat="43.5944" lon="2.96283">
        <ele>1078.7</ele>
        <time>2026-05-07T11:01:28.000Z</time>
      </trkpt>
      <trkpt lat="43.5944" lon="2.96283">
        <ele>1078.6</ele>
        <time>2026-05-07T11:01:29.000Z</time>
      </trkpt>
      <trkpt lat="43.5944" lon="2.96283">
        <ele>1078.3</ele>
        <time>2026-05-07T11:01:30.000Z</time>
      </trkpt>
      <trkpt lat="43.5944" lon="2.96283">
        <ele>1078.1</ele>
        <time>2026-05-07T11:01:31.000Z</time>
      </trkpt>
      <trkpt lat="43.5944" lon="2.96283">
        <ele>1078.2</ele>
        <time>2026-05-07T11:01:32.000Z</time>
      </trkpt>
      <trkpt lat="43.5944" lon="2.96283">
        <ele>1078.1</ele>
        <time>2026-05-07T11:01:33.000Z</time>
      </trkpt>
      <trkpt lat="43.5944" lon="2.96283">
        <ele>1078</ele>
        <time>2026-05-07T11:01:34.000Z</time>
      </trkpt>
      <trkpt lat="43.5944" lon="2.96283">
        <ele>1078.1</ele>
        <time>2026-05-07T11:01:35.000Z</time>
      </trkpt>
      <trkpt lat="43.5944" lon="2.96283">
        <ele>1078.3</ele>
        <time>2026-05-07T11:01:36.000Z</time>
      </trkpt>
      <trkpt lat="43.5944" lon="2.96283">
        <ele>1078.5</ele>
        <time>2026-05-07T11:01:37.000Z</time>
      </trkpt>
      <trkpt lat="43.5944" lon="2.96283">
        <ele>1078.6</ele>
        <time>2026-05-07T11:01:38.000Z</time>
      </trkpt>
      <trkpt lat="43.5944" lon="2.96283">
        <ele>1078.6</ele>
        <time>2026-05-07T11:01:39.000Z</time>
      </trkpt>
      <trkpt lat="43.5944" lon="2.96283">
        <ele>1078.7</ele>
        <time>2026-05-07T11:01:40.000Z</time>
      </trkpt>
      <trkpt lat="43.5944" lon="2.96284">
        <ele>1078.9</ele>
        <time>2026-05-07T11:01:41.000Z</time>
      </trkpt>
      <trkpt lat="43.5944" lon="2.96284">
        <ele>1079</ele>
        <time>2026-05-07T11:01:42.000Z</time>
      </trkpt>
      <trkpt lat="43.5944" lon="2.96284">
        <ele>1079.3</ele>
        <time>2026-05-07T11:01:43.000Z</time>
      </trkpt>
      <trkpt lat="43.5944" lon="2.96284">
        <ele>1079.3</ele>
        <time>2026-05-07T11:01:44.000Z</time>
      </trkpt>
      <trkpt lat="43.5944" lon="2.96284">
        <ele>1079.2</ele>
        <time>2026-05-07T11:01:45.000Z</time>
      </trkpt>
      <trkpt lat="43.5944" lon="2.96284">
        <ele>1079.2</ele>
        <time>2026-05-07T11:01:46.000Z</time>
      </trkpt>
      <trkpt lat="43.5944" lon="2.96284">
        <ele>1079.3</ele>
        <time>2026-05-07T11:01:47.000Z</time>
      </trkpt>
      <trkpt lat="43.5944" lon="2.96285">
        <ele>1079.2</ele>
        <time>2026-05-07T11:01:48.000Z</time>
      </trkpt>
      <trkpt lat="43.5944" lon="2.96285">
        <ele>1079.1</ele>
        <time>2026-05-07T11:01:49.000Z</time>
      </trkpt>
      <trkpt lat="43.5944" lon="2.96285">
        <ele>1079.2</ele>
        <time>2026-05-07T11:01:50.000Z</time>
      </trkpt>
      <trkpt lat="43.5944" lon="2.96285">
        <ele>1079.3</ele>
        <time>2026-05-07T11:01:51.000Z</time>
      </trkpt>
      <trkpt lat="43.5944" lon="2.96285">
        <ele>1079.3</ele>
        <time>2026-05-07T11:01:52.000Z</time>
      </trkpt>
      <trkpt lat="43.5944" lon="2.96286">
        <ele>1079.1</ele>
        <time>2026-05-07T11:01:53.000Z</time>
      </trkpt>
      <trkpt lat="43.5944" lon="2.96286">
        <ele>1079.4</ele>
        <time>2026-05-07T11:01:54.000Z</time>
      </trkpt>
      <trkpt lat="43.5944" lon="2.96286">
        <ele>1079.5</ele>
        <time>2026-05-07T11:01:55.000Z</time>
      </trkpt>
      <trkpt lat="43.5944" lon="2.96286">
        <ele>1079.4</ele>
        <time>2026-05-07T11:01:56.000Z</time>
      </trkpt>
      <trkpt lat="43.5944" lon="2.96286">
        <ele>1079.6</ele>
        <time>2026-05-07T11:01:57.000Z</time>
      </trkpt>
      <trkpt lat="43.5944" lon="2.96286">
        <ele>1079.4</ele>
        <time>2026-05-07T11:01:58.000Z</time>
      </trkpt>
      <trkpt lat="43.5944" lon="2.96286">
        <ele>1079.4</ele>
        <time>2026-05-07T11:01:59.000Z</time>
      </trkpt>
      <trkpt lat="43.5944" lon="2.96286">
        <ele>1079.4</ele>
        <time>2026-05-07T11:02:00.000Z</time>
      </trkpt>
      <trkpt lat="43.5944" lon="2.96286">
        <ele>1079.4</ele>
        <time>2026-05-07T11:02:01.000Z</time>
      </trkpt>
      <trkpt lat="43.5944" lon="2.96286">
        <ele>1079.4</ele>
        <time>2026-05-07T11:02:02.000Z</time>
      </trkpt>
      <trkpt lat="43.59441" lon="2.96286">
        <ele>1079.3</ele>
        <time>2026-05-07T11:02:03.000Z</time>
      </trkpt>
      <trkpt lat="43.59441" lon="2.96286">
        <ele>1079.3</ele>
        <time>2026-05-07T11:02:04.000Z</time>
      </trkpt>
      <trkpt lat="43.59441" lon="2.96286">
        <ele>1079.8</ele>
        <time>2026-05-07T11:02:05.000Z</time>
      </trkpt>
      <trkpt lat="43.59441" lon="2.96286">
        <ele>1080.2</ele>
        <time>2026-05-07T11:02:06.000Z</time>
      </trkpt>
      <trkpt lat="43.59441" lon="2.96286">
        <ele>1080.6</ele>
        <time>2026-05-07T11:02:07.000Z</time>
      </trkpt>
      <trkpt lat="43.59441" lon="2.96286">
        <ele>1080.9</ele>
        <time>2026-05-07T11:02:08.000Z</time>
      </trkpt>
      <trkpt lat="43.59441" lon="2.96286">
        <ele>1081.3</ele>
        <time>2026-05-07T11:02:09.000Z</time>
      </trkpt>
      <trkpt lat="43.59441" lon="2.96286">
        <ele>1081.4</ele>
        <time>2026-05-07T11:02:10.000Z</time>
      </trkpt>
      <trkpt lat="43.59441" lon="2.96286">
        <ele>1081.5</ele>
        <time>2026-05-07T11:02:11.000Z</time>
      </trkpt>
      <trkpt lat="43.59441" lon="2.96286">
        <ele>1081.3</ele>
        <time>2026-05-07T11:02:12.000Z</time>
      </trkpt>
      <trkpt lat="43.59441" lon="2.96286">
        <ele>1081.5</ele>
        <time>2026-05-07T11:02:13.000Z</time>
      </trkpt>
      <trkpt lat="43.59441" lon="2.96286">
        <ele>1081.6</ele>
        <time>2026-05-07T11:02:14.000Z</time>
      </trkpt>
      <trkpt lat="43.59441" lon="2.96286">
        <ele>1081.8</ele>
        <time>2026-05-07T11:02:15.000Z</time>
      </trkpt>
      <trkpt lat="43.59441" lon="2.96286">
        <ele>1082.1</ele>
        <time>2026-05-07T11:02:16.000Z</time>
      </trkpt>
      <trkpt lat="43.59441" lon="2.96286">
        <ele>1082.2</ele>
        <time>2026-05-07T11:02:17.000Z</time>
      </trkpt>
      <trkpt lat="43.59441" lon="2.96286">
        <ele>1082.4</ele>
        <time>2026-05-07T11:02:18.000Z</time>
      </trkpt>
      <trkpt lat="43.59441" lon="2.96286">
        <ele>1082.4</ele>
        <time>2026-05-07T11:02:19.000Z</time>
      </trkpt>
      <trkpt lat="43.59441" lon="2.96286">
        <ele>1082.5</ele>
        <time>2026-05-07T11:02:20.000Z</time>
      </trkpt>
      <trkpt lat="43.59441" lon="2.96286">
        <ele>1082.7</ele>
        <time>2026-05-07T11:02:21.000Z</time>
      </trkpt>
      <trkpt lat="43.59441" lon="2.96286">
        <ele>1082.7</ele>
        <time>2026-05-07T11:02:22.000Z</time>
      </trkpt>
      <trkpt lat="43.59441" lon="2.96286">
        <ele>1082.9</ele>
        <time>2026-05-07T11:02:23.000Z</time>
      </trkpt>
      <trkpt lat="43.59441" lon="2.96286">
        <ele>1083</ele>
        <time>2026-05-07T11:02:24.000Z</time>
      </trkpt>
      <trkpt lat="43.59441" lon="2.96286">
        <ele>1083.2</ele>
        <time>2026-05-07T11:02:25.000Z</time>
      </trkpt>
      <trkpt lat="43.59441" lon="2.96286">
        <ele>1083.2</ele>
        <time>2026-05-07T11:02:26.000Z</time>
      </trkpt>
      <trkpt lat="43.59441" lon="2.96286">
        <ele>1083.4</ele>
        <time>2026-05-07T11:02:27.000Z</time>
      </trkpt>
      <trkpt lat="43.59441" lon="2.96286">
        <ele>1083.4</ele>
        <time>2026-05-07T11:02:28.000Z</time>
      </trkpt>
      <trkpt lat="43.59441" lon="2.96286">
        <ele>1083.3</ele>
        <time>2026-05-07T11:02:29.000Z</time>
      </trkpt>
      <trkpt lat="43.59441" lon="2.96286">
        <ele>1083.4</ele>
        <time>2026-05-07T11:02:30.000Z</time>
      </trkpt>
      <trkpt lat="43.59441" lon="2.96286">
        <ele>1083.6</ele>
        <time>2026-05-07T11:02:31.000Z</time>
      </trkpt>
      <trkpt lat="43.59441" lon="2.96286">
        <ele>1083.9</ele>
        <time>2026-05-07T11:02:32.000Z</time>
      </trkpt>
      <trkpt lat="43.59441" lon="2.96286">
        <ele>1084.1</ele>
        <time>2026-05-07T11:02:33.000Z</time>
      </trkpt>
      <trkpt lat="43.59441" lon="2.96286">
        <ele>1084.4</ele>
        <time>2026-05-07T11:02:34.000Z</time>
      </trkpt>
      <trkpt lat="43.59441" lon="2.96286">
        <ele>1084.8</ele>
        <time>2026-05-07T11:02:35.000Z</time>
      </trkpt>
      <trkpt lat="43.5944" lon="2.96286">
        <ele>1085.1</ele>
        <time>2026-05-07T11:02:36.000Z</time>
      </trkpt>
      <trkpt lat="43.5944" lon="2.96286">
        <ele>1085.3</ele>
        <time>2026-05-07T11:02:37.000Z</time>
      </trkpt>
      <trkpt lat="43.59441" lon="2.96286">
        <ele>1085.2</ele>
        <time>2026-05-07T11:02:38.000Z</time>
      </trkpt>
      <trkpt lat="43.59441" lon="2.96286">
        <ele>1085.3</ele>
        <time>2026-05-07T11:02:39.000Z</time>
      </trkpt>
      <trkpt lat="43.59441" lon="2.96287">
        <ele>1085.5</ele>
        <time>2026-05-07T11:02:40.000Z</time>
      </trkpt>
      <trkpt lat="43.59441" lon="2.96287">
        <ele>1085.9</ele>
        <time>2026-05-07T11:02:41.000Z</time>
      </trkpt>
      <trkpt lat="43.59441" lon="2.96287">
        <ele>1086.1</ele>
        <time>2026-05-07T11:02:42.000Z</time>
      </trkpt>
      <trkpt lat="43.5944" lon="2.96287">
        <ele>1086.1</ele>
        <time>2026-05-07T11:02:43.000Z</time>
      </trkpt>
      <trkpt lat="43.59441" lon="2.96287">
        <ele>1086.1</ele>
        <time>2026-05-07T11:02:44.000Z</time>
      </trkpt>
      <trkpt lat="43.59441" lon="2.96287">
        <ele>1085.9</ele>
        <time>2026-05-07T11:02:45.000Z</time>
      </trkpt>
      <trkpt lat="43.59441" lon="2.96287">
        <ele>1085.8</ele>
        <time>2026-05-07T11:02:46.000Z</time>
      </trkpt>
      <trkpt lat="43.59441" lon="2.96287">
        <ele>1085.7</ele>
        <time>2026-05-07T11:02:47.000Z</time>
      </trkpt>
      <trkpt lat="43.59441" lon="2.96287">
        <ele>1085.7</ele>
        <time>2026-05-07T11:02:48.000Z</time>
      </trkpt>
      <trkpt lat="43.59441" lon="2.96287">
        <ele>1085.7</ele>
        <time>2026-05-07T11:02:49.000Z</time>
      </trkpt>
      <trkpt lat="43.59441" lon="2.96287">
        <ele>1085.8</ele>
        <time>2026-05-07T11:02:50.000Z</time>
      </trkpt>
      <trkpt lat="43.59441" lon="2.96287">
        <ele>1085.8</ele>
        <time>2026-05-07T11:02:51.000Z</time>
      </trkpt>
      <trkpt lat="43.59441" lon="2.96287">
        <ele>1085.7</ele>
        <time>2026-05-07T11:02:52.000Z</time>
      </trkpt>
      <trkpt lat="43.59441" lon="2.96287">
        <ele>1085.6</ele>
        <time>2026-05-07T11:02:53.000Z</time>
      </trkpt>
      <trkpt lat="43.59441" lon="2.96287">
        <ele>1085.5</ele>
        <time>2026-05-07T11:02:54.000Z</time>
      </trkpt>
      <trkpt lat="43.59441" lon="2.96287">
        <ele>1085.6</ele>
        <time>2026-05-07T11:02:55.000Z</time>
      </trkpt>
      <trkpt lat="43.59441" lon="2.96287">
        <ele>1085.7</ele>
        <time>2026-05-07T11:02:56.000Z</time>
      </trkpt>
      <trkpt lat="43.59441" lon="2.96287">
        <ele>1085.7</ele>
        <time>2026-05-07T11:02:57.000Z</time>
      </trkpt>
      <trkpt lat="43.59441" lon="2.96287">
        <ele>1086</ele>
        <time>2026-05-07T11:02:58.000Z</time>
      </trkpt>
      <trkpt lat="43.59441" lon="2.96287">
        <ele>1086</ele>
        <time>2026-05-07T11:02:59.000Z</time>
      </trkpt>
      <trkpt lat="43.59441" lon="2.96287">
        <ele>1085.9</ele>
        <time>2026-05-07T11:03:00.000Z</time>
      </trkpt>
      <trkpt lat="43.59441" lon="2.96287">
        <ele>1085.8</ele>
        <time>2026-05-07T11:03:01.000Z</time>
      </trkpt>
      <trkpt lat="43.5944" lon="2.96287">
        <ele>1085.6</ele>
        <time>2026-05-07T11:03:02.000Z</time>
      </trkpt>
      <trkpt lat="43.5944" lon="2.96287">
        <ele>1085.3</ele>
        <time>2026-05-07T11:03:03.000Z</time>
      </trkpt>
      <trkpt lat="43.5944" lon="2.96287">
        <ele>1085.2</ele>
        <time>2026-05-07T11:03:04.000Z</time>
      </trkpt>
      <trkpt lat="43.5944" lon="2.96287">
        <ele>1085.1</ele>
        <time>2026-05-07T11:03:05.000Z</time>
      </trkpt>
      <trkpt lat="43.5944" lon="2.96287">
        <ele>1084.8</ele>
        <time>2026-05-07T11:03:06.000Z</time>
      </trkpt>
      <trkpt lat="43.5944" lon="2.96288">
        <ele>1084.7</ele>
        <time>2026-05-07T11:03:07.000Z</time>
      </trkpt>
      <trkpt lat="43.5944" lon="2.96288">
        <ele>1084.8</ele>
        <time>2026-05-07T11:03:08.000Z</time>
      </trkpt>
      <trkpt lat="43.5944" lon="2.96288">
        <ele>1084.7</ele>
        <time>2026-05-07T11:03:09.000Z</time>
      </trkpt>
      <trkpt lat="43.59441" lon="2.96288">
        <ele>1084.8</ele>
        <time>2026-05-07T11:03:10.000Z</time>
      </trkpt>
      <trkpt lat="43.59441" lon="2.96288">
        <ele>1084.8</ele>
        <time>2026-05-07T11:03:11.000Z</time>
      </trkpt>
      <trkpt lat="43.59441" lon="2.96288">
        <ele>1084.6</ele>
        <time>2026-05-07T11:03:12.000Z</time>
      </trkpt>
      <trkpt lat="43.59441" lon="2.96288">
        <ele>1084.5</ele>
        <time>2026-05-07T11:03:13.000Z</time>
      </trkpt>
      <trkpt lat="43.59441" lon="2.96288">
        <ele>1084.5</ele>
        <time>2026-05-07T11:03:14.000Z</time>
      </trkpt>
      <trkpt lat="43.59441" lon="2.96288">
        <ele>1084.6</ele>
        <time>2026-05-07T11:03:15.000Z</time>
      </trkpt>
      <trkpt lat="43.59441" lon="2.96288">
        <ele>1084.5</ele>
        <time>2026-05-07T11:03:16.000Z</time>
      </trkpt>
      <trkpt lat="43.59441" lon="2.96288">
        <ele>1084.4</ele>
        <time>2026-05-07T11:03:17.000Z</time>
      </trkpt>
      <trkpt lat="43.59441" lon="2.96288">
        <ele>1084.4</ele>
        <time>2026-05-07T11:03:18.000Z</time>
      </trkpt>
      <trkpt lat="43.59441" lon="2.96288">
        <ele>1084.5</ele>
        <time>2026-05-07T11:03:19.000Z</time>
      </trkpt>
      <trkpt lat="43.59441" lon="2.96288">
        <ele>1084.8</ele>
        <time>2026-05-07T11:03:20.000Z</time>
      </trkpt>
      <trkpt lat="43.59441" lon="2.96288">
        <ele>1084.8</ele>
        <time>2026-05-07T11:03:21.999Z</time>
      </trkpt>
      <trkpt lat="43.59441" lon="2.96288">
        <ele>1085.1</ele>
        <time>2026-05-07T11:03:22.999Z</time>
      </trkpt>
      <trkpt lat="43.59441" lon="2.96288">
        <ele>1085.1</ele>
        <time>2026-05-07T11:03:23.999Z</time>
      </trkpt>
      <trkpt lat="43.59441" lon="2.96288">
        <ele>1084.9</ele>
        <time>2026-05-07T11:03:24.999Z</time>
      </trkpt>
      <trkpt lat="43.59441" lon="2.96288">
        <ele>1084.9</ele>
        <time>2026-05-07T11:03:25.999Z</time>
      </trkpt>
      <trkpt lat="43.59441" lon="2.96289">
        <ele>1084.9</ele>
        <time>2026-05-07T11:03:26.999Z</time>
      </trkpt>
      <trkpt lat="43.59441" lon="2.96289">
        <ele>1085</ele>
        <time>2026-05-07T11:03:27.999Z</time>
      </trkpt>
      <trkpt lat="43.59442" lon="2.96289">
        <ele>1085.2</ele>
        <time>2026-05-07T11:03:28.999Z</time>
      </trkpt>
      <trkpt lat="43.59442" lon="2.96289">
        <ele>1085.2</ele>
        <time>2026-05-07T11:03:29.999Z</time>
      </trkpt>
      <trkpt lat="43.59442" lon="2.96289">
        <ele>1085.4</ele>
        <time>2026-05-07T11:03:30.999Z</time>
      </trkpt>
      <trkpt lat="43.59442" lon="2.9629">
        <ele>1085.6</ele>
        <time>2026-05-07T11:03:31.999Z</time>
      </trkpt>
      <trkpt lat="43.59442" lon="2.9629">
        <ele>1085.4</ele>
        <time>2026-05-07T11:03:32.999Z</time>
      </trkpt>
      <trkpt lat="43.59442" lon="2.9629">
        <ele>1085.5</ele>
        <time>2026-05-07T11:03:33.999Z</time>
      </trkpt>
      <trkpt lat="43.59442" lon="2.9629">
        <ele>1085.7</ele>
        <time>2026-05-07T11:03:34.999Z</time>
      </trkpt>
      <trkpt lat="43.59442" lon="2.9629">
        <ele>1085.7</ele>
        <time>2026-05-07T11:03:35.999Z</time>
      </trkpt>
      <trkpt lat="43.59442" lon="2.9629">
        <ele>1085.8</ele>
        <time>2026-05-07T11:03:36.999Z</time>
      </trkpt>
      <trkpt lat="43.59442" lon="2.9629">
        <ele>1086</ele>
        <time>2026-05-07T11:03:37.999Z</time>
      </trkpt>
      <trkpt lat="43.59442" lon="2.9629">
        <ele>1086.1</ele>
        <time>2026-05-07T11:03:38.999Z</time>
      </trkpt>
      <trkpt lat="43.59442" lon="2.9629">
        <ele>1086.5</ele>
        <time>2026-05-07T11:03:39.999Z</time>
      </trkpt>
      <trkpt lat="43.59442" lon="2.9629">
        <ele>1086.5</ele>
        <time>2026-05-07T11:03:40.999Z</time>
      </trkpt>
      <trkpt lat="43.59442" lon="2.9629">
        <ele>1086.5</ele>
        <time>2026-05-07T11:03:41.999Z</time>
      </trkpt>
      <trkpt lat="43.59443" lon="2.9629">
        <ele>1086.3</ele>
        <time>2026-05-07T11:03:42.999Z</time>
      </trkpt>
      <trkpt lat="43.59443" lon="2.96291">
        <ele>1086.2</ele>
        <time>2026-05-07T11:03:43.999Z</time>
      </trkpt>
      <trkpt lat="43.59443" lon="2.96291">
        <ele>1086.1</ele>
        <time>2026-05-07T11:03:44.999Z</time>
      </trkpt>
      <trkpt lat="43.59443" lon="2.96291">
        <ele>1086</ele>
        <time>2026-05-07T11:03:45.999Z</time>
      </trkpt>
      <trkpt lat="43.59443" lon="2.96291">
        <ele>1085.9</ele>
        <time>2026-05-07T11:03:46.999Z</time>
      </trkpt>
      <trkpt lat="43.59443" lon="2.96291">
        <ele>1085.7</ele>
        <time>2026-05-07T11:03:47.999Z</time>
      </trkpt>
      <trkpt lat="43.59443" lon="2.96291">
        <ele>1085.5</ele>
        <time>2026-05-07T11:03:48.999Z</time>
      </trkpt>
      <trkpt lat="43.59443" lon="2.96291">
        <ele>1085.2</ele>
        <time>2026-05-07T11:03:49.999Z</time>
      </trkpt>
      <trkpt lat="43.59443" lon="2.96291">
        <ele>1085.1</ele>
        <time>2026-05-07T11:03:50.999Z</time>
      </trkpt>
      <trkpt lat="43.59443" lon="2.96291">
        <ele>1085</ele>
        <time>2026-05-07T11:03:51.999Z</time>
      </trkpt>
      <trkpt lat="43.59443" lon="2.96291">
        <ele>1085.2</ele>
        <time>2026-05-07T11:03:52.999Z</time>
      </trkpt>
      <trkpt lat="43.59443" lon="2.96291">
        <ele>1085.1</ele>
        <time>2026-05-07T11:03:53.999Z</time>
      </trkpt>
      <trkpt lat="43.59443" lon="2.96291">
        <ele>1084.9</ele>
        <time>2026-05-07T11:03:54.999Z</time>
      </trkpt>
      <trkpt lat="43.59443" lon="2.96291">
        <ele>1085</ele>
        <time>2026-05-07T11:03:55.999Z</time>
      </trkpt>
      <trkpt lat="43.59443" lon="2.96291">
        <ele>1085.1</ele>
        <time>2026-05-07T11:03:56.999Z</time>
      </trkpt>
      <trkpt lat="43.59443" lon="2.96291">
        <ele>1085.4</ele>
        <time>2026-05-07T11:03:57.999Z</time>
      </trkpt>
      <trkpt lat="43.59443" lon="2.96291">
        <ele>1085.7</ele>
        <time>2026-05-07T11:03:58.999Z</time>
      </trkpt>
      <trkpt lat="43.59443" lon="2.96291">
        <ele>1085.9</ele>
        <time>2026-05-07T11:03:59.999Z</time>
      </trkpt>
      <trkpt lat="43.59443" lon="2.96291">
        <ele>1086</ele>
        <time>2026-05-07T11:04:00.999Z</time>
      </trkpt>
      <trkpt lat="43.59443" lon="2.96291">
        <ele>1086</ele>
        <time>2026-05-07T11:04:01.999Z</time>
      </trkpt>
      <trkpt lat="43.59443" lon="2.96291">
        <ele>1086</ele>
        <time>2026-05-07T11:04:02.999Z</time>
      </trkpt>
      <trkpt lat="43.59443" lon="2.96291">
        <ele>1086.2</ele>
        <time>2026-05-07T11:04:03.999Z</time>
      </trkpt>
      <trkpt lat="43.59443" lon="2.96291">
        <ele>1086.4</ele>
        <time>2026-05-07T11:04:04.999Z</time>
      </trkpt>
      <trkpt lat="43.59443" lon="2.96291">
        <ele>1086.4</ele>
        <time>2026-05-07T11:04:05.999Z</time>
      </trkpt>
      <trkpt lat="43.59443" lon="2.96291">
        <ele>1086.2</ele>
        <time>2026-05-07T11:04:06.999Z</time>
      </trkpt>
      <trkpt lat="43.59444" lon="2.96291">
        <ele>1086</ele>
        <time>2026-05-07T11:04:07.999Z</time>
      </trkpt>
      <trkpt lat="43.59444" lon="2.96291">
        <ele>1086</ele>
        <time>2026-05-07T11:04:08.999Z</time>
      </trkpt>
      <trkpt lat="43.59444" lon="2.96291">
        <ele>1086</ele>
        <time>2026-05-07T11:04:09.999Z</time>
      </trkpt>
      <trkpt lat="43.59444" lon="2.96291">
        <ele>1086</ele>
        <time>2026-05-07T11:04:10.999Z</time>
      </trkpt>
      <trkpt lat="43.59444" lon="2.96291">
        <ele>1086.1</ele>
        <time>2026-05-07T11:04:11.999Z</time>
      </trkpt>
      <trkpt lat="43.59444" lon="2.96291">
        <ele>1085.8</ele>
        <time>2026-05-07T11:04:12.999Z</time>
      </trkpt>
      <trkpt lat="43.59444" lon="2.96291">
        <ele>1085.8</ele>
        <time>2026-05-07T11:04:13.999Z</time>
      </trkpt>
      <trkpt lat="43.59444" lon="2.96291">
        <ele>1085.8</ele>
        <time>2026-05-07T11:04:14.999Z</time>
      </trkpt>
      <trkpt lat="43.59444" lon="2.96291">
        <ele>1085.4</ele>
        <time>2026-05-07T11:04:15.999Z</time>
      </trkpt>
      <trkpt lat="43.59444" lon="2.96292">
        <ele>1085.1</ele>
        <time>2026-05-07T11:04:16.999Z</time>
      </trkpt>
      <trkpt lat="43.59444" lon="2.96292">
        <ele>1085</ele>
        <time>2026-05-07T11:04:17.999Z</time>
      </trkpt>
      <trkpt lat="43.59444" lon="2.96292">
        <ele>1084.7</ele>
        <time>2026-05-07T11:04:18.999Z</time>
      </trkpt>
      <trkpt lat="43.59444" lon="2.96292">
        <ele>1084.3</ele>
        <time>2026-05-07T11:04:19.999Z</time>
      </trkpt>
      <trkpt lat="43.59444" lon="2.96292">
        <ele>1084.3</ele>
        <time>2026-05-07T11:04:20.999Z</time>
      </trkpt>
      <trkpt lat="43.59444" lon="2.96292">
        <ele>1084.4</ele>
        <time>2026-05-07T11:04:21.999Z</time>
      </trkpt>
      <trkpt lat="43.59444" lon="2.96292">
        <ele>1084.4</ele>
        <time>2026-05-07T11:04:22.999Z</time>
      </trkpt>
      <trkpt lat="43.59444" lon="2.96292">
        <ele>1084.4</ele>
        <time>2026-05-07T11:04:23.999Z</time>
      </trkpt>
      <trkpt lat="43.59444" lon="2.96292">
        <ele>1084.5</ele>
        <time>2026-05-07T11:04:24.999Z</time>
      </trkpt>
      <trkpt lat="43.59444" lon="2.96292">
        <ele>1084.6</ele>
        <time>2026-05-07T11:04:25.999Z</time>
      </trkpt>
      <trkpt lat="43.59444" lon="2.96292">
        <ele>1084.5</ele>
        <time>2026-05-07T11:04:26.999Z</time>
      </trkpt>
      <trkpt lat="43.59444" lon="2.96292">
        <ele>1084.2</ele>
        <time>2026-05-07T11:04:27.999Z</time>
      </trkpt>
      <trkpt lat="43.59444" lon="2.96292">
        <ele>1084.1</ele>
        <time>2026-05-07T11:04:28.999Z</time>
      </trkpt>
      <trkpt lat="43.59444" lon="2.96292">
        <ele>1083.9</ele>
        <time>2026-05-07T11:04:29.999Z</time>
      </trkpt>
      <trkpt lat="43.59444" lon="2.96292">
        <ele>1083.9</ele>
        <time>2026-05-07T11:04:30.999Z</time>
      </trkpt>
      <trkpt lat="43.59444" lon="2.96292">
        <ele>1083.7</ele>
        <time>2026-05-07T11:04:31.999Z</time>
      </trkpt>
      <trkpt lat="43.59444" lon="2.96292">
        <ele>1083.4</ele>
        <time>2026-05-07T11:04:32.999Z</time>
      </trkpt>
      <trkpt lat="43.59444" lon="2.96292">
        <ele>1083</ele>
        <time>2026-05-07T11:04:33.999Z</time>
      </trkpt>
      <trkpt lat="43.59444" lon="2.96292">
        <ele>1082.7</ele>
        <time>2026-05-07T11:04:34.999Z</time>
      </trkpt>
      <trkpt lat="43.59444" lon="2.96292">
        <ele>1082.6</ele>
        <time>2026-05-07T11:04:35.999Z</time>
      </trkpt>
      <trkpt lat="43.59444" lon="2.96292">
        <ele>1082.6</ele>
        <time>2026-05-07T11:04:36.999Z</time>
      </trkpt>
      <trkpt lat="43.59444" lon="2.96292">
        <ele>1082.5</ele>
        <time>2026-05-07T11:04:37.999Z</time>
      </trkpt>
      <trkpt lat="43.59444" lon="2.96292">
        <ele>1082.6</ele>
        <time>2026-05-07T11:04:38.999Z</time>
      </trkpt>
      <trkpt lat="43.59444" lon="2.96292">
        <ele>1083.1</ele>
        <time>2026-05-07T11:04:39.999Z</time>
      </trkpt>
      <trkpt lat="43.59444" lon="2.96292">
        <ele>1083.3</ele>
        <time>2026-05-07T11:04:40.999Z</time>
      </trkpt>
      <trkpt lat="43.59444" lon="2.96292">
        <ele>1083.5</ele>
        <time>2026-05-07T11:04:41.999Z</time>
      </trkpt>
      <trkpt lat="43.59444" lon="2.96292">
        <ele>1083.7</ele>
        <time>2026-05-07T11:04:42.999Z</time>
      </trkpt>
      <trkpt lat="43.59444" lon="2.96292">
        <ele>1083.8</ele>
        <time>2026-05-07T11:04:43.999Z</time>
      </trkpt>
      <trkpt lat="43.59444" lon="2.96292">
        <ele>1084</ele>
        <time>2026-05-07T11:04:44.999Z</time>
      </trkpt>
      <trkpt lat="43.59444" lon="2.96292">
        <ele>1084</ele>
        <time>2026-05-07T11:04:45.999Z</time>
      </trkpt>
      <trkpt lat="43.59444" lon="2.96292">
        <ele>1084.1</ele>
        <time>2026-05-07T11:04:46.999Z</time>
      </trkpt>
      <trkpt lat="43.59444" lon="2.96292">
        <ele>1084.1</ele>
        <time>2026-05-07T11:04:47.999Z</time>
      </trkpt>
      <trkpt lat="43.59445" lon="2.96293">
        <ele>1084.1</ele>
        <time>2026-05-07T11:04:48.999Z</time>
      </trkpt>
      <trkpt lat="43.59445" lon="2.96293">
        <ele>1084</ele>
        <time>2026-05-07T11:04:49.999Z</time>
      </trkpt>
      <trkpt lat="43.59445" lon="2.96293">
        <ele>1083.9</ele>
        <time>2026-05-07T11:04:50.999Z</time>
      </trkpt>
      <trkpt lat="43.59445" lon="2.96293">
        <ele>1083.9</ele>
        <time>2026-05-07T11:04:51.999Z</time>
      </trkpt>
      <trkpt lat="43.59444" lon="2.96293">
        <ele>1083.8</ele>
        <time>2026-05-07T11:04:52.999Z</time>
      </trkpt>
      <trkpt lat="43.59444" lon="2.96293">
        <ele>1083.9</ele>
        <time>2026-05-07T11:04:53.999Z</time>
      </trkpt>
      <trkpt lat="43.59444" lon="2.96293">
        <ele>1083.8</ele>
        <time>2026-05-07T11:04:54.999Z</time>
      </trkpt>
      <trkpt lat="43.59444" lon="2.96293">
        <ele>1083.6</ele>
        <time>2026-05-07T11:04:55.999Z</time>
      </trkpt>
      <trkpt lat="43.59444" lon="2.96293">
        <ele>1083.3</ele>
        <time>2026-05-07T11:04:56.999Z</time>
      </trkpt>
      <trkpt lat="43.59444" lon="2.96293">
        <ele>1083</ele>
        <time>2026-05-07T11:04:57.999Z</time>
      </trkpt>
      <trkpt lat="43.59444" lon="2.96293">
        <ele>1082.9</ele>
        <time>2026-05-07T11:04:58.999Z</time>
      </trkpt>
      <trkpt lat="43.59444" lon="2.96293">
        <ele>1082.7</ele>
        <time>2026-05-07T11:04:59.999Z</time>
      </trkpt>
      <trkpt lat="43.59444" lon="2.96293">
        <ele>1082.8</ele>
        <time>2026-05-07T11:05:00.999Z</time>
      </trkpt>
      <trkpt lat="43.59444" lon="2.96293">
        <ele>1082.7</ele>
        <time>2026-05-07T11:05:01.999Z</time>
      </trkpt>
      <trkpt lat="43.59444" lon="2.96293">
        <ele>1082.6</ele>
        <time>2026-05-07T11:05:02.999Z</time>
      </trkpt>
      <trkpt lat="43.59444" lon="2.96293">
        <ele>1082.5</ele>
        <time>2026-05-07T11:05:03.999Z</time>
      </trkpt>
      <trkpt lat="43.59444" lon="2.96293">
        <ele>1082.4</ele>
        <time>2026-05-07T11:05:04.999Z</time>
      </trkpt>
      <trkpt lat="43.59444" lon="2.96293">
        <ele>1082.4</ele>
        <time>2026-05-07T11:05:05.999Z</time>
      </trkpt>
      <trkpt lat="43.59444" lon="2.96293">
        <ele>1082.4</ele>
        <time>2026-05-07T11:05:06.999Z</time>
      </trkpt>
      <trkpt lat="43.59444" lon="2.96293">
        <ele>1082.3</ele>
        <time>2026-05-07T11:05:07.999Z</time>
      </trkpt>
      <trkpt lat="43.59444" lon="2.96293">
        <ele>1082.4</ele>
        <time>2026-05-07T11:05:08.999Z</time>
      </trkpt>
      <trkpt lat="43.59444" lon="2.96293">
        <ele>1082.2</ele>
        <time>2026-05-07T11:05:09.999Z</time>
      </trkpt>
      <trkpt lat="43.59444" lon="2.96293">
        <ele>1082.1</ele>
        <time>2026-05-07T11:05:10.999Z</time>
      </trkpt>
      <trkpt lat="43.59444" lon="2.96292">
        <ele>1082.2</ele>
        <time>2026-05-07T11:05:11.999Z</time>
      </trkpt>
      <trkpt lat="43.59444" lon="2.96292">
        <ele>1082.3</ele>
        <time>2026-05-07T11:05:12.999Z</time>
      </trkpt>
      <trkpt lat="43.59444" lon="2.96292">
        <ele>1082.7</ele>
        <time>2026-05-07T11:05:13.999Z</time>
      </trkpt>
      <trkpt lat="43.59444" lon="2.96292">
        <ele>1082.7</ele>
        <time>2026-05-07T11:05:14.999Z</time>
      </trkpt>
      <trkpt lat="43.59444" lon="2.96292">
        <ele>1082.6</ele>
        <time>2026-05-07T11:05:15.999Z</time>
      </trkpt>
      <trkpt lat="43.59444" lon="2.96292">
        <ele>1082.5</ele>
        <time>2026-05-07T11:05:16.999Z</time>
      </trkpt>
      <trkpt lat="43.59444" lon="2.96292">
        <ele>1082.2</ele>
        <time>2026-05-07T11:05:17.999Z</time>
      </trkpt>
      <trkpt lat="43.59444" lon="2.96292">
        <ele>1082.2</ele>
        <time>2026-05-07T11:05:18.999Z</time>
      </trkpt>
      <trkpt lat="43.59444" lon="2.96292">
        <ele>1082.2</ele>
        <time>2026-05-07T11:05:19.999Z</time>
      </trkpt>
      <trkpt lat="43.59444" lon="2.96292">
        <ele>1082.3</ele>
        <time>2026-05-07T11:05:20.999Z</time>
      </trkpt>
      <trkpt lat="43.59444" lon="2.96292">
        <ele>1082.4</ele>
        <time>2026-05-07T11:05:21.999Z</time>
      </trkpt>
      <trkpt lat="43.59444" lon="2.96292">
        <ele>1082.7</ele>
        <time>2026-05-07T11:05:22.999Z</time>
      </trkpt>
      <trkpt lat="43.59444" lon="2.96293">
        <ele>1083.1</ele>
        <time>2026-05-07T11:05:23.999Z</time>
      </trkpt>
      <trkpt lat="43.59444" lon="2.96293">
        <ele>1083.3</ele>
        <time>2026-05-07T11:05:24.999Z</time>
      </trkpt>
      <trkpt lat="43.59444" lon="2.96293">
        <ele>1083.1</ele>
        <time>2026-05-07T11:05:25.999Z</time>
      </trkpt>
      <trkpt lat="43.59444" lon="2.96292">
        <ele>1082.8</ele>
        <time>2026-05-07T11:05:26.999Z</time>
      </trkpt>
      <trkpt lat="43.59444" lon="2.96292">
        <ele>1082.7</ele>
        <time>2026-05-07T11:05:27.999Z</time>
      </trkpt>
      <trkpt lat="43.59444" lon="2.96292">
        <ele>1082.7</ele>
        <time>2026-05-07T11:05:28.999Z</time>
      </trkpt>
      <trkpt lat="43.59444" lon="2.96292">
        <ele>1082.8</ele>
        <time>2026-05-07T11:05:29.999Z</time>
      </trkpt>
      <trkpt lat="43.59444" lon="2.96292">
        <ele>1082.8</ele>
        <time>2026-05-07T11:05:30.999Z</time>
      </trkpt>
      <trkpt lat="43.59444" lon="2.96292">
        <ele>1082.8</ele>
        <time>2026-05-07T11:05:31.999Z</time>
      </trkpt>
      <trkpt lat="43.59444" lon="2.96292">
        <ele>1082.8</ele>
        <time>2026-05-07T11:05:32.999Z</time>
      </trkpt>
      <trkpt lat="43.59444" lon="2.96292">
        <ele>1082.8</ele>
        <time>2026-05-07T11:05:33.999Z</time>
      </trkpt>
      <trkpt lat="43.59443" lon="2.96292">
        <ele>1082.7</ele>
        <time>2026-05-07T11:05:34.999Z</time>
      </trkpt>
      <trkpt lat="43.59443" lon="2.96292">
        <ele>1082.6</ele>
        <time>2026-05-07T11:05:35.999Z</time>
      </trkpt>
      <trkpt lat="43.59443" lon="2.96292">
        <ele>1082.6</ele>
        <time>2026-05-07T11:05:36.999Z</time>
      </trkpt>
      <trkpt lat="43.59443" lon="2.96292">
        <ele>1082.7</ele>
        <time>2026-05-07T11:05:37.999Z</time>
      </trkpt>
      <trkpt lat="43.59443" lon="2.96292">
        <ele>1083</ele>
        <time>2026-05-07T11:05:38.999Z</time>
      </trkpt>
      <trkpt lat="43.59443" lon="2.96292">
        <ele>1083.2</ele>
        <time>2026-05-07T11:05:39.999Z</time>
      </trkpt>
      <trkpt lat="43.59443" lon="2.96292">
        <ele>1083.2</ele>
        <time>2026-05-07T11:05:40.999Z</time>
      </trkpt>
      <trkpt lat="43.59443" lon="2.96292">
        <ele>1083.2</ele>
        <time>2026-05-07T11:05:41.999Z</time>
      </trkpt>
      <trkpt lat="43.59443" lon="2.96292">
        <ele>1083.2</ele>
        <time>2026-05-07T11:05:42.999Z</time>
      </trkpt>
      <trkpt lat="43.59443" lon="2.96292">
        <ele>1083.2</ele>
        <time>2026-05-07T11:05:43.999Z</time>
      </trkpt>
      <trkpt lat="43.59443" lon="2.96292">
        <ele>1083.2</ele>
        <time>2026-05-07T11:05:44.999Z</time>
      </trkpt>
      <trkpt lat="43.59444" lon="2.96292">
        <ele>1083.3</ele>
        <time>2026-05-07T11:05:45.999Z</time>
      </trkpt>
      <trkpt lat="43.59444" lon="2.96292">
        <ele>1083.3</ele>
        <time>2026-05-07T11:05:46.999Z</time>
      </trkpt>
      <trkpt lat="43.59444" lon="2.96292">
        <ele>1083.4</ele>
        <time>2026-05-07T11:05:47.999Z</time>
      </trkpt>
      <trkpt lat="43.59444" lon="2.96292">
        <ele>1083.4</ele>
        <time>2026-05-07T11:05:48.999Z</time>
      </trkpt>
      <trkpt lat="43.59444" lon="2.96292">
        <ele>1083.4</ele>
        <time>2026-05-07T11:05:49.999Z</time>
      </trkpt>
      <trkpt lat="43.59444" lon="2.96292">
        <ele>1083.6</ele>
        <time>2026-05-07T11:05:50.999Z</time>
      </trkpt>
      <trkpt lat="43.59444" lon="2.96292">
        <ele>1083.7</ele>
        <time>2026-05-07T11:05:51.999Z</time>
      </trkpt>
      <trkpt lat="43.59444" lon="2.96292">
        <ele>1083.8</ele>
        <time>2026-05-07T11:05:52.999Z</time>
      </trkpt>
      <trkpt lat="43.59444" lon="2.96292">
        <ele>1083.6</ele>
        <time>2026-05-07T11:05:53.999Z</time>
      </trkpt>
      <trkpt lat="43.59444" lon="2.96292">
        <ele>1083.6</ele>
        <time>2026-05-07T11:05:54.999Z</time>
      </trkpt>
      <trkpt lat="43.59444" lon="2.96292">
        <ele>1083.6</ele>
        <time>2026-05-07T11:05:55.999Z</time>
      </trkpt>
      <trkpt lat="43.59444" lon="2.96292">
        <ele>1083.8</ele>
        <time>2026-05-07T11:05:56.999Z</time>
      </trkpt>
      <trkpt lat="43.59444" lon="2.96292">
        <ele>1083.8</ele>
        <time>2026-05-07T11:05:57.999Z</time>
      </trkpt>
      <trkpt lat="43.59444" lon="2.96292">
        <ele>1083.9</ele>
        <time>2026-05-07T11:05:58.999Z</time>
      </trkpt>
      <trkpt lat="43.59444" lon="2.96292">
        <ele>1083.9</ele>
        <time>2026-05-07T11:05:59.999Z</time>
      </trkpt>
      <trkpt lat="43.59444" lon="2.96292">
        <ele>1084</ele>
        <time>2026-05-07T11:06:00.999Z</time>
      </trkpt>
      <trkpt lat="43.59444" lon="2.96292">
        <ele>1084.1</ele>
        <time>2026-05-07T11:06:01.999Z</time>
      </trkpt>
      <trkpt lat="43.59444" lon="2.96292">
        <ele>1084.1</ele>
        <time>2026-05-07T11:06:02.999Z</time>
      </trkpt>
      <trkpt lat="43.59444" lon="2.96292">
        <ele>1084.2</ele>
        <time>2026-05-07T11:06:03.999Z</time>
      </trkpt>
      <trkpt lat="43.59444" lon="2.96292">
        <ele>1084.4</ele>
        <time>2026-05-07T11:06:04.999Z</time>
      </trkpt>
      <trkpt lat="43.59444" lon="2.96292">
        <ele>1084.3</ele>
        <time>2026-05-07T11:06:05.999Z</time>
      </trkpt>
      <trkpt lat="43.59444" lon="2.96292">
        <ele>1084</ele>
        <time>2026-05-07T11:06:06.999Z</time>
      </trkpt>
      <trkpt lat="43.59444" lon="2.96292">
        <ele>1084</ele>
        <time>2026-05-07T11:06:07.999Z</time>
      </trkpt>
      <trkpt lat="43.59444" lon="2.96292">
        <ele>1083.9</ele>
        <time>2026-05-07T11:06:08.999Z</time>
      </trkpt>
      <trkpt lat="43.59444" lon="2.96292">
        <ele>1083.7</ele>
        <time>2026-05-07T11:06:09.999Z</time>
      </trkpt>
      <trkpt lat="43.59444" lon="2.96292">
        <ele>1083.4</ele>
        <time>2026-05-07T11:06:10.999Z</time>
      </trkpt>
      <trkpt lat="43.59444" lon="2.96292">
        <ele>1083.2</ele>
        <time>2026-05-07T11:06:11.999Z</time>
      </trkpt>
      <trkpt lat="43.59444" lon="2.96292">
        <ele>1082.9</ele>
        <time>2026-05-07T11:06:12.999Z</time>
      </trkpt>
      <trkpt lat="43.59444" lon="2.96292">
        <ele>1082.7</ele>
        <time>2026-05-07T11:06:13.999Z</time>
      </trkpt>
      <trkpt lat="43.59444" lon="2.96292">
        <ele>1082.7</ele>
        <time>2026-05-07T11:06:14.999Z</time>
      </trkpt>
      <trkpt lat="43.59444" lon="2.96292">
        <ele>1082.7</ele>
        <time>2026-05-07T11:06:15.999Z</time>
      </trkpt>
      <trkpt lat="43.59444" lon="2.96292">
        <ele>1082.6</ele>
        <time>2026-05-07T11:06:16.999Z</time>
      </trkpt>
      <trkpt lat="43.59444" lon="2.96292">
        <ele>1082.6</ele>
        <time>2026-05-07T11:06:17.999Z</time>
      </trkpt>
      <trkpt lat="43.59444" lon="2.96292">
        <ele>1082.4</ele>
        <time>2026-05-07T11:06:18.999Z</time>
      </trkpt>
      <trkpt lat="43.59444" lon="2.96292">
        <ele>1082.3</ele>
        <time>2026-05-07T11:06:19.999Z</time>
      </trkpt>
      <trkpt lat="43.59444" lon="2.96292">
        <ele>1082.1</ele>
        <time>2026-05-07T11:06:20.999Z</time>
      </trkpt>
      <trkpt lat="43.59444" lon="2.96292">
        <ele>1082</ele>
        <time>2026-05-07T11:06:21.999Z</time>
      </trkpt>
      <trkpt lat="43.59444" lon="2.96292">
        <ele>1081.6</ele>
        <time>2026-05-07T11:06:22.999Z</time>
      </trkpt>
      <trkpt lat="43.59444" lon="2.96292">
        <ele>1081.3</ele>
        <time>2026-05-07T11:06:23.999Z</time>
      </trkpt>
      <trkpt lat="43.59444" lon="2.96293">
        <ele>1081.2</ele>
        <time>2026-05-07T11:06:24.999Z</time>
      </trkpt>
      <trkpt lat="43.59444" lon="2.96293">
        <ele>1081.3</ele>
        <time>2026-05-07T11:06:25.999Z</time>
      </trkpt>
      <trkpt lat="43.59444" lon="2.96293">
        <ele>1081.5</ele>
        <time>2026-05-07T11:06:26.999Z</time>
      </trkpt>
      <trkpt lat="43.59444" lon="2.96293">
        <ele>1081.6</ele>
        <time>2026-05-07T11:06:27.999Z</time>
      </trkpt>
      <trkpt lat="43.59444" lon="2.96293">
        <ele>1081.8</ele>
        <time>2026-05-07T11:06:28.999Z</time>
      </trkpt>
      <trkpt lat="43.59444" lon="2.96293">
        <ele>1082</ele>
        <time>2026-05-07T11:06:29.999Z</time>
      </trkpt>
      <trkpt lat="43.59444" lon="2.96293">
        <ele>1082.2</ele>
        <time>2026-05-07T11:06:30.999Z</time>
      </trkpt>
      <trkpt lat="43.59444" lon="2.96293">
        <ele>1082.3</ele>
        <time>2026-05-07T11:06:31.999Z</time>
      </trkpt>
      <trkpt lat="43.59444" lon="2.96293">
        <ele>1082.4</ele>
        <time>2026-05-07T11:06:32.999Z</time>
      </trkpt>
      <trkpt lat="43.59444" lon="2.96293">
        <ele>1082.7</ele>
        <time>2026-05-07T11:06:33.999Z</time>
      </trkpt>
      <trkpt lat="43.59444" lon="2.96293">
        <ele>1083</ele>
        <time>2026-05-07T11:06:34.999Z</time>
      </trkpt>
      <trkpt lat="43.59444" lon="2.96293">
        <ele>1083.4</ele>
        <time>2026-05-07T11:06:35.999Z</time>
      </trkpt>
      <trkpt lat="43.59444" lon="2.96293">
        <ele>1083.5</ele>
        <time>2026-05-07T11:06:36.999Z</time>
      </trkpt>
      <trkpt lat="43.59444" lon="2.96292">
        <ele>1083.6</ele>
        <time>2026-05-07T11:06:37.999Z</time>
      </trkpt>
      <trkpt lat="43.59444" lon="2.96292">
        <ele>1083.7</ele>
        <time>2026-05-07T11:06:38.999Z</time>
      </trkpt>
      <trkpt lat="43.59444" lon="2.96292">
        <ele>1083.7</ele>
        <time>2026-05-07T11:06:39.999Z</time>
      </trkpt>
      <trkpt lat="43.59444" lon="2.96292">
        <ele>1083.6</ele>
        <time>2026-05-07T11:06:40.999Z</time>
      </trkpt>
      <trkpt lat="43.59444" lon="2.96292">
        <ele>1083.6</ele>
        <time>2026-05-07T11:06:41.999Z</time>
      </trkpt>
      <trkpt lat="43.59444" lon="2.96292">
        <ele>1084</ele>
        <time>2026-05-07T11:06:42.999Z</time>
      </trkpt>
      <trkpt lat="43.59444" lon="2.96292">
        <ele>1084.4</ele>
        <time>2026-05-07T11:06:43.999Z</time>
      </trkpt>
      <trkpt lat="43.59444" lon="2.96292">
        <ele>1084.5</ele>
        <time>2026-05-07T11:06:44.999Z</time>
      </trkpt>
      <trkpt lat="43.59444" lon="2.96292">
        <ele>1084.7</ele>
        <time>2026-05-07T11:06:45.999Z</time>
      </trkpt>
      <trkpt lat="43.59444" lon="2.96292">
        <ele>1084.9</ele>
        <time>2026-05-07T11:06:46.999Z</time>
      </trkpt>
      <trkpt lat="43.59444" lon="2.96292">
        <ele>1085.1</ele>
        <time>2026-05-07T11:06:47.999Z</time>
      </trkpt>
      <trkpt lat="43.59444" lon="2.96292">
        <ele>1085.4</ele>
        <time>2026-05-07T11:06:48.999Z</time>
      </trkpt>
      <trkpt lat="43.59444" lon="2.96292">
        <ele>1085.7</ele>
        <time>2026-05-07T11:06:49.999Z</time>
      </trkpt>
      <trkpt lat="43.59444" lon="2.96292">
        <ele>1086</ele>
        <time>2026-05-07T11:06:50.999Z</time>
      </trkpt>
      <trkpt lat="43.59444" lon="2.96292">
        <ele>1085.7</ele>
        <time>2026-05-07T11:06:51.999Z</time>
      </trkpt>
      <trkpt lat="43.59444" lon="2.96292">
        <ele>1085.8</ele>
        <time>2026-05-07T11:06:52.999Z</time>
      </trkpt>
      <trkpt lat="43.59444" lon="2.96292">
        <ele>1085.7</ele>
        <time>2026-05-07T11:06:53.999Z</time>
      </trkpt>
      <trkpt lat="43.59444" lon="2.96292">
        <ele>1085.8</ele>
        <time>2026-05-07T11:06:54.999Z</time>
      </trkpt>
      <trkpt lat="43.59444" lon="2.96292">
        <ele>1085.9</ele>
        <time>2026-05-07T11:06:55.999Z</time>
      </trkpt>
      <trkpt lat="43.59444" lon="2.96292">
        <ele>1085.8</ele>
        <time>2026-05-07T11:06:56.999Z</time>
      </trkpt>
      <trkpt lat="43.59444" lon="2.96292">
        <ele>1085.7</ele>
        <time>2026-05-07T11:06:57.999Z</time>
      </trkpt>
      <trkpt lat="43.59444" lon="2.96292">
        <ele>1085.7</ele>
        <time>2026-05-07T11:06:58.999Z</time>
      </trkpt>
      <trkpt lat="43.59444" lon="2.96292">
        <ele>1085.8</ele>
        <time>2026-05-07T11:06:59.999Z</time>
      </trkpt>
      <trkpt lat="43.59444" lon="2.96292">
        <ele>1085.3</ele>
        <time>2026-05-07T11:07:00.999Z</time>
      </trkpt>
      <trkpt lat="43.59444" lon="2.96292">
        <ele>1084.9</ele>
        <time>2026-05-07T11:07:01.999Z</time>
      </trkpt>
      <trkpt lat="43.59444" lon="2.96292">
        <ele>1084.8</ele>
        <time>2026-05-07T11:07:02.999Z</time>
      </trkpt>
      <trkpt lat="43.59444" lon="2.96292">
        <ele>1084.8</ele>
        <time>2026-05-07T11:07:03.999Z</time>
      </trkpt>
      <trkpt lat="43.59444" lon="2.96292">
        <ele>1084.6</ele>
        <time>2026-05-07T11:07:04.999Z</time>
      </trkpt>
      <trkpt lat="43.59444" lon="2.96292">
        <ele>1084.7</ele>
        <time>2026-05-07T11:07:05.999Z</time>
      </trkpt>
      <trkpt lat="43.59444" lon="2.96292">
        <ele>1084.8</ele>
        <time>2026-05-07T11:07:06.999Z</time>
      </trkpt>
      <trkpt lat="43.59444" lon="2.96292">
        <ele>1085</ele>
        <time>2026-05-07T11:07:07.999Z</time>
      </trkpt>
      <trkpt lat="43.59444" lon="2.96292">
        <ele>1084.9</ele>
        <time>2026-05-07T11:07:08.999Z</time>
      </trkpt>
      <trkpt lat="43.59444" lon="2.96292">
        <ele>1084.9</ele>
        <time>2026-05-07T11:07:09.999Z</time>
      </trkpt>
      <trkpt lat="43.59444" lon="2.96293">
        <ele>1085.1</ele>
        <time>2026-05-07T11:07:10.999Z</time>
      </trkpt>
      <trkpt lat="43.59444" lon="2.96293">
        <ele>1085.4</ele>
        <time>2026-05-07T11:07:11.999Z</time>
      </trkpt>
      <trkpt lat="43.59444" lon="2.96293">
        <ele>1085.3</ele>
        <time>2026-05-07T11:07:12.999Z</time>
      </trkpt>
      <trkpt lat="43.59444" lon="2.96293">
        <ele>1085.4</ele>
        <time>2026-05-07T11:07:13.999Z</time>
      </trkpt>
      <trkpt lat="43.59444" lon="2.96293">
        <ele>1085.5</ele>
        <time>2026-05-07T11:07:14.999Z</time>
      </trkpt>
      <trkpt lat="43.59444" lon="2.96293">
        <ele>1085.7</ele>
        <time>2026-05-07T11:07:15.999Z</time>
      </trkpt>
      <trkpt lat="43.59444" lon="2.96293">
        <ele>1085.6</ele>
        <time>2026-05-07T11:07:16.999Z</time>
      </trkpt>
      <trkpt lat="43.59444" lon="2.96293">
        <ele>1085.6</ele>
        <time>2026-05-07T11:07:17.999Z</time>
      </trkpt>
      <trkpt lat="43.59444" lon="2.96293">
        <ele>1085.3</ele>
        <time>2026-05-07T11:07:18.999Z</time>
      </trkpt>
      <trkpt lat="43.59444" lon="2.96293">
        <ele>1085.2</ele>
        <time>2026-05-07T11:07:19.999Z</time>
      </trkpt>
      <trkpt lat="43.59444" lon="2.96293">
        <ele>1085.2</ele>
        <time>2026-05-07T11:07:20.999Z</time>
      </trkpt>
      <trkpt lat="43.59444" lon="2.96293">
        <ele>1084.8</ele>
        <time>2026-05-07T11:07:21.999Z</time>
      </trkpt>
      <trkpt lat="43.59444" lon="2.96293">
        <ele>1084.8</ele>
        <time>2026-05-07T11:07:22.999Z</time>
      </trkpt>
      <trkpt lat="43.59444" lon="2.96293">
        <ele>1084.9</ele>
        <time>2026-05-07T11:07:23.999Z</time>
      </trkpt>
      <trkpt lat="43.59444" lon="2.96293">
        <ele>1084.8</ele>
        <time>2026-05-07T11:07:24.999Z</time>
      </trkpt>
      <trkpt lat="43.59444" lon="2.96293">
        <ele>1084.7</ele>
        <time>2026-05-07T11:07:25.999Z</time>
      </trkpt>
      <trkpt lat="43.59444" lon="2.96293">
        <ele>1084.5</ele>
        <time>2026-05-07T11:07:26.999Z</time>
      </trkpt>
      <trkpt lat="43.59444" lon="2.96293">
        <ele>1084.3</ele>
        <time>2026-05-07T11:07:27.999Z</time>
      </trkpt>
      <trkpt lat="43.59444" lon="2.96293">
        <ele>1084.2</ele>
        <time>2026-05-07T11:07:28.999Z</time>
      </trkpt>
      <trkpt lat="43.59444" lon="2.96293">
        <ele>1083.9</ele>
        <time>2026-05-07T11:07:29.999Z</time>
      </trkpt>
      <trkpt lat="43.59444" lon="2.96293">
        <ele>1083.9</ele>
        <time>2026-05-07T11:07:30.999Z</time>
      </trkpt>
      <trkpt lat="43.59444" lon="2.96293">
        <ele>1084.1</ele>
        <time>2026-05-07T11:07:31.999Z</time>
      </trkpt>
      <trkpt lat="43.59444" lon="2.96293">
        <ele>1084</ele>
        <time>2026-05-07T11:07:32.999Z</time>
      </trkpt>
      <trkpt lat="43.59444" lon="2.96293">
        <ele>1084.1</ele>
        <time>2026-05-07T11:07:33.999Z</time>
      </trkpt>
      <trkpt lat="43.59444" lon="2.96293">
        <ele>1084.3</ele>
        <time>2026-05-07T11:07:34.999Z</time>
      </trkpt>
      <trkpt lat="43.59444" lon="2.96293">
        <ele>1084.1</ele>
        <time>2026-05-07T11:07:35.999Z</time>
      </trkpt>
      <trkpt lat="43.59444" lon="2.96293">
        <ele>1083.8</ele>
        <time>2026-05-07T11:07:36.999Z</time>
      </trkpt>
      <trkpt lat="43.59444" lon="2.96293">
        <ele>1083.7</ele>
        <time>2026-05-07T11:07:37.999Z</time>
      </trkpt>
      <trkpt lat="43.59444" lon="2.96293">
        <ele>1083.6</ele>
        <time>2026-05-07T11:07:38.999Z</time>
      </trkpt>
      <trkpt lat="43.59444" lon="2.96293">
        <ele>1083.4</ele>
        <time>2026-05-07T11:07:39.999Z</time>
      </trkpt>
      <trkpt lat="43.59444" lon="2.96293">
        <ele>1083.3</ele>
        <time>2026-05-07T11:07:40.999Z</time>
      </trkpt>
      <trkpt lat="43.59444" lon="2.96293">
        <ele>1083.2</ele>
        <time>2026-05-07T11:07:41.999Z</time>
      </trkpt>
      <trkpt lat="43.59444" lon="2.96293">
        <ele>1083</ele>
        <time>2026-05-07T11:07:42.999Z</time>
      </trkpt>
      <trkpt lat="43.59444" lon="2.96293">
        <ele>1082.8</ele>
        <time>2026-05-07T11:07:43.999Z</time>
      </trkpt>
      <trkpt lat="43.59444" lon="2.96293">
        <ele>1082.7</ele>
        <time>2026-05-07T11:07:44.999Z</time>
      </trkpt>
      <trkpt lat="43.59444" lon="2.96293">
        <ele>1082.5</ele>
        <time>2026-05-07T11:07:45.999Z</time>
      </trkpt>
      <trkpt lat="43.59444" lon="2.96293">
        <ele>1082.5</ele>
        <time>2026-05-07T11:07:46.999Z</time>
      </trkpt>
      <trkpt lat="43.59444" lon="2.96293">
        <ele>1082.7</ele>
        <time>2026-05-07T11:07:47.999Z</time>
      </trkpt>
      <trkpt lat="43.59444" lon="2.96293">
        <ele>1082.7</ele>
        <time>2026-05-07T11:07:48.999Z</time>
      </trkpt>
      <trkpt lat="43.59444" lon="2.96293">
        <ele>1082.5</ele>
        <time>2026-05-07T11:07:49.999Z</time>
      </trkpt>
      <trkpt lat="43.59444" lon="2.96293">
        <ele>1082.2</ele>
        <time>2026-05-07T11:07:50.999Z</time>
      </trkpt>
      <trkpt lat="43.59444" lon="2.96293">
        <ele>1082.2</ele>
        <time>2026-05-07T11:07:51.999Z</time>
      </trkpt>
      <trkpt lat="43.59444" lon="2.96293">
        <ele>1082.5</ele>
        <time>2026-05-07T11:07:52.999Z</time>
      </trkpt>
      <trkpt lat="43.59444" lon="2.96293">
        <ele>1082.4</ele>
        <time>2026-05-07T11:07:53.999Z</time>
      </trkpt>
      <trkpt lat="43.59444" lon="2.96293">
        <ele>1082.3</ele>
        <time>2026-05-07T11:07:54.999Z</time>
      </trkpt>
      <trkpt lat="43.59444" lon="2.96293">
        <ele>1082.3</ele>
        <time>2026-05-07T11:07:55.999Z</time>
      </trkpt>
      <trkpt lat="43.59444" lon="2.96293">
        <ele>1082.1</ele>
        <time>2026-05-07T11:07:56.999Z</time>
      </trkpt>
      <trkpt lat="43.59444" lon="2.96293">
        <ele>1082.1</ele>
        <time>2026-05-07T11:07:57.999Z</time>
      </trkpt>
      <trkpt lat="43.59444" lon="2.96293">
        <ele>1082.1</ele>
        <time>2026-05-07T11:07:58.999Z</time>
      </trkpt>
      <trkpt lat="43.59444" lon="2.96293">
        <ele>1082.3</ele>
        <time>2026-05-07T11:07:59.999Z</time>
      </trkpt>
      <trkpt lat="43.59444" lon="2.96293">
        <ele>1082.5</ele>
        <time>2026-05-07T11:08:00.999Z</time>
      </trkpt>
      <trkpt lat="43.59444" lon="2.96293">
        <ele>1082.6</ele>
        <time>2026-05-07T11:08:01.999Z</time>
      </trkpt>
      <trkpt lat="43.59444" lon="2.96294">
        <ele>1082.9</ele>
        <time>2026-05-07T11:08:02.999Z</time>
      </trkpt>
      <trkpt lat="43.59444" lon="2.96294">
        <ele>1083.1</ele>
        <time>2026-05-07T11:08:03.999Z</time>
      </trkpt>
      <trkpt lat="43.59444" lon="2.96294">
        <ele>1083.3</ele>
        <time>2026-05-07T11:08:04.999Z</time>
      </trkpt>
      <trkpt lat="43.59444" lon="2.96293">
        <ele>1083.3</ele>
        <time>2026-05-07T11:08:05.999Z</time>
      </trkpt>
      <trkpt lat="43.59444" lon="2.96294">
        <ele>1083.5</ele>
        <time>2026-05-07T11:08:06.999Z</time>
      </trkpt>
      <trkpt lat="43.59444" lon="2.96294">
        <ele>1083.6</ele>
        <time>2026-05-07T11:08:07.999Z</time>
      </trkpt>
      <trkpt lat="43.59444" lon="2.96294">
        <ele>1083.6</ele>
        <time>2026-05-07T11:08:08.999Z</time>
      </trkpt>
      <trkpt lat="43.59444" lon="2.96294">
        <ele>1083.2</ele>
        <time>2026-05-07T11:08:09.999Z</time>
      </trkpt>
      <trkpt lat="43.59444" lon="2.96294">
        <ele>1083.2</ele>
        <time>2026-05-07T11:08:10.999Z</time>
      </trkpt>
      <trkpt lat="43.59444" lon="2.96294">
        <ele>1083</ele>
        <time>2026-05-07T11:08:11.999Z</time>
      </trkpt>
      <trkpt lat="43.59444" lon="2.96294">
        <ele>1082.8</ele>
        <time>2026-05-07T11:08:12.999Z</time>
      </trkpt>
      <trkpt lat="43.59444" lon="2.96294">
        <ele>1082.8</ele>
        <time>2026-05-07T11:08:13.999Z</time>
      </trkpt>
      <trkpt lat="43.59444" lon="2.96294">
        <ele>1082.7</ele>
        <time>2026-05-07T11:08:14.999Z</time>
      </trkpt>
      <trkpt lat="43.59444" lon="2.96294">
        <ele>1082.8</ele>
        <time>2026-05-07T11:08:15.999Z</time>
      </trkpt>
      <trkpt lat="43.59444" lon="2.96294">
        <ele>1082.9</ele>
        <time>2026-05-07T11:08:16.999Z</time>
      </trkpt>
      <trkpt lat="43.59444" lon="2.96294">
        <ele>1083.1</ele>
        <time>2026-05-07T11:08:17.999Z</time>
      </trkpt>
      <trkpt lat="43.59444" lon="2.96294">
        <ele>1083.1</ele>
        <time>2026-05-07T11:08:18.999Z</time>
      </trkpt>
      <trkpt lat="43.59444" lon="2.96294">
        <ele>1083</ele>
        <time>2026-05-07T11:08:19.999Z</time>
      </trkpt>
      <trkpt lat="43.59444" lon="2.96294">
        <ele>1082.9</ele>
        <time>2026-05-07T11:08:20.999Z</time>
      </trkpt>
      <trkpt lat="43.59444" lon="2.96294">
        <ele>1082.7</ele>
        <time>2026-05-07T11:08:21.999Z</time>
      </trkpt>
      <trkpt lat="43.59444" lon="2.96294">
        <ele>1082.9</ele>
        <time>2026-05-07T11:08:22.999Z</time>
      </trkpt>
      <trkpt lat="43.59444" lon="2.96293">
        <ele>1082.8</ele>
        <time>2026-05-07T11:08:23.999Z</time>
      </trkpt>
      <trkpt lat="43.59444" lon="2.96293">
        <ele>1082.8</ele>
        <time>2026-05-07T11:08:24.999Z</time>
      </trkpt>
      <trkpt lat="43.59444" lon="2.96293">
        <ele>1082.7</ele>
        <time>2026-05-07T11:08:25.999Z</time>
      </trkpt>
      <trkpt lat="43.59444" lon="2.96293">
        <ele>1082.6</ele>
        <time>2026-05-07T11:08:26.999Z</time>
      </trkpt>
      <trkpt lat="43.59444" lon="2.96293">
        <ele>1082.8</ele>
        <time>2026-05-07T11:08:27.999Z</time>
      </trkpt>
      <trkpt lat="43.59444" lon="2.96293">
        <ele>1083</ele>
        <time>2026-05-07T11:08:28.999Z</time>
      </trkpt>
      <trkpt lat="43.59444" lon="2.96293">
        <ele>1083.1</ele>
        <time>2026-05-07T11:08:29.999Z</time>
      </trkpt>
      <trkpt lat="43.59444" lon="2.96293">
        <ele>1083.5</ele>
        <time>2026-05-07T11:08:30.999Z</time>
      </trkpt>
      <trkpt lat="43.59444" lon="2.96293">
        <ele>1083.6</ele>
        <time>2026-05-07T11:08:31.999Z</time>
      </trkpt>
      <trkpt lat="43.59444" lon="2.96293">
        <ele>1083.8</ele>
        <time>2026-05-07T11:08:32.999Z</time>
      </trkpt>
      <trkpt lat="43.59444" lon="2.96293">
        <ele>1083.8</ele>
        <time>2026-05-07T11:08:33.999Z</time>
      </trkpt>
      <trkpt lat="43.59444" lon="2.96293">
        <ele>1083.6</ele>
        <time>2026-05-07T11:08:34.999Z</time>
      </trkpt>
      <trkpt lat="43.59444" lon="2.96293">
        <ele>1083.7</ele>
        <time>2026-05-07T11:08:35.999Z</time>
      </trkpt>
      <trkpt lat="43.59444" lon="2.96293">
        <ele>1083.4</ele>
        <time>2026-05-07T11:08:36.999Z</time>
      </trkpt>
      <trkpt lat="43.59444" lon="2.96293">
        <ele>1083.3</ele>
        <time>2026-05-07T11:08:37.999Z</time>
      </trkpt>
      <trkpt lat="43.59444" lon="2.96293">
        <ele>1083</ele>
        <time>2026-05-07T11:08:38.999Z</time>
      </trkpt>
      <trkpt lat="43.59444" lon="2.96293">
        <ele>1082.9</ele>
        <time>2026-05-07T11:08:39.999Z</time>
      </trkpt>
      <trkpt lat="43.59444" lon="2.96293">
        <ele>1082.9</ele>
        <time>2026-05-07T11:08:40.999Z</time>
      </trkpt>
      <trkpt lat="43.59444" lon="2.96293">
        <ele>1083</ele>
        <time>2026-05-07T11:08:41.999Z</time>
      </trkpt>
      <trkpt lat="43.59444" lon="2.96293">
        <ele>1083</ele>
        <time>2026-05-07T11:08:42.999Z</time>
      </trkpt>
      <trkpt lat="43.59444" lon="2.96294">
        <ele>1083</ele>
        <time>2026-05-07T11:08:43.999Z</time>
      </trkpt>
      <trkpt lat="43.59444" lon="2.96294">
        <ele>1083.1</ele>
        <time>2026-05-07T11:08:44.999Z</time>
      </trkpt>
      <trkpt lat="43.59444" lon="2.96294">
        <ele>1083.2</ele>
        <time>2026-05-07T11:08:45.999Z</time>
      </trkpt>
      <trkpt lat="43.59444" lon="2.96294">
        <ele>1083.2</ele>
        <time>2026-05-07T11:08:46.999Z</time>
      </trkpt>
      <trkpt lat="43.59444" lon="2.96294">
        <ele>1083.2</ele>
        <time>2026-05-07T11:08:47.999Z</time>
      </trkpt>
      <trkpt lat="43.59444" lon="2.96294">
        <ele>1083.5</ele>
        <time>2026-05-07T11:08:48.999Z</time>
      </trkpt>
      <trkpt lat="43.59444" lon="2.96294">
        <ele>1083.5</ele>
        <time>2026-05-07T11:08:49.999Z</time>
      </trkpt>
      <trkpt lat="43.59444" lon="2.96294">
        <ele>1083.6</ele>
        <time>2026-05-07T11:08:50.999Z</time>
      </trkpt>
      <trkpt lat="43.59444" lon="2.96294">
        <ele>1083.8</ele>
        <time>2026-05-07T11:08:51.999Z</time>
      </trkpt>
      <trkpt lat="43.59444" lon="2.96294">
        <ele>1084</ele>
        <time>2026-05-07T11:08:52.999Z</time>
      </trkpt>
      <trkpt lat="43.59444" lon="2.96294">
        <ele>1084.4</ele>
        <time>2026-05-07T11:08:53.999Z</time>
      </trkpt>
      <trkpt lat="43.59444" lon="2.96294">
        <ele>1084.6</ele>
        <time>2026-05-07T11:08:54.999Z</time>
      </trkpt>
      <trkpt lat="43.59444" lon="2.96293">
        <ele>1084.8</ele>
        <time>2026-05-07T11:08:55.999Z</time>
      </trkpt>
      <trkpt lat="43.59444" lon="2.96293">
        <ele>1084.8</ele>
        <time>2026-05-07T11:08:56.999Z</time>
      </trkpt>
      <trkpt lat="43.59444" lon="2.96293">
        <ele>1084.7</ele>
        <time>2026-05-07T11:08:57.999Z</time>
      </trkpt>
      <trkpt lat="43.59444" lon="2.96293">
        <ele>1084.6</ele>
        <time>2026-05-07T11:08:58.999Z</time>
      </trkpt>
      <trkpt lat="43.59444" lon="2.96293">
        <ele>1084.6</ele>
        <time>2026-05-07T11:08:59.999Z</time>
      </trkpt>
      <trkpt lat="43.59444" lon="2.96293">
        <ele>1084.7</ele>
        <time>2026-05-07T11:09:00.999Z</time>
      </trkpt>
      <trkpt lat="43.59444" lon="2.96293">
        <ele>1084.8</ele>
        <time>2026-05-07T11:09:01.999Z</time>
      </trkpt>
      <trkpt lat="43.59444" lon="2.96293">
        <ele>1085</ele>
        <time>2026-05-07T11:09:02.999Z</time>
      </trkpt>
      <trkpt lat="43.59444" lon="2.96293">
        <ele>1085.2</ele>
        <time>2026-05-07T11:09:03.999Z</time>
      </trkpt>
      <trkpt lat="43.59444" lon="2.96293">
        <ele>1085.1</ele>
        <time>2026-05-07T11:09:04.999Z</time>
      </trkpt>
      <trkpt lat="43.59444" lon="2.96293">
        <ele>1085</ele>
        <time>2026-05-07T11:09:05.999Z</time>
      </trkpt>
      <trkpt lat="43.59444" lon="2.96293">
        <ele>1084.9</ele>
        <time>2026-05-07T11:09:06.999Z</time>
      </trkpt>
      <trkpt lat="43.59444" lon="2.96293">
        <ele>1085.1</ele>
        <time>2026-05-07T11:09:07.999Z</time>
      </trkpt>
      <trkpt lat="43.59444" lon="2.96293">
        <ele>1085.3</ele>
        <time>2026-05-07T11:09:08.999Z</time>
      </trkpt>
      <trkpt lat="43.59444" lon="2.96293">
        <ele>1085.3</ele>
        <time>2026-05-07T11:09:09.999Z</time>
      </trkpt>
      <trkpt lat="43.59444" lon="2.96293">
        <ele>1085.3</ele>
        <time>2026-05-07T11:09:10.999Z</time>
      </trkpt>
      <trkpt lat="43.59444" lon="2.96293">
        <ele>1085.1</ele>
        <time>2026-05-07T11:09:11.999Z</time>
      </trkpt>
      <trkpt lat="43.59444" lon="2.96293">
        <ele>1084.9</ele>
        <time>2026-05-07T11:09:12.999Z</time>
      </trkpt>
      <trkpt lat="43.59444" lon="2.96293">
        <ele>1084.7</ele>
        <time>2026-05-07T11:09:13.999Z</time>
      </trkpt>
      <trkpt lat="43.59444" lon="2.96293">
        <ele>1084.4</ele>
        <time>2026-05-07T11:09:14.999Z</time>
      </trkpt>
      <trkpt lat="43.59444" lon="2.96293">
        <ele>1084.1</ele>
        <time>2026-05-07T11:09:15.999Z</time>
      </trkpt>
      <trkpt lat="43.59444" lon="2.96293">
        <ele>1083.9</ele>
        <time>2026-05-07T11:09:16.999Z</time>
      </trkpt>
      <trkpt lat="43.59444" lon="2.96293">
        <ele>1083.7</ele>
        <time>2026-05-07T11:09:17.999Z</time>
      </trkpt>
      <trkpt lat="43.59444" lon="2.96293">
        <ele>1083.8</ele>
        <time>2026-05-07T11:09:18.999Z</time>
      </trkpt>
      <trkpt lat="43.59444" lon="2.96293">
        <ele>1083.8</ele>
        <time>2026-05-07T11:09:19.999Z</time>
      </trkpt>
      <trkpt lat="43.59444" lon="2.96293">
        <ele>1083.8</ele>
        <time>2026-05-07T11:09:20.999Z</time>
      </trkpt>
      <trkpt lat="43.59444" lon="2.96293">
        <ele>1083.8</ele>
        <time>2026-05-07T11:09:21.999Z</time>
      </trkpt>
      <trkpt lat="43.59444" lon="2.96293">
        <ele>1083.8</ele>
        <time>2026-05-07T11:09:22.999Z</time>
      </trkpt>
      <trkpt lat="43.59444" lon="2.96293">
        <ele>1084</ele>
        <time>2026-05-07T11:09:23.999Z</time>
      </trkpt>
      <trkpt lat="43.59444" lon="2.96293">
        <ele>1084.1</ele>
        <time>2026-05-07T11:09:24.999Z</time>
      </trkpt>
      <trkpt lat="43.59444" lon="2.96293">
        <ele>1084.2</ele>
        <time>2026-05-07T11:09:25.999Z</time>
      </trkpt>
      <trkpt lat="43.59444" lon="2.96293">
        <ele>1084.2</ele>
        <time>2026-05-07T11:09:26.999Z</time>
      </trkpt>
      <trkpt lat="43.59444" lon="2.96293">
        <ele>1084.2</ele>
        <time>2026-05-07T11:09:27.999Z</time>
      </trkpt>
      <trkpt lat="43.59444" lon="2.96293">
        <ele>1084.2</ele>
        <time>2026-05-07T11:09:28.999Z</time>
      </trkpt>
      <trkpt lat="43.59444" lon="2.96293">
        <ele>1084.1</ele>
        <time>2026-05-07T11:09:29.999Z</time>
      </trkpt>
      <trkpt lat="43.59444" lon="2.96293">
        <ele>1084.1</ele>
        <time>2026-05-07T11:09:30.999Z</time>
      </trkpt>
      <trkpt lat="43.59444" lon="2.96293">
        <ele>1084.1</ele>
        <time>2026-05-07T11:09:31.999Z</time>
      </trkpt>
      <trkpt lat="43.59444" lon="2.96293">
        <ele>1084</ele>
        <time>2026-05-07T11:09:32.999Z</time>
      </trkpt>
      <trkpt lat="43.59444" lon="2.96293">
        <ele>1083.9</ele>
        <time>2026-05-07T11:09:33.999Z</time>
      </trkpt>
      <trkpt lat="43.59444" lon="2.96293">
        <ele>1083.9</ele>
        <time>2026-05-07T11:09:34.999Z</time>
      </trkpt>
      <trkpt lat="43.59444" lon="2.96293">
        <ele>1084</ele>
        <time>2026-05-07T11:09:35.999Z</time>
      </trkpt>
      <trkpt lat="43.59444" lon="2.96293">
        <ele>1084.3</ele>
        <time>2026-05-07T11:09:36.999Z</time>
      </trkpt>
      <trkpt lat="43.59444" lon="2.96293">
        <ele>1084.4</ele>
        <time>2026-05-07T11:09:37.999Z</time>
      </trkpt>
      <trkpt lat="43.59444" lon="2.96293">
        <ele>1084.3</ele>
        <time>2026-05-07T11:09:38.999Z</time>
      </trkpt>
      <trkpt lat="43.59444" lon="2.96293">
        <ele>1084.4</ele>
        <time>2026-05-07T11:09:39.999Z</time>
      </trkpt>
      <trkpt lat="43.59444" lon="2.96293">
        <ele>1084.3</ele>
        <time>2026-05-07T11:09:40.999Z</time>
      </trkpt>
      <trkpt lat="43.59444" lon="2.96293">
        <ele>1084.2</ele>
        <time>2026-05-07T11:09:41.999Z</time>
      </trkpt>
      <trkpt lat="43.59444" lon="2.96293">
        <ele>1083.9</ele>
        <time>2026-05-07T11:09:42.999Z</time>
      </trkpt>
      <trkpt lat="43.59444" lon="2.96293">
        <ele>1083.8</ele>
        <time>2026-05-07T11:09:43.999Z</time>
      </trkpt>
      <trkpt lat="43.59444" lon="2.96293">
        <ele>1083.8</ele>
        <time>2026-05-07T11:09:44.999Z</time>
      </trkpt>
      <trkpt lat="43.59444" lon="2.96293">
        <ele>1083.6</ele>
        <time>2026-05-07T11:09:45.999Z</time>
      </trkpt>
      <trkpt lat="43.59444" lon="2.96293">
        <ele>1083.5</ele>
        <time>2026-05-07T11:09:46.999Z</time>
      </trkpt>
      <trkpt lat="43.59444" lon="2.96293">
        <ele>1083.5</ele>
        <time>2026-05-07T11:09:47.999Z</time>
      </trkpt>
      <trkpt lat="43.59444" lon="2.96293">
        <ele>1083.4</ele>
        <time>2026-05-07T11:09:48.999Z</time>
      </trkpt>
      <trkpt lat="43.59444" lon="2.96293">
        <ele>1083.7</ele>
        <time>2026-05-07T11:09:49.999Z</time>
      </trkpt>
      <trkpt lat="43.59444" lon="2.96293">
        <ele>1083.8</ele>
        <time>2026-05-07T11:09:50.999Z</time>
      </trkpt>
      <trkpt lat="43.59444" lon="2.96293">
        <ele>1084</ele>
        <time>2026-05-07T11:09:51.999Z</time>
      </trkpt>
      <trkpt lat="43.59444" lon="2.96293">
        <ele>1084</ele>
        <time>2026-05-07T11:09:52.999Z</time>
      </trkpt>
      <trkpt lat="43.59444" lon="2.96293">
        <ele>1083.8</ele>
        <time>2026-05-07T11:09:53.999Z</time>
      </trkpt>
      <trkpt lat="43.59444" lon="2.96293">
        <ele>1083.8</ele>
        <time>2026-05-07T11:09:54.999Z</time>
      </trkpt>
      <trkpt lat="43.59444" lon="2.96293">
        <ele>1083.8</ele>
        <time>2026-05-07T11:09:55.999Z</time>
      </trkpt>
      <trkpt lat="43.59444" lon="2.96293">
        <ele>1083.8</ele>
        <time>2026-05-07T11:09:56.999Z</time>
      </trkpt>
      <trkpt lat="43.59444" lon="2.96293">
        <ele>1084</ele>
        <time>2026-05-07T11:09:57.999Z</time>
      </trkpt>
      <trkpt lat="43.59444" lon="2.96293">
        <ele>1084</ele>
        <time>2026-05-07T11:09:58.999Z</time>
      </trkpt>
      <trkpt lat="43.59444" lon="2.96293">
        <ele>1084</ele>
        <time>2026-05-07T11:09:59.999Z</time>
      </trkpt>
      <trkpt lat="43.59444" lon="2.96293">
        <ele>1084</ele>
        <time>2026-05-07T11:10:00.999Z</time>
      </trkpt>
      <trkpt lat="43.59444" lon="2.96293">
        <ele>1084</ele>
        <time>2026-05-07T11:10:01.999Z</time>
      </trkpt>
      <trkpt lat="43.59444" lon="2.96293">
        <ele>1084.1</ele>
        <time>2026-05-07T11:10:02.999Z</time>
      </trkpt>
      <trkpt lat="43.59444" lon="2.96293">
        <ele>1084</ele>
        <time>2026-05-07T11:10:03.999Z</time>
      </trkpt>
      <trkpt lat="43.59444" lon="2.96293">
        <ele>1084.1</ele>
        <time>2026-05-07T11:10:04.999Z</time>
      </trkpt>
      <trkpt lat="43.59444" lon="2.96293">
        <ele>1084</ele>
        <time>2026-05-07T11:10:05.999Z</time>
      </trkpt>
      <trkpt lat="43.59444" lon="2.96293">
        <ele>1083.9</ele>
        <time>2026-05-07T11:10:06.999Z</time>
      </trkpt>
      <trkpt lat="43.59444" lon="2.96293">
        <ele>1083.9</ele>
        <time>2026-05-07T11:10:07.999Z</time>
      </trkpt>
      <trkpt lat="43.59444" lon="2.96293">
        <ele>1083.7</ele>
        <time>2026-05-07T11:10:08.999Z</time>
      </trkpt>
      <trkpt lat="43.59444" lon="2.96293">
        <ele>1083.7</ele>
        <time>2026-05-07T11:10:09.999Z</time>
      </trkpt>
      <trkpt lat="43.59444" lon="2.96293">
        <ele>1083.6</ele>
        <time>2026-05-07T11:10:10.999Z</time>
      </trkpt>
      <trkpt lat="43.59444" lon="2.96293">
        <ele>1083.5</ele>
        <time>2026-05-07T11:10:11.999Z</time>
      </trkpt>
      <trkpt lat="43.59444" lon="2.96293">
        <ele>1083.4</ele>
        <time>2026-05-07T11:10:12.999Z</time>
      </trkpt>
      <trkpt lat="43.59444" lon="2.96293">
        <ele>1083.4</ele>
        <time>2026-05-07T11:10:13.999Z</time>
      </trkpt>
      <trkpt lat="43.59444" lon="2.96293">
        <ele>1083.4</ele>
        <time>2026-05-07T11:10:14.999Z</time>
      </trkpt>
      <trkpt lat="43.59444" lon="2.96293">
        <ele>1083.3</ele>
        <time>2026-05-07T11:10:15.999Z</time>
      </trkpt>
      <trkpt lat="43.59444" lon="2.96293">
        <ele>1083.4</ele>
        <time>2026-05-07T11:10:16.999Z</time>
      </trkpt>
      <trkpt lat="43.59444" lon="2.96294">
        <ele>1083.6</ele>
        <time>2026-05-07T11:10:17.999Z</time>
      </trkpt>
      <trkpt lat="43.59444" lon="2.96294">
        <ele>1083.6</ele>
        <time>2026-05-07T11:10:18.999Z</time>
      </trkpt>
      <trkpt lat="43.59444" lon="2.96294">
        <ele>1083.8</ele>
        <time>2026-05-07T11:10:19.999Z</time>
      </trkpt>
      <trkpt lat="43.59444" lon="2.96294">
        <ele>1083.9</ele>
        <time>2026-05-07T11:10:20.999Z</time>
      </trkpt>
      <trkpt lat="43.59444" lon="2.96294">
        <ele>1083.8</ele>
        <time>2026-05-07T11:10:21.999Z</time>
      </trkpt>
      <trkpt lat="43.59444" lon="2.96294">
        <ele>1083.8</ele>
        <time>2026-05-07T11:10:22.999Z</time>
      </trkpt>
      <trkpt lat="43.59444" lon="2.96294">
        <ele>1084</ele>
        <time>2026-05-07T11:10:23.999Z</time>
      </trkpt>
      <trkpt lat="43.59444" lon="2.96294">
        <ele>1084</ele>
        <time>2026-05-07T11:10:24.999Z</time>
      </trkpt>
      <trkpt lat="43.59444" lon="2.96294">
        <ele>1084.2</ele>
        <time>2026-05-07T11:10:25.999Z</time>
      </trkpt>
      <trkpt lat="43.59444" lon="2.96294">
        <ele>1084.3</ele>
        <time>2026-05-07T11:10:26.999Z</time>
      </trkpt>
      <trkpt lat="43.59444" lon="2.96294">
        <ele>1084.5</ele>
        <time>2026-05-07T11:10:27.999Z</time>
      </trkpt>
      <trkpt lat="43.59444" lon="2.96294">
        <ele>1084.7</ele>
        <time>2026-05-07T11:10:28.999Z</time>
      </trkpt>
      <trkpt lat="43.59444" lon="2.96294">
        <ele>1084.8</ele>
        <time>2026-05-07T11:10:29.999Z</time>
      </trkpt>
      <trkpt lat="43.59444" lon="2.96294">
        <ele>1084.9</ele>
        <time>2026-05-07T11:10:30.999Z</time>
      </trkpt>
      <trkpt lat="43.59444" lon="2.96294">
        <ele>1085.1</ele>
        <time>2026-05-07T11:10:31.999Z</time>
      </trkpt>
      <trkpt lat="43.59444" lon="2.96294">
        <ele>1085.1</ele>
        <time>2026-05-07T11:10:32.999Z</time>
      </trkpt>
      <trkpt lat="43.59444" lon="2.96294">
        <ele>1085.3</ele>
        <time>2026-05-07T11:10:33.999Z</time>
      </trkpt>
      <trkpt lat="43.59444" lon="2.96293">
        <ele>1085.7</ele>
        <time>2026-05-07T11:10:34.999Z</time>
      </trkpt>
      <trkpt lat="43.59444" lon="2.96293">
        <ele>1085.9</ele>
        <time>2026-05-07T11:10:35.999Z</time>
      </trkpt>
      <trkpt lat="43.59444" lon="2.96293">
        <ele>1086.1</ele>
        <time>2026-05-07T11:10:36.999Z</time>
      </trkpt>
      <trkpt lat="43.59444" lon="2.96293">
        <ele>1086.2</ele>
        <time>2026-05-07T11:10:37.999Z</time>
      </trkpt>
      <trkpt lat="43.59444" lon="2.96293">
        <ele>1086.3</ele>
        <time>2026-05-07T11:10:38.999Z</time>
      </trkpt>
      <trkpt lat="43.59444" lon="2.96293">
        <ele>1086.3</ele>
        <time>2026-05-07T11:10:39.999Z</time>
      </trkpt>
      <trkpt lat="43.59443" lon="2.96293">
        <ele>1086.4</ele>
        <time>2026-05-07T11:10:40.999Z</time>
      </trkpt>
      <trkpt lat="43.59443" lon="2.96293">
        <ele>1086.1</ele>
        <time>2026-05-07T11:10:41.999Z</time>
      </trkpt>
      <trkpt lat="43.59443" lon="2.96293">
        <ele>1086</ele>
        <time>2026-05-07T11:10:42.999Z</time>
      </trkpt>
      <trkpt lat="43.59443" lon="2.96293">
        <ele>1085.9</ele>
        <time>2026-05-07T11:10:43.999Z</time>
      </trkpt>
      <trkpt lat="43.59443" lon="2.96293">
        <ele>1085.9</ele>
        <time>2026-05-07T11:10:44.999Z</time>
      </trkpt>
      <trkpt lat="43.59443" lon="2.96293">
        <ele>1085.9</ele>
        <time>2026-05-07T11:10:45.999Z</time>
      </trkpt>
      <trkpt lat="43.59443" lon="2.96293">
        <ele>1085.9</ele>
        <time>2026-05-07T11:10:46.999Z</time>
      </trkpt>
      <trkpt lat="43.59443" lon="2.96293">
        <ele>1085.9</ele>
        <time>2026-05-07T11:10:47.999Z</time>
      </trkpt>
      <trkpt lat="43.59443" lon="2.96293">
        <ele>1086</ele>
        <time>2026-05-07T11:10:48.999Z</time>
      </trkpt>
      <trkpt lat="43.59444" lon="2.96293">
        <ele>1085.9</ele>
        <time>2026-05-07T11:10:49.999Z</time>
      </trkpt>
      <trkpt lat="43.59444" lon="2.96293">
        <ele>1085.6</ele>
        <time>2026-05-07T11:10:50.999Z</time>
      </trkpt>
      <trkpt lat="43.59444" lon="2.96293">
        <ele>1085.5</ele>
        <time>2026-05-07T11:10:51.999Z</time>
      </trkpt>
      <trkpt lat="43.59444" lon="2.96293">
        <ele>1085.5</ele>
        <time>2026-05-07T11:10:52.999Z</time>
      </trkpt>
      <trkpt lat="43.59444" lon="2.96293">
        <ele>1085.6</ele>
        <time>2026-05-07T11:10:53.999Z</time>
      </trkpt>
      <trkpt lat="43.59444" lon="2.96293">
        <ele>1085.6</ele>
        <time>2026-05-07T11:10:54.999Z</time>
      </trkpt>
      <trkpt lat="43.59444" lon="2.96293">
        <ele>1085.4</ele>
        <time>2026-05-07T11:10:55.999Z</time>
      </trkpt>
      <trkpt lat="43.59444" lon="2.96293">
        <ele>1085.3</ele>
        <time>2026-05-07T11:10:56.999Z</time>
      </trkpt>
      <trkpt lat="43.59444" lon="2.96293">
        <ele>1085.1</ele>
        <time>2026-05-07T11:10:57.999Z</time>
      </trkpt>
      <trkpt lat="43.59444" lon="2.96293">
        <ele>1084.9</ele>
        <time>2026-05-07T11:10:58.999Z</time>
      </trkpt>
      <trkpt lat="43.59444" lon="2.96293">
        <ele>1084.9</ele>
        <time>2026-05-07T11:10:59.999Z</time>
      </trkpt>
      <trkpt lat="43.59444" lon="2.96293">
        <ele>1084.8</ele>
        <time>2026-05-07T11:11:00.999Z</time>
      </trkpt>
      <trkpt lat="43.59444" lon="2.96293">
        <ele>1084.7</ele>
        <time>2026-05-07T11:11:01.999Z</time>
      </trkpt>
      <trkpt lat="43.59444" lon="2.96293">
        <ele>1084.6</ele>
        <time>2026-05-07T11:11:02.999Z</time>
      </trkpt>
      <trkpt lat="43.59444" lon="2.96293">
        <ele>1084.6</ele>
        <time>2026-05-07T11:11:03.999Z</time>
      </trkpt>
      <trkpt lat="43.59444" lon="2.96293">
        <ele>1084.6</ele>
        <time>2026-05-07T11:11:04.999Z</time>
      </trkpt>
      <trkpt lat="43.59444" lon="2.96293">
        <ele>1084.4</ele>
        <time>2026-05-07T11:11:05.999Z</time>
      </trkpt>
      <trkpt lat="43.59444" lon="2.96293">
        <ele>1084.3</ele>
        <time>2026-05-07T11:11:06.999Z</time>
      </trkpt>
      <trkpt lat="43.59444" lon="2.96293">
        <ele>1084.2</ele>
        <time>2026-05-07T11:11:07.999Z</time>
      </trkpt>
      <trkpt lat="43.59444" lon="2.96293">
        <ele>1084.2</ele>
        <time>2026-05-07T11:11:08.999Z</time>
      </trkpt>
      <trkpt lat="43.59444" lon="2.96293">
        <ele>1084</ele>
        <time>2026-05-07T11:11:09.999Z</time>
      </trkpt>
      <trkpt lat="43.59444" lon="2.96293">
        <ele>1083.7</ele>
        <time>2026-05-07T11:11:10.999Z</time>
      </trkpt>
      <trkpt lat="43.59444" lon="2.96293">
        <ele>1083.8</ele>
        <time>2026-05-07T11:11:11.999Z</time>
      </trkpt>
      <trkpt lat="43.59444" lon="2.96293">
        <ele>1083.4</ele>
        <time>2026-05-07T11:11:12.999Z</time>
      </trkpt>
      <trkpt lat="43.59444" lon="2.96293">
        <ele>1083.1</ele>
        <time>2026-05-07T11:11:13.999Z</time>
      </trkpt>
      <trkpt lat="43.59444" lon="2.96293">
        <ele>1082.7</ele>
        <time>2026-05-07T11:11:14.999Z</time>
      </trkpt>
      <trkpt lat="43.59444" lon="2.96293">
        <ele>1082.6</ele>
        <time>2026-05-07T11:11:15.999Z</time>
      </trkpt>
      <trkpt lat="43.59444" lon="2.96294">
        <ele>1082.5</ele>
        <time>2026-05-07T11:11:16.999Z</time>
      </trkpt>
      <trkpt lat="43.59444" lon="2.96294">
        <ele>1082.3</ele>
        <time>2026-05-07T11:11:17.999Z</time>
      </trkpt>
      <trkpt lat="43.59444" lon="2.96293">
        <ele>1082.3</ele>
        <time>2026-05-07T11:11:18.999Z</time>
      </trkpt>
      <trkpt lat="43.59444" lon="2.96293">
        <ele>1082.3</ele>
        <time>2026-05-07T11:11:19.999Z</time>
      </trkpt>
      <trkpt lat="43.59444" lon="2.96293">
        <ele>1082.4</ele>
        <time>2026-05-07T11:11:20.999Z</time>
      </trkpt>
      <trkpt lat="43.59444" lon="2.96293">
        <ele>1082.3</ele>
        <time>2026-05-07T11:11:21.999Z</time>
      </trkpt>
      <trkpt lat="43.59444" lon="2.96293">
        <ele>1082.2</ele>
        <time>2026-05-07T11:11:22.999Z</time>
      </trkpt>
      <trkpt lat="43.59444" lon="2.96293">
        <ele>1082.1</ele>
        <time>2026-05-07T11:11:23.999Z</time>
      </trkpt>
      <trkpt lat="43.59444" lon="2.96294">
        <ele>1081.6</ele>
        <time>2026-05-07T11:11:24.999Z</time>
      </trkpt>
      <trkpt lat="43.59444" lon="2.96293">
        <ele>1081.3</ele>
        <time>2026-05-07T11:11:25.999Z</time>
      </trkpt>
      <trkpt lat="43.59444" lon="2.96293">
        <ele>1081.1</ele>
        <time>2026-05-07T11:11:26.999Z</time>
      </trkpt>
      <trkpt lat="43.59444" lon="2.96294">
        <ele>1081</ele>
        <time>2026-05-07T11:11:27.999Z</time>
      </trkpt>
      <trkpt lat="43.59444" lon="2.96294">
        <ele>1081.1</ele>
        <time>2026-05-07T11:11:28.999Z</time>
      </trkpt>
      <trkpt lat="43.59444" lon="2.96294">
        <ele>1080.9</ele>
        <time>2026-05-07T11:11:29.999Z</time>
      </trkpt>
      <trkpt lat="43.59444" lon="2.96294">
        <ele>1081</ele>
        <time>2026-05-07T11:11:30.999Z</time>
      </trkpt>
      <trkpt lat="43.59444" lon="2.96294">
        <ele>1081.1</ele>
        <time>2026-05-07T11:11:31.999Z</time>
      </trkpt>
      <trkpt lat="43.59444" lon="2.96294">
        <ele>1081.1</ele>
        <time>2026-05-07T11:11:32.999Z</time>
      </trkpt>
      <trkpt lat="43.59444" lon="2.96294">
        <ele>1081.1</ele>
        <time>2026-05-07T11:11:33.999Z</time>
      </trkpt>
      <trkpt lat="43.59444" lon="2.96294">
        <ele>1080.8</ele>
        <time>2026-05-07T11:11:34.999Z</time>
      </trkpt>
      <trkpt lat="43.59444" lon="2.96294">
        <ele>1080.9</ele>
        <time>2026-05-07T11:11:35.999Z</time>
      </trkpt>
      <trkpt lat="43.59444" lon="2.96294">
        <ele>1080.6</ele>
        <time>2026-05-07T11:11:36.999Z</time>
      </trkpt>
      <trkpt lat="43.59444" lon="2.96294">
        <ele>1080.6</ele>
        <time>2026-05-07T11:11:37.999Z</time>
      </trkpt>
      <trkpt lat="43.59444" lon="2.96294">
        <ele>1080.6</ele>
        <time>2026-05-07T11:11:38.999Z</time>
      </trkpt>
      <trkpt lat="43.59444" lon="2.96294">
        <ele>1080.5</ele>
        <time>2026-05-07T11:11:39.999Z</time>
      </trkpt>
      <trkpt lat="43.59444" lon="2.96294">
        <ele>1080.6</ele>
        <time>2026-05-07T11:11:40.999Z</time>
      </trkpt>
      <trkpt lat="43.59444" lon="2.96294">
        <ele>1080.7</ele>
        <time>2026-05-07T11:11:41.999Z</time>
      </trkpt>
      <trkpt lat="43.59444" lon="2.96294">
        <ele>1080.7</ele>
        <time>2026-05-07T11:11:42.999Z</time>
      </trkpt>
      <trkpt lat="43.59444" lon="2.96294">
        <ele>1080.6</ele>
        <time>2026-05-07T11:11:43.999Z</time>
      </trkpt>
      <trkpt lat="43.59444" lon="2.96294">
        <ele>1080.5</ele>
        <time>2026-05-07T11:11:44.999Z</time>
      </trkpt>
      <trkpt lat="43.59444" lon="2.96294">
        <ele>1080.5</ele>
        <time>2026-05-07T11:11:45.999Z</time>
      </trkpt>
      <trkpt lat="43.59444" lon="2.96294">
        <ele>1080.4</ele>
        <time>2026-05-07T11:11:46.999Z</time>
      </trkpt>
      <trkpt lat="43.59444" lon="2.96294">
        <ele>1080.6</ele>
        <time>2026-05-07T11:11:47.999Z</time>
      </trkpt>
      <trkpt lat="43.59444" lon="2.96294">
        <ele>1080.7</ele>
        <time>2026-05-07T11:11:48.999Z</time>
      </trkpt>
      <trkpt lat="43.59444" lon="2.96294">
        <ele>1080.8</ele>
        <time>2026-05-07T11:11:49.999Z</time>
      </trkpt>
      <trkpt lat="43.59444" lon="2.96294">
        <ele>1081</ele>
        <time>2026-05-07T11:11:50.999Z</time>
      </trkpt>
      <trkpt lat="43.59445" lon="2.96294">
        <ele>1081</ele>
        <time>2026-05-07T11:11:51.999Z</time>
      </trkpt>
      <trkpt lat="43.59445" lon="2.96294">
        <ele>1080.6</ele>
        <time>2026-05-07T11:11:52.999Z</time>
      </trkpt>
      <trkpt lat="43.59445" lon="2.96294">
        <ele>1080.2</ele>
        <time>2026-05-07T11:11:53.999Z</time>
      </trkpt>
      <trkpt lat="43.59445" lon="2.96294">
        <ele>1079.7</ele>
        <time>2026-05-07T11:11:54.999Z</time>
      </trkpt>
      <trkpt lat="43.59445" lon="2.96294">
        <ele>1079.4</ele>
        <time>2026-05-07T11:11:55.999Z</time>
      </trkpt>
      <trkpt lat="43.59444" lon="2.96294">
        <ele>1079.3</ele>
        <time>2026-05-07T11:11:56.999Z</time>
      </trkpt>
      <trkpt lat="43.59444" lon="2.96293">
        <ele>1079.1</ele>
        <time>2026-05-07T11:11:57.999Z</time>
      </trkpt>
      <trkpt lat="43.59445" lon="2.96293">
        <ele>1079</ele>
        <time>2026-05-07T11:11:58.999Z</time>
      </trkpt>
      <trkpt lat="43.59445" lon="2.96293">
        <ele>1078.9</ele>
        <time>2026-05-07T11:11:59.999Z</time>
      </trkpt>
      <trkpt lat="43.59445" lon="2.96293">
        <ele>1078.8</ele>
        <time>2026-05-07T11:12:00.999Z</time>
      </trkpt>
      <trkpt lat="43.59445" lon="2.96293">
        <ele>1078.9</ele>
        <time>2026-05-07T11:12:01.999Z</time>
      </trkpt>
      <trkpt lat="43.59445" lon="2.96293">
        <ele>1078.8</ele>
        <time>2026-05-07T11:12:02.999Z</time>
      </trkpt>
      <trkpt lat="43.59445" lon="2.96293">
        <ele>1078.8</ele>
        <time>2026-05-07T11:12:03.999Z</time>
      </trkpt>
      <trkpt lat="43.59445" lon="2.96293">
        <ele>1079</ele>
        <time>2026-05-07T11:12:04.999Z</time>
      </trkpt>
      <trkpt lat="43.59445" lon="2.96293">
        <ele>1079.4</ele>
        <time>2026-05-07T11:12:05.999Z</time>
      </trkpt>
      <trkpt lat="43.59445" lon="2.96294">
        <ele>1079.6</ele>
        <time>2026-05-07T11:12:06.999Z</time>
      </trkpt>
      <trkpt lat="43.59445" lon="2.96294">
        <ele>1079.8</ele>
        <time>2026-05-07T11:12:07.999Z</time>
      </trkpt>
      <trkpt lat="43.59445" lon="2.96294">
        <ele>1079.8</ele>
        <time>2026-05-07T11:12:08.999Z</time>
      </trkpt>
      <trkpt lat="43.59445" lon="2.96294">
        <ele>1079.7</ele>
        <time>2026-05-07T11:12:09.999Z</time>
      </trkpt>
      <trkpt lat="43.59445" lon="2.96294">
        <ele>1079.7</ele>
        <time>2026-05-07T11:12:10.999Z</time>
      </trkpt>
      <trkpt lat="43.59445" lon="2.96294">
        <ele>1079.9</ele>
        <time>2026-05-07T11:12:11.999Z</time>
      </trkpt>
      <trkpt lat="43.59445" lon="2.96294">
        <ele>1080.2</ele>
        <time>2026-05-07T11:12:12.999Z</time>
      </trkpt>
      <trkpt lat="43.59445" lon="2.96294">
        <ele>1080.2</ele>
        <time>2026-05-07T11:12:13.999Z</time>
      </trkpt>
      <trkpt lat="43.59445" lon="2.96294">
        <ele>1080.2</ele>
        <time>2026-05-07T11:12:14.999Z</time>
      </trkpt>
      <trkpt lat="43.59445" lon="2.96294">
        <ele>1079.9</ele>
        <time>2026-05-07T11:12:15.999Z</time>
      </trkpt>
      <trkpt lat="43.59445" lon="2.96294">
        <ele>1079.7</ele>
        <time>2026-05-07T11:12:16.999Z</time>
      </trkpt>
      <trkpt lat="43.59445" lon="2.96294">
        <ele>1079.5</ele>
        <time>2026-05-07T11:12:17.999Z</time>
      </trkpt>
      <trkpt lat="43.59445" lon="2.96294">
        <ele>1079.3</ele>
        <time>2026-05-07T11:12:18.999Z</time>
      </trkpt>
      <trkpt lat="43.59445" lon="2.96294">
        <ele>1079.4</ele>
        <time>2026-05-07T11:12:19.999Z</time>
      </trkpt>
      <trkpt lat="43.59445" lon="2.96294">
        <ele>1079.5</ele>
        <time>2026-05-07T11:12:20.999Z</time>
      </trkpt>
      <trkpt lat="43.59445" lon="2.96294">
        <ele>1079.7</ele>
        <time>2026-05-07T11:12:21.999Z</time>
      </trkpt>
      <trkpt lat="43.59445" lon="2.96294">
        <ele>1079.9</ele>
        <time>2026-05-07T11:12:22.999Z</time>
      </trkpt>
      <trkpt lat="43.59445" lon="2.96294">
        <ele>1080.1</ele>
        <time>2026-05-07T11:12:23.999Z</time>
      </trkpt>
      <trkpt lat="43.59445" lon="2.96294">
        <ele>1080.4</ele>
        <time>2026-05-07T11:12:24.999Z</time>
      </trkpt>
      <trkpt lat="43.59445" lon="2.96294">
        <ele>1080.6</ele>
        <time>2026-05-07T11:12:25.999Z</time>
      </trkpt>
      <trkpt lat="43.59445" lon="2.96294">
        <ele>1080.7</ele>
        <time>2026-05-07T11:12:26.999Z</time>
      </trkpt>
      <trkpt lat="43.59445" lon="2.96294">
        <ele>1081</ele>
        <time>2026-05-07T11:12:27.999Z</time>
      </trkpt>
      <trkpt lat="43.59445" lon="2.96294">
        <ele>1081.1</ele>
        <time>2026-05-07T11:12:28.999Z</time>
      </trkpt>
      <trkpt lat="43.59445" lon="2.96294">
        <ele>1081.1</ele>
        <time>2026-05-07T11:12:29.999Z</time>
      </trkpt>
      <trkpt lat="43.59445" lon="2.96294">
        <ele>1081.1</ele>
        <time>2026-05-07T11:12:30.999Z</time>
      </trkpt>
      <trkpt lat="43.59445" lon="2.96294">
        <ele>1081.2</ele>
        <time>2026-05-07T11:12:31.999Z</time>
      </trkpt>
      <trkpt lat="43.59445" lon="2.96294">
        <ele>1081.5</ele>
        <time>2026-05-07T11:12:32.999Z</time>
      </trkpt>
      <trkpt lat="43.59445" lon="2.96294">
        <ele>1081.5</ele>
        <time>2026-05-07T11:12:33.999Z</time>
      </trkpt>
      <trkpt lat="43.59445" lon="2.96294">
        <ele>1081.4</ele>
        <time>2026-05-07T11:12:34.999Z</time>
      </trkpt>
      <trkpt lat="43.59445" lon="2.96294">
        <ele>1081.2</ele>
        <time>2026-05-07T11:12:35.999Z</time>
      </trkpt>
      <trkpt lat="43.59445" lon="2.96294">
        <ele>1081.2</ele>
        <time>2026-05-07T11:12:36.999Z</time>
      </trkpt>
      <trkpt lat="43.59445" lon="2.96294">
        <ele>1081.2</ele>
        <time>2026-05-07T11:12:37.999Z</time>
      </trkpt>
      <trkpt lat="43.59445" lon="2.96294">
        <ele>1081.1</ele>
        <time>2026-05-07T11:12:38.999Z</time>
      </trkpt>
      <trkpt lat="43.59445" lon="2.96294">
        <ele>1081.1</ele>
        <time>2026-05-07T11:12:39.999Z</time>
      </trkpt>
      <trkpt lat="43.59445" lon="2.96294">
        <ele>1081</ele>
        <time>2026-05-07T11:12:40.999Z</time>
      </trkpt>
      <trkpt lat="43.59445" lon="2.96294">
        <ele>1080.8</ele>
        <time>2026-05-07T11:12:41.999Z</time>
      </trkpt>
      <trkpt lat="43.59445" lon="2.96294">
        <ele>1080.7</ele>
        <time>2026-05-07T11:12:42.999Z</time>
      </trkpt>
      <trkpt lat="43.59445" lon="2.96294">
        <ele>1080.8</ele>
        <time>2026-05-07T11:12:43.999Z</time>
      </trkpt>
      <trkpt lat="43.59445" lon="2.96294">
        <ele>1080.8</ele>
        <time>2026-05-07T11:12:44.999Z</time>
      </trkpt>
      <trkpt lat="43.59445" lon="2.96294">
        <ele>1080.6</ele>
        <time>2026-05-07T11:12:45.999Z</time>
      </trkpt>
      <trkpt lat="43.59445" lon="2.96294">
        <ele>1080.7</ele>
        <time>2026-05-07T11:12:46.999Z</time>
      </trkpt>
      <trkpt lat="43.59445" lon="2.96294">
        <ele>1080.8</ele>
        <time>2026-05-07T11:12:47.999Z</time>
      </trkpt>
      <trkpt lat="43.59445" lon="2.96294">
        <ele>1081</ele>
        <time>2026-05-07T11:12:48.999Z</time>
      </trkpt>
      <trkpt lat="43.59445" lon="2.96294">
        <ele>1081.2</ele>
        <time>2026-05-07T11:12:49.999Z</time>
      </trkpt>
      <trkpt lat="43.59445" lon="2.96294">
        <ele>1081.4</ele>
        <time>2026-05-07T11:12:50.999Z</time>
      </trkpt>
      <trkpt lat="43.59445" lon="2.96294">
        <ele>1081.6</ele>
        <time>2026-05-07T11:12:51.999Z</time>
      </trkpt>
      <trkpt lat="43.59445" lon="2.96294">
        <ele>1081.7</ele>
        <time>2026-05-07T11:12:52.999Z</time>
      </trkpt>
      <trkpt lat="43.59445" lon="2.96294">
        <ele>1081.8</ele>
        <time>2026-05-07T11:12:53.999Z</time>
      </trkpt>
      <trkpt lat="43.59445" lon="2.96294">
        <ele>1081.8</ele>
        <time>2026-05-07T11:12:54.999Z</time>
      </trkpt>
      <trkpt lat="43.59445" lon="2.96294">
        <ele>1082</ele>
        <time>2026-05-07T11:12:55.999Z</time>
      </trkpt>
      <trkpt lat="43.59445" lon="2.96294">
        <ele>1082.3</ele>
        <time>2026-05-07T11:12:56.999Z</time>
      </trkpt>
      <trkpt lat="43.59445" lon="2.96294">
        <ele>1082.6</ele>
        <time>2026-05-07T11:12:57.999Z</time>
      </trkpt>
      <trkpt lat="43.59445" lon="2.96294">
        <ele>1082.7</ele>
        <time>2026-05-07T11:12:58.999Z</time>
      </trkpt>
      <trkpt lat="43.59445" lon="2.96294">
        <ele>1082.7</ele>
        <time>2026-05-07T11:12:59.999Z</time>
      </trkpt>
      <trkpt lat="43.59445" lon="2.96294">
        <ele>1082.6</ele>
        <time>2026-05-07T11:13:00.999Z</time>
      </trkpt>
      <trkpt lat="43.59445" lon="2.96294">
        <ele>1082.4</ele>
        <time>2026-05-07T11:13:01.999Z</time>
      </trkpt>
      <trkpt lat="43.59445" lon="2.96294">
        <ele>1082.2</ele>
        <time>2026-05-07T11:13:02.999Z</time>
      </trkpt>
      <trkpt lat="43.59445" lon="2.96294">
        <ele>1081.9</ele>
        <time>2026-05-07T11:13:03.999Z</time>
      </trkpt>
      <trkpt lat="43.59445" lon="2.96294">
        <ele>1081.7</ele>
        <time>2026-05-07T11:13:04.999Z</time>
      </trkpt>
      <trkpt lat="43.59445" lon="2.96294">
        <ele>1081.6</ele>
        <time>2026-05-07T11:13:05.999Z</time>
      </trkpt>
      <trkpt lat="43.59445" lon="2.96294">
        <ele>1081.4</ele>
        <time>2026-05-07T11:13:06.999Z</time>
      </trkpt>
      <trkpt lat="43.59445" lon="2.96293">
        <ele>1081.2</ele>
        <time>2026-05-07T11:13:07.999Z</time>
      </trkpt>
      <trkpt lat="43.59445" lon="2.96293">
        <ele>1081.2</ele>
        <time>2026-05-07T11:13:08.999Z</time>
      </trkpt>
      <trkpt lat="43.59445" lon="2.96293">
        <ele>1081.3</ele>
        <time>2026-05-07T11:13:09.999Z</time>
      </trkpt>
      <trkpt lat="43.59445" lon="2.96293">
        <ele>1081.3</ele>
        <time>2026-05-07T11:13:10.999Z</time>
      </trkpt>
      <trkpt lat="43.59445" lon="2.96293">
        <ele>1081.3</ele>
        <time>2026-05-07T11:13:11.999Z</time>
      </trkpt>
      <trkpt lat="43.59445" lon="2.96293">
        <ele>1081.1</ele>
        <time>2026-05-07T11:13:12.999Z</time>
      </trkpt>
      <trkpt lat="43.59445" lon="2.96293">
        <ele>1081</ele>
        <time>2026-05-07T11:13:13.999Z</time>
      </trkpt>
      <trkpt lat="43.59445" lon="2.96293">
        <ele>1080.8</ele>
        <time>2026-05-07T11:13:14.999Z</time>
      </trkpt>
      <trkpt lat="43.59445" lon="2.96293">
        <ele>1080.9</ele>
        <time>2026-05-07T11:13:15.999Z</time>
      </trkpt>
      <trkpt lat="43.59445" lon="2.96293">
        <ele>1081</ele>
        <time>2026-05-07T11:13:16.999Z</time>
      </trkpt>
      <trkpt lat="43.59445" lon="2.96293">
        <ele>1081</ele>
        <time>2026-05-07T11:13:17.999Z</time>
      </trkpt>
      <trkpt lat="43.59445" lon="2.96293">
        <ele>1081.2</ele>
        <time>2026-05-07T11:13:18.999Z</time>
      </trkpt>
      <trkpt lat="43.59445" lon="2.96293">
        <ele>1081.3</ele>
        <time>2026-05-07T11:13:19.999Z</time>
      </trkpt>
      <trkpt lat="43.59445" lon="2.96293">
        <ele>1081.1</ele>
        <time>2026-05-07T11:13:20.999Z</time>
      </trkpt>
      <trkpt lat="43.59445" lon="2.96293">
        <ele>1081</ele>
        <time>2026-05-07T11:13:21.999Z</time>
      </trkpt>
      <trkpt lat="43.59445" lon="2.96293">
        <ele>1081.1</ele>
        <time>2026-05-07T11:13:22.999Z</time>
      </trkpt>
      <trkpt lat="43.59445" lon="2.96293">
        <ele>1081.2</ele>
        <time>2026-05-07T11:13:23.999Z</time>
      </trkpt>
      <trkpt lat="43.59445" lon="2.96293">
        <ele>1081.3</ele>
        <time>2026-05-07T11:13:24.999Z</time>
      </trkpt>
      <trkpt lat="43.59445" lon="2.96293">
        <ele>1081.3</ele>
        <time>2026-05-07T11:13:25.999Z</time>
      </trkpt>
      <trkpt lat="43.59445" lon="2.96293">
        <ele>1081.3</ele>
        <time>2026-05-07T11:13:26.999Z</time>
      </trkpt>
      <trkpt lat="43.59445" lon="2.96293">
        <ele>1081.2</ele>
        <time>2026-05-07T11:13:27.999Z</time>
      </trkpt>
      <trkpt lat="43.59445" lon="2.96294">
        <ele>1081.2</ele>
        <time>2026-05-07T11:13:28.999Z</time>
      </trkpt>
      <trkpt lat="43.59445" lon="2.96294">
        <ele>1081</ele>
        <time>2026-05-07T11:13:29.999Z</time>
      </trkpt>
      <trkpt lat="43.59445" lon="2.96293">
        <ele>1081</ele>
        <time>2026-05-07T11:13:30.999Z</time>
      </trkpt>
      <trkpt lat="43.59445" lon="2.96293">
        <ele>1081.2</ele>
        <time>2026-05-07T11:13:31.999Z</time>
      </trkpt>
      <trkpt lat="43.59445" lon="2.96293">
        <ele>1081.4</ele>
        <time>2026-05-07T11:13:32.999Z</time>
      </trkpt>
      <trkpt lat="43.59445" lon="2.96293">
        <ele>1081.6</ele>
        <time>2026-05-07T11:13:33.999Z</time>
      </trkpt>
      <trkpt lat="43.59445" lon="2.96293">
        <ele>1081.8</ele>
        <time>2026-05-07T11:13:34.999Z</time>
      </trkpt>
      <trkpt lat="43.59446" lon="2.96293">
        <ele>1082.1</ele>
        <time>2026-05-07T11:13:35.999Z</time>
      </trkpt>
      <trkpt lat="43.59446" lon="2.96293">
        <ele>1082.1</ele>
        <time>2026-05-07T11:13:36.999Z</time>
      </trkpt>
      <trkpt lat="43.59446" lon="2.96293">
        <ele>1081.8</ele>
        <time>2026-05-07T11:13:37.999Z</time>
      </trkpt>
      <trkpt lat="43.59446" lon="2.96293">
        <ele>1081.7</ele>
        <time>2026-05-07T11:13:38.999Z</time>
      </trkpt>
      <trkpt lat="43.59446" lon="2.96293">
        <ele>1081.9</ele>
        <time>2026-05-07T11:13:39.999Z</time>
      </trkpt>
      <trkpt lat="43.59445" lon="2.96293">
        <ele>1082.1</ele>
        <time>2026-05-07T11:13:40.999Z</time>
      </trkpt>
      <trkpt lat="43.59445" lon="2.96293">
        <ele>1082.5</ele>
        <time>2026-05-07T11:13:41.999Z</time>
      </trkpt>
      <trkpt lat="43.59445" lon="2.96293">
        <ele>1082.6</ele>
        <time>2026-05-07T11:13:42.999Z</time>
      </trkpt>
      <trkpt lat="43.59445" lon="2.96293">
        <ele>1083</ele>
        <time>2026-05-07T11:13:43.999Z</time>
      </trkpt>
      <trkpt lat="43.59445" lon="2.96293">
        <ele>1083</ele>
        <time>2026-05-07T11:13:44.999Z</time>
      </trkpt>
      <trkpt lat="43.59445" lon="2.96293">
        <ele>1083.1</ele>
        <time>2026-05-07T11:13:45.999Z</time>
      </trkpt>
      <trkpt lat="43.59445" lon="2.96293">
        <ele>1082.9</ele>
        <time>2026-05-07T11:13:46.999Z</time>
      </trkpt>
      <trkpt lat="43.59445" lon="2.96293">
        <ele>1082.9</ele>
        <time>2026-05-07T11:13:47.999Z</time>
      </trkpt>
      <trkpt lat="43.59445" lon="2.96293">
        <ele>1082.7</ele>
        <time>2026-05-07T11:13:48.999Z</time>
      </trkpt>
      <trkpt lat="43.59445" lon="2.96294">
        <ele>1082.8</ele>
        <time>2026-05-07T11:13:49.999Z</time>
      </trkpt>
      <trkpt lat="43.59445" lon="2.96293">
        <ele>1082.8</ele>
        <time>2026-05-07T11:13:50.999Z</time>
      </trkpt>
      <trkpt lat="43.59445" lon="2.96293">
        <ele>1082.8</ele>
        <time>2026-05-07T11:13:51.999Z</time>
      </trkpt>
      <trkpt lat="43.59445" lon="2.96293">
        <ele>1082.8</ele>
        <time>2026-05-07T11:13:52.999Z</time>
      </trkpt>
      <trkpt lat="43.59445" lon="2.96293">
        <ele>1083</ele>
        <time>2026-05-07T11:13:53.999Z</time>
      </trkpt>
      <trkpt lat="43.59445" lon="2.96293">
        <ele>1083</ele>
        <time>2026-05-07T11:13:54.999Z</time>
      </trkpt>
      <trkpt lat="43.59445" lon="2.96293">
        <ele>1083.2</ele>
        <time>2026-05-07T11:13:55.999Z</time>
      </trkpt>
      <trkpt lat="43.59445" lon="2.96293">
        <ele>1083.2</ele>
        <time>2026-05-07T11:13:56.999Z</time>
      </trkpt>
      <trkpt lat="43.59445" lon="2.96293">
        <ele>1083.4</ele>
        <time>2026-05-07T11:13:57.999Z</time>
      </trkpt>
      <trkpt lat="43.59445" lon="2.96293">
        <ele>1083.5</ele>
        <time>2026-05-07T11:13:58.999Z</time>
      </trkpt>
      <trkpt lat="43.59445" lon="2.96293">
        <ele>1083.5</ele>
        <time>2026-05-07T11:13:59.999Z</time>
      </trkpt>
      <trkpt lat="43.59445" lon="2.96293">
        <ele>1083.5</ele>
        <time>2026-05-07T11:14:00.999Z</time>
      </trkpt>
      <trkpt lat="43.59445" lon="2.96293">
        <ele>1083.4</ele>
        <time>2026-05-07T11:14:01.999Z</time>
      </trkpt>
      <trkpt lat="43.59445" lon="2.96293">
        <ele>1083.4</ele>
        <time>2026-05-07T11:14:02.999Z</time>
      </trkpt>
      <trkpt lat="43.59445" lon="2.96293">
        <ele>1083.2</ele>
        <time>2026-05-07T11:14:03.999Z</time>
      </trkpt>
      <trkpt lat="43.59445" lon="2.96293">
        <ele>1083.3</ele>
        <time>2026-05-07T11:14:04.999Z</time>
      </trkpt>
      <trkpt lat="43.59445" lon="2.96293">
        <ele>1083.3</ele>
        <time>2026-05-07T11:14:05.999Z</time>
      </trkpt>
      <trkpt lat="43.59445" lon="2.96293">
        <ele>1083.4</ele>
        <time>2026-05-07T11:14:06.999Z</time>
      </trkpt>
      <trkpt lat="43.59445" lon="2.96293">
        <ele>1083.3</ele>
        <time>2026-05-07T11:14:07.999Z</time>
      </trkpt>
      <trkpt lat="43.59445" lon="2.96293">
        <ele>1083.5</ele>
        <time>2026-05-07T11:14:08.999Z</time>
      </trkpt>
      <trkpt lat="43.59445" lon="2.96293">
        <ele>1083.6</ele>
        <time>2026-05-07T11:14:09.999Z</time>
      </trkpt>
      <trkpt lat="43.59445" lon="2.96293">
        <ele>1083.6</ele>
        <time>2026-05-07T11:14:10.999Z</time>
      </trkpt>
      <trkpt lat="43.59445" lon="2.96293">
        <ele>1083.6</ele>
        <time>2026-05-07T11:14:11.999Z</time>
      </trkpt>
      <trkpt lat="43.59445" lon="2.96293">
        <ele>1083.6</ele>
        <time>2026-05-07T11:14:12.999Z</time>
      </trkpt>
      <trkpt lat="43.59445" lon="2.96293">
        <ele>1083.7</ele>
        <time>2026-05-07T11:14:13.999Z</time>
      </trkpt>
      <trkpt lat="43.59445" lon="2.96293">
        <ele>1083.7</ele>
        <time>2026-05-07T11:14:14.999Z</time>
      </trkpt>
      <trkpt lat="43.59445" lon="2.96293">
        <ele>1083.6</ele>
        <time>2026-05-07T11:14:15.999Z</time>
      </trkpt>
      <trkpt lat="43.59445" lon="2.96293">
        <ele>1083.6</ele>
        <time>2026-05-07T11:14:16.999Z</time>
      </trkpt>
      <trkpt lat="43.59445" lon="2.96293">
        <ele>1083.6</ele>
        <time>2026-05-07T11:14:17.999Z</time>
      </trkpt>
      <trkpt lat="43.59445" lon="2.96292">
        <ele>1083.5</ele>
        <time>2026-05-07T11:14:19.999Z</time>
      </trkpt>
      <trkpt lat="43.59445" lon="2.96291">
        <ele>1083.5</ele>
        <time>2026-05-07T11:14:20.999Z</time>
      </trkpt>
      <trkpt lat="43.59445" lon="2.96291">
        <ele>1083.4</ele>
        <time>2026-05-07T11:14:21.999Z</time>
      </trkpt>
      <trkpt lat="43.59445" lon="2.96291">
        <ele>1083.4</ele>
        <time>2026-05-07T11:14:22.999Z</time>
      </trkpt>
      <trkpt lat="43.59445" lon="2.96291">
        <ele>1083.5</ele>
        <time>2026-05-07T11:14:23.999Z</time>
      </trkpt>
      <trkpt lat="43.59444" lon="2.96291">
        <ele>1083.7</ele>
        <time>2026-05-07T11:14:24.999Z</time>
      </trkpt>
      <trkpt lat="43.59444" lon="2.96291">
        <ele>1084</ele>
        <time>2026-05-07T11:14:25.999Z</time>
      </trkpt>
      <trkpt lat="43.59444" lon="2.96291">
        <ele>1083.9</ele>
        <time>2026-05-07T11:14:26.999Z</time>
      </trkpt>
      <trkpt lat="43.59444" lon="2.96291">
        <ele>1083.8</ele>
        <time>2026-05-07T11:14:27.999Z</time>
      </trkpt>
      <trkpt lat="43.59444" lon="2.96291">
        <ele>1083.6</ele>
        <time>2026-05-07T11:14:28.999Z</time>
      </trkpt>
      <trkpt lat="43.59444" lon="2.96291">
        <ele>1083.4</ele>
        <time>2026-05-07T11:14:29.999Z</time>
      </trkpt>
      <trkpt lat="43.59444" lon="2.96291">
        <ele>1083.4</ele>
        <time>2026-05-07T11:14:30.999Z</time>
      </trkpt>
      <trkpt lat="43.59444" lon="2.96291">
        <ele>1083.5</ele>
        <time>2026-05-07T11:14:32.999Z</time>
      </trkpt>
      <trkpt lat="43.59444" lon="2.96291">
        <ele>1083.6</ele>
        <time>2026-05-07T11:14:33.999Z</time>
      </trkpt>
      <trkpt lat="43.59444" lon="2.96292">
        <ele>1083.6</ele>
        <time>2026-05-07T11:14:34.999Z</time>
      </trkpt>
      <trkpt lat="43.59444" lon="2.96292">
        <ele>1083.6</ele>
        <time>2026-05-07T11:14:35.999Z</time>
      </trkpt>
      <trkpt lat="43.59444" lon="2.96292">
        <ele>1083.7</ele>
        <time>2026-05-07T11:14:36.999Z</time>
      </trkpt>
      <trkpt lat="43.59444" lon="2.96292">
        <ele>1083.3</ele>
        <time>2026-05-07T11:14:37.999Z</time>
      </trkpt>
      <trkpt lat="43.59444" lon="2.96292">
        <ele>1083.5</ele>
        <time>2026-05-07T11:14:38.999Z</time>
      </trkpt>
      <trkpt lat="43.59444" lon="2.96292">
        <ele>1083.7</ele>
        <time>2026-05-07T11:14:39.999Z</time>
      </trkpt>
      <trkpt lat="43.59444" lon="2.96292">
        <ele>1083.8</ele>
        <time>2026-05-07T11:14:40.999Z</time>
      </trkpt>
      <trkpt lat="43.59444" lon="2.96292">
        <ele>1083.6</ele>
        <time>2026-05-07T11:14:41.999Z</time>
      </trkpt>
      <trkpt lat="43.59444" lon="2.96292">
        <ele>1083.6</ele>
        <time>2026-05-07T11:14:42.999Z</time>
      </trkpt>
      <trkpt lat="43.59444" lon="2.96292">
        <ele>1083.5</ele>
        <time>2026-05-07T11:14:43.999Z</time>
      </trkpt>
      <trkpt lat="43.59444" lon="2.96292">
        <ele>1083.5</ele>
        <time>2026-05-07T11:14:44.999Z</time>
      </trkpt>
      <trkpt lat="43.59444" lon="2.96292">
        <ele>1083.4</ele>
        <time>2026-05-07T11:14:45.999Z</time>
      </trkpt>
      <trkpt lat="43.59444" lon="2.96292">
        <ele>1083.3</ele>
        <time>2026-05-07T11:14:46.999Z</time>
      </trkpt>
      <trkpt lat="43.59444" lon="2.96292">
        <ele>1083.3</ele>
        <time>2026-05-07T11:14:47.999Z</time>
      </trkpt>
      <trkpt lat="43.59444" lon="2.96292">
        <ele>1083.3</ele>
        <time>2026-05-07T11:14:48.999Z</time>
      </trkpt>
      <trkpt lat="43.59444" lon="2.96292">
        <ele>1083.3</ele>
        <time>2026-05-07T11:14:49.999Z</time>
      </trkpt>
      <trkpt lat="43.59444" lon="2.96292">
        <ele>1083.3</ele>
        <time>2026-05-07T11:14:50.999Z</time>
      </trkpt>
      <trkpt lat="43.59444" lon="2.96291">
        <ele>1083.1</ele>
        <time>2026-05-07T11:14:51.999Z</time>
      </trkpt>
      <trkpt lat="43.59443" lon="2.96291">
        <ele>1083</ele>
        <time>2026-05-07T11:14:52.999Z</time>
      </trkpt>
      <trkpt lat="43.59443" lon="2.96291">
        <ele>1083</ele>
        <time>2026-05-07T11:14:53.999Z</time>
      </trkpt>
      <trkpt lat="43.59443" lon="2.96291">
        <ele>1082.9</ele>
        <time>2026-05-07T11:14:54.999Z</time>
      </trkpt>
      <trkpt lat="43.59443" lon="2.96291">
        <ele>1082.9</ele>
        <time>2026-05-07T11:14:55.999Z</time>
      </trkpt>
      <trkpt lat="43.59443" lon="2.96291">
        <ele>1082.9</ele>
        <time>2026-05-07T11:14:56.999Z</time>
      </trkpt>
      <trkpt lat="43.59443" lon="2.96291">
        <ele>1082.8</ele>
        <time>2026-05-07T11:14:57.999Z</time>
      </trkpt>
      <trkpt lat="43.59443" lon="2.96291">
        <ele>1082.6</ele>
        <time>2026-05-07T11:14:58.999Z</time>
      </trkpt>
      <trkpt lat="43.59443" lon="2.96291">
        <ele>1082.1</ele>
        <time>2026-05-07T11:14:59.999Z</time>
      </trkpt>
      <trkpt lat="43.59443" lon="2.96291">
        <ele>1081.9</ele>
        <time>2026-05-07T11:15:00.999Z</time>
      </trkpt>
      <trkpt lat="43.59443" lon="2.96291">
        <ele>1081.5</ele>
        <time>2026-05-07T11:15:01.999Z</time>
      </trkpt>
      <trkpt lat="43.59443" lon="2.96291">
        <ele>1081.3</ele>
        <time>2026-05-07T11:15:02.999Z</time>
      </trkpt>
      <trkpt lat="43.59443" lon="2.96291">
        <ele>1081</ele>
        <time>2026-05-07T11:15:03.999Z</time>
      </trkpt>
      <trkpt lat="43.59443" lon="2.96291">
        <ele>1081.1</ele>
        <time>2026-05-07T11:15:04.999Z</time>
      </trkpt>
      <trkpt lat="43.59443" lon="2.96291">
        <ele>1081.2</ele>
        <time>2026-05-07T11:15:05.999Z</time>
      </trkpt>
      <trkpt lat="43.59443" lon="2.96291">
        <ele>1081.3</ele>
        <time>2026-05-07T11:15:06.999Z</time>
      </trkpt>
      <trkpt lat="43.59443" lon="2.96291">
        <ele>1081.5</ele>
        <time>2026-05-07T11:15:07.999Z</time>
      </trkpt>
      <trkpt lat="43.59443" lon="2.96291">
        <ele>1081.7</ele>
        <time>2026-05-07T11:15:08.999Z</time>
      </trkpt>
      <trkpt lat="43.59443" lon="2.96291">
        <ele>1081.8</ele>
        <time>2026-05-07T11:15:09.999Z</time>
      </trkpt>
      <trkpt lat="43.59443" lon="2.96291">
        <ele>1081.7</ele>
        <time>2026-05-07T11:15:10.999Z</time>
      </trkpt>
      <trkpt lat="43.59443" lon="2.96291">
        <ele>1081.8</ele>
        <time>2026-05-07T11:15:11.999Z</time>
      </trkpt>
      <trkpt lat="43.59443" lon="2.96291">
        <ele>1081.8</ele>
        <time>2026-05-07T11:15:12.999Z</time>
      </trkpt>
      <trkpt lat="43.59443" lon="2.96291">
        <ele>1081.9</ele>
        <time>2026-05-07T11:15:13.999Z</time>
      </trkpt>
      <trkpt lat="43.59443" lon="2.96291">
        <ele>1081.9</ele>
        <time>2026-05-07T11:15:14.999Z</time>
      </trkpt>
      <trkpt lat="43.59443" lon="2.96291">
        <ele>1082</ele>
        <time>2026-05-07T11:15:15.999Z</time>
      </trkpt>
      <trkpt lat="43.59443" lon="2.96291">
        <ele>1082</ele>
        <time>2026-05-07T11:15:16.999Z</time>
      </trkpt>
      <trkpt lat="43.59443" lon="2.96291">
        <ele>1082.1</ele>
        <time>2026-05-07T11:15:17.999Z</time>
      </trkpt>
      <trkpt lat="43.59443" lon="2.96291">
        <ele>1082.1</ele>
        <time>2026-05-07T11:15:18.999Z</time>
      </trkpt>
      <trkpt lat="43.59443" lon="2.96291">
        <ele>1082</ele>
        <time>2026-05-07T11:15:19.999Z</time>
      </trkpt>
      <trkpt lat="43.59443" lon="2.96291">
        <ele>1081.9</ele>
        <time>2026-05-07T11:15:20.999Z</time>
      </trkpt>
      <trkpt lat="43.59443" lon="2.96291">
        <ele>1081.9</ele>
        <time>2026-05-07T11:15:21.999Z</time>
      </trkpt>
      <trkpt lat="43.59443" lon="2.96291">
        <ele>1081.7</ele>
        <time>2026-05-07T11:15:22.999Z</time>
      </trkpt>
      <trkpt lat="43.59443" lon="2.96291">
        <ele>1081.6</ele>
        <time>2026-05-07T11:15:23.999Z</time>
      </trkpt>
      <trkpt lat="43.59443" lon="2.96291">
        <ele>1081.5</ele>
        <time>2026-05-07T11:15:24.999Z</time>
      </trkpt>
      <trkpt lat="43.59443" lon="2.96291">
        <ele>1081.3</ele>
        <time>2026-05-07T11:15:25.999Z</time>
      </trkpt>
      <trkpt lat="43.59443" lon="2.96291">
        <ele>1081.1</ele>
        <time>2026-05-07T11:15:26.999Z</time>
      </trkpt>
      <trkpt lat="43.59443" lon="2.96291">
        <ele>1081</ele>
        <time>2026-05-07T11:15:27.999Z</time>
      </trkpt>
      <trkpt lat="43.59443" lon="2.96291">
        <ele>1081</ele>
        <time>2026-05-07T11:15:28.999Z</time>
      </trkpt>
      <trkpt lat="43.59443" lon="2.96291">
        <ele>1080.9</ele>
        <time>2026-05-07T11:15:29.999Z</time>
      </trkpt>
      <trkpt lat="43.59443" lon="2.96291">
        <ele>1080.9</ele>
        <time>2026-05-07T11:15:30.999Z</time>
      </trkpt>
      <trkpt lat="43.59443" lon="2.96291">
        <ele>1080.9</ele>
        <time>2026-05-07T11:15:31.999Z</time>
      </trkpt>
      <trkpt lat="43.59443" lon="2.96291">
        <ele>1080.9</ele>
        <time>2026-05-07T11:15:32.999Z</time>
      </trkpt>
      <trkpt lat="43.59443" lon="2.96291">
        <ele>1080.8</ele>
        <time>2026-05-07T11:15:33.999Z</time>
      </trkpt>
      <trkpt lat="43.59443" lon="2.96291">
        <ele>1080.5</ele>
        <time>2026-05-07T11:15:34.999Z</time>
      </trkpt>
      <trkpt lat="43.59443" lon="2.96291">
        <ele>1080.3</ele>
        <time>2026-05-07T11:15:35.999Z</time>
      </trkpt>
      <trkpt lat="43.59443" lon="2.96291">
        <ele>1080.2</ele>
        <time>2026-05-07T11:15:36.999Z</time>
      </trkpt>
      <trkpt lat="43.59443" lon="2.96291">
        <ele>1080.2</ele>
        <time>2026-05-07T11:15:37.999Z</time>
      </trkpt>
      <trkpt lat="43.59443" lon="2.96291">
        <ele>1080.1</ele>
        <time>2026-05-07T11:15:38.999Z</time>
      </trkpt>
      <trkpt lat="43.59443" lon="2.96291">
        <ele>1080.2</ele>
        <time>2026-05-07T11:15:39.999Z</time>
      </trkpt>
      <trkpt lat="43.59443" lon="2.9629">
        <ele>1080.1</ele>
        <time>2026-05-07T11:15:40.999Z</time>
      </trkpt>
      <trkpt lat="43.59443" lon="2.9629">
        <ele>1080.1</ele>
        <time>2026-05-07T11:15:41.999Z</time>
      </trkpt>
      <trkpt lat="43.59443" lon="2.9629">
        <ele>1080.1</ele>
        <time>2026-05-07T11:15:42.999Z</time>
      </trkpt>
      <trkpt lat="43.59443" lon="2.9629">
        <ele>1080.1</ele>
        <time>2026-05-07T11:15:43.999Z</time>
      </trkpt>
      <trkpt lat="43.59443" lon="2.9629">
        <ele>1080.2</ele>
        <time>2026-05-07T11:15:44.999Z</time>
      </trkpt>
      <trkpt lat="43.59443" lon="2.9629">
        <ele>1080.4</ele>
        <time>2026-05-07T11:15:45.999Z</time>
      </trkpt>
      <trkpt lat="43.59443" lon="2.9629">
        <ele>1080.5</ele>
        <time>2026-05-07T11:15:46.999Z</time>
      </trkpt>
      <trkpt lat="43.59443" lon="2.9629">
        <ele>1080.6</ele>
        <time>2026-05-07T11:15:47.999Z</time>
      </trkpt>
      <trkpt lat="43.59443" lon="2.96289">
        <ele>1080.9</ele>
        <time>2026-05-07T11:15:48.999Z</time>
      </trkpt>
      <trkpt lat="43.59443" lon="2.9629">
        <ele>1081</ele>
        <time>2026-05-07T11:15:49.999Z</time>
      </trkpt>
      <trkpt lat="43.59443" lon="2.96289">
        <ele>1081.1</ele>
        <time>2026-05-07T11:15:50.999Z</time>
      </trkpt>
      <trkpt lat="43.59443" lon="2.96289">
        <ele>1081.2</ele>
        <time>2026-05-07T11:15:51.999Z</time>
      </trkpt>
      <trkpt lat="43.59443" lon="2.96289">
        <ele>1081.3</ele>
        <time>2026-05-07T11:15:52.999Z</time>
      </trkpt>
      <trkpt lat="43.59443" lon="2.96289">
        <ele>1081.4</ele>
        <time>2026-05-07T11:15:53.999Z</time>
      </trkpt>
      <trkpt lat="43.59443" lon="2.96289">
        <ele>1081.4</ele>
        <time>2026-05-07T11:15:54.999Z</time>
      </trkpt>
      <trkpt lat="43.59443" lon="2.96289">
        <ele>1081.3</ele>
        <time>2026-05-07T11:15:55.999Z</time>
      </trkpt>
      <trkpt lat="43.59443" lon="2.96289">
        <ele>1081.5</ele>
        <time>2026-05-07T11:15:56.999Z</time>
      </trkpt>
      <trkpt lat="43.59443" lon="2.96289">
        <ele>1081.4</ele>
        <time>2026-05-07T11:15:57.999Z</time>
      </trkpt>
      <trkpt lat="43.59443" lon="2.96289">
        <ele>1081.4</ele>
        <time>2026-05-07T11:15:58.999Z</time>
      </trkpt>
      <trkpt lat="43.59443" lon="2.96289">
        <ele>1081.2</ele>
        <time>2026-05-07T11:15:59.999Z</time>
      </trkpt>
      <trkpt lat="43.59443" lon="2.96289">
        <ele>1081.1</ele>
        <time>2026-05-07T11:16:00.999Z</time>
      </trkpt>
      <trkpt lat="43.59443" lon="2.96289">
        <ele>1081.2</ele>
        <time>2026-05-07T11:16:01.999Z</time>
      </trkpt>
      <trkpt lat="43.59443" lon="2.96289">
        <ele>1081.4</ele>
        <time>2026-05-07T11:16:02.999Z</time>
      </trkpt>
      <trkpt lat="43.59443" lon="2.96289">
        <ele>1081.7</ele>
        <time>2026-05-07T11:16:03.999Z</time>
      </trkpt>
      <trkpt lat="43.59443" lon="2.96289">
        <ele>1081.9</ele>
        <time>2026-05-07T11:16:04.999Z</time>
      </trkpt>
      <trkpt lat="43.59443" lon="2.96289">
        <ele>1082.1</ele>
        <time>2026-05-07T11:16:05.999Z</time>
      </trkpt>
      <trkpt lat="43.59443" lon="2.96289">
        <ele>1081.9</ele>
        <time>2026-05-07T11:16:06.999Z</time>
      </trkpt>
      <trkpt lat="43.59443" lon="2.96289">
        <ele>1081.5</ele>
        <time>2026-05-07T11:16:07.999Z</time>
      </trkpt>
      <trkpt lat="43.59443" lon="2.96289">
        <ele>1081.3</ele>
        <time>2026-05-07T11:16:08.999Z</time>
      </trkpt>
      <trkpt lat="43.59443" lon="2.96289">
        <ele>1081.1</ele>
        <time>2026-05-07T11:16:09.999Z</time>
      </trkpt>
      <trkpt lat="43.59443" lon="2.96289">
        <ele>1080.7</ele>
        <time>2026-05-07T11:16:10.999Z</time>
      </trkpt>
      <trkpt lat="43.59443" lon="2.96289">
        <ele>1080.5</ele>
        <time>2026-05-07T11:16:11.999Z</time>
      </trkpt>
      <trkpt lat="43.59443" lon="2.96289">
        <ele>1080.4</ele>
        <time>2026-05-07T11:16:12.999Z</time>
      </trkpt>
      <trkpt lat="43.59443" lon="2.96289">
        <ele>1080.5</ele>
        <time>2026-05-07T11:16:13.999Z</time>
      </trkpt>
      <trkpt lat="43.59443" lon="2.96289">
        <ele>1080.4</ele>
        <time>2026-05-07T11:16:14.999Z</time>
      </trkpt>
      <trkpt lat="43.59443" lon="2.96289">
        <ele>1080.3</ele>
        <time>2026-05-07T11:16:15.999Z</time>
      </trkpt>
      <trkpt lat="43.59443" lon="2.96289">
        <ele>1080.1</ele>
        <time>2026-05-07T11:16:16.999Z</time>
      </trkpt>
      <trkpt lat="43.59444" lon="2.96289">
        <ele>1079.9</ele>
        <time>2026-05-07T11:16:17.999Z</time>
      </trkpt>
      <trkpt lat="43.59444" lon="2.96289">
        <ele>1079.7</ele>
        <time>2026-05-07T11:16:18.999Z</time>
      </trkpt>
      <trkpt lat="43.59444" lon="2.96289">
        <ele>1079.6</ele>
        <time>2026-05-07T11:16:19.999Z</time>
      </trkpt>
      <trkpt lat="43.59444" lon="2.96289">
        <ele>1079.6</ele>
        <time>2026-05-07T11:16:20.999Z</time>
      </trkpt>
      <trkpt lat="43.59444" lon="2.96289">
        <ele>1079.5</ele>
        <time>2026-05-07T11:16:21.999Z</time>
      </trkpt>
      <trkpt lat="43.59444" lon="2.96289">
        <ele>1079.5</ele>
        <time>2026-05-07T11:16:22.999Z</time>
      </trkpt>
      <trkpt lat="43.59444" lon="2.96289">
        <ele>1079.6</ele>
        <time>2026-05-07T11:16:23.999Z</time>
      </trkpt>
      <trkpt lat="43.59444" lon="2.96289">
        <ele>1079.7</ele>
        <time>2026-05-07T11:16:24.999Z</time>
      </trkpt>
      <trkpt lat="43.59444" lon="2.96289">
        <ele>1079.9</ele>
        <time>2026-05-07T11:16:25.999Z</time>
      </trkpt>
      <trkpt lat="43.59444" lon="2.96289">
        <ele>1080.1</ele>
        <time>2026-05-07T11:16:26.999Z</time>
      </trkpt>
      <trkpt lat="43.59444" lon="2.96289">
        <ele>1080.2</ele>
        <time>2026-05-07T11:16:27.999Z</time>
      </trkpt>
      <trkpt lat="43.59444" lon="2.96289">
        <ele>1080.2</ele>
        <time>2026-05-07T11:16:28.999Z</time>
      </trkpt>
      <trkpt lat="43.59444" lon="2.96289">
        <ele>1080.4</ele>
        <time>2026-05-07T11:16:29.999Z</time>
      </trkpt>
      <trkpt lat="43.59444" lon="2.96289">
        <ele>1080.4</ele>
        <time>2026-05-07T11:16:30.999Z</time>
      </trkpt>
      <trkpt lat="43.59444" lon="2.96289">
        <ele>1080.5</ele>
        <time>2026-05-07T11:16:31.999Z</time>
      </trkpt>
      <trkpt lat="43.59444" lon="2.96289">
        <ele>1080.7</ele>
        <time>2026-05-07T11:16:32.999Z</time>
      </trkpt>
      <trkpt lat="43.59444" lon="2.96289">
        <ele>1080.9</ele>
        <time>2026-05-07T11:16:33.999Z</time>
      </trkpt>
      <trkpt lat="43.59444" lon="2.96289">
        <ele>1080.9</ele>
        <time>2026-05-07T11:16:34.999Z</time>
      </trkpt>
      <trkpt lat="43.59444" lon="2.96289">
        <ele>1080.8</ele>
        <time>2026-05-07T11:16:35.999Z</time>
      </trkpt>
      <trkpt lat="43.59444" lon="2.96289">
        <ele>1080.8</ele>
        <time>2026-05-07T11:16:36.999Z</time>
      </trkpt>
      <trkpt lat="43.59444" lon="2.96289">
        <ele>1080.7</ele>
        <time>2026-05-07T11:16:37.999Z</time>
      </trkpt>
      <trkpt lat="43.59444" lon="2.96289">
        <ele>1080.8</ele>
        <time>2026-05-07T11:16:38.999Z</time>
      </trkpt>
      <trkpt lat="43.59444" lon="2.96289">
        <ele>1080.8</ele>
        <time>2026-05-07T11:16:39.999Z</time>
      </trkpt>
      <trkpt lat="43.59444" lon="2.96289">
        <ele>1080.7</ele>
        <time>2026-05-07T11:16:40.999Z</time>
      </trkpt>
      <trkpt lat="43.59444" lon="2.96289">
        <ele>1080.7</ele>
        <time>2026-05-07T11:16:41.999Z</time>
      </trkpt>
      <trkpt lat="43.59444" lon="2.96289">
        <ele>1080.8</ele>
        <time>2026-05-07T11:16:42.999Z</time>
      </trkpt>
      <trkpt lat="43.59444" lon="2.96289">
        <ele>1080.9</ele>
        <time>2026-05-07T11:16:43.999Z</time>
      </trkpt>
      <trkpt lat="43.59444" lon="2.96289">
        <ele>1081</ele>
        <time>2026-05-07T11:16:44.999Z</time>
      </trkpt>
      <trkpt lat="43.59444" lon="2.96289">
        <ele>1081.2</ele>
        <time>2026-05-07T11:16:45.999Z</time>
      </trkpt>
      <trkpt lat="43.59444" lon="2.96289">
        <ele>1081.3</ele>
        <time>2026-05-07T11:16:46.999Z</time>
      </trkpt>
      <trkpt lat="43.59444" lon="2.96289">
        <ele>1081.4</ele>
        <time>2026-05-07T11:16:47.999Z</time>
      </trkpt>
      <trkpt lat="43.59444" lon="2.96289">
        <ele>1081.6</ele>
        <time>2026-05-07T11:16:48.999Z</time>
      </trkpt>
      <trkpt lat="43.59444" lon="2.96289">
        <ele>1081.6</ele>
        <time>2026-05-07T11:16:49.999Z</time>
      </trkpt>
      <trkpt lat="43.59444" lon="2.96289">
        <ele>1081.7</ele>
        <time>2026-05-07T11:16:50.999Z</time>
      </trkpt>
      <trkpt lat="43.59444" lon="2.96289">
        <ele>1081.7</ele>
        <time>2026-05-07T11:16:51.999Z</time>
      </trkpt>
      <trkpt lat="43.59444" lon="2.96289">
        <ele>1081.7</ele>
        <time>2026-05-07T11:16:52.999Z</time>
      </trkpt>
      <trkpt lat="43.59444" lon="2.96289">
        <ele>1081.6</ele>
        <time>2026-05-07T11:16:53.999Z</time>
      </trkpt>
      <trkpt lat="43.59444" lon="2.96289">
        <ele>1081.8</ele>
        <time>2026-05-07T11:16:54.999Z</time>
      </trkpt>
      <trkpt lat="43.59444" lon="2.96289">
        <ele>1081.8</ele>
        <time>2026-05-07T11:16:55.999Z</time>
      </trkpt>
      <trkpt lat="43.59444" lon="2.96289">
        <ele>1081.7</ele>
        <time>2026-05-07T11:16:56.999Z</time>
      </trkpt>
      <trkpt lat="43.59444" lon="2.96289">
        <ele>1081.8</ele>
        <time>2026-05-07T11:16:57.999Z</time>
      </trkpt>
      <trkpt lat="43.59444" lon="2.96289">
        <ele>1081.8</ele>
        <time>2026-05-07T11:16:58.999Z</time>
      </trkpt>
      <trkpt lat="43.59444" lon="2.96289">
        <ele>1081.9</ele>
        <time>2026-05-07T11:16:59.999Z</time>
      </trkpt>
      <trkpt lat="43.59444" lon="2.96289">
        <ele>1082.2</ele>
        <time>2026-05-07T11:17:00.999Z</time>
      </trkpt>
      <trkpt lat="43.59444" lon="2.96289">
        <ele>1082.2</ele>
        <time>2026-05-07T11:17:01.999Z</time>
      </trkpt>
      <trkpt lat="43.59444" lon="2.96289">
        <ele>1082.4</ele>
        <time>2026-05-07T11:17:02.999Z</time>
      </trkpt>
      <trkpt lat="43.59444" lon="2.96289">
        <ele>1082.6</ele>
        <time>2026-05-07T11:17:03.999Z</time>
      </trkpt>
      <trkpt lat="43.59444" lon="2.96289">
        <ele>1082.7</ele>
        <time>2026-05-07T11:17:04.999Z</time>
      </trkpt>
      <trkpt lat="43.59444" lon="2.96289">
        <ele>1082.7</ele>
        <time>2026-05-07T11:17:05.999Z</time>
      </trkpt>
      <trkpt lat="43.59444" lon="2.96289">
        <ele>1082.8</ele>
        <time>2026-05-07T11:17:06.999Z</time>
      </trkpt>
      <trkpt lat="43.59444" lon="2.96289">
        <ele>1082.8</ele>
        <time>2026-05-07T11:17:07.999Z</time>
      </trkpt>
      <trkpt lat="43.59444" lon="2.96289">
        <ele>1082.7</ele>
        <time>2026-05-07T11:17:08.999Z</time>
      </trkpt>
      <trkpt lat="43.59444" lon="2.96289">
        <ele>1082.8</ele>
        <time>2026-05-07T11:17:09.999Z</time>
      </trkpt>
      <trkpt lat="43.59444" lon="2.96289">
        <ele>1082.6</ele>
        <time>2026-05-07T11:17:11.000Z</time>
      </trkpt>
      <trkpt lat="43.59444" lon="2.96289">
        <ele>1082.6</ele>
        <time>2026-05-07T11:17:12.000Z</time>
      </trkpt>
      <trkpt lat="43.59444" lon="2.96289">
        <ele>1082.6</ele>
        <time>2026-05-07T11:17:13.000Z</time>
      </trkpt>
      <trkpt lat="43.59444" lon="2.96289">
        <ele>1082.8</ele>
        <time>2026-05-07T11:17:14.000Z</time>
      </trkpt>
      <trkpt lat="43.59444" lon="2.96289">
        <ele>1082.9</ele>
        <time>2026-05-07T11:17:15.000Z</time>
      </trkpt>
      <trkpt lat="43.59444" lon="2.96289">
        <ele>1083.2</ele>
        <time>2026-05-07T11:17:16.000Z</time>
      </trkpt>
      <trkpt lat="43.59444" lon="2.96289">
        <ele>1083.8</ele>
        <time>2026-05-07T11:17:17.000Z</time>
      </trkpt>
      <trkpt lat="43.59444" lon="2.96289">
        <ele>1083.9</ele>
        <time>2026-05-07T11:17:18.000Z</time>
      </trkpt>
      <trkpt lat="43.59444" lon="2.96289">
        <ele>1084.2</ele>
        <time>2026-05-07T11:17:19.000Z</time>
      </trkpt>
      <trkpt lat="43.59444" lon="2.96289">
        <ele>1084.4</ele>
        <time>2026-05-07T11:17:20.000Z</time>
      </trkpt>
      <trkpt lat="43.59444" lon="2.96289">
        <ele>1084.6</ele>
        <time>2026-05-07T11:17:21.000Z</time>
      </trkpt>
      <trkpt lat="43.59444" lon="2.96289">
        <ele>1084.7</ele>
        <time>2026-05-07T11:17:22.000Z</time>
      </trkpt>
      <trkpt lat="43.59444" lon="2.96289">
        <ele>1084.5</ele>
        <time>2026-05-07T11:17:23.000Z</time>
      </trkpt>
      <trkpt lat="43.59444" lon="2.96289">
        <ele>1084.5</ele>
        <time>2026-05-07T11:17:24.000Z</time>
      </trkpt>
      <trkpt lat="43.59444" lon="2.96289">
        <ele>1084.5</ele>
        <time>2026-05-07T11:17:25.000Z</time>
      </trkpt>
      <trkpt lat="43.59444" lon="2.96289">
        <ele>1084.6</ele>
        <time>2026-05-07T11:17:26.000Z</time>
      </trkpt>
      <trkpt lat="43.59444" lon="2.96289">
        <ele>1084.7</ele>
        <time>2026-05-07T11:17:27.000Z</time>
      </trkpt>
      <trkpt lat="43.59444" lon="2.96289">
        <ele>1084.8</ele>
        <time>2026-05-07T11:17:28.000Z</time>
      </trkpt>
      <trkpt lat="43.59444" lon="2.96289">
        <ele>1084.7</ele>
        <time>2026-05-07T11:17:29.000Z</time>
      </trkpt>
      <trkpt lat="43.59444" lon="2.96289">
        <ele>1084.7</ele>
        <time>2026-05-07T11:17:30.000Z</time>
      </trkpt>
      <trkpt lat="43.59444" lon="2.96289">
        <ele>1084.6</ele>
        <time>2026-05-07T11:17:31.000Z</time>
      </trkpt>
      <trkpt lat="43.59444" lon="2.96289">
        <ele>1084.8</ele>
        <time>2026-05-07T11:17:32.000Z</time>
      </trkpt>
      <trkpt lat="43.59444" lon="2.96289">
        <ele>1084.9</ele>
        <time>2026-05-07T11:17:33.000Z</time>
      </trkpt>
      <trkpt lat="43.59444" lon="2.96289">
        <ele>1084.8</ele>
        <time>2026-05-07T11:17:34.000Z</time>
      </trkpt>
      <trkpt lat="43.59443" lon="2.96289">
        <ele>1084.7</ele>
        <time>2026-05-07T11:17:35.000Z</time>
      </trkpt>
      <trkpt lat="43.59443" lon="2.96289">
        <ele>1084.5</ele>
        <time>2026-05-07T11:17:36.000Z</time>
      </trkpt>
      <trkpt lat="43.59443" lon="2.96289">
        <ele>1084.5</ele>
        <time>2026-05-07T11:17:37.000Z</time>
      </trkpt>
      <trkpt lat="43.59443" lon="2.96289">
        <ele>1084.5</ele>
        <time>2026-05-07T11:17:38.000Z</time>
      </trkpt>
      <trkpt lat="43.59443" lon="2.96289">
        <ele>1084.7</ele>
        <time>2026-05-07T11:17:39.000Z</time>
      </trkpt>
      <trkpt lat="43.59443" lon="2.9629">
        <ele>1084.7</ele>
        <time>2026-05-07T11:17:40.000Z</time>
      </trkpt>
      <trkpt lat="43.59443" lon="2.9629">
        <ele>1084.9</ele>
        <time>2026-05-07T11:17:41.000Z</time>
      </trkpt>
      <trkpt lat="43.59443" lon="2.9629">
        <ele>1085.2</ele>
        <time>2026-05-07T11:17:42.000Z</time>
      </trkpt>
      <trkpt lat="43.59443" lon="2.9629">
        <ele>1085.3</ele>
        <time>2026-05-07T11:17:43.000Z</time>
      </trkpt>
      <trkpt lat="43.59443" lon="2.9629">
        <ele>1085.5</ele>
        <time>2026-05-07T11:17:44.000Z</time>
      </trkpt>
      <trkpt lat="43.59443" lon="2.9629">
        <ele>1085.6</ele>
        <time>2026-05-07T11:17:45.000Z</time>
      </trkpt>
      <trkpt lat="43.59443" lon="2.9629">
        <ele>1085.8</ele>
        <time>2026-05-07T11:17:46.000Z</time>
      </trkpt>
      <trkpt lat="43.59443" lon="2.9629">
        <ele>1085.8</ele>
        <time>2026-05-07T11:17:47.000Z</time>
      </trkpt>
      <trkpt lat="43.59443" lon="2.9629">
        <ele>1085.6</ele>
        <time>2026-05-07T11:17:48.000Z</time>
      </trkpt>
      <trkpt lat="43.59443" lon="2.9629">
        <ele>1085.6</ele>
        <time>2026-05-07T11:17:49.000Z</time>
      </trkpt>
      <trkpt lat="43.59443" lon="2.9629">
        <ele>1085.9</ele>
        <time>2026-05-07T11:17:50.000Z</time>
      </trkpt>
      <trkpt lat="43.59443" lon="2.9629">
        <ele>1085.8</ele>
        <time>2026-05-07T11:17:51.000Z</time>
      </trkpt>
      <trkpt lat="43.59443" lon="2.9629">
        <ele>1085.8</ele>
        <time>2026-05-07T11:17:52.000Z</time>
      </trkpt>
      <trkpt lat="43.59443" lon="2.9629">
        <ele>1085.6</ele>
        <time>2026-05-07T11:17:53.000Z</time>
      </trkpt>
      <trkpt lat="43.59443" lon="2.9629">
        <ele>1085.5</ele>
        <time>2026-05-07T11:17:54.000Z</time>
      </trkpt>
      <trkpt lat="43.59443" lon="2.9629">
        <ele>1085.6</ele>
        <time>2026-05-07T11:17:55.000Z</time>
      </trkpt>
      <trkpt lat="43.59443" lon="2.9629">
        <ele>1085.6</ele>
        <time>2026-05-07T11:17:56.000Z</time>
      </trkpt>
      <trkpt lat="43.59443" lon="2.9629">
        <ele>1085.6</ele>
        <time>2026-05-07T11:17:57.000Z</time>
      </trkpt>
      <trkpt lat="43.59443" lon="2.9629">
        <ele>1085.5</ele>
        <time>2026-05-07T11:17:58.000Z</time>
      </trkpt>
      <trkpt lat="43.59443" lon="2.9629">
        <ele>1085.7</ele>
        <time>2026-05-07T11:17:59.000Z</time>
      </trkpt>
      <trkpt lat="43.59443" lon="2.9629">
        <ele>1086</ele>
        <time>2026-05-07T11:18:00.000Z</time>
      </trkpt>
      <trkpt lat="43.59443" lon="2.9629">
        <ele>1086.2</ele>
        <time>2026-05-07T11:18:01.000Z</time>
      </trkpt>
      <trkpt lat="43.59443" lon="2.9629">
        <ele>1086.4</ele>
        <time>2026-05-07T11:18:02.000Z</time>
      </trkpt>
      <trkpt lat="43.59443" lon="2.9629">
        <ele>1086.2</ele>
        <time>2026-05-07T11:18:03.000Z</time>
      </trkpt>
      <trkpt lat="43.59443" lon="2.9629">
        <ele>1086.1</ele>
        <time>2026-05-07T11:18:04.000Z</time>
      </trkpt>
      <trkpt lat="43.59443" lon="2.9629">
        <ele>1086</ele>
        <time>2026-05-07T11:18:05.000Z</time>
      </trkpt>
      <trkpt lat="43.59443" lon="2.96291">
        <ele>1086</ele>
        <time>2026-05-07T11:18:06.000Z</time>
      </trkpt>
      <trkpt lat="43.59443" lon="2.9629">
        <ele>1086.1</ele>
        <time>2026-05-07T11:18:07.000Z</time>
      </trkpt>
      <trkpt lat="43.59443" lon="2.96291">
        <ele>1086.2</ele>
        <time>2026-05-07T11:18:08.000Z</time>
      </trkpt>
      <trkpt lat="43.59443" lon="2.9629">
        <ele>1086.2</ele>
        <time>2026-05-07T11:18:09.000Z</time>
      </trkpt>
      <trkpt lat="43.59443" lon="2.9629">
        <ele>1086.3</ele>
        <time>2026-05-07T11:18:10.000Z</time>
      </trkpt>
      <trkpt lat="43.59443" lon="2.9629">
        <ele>1086.4</ele>
        <time>2026-05-07T11:18:11.000Z</time>
      </trkpt>
      <trkpt lat="43.59443" lon="2.9629">
        <ele>1086.4</ele>
        <time>2026-05-07T11:18:12.000Z</time>
      </trkpt>
      <trkpt lat="43.59443" lon="2.9629">
        <ele>1086.6</ele>
        <time>2026-05-07T11:18:13.000Z</time>
      </trkpt>
      <trkpt lat="43.59443" lon="2.96291">
        <ele>1086.5</ele>
        <time>2026-05-07T11:18:14.000Z</time>
      </trkpt>
      <trkpt lat="43.59442" lon="2.96291">
        <ele>1086.4</ele>
        <time>2026-05-07T11:18:15.000Z</time>
      </trkpt>
      <trkpt lat="43.59442" lon="2.96291">
        <ele>1086.3</ele>
        <time>2026-05-07T11:18:16.000Z</time>
      </trkpt>
      <trkpt lat="43.59442" lon="2.96291">
        <ele>1086.3</ele>
        <time>2026-05-07T11:18:17.000Z</time>
      </trkpt>
      <trkpt lat="43.59442" lon="2.96291">
        <ele>1086.2</ele>
        <time>2026-05-07T11:18:18.000Z</time>
      </trkpt>
      <trkpt lat="43.59442" lon="2.96291">
        <ele>1085.9</ele>
        <time>2026-05-07T11:18:19.000Z</time>
      </trkpt>
      <trkpt lat="43.59442" lon="2.96291">
        <ele>1085.8</ele>
        <time>2026-05-07T11:18:20.000Z</time>
      </trkpt>
      <trkpt lat="43.59442" lon="2.96291">
        <ele>1085.7</ele>
        <time>2026-05-07T11:18:21.000Z</time>
      </trkpt>
      <trkpt lat="43.59442" lon="2.96291">
        <ele>1085.6</ele>
        <time>2026-05-07T11:18:22.000Z</time>
      </trkpt>
      <trkpt lat="43.59442" lon="2.96291">
        <ele>1085.4</ele>
        <time>2026-05-07T11:18:23.000Z</time>
      </trkpt>
      <trkpt lat="43.59442" lon="2.96291">
        <ele>1085.4</ele>
        <time>2026-05-07T11:18:24.000Z</time>
      </trkpt>
      <trkpt lat="43.59442" lon="2.96291">
        <ele>1085.2</ele>
        <time>2026-05-07T11:18:25.000Z</time>
      </trkpt>
      <trkpt lat="43.59442" lon="2.96291">
        <ele>1085</ele>
        <time>2026-05-07T11:18:26.000Z</time>
      </trkpt>
      <trkpt lat="43.59442" lon="2.96291">
        <ele>1084.9</ele>
        <time>2026-05-07T11:18:27.000Z</time>
      </trkpt>
      <trkpt lat="43.59442" lon="2.96291">
        <ele>1084.8</ele>
        <time>2026-05-07T11:18:28.000Z</time>
      </trkpt>
      <trkpt lat="43.59442" lon="2.96291">
        <ele>1084.4</ele>
        <time>2026-05-07T11:18:29.000Z</time>
      </trkpt>
      <trkpt lat="43.59442" lon="2.96291">
        <ele>1084.3</ele>
        <time>2026-05-07T11:18:30.000Z</time>
      </trkpt>
      <trkpt lat="43.59442" lon="2.96291">
        <ele>1084.4</ele>
        <time>2026-05-07T11:18:31.000Z</time>
      </trkpt>
      <trkpt lat="43.59442" lon="2.96291">
        <ele>1084.5</ele>
        <time>2026-05-07T11:18:32.000Z</time>
      </trkpt>
      <trkpt lat="43.59442" lon="2.96291">
        <ele>1084.6</ele>
        <time>2026-05-07T11:18:33.000Z</time>
      </trkpt>
      <trkpt lat="43.59442" lon="2.96291">
        <ele>1084.6</ele>
        <time>2026-05-07T11:18:34.000Z</time>
      </trkpt>
      <trkpt lat="43.59442" lon="2.96291">
        <ele>1084.5</ele>
        <time>2026-05-07T11:18:35.000Z</time>
      </trkpt>
      <trkpt lat="43.59442" lon="2.96291">
        <ele>1084.4</ele>
        <time>2026-05-07T11:18:36.000Z</time>
      </trkpt>
      <trkpt lat="43.59442" lon="2.96291">
        <ele>1084.4</ele>
        <time>2026-05-07T11:18:37.000Z</time>
      </trkpt>
      <trkpt lat="43.59442" lon="2.96291">
        <ele>1084.4</ele>
        <time>2026-05-07T11:18:38.000Z</time>
      </trkpt>
      <trkpt lat="43.59442" lon="2.96291">
        <ele>1084.5</ele>
        <time>2026-05-07T11:18:39.000Z</time>
      </trkpt>
      <trkpt lat="43.59443" lon="2.96291">
        <ele>1084.6</ele>
        <time>2026-05-07T11:18:40.000Z</time>
      </trkpt>
      <trkpt lat="43.59442" lon="2.96291">
        <ele>1084.5</ele>
        <time>2026-05-07T11:18:41.000Z</time>
      </trkpt>
      <trkpt lat="43.59442" lon="2.96291">
        <ele>1084.3</ele>
        <time>2026-05-07T11:18:42.000Z</time>
      </trkpt>
      <trkpt lat="43.59442" lon="2.96291">
        <ele>1084.1</ele>
        <time>2026-05-07T11:18:43.000Z</time>
      </trkpt>
      <trkpt lat="43.59442" lon="2.96291">
        <ele>1084.2</ele>
        <time>2026-05-07T11:18:44.000Z</time>
      </trkpt>
      <trkpt lat="43.59442" lon="2.96291">
        <ele>1084.4</ele>
        <time>2026-05-07T11:18:45.000Z</time>
      </trkpt>
      <trkpt lat="43.59442" lon="2.96291">
        <ele>1084.8</ele>
        <time>2026-05-07T11:18:46.000Z</time>
      </trkpt>
      <trkpt lat="43.59442" lon="2.96291">
        <ele>1085.1</ele>
        <time>2026-05-07T11:18:47.000Z</time>
      </trkpt>
      <trkpt lat="43.59442" lon="2.96291">
        <ele>1085.2</ele>
        <time>2026-05-07T11:18:48.000Z</time>
      </trkpt>
      <trkpt lat="43.59442" lon="2.96291">
        <ele>1085.2</ele>
        <time>2026-05-07T11:18:49.000Z</time>
      </trkpt>
      <trkpt lat="43.59442" lon="2.96291">
        <ele>1085.1</ele>
        <time>2026-05-07T11:18:50.000Z</time>
      </trkpt>
      <trkpt lat="43.59442" lon="2.96291">
        <ele>1084.8</ele>
        <time>2026-05-07T11:18:51.000Z</time>
      </trkpt>
      <trkpt lat="43.59442" lon="2.96291">
        <ele>1084.7</ele>
        <time>2026-05-07T11:18:52.000Z</time>
      </trkpt>
      <trkpt lat="43.59442" lon="2.96291">
        <ele>1084.7</ele>
        <time>2026-05-07T11:18:53.000Z</time>
      </trkpt>
      <trkpt lat="43.59442" lon="2.96291">
        <ele>1084.7</ele>
        <time>2026-05-07T11:18:54.000Z</time>
      </trkpt>
      <trkpt lat="43.59442" lon="2.96291">
        <ele>1084.9</ele>
        <time>2026-05-07T11:18:55.000Z</time>
      </trkpt>
      <trkpt lat="43.59442" lon="2.96291">
        <ele>1084.8</ele>
        <time>2026-05-07T11:18:56.000Z</time>
      </trkpt>
      <trkpt lat="43.59442" lon="2.96291">
        <ele>1084.9</ele>
        <time>2026-05-07T11:18:57.000Z</time>
      </trkpt>
      <trkpt lat="43.59442" lon="2.96291">
        <ele>1085.1</ele>
        <time>2026-05-07T11:18:58.000Z</time>
      </trkpt>
      <trkpt lat="43.59442" lon="2.9629">
        <ele>1085</ele>
        <time>2026-05-07T11:18:59.000Z</time>
      </trkpt>
      <trkpt lat="43.59442" lon="2.9629">
        <ele>1085.2</ele>
        <time>2026-05-07T11:19:00.000Z</time>
      </trkpt>
      <trkpt lat="43.59442" lon="2.9629">
        <ele>1085.4</ele>
        <time>2026-05-07T11:19:01.000Z</time>
      </trkpt>
      <trkpt lat="43.59442" lon="2.9629">
        <ele>1085.6</ele>
        <time>2026-05-07T11:19:02.000Z</time>
      </trkpt>
      <trkpt lat="43.59442" lon="2.9629">
        <ele>1085.8</ele>
        <time>2026-05-07T11:19:03.000Z</time>
      </trkpt>
      <trkpt lat="43.59442" lon="2.9629">
        <ele>1085.8</ele>
        <time>2026-05-07T11:19:04.000Z</time>
      </trkpt>
      <trkpt lat="43.59442" lon="2.9629">
        <ele>1085.8</ele>
        <time>2026-05-07T11:19:05.000Z</time>
      </trkpt>
      <trkpt lat="43.59442" lon="2.9629">
        <ele>1085.8</ele>
        <time>2026-05-07T11:19:06.000Z</time>
      </trkpt>
      <trkpt lat="43.59442" lon="2.9629">
        <ele>1085.7</ele>
        <time>2026-05-07T11:19:07.000Z</time>
      </trkpt>
      <trkpt lat="43.59442" lon="2.9629">
        <ele>1085.9</ele>
        <time>2026-05-07T11:19:08.000Z</time>
      </trkpt>
      <trkpt lat="43.59442" lon="2.9629">
        <ele>1085.9</ele>
        <time>2026-05-07T11:19:09.000Z</time>
      </trkpt>
      <trkpt lat="43.59442" lon="2.9629">
        <ele>1086.1</ele>
        <time>2026-05-07T11:19:10.000Z</time>
      </trkpt>
      <trkpt lat="43.59442" lon="2.9629">
        <ele>1086</ele>
        <time>2026-05-07T11:19:11.000Z</time>
      </trkpt>
      <trkpt lat="43.59442" lon="2.9629">
        <ele>1086.3</ele>
        <time>2026-05-07T11:19:12.000Z</time>
      </trkpt>
      <trkpt lat="43.59442" lon="2.9629">
        <ele>1086.5</ele>
        <time>2026-05-07T11:19:13.000Z</time>
      </trkpt>
      <trkpt lat="43.59442" lon="2.9629">
        <ele>1086.5</ele>
        <time>2026-05-07T11:19:14.000Z</time>
      </trkpt>
      <trkpt lat="43.59442" lon="2.9629">
        <ele>1086.5</ele>
        <time>2026-05-07T11:19:15.000Z</time>
      </trkpt>
      <trkpt lat="43.59442" lon="2.9629">
        <ele>1086.7</ele>
        <time>2026-05-07T11:19:16.000Z</time>
      </trkpt>
      <trkpt lat="43.59442" lon="2.9629">
        <ele>1086.9</ele>
        <time>2026-05-07T11:19:17.000Z</time>
      </trkpt>
      <trkpt lat="43.59442" lon="2.9629">
        <ele>1086.9</ele>
        <time>2026-05-07T11:19:18.000Z</time>
      </trkpt>
      <trkpt lat="43.59442" lon="2.9629">
        <ele>1087</ele>
        <time>2026-05-07T11:19:19.000Z</time>
      </trkpt>
      <trkpt lat="43.59442" lon="2.9629">
        <ele>1087.1</ele>
        <time>2026-05-07T11:19:20.000Z</time>
      </trkpt>
      <trkpt lat="43.59442" lon="2.9629">
        <ele>1087.1</ele>
        <time>2026-05-07T11:19:21.000Z</time>
      </trkpt>
      <trkpt lat="43.59442" lon="2.9629">
        <ele>1087.1</ele>
        <time>2026-05-07T11:19:22.000Z</time>
      </trkpt>
      <trkpt lat="43.59442" lon="2.9629">
        <ele>1087.2</ele>
        <time>2026-05-07T11:19:23.000Z</time>
      </trkpt>
      <trkpt lat="43.59442" lon="2.9629">
        <ele>1087.3</ele>
        <time>2026-05-07T11:19:24.000Z</time>
      </trkpt>
      <trkpt lat="43.59442" lon="2.9629">
        <ele>1087.4</ele>
        <time>2026-05-07T11:19:25.000Z</time>
      </trkpt>
      <trkpt lat="43.59442" lon="2.9629">
        <ele>1087.4</ele>
        <time>2026-05-07T11:19:26.000Z</time>
      </trkpt>
      <trkpt lat="43.59442" lon="2.96291">
        <ele>1087.3</ele>
        <time>2026-05-07T11:19:27.000Z</time>
      </trkpt>
      <trkpt lat="43.59442" lon="2.96291">
        <ele>1087.2</ele>
        <time>2026-05-07T11:19:28.000Z</time>
      </trkpt>
      <trkpt lat="43.59442" lon="2.96291">
        <ele>1087</ele>
        <time>2026-05-07T11:19:29.000Z</time>
      </trkpt>
      <trkpt lat="43.59442" lon="2.96291">
        <ele>1086.9</ele>
        <time>2026-05-07T11:19:30.000Z</time>
      </trkpt>
      <trkpt lat="43.59442" lon="2.96291">
        <ele>1086.8</ele>
        <time>2026-05-07T11:19:31.000Z</time>
      </trkpt>
      <trkpt lat="43.59442" lon="2.96291">
        <ele>1086.5</ele>
        <time>2026-05-07T11:19:32.000Z</time>
      </trkpt>
      <trkpt lat="43.59442" lon="2.96291">
        <ele>1086.5</ele>
        <time>2026-05-07T11:19:33.000Z</time>
      </trkpt>
      <trkpt lat="43.59442" lon="2.96291">
        <ele>1086.4</ele>
        <time>2026-05-07T11:19:34.000Z</time>
      </trkpt>
      <trkpt lat="43.59442" lon="2.96291">
        <ele>1086.4</ele>
        <time>2026-05-07T11:19:35.000Z</time>
      </trkpt>
      <trkpt lat="43.59442" lon="2.96291">
        <ele>1086.4</ele>
        <time>2026-05-07T11:19:36.000Z</time>
      </trkpt>
      <trkpt lat="43.59442" lon="2.96291">
        <ele>1086.3</ele>
        <time>2026-05-07T11:19:37.000Z</time>
      </trkpt>
      <trkpt lat="43.59442" lon="2.96291">
        <ele>1086.2</ele>
        <time>2026-05-07T11:19:38.000Z</time>
      </trkpt>
      <trkpt lat="43.59442" lon="2.96291">
        <ele>1086.1</ele>
        <time>2026-05-07T11:19:39.000Z</time>
      </trkpt>
      <trkpt lat="43.59442" lon="2.96291">
        <ele>1086</ele>
        <time>2026-05-07T11:19:40.000Z</time>
      </trkpt>
      <trkpt lat="43.59442" lon="2.96291">
        <ele>1086.1</ele>
        <time>2026-05-07T11:19:41.000Z</time>
      </trkpt>
      <trkpt lat="43.59442" lon="2.96291">
        <ele>1086</ele>
        <time>2026-05-07T11:19:42.000Z</time>
      </trkpt>
      <trkpt lat="43.59442" lon="2.96291">
        <ele>1085.9</ele>
        <time>2026-05-07T11:19:43.000Z</time>
      </trkpt>
      <trkpt lat="43.59442" lon="2.9629">
        <ele>1085.8</ele>
        <time>2026-05-07T11:19:44.000Z</time>
      </trkpt>
      <trkpt lat="43.59442" lon="2.96289">
        <ele>1085.7</ele>
        <time>2026-05-07T11:19:45.000Z</time>
      </trkpt>
      <trkpt lat="43.59441" lon="2.96289">
        <ele>1085.9</ele>
        <time>2026-05-07T11:19:46.000Z</time>
      </trkpt>
      <trkpt lat="43.59441" lon="2.96289">
        <ele>1086.2</ele>
        <time>2026-05-07T11:19:47.000Z</time>
      </trkpt>
      <trkpt lat="43.59441" lon="2.96289">
        <ele>1086.2</ele>
        <time>2026-05-07T11:19:48.000Z</time>
      </trkpt>
      <trkpt lat="43.59441" lon="2.96289">
        <ele>1086.4</ele>
        <time>2026-05-07T11:19:49.000Z</time>
      </trkpt>
      <trkpt lat="43.59441" lon="2.96289">
        <ele>1086.3</ele>
        <time>2026-05-07T11:19:50.000Z</time>
      </trkpt>
      <trkpt lat="43.59441" lon="2.96289">
        <ele>1086.3</ele>
        <time>2026-05-07T11:19:51.000Z</time>
      </trkpt>
      <trkpt lat="43.59441" lon="2.96289">
        <ele>1086.4</ele>
        <time>2026-05-07T11:19:52.000Z</time>
      </trkpt>
      <trkpt lat="43.59441" lon="2.96289">
        <ele>1086.5</ele>
        <time>2026-05-07T11:19:53.000Z</time>
      </trkpt>
      <trkpt lat="43.59441" lon="2.96289">
        <ele>1086.4</ele>
        <time>2026-05-07T11:19:54.000Z</time>
      </trkpt>
      <trkpt lat="43.59441" lon="2.96289">
        <ele>1086.7</ele>
        <time>2026-05-07T11:19:55.000Z</time>
      </trkpt>
      <trkpt lat="43.59441" lon="2.96289">
        <ele>1086.8</ele>
        <time>2026-05-07T11:19:56.000Z</time>
      </trkpt>
      <trkpt lat="43.59441" lon="2.96289">
        <ele>1086.8</ele>
        <time>2026-05-07T11:19:57.000Z</time>
      </trkpt>
      <trkpt lat="43.59441" lon="2.96289">
        <ele>1087</ele>
        <time>2026-05-07T11:19:58.000Z</time>
      </trkpt>
      <trkpt lat="43.59441" lon="2.96289">
        <ele>1087.1</ele>
        <time>2026-05-07T11:19:59.000Z</time>
      </trkpt>
      <trkpt lat="43.59441" lon="2.96289">
        <ele>1087.3</ele>
        <time>2026-05-07T11:20:00.000Z</time>
      </trkpt>
      <trkpt lat="43.59441" lon="2.96289">
        <ele>1087.4</ele>
        <time>2026-05-07T11:20:01.000Z</time>
      </trkpt>
      <trkpt lat="43.59441" lon="2.96289">
        <ele>1087.5</ele>
        <time>2026-05-07T11:20:02.000Z</time>
      </trkpt>
      <trkpt lat="43.59441" lon="2.96289">
        <ele>1087.5</ele>
        <time>2026-05-07T11:20:03.000Z</time>
      </trkpt>
      <trkpt lat="43.59441" lon="2.96289">
        <ele>1087.7</ele>
        <time>2026-05-07T11:20:04.000Z</time>
      </trkpt>
      <trkpt lat="43.59441" lon="2.96289">
        <ele>1087.7</ele>
        <time>2026-05-07T11:20:05.000Z</time>
      </trkpt>
      <trkpt lat="43.59441" lon="2.96289">
        <ele>1087.8</ele>
        <time>2026-05-07T11:20:06.000Z</time>
      </trkpt>
      <trkpt lat="43.59441" lon="2.96289">
        <ele>1087.9</ele>
        <time>2026-05-07T11:20:07.000Z</time>
      </trkpt>
      <trkpt lat="43.59441" lon="2.96289">
        <ele>1088</ele>
        <time>2026-05-07T11:20:08.000Z</time>
      </trkpt>
      <trkpt lat="43.59441" lon="2.96289">
        <ele>1088.1</ele>
        <time>2026-05-07T11:20:09.000Z</time>
      </trkpt>
      <trkpt lat="43.59441" lon="2.96289">
        <ele>1088.1</ele>
        <time>2026-05-07T11:20:10.000Z</time>
      </trkpt>
      <trkpt lat="43.59441" lon="2.96289">
        <ele>1088.1</ele>
        <time>2026-05-07T11:20:11.000Z</time>
      </trkpt>
      <trkpt lat="43.59441" lon="2.96289">
        <ele>1088.1</ele>
        <time>2026-05-07T11:20:12.000Z</time>
      </trkpt>
      <trkpt lat="43.59441" lon="2.96289">
        <ele>1088.2</ele>
        <time>2026-05-07T11:20:13.000Z</time>
      </trkpt>
      <trkpt lat="43.59442" lon="2.96289">
        <ele>1088.1</ele>
        <time>2026-05-07T11:20:14.000Z</time>
      </trkpt>
      <trkpt lat="43.59442" lon="2.96289">
        <ele>1088</ele>
        <time>2026-05-07T11:20:15.000Z</time>
      </trkpt>
      <trkpt lat="43.59442" lon="2.96289">
        <ele>1088</ele>
        <time>2026-05-07T11:20:16.000Z</time>
      </trkpt>
      <trkpt lat="43.59442" lon="2.96289">
        <ele>1087</ele>
        <time>2026-05-07T11:20:17.000Z</time>
      </trkpt>
      <trkpt lat="43.59442" lon="2.96289">
        <ele>1086.6</ele>
        <time>2026-05-07T11:20:18.000Z</time>
      </trkpt>
      <trkpt lat="43.59442" lon="2.96289">
        <ele>1085.7</ele>
        <time>2026-05-07T11:20:19.000Z</time>
      </trkpt>
      <trkpt lat="43.59442" lon="2.96289">
        <ele>1084.9</ele>
        <time>2026-05-07T11:20:20.000Z</time>
      </trkpt>
      <trkpt lat="43.59442" lon="2.96289">
        <ele>1084.6</ele>
        <time>2026-05-07T11:20:21.000Z</time>
      </trkpt>
      <trkpt lat="43.59442" lon="2.96289">
        <ele>1084.5</ele>
        <time>2026-05-07T11:20:22.000Z</time>
      </trkpt>
      <trkpt lat="43.59441" lon="2.96289">
        <ele>1084.6</ele>
        <time>2026-05-07T11:20:23.000Z</time>
      </trkpt>
      <trkpt lat="43.59442" lon="2.96289">
        <ele>1084.4</ele>
        <time>2026-05-07T11:20:24.000Z</time>
      </trkpt>
      <trkpt lat="43.59442" lon="2.96289">
        <ele>1084.5</ele>
        <time>2026-05-07T11:20:25.000Z</time>
      </trkpt>
      <trkpt lat="43.59442" lon="2.96289">
        <ele>1084.5</ele>
        <time>2026-05-07T11:20:26.000Z</time>
      </trkpt>
      <trkpt lat="43.59442" lon="2.96289">
        <ele>1084.2</ele>
        <time>2026-05-07T11:20:27.000Z</time>
      </trkpt>
      <trkpt lat="43.59442" lon="2.96289">
        <ele>1084</ele>
        <time>2026-05-07T11:20:28.000Z</time>
      </trkpt>
      <trkpt lat="43.59442" lon="2.96289">
        <ele>1084.1</ele>
        <time>2026-05-07T11:20:29.000Z</time>
      </trkpt>
      <trkpt lat="43.59442" lon="2.96289">
        <ele>1084</ele>
        <time>2026-05-07T11:20:30.000Z</time>
      </trkpt>
      <trkpt lat="43.59441" lon="2.96289">
        <ele>1083.7</ele>
        <time>2026-05-07T11:20:31.000Z</time>
      </trkpt>
      <trkpt lat="43.59441" lon="2.96289">
        <ele>1083.3</ele>
        <time>2026-05-07T11:20:32.000Z</time>
      </trkpt>
      <trkpt lat="43.59442" lon="2.96289">
        <ele>1083</ele>
        <time>2026-05-07T11:20:33.000Z</time>
      </trkpt>
      <trkpt lat="43.59441" lon="2.96289">
        <ele>1082.8</ele>
        <time>2026-05-07T11:20:34.000Z</time>
      </trkpt>
      <trkpt lat="43.59441" lon="2.96289">
        <ele>1082.8</ele>
        <time>2026-05-07T11:20:35.000Z</time>
      </trkpt>
      <trkpt lat="43.59442" lon="2.96289">
        <ele>1082.9</ele>
        <time>2026-05-07T11:20:36.000Z</time>
      </trkpt>
      <trkpt lat="43.59442" lon="2.96289">
        <ele>1083</ele>
        <time>2026-05-07T11:20:37.000Z</time>
      </trkpt>
      <trkpt lat="43.59442" lon="2.96289">
        <ele>1082.8</ele>
        <time>2026-05-07T11:20:38.000Z</time>
      </trkpt>
      <trkpt lat="43.59442" lon="2.96289">
        <ele>1082.4</ele>
        <time>2026-05-07T11:20:39.000Z</time>
      </trkpt>
      <trkpt lat="43.59442" lon="2.96289">
        <ele>1082.2</ele>
        <time>2026-05-07T11:20:40.000Z</time>
      </trkpt>
      <trkpt lat="43.59442" lon="2.96289">
        <ele>1082.1</ele>
        <time>2026-05-07T11:20:41.000Z</time>
      </trkpt>
      <trkpt lat="43.59442" lon="2.96289">
        <ele>1082</ele>
        <time>2026-05-07T11:20:42.000Z</time>
      </trkpt>
      <trkpt lat="43.59442" lon="2.9629">
        <ele>1081.9</ele>
        <time>2026-05-07T11:20:43.000Z</time>
      </trkpt>
      <trkpt lat="43.59442" lon="2.9629">
        <ele>1081.8</ele>
        <time>2026-05-07T11:20:44.000Z</time>
      </trkpt>
      <trkpt lat="43.59442" lon="2.9629">
        <ele>1081.8</ele>
        <time>2026-05-07T11:20:45.000Z</time>
      </trkpt>
      <trkpt lat="43.59442" lon="2.9629">
        <ele>1081.8</ele>
        <time>2026-05-07T11:20:46.000Z</time>
      </trkpt>
      <trkpt lat="43.59442" lon="2.9629">
        <ele>1081.7</ele>
        <time>2026-05-07T11:20:47.000Z</time>
      </trkpt>
      <trkpt lat="43.59442" lon="2.9629">
        <ele>1081.6</ele>
        <time>2026-05-07T11:20:48.000Z</time>
      </trkpt>
      <trkpt lat="43.59442" lon="2.9629">
        <ele>1081.4</ele>
        <time>2026-05-07T11:20:49.000Z</time>
      </trkpt>
      <trkpt lat="43.59442" lon="2.9629">
        <ele>1081.4</ele>
        <time>2026-05-07T11:20:50.000Z</time>
      </trkpt>
      <trkpt lat="43.59442" lon="2.9629">
        <ele>1081.2</ele>
        <time>2026-05-07T11:20:51.000Z</time>
      </trkpt>
      <trkpt lat="43.59442" lon="2.9629">
        <ele>1081.1</ele>
        <time>2026-05-07T11:20:52.000Z</time>
      </trkpt>
      <trkpt lat="43.59442" lon="2.9629">
        <ele>1081</ele>
        <time>2026-05-07T11:20:53.000Z</time>
      </trkpt>
      <trkpt lat="43.59442" lon="2.9629">
        <ele>1080.8</ele>
        <time>2026-05-07T11:20:54.000Z</time>
      </trkpt>
      <trkpt lat="43.59442" lon="2.9629">
        <ele>1080.7</ele>
        <time>2026-05-07T11:20:55.000Z</time>
      </trkpt>
      <trkpt lat="43.59442" lon="2.9629">
        <ele>1080.6</ele>
        <time>2026-05-07T11:20:56.000Z</time>
      </trkpt>
      <trkpt lat="43.59442" lon="2.96291">
        <ele>1080.5</ele>
        <time>2026-05-07T11:20:57.000Z</time>
      </trkpt>
      <trkpt lat="43.59442" lon="2.96291">
        <ele>1080.5</ele>
        <time>2026-05-07T11:20:58.000Z</time>
      </trkpt>
      <trkpt lat="43.59442" lon="2.96291">
        <ele>1080.2</ele>
        <time>2026-05-07T11:20:59.000Z</time>
      </trkpt>
      <trkpt lat="43.59442" lon="2.96291">
        <ele>1079.9</ele>
        <time>2026-05-07T11:21:00.000Z</time>
      </trkpt>
      <trkpt lat="43.59442" lon="2.96291">
        <ele>1080</ele>
        <time>2026-05-07T11:21:01.000Z</time>
      </trkpt>
      <trkpt lat="43.59443" lon="2.96291">
        <ele>1080</ele>
        <time>2026-05-07T11:21:02.000Z</time>
      </trkpt>
      <trkpt lat="43.59443" lon="2.96291">
        <ele>1079.9</ele>
        <time>2026-05-07T11:21:03.000Z</time>
      </trkpt>
      <trkpt lat="43.59443" lon="2.96292">
        <ele>1079.7</ele>
        <time>2026-05-07T11:21:04.000Z</time>
      </trkpt>
      <trkpt lat="43.59443" lon="2.96292">
        <ele>1079.2</ele>
        <time>2026-05-07T11:21:05.000Z</time>
      </trkpt>
      <trkpt lat="43.59443" lon="2.96292">
        <ele>1079</ele>
        <time>2026-05-07T11:21:06.000Z</time>
      </trkpt>
      <trkpt lat="43.59443" lon="2.96292">
        <ele>1078.8</ele>
        <time>2026-05-07T11:21:07.000Z</time>
      </trkpt>
      <trkpt lat="43.59443" lon="2.96292">
        <ele>1078.8</ele>
        <time>2026-05-07T11:21:08.000Z</time>
      </trkpt>
      <trkpt lat="43.59443" lon="2.96292">
        <ele>1079</ele>
        <time>2026-05-07T11:21:09.000Z</time>
      </trkpt>
      <trkpt lat="43.59443" lon="2.96292">
        <ele>1079.2</ele>
        <time>2026-05-07T11:21:10.000Z</time>
      </trkpt>
      <trkpt lat="43.59443" lon="2.96292">
        <ele>1079.3</ele>
        <time>2026-05-07T11:21:11.000Z</time>
      </trkpt>
      <trkpt lat="43.59444" lon="2.96293">
        <ele>1079.4</ele>
        <time>2026-05-07T11:21:12.000Z</time>
      </trkpt>
      <trkpt lat="43.59444" lon="2.96293">
        <ele>1079.3</ele>
        <time>2026-05-07T11:21:13.000Z</time>
      </trkpt>
      <trkpt lat="43.59444" lon="2.96293">
        <ele>1079.5</ele>
        <time>2026-05-07T11:21:14.000Z</time>
      </trkpt>
      <trkpt lat="43.59444" lon="2.96293">
        <ele>1079.6</ele>
        <time>2026-05-07T11:21:15.000Z</time>
      </trkpt>
      <trkpt lat="43.59444" lon="2.96293">
        <ele>1079.7</ele>
        <time>2026-05-07T11:21:16.000Z</time>
      </trkpt>
      <trkpt lat="43.59444" lon="2.96293">
        <ele>1079.7</ele>
        <time>2026-05-07T11:21:17.000Z</time>
      </trkpt>
      <trkpt lat="43.59444" lon="2.96293">
        <ele>1079.6</ele>
        <time>2026-05-07T11:21:18.000Z</time>
      </trkpt>
      <trkpt lat="43.59444" lon="2.96293">
        <ele>1079.7</ele>
        <time>2026-05-07T11:21:19.000Z</time>
      </trkpt>
      <trkpt lat="43.59444" lon="2.96293">
        <ele>1079.6</ele>
        <time>2026-05-07T11:21:20.000Z</time>
      </trkpt>
      <trkpt lat="43.59444" lon="2.96293">
        <ele>1079.7</ele>
        <time>2026-05-07T11:21:21.000Z</time>
      </trkpt>
      <trkpt lat="43.59444" lon="2.96294">
        <ele>1079.3</ele>
        <time>2026-05-07T11:21:22.000Z</time>
      </trkpt>
      <trkpt lat="43.59444" lon="2.96294">
        <ele>1079.4</ele>
        <time>2026-05-07T11:21:23.000Z</time>
      </trkpt>
      <trkpt lat="43.59444" lon="2.96294">
        <ele>1079.4</ele>
        <time>2026-05-07T11:21:24.000Z</time>
      </trkpt>
      <trkpt lat="43.59444" lon="2.96294">
        <ele>1079.6</ele>
        <time>2026-05-07T11:21:25.000Z</time>
      </trkpt>
      <trkpt lat="43.59444" lon="2.96294">
        <ele>1079.8</ele>
        <time>2026-05-07T11:21:26.000Z</time>
      </trkpt>
      <trkpt lat="43.59444" lon="2.96294">
        <ele>1080</ele>
        <time>2026-05-07T11:21:27.000Z</time>
      </trkpt>
      <trkpt lat="43.59444" lon="2.96294">
        <ele>1080.3</ele>
        <time>2026-05-07T11:21:28.000Z</time>
      </trkpt>
      <trkpt lat="43.59444" lon="2.96294">
        <ele>1080.4</ele>
        <time>2026-05-07T11:21:29.000Z</time>
      </trkpt>
      <trkpt lat="43.59444" lon="2.96294">
        <ele>1080.4</ele>
        <time>2026-05-07T11:21:30.000Z</time>
      </trkpt>
      <trkpt lat="43.59444" lon="2.96294">
        <ele>1080.3</ele>
        <time>2026-05-07T11:21:31.000Z</time>
      </trkpt>
      <trkpt lat="43.59444" lon="2.96294">
        <ele>1080</ele>
        <time>2026-05-07T11:21:32.000Z</time>
      </trkpt>
      <trkpt lat="43.59443" lon="2.96294">
        <ele>1079.9</ele>
        <time>2026-05-07T11:21:33.000Z</time>
      </trkpt>
      <trkpt lat="43.59443" lon="2.96293">
        <ele>1079.9</ele>
        <time>2026-05-07T11:21:34.000Z</time>
      </trkpt>
      <trkpt lat="43.59443" lon="2.96293">
        <ele>1079.9</ele>
        <time>2026-05-07T11:21:35.000Z</time>
      </trkpt>
      <trkpt lat="43.59444" lon="2.96293">
        <ele>1079.8</ele>
        <time>2026-05-07T11:21:36.000Z</time>
      </trkpt>
      <trkpt lat="43.59444" lon="2.96293">
        <ele>1079.8</ele>
        <time>2026-05-07T11:21:37.000Z</time>
      </trkpt>
      <trkpt lat="43.59444" lon="2.96293">
        <ele>1079.9</ele>
        <time>2026-05-07T11:21:38.000Z</time>
      </trkpt>
      <trkpt lat="43.59444" lon="2.96293">
        <ele>1080</ele>
        <time>2026-05-07T11:21:39.000Z</time>
      </trkpt>
      <trkpt lat="43.59444" lon="2.96293">
        <ele>1080.1</ele>
        <time>2026-05-07T11:21:40.000Z</time>
      </trkpt>
      <trkpt lat="43.59444" lon="2.96293">
        <ele>1080</ele>
        <time>2026-05-07T11:21:41.000Z</time>
      </trkpt>
      <trkpt lat="43.59444" lon="2.96293">
        <ele>1079.8</ele>
        <time>2026-05-07T11:21:42.000Z</time>
      </trkpt>
      <trkpt lat="43.59444" lon="2.96293">
        <ele>1079.6</ele>
        <time>2026-05-07T11:21:43.000Z</time>
      </trkpt>
      <trkpt lat="43.59444" lon="2.96293">
        <ele>1079.5</ele>
        <time>2026-05-07T11:21:44.000Z</time>
      </trkpt>
      <trkpt lat="43.59444" lon="2.96293">
        <ele>1079.8</ele>
        <time>2026-05-07T11:21:45.000Z</time>
      </trkpt>
      <trkpt lat="43.59444" lon="2.96293">
        <ele>1079.9</ele>
        <time>2026-05-07T11:21:46.000Z</time>
      </trkpt>
      <trkpt lat="43.59444" lon="2.96293">
        <ele>1080</ele>
        <time>2026-05-07T11:21:47.000Z</time>
      </trkpt>
      <trkpt lat="43.59444" lon="2.96293">
        <ele>1080.3</ele>
        <time>2026-05-07T11:21:48.000Z</time>
      </trkpt>
      <trkpt lat="43.59444" lon="2.96293">
        <ele>1080.5</ele>
        <time>2026-05-07T11:21:49.000Z</time>
      </trkpt>
      <trkpt lat="43.59444" lon="2.96293">
        <ele>1080.6</ele>
        <time>2026-05-07T11:21:50.000Z</time>
      </trkpt>
      <trkpt lat="43.59444" lon="2.96293">
        <ele>1080.8</ele>
        <time>2026-05-07T11:21:51.000Z</time>
      </trkpt>
      <trkpt lat="43.59444" lon="2.96293">
        <ele>1080.9</ele>
        <time>2026-05-07T11:21:52.000Z</time>
      </trkpt>
      <trkpt lat="43.59444" lon="2.96293">
        <ele>1081</ele>
        <time>2026-05-07T11:21:53.000Z</time>
      </trkpt>
      <trkpt lat="43.59444" lon="2.96293">
        <ele>1081</ele>
        <time>2026-05-07T11:21:54.000Z</time>
      </trkpt>
      <trkpt lat="43.59444" lon="2.96293">
        <ele>1081.1</ele>
        <time>2026-05-07T11:21:55.000Z</time>
      </trkpt>
      <trkpt lat="43.59444" lon="2.96293">
        <ele>1081.3</ele>
        <time>2026-05-07T11:21:56.000Z</time>
      </trkpt>
      <trkpt lat="43.59444" lon="2.96293">
        <ele>1081.6</ele>
        <time>2026-05-07T11:21:57.000Z</time>
      </trkpt>
      <trkpt lat="43.59444" lon="2.96293">
        <ele>1081.8</ele>
        <time>2026-05-07T11:21:58.000Z</time>
      </trkpt>
      <trkpt lat="43.59444" lon="2.96293">
        <ele>1082.2</ele>
        <time>2026-05-07T11:21:59.000Z</time>
      </trkpt>
      <trkpt lat="43.59444" lon="2.96293">
        <ele>1082.3</ele>
        <time>2026-05-07T11:22:00.000Z</time>
      </trkpt>
      <trkpt lat="43.59444" lon="2.96293">
        <ele>1082.4</ele>
        <time>2026-05-07T11:22:01.000Z</time>
      </trkpt>
      <trkpt lat="43.59444" lon="2.96293">
        <ele>1082.4</ele>
        <time>2026-05-07T11:22:02.000Z</time>
      </trkpt>
      <trkpt lat="43.59444" lon="2.96293">
        <ele>1082.2</ele>
        <time>2026-05-07T11:22:03.000Z</time>
      </trkpt>
      <trkpt lat="43.59444" lon="2.96293">
        <ele>1082</ele>
        <time>2026-05-07T11:22:04.000Z</time>
      </trkpt>
      <trkpt lat="43.59444" lon="2.96293">
        <ele>1081.9</ele>
        <time>2026-05-07T11:22:05.000Z</time>
      </trkpt>
      <trkpt lat="43.59444" lon="2.96293">
        <ele>1082.1</ele>
        <time>2026-05-07T11:22:06.000Z</time>
      </trkpt>
      <trkpt lat="43.59444" lon="2.96293">
        <ele>1082.3</ele>
        <time>2026-05-07T11:22:07.000Z</time>
      </trkpt>
      <trkpt lat="43.59444" lon="2.96293">
        <ele>1082.4</ele>
        <time>2026-05-07T11:22:08.000Z</time>
      </trkpt>
      <trkpt lat="43.59444" lon="2.96293">
        <ele>1082.7</ele>
        <time>2026-05-07T11:22:09.000Z</time>
      </trkpt>
      <trkpt lat="43.59444" lon="2.96293">
        <ele>1082.9</ele>
        <time>2026-05-07T11:22:10.000Z</time>
      </trkpt>
      <trkpt lat="43.59444" lon="2.96293">
        <ele>1082.9</ele>
        <time>2026-05-07T11:22:11.000Z</time>
      </trkpt>
      <trkpt lat="43.59444" lon="2.96293">
        <ele>1082.7</ele>
        <time>2026-05-07T11:22:12.000Z</time>
      </trkpt>
      <trkpt lat="43.59444" lon="2.96293">
        <ele>1082.3</ele>
        <time>2026-05-07T11:22:13.000Z</time>
      </trkpt>
      <trkpt lat="43.59444" lon="2.96293">
        <ele>1082.1</ele>
        <time>2026-05-07T11:22:14.000Z</time>
      </trkpt>
      <trkpt lat="43.59444" lon="2.96293">
        <ele>1082.2</ele>
        <time>2026-05-07T11:22:15.000Z</time>
      </trkpt>
      <trkpt lat="43.59444" lon="2.96293">
        <ele>1082.1</ele>
        <time>2026-05-07T11:22:16.000Z</time>
      </trkpt>
      <trkpt lat="43.59444" lon="2.96293">
        <ele>1082.1</ele>
        <time>2026-05-07T11:22:17.000Z</time>
      </trkpt>
      <trkpt lat="43.59444" lon="2.96293">
        <ele>1081.9</ele>
        <time>2026-05-07T11:22:18.000Z</time>
      </trkpt>
      <trkpt lat="43.59444" lon="2.96293">
        <ele>1082.1</ele>
        <time>2026-05-07T11:22:19.000Z</time>
      </trkpt>
      <trkpt lat="43.59444" lon="2.96293">
        <ele>1082.3</ele>
        <time>2026-05-07T11:22:20.000Z</time>
      </trkpt>
      <trkpt lat="43.59444" lon="2.96293">
        <ele>1082.4</ele>
        <time>2026-05-07T11:22:21.000Z</time>
      </trkpt>
      <trkpt lat="43.59444" lon="2.96292">
        <ele>1082.7</ele>
        <time>2026-05-07T11:22:22.000Z</time>
      </trkpt>
      <trkpt lat="43.59445" lon="2.96292">
        <ele>1082.6</ele>
        <time>2026-05-07T11:22:23.000Z</time>
      </trkpt>
      <trkpt lat="43.59445" lon="2.96292">
        <ele>1082.6</ele>
        <time>2026-05-07T11:22:24.000Z</time>
      </trkpt>
      <trkpt lat="43.59445" lon="2.96292">
        <ele>1082.5</ele>
        <time>2026-05-07T11:22:25.000Z</time>
      </trkpt>
      <trkpt lat="43.59445" lon="2.96292">
        <ele>1082.5</ele>
        <time>2026-05-07T11:22:26.000Z</time>
      </trkpt>
      <trkpt lat="43.59445" lon="2.96291">
        <ele>1082.7</ele>
        <time>2026-05-07T11:22:27.000Z</time>
      </trkpt>
      <trkpt lat="43.59445" lon="2.96291">
        <ele>1082.8</ele>
        <time>2026-05-07T11:22:28.000Z</time>
      </trkpt>
      <trkpt lat="43.59445" lon="2.96291">
        <ele>1082.9</ele>
        <time>2026-05-07T11:22:29.000Z</time>
      </trkpt>
      <trkpt lat="43.59445" lon="2.96291">
        <ele>1083.1</ele>
        <time>2026-05-07T11:22:30.000Z</time>
      </trkpt>
      <trkpt lat="43.59445" lon="2.96291">
        <ele>1083</ele>
        <time>2026-05-07T11:22:31.000Z</time>
      </trkpt>
      <trkpt lat="43.59445" lon="2.96291">
        <ele>1082.9</ele>
        <time>2026-05-07T11:22:32.000Z</time>
      </trkpt>
      <trkpt lat="43.59445" lon="2.96291">
        <ele>1082.8</ele>
        <time>2026-05-07T11:22:33.000Z</time>
      </trkpt>
      <trkpt lat="43.59445" lon="2.96291">
        <ele>1082.7</ele>
        <time>2026-05-07T11:22:34.000Z</time>
      </trkpt>
      <trkpt lat="43.59446" lon="2.96291">
        <ele>1082.5</ele>
        <time>2026-05-07T11:22:35.000Z</time>
      </trkpt>
      <trkpt lat="43.59446" lon="2.96291">
        <ele>1082.5</ele>
        <time>2026-05-07T11:22:36.000Z</time>
      </trkpt>
      <trkpt lat="43.59446" lon="2.96292">
        <ele>1082.5</ele>
        <time>2026-05-07T11:22:37.000Z</time>
      </trkpt>
      <trkpt lat="43.59446" lon="2.96292">
        <ele>1082.7</ele>
        <time>2026-05-07T11:22:38.000Z</time>
      </trkpt>
      <trkpt lat="43.59446" lon="2.96292">
        <ele>1082.8</ele>
        <time>2026-05-07T11:22:39.000Z</time>
      </trkpt>
      <trkpt lat="43.59446" lon="2.96292">
        <ele>1083</ele>
        <time>2026-05-07T11:22:40.000Z</time>
      </trkpt>
      <trkpt lat="43.59446" lon="2.96292">
        <ele>1083.1</ele>
        <time>2026-05-07T11:22:41.000Z</time>
      </trkpt>
      <trkpt lat="43.59446" lon="2.96292">
        <ele>1083.1</ele>
        <time>2026-05-07T11:22:42.000Z</time>
      </trkpt>
      <trkpt lat="43.59447" lon="2.96292">
        <ele>1082.8</ele>
        <time>2026-05-07T11:22:43.000Z</time>
      </trkpt>
      <trkpt lat="43.59447" lon="2.96292">
        <ele>1082.8</ele>
        <time>2026-05-07T11:22:44.000Z</time>
      </trkpt>
      <trkpt lat="43.59447" lon="2.96292">
        <ele>1082.9</ele>
        <time>2026-05-07T11:22:45.000Z</time>
      </trkpt>
      <trkpt lat="43.59447" lon="2.96292">
        <ele>1083.1</ele>
        <time>2026-05-07T11:22:46.000Z</time>
      </trkpt>
      <trkpt lat="43.59447" lon="2.96292">
        <ele>1083.3</ele>
        <time>2026-05-07T11:22:47.000Z</time>
      </trkpt>
      <trkpt lat="43.59447" lon="2.96292">
        <ele>1083.4</ele>
        <time>2026-05-07T11:22:48.000Z</time>
      </trkpt>
      <trkpt lat="43.59447" lon="2.96292">
        <ele>1083.3</ele>
        <time>2026-05-07T11:22:49.000Z</time>
      </trkpt>
      <trkpt lat="43.59447" lon="2.96292">
        <ele>1083</ele>
        <time>2026-05-07T11:22:50.000Z</time>
      </trkpt>
      <trkpt lat="43.59447" lon="2.96292">
        <ele>1082.4</ele>
        <time>2026-05-07T11:22:51.000Z</time>
      </trkpt>
      <trkpt lat="43.59447" lon="2.96293">
        <ele>1082.1</ele>
        <time>2026-05-07T11:22:52.000Z</time>
      </trkpt>
      <trkpt lat="43.59447" lon="2.96293">
        <ele>1081.8</ele>
        <time>2026-05-07T11:22:53.000Z</time>
      </trkpt>
      <trkpt lat="43.59448" lon="2.96293">
        <ele>1081.8</ele>
        <time>2026-05-07T11:22:54.000Z</time>
      </trkpt>
      <trkpt lat="43.59448" lon="2.96293">
        <ele>1081.8</ele>
        <time>2026-05-07T11:22:55.000Z</time>
      </trkpt>
      <trkpt lat="43.59448" lon="2.96293">
        <ele>1082</ele>
        <time>2026-05-07T11:22:56.000Z</time>
      </trkpt>
      <trkpt lat="43.59448" lon="2.96293">
        <ele>1082.1</ele>
        <time>2026-05-07T11:22:57.000Z</time>
      </trkpt>
      <trkpt lat="43.59448" lon="2.96293">
        <ele>1081.9</ele>
        <time>2026-05-07T11:22:58.000Z</time>
      </trkpt>
      <trkpt lat="43.59449" lon="2.96294">
        <ele>1081.8</ele>
        <time>2026-05-07T11:22:59.000Z</time>
      </trkpt>
      <trkpt lat="43.59449" lon="2.96294">
        <ele>1081.5</ele>
        <time>2026-05-07T11:23:00.000Z</time>
      </trkpt>
      <trkpt lat="43.59449" lon="2.96294">
        <ele>1081.5</ele>
        <time>2026-05-07T11:23:01.000Z</time>
      </trkpt>
      <trkpt lat="43.59449" lon="2.96294">
        <ele>1081.3</ele>
        <time>2026-05-07T11:23:02.000Z</time>
      </trkpt>
      <trkpt lat="43.59449" lon="2.96294">
        <ele>1081.2</ele>
        <time>2026-05-07T11:23:03.000Z</time>
      </trkpt>
      <trkpt lat="43.59449" lon="2.96294">
        <ele>1081</ele>
        <time>2026-05-07T11:23:04.000Z</time>
      </trkpt>
      <trkpt lat="43.59449" lon="2.96295">
        <ele>1081.1</ele>
        <time>2026-05-07T11:23:05.000Z</time>
      </trkpt>
      <trkpt lat="43.5945" lon="2.96295">
        <ele>1080.6</ele>
        <time>2026-05-07T11:23:06.000Z</time>
      </trkpt>
      <trkpt lat="43.5945" lon="2.96295">
        <ele>1080.6</ele>
        <time>2026-05-07T11:23:07.000Z</time>
      </trkpt>
      <trkpt lat="43.5945" lon="2.96295">
        <ele>1080.3</ele>
        <time>2026-05-07T11:23:08.000Z</time>
      </trkpt>
      <trkpt lat="43.5945" lon="2.96296">
        <ele>1080.3</ele>
        <time>2026-05-07T11:23:09.000Z</time>
      </trkpt>
      <trkpt lat="43.59452" lon="2.96297">
        <ele>1079.8</ele>
        <time>2026-05-07T11:23:10.000Z</time>
      </trkpt>
      <trkpt lat="43.59453" lon="2.96298">
        <ele>1079.6</ele>
        <time>2026-05-07T11:23:11.000Z</time>
      </trkpt>
      <trkpt lat="43.59455" lon="2.963">
        <ele>1079.2</ele>
        <time>2026-05-07T11:23:12.000Z</time>
      </trkpt>
      <trkpt lat="43.59455" lon="2.963">
        <ele>1079.2</ele>
        <time>2026-05-07T11:23:13.000Z</time>
      </trkpt>
      <trkpt lat="43.59455" lon="2.963">
        <ele>1079.2</ele>
        <time>2026-05-07T11:23:14.000Z</time>
      </trkpt>
      <trkpt lat="43.59455" lon="2.96301">
        <ele>1078.8</ele>
        <time>2026-05-07T11:23:15.000Z</time>
      </trkpt>
      <trkpt lat="43.59455" lon="2.96301">
        <ele>1078.8</ele>
        <time>2026-05-07T11:23:16.000Z</time>
      </trkpt>
      <trkpt lat="43.59455" lon="2.96301">
        <ele>1078.9</ele>
        <time>2026-05-07T11:23:17.000Z</time>
      </trkpt>
      <trkpt lat="43.59456" lon="2.96302">
        <ele>1078.9</ele>
        <time>2026-05-07T11:23:18.000Z</time>
      </trkpt>
      <trkpt lat="43.59456" lon="2.96302">
        <ele>1078.9</ele>
        <time>2026-05-07T11:23:19.000Z</time>
      </trkpt>
      <trkpt lat="43.59458" lon="2.96303">
        <ele>1078.9</ele>
        <time>2026-05-07T11:23:20.000Z</time>
      </trkpt>
      <trkpt lat="43.59459" lon="2.96303">
        <ele>1078.9</ele>
        <time>2026-05-07T11:23:21.000Z</time>
      </trkpt>
      <trkpt lat="43.5946" lon="2.96304">
        <ele>1078.7</ele>
        <time>2026-05-07T11:23:22.000Z</time>
      </trkpt>
      <trkpt lat="43.59461" lon="2.96305">
        <ele>1078.2</ele>
        <time>2026-05-07T11:23:23.000Z</time>
      </trkpt>
      <trkpt lat="43.59462" lon="2.96306">
        <ele>1077.7</ele>
        <time>2026-05-07T11:23:24.000Z</time>
      </trkpt>
      <trkpt lat="43.59462" lon="2.96306">
        <ele>1077.4</ele>
        <time>2026-05-07T11:23:25.000Z</time>
      </trkpt>
      <trkpt lat="43.59463" lon="2.96306">
        <ele>1077</ele>
        <time>2026-05-07T11:23:26.000Z</time>
      </trkpt>
      <trkpt lat="43.59463" lon="2.96306">
        <ele>1076.7</ele>
        <time>2026-05-07T11:23:27.000Z</time>
      </trkpt>
      <trkpt lat="43.59463" lon="2.96306">
        <ele>1076.2</ele>
        <time>2026-05-07T11:23:28.000Z</time>
      </trkpt>
      <trkpt lat="43.59463" lon="2.96306">
        <ele>1076.2</ele>
        <time>2026-05-07T11:23:29.000Z</time>
      </trkpt>
      <trkpt lat="43.59463" lon="2.96306">
        <ele>1076.5</ele>
        <time>2026-05-07T11:23:30.000Z</time>
      </trkpt>
      <trkpt lat="43.59463" lon="2.96306">
        <ele>1076.3</ele>
        <time>2026-05-07T11:23:31.000Z</time>
      </trkpt>
      <trkpt lat="43.59463" lon="2.96307">
        <ele>1075.8</ele>
        <time>2026-05-07T11:23:32.000Z</time>
      </trkpt>
      <trkpt lat="43.59463" lon="2.96307">
        <ele>1075.4</ele>
        <time>2026-05-07T11:23:33.000Z</time>
      </trkpt>
      <trkpt lat="43.59464" lon="2.96307">
        <ele>1075.3</ele>
        <time>2026-05-07T11:23:34.000Z</time>
      </trkpt>
      <trkpt lat="43.59464" lon="2.96307">
        <ele>1075.2</ele>
        <time>2026-05-07T11:23:35.000Z</time>
      </trkpt>
      <trkpt lat="43.59464" lon="2.96307">
        <ele>1074.8</ele>
        <time>2026-05-07T11:23:36.000Z</time>
      </trkpt>
      <trkpt lat="43.59464" lon="2.96307">
        <ele>1074.3</ele>
        <time>2026-05-07T11:23:37.000Z</time>
      </trkpt>
      <trkpt lat="43.59464" lon="2.96307">
        <ele>1074.1</ele>
        <time>2026-05-07T11:23:38.000Z</time>
      </trkpt>
      <trkpt lat="43.59464" lon="2.96307">
        <ele>1073.7</ele>
        <time>2026-05-07T11:23:39.000Z</time>
      </trkpt>
      <trkpt lat="43.59465" lon="2.96308">
        <ele>1073.4</ele>
        <time>2026-05-07T11:23:40.000Z</time>
      </trkpt>
      <trkpt lat="43.59465" lon="2.96309">
        <ele>1073.3</ele>
        <time>2026-05-07T11:23:41.000Z</time>
      </trkpt>
      <trkpt lat="43.59465" lon="2.96309">
        <ele>1073.4</ele>
        <time>2026-05-07T11:23:42.000Z</time>
      </trkpt>
      <trkpt lat="43.59466" lon="2.9631">
        <ele>1073.4</ele>
        <time>2026-05-07T11:23:43.000Z</time>
      </trkpt>
      <trkpt lat="43.59466" lon="2.9631">
        <ele>1073.4</ele>
        <time>2026-05-07T11:23:44.000Z</time>
      </trkpt>
      <trkpt lat="43.59466" lon="2.96312">
        <ele>1073.2</ele>
        <time>2026-05-07T11:23:45.000Z</time>
      </trkpt>
      <trkpt lat="43.59466" lon="2.96312">
        <ele>1073</ele>
        <time>2026-05-07T11:23:46.000Z</time>
      </trkpt>
      <trkpt lat="43.59466" lon="2.96312">
        <ele>1072.8</ele>
        <time>2026-05-07T11:23:47.000Z</time>
      </trkpt>
      <trkpt lat="43.59466" lon="2.96313">
        <ele>1072.5</ele>
        <time>2026-05-07T11:23:48.000Z</time>
      </trkpt>
      <trkpt lat="43.59466" lon="2.96313">
        <ele>1072.2</ele>
        <time>2026-05-07T11:23:49.000Z</time>
      </trkpt>
      <trkpt lat="43.59466" lon="2.96313">
        <ele>1071.9</ele>
        <time>2026-05-07T11:23:50.000Z</time>
      </trkpt>
      <trkpt lat="43.59467" lon="2.96314">
        <ele>1071.8</ele>
        <time>2026-05-07T11:23:51.000Z</time>
      </trkpt>
      <trkpt lat="43.59467" lon="2.96316">
        <ele>1071.4</ele>
        <time>2026-05-07T11:23:52.000Z</time>
      </trkpt>
      <trkpt lat="43.59468" lon="2.96317">
        <ele>1071</ele>
        <time>2026-05-07T11:23:53.000Z</time>
      </trkpt>
      <trkpt lat="43.59469" lon="2.96317">
        <ele>1071.1</ele>
        <time>2026-05-07T11:23:54.000Z</time>
      </trkpt>
      <trkpt lat="43.59469" lon="2.96318">
        <ele>1071.2</ele>
        <time>2026-05-07T11:23:55.000Z</time>
      </trkpt>
      <trkpt lat="43.59469" lon="2.96318">
        <ele>1071.3</ele>
        <time>2026-05-07T11:23:56.000Z</time>
      </trkpt>
      <trkpt lat="43.59469" lon="2.96318">
        <ele>1071.3</ele>
        <time>2026-05-07T11:23:57.000Z</time>
      </trkpt>
      <trkpt lat="43.59469" lon="2.96318">
        <ele>1071.2</ele>
        <time>2026-05-07T11:23:58.000Z</time>
      </trkpt>
      <trkpt lat="43.59468" lon="2.96318">
        <ele>1071.1</ele>
        <time>2026-05-07T11:23:59.000Z</time>
      </trkpt>
      <trkpt lat="43.59469" lon="2.96318">
        <ele>1071.1</ele>
        <time>2026-05-07T11:24:00.000Z</time>
      </trkpt>
      <trkpt lat="43.59469" lon="2.96318">
        <ele>1070.9</ele>
        <time>2026-05-07T11:24:01.000Z</time>
      </trkpt>
      <trkpt lat="43.59469" lon="2.96319">
        <ele>1070.7</ele>
        <time>2026-05-07T11:24:02.000Z</time>
      </trkpt>
      <trkpt lat="43.59469" lon="2.9632">
        <ele>1070.6</ele>
        <time>2026-05-07T11:24:03.000Z</time>
      </trkpt>
      <trkpt lat="43.5947" lon="2.96321">
        <ele>1070.5</ele>
        <time>2026-05-07T11:24:04.000Z</time>
      </trkpt>
      <trkpt lat="43.5947" lon="2.96321">
        <ele>1070.4</ele>
        <time>2026-05-07T11:24:05.000Z</time>
      </trkpt>
      <trkpt lat="43.59471" lon="2.96321">
        <ele>1070.3</ele>
        <time>2026-05-07T11:24:06.000Z</time>
      </trkpt>
      <trkpt lat="43.59471" lon="2.96321">
        <ele>1070.2</ele>
        <time>2026-05-07T11:24:07.000Z</time>
      </trkpt>
      <trkpt lat="43.59471" lon="2.96323">
        <ele>1069.9</ele>
        <time>2026-05-07T11:24:08.000Z</time>
      </trkpt>
      <trkpt lat="43.59471" lon="2.96324">
        <ele>1069.7</ele>
        <time>2026-05-07T11:24:09.000Z</time>
      </trkpt>
      <trkpt lat="43.59471" lon="2.96326">
        <ele>1069.4</ele>
        <time>2026-05-07T11:24:10.000Z</time>
      </trkpt>
      <trkpt lat="43.59472" lon="2.96326">
        <ele>1069.5</ele>
        <time>2026-05-07T11:24:11.000Z</time>
      </trkpt>
      <trkpt lat="43.59472" lon="2.96328">
        <ele>1069.1</ele>
        <time>2026-05-07T11:24:12.000Z</time>
      </trkpt>
      <trkpt lat="43.59472" lon="2.96329">
        <ele>1069.1</ele>
        <time>2026-05-07T11:24:13.000Z</time>
      </trkpt>
      <trkpt lat="43.59471" lon="2.96329">
        <ele>1068.8</ele>
        <time>2026-05-07T11:24:14.000Z</time>
      </trkpt>
      <trkpt lat="43.59472" lon="2.9633">
        <ele>1068.5</ele>
        <time>2026-05-07T11:24:15.000Z</time>
      </trkpt>
      <trkpt lat="43.59471" lon="2.96332">
        <ele>1068.2</ele>
        <time>2026-05-07T11:24:16.000Z</time>
      </trkpt>
      <trkpt lat="43.59471" lon="2.96333">
        <ele>1067.8</ele>
        <time>2026-05-07T11:24:17.000Z</time>
      </trkpt>
      <trkpt lat="43.59471" lon="2.96334">
        <ele>1067.7</ele>
        <time>2026-05-07T11:24:18.000Z</time>
      </trkpt>
      <trkpt lat="43.59471" lon="2.96335">
        <ele>1067.6</ele>
        <time>2026-05-07T11:24:19.000Z</time>
      </trkpt>
      <trkpt lat="43.59471" lon="2.96336">
        <ele>1067.1</ele>
        <time>2026-05-07T11:24:20.000Z</time>
      </trkpt>
      <trkpt lat="43.59471" lon="2.96336">
        <ele>1067.3</ele>
        <time>2026-05-07T11:24:21.000Z</time>
      </trkpt>
      <trkpt lat="43.59471" lon="2.96336">
        <ele>1067.1</ele>
        <time>2026-05-07T11:24:22.000Z</time>
      </trkpt>
      <trkpt lat="43.59471" lon="2.96336">
        <ele>1067.1</ele>
        <time>2026-05-07T11:24:23.000Z</time>
      </trkpt>
      <trkpt lat="43.59471" lon="2.96337">
        <ele>1066.7</ele>
        <time>2026-05-07T11:24:24.000Z</time>
      </trkpt>
      <trkpt lat="43.59472" lon="2.96338">
        <ele>1066.8</ele>
        <time>2026-05-07T11:24:25.000Z</time>
      </trkpt>
      <trkpt lat="43.59472" lon="2.96339">
        <ele>1067.1</ele>
        <time>2026-05-07T11:24:26.000Z</time>
      </trkpt>
      <trkpt lat="43.59473" lon="2.9634">
        <ele>1067</ele>
        <time>2026-05-07T11:24:27.000Z</time>
      </trkpt>
      <trkpt lat="43.59474" lon="2.9634">
        <ele>1066.7</ele>
        <time>2026-05-07T11:24:28.000Z</time>
      </trkpt>
      <trkpt lat="43.59475" lon="2.9634">
        <ele>1066.5</ele>
        <time>2026-05-07T11:24:29.000Z</time>
      </trkpt>
      <trkpt lat="43.59475" lon="2.96341">
        <ele>1066.2</ele>
        <time>2026-05-07T11:24:30.000Z</time>
      </trkpt>
      <trkpt lat="43.59476" lon="2.96341">
        <ele>1065.9</ele>
        <time>2026-05-07T11:24:31.000Z</time>
      </trkpt>
      <trkpt lat="43.59477" lon="2.9634">
        <ele>1065.9</ele>
        <time>2026-05-07T11:24:32.000Z</time>
      </trkpt>
      <trkpt lat="43.59478" lon="2.96341">
        <ele>1066</ele>
        <time>2026-05-07T11:24:33.000Z</time>
      </trkpt>
      <trkpt lat="43.59478" lon="2.96341">
        <ele>1065.8</ele>
        <time>2026-05-07T11:24:34.000Z</time>
      </trkpt>
      <trkpt lat="43.59479" lon="2.96341">
        <ele>1066.2</ele>
        <time>2026-05-07T11:24:35.000Z</time>
      </trkpt>
      <trkpt lat="43.59479" lon="2.96341">
        <ele>1066</ele>
        <time>2026-05-07T11:24:36.000Z</time>
      </trkpt>
      <trkpt lat="43.59479" lon="2.96341">
        <ele>1065.9</ele>
        <time>2026-05-07T11:24:37.000Z</time>
      </trkpt>
      <trkpt lat="43.59479" lon="2.96341">
        <ele>1065.7</ele>
        <time>2026-05-07T11:24:38.000Z</time>
      </trkpt>
      <trkpt lat="43.59479" lon="2.96342">
        <ele>1065.6</ele>
        <time>2026-05-07T11:24:39.000Z</time>
      </trkpt>
      <trkpt lat="43.59479" lon="2.96342">
        <ele>1065.5</ele>
        <time>2026-05-07T11:24:40.000Z</time>
      </trkpt>
      <trkpt lat="43.59479" lon="2.96342">
        <ele>1065.5</ele>
        <time>2026-05-07T11:24:41.000Z</time>
      </trkpt>
      <trkpt lat="43.59479" lon="2.96342">
        <ele>1065.6</ele>
        <time>2026-05-07T11:24:42.000Z</time>
      </trkpt>
      <trkpt lat="43.59479" lon="2.96342">
        <ele>1065.5</ele>
        <time>2026-05-07T11:24:43.000Z</time>
      </trkpt>
      <trkpt lat="43.59479" lon="2.96342">
        <ele>1065.4</ele>
        <time>2026-05-07T11:24:44.000Z</time>
      </trkpt>
      <trkpt lat="43.59479" lon="2.96343">
        <ele>1065.2</ele>
        <time>2026-05-07T11:24:45.000Z</time>
      </trkpt>
      <trkpt lat="43.59479" lon="2.96344">
        <ele>1065.2</ele>
        <time>2026-05-07T11:24:46.000Z</time>
      </trkpt>
      <trkpt lat="43.59478" lon="2.96344">
        <ele>1065</ele>
        <time>2026-05-07T11:24:47.000Z</time>
      </trkpt>
      <trkpt lat="43.59478" lon="2.96344">
        <ele>1064.8</ele>
        <time>2026-05-07T11:24:48.000Z</time>
      </trkpt>
      <trkpt lat="43.59478" lon="2.96344">
        <ele>1064.7</ele>
        <time>2026-05-07T11:24:49.000Z</time>
      </trkpt>
      <trkpt lat="43.59478" lon="2.96344">
        <ele>1064.6</ele>
        <time>2026-05-07T11:24:50.000Z</time>
      </trkpt>
      <trkpt lat="43.59478" lon="2.96344">
        <ele>1064.2</ele>
        <time>2026-05-07T11:24:51.000Z</time>
      </trkpt>
      <trkpt lat="43.59478" lon="2.96344">
        <ele>1064</ele>
        <time>2026-05-07T11:24:52.000Z</time>
      </trkpt>
      <trkpt lat="43.59478" lon="2.96345">
        <ele>1063.9</ele>
        <time>2026-05-07T11:24:53.000Z</time>
      </trkpt>
      <trkpt lat="43.59478" lon="2.96345">
        <ele>1063.7</ele>
        <time>2026-05-07T11:24:54.000Z</time>
      </trkpt>
      <trkpt lat="43.59478" lon="2.96345">
        <ele>1063.8</ele>
        <time>2026-05-07T11:24:55.000Z</time>
      </trkpt>
      <trkpt lat="43.59478" lon="2.96345">
        <ele>1064</ele>
        <time>2026-05-07T11:24:56.000Z</time>
      </trkpt>
      <trkpt lat="43.59478" lon="2.96345">
        <ele>1064.1</ele>
        <time>2026-05-07T11:24:57.000Z</time>
      </trkpt>
      <trkpt lat="43.59478" lon="2.96346">
        <ele>1064</ele>
        <time>2026-05-07T11:24:58.000Z</time>
      </trkpt>
      <trkpt lat="43.59478" lon="2.96346">
        <ele>1063.6</ele>
        <time>2026-05-07T11:24:59.000Z</time>
      </trkpt>
      <trkpt lat="43.59477" lon="2.96347">
        <ele>1063.1</ele>
        <time>2026-05-07T11:25:00.000Z</time>
      </trkpt>
      <trkpt lat="43.59476" lon="2.96348">
        <ele>1062.2</ele>
        <time>2026-05-07T11:25:01.000Z</time>
      </trkpt>
      <trkpt lat="43.59475" lon="2.96348">
        <ele>1061.7</ele>
        <time>2026-05-07T11:25:02.000Z</time>
      </trkpt>
      <trkpt lat="43.59475" lon="2.96349">
        <ele>1061.2</ele>
        <time>2026-05-07T11:25:03.000Z</time>
      </trkpt>
      <trkpt lat="43.59475" lon="2.96351">
        <ele>1060.9</ele>
        <time>2026-05-07T11:25:04.000Z</time>
      </trkpt>
      <trkpt lat="43.59475" lon="2.96352">
        <ele>1060.7</ele>
        <time>2026-05-07T11:25:05.000Z</time>
      </trkpt>
      <trkpt lat="43.59474" lon="2.96353">
        <ele>1060.2</ele>
        <time>2026-05-07T11:25:06.000Z</time>
      </trkpt>
      <trkpt lat="43.59475" lon="2.96354">
        <ele>1060</ele>
        <time>2026-05-07T11:25:07.000Z</time>
      </trkpt>
      <trkpt lat="43.59474" lon="2.96353">
        <ele>1060.4</ele>
        <time>2026-05-07T11:25:08.000Z</time>
      </trkpt>
      <trkpt lat="43.59474" lon="2.96353">
        <ele>1060.3</ele>
        <time>2026-05-07T11:25:09.000Z</time>
      </trkpt>
      <trkpt lat="43.59475" lon="2.96353">
        <ele>1059.4</ele>
        <time>2026-05-07T11:25:10.000Z</time>
      </trkpt>
      <trkpt lat="43.59474" lon="2.96354">
        <ele>1058.8</ele>
        <time>2026-05-07T11:25:11.000Z</time>
      </trkpt>
      <trkpt lat="43.59474" lon="2.96354">
        <ele>1058.2</ele>
        <time>2026-05-07T11:25:12.000Z</time>
      </trkpt>
      <trkpt lat="43.59474" lon="2.96355">
        <ele>1058</ele>
        <time>2026-05-07T11:25:13.000Z</time>
      </trkpt>
      <trkpt lat="43.59474" lon="2.96356">
        <ele>1057.8</ele>
        <time>2026-05-07T11:25:14.000Z</time>
      </trkpt>
      <trkpt lat="43.59474" lon="2.96356">
        <ele>1057.7</ele>
        <time>2026-05-07T11:25:15.000Z</time>
      </trkpt>
      <trkpt lat="43.59474" lon="2.96356">
        <ele>1057.8</ele>
        <time>2026-05-07T11:25:16.000Z</time>
      </trkpt>
      <trkpt lat="43.59474" lon="2.96356">
        <ele>1057.8</ele>
        <time>2026-05-07T11:25:17.000Z</time>
      </trkpt>
      <trkpt lat="43.59474" lon="2.96356">
        <ele>1057.7</ele>
        <time>2026-05-07T11:25:18.000Z</time>
      </trkpt>
      <trkpt lat="43.59474" lon="2.96356">
        <ele>1057.9</ele>
        <time>2026-05-07T11:25:19.000Z</time>
      </trkpt>
      <trkpt lat="43.59474" lon="2.96356">
        <ele>1057.7</ele>
        <time>2026-05-07T11:25:20.000Z</time>
      </trkpt>
      <trkpt lat="43.59474" lon="2.96356">
        <ele>1057.8</ele>
        <time>2026-05-07T11:25:21.000Z</time>
      </trkpt>
      <trkpt lat="43.59474" lon="2.96356">
        <ele>1057.8</ele>
        <time>2026-05-07T11:25:22.000Z</time>
      </trkpt>
      <trkpt lat="43.59474" lon="2.96356">
        <ele>1057.7</ele>
        <time>2026-05-07T11:25:23.000Z</time>
      </trkpt>
      <trkpt lat="43.59474" lon="2.96356">
        <ele>1057.6</ele>
        <time>2026-05-07T11:25:24.000Z</time>
      </trkpt>
      <trkpt lat="43.59474" lon="2.96357">
        <ele>1057.7</ele>
        <time>2026-05-07T11:25:25.000Z</time>
      </trkpt>
      <trkpt lat="43.59474" lon="2.96357">
        <ele>1057.9</ele>
        <time>2026-05-07T11:25:26.000Z</time>
      </trkpt>
      <trkpt lat="43.59474" lon="2.96357">
        <ele>1057.8</ele>
        <time>2026-05-07T11:25:27.000Z</time>
      </trkpt>
      <trkpt lat="43.59474" lon="2.96357">
        <ele>1057.4</ele>
        <time>2026-05-07T11:25:28.000Z</time>
      </trkpt>
      <trkpt lat="43.59475" lon="2.96359">
        <ele>1057.1</ele>
        <time>2026-05-07T11:25:29.000Z</time>
      </trkpt>
      <trkpt lat="43.59475" lon="2.9636">
        <ele>1056.9</ele>
        <time>2026-05-07T11:25:30.000Z</time>
      </trkpt>
      <trkpt lat="43.59476" lon="2.96361">
        <ele>1056.7</ele>
        <time>2026-05-07T11:25:31.000Z</time>
      </trkpt>
      <trkpt lat="43.59476" lon="2.96362">
        <ele>1056.5</ele>
        <time>2026-05-07T11:25:32.000Z</time>
      </trkpt>
      <trkpt lat="43.59476" lon="2.96362">
        <ele>1056.2</ele>
        <time>2026-05-07T11:25:33.000Z</time>
      </trkpt>
      <trkpt lat="43.59477" lon="2.96362">
        <ele>1056.2</ele>
        <time>2026-05-07T11:25:34.000Z</time>
      </trkpt>
      <trkpt lat="43.59477" lon="2.96363">
        <ele>1056.1</ele>
        <time>2026-05-07T11:25:35.000Z</time>
      </trkpt>
      <trkpt lat="43.59477" lon="2.96363">
        <ele>1056</ele>
        <time>2026-05-07T11:25:36.000Z</time>
      </trkpt>
      <trkpt lat="43.59477" lon="2.96363">
        <ele>1055.5</ele>
        <time>2026-05-07T11:25:37.000Z</time>
      </trkpt>
      <trkpt lat="43.59478" lon="2.96365">
        <ele>1055.1</ele>
        <time>2026-05-07T11:25:38.000Z</time>
      </trkpt>
      <trkpt lat="43.59478" lon="2.96366">
        <ele>1054.9</ele>
        <time>2026-05-07T11:25:39.000Z</time>
      </trkpt>
      <trkpt lat="43.59479" lon="2.96367">
        <ele>1054.7</ele>
        <time>2026-05-07T11:25:40.000Z</time>
      </trkpt>
      <trkpt lat="43.59479" lon="2.96368">
        <ele>1054.4</ele>
        <time>2026-05-07T11:25:41.000Z</time>
      </trkpt>
      <trkpt lat="43.5948" lon="2.96369">
        <ele>1054.3</ele>
        <time>2026-05-07T11:25:42.000Z</time>
      </trkpt>
      <trkpt lat="43.5948" lon="2.9637">
        <ele>1054</ele>
        <time>2026-05-07T11:25:43.000Z</time>
      </trkpt>
      <trkpt lat="43.59481" lon="2.96372">
        <ele>1053.8</ele>
        <time>2026-05-07T11:25:44.000Z</time>
      </trkpt>
      <trkpt lat="43.59481" lon="2.96372">
        <ele>1053.6</ele>
        <time>2026-05-07T11:25:45.000Z</time>
      </trkpt>
      <trkpt lat="43.59482" lon="2.96372">
        <ele>1053.6</ele>
        <time>2026-05-07T11:25:46.000Z</time>
      </trkpt>
      <trkpt lat="43.59482" lon="2.96372">
        <ele>1053.4</ele>
        <time>2026-05-07T11:25:47.000Z</time>
      </trkpt>
      <trkpt lat="43.59482" lon="2.96373">
        <ele>1053.4</ele>
        <time>2026-05-07T11:25:48.000Z</time>
      </trkpt>
      <trkpt lat="43.59482" lon="2.96374">
        <ele>1053.2</ele>
        <time>2026-05-07T11:25:49.000Z</time>
      </trkpt>
      <trkpt lat="43.59482" lon="2.96375">
        <ele>1052.9</ele>
        <time>2026-05-07T11:25:50.000Z</time>
      </trkpt>
      <trkpt lat="43.59482" lon="2.96375">
        <ele>1052.9</ele>
        <time>2026-05-07T11:25:51.000Z</time>
      </trkpt>
      <trkpt lat="43.59482" lon="2.96375">
        <ele>1052.7</ele>
        <time>2026-05-07T11:25:52.000Z</time>
      </trkpt>
      <trkpt lat="43.59482" lon="2.96375">
        <ele>1052.5</ele>
        <time>2026-05-07T11:25:53.000Z</time>
      </trkpt>
      <trkpt lat="43.59482" lon="2.96375">
        <ele>1052.1</ele>
        <time>2026-05-07T11:25:54.000Z</time>
      </trkpt>
      <trkpt lat="43.59482" lon="2.96375">
        <ele>1052.2</ele>
        <time>2026-05-07T11:25:55.000Z</time>
      </trkpt>
      <trkpt lat="43.59482" lon="2.96375">
        <ele>1051.9</ele>
        <time>2026-05-07T11:25:56.000Z</time>
      </trkpt>
      <trkpt lat="43.59482" lon="2.96376">
        <ele>1052</ele>
        <time>2026-05-07T11:25:57.000Z</time>
      </trkpt>
      <trkpt lat="43.59482" lon="2.96376">
        <ele>1051.9</ele>
        <time>2026-05-07T11:25:58.000Z</time>
      </trkpt>
      <trkpt lat="43.59482" lon="2.96375">
        <ele>1051.7</ele>
        <time>2026-05-07T11:25:59.000Z</time>
      </trkpt>
      <trkpt lat="43.59482" lon="2.96375">
        <ele>1051.6</ele>
        <time>2026-05-07T11:26:00.000Z</time>
      </trkpt>
      <trkpt lat="43.59482" lon="2.96376">
        <ele>1051.5</ele>
        <time>2026-05-07T11:26:01.000Z</time>
      </trkpt>
      <trkpt lat="43.59482" lon="2.96376">
        <ele>1051.1</ele>
        <time>2026-05-07T11:26:02.000Z</time>
      </trkpt>
      <trkpt lat="43.59482" lon="2.96376">
        <ele>1051</ele>
        <time>2026-05-07T11:26:03.000Z</time>
      </trkpt>
      <trkpt lat="43.59482" lon="2.96376">
        <ele>1051.1</ele>
        <time>2026-05-07T11:26:04.000Z</time>
      </trkpt>
      <trkpt lat="43.59483" lon="2.96376">
        <ele>1050.8</ele>
        <time>2026-05-07T11:26:05.000Z</time>
      </trkpt>
      <trkpt lat="43.59483" lon="2.96378">
        <ele>1050.5</ele>
        <time>2026-05-07T11:26:06.000Z</time>
      </trkpt>
      <trkpt lat="43.59484" lon="2.9638">
        <ele>1050.2</ele>
        <time>2026-05-07T11:26:07.000Z</time>
      </trkpt>
      <trkpt lat="43.59484" lon="2.96381">
        <ele>1049.8</ele>
        <time>2026-05-07T11:26:08.000Z</time>
      </trkpt>
      <trkpt lat="43.59484" lon="2.96381">
        <ele>1049.7</ele>
        <time>2026-05-07T11:26:09.000Z</time>
      </trkpt>
      <trkpt lat="43.59484" lon="2.96382">
        <ele>1049.4</ele>
        <time>2026-05-07T11:26:10.000Z</time>
      </trkpt>
      <trkpt lat="43.59484" lon="2.96382">
        <ele>1049</ele>
        <time>2026-05-07T11:26:11.000Z</time>
      </trkpt>
      <trkpt lat="43.59485" lon="2.96382">
        <ele>1048.1</ele>
        <time>2026-05-07T11:26:12.000Z</time>
      </trkpt>
      <trkpt lat="43.59485" lon="2.96382">
        <ele>1047.4</ele>
        <time>2026-05-07T11:26:13.000Z</time>
      </trkpt>
      <trkpt lat="43.59485" lon="2.96383">
        <ele>1047.2</ele>
        <time>2026-05-07T11:26:14.000Z</time>
      </trkpt>
      <trkpt lat="43.59485" lon="2.96384">
        <ele>1047.1</ele>
        <time>2026-05-07T11:26:15.000Z</time>
      </trkpt>
      <trkpt lat="43.59485" lon="2.96385">
        <ele>1047.1</ele>
        <time>2026-05-07T11:26:16.000Z</time>
      </trkpt>
      <trkpt lat="43.59486" lon="2.96386">
        <ele>1047.4</ele>
        <time>2026-05-07T11:26:17.000Z</time>
      </trkpt>
      <trkpt lat="43.59488" lon="2.96387">
        <ele>1047.2</ele>
        <time>2026-05-07T11:26:18.000Z</time>
      </trkpt>
      <trkpt lat="43.59488" lon="2.96387">
        <ele>1047.2</ele>
        <time>2026-05-07T11:26:19.000Z</time>
      </trkpt>
      <trkpt lat="43.59488" lon="2.96387">
        <ele>1047.1</ele>
        <time>2026-05-07T11:26:20.000Z</time>
      </trkpt>
      <trkpt lat="43.59488" lon="2.96387">
        <ele>1046.7</ele>
        <time>2026-05-07T11:26:21.000Z</time>
      </trkpt>
      <trkpt lat="43.59488" lon="2.96387">
        <ele>1046.5</ele>
        <time>2026-05-07T11:26:22.000Z</time>
      </trkpt>
      <trkpt lat="43.59488" lon="2.96387">
        <ele>1046.1</ele>
        <time>2026-05-07T11:26:23.000Z</time>
      </trkpt>
      <trkpt lat="43.59488" lon="2.96387">
        <ele>1045.8</ele>
        <time>2026-05-07T11:26:24.000Z</time>
      </trkpt>
      <trkpt lat="43.59488" lon="2.96388">
        <ele>1045.6</ele>
        <time>2026-05-07T11:26:25.000Z</time>
      </trkpt>
      <trkpt lat="43.59489" lon="2.96388">
        <ele>1045.4</ele>
        <time>2026-05-07T11:26:26.000Z</time>
      </trkpt>
      <trkpt lat="43.59489" lon="2.96388">
        <ele>1045.3</ele>
        <time>2026-05-07T11:26:27.000Z</time>
      </trkpt>
      <trkpt lat="43.59489" lon="2.96388">
        <ele>1045.1</ele>
        <time>2026-05-07T11:26:28.000Z</time>
      </trkpt>
      <trkpt lat="43.59489" lon="2.96388">
        <ele>1045.1</ele>
        <time>2026-05-07T11:26:29.000Z</time>
      </trkpt>
      <trkpt lat="43.59489" lon="2.96388">
        <ele>1045.2</ele>
        <time>2026-05-07T11:26:30.000Z</time>
      </trkpt>
      <trkpt lat="43.59489" lon="2.96388">
        <ele>1045.1</ele>
        <time>2026-05-07T11:26:31.000Z</time>
      </trkpt>
      <trkpt lat="43.59489" lon="2.96388">
        <ele>1044.9</ele>
        <time>2026-05-07T11:26:32.000Z</time>
      </trkpt>
      <trkpt lat="43.59489" lon="2.96389">
        <ele>1044.6</ele>
        <time>2026-05-07T11:26:33.000Z</time>
      </trkpt>
      <trkpt lat="43.59489" lon="2.96389">
        <ele>1044.4</ele>
        <time>2026-05-07T11:26:34.000Z</time>
      </trkpt>
      <trkpt lat="43.5949" lon="2.96389">
        <ele>1044.5</ele>
        <time>2026-05-07T11:26:35.000Z</time>
      </trkpt>
      <trkpt lat="43.5949" lon="2.96389">
        <ele>1044.6</ele>
        <time>2026-05-07T11:26:36.000Z</time>
      </trkpt>
      <trkpt lat="43.59491" lon="2.9639">
        <ele>1044.9</ele>
        <time>2026-05-07T11:26:37.000Z</time>
      </trkpt>
      <trkpt lat="43.59491" lon="2.9639">
        <ele>1044.8</ele>
        <time>2026-05-07T11:26:38.000Z</time>
      </trkpt>
      <trkpt lat="43.59492" lon="2.96391">
        <ele>1044.6</ele>
        <time>2026-05-07T11:26:39.000Z</time>
      </trkpt>
      <trkpt lat="43.59493" lon="2.96393">
        <ele>1044.4</ele>
        <time>2026-05-07T11:26:40.000Z</time>
      </trkpt>
      <trkpt lat="43.59494" lon="2.96395">
        <ele>1044.2</ele>
        <time>2026-05-07T11:26:41.000Z</time>
      </trkpt>
      <trkpt lat="43.59494" lon="2.96396">
        <ele>1043.7</ele>
        <time>2026-05-07T11:26:42.000Z</time>
      </trkpt>
      <trkpt lat="43.59494" lon="2.96398">
        <ele>1043.7</ele>
        <time>2026-05-07T11:26:43.000Z</time>
      </trkpt>
      <trkpt lat="43.59495" lon="2.96399">
        <ele>1043.4</ele>
        <time>2026-05-07T11:26:44.000Z</time>
      </trkpt>
      <trkpt lat="43.59495" lon="2.964">
        <ele>1043.2</ele>
        <time>2026-05-07T11:26:45.000Z</time>
      </trkpt>
      <trkpt lat="43.59495" lon="2.96401">
        <ele>1042.7</ele>
        <time>2026-05-07T11:26:46.000Z</time>
      </trkpt>
      <trkpt lat="43.59496" lon="2.96402">
        <ele>1042.5</ele>
        <time>2026-05-07T11:26:47.000Z</time>
      </trkpt>
      <trkpt lat="43.59496" lon="2.96404">
        <ele>1041.9</ele>
        <time>2026-05-07T11:26:48.000Z</time>
      </trkpt>
      <trkpt lat="43.59497" lon="2.96405">
        <ele>1041.7</ele>
        <time>2026-05-07T11:26:49.000Z</time>
      </trkpt>
      <trkpt lat="43.59498" lon="2.96405">
        <ele>1041.4</ele>
        <time>2026-05-07T11:26:50.000Z</time>
      </trkpt>
      <trkpt lat="43.59499" lon="2.96406">
        <ele>1040.9</ele>
        <time>2026-05-07T11:26:51.000Z</time>
      </trkpt>
      <trkpt lat="43.59499" lon="2.96407">
        <ele>1040.3</ele>
        <time>2026-05-07T11:26:52.000Z</time>
      </trkpt>
      <trkpt lat="43.59499" lon="2.96408">
        <ele>1039.9</ele>
        <time>2026-05-07T11:26:53.000Z</time>
      </trkpt>
      <trkpt lat="43.59499" lon="2.96409">
        <ele>1039.8</ele>
        <time>2026-05-07T11:26:54.000Z</time>
      </trkpt>
      <trkpt lat="43.59499" lon="2.9641">
        <ele>1039.5</ele>
        <time>2026-05-07T11:26:55.000Z</time>
      </trkpt>
      <trkpt lat="43.595" lon="2.96412">
        <ele>1039.5</ele>
        <time>2026-05-07T11:26:56.000Z</time>
      </trkpt>
      <trkpt lat="43.59501" lon="2.96412">
        <ele>1039.3</ele>
        <time>2026-05-07T11:26:57.000Z</time>
      </trkpt>
      <trkpt lat="43.59502" lon="2.96414">
        <ele>1039</ele>
        <time>2026-05-07T11:26:58.000Z</time>
      </trkpt>
      <trkpt lat="43.59503" lon="2.96415">
        <ele>1038.7</ele>
        <time>2026-05-07T11:26:59.000Z</time>
      </trkpt>
      <trkpt lat="43.59503" lon="2.96416">
        <ele>1038.3</ele>
        <time>2026-05-07T11:27:00.000Z</time>
      </trkpt>
      <trkpt lat="43.59504" lon="2.96417">
        <ele>1038.2</ele>
        <time>2026-05-07T11:27:01.000Z</time>
      </trkpt>
      <trkpt lat="43.59505" lon="2.96417">
        <ele>1038.3</ele>
        <time>2026-05-07T11:27:02.000Z</time>
      </trkpt>
      <trkpt lat="43.59505" lon="2.96418">
        <ele>1038.1</ele>
        <time>2026-05-07T11:27:03.000Z</time>
      </trkpt>
      <trkpt lat="43.59505" lon="2.96418">
        <ele>1038</ele>
        <time>2026-05-07T11:27:04.000Z</time>
      </trkpt>
      <trkpt lat="43.59505" lon="2.96419">
        <ele>1037.6</ele>
        <time>2026-05-07T11:27:05.000Z</time>
      </trkpt>
      <trkpt lat="43.59505" lon="2.96419">
        <ele>1037.2</ele>
        <time>2026-05-07T11:27:06.000Z</time>
      </trkpt>
      <trkpt lat="43.59505" lon="2.9642">
        <ele>1037.6</ele>
        <time>2026-05-07T11:27:07.000Z</time>
      </trkpt>
      <trkpt lat="43.59505" lon="2.96421">
        <ele>1037.5</ele>
        <time>2026-05-07T11:27:08.000Z</time>
      </trkpt>
      <trkpt lat="43.59506" lon="2.96421">
        <ele>1037.4</ele>
        <time>2026-05-07T11:27:09.000Z</time>
      </trkpt>
      <trkpt lat="43.59506" lon="2.96423">
        <ele>1037.4</ele>
        <time>2026-05-07T11:27:10.000Z</time>
      </trkpt>
      <trkpt lat="43.59506" lon="2.96424">
        <ele>1037.5</ele>
        <time>2026-05-07T11:27:11.000Z</time>
      </trkpt>
      <trkpt lat="43.59506" lon="2.96426">
        <ele>1037.2</ele>
        <time>2026-05-07T11:27:12.000Z</time>
      </trkpt>
      <trkpt lat="43.59506" lon="2.96428">
        <ele>1037</ele>
        <time>2026-05-07T11:27:13.000Z</time>
      </trkpt>
      <trkpt lat="43.59507" lon="2.9643">
        <ele>1036.8</ele>
        <time>2026-05-07T11:27:14.000Z</time>
      </trkpt>
      <trkpt lat="43.59507" lon="2.96431">
        <ele>1036.8</ele>
        <time>2026-05-07T11:27:15.000Z</time>
      </trkpt>
      <trkpt lat="43.59507" lon="2.96433">
        <ele>1036.8</ele>
        <time>2026-05-07T11:27:16.000Z</time>
      </trkpt>
      <trkpt lat="43.59509" lon="2.96435">
        <ele>1036.5</ele>
        <time>2026-05-07T11:27:17.000Z</time>
      </trkpt>
      <trkpt lat="43.5951" lon="2.96436">
        <ele>1035.8</ele>
        <time>2026-05-07T11:27:18.000Z</time>
      </trkpt>
      <trkpt lat="43.59511" lon="2.96436">
        <ele>1035.1</ele>
        <time>2026-05-07T11:27:19.000Z</time>
      </trkpt>
      <trkpt lat="43.59511" lon="2.96436">
        <ele>1034.6</ele>
        <time>2026-05-07T11:27:20.000Z</time>
      </trkpt>
      <trkpt lat="43.59511" lon="2.96437">
        <ele>1034</ele>
        <time>2026-05-07T11:27:21.000Z</time>
      </trkpt>
      <trkpt lat="43.59512" lon="2.96436">
        <ele>1033.2</ele>
        <time>2026-05-07T11:27:22.000Z</time>
      </trkpt>
      <trkpt lat="43.59512" lon="2.96436">
        <ele>1032.6</ele>
        <time>2026-05-07T11:27:23.000Z</time>
      </trkpt>
      <trkpt lat="43.59513" lon="2.96437">
        <ele>1032.1</ele>
        <time>2026-05-07T11:27:24.000Z</time>
      </trkpt>
      <trkpt lat="43.59514" lon="2.96436">
        <ele>1031.8</ele>
        <time>2026-05-07T11:27:25.000Z</time>
      </trkpt>
      <trkpt lat="43.59515" lon="2.96436">
        <ele>1031.7</ele>
        <time>2026-05-07T11:27:26.000Z</time>
      </trkpt>
      <trkpt lat="43.59515" lon="2.96436">
        <ele>1031.7</ele>
        <time>2026-05-07T11:27:27.000Z</time>
      </trkpt>
      <trkpt lat="43.59516" lon="2.96437">
        <ele>1031.8</ele>
        <time>2026-05-07T11:27:28.000Z</time>
      </trkpt>
      <trkpt lat="43.59517" lon="2.96438">
        <ele>1031.5</ele>
        <time>2026-05-07T11:27:29.000Z</time>
      </trkpt>
      <trkpt lat="43.59518" lon="2.96439">
        <ele>1031.2</ele>
        <time>2026-05-07T11:27:30.000Z</time>
      </trkpt>
      <trkpt lat="43.59518" lon="2.96439">
        <ele>1030.5</ele>
        <time>2026-05-07T11:27:31.000Z</time>
      </trkpt>
      <trkpt lat="43.59518" lon="2.96439">
        <ele>1030.1</ele>
        <time>2026-05-07T11:27:32.000Z</time>
      </trkpt>
      <trkpt lat="43.59518" lon="2.9644">
        <ele>1030.2</ele>
        <time>2026-05-07T11:27:33.000Z</time>
      </trkpt>
      <trkpt lat="43.59518" lon="2.96441">
        <ele>1030</ele>
        <time>2026-05-07T11:27:34.000Z</time>
      </trkpt>
      <trkpt lat="43.59518" lon="2.96443">
        <ele>1029.7</ele>
        <time>2026-05-07T11:27:35.000Z</time>
      </trkpt>
      <trkpt lat="43.59518" lon="2.96446">
        <ele>1029.3</ele>
        <time>2026-05-07T11:27:36.000Z</time>
      </trkpt>
      <trkpt lat="43.59519" lon="2.96448">
        <ele>1028.8</ele>
        <time>2026-05-07T11:27:37.000Z</time>
      </trkpt>
      <trkpt lat="43.59519" lon="2.96449">
        <ele>1028.6</ele>
        <time>2026-05-07T11:27:38.000Z</time>
      </trkpt>
      <trkpt lat="43.59519" lon="2.9645">
        <ele>1028.1</ele>
        <time>2026-05-07T11:27:39.000Z</time>
      </trkpt>
      <trkpt lat="43.59519" lon="2.96451">
        <ele>1028.1</ele>
        <time>2026-05-07T11:27:40.000Z</time>
      </trkpt>
      <trkpt lat="43.59519" lon="2.96451">
        <ele>1028.1</ele>
        <time>2026-05-07T11:27:41.000Z</time>
      </trkpt>
      <trkpt lat="43.59519" lon="2.96452">
        <ele>1028.1</ele>
        <time>2026-05-07T11:27:42.000Z</time>
      </trkpt>
      <trkpt lat="43.59519" lon="2.96454">
        <ele>1028</ele>
        <time>2026-05-07T11:27:43.000Z</time>
      </trkpt>
      <trkpt lat="43.59519" lon="2.96456">
        <ele>1027.6</ele>
        <time>2026-05-07T11:27:44.000Z</time>
      </trkpt>
      <trkpt lat="43.5952" lon="2.96458">
        <ele>1027.9</ele>
        <time>2026-05-07T11:27:45.000Z</time>
      </trkpt>
      <trkpt lat="43.59521" lon="2.9646">
        <ele>1027.6</ele>
        <time>2026-05-07T11:27:46.000Z</time>
      </trkpt>
      <trkpt lat="43.59521" lon="2.96461">
        <ele>1027.8</ele>
        <time>2026-05-07T11:27:47.000Z</time>
      </trkpt>
      <trkpt lat="43.5952" lon="2.96462">
        <ele>1028.2</ele>
        <time>2026-05-07T11:27:48.000Z</time>
      </trkpt>
      <trkpt lat="43.59519" lon="2.96463">
        <ele>1028.5</ele>
        <time>2026-05-07T11:27:49.000Z</time>
      </trkpt>
      <trkpt lat="43.59518" lon="2.96464">
        <ele>1028.9</ele>
        <time>2026-05-07T11:27:50.000Z</time>
      </trkpt>
      <trkpt lat="43.59518" lon="2.96466">
        <ele>1029.1</ele>
        <time>2026-05-07T11:27:51.000Z</time>
      </trkpt>
      <trkpt lat="43.59517" lon="2.96467">
        <ele>1028.9</ele>
        <time>2026-05-07T11:27:52.000Z</time>
      </trkpt>
      <trkpt lat="43.59516" lon="2.96468">
        <ele>1029.2</ele>
        <time>2026-05-07T11:27:53.000Z</time>
      </trkpt>
      <trkpt lat="43.59515" lon="2.9647">
        <ele>1029.6</ele>
        <time>2026-05-07T11:27:54.000Z</time>
      </trkpt>
      <trkpt lat="43.59514" lon="2.96472">
        <ele>1030</ele>
        <time>2026-05-07T11:27:55.000Z</time>
      </trkpt>
      <trkpt lat="43.59513" lon="2.96474">
        <ele>1030</ele>
        <time>2026-05-07T11:27:56.000Z</time>
      </trkpt>
      <trkpt lat="43.59512" lon="2.96475">
        <ele>1030.5</ele>
        <time>2026-05-07T11:27:57.000Z</time>
      </trkpt>
      <trkpt lat="43.59511" lon="2.96476">
        <ele>1030.6</ele>
        <time>2026-05-07T11:27:58.000Z</time>
      </trkpt>
      <trkpt lat="43.5951" lon="2.96477">
        <ele>1030.5</ele>
        <time>2026-05-07T11:27:59.000Z</time>
      </trkpt>
      <trkpt lat="43.5951" lon="2.96478">
        <ele>1030.5</ele>
        <time>2026-05-07T11:28:00.000Z</time>
      </trkpt>
      <trkpt lat="43.5951" lon="2.96479">
        <ele>1030.6</ele>
        <time>2026-05-07T11:28:01.000Z</time>
      </trkpt>
      <trkpt lat="43.59509" lon="2.9648">
        <ele>1031</ele>
        <time>2026-05-07T11:28:02.000Z</time>
      </trkpt>
      <trkpt lat="43.5951" lon="2.96482">
        <ele>1031</ele>
        <time>2026-05-07T11:28:03.000Z</time>
      </trkpt>
      <trkpt lat="43.5951" lon="2.96483">
        <ele>1031</ele>
        <time>2026-05-07T11:28:04.000Z</time>
      </trkpt>
      <trkpt lat="43.5951" lon="2.96484">
        <ele>1030.9</ele>
        <time>2026-05-07T11:28:05.000Z</time>
      </trkpt>
      <trkpt lat="43.59511" lon="2.96486">
        <ele>1031.3</ele>
        <time>2026-05-07T11:28:06.000Z</time>
      </trkpt>
      <trkpt lat="43.59512" lon="2.96487">
        <ele>1031.8</ele>
        <time>2026-05-07T11:28:07.000Z</time>
      </trkpt>
      <trkpt lat="43.59512" lon="2.96487">
        <ele>1031.1</ele>
        <time>2026-05-07T11:28:08.000Z</time>
      </trkpt>
      <trkpt lat="43.59513" lon="2.96488">
        <ele>1031.2</ele>
        <time>2026-05-07T11:28:09.000Z</time>
      </trkpt>
      <trkpt lat="43.59513" lon="2.96488">
        <ele>1031.1</ele>
        <time>2026-05-07T11:28:10.000Z</time>
      </trkpt>
      <trkpt lat="43.59513" lon="2.96489">
        <ele>1030.8</ele>
        <time>2026-05-07T11:28:11.000Z</time>
      </trkpt>
      <trkpt lat="43.59514" lon="2.96489">
        <ele>1030.4</ele>
        <time>2026-05-07T11:28:12.000Z</time>
      </trkpt>
      <trkpt lat="43.59514" lon="2.96489">
        <ele>1030.1</ele>
        <time>2026-05-07T11:28:13.000Z</time>
      </trkpt>
      <trkpt lat="43.59514" lon="2.96489">
        <ele>1030</ele>
        <time>2026-05-07T11:28:14.000Z</time>
      </trkpt>
      <trkpt lat="43.59514" lon="2.96491">
        <ele>1030.2</ele>
        <time>2026-05-07T11:28:15.000Z</time>
      </trkpt>
      <trkpt lat="43.59514" lon="2.96492">
        <ele>1030.1</ele>
        <time>2026-05-07T11:28:16.000Z</time>
      </trkpt>
      <trkpt lat="43.59514" lon="2.96493">
        <ele>1030.2</ele>
        <time>2026-05-07T11:28:17.000Z</time>
      </trkpt>
      <trkpt lat="43.59513" lon="2.96493">
        <ele>1030.4</ele>
        <time>2026-05-07T11:28:18.000Z</time>
      </trkpt>
      <trkpt lat="43.59513" lon="2.96494">
        <ele>1030.5</ele>
        <time>2026-05-07T11:28:19.000Z</time>
      </trkpt>
      <trkpt lat="43.59513" lon="2.96494">
        <ele>1030.6</ele>
        <time>2026-05-07T11:28:20.000Z</time>
      </trkpt>
      <trkpt lat="43.59513" lon="2.96494">
        <ele>1030.6</ele>
        <time>2026-05-07T11:28:21.000Z</time>
      </trkpt>
      <trkpt lat="43.59513" lon="2.96495">
        <ele>1030.7</ele>
        <time>2026-05-07T11:28:22.000Z</time>
      </trkpt>
      <trkpt lat="43.59514" lon="2.96495">
        <ele>1030.9</ele>
        <time>2026-05-07T11:28:23.000Z</time>
      </trkpt>
      <trkpt lat="43.59514" lon="2.96496">
        <ele>1030.8</ele>
        <time>2026-05-07T11:28:24.000Z</time>
      </trkpt>
      <trkpt lat="43.59515" lon="2.96496">
        <ele>1030.8</ele>
        <time>2026-05-07T11:28:25.000Z</time>
      </trkpt>
      <trkpt lat="43.59515" lon="2.96497">
        <ele>1030.7</ele>
        <time>2026-05-07T11:28:26.000Z</time>
      </trkpt>
      <trkpt lat="43.59515" lon="2.96499">
        <ele>1030.8</ele>
        <time>2026-05-07T11:28:27.000Z</time>
      </trkpt>
      <trkpt lat="43.59515" lon="2.96499">
        <ele>1030.7</ele>
        <time>2026-05-07T11:28:28.000Z</time>
      </trkpt>
      <trkpt lat="43.59515" lon="2.96501">
        <ele>1030.6</ele>
        <time>2026-05-07T11:28:29.000Z</time>
      </trkpt>
      <trkpt lat="43.59515" lon="2.96502">
        <ele>1030.6</ele>
        <time>2026-05-07T11:28:30.000Z</time>
      </trkpt>
      <trkpt lat="43.59515" lon="2.96503">
        <ele>1030.5</ele>
        <time>2026-05-07T11:28:31.000Z</time>
      </trkpt>
      <trkpt lat="43.59515" lon="2.96503">
        <ele>1030.2</ele>
        <time>2026-05-07T11:28:32.000Z</time>
      </trkpt>
      <trkpt lat="43.59515" lon="2.96504">
        <ele>1030.2</ele>
        <time>2026-05-07T11:28:33.000Z</time>
      </trkpt>
      <trkpt lat="43.59516" lon="2.96505">
        <ele>1029.7</ele>
        <time>2026-05-07T11:28:34.000Z</time>
      </trkpt>
      <trkpt lat="43.59517" lon="2.96506">
        <ele>1029.5</ele>
        <time>2026-05-07T11:28:35.000Z</time>
      </trkpt>
      <trkpt lat="43.59517" lon="2.96508">
        <ele>1029.3</ele>
        <time>2026-05-07T11:28:36.000Z</time>
      </trkpt>
      <trkpt lat="43.59517" lon="2.9651">
        <ele>1029.1</ele>
        <time>2026-05-07T11:28:37.000Z</time>
      </trkpt>
      <trkpt lat="43.59517" lon="2.96513">
        <ele>1029.5</ele>
        <time>2026-05-07T11:28:38.000Z</time>
      </trkpt>
      <trkpt lat="43.59517" lon="2.96515">
        <ele>1030.3</ele>
        <time>2026-05-07T11:28:39.000Z</time>
      </trkpt>
      <trkpt lat="43.59517" lon="2.96516">
        <ele>1030.2</ele>
        <time>2026-05-07T11:28:40.000Z</time>
      </trkpt>
      <trkpt lat="43.59517" lon="2.96517">
        <ele>1030.1</ele>
        <time>2026-05-07T11:28:41.000Z</time>
      </trkpt>
      <trkpt lat="43.59518" lon="2.96517">
        <ele>1030</ele>
        <time>2026-05-07T11:28:42.000Z</time>
      </trkpt>
      <trkpt lat="43.59518" lon="2.96518">
        <ele>1029.8</ele>
        <time>2026-05-07T11:28:43.000Z</time>
      </trkpt>
      <trkpt lat="43.59519" lon="2.96518">
        <ele>1029.8</ele>
        <time>2026-05-07T11:28:44.000Z</time>
      </trkpt>
      <trkpt lat="43.59519" lon="2.96519">
        <ele>1030</ele>
        <time>2026-05-07T11:28:45.000Z</time>
      </trkpt>
      <trkpt lat="43.5952" lon="2.96519">
        <ele>1030.3</ele>
        <time>2026-05-07T11:28:46.000Z</time>
      </trkpt>
      <trkpt lat="43.59521" lon="2.96521">
        <ele>1030.8</ele>
        <time>2026-05-07T11:28:47.000Z</time>
      </trkpt>
      <trkpt lat="43.59522" lon="2.96523">
        <ele>1031</ele>
        <time>2026-05-07T11:28:48.000Z</time>
      </trkpt>
      <trkpt lat="43.59522" lon="2.96524">
        <ele>1030.9</ele>
        <time>2026-05-07T11:28:49.000Z</time>
      </trkpt>
      <trkpt lat="43.59522" lon="2.96525">
        <ele>1030.9</ele>
        <time>2026-05-07T11:28:50.000Z</time>
      </trkpt>
      <trkpt lat="43.59522" lon="2.96527">
        <ele>1030.9</ele>
        <time>2026-05-07T11:28:51.000Z</time>
      </trkpt>
      <trkpt lat="43.59522" lon="2.96528">
        <ele>1030.7</ele>
        <time>2026-05-07T11:28:52.000Z</time>
      </trkpt>
      <trkpt lat="43.59522" lon="2.96529">
        <ele>1030.7</ele>
        <time>2026-05-07T11:28:53.000Z</time>
      </trkpt>
      <trkpt lat="43.59522" lon="2.9653">
        <ele>1030.6</ele>
        <time>2026-05-07T11:28:54.000Z</time>
      </trkpt>
      <trkpt lat="43.59523" lon="2.96531">
        <ele>1030.7</ele>
        <time>2026-05-07T11:28:55.000Z</time>
      </trkpt>
      <trkpt lat="43.59523" lon="2.96532">
        <ele>1030.9</ele>
        <time>2026-05-07T11:28:56.000Z</time>
      </trkpt>
      <trkpt lat="43.59524" lon="2.96533">
        <ele>1031</ele>
        <time>2026-05-07T11:28:57.000Z</time>
      </trkpt>
      <trkpt lat="43.59524" lon="2.96533">
        <ele>1030.9</ele>
        <time>2026-05-07T11:28:58.000Z</time>
      </trkpt>
      <trkpt lat="43.59524" lon="2.96533">
        <ele>1030.7</ele>
        <time>2026-05-07T11:28:59.000Z</time>
      </trkpt>
      <trkpt lat="43.59525" lon="2.96534">
        <ele>1030.6</ele>
        <time>2026-05-07T11:29:00.000Z</time>
      </trkpt>
      <trkpt lat="43.59526" lon="2.96535">
        <ele>1030.6</ele>
        <time>2026-05-07T11:29:01.000Z</time>
      </trkpt>
      <trkpt lat="43.59527" lon="2.96536">
        <ele>1030.7</ele>
        <time>2026-05-07T11:29:02.000Z</time>
      </trkpt>
      <trkpt lat="43.59529" lon="2.9654">
        <ele>1031.1</ele>
        <time>2026-05-07T11:29:04.000Z</time>
      </trkpt>
      <trkpt lat="43.59529" lon="2.9654">
        <ele>1030.9</ele>
        <time>2026-05-07T11:29:05.000Z</time>
      </trkpt>
      <trkpt lat="43.59529" lon="2.96541">
        <ele>1030.8</ele>
        <time>2026-05-07T11:29:06.000Z</time>
      </trkpt>
      <trkpt lat="43.59529" lon="2.96541">
        <ele>1030.9</ele>
        <time>2026-05-07T11:29:07.000Z</time>
      </trkpt>
      <trkpt lat="43.5953" lon="2.96542">
        <ele>1030.8</ele>
        <time>2026-05-07T11:29:08.000Z</time>
      </trkpt>
      <trkpt lat="43.59531" lon="2.96543">
        <ele>1031</ele>
        <time>2026-05-07T11:29:09.000Z</time>
      </trkpt>
      <trkpt lat="43.59532" lon="2.96543">
        <ele>1031.1</ele>
        <time>2026-05-07T11:29:10.000Z</time>
      </trkpt>
      <trkpt lat="43.59533" lon="2.96543">
        <ele>1031.3</ele>
        <time>2026-05-07T11:29:11.000Z</time>
      </trkpt>
      <trkpt lat="43.59533" lon="2.96543">
        <ele>1031.1</ele>
        <time>2026-05-07T11:29:12.000Z</time>
      </trkpt>
      <trkpt lat="43.59533" lon="2.96544">
        <ele>1031.1</ele>
        <time>2026-05-07T11:29:13.000Z</time>
      </trkpt>
      <trkpt lat="43.59533" lon="2.96545">
        <ele>1030.9</ele>
        <time>2026-05-07T11:29:14.000Z</time>
      </trkpt>
      <trkpt lat="43.59532" lon="2.96546">
        <ele>1030.8</ele>
        <time>2026-05-07T11:29:15.000Z</time>
      </trkpt>
      <trkpt lat="43.59532" lon="2.96547">
        <ele>1030.6</ele>
        <time>2026-05-07T11:29:16.000Z</time>
      </trkpt>
      <trkpt lat="43.59532" lon="2.96548">
        <ele>1030.6</ele>
        <time>2026-05-07T11:29:17.000Z</time>
      </trkpt>
      <trkpt lat="43.59532" lon="2.96548">
        <ele>1030.7</ele>
        <time>2026-05-07T11:29:18.000Z</time>
      </trkpt>
      <trkpt lat="43.59532" lon="2.96547">
        <ele>1030.6</ele>
        <time>2026-05-07T11:29:19.000Z</time>
      </trkpt>
      <trkpt lat="43.59532" lon="2.96546">
        <ele>1030.6</ele>
        <time>2026-05-07T11:29:20.000Z</time>
      </trkpt>
      <trkpt lat="43.59532" lon="2.96546">
        <ele>1030.6</ele>
        <time>2026-05-07T11:29:21.000Z</time>
      </trkpt>
      <trkpt lat="43.59532" lon="2.96546">
        <ele>1030.5</ele>
        <time>2026-05-07T11:29:22.000Z</time>
      </trkpt>
      <trkpt lat="43.59532" lon="2.96546">
        <ele>1030.1</ele>
        <time>2026-05-07T11:29:23.000Z</time>
      </trkpt>
      <trkpt lat="43.59532" lon="2.96548">
        <ele>1030</ele>
        <time>2026-05-07T11:29:24.000Z</time>
      </trkpt>
      <trkpt lat="43.59531" lon="2.96549">
        <ele>1030</ele>
        <time>2026-05-07T11:29:25.000Z</time>
      </trkpt>
      <trkpt lat="43.59531" lon="2.96549">
        <ele>1030.3</ele>
        <time>2026-05-07T11:29:26.000Z</time>
      </trkpt>
      <trkpt lat="43.59531" lon="2.96549">
        <ele>1030.6</ele>
        <time>2026-05-07T11:29:27.000Z</time>
      </trkpt>
      <trkpt lat="43.59532" lon="2.9655">
        <ele>1030.6</ele>
        <time>2026-05-07T11:29:28.000Z</time>
      </trkpt>
      <trkpt lat="43.59532" lon="2.9655">
        <ele>1030.4</ele>
        <time>2026-05-07T11:29:29.000Z</time>
      </trkpt>
      <trkpt lat="43.59532" lon="2.96552">
        <ele>1030.5</ele>
        <time>2026-05-07T11:29:30.000Z</time>
      </trkpt>
      <trkpt lat="43.59532" lon="2.96553">
        <ele>1030.4</ele>
        <time>2026-05-07T11:29:31.000Z</time>
      </trkpt>
      <trkpt lat="43.59532" lon="2.96554">
        <ele>1030.4</ele>
        <time>2026-05-07T11:29:32.000Z</time>
      </trkpt>
      <trkpt lat="43.59532" lon="2.96554">
        <ele>1030.4</ele>
        <time>2026-05-07T11:29:33.000Z</time>
      </trkpt>
      <trkpt lat="43.59532" lon="2.96555">
        <ele>1030.1</ele>
        <time>2026-05-07T11:29:34.000Z</time>
      </trkpt>
      <trkpt lat="43.59533" lon="2.96555">
        <ele>1029.4</ele>
        <time>2026-05-07T11:29:35.000Z</time>
      </trkpt>
      <trkpt lat="43.59533" lon="2.96556">
        <ele>1029.1</ele>
        <time>2026-05-07T11:29:36.000Z</time>
      </trkpt>
      <trkpt lat="43.59533" lon="2.96557">
        <ele>1029.1</ele>
        <time>2026-05-07T11:29:37.000Z</time>
      </trkpt>
      <trkpt lat="43.59533" lon="2.96557">
        <ele>1029</ele>
        <time>2026-05-07T11:29:38.000Z</time>
      </trkpt>
      <trkpt lat="43.59534" lon="2.96557">
        <ele>1029</ele>
        <time>2026-05-07T11:29:39.000Z</time>
      </trkpt>
      <trkpt lat="43.59534" lon="2.96559">
        <ele>1028.6</ele>
        <time>2026-05-07T11:29:40.000Z</time>
      </trkpt>
      <trkpt lat="43.59536" lon="2.96561">
        <ele>1027.9</ele>
        <time>2026-05-07T11:29:41.000Z</time>
      </trkpt>
      <trkpt lat="43.59537" lon="2.96562">
        <ele>1027.3</ele>
        <time>2026-05-07T11:29:42.000Z</time>
      </trkpt>
      <trkpt lat="43.59537" lon="2.96563">
        <ele>1027.1</ele>
        <time>2026-05-07T11:29:43.000Z</time>
      </trkpt>
      <trkpt lat="43.59538" lon="2.96564">
        <ele>1027.1</ele>
        <time>2026-05-07T11:29:44.000Z</time>
      </trkpt>
      <trkpt lat="43.5954" lon="2.96563">
        <ele>1027</ele>
        <time>2026-05-07T11:29:45.000Z</time>
      </trkpt>
      <trkpt lat="43.59542" lon="2.96563">
        <ele>1027.2</ele>
        <time>2026-05-07T11:29:46.000Z</time>
      </trkpt>
      <trkpt lat="43.59542" lon="2.96564">
        <ele>1026.9</ele>
        <time>2026-05-07T11:29:47.000Z</time>
      </trkpt>
      <trkpt lat="43.59543" lon="2.96565">
        <ele>1026.8</ele>
        <time>2026-05-07T11:29:48.000Z</time>
      </trkpt>
      <trkpt lat="43.59543" lon="2.96565">
        <ele>1026.7</ele>
        <time>2026-05-07T11:29:49.000Z</time>
      </trkpt>
      <trkpt lat="43.59544" lon="2.96566">
        <ele>1027</ele>
        <time>2026-05-07T11:29:50.000Z</time>
      </trkpt>
      <trkpt lat="43.59546" lon="2.96566">
        <ele>1027</ele>
        <time>2026-05-07T11:29:51.000Z</time>
      </trkpt>
      <trkpt lat="43.59547" lon="2.96566">
        <ele>1026.8</ele>
        <time>2026-05-07T11:29:52.000Z</time>
      </trkpt>
      <trkpt lat="43.59548" lon="2.96566">
        <ele>1026.8</ele>
        <time>2026-05-07T11:29:53.000Z</time>
      </trkpt>
      <trkpt lat="43.59549" lon="2.96566">
        <ele>1026.6</ele>
        <time>2026-05-07T11:29:54.000Z</time>
      </trkpt>
      <trkpt lat="43.59549" lon="2.96566">
        <ele>1026.7</ele>
        <time>2026-05-07T11:29:55.000Z</time>
      </trkpt>
      <trkpt lat="43.5955" lon="2.96567">
        <ele>1026.8</ele>
        <time>2026-05-07T11:29:56.000Z</time>
      </trkpt>
      <trkpt lat="43.5955" lon="2.96568">
        <ele>1027</ele>
        <time>2026-05-07T11:29:57.000Z</time>
      </trkpt>
      <trkpt lat="43.5955" lon="2.96569">
        <ele>1027</ele>
        <time>2026-05-07T11:29:58.000Z</time>
      </trkpt>
      <trkpt lat="43.59551" lon="2.96569">
        <ele>1027.2</ele>
        <time>2026-05-07T11:29:59.000Z</time>
      </trkpt>
      <trkpt lat="43.59552" lon="2.9657">
        <ele>1027.2</ele>
        <time>2026-05-07T11:30:00.000Z</time>
      </trkpt>
      <trkpt lat="43.59552" lon="2.9657">
        <ele>1026.9</ele>
        <time>2026-05-07T11:30:01.000Z</time>
      </trkpt>
      <trkpt lat="43.59553" lon="2.96571">
        <ele>1027</ele>
        <time>2026-05-07T11:30:02.000Z</time>
      </trkpt>
      <trkpt lat="43.59554" lon="2.96572">
        <ele>1027</ele>
        <time>2026-05-07T11:30:03.000Z</time>
      </trkpt>
      <trkpt lat="43.59555" lon="2.96573">
        <ele>1027.2</ele>
        <time>2026-05-07T11:30:04.000Z</time>
      </trkpt>
      <trkpt lat="43.59555" lon="2.96573">
        <ele>1027.5</ele>
        <time>2026-05-07T11:30:05.000Z</time>
      </trkpt>
      <trkpt lat="43.59556" lon="2.96574">
        <ele>1028.2</ele>
        <time>2026-05-07T11:30:06.000Z</time>
      </trkpt>
      <trkpt lat="43.59556" lon="2.96573">
        <ele>1028.4</ele>
        <time>2026-05-07T11:30:07.000Z</time>
      </trkpt>
      <trkpt lat="43.59557" lon="2.96573">
        <ele>1028.7</ele>
        <time>2026-05-07T11:30:08.000Z</time>
      </trkpt>
      <trkpt lat="43.59557" lon="2.96574">
        <ele>1028.9</ele>
        <time>2026-05-07T11:30:09.000Z</time>
      </trkpt>
      <trkpt lat="43.59558" lon="2.96575">
        <ele>1028.9</ele>
        <time>2026-05-07T11:30:10.000Z</time>
      </trkpt>
      <trkpt lat="43.59559" lon="2.96576">
        <ele>1028.9</ele>
        <time>2026-05-07T11:30:11.000Z</time>
      </trkpt>
      <trkpt lat="43.5956" lon="2.96576">
        <ele>1028.9</ele>
        <time>2026-05-07T11:30:12.000Z</time>
      </trkpt>
      <trkpt lat="43.59561" lon="2.96576">
        <ele>1028.8</ele>
        <time>2026-05-07T11:30:13.000Z</time>
      </trkpt>
      <trkpt lat="43.59561" lon="2.96576">
        <ele>1028.8</ele>
        <time>2026-05-07T11:30:14.000Z</time>
      </trkpt>
      <trkpt lat="43.59562" lon="2.96577">
        <ele>1028.9</ele>
        <time>2026-05-07T11:30:15.000Z</time>
      </trkpt>
      <trkpt lat="43.59563" lon="2.96578">
        <ele>1029</ele>
        <time>2026-05-07T11:30:16.000Z</time>
      </trkpt>
      <trkpt lat="43.59563" lon="2.96578">
        <ele>1029.3</ele>
        <time>2026-05-07T11:30:17.000Z</time>
      </trkpt>
      <trkpt lat="43.59564" lon="2.96577">
        <ele>1029.3</ele>
        <time>2026-05-07T11:30:18.000Z</time>
      </trkpt>
      <trkpt lat="43.59565" lon="2.96577">
        <ele>1029.5</ele>
        <time>2026-05-07T11:30:19.000Z</time>
      </trkpt>
      <trkpt lat="43.59566" lon="2.96577">
        <ele>1029.6</ele>
        <time>2026-05-07T11:30:20.000Z</time>
      </trkpt>
      <trkpt lat="43.59566" lon="2.96577">
        <ele>1029.7</ele>
        <time>2026-05-07T11:30:21.000Z</time>
      </trkpt>
      <trkpt lat="43.59567" lon="2.96577">
        <ele>1029.9</ele>
        <time>2026-05-07T11:30:22.000Z</time>
      </trkpt>
      <trkpt lat="43.59567" lon="2.96577">
        <ele>1029.9</ele>
        <time>2026-05-07T11:30:23.000Z</time>
      </trkpt>
      <trkpt lat="43.59568" lon="2.96578">
        <ele>1030.1</ele>
        <time>2026-05-07T11:30:24.000Z</time>
      </trkpt>
      <trkpt lat="43.59568" lon="2.96578">
        <ele>1030.3</ele>
        <time>2026-05-07T11:30:25.000Z</time>
      </trkpt>
      <trkpt lat="43.59568" lon="2.96579">
        <ele>1030.3</ele>
        <time>2026-05-07T11:30:26.000Z</time>
      </trkpt>
      <trkpt lat="43.59569" lon="2.9658">
        <ele>1030.3</ele>
        <time>2026-05-07T11:30:27.000Z</time>
      </trkpt>
      <trkpt lat="43.5957" lon="2.96581">
        <ele>1030.5</ele>
        <time>2026-05-07T11:30:28.000Z</time>
      </trkpt>
      <trkpt lat="43.5957" lon="2.96581">
        <ele>1030.4</ele>
        <time>2026-05-07T11:30:29.000Z</time>
      </trkpt>
      <trkpt lat="43.5957" lon="2.96582">
        <ele>1030.3</ele>
        <time>2026-05-07T11:30:30.000Z</time>
      </trkpt>
      <trkpt lat="43.59571" lon="2.96583">
        <ele>1030.1</ele>
        <time>2026-05-07T11:30:31.000Z</time>
      </trkpt>
      <trkpt lat="43.59571" lon="2.96583">
        <ele>1029.8</ele>
        <time>2026-05-07T11:30:32.000Z</time>
      </trkpt>
      <trkpt lat="43.59572" lon="2.96584">
        <ele>1029.7</ele>
        <time>2026-05-07T11:30:33.000Z</time>
      </trkpt>
      <trkpt lat="43.59572" lon="2.96584">
        <ele>1029.7</ele>
        <time>2026-05-07T11:30:34.000Z</time>
      </trkpt>
      <trkpt lat="43.59573" lon="2.96584">
        <ele>1029.9</ele>
        <time>2026-05-07T11:30:35.000Z</time>
      </trkpt>
      <trkpt lat="43.59574" lon="2.96585">
        <ele>1030.1</ele>
        <time>2026-05-07T11:30:36.000Z</time>
      </trkpt>
      <trkpt lat="43.59575" lon="2.96584">
        <ele>1029.6</ele>
        <time>2026-05-07T11:30:37.000Z</time>
      </trkpt>
      <trkpt lat="43.59575" lon="2.96584">
        <ele>1029.7</ele>
        <time>2026-05-07T11:30:38.000Z</time>
      </trkpt>
      <trkpt lat="43.59575" lon="2.96584">
        <ele>1029.5</ele>
        <time>2026-05-07T11:30:39.000Z</time>
      </trkpt>
      <trkpt lat="43.59574" lon="2.96584">
        <ele>1029.5</ele>
        <time>2026-05-07T11:30:40.000Z</time>
      </trkpt>
      <trkpt lat="43.59574" lon="2.96584">
        <ele>1029.5</ele>
        <time>2026-05-07T11:30:41.000Z</time>
      </trkpt>
      <trkpt lat="43.59574" lon="2.96584">
        <ele>1029.2</ele>
        <time>2026-05-07T11:30:42.000Z</time>
      </trkpt>
      <trkpt lat="43.59575" lon="2.96584">
        <ele>1029.4</ele>
        <time>2026-05-07T11:30:43.000Z</time>
      </trkpt>
      <trkpt lat="43.59575" lon="2.96585">
        <ele>1029.6</ele>
        <time>2026-05-07T11:30:44.000Z</time>
      </trkpt>
      <trkpt lat="43.59575" lon="2.96585">
        <ele>1029.6</ele>
        <time>2026-05-07T11:30:45.000Z</time>
      </trkpt>
      <trkpt lat="43.59575" lon="2.96585">
        <ele>1029.6</ele>
        <time>2026-05-07T11:30:46.000Z</time>
      </trkpt>
      <trkpt lat="43.59576" lon="2.96585">
        <ele>1029.5</ele>
        <time>2026-05-07T11:30:47.000Z</time>
      </trkpt>
      <trkpt lat="43.59576" lon="2.96585">
        <ele>1029.7</ele>
        <time>2026-05-07T11:30:48.000Z</time>
      </trkpt>
      <trkpt lat="43.59576" lon="2.96585">
        <ele>1029.8</ele>
        <time>2026-05-07T11:30:49.000Z</time>
      </trkpt>
      <trkpt lat="43.59576" lon="2.96586">
        <ele>1029.5</ele>
        <time>2026-05-07T11:30:50.000Z</time>
      </trkpt>
      <trkpt lat="43.59576" lon="2.96586">
        <ele>1029.5</ele>
        <time>2026-05-07T11:30:51.000Z</time>
      </trkpt>
      <trkpt lat="43.59576" lon="2.96586">
        <ele>1029.8</ele>
        <time>2026-05-07T11:30:52.000Z</time>
      </trkpt>
      <trkpt lat="43.59576" lon="2.96586">
        <ele>1030.3</ele>
        <time>2026-05-07T11:30:53.000Z</time>
      </trkpt>
      <trkpt lat="43.59576" lon="2.96586">
        <ele>1030.5</ele>
        <time>2026-05-07T11:30:54.000Z</time>
      </trkpt>
      <trkpt lat="43.59576" lon="2.96586">
        <ele>1030.6</ele>
        <time>2026-05-07T11:30:55.000Z</time>
      </trkpt>
      <trkpt lat="43.59577" lon="2.96586">
        <ele>1030.7</ele>
        <time>2026-05-07T11:30:56.000Z</time>
      </trkpt>
      <trkpt lat="43.59577" lon="2.96587">
        <ele>1030.6</ele>
        <time>2026-05-07T11:30:57.000Z</time>
      </trkpt>
      <trkpt lat="43.59577" lon="2.96588">
        <ele>1030.3</ele>
        <time>2026-05-07T11:30:58.000Z</time>
      </trkpt>
      <trkpt lat="43.59579" lon="2.96589">
        <ele>1030.3</ele>
        <time>2026-05-07T11:30:59.000Z</time>
      </trkpt>
      <trkpt lat="43.5958" lon="2.9659">
        <ele>1030.3</ele>
        <time>2026-05-07T11:31:00.000Z</time>
      </trkpt>
      <trkpt lat="43.59581" lon="2.96591">
        <ele>1030.1</ele>
        <time>2026-05-07T11:31:01.000Z</time>
      </trkpt>
      <trkpt lat="43.59582" lon="2.96592">
        <ele>1030</ele>
        <time>2026-05-07T11:31:02.000Z</time>
      </trkpt>
      <trkpt lat="43.59584" lon="2.96593">
        <ele>1030</ele>
        <time>2026-05-07T11:31:03.000Z</time>
      </trkpt>
      <trkpt lat="43.59585" lon="2.96593">
        <ele>1029.5</ele>
        <time>2026-05-07T11:31:04.000Z</time>
      </trkpt>
      <trkpt lat="43.59586" lon="2.96594">
        <ele>1029.3</ele>
        <time>2026-05-07T11:31:05.000Z</time>
      </trkpt>
      <trkpt lat="43.59587" lon="2.96595">
        <ele>1029.2</ele>
        <time>2026-05-07T11:31:06.000Z</time>
      </trkpt>
      <trkpt lat="43.59588" lon="2.96595">
        <ele>1029.1</ele>
        <time>2026-05-07T11:31:07.000Z</time>
      </trkpt>
      <trkpt lat="43.59589" lon="2.96596">
        <ele>1029.6</ele>
        <time>2026-05-07T11:31:08.000Z</time>
      </trkpt>
      <trkpt lat="43.59589" lon="2.96596">
        <ele>1029.4</ele>
        <time>2026-05-07T11:31:09.000Z</time>
      </trkpt>
      <trkpt lat="43.5959" lon="2.96596">
        <ele>1029.3</ele>
        <time>2026-05-07T11:31:10.000Z</time>
      </trkpt>
      <trkpt lat="43.59591" lon="2.96597">
        <ele>1029.1</ele>
        <time>2026-05-07T11:31:11.000Z</time>
      </trkpt>
      <trkpt lat="43.59593" lon="2.96599">
        <ele>1028.8</ele>
        <time>2026-05-07T11:31:12.999Z</time>
      </trkpt>
      <trkpt lat="43.59594" lon="2.96599">
        <ele>1029.1</ele>
        <time>2026-05-07T11:31:13.999Z</time>
      </trkpt>
      <trkpt lat="43.59596" lon="2.966">
        <ele>1029.5</ele>
        <time>2026-05-07T11:31:14.999Z</time>
      </trkpt>
      <trkpt lat="43.59597" lon="2.966">
        <ele>1029.6</ele>
        <time>2026-05-07T11:31:15.999Z</time>
      </trkpt>
      <trkpt lat="43.59597" lon="2.966">
        <ele>1029.4</ele>
        <time>2026-05-07T11:31:16.999Z</time>
      </trkpt>
      <trkpt lat="43.59597" lon="2.966">
        <ele>1029.4</ele>
        <time>2026-05-07T11:31:17.999Z</time>
      </trkpt>
      <trkpt lat="43.59598" lon="2.96599">
        <ele>1029.3</ele>
        <time>2026-05-07T11:31:18.999Z</time>
      </trkpt>
      <trkpt lat="43.59599" lon="2.96599">
        <ele>1029.3</ele>
        <time>2026-05-07T11:31:19.999Z</time>
      </trkpt>
      <trkpt lat="43.59599" lon="2.966">
        <ele>1029.7</ele>
        <time>2026-05-07T11:31:20.999Z</time>
      </trkpt>
      <trkpt lat="43.596" lon="2.96601">
        <ele>1029.9</ele>
        <time>2026-05-07T11:31:21.999Z</time>
      </trkpt>
      <trkpt lat="43.59601" lon="2.96602">
        <ele>1030.1</ele>
        <time>2026-05-07T11:31:22.999Z</time>
      </trkpt>
      <trkpt lat="43.59602" lon="2.96602">
        <ele>1030</ele>
        <time>2026-05-07T11:31:23.999Z</time>
      </trkpt>
      <trkpt lat="43.59603" lon="2.96603">
        <ele>1030</ele>
        <time>2026-05-07T11:31:24.999Z</time>
      </trkpt>
      <trkpt lat="43.59604" lon="2.96604">
        <ele>1030.2</ele>
        <time>2026-05-07T11:31:25.999Z</time>
      </trkpt>
      <trkpt lat="43.59605" lon="2.96604">
        <ele>1030.2</ele>
        <time>2026-05-07T11:31:26.999Z</time>
      </trkpt>
      <trkpt lat="43.59605" lon="2.96603">
        <ele>1030.4</ele>
        <time>2026-05-07T11:31:27.999Z</time>
      </trkpt>
      <trkpt lat="43.59606" lon="2.96603">
        <ele>1030.6</ele>
        <time>2026-05-07T11:31:28.999Z</time>
      </trkpt>
      <trkpt lat="43.59606" lon="2.96604">
        <ele>1031.5</ele>
        <time>2026-05-07T11:31:29.999Z</time>
      </trkpt>
      <trkpt lat="43.59606" lon="2.96604">
        <ele>1032.2</ele>
        <time>2026-05-07T11:31:30.999Z</time>
      </trkpt>
      <trkpt lat="43.59607" lon="2.96604">
        <ele>1032.1</ele>
        <time>2026-05-07T11:31:31.999Z</time>
      </trkpt>
      <trkpt lat="43.59608" lon="2.96604">
        <ele>1031.9</ele>
        <time>2026-05-07T11:31:32.999Z</time>
      </trkpt>
      <trkpt lat="43.59608" lon="2.96604">
        <ele>1031.8</ele>
        <time>2026-05-07T11:31:33.999Z</time>
      </trkpt>
      <trkpt lat="43.59608" lon="2.96604">
        <ele>1031.4</ele>
        <time>2026-05-07T11:31:34.999Z</time>
      </trkpt>
      <trkpt lat="43.59609" lon="2.96604">
        <ele>1031.5</ele>
        <time>2026-05-07T11:31:35.999Z</time>
      </trkpt>
      <trkpt lat="43.5961" lon="2.96603">
        <ele>1031.4</ele>
        <time>2026-05-07T11:31:36.999Z</time>
      </trkpt>
      <trkpt lat="43.59611" lon="2.96603">
        <ele>1031.4</ele>
        <time>2026-05-07T11:31:37.999Z</time>
      </trkpt>
      <trkpt lat="43.59611" lon="2.96604">
        <ele>1031.1</ele>
        <time>2026-05-07T11:31:38.999Z</time>
      </trkpt>
      <trkpt lat="43.59612" lon="2.96604">
        <ele>1030.8</ele>
        <time>2026-05-07T11:31:39.999Z</time>
      </trkpt>
      <trkpt lat="43.59613" lon="2.96605">
        <ele>1030.7</ele>
        <time>2026-05-07T11:31:40.999Z</time>
      </trkpt>
      <trkpt lat="43.59614" lon="2.96606">
        <ele>1030.9</ele>
        <time>2026-05-07T11:31:41.999Z</time>
      </trkpt>
      <trkpt lat="43.59615" lon="2.96607">
        <ele>1031.4</ele>
        <time>2026-05-07T11:31:42.999Z</time>
      </trkpt>
      <trkpt lat="43.59616" lon="2.96607">
        <ele>1031.9</ele>
        <time>2026-05-07T11:31:43.999Z</time>
      </trkpt>
      <trkpt lat="43.59617" lon="2.96607">
        <ele>1031.9</ele>
        <time>2026-05-07T11:31:44.999Z</time>
      </trkpt>
      <trkpt lat="43.59617" lon="2.96607">
        <ele>1031.6</ele>
        <time>2026-05-07T11:31:45.999Z</time>
      </trkpt>
      <trkpt lat="43.59618" lon="2.96607">
        <ele>1031.7</ele>
        <time>2026-05-07T11:31:46.999Z</time>
      </trkpt>
      <trkpt lat="43.59619" lon="2.96607">
        <ele>1031.9</ele>
        <time>2026-05-07T11:31:47.999Z</time>
      </trkpt>
      <trkpt lat="43.59619" lon="2.96607">
        <ele>1031.7</ele>
        <time>2026-05-07T11:31:48.999Z</time>
      </trkpt>
      <trkpt lat="43.5962" lon="2.96607">
        <ele>1031.9</ele>
        <time>2026-05-07T11:31:49.999Z</time>
      </trkpt>
      <trkpt lat="43.59621" lon="2.96607">
        <ele>1031.9</ele>
        <time>2026-05-07T11:31:50.999Z</time>
      </trkpt>
      <trkpt lat="43.59621" lon="2.96606">
        <ele>1031.9</ele>
        <time>2026-05-07T11:31:51.999Z</time>
      </trkpt>
      <trkpt lat="43.59622" lon="2.96606">
        <ele>1031.9</ele>
        <time>2026-05-07T11:31:52.999Z</time>
      </trkpt>
      <trkpt lat="43.59623" lon="2.96606">
        <ele>1032.1</ele>
        <time>2026-05-07T11:31:53.999Z</time>
      </trkpt>
      <trkpt lat="43.59623" lon="2.96607">
        <ele>1032.1</ele>
        <time>2026-05-07T11:31:54.999Z</time>
      </trkpt>
      <trkpt lat="43.59625" lon="2.96608">
        <ele>1032.2</ele>
        <time>2026-05-07T11:31:55.999Z</time>
      </trkpt>
      <trkpt lat="43.59626" lon="2.96609">
        <ele>1032.5</ele>
        <time>2026-05-07T11:31:56.999Z</time>
      </trkpt>
      <trkpt lat="43.59626" lon="2.96609">
        <ele>1032.8</ele>
        <time>2026-05-07T11:31:57.999Z</time>
      </trkpt>
      <trkpt lat="43.59626" lon="2.96609">
        <ele>1032.9</ele>
        <time>2026-05-07T11:31:58.999Z</time>
      </trkpt>
      <trkpt lat="43.59627" lon="2.96609">
        <ele>1032.8</ele>
        <time>2026-05-07T11:31:59.999Z</time>
      </trkpt>
      <trkpt lat="43.59628" lon="2.96609">
        <ele>1032.8</ele>
        <time>2026-05-07T11:32:00.999Z</time>
      </trkpt>
      <trkpt lat="43.59629" lon="2.9661">
        <ele>1032.9</ele>
        <time>2026-05-07T11:32:01.999Z</time>
      </trkpt>
      <trkpt lat="43.59631" lon="2.9661">
        <ele>1033</ele>
        <time>2026-05-07T11:32:02.999Z</time>
      </trkpt>
      <trkpt lat="43.59632" lon="2.9661">
        <ele>1033</ele>
        <time>2026-05-07T11:32:03.999Z</time>
      </trkpt>
      <trkpt lat="43.59633" lon="2.9661">
        <ele>1032.8</ele>
        <time>2026-05-07T11:32:04.999Z</time>
      </trkpt>
      <trkpt lat="43.59633" lon="2.9661">
        <ele>1032.9</ele>
        <time>2026-05-07T11:32:05.999Z</time>
      </trkpt>
      <trkpt lat="43.59633" lon="2.96609">
        <ele>1033</ele>
        <time>2026-05-07T11:32:06.999Z</time>
      </trkpt>
      <trkpt lat="43.59633" lon="2.96609">
        <ele>1033.1</ele>
        <time>2026-05-07T11:32:07.999Z</time>
      </trkpt>
      <trkpt lat="43.59634" lon="2.96609">
        <ele>1033.3</ele>
        <time>2026-05-07T11:32:08.999Z</time>
      </trkpt>
      <trkpt lat="43.59634" lon="2.96609">
        <ele>1033.3</ele>
        <time>2026-05-07T11:32:09.999Z</time>
      </trkpt>
      <trkpt lat="43.59635" lon="2.96608">
        <ele>1033.1</ele>
        <time>2026-05-07T11:32:10.999Z</time>
      </trkpt>
      <trkpt lat="43.59636" lon="2.96607">
        <ele>1033.1</ele>
        <time>2026-05-07T11:32:11.999Z</time>
      </trkpt>
      <trkpt lat="43.59636" lon="2.96606">
        <ele>1033.2</ele>
        <time>2026-05-07T11:32:12.999Z</time>
      </trkpt>
      <trkpt lat="43.59637" lon="2.96605">
        <ele>1033.7</ele>
        <time>2026-05-07T11:32:13.999Z</time>
      </trkpt>
      <trkpt lat="43.59639" lon="2.96604">
        <ele>1033.9</ele>
        <time>2026-05-07T11:32:14.999Z</time>
      </trkpt>
      <trkpt lat="43.5964" lon="2.96604">
        <ele>1034.2</ele>
        <time>2026-05-07T11:32:15.999Z</time>
      </trkpt>
      <trkpt lat="43.5964" lon="2.96604">
        <ele>1034.5</ele>
        <time>2026-05-07T11:32:16.999Z</time>
      </trkpt>
      <trkpt lat="43.59641" lon="2.96605">
        <ele>1034.7</ele>
        <time>2026-05-07T11:32:17.999Z</time>
      </trkpt>
      <trkpt lat="43.59641" lon="2.96605">
        <ele>1034.7</ele>
        <time>2026-05-07T11:32:18.999Z</time>
      </trkpt>
      <trkpt lat="43.59641" lon="2.96605">
        <ele>1034.7</ele>
        <time>2026-05-07T11:32:19.999Z</time>
      </trkpt>
      <trkpt lat="43.59641" lon="2.96605">
        <ele>1034.8</ele>
        <time>2026-05-07T11:32:20.999Z</time>
      </trkpt>
      <trkpt lat="43.59641" lon="2.96605">
        <ele>1035</ele>
        <time>2026-05-07T11:32:21.999Z</time>
      </trkpt>
      <trkpt lat="43.59641" lon="2.96605">
        <ele>1034.6</ele>
        <time>2026-05-07T11:32:22.999Z</time>
      </trkpt>
      <trkpt lat="43.59641" lon="2.96605">
        <ele>1034.6</ele>
        <time>2026-05-07T11:32:23.999Z</time>
      </trkpt>
      <trkpt lat="43.59641" lon="2.96605">
        <ele>1035</ele>
        <time>2026-05-07T11:32:24.999Z</time>
      </trkpt>
      <trkpt lat="43.59642" lon="2.96603">
        <ele>1035.4</ele>
        <time>2026-05-07T11:32:25.999Z</time>
      </trkpt>
      <trkpt lat="43.59643" lon="2.96602">
        <ele>1035.5</ele>
        <time>2026-05-07T11:32:26.999Z</time>
      </trkpt>
      <trkpt lat="43.59643" lon="2.96601">
        <ele>1035.7</ele>
        <time>2026-05-07T11:32:27.999Z</time>
      </trkpt>
      <trkpt lat="43.59643" lon="2.96599">
        <ele>1035.7</ele>
        <time>2026-05-07T11:32:28.999Z</time>
      </trkpt>
      <trkpt lat="43.59643" lon="2.96599">
        <ele>1035.5</ele>
        <time>2026-05-07T11:32:29.999Z</time>
      </trkpt>
      <trkpt lat="43.59644" lon="2.96599">
        <ele>1035.4</ele>
        <time>2026-05-07T11:32:30.999Z</time>
      </trkpt>
      <trkpt lat="43.59645" lon="2.96599">
        <ele>1035.6</ele>
        <time>2026-05-07T11:32:31.999Z</time>
      </trkpt>
      <trkpt lat="43.59646" lon="2.966">
        <ele>1035.7</ele>
        <time>2026-05-07T11:32:32.999Z</time>
      </trkpt>
      <trkpt lat="43.59647" lon="2.96599">
        <ele>1035.8</ele>
        <time>2026-05-07T11:32:33.999Z</time>
      </trkpt>
      <trkpt lat="43.59647" lon="2.966">
        <ele>1036</ele>
        <time>2026-05-07T11:32:34.999Z</time>
      </trkpt>
      <trkpt lat="43.59648" lon="2.966">
        <ele>1036.1</ele>
        <time>2026-05-07T11:32:35.999Z</time>
      </trkpt>
      <trkpt lat="43.59649" lon="2.966">
        <ele>1036</ele>
        <time>2026-05-07T11:32:36.999Z</time>
      </trkpt>
      <trkpt lat="43.5965" lon="2.966">
        <ele>1035.9</ele>
        <time>2026-05-07T11:32:37.999Z</time>
      </trkpt>
      <trkpt lat="43.59651" lon="2.966">
        <ele>1035.8</ele>
        <time>2026-05-07T11:32:38.999Z</time>
      </trkpt>
      <trkpt lat="43.59652" lon="2.966">
        <ele>1035.7</ele>
        <time>2026-05-07T11:32:39.999Z</time>
      </trkpt>
      <trkpt lat="43.59653" lon="2.966">
        <ele>1035.4</ele>
        <time>2026-05-07T11:32:40.999Z</time>
      </trkpt>
      <trkpt lat="43.59653" lon="2.966">
        <ele>1035.1</ele>
        <time>2026-05-07T11:32:41.999Z</time>
      </trkpt>
      <trkpt lat="43.59655" lon="2.96601">
        <ele>1035</ele>
        <time>2026-05-07T11:32:42.999Z</time>
      </trkpt>
      <trkpt lat="43.59656" lon="2.96601">
        <ele>1035.4</ele>
        <time>2026-05-07T11:32:43.999Z</time>
      </trkpt>
      <trkpt lat="43.59657" lon="2.96602">
        <ele>1035.6</ele>
        <time>2026-05-07T11:32:44.999Z</time>
      </trkpt>
      <trkpt lat="43.59658" lon="2.96601">
        <ele>1035.6</ele>
        <time>2026-05-07T11:32:45.999Z</time>
      </trkpt>
      <trkpt lat="43.59659" lon="2.96601">
        <ele>1036.1</ele>
        <time>2026-05-07T11:32:46.999Z</time>
      </trkpt>
      <trkpt lat="43.5966" lon="2.96601">
        <ele>1036.6</ele>
        <time>2026-05-07T11:32:47.999Z</time>
      </trkpt>
      <trkpt lat="43.59661" lon="2.96601">
        <ele>1036.4</ele>
        <time>2026-05-07T11:32:48.999Z</time>
      </trkpt>
      <trkpt lat="43.59663" lon="2.96602">
        <ele>1036.4</ele>
        <time>2026-05-07T11:32:49.999Z</time>
      </trkpt>
      <trkpt lat="43.59663" lon="2.96602">
        <ele>1036.6</ele>
        <time>2026-05-07T11:32:50.999Z</time>
      </trkpt>
      <trkpt lat="43.59664" lon="2.96603">
        <ele>1036.9</ele>
        <time>2026-05-07T11:32:51.999Z</time>
      </trkpt>
      <trkpt lat="43.59666" lon="2.96603">
        <ele>1037</ele>
        <time>2026-05-07T11:32:52.999Z</time>
      </trkpt>
      <trkpt lat="43.59666" lon="2.96603">
        <ele>1037.3</ele>
        <time>2026-05-07T11:32:53.999Z</time>
      </trkpt>
      <trkpt lat="43.59667" lon="2.96604">
        <ele>1037.6</ele>
        <time>2026-05-07T11:32:54.999Z</time>
      </trkpt>
      <trkpt lat="43.59668" lon="2.96604">
        <ele>1037.7</ele>
        <time>2026-05-07T11:32:55.999Z</time>
      </trkpt>
      <trkpt lat="43.59668" lon="2.96605">
        <ele>1037.9</ele>
        <time>2026-05-07T11:32:56.999Z</time>
      </trkpt>
      <trkpt lat="43.59669" lon="2.96606">
        <ele>1037.9</ele>
        <time>2026-05-07T11:32:57.999Z</time>
      </trkpt>
      <trkpt lat="43.5967" lon="2.96607">
        <ele>1038.1</ele>
        <time>2026-05-07T11:32:58.999Z</time>
      </trkpt>
      <trkpt lat="43.59671" lon="2.96608">
        <ele>1038.3</ele>
        <time>2026-05-07T11:32:59.999Z</time>
      </trkpt>
      <trkpt lat="43.59672" lon="2.96609">
        <ele>1038.5</ele>
        <time>2026-05-07T11:33:00.999Z</time>
      </trkpt>
      <trkpt lat="43.59673" lon="2.9661">
        <ele>1038.4</ele>
        <time>2026-05-07T11:33:01.999Z</time>
      </trkpt>
      <trkpt lat="43.59674" lon="2.9661">
        <ele>1038.1</ele>
        <time>2026-05-07T11:33:02.999Z</time>
      </trkpt>
      <trkpt lat="43.59675" lon="2.9661">
        <ele>1037.8</ele>
        <time>2026-05-07T11:33:03.999Z</time>
      </trkpt>
      <trkpt lat="43.59675" lon="2.9661">
        <ele>1037.7</ele>
        <time>2026-05-07T11:33:04.999Z</time>
      </trkpt>
      <trkpt lat="43.59676" lon="2.9661">
        <ele>1037.8</ele>
        <time>2026-05-07T11:33:05.999Z</time>
      </trkpt>
      <trkpt lat="43.59677" lon="2.96611">
        <ele>1038.1</ele>
        <time>2026-05-07T11:33:06.999Z</time>
      </trkpt>
      <trkpt lat="43.59678" lon="2.96612">
        <ele>1038.6</ele>
        <time>2026-05-07T11:33:07.999Z</time>
      </trkpt>
      <trkpt lat="43.59679" lon="2.96612">
        <ele>1038.7</ele>
        <time>2026-05-07T11:33:08.999Z</time>
      </trkpt>
      <trkpt lat="43.5968" lon="2.96612">
        <ele>1038.7</ele>
        <time>2026-05-07T11:33:09.999Z</time>
      </trkpt>
      <trkpt lat="43.59681" lon="2.96611">
        <ele>1038.8</ele>
        <time>2026-05-07T11:33:10.999Z</time>
      </trkpt>
      <trkpt lat="43.59682" lon="2.96611">
        <ele>1038.7</ele>
        <time>2026-05-07T11:33:11.999Z</time>
      </trkpt>
      <trkpt lat="43.59683" lon="2.96612">
        <ele>1038.9</ele>
        <time>2026-05-07T11:33:12.999Z</time>
      </trkpt>
      <trkpt lat="43.59685" lon="2.96612">
        <ele>1039.4</ele>
        <time>2026-05-07T11:33:13.999Z</time>
      </trkpt>
      <trkpt lat="43.59686" lon="2.96612">
        <ele>1039.7</ele>
        <time>2026-05-07T11:33:14.999Z</time>
      </trkpt>
      <trkpt lat="43.59687" lon="2.96612">
        <ele>1039.6</ele>
        <time>2026-05-07T11:33:15.999Z</time>
      </trkpt>
      <trkpt lat="43.59688" lon="2.96612">
        <ele>1039.5</ele>
        <time>2026-05-07T11:33:16.999Z</time>
      </trkpt>
      <trkpt lat="43.59688" lon="2.96611">
        <ele>1039.2</ele>
        <time>2026-05-07T11:33:17.999Z</time>
      </trkpt>
      <trkpt lat="43.59689" lon="2.96611">
        <ele>1039.3</ele>
        <time>2026-05-07T11:33:18.999Z</time>
      </trkpt>
      <trkpt lat="43.59689" lon="2.96612">
        <ele>1039.6</ele>
        <time>2026-05-07T11:33:19.999Z</time>
      </trkpt>
      <trkpt lat="43.5969" lon="2.96613">
        <ele>1039.3</ele>
        <time>2026-05-07T11:33:20.999Z</time>
      </trkpt>
      <trkpt lat="43.59691" lon="2.96614">
        <ele>1039.4</ele>
        <time>2026-05-07T11:33:21.999Z</time>
      </trkpt>
      <trkpt lat="43.59691" lon="2.96615">
        <ele>1039.6</ele>
        <time>2026-05-07T11:33:22.999Z</time>
      </trkpt>
      <trkpt lat="43.59692" lon="2.96616">
        <ele>1039.5</ele>
        <time>2026-05-07T11:33:23.999Z</time>
      </trkpt>
      <trkpt lat="43.59693" lon="2.96616">
        <ele>1039.8</ele>
        <time>2026-05-07T11:33:24.999Z</time>
      </trkpt>
      <trkpt lat="43.59695" lon="2.96617">
        <ele>1039.7</ele>
        <time>2026-05-07T11:33:25.999Z</time>
      </trkpt>
      <trkpt lat="43.59695" lon="2.96617">
        <ele>1039.7</ele>
        <time>2026-05-07T11:33:26.999Z</time>
      </trkpt>
      <trkpt lat="43.59696" lon="2.96618">
        <ele>1039.7</ele>
        <time>2026-05-07T11:33:27.999Z</time>
      </trkpt>
      <trkpt lat="43.59696" lon="2.96618">
        <ele>1039.5</ele>
        <time>2026-05-07T11:33:28.999Z</time>
      </trkpt>
      <trkpt lat="43.59697" lon="2.9662">
        <ele>1039.7</ele>
        <time>2026-05-07T11:33:29.999Z</time>
      </trkpt>
      <trkpt lat="43.59699" lon="2.96621">
        <ele>1040.1</ele>
        <time>2026-05-07T11:33:30.999Z</time>
      </trkpt>
      <trkpt lat="43.59699" lon="2.96621">
        <ele>1040.1</ele>
        <time>2026-05-07T11:33:31.999Z</time>
      </trkpt>
      <trkpt lat="43.597" lon="2.96621">
        <ele>1040.4</ele>
        <time>2026-05-07T11:33:32.999Z</time>
      </trkpt>
      <trkpt lat="43.59701" lon="2.96622">
        <ele>1040.5</ele>
        <time>2026-05-07T11:33:33.999Z</time>
      </trkpt>
      <trkpt lat="43.59701" lon="2.96623">
        <ele>1040.5</ele>
        <time>2026-05-07T11:33:34.999Z</time>
      </trkpt>
      <trkpt lat="43.59702" lon="2.96625">
        <ele>1040.5</ele>
        <time>2026-05-07T11:33:35.999Z</time>
      </trkpt>
      <trkpt lat="43.59703" lon="2.96626">
        <ele>1040.3</ele>
        <time>2026-05-07T11:33:36.999Z</time>
      </trkpt>
      <trkpt lat="43.59703" lon="2.96625">
        <ele>1040.2</ele>
        <time>2026-05-07T11:33:37.999Z</time>
      </trkpt>
      <trkpt lat="43.59704" lon="2.96625">
        <ele>1040.3</ele>
        <time>2026-05-07T11:33:38.999Z</time>
      </trkpt>
      <trkpt lat="43.59706" lon="2.96625">
        <ele>1040.4</ele>
        <time>2026-05-07T11:33:39.999Z</time>
      </trkpt>
      <trkpt lat="43.59707" lon="2.96624">
        <ele>1040.4</ele>
        <time>2026-05-07T11:33:40.999Z</time>
      </trkpt>
      <trkpt lat="43.59707" lon="2.96624">
        <ele>1040.4</ele>
        <time>2026-05-07T11:33:41.999Z</time>
      </trkpt>
      <trkpt lat="43.59709" lon="2.96625">
        <ele>1040.6</ele>
        <time>2026-05-07T11:33:42.999Z</time>
      </trkpt>
      <trkpt lat="43.5971" lon="2.96625">
        <ele>1041</ele>
        <time>2026-05-07T11:33:43.999Z</time>
      </trkpt>
      <trkpt lat="43.59711" lon="2.96626">
        <ele>1041</ele>
        <time>2026-05-07T11:33:44.999Z</time>
      </trkpt>
      <trkpt lat="43.59712" lon="2.96627">
        <ele>1041</ele>
        <time>2026-05-07T11:33:45.999Z</time>
      </trkpt>
      <trkpt lat="43.59713" lon="2.96627">
        <ele>1040.9</ele>
        <time>2026-05-07T11:33:46.999Z</time>
      </trkpt>
      <trkpt lat="43.59713" lon="2.96628">
        <ele>1041.1</ele>
        <time>2026-05-07T11:33:47.999Z</time>
      </trkpt>
      <trkpt lat="43.59714" lon="2.96628">
        <ele>1041.2</ele>
        <time>2026-05-07T11:33:48.999Z</time>
      </trkpt>
      <trkpt lat="43.59715" lon="2.96629">
        <ele>1041.4</ele>
        <time>2026-05-07T11:33:49.999Z</time>
      </trkpt>
      <trkpt lat="43.59716" lon="2.9663">
        <ele>1041.5</ele>
        <time>2026-05-07T11:33:50.999Z</time>
      </trkpt>
      <trkpt lat="43.59717" lon="2.9663">
        <ele>1041.7</ele>
        <time>2026-05-07T11:33:51.999Z</time>
      </trkpt>
      <trkpt lat="43.59718" lon="2.96631">
        <ele>1041.6</ele>
        <time>2026-05-07T11:33:52.999Z</time>
      </trkpt>
      <trkpt lat="43.59719" lon="2.96632">
        <ele>1041.6</ele>
        <time>2026-05-07T11:33:53.999Z</time>
      </trkpt>
      <trkpt lat="43.5972" lon="2.96632">
        <ele>1041.8</ele>
        <time>2026-05-07T11:33:54.999Z</time>
      </trkpt>
      <trkpt lat="43.59721" lon="2.96632">
        <ele>1042</ele>
        <time>2026-05-07T11:33:55.999Z</time>
      </trkpt>
      <trkpt lat="43.59722" lon="2.96632">
        <ele>1042.1</ele>
        <time>2026-05-07T11:33:56.999Z</time>
      </trkpt>
      <trkpt lat="43.59723" lon="2.96632">
        <ele>1042.4</ele>
        <time>2026-05-07T11:33:57.999Z</time>
      </trkpt>
      <trkpt lat="43.59724" lon="2.96633">
        <ele>1042.4</ele>
        <time>2026-05-07T11:33:58.999Z</time>
      </trkpt>
      <trkpt lat="43.59725" lon="2.96633">
        <ele>1042.3</ele>
        <time>2026-05-07T11:33:59.999Z</time>
      </trkpt>
      <trkpt lat="43.59725" lon="2.96633">
        <ele>1042.6</ele>
        <time>2026-05-07T11:34:00.999Z</time>
      </trkpt>
      <trkpt lat="43.59726" lon="2.96632">
        <ele>1042.8</ele>
        <time>2026-05-07T11:34:01.999Z</time>
      </trkpt>
      <trkpt lat="43.59728" lon="2.96632">
        <ele>1042.9</ele>
        <time>2026-05-07T11:34:02.999Z</time>
      </trkpt>
      <trkpt lat="43.5973" lon="2.96632">
        <ele>1043.3</ele>
        <time>2026-05-07T11:34:03.999Z</time>
      </trkpt>
      <trkpt lat="43.5973" lon="2.96632">
        <ele>1043.3</ele>
        <time>2026-05-07T11:34:04.999Z</time>
      </trkpt>
      <trkpt lat="43.59731" lon="2.96633">
        <ele>1043.1</ele>
        <time>2026-05-07T11:34:05.999Z</time>
      </trkpt>
      <trkpt lat="43.59732" lon="2.96633">
        <ele>1042.9</ele>
        <time>2026-05-07T11:34:06.999Z</time>
      </trkpt>
      <trkpt lat="43.59733" lon="2.96633">
        <ele>1042.5</ele>
        <time>2026-05-07T11:34:07.999Z</time>
      </trkpt>
      <trkpt lat="43.59734" lon="2.96635">
        <ele>1042.8</ele>
        <time>2026-05-07T11:34:08.999Z</time>
      </trkpt>
      <trkpt lat="43.59734" lon="2.96635">
        <ele>1042.9</ele>
        <time>2026-05-07T11:34:09.999Z</time>
      </trkpt>
      <trkpt lat="43.59735" lon="2.96634">
        <ele>1043.1</ele>
        <time>2026-05-07T11:34:10.999Z</time>
      </trkpt>
      <trkpt lat="43.59736" lon="2.96634">
        <ele>1043.1</ele>
        <time>2026-05-07T11:34:11.999Z</time>
      </trkpt>
      <trkpt lat="43.59736" lon="2.96634">
        <ele>1042.7</ele>
        <time>2026-05-07T11:34:12.999Z</time>
      </trkpt>
      <trkpt lat="43.59737" lon="2.96634">
        <ele>1042.6</ele>
        <time>2026-05-07T11:34:13.999Z</time>
      </trkpt>
      <trkpt lat="43.59737" lon="2.96635">
        <ele>1042.7</ele>
        <time>2026-05-07T11:34:14.999Z</time>
      </trkpt>
      <trkpt lat="43.59738" lon="2.96636">
        <ele>1042.8</ele>
        <time>2026-05-07T11:34:15.999Z</time>
      </trkpt>
      <trkpt lat="43.59739" lon="2.96637">
        <ele>1043</ele>
        <time>2026-05-07T11:34:16.999Z</time>
      </trkpt>
      <trkpt lat="43.5974" lon="2.96637">
        <ele>1043</ele>
        <time>2026-05-07T11:34:17.999Z</time>
      </trkpt>
      <trkpt lat="43.59741" lon="2.96637">
        <ele>1043</ele>
        <time>2026-05-07T11:34:18.999Z</time>
      </trkpt>
      <trkpt lat="43.59742" lon="2.96638">
        <ele>1043.4</ele>
        <time>2026-05-07T11:34:19.999Z</time>
      </trkpt>
      <trkpt lat="43.59743" lon="2.96639">
        <ele>1043.9</ele>
        <time>2026-05-07T11:34:20.999Z</time>
      </trkpt>
      <trkpt lat="43.59744" lon="2.96639">
        <ele>1043.9</ele>
        <time>2026-05-07T11:34:21.999Z</time>
      </trkpt>
      <trkpt lat="43.59745" lon="2.9664">
        <ele>1043.9</ele>
        <time>2026-05-07T11:34:22.999Z</time>
      </trkpt>
      <trkpt lat="43.59745" lon="2.96641">
        <ele>1044</ele>
        <time>2026-05-07T11:34:23.999Z</time>
      </trkpt>
      <trkpt lat="43.59746" lon="2.96642">
        <ele>1044</ele>
        <time>2026-05-07T11:34:24.999Z</time>
      </trkpt>
      <trkpt lat="43.59747" lon="2.96643">
        <ele>1044.1</ele>
        <time>2026-05-07T11:34:25.999Z</time>
      </trkpt>
      <trkpt lat="43.59748" lon="2.96644">
        <ele>1044.2</ele>
        <time>2026-05-07T11:34:26.999Z</time>
      </trkpt>
      <trkpt lat="43.59749" lon="2.96643">
        <ele>1044.5</ele>
        <time>2026-05-07T11:34:27.999Z</time>
      </trkpt>
      <trkpt lat="43.5975" lon="2.96642">
        <ele>1045</ele>
        <time>2026-05-07T11:34:28.999Z</time>
      </trkpt>
      <trkpt lat="43.59751" lon="2.96642">
        <ele>1045.4</ele>
        <time>2026-05-07T11:34:29.999Z</time>
      </trkpt>
      <trkpt lat="43.59752" lon="2.96642">
        <ele>1045.6</ele>
        <time>2026-05-07T11:34:30.999Z</time>
      </trkpt>
      <trkpt lat="43.59753" lon="2.96642">
        <ele>1046.1</ele>
        <time>2026-05-07T11:34:31.999Z</time>
      </trkpt>
      <trkpt lat="43.59755" lon="2.96642">
        <ele>1045.8</ele>
        <time>2026-05-07T11:34:32.999Z</time>
      </trkpt>
      <trkpt lat="43.59755" lon="2.96642">
        <ele>1045.8</ele>
        <time>2026-05-07T11:34:33.999Z</time>
      </trkpt>
      <trkpt lat="43.59756" lon="2.96642">
        <ele>1045.7</ele>
        <time>2026-05-07T11:34:34.999Z</time>
      </trkpt>
      <trkpt lat="43.59756" lon="2.96642">
        <ele>1046.1</ele>
        <time>2026-05-07T11:34:35.999Z</time>
      </trkpt>
      <trkpt lat="43.59757" lon="2.96642">
        <ele>1046.5</ele>
        <time>2026-05-07T11:34:36.999Z</time>
      </trkpt>
      <trkpt lat="43.59757" lon="2.96642">
        <ele>1046.7</ele>
        <time>2026-05-07T11:34:37.999Z</time>
      </trkpt>
      <trkpt lat="43.59758" lon="2.96642">
        <ele>1046.9</ele>
        <time>2026-05-07T11:34:38.999Z</time>
      </trkpt>
      <trkpt lat="43.59759" lon="2.96643">
        <ele>1047.1</ele>
        <time>2026-05-07T11:34:39.999Z</time>
      </trkpt>
      <trkpt lat="43.5976" lon="2.96644">
        <ele>1047.4</ele>
        <time>2026-05-07T11:34:40.999Z</time>
      </trkpt>
      <trkpt lat="43.59761" lon="2.96645">
        <ele>1047.6</ele>
        <time>2026-05-07T11:34:41.999Z</time>
      </trkpt>
      <trkpt lat="43.59762" lon="2.96645">
        <ele>1048</ele>
        <time>2026-05-07T11:34:42.999Z</time>
      </trkpt>
      <trkpt lat="43.59763" lon="2.96646">
        <ele>1047.7</ele>
        <time>2026-05-07T11:34:43.999Z</time>
      </trkpt>
      <trkpt lat="43.59764" lon="2.96646">
        <ele>1047.3</ele>
        <time>2026-05-07T11:34:44.999Z</time>
      </trkpt>
      <trkpt lat="43.59765" lon="2.96646">
        <ele>1047.3</ele>
        <time>2026-05-07T11:34:45.999Z</time>
      </trkpt>
      <trkpt lat="43.59765" lon="2.96646">
        <ele>1047.2</ele>
        <time>2026-05-07T11:34:46.999Z</time>
      </trkpt>
      <trkpt lat="43.59766" lon="2.96646">
        <ele>1047.2</ele>
        <time>2026-05-07T11:34:47.999Z</time>
      </trkpt>
      <trkpt lat="43.59766" lon="2.96647">
        <ele>1047.1</ele>
        <time>2026-05-07T11:34:48.999Z</time>
      </trkpt>
      <trkpt lat="43.59767" lon="2.96647">
        <ele>1047</ele>
        <time>2026-05-07T11:34:49.999Z</time>
      </trkpt>
      <trkpt lat="43.59768" lon="2.96648">
        <ele>1047</ele>
        <time>2026-05-07T11:34:50.999Z</time>
      </trkpt>
      <trkpt lat="43.59768" lon="2.96648">
        <ele>1046.8</ele>
        <time>2026-05-07T11:34:51.999Z</time>
      </trkpt>
      <trkpt lat="43.59768" lon="2.96649">
        <ele>1046.9</ele>
        <time>2026-05-07T11:34:52.999Z</time>
      </trkpt>
      <trkpt lat="43.59769" lon="2.9665">
        <ele>1046.8</ele>
        <time>2026-05-07T11:34:53.999Z</time>
      </trkpt>
      <trkpt lat="43.59771" lon="2.96651">
        <ele>1046.8</ele>
        <time>2026-05-07T11:34:54.999Z</time>
      </trkpt>
      <trkpt lat="43.59772" lon="2.96651">
        <ele>1046.5</ele>
        <time>2026-05-07T11:34:55.999Z</time>
      </trkpt>
      <trkpt lat="43.59773" lon="2.96651">
        <ele>1046.5</ele>
        <time>2026-05-07T11:34:56.999Z</time>
      </trkpt>
      <trkpt lat="43.59774" lon="2.96651">
        <ele>1046.7</ele>
        <time>2026-05-07T11:34:57.999Z</time>
      </trkpt>
      <trkpt lat="43.59776" lon="2.96652">
        <ele>1047.1</ele>
        <time>2026-05-07T11:34:58.999Z</time>
      </trkpt>
      <trkpt lat="43.59777" lon="2.96651">
        <ele>1047.5</ele>
        <time>2026-05-07T11:34:59.999Z</time>
      </trkpt>
      <trkpt lat="43.59779" lon="2.96651">
        <ele>1047.8</ele>
        <time>2026-05-07T11:35:00.999Z</time>
      </trkpt>
      <trkpt lat="43.5978" lon="2.9665">
        <ele>1047.9</ele>
        <time>2026-05-07T11:35:01.999Z</time>
      </trkpt>
      <trkpt lat="43.59781" lon="2.96649">
        <ele>1048</ele>
        <time>2026-05-07T11:35:02.999Z</time>
      </trkpt>
      <trkpt lat="43.59782" lon="2.9665">
        <ele>1048.3</ele>
        <time>2026-05-07T11:35:03.999Z</time>
      </trkpt>
      <trkpt lat="43.59783" lon="2.9665">
        <ele>1048.2</ele>
        <time>2026-05-07T11:35:04.999Z</time>
      </trkpt>
      <trkpt lat="43.59784" lon="2.96652">
        <ele>1048.4</ele>
        <time>2026-05-07T11:35:05.999Z</time>
      </trkpt>
      <trkpt lat="43.59785" lon="2.96653">
        <ele>1048.4</ele>
        <time>2026-05-07T11:35:06.999Z</time>
      </trkpt>
      <trkpt lat="43.59786" lon="2.96653">
        <ele>1048.4</ele>
        <time>2026-05-07T11:35:07.999Z</time>
      </trkpt>
      <trkpt lat="43.59787" lon="2.96654">
        <ele>1048.2</ele>
        <time>2026-05-07T11:35:08.999Z</time>
      </trkpt>
      <trkpt lat="43.59788" lon="2.96653">
        <ele>1048.1</ele>
        <time>2026-05-07T11:35:09.999Z</time>
      </trkpt>
      <trkpt lat="43.59789" lon="2.96653">
        <ele>1048.4</ele>
        <time>2026-05-07T11:35:10.999Z</time>
      </trkpt>
      <trkpt lat="43.5979" lon="2.96654">
        <ele>1048.8</ele>
        <time>2026-05-07T11:35:11.999Z</time>
      </trkpt>
      <trkpt lat="43.59791" lon="2.96654">
        <ele>1048.9</ele>
        <time>2026-05-07T11:35:12.999Z</time>
      </trkpt>
      <trkpt lat="43.59792" lon="2.96654">
        <ele>1048.9</ele>
        <time>2026-05-07T11:35:13.999Z</time>
      </trkpt>
      <trkpt lat="43.59792" lon="2.96654">
        <ele>1048.8</ele>
        <time>2026-05-07T11:35:14.999Z</time>
      </trkpt>
      <trkpt lat="43.59793" lon="2.96654">
        <ele>1048.9</ele>
        <time>2026-05-07T11:35:15.999Z</time>
      </trkpt>
      <trkpt lat="43.59794" lon="2.96655">
        <ele>1048.9</ele>
        <time>2026-05-07T11:35:16.999Z</time>
      </trkpt>
      <trkpt lat="43.59795" lon="2.96656">
        <ele>1049.5</ele>
        <time>2026-05-07T11:35:17.999Z</time>
      </trkpt>
      <trkpt lat="43.59796" lon="2.96657">
        <ele>1050</ele>
        <time>2026-05-07T11:35:18.999Z</time>
      </trkpt>
      <trkpt lat="43.59797" lon="2.96658">
        <ele>1050.5</ele>
        <time>2026-05-07T11:35:19.999Z</time>
      </trkpt>
      <trkpt lat="43.59798" lon="2.96658">
        <ele>1050.3</ele>
        <time>2026-05-07T11:35:20.999Z</time>
      </trkpt>
      <trkpt lat="43.598" lon="2.96658">
        <ele>1050</ele>
        <time>2026-05-07T11:35:21.999Z</time>
      </trkpt>
      <trkpt lat="43.598" lon="2.96658">
        <ele>1050.2</ele>
        <time>2026-05-07T11:35:22.999Z</time>
      </trkpt>
      <trkpt lat="43.59802" lon="2.96659">
        <ele>1050.5</ele>
        <time>2026-05-07T11:35:23.999Z</time>
      </trkpt>
      <trkpt lat="43.59803" lon="2.9666">
        <ele>1050.6</ele>
        <time>2026-05-07T11:35:24.999Z</time>
      </trkpt>
      <trkpt lat="43.59804" lon="2.96661">
        <ele>1050.5</ele>
        <time>2026-05-07T11:35:25.999Z</time>
      </trkpt>
      <trkpt lat="43.59805" lon="2.96661">
        <ele>1050.6</ele>
        <time>2026-05-07T11:35:26.999Z</time>
      </trkpt>
      <trkpt lat="43.59806" lon="2.96661">
        <ele>1050.5</ele>
        <time>2026-05-07T11:35:27.999Z</time>
      </trkpt>
      <trkpt lat="43.59806" lon="2.96661">
        <ele>1050.2</ele>
        <time>2026-05-07T11:35:28.999Z</time>
      </trkpt>
      <trkpt lat="43.59807" lon="2.9666">
        <ele>1050.3</ele>
        <time>2026-05-07T11:35:29.999Z</time>
      </trkpt>
      <trkpt lat="43.59808" lon="2.96661">
        <ele>1050.3</ele>
        <time>2026-05-07T11:35:30.999Z</time>
      </trkpt>
      <trkpt lat="43.59809" lon="2.96663">
        <ele>1050.2</ele>
        <time>2026-05-07T11:35:31.999Z</time>
      </trkpt>
      <trkpt lat="43.5981" lon="2.96664">
        <ele>1050.2</ele>
        <time>2026-05-07T11:35:32.999Z</time>
      </trkpt>
      <trkpt lat="43.59811" lon="2.96664">
        <ele>1049.6</ele>
        <time>2026-05-07T11:35:33.999Z</time>
      </trkpt>
      <trkpt lat="43.59812" lon="2.96665">
        <ele>1049.6</ele>
        <time>2026-05-07T11:35:34.999Z</time>
      </trkpt>
      <trkpt lat="43.59814" lon="2.96666">
        <ele>1049.6</ele>
        <time>2026-05-07T11:35:35.999Z</time>
      </trkpt>
      <trkpt lat="43.59816" lon="2.96667">
        <ele>1049.4</ele>
        <time>2026-05-07T11:35:36.999Z</time>
      </trkpt>
      <trkpt lat="43.59817" lon="2.96668">
        <ele>1049.4</ele>
        <time>2026-05-07T11:35:37.999Z</time>
      </trkpt>
      <trkpt lat="43.59819" lon="2.96669">
        <ele>1049.4</ele>
        <time>2026-05-07T11:35:38.999Z</time>
      </trkpt>
      <trkpt lat="43.5982" lon="2.96669">
        <ele>1049.3</ele>
        <time>2026-05-07T11:35:39.999Z</time>
      </trkpt>
      <trkpt lat="43.5982" lon="2.9667">
        <ele>1049</ele>
        <time>2026-05-07T11:35:40.999Z</time>
      </trkpt>
      <trkpt lat="43.59821" lon="2.9667">
        <ele>1049.2</ele>
        <time>2026-05-07T11:35:41.999Z</time>
      </trkpt>
      <trkpt lat="43.59822" lon="2.96671">
        <ele>1049.4</ele>
        <time>2026-05-07T11:35:42.999Z</time>
      </trkpt>
      <trkpt lat="43.59823" lon="2.96671">
        <ele>1049.8</ele>
        <time>2026-05-07T11:35:43.999Z</time>
      </trkpt>
      <trkpt lat="43.59824" lon="2.96671">
        <ele>1049.9</ele>
        <time>2026-05-07T11:35:44.999Z</time>
      </trkpt>
      <trkpt lat="43.59826" lon="2.96672">
        <ele>1049.9</ele>
        <time>2026-05-07T11:35:45.999Z</time>
      </trkpt>
      <trkpt lat="43.59827" lon="2.96672">
        <ele>1049.7</ele>
        <time>2026-05-07T11:35:46.999Z</time>
      </trkpt>
      <trkpt lat="43.59828" lon="2.96673">
        <ele>1049.4</ele>
        <time>2026-05-07T11:35:47.999Z</time>
      </trkpt>
      <trkpt lat="43.59829" lon="2.96674">
        <ele>1049.3</ele>
        <time>2026-05-07T11:35:48.999Z</time>
      </trkpt>
      <trkpt lat="43.59829" lon="2.96675">
        <ele>1049.1</ele>
        <time>2026-05-07T11:35:49.999Z</time>
      </trkpt>
      <trkpt lat="43.5983" lon="2.96675">
        <ele>1048.7</ele>
        <time>2026-05-07T11:35:50.999Z</time>
      </trkpt>
      <trkpt lat="43.59831" lon="2.96676">
        <ele>1048.6</ele>
        <time>2026-05-07T11:35:51.999Z</time>
      </trkpt>
      <trkpt lat="43.59833" lon="2.96677">
        <ele>1048.6</ele>
        <time>2026-05-07T11:35:52.999Z</time>
      </trkpt>
      <trkpt lat="43.59834" lon="2.96678">
        <ele>1048.3</ele>
        <time>2026-05-07T11:35:53.999Z</time>
      </trkpt>
      <trkpt lat="43.59835" lon="2.9668">
        <ele>1048.2</ele>
        <time>2026-05-07T11:35:54.999Z</time>
      </trkpt>
      <trkpt lat="43.59836" lon="2.96681">
        <ele>1048.3</ele>
        <time>2026-05-07T11:35:55.999Z</time>
      </trkpt>
      <trkpt lat="43.59836" lon="2.96682">
        <ele>1048.4</ele>
        <time>2026-05-07T11:35:56.999Z</time>
      </trkpt>
      <trkpt lat="43.59837" lon="2.96682">
        <ele>1048.7</ele>
        <time>2026-05-07T11:35:57.999Z</time>
      </trkpt>
      <trkpt lat="43.59838" lon="2.96683">
        <ele>1048.8</ele>
        <time>2026-05-07T11:35:58.999Z</time>
      </trkpt>
      <trkpt lat="43.59839" lon="2.96684">
        <ele>1048.7</ele>
        <time>2026-05-07T11:35:59.999Z</time>
      </trkpt>
      <trkpt lat="43.5984" lon="2.96685">
        <ele>1048.8</ele>
        <time>2026-05-07T11:36:00.999Z</time>
      </trkpt>
      <trkpt lat="43.59842" lon="2.96686">
        <ele>1048.9</ele>
        <time>2026-05-07T11:36:01.999Z</time>
      </trkpt>
      <trkpt lat="43.59843" lon="2.96688">
        <ele>1049.3</ele>
        <time>2026-05-07T11:36:02.999Z</time>
      </trkpt>
      <trkpt lat="43.59845" lon="2.96689">
        <ele>1049.5</ele>
        <time>2026-05-07T11:36:03.999Z</time>
      </trkpt>
      <trkpt lat="43.59846" lon="2.9669">
        <ele>1049.7</ele>
        <time>2026-05-07T11:36:04.999Z</time>
      </trkpt>
      <trkpt lat="43.59847" lon="2.96691">
        <ele>1050</ele>
        <time>2026-05-07T11:36:05.999Z</time>
      </trkpt>
      <trkpt lat="43.59848" lon="2.96692">
        <ele>1050</ele>
        <time>2026-05-07T11:36:06.999Z</time>
      </trkpt>
      <trkpt lat="43.59848" lon="2.96692">
        <ele>1050.1</ele>
        <time>2026-05-07T11:36:07.999Z</time>
      </trkpt>
      <trkpt lat="43.59848" lon="2.96693">
        <ele>1049.8</ele>
        <time>2026-05-07T11:36:08.999Z</time>
      </trkpt>
      <trkpt lat="43.59849" lon="2.96694">
        <ele>1049.7</ele>
        <time>2026-05-07T11:36:09.999Z</time>
      </trkpt>
      <trkpt lat="43.59851" lon="2.96694">
        <ele>1049.5</ele>
        <time>2026-05-07T11:36:10.999Z</time>
      </trkpt>
      <trkpt lat="43.59852" lon="2.96694">
        <ele>1049.6</ele>
        <time>2026-05-07T11:36:11.999Z</time>
      </trkpt>
      <trkpt lat="43.59853" lon="2.96695">
        <ele>1049.6</ele>
        <time>2026-05-07T11:36:12.999Z</time>
      </trkpt>
      <trkpt lat="43.59854" lon="2.96696">
        <ele>1049.8</ele>
        <time>2026-05-07T11:36:13.999Z</time>
      </trkpt>
      <trkpt lat="43.59855" lon="2.96698">
        <ele>1049.7</ele>
        <time>2026-05-07T11:36:14.999Z</time>
      </trkpt>
      <trkpt lat="43.59856" lon="2.967">
        <ele>1049.8</ele>
        <time>2026-05-07T11:36:15.999Z</time>
      </trkpt>
      <trkpt lat="43.59857" lon="2.96702">
        <ele>1049.7</ele>
        <time>2026-05-07T11:36:16.999Z</time>
      </trkpt>
      <trkpt lat="43.59858" lon="2.96703">
        <ele>1049.8</ele>
        <time>2026-05-07T11:36:17.999Z</time>
      </trkpt>
      <trkpt lat="43.59859" lon="2.96703">
        <ele>1049.8</ele>
        <time>2026-05-07T11:36:18.999Z</time>
      </trkpt>
      <trkpt lat="43.59861" lon="2.96704">
        <ele>1049.5</ele>
        <time>2026-05-07T11:36:19.999Z</time>
      </trkpt>
      <trkpt lat="43.59861" lon="2.96704">
        <ele>1049.3</ele>
        <time>2026-05-07T11:36:20.999Z</time>
      </trkpt>
      <trkpt lat="43.59863" lon="2.96705">
        <ele>1049.1</ele>
        <time>2026-05-07T11:36:21.999Z</time>
      </trkpt>
      <trkpt lat="43.59864" lon="2.96705">
        <ele>1049</ele>
        <time>2026-05-07T11:36:22.999Z</time>
      </trkpt>
      <trkpt lat="43.59866" lon="2.96706">
        <ele>1048.9</ele>
        <time>2026-05-07T11:36:23.999Z</time>
      </trkpt>
      <trkpt lat="43.59868" lon="2.96708">
        <ele>1049.1</ele>
        <time>2026-05-07T11:36:24.999Z</time>
      </trkpt>
      <trkpt lat="43.59869" lon="2.96708">
        <ele>1048.6</ele>
        <time>2026-05-07T11:36:25.999Z</time>
      </trkpt>
      <trkpt lat="43.5987" lon="2.96709">
        <ele>1048.3</ele>
        <time>2026-05-07T11:36:26.999Z</time>
      </trkpt>
      <trkpt lat="43.5987" lon="2.96711">
        <ele>1048.3</ele>
        <time>2026-05-07T11:36:27.999Z</time>
      </trkpt>
      <trkpt lat="43.5987" lon="2.96712">
        <ele>1048.3</ele>
        <time>2026-05-07T11:36:28.999Z</time>
      </trkpt>
      <trkpt lat="43.5987" lon="2.96712">
        <ele>1048.7</ele>
        <time>2026-05-07T11:36:29.999Z</time>
      </trkpt>
      <trkpt lat="43.59871" lon="2.96714">
        <ele>1049.1</ele>
        <time>2026-05-07T11:36:30.999Z</time>
      </trkpt>
      <trkpt lat="43.59872" lon="2.96715">
        <ele>1049.4</ele>
        <time>2026-05-07T11:36:31.999Z</time>
      </trkpt>
      <trkpt lat="43.59873" lon="2.96716">
        <ele>1050</ele>
        <time>2026-05-07T11:36:32.999Z</time>
      </trkpt>
      <trkpt lat="43.59873" lon="2.96718">
        <ele>1050</ele>
        <time>2026-05-07T11:36:33.999Z</time>
      </trkpt>
      <trkpt lat="43.59873" lon="2.96719">
        <ele>1050</ele>
        <time>2026-05-07T11:36:34.999Z</time>
      </trkpt>
      <trkpt lat="43.59874" lon="2.96719">
        <ele>1049.9</ele>
        <time>2026-05-07T11:36:35.999Z</time>
      </trkpt>
      <trkpt lat="43.59875" lon="2.9672">
        <ele>1049.6</ele>
        <time>2026-05-07T11:36:36.999Z</time>
      </trkpt>
      <trkpt lat="43.59876" lon="2.96721">
        <ele>1049.8</ele>
        <time>2026-05-07T11:36:37.999Z</time>
      </trkpt>
      <trkpt lat="43.59878" lon="2.96722">
        <ele>1049.9</ele>
        <time>2026-05-07T11:36:38.999Z</time>
      </trkpt>
      <trkpt lat="43.59879" lon="2.96723">
        <ele>1049.7</ele>
        <time>2026-05-07T11:36:39.999Z</time>
      </trkpt>
      <trkpt lat="43.5988" lon="2.96723">
        <ele>1049.6</ele>
        <time>2026-05-07T11:36:40.999Z</time>
      </trkpt>
      <trkpt lat="43.5988" lon="2.96724">
        <ele>1049.3</ele>
        <time>2026-05-07T11:36:41.999Z</time>
      </trkpt>
      <trkpt lat="43.59881" lon="2.96725">
        <ele>1049.4</ele>
        <time>2026-05-07T11:36:42.999Z</time>
      </trkpt>
      <trkpt lat="43.59882" lon="2.96725">
        <ele>1049.6</ele>
        <time>2026-05-07T11:36:43.999Z</time>
      </trkpt>
      <trkpt lat="43.59882" lon="2.96727">
        <ele>1050.1</ele>
        <time>2026-05-07T11:36:44.999Z</time>
      </trkpt>
      <trkpt lat="43.59884" lon="2.96728">
        <ele>1050</ele>
        <time>2026-05-07T11:36:45.999Z</time>
      </trkpt>
      <trkpt lat="43.59885" lon="2.96729">
        <ele>1049.8</ele>
        <time>2026-05-07T11:36:46.999Z</time>
      </trkpt>
      <trkpt lat="43.59885" lon="2.9673">
        <ele>1049.5</ele>
        <time>2026-05-07T11:36:47.999Z</time>
      </trkpt>
      <trkpt lat="43.59885" lon="2.96731">
        <ele>1049.4</ele>
        <time>2026-05-07T11:36:48.999Z</time>
      </trkpt>
      <trkpt lat="43.59886" lon="2.96732">
        <ele>1049.4</ele>
        <time>2026-05-07T11:36:49.999Z</time>
      </trkpt>
      <trkpt lat="43.59887" lon="2.96734">
        <ele>1049.5</ele>
        <time>2026-05-07T11:36:50.999Z</time>
      </trkpt>
      <trkpt lat="43.59889" lon="2.96735">
        <ele>1049.6</ele>
        <time>2026-05-07T11:36:51.999Z</time>
      </trkpt>
      <trkpt lat="43.5989" lon="2.96735">
        <ele>1049.7</ele>
        <time>2026-05-07T11:36:52.999Z</time>
      </trkpt>
      <trkpt lat="43.59891" lon="2.96735">
        <ele>1049.9</ele>
        <time>2026-05-07T11:36:53.999Z</time>
      </trkpt>
      <trkpt lat="43.59892" lon="2.96735">
        <ele>1050.2</ele>
        <time>2026-05-07T11:36:54.999Z</time>
      </trkpt>
      <trkpt lat="43.59892" lon="2.96736">
        <ele>1050.8</ele>
        <time>2026-05-07T11:36:55.999Z</time>
      </trkpt>
      <trkpt lat="43.59893" lon="2.96735">
        <ele>1050.8</ele>
        <time>2026-05-07T11:36:56.999Z</time>
      </trkpt>
      <trkpt lat="43.59893" lon="2.96735">
        <ele>1051.1</ele>
        <time>2026-05-07T11:36:57.999Z</time>
      </trkpt>
      <trkpt lat="43.59893" lon="2.96735">
        <ele>1051.1</ele>
        <time>2026-05-07T11:36:58.999Z</time>
      </trkpt>
      <trkpt lat="43.59894" lon="2.96737">
        <ele>1051.2</ele>
        <time>2026-05-07T11:36:59.999Z</time>
      </trkpt>
      <trkpt lat="43.59895" lon="2.96738">
        <ele>1051.3</ele>
        <time>2026-05-07T11:37:00.999Z</time>
      </trkpt>
      <trkpt lat="43.59896" lon="2.96739">
        <ele>1051.2</ele>
        <time>2026-05-07T11:37:01.999Z</time>
      </trkpt>
      <trkpt lat="43.59897" lon="2.96739">
        <ele>1051.1</ele>
        <time>2026-05-07T11:37:02.999Z</time>
      </trkpt>
      <trkpt lat="43.59898" lon="2.96738">
        <ele>1050.9</ele>
        <time>2026-05-07T11:37:03.999Z</time>
      </trkpt>
      <trkpt lat="43.59899" lon="2.96738">
        <ele>1050.9</ele>
        <time>2026-05-07T11:37:04.999Z</time>
      </trkpt>
      <trkpt lat="43.599" lon="2.96739">
        <ele>1050.8</ele>
        <time>2026-05-07T11:37:05.999Z</time>
      </trkpt>
      <trkpt lat="43.59902" lon="2.9674">
        <ele>1050.5</ele>
        <time>2026-05-07T11:37:06.999Z</time>
      </trkpt>
      <trkpt lat="43.59902" lon="2.96741">
        <ele>1050.2</ele>
        <time>2026-05-07T11:37:07.999Z</time>
      </trkpt>
      <trkpt lat="43.59903" lon="2.96741">
        <ele>1049.8</ele>
        <time>2026-05-07T11:37:08.999Z</time>
      </trkpt>
      <trkpt lat="43.59903" lon="2.96742">
        <ele>1049.6</ele>
        <time>2026-05-07T11:37:09.999Z</time>
      </trkpt>
      <trkpt lat="43.59904" lon="2.96743">
        <ele>1049.8</ele>
        <time>2026-05-07T11:37:10.999Z</time>
      </trkpt>
      <trkpt lat="43.59905" lon="2.96743">
        <ele>1049.8</ele>
        <time>2026-05-07T11:37:11.999Z</time>
      </trkpt>
      <trkpt lat="43.59906" lon="2.96744">
        <ele>1049.9</ele>
        <time>2026-05-07T11:37:12.999Z</time>
      </trkpt>
      <trkpt lat="43.59907" lon="2.96745">
        <ele>1050</ele>
        <time>2026-05-07T11:37:13.999Z</time>
      </trkpt>
      <trkpt lat="43.59908" lon="2.96746">
        <ele>1049.9</ele>
        <time>2026-05-07T11:37:14.999Z</time>
      </trkpt>
      <trkpt lat="43.59909" lon="2.96746">
        <ele>1049.9</ele>
        <time>2026-05-07T11:37:15.999Z</time>
      </trkpt>
      <trkpt lat="43.5991" lon="2.96746">
        <ele>1049.8</ele>
        <time>2026-05-07T11:37:16.999Z</time>
      </trkpt>
      <trkpt lat="43.59911" lon="2.96746">
        <ele>1049.8</ele>
        <time>2026-05-07T11:37:17.999Z</time>
      </trkpt>
      <trkpt lat="43.59912" lon="2.96747">
        <ele>1050</ele>
        <time>2026-05-07T11:37:18.999Z</time>
      </trkpt>
      <trkpt lat="43.59913" lon="2.96748">
        <ele>1050</ele>
        <time>2026-05-07T11:37:19.999Z</time>
      </trkpt>
      <trkpt lat="43.59913" lon="2.96748">
        <ele>1049.9</ele>
        <time>2026-05-07T11:37:20.999Z</time>
      </trkpt>
      <trkpt lat="43.59914" lon="2.9675">
        <ele>1050.1</ele>
        <time>2026-05-07T11:37:21.999Z</time>
      </trkpt>
      <trkpt lat="43.59915" lon="2.96751">
        <ele>1050.6</ele>
        <time>2026-05-07T11:37:22.999Z</time>
      </trkpt>
      <trkpt lat="43.59916" lon="2.96752">
        <ele>1050.8</ele>
        <time>2026-05-07T11:37:23.999Z</time>
      </trkpt>
      <trkpt lat="43.59916" lon="2.96753">
        <ele>1050.9</ele>
        <time>2026-05-07T11:37:24.999Z</time>
      </trkpt>
      <trkpt lat="43.59917" lon="2.96754">
        <ele>1051.1</ele>
        <time>2026-05-07T11:37:25.999Z</time>
      </trkpt>
      <trkpt lat="43.59918" lon="2.96756">
        <ele>1051.2</ele>
        <time>2026-05-07T11:37:26.999Z</time>
      </trkpt>
      <trkpt lat="43.59919" lon="2.96756">
        <ele>1051.2</ele>
        <time>2026-05-07T11:37:27.999Z</time>
      </trkpt>
      <trkpt lat="43.5992" lon="2.96757">
        <ele>1051.4</ele>
        <time>2026-05-07T11:37:28.999Z</time>
      </trkpt>
      <trkpt lat="43.5992" lon="2.96759">
        <ele>1051.7</ele>
        <time>2026-05-07T11:37:29.999Z</time>
      </trkpt>
      <trkpt lat="43.59921" lon="2.9676">
        <ele>1052.1</ele>
        <time>2026-05-07T11:37:30.999Z</time>
      </trkpt>
      <trkpt lat="43.59921" lon="2.96762">
        <ele>1052.6</ele>
        <time>2026-05-07T11:37:31.999Z</time>
      </trkpt>
      <trkpt lat="43.59921" lon="2.96763">
        <ele>1052.7</ele>
        <time>2026-05-07T11:37:32.999Z</time>
      </trkpt>
      <trkpt lat="43.59921" lon="2.96763">
        <ele>1052.3</ele>
        <time>2026-05-07T11:37:33.999Z</time>
      </trkpt>
      <trkpt lat="43.59922" lon="2.96763">
        <ele>1052.3</ele>
        <time>2026-05-07T11:37:34.999Z</time>
      </trkpt>
      <trkpt lat="43.59924" lon="2.96764">
        <ele>1052.5</ele>
        <time>2026-05-07T11:37:35.999Z</time>
      </trkpt>
      <trkpt lat="43.59925" lon="2.96765">
        <ele>1053.1</ele>
        <time>2026-05-07T11:37:36.999Z</time>
      </trkpt>
      <trkpt lat="43.59926" lon="2.96766">
        <ele>1053.3</ele>
        <time>2026-05-07T11:37:37.999Z</time>
      </trkpt>
      <trkpt lat="43.59926" lon="2.96766">
        <ele>1053</ele>
        <time>2026-05-07T11:37:38.999Z</time>
      </trkpt>
      <trkpt lat="43.59927" lon="2.96767">
        <ele>1052.6</ele>
        <time>2026-05-07T11:37:39.999Z</time>
      </trkpt>
      <trkpt lat="43.59928" lon="2.96769">
        <ele>1052.7</ele>
        <time>2026-05-07T11:37:40.999Z</time>
      </trkpt>
      <trkpt lat="43.59928" lon="2.9677">
        <ele>1052.7</ele>
        <time>2026-05-07T11:37:41.999Z</time>
      </trkpt>
      <trkpt lat="43.59929" lon="2.96771">
        <ele>1052.5</ele>
        <time>2026-05-07T11:37:42.999Z</time>
      </trkpt>
      <trkpt lat="43.5993" lon="2.96773">
        <ele>1052.2</ele>
        <time>2026-05-07T11:37:43.999Z</time>
      </trkpt>
      <trkpt lat="43.5993" lon="2.96774">
        <ele>1052.1</ele>
        <time>2026-05-07T11:37:44.999Z</time>
      </trkpt>
      <trkpt lat="43.59931" lon="2.96775">
        <ele>1051.8</ele>
        <time>2026-05-07T11:37:45.999Z</time>
      </trkpt>
      <trkpt lat="43.59932" lon="2.96775">
        <ele>1051.7</ele>
        <time>2026-05-07T11:37:46.999Z</time>
      </trkpt>
      <trkpt lat="43.59932" lon="2.96775">
        <ele>1051.5</ele>
        <time>2026-05-07T11:37:47.999Z</time>
      </trkpt>
      <trkpt lat="43.59933" lon="2.96776">
        <ele>1051.8</ele>
        <time>2026-05-07T11:37:48.999Z</time>
      </trkpt>
      <trkpt lat="43.59934" lon="2.96776">
        <ele>1052</ele>
        <time>2026-05-07T11:37:49.999Z</time>
      </trkpt>
      <trkpt lat="43.59934" lon="2.96777">
        <ele>1051.8</ele>
        <time>2026-05-07T11:37:50.999Z</time>
      </trkpt>
      <trkpt lat="43.59935" lon="2.96778">
        <ele>1051.6</ele>
        <time>2026-05-07T11:37:51.999Z</time>
      </trkpt>
      <trkpt lat="43.59936" lon="2.96779">
        <ele>1051.9</ele>
        <time>2026-05-07T11:37:52.999Z</time>
      </trkpt>
      <trkpt lat="43.59937" lon="2.9678">
        <ele>1051.9</ele>
        <time>2026-05-07T11:37:53.999Z</time>
      </trkpt>
      <trkpt lat="43.59938" lon="2.9678">
        <ele>1052.2</ele>
        <time>2026-05-07T11:37:54.999Z</time>
      </trkpt>
      <trkpt lat="43.59938" lon="2.96782">
        <ele>1052.6</ele>
        <time>2026-05-07T11:37:55.999Z</time>
      </trkpt>
      <trkpt lat="43.59938" lon="2.96783">
        <ele>1052.6</ele>
        <time>2026-05-07T11:37:56.999Z</time>
      </trkpt>
      <trkpt lat="43.59939" lon="2.96784">
        <ele>1053</ele>
        <time>2026-05-07T11:37:57.999Z</time>
      </trkpt>
      <trkpt lat="43.5994" lon="2.96786">
        <ele>1053.2</ele>
        <time>2026-05-07T11:37:58.999Z</time>
      </trkpt>
      <trkpt lat="43.59941" lon="2.96787">
        <ele>1053.2</ele>
        <time>2026-05-07T11:37:59.999Z</time>
      </trkpt>
      <trkpt lat="43.59942" lon="2.96788">
        <ele>1053.5</ele>
        <time>2026-05-07T11:38:00.999Z</time>
      </trkpt>
      <trkpt lat="43.59943" lon="2.96789">
        <ele>1053.6</ele>
        <time>2026-05-07T11:38:01.999Z</time>
      </trkpt>
      <trkpt lat="43.59944" lon="2.9679">
        <ele>1053.9</ele>
        <time>2026-05-07T11:38:02.999Z</time>
      </trkpt>
      <trkpt lat="43.59944" lon="2.96791">
        <ele>1054</ele>
        <time>2026-05-07T11:38:03.999Z</time>
      </trkpt>
      <trkpt lat="43.59945" lon="2.96792">
        <ele>1054</ele>
        <time>2026-05-07T11:38:04.999Z</time>
      </trkpt>
      <trkpt lat="43.59945" lon="2.96793">
        <ele>1054.1</ele>
        <time>2026-05-07T11:38:05.999Z</time>
      </trkpt>
      <trkpt lat="43.59946" lon="2.96793">
        <ele>1054.4</ele>
        <time>2026-05-07T11:38:06.999Z</time>
      </trkpt>
      <trkpt lat="43.59947" lon="2.96794">
        <ele>1054.8</ele>
        <time>2026-05-07T11:38:07.999Z</time>
      </trkpt>
      <trkpt lat="43.59947" lon="2.96794">
        <ele>1055.1</ele>
        <time>2026-05-07T11:38:08.999Z</time>
      </trkpt>
      <trkpt lat="43.59948" lon="2.96795">
        <ele>1055.4</ele>
        <time>2026-05-07T11:38:09.999Z</time>
      </trkpt>
      <trkpt lat="43.59948" lon="2.96797">
        <ele>1055.7</ele>
        <time>2026-05-07T11:38:10.999Z</time>
      </trkpt>
      <trkpt lat="43.59949" lon="2.96798">
        <ele>1056</ele>
        <time>2026-05-07T11:38:11.999Z</time>
      </trkpt>
      <trkpt lat="43.5995" lon="2.96799">
        <ele>1055.8</ele>
        <time>2026-05-07T11:38:12.999Z</time>
      </trkpt>
      <trkpt lat="43.59951" lon="2.968">
        <ele>1055.8</ele>
        <time>2026-05-07T11:38:13.999Z</time>
      </trkpt>
      <trkpt lat="43.59952" lon="2.96801">
        <ele>1056</ele>
        <time>2026-05-07T11:38:14.999Z</time>
      </trkpt>
      <trkpt lat="43.59954" lon="2.96802">
        <ele>1056.1</ele>
        <time>2026-05-07T11:38:15.999Z</time>
      </trkpt>
      <trkpt lat="43.59955" lon="2.96803">
        <ele>1056.1</ele>
        <time>2026-05-07T11:38:16.999Z</time>
      </trkpt>
      <trkpt lat="43.59955" lon="2.96803">
        <ele>1056.4</ele>
        <time>2026-05-07T11:38:17.999Z</time>
      </trkpt>
      <trkpt lat="43.59956" lon="2.96803">
        <ele>1056.4</ele>
        <time>2026-05-07T11:38:18.999Z</time>
      </trkpt>
      <trkpt lat="43.59957" lon="2.96804">
        <ele>1056.6</ele>
        <time>2026-05-07T11:38:19.999Z</time>
      </trkpt>
      <trkpt lat="43.59958" lon="2.96804">
        <ele>1056.8</ele>
        <time>2026-05-07T11:38:20.999Z</time>
      </trkpt>
      <trkpt lat="43.59958" lon="2.96804">
        <ele>1056.7</ele>
        <time>2026-05-07T11:38:21.999Z</time>
      </trkpt>
      <trkpt lat="43.59959" lon="2.96805">
        <ele>1056.6</ele>
        <time>2026-05-07T11:38:22.999Z</time>
      </trkpt>
      <trkpt lat="43.5996" lon="2.96805">
        <ele>1056.6</ele>
        <time>2026-05-07T11:38:23.999Z</time>
      </trkpt>
      <trkpt lat="43.59961" lon="2.96807">
        <ele>1057</ele>
        <time>2026-05-07T11:38:24.999Z</time>
      </trkpt>
      <trkpt lat="43.59962" lon="2.96807">
        <ele>1057.3</ele>
        <time>2026-05-07T11:38:25.999Z</time>
      </trkpt>
      <trkpt lat="43.59962" lon="2.96808">
        <ele>1057.6</ele>
        <time>2026-05-07T11:38:26.999Z</time>
      </trkpt>
      <trkpt lat="43.59963" lon="2.96808">
        <ele>1057.8</ele>
        <time>2026-05-07T11:38:27.999Z</time>
      </trkpt>
      <trkpt lat="43.59964" lon="2.96809">
        <ele>1057.9</ele>
        <time>2026-05-07T11:38:28.999Z</time>
      </trkpt>
      <trkpt lat="43.59965" lon="2.9681">
        <ele>1058</ele>
        <time>2026-05-07T11:38:29.999Z</time>
      </trkpt>
      <trkpt lat="43.59966" lon="2.9681">
        <ele>1057.9</ele>
        <time>2026-05-07T11:38:30.999Z</time>
      </trkpt>
      <trkpt lat="43.59966" lon="2.96811">
        <ele>1057.9</ele>
        <time>2026-05-07T11:38:31.999Z</time>
      </trkpt>
      <trkpt lat="43.59967" lon="2.96812">
        <ele>1058.2</ele>
        <time>2026-05-07T11:38:32.999Z</time>
      </trkpt>
      <trkpt lat="43.59968" lon="2.96813">
        <ele>1057.9</ele>
        <time>2026-05-07T11:38:33.999Z</time>
      </trkpt>
      <trkpt lat="43.59969" lon="2.96814">
        <ele>1057.7</ele>
        <time>2026-05-07T11:38:34.999Z</time>
      </trkpt>
      <trkpt lat="43.59969" lon="2.96815">
        <ele>1057.6</ele>
        <time>2026-05-07T11:38:35.999Z</time>
      </trkpt>
      <trkpt lat="43.5997" lon="2.96816">
        <ele>1057.2</ele>
        <time>2026-05-07T11:38:36.999Z</time>
      </trkpt>
      <trkpt lat="43.5997" lon="2.96817">
        <ele>1057.5</ele>
        <time>2026-05-07T11:38:37.999Z</time>
      </trkpt>
      <trkpt lat="43.59971" lon="2.96818">
        <ele>1057.7</ele>
        <time>2026-05-07T11:38:38.999Z</time>
      </trkpt>
      <trkpt lat="43.59972" lon="2.96819">
        <ele>1057.8</ele>
        <time>2026-05-07T11:38:39.999Z</time>
      </trkpt>
      <trkpt lat="43.59972" lon="2.9682">
        <ele>1057.6</ele>
        <time>2026-05-07T11:38:40.999Z</time>
      </trkpt>
      <trkpt lat="43.59974" lon="2.96821">
        <ele>1057.3</ele>
        <time>2026-05-07T11:38:41.999Z</time>
      </trkpt>
      <trkpt lat="43.59975" lon="2.96821">
        <ele>1057.1</ele>
        <time>2026-05-07T11:38:42.999Z</time>
      </trkpt>
      <trkpt lat="43.59975" lon="2.96822">
        <ele>1057.2</ele>
        <time>2026-05-07T11:38:43.999Z</time>
      </trkpt>
      <trkpt lat="43.59976" lon="2.96822">
        <ele>1057.4</ele>
        <time>2026-05-07T11:38:44.999Z</time>
      </trkpt>
      <trkpt lat="43.59977" lon="2.96823">
        <ele>1057.8</ele>
        <time>2026-05-07T11:38:45.999Z</time>
      </trkpt>
      <trkpt lat="43.59977" lon="2.96824">
        <ele>1058.1</ele>
        <time>2026-05-07T11:38:46.999Z</time>
      </trkpt>
      <trkpt lat="43.59977" lon="2.96825">
        <ele>1058.3</ele>
        <time>2026-05-07T11:38:47.999Z</time>
      </trkpt>
      <trkpt lat="43.59978" lon="2.96827">
        <ele>1058.2</ele>
        <time>2026-05-07T11:38:48.999Z</time>
      </trkpt>
      <trkpt lat="43.59978" lon="2.96828">
        <ele>1058.1</ele>
        <time>2026-05-07T11:38:49.999Z</time>
      </trkpt>
      <trkpt lat="43.59979" lon="2.9683">
        <ele>1058.4</ele>
        <time>2026-05-07T11:38:50.999Z</time>
      </trkpt>
      <trkpt lat="43.59979" lon="2.96831">
        <ele>1058.1</ele>
        <time>2026-05-07T11:38:51.999Z</time>
      </trkpt>
      <trkpt lat="43.5998" lon="2.96832">
        <ele>1057.8</ele>
        <time>2026-05-07T11:38:52.999Z</time>
      </trkpt>
      <trkpt lat="43.5998" lon="2.96833">
        <ele>1057.8</ele>
        <time>2026-05-07T11:38:53.999Z</time>
      </trkpt>
      <trkpt lat="43.5998" lon="2.96834">
        <ele>1058</ele>
        <time>2026-05-07T11:38:54.999Z</time>
      </trkpt>
      <trkpt lat="43.5998" lon="2.96836">
        <ele>1058</ele>
        <time>2026-05-07T11:38:55.999Z</time>
      </trkpt>
      <trkpt lat="43.59981" lon="2.96837">
        <ele>1058.1</ele>
        <time>2026-05-07T11:38:56.999Z</time>
      </trkpt>
      <trkpt lat="43.59981" lon="2.96837">
        <ele>1058</ele>
        <time>2026-05-07T11:38:57.999Z</time>
      </trkpt>
      <trkpt lat="43.59981" lon="2.96839">
        <ele>1057.9</ele>
        <time>2026-05-07T11:38:58.999Z</time>
      </trkpt>
      <trkpt lat="43.59982" lon="2.9684">
        <ele>1057.7</ele>
        <time>2026-05-07T11:38:59.999Z</time>
      </trkpt>
      <trkpt lat="43.59982" lon="2.96841">
        <ele>1058</ele>
        <time>2026-05-07T11:39:00.999Z</time>
      </trkpt>
      <trkpt lat="43.59983" lon="2.96842">
        <ele>1058.2</ele>
        <time>2026-05-07T11:39:01.999Z</time>
      </trkpt>
      <trkpt lat="43.59983" lon="2.96843">
        <ele>1058.2</ele>
        <time>2026-05-07T11:39:02.999Z</time>
      </trkpt>
      <trkpt lat="43.59983" lon="2.96844">
        <ele>1058.4</ele>
        <time>2026-05-07T11:39:03.999Z</time>
      </trkpt>
      <trkpt lat="43.59984" lon="2.96845">
        <ele>1058.6</ele>
        <time>2026-05-07T11:39:04.999Z</time>
      </trkpt>
      <trkpt lat="43.59985" lon="2.96846">
        <ele>1058.8</ele>
        <time>2026-05-07T11:39:05.999Z</time>
      </trkpt>
      <trkpt lat="43.59986" lon="2.96847">
        <ele>1058.9</ele>
        <time>2026-05-07T11:39:06.999Z</time>
      </trkpt>
      <trkpt lat="43.59986" lon="2.96849">
        <ele>1058.9</ele>
        <time>2026-05-07T11:39:07.999Z</time>
      </trkpt>
      <trkpt lat="43.59987" lon="2.9685">
        <ele>1058.8</ele>
        <time>2026-05-07T11:39:08.999Z</time>
      </trkpt>
      <trkpt lat="43.59987" lon="2.96851">
        <ele>1058.6</ele>
        <time>2026-05-07T11:39:09.999Z</time>
      </trkpt>
      <trkpt lat="43.59988" lon="2.96853">
        <ele>1058.7</ele>
        <time>2026-05-07T11:39:10.999Z</time>
      </trkpt>
      <trkpt lat="43.59988" lon="2.96854">
        <ele>1059.4</ele>
        <time>2026-05-07T11:39:11.999Z</time>
      </trkpt>
      <trkpt lat="43.59988" lon="2.96855">
        <ele>1059.7</ele>
        <time>2026-05-07T11:39:12.999Z</time>
      </trkpt>
      <trkpt lat="43.59988" lon="2.96855">
        <ele>1060</ele>
        <time>2026-05-07T11:39:13.999Z</time>
      </trkpt>
      <trkpt lat="43.59988" lon="2.96856">
        <ele>1060.2</ele>
        <time>2026-05-07T11:39:14.999Z</time>
      </trkpt>
      <trkpt lat="43.59989" lon="2.96856">
        <ele>1060.2</ele>
        <time>2026-05-07T11:39:15.999Z</time>
      </trkpt>
      <trkpt lat="43.59989" lon="2.96856">
        <ele>1060.3</ele>
        <time>2026-05-07T11:39:16.999Z</time>
      </trkpt>
      <trkpt lat="43.59989" lon="2.96857">
        <ele>1060.1</ele>
        <time>2026-05-07T11:39:17.999Z</time>
      </trkpt>
      <trkpt lat="43.59989" lon="2.96858">
        <ele>1060.1</ele>
        <time>2026-05-07T11:39:18.999Z</time>
      </trkpt>
      <trkpt lat="43.59989" lon="2.96859">
        <ele>1060</ele>
        <time>2026-05-07T11:39:19.999Z</time>
      </trkpt>
      <trkpt lat="43.59989" lon="2.96859">
        <ele>1060.3</ele>
        <time>2026-05-07T11:39:20.999Z</time>
      </trkpt>
      <trkpt lat="43.59989" lon="2.9686">
        <ele>1060.4</ele>
        <time>2026-05-07T11:39:21.999Z</time>
      </trkpt>
      <trkpt lat="43.59989" lon="2.96862">
        <ele>1060.4</ele>
        <time>2026-05-07T11:39:22.999Z</time>
      </trkpt>
      <trkpt lat="43.59989" lon="2.96863">
        <ele>1060.8</ele>
        <time>2026-05-07T11:39:23.999Z</time>
      </trkpt>
      <trkpt lat="43.5999" lon="2.96865">
        <ele>1061</ele>
        <time>2026-05-07T11:39:24.999Z</time>
      </trkpt>
      <trkpt lat="43.59989" lon="2.96866">
        <ele>1060.9</ele>
        <time>2026-05-07T11:39:25.999Z</time>
      </trkpt>
      <trkpt lat="43.59989" lon="2.96868">
        <ele>1060.9</ele>
        <time>2026-05-07T11:39:26.999Z</time>
      </trkpt>
      <trkpt lat="43.5999" lon="2.96869">
        <ele>1061.2</ele>
        <time>2026-05-07T11:39:27.999Z</time>
      </trkpt>
      <trkpt lat="43.59989" lon="2.9687">
        <ele>1061.8</ele>
        <time>2026-05-07T11:39:28.999Z</time>
      </trkpt>
      <trkpt lat="43.59989" lon="2.96871">
        <ele>1062.1</ele>
        <time>2026-05-07T11:39:29.999Z</time>
      </trkpt>
      <trkpt lat="43.59988" lon="2.96872">
        <ele>1062.5</ele>
        <time>2026-05-07T11:39:30.999Z</time>
      </trkpt>
      <trkpt lat="43.59988" lon="2.96874">
        <ele>1063</ele>
        <time>2026-05-07T11:39:31.999Z</time>
      </trkpt>
      <trkpt lat="43.59988" lon="2.96876">
        <ele>1063.1</ele>
        <time>2026-05-07T11:39:32.999Z</time>
      </trkpt>
      <trkpt lat="43.59988" lon="2.96878">
        <ele>1063</ele>
        <time>2026-05-07T11:39:33.999Z</time>
      </trkpt>
      <trkpt lat="43.59988" lon="2.9688">
        <ele>1063.2</ele>
        <time>2026-05-07T11:39:34.999Z</time>
      </trkpt>
      <trkpt lat="43.59988" lon="2.96881">
        <ele>1063.4</ele>
        <time>2026-05-07T11:39:35.999Z</time>
      </trkpt>
      <trkpt lat="43.59988" lon="2.96882">
        <ele>1063.9</ele>
        <time>2026-05-07T11:39:36.999Z</time>
      </trkpt>
      <trkpt lat="43.59988" lon="2.96884">
        <ele>1063.9</ele>
        <time>2026-05-07T11:39:37.999Z</time>
      </trkpt>
      <trkpt lat="43.59988" lon="2.96885">
        <ele>1064.2</ele>
        <time>2026-05-07T11:39:38.999Z</time>
      </trkpt>
      <trkpt lat="43.59988" lon="2.96886">
        <ele>1064.5</ele>
        <time>2026-05-07T11:39:39.999Z</time>
      </trkpt>
      <trkpt lat="43.59988" lon="2.96888">
        <ele>1064.6</ele>
        <time>2026-05-07T11:39:40.999Z</time>
      </trkpt>
      <trkpt lat="43.59987" lon="2.96889">
        <ele>1064.9</ele>
        <time>2026-05-07T11:39:41.999Z</time>
      </trkpt>
      <trkpt lat="43.59987" lon="2.9689">
        <ele>1065.2</ele>
        <time>2026-05-07T11:39:42.999Z</time>
      </trkpt>
      <trkpt lat="43.59987" lon="2.96892">
        <ele>1065.4</ele>
        <time>2026-05-07T11:39:43.999Z</time>
      </trkpt>
      <trkpt lat="43.59987" lon="2.96893">
        <ele>1065.6</ele>
        <time>2026-05-07T11:39:44.999Z</time>
      </trkpt>
      <trkpt lat="43.59987" lon="2.96895">
        <ele>1066.1</ele>
        <time>2026-05-07T11:39:45.999Z</time>
      </trkpt>
      <trkpt lat="43.59988" lon="2.96897">
        <ele>1066.1</ele>
        <time>2026-05-07T11:39:46.999Z</time>
      </trkpt>
      <trkpt lat="43.59989" lon="2.96898">
        <ele>1066.1</ele>
        <time>2026-05-07T11:39:47.999Z</time>
      </trkpt>
      <trkpt lat="43.59989" lon="2.96899">
        <ele>1066.2</ele>
        <time>2026-05-07T11:39:48.999Z</time>
      </trkpt>
      <trkpt lat="43.59989" lon="2.969">
        <ele>1066.5</ele>
        <time>2026-05-07T11:39:49.999Z</time>
      </trkpt>
      <trkpt lat="43.59989" lon="2.96902">
        <ele>1066.7</ele>
        <time>2026-05-07T11:39:50.999Z</time>
      </trkpt>
      <trkpt lat="43.59988" lon="2.96902">
        <ele>1066.8</ele>
        <time>2026-05-07T11:39:51.999Z</time>
      </trkpt>
      <trkpt lat="43.59988" lon="2.96903">
        <ele>1067.3</ele>
        <time>2026-05-07T11:39:52.999Z</time>
      </trkpt>
      <trkpt lat="43.59988" lon="2.96905">
        <ele>1067.5</ele>
        <time>2026-05-07T11:39:53.999Z</time>
      </trkpt>
      <trkpt lat="43.59988" lon="2.96906">
        <ele>1067.8</ele>
        <time>2026-05-07T11:39:54.999Z</time>
      </trkpt>
      <trkpt lat="43.59988" lon="2.96907">
        <ele>1068</ele>
        <time>2026-05-07T11:39:55.999Z</time>
      </trkpt>
      <trkpt lat="43.59989" lon="2.96908">
        <ele>1068</ele>
        <time>2026-05-07T11:39:56.999Z</time>
      </trkpt>
      <trkpt lat="43.59989" lon="2.96909">
        <ele>1067.9</ele>
        <time>2026-05-07T11:39:57.999Z</time>
      </trkpt>
      <trkpt lat="43.59989" lon="2.9691">
        <ele>1067.4</ele>
        <time>2026-05-07T11:39:58.999Z</time>
      </trkpt>
      <trkpt lat="43.5999" lon="2.96911">
        <ele>1066.8</ele>
        <time>2026-05-07T11:39:59.999Z</time>
      </trkpt>
      <trkpt lat="43.5999" lon="2.96912">
        <ele>1066.8</ele>
        <time>2026-05-07T11:40:00.999Z</time>
      </trkpt>
      <trkpt lat="43.59991" lon="2.96913">
        <ele>1066.7</ele>
        <time>2026-05-07T11:40:01.999Z</time>
      </trkpt>
      <trkpt lat="43.59991" lon="2.96913">
        <ele>1066.7</ele>
        <time>2026-05-07T11:40:02.999Z</time>
      </trkpt>
      <trkpt lat="43.59992" lon="2.96913">
        <ele>1066.6</ele>
        <time>2026-05-07T11:40:03.999Z</time>
      </trkpt>
      <trkpt lat="43.59992" lon="2.96913">
        <ele>1066.5</ele>
        <time>2026-05-07T11:40:04.999Z</time>
      </trkpt>
      <trkpt lat="43.59992" lon="2.96914">
        <ele>1066.6</ele>
        <time>2026-05-07T11:40:05.999Z</time>
      </trkpt>
      <trkpt lat="43.59992" lon="2.96915">
        <ele>1066.5</ele>
        <time>2026-05-07T11:40:06.999Z</time>
      </trkpt>
      <trkpt lat="43.59992" lon="2.96917">
        <ele>1066.4</ele>
        <time>2026-05-07T11:40:07.999Z</time>
      </trkpt>
      <trkpt lat="43.59993" lon="2.96918">
        <ele>1066.4</ele>
        <time>2026-05-07T11:40:08.999Z</time>
      </trkpt>
      <trkpt lat="43.59993" lon="2.96919">
        <ele>1066.1</ele>
        <time>2026-05-07T11:40:09.999Z</time>
      </trkpt>
      <trkpt lat="43.59993" lon="2.9692">
        <ele>1066.4</ele>
        <time>2026-05-07T11:40:10.999Z</time>
      </trkpt>
      <trkpt lat="43.59993" lon="2.96921">
        <ele>1066.6</ele>
        <time>2026-05-07T11:40:11.999Z</time>
      </trkpt>
      <trkpt lat="43.59993" lon="2.96922">
        <ele>1066.8</ele>
        <time>2026-05-07T11:40:12.999Z</time>
      </trkpt>
      <trkpt lat="43.59994" lon="2.96923">
        <ele>1066.6</ele>
        <time>2026-05-07T11:40:13.999Z</time>
      </trkpt>
      <trkpt lat="43.59994" lon="2.96924">
        <ele>1066.6</ele>
        <time>2026-05-07T11:40:14.999Z</time>
      </trkpt>
      <trkpt lat="43.59995" lon="2.96925">
        <ele>1066.4</ele>
        <time>2026-05-07T11:40:15.999Z</time>
      </trkpt>
      <trkpt lat="43.59995" lon="2.96926">
        <ele>1066.4</ele>
        <time>2026-05-07T11:40:16.999Z</time>
      </trkpt>
      <trkpt lat="43.59996" lon="2.96927">
        <ele>1066.5</ele>
        <time>2026-05-07T11:40:17.999Z</time>
      </trkpt>
      <trkpt lat="43.59996" lon="2.96928">
        <ele>1066.6</ele>
        <time>2026-05-07T11:40:18.999Z</time>
      </trkpt>
      <trkpt lat="43.59996" lon="2.96929">
        <ele>1066.6</ele>
        <time>2026-05-07T11:40:19.999Z</time>
      </trkpt>
      <trkpt lat="43.59997" lon="2.9693">
        <ele>1066.7</ele>
        <time>2026-05-07T11:40:20.999Z</time>
      </trkpt>
      <trkpt lat="43.59998" lon="2.96932">
        <ele>1066.9</ele>
        <time>2026-05-07T11:40:21.999Z</time>
      </trkpt>
      <trkpt lat="43.59998" lon="2.96933">
        <ele>1066.9</ele>
        <time>2026-05-07T11:40:22.999Z</time>
      </trkpt>
      <trkpt lat="43.59998" lon="2.96935">
        <ele>1067</ele>
        <time>2026-05-07T11:40:23.999Z</time>
      </trkpt>
      <trkpt lat="43.59998" lon="2.96936">
        <ele>1067</ele>
        <time>2026-05-07T11:40:24.999Z</time>
      </trkpt>
      <trkpt lat="43.59999" lon="2.96937">
        <ele>1067.2</ele>
        <time>2026-05-07T11:40:25.999Z</time>
      </trkpt>
      <trkpt lat="43.59999" lon="2.96938">
        <ele>1067.8</ele>
        <time>2026-05-07T11:40:26.999Z</time>
      </trkpt>
      <trkpt lat="43.6" lon="2.96938">
        <ele>1068.3</ele>
        <time>2026-05-07T11:40:27.999Z</time>
      </trkpt>
      <trkpt lat="43.6" lon="2.96939">
        <ele>1068.5</ele>
        <time>2026-05-07T11:40:28.999Z</time>
      </trkpt>
      <trkpt lat="43.60001" lon="2.9694">
        <ele>1068.4</ele>
        <time>2026-05-07T11:40:29.999Z</time>
      </trkpt>
      <trkpt lat="43.60001" lon="2.9694">
        <ele>1068.5</ele>
        <time>2026-05-07T11:40:30.999Z</time>
      </trkpt>
      <trkpt lat="43.60001" lon="2.96941">
        <ele>1068.7</ele>
        <time>2026-05-07T11:40:31.999Z</time>
      </trkpt>
      <trkpt lat="43.60001" lon="2.96941">
        <ele>1068.6</ele>
        <time>2026-05-07T11:40:32.999Z</time>
      </trkpt>
      <trkpt lat="43.60001" lon="2.96942">
        <ele>1069.1</ele>
        <time>2026-05-07T11:40:33.999Z</time>
      </trkpt>
      <trkpt lat="43.60002" lon="2.96943">
        <ele>1069.7</ele>
        <time>2026-05-07T11:40:34.999Z</time>
      </trkpt>
      <trkpt lat="43.60002" lon="2.96944">
        <ele>1070.1</ele>
        <time>2026-05-07T11:40:35.999Z</time>
      </trkpt>
      <trkpt lat="43.60002" lon="2.96945">
        <ele>1070.4</ele>
        <time>2026-05-07T11:40:36.999Z</time>
      </trkpt>
      <trkpt lat="43.60002" lon="2.96945">
        <ele>1070.8</ele>
        <time>2026-05-07T11:40:37.999Z</time>
      </trkpt>
      <trkpt lat="43.60003" lon="2.96946">
        <ele>1071.1</ele>
        <time>2026-05-07T11:40:38.999Z</time>
      </trkpt>
      <trkpt lat="43.60003" lon="2.96948">
        <ele>1071.5</ele>
        <time>2026-05-07T11:40:39.999Z</time>
      </trkpt>
      <trkpt lat="43.60003" lon="2.9695">
        <ele>1071.6</ele>
        <time>2026-05-07T11:40:40.999Z</time>
      </trkpt>
      <trkpt lat="43.60003" lon="2.96952">
        <ele>1071.9</ele>
        <time>2026-05-07T11:40:41.999Z</time>
      </trkpt>
      <trkpt lat="43.60003" lon="2.96954">
        <ele>1071.8</ele>
        <time>2026-05-07T11:40:42.999Z</time>
      </trkpt>
      <trkpt lat="43.60004" lon="2.96955">
        <ele>1071.9</ele>
        <time>2026-05-07T11:40:43.999Z</time>
      </trkpt>
      <trkpt lat="43.60004" lon="2.96956">
        <ele>1072</ele>
        <time>2026-05-07T11:40:44.999Z</time>
      </trkpt>
      <trkpt lat="43.60005" lon="2.96956">
        <ele>1072.4</ele>
        <time>2026-05-07T11:40:45.999Z</time>
      </trkpt>
      <trkpt lat="43.60005" lon="2.96957">
        <ele>1072.4</ele>
        <time>2026-05-07T11:40:46.999Z</time>
      </trkpt>
      <trkpt lat="43.60005" lon="2.96959">
        <ele>1072.5</ele>
        <time>2026-05-07T11:40:47.999Z</time>
      </trkpt>
      <trkpt lat="43.60006" lon="2.9696">
        <ele>1072.3</ele>
        <time>2026-05-07T11:40:48.999Z</time>
      </trkpt>
      <trkpt lat="43.60006" lon="2.96961">
        <ele>1072.4</ele>
        <time>2026-05-07T11:40:49.999Z</time>
      </trkpt>
      <trkpt lat="43.60007" lon="2.96963">
        <ele>1072.7</ele>
        <time>2026-05-07T11:40:50.999Z</time>
      </trkpt>
      <trkpt lat="43.60007" lon="2.96963">
        <ele>1072.9</ele>
        <time>2026-05-07T11:40:51.999Z</time>
      </trkpt>
      <trkpt lat="43.60008" lon="2.96964">
        <ele>1073.2</ele>
        <time>2026-05-07T11:40:52.999Z</time>
      </trkpt>
      <trkpt lat="43.60008" lon="2.96964">
        <ele>1073.4</ele>
        <time>2026-05-07T11:40:53.999Z</time>
      </trkpt>
      <trkpt lat="43.60009" lon="2.96965">
        <ele>1073.4</ele>
        <time>2026-05-07T11:40:54.999Z</time>
      </trkpt>
      <trkpt lat="43.6001" lon="2.96966">
        <ele>1073.4</ele>
        <time>2026-05-07T11:40:55.999Z</time>
      </trkpt>
      <trkpt lat="43.6001" lon="2.96966">
        <ele>1073.4</ele>
        <time>2026-05-07T11:40:56.999Z</time>
      </trkpt>
      <trkpt lat="43.60011" lon="2.96966">
        <ele>1073.9</ele>
        <time>2026-05-07T11:40:57.999Z</time>
      </trkpt>
      <trkpt lat="43.60011" lon="2.96967">
        <ele>1074.2</ele>
        <time>2026-05-07T11:40:58.999Z</time>
      </trkpt>
      <trkpt lat="43.60011" lon="2.96968">
        <ele>1074.1</ele>
        <time>2026-05-07T11:40:59.999Z</time>
      </trkpt>
      <trkpt lat="43.60012" lon="2.96969">
        <ele>1074.3</ele>
        <time>2026-05-07T11:41:00.999Z</time>
      </trkpt>
      <trkpt lat="43.60012" lon="2.96969">
        <ele>1074.5</ele>
        <time>2026-05-07T11:41:01.999Z</time>
      </trkpt>
      <trkpt lat="43.60014" lon="2.9697">
        <ele>1074.8</ele>
        <time>2026-05-07T11:41:02.999Z</time>
      </trkpt>
      <trkpt lat="43.60015" lon="2.9697">
        <ele>1074.6</ele>
        <time>2026-05-07T11:41:03.999Z</time>
      </trkpt>
      <trkpt lat="43.60017" lon="2.96971">
        <ele>1074.7</ele>
        <time>2026-05-07T11:41:04.999Z</time>
      </trkpt>
      <trkpt lat="43.60017" lon="2.96972">
        <ele>1074.7</ele>
        <time>2026-05-07T11:41:05.999Z</time>
      </trkpt>
      <trkpt lat="43.60018" lon="2.96972">
        <ele>1074.9</ele>
        <time>2026-05-07T11:41:06.999Z</time>
      </trkpt>
      <trkpt lat="43.60019" lon="2.96972">
        <ele>1075</ele>
        <time>2026-05-07T11:41:07.999Z</time>
      </trkpt>
      <trkpt lat="43.60019" lon="2.96972">
        <ele>1075.3</ele>
        <time>2026-05-07T11:41:08.999Z</time>
      </trkpt>
      <trkpt lat="43.6002" lon="2.96972">
        <ele>1075.6</ele>
        <time>2026-05-07T11:41:09.999Z</time>
      </trkpt>
      <trkpt lat="43.60021" lon="2.96971">
        <ele>1075.7</ele>
        <time>2026-05-07T11:41:10.999Z</time>
      </trkpt>
      <trkpt lat="43.60021" lon="2.96972">
        <ele>1075.8</ele>
        <time>2026-05-07T11:41:11.999Z</time>
      </trkpt>
      <trkpt lat="43.60022" lon="2.96972">
        <ele>1075.6</ele>
        <time>2026-05-07T11:41:12.999Z</time>
      </trkpt>
      <trkpt lat="43.60023" lon="2.96974">
        <ele>1075.9</ele>
        <time>2026-05-07T11:41:13.999Z</time>
      </trkpt>
      <trkpt lat="43.60024" lon="2.96975">
        <ele>1076.3</ele>
        <time>2026-05-07T11:41:14.999Z</time>
      </trkpt>
      <trkpt lat="43.60025" lon="2.96975">
        <ele>1076.5</ele>
        <time>2026-05-07T11:41:15.999Z</time>
      </trkpt>
      <trkpt lat="43.60027" lon="2.96975">
        <ele>1076.5</ele>
        <time>2026-05-07T11:41:16.999Z</time>
      </trkpt>
      <trkpt lat="43.60028" lon="2.96975">
        <ele>1076.3</ele>
        <time>2026-05-07T11:41:17.999Z</time>
      </trkpt>
      <trkpt lat="43.6003" lon="2.96975">
        <ele>1076.5</ele>
        <time>2026-05-07T11:41:18.999Z</time>
      </trkpt>
      <trkpt lat="43.6003" lon="2.96975">
        <ele>1076.5</ele>
        <time>2026-05-07T11:41:19.999Z</time>
      </trkpt>
      <trkpt lat="43.60031" lon="2.96975">
        <ele>1076.7</ele>
        <time>2026-05-07T11:41:20.999Z</time>
      </trkpt>
      <trkpt lat="43.60031" lon="2.96975">
        <ele>1076.9</ele>
        <time>2026-05-07T11:41:21.999Z</time>
      </trkpt>
      <trkpt lat="43.60032" lon="2.96974">
        <ele>1077.2</ele>
        <time>2026-05-07T11:41:22.999Z</time>
      </trkpt>
      <trkpt lat="43.60033" lon="2.96975">
        <ele>1077.4</ele>
        <time>2026-05-07T11:41:23.999Z</time>
      </trkpt>
      <trkpt lat="43.60034" lon="2.96974">
        <ele>1077.6</ele>
        <time>2026-05-07T11:41:24.999Z</time>
      </trkpt>
      <trkpt lat="43.60035" lon="2.96974">
        <ele>1077.7</ele>
        <time>2026-05-07T11:41:25.999Z</time>
      </trkpt>
      <trkpt lat="43.60037" lon="2.96974">
        <ele>1077.8</ele>
        <time>2026-05-07T11:41:26.999Z</time>
      </trkpt>
      <trkpt lat="43.60037" lon="2.96973">
        <ele>1078</ele>
        <time>2026-05-07T11:41:27.999Z</time>
      </trkpt>
      <trkpt lat="43.60038" lon="2.96974">
        <ele>1078.6</ele>
        <time>2026-05-07T11:41:28.999Z</time>
      </trkpt>
      <trkpt lat="43.60038" lon="2.96974">
        <ele>1079</ele>
        <time>2026-05-07T11:41:29.999Z</time>
      </trkpt>
      <trkpt lat="43.60039" lon="2.96974">
        <ele>1079.4</ele>
        <time>2026-05-07T11:41:30.999Z</time>
      </trkpt>
      <trkpt lat="43.6004" lon="2.96975">
        <ele>1079.7</ele>
        <time>2026-05-07T11:41:31.999Z</time>
      </trkpt>
      <trkpt lat="43.60041" lon="2.96975">
        <ele>1079.9</ele>
        <time>2026-05-07T11:41:32.999Z</time>
      </trkpt>
      <trkpt lat="43.60042" lon="2.96975">
        <ele>1079.8</ele>
        <time>2026-05-07T11:41:33.999Z</time>
      </trkpt>
      <trkpt lat="43.60044" lon="2.96975">
        <ele>1079.7</ele>
        <time>2026-05-07T11:41:34.999Z</time>
      </trkpt>
      <trkpt lat="43.60045" lon="2.96975">
        <ele>1079.9</ele>
        <time>2026-05-07T11:41:35.999Z</time>
      </trkpt>
      <trkpt lat="43.60046" lon="2.96976">
        <ele>1079.9</ele>
        <time>2026-05-07T11:41:36.999Z</time>
      </trkpt>
      <trkpt lat="43.60047" lon="2.96976">
        <ele>1079.9</ele>
        <time>2026-05-07T11:41:37.999Z</time>
      </trkpt>
      <trkpt lat="43.60048" lon="2.96976">
        <ele>1079.8</ele>
        <time>2026-05-07T11:41:38.999Z</time>
      </trkpt>
      <trkpt lat="43.60049" lon="2.96977">
        <ele>1079.6</ele>
        <time>2026-05-07T11:41:39.999Z</time>
      </trkpt>
      <trkpt lat="43.6005" lon="2.96977">
        <ele>1079.9</ele>
        <time>2026-05-07T11:41:40.999Z</time>
      </trkpt>
      <trkpt lat="43.60051" lon="2.96977">
        <ele>1080</ele>
        <time>2026-05-07T11:41:41.999Z</time>
      </trkpt>
      <trkpt lat="43.60052" lon="2.96977">
        <ele>1080.3</ele>
        <time>2026-05-07T11:41:42.999Z</time>
      </trkpt>
      <trkpt lat="43.60052" lon="2.96977">
        <ele>1080.3</ele>
        <time>2026-05-07T11:41:43.999Z</time>
      </trkpt>
      <trkpt lat="43.60053" lon="2.96978">
        <ele>1080.6</ele>
        <time>2026-05-07T11:41:44.999Z</time>
      </trkpt>
      <trkpt lat="43.60054" lon="2.96977">
        <ele>1080.8</ele>
        <time>2026-05-07T11:41:45.999Z</time>
      </trkpt>
      <trkpt lat="43.60055" lon="2.96978">
        <ele>1080.9</ele>
        <time>2026-05-07T11:41:46.999Z</time>
      </trkpt>
      <trkpt lat="43.60055" lon="2.96978">
        <ele>1080.8</ele>
        <time>2026-05-07T11:41:47.999Z</time>
      </trkpt>
      <trkpt lat="43.60056" lon="2.96978">
        <ele>1081</ele>
        <time>2026-05-07T11:41:48.999Z</time>
      </trkpt>
      <trkpt lat="43.60057" lon="2.96978">
        <ele>1081.3</ele>
        <time>2026-05-07T11:41:49.999Z</time>
      </trkpt>
      <trkpt lat="43.60058" lon="2.96978">
        <ele>1081.5</ele>
        <time>2026-05-07T11:41:50.999Z</time>
      </trkpt>
      <trkpt lat="43.60059" lon="2.96978">
        <ele>1081.4</ele>
        <time>2026-05-07T11:41:51.999Z</time>
      </trkpt>
      <trkpt lat="43.6006" lon="2.96978">
        <ele>1081.8</ele>
        <time>2026-05-07T11:41:52.999Z</time>
      </trkpt>
      <trkpt lat="43.60061" lon="2.96978">
        <ele>1082</ele>
        <time>2026-05-07T11:41:53.999Z</time>
      </trkpt>
      <trkpt lat="43.60062" lon="2.96979">
        <ele>1082.3</ele>
        <time>2026-05-07T11:41:54.999Z</time>
      </trkpt>
      <trkpt lat="43.60064" lon="2.96979">
        <ele>1082.5</ele>
        <time>2026-05-07T11:41:55.999Z</time>
      </trkpt>
      <trkpt lat="43.60065" lon="2.96978">
        <ele>1082.6</ele>
        <time>2026-05-07T11:41:56.999Z</time>
      </trkpt>
      <trkpt lat="43.60067" lon="2.96978">
        <ele>1082.7</ele>
        <time>2026-05-07T11:41:57.999Z</time>
      </trkpt>
      <trkpt lat="43.60068" lon="2.96979">
        <ele>1082.7</ele>
        <time>2026-05-07T11:41:58.999Z</time>
      </trkpt>
      <trkpt lat="43.60069" lon="2.96979">
        <ele>1082.7</ele>
        <time>2026-05-07T11:41:59.999Z</time>
      </trkpt>
      <trkpt lat="43.60071" lon="2.96979">
        <ele>1082.7</ele>
        <time>2026-05-07T11:42:00.999Z</time>
      </trkpt>
      <trkpt lat="43.60072" lon="2.96979">
        <ele>1082.7</ele>
        <time>2026-05-07T11:42:01.999Z</time>
      </trkpt>
      <trkpt lat="43.60073" lon="2.96978">
        <ele>1083</ele>
        <time>2026-05-07T11:42:02.999Z</time>
      </trkpt>
      <trkpt lat="43.60073" lon="2.96977">
        <ele>1083.3</ele>
        <time>2026-05-07T11:42:03.999Z</time>
      </trkpt>
      <trkpt lat="43.60074" lon="2.96976">
        <ele>1083.4</ele>
        <time>2026-05-07T11:42:04.999Z</time>
      </trkpt>
      <trkpt lat="43.60075" lon="2.96975">
        <ele>1083.7</ele>
        <time>2026-05-07T11:42:05.999Z</time>
      </trkpt>
      <trkpt lat="43.60076" lon="2.96975">
        <ele>1083.9</ele>
        <time>2026-05-07T11:42:06.999Z</time>
      </trkpt>
      <trkpt lat="43.60077" lon="2.96974">
        <ele>1084.2</ele>
        <time>2026-05-07T11:42:07.999Z</time>
      </trkpt>
      <trkpt lat="43.60077" lon="2.96973">
        <ele>1084.2</ele>
        <time>2026-05-07T11:42:08.999Z</time>
      </trkpt>
      <trkpt lat="43.60078" lon="2.96972">
        <ele>1084.2</ele>
        <time>2026-05-07T11:42:09.999Z</time>
      </trkpt>
      <trkpt lat="43.60079" lon="2.96972">
        <ele>1084.2</ele>
        <time>2026-05-07T11:42:10.999Z</time>
      </trkpt>
      <trkpt lat="43.6008" lon="2.96971">
        <ele>1083.7</ele>
        <time>2026-05-07T11:42:11.999Z</time>
      </trkpt>
      <trkpt lat="43.60082" lon="2.96971">
        <ele>1083.5</ele>
        <time>2026-05-07T11:42:12.999Z</time>
      </trkpt>
      <trkpt lat="43.60083" lon="2.9697">
        <ele>1083.3</ele>
        <time>2026-05-07T11:42:13.999Z</time>
      </trkpt>
      <trkpt lat="43.60083" lon="2.96969">
        <ele>1083.1</ele>
        <time>2026-05-07T11:42:14.999Z</time>
      </trkpt>
      <trkpt lat="43.60084" lon="2.96968">
        <ele>1083.1</ele>
        <time>2026-05-07T11:42:15.999Z</time>
      </trkpt>
      <trkpt lat="43.60086" lon="2.96967">
        <ele>1083.2</ele>
        <time>2026-05-07T11:42:16.999Z</time>
      </trkpt>
      <trkpt lat="43.60086" lon="2.96966">
        <ele>1083.4</ele>
        <time>2026-05-07T11:42:17.999Z</time>
      </trkpt>
      <trkpt lat="43.60088" lon="2.96965">
        <ele>1083.6</ele>
        <time>2026-05-07T11:42:18.999Z</time>
      </trkpt>
      <trkpt lat="43.60088" lon="2.96965">
        <ele>1084</ele>
        <time>2026-05-07T11:42:19.999Z</time>
      </trkpt>
      <trkpt lat="43.60089" lon="2.96964">
        <ele>1084.3</ele>
        <time>2026-05-07T11:42:20.999Z</time>
      </trkpt>
      <trkpt lat="43.6009" lon="2.96964">
        <ele>1084.4</ele>
        <time>2026-05-07T11:42:21.999Z</time>
      </trkpt>
      <trkpt lat="43.60091" lon="2.96964">
        <ele>1084.7</ele>
        <time>2026-05-07T11:42:22.999Z</time>
      </trkpt>
      <trkpt lat="43.60092" lon="2.96963">
        <ele>1084.8</ele>
        <time>2026-05-07T11:42:23.999Z</time>
      </trkpt>
      <trkpt lat="43.60094" lon="2.96963">
        <ele>1084.8</ele>
        <time>2026-05-07T11:42:24.999Z</time>
      </trkpt>
      <trkpt lat="43.60094" lon="2.96963">
        <ele>1084.8</ele>
        <time>2026-05-07T11:42:25.999Z</time>
      </trkpt>
      <trkpt lat="43.60095" lon="2.96963">
        <ele>1085.1</ele>
        <time>2026-05-07T11:42:26.999Z</time>
      </trkpt>
      <trkpt lat="43.60097" lon="2.96963">
        <ele>1085.1</ele>
        <time>2026-05-07T11:42:27.999Z</time>
      </trkpt>
      <trkpt lat="43.60098" lon="2.96963">
        <ele>1085.4</ele>
        <time>2026-05-07T11:42:28.999Z</time>
      </trkpt>
      <trkpt lat="43.60099" lon="2.96964">
        <ele>1085.9</ele>
        <time>2026-05-07T11:42:29.999Z</time>
      </trkpt>
      <trkpt lat="43.601" lon="2.96964">
        <ele>1086.2</ele>
        <time>2026-05-07T11:42:30.999Z</time>
      </trkpt>
      <trkpt lat="43.60101" lon="2.96964">
        <ele>1086.2</ele>
        <time>2026-05-07T11:42:31.999Z</time>
      </trkpt>
      <trkpt lat="43.60102" lon="2.96965">
        <ele>1086.2</ele>
        <time>2026-05-07T11:42:32.999Z</time>
      </trkpt>
      <trkpt lat="43.60103" lon="2.96965">
        <ele>1086</ele>
        <time>2026-05-07T11:42:33.999Z</time>
      </trkpt>
      <trkpt lat="43.60104" lon="2.96966">
        <ele>1085.7</ele>
        <time>2026-05-07T11:42:34.999Z</time>
      </trkpt>
      <trkpt lat="43.60105" lon="2.96967">
        <ele>1085.5</ele>
        <time>2026-05-07T11:42:35.999Z</time>
      </trkpt>
      <trkpt lat="43.60106" lon="2.96968">
        <ele>1085.4</ele>
        <time>2026-05-07T11:42:36.999Z</time>
      </trkpt>
      <trkpt lat="43.60107" lon="2.96969">
        <ele>1085.2</ele>
        <time>2026-05-07T11:42:37.999Z</time>
      </trkpt>
      <trkpt lat="43.60108" lon="2.96969">
        <ele>1085.6</ele>
        <time>2026-05-07T11:42:38.999Z</time>
      </trkpt>
      <trkpt lat="43.60109" lon="2.96969">
        <ele>1085.7</ele>
        <time>2026-05-07T11:42:39.999Z</time>
      </trkpt>
      <trkpt lat="43.6011" lon="2.96969">
        <ele>1086.1</ele>
        <time>2026-05-07T11:42:40.999Z</time>
      </trkpt>
      <trkpt lat="43.60111" lon="2.9697">
        <ele>1086.5</ele>
        <time>2026-05-07T11:42:41.999Z</time>
      </trkpt>
      <trkpt lat="43.60112" lon="2.96971">
        <ele>1086.8</ele>
        <time>2026-05-07T11:42:42.999Z</time>
      </trkpt>
      <trkpt lat="43.60113" lon="2.96971">
        <ele>1086.9</ele>
        <time>2026-05-07T11:42:43.999Z</time>
      </trkpt>
      <trkpt lat="43.60114" lon="2.96971">
        <ele>1086.9</ele>
        <time>2026-05-07T11:42:44.999Z</time>
      </trkpt>
      <trkpt lat="43.60115" lon="2.96971">
        <ele>1087</ele>
        <time>2026-05-07T11:42:45.999Z</time>
      </trkpt>
      <trkpt lat="43.60116" lon="2.96971">
        <ele>1087</ele>
        <time>2026-05-07T11:42:46.999Z</time>
      </trkpt>
      <trkpt lat="43.60117" lon="2.96972">
        <ele>1087</ele>
        <time>2026-05-07T11:42:47.999Z</time>
      </trkpt>
      <trkpt lat="43.60118" lon="2.96973">
        <ele>1087</ele>
        <time>2026-05-07T11:42:48.999Z</time>
      </trkpt>
      <trkpt lat="43.60118" lon="2.96974">
        <ele>1086.8</ele>
        <time>2026-05-07T11:42:49.999Z</time>
      </trkpt>
      <trkpt lat="43.60119" lon="2.96975">
        <ele>1086.8</ele>
        <time>2026-05-07T11:42:50.999Z</time>
      </trkpt>
      <trkpt lat="43.6012" lon="2.96975">
        <ele>1087</ele>
        <time>2026-05-07T11:42:51.999Z</time>
      </trkpt>
      <trkpt lat="43.60121" lon="2.96976">
        <ele>1086.9</ele>
        <time>2026-05-07T11:42:52.999Z</time>
      </trkpt>
      <trkpt lat="43.60122" lon="2.96976">
        <ele>1086.7</ele>
        <time>2026-05-07T11:42:53.999Z</time>
      </trkpt>
      <trkpt lat="43.60123" lon="2.96977">
        <ele>1086.8</ele>
        <time>2026-05-07T11:42:54.999Z</time>
      </trkpt>
      <trkpt lat="43.60124" lon="2.96978">
        <ele>1086.9</ele>
        <time>2026-05-07T11:42:55.999Z</time>
      </trkpt>
      <trkpt lat="43.60125" lon="2.96979">
        <ele>1086.8</ele>
        <time>2026-05-07T11:42:56.999Z</time>
      </trkpt>
      <trkpt lat="43.60126" lon="2.96979">
        <ele>1086.5</ele>
        <time>2026-05-07T11:42:57.999Z</time>
      </trkpt>
      <trkpt lat="43.60127" lon="2.9698">
        <ele>1086.4</ele>
        <time>2026-05-07T11:42:58.999Z</time>
      </trkpt>
      <trkpt lat="43.60128" lon="2.9698">
        <ele>1086.3</ele>
        <time>2026-05-07T11:42:59.999Z</time>
      </trkpt>
      <trkpt lat="43.60128" lon="2.9698">
        <ele>1085.9</ele>
        <time>2026-05-07T11:43:00.999Z</time>
      </trkpt>
      <trkpt lat="43.60129" lon="2.96982">
        <ele>1085.7</ele>
        <time>2026-05-07T11:43:01.999Z</time>
      </trkpt>
      <trkpt lat="43.60131" lon="2.96982">
        <ele>1085.5</ele>
        <time>2026-05-07T11:43:02.999Z</time>
      </trkpt>
      <trkpt lat="43.60132" lon="2.96983">
        <ele>1085.1</ele>
        <time>2026-05-07T11:43:03.999Z</time>
      </trkpt>
      <trkpt lat="43.60133" lon="2.96983">
        <ele>1085.1</ele>
        <time>2026-05-07T11:43:04.999Z</time>
      </trkpt>
      <trkpt lat="43.60134" lon="2.96983">
        <ele>1085.5</ele>
        <time>2026-05-07T11:43:05.999Z</time>
      </trkpt>
      <trkpt lat="43.60135" lon="2.96984">
        <ele>1086</ele>
        <time>2026-05-07T11:43:06.999Z</time>
      </trkpt>
      <trkpt lat="43.60136" lon="2.96984">
        <ele>1086.5</ele>
        <time>2026-05-07T11:43:07.999Z</time>
      </trkpt>
      <trkpt lat="43.60137" lon="2.96984">
        <ele>1086.8</ele>
        <time>2026-05-07T11:43:08.999Z</time>
      </trkpt>
      <trkpt lat="43.60138" lon="2.96984">
        <ele>1087.2</ele>
        <time>2026-05-07T11:43:09.999Z</time>
      </trkpt>
      <trkpt lat="43.6014" lon="2.96985">
        <ele>1087.4</ele>
        <time>2026-05-07T11:43:10.999Z</time>
      </trkpt>
      <trkpt lat="43.60141" lon="2.96985">
        <ele>1087.7</ele>
        <time>2026-05-07T11:43:11.999Z</time>
      </trkpt>
      <trkpt lat="43.60142" lon="2.96985">
        <ele>1087.8</ele>
        <time>2026-05-07T11:43:12.999Z</time>
      </trkpt>
      <trkpt lat="43.60142" lon="2.96986">
        <ele>1088.1</ele>
        <time>2026-05-07T11:43:13.999Z</time>
      </trkpt>
      <trkpt lat="43.60143" lon="2.96987">
        <ele>1088.2</ele>
        <time>2026-05-07T11:43:14.999Z</time>
      </trkpt>
      <trkpt lat="43.60144" lon="2.96988">
        <ele>1088.2</ele>
        <time>2026-05-07T11:43:15.999Z</time>
      </trkpt>
      <trkpt lat="43.60145" lon="2.96988">
        <ele>1088.3</ele>
        <time>2026-05-07T11:43:16.999Z</time>
      </trkpt>
      <trkpt lat="43.60146" lon="2.96988">
        <ele>1088.6</ele>
        <time>2026-05-07T11:43:17.999Z</time>
      </trkpt>
      <trkpt lat="43.60148" lon="2.96988">
        <ele>1088.6</ele>
        <time>2026-05-07T11:43:18.999Z</time>
      </trkpt>
      <trkpt lat="43.60149" lon="2.96988">
        <ele>1088.7</ele>
        <time>2026-05-07T11:43:19.999Z</time>
      </trkpt>
      <trkpt lat="43.6015" lon="2.96987">
        <ele>1088.4</ele>
        <time>2026-05-07T11:43:20.999Z</time>
      </trkpt>
      <trkpt lat="43.60151" lon="2.96987">
        <ele>1088.7</ele>
        <time>2026-05-07T11:43:21.999Z</time>
      </trkpt>
      <trkpt lat="43.60152" lon="2.96986">
        <ele>1088.8</ele>
        <time>2026-05-07T11:43:22.999Z</time>
      </trkpt>
      <trkpt lat="43.60153" lon="2.96986">
        <ele>1088.9</ele>
        <time>2026-05-07T11:43:23.999Z</time>
      </trkpt>
      <trkpt lat="43.60153" lon="2.96987">
        <ele>1088.6</ele>
        <time>2026-05-07T11:43:24.999Z</time>
      </trkpt>
      <trkpt lat="43.60154" lon="2.96988">
        <ele>1088.7</ele>
        <time>2026-05-07T11:43:25.999Z</time>
      </trkpt>
      <trkpt lat="43.60155" lon="2.96989">
        <ele>1088.8</ele>
        <time>2026-05-07T11:43:26.999Z</time>
      </trkpt>
      <trkpt lat="43.60156" lon="2.96989">
        <ele>1089</ele>
        <time>2026-05-07T11:43:27.999Z</time>
      </trkpt>
      <trkpt lat="43.60157" lon="2.96989">
        <ele>1089.1</ele>
        <time>2026-05-07T11:43:28.999Z</time>
      </trkpt>
      <trkpt lat="43.60157" lon="2.96989">
        <ele>1089.2</ele>
        <time>2026-05-07T11:43:29.999Z</time>
      </trkpt>
      <trkpt lat="43.60158" lon="2.96989">
        <ele>1089.4</ele>
        <time>2026-05-07T11:43:30.999Z</time>
      </trkpt>
      <trkpt lat="43.60159" lon="2.96989">
        <ele>1089.7</ele>
        <time>2026-05-07T11:43:31.999Z</time>
      </trkpt>
      <trkpt lat="43.6016" lon="2.96989">
        <ele>1089.9</ele>
        <time>2026-05-07T11:43:32.999Z</time>
      </trkpt>
      <trkpt lat="43.60161" lon="2.96989">
        <ele>1089.9</ele>
        <time>2026-05-07T11:43:33.999Z</time>
      </trkpt>
      <trkpt lat="43.60162" lon="2.96989">
        <ele>1089.8</ele>
        <time>2026-05-07T11:43:34.999Z</time>
      </trkpt>
      <trkpt lat="43.60163" lon="2.96989">
        <ele>1089.9</ele>
        <time>2026-05-07T11:43:35.999Z</time>
      </trkpt>
      <trkpt lat="43.60164" lon="2.9699">
        <ele>1090.1</ele>
        <time>2026-05-07T11:43:36.999Z</time>
      </trkpt>
      <trkpt lat="43.60165" lon="2.9699">
        <ele>1090.3</ele>
        <time>2026-05-07T11:43:37.999Z</time>
      </trkpt>
      <trkpt lat="43.60166" lon="2.9699">
        <ele>1090.5</ele>
        <time>2026-05-07T11:43:38.999Z</time>
      </trkpt>
      <trkpt lat="43.60166" lon="2.96989">
        <ele>1090.5</ele>
        <time>2026-05-07T11:43:39.999Z</time>
      </trkpt>
      <trkpt lat="43.60167" lon="2.96989">
        <ele>1090.8</ele>
        <time>2026-05-07T11:43:40.999Z</time>
      </trkpt>
      <trkpt lat="43.60168" lon="2.9699">
        <ele>1091</ele>
        <time>2026-05-07T11:43:41.999Z</time>
      </trkpt>
      <trkpt lat="43.6017" lon="2.9699">
        <ele>1091.3</ele>
        <time>2026-05-07T11:43:42.999Z</time>
      </trkpt>
      <trkpt lat="43.60171" lon="2.9699">
        <ele>1091.2</ele>
        <time>2026-05-07T11:43:43.999Z</time>
      </trkpt>
      <trkpt lat="43.60172" lon="2.9699">
        <ele>1091.2</ele>
        <time>2026-05-07T11:43:44.999Z</time>
      </trkpt>
      <trkpt lat="43.60173" lon="2.9699">
        <ele>1091.3</ele>
        <time>2026-05-07T11:43:45.999Z</time>
      </trkpt>
      <trkpt lat="43.60174" lon="2.9699">
        <ele>1091.5</ele>
        <time>2026-05-07T11:43:46.999Z</time>
      </trkpt>
      <trkpt lat="43.60175" lon="2.96991">
        <ele>1091.8</ele>
        <time>2026-05-07T11:43:47.999Z</time>
      </trkpt>
      <trkpt lat="43.60175" lon="2.96991">
        <ele>1091.6</ele>
        <time>2026-05-07T11:43:48.999Z</time>
      </trkpt>
      <trkpt lat="43.60176" lon="2.96991">
        <ele>1091.6</ele>
        <time>2026-05-07T11:43:49.999Z</time>
      </trkpt>
      <trkpt lat="43.60176" lon="2.96991">
        <ele>1091.4</ele>
        <time>2026-05-07T11:43:50.999Z</time>
      </trkpt>
      <trkpt lat="43.60177" lon="2.96992">
        <ele>1091.4</ele>
        <time>2026-05-07T11:43:51.999Z</time>
      </trkpt>
      <trkpt lat="43.60177" lon="2.96993">
        <ele>1091.3</ele>
        <time>2026-05-07T11:43:52.999Z</time>
      </trkpt>
      <trkpt lat="43.60178" lon="2.96994">
        <ele>1091.2</ele>
        <time>2026-05-07T11:43:53.999Z</time>
      </trkpt>
      <trkpt lat="43.60179" lon="2.96995">
        <ele>1091.5</ele>
        <time>2026-05-07T11:43:54.999Z</time>
      </trkpt>
      <trkpt lat="43.60179" lon="2.96996">
        <ele>1091.8</ele>
        <time>2026-05-07T11:43:55.999Z</time>
      </trkpt>
      <trkpt lat="43.60181" lon="2.96996">
        <ele>1092</ele>
        <time>2026-05-07T11:43:56.999Z</time>
      </trkpt>
      <trkpt lat="43.60181" lon="2.96997">
        <ele>1092</ele>
        <time>2026-05-07T11:43:57.999Z</time>
      </trkpt>
      <trkpt lat="43.60182" lon="2.96998">
        <ele>1092</ele>
        <time>2026-05-07T11:43:58.999Z</time>
      </trkpt>
      <trkpt lat="43.60182" lon="2.96998">
        <ele>1092.1</ele>
        <time>2026-05-07T11:43:59.999Z</time>
      </trkpt>
      <trkpt lat="43.60183" lon="2.96998">
        <ele>1092.3</ele>
        <time>2026-05-07T11:44:00.999Z</time>
      </trkpt>
      <trkpt lat="43.60184" lon="2.96998">
        <ele>1092.5</ele>
        <time>2026-05-07T11:44:01.999Z</time>
      </trkpt>
      <trkpt lat="43.60184" lon="2.96999">
        <ele>1092.6</ele>
        <time>2026-05-07T11:44:02.999Z</time>
      </trkpt>
      <trkpt lat="43.60185" lon="2.96999">
        <ele>1092.7</ele>
        <time>2026-05-07T11:44:03.999Z</time>
      </trkpt>
      <trkpt lat="43.60186" lon="2.97">
        <ele>1093</ele>
        <time>2026-05-07T11:44:04.999Z</time>
      </trkpt>
      <trkpt lat="43.60186" lon="2.97">
        <ele>1093.3</ele>
        <time>2026-05-07T11:44:05.999Z</time>
      </trkpt>
      <trkpt lat="43.60187" lon="2.97001">
        <ele>1093.5</ele>
        <time>2026-05-07T11:44:06.999Z</time>
      </trkpt>
      <trkpt lat="43.60188" lon="2.97002">
        <ele>1093.7</ele>
        <time>2026-05-07T11:44:07.999Z</time>
      </trkpt>
      <trkpt lat="43.60189" lon="2.97003">
        <ele>1093.8</ele>
        <time>2026-05-07T11:44:08.999Z</time>
      </trkpt>
      <trkpt lat="43.6019" lon="2.97004">
        <ele>1093.8</ele>
        <time>2026-05-07T11:44:09.999Z</time>
      </trkpt>
      <trkpt lat="43.6019" lon="2.97004">
        <ele>1093.7</ele>
        <time>2026-05-07T11:44:10.999Z</time>
      </trkpt>
      <trkpt lat="43.60191" lon="2.97005">
        <ele>1093.7</ele>
        <time>2026-05-07T11:44:11.999Z</time>
      </trkpt>
      <trkpt lat="43.60193" lon="2.97006">
        <ele>1093.6</ele>
        <time>2026-05-07T11:44:12.999Z</time>
      </trkpt>
      <trkpt lat="43.60194" lon="2.97007">
        <ele>1093.6</ele>
        <time>2026-05-07T11:44:13.999Z</time>
      </trkpt>
      <trkpt lat="43.60194" lon="2.97009">
        <ele>1093.6</ele>
        <time>2026-05-07T11:44:14.999Z</time>
      </trkpt>
      <trkpt lat="43.60195" lon="2.9701">
        <ele>1094</ele>
        <time>2026-05-07T11:44:15.999Z</time>
      </trkpt>
      <trkpt lat="43.60196" lon="2.9701">
        <ele>1093.9</ele>
        <time>2026-05-07T11:44:16.999Z</time>
      </trkpt>
      <trkpt lat="43.60197" lon="2.9701">
        <ele>1094</ele>
        <time>2026-05-07T11:44:17.999Z</time>
      </trkpt>
      <trkpt lat="43.60198" lon="2.97011">
        <ele>1094.1</ele>
        <time>2026-05-07T11:44:18.999Z</time>
      </trkpt>
      <trkpt lat="43.60199" lon="2.97011">
        <ele>1094.1</ele>
        <time>2026-05-07T11:44:19.999Z</time>
      </trkpt>
      <trkpt lat="43.60199" lon="2.97012">
        <ele>1094.2</ele>
        <time>2026-05-07T11:44:20.999Z</time>
      </trkpt>
      <trkpt lat="43.602" lon="2.97012">
        <ele>1094.5</ele>
        <time>2026-05-07T11:44:21.999Z</time>
      </trkpt>
      <trkpt lat="43.60199" lon="2.97013">
        <ele>1094.6</ele>
        <time>2026-05-07T11:44:22.999Z</time>
      </trkpt>
      <trkpt lat="43.60199" lon="2.97015">
        <ele>1094.6</ele>
        <time>2026-05-07T11:44:23.999Z</time>
      </trkpt>
      <trkpt lat="43.602" lon="2.97016">
        <ele>1094.5</ele>
        <time>2026-05-07T11:44:24.999Z</time>
      </trkpt>
      <trkpt lat="43.602" lon="2.97018">
        <ele>1094.6</ele>
        <time>2026-05-07T11:44:25.999Z</time>
      </trkpt>
      <trkpt lat="43.602" lon="2.97019">
        <ele>1095</ele>
        <time>2026-05-07T11:44:26.999Z</time>
      </trkpt>
      <trkpt lat="43.602" lon="2.97021">
        <ele>1095.5</ele>
        <time>2026-05-07T11:44:27.999Z</time>
      </trkpt>
      <trkpt lat="43.602" lon="2.97023">
        <ele>1096</ele>
        <time>2026-05-07T11:44:28.999Z</time>
      </trkpt>
      <trkpt lat="43.602" lon="2.97024">
        <ele>1096.1</ele>
        <time>2026-05-07T11:44:29.999Z</time>
      </trkpt>
      <trkpt lat="43.60201" lon="2.97025">
        <ele>1096.3</ele>
        <time>2026-05-07T11:44:30.999Z</time>
      </trkpt>
      <trkpt lat="43.60201" lon="2.97027">
        <ele>1096.3</ele>
        <time>2026-05-07T11:44:31.999Z</time>
      </trkpt>
      <trkpt lat="43.60202" lon="2.97029">
        <ele>1096.5</ele>
        <time>2026-05-07T11:44:32.999Z</time>
      </trkpt>
      <trkpt lat="43.60202" lon="2.9703">
        <ele>1096.6</ele>
        <time>2026-05-07T11:44:33.999Z</time>
      </trkpt>
      <trkpt lat="43.60202" lon="2.97032">
        <ele>1096.4</ele>
        <time>2026-05-07T11:44:34.999Z</time>
      </trkpt>
      <trkpt lat="43.60202" lon="2.97033">
        <ele>1096.1</ele>
        <time>2026-05-07T11:44:35.999Z</time>
      </trkpt>
      <trkpt lat="43.60202" lon="2.97034">
        <ele>1095.8</ele>
        <time>2026-05-07T11:44:36.999Z</time>
      </trkpt>
      <trkpt lat="43.60202" lon="2.97035">
        <ele>1096</ele>
        <time>2026-05-07T11:44:37.999Z</time>
      </trkpt>
      <trkpt lat="43.60201" lon="2.97036">
        <ele>1096.2</ele>
        <time>2026-05-07T11:44:38.999Z</time>
      </trkpt>
      <trkpt lat="43.60201" lon="2.97038">
        <ele>1096.3</ele>
        <time>2026-05-07T11:44:39.999Z</time>
      </trkpt>
      <trkpt lat="43.60201" lon="2.97039">
        <ele>1096.3</ele>
        <time>2026-05-07T11:44:40.999Z</time>
      </trkpt>
      <trkpt lat="43.60201" lon="2.97041">
        <ele>1096.4</ele>
        <time>2026-05-07T11:44:41.999Z</time>
      </trkpt>
      <trkpt lat="43.60201" lon="2.97043">
        <ele>1096.4</ele>
        <time>2026-05-07T11:44:42.999Z</time>
      </trkpt>
      <trkpt lat="43.602" lon="2.97045">
        <ele>1096.1</ele>
        <time>2026-05-07T11:44:43.999Z</time>
      </trkpt>
      <trkpt lat="43.602" lon="2.97046">
        <ele>1095.8</ele>
        <time>2026-05-07T11:44:44.999Z</time>
      </trkpt>
      <trkpt lat="43.602" lon="2.97048">
        <ele>1095.5</ele>
        <time>2026-05-07T11:44:45.999Z</time>
      </trkpt>
      <trkpt lat="43.60201" lon="2.97049">
        <ele>1095.2</ele>
        <time>2026-05-07T11:44:46.999Z</time>
      </trkpt>
      <trkpt lat="43.602" lon="2.97051">
        <ele>1095.1</ele>
        <time>2026-05-07T11:44:47.999Z</time>
      </trkpt>
      <trkpt lat="43.602" lon="2.97053">
        <ele>1095</ele>
        <time>2026-05-07T11:44:48.999Z</time>
      </trkpt>
      <trkpt lat="43.602" lon="2.97056">
        <ele>1095.1</ele>
        <time>2026-05-07T11:44:49.999Z</time>
      </trkpt>
      <trkpt lat="43.60201" lon="2.97058">
        <ele>1095</ele>
        <time>2026-05-07T11:44:50.999Z</time>
      </trkpt>
      <trkpt lat="43.60202" lon="2.9706">
        <ele>1095</ele>
        <time>2026-05-07T11:44:51.999Z</time>
      </trkpt>
      <trkpt lat="43.60203" lon="2.97062">
        <ele>1095.1</ele>
        <time>2026-05-07T11:44:52.999Z</time>
      </trkpt>
      <trkpt lat="43.60204" lon="2.97064">
        <ele>1095.1</ele>
        <time>2026-05-07T11:44:53.999Z</time>
      </trkpt>
      <trkpt lat="43.60204" lon="2.97066">
        <ele>1095.6</ele>
        <time>2026-05-07T11:44:54.999Z</time>
      </trkpt>
      <trkpt lat="43.60205" lon="2.97068">
        <ele>1095.8</ele>
        <time>2026-05-07T11:44:55.999Z</time>
      </trkpt>
      <trkpt lat="43.60205" lon="2.97069">
        <ele>1095.5</ele>
        <time>2026-05-07T11:44:56.999Z</time>
      </trkpt>
      <trkpt lat="43.60207" lon="2.97071">
        <ele>1095.5</ele>
        <time>2026-05-07T11:44:57.999Z</time>
      </trkpt>
      <trkpt lat="43.60208" lon="2.97073">
        <ele>1095.6</ele>
        <time>2026-05-07T11:44:58.999Z</time>
      </trkpt>
      <trkpt lat="43.60209" lon="2.97074">
        <ele>1095.1</ele>
        <time>2026-05-07T11:44:59.999Z</time>
      </trkpt>
      <trkpt lat="43.6021" lon="2.97075">
        <ele>1094.8</ele>
        <time>2026-05-07T11:45:00.999Z</time>
      </trkpt>
      <trkpt lat="43.60211" lon="2.97076">
        <ele>1095</ele>
        <time>2026-05-07T11:45:01.999Z</time>
      </trkpt>
      <trkpt lat="43.60211" lon="2.97076">
        <ele>1095.4</ele>
        <time>2026-05-07T11:45:02.999Z</time>
      </trkpt>
      <trkpt lat="43.60212" lon="2.97077">
        <ele>1095.5</ele>
        <time>2026-05-07T11:45:03.999Z</time>
      </trkpt>
      <trkpt lat="43.60213" lon="2.97076">
        <ele>1095.5</ele>
        <time>2026-05-07T11:45:04.999Z</time>
      </trkpt>
      <trkpt lat="43.60214" lon="2.97076">
        <ele>1095.6</ele>
        <time>2026-05-07T11:45:05.999Z</time>
      </trkpt>
      <trkpt lat="43.60215" lon="2.97077">
        <ele>1095.9</ele>
        <time>2026-05-07T11:45:06.999Z</time>
      </trkpt>
      <trkpt lat="43.60216" lon="2.97079">
        <ele>1096.2</ele>
        <time>2026-05-07T11:45:07.999Z</time>
      </trkpt>
      <trkpt lat="43.60217" lon="2.97079">
        <ele>1095.9</ele>
        <time>2026-05-07T11:45:08.999Z</time>
      </trkpt>
      <trkpt lat="43.60218" lon="2.9708">
        <ele>1095.4</ele>
        <time>2026-05-07T11:45:09.999Z</time>
      </trkpt>
      <trkpt lat="43.60219" lon="2.97081">
        <ele>1095.4</ele>
        <time>2026-05-07T11:45:10.999Z</time>
      </trkpt>
      <trkpt lat="43.6022" lon="2.97081">
        <ele>1095.5</ele>
        <time>2026-05-07T11:45:11.999Z</time>
      </trkpt>
      <trkpt lat="43.60221" lon="2.97082">
        <ele>1095.4</ele>
        <time>2026-05-07T11:45:12.999Z</time>
      </trkpt>
      <trkpt lat="43.60222" lon="2.97082">
        <ele>1095.2</ele>
        <time>2026-05-07T11:45:13.999Z</time>
      </trkpt>
      <trkpt lat="43.60223" lon="2.97083">
        <ele>1095</ele>
        <time>2026-05-07T11:45:14.999Z</time>
      </trkpt>
      <trkpt lat="43.60224" lon="2.97083">
        <ele>1094.9</ele>
        <time>2026-05-07T11:45:15.999Z</time>
      </trkpt>
      <trkpt lat="43.60225" lon="2.97083">
        <ele>1094.8</ele>
        <time>2026-05-07T11:45:16.999Z</time>
      </trkpt>
      <trkpt lat="43.60227" lon="2.97084">
        <ele>1094.9</ele>
        <time>2026-05-07T11:45:17.999Z</time>
      </trkpt>
      <trkpt lat="43.60228" lon="2.97084">
        <ele>1095</ele>
        <time>2026-05-07T11:45:18.999Z</time>
      </trkpt>
      <trkpt lat="43.60229" lon="2.97084">
        <ele>1095.2</ele>
        <time>2026-05-07T11:45:19.999Z</time>
      </trkpt>
      <trkpt lat="43.6023" lon="2.97084">
        <ele>1095.5</ele>
        <time>2026-05-07T11:45:20.999Z</time>
      </trkpt>
      <trkpt lat="43.60231" lon="2.97083">
        <ele>1095.6</ele>
        <time>2026-05-07T11:45:21.999Z</time>
      </trkpt>
      <trkpt lat="43.60231" lon="2.97083">
        <ele>1095.8</ele>
        <time>2026-05-07T11:45:22.999Z</time>
      </trkpt>
      <trkpt lat="43.60232" lon="2.97084">
        <ele>1096.1</ele>
        <time>2026-05-07T11:45:23.999Z</time>
      </trkpt>
      <trkpt lat="43.60233" lon="2.97084">
        <ele>1096</ele>
        <time>2026-05-07T11:45:24.999Z</time>
      </trkpt>
      <trkpt lat="43.60234" lon="2.97085">
        <ele>1095.9</ele>
        <time>2026-05-07T11:45:25.999Z</time>
      </trkpt>
      <trkpt lat="43.60236" lon="2.97085">
        <ele>1095.8</ele>
        <time>2026-05-07T11:45:26.999Z</time>
      </trkpt>
      <trkpt lat="43.60237" lon="2.97085">
        <ele>1095.8</ele>
        <time>2026-05-07T11:45:27.999Z</time>
      </trkpt>
      <trkpt lat="43.60238" lon="2.97085">
        <ele>1095.7</ele>
        <time>2026-05-07T11:45:28.999Z</time>
      </trkpt>
      <trkpt lat="43.60239" lon="2.97085">
        <ele>1095.5</ele>
        <time>2026-05-07T11:45:29.999Z</time>
      </trkpt>
      <trkpt lat="43.6024" lon="2.97085">
        <ele>1095.4</ele>
        <time>2026-05-07T11:45:30.999Z</time>
      </trkpt>
      <trkpt lat="43.60242" lon="2.97085">
        <ele>1095.7</ele>
        <time>2026-05-07T11:45:31.999Z</time>
      </trkpt>
      <trkpt lat="43.60243" lon="2.97084">
        <ele>1095.4</ele>
        <time>2026-05-07T11:45:32.999Z</time>
      </trkpt>
      <trkpt lat="43.60244" lon="2.97084">
        <ele>1095.4</ele>
        <time>2026-05-07T11:45:33.999Z</time>
      </trkpt>
      <trkpt lat="43.60245" lon="2.97084">
        <ele>1095.4</ele>
        <time>2026-05-07T11:45:34.999Z</time>
      </trkpt>
      <trkpt lat="43.60245" lon="2.97085">
        <ele>1095.4</ele>
        <time>2026-05-07T11:45:35.999Z</time>
      </trkpt>
      <trkpt lat="43.60245" lon="2.97085">
        <ele>1095.5</ele>
        <time>2026-05-07T11:45:36.999Z</time>
      </trkpt>
      <trkpt lat="43.60247" lon="2.97084">
        <ele>1095.4</ele>
        <time>2026-05-07T11:45:37.999Z</time>
      </trkpt>
      <trkpt lat="43.60248" lon="2.97084">
        <ele>1095.3</ele>
        <time>2026-05-07T11:45:38.999Z</time>
      </trkpt>
      <trkpt lat="43.60249" lon="2.97084">
        <ele>1095.2</ele>
        <time>2026-05-07T11:45:39.999Z</time>
      </trkpt>
      <trkpt lat="43.6025" lon="2.97083">
        <ele>1095.5</ele>
        <time>2026-05-07T11:45:40.999Z</time>
      </trkpt>
      <trkpt lat="43.6025" lon="2.97083">
        <ele>1096</ele>
        <time>2026-05-07T11:45:41.999Z</time>
      </trkpt>
      <trkpt lat="43.60251" lon="2.97083">
        <ele>1096.7</ele>
        <time>2026-05-07T11:45:42.999Z</time>
      </trkpt>
      <trkpt lat="43.60251" lon="2.97083">
        <ele>1097.1</ele>
        <time>2026-05-07T11:45:43.999Z</time>
      </trkpt>
      <trkpt lat="43.60253" lon="2.97083">
        <ele>1097</ele>
        <time>2026-05-07T11:45:44.999Z</time>
      </trkpt>
      <trkpt lat="43.60253" lon="2.97083">
        <ele>1097.3</ele>
        <time>2026-05-07T11:45:45.999Z</time>
      </trkpt>
      <trkpt lat="43.60254" lon="2.97082">
        <ele>1097.6</ele>
        <time>2026-05-07T11:45:46.999Z</time>
      </trkpt>
      <trkpt lat="43.60255" lon="2.97082">
        <ele>1097.7</ele>
        <time>2026-05-07T11:45:47.999Z</time>
      </trkpt>
      <trkpt lat="43.60256" lon="2.97082">
        <ele>1097.9</ele>
        <time>2026-05-07T11:45:48.999Z</time>
      </trkpt>
      <trkpt lat="43.60256" lon="2.97082">
        <ele>1098.2</ele>
        <time>2026-05-07T11:45:49.999Z</time>
      </trkpt>
      <trkpt lat="43.60257" lon="2.97083">
        <ele>1098.1</ele>
        <time>2026-05-07T11:45:50.999Z</time>
      </trkpt>
      <trkpt lat="43.60258" lon="2.97082">
        <ele>1098</ele>
        <time>2026-05-07T11:45:51.999Z</time>
      </trkpt>
      <trkpt lat="43.6026" lon="2.97082">
        <ele>1098.2</ele>
        <time>2026-05-07T11:45:52.999Z</time>
      </trkpt>
      <trkpt lat="43.60261" lon="2.97082">
        <ele>1098.2</ele>
        <time>2026-05-07T11:45:53.999Z</time>
      </trkpt>
      <trkpt lat="43.60262" lon="2.97082">
        <ele>1098.2</ele>
        <time>2026-05-07T11:45:54.999Z</time>
      </trkpt>
      <trkpt lat="43.60263" lon="2.97081">
        <ele>1098</ele>
        <time>2026-05-07T11:45:55.999Z</time>
      </trkpt>
      <trkpt lat="43.60264" lon="2.9708">
        <ele>1097.9</ele>
        <time>2026-05-07T11:45:56.999Z</time>
      </trkpt>
      <trkpt lat="43.60265" lon="2.9708">
        <ele>1097.9</ele>
        <time>2026-05-07T11:45:57.999Z</time>
      </trkpt>
      <trkpt lat="43.60266" lon="2.97079">
        <ele>1098.2</ele>
        <time>2026-05-07T11:45:58.999Z</time>
      </trkpt>
      <trkpt lat="43.60266" lon="2.97079">
        <ele>1098.5</ele>
        <time>2026-05-07T11:45:59.999Z</time>
      </trkpt>
      <trkpt lat="43.60267" lon="2.97079">
        <ele>1098.7</ele>
        <time>2026-05-07T11:46:00.999Z</time>
      </trkpt>
      <trkpt lat="43.60268" lon="2.9708">
        <ele>1099</ele>
        <time>2026-05-07T11:46:01.999Z</time>
      </trkpt>
      <trkpt lat="43.60269" lon="2.97081">
        <ele>1099.4</ele>
        <time>2026-05-07T11:46:02.999Z</time>
      </trkpt>
      <trkpt lat="43.6027" lon="2.97081">
        <ele>1099.4</ele>
        <time>2026-05-07T11:46:03.999Z</time>
      </trkpt>
      <trkpt lat="43.60271" lon="2.9708">
        <ele>1099.6</ele>
        <time>2026-05-07T11:46:04.999Z</time>
      </trkpt>
      <trkpt lat="43.60272" lon="2.9708">
        <ele>1099.7</ele>
        <time>2026-05-07T11:46:05.999Z</time>
      </trkpt>
      <trkpt lat="43.60273" lon="2.97079">
        <ele>1099.7</ele>
        <time>2026-05-07T11:46:06.999Z</time>
      </trkpt>
      <trkpt lat="43.60275" lon="2.97079">
        <ele>1099.7</ele>
        <time>2026-05-07T11:46:07.999Z</time>
      </trkpt>
      <trkpt lat="43.60276" lon="2.97078">
        <ele>1099.8</ele>
        <time>2026-05-07T11:46:08.999Z</time>
      </trkpt>
      <trkpt lat="43.60277" lon="2.97077">
        <ele>1099.6</ele>
        <time>2026-05-07T11:46:09.999Z</time>
      </trkpt>
      <trkpt lat="43.60277" lon="2.97077">
        <ele>1099.7</ele>
        <time>2026-05-07T11:46:10.999Z</time>
      </trkpt>
      <trkpt lat="43.60278" lon="2.97076">
        <ele>1100</ele>
        <time>2026-05-07T11:46:11.999Z</time>
      </trkpt>
      <trkpt lat="43.60279" lon="2.97075">
        <ele>1100.2</ele>
        <time>2026-05-07T11:46:12.999Z</time>
      </trkpt>
      <trkpt lat="43.60281" lon="2.97075">
        <ele>1100.5</ele>
        <time>2026-05-07T11:46:13.999Z</time>
      </trkpt>
      <trkpt lat="43.60282" lon="2.97074">
        <ele>1100.7</ele>
        <time>2026-05-07T11:46:14.999Z</time>
      </trkpt>
      <trkpt lat="43.60283" lon="2.97074">
        <ele>1100.7</ele>
        <time>2026-05-07T11:46:15.999Z</time>
      </trkpt>
      <trkpt lat="43.60284" lon="2.97073">
        <ele>1100.8</ele>
        <time>2026-05-07T11:46:16.999Z</time>
      </trkpt>
      <trkpt lat="43.60285" lon="2.97073">
        <ele>1100.9</ele>
        <time>2026-05-07T11:46:17.999Z</time>
      </trkpt>
      <trkpt lat="43.60286" lon="2.97071">
        <ele>1100.9</ele>
        <time>2026-05-07T11:46:18.999Z</time>
      </trkpt>
      <trkpt lat="43.60287" lon="2.97071">
        <ele>1101.1</ele>
        <time>2026-05-07T11:46:19.999Z</time>
      </trkpt>
      <trkpt lat="43.60288" lon="2.9707">
        <ele>1100.9</ele>
        <time>2026-05-07T11:46:20.999Z</time>
      </trkpt>
      <trkpt lat="43.60289" lon="2.97069">
        <ele>1100.8</ele>
        <time>2026-05-07T11:46:21.999Z</time>
      </trkpt>
      <trkpt lat="43.6029" lon="2.97069">
        <ele>1100.9</ele>
        <time>2026-05-07T11:46:22.999Z</time>
      </trkpt>
      <trkpt lat="43.60291" lon="2.97069">
        <ele>1101.1</ele>
        <time>2026-05-07T11:46:23.999Z</time>
      </trkpt>
      <trkpt lat="43.60293" lon="2.97068">
        <ele>1101.4</ele>
        <time>2026-05-07T11:46:24.999Z</time>
      </trkpt>
      <trkpt lat="43.60294" lon="2.97068">
        <ele>1101.4</ele>
        <time>2026-05-07T11:46:26.000Z</time>
      </trkpt>
      <trkpt lat="43.60295" lon="2.97067">
        <ele>1101.3</ele>
        <time>2026-05-07T11:46:27.000Z</time>
      </trkpt>
      <trkpt lat="43.60295" lon="2.97067">
        <ele>1101.3</ele>
        <time>2026-05-07T11:46:28.000Z</time>
      </trkpt>
      <trkpt lat="43.60296" lon="2.97066">
        <ele>1101.2</ele>
        <time>2026-05-07T11:46:29.000Z</time>
      </trkpt>
      <trkpt lat="43.60297" lon="2.97065">
        <ele>1100.9</ele>
        <time>2026-05-07T11:46:30.000Z</time>
      </trkpt>
      <trkpt lat="43.60298" lon="2.97064">
        <ele>1100.8</ele>
        <time>2026-05-07T11:46:31.000Z</time>
      </trkpt>
      <trkpt lat="43.603" lon="2.97063">
        <ele>1100.9</ele>
        <time>2026-05-07T11:46:32.000Z</time>
      </trkpt>
      <trkpt lat="43.60301" lon="2.97063">
        <ele>1100.8</ele>
        <time>2026-05-07T11:46:33.000Z</time>
      </trkpt>
      <trkpt lat="43.60301" lon="2.97062">
        <ele>1100.8</ele>
        <time>2026-05-07T11:46:34.000Z</time>
      </trkpt>
      <trkpt lat="43.60302" lon="2.97062">
        <ele>1101.1</ele>
        <time>2026-05-07T11:46:35.000Z</time>
      </trkpt>
      <trkpt lat="43.60302" lon="2.97062">
        <ele>1101.4</ele>
        <time>2026-05-07T11:46:36.000Z</time>
      </trkpt>
      <trkpt lat="43.60303" lon="2.97061">
        <ele>1101.3</ele>
        <time>2026-05-07T11:46:37.000Z</time>
      </trkpt>
      <trkpt lat="43.60304" lon="2.9706">
        <ele>1101.2</ele>
        <time>2026-05-07T11:46:38.000Z</time>
      </trkpt>
      <trkpt lat="43.60306" lon="2.9706">
        <ele>1101.2</ele>
        <time>2026-05-07T11:46:39.000Z</time>
      </trkpt>
      <trkpt lat="43.60307" lon="2.97059">
        <ele>1101.2</ele>
        <time>2026-05-07T11:46:40.000Z</time>
      </trkpt>
      <trkpt lat="43.60309" lon="2.97058">
        <ele>1101</ele>
        <time>2026-05-07T11:46:41.000Z</time>
      </trkpt>
      <trkpt lat="43.6031" lon="2.97058">
        <ele>1100.7</ele>
        <time>2026-05-07T11:46:42.000Z</time>
      </trkpt>
      <trkpt lat="43.6031" lon="2.97058">
        <ele>1100.6</ele>
        <time>2026-05-07T11:46:43.000Z</time>
      </trkpt>
      <trkpt lat="43.60311" lon="2.97058">
        <ele>1100.7</ele>
        <time>2026-05-07T11:46:44.000Z</time>
      </trkpt>
      <trkpt lat="43.60312" lon="2.97057">
        <ele>1100.8</ele>
        <time>2026-05-07T11:46:45.000Z</time>
      </trkpt>
      <trkpt lat="43.60313" lon="2.97056">
        <ele>1100.7</ele>
        <time>2026-05-07T11:46:46.000Z</time>
      </trkpt>
      <trkpt lat="43.60315" lon="2.97055">
        <ele>1100.5</ele>
        <time>2026-05-07T11:46:47.000Z</time>
      </trkpt>
      <trkpt lat="43.60317" lon="2.97054">
        <ele>1100.4</ele>
        <time>2026-05-07T11:46:48.000Z</time>
      </trkpt>
      <trkpt lat="43.60318" lon="2.97054">
        <ele>1100.5</ele>
        <time>2026-05-07T11:46:49.000Z</time>
      </trkpt>
      <trkpt lat="43.60319" lon="2.97054">
        <ele>1100.4</ele>
        <time>2026-05-07T11:46:50.000Z</time>
      </trkpt>
      <trkpt lat="43.6032" lon="2.97054">
        <ele>1100.5</ele>
        <time>2026-05-07T11:46:51.000Z</time>
      </trkpt>
      <trkpt lat="43.60321" lon="2.97053">
        <ele>1100.9</ele>
        <time>2026-05-07T11:46:52.000Z</time>
      </trkpt>
      <trkpt lat="43.60322" lon="2.97053">
        <ele>1101</ele>
        <time>2026-05-07T11:46:53.000Z</time>
      </trkpt>
      <trkpt lat="43.60324" lon="2.97053">
        <ele>1101.1</ele>
        <time>2026-05-07T11:46:54.000Z</time>
      </trkpt>
      <trkpt lat="43.60325" lon="2.97052">
        <ele>1101.2</ele>
        <time>2026-05-07T11:46:55.000Z</time>
      </trkpt>
      <trkpt lat="43.60327" lon="2.97052">
        <ele>1101.3</ele>
        <time>2026-05-07T11:46:56.000Z</time>
      </trkpt>
      <trkpt lat="43.60328" lon="2.97052">
        <ele>1101.4</ele>
        <time>2026-05-07T11:46:57.000Z</time>
      </trkpt>
      <trkpt lat="43.60329" lon="2.97053">
        <ele>1101.6</ele>
        <time>2026-05-07T11:46:58.000Z</time>
      </trkpt>
      <trkpt lat="43.6033" lon="2.97053">
        <ele>1101.6</ele>
        <time>2026-05-07T11:46:59.000Z</time>
      </trkpt>
      <trkpt lat="43.6033" lon="2.97054">
        <ele>1101.6</ele>
        <time>2026-05-07T11:47:00.000Z</time>
      </trkpt>
      <trkpt lat="43.60331" lon="2.97055">
        <ele>1101.6</ele>
        <time>2026-05-07T11:47:01.000Z</time>
      </trkpt>
      <trkpt lat="43.60333" lon="2.97055">
        <ele>1101.7</ele>
        <time>2026-05-07T11:47:02.000Z</time>
      </trkpt>
      <trkpt lat="43.60334" lon="2.97055">
        <ele>1101.8</ele>
        <time>2026-05-07T11:47:03.000Z</time>
      </trkpt>
      <trkpt lat="43.60335" lon="2.97056">
        <ele>1101.6</ele>
        <time>2026-05-07T11:47:04.000Z</time>
      </trkpt>
      <trkpt lat="43.60336" lon="2.97056">
        <ele>1101.4</ele>
        <time>2026-05-07T11:47:05.000Z</time>
      </trkpt>
      <trkpt lat="43.60337" lon="2.97057">
        <ele>1101.3</ele>
        <time>2026-05-07T11:47:06.000Z</time>
      </trkpt>
      <trkpt lat="43.60338" lon="2.97057">
        <ele>1101.1</ele>
        <time>2026-05-07T11:47:07.000Z</time>
      </trkpt>
      <trkpt lat="43.60339" lon="2.97058">
        <ele>1101.1</ele>
        <time>2026-05-07T11:47:08.000Z</time>
      </trkpt>
      <trkpt lat="43.6034" lon="2.9706">
        <ele>1101.1</ele>
        <time>2026-05-07T11:47:09.000Z</time>
      </trkpt>
      <trkpt lat="43.60342" lon="2.97061">
        <ele>1100.9</ele>
        <time>2026-05-07T11:47:10.000Z</time>
      </trkpt>
      <trkpt lat="43.60343" lon="2.97062">
        <ele>1100.7</ele>
        <time>2026-05-07T11:47:11.000Z</time>
      </trkpt>
      <trkpt lat="43.60345" lon="2.97063">
        <ele>1100.5</ele>
        <time>2026-05-07T11:47:12.000Z</time>
      </trkpt>
      <trkpt lat="43.60345" lon="2.97064">
        <ele>1100.4</ele>
        <time>2026-05-07T11:47:13.000Z</time>
      </trkpt>
      <trkpt lat="43.60346" lon="2.97065">
        <ele>1100.4</ele>
        <time>2026-05-07T11:47:14.000Z</time>
      </trkpt>
      <trkpt lat="43.60346" lon="2.97065">
        <ele>1100.4</ele>
        <time>2026-05-07T11:47:15.000Z</time>
      </trkpt>
      <trkpt lat="43.60347" lon="2.97066">
        <ele>1100.3</ele>
        <time>2026-05-07T11:47:16.000Z</time>
      </trkpt>
      <trkpt lat="43.60348" lon="2.97068">
        <ele>1100.3</ele>
        <time>2026-05-07T11:47:17.000Z</time>
      </trkpt>
      <trkpt lat="43.6035" lon="2.97069">
        <ele>1100.5</ele>
        <time>2026-05-07T11:47:18.000Z</time>
      </trkpt>
      <trkpt lat="43.60352" lon="2.9707">
        <ele>1100.7</ele>
        <time>2026-05-07T11:47:19.000Z</time>
      </trkpt>
      <trkpt lat="43.60353" lon="2.97071">
        <ele>1100.6</ele>
        <time>2026-05-07T11:47:20.000Z</time>
      </trkpt>
      <trkpt lat="43.60354" lon="2.97071">
        <ele>1100.4</ele>
        <time>2026-05-07T11:47:21.000Z</time>
      </trkpt>
      <trkpt lat="43.60354" lon="2.97072">
        <ele>1100.3</ele>
        <time>2026-05-07T11:47:22.000Z</time>
      </trkpt>
      <trkpt lat="43.60355" lon="2.97073">
        <ele>1100</ele>
        <time>2026-05-07T11:47:23.000Z</time>
      </trkpt>
      <trkpt lat="43.60356" lon="2.97074">
        <ele>1099.8</ele>
        <time>2026-05-07T11:47:24.000Z</time>
      </trkpt>
      <trkpt lat="43.60357" lon="2.97074">
        <ele>1099.7</ele>
        <time>2026-05-07T11:47:25.000Z</time>
      </trkpt>
      <trkpt lat="43.60358" lon="2.97075">
        <ele>1099.4</ele>
        <time>2026-05-07T11:47:26.000Z</time>
      </trkpt>
      <trkpt lat="43.60359" lon="2.97076">
        <ele>1099.5</ele>
        <time>2026-05-07T11:47:27.000Z</time>
      </trkpt>
      <trkpt lat="43.60361" lon="2.97077">
        <ele>1099.6</ele>
        <time>2026-05-07T11:47:28.000Z</time>
      </trkpt>
      <trkpt lat="43.60361" lon="2.97078">
        <ele>1099.5</ele>
        <time>2026-05-07T11:47:29.000Z</time>
      </trkpt>
      <trkpt lat="43.60362" lon="2.97079">
        <ele>1099.4</ele>
        <time>2026-05-07T11:47:30.000Z</time>
      </trkpt>
      <trkpt lat="43.60363" lon="2.97081">
        <ele>1099.5</ele>
        <time>2026-05-07T11:47:31.000Z</time>
      </trkpt>
      <trkpt lat="43.60363" lon="2.97082">
        <ele>1099.3</ele>
        <time>2026-05-07T11:47:32.000Z</time>
      </trkpt>
      <trkpt lat="43.60363" lon="2.97084">
        <ele>1099.3</ele>
        <time>2026-05-07T11:47:33.000Z</time>
      </trkpt>
      <trkpt lat="43.60364" lon="2.97085">
        <ele>1099.4</ele>
        <time>2026-05-07T11:47:34.000Z</time>
      </trkpt>
      <trkpt lat="43.60366" lon="2.97086">
        <ele>1099.7</ele>
        <time>2026-05-07T11:47:35.000Z</time>
      </trkpt>
      <trkpt lat="43.60367" lon="2.97087">
        <ele>1099.9</ele>
        <time>2026-05-07T11:47:36.000Z</time>
      </trkpt>
      <trkpt lat="43.60368" lon="2.97087">
        <ele>1100.3</ele>
        <time>2026-05-07T11:47:37.000Z</time>
      </trkpt>
      <trkpt lat="43.60368" lon="2.97089">
        <ele>1100.4</ele>
        <time>2026-05-07T11:47:38.000Z</time>
      </trkpt>
      <trkpt lat="43.60369" lon="2.97089">
        <ele>1100.5</ele>
        <time>2026-05-07T11:47:39.000Z</time>
      </trkpt>
      <trkpt lat="43.6037" lon="2.9709">
        <ele>1100.5</ele>
        <time>2026-05-07T11:47:40.000Z</time>
      </trkpt>
      <trkpt lat="43.60371" lon="2.97092">
        <ele>1100.3</ele>
        <time>2026-05-07T11:47:41.000Z</time>
      </trkpt>
      <trkpt lat="43.60371" lon="2.97093">
        <ele>1100.2</ele>
        <time>2026-05-07T11:47:42.000Z</time>
      </trkpt>
      <trkpt lat="43.60372" lon="2.97094">
        <ele>1100</ele>
        <time>2026-05-07T11:47:43.000Z</time>
      </trkpt>
      <trkpt lat="43.60373" lon="2.97095">
        <ele>1099.8</ele>
        <time>2026-05-07T11:47:44.000Z</time>
      </trkpt>
      <trkpt lat="43.60373" lon="2.97096">
        <ele>1099.5</ele>
        <time>2026-05-07T11:47:45.000Z</time>
      </trkpt>
      <trkpt lat="43.60374" lon="2.97096">
        <ele>1099.3</ele>
        <time>2026-05-07T11:47:46.000Z</time>
      </trkpt>
      <trkpt lat="43.60375" lon="2.97097">
        <ele>1099.4</ele>
        <time>2026-05-07T11:47:47.000Z</time>
      </trkpt>
      <trkpt lat="43.60377" lon="2.97098">
        <ele>1099.4</ele>
        <time>2026-05-07T11:47:48.000Z</time>
      </trkpt>
      <trkpt lat="43.60378" lon="2.97099">
        <ele>1099.2</ele>
        <time>2026-05-07T11:47:49.000Z</time>
      </trkpt>
      <trkpt lat="43.60379" lon="2.971">
        <ele>1099</ele>
        <time>2026-05-07T11:47:50.000Z</time>
      </trkpt>
      <trkpt lat="43.6038" lon="2.97101">
        <ele>1098.9</ele>
        <time>2026-05-07T11:47:51.000Z</time>
      </trkpt>
      <trkpt lat="43.60381" lon="2.97102">
        <ele>1099.4</ele>
        <time>2026-05-07T11:47:52.000Z</time>
      </trkpt>
      <trkpt lat="43.60381" lon="2.97103">
        <ele>1099.7</ele>
        <time>2026-05-07T11:47:53.000Z</time>
      </trkpt>
      <trkpt lat="43.60382" lon="2.97104">
        <ele>1100.3</ele>
        <time>2026-05-07T11:47:54.000Z</time>
      </trkpt>
      <trkpt lat="43.60383" lon="2.97103">
        <ele>1100.4</ele>
        <time>2026-05-07T11:47:55.000Z</time>
      </trkpt>
      <trkpt lat="43.60385" lon="2.97104">
        <ele>1100.4</ele>
        <time>2026-05-07T11:47:56.000Z</time>
      </trkpt>
      <trkpt lat="43.60386" lon="2.97103">
        <ele>1100</ele>
        <time>2026-05-07T11:47:57.000Z</time>
      </trkpt>
      <trkpt lat="43.60387" lon="2.97102">
        <ele>1099.9</ele>
        <time>2026-05-07T11:47:58.000Z</time>
      </trkpt>
      <trkpt lat="43.60388" lon="2.97101">
        <ele>1099.9</ele>
        <time>2026-05-07T11:47:59.000Z</time>
      </trkpt>
      <trkpt lat="43.60388" lon="2.97101">
        <ele>1100</ele>
        <time>2026-05-07T11:48:00.000Z</time>
      </trkpt>
      <trkpt lat="43.6039" lon="2.971">
        <ele>1100.1</ele>
        <time>2026-05-07T11:48:01.000Z</time>
      </trkpt>
      <trkpt lat="43.60392" lon="2.971">
        <ele>1100.3</ele>
        <time>2026-05-07T11:48:02.000Z</time>
      </trkpt>
      <trkpt lat="43.60393" lon="2.971">
        <ele>1100.4</ele>
        <time>2026-05-07T11:48:03.000Z</time>
      </trkpt>
      <trkpt lat="43.60394" lon="2.971">
        <ele>1100.5</ele>
        <time>2026-05-07T11:48:04.000Z</time>
      </trkpt>
      <trkpt lat="43.60395" lon="2.971">
        <ele>1100.5</ele>
        <time>2026-05-07T11:48:05.000Z</time>
      </trkpt>
      <trkpt lat="43.60395" lon="2.971">
        <ele>1100.4</ele>
        <time>2026-05-07T11:48:06.000Z</time>
      </trkpt>
      <trkpt lat="43.60396" lon="2.971">
        <ele>1100.1</ele>
        <time>2026-05-07T11:48:07.000Z</time>
      </trkpt>
      <trkpt lat="43.60397" lon="2.97101">
        <ele>1099.7</ele>
        <time>2026-05-07T11:48:08.000Z</time>
      </trkpt>
      <trkpt lat="43.60399" lon="2.97101">
        <ele>1099.7</ele>
        <time>2026-05-07T11:48:09.000Z</time>
      </trkpt>
      <trkpt lat="43.604" lon="2.97101">
        <ele>1099.5</ele>
        <time>2026-05-07T11:48:10.000Z</time>
      </trkpt>
      <trkpt lat="43.60401" lon="2.97102">
        <ele>1099.5</ele>
        <time>2026-05-07T11:48:11.000Z</time>
      </trkpt>
      <trkpt lat="43.60402" lon="2.97101">
        <ele>1099.3</ele>
        <time>2026-05-07T11:48:12.000Z</time>
      </trkpt>
      <trkpt lat="43.60403" lon="2.97101">
        <ele>1099</ele>
        <time>2026-05-07T11:48:13.000Z</time>
      </trkpt>
      <trkpt lat="43.60404" lon="2.97101">
        <ele>1098.7</ele>
        <time>2026-05-07T11:48:14.000Z</time>
      </trkpt>
      <trkpt lat="43.60405" lon="2.97101">
        <ele>1098.7</ele>
        <time>2026-05-07T11:48:15.000Z</time>
      </trkpt>
      <trkpt lat="43.60406" lon="2.97101">
        <ele>1098.7</ele>
        <time>2026-05-07T11:48:16.000Z</time>
      </trkpt>
      <trkpt lat="43.60407" lon="2.97101">
        <ele>1098.7</ele>
        <time>2026-05-07T11:48:17.000Z</time>
      </trkpt>
      <trkpt lat="43.60408" lon="2.97101">
        <ele>1098.7</ele>
        <time>2026-05-07T11:48:18.000Z</time>
      </trkpt>
      <trkpt lat="43.60409" lon="2.971">
        <ele>1098.9</ele>
        <time>2026-05-07T11:48:19.000Z</time>
      </trkpt>
      <trkpt lat="43.6041" lon="2.971">
        <ele>1099</ele>
        <time>2026-05-07T11:48:20.000Z</time>
      </trkpt>
      <trkpt lat="43.60411" lon="2.97099">
        <ele>1098.8</ele>
        <time>2026-05-07T11:48:21.000Z</time>
      </trkpt>
      <trkpt lat="43.60412" lon="2.97099">
        <ele>1098.4</ele>
        <time>2026-05-07T11:48:22.000Z</time>
      </trkpt>
      <trkpt lat="43.60413" lon="2.97099">
        <ele>1098.1</ele>
        <time>2026-05-07T11:48:23.000Z</time>
      </trkpt>
      <trkpt lat="43.60413" lon="2.97099">
        <ele>1097.7</ele>
        <time>2026-05-07T11:48:24.000Z</time>
      </trkpt>
      <trkpt lat="43.60413" lon="2.971">
        <ele>1097.5</ele>
        <time>2026-05-07T11:48:25.000Z</time>
      </trkpt>
      <trkpt lat="43.60414" lon="2.971">
        <ele>1097.5</ele>
        <time>2026-05-07T11:48:26.000Z</time>
      </trkpt>
      <trkpt lat="43.60415" lon="2.971">
        <ele>1097.4</ele>
        <time>2026-05-07T11:48:27.000Z</time>
      </trkpt>
      <trkpt lat="43.60416" lon="2.971">
        <ele>1097.4</ele>
        <time>2026-05-07T11:48:28.000Z</time>
      </trkpt>
      <trkpt lat="43.60417" lon="2.971">
        <ele>1097.4</ele>
        <time>2026-05-07T11:48:29.000Z</time>
      </trkpt>
      <trkpt lat="43.60418" lon="2.971">
        <ele>1097.2</ele>
        <time>2026-05-07T11:48:30.000Z</time>
      </trkpt>
      <trkpt lat="43.60418" lon="2.97101">
        <ele>1096.7</ele>
        <time>2026-05-07T11:48:31.000Z</time>
      </trkpt>
      <trkpt lat="43.60419" lon="2.97102">
        <ele>1096.5</ele>
        <time>2026-05-07T11:48:32.000Z</time>
      </trkpt>
      <trkpt lat="43.6042" lon="2.97102">
        <ele>1096.3</ele>
        <time>2026-05-07T11:48:33.000Z</time>
      </trkpt>
      <trkpt lat="43.60421" lon="2.97101">
        <ele>1096.2</ele>
        <time>2026-05-07T11:48:34.000Z</time>
      </trkpt>
      <trkpt lat="43.60421" lon="2.971">
        <ele>1095.9</ele>
        <time>2026-05-07T11:48:35.000Z</time>
      </trkpt>
      <trkpt lat="43.60422" lon="2.971">
        <ele>1095.6</ele>
        <time>2026-05-07T11:48:36.000Z</time>
      </trkpt>
      <trkpt lat="43.60423" lon="2.97099">
        <ele>1095.6</ele>
        <time>2026-05-07T11:48:37.000Z</time>
      </trkpt>
      <trkpt lat="43.60424" lon="2.97099">
        <ele>1095.4</ele>
        <time>2026-05-07T11:48:38.000Z</time>
      </trkpt>
      <trkpt lat="43.60425" lon="2.97099">
        <ele>1095.3</ele>
        <time>2026-05-07T11:48:39.000Z</time>
      </trkpt>
      <trkpt lat="43.60426" lon="2.97099">
        <ele>1095.2</ele>
        <time>2026-05-07T11:48:40.000Z</time>
      </trkpt>
      <trkpt lat="43.60427" lon="2.97099">
        <ele>1095.3</ele>
        <time>2026-05-07T11:48:41.000Z</time>
      </trkpt>
      <trkpt lat="43.60428" lon="2.971">
        <ele>1095.4</ele>
        <time>2026-05-07T11:48:42.000Z</time>
      </trkpt>
      <trkpt lat="43.60429" lon="2.97101">
        <ele>1095.2</ele>
        <time>2026-05-07T11:48:43.000Z</time>
      </trkpt>
      <trkpt lat="43.60429" lon="2.97102">
        <ele>1094.8</ele>
        <time>2026-05-07T11:48:44.000Z</time>
      </trkpt>
      <trkpt lat="43.60429" lon="2.97103">
        <ele>1094.4</ele>
        <time>2026-05-07T11:48:45.000Z</time>
      </trkpt>
      <trkpt lat="43.60429" lon="2.97105">
        <ele>1094.3</ele>
        <time>2026-05-07T11:48:46.000Z</time>
      </trkpt>
      <trkpt lat="43.6043" lon="2.97106">
        <ele>1094</ele>
        <time>2026-05-07T11:48:47.000Z</time>
      </trkpt>
      <trkpt lat="43.60431" lon="2.97107">
        <ele>1093.8</ele>
        <time>2026-05-07T11:48:48.000Z</time>
      </trkpt>
      <trkpt lat="43.60432" lon="2.97107">
        <ele>1093.7</ele>
        <time>2026-05-07T11:48:49.000Z</time>
      </trkpt>
      <trkpt lat="43.60433" lon="2.97108">
        <ele>1093.5</ele>
        <time>2026-05-07T11:48:50.000Z</time>
      </trkpt>
      <trkpt lat="43.60435" lon="2.97109">
        <ele>1093.4</ele>
        <time>2026-05-07T11:48:51.000Z</time>
      </trkpt>
      <trkpt lat="43.60436" lon="2.97109">
        <ele>1093.3</ele>
        <time>2026-05-07T11:48:52.000Z</time>
      </trkpt>
      <trkpt lat="43.60437" lon="2.97108">
        <ele>1093.2</ele>
        <time>2026-05-07T11:48:53.000Z</time>
      </trkpt>
      <trkpt lat="43.60437" lon="2.97107">
        <ele>1093.4</ele>
        <time>2026-05-07T11:48:54.000Z</time>
      </trkpt>
      <trkpt lat="43.60438" lon="2.97107">
        <ele>1093.5</ele>
        <time>2026-05-07T11:48:55.000Z</time>
      </trkpt>
      <trkpt lat="43.60439" lon="2.97107">
        <ele>1093.4</ele>
        <time>2026-05-07T11:48:56.000Z</time>
      </trkpt>
      <trkpt lat="43.6044" lon="2.97106">
        <ele>1093</ele>
        <time>2026-05-07T11:48:57.000Z</time>
      </trkpt>
      <trkpt lat="43.60441" lon="2.97106">
        <ele>1093</ele>
        <time>2026-05-07T11:48:58.000Z</time>
      </trkpt>
      <trkpt lat="43.60441" lon="2.97106">
        <ele>1092.9</ele>
        <time>2026-05-07T11:48:59.000Z</time>
      </trkpt>
      <trkpt lat="43.60442" lon="2.97107">
        <ele>1092.8</ele>
        <time>2026-05-07T11:49:00.000Z</time>
      </trkpt>
      <trkpt lat="43.60443" lon="2.97108">
        <ele>1092.6</ele>
        <time>2026-05-07T11:49:01.000Z</time>
      </trkpt>
      <trkpt lat="43.60444" lon="2.97107">
        <ele>1092.5</ele>
        <time>2026-05-07T11:49:02.000Z</time>
      </trkpt>
      <trkpt lat="43.60445" lon="2.97106">
        <ele>1092.6</ele>
        <time>2026-05-07T11:49:03.000Z</time>
      </trkpt>
      <trkpt lat="43.60446" lon="2.97106">
        <ele>1092.3</ele>
        <time>2026-05-07T11:49:04.000Z</time>
      </trkpt>
      <trkpt lat="43.60447" lon="2.97107">
        <ele>1092.1</ele>
        <time>2026-05-07T11:49:05.000Z</time>
      </trkpt>
      <trkpt lat="43.60448" lon="2.97108">
        <ele>1091.8</ele>
        <time>2026-05-07T11:49:06.000Z</time>
      </trkpt>
      <trkpt lat="43.60448" lon="2.97109">
        <ele>1091.5</ele>
        <time>2026-05-07T11:49:07.000Z</time>
      </trkpt>
      <trkpt lat="43.6045" lon="2.9711">
        <ele>1091.7</ele>
        <time>2026-05-07T11:49:08.000Z</time>
      </trkpt>
      <trkpt lat="43.60451" lon="2.9711">
        <ele>1091.7</ele>
        <time>2026-05-07T11:49:09.000Z</time>
      </trkpt>
      <trkpt lat="43.60453" lon="2.9711">
        <ele>1091.4</ele>
        <time>2026-05-07T11:49:10.000Z</time>
      </trkpt>
      <trkpt lat="43.60454" lon="2.9711">
        <ele>1091.5</ele>
        <time>2026-05-07T11:49:11.000Z</time>
      </trkpt>
      <trkpt lat="43.60455" lon="2.97111">
        <ele>1091.3</ele>
        <time>2026-05-07T11:49:12.000Z</time>
      </trkpt>
      <trkpt lat="43.60456" lon="2.97111">
        <ele>1091</ele>
        <time>2026-05-07T11:49:13.000Z</time>
      </trkpt>
      <trkpt lat="43.60457" lon="2.97111">
        <ele>1090.6</ele>
        <time>2026-05-07T11:49:14.000Z</time>
      </trkpt>
      <trkpt lat="43.60458" lon="2.97112">
        <ele>1090.5</ele>
        <time>2026-05-07T11:49:15.000Z</time>
      </trkpt>
      <trkpt lat="43.6046" lon="2.97113">
        <ele>1090.3</ele>
        <time>2026-05-07T11:49:16.000Z</time>
      </trkpt>
      <trkpt lat="43.60461" lon="2.97114">
        <ele>1090.3</ele>
        <time>2026-05-07T11:49:17.000Z</time>
      </trkpt>
      <trkpt lat="43.60463" lon="2.97115">
        <ele>1090.3</ele>
        <time>2026-05-07T11:49:18.000Z</time>
      </trkpt>
      <trkpt lat="43.60463" lon="2.97116">
        <ele>1090.2</ele>
        <time>2026-05-07T11:49:19.000Z</time>
      </trkpt>
      <trkpt lat="43.60464" lon="2.97115">
        <ele>1089.9</ele>
        <time>2026-05-07T11:49:20.000Z</time>
      </trkpt>
      <trkpt lat="43.60465" lon="2.97115">
        <ele>1089.8</ele>
        <time>2026-05-07T11:49:21.000Z</time>
      </trkpt>
      <trkpt lat="43.60466" lon="2.97115">
        <ele>1089.7</ele>
        <time>2026-05-07T11:49:22.000Z</time>
      </trkpt>
      <trkpt lat="43.60468" lon="2.97115">
        <ele>1089.5</ele>
        <time>2026-05-07T11:49:23.000Z</time>
      </trkpt>
      <trkpt lat="43.6047" lon="2.97115">
        <ele>1089.4</ele>
        <time>2026-05-07T11:49:24.000Z</time>
      </trkpt>
      <trkpt lat="43.60471" lon="2.97116">
        <ele>1089.4</ele>
        <time>2026-05-07T11:49:25.000Z</time>
      </trkpt>
      <trkpt lat="43.60472" lon="2.97117">
        <ele>1089.5</ele>
        <time>2026-05-07T11:49:26.000Z</time>
      </trkpt>
      <trkpt lat="43.60473" lon="2.97117">
        <ele>1089.2</ele>
        <time>2026-05-07T11:49:27.000Z</time>
      </trkpt>
      <trkpt lat="43.60473" lon="2.97118">
        <ele>1088.8</ele>
        <time>2026-05-07T11:49:28.000Z</time>
      </trkpt>
      <trkpt lat="43.60474" lon="2.97118">
        <ele>1088.7</ele>
        <time>2026-05-07T11:49:29.000Z</time>
      </trkpt>
      <trkpt lat="43.60475" lon="2.97118">
        <ele>1088.6</ele>
        <time>2026-05-07T11:49:30.000Z</time>
      </trkpt>
      <trkpt lat="43.60477" lon="2.97117">
        <ele>1088.9</ele>
        <time>2026-05-07T11:49:31.000Z</time>
      </trkpt>
      <trkpt lat="43.60479" lon="2.97117">
        <ele>1089.3</ele>
        <time>2026-05-07T11:49:32.000Z</time>
      </trkpt>
      <trkpt lat="43.60481" lon="2.97117">
        <ele>1089.4</ele>
        <time>2026-05-07T11:49:33.000Z</time>
      </trkpt>
      <trkpt lat="43.60481" lon="2.97118">
        <ele>1089.6</ele>
        <time>2026-05-07T11:49:34.000Z</time>
      </trkpt>
      <trkpt lat="43.60482" lon="2.97118">
        <ele>1089.6</ele>
        <time>2026-05-07T11:49:35.000Z</time>
      </trkpt>
      <trkpt lat="43.60483" lon="2.97119">
        <ele>1089.6</ele>
        <time>2026-05-07T11:49:36.000Z</time>
      </trkpt>
      <trkpt lat="43.60484" lon="2.97119">
        <ele>1089.6</ele>
        <time>2026-05-07T11:49:37.000Z</time>
      </trkpt>
      <trkpt lat="43.60485" lon="2.9712">
        <ele>1089.6</ele>
        <time>2026-05-07T11:49:38.000Z</time>
      </trkpt>
      <trkpt lat="43.60486" lon="2.97121">
        <ele>1089.6</ele>
        <time>2026-05-07T11:49:39.000Z</time>
      </trkpt>
      <trkpt lat="43.60487" lon="2.97121">
        <ele>1089.7</ele>
        <time>2026-05-07T11:49:40.000Z</time>
      </trkpt>
      <trkpt lat="43.60488" lon="2.97121">
        <ele>1089.7</ele>
        <time>2026-05-07T11:49:41.000Z</time>
      </trkpt>
      <trkpt lat="43.60489" lon="2.97121">
        <ele>1089.8</ele>
        <time>2026-05-07T11:49:42.000Z</time>
      </trkpt>
      <trkpt lat="43.6049" lon="2.97121">
        <ele>1089.7</ele>
        <time>2026-05-07T11:49:43.000Z</time>
      </trkpt>
      <trkpt lat="43.60492" lon="2.97122">
        <ele>1089.8</ele>
        <time>2026-05-07T11:49:44.000Z</time>
      </trkpt>
      <trkpt lat="43.60494" lon="2.97122">
        <ele>1089.8</ele>
        <time>2026-05-07T11:49:45.000Z</time>
      </trkpt>
      <trkpt lat="43.60495" lon="2.97123">
        <ele>1089.9</ele>
        <time>2026-05-07T11:49:46.000Z</time>
      </trkpt>
      <trkpt lat="43.60497" lon="2.97123">
        <ele>1090</ele>
        <time>2026-05-07T11:49:47.000Z</time>
      </trkpt>
      <trkpt lat="43.60498" lon="2.97123">
        <ele>1090</ele>
        <time>2026-05-07T11:49:48.000Z</time>
      </trkpt>
      <trkpt lat="43.60499" lon="2.97124">
        <ele>1090.1</ele>
        <time>2026-05-07T11:49:49.000Z</time>
      </trkpt>
      <trkpt lat="43.605" lon="2.97125">
        <ele>1090</ele>
        <time>2026-05-07T11:49:50.000Z</time>
      </trkpt>
      <trkpt lat="43.60501" lon="2.97124">
        <ele>1090.2</ele>
        <time>2026-05-07T11:49:51.000Z</time>
      </trkpt>
      <trkpt lat="43.60502" lon="2.97125">
        <ele>1090.1</ele>
        <time>2026-05-07T11:49:52.000Z</time>
      </trkpt>
      <trkpt lat="43.60503" lon="2.97126">
        <ele>1090.2</ele>
        <time>2026-05-07T11:49:53.000Z</time>
      </trkpt>
      <trkpt lat="43.60505" lon="2.97127">
        <ele>1090.3</ele>
        <time>2026-05-07T11:49:54.000Z</time>
      </trkpt>
      <trkpt lat="43.60505" lon="2.97129">
        <ele>1090.1</ele>
        <time>2026-05-07T11:49:55.000Z</time>
      </trkpt>
      <trkpt lat="43.60506" lon="2.97129">
        <ele>1089.7</ele>
        <time>2026-05-07T11:49:56.000Z</time>
      </trkpt>
      <trkpt lat="43.60507" lon="2.97129">
        <ele>1089.3</ele>
        <time>2026-05-07T11:49:57.000Z</time>
      </trkpt>
      <trkpt lat="43.60507" lon="2.9713">
        <ele>1089.3</ele>
        <time>2026-05-07T11:49:58.000Z</time>
      </trkpt>
      <trkpt lat="43.60508" lon="2.97131">
        <ele>1089.2</ele>
        <time>2026-05-07T11:49:59.000Z</time>
      </trkpt>
      <trkpt lat="43.6051" lon="2.97132">
        <ele>1089.4</ele>
        <time>2026-05-07T11:50:00.000Z</time>
      </trkpt>
      <trkpt lat="43.60511" lon="2.97132">
        <ele>1089.6</ele>
        <time>2026-05-07T11:50:01.000Z</time>
      </trkpt>
      <trkpt lat="43.60512" lon="2.97132">
        <ele>1089.3</ele>
        <time>2026-05-07T11:50:02.000Z</time>
      </trkpt>
      <trkpt lat="43.60513" lon="2.97132">
        <ele>1088.9</ele>
        <time>2026-05-07T11:50:03.000Z</time>
      </trkpt>
      <trkpt lat="43.60513" lon="2.97132">
        <ele>1088.7</ele>
        <time>2026-05-07T11:50:04.000Z</time>
      </trkpt>
      <trkpt lat="43.60514" lon="2.97134">
        <ele>1088.5</ele>
        <time>2026-05-07T11:50:05.000Z</time>
      </trkpt>
      <trkpt lat="43.60515" lon="2.97134">
        <ele>1088.1</ele>
        <time>2026-05-07T11:50:06.000Z</time>
      </trkpt>
      <trkpt lat="43.60515" lon="2.97135">
        <ele>1088.1</ele>
        <time>2026-05-07T11:50:07.000Z</time>
      </trkpt>
      <trkpt lat="43.60516" lon="2.97135">
        <ele>1088.1</ele>
        <time>2026-05-07T11:50:08.000Z</time>
      </trkpt>
      <trkpt lat="43.60516" lon="2.97136">
        <ele>1088.1</ele>
        <time>2026-05-07T11:50:09.000Z</time>
      </trkpt>
      <trkpt lat="43.60518" lon="2.97137">
        <ele>1088.2</ele>
        <time>2026-05-07T11:50:10.000Z</time>
      </trkpt>
      <trkpt lat="43.60519" lon="2.97137">
        <ele>1088.1</ele>
        <time>2026-05-07T11:50:11.000Z</time>
      </trkpt>
      <trkpt lat="43.6052" lon="2.97137">
        <ele>1088.1</ele>
        <time>2026-05-07T11:50:12.000Z</time>
      </trkpt>
      <trkpt lat="43.60522" lon="2.97137">
        <ele>1088.3</ele>
        <time>2026-05-07T11:50:13.000Z</time>
      </trkpt>
      <trkpt lat="43.60522" lon="2.97138">
        <ele>1088.2</ele>
        <time>2026-05-07T11:50:14.000Z</time>
      </trkpt>
      <trkpt lat="43.60521" lon="2.9714">
        <ele>1088.2</ele>
        <time>2026-05-07T11:50:15.000Z</time>
      </trkpt>
      <trkpt lat="43.60521" lon="2.97141">
        <ele>1088.5</ele>
        <time>2026-05-07T11:50:16.000Z</time>
      </trkpt>
      <trkpt lat="43.60521" lon="2.97142">
        <ele>1088.5</ele>
        <time>2026-05-07T11:50:17.000Z</time>
      </trkpt>
      <trkpt lat="43.60521" lon="2.97143">
        <ele>1088.3</ele>
        <time>2026-05-07T11:50:18.000Z</time>
      </trkpt>
      <trkpt lat="43.60521" lon="2.97144">
        <ele>1088.1</ele>
        <time>2026-05-07T11:50:19.000Z</time>
      </trkpt>
      <trkpt lat="43.60521" lon="2.97146">
        <ele>1087.9</ele>
        <time>2026-05-07T11:50:20.000Z</time>
      </trkpt>
      <trkpt lat="43.60521" lon="2.97146">
        <ele>1087.9</ele>
        <time>2026-05-07T11:50:21.000Z</time>
      </trkpt>
      <trkpt lat="43.60522" lon="2.97147">
        <ele>1087.6</ele>
        <time>2026-05-07T11:50:22.000Z</time>
      </trkpt>
      <trkpt lat="43.60523" lon="2.97148">
        <ele>1087.3</ele>
        <time>2026-05-07T11:50:23.000Z</time>
      </trkpt>
      <trkpt lat="43.60524" lon="2.97148">
        <ele>1087</ele>
        <time>2026-05-07T11:50:24.000Z</time>
      </trkpt>
      <trkpt lat="43.60524" lon="2.97149">
        <ele>1086.7</ele>
        <time>2026-05-07T11:50:25.000Z</time>
      </trkpt>
      <trkpt lat="43.60524" lon="2.9715">
        <ele>1086.6</ele>
        <time>2026-05-07T11:50:26.000Z</time>
      </trkpt>
      <trkpt lat="43.60525" lon="2.9715">
        <ele>1086.5</ele>
        <time>2026-05-07T11:50:27.000Z</time>
      </trkpt>
      <trkpt lat="43.60526" lon="2.97151">
        <ele>1086.4</ele>
        <time>2026-05-07T11:50:28.000Z</time>
      </trkpt>
      <trkpt lat="43.60526" lon="2.97152">
        <ele>1086.7</ele>
        <time>2026-05-07T11:50:29.000Z</time>
      </trkpt>
      <trkpt lat="43.60527" lon="2.97152">
        <ele>1086.9</ele>
        <time>2026-05-07T11:50:30.000Z</time>
      </trkpt>
      <trkpt lat="43.60528" lon="2.97152">
        <ele>1087</ele>
        <time>2026-05-07T11:50:31.000Z</time>
      </trkpt>
      <trkpt lat="43.6053" lon="2.97153">
        <ele>1086.8</ele>
        <time>2026-05-07T11:50:32.000Z</time>
      </trkpt>
      <trkpt lat="43.60531" lon="2.97153">
        <ele>1086.8</ele>
        <time>2026-05-07T11:50:33.000Z</time>
      </trkpt>
      <trkpt lat="43.60532" lon="2.97153">
        <ele>1086.6</ele>
        <time>2026-05-07T11:50:34.000Z</time>
      </trkpt>
      <trkpt lat="43.60533" lon="2.97152">
        <ele>1086.3</ele>
        <time>2026-05-07T11:50:35.000Z</time>
      </trkpt>
      <trkpt lat="43.60533" lon="2.97152">
        <ele>1086</ele>
        <time>2026-05-07T11:50:36.000Z</time>
      </trkpt>
      <trkpt lat="43.60534" lon="2.97153">
        <ele>1086</ele>
        <time>2026-05-07T11:50:37.000Z</time>
      </trkpt>
      <trkpt lat="43.60534" lon="2.97153">
        <ele>1086.2</ele>
        <time>2026-05-07T11:50:38.000Z</time>
      </trkpt>
      <trkpt lat="43.60535" lon="2.97153">
        <ele>1086.4</ele>
        <time>2026-05-07T11:50:39.000Z</time>
      </trkpt>
      <trkpt lat="43.60535" lon="2.97153">
        <ele>1086.3</ele>
        <time>2026-05-07T11:50:40.000Z</time>
      </trkpt>
      <trkpt lat="43.60536" lon="2.97152">
        <ele>1085.7</ele>
        <time>2026-05-07T11:50:41.000Z</time>
      </trkpt>
      <trkpt lat="43.60536" lon="2.97152">
        <ele>1085.2</ele>
        <time>2026-05-07T11:50:42.000Z</time>
      </trkpt>
      <trkpt lat="43.60537" lon="2.97152">
        <ele>1085</ele>
        <time>2026-05-07T11:50:43.000Z</time>
      </trkpt>
      <trkpt lat="43.60538" lon="2.97152">
        <ele>1085.1</ele>
        <time>2026-05-07T11:50:44.000Z</time>
      </trkpt>
      <trkpt lat="43.60539" lon="2.97152">
        <ele>1085.1</ele>
        <time>2026-05-07T11:50:45.000Z</time>
      </trkpt>
      <trkpt lat="43.60539" lon="2.97152">
        <ele>1085.2</ele>
        <time>2026-05-07T11:50:46.000Z</time>
      </trkpt>
      <trkpt lat="43.6054" lon="2.97152">
        <ele>1085</ele>
        <time>2026-05-07T11:50:47.000Z</time>
      </trkpt>
      <trkpt lat="43.60541" lon="2.97152">
        <ele>1084.8</ele>
        <time>2026-05-07T11:50:48.000Z</time>
      </trkpt>
      <trkpt lat="43.60541" lon="2.97152">
        <ele>1084.7</ele>
        <time>2026-05-07T11:50:49.000Z</time>
      </trkpt>
      <trkpt lat="43.60543" lon="2.97152">
        <ele>1084.1</ele>
        <time>2026-05-07T11:50:50.000Z</time>
      </trkpt>
      <trkpt lat="43.60544" lon="2.97151">
        <ele>1084.2</ele>
        <time>2026-05-07T11:50:51.000Z</time>
      </trkpt>
      <trkpt lat="43.60545" lon="2.9715">
        <ele>1084.4</ele>
        <time>2026-05-07T11:50:52.000Z</time>
      </trkpt>
      <trkpt lat="43.60546" lon="2.9715">
        <ele>1084.7</ele>
        <time>2026-05-07T11:50:53.000Z</time>
      </trkpt>
      <trkpt lat="43.60547" lon="2.97149">
        <ele>1084.6</ele>
        <time>2026-05-07T11:50:54.000Z</time>
      </trkpt>
      <trkpt lat="43.60547" lon="2.97149">
        <ele>1084.7</ele>
        <time>2026-05-07T11:50:55.000Z</time>
      </trkpt>
      <trkpt lat="43.60548" lon="2.97148">
        <ele>1085</ele>
        <time>2026-05-07T11:50:56.000Z</time>
      </trkpt>
      <trkpt lat="43.60549" lon="2.97147">
        <ele>1084.8</ele>
        <time>2026-05-07T11:50:57.000Z</time>
      </trkpt>
      <trkpt lat="43.6055" lon="2.97147">
        <ele>1084.4</ele>
        <time>2026-05-07T11:50:58.000Z</time>
      </trkpt>
      <trkpt lat="43.60551" lon="2.97147">
        <ele>1084.1</ele>
        <time>2026-05-07T11:50:59.000Z</time>
      </trkpt>
      <trkpt lat="43.60551" lon="2.97146">
        <ele>1083.8</ele>
        <time>2026-05-07T11:51:00.000Z</time>
      </trkpt>
      <trkpt lat="43.60552" lon="2.97145">
        <ele>1083.6</ele>
        <time>2026-05-07T11:51:01.000Z</time>
      </trkpt>
      <trkpt lat="43.60553" lon="2.97145">
        <ele>1083.6</ele>
        <time>2026-05-07T11:51:02.000Z</time>
      </trkpt>
      <trkpt lat="43.60553" lon="2.97144">
        <ele>1083.6</ele>
        <time>2026-05-07T11:51:03.000Z</time>
      </trkpt>
      <trkpt lat="43.60554" lon="2.97144">
        <ele>1083.5</ele>
        <time>2026-05-07T11:51:04.000Z</time>
      </trkpt>
      <trkpt lat="43.60554" lon="2.97143">
        <ele>1083.4</ele>
        <time>2026-05-07T11:51:05.000Z</time>
      </trkpt>
      <trkpt lat="43.60554" lon="2.97143">
        <ele>1083.2</ele>
        <time>2026-05-07T11:51:06.000Z</time>
      </trkpt>
      <trkpt lat="43.60555" lon="2.97142">
        <ele>1083.2</ele>
        <time>2026-05-07T11:51:07.000Z</time>
      </trkpt>
      <trkpt lat="43.60555" lon="2.97142">
        <ele>1083</ele>
        <time>2026-05-07T11:51:08.000Z</time>
      </trkpt>
      <trkpt lat="43.60556" lon="2.97141">
        <ele>1082.8</ele>
        <time>2026-05-07T11:51:09.000Z</time>
      </trkpt>
      <trkpt lat="43.60557" lon="2.97139">
        <ele>1082.4</ele>
        <time>2026-05-07T11:51:10.000Z</time>
      </trkpt>
      <trkpt lat="43.60557" lon="2.97138">
        <ele>1082.1</ele>
        <time>2026-05-07T11:51:11.000Z</time>
      </trkpt>
      <trkpt lat="43.60557" lon="2.97137">
        <ele>1082</ele>
        <time>2026-05-07T11:51:12.000Z</time>
      </trkpt>
      <trkpt lat="43.60557" lon="2.97136">
        <ele>1081.5</ele>
        <time>2026-05-07T11:51:13.000Z</time>
      </trkpt>
      <trkpt lat="43.60557" lon="2.97136">
        <ele>1081.3</ele>
        <time>2026-05-07T11:51:14.000Z</time>
      </trkpt>
      <trkpt lat="43.60558" lon="2.97135">
        <ele>1081.3</ele>
        <time>2026-05-07T11:51:15.000Z</time>
      </trkpt>
      <trkpt lat="43.60558" lon="2.97135">
        <ele>1081</ele>
        <time>2026-05-07T11:51:16.000Z</time>
      </trkpt>
      <trkpt lat="43.60559" lon="2.97134">
        <ele>1080.6</ele>
        <time>2026-05-07T11:51:17.000Z</time>
      </trkpt>
      <trkpt lat="43.60559" lon="2.97133">
        <ele>1080.2</ele>
        <time>2026-05-07T11:51:18.000Z</time>
      </trkpt>
      <trkpt lat="43.6056" lon="2.97132">
        <ele>1080</ele>
        <time>2026-05-07T11:51:19.000Z</time>
      </trkpt>
      <trkpt lat="43.60559" lon="2.97131">
        <ele>1079.5</ele>
        <time>2026-05-07T11:51:20.000Z</time>
      </trkpt>
      <trkpt lat="43.60559" lon="2.97131">
        <ele>1079.1</ele>
        <time>2026-05-07T11:51:21.000Z</time>
      </trkpt>
      <trkpt lat="43.60559" lon="2.9713">
        <ele>1078.6</ele>
        <time>2026-05-07T11:51:22.000Z</time>
      </trkpt>
      <trkpt lat="43.6056" lon="2.9713">
        <ele>1078.3</ele>
        <time>2026-05-07T11:51:23.000Z</time>
      </trkpt>
      <trkpt lat="43.6056" lon="2.9713">
        <ele>1077.9</ele>
        <time>2026-05-07T11:51:24.000Z</time>
      </trkpt>
      <trkpt lat="43.60561" lon="2.9713">
        <ele>1077.7</ele>
        <time>2026-05-07T11:51:25.000Z</time>
      </trkpt>
      <trkpt lat="43.60562" lon="2.9713">
        <ele>1077.6</ele>
        <time>2026-05-07T11:51:26.000Z</time>
      </trkpt>
      <trkpt lat="43.60563" lon="2.97131">
        <ele>1077.1</ele>
        <time>2026-05-07T11:51:27.000Z</time>
      </trkpt>
      <trkpt lat="43.60564" lon="2.97131">
        <ele>1077</ele>
        <time>2026-05-07T11:51:28.000Z</time>
      </trkpt>
      <trkpt lat="43.60564" lon="2.97131">
        <ele>1077</ele>
        <time>2026-05-07T11:51:29.000Z</time>
      </trkpt>
      <trkpt lat="43.60565" lon="2.9713">
        <ele>1076.8</ele>
        <time>2026-05-07T11:51:30.000Z</time>
      </trkpt>
      <trkpt lat="43.60565" lon="2.97128">
        <ele>1076.8</ele>
        <time>2026-05-07T11:51:31.000Z</time>
      </trkpt>
      <trkpt lat="43.60565" lon="2.97127">
        <ele>1076.8</ele>
        <time>2026-05-07T11:51:32.000Z</time>
      </trkpt>
      <trkpt lat="43.60566" lon="2.97126">
        <ele>1076.8</ele>
        <time>2026-05-07T11:51:33.000Z</time>
      </trkpt>
      <trkpt lat="43.60567" lon="2.97126">
        <ele>1076.5</ele>
        <time>2026-05-07T11:51:34.000Z</time>
      </trkpt>
      <trkpt lat="43.60568" lon="2.97128">
        <ele>1076.5</ele>
        <time>2026-05-07T11:51:35.000Z</time>
      </trkpt>
      <trkpt lat="43.60568" lon="2.97128">
        <ele>1076.4</ele>
        <time>2026-05-07T11:51:36.000Z</time>
      </trkpt>
      <trkpt lat="43.60569" lon="2.97129">
        <ele>1076.1</ele>
        <time>2026-05-07T11:51:37.000Z</time>
      </trkpt>
      <trkpt lat="43.6057" lon="2.97129">
        <ele>1076.1</ele>
        <time>2026-05-07T11:51:38.000Z</time>
      </trkpt>
      <trkpt lat="43.6057" lon="2.97129">
        <ele>1076.1</ele>
        <time>2026-05-07T11:51:39.000Z</time>
      </trkpt>
      <trkpt lat="43.6057" lon="2.97129">
        <ele>1075.7</ele>
        <time>2026-05-07T11:51:40.000Z</time>
      </trkpt>
      <trkpt lat="43.6057" lon="2.97129">
        <ele>1075.7</ele>
        <time>2026-05-07T11:51:41.000Z</time>
      </trkpt>
      <trkpt lat="43.6057" lon="2.97129">
        <ele>1075.8</ele>
        <time>2026-05-07T11:51:42.000Z</time>
      </trkpt>
      <trkpt lat="43.60571" lon="2.97128">
        <ele>1075.8</ele>
        <time>2026-05-07T11:51:43.000Z</time>
      </trkpt>
      <trkpt lat="43.60572" lon="2.97127">
        <ele>1076.1</ele>
        <time>2026-05-07T11:51:44.000Z</time>
      </trkpt>
      <trkpt lat="43.60572" lon="2.97127">
        <ele>1075.9</ele>
        <time>2026-05-07T11:51:45.000Z</time>
      </trkpt>
      <trkpt lat="43.60572" lon="2.97125">
        <ele>1075.5</ele>
        <time>2026-05-07T11:51:46.000Z</time>
      </trkpt>
      <trkpt lat="43.60573" lon="2.97124">
        <ele>1075.4</ele>
        <time>2026-05-07T11:51:47.000Z</time>
      </trkpt>
      <trkpt lat="43.60574" lon="2.97123">
        <ele>1075.3</ele>
        <time>2026-05-07T11:51:48.000Z</time>
      </trkpt>
      <trkpt lat="43.60574" lon="2.97122">
        <ele>1074.8</ele>
        <time>2026-05-07T11:51:49.000Z</time>
      </trkpt>
      <trkpt lat="43.60575" lon="2.97123">
        <ele>1074.3</ele>
        <time>2026-05-07T11:51:50.000Z</time>
      </trkpt>
      <trkpt lat="43.60575" lon="2.97123">
        <ele>1074.2</ele>
        <time>2026-05-07T11:51:51.000Z</time>
      </trkpt>
      <trkpt lat="43.60576" lon="2.97124">
        <ele>1074.2</ele>
        <time>2026-05-07T11:51:52.000Z</time>
      </trkpt>
      <trkpt lat="43.60577" lon="2.97124">
        <ele>1074.1</ele>
        <time>2026-05-07T11:51:53.000Z</time>
      </trkpt>
      <trkpt lat="43.60578" lon="2.97124">
        <ele>1073.6</ele>
        <time>2026-05-07T11:51:54.000Z</time>
      </trkpt>
      <trkpt lat="43.60579" lon="2.97125">
        <ele>1073.6</ele>
        <time>2026-05-07T11:51:55.000Z</time>
      </trkpt>
      <trkpt lat="43.60579" lon="2.97125">
        <ele>1073.4</ele>
        <time>2026-05-07T11:51:56.000Z</time>
      </trkpt>
      <trkpt lat="43.6058" lon="2.97124">
        <ele>1073.4</ele>
        <time>2026-05-07T11:51:57.000Z</time>
      </trkpt>
      <trkpt lat="43.60581" lon="2.97125">
        <ele>1073.4</ele>
        <time>2026-05-07T11:51:58.000Z</time>
      </trkpt>
      <trkpt lat="43.60582" lon="2.97125">
        <ele>1073.2</ele>
        <time>2026-05-07T11:51:59.000Z</time>
      </trkpt>
      <trkpt lat="43.60582" lon="2.97125">
        <ele>1072.8</ele>
        <time>2026-05-07T11:52:00.000Z</time>
      </trkpt>
      <trkpt lat="43.60582" lon="2.97125">
        <ele>1072</ele>
        <time>2026-05-07T11:52:01.000Z</time>
      </trkpt>
      <trkpt lat="43.60582" lon="2.97125">
        <ele>1071.6</ele>
        <time>2026-05-07T11:52:02.000Z</time>
      </trkpt>
      <trkpt lat="43.60582" lon="2.97126">
        <ele>1071.3</ele>
        <time>2026-05-07T11:52:03.000Z</time>
      </trkpt>
      <trkpt lat="43.60582" lon="2.97126">
        <ele>1071.1</ele>
        <time>2026-05-07T11:52:04.000Z</time>
      </trkpt>
      <trkpt lat="43.60582" lon="2.97127">
        <ele>1070.8</ele>
        <time>2026-05-07T11:52:05.000Z</time>
      </trkpt>
      <trkpt lat="43.60582" lon="2.97127">
        <ele>1070.5</ele>
        <time>2026-05-07T11:52:06.000Z</time>
      </trkpt>
      <trkpt lat="43.60582" lon="2.97127">
        <ele>1070.1</ele>
        <time>2026-05-07T11:52:07.000Z</time>
      </trkpt>
      <trkpt lat="43.60582" lon="2.97127">
        <ele>1069.8</ele>
        <time>2026-05-07T11:52:08.000Z</time>
      </trkpt>
      <trkpt lat="43.60582" lon="2.97127">
        <ele>1070</ele>
        <time>2026-05-07T11:52:09.000Z</time>
      </trkpt>
      <trkpt lat="43.60582" lon="2.97127">
        <ele>1070.3</ele>
        <time>2026-05-07T11:52:10.000Z</time>
      </trkpt>
      <trkpt lat="43.60582" lon="2.97128">
        <ele>1070.4</ele>
        <time>2026-05-07T11:52:11.000Z</time>
      </trkpt>
      <trkpt lat="43.60582" lon="2.97128">
        <ele>1070.2</ele>
        <time>2026-05-07T11:52:12.000Z</time>
      </trkpt>
      <trkpt lat="43.60584" lon="2.97129">
        <ele>1070.3</ele>
        <time>2026-05-07T11:52:13.000Z</time>
      </trkpt>
      <trkpt lat="43.60585" lon="2.97129">
        <ele>1070.3</ele>
        <time>2026-05-07T11:52:14.000Z</time>
      </trkpt>
      <trkpt lat="43.60586" lon="2.97128">
        <ele>1070.1</ele>
        <time>2026-05-07T11:52:15.000Z</time>
      </trkpt>
      <trkpt lat="43.60587" lon="2.97127">
        <ele>1069.9</ele>
        <time>2026-05-07T11:52:16.000Z</time>
      </trkpt>
      <trkpt lat="43.60588" lon="2.97127">
        <ele>1070.1</ele>
        <time>2026-05-07T11:52:17.000Z</time>
      </trkpt>
      <trkpt lat="43.6059" lon="2.97127">
        <ele>1069.9</ele>
        <time>2026-05-07T11:52:18.000Z</time>
      </trkpt>
      <trkpt lat="43.60591" lon="2.97127">
        <ele>1069.9</ele>
        <time>2026-05-07T11:52:19.000Z</time>
      </trkpt>
      <trkpt lat="43.60592" lon="2.97127">
        <ele>1069.9</ele>
        <time>2026-05-07T11:52:20.000Z</time>
      </trkpt>
      <trkpt lat="43.60593" lon="2.97126">
        <ele>1069.7</ele>
        <time>2026-05-07T11:52:21.000Z</time>
      </trkpt>
      <trkpt lat="43.60593" lon="2.97125">
        <ele>1069.6</ele>
        <time>2026-05-07T11:52:22.000Z</time>
      </trkpt>
      <trkpt lat="43.60594" lon="2.97124">
        <ele>1069.5</ele>
        <time>2026-05-07T11:52:23.000Z</time>
      </trkpt>
      <trkpt lat="43.60594" lon="2.97124">
        <ele>1069.5</ele>
        <time>2026-05-07T11:52:24.000Z</time>
      </trkpt>
      <trkpt lat="43.60595" lon="2.97123">
        <ele>1069.5</ele>
        <time>2026-05-07T11:52:25.000Z</time>
      </trkpt>
      <trkpt lat="43.60596" lon="2.97123">
        <ele>1069.3</ele>
        <time>2026-05-07T11:52:26.000Z</time>
      </trkpt>
      <trkpt lat="43.60596" lon="2.97123">
        <ele>1068.9</ele>
        <time>2026-05-07T11:52:27.000Z</time>
      </trkpt>
      <trkpt lat="43.60596" lon="2.97123">
        <ele>1068.4</ele>
        <time>2026-05-07T11:52:28.000Z</time>
      </trkpt>
      <trkpt lat="43.60597" lon="2.97123">
        <ele>1068</ele>
        <time>2026-05-07T11:52:29.000Z</time>
      </trkpt>
      <trkpt lat="43.60598" lon="2.97122">
        <ele>1067.8</ele>
        <time>2026-05-07T11:52:30.000Z</time>
      </trkpt>
      <trkpt lat="43.60597" lon="2.9712">
        <ele>1067.8</ele>
        <time>2026-05-07T11:52:31.000Z</time>
      </trkpt>
      <trkpt lat="43.60597" lon="2.97119">
        <ele>1068.1</ele>
        <time>2026-05-07T11:52:32.000Z</time>
      </trkpt>
      <trkpt lat="43.60597" lon="2.97118">
        <ele>1068.1</ele>
        <time>2026-05-07T11:52:33.000Z</time>
      </trkpt>
      <trkpt lat="43.60597" lon="2.97117">
        <ele>1068.5</ele>
        <time>2026-05-07T11:52:34.000Z</time>
      </trkpt>
      <trkpt lat="43.60597" lon="2.97115">
        <ele>1068.5</ele>
        <time>2026-05-07T11:52:35.000Z</time>
      </trkpt>
      <trkpt lat="43.60598" lon="2.97115">
        <ele>1068.4</ele>
        <time>2026-05-07T11:52:36.000Z</time>
      </trkpt>
      <trkpt lat="43.60598" lon="2.97114">
        <ele>1068.5</ele>
        <time>2026-05-07T11:52:37.000Z</time>
      </trkpt>
      <trkpt lat="43.60599" lon="2.97113">
        <ele>1068.6</ele>
        <time>2026-05-07T11:52:38.000Z</time>
      </trkpt>
      <trkpt lat="43.60599" lon="2.97112">
        <ele>1068.6</ele>
        <time>2026-05-07T11:52:39.000Z</time>
      </trkpt>
      <trkpt lat="43.60598" lon="2.97111">
        <ele>1068.7</ele>
        <time>2026-05-07T11:52:40.000Z</time>
      </trkpt>
      <trkpt lat="43.60597" lon="2.9711">
        <ele>1068.8</ele>
        <time>2026-05-07T11:52:41.000Z</time>
      </trkpt>
      <trkpt lat="43.60596" lon="2.9711">
        <ele>1069.1</ele>
        <time>2026-05-07T11:52:42.000Z</time>
      </trkpt>
      <trkpt lat="43.60596" lon="2.9711">
        <ele>1069.2</ele>
        <time>2026-05-07T11:52:43.000Z</time>
      </trkpt>
      <trkpt lat="43.60596" lon="2.97109">
        <ele>1069.2</ele>
        <time>2026-05-07T11:52:44.000Z</time>
      </trkpt>
      <trkpt lat="43.60597" lon="2.97108">
        <ele>1068.9</ele>
        <time>2026-05-07T11:52:45.000Z</time>
      </trkpt>
      <trkpt lat="43.60597" lon="2.97107">
        <ele>1068.7</ele>
        <time>2026-05-07T11:52:46.000Z</time>
      </trkpt>
      <trkpt lat="43.60598" lon="2.97107">
        <ele>1068.5</ele>
        <time>2026-05-07T11:52:47.000Z</time>
      </trkpt>
      <trkpt lat="43.60599" lon="2.97107">
        <ele>1068.5</ele>
        <time>2026-05-07T11:52:48.000Z</time>
      </trkpt>
      <trkpt lat="43.60599" lon="2.97107">
        <ele>1067.7</ele>
        <time>2026-05-07T11:52:49.000Z</time>
      </trkpt>
      <trkpt lat="43.606" lon="2.97107">
        <ele>1066.9</ele>
        <time>2026-05-07T11:52:50.000Z</time>
      </trkpt>
      <trkpt lat="43.606" lon="2.97107">
        <ele>1066.2</ele>
        <time>2026-05-07T11:52:51.000Z</time>
      </trkpt>
      <trkpt lat="43.606" lon="2.97106">
        <ele>1065.7</ele>
        <time>2026-05-07T11:52:52.000Z</time>
      </trkpt>
      <trkpt lat="43.60601" lon="2.97105">
        <ele>1065.2</ele>
        <time>2026-05-07T11:52:53.000Z</time>
      </trkpt>
      <trkpt lat="43.60601" lon="2.97104">
        <ele>1065.2</ele>
        <time>2026-05-07T11:52:54.000Z</time>
      </trkpt>
      <trkpt lat="43.60601" lon="2.97104">
        <ele>1065.1</ele>
        <time>2026-05-07T11:52:55.000Z</time>
      </trkpt>
      <trkpt lat="43.60602" lon="2.97104">
        <ele>1064.8</ele>
        <time>2026-05-07T11:52:56.000Z</time>
      </trkpt>
      <trkpt lat="43.60602" lon="2.97104">
        <ele>1064.5</ele>
        <time>2026-05-07T11:52:57.000Z</time>
      </trkpt>
      <trkpt lat="43.60602" lon="2.97103">
        <ele>1064</ele>
        <time>2026-05-07T11:52:58.000Z</time>
      </trkpt>
      <trkpt lat="43.60602" lon="2.97103">
        <ele>1063.3</ele>
        <time>2026-05-07T11:52:59.000Z</time>
      </trkpt>
      <trkpt lat="43.60602" lon="2.97103">
        <ele>1062.9</ele>
        <time>2026-05-07T11:53:00.000Z</time>
      </trkpt>
      <trkpt lat="43.60603" lon="2.97103">
        <ele>1062.6</ele>
        <time>2026-05-07T11:53:01.000Z</time>
      </trkpt>
      <trkpt lat="43.60603" lon="2.97103">
        <ele>1062.4</ele>
        <time>2026-05-07T11:53:02.000Z</time>
      </trkpt>
      <trkpt lat="43.60604" lon="2.97103">
        <ele>1062.6</ele>
        <time>2026-05-07T11:53:03.000Z</time>
      </trkpt>
      <trkpt lat="43.60605" lon="2.97103">
        <ele>1062.5</ele>
        <time>2026-05-07T11:53:04.000Z</time>
      </trkpt>
      <trkpt lat="43.60605" lon="2.97101">
        <ele>1062</ele>
        <time>2026-05-07T11:53:05.000Z</time>
      </trkpt>
      <trkpt lat="43.60605" lon="2.97101">
        <ele>1061.9</ele>
        <time>2026-05-07T11:53:06.000Z</time>
      </trkpt>
      <trkpt lat="43.60605" lon="2.971">
        <ele>1061.8</ele>
        <time>2026-05-07T11:53:07.000Z</time>
      </trkpt>
      <trkpt lat="43.60605" lon="2.97099">
        <ele>1061.5</ele>
        <time>2026-05-07T11:53:08.000Z</time>
      </trkpt>
      <trkpt lat="43.60605" lon="2.97099">
        <ele>1061.6</ele>
        <time>2026-05-07T11:53:09.000Z</time>
      </trkpt>
      <trkpt lat="43.60606" lon="2.97098">
        <ele>1061.5</ele>
        <time>2026-05-07T11:53:10.000Z</time>
      </trkpt>
      <trkpt lat="43.60606" lon="2.97097">
        <ele>1061.6</ele>
        <time>2026-05-07T11:53:11.000Z</time>
      </trkpt>
      <trkpt lat="43.60606" lon="2.97096">
        <ele>1061</ele>
        <time>2026-05-07T11:53:12.000Z</time>
      </trkpt>
      <trkpt lat="43.60606" lon="2.97095">
        <ele>1060.6</ele>
        <time>2026-05-07T11:53:13.000Z</time>
      </trkpt>
      <trkpt lat="43.60606" lon="2.97095">
        <ele>1060.1</ele>
        <time>2026-05-07T11:53:14.000Z</time>
      </trkpt>
      <trkpt lat="43.60607" lon="2.97095">
        <ele>1060</ele>
        <time>2026-05-07T11:53:15.000Z</time>
      </trkpt>
      <trkpt lat="43.60607" lon="2.97094">
        <ele>1059.8</ele>
        <time>2026-05-07T11:53:16.000Z</time>
      </trkpt>
      <trkpt lat="43.60608" lon="2.97095">
        <ele>1059.7</ele>
        <time>2026-05-07T11:53:17.000Z</time>
      </trkpt>
      <trkpt lat="43.60608" lon="2.97095">
        <ele>1059.6</ele>
        <time>2026-05-07T11:53:18.000Z</time>
      </trkpt>
      <trkpt lat="43.60609" lon="2.97095">
        <ele>1059.5</ele>
        <time>2026-05-07T11:53:19.000Z</time>
      </trkpt>
      <trkpt lat="43.60609" lon="2.97094">
        <ele>1059.5</ele>
        <time>2026-05-07T11:53:20.000Z</time>
      </trkpt>
      <trkpt lat="43.6061" lon="2.97094">
        <ele>1059.4</ele>
        <time>2026-05-07T11:53:21.000Z</time>
      </trkpt>
      <trkpt lat="43.6061" lon="2.97093">
        <ele>1058.8</ele>
        <time>2026-05-07T11:53:22.000Z</time>
      </trkpt>
      <trkpt lat="43.60611" lon="2.97093">
        <ele>1058.4</ele>
        <time>2026-05-07T11:53:23.000Z</time>
      </trkpt>
      <trkpt lat="43.60611" lon="2.97093">
        <ele>1057.9</ele>
        <time>2026-05-07T11:53:24.000Z</time>
      </trkpt>
      <trkpt lat="43.60611" lon="2.97094">
        <ele>1057.5</ele>
        <time>2026-05-07T11:53:25.000Z</time>
      </trkpt>
      <trkpt lat="43.60612" lon="2.97094">
        <ele>1057.7</ele>
        <time>2026-05-07T11:53:26.000Z</time>
      </trkpt>
      <trkpt lat="43.60612" lon="2.97095">
        <ele>1057.6</ele>
        <time>2026-05-07T11:53:27.000Z</time>
      </trkpt>
      <trkpt lat="43.60613" lon="2.97095">
        <ele>1057.6</ele>
        <time>2026-05-07T11:53:28.000Z</time>
      </trkpt>
      <trkpt lat="43.60613" lon="2.97094">
        <ele>1057.7</ele>
        <time>2026-05-07T11:53:29.000Z</time>
      </trkpt>
      <trkpt lat="43.60613" lon="2.97094">
        <ele>1057.6</ele>
        <time>2026-05-07T11:53:30.000Z</time>
      </trkpt>
      <trkpt lat="43.60613" lon="2.97094">
        <ele>1057.6</ele>
        <time>2026-05-07T11:53:31.000Z</time>
      </trkpt>
      <trkpt lat="43.60613" lon="2.97094">
        <ele>1057.2</ele>
        <time>2026-05-07T11:53:32.000Z</time>
      </trkpt>
      <trkpt lat="43.60613" lon="2.97093">
        <ele>1057.2</ele>
        <time>2026-05-07T11:53:33.000Z</time>
      </trkpt>
      <trkpt lat="43.60613" lon="2.97093">
        <ele>1057.1</ele>
        <time>2026-05-07T11:53:34.000Z</time>
      </trkpt>
      <trkpt lat="43.60613" lon="2.97093">
        <ele>1056.8</ele>
        <time>2026-05-07T11:53:35.000Z</time>
      </trkpt>
      <trkpt lat="43.60613" lon="2.97093">
        <ele>1056.5</ele>
        <time>2026-05-07T11:53:36.000Z</time>
      </trkpt>
      <trkpt lat="43.60613" lon="2.97093">
        <ele>1056.3</ele>
        <time>2026-05-07T11:53:37.000Z</time>
      </trkpt>
      <trkpt lat="43.60613" lon="2.97092">
        <ele>1056.1</ele>
        <time>2026-05-07T11:53:38.000Z</time>
      </trkpt>
      <trkpt lat="43.60613" lon="2.97092">
        <ele>1055.7</ele>
        <time>2026-05-07T11:53:39.000Z</time>
      </trkpt>
      <trkpt lat="43.60613" lon="2.97092">
        <ele>1055.5</ele>
        <time>2026-05-07T11:53:40.000Z</time>
      </trkpt>
      <trkpt lat="43.60614" lon="2.97092">
        <ele>1055.4</ele>
        <time>2026-05-07T11:53:41.000Z</time>
      </trkpt>
      <trkpt lat="43.60614" lon="2.97092">
        <ele>1055.3</ele>
        <time>2026-05-07T11:53:42.000Z</time>
      </trkpt>
      <trkpt lat="43.60614" lon="2.97092">
        <ele>1055.1</ele>
        <time>2026-05-07T11:53:43.000Z</time>
      </trkpt>
      <trkpt lat="43.60615" lon="2.97092">
        <ele>1055</ele>
        <time>2026-05-07T11:53:44.000Z</time>
      </trkpt>
      <trkpt lat="43.60616" lon="2.97091">
        <ele>1054.7</ele>
        <time>2026-05-07T11:53:45.000Z</time>
      </trkpt>
      <trkpt lat="43.60616" lon="2.9709">
        <ele>1054.2</ele>
        <time>2026-05-07T11:53:46.000Z</time>
      </trkpt>
      <trkpt lat="43.60616" lon="2.9709">
        <ele>1054.2</ele>
        <time>2026-05-07T11:53:47.000Z</time>
      </trkpt>
      <trkpt lat="43.60616" lon="2.97091">
        <ele>1054.2</ele>
        <time>2026-05-07T11:53:48.000Z</time>
      </trkpt>
      <trkpt lat="43.60616" lon="2.97091">
        <ele>1054.1</ele>
        <time>2026-05-07T11:53:49.000Z</time>
      </trkpt>
      <trkpt lat="43.60617" lon="2.97091">
        <ele>1053.6</ele>
        <time>2026-05-07T11:53:50.000Z</time>
      </trkpt>
      <trkpt lat="43.60617" lon="2.97091">
        <ele>1053.2</ele>
        <time>2026-05-07T11:53:51.000Z</time>
      </trkpt>
      <trkpt lat="43.60618" lon="2.97091">
        <ele>1052.9</ele>
        <time>2026-05-07T11:53:52.000Z</time>
      </trkpt>
      <trkpt lat="43.60619" lon="2.97091">
        <ele>1052.6</ele>
        <time>2026-05-07T11:53:53.000Z</time>
      </trkpt>
      <trkpt lat="43.6062" lon="2.9709">
        <ele>1052.4</ele>
        <time>2026-05-07T11:53:54.000Z</time>
      </trkpt>
      <trkpt lat="43.60621" lon="2.97089">
        <ele>1052.3</ele>
        <time>2026-05-07T11:53:55.000Z</time>
      </trkpt>
      <trkpt lat="43.60622" lon="2.97089">
        <ele>1052.3</ele>
        <time>2026-05-07T11:53:56.000Z</time>
      </trkpt>
      <trkpt lat="43.60622" lon="2.97088">
        <ele>1052.1</ele>
        <time>2026-05-07T11:53:57.000Z</time>
      </trkpt>
      <trkpt lat="43.60623" lon="2.97088">
        <ele>1051.8</ele>
        <time>2026-05-07T11:53:58.000Z</time>
      </trkpt>
      <trkpt lat="43.60623" lon="2.97088">
        <ele>1051.3</ele>
        <time>2026-05-07T11:53:59.000Z</time>
      </trkpt>
      <trkpt lat="43.60623" lon="2.97088">
        <ele>1051</ele>
        <time>2026-05-07T11:54:00.000Z</time>
      </trkpt>
      <trkpt lat="43.60623" lon="2.97088">
        <ele>1050.7</ele>
        <time>2026-05-07T11:54:01.000Z</time>
      </trkpt>
      <trkpt lat="43.60623" lon="2.97088">
        <ele>1050.7</ele>
        <time>2026-05-07T11:54:02.000Z</time>
      </trkpt>
      <trkpt lat="43.60623" lon="2.97088">
        <ele>1050.7</ele>
        <time>2026-05-07T11:54:03.000Z</time>
      </trkpt>
      <trkpt lat="43.60624" lon="2.97088">
        <ele>1050.7</ele>
        <time>2026-05-07T11:54:04.000Z</time>
      </trkpt>
      <trkpt lat="43.60624" lon="2.97089">
        <ele>1050.6</ele>
        <time>2026-05-07T11:54:05.000Z</time>
      </trkpt>
      <trkpt lat="43.60624" lon="2.97089">
        <ele>1050.6</ele>
        <time>2026-05-07T11:54:06.000Z</time>
      </trkpt>
      <trkpt lat="43.60625" lon="2.97088">
        <ele>1050.5</ele>
        <time>2026-05-07T11:54:07.000Z</time>
      </trkpt>
      <trkpt lat="43.60626" lon="2.97088">
        <ele>1050.2</ele>
        <time>2026-05-07T11:54:08.000Z</time>
      </trkpt>
      <trkpt lat="43.60626" lon="2.97087">
        <ele>1049.9</ele>
        <time>2026-05-07T11:54:09.000Z</time>
      </trkpt>
      <trkpt lat="43.60627" lon="2.97087">
        <ele>1049.9</ele>
        <time>2026-05-07T11:54:10.000Z</time>
      </trkpt>
      <trkpt lat="43.60627" lon="2.97086">
        <ele>1049.9</ele>
        <time>2026-05-07T11:54:11.000Z</time>
      </trkpt>
      <trkpt lat="43.60627" lon="2.97085">
        <ele>1049.9</ele>
        <time>2026-05-07T11:54:12.000Z</time>
      </trkpt>
      <trkpt lat="43.60627" lon="2.97085">
        <ele>1050.1</ele>
        <time>2026-05-07T11:54:13.000Z</time>
      </trkpt>
      <trkpt lat="43.60627" lon="2.97084">
        <ele>1050.1</ele>
        <time>2026-05-07T11:54:14.000Z</time>
      </trkpt>
      <trkpt lat="43.60627" lon="2.97084">
        <ele>1050.1</ele>
        <time>2026-05-07T11:54:15.000Z</time>
      </trkpt>
      <trkpt lat="43.60628" lon="2.97082">
        <ele>1050</ele>
        <time>2026-05-07T11:54:16.000Z</time>
      </trkpt>
      <trkpt lat="43.60628" lon="2.97082">
        <ele>1049.7</ele>
        <time>2026-05-07T11:54:17.000Z</time>
      </trkpt>
      <trkpt lat="43.60628" lon="2.97081">
        <ele>1049.6</ele>
        <time>2026-05-07T11:54:18.000Z</time>
      </trkpt>
      <trkpt lat="43.60628" lon="2.9708">
        <ele>1049.7</ele>
        <time>2026-05-07T11:54:19.000Z</time>
      </trkpt>
      <trkpt lat="43.60627" lon="2.97079">
        <ele>1049.6</ele>
        <time>2026-05-07T11:54:20.000Z</time>
      </trkpt>
      <trkpt lat="43.60627" lon="2.97078">
        <ele>1049.5</ele>
        <time>2026-05-07T11:54:21.000Z</time>
      </trkpt>
      <trkpt lat="43.60627" lon="2.97077">
        <ele>1049.5</ele>
        <time>2026-05-07T11:54:22.000Z</time>
      </trkpt>
      <trkpt lat="43.60627" lon="2.97077">
        <ele>1049.3</ele>
        <time>2026-05-07T11:54:23.000Z</time>
      </trkpt>
      <trkpt lat="43.60628" lon="2.97076">
        <ele>1049.2</ele>
        <time>2026-05-07T11:54:24.000Z</time>
      </trkpt>
      <trkpt lat="43.60628" lon="2.97076">
        <ele>1049.2</ele>
        <time>2026-05-07T11:54:25.000Z</time>
      </trkpt>
      <trkpt lat="43.60628" lon="2.97076">
        <ele>1049.2</ele>
        <time>2026-05-07T11:54:26.000Z</time>
      </trkpt>
      <trkpt lat="43.60629" lon="2.97077">
        <ele>1048.8</ele>
        <time>2026-05-07T11:54:27.000Z</time>
      </trkpt>
      <trkpt lat="43.60629" lon="2.97077">
        <ele>1048.4</ele>
        <time>2026-05-07T11:54:28.000Z</time>
      </trkpt>
      <trkpt lat="43.6063" lon="2.97077">
        <ele>1048.2</ele>
        <time>2026-05-07T11:54:29.000Z</time>
      </trkpt>
      <trkpt lat="43.6063" lon="2.97078">
        <ele>1048.1</ele>
        <time>2026-05-07T11:54:30.000Z</time>
      </trkpt>
      <trkpt lat="43.60631" lon="2.97078">
        <ele>1048</ele>
        <time>2026-05-07T11:54:31.000Z</time>
      </trkpt>
      <trkpt lat="43.60631" lon="2.97079">
        <ele>1048.2</ele>
        <time>2026-05-07T11:54:32.000Z</time>
      </trkpt>
      <trkpt lat="43.60631" lon="2.97079">
        <ele>1048.2</ele>
        <time>2026-05-07T11:54:33.000Z</time>
      </trkpt>
      <trkpt lat="43.60631" lon="2.97079">
        <ele>1048.1</ele>
        <time>2026-05-07T11:54:34.000Z</time>
      </trkpt>
      <trkpt lat="43.60631" lon="2.97079">
        <ele>1047.9</ele>
        <time>2026-05-07T11:54:35.000Z</time>
      </trkpt>
      <trkpt lat="43.60631" lon="2.97079">
        <ele>1047.9</ele>
        <time>2026-05-07T11:54:36.000Z</time>
      </trkpt>
      <trkpt lat="43.60631" lon="2.97079">
        <ele>1047.8</ele>
        <time>2026-05-07T11:54:37.000Z</time>
      </trkpt>
      <trkpt lat="43.60631" lon="2.97079">
        <ele>1047.7</ele>
        <time>2026-05-07T11:54:38.000Z</time>
      </trkpt>
      <trkpt lat="43.60632" lon="2.97079">
        <ele>1047.6</ele>
        <time>2026-05-07T11:54:39.000Z</time>
      </trkpt>
      <trkpt lat="43.60633" lon="2.97079">
        <ele>1047.4</ele>
        <time>2026-05-07T11:54:40.000Z</time>
      </trkpt>
      <trkpt lat="43.60633" lon="2.97079">
        <ele>1046.9</ele>
        <time>2026-05-07T11:54:41.000Z</time>
      </trkpt>
      <trkpt lat="43.60633" lon="2.97079">
        <ele>1046.6</ele>
        <time>2026-05-07T11:54:42.000Z</time>
      </trkpt>
      <trkpt lat="43.60633" lon="2.97079">
        <ele>1046.3</ele>
        <time>2026-05-07T11:54:43.000Z</time>
      </trkpt>
      <trkpt lat="43.60633" lon="2.97078">
        <ele>1046.1</ele>
        <time>2026-05-07T11:54:44.000Z</time>
      </trkpt>
      <trkpt lat="43.60633" lon="2.97078">
        <ele>1045.9</ele>
        <time>2026-05-07T11:54:45.000Z</time>
      </trkpt>
      <trkpt lat="43.60633" lon="2.97078">
        <ele>1045.8</ele>
        <time>2026-05-07T11:54:46.000Z</time>
      </trkpt>
      <trkpt lat="43.60633" lon="2.97079">
        <ele>1045.6</ele>
        <time>2026-05-07T11:54:47.000Z</time>
      </trkpt>
      <trkpt lat="43.60633" lon="2.97078">
        <ele>1045.6</ele>
        <time>2026-05-07T11:54:48.000Z</time>
      </trkpt>
      <trkpt lat="43.60633" lon="2.97079">
        <ele>1045.4</ele>
        <time>2026-05-07T11:54:49.000Z</time>
      </trkpt>
      <trkpt lat="43.60634" lon="2.97078">
        <ele>1045.2</ele>
        <time>2026-05-07T11:54:50.000Z</time>
      </trkpt>
      <trkpt lat="43.60634" lon="2.97078">
        <ele>1045</ele>
        <time>2026-05-07T11:54:51.000Z</time>
      </trkpt>
      <trkpt lat="43.60634" lon="2.97078">
        <ele>1044.7</ele>
        <time>2026-05-07T11:54:52.000Z</time>
      </trkpt>
      <trkpt lat="43.60634" lon="2.97078">
        <ele>1044.5</ele>
        <time>2026-05-07T11:54:53.000Z</time>
      </trkpt>
      <trkpt lat="43.60634" lon="2.97078">
        <ele>1044.4</ele>
        <time>2026-05-07T11:54:54.000Z</time>
      </trkpt>
      <trkpt lat="43.60634" lon="2.97078">
        <ele>1044.2</ele>
        <time>2026-05-07T11:54:55.000Z</time>
      </trkpt>
      <trkpt lat="43.60634" lon="2.97078">
        <ele>1044.2</ele>
        <time>2026-05-07T11:54:56.000Z</time>
      </trkpt>
      <trkpt lat="43.60634" lon="2.97078">
        <ele>1043.9</ele>
        <time>2026-05-07T11:54:57.000Z</time>
      </trkpt>
      <trkpt lat="43.60634" lon="2.97078">
        <ele>1043.6</ele>
        <time>2026-05-07T11:54:58.000Z</time>
      </trkpt>
      <trkpt lat="43.60634" lon="2.97078">
        <ele>1043.2</ele>
        <time>2026-05-07T11:54:59.000Z</time>
      </trkpt>
      <trkpt lat="43.60636" lon="2.97078">
        <ele>1043.3</ele>
        <time>2026-05-07T11:55:00.000Z</time>
      </trkpt>
      <trkpt lat="43.60637" lon="2.97078">
        <ele>1043.4</ele>
        <time>2026-05-07T11:55:01.000Z</time>
      </trkpt>
      <trkpt lat="43.60638" lon="2.97079">
        <ele>1043.5</ele>
        <time>2026-05-07T11:55:02.000Z</time>
      </trkpt>
      <trkpt lat="43.60638" lon="2.9708">
        <ele>1043.5</ele>
        <time>2026-05-07T11:55:03.000Z</time>
      </trkpt>
      <trkpt lat="43.60639" lon="2.97081">
        <ele>1043.4</ele>
        <time>2026-05-07T11:55:04.000Z</time>
      </trkpt>
      <trkpt lat="43.6064" lon="2.97081">
        <ele>1043.6</ele>
        <time>2026-05-07T11:55:05.000Z</time>
      </trkpt>
      <trkpt lat="43.6064" lon="2.97083">
        <ele>1043.4</ele>
        <time>2026-05-07T11:55:06.000Z</time>
      </trkpt>
      <trkpt lat="43.60641" lon="2.97083">
        <ele>1043.4</ele>
        <time>2026-05-07T11:55:07.000Z</time>
      </trkpt>
      <trkpt lat="43.60642" lon="2.97084">
        <ele>1042.7</ele>
        <time>2026-05-07T11:55:08.000Z</time>
      </trkpt>
      <trkpt lat="43.60643" lon="2.97086">
        <ele>1042.4</ele>
        <time>2026-05-07T11:55:09.000Z</time>
      </trkpt>
      <trkpt lat="43.60644" lon="2.97086">
        <ele>1042.1</ele>
        <time>2026-05-07T11:55:10.000Z</time>
      </trkpt>
      <trkpt lat="43.60645" lon="2.97086">
        <ele>1041.6</ele>
        <time>2026-05-07T11:55:11.000Z</time>
      </trkpt>
      <trkpt lat="43.60645" lon="2.97086">
        <ele>1041.5</ele>
        <time>2026-05-07T11:55:12.000Z</time>
      </trkpt>
      <trkpt lat="43.60645" lon="2.97086">
        <ele>1041.7</ele>
        <time>2026-05-07T11:55:13.000Z</time>
      </trkpt>
      <trkpt lat="43.60647" lon="2.97085">
        <ele>1041</ele>
        <time>2026-05-07T11:55:14.000Z</time>
      </trkpt>
      <trkpt lat="43.60648" lon="2.97084">
        <ele>1040.8</ele>
        <time>2026-05-07T11:55:15.000Z</time>
      </trkpt>
      <trkpt lat="43.60648" lon="2.97084">
        <ele>1040.1</ele>
        <time>2026-05-07T11:55:16.000Z</time>
      </trkpt>
      <trkpt lat="43.60649" lon="2.97085">
        <ele>1039.8</ele>
        <time>2026-05-07T11:55:17.000Z</time>
      </trkpt>
      <trkpt lat="43.60651" lon="2.97085">
        <ele>1039.6</ele>
        <time>2026-05-07T11:55:18.000Z</time>
      </trkpt>
      <trkpt lat="43.60651" lon="2.97086">
        <ele>1039.7</ele>
        <time>2026-05-07T11:55:19.000Z</time>
      </trkpt>
      <trkpt lat="43.60652" lon="2.97086">
        <ele>1039.6</ele>
        <time>2026-05-07T11:55:20.000Z</time>
      </trkpt>
      <trkpt lat="43.60653" lon="2.97086">
        <ele>1039.7</ele>
        <time>2026-05-07T11:55:21.000Z</time>
      </trkpt>
      <trkpt lat="43.60653" lon="2.97086">
        <ele>1039.1</ele>
        <time>2026-05-07T11:55:22.000Z</time>
      </trkpt>
      <trkpt lat="43.60653" lon="2.97086">
        <ele>1039.1</ele>
        <time>2026-05-07T11:55:23.000Z</time>
      </trkpt>
      <trkpt lat="43.60654" lon="2.97086">
        <ele>1039</ele>
        <time>2026-05-07T11:55:24.000Z</time>
      </trkpt>
      <trkpt lat="43.60656" lon="2.97086">
        <ele>1038.8</ele>
        <time>2026-05-07T11:55:25.000Z</time>
      </trkpt>
      <trkpt lat="43.60656" lon="2.97086">
        <ele>1038.9</ele>
        <time>2026-05-07T11:55:26.000Z</time>
      </trkpt>
      <trkpt lat="43.60657" lon="2.97086">
        <ele>1038.6</ele>
        <time>2026-05-07T11:55:27.000Z</time>
      </trkpt>
      <trkpt lat="43.60657" lon="2.97086">
        <ele>1038.3</ele>
        <time>2026-05-07T11:55:28.000Z</time>
      </trkpt>
      <trkpt lat="43.60658" lon="2.97085">
        <ele>1038.5</ele>
        <time>2026-05-07T11:55:29.000Z</time>
      </trkpt>
      <trkpt lat="43.60658" lon="2.97084">
        <ele>1038.2</ele>
        <time>2026-05-07T11:55:30.000Z</time>
      </trkpt>
      <trkpt lat="43.60659" lon="2.97083">
        <ele>1037.9</ele>
        <time>2026-05-07T11:55:31.000Z</time>
      </trkpt>
      <trkpt lat="43.6066" lon="2.97083">
        <ele>1037.6</ele>
        <time>2026-05-07T11:55:32.000Z</time>
      </trkpt>
      <trkpt lat="43.6066" lon="2.97081">
        <ele>1037.5</ele>
        <time>2026-05-07T11:55:33.000Z</time>
      </trkpt>
      <trkpt lat="43.60661" lon="2.9708">
        <ele>1037.5</ele>
        <time>2026-05-07T11:55:34.000Z</time>
      </trkpt>
      <trkpt lat="43.60661" lon="2.9708">
        <ele>1037.9</ele>
        <time>2026-05-07T11:55:35.000Z</time>
      </trkpt>
      <trkpt lat="43.60661" lon="2.97079">
        <ele>1037.6</ele>
        <time>2026-05-07T11:55:36.000Z</time>
      </trkpt>
      <trkpt lat="43.60661" lon="2.97078">
        <ele>1037.4</ele>
        <time>2026-05-07T11:55:37.000Z</time>
      </trkpt>
      <trkpt lat="43.60662" lon="2.97078">
        <ele>1037.3</ele>
        <time>2026-05-07T11:55:38.000Z</time>
      </trkpt>
      <trkpt lat="43.60664" lon="2.97078">
        <ele>1037.1</ele>
        <time>2026-05-07T11:55:39.000Z</time>
      </trkpt>
      <trkpt lat="43.60665" lon="2.97078">
        <ele>1037.2</ele>
        <time>2026-05-07T11:55:40.000Z</time>
      </trkpt>
      <trkpt lat="43.60665" lon="2.97077">
        <ele>1037.4</ele>
        <time>2026-05-07T11:55:41.000Z</time>
      </trkpt>
      <trkpt lat="43.60665" lon="2.97076">
        <ele>1037.2</ele>
        <time>2026-05-07T11:55:42.000Z</time>
      </trkpt>
      <trkpt lat="43.60665" lon="2.97076">
        <ele>1037.1</ele>
        <time>2026-05-07T11:55:43.000Z</time>
      </trkpt>
      <trkpt lat="43.60666" lon="2.97075">
        <ele>1036.6</ele>
        <time>2026-05-07T11:55:44.000Z</time>
      </trkpt>
      <trkpt lat="43.60668" lon="2.97075">
        <ele>1036.5</ele>
        <time>2026-05-07T11:55:45.000Z</time>
      </trkpt>
      <trkpt lat="43.60669" lon="2.97076">
        <ele>1036</ele>
        <time>2026-05-07T11:55:46.000Z</time>
      </trkpt>
      <trkpt lat="43.6067" lon="2.97077">
        <ele>1035.4</ele>
        <time>2026-05-07T11:55:47.000Z</time>
      </trkpt>
      <trkpt lat="43.6067" lon="2.97078">
        <ele>1035.1</ele>
        <time>2026-05-07T11:55:48.000Z</time>
      </trkpt>
      <trkpt lat="43.60671" lon="2.97079">
        <ele>1034.9</ele>
        <time>2026-05-07T11:55:49.000Z</time>
      </trkpt>
      <trkpt lat="43.60672" lon="2.97079">
        <ele>1034.8</ele>
        <time>2026-05-07T11:55:50.000Z</time>
      </trkpt>
      <trkpt lat="43.60672" lon="2.97079">
        <ele>1034.7</ele>
        <time>2026-05-07T11:55:51.000Z</time>
      </trkpt>
      <trkpt lat="43.60673" lon="2.97079">
        <ele>1034.4</ele>
        <time>2026-05-07T11:55:52.000Z</time>
      </trkpt>
      <trkpt lat="43.60674" lon="2.97079">
        <ele>1034.2</ele>
        <time>2026-05-07T11:55:53.000Z</time>
      </trkpt>
      <trkpt lat="43.60674" lon="2.9708">
        <ele>1033.9</ele>
        <time>2026-05-07T11:55:54.000Z</time>
      </trkpt>
      <trkpt lat="43.60675" lon="2.97079">
        <ele>1033.6</ele>
        <time>2026-05-07T11:55:55.000Z</time>
      </trkpt>
      <trkpt lat="43.60676" lon="2.97079">
        <ele>1033</ele>
        <time>2026-05-07T11:55:56.000Z</time>
      </trkpt>
      <trkpt lat="43.60677" lon="2.97078">
        <ele>1032.7</ele>
        <time>2026-05-07T11:55:57.000Z</time>
      </trkpt>
      <trkpt lat="43.60677" lon="2.97078">
        <ele>1032.8</ele>
        <time>2026-05-07T11:55:58.000Z</time>
      </trkpt>
      <trkpt lat="43.60678" lon="2.97077">
        <ele>1032.7</ele>
        <time>2026-05-07T11:55:59.000Z</time>
      </trkpt>
      <trkpt lat="43.60678" lon="2.97076">
        <ele>1032.2</ele>
        <time>2026-05-07T11:56:00.000Z</time>
      </trkpt>
      <trkpt lat="43.60678" lon="2.97075">
        <ele>1032.1</ele>
        <time>2026-05-07T11:56:01.000Z</time>
      </trkpt>
      <trkpt lat="43.60679" lon="2.97074">
        <ele>1032.2</ele>
        <time>2026-05-07T11:56:02.000Z</time>
      </trkpt>
      <trkpt lat="43.6068" lon="2.97073">
        <ele>1031.6</ele>
        <time>2026-05-07T11:56:03.000Z</time>
      </trkpt>
      <trkpt lat="43.60681" lon="2.97074">
        <ele>1031.1</ele>
        <time>2026-05-07T11:56:04.000Z</time>
      </trkpt>
      <trkpt lat="43.60682" lon="2.97074">
        <ele>1030.5</ele>
        <time>2026-05-07T11:56:05.000Z</time>
      </trkpt>
      <trkpt lat="43.60682" lon="2.97074">
        <ele>1030.2</ele>
        <time>2026-05-07T11:56:06.000Z</time>
      </trkpt>
      <trkpt lat="43.60682" lon="2.97075">
        <ele>1030</ele>
        <time>2026-05-07T11:56:07.000Z</time>
      </trkpt>
      <trkpt lat="43.60683" lon="2.97076">
        <ele>1029.7</ele>
        <time>2026-05-07T11:56:08.000Z</time>
      </trkpt>
      <trkpt lat="43.60684" lon="2.97075">
        <ele>1029.8</ele>
        <time>2026-05-07T11:56:09.000Z</time>
      </trkpt>
      <trkpt lat="43.60685" lon="2.97074">
        <ele>1029.7</ele>
        <time>2026-05-07T11:56:10.000Z</time>
      </trkpt>
      <trkpt lat="43.60685" lon="2.97074">
        <ele>1029.7</ele>
        <time>2026-05-07T11:56:11.000Z</time>
      </trkpt>
      <trkpt lat="43.60685" lon="2.97073">
        <ele>1029.5</ele>
        <time>2026-05-07T11:56:12.000Z</time>
      </trkpt>
      <trkpt lat="43.60686" lon="2.97073">
        <ele>1029</ele>
        <time>2026-05-07T11:56:13.000Z</time>
      </trkpt>
      <trkpt lat="43.60687" lon="2.97073">
        <ele>1029</ele>
        <time>2026-05-07T11:56:14.000Z</time>
      </trkpt>
      <trkpt lat="43.60687" lon="2.97073">
        <ele>1029</ele>
        <time>2026-05-07T11:56:15.000Z</time>
      </trkpt>
      <trkpt lat="43.60688" lon="2.97072">
        <ele>1029</ele>
        <time>2026-05-07T11:56:16.000Z</time>
      </trkpt>
      <trkpt lat="43.60688" lon="2.97071">
        <ele>1029</ele>
        <time>2026-05-07T11:56:17.000Z</time>
      </trkpt>
      <trkpt lat="43.60688" lon="2.97069">
        <ele>1029</ele>
        <time>2026-05-07T11:56:18.000Z</time>
      </trkpt>
      <trkpt lat="43.60689" lon="2.97068">
        <ele>1028.9</ele>
        <time>2026-05-07T11:56:19.000Z</time>
      </trkpt>
      <trkpt lat="43.60689" lon="2.97066">
        <ele>1029</ele>
        <time>2026-05-07T11:56:20.000Z</time>
      </trkpt>
      <trkpt lat="43.60689" lon="2.97065">
        <ele>1028.8</ele>
        <time>2026-05-07T11:56:21.000Z</time>
      </trkpt>
      <trkpt lat="43.6069" lon="2.97065">
        <ele>1029</ele>
        <time>2026-05-07T11:56:22.000Z</time>
      </trkpt>
      <trkpt lat="43.6069" lon="2.97065">
        <ele>1029.2</ele>
        <time>2026-05-07T11:56:23.000Z</time>
      </trkpt>
      <trkpt lat="43.60691" lon="2.97065">
        <ele>1029</ele>
        <time>2026-05-07T11:56:24.000Z</time>
      </trkpt>
      <trkpt lat="43.60691" lon="2.97064">
        <ele>1029.1</ele>
        <time>2026-05-07T11:56:25.000Z</time>
      </trkpt>
      <trkpt lat="43.60692" lon="2.97064">
        <ele>1028.8</ele>
        <time>2026-05-07T11:56:26.000Z</time>
      </trkpt>
      <trkpt lat="43.60692" lon="2.97063">
        <ele>1028.7</ele>
        <time>2026-05-07T11:56:27.000Z</time>
      </trkpt>
      <trkpt lat="43.60693" lon="2.97062">
        <ele>1028.7</ele>
        <time>2026-05-07T11:56:28.000Z</time>
      </trkpt>
      <trkpt lat="43.60693" lon="2.97061">
        <ele>1028.8</ele>
        <time>2026-05-07T11:56:29.000Z</time>
      </trkpt>
      <trkpt lat="43.60693" lon="2.9706">
        <ele>1028.5</ele>
        <time>2026-05-07T11:56:30.000Z</time>
      </trkpt>
      <trkpt lat="43.60693" lon="2.9706">
        <ele>1028.3</ele>
        <time>2026-05-07T11:56:31.000Z</time>
      </trkpt>
      <trkpt lat="43.60693" lon="2.9706">
        <ele>1028.1</ele>
        <time>2026-05-07T11:56:32.000Z</time>
      </trkpt>
      <trkpt lat="43.60694" lon="2.97059">
        <ele>1028</ele>
        <time>2026-05-07T11:56:33.000Z</time>
      </trkpt>
      <trkpt lat="43.60696" lon="2.97059">
        <ele>1027.7</ele>
        <time>2026-05-07T11:56:34.000Z</time>
      </trkpt>
      <trkpt lat="43.60697" lon="2.97058">
        <ele>1027.4</ele>
        <time>2026-05-07T11:56:35.000Z</time>
      </trkpt>
      <trkpt lat="43.60697" lon="2.97058">
        <ele>1026.9</ele>
        <time>2026-05-07T11:56:36.000Z</time>
      </trkpt>
      <trkpt lat="43.60698" lon="2.97058">
        <ele>1026.7</ele>
        <time>2026-05-07T11:56:37.000Z</time>
      </trkpt>
      <trkpt lat="43.60699" lon="2.97058">
        <ele>1026.8</ele>
        <time>2026-05-07T11:56:38.000Z</time>
      </trkpt>
      <trkpt lat="43.607" lon="2.97058">
        <ele>1026.5</ele>
        <time>2026-05-07T11:56:39.000Z</time>
      </trkpt>
      <trkpt lat="43.607" lon="2.97059">
        <ele>1026</ele>
        <time>2026-05-07T11:56:40.000Z</time>
      </trkpt>
      <trkpt lat="43.607" lon="2.97059">
        <ele>1025.4</ele>
        <time>2026-05-07T11:56:41.000Z</time>
      </trkpt>
      <trkpt lat="43.60701" lon="2.9706">
        <ele>1025</ele>
        <time>2026-05-07T11:56:42.000Z</time>
      </trkpt>
      <trkpt lat="43.60701" lon="2.9706">
        <ele>1024.5</ele>
        <time>2026-05-07T11:56:43.000Z</time>
      </trkpt>
      <trkpt lat="43.60702" lon="2.9706">
        <ele>1024.3</ele>
        <time>2026-05-07T11:56:44.000Z</time>
      </trkpt>
      <trkpt lat="43.60704" lon="2.9706">
        <ele>1024.4</ele>
        <time>2026-05-07T11:56:45.000Z</time>
      </trkpt>
      <trkpt lat="43.60705" lon="2.9706">
        <ele>1024.6</ele>
        <time>2026-05-07T11:56:46.000Z</time>
      </trkpt>
      <trkpt lat="43.60705" lon="2.97059">
        <ele>1024.8</ele>
        <time>2026-05-07T11:56:47.000Z</time>
      </trkpt>
      <trkpt lat="43.60706" lon="2.97058">
        <ele>1024.7</ele>
        <time>2026-05-07T11:56:48.000Z</time>
      </trkpt>
      <trkpt lat="43.60706" lon="2.97058">
        <ele>1024.3</ele>
        <time>2026-05-07T11:56:49.000Z</time>
      </trkpt>
      <trkpt lat="43.60707" lon="2.97058">
        <ele>1023.5</ele>
        <time>2026-05-07T11:56:50.000Z</time>
      </trkpt>
      <trkpt lat="43.60707" lon="2.97058">
        <ele>1023.2</ele>
        <time>2026-05-07T11:56:51.000Z</time>
      </trkpt>
      <trkpt lat="43.60708" lon="2.97058">
        <ele>1022.9</ele>
        <time>2026-05-07T11:56:52.000Z</time>
      </trkpt>
      <trkpt lat="43.60708" lon="2.97057">
        <ele>1022.6</ele>
        <time>2026-05-07T11:56:53.000Z</time>
      </trkpt>
      <trkpt lat="43.60708" lon="2.97055">
        <ele>1022.4</ele>
        <time>2026-05-07T11:56:54.000Z</time>
      </trkpt>
      <trkpt lat="43.60709" lon="2.97055">
        <ele>1021.9</ele>
        <time>2026-05-07T11:56:55.000Z</time>
      </trkpt>
      <trkpt lat="43.6071" lon="2.97055">
        <ele>1021.8</ele>
        <time>2026-05-07T11:56:56.000Z</time>
      </trkpt>
      <trkpt lat="43.6071" lon="2.97055">
        <ele>1021.6</ele>
        <time>2026-05-07T11:56:57.000Z</time>
      </trkpt>
      <trkpt lat="43.60711" lon="2.97054">
        <ele>1021.3</ele>
        <time>2026-05-07T11:56:58.000Z</time>
      </trkpt>
      <trkpt lat="43.60712" lon="2.97054">
        <ele>1021</ele>
        <time>2026-05-07T11:56:59.000Z</time>
      </trkpt>
      <trkpt lat="43.60712" lon="2.97054">
        <ele>1020.7</ele>
        <time>2026-05-07T11:57:00.000Z</time>
      </trkpt>
      <trkpt lat="43.60712" lon="2.97054">
        <ele>1020.5</ele>
        <time>2026-05-07T11:57:01.000Z</time>
      </trkpt>
      <trkpt lat="43.60712" lon="2.97054">
        <ele>1020.4</ele>
        <time>2026-05-07T11:57:02.000Z</time>
      </trkpt>
      <trkpt lat="43.60713" lon="2.97054">
        <ele>1020.3</ele>
        <time>2026-05-07T11:57:03.000Z</time>
      </trkpt>
      <trkpt lat="43.60713" lon="2.97054">
        <ele>1020.2</ele>
        <time>2026-05-07T11:57:04.000Z</time>
      </trkpt>
      <trkpt lat="43.60714" lon="2.97053">
        <ele>1019.9</ele>
        <time>2026-05-07T11:57:05.000Z</time>
      </trkpt>
      <trkpt lat="43.60715" lon="2.97052">
        <ele>1019.5</ele>
        <time>2026-05-07T11:57:06.000Z</time>
      </trkpt>
      <trkpt lat="43.60715" lon="2.97051">
        <ele>1019.4</ele>
        <time>2026-05-07T11:57:07.000Z</time>
      </trkpt>
      <trkpt lat="43.60716" lon="2.9705">
        <ele>1019.4</ele>
        <time>2026-05-07T11:57:08.000Z</time>
      </trkpt>
      <trkpt lat="43.60716" lon="2.9705">
        <ele>1019.1</ele>
        <time>2026-05-07T11:57:09.000Z</time>
      </trkpt>
      <trkpt lat="43.60716" lon="2.9705">
        <ele>1018.8</ele>
        <time>2026-05-07T11:57:10.000Z</time>
      </trkpt>
      <trkpt lat="43.60717" lon="2.9705">
        <ele>1018.4</ele>
        <time>2026-05-07T11:57:11.000Z</time>
      </trkpt>
      <trkpt lat="43.60718" lon="2.9705">
        <ele>1018</ele>
        <time>2026-05-07T11:57:12.000Z</time>
      </trkpt>
      <trkpt lat="43.60718" lon="2.97051">
        <ele>1018</ele>
        <time>2026-05-07T11:57:13.000Z</time>
      </trkpt>
      <trkpt lat="43.60719" lon="2.97051">
        <ele>1018.1</ele>
        <time>2026-05-07T11:57:14.000Z</time>
      </trkpt>
      <trkpt lat="43.60719" lon="2.97051">
        <ele>1018.1</ele>
        <time>2026-05-07T11:57:15.000Z</time>
      </trkpt>
      <trkpt lat="43.6072" lon="2.9705">
        <ele>1018</ele>
        <time>2026-05-07T11:57:16.000Z</time>
      </trkpt>
      <trkpt lat="43.60721" lon="2.9705">
        <ele>1018.2</ele>
        <time>2026-05-07T11:57:17.000Z</time>
      </trkpt>
      <trkpt lat="43.60722" lon="2.9705">
        <ele>1018.5</ele>
        <time>2026-05-07T11:57:18.000Z</time>
      </trkpt>
      <trkpt lat="43.60722" lon="2.97049">
        <ele>1018.5</ele>
        <time>2026-05-07T11:57:19.000Z</time>
      </trkpt>
      <trkpt lat="43.60722" lon="2.97048">
        <ele>1018.6</ele>
        <time>2026-05-07T11:57:20.000Z</time>
      </trkpt>
      <trkpt lat="43.60722" lon="2.97048">
        <ele>1018.8</ele>
        <time>2026-05-07T11:57:21.000Z</time>
      </trkpt>
      <trkpt lat="43.60723" lon="2.97048">
        <ele>1019</ele>
        <time>2026-05-07T11:57:22.000Z</time>
      </trkpt>
      <trkpt lat="43.60723" lon="2.97049">
        <ele>1018.6</ele>
        <time>2026-05-07T11:57:23.000Z</time>
      </trkpt>
      <trkpt lat="43.60723" lon="2.97049">
        <ele>1018.3</ele>
        <time>2026-05-07T11:57:24.000Z</time>
      </trkpt>
      <trkpt lat="43.60723" lon="2.97049">
        <ele>1018.1</ele>
        <time>2026-05-07T11:57:25.000Z</time>
      </trkpt>
      <trkpt lat="43.60724" lon="2.97049">
        <ele>1018</ele>
        <time>2026-05-07T11:57:26.000Z</time>
      </trkpt>
      <trkpt lat="43.60724" lon="2.97048">
        <ele>1017.8</ele>
        <time>2026-05-07T11:57:27.000Z</time>
      </trkpt>
      <trkpt lat="43.60723" lon="2.97047">
        <ele>1017.5</ele>
        <time>2026-05-07T11:57:28.000Z</time>
      </trkpt>
      <trkpt lat="43.60724" lon="2.97046">
        <ele>1017.3</ele>
        <time>2026-05-07T11:57:29.000Z</time>
      </trkpt>
      <trkpt lat="43.60725" lon="2.97045">
        <ele>1017.3</ele>
        <time>2026-05-07T11:57:30.000Z</time>
      </trkpt>
      <trkpt lat="43.60726" lon="2.97045">
        <ele>1017</ele>
        <time>2026-05-07T11:57:31.000Z</time>
      </trkpt>
      <trkpt lat="43.60727" lon="2.97045">
        <ele>1016.8</ele>
        <time>2026-05-07T11:57:32.000Z</time>
      </trkpt>
      <trkpt lat="43.60729" lon="2.97044">
        <ele>1016.4</ele>
        <time>2026-05-07T11:57:33.000Z</time>
      </trkpt>
      <trkpt lat="43.6073" lon="2.97044">
        <ele>1016.1</ele>
        <time>2026-05-07T11:57:34.000Z</time>
      </trkpt>
      <trkpt lat="43.60731" lon="2.97043">
        <ele>1015.8</ele>
        <time>2026-05-07T11:57:35.000Z</time>
      </trkpt>
      <trkpt lat="43.60731" lon="2.97042">
        <ele>1015.7</ele>
        <time>2026-05-07T11:57:36.000Z</time>
      </trkpt>
      <trkpt lat="43.60732" lon="2.9704">
        <ele>1015.5</ele>
        <time>2026-05-07T11:57:37.000Z</time>
      </trkpt>
      <trkpt lat="43.60733" lon="2.97039">
        <ele>1015.4</ele>
        <time>2026-05-07T11:57:38.000Z</time>
      </trkpt>
      <trkpt lat="43.60734" lon="2.97038">
        <ele>1015.5</ele>
        <time>2026-05-07T11:57:39.000Z</time>
      </trkpt>
      <trkpt lat="43.60734" lon="2.97038">
        <ele>1015.6</ele>
        <time>2026-05-07T11:57:40.000Z</time>
      </trkpt>
      <trkpt lat="43.60736" lon="2.97039">
        <ele>1015.8</ele>
        <time>2026-05-07T11:57:41.000Z</time>
      </trkpt>
      <trkpt lat="43.60737" lon="2.97037">
        <ele>1016.1</ele>
        <time>2026-05-07T11:57:42.000Z</time>
      </trkpt>
      <trkpt lat="43.60738" lon="2.97035">
        <ele>1016.4</ele>
        <time>2026-05-07T11:57:43.000Z</time>
      </trkpt>
      <trkpt lat="43.60738" lon="2.97035">
        <ele>1016.5</ele>
        <time>2026-05-07T11:57:44.000Z</time>
      </trkpt>
      <trkpt lat="43.60739" lon="2.97035">
        <ele>1016.6</ele>
        <time>2026-05-07T11:57:45.000Z</time>
      </trkpt>
      <trkpt lat="43.60739" lon="2.97035">
        <ele>1016.4</ele>
        <time>2026-05-07T11:57:46.000Z</time>
      </trkpt>
      <trkpt lat="43.60739" lon="2.97035">
        <ele>1016.4</ele>
        <time>2026-05-07T11:57:47.000Z</time>
      </trkpt>
      <trkpt lat="43.60739" lon="2.97034">
        <ele>1016.2</ele>
        <time>2026-05-07T11:57:48.000Z</time>
      </trkpt>
      <trkpt lat="43.60739" lon="2.97034">
        <ele>1016.2</ele>
        <time>2026-05-07T11:57:49.000Z</time>
      </trkpt>
      <trkpt lat="43.6074" lon="2.97033">
        <ele>1016.3</ele>
        <time>2026-05-07T11:57:50.000Z</time>
      </trkpt>
      <trkpt lat="43.6074" lon="2.97031">
        <ele>1016.4</ele>
        <time>2026-05-07T11:57:51.000Z</time>
      </trkpt>
      <trkpt lat="43.6074" lon="2.97031">
        <ele>1016</ele>
        <time>2026-05-07T11:57:52.000Z</time>
      </trkpt>
      <trkpt lat="43.6074" lon="2.9703">
        <ele>1015.8</ele>
        <time>2026-05-07T11:57:53.000Z</time>
      </trkpt>
      <trkpt lat="43.60741" lon="2.97029">
        <ele>1015.5</ele>
        <time>2026-05-07T11:57:54.000Z</time>
      </trkpt>
      <trkpt lat="43.60742" lon="2.97029">
        <ele>1015.1</ele>
        <time>2026-05-07T11:57:55.000Z</time>
      </trkpt>
      <trkpt lat="43.60742" lon="2.97028">
        <ele>1014.6</ele>
        <time>2026-05-07T11:57:56.000Z</time>
      </trkpt>
      <trkpt lat="43.60744" lon="2.97028">
        <ele>1014.4</ele>
        <time>2026-05-07T11:57:57.000Z</time>
      </trkpt>
      <trkpt lat="43.60745" lon="2.97027">
        <ele>1014.1</ele>
        <time>2026-05-07T11:57:58.000Z</time>
      </trkpt>
      <trkpt lat="43.60745" lon="2.97025">
        <ele>1014</ele>
        <time>2026-05-07T11:57:59.000Z</time>
      </trkpt>
      <trkpt lat="43.60745" lon="2.97024">
        <ele>1014</ele>
        <time>2026-05-07T11:58:00.000Z</time>
      </trkpt>
      <trkpt lat="43.60745" lon="2.97023">
        <ele>1014</ele>
        <time>2026-05-07T11:58:01.000Z</time>
      </trkpt>
      <trkpt lat="43.60746" lon="2.97023">
        <ele>1014.4</ele>
        <time>2026-05-07T11:58:02.000Z</time>
      </trkpt>
      <trkpt lat="43.60745" lon="2.97021">
        <ele>1014.8</ele>
        <time>2026-05-07T11:58:03.000Z</time>
      </trkpt>
      <trkpt lat="43.60745" lon="2.97019">
        <ele>1014.9</ele>
        <time>2026-05-07T11:58:04.000Z</time>
      </trkpt>
      <trkpt lat="43.60746" lon="2.97017">
        <ele>1014.8</ele>
        <time>2026-05-07T11:58:05.000Z</time>
      </trkpt>
      <trkpt lat="43.60745" lon="2.97017">
        <ele>1014.6</ele>
        <time>2026-05-07T11:58:06.000Z</time>
      </trkpt>
      <trkpt lat="43.60745" lon="2.97018">
        <ele>1013.9</ele>
        <time>2026-05-07T11:58:07.000Z</time>
      </trkpt>
      <trkpt lat="43.60745" lon="2.97018">
        <ele>1013.8</ele>
        <time>2026-05-07T11:58:08.000Z</time>
      </trkpt>
      <trkpt lat="43.60746" lon="2.97018">
        <ele>1013.5</ele>
        <time>2026-05-07T11:58:09.000Z</time>
      </trkpt>
      <trkpt lat="43.60746" lon="2.97018">
        <ele>1013.3</ele>
        <time>2026-05-07T11:58:10.000Z</time>
      </trkpt>
      <trkpt lat="43.60747" lon="2.97018">
        <ele>1013.3</ele>
        <time>2026-05-07T11:58:11.000Z</time>
      </trkpt>
      <trkpt lat="43.60747" lon="2.97018">
        <ele>1013.1</ele>
        <time>2026-05-07T11:58:12.000Z</time>
      </trkpt>
      <trkpt lat="43.60748" lon="2.97018">
        <ele>1012.9</ele>
        <time>2026-05-07T11:58:13.000Z</time>
      </trkpt>
      <trkpt lat="43.60748" lon="2.97018">
        <ele>1012.5</ele>
        <time>2026-05-07T11:58:14.000Z</time>
      </trkpt>
      <trkpt lat="43.60748" lon="2.97018">
        <ele>1012.4</ele>
        <time>2026-05-07T11:58:15.000Z</time>
      </trkpt>
      <trkpt lat="43.60749" lon="2.97017">
        <ele>1012.1</ele>
        <time>2026-05-07T11:58:16.000Z</time>
      </trkpt>
      <trkpt lat="43.60749" lon="2.97015">
        <ele>1012</ele>
        <time>2026-05-07T11:58:17.000Z</time>
      </trkpt>
      <trkpt lat="43.60749" lon="2.97014">
        <ele>1011.9</ele>
        <time>2026-05-07T11:58:18.000Z</time>
      </trkpt>
      <trkpt lat="43.60748" lon="2.97013">
        <ele>1012</ele>
        <time>2026-05-07T11:58:19.000Z</time>
      </trkpt>
      <trkpt lat="43.60748" lon="2.97012">
        <ele>1012</ele>
        <time>2026-05-07T11:58:20.000Z</time>
      </trkpt>
      <trkpt lat="43.60748" lon="2.97012">
        <ele>1011.4</ele>
        <time>2026-05-07T11:58:21.000Z</time>
      </trkpt>
      <trkpt lat="43.60749" lon="2.97011">
        <ele>1011.1</ele>
        <time>2026-05-07T11:58:22.000Z</time>
      </trkpt>
      <trkpt lat="43.6075" lon="2.97011">
        <ele>1010.9</ele>
        <time>2026-05-07T11:58:23.000Z</time>
      </trkpt>
      <trkpt lat="43.6075" lon="2.97011">
        <ele>1010.8</ele>
        <time>2026-05-07T11:58:24.000Z</time>
      </trkpt>
      <trkpt lat="43.60751" lon="2.97012">
        <ele>1010.5</ele>
        <time>2026-05-07T11:58:25.000Z</time>
      </trkpt>
      <trkpt lat="43.60752" lon="2.97011">
        <ele>1010.3</ele>
        <time>2026-05-07T11:58:26.000Z</time>
      </trkpt>
      <trkpt lat="43.60752" lon="2.9701">
        <ele>1010</ele>
        <time>2026-05-07T11:58:27.000Z</time>
      </trkpt>
      <trkpt lat="43.60754" lon="2.97009">
        <ele>1009.9</ele>
        <time>2026-05-07T11:58:28.000Z</time>
      </trkpt>
      <trkpt lat="43.60754" lon="2.97008">
        <ele>1009.9</ele>
        <time>2026-05-07T11:58:29.000Z</time>
      </trkpt>
      <trkpt lat="43.60754" lon="2.97007">
        <ele>1010</ele>
        <time>2026-05-07T11:58:30.000Z</time>
      </trkpt>
      <trkpt lat="43.60755" lon="2.97007">
        <ele>1009.8</ele>
        <time>2026-05-07T11:58:31.000Z</time>
      </trkpt>
      <trkpt lat="43.60755" lon="2.97006">
        <ele>1009.5</ele>
        <time>2026-05-07T11:58:32.000Z</time>
      </trkpt>
      <trkpt lat="43.60756" lon="2.97005">
        <ele>1009.3</ele>
        <time>2026-05-07T11:58:33.000Z</time>
      </trkpt>
      <trkpt lat="43.60757" lon="2.97004">
        <ele>1009</ele>
        <time>2026-05-07T11:58:34.000Z</time>
      </trkpt>
      <trkpt lat="43.60758" lon="2.97004">
        <ele>1008.8</ele>
        <time>2026-05-07T11:58:35.000Z</time>
      </trkpt>
      <trkpt lat="43.60759" lon="2.97003">
        <ele>1008.6</ele>
        <time>2026-05-07T11:58:36.000Z</time>
      </trkpt>
      <trkpt lat="43.60759" lon="2.97003">
        <ele>1008.1</ele>
        <time>2026-05-07T11:58:37.000Z</time>
      </trkpt>
      <trkpt lat="43.6076" lon="2.97002">
        <ele>1007.8</ele>
        <time>2026-05-07T11:58:38.000Z</time>
      </trkpt>
      <trkpt lat="43.60761" lon="2.97002">
        <ele>1007.4</ele>
        <time>2026-05-07T11:58:39.000Z</time>
      </trkpt>
      <trkpt lat="43.60762" lon="2.97002">
        <ele>1006.8</ele>
        <time>2026-05-07T11:58:40.000Z</time>
      </trkpt>
      <trkpt lat="43.60762" lon="2.97001">
        <ele>1006.4</ele>
        <time>2026-05-07T11:58:41.000Z</time>
      </trkpt>
      <trkpt lat="43.60762" lon="2.97001">
        <ele>1006.4</ele>
        <time>2026-05-07T11:58:42.000Z</time>
      </trkpt>
      <trkpt lat="43.60763" lon="2.97001">
        <ele>1006.2</ele>
        <time>2026-05-07T11:58:43.000Z</time>
      </trkpt>
      <trkpt lat="43.60763" lon="2.97001">
        <ele>1006</ele>
        <time>2026-05-07T11:58:44.000Z</time>
      </trkpt>
      <trkpt lat="43.60763" lon="2.97">
        <ele>1005.7</ele>
        <time>2026-05-07T11:58:45.000Z</time>
      </trkpt>
      <trkpt lat="43.60763" lon="2.96999">
        <ele>1005.7</ele>
        <time>2026-05-07T11:58:46.000Z</time>
      </trkpt>
      <trkpt lat="43.60763" lon="2.96998">
        <ele>1006.3</ele>
        <time>2026-05-07T11:58:47.000Z</time>
      </trkpt>
      <trkpt lat="43.60764" lon="2.96997">
        <ele>1006.2</ele>
        <time>2026-05-07T11:58:48.000Z</time>
      </trkpt>
      <trkpt lat="43.60764" lon="2.96997">
        <ele>1006</ele>
        <time>2026-05-07T11:58:49.000Z</time>
      </trkpt>
      <trkpt lat="43.60764" lon="2.96996">
        <ele>1005.7</ele>
        <time>2026-05-07T11:58:50.000Z</time>
      </trkpt>
      <trkpt lat="43.60765" lon="2.96995">
        <ele>1005.4</ele>
        <time>2026-05-07T11:58:51.000Z</time>
      </trkpt>
      <trkpt lat="43.60765" lon="2.96995">
        <ele>1005.4</ele>
        <time>2026-05-07T11:58:52.000Z</time>
      </trkpt>
      <trkpt lat="43.60766" lon="2.96994">
        <ele>1005</ele>
        <time>2026-05-07T11:58:53.000Z</time>
      </trkpt>
      <trkpt lat="43.60768" lon="2.96993">
        <ele>1005.1</ele>
        <time>2026-05-07T11:58:54.000Z</time>
      </trkpt>
      <trkpt lat="43.60768" lon="2.96992">
        <ele>1005</ele>
        <time>2026-05-07T11:58:55.000Z</time>
      </trkpt>
      <trkpt lat="43.60769" lon="2.96992">
        <ele>1005.1</ele>
        <time>2026-05-07T11:58:56.000Z</time>
      </trkpt>
      <trkpt lat="43.60769" lon="2.96991">
        <ele>1005</ele>
        <time>2026-05-07T11:58:57.000Z</time>
      </trkpt>
      <trkpt lat="43.60769" lon="2.96989">
        <ele>1005.2</ele>
        <time>2026-05-07T11:58:58.000Z</time>
      </trkpt>
      <trkpt lat="43.60769" lon="2.96987">
        <ele>1005.2</ele>
        <time>2026-05-07T11:58:59.000Z</time>
      </trkpt>
      <trkpt lat="43.60769" lon="2.96986">
        <ele>1005.2</ele>
        <time>2026-05-07T11:59:00.000Z</time>
      </trkpt>
      <trkpt lat="43.6077" lon="2.96984">
        <ele>1005.1</ele>
        <time>2026-05-07T11:59:01.000Z</time>
      </trkpt>
      <trkpt lat="43.6077" lon="2.96983">
        <ele>1005.4</ele>
        <time>2026-05-07T11:59:02.000Z</time>
      </trkpt>
      <trkpt lat="43.6077" lon="2.96982">
        <ele>1005.7</ele>
        <time>2026-05-07T11:59:03.000Z</time>
      </trkpt>
      <trkpt lat="43.60769" lon="2.96981">
        <ele>1005.5</ele>
        <time>2026-05-07T11:59:04.000Z</time>
      </trkpt>
      <trkpt lat="43.60769" lon="2.96979">
        <ele>1005.4</ele>
        <time>2026-05-07T11:59:05.000Z</time>
      </trkpt>
      <trkpt lat="43.60768" lon="2.96978">
        <ele>1005</ele>
        <time>2026-05-07T11:59:06.000Z</time>
      </trkpt>
      <trkpt lat="43.60768" lon="2.96977">
        <ele>1004.6</ele>
        <time>2026-05-07T11:59:07.000Z</time>
      </trkpt>
      <trkpt lat="43.60768" lon="2.96976">
        <ele>1004.2</ele>
        <time>2026-05-07T11:59:08.000Z</time>
      </trkpt>
      <trkpt lat="43.60769" lon="2.96975">
        <ele>1004</ele>
        <time>2026-05-07T11:59:09.000Z</time>
      </trkpt>
      <trkpt lat="43.60769" lon="2.96974">
        <ele>1003.8</ele>
        <time>2026-05-07T11:59:10.000Z</time>
      </trkpt>
      <trkpt lat="43.6077" lon="2.96972">
        <ele>1003.9</ele>
        <time>2026-05-07T11:59:11.000Z</time>
      </trkpt>
      <trkpt lat="43.6077" lon="2.96971">
        <ele>1004.1</ele>
        <time>2026-05-07T11:59:12.000Z</time>
      </trkpt>
      <trkpt lat="43.6077" lon="2.9697">
        <ele>1004.4</ele>
        <time>2026-05-07T11:59:13.000Z</time>
      </trkpt>
      <trkpt lat="43.60771" lon="2.96969">
        <ele>1004.1</ele>
        <time>2026-05-07T11:59:14.000Z</time>
      </trkpt>
      <trkpt lat="43.60771" lon="2.96969">
        <ele>1004</ele>
        <time>2026-05-07T11:59:15.000Z</time>
      </trkpt>
      <trkpt lat="43.60772" lon="2.96969">
        <ele>1003.7</ele>
        <time>2026-05-07T11:59:16.000Z</time>
      </trkpt>
      <trkpt lat="43.60772" lon="2.96969">
        <ele>1003.7</ele>
        <time>2026-05-07T11:59:17.000Z</time>
      </trkpt>
      <trkpt lat="43.60773" lon="2.96968">
        <ele>1003.5</ele>
        <time>2026-05-07T11:59:18.000Z</time>
      </trkpt>
      <trkpt lat="43.60773" lon="2.96967">
        <ele>1003.1</ele>
        <time>2026-05-07T11:59:19.000Z</time>
      </trkpt>
      <trkpt lat="43.60774" lon="2.96966">
        <ele>1002.7</ele>
        <time>2026-05-07T11:59:20.000Z</time>
      </trkpt>
      <trkpt lat="43.60774" lon="2.96965">
        <ele>1002.6</ele>
        <time>2026-05-07T11:59:21.000Z</time>
      </trkpt>
      <trkpt lat="43.60774" lon="2.96964">
        <ele>1002.4</ele>
        <time>2026-05-07T11:59:22.000Z</time>
      </trkpt>
      <trkpt lat="43.60775" lon="2.96964">
        <ele>1002</ele>
        <time>2026-05-07T11:59:23.000Z</time>
      </trkpt>
      <trkpt lat="43.60775" lon="2.96963">
        <ele>1002.1</ele>
        <time>2026-05-07T11:59:24.000Z</time>
      </trkpt>
      <trkpt lat="43.60776" lon="2.96963">
        <ele>1001.8</ele>
        <time>2026-05-07T11:59:25.000Z</time>
      </trkpt>
      <trkpt lat="43.60777" lon="2.96963">
        <ele>1001.4</ele>
        <time>2026-05-07T11:59:26.000Z</time>
      </trkpt>
      <trkpt lat="43.60779" lon="2.96962">
        <ele>1001.3</ele>
        <time>2026-05-07T11:59:27.000Z</time>
      </trkpt>
      <trkpt lat="43.6078" lon="2.96962">
        <ele>1001.1</ele>
        <time>2026-05-07T11:59:28.000Z</time>
      </trkpt>
      <trkpt lat="43.60781" lon="2.96961">
        <ele>1001</ele>
        <time>2026-05-07T11:59:29.000Z</time>
      </trkpt>
      <trkpt lat="43.60782" lon="2.9696">
        <ele>1000.5</ele>
        <time>2026-05-07T11:59:30.000Z</time>
      </trkpt>
      <trkpt lat="43.60783" lon="2.96959">
        <ele>1000.2</ele>
        <time>2026-05-07T11:59:31.000Z</time>
      </trkpt>
      <trkpt lat="43.60784" lon="2.96958">
        <ele>999.7</ele>
        <time>2026-05-07T11:59:32.000Z</time>
      </trkpt>
      <trkpt lat="43.60785" lon="2.96957">
        <ele>998.8</ele>
        <time>2026-05-07T11:59:33.000Z</time>
      </trkpt>
      <trkpt lat="43.60785" lon="2.96957">
        <ele>998.3</ele>
        <time>2026-05-07T11:59:34.000Z</time>
      </trkpt>
      <trkpt lat="43.60786" lon="2.96956">
        <ele>997.8</ele>
        <time>2026-05-07T11:59:35.000Z</time>
      </trkpt>
      <trkpt lat="43.60786" lon="2.96955">
        <ele>997.6</ele>
        <time>2026-05-07T11:59:36.000Z</time>
      </trkpt>
      <trkpt lat="43.60786" lon="2.96954">
        <ele>997.3</ele>
        <time>2026-05-07T11:59:37.000Z</time>
      </trkpt>
      <trkpt lat="43.60787" lon="2.96954">
        <ele>997.2</ele>
        <time>2026-05-07T11:59:38.000Z</time>
      </trkpt>
      <trkpt lat="43.60787" lon="2.96953">
        <ele>996.9</ele>
        <time>2026-05-07T11:59:39.000Z</time>
      </trkpt>
      <trkpt lat="43.60787" lon="2.96953">
        <ele>996.8</ele>
        <time>2026-05-07T11:59:40.000Z</time>
      </trkpt>
      <trkpt lat="43.60788" lon="2.96952">
        <ele>996.6</ele>
        <time>2026-05-07T11:59:41.000Z</time>
      </trkpt>
      <trkpt lat="43.60789" lon="2.96951">
        <ele>996.6</ele>
        <time>2026-05-07T11:59:42.000Z</time>
      </trkpt>
      <trkpt lat="43.60789" lon="2.96949">
        <ele>996.3</ele>
        <time>2026-05-07T11:59:43.000Z</time>
      </trkpt>
      <trkpt lat="43.6079" lon="2.96948">
        <ele>995.9</ele>
        <time>2026-05-07T11:59:44.000Z</time>
      </trkpt>
      <trkpt lat="43.6079" lon="2.96947">
        <ele>996</ele>
        <time>2026-05-07T11:59:45.000Z</time>
      </trkpt>
      <trkpt lat="43.60791" lon="2.96946">
        <ele>996.1</ele>
        <time>2026-05-07T11:59:46.000Z</time>
      </trkpt>
      <trkpt lat="43.60791" lon="2.96944">
        <ele>995.9</ele>
        <time>2026-05-07T11:59:47.000Z</time>
      </trkpt>
      <trkpt lat="43.60792" lon="2.96943">
        <ele>995.6</ele>
        <time>2026-05-07T11:59:48.000Z</time>
      </trkpt>
      <trkpt lat="43.60793" lon="2.96942">
        <ele>995.6</ele>
        <time>2026-05-07T11:59:49.000Z</time>
      </trkpt>
      <trkpt lat="43.60793" lon="2.96941">
        <ele>995.3</ele>
        <time>2026-05-07T11:59:50.000Z</time>
      </trkpt>
      <trkpt lat="43.60794" lon="2.9694">
        <ele>995.1</ele>
        <time>2026-05-07T11:59:51.000Z</time>
      </trkpt>
      <trkpt lat="43.60795" lon="2.96939">
        <ele>995.2</ele>
        <time>2026-05-07T11:59:52.000Z</time>
      </trkpt>
      <trkpt lat="43.60795" lon="2.96939">
        <ele>995.2</ele>
        <time>2026-05-07T11:59:53.000Z</time>
      </trkpt>
      <trkpt lat="43.60797" lon="2.96938">
        <ele>995.5</ele>
        <time>2026-05-07T11:59:54.000Z</time>
      </trkpt>
      <trkpt lat="43.60798" lon="2.96936">
        <ele>995.3</ele>
        <time>2026-05-07T11:59:55.000Z</time>
      </trkpt>
      <trkpt lat="43.60798" lon="2.96935">
        <ele>995.1</ele>
        <time>2026-05-07T11:59:56.000Z</time>
      </trkpt>
      <trkpt lat="43.60799" lon="2.96934">
        <ele>995.1</ele>
        <time>2026-05-07T11:59:57.000Z</time>
      </trkpt>
      <trkpt lat="43.60799" lon="2.96933">
        <ele>995.1</ele>
        <time>2026-05-07T11:59:58.000Z</time>
      </trkpt>
      <trkpt lat="43.608" lon="2.96932">
        <ele>995.1</ele>
        <time>2026-05-07T11:59:59.000Z</time>
      </trkpt>
      <trkpt lat="43.60801" lon="2.96931">
        <ele>995</ele>
        <time>2026-05-07T12:00:00.000Z</time>
      </trkpt>
      <trkpt lat="43.60801" lon="2.9693">
        <ele>995</ele>
        <time>2026-05-07T12:00:01.000Z</time>
      </trkpt>
      <trkpt lat="43.60802" lon="2.96929">
        <ele>995.1</ele>
        <time>2026-05-07T12:00:02.000Z</time>
      </trkpt>
      <trkpt lat="43.60802" lon="2.96928">
        <ele>995.2</ele>
        <time>2026-05-07T12:00:03.000Z</time>
      </trkpt>
      <trkpt lat="43.60802" lon="2.96927">
        <ele>994.9</ele>
        <time>2026-05-07T12:00:04.000Z</time>
      </trkpt>
      <trkpt lat="43.60801" lon="2.96926">
        <ele>994.6</ele>
        <time>2026-05-07T12:00:05.000Z</time>
      </trkpt>
      <trkpt lat="43.60801" lon="2.96926">
        <ele>994.5</ele>
        <time>2026-05-07T12:00:06.000Z</time>
      </trkpt>
      <trkpt lat="43.608" lon="2.96926">
        <ele>994.5</ele>
        <time>2026-05-07T12:00:07.000Z</time>
      </trkpt>
      <trkpt lat="43.608" lon="2.96926">
        <ele>994.7</ele>
        <time>2026-05-07T12:00:08.000Z</time>
      </trkpt>
      <trkpt lat="43.608" lon="2.96926">
        <ele>994.8</ele>
        <time>2026-05-07T12:00:09.000Z</time>
      </trkpt>
      <trkpt lat="43.608" lon="2.96926">
        <ele>995.2</ele>
        <time>2026-05-07T12:00:10.000Z</time>
      </trkpt>
      <trkpt lat="43.608" lon="2.96926">
        <ele>995.7</ele>
        <time>2026-05-07T12:00:11.000Z</time>
      </trkpt>
      <trkpt lat="43.608" lon="2.96926">
        <ele>996.2</ele>
        <time>2026-05-07T12:00:12.000Z</time>
      </trkpt>
      <trkpt lat="43.608" lon="2.96926">
        <ele>996.8</ele>
        <time>2026-05-07T12:00:13.000Z</time>
      </trkpt>
      <trkpt lat="43.608" lon="2.96926">
        <ele>997.3</ele>
        <time>2026-05-07T12:00:14.000Z</time>
      </trkpt>
      <trkpt lat="43.608" lon="2.96927">
        <ele>997.8</ele>
        <time>2026-05-07T12:00:15.000Z</time>
      </trkpt>
      <trkpt lat="43.608" lon="2.96927">
        <ele>998.1</ele>
        <time>2026-05-07T12:00:16.000Z</time>
      </trkpt>
      <trkpt lat="43.608" lon="2.96927">
        <ele>998.2</ele>
        <time>2026-05-07T12:00:17.000Z</time>
      </trkpt>
      <trkpt lat="43.608" lon="2.96926">
        <ele>998.2</ele>
        <time>2026-05-07T12:00:18.000Z</time>
      </trkpt>
      <trkpt lat="43.608" lon="2.96926">
        <ele>998</ele>
        <time>2026-05-07T12:00:19.000Z</time>
      </trkpt>
      <trkpt lat="43.608" lon="2.96926">
        <ele>997.9</ele>
        <time>2026-05-07T12:00:20.000Z</time>
      </trkpt>
      <trkpt lat="43.608" lon="2.96926">
        <ele>998</ele>
        <time>2026-05-07T12:00:21.000Z</time>
      </trkpt>
      <trkpt lat="43.608" lon="2.96926">
        <ele>998.1</ele>
        <time>2026-05-07T12:00:22.000Z</time>
      </trkpt>
      <trkpt lat="43.608" lon="2.96926">
        <ele>998.2</ele>
        <time>2026-05-07T12:00:23.000Z</time>
      </trkpt>
      <trkpt lat="43.608" lon="2.96926">
        <ele>998.3</ele>
        <time>2026-05-07T12:00:24.000Z</time>
      </trkpt>
      <trkpt lat="43.608" lon="2.96926">
        <ele>998.4</ele>
        <time>2026-05-07T12:00:25.000Z</time>
      </trkpt>
      <trkpt lat="43.608" lon="2.96926">
        <ele>998.5</ele>
        <time>2026-05-07T12:00:26.000Z</time>
      </trkpt>
      <trkpt lat="43.608" lon="2.96926">
        <ele>998.7</ele>
        <time>2026-05-07T12:00:27.000Z</time>
      </trkpt>
      <trkpt lat="43.608" lon="2.96926">
        <ele>999.1</ele>
        <time>2026-05-07T12:00:28.000Z</time>
      </trkpt>
      <trkpt lat="43.608" lon="2.96926">
        <ele>999.6</ele>
        <time>2026-05-07T12:00:29.000Z</time>
      </trkpt>
      <trkpt lat="43.608" lon="2.96926">
        <ele>999.9</ele>
        <time>2026-05-07T12:00:30.000Z</time>
      </trkpt>
      <trkpt lat="43.608" lon="2.96926">
        <ele>1000.2</ele>
        <time>2026-05-07T12:00:31.000Z</time>
      </trkpt>
      <trkpt lat="43.608" lon="2.96926">
        <ele>1000.2</ele>
        <time>2026-05-07T12:00:32.000Z</time>
      </trkpt>
      <trkpt lat="43.608" lon="2.96926">
        <ele>1000.7</ele>
        <time>2026-05-07T12:00:33.000Z</time>
      </trkpt>
      <trkpt lat="43.608" lon="2.96926">
        <ele>1000.9</ele>
        <time>2026-05-07T12:00:34.000Z</time>
      </trkpt>
      <trkpt lat="43.608" lon="2.96926">
        <ele>1000.9</ele>
        <time>2026-05-07T12:00:35.000Z</time>
      </trkpt>
      <trkpt lat="43.608" lon="2.96926">
        <ele>1001</ele>
        <time>2026-05-07T12:00:36.000Z</time>
      </trkpt>
      <trkpt lat="43.608" lon="2.96926">
        <ele>1000.9</ele>
        <time>2026-05-07T12:00:37.000Z</time>
      </trkpt>
      <trkpt lat="43.608" lon="2.96926">
        <ele>1000.6</ele>
        <time>2026-05-07T12:00:38.000Z</time>
      </trkpt>
      <trkpt lat="43.608" lon="2.96926">
        <ele>1000.3</ele>
        <time>2026-05-07T12:00:39.000Z</time>
      </trkpt>
      <trkpt lat="43.60801" lon="2.96926">
        <ele>1000.1</ele>
        <time>2026-05-07T12:00:40.000Z</time>
      </trkpt>
      <trkpt lat="43.60801" lon="2.96926">
        <ele>999.9</ele>
        <time>2026-05-07T12:00:41.000Z</time>
      </trkpt>
      <trkpt lat="43.60801" lon="2.96926">
        <ele>999.8</ele>
        <time>2026-05-07T12:00:42.000Z</time>
      </trkpt>
      <trkpt lat="43.60801" lon="2.96926">
        <ele>999.8</ele>
        <time>2026-05-07T12:00:43.000Z</time>
      </trkpt>
      <trkpt lat="43.60801" lon="2.96926">
        <ele>999.9</ele>
        <time>2026-05-07T12:00:44.000Z</time>
      </trkpt>
      <trkpt lat="43.60801" lon="2.96925">
        <ele>1000.1</ele>
        <time>2026-05-07T12:00:45.000Z</time>
      </trkpt>
      <trkpt lat="43.60801" lon="2.96925">
        <ele>1000.1</ele>
        <time>2026-05-07T12:00:46.000Z</time>
      </trkpt>
      <trkpt lat="43.60801" lon="2.96925">
        <ele>1000.1</ele>
        <time>2026-05-07T12:00:47.000Z</time>
      </trkpt>
      <trkpt lat="43.60801" lon="2.96925">
        <ele>1000</ele>
        <time>2026-05-07T12:00:48.000Z</time>
      </trkpt>
      <trkpt lat="43.60801" lon="2.96925">
        <ele>1000</ele>
        <time>2026-05-07T12:00:49.000Z</time>
      </trkpt>
      <trkpt lat="43.60801" lon="2.96925">
        <ele>1000.2</ele>
        <time>2026-05-07T12:00:50.000Z</time>
      </trkpt>
      <trkpt lat="43.60801" lon="2.96925">
        <ele>1000.3</ele>
        <time>2026-05-07T12:00:51.000Z</time>
      </trkpt>
      <trkpt lat="43.60801" lon="2.96925">
        <ele>1000.4</ele>
        <time>2026-05-07T12:00:52.000Z</time>
      </trkpt>
      <trkpt lat="43.60801" lon="2.96925">
        <ele>1000.6</ele>
        <time>2026-05-07T12:00:53.000Z</time>
      </trkpt>
      <trkpt lat="43.60801" lon="2.96925">
        <ele>1000.7</ele>
        <time>2026-05-07T12:00:54.000Z</time>
      </trkpt>
      <trkpt lat="43.60801" lon="2.96925">
        <ele>1000.8</ele>
        <time>2026-05-07T12:00:55.000Z</time>
      </trkpt>
      <trkpt lat="43.60801" lon="2.96925">
        <ele>1000.8</ele>
        <time>2026-05-07T12:00:56.000Z</time>
      </trkpt>
      <trkpt lat="43.60801" lon="2.96925">
        <ele>1000.7</ele>
        <time>2026-05-07T12:00:57.000Z</time>
      </trkpt>
      <trkpt lat="43.60801" lon="2.96925">
        <ele>1000.8</ele>
        <time>2026-05-07T12:00:58.000Z</time>
      </trkpt>
      <trkpt lat="43.60801" lon="2.96925">
        <ele>1000.8</ele>
        <time>2026-05-07T12:00:59.000Z</time>
      </trkpt>
      <trkpt lat="43.60801" lon="2.96925">
        <ele>1000.9</ele>
        <time>2026-05-07T12:01:00.000Z</time>
      </trkpt>
      <trkpt lat="43.60801" lon="2.96925">
        <ele>1000.9</ele>
        <time>2026-05-07T12:01:01.000Z</time>
      </trkpt>
      <trkpt lat="43.60801" lon="2.96925">
        <ele>1000.8</ele>
        <time>2026-05-07T12:01:02.000Z</time>
      </trkpt>
      <trkpt lat="43.60801" lon="2.96925">
        <ele>1000.3</ele>
        <time>2026-05-07T12:01:03.000Z</time>
      </trkpt>
      <trkpt lat="43.60801" lon="2.96925">
        <ele>1000</ele>
        <time>2026-05-07T12:01:04.000Z</time>
      </trkpt>
      <trkpt lat="43.60801" lon="2.96925">
        <ele>999.8</ele>
        <time>2026-05-07T12:01:05.000Z</time>
      </trkpt>
      <trkpt lat="43.60801" lon="2.96925">
        <ele>999.8</ele>
        <time>2026-05-07T12:01:06.000Z</time>
      </trkpt>
      <trkpt lat="43.60801" lon="2.96925">
        <ele>999.6</ele>
        <time>2026-05-07T12:01:07.000Z</time>
      </trkpt>
      <trkpt lat="43.60801" lon="2.96925">
        <ele>999.7</ele>
        <time>2026-05-07T12:01:08.000Z</time>
      </trkpt>
      <trkpt lat="43.60801" lon="2.96925">
        <ele>1000</ele>
        <time>2026-05-07T12:01:09.000Z</time>
      </trkpt>
      <trkpt lat="43.60801" lon="2.96925">
        <ele>1000.1</ele>
        <time>2026-05-07T12:01:10.000Z</time>
      </trkpt>
      <trkpt lat="43.60801" lon="2.96925">
        <ele>1000.2</ele>
        <time>2026-05-07T12:01:11.000Z</time>
      </trkpt>
      <trkpt lat="43.60801" lon="2.96925">
        <ele>1000</ele>
        <time>2026-05-07T12:01:12.000Z</time>
      </trkpt>
      <trkpt lat="43.60801" lon="2.96925">
        <ele>999.8</ele>
        <time>2026-05-07T12:01:13.000Z</time>
      </trkpt>
      <trkpt lat="43.60801" lon="2.96925">
        <ele>999.7</ele>
        <time>2026-05-07T12:01:14.000Z</time>
      </trkpt>
      <trkpt lat="43.60801" lon="2.96925">
        <ele>999.7</ele>
        <time>2026-05-07T12:01:15.000Z</time>
      </trkpt>
      <trkpt lat="43.60801" lon="2.96925">
        <ele>999.8</ele>
        <time>2026-05-07T12:01:16.000Z</time>
      </trkpt>
      <trkpt lat="43.60801" lon="2.96925">
        <ele>999.6</ele>
        <time>2026-05-07T12:01:17.000Z</time>
      </trkpt>
      <trkpt lat="43.60801" lon="2.96925">
        <ele>999.4</ele>
        <time>2026-05-07T12:01:18.000Z</time>
      </trkpt>
      <trkpt lat="43.608" lon="2.96925">
        <ele>999</ele>
        <time>2026-05-07T12:01:19.000Z</time>
      </trkpt>
      <trkpt lat="43.608" lon="2.96926">
        <ele>998.9</ele>
        <time>2026-05-07T12:01:20.000Z</time>
      </trkpt>
      <trkpt lat="43.608" lon="2.96926">
        <ele>998.9</ele>
        <time>2026-05-07T12:01:21.000Z</time>
      </trkpt>
      <trkpt lat="43.608" lon="2.96926">
        <ele>998.8</ele>
        <time>2026-05-07T12:01:22.000Z</time>
      </trkpt>
      <trkpt lat="43.608" lon="2.96926">
        <ele>998.6</ele>
        <time>2026-05-07T12:01:23.000Z</time>
      </trkpt>
      <trkpt lat="43.608" lon="2.96926">
        <ele>998.6</ele>
        <time>2026-05-07T12:01:24.000Z</time>
      </trkpt>
      <trkpt lat="43.60801" lon="2.96926">
        <ele>998.5</ele>
        <time>2026-05-07T12:01:25.000Z</time>
      </trkpt>
      <trkpt lat="43.608" lon="2.96925">
        <ele>998.7</ele>
        <time>2026-05-07T12:01:26.000Z</time>
      </trkpt>
      <trkpt lat="43.60799" lon="2.96924">
        <ele>998.9</ele>
        <time>2026-05-07T12:01:27.000Z</time>
      </trkpt>
      <trkpt lat="43.60798" lon="2.96923">
        <ele>999.2</ele>
        <time>2026-05-07T12:01:28.000Z</time>
      </trkpt>
      <trkpt lat="43.60798" lon="2.96923">
        <ele>999.5</ele>
        <time>2026-05-07T12:01:29.000Z</time>
      </trkpt>
      <trkpt lat="43.60798" lon="2.96923">
        <ele>999.6</ele>
        <time>2026-05-07T12:01:30.000Z</time>
      </trkpt>
      <trkpt lat="43.60798" lon="2.96922">
        <ele>999.7</ele>
        <time>2026-05-07T12:01:31.000Z</time>
      </trkpt>
      <trkpt lat="43.60798" lon="2.96923">
        <ele>999.7</ele>
        <time>2026-05-07T12:01:32.000Z</time>
      </trkpt>
      <trkpt lat="43.60798" lon="2.96923">
        <ele>999.6</ele>
        <time>2026-05-07T12:01:33.000Z</time>
      </trkpt>
      <trkpt lat="43.60799" lon="2.96923">
        <ele>999.8</ele>
        <time>2026-05-07T12:01:34.000Z</time>
      </trkpt>
      <trkpt lat="43.60799" lon="2.96924">
        <ele>999.5</ele>
        <time>2026-05-07T12:01:35.000Z</time>
      </trkpt>
      <trkpt lat="43.60799" lon="2.96924">
        <ele>999.5</ele>
        <time>2026-05-07T12:01:36.000Z</time>
      </trkpt>
      <trkpt lat="43.60799" lon="2.96923">
        <ele>998.8</ele>
        <time>2026-05-07T12:01:37.000Z</time>
      </trkpt>
      <trkpt lat="43.60799" lon="2.96923">
        <ele>998.8</ele>
        <time>2026-05-07T12:01:38.000Z</time>
      </trkpt>
      <trkpt lat="43.60799" lon="2.96923">
        <ele>998.8</ele>
        <time>2026-05-07T12:01:39.000Z</time>
      </trkpt>
      <trkpt lat="43.60799" lon="2.96923">
        <ele>998.7</ele>
        <time>2026-05-07T12:01:40.000Z</time>
      </trkpt>
      <trkpt lat="43.60799" lon="2.96923">
        <ele>998.6</ele>
        <time>2026-05-07T12:01:41.000Z</time>
      </trkpt>
      <trkpt lat="43.60799" lon="2.96923">
        <ele>998.4</ele>
        <time>2026-05-07T12:01:42.000Z</time>
      </trkpt>
      <trkpt lat="43.60799" lon="2.96923">
        <ele>998.3</ele>
        <time>2026-05-07T12:01:43.000Z</time>
      </trkpt>
      <trkpt lat="43.60799" lon="2.96923">
        <ele>998</ele>
        <time>2026-05-07T12:01:44.000Z</time>
      </trkpt>
      <trkpt lat="43.60799" lon="2.96923">
        <ele>997.8</ele>
        <time>2026-05-07T12:01:45.000Z</time>
      </trkpt>
      <trkpt lat="43.60799" lon="2.96923">
        <ele>997.7</ele>
        <time>2026-05-07T12:01:46.000Z</time>
      </trkpt>
      <trkpt lat="43.60799" lon="2.96923">
        <ele>997.6</ele>
        <time>2026-05-07T12:01:47.000Z</time>
      </trkpt>
      <trkpt lat="43.60799" lon="2.96923">
        <ele>997.6</ele>
        <time>2026-05-07T12:01:48.000Z</time>
      </trkpt>
      <trkpt lat="43.608" lon="2.96923">
        <ele>997.6</ele>
        <time>2026-05-07T12:01:49.000Z</time>
      </trkpt>
      <trkpt lat="43.608" lon="2.96923">
        <ele>997.5</ele>
        <time>2026-05-07T12:01:50.000Z</time>
      </trkpt>
      <trkpt lat="43.608" lon="2.96923">
        <ele>997.5</ele>
        <time>2026-05-07T12:01:51.000Z</time>
      </trkpt>
      <trkpt lat="43.608" lon="2.96923">
        <ele>997.6</ele>
        <time>2026-05-07T12:01:52.000Z</time>
      </trkpt>
      <trkpt lat="43.608" lon="2.96923">
        <ele>997.4</ele>
        <time>2026-05-07T12:01:53.000Z</time>
      </trkpt>
      <trkpt lat="43.608" lon="2.96923">
        <ele>997.2</ele>
        <time>2026-05-07T12:01:54.000Z</time>
      </trkpt>
      <trkpt lat="43.608" lon="2.96923">
        <ele>996.8</ele>
        <time>2026-05-07T12:01:55.000Z</time>
      </trkpt>
      <trkpt lat="43.608" lon="2.96923">
        <ele>996.2</ele>
        <time>2026-05-07T12:01:56.000Z</time>
      </trkpt>
      <trkpt lat="43.608" lon="2.96923">
        <ele>996</ele>
        <time>2026-05-07T12:01:57.000Z</time>
      </trkpt>
      <trkpt lat="43.608" lon="2.96923">
        <ele>995.9</ele>
        <time>2026-05-07T12:01:58.000Z</time>
      </trkpt>
      <trkpt lat="43.608" lon="2.96924">
        <ele>995.8</ele>
        <time>2026-05-07T12:01:59.000Z</time>
      </trkpt>
      <trkpt lat="43.608" lon="2.96924">
        <ele>996</ele>
        <time>2026-05-07T12:02:00.000Z</time>
      </trkpt>
      <trkpt lat="43.608" lon="2.96924">
        <ele>995.9</ele>
        <time>2026-05-07T12:02:01.000Z</time>
      </trkpt>
      <trkpt lat="43.608" lon="2.96924">
        <ele>995.8</ele>
        <time>2026-05-07T12:02:02.000Z</time>
      </trkpt>
      <trkpt lat="43.608" lon="2.96924">
        <ele>995.8</ele>
        <time>2026-05-07T12:02:03.000Z</time>
      </trkpt>
      <trkpt lat="43.608" lon="2.96924">
        <ele>995.9</ele>
        <time>2026-05-07T12:02:04.000Z</time>
      </trkpt>
      <trkpt lat="43.608" lon="2.96924">
        <ele>995.9</ele>
        <time>2026-05-07T12:02:05.000Z</time>
      </trkpt>
      <trkpt lat="43.608" lon="2.96924">
        <ele>996.1</ele>
        <time>2026-05-07T12:02:06.000Z</time>
      </trkpt>
      <trkpt lat="43.608" lon="2.96924">
        <ele>996.2</ele>
        <time>2026-05-07T12:02:07.000Z</time>
      </trkpt>
      <trkpt lat="43.608" lon="2.96924">
        <ele>996.4</ele>
        <time>2026-05-07T12:02:08.000Z</time>
      </trkpt>
      <trkpt lat="43.608" lon="2.96924">
        <ele>996.3</ele>
        <time>2026-05-07T12:02:09.000Z</time>
      </trkpt>
      <trkpt lat="43.608" lon="2.96924">
        <ele>996.2</ele>
        <time>2026-05-07T12:02:10.000Z</time>
      </trkpt>
      <trkpt lat="43.608" lon="2.96924">
        <ele>996.2</ele>
        <time>2026-05-07T12:02:11.000Z</time>
      </trkpt>
      <trkpt lat="43.608" lon="2.96924">
        <ele>996</ele>
        <time>2026-05-07T12:02:12.000Z</time>
      </trkpt>
      <trkpt lat="43.608" lon="2.96924">
        <ele>995.9</ele>
        <time>2026-05-07T12:02:13.000Z</time>
      </trkpt>
      <trkpt lat="43.608" lon="2.96924">
        <ele>996</ele>
        <time>2026-05-07T12:02:14.000Z</time>
      </trkpt>
      <trkpt lat="43.608" lon="2.96924">
        <ele>995.9</ele>
        <time>2026-05-07T12:02:15.000Z</time>
      </trkpt>
      <trkpt lat="43.608" lon="2.96924">
        <ele>996.1</ele>
        <time>2026-05-07T12:02:16.000Z</time>
      </trkpt>
      <trkpt lat="43.608" lon="2.96924">
        <ele>996.1</ele>
        <time>2026-05-07T12:02:17.000Z</time>
      </trkpt>
      <trkpt lat="43.608" lon="2.96924">
        <ele>997.4</ele>
        <time>2026-05-07T12:02:18.000Z</time>
      </trkpt>
      <trkpt lat="43.608" lon="2.96924">
        <ele>997.6</ele>
        <time>2026-05-07T12:02:19.000Z</time>
      </trkpt>
      <trkpt lat="43.608" lon="2.96924">
        <ele>997.9</ele>
        <time>2026-05-07T12:02:20.000Z</time>
      </trkpt>
      <trkpt lat="43.608" lon="2.96924">
        <ele>998.2</ele>
        <time>2026-05-07T12:02:21.000Z</time>
      </trkpt>
      <trkpt lat="43.608" lon="2.96924">
        <ele>998.2</ele>
        <time>2026-05-07T12:02:22.000Z</time>
      </trkpt>
      <trkpt lat="43.608" lon="2.96924">
        <ele>998</ele>
        <time>2026-05-07T12:02:23.000Z</time>
      </trkpt>
      <trkpt lat="43.608" lon="2.96924">
        <ele>998</ele>
        <time>2026-05-07T12:02:24.000Z</time>
      </trkpt>
      <trkpt lat="43.608" lon="2.96924">
        <ele>998.5</ele>
        <time>2026-05-07T12:02:25.000Z</time>
      </trkpt>
      <trkpt lat="43.608" lon="2.96924">
        <ele>998.9</ele>
        <time>2026-05-07T12:02:26.000Z</time>
      </trkpt>
      <trkpt lat="43.608" lon="2.96924">
        <ele>999.3</ele>
        <time>2026-05-07T12:02:27.000Z</time>
      </trkpt>
      <trkpt lat="43.608" lon="2.96924">
        <ele>999.6</ele>
        <time>2026-05-07T12:02:28.999Z</time>
      </trkpt>
      <trkpt lat="43.608" lon="2.96924">
        <ele>999.7</ele>
        <time>2026-05-07T12:02:29.999Z</time>
      </trkpt>
      <trkpt lat="43.608" lon="2.96924">
        <ele>999.7</ele>
        <time>2026-05-07T12:02:30.999Z</time>
      </trkpt>
      <trkpt lat="43.608" lon="2.96924">
        <ele>999.9</ele>
        <time>2026-05-07T12:02:31.999Z</time>
      </trkpt>
      <trkpt lat="43.608" lon="2.96924">
        <ele>1000</ele>
        <time>2026-05-07T12:02:32.999Z</time>
      </trkpt>
      <trkpt lat="43.608" lon="2.96924">
        <ele>1000.2</ele>
        <time>2026-05-07T12:02:33.999Z</time>
      </trkpt>
      <trkpt lat="43.608" lon="2.96924">
        <ele>1000.1</ele>
        <time>2026-05-07T12:02:34.999Z</time>
      </trkpt>
      <trkpt lat="43.608" lon="2.96924">
        <ele>1000</ele>
        <time>2026-05-07T12:02:35.999Z</time>
      </trkpt>
      <trkpt lat="43.608" lon="2.96924">
        <ele>999.9</ele>
        <time>2026-05-07T12:02:36.999Z</time>
      </trkpt>
      <trkpt lat="43.608" lon="2.96924">
        <ele>999.7</ele>
        <time>2026-05-07T12:02:37.999Z</time>
      </trkpt>
      <trkpt lat="43.608" lon="2.96924">
        <ele>999.5</ele>
        <time>2026-05-07T12:02:38.999Z</time>
      </trkpt>
      <trkpt lat="43.608" lon="2.96924">
        <ele>999.4</ele>
        <time>2026-05-07T12:02:39.999Z</time>
      </trkpt>
      <trkpt lat="43.608" lon="2.96923">
        <ele>999.2</ele>
        <time>2026-05-07T12:02:40.999Z</time>
      </trkpt>
      <trkpt lat="43.608" lon="2.96923">
        <ele>999.1</ele>
        <time>2026-05-07T12:02:41.999Z</time>
      </trkpt>
      <trkpt lat="43.608" lon="2.96923">
        <ele>999</ele>
        <time>2026-05-07T12:02:42.999Z</time>
      </trkpt>
      <trkpt lat="43.608" lon="2.96923">
        <ele>999</ele>
        <time>2026-05-07T12:02:43.999Z</time>
      </trkpt>
      <trkpt lat="43.608" lon="2.96922">
        <ele>998.8</ele>
        <time>2026-05-07T12:02:44.999Z</time>
      </trkpt>
      <trkpt lat="43.608" lon="2.96921">
        <ele>999</ele>
        <time>2026-05-07T12:02:45.999Z</time>
      </trkpt>
      <trkpt lat="43.608" lon="2.96921">
        <ele>998.8</ele>
        <time>2026-05-07T12:02:46.999Z</time>
      </trkpt>
      <trkpt lat="43.608" lon="2.96921">
        <ele>998.7</ele>
        <time>2026-05-07T12:02:47.999Z</time>
      </trkpt>
      <trkpt lat="43.608" lon="2.96921">
        <ele>998.4</ele>
        <time>2026-05-07T12:02:48.999Z</time>
      </trkpt>
      <trkpt lat="43.608" lon="2.9692">
        <ele>998.3</ele>
        <time>2026-05-07T12:02:49.999Z</time>
      </trkpt>
      <trkpt lat="43.60799" lon="2.96919">
        <ele>998.1</ele>
        <time>2026-05-07T12:02:50.999Z</time>
      </trkpt>
      <trkpt lat="43.608" lon="2.96919">
        <ele>997.7</ele>
        <time>2026-05-07T12:02:51.999Z</time>
      </trkpt>
      <trkpt lat="43.608" lon="2.96918">
        <ele>997.5</ele>
        <time>2026-05-07T12:02:52.999Z</time>
      </trkpt>
      <trkpt lat="43.608" lon="2.96918">
        <ele>997.1</ele>
        <time>2026-05-07T12:02:53.999Z</time>
      </trkpt>
      <trkpt lat="43.60799" lon="2.96917">
        <ele>997.1</ele>
        <time>2026-05-07T12:02:54.999Z</time>
      </trkpt>
      <trkpt lat="43.60799" lon="2.96916">
        <ele>997</ele>
        <time>2026-05-07T12:02:55.999Z</time>
      </trkpt>
      <trkpt lat="43.60798" lon="2.96915">
        <ele>997</ele>
        <time>2026-05-07T12:02:56.999Z</time>
      </trkpt>
      <trkpt lat="43.60798" lon="2.96915">
        <ele>997</ele>
        <time>2026-05-07T12:02:57.999Z</time>
      </trkpt>
      <trkpt lat="43.60797" lon="2.96914">
        <ele>996.9</ele>
        <time>2026-05-07T12:02:58.999Z</time>
      </trkpt>
      <trkpt lat="43.60796" lon="2.96913">
        <ele>997</ele>
        <time>2026-05-07T12:02:59.999Z</time>
      </trkpt>
      <trkpt lat="43.60796" lon="2.96913">
        <ele>996.8</ele>
        <time>2026-05-07T12:03:00.999Z</time>
      </trkpt>
      <trkpt lat="43.60796" lon="2.96913">
        <ele>996.8</ele>
        <time>2026-05-07T12:03:01.999Z</time>
      </trkpt>
      <trkpt lat="43.60795" lon="2.96912">
        <ele>996.6</ele>
        <time>2026-05-07T12:03:02.999Z</time>
      </trkpt>
      <trkpt lat="43.60795" lon="2.96912">
        <ele>996.6</ele>
        <time>2026-05-07T12:03:03.999Z</time>
      </trkpt>
      <trkpt lat="43.60794" lon="2.96911">
        <ele>996.2</ele>
        <time>2026-05-07T12:03:04.999Z</time>
      </trkpt>
      <trkpt lat="43.60794" lon="2.9691">
        <ele>996</ele>
        <time>2026-05-07T12:03:05.999Z</time>
      </trkpt>
      <trkpt lat="43.60794" lon="2.96909">
        <ele>995.8</ele>
        <time>2026-05-07T12:03:06.999Z</time>
      </trkpt>
      <trkpt lat="43.60794" lon="2.96909">
        <ele>995.6</ele>
        <time>2026-05-07T12:03:07.999Z</time>
      </trkpt>
      <trkpt lat="43.60794" lon="2.96909">
        <ele>995.3</ele>
        <time>2026-05-07T12:03:08.999Z</time>
      </trkpt>
      <trkpt lat="43.60794" lon="2.96909">
        <ele>995.2</ele>
        <time>2026-05-07T12:03:09.999Z</time>
      </trkpt>
      <trkpt lat="43.60794" lon="2.96908">
        <ele>995</ele>
        <time>2026-05-07T12:03:10.999Z</time>
      </trkpt>
      <trkpt lat="43.60794" lon="2.96908">
        <ele>995</ele>
        <time>2026-05-07T12:03:11.999Z</time>
      </trkpt>
      <trkpt lat="43.60793" lon="2.96907">
        <ele>994.8</ele>
        <time>2026-05-07T12:03:12.999Z</time>
      </trkpt>
      <trkpt lat="43.60792" lon="2.96906">
        <ele>994.6</ele>
        <time>2026-05-07T12:03:13.999Z</time>
      </trkpt>
      <trkpt lat="43.60791" lon="2.96905">
        <ele>994.2</ele>
        <time>2026-05-07T12:03:14.999Z</time>
      </trkpt>
      <trkpt lat="43.6079" lon="2.96903">
        <ele>994</ele>
        <time>2026-05-07T12:03:15.999Z</time>
      </trkpt>
      <trkpt lat="43.6079" lon="2.96903">
        <ele>994.2</ele>
        <time>2026-05-07T12:03:16.999Z</time>
      </trkpt>
      <trkpt lat="43.6079" lon="2.96903">
        <ele>994.3</ele>
        <time>2026-05-07T12:03:17.999Z</time>
      </trkpt>
      <trkpt lat="43.6079" lon="2.96903">
        <ele>994</ele>
        <time>2026-05-07T12:03:18.999Z</time>
      </trkpt>
      <trkpt lat="43.6079" lon="2.96903">
        <ele>993.8</ele>
        <time>2026-05-07T12:03:19.999Z</time>
      </trkpt>
      <trkpt lat="43.60789" lon="2.96902">
        <ele>993.5</ele>
        <time>2026-05-07T12:03:20.999Z</time>
      </trkpt>
      <trkpt lat="43.60788" lon="2.96901">
        <ele>993.4</ele>
        <time>2026-05-07T12:03:21.999Z</time>
      </trkpt>
      <trkpt lat="43.60787" lon="2.96901">
        <ele>993.4</ele>
        <time>2026-05-07T12:03:22.999Z</time>
      </trkpt>
      <trkpt lat="43.60787" lon="2.96901">
        <ele>993.6</ele>
        <time>2026-05-07T12:03:23.999Z</time>
      </trkpt>
      <trkpt lat="43.60786" lon="2.969">
        <ele>993.6</ele>
        <time>2026-05-07T12:03:24.999Z</time>
      </trkpt>
      <trkpt lat="43.60786" lon="2.969">
        <ele>993.4</ele>
        <time>2026-05-07T12:03:25.999Z</time>
      </trkpt>
      <trkpt lat="43.60785" lon="2.969">
        <ele>993.2</ele>
        <time>2026-05-07T12:03:26.999Z</time>
      </trkpt>
      <trkpt lat="43.60784" lon="2.969">
        <ele>993</ele>
        <time>2026-05-07T12:03:27.999Z</time>
      </trkpt>
      <trkpt lat="43.60783" lon="2.969">
        <ele>992.7</ele>
        <time>2026-05-07T12:03:28.999Z</time>
      </trkpt>
      <trkpt lat="43.60782" lon="2.969">
        <ele>992.8</ele>
        <time>2026-05-07T12:03:29.999Z</time>
      </trkpt>
      <trkpt lat="43.60782" lon="2.969">
        <ele>992.5</ele>
        <time>2026-05-07T12:03:30.999Z</time>
      </trkpt>
      <trkpt lat="43.60781" lon="2.969">
        <ele>992.4</ele>
        <time>2026-05-07T12:03:31.999Z</time>
      </trkpt>
      <trkpt lat="43.60779" lon="2.969">
        <ele>992.4</ele>
        <time>2026-05-07T12:03:32.999Z</time>
      </trkpt>
      <trkpt lat="43.60778" lon="2.969">
        <ele>992.2</ele>
        <time>2026-05-07T12:03:33.999Z</time>
      </trkpt>
      <trkpt lat="43.60777" lon="2.969">
        <ele>991.9</ele>
        <time>2026-05-07T12:03:34.999Z</time>
      </trkpt>
      <trkpt lat="43.60776" lon="2.969">
        <ele>991.6</ele>
        <time>2026-05-07T12:03:35.999Z</time>
      </trkpt>
      <trkpt lat="43.60776" lon="2.969">
        <ele>991.3</ele>
        <time>2026-05-07T12:03:36.999Z</time>
      </trkpt>
      <trkpt lat="43.60775" lon="2.96899">
        <ele>991.2</ele>
        <time>2026-05-07T12:03:37.999Z</time>
      </trkpt>
      <trkpt lat="43.60774" lon="2.96899">
        <ele>991.4</ele>
        <time>2026-05-07T12:03:38.999Z</time>
      </trkpt>
      <trkpt lat="43.60773" lon="2.96899">
        <ele>991.3</ele>
        <time>2026-05-07T12:03:39.999Z</time>
      </trkpt>
      <trkpt lat="43.60773" lon="2.96899">
        <ele>991.5</ele>
        <time>2026-05-07T12:03:40.999Z</time>
      </trkpt>
      <trkpt lat="43.60773" lon="2.96898">
        <ele>991.6</ele>
        <time>2026-05-07T12:03:41.999Z</time>
      </trkpt>
      <trkpt lat="43.60772" lon="2.96898">
        <ele>991.4</ele>
        <time>2026-05-07T12:03:42.999Z</time>
      </trkpt>
      <trkpt lat="43.60771" lon="2.96898">
        <ele>991.4</ele>
        <time>2026-05-07T12:03:43.999Z</time>
      </trkpt>
      <trkpt lat="43.6077" lon="2.96898">
        <ele>991.7</ele>
        <time>2026-05-07T12:03:44.999Z</time>
      </trkpt>
      <trkpt lat="43.6077" lon="2.96897">
        <ele>991.7</ele>
        <time>2026-05-07T12:03:45.999Z</time>
      </trkpt>
      <trkpt lat="43.60768" lon="2.96897">
        <ele>991.4</ele>
        <time>2026-05-07T12:03:46.999Z</time>
      </trkpt>
      <trkpt lat="43.60768" lon="2.96897">
        <ele>991.6</ele>
        <time>2026-05-07T12:03:47.999Z</time>
      </trkpt>
      <trkpt lat="43.60767" lon="2.96896">
        <ele>991.3</ele>
        <time>2026-05-07T12:03:48.999Z</time>
      </trkpt>
      <trkpt lat="43.60766" lon="2.96895">
        <ele>990.8</ele>
        <time>2026-05-07T12:03:49.999Z</time>
      </trkpt>
      <trkpt lat="43.60765" lon="2.96894">
        <ele>991.1</ele>
        <time>2026-05-07T12:03:50.999Z</time>
      </trkpt>
      <trkpt lat="43.60765" lon="2.96893">
        <ele>991.1</ele>
        <time>2026-05-07T12:03:51.999Z</time>
      </trkpt>
      <trkpt lat="43.60764" lon="2.96892">
        <ele>990.8</ele>
        <time>2026-05-07T12:03:52.999Z</time>
      </trkpt>
      <trkpt lat="43.60763" lon="2.96892">
        <ele>990.7</ele>
        <time>2026-05-07T12:03:53.999Z</time>
      </trkpt>
      <trkpt lat="43.60763" lon="2.96892">
        <ele>990.4</ele>
        <time>2026-05-07T12:03:54.999Z</time>
      </trkpt>
      <trkpt lat="43.60763" lon="2.96891">
        <ele>990</ele>
        <time>2026-05-07T12:03:55.999Z</time>
      </trkpt>
      <trkpt lat="43.60762" lon="2.96891">
        <ele>989.7</ele>
        <time>2026-05-07T12:03:56.999Z</time>
      </trkpt>
      <trkpt lat="43.60762" lon="2.9689">
        <ele>989.6</ele>
        <time>2026-05-07T12:03:57.999Z</time>
      </trkpt>
      <trkpt lat="43.60762" lon="2.96889">
        <ele>990</ele>
        <time>2026-05-07T12:03:58.999Z</time>
      </trkpt>
      <trkpt lat="43.60762" lon="2.96889">
        <ele>989.9</ele>
        <time>2026-05-07T12:03:59.999Z</time>
      </trkpt>
      <trkpt lat="43.60762" lon="2.96889">
        <ele>989.6</ele>
        <time>2026-05-07T12:04:00.999Z</time>
      </trkpt>
      <trkpt lat="43.60762" lon="2.96888">
        <ele>989.9</ele>
        <time>2026-05-07T12:04:01.999Z</time>
      </trkpt>
      <trkpt lat="43.60761" lon="2.96887">
        <ele>990.1</ele>
        <time>2026-05-07T12:04:02.999Z</time>
      </trkpt>
      <trkpt lat="43.60761" lon="2.96886">
        <ele>989.9</ele>
        <time>2026-05-07T12:04:03.999Z</time>
      </trkpt>
      <trkpt lat="43.6076" lon="2.96886">
        <ele>989.9</ele>
        <time>2026-05-07T12:04:04.999Z</time>
      </trkpt>
      <trkpt lat="43.60759" lon="2.96884">
        <ele>989.4</ele>
        <time>2026-05-07T12:04:05.999Z</time>
      </trkpt>
      <trkpt lat="43.60758" lon="2.96883">
        <ele>989</ele>
        <time>2026-05-07T12:04:06.999Z</time>
      </trkpt>
      <trkpt lat="43.60758" lon="2.96882">
        <ele>988.6</ele>
        <time>2026-05-07T12:04:07.999Z</time>
      </trkpt>
      <trkpt lat="43.60757" lon="2.96882">
        <ele>988.2</ele>
        <time>2026-05-07T12:04:08.999Z</time>
      </trkpt>
      <trkpt lat="43.60757" lon="2.96882">
        <ele>988.4</ele>
        <time>2026-05-07T12:04:09.999Z</time>
      </trkpt>
      <trkpt lat="43.60757" lon="2.96882">
        <ele>988.4</ele>
        <time>2026-05-07T12:04:10.999Z</time>
      </trkpt>
      <trkpt lat="43.60757" lon="2.96881">
        <ele>988.5</ele>
        <time>2026-05-07T12:04:11.999Z</time>
      </trkpt>
      <trkpt lat="43.60757" lon="2.96881">
        <ele>988.4</ele>
        <time>2026-05-07T12:04:12.999Z</time>
      </trkpt>
      <trkpt lat="43.60757" lon="2.96881">
        <ele>988.3</ele>
        <time>2026-05-07T12:04:13.999Z</time>
      </trkpt>
      <trkpt lat="43.60756" lon="2.9688">
        <ele>988.2</ele>
        <time>2026-05-07T12:04:14.999Z</time>
      </trkpt>
      <trkpt lat="43.60756" lon="2.96879">
        <ele>988.1</ele>
        <time>2026-05-07T12:04:15.999Z</time>
      </trkpt>
      <trkpt lat="43.60755" lon="2.96878">
        <ele>987.9</ele>
        <time>2026-05-07T12:04:16.999Z</time>
      </trkpt>
      <trkpt lat="43.60755" lon="2.96877">
        <ele>987.7</ele>
        <time>2026-05-07T12:04:17.999Z</time>
      </trkpt>
      <trkpt lat="43.60755" lon="2.96877">
        <ele>987.3</ele>
        <time>2026-05-07T12:04:18.999Z</time>
      </trkpt>
      <trkpt lat="43.60754" lon="2.96876">
        <ele>987.2</ele>
        <time>2026-05-07T12:04:19.999Z</time>
      </trkpt>
      <trkpt lat="43.60754" lon="2.96875">
        <ele>987</ele>
        <time>2026-05-07T12:04:20.999Z</time>
      </trkpt>
      <trkpt lat="43.60753" lon="2.96874">
        <ele>986.7</ele>
        <time>2026-05-07T12:04:21.999Z</time>
      </trkpt>
      <trkpt lat="43.60752" lon="2.96874">
        <ele>986.5</ele>
        <time>2026-05-07T12:04:22.999Z</time>
      </trkpt>
      <trkpt lat="43.60751" lon="2.96873">
        <ele>986.3</ele>
        <time>2026-05-07T12:04:23.999Z</time>
      </trkpt>
      <trkpt lat="43.6075" lon="2.96874">
        <ele>986.2</ele>
        <time>2026-05-07T12:04:24.999Z</time>
      </trkpt>
      <trkpt lat="43.6075" lon="2.96874">
        <ele>986.1</ele>
        <time>2026-05-07T12:04:25.999Z</time>
      </trkpt>
      <trkpt lat="43.60749" lon="2.96874">
        <ele>985.7</ele>
        <time>2026-05-07T12:04:26.999Z</time>
      </trkpt>
      <trkpt lat="43.60748" lon="2.96874">
        <ele>985.3</ele>
        <time>2026-05-07T12:04:27.999Z</time>
      </trkpt>
      <trkpt lat="43.60748" lon="2.96874">
        <ele>984.9</ele>
        <time>2026-05-07T12:04:28.999Z</time>
      </trkpt>
      <trkpt lat="43.60747" lon="2.96873">
        <ele>984.6</ele>
        <time>2026-05-07T12:04:29.999Z</time>
      </trkpt>
      <trkpt lat="43.60747" lon="2.96873">
        <ele>983.9</ele>
        <time>2026-05-07T12:04:30.999Z</time>
      </trkpt>
      <trkpt lat="43.60747" lon="2.96873">
        <ele>983.1</ele>
        <time>2026-05-07T12:04:31.999Z</time>
      </trkpt>
      <trkpt lat="43.60747" lon="2.96872">
        <ele>982.7</ele>
        <time>2026-05-07T12:04:32.999Z</time>
      </trkpt>
      <trkpt lat="43.60747" lon="2.96871">
        <ele>982</ele>
        <time>2026-05-07T12:04:33.999Z</time>
      </trkpt>
      <trkpt lat="43.60747" lon="2.96871">
        <ele>982</ele>
        <time>2026-05-07T12:04:34.999Z</time>
      </trkpt>
      <trkpt lat="43.60746" lon="2.9687">
        <ele>981.6</ele>
        <time>2026-05-07T12:04:35.999Z</time>
      </trkpt>
      <trkpt lat="43.60745" lon="2.9687">
        <ele>981</ele>
        <time>2026-05-07T12:04:36.999Z</time>
      </trkpt>
      <trkpt lat="43.60745" lon="2.9687">
        <ele>980.4</ele>
        <time>2026-05-07T12:04:37.999Z</time>
      </trkpt>
      <trkpt lat="43.60744" lon="2.96869">
        <ele>980</ele>
        <time>2026-05-07T12:04:38.999Z</time>
      </trkpt>
      <trkpt lat="43.60743" lon="2.96869">
        <ele>979.4</ele>
        <time>2026-05-07T12:04:39.999Z</time>
      </trkpt>
      <trkpt lat="43.60742" lon="2.96869">
        <ele>979.4</ele>
        <time>2026-05-07T12:04:40.999Z</time>
      </trkpt>
      <trkpt lat="43.60742" lon="2.96869">
        <ele>979.1</ele>
        <time>2026-05-07T12:04:41.999Z</time>
      </trkpt>
      <trkpt lat="43.60741" lon="2.96869">
        <ele>979</ele>
        <time>2026-05-07T12:04:42.999Z</time>
      </trkpt>
      <trkpt lat="43.60741" lon="2.96869">
        <ele>978.9</ele>
        <time>2026-05-07T12:04:43.999Z</time>
      </trkpt>
      <trkpt lat="43.6074" lon="2.96868">
        <ele>978.4</ele>
        <time>2026-05-07T12:04:44.999Z</time>
      </trkpt>
      <trkpt lat="43.6074" lon="2.96867">
        <ele>978</ele>
        <time>2026-05-07T12:04:45.999Z</time>
      </trkpt>
      <trkpt lat="43.60739" lon="2.96866">
        <ele>977.8</ele>
        <time>2026-05-07T12:04:46.999Z</time>
      </trkpt>
      <trkpt lat="43.60738" lon="2.96865">
        <ele>978</ele>
        <time>2026-05-07T12:04:47.999Z</time>
      </trkpt>
      <trkpt lat="43.60737" lon="2.96865">
        <ele>977.9</ele>
        <time>2026-05-07T12:04:48.999Z</time>
      </trkpt>
      <trkpt lat="43.60736" lon="2.96865">
        <ele>977.6</ele>
        <time>2026-05-07T12:04:49.999Z</time>
      </trkpt>
      <trkpt lat="43.60735" lon="2.96865">
        <ele>977.6</ele>
        <time>2026-05-07T12:04:50.999Z</time>
      </trkpt>
      <trkpt lat="43.60734" lon="2.96865">
        <ele>977.4</ele>
        <time>2026-05-07T12:04:51.999Z</time>
      </trkpt>
      <trkpt lat="43.60733" lon="2.96864">
        <ele>977.1</ele>
        <time>2026-05-07T12:04:52.999Z</time>
      </trkpt>
      <trkpt lat="43.60733" lon="2.96864">
        <ele>976.9</ele>
        <time>2026-05-07T12:04:53.999Z</time>
      </trkpt>
      <trkpt lat="43.60732" lon="2.96864">
        <ele>976.6</ele>
        <time>2026-05-07T12:04:54.999Z</time>
      </trkpt>
      <trkpt lat="43.60731" lon="2.96864">
        <ele>976.4</ele>
        <time>2026-05-07T12:04:55.999Z</time>
      </trkpt>
      <trkpt lat="43.6073" lon="2.96863">
        <ele>976.2</ele>
        <time>2026-05-07T12:04:56.999Z</time>
      </trkpt>
      <trkpt lat="43.60729" lon="2.96863">
        <ele>976.2</ele>
        <time>2026-05-07T12:04:57.999Z</time>
      </trkpt>
      <trkpt lat="43.60728" lon="2.96862">
        <ele>976.2</ele>
        <time>2026-05-07T12:04:58.999Z</time>
      </trkpt>
      <trkpt lat="43.60727" lon="2.96861">
        <ele>976</ele>
        <time>2026-05-07T12:04:59.999Z</time>
      </trkpt>
      <trkpt lat="43.60727" lon="2.96861">
        <ele>975.9</ele>
        <time>2026-05-07T12:05:00.999Z</time>
      </trkpt>
      <trkpt lat="43.60727" lon="2.96861">
        <ele>976.2</ele>
        <time>2026-05-07T12:05:01.999Z</time>
      </trkpt>
      <trkpt lat="43.60727" lon="2.96861">
        <ele>976</ele>
        <time>2026-05-07T12:05:02.999Z</time>
      </trkpt>
      <trkpt lat="43.60727" lon="2.9686">
        <ele>976.2</ele>
        <time>2026-05-07T12:05:03.999Z</time>
      </trkpt>
      <trkpt lat="43.60726" lon="2.9686">
        <ele>976.1</ele>
        <time>2026-05-07T12:05:04.999Z</time>
      </trkpt>
      <trkpt lat="43.60725" lon="2.96859">
        <ele>976.2</ele>
        <time>2026-05-07T12:05:05.999Z</time>
      </trkpt>
      <trkpt lat="43.60724" lon="2.96859">
        <ele>975.9</ele>
        <time>2026-05-07T12:05:06.999Z</time>
      </trkpt>
      <trkpt lat="43.60724" lon="2.96859">
        <ele>975.9</ele>
        <time>2026-05-07T12:05:07.999Z</time>
      </trkpt>
      <trkpt lat="43.60723" lon="2.96859">
        <ele>975.9</ele>
        <time>2026-05-07T12:05:08.999Z</time>
      </trkpt>
      <trkpt lat="43.60723" lon="2.96859">
        <ele>975.5</ele>
        <time>2026-05-07T12:05:09.999Z</time>
      </trkpt>
      <trkpt lat="43.60722" lon="2.96858">
        <ele>975.3</ele>
        <time>2026-05-07T12:05:10.999Z</time>
      </trkpt>
      <trkpt lat="43.60721" lon="2.96857">
        <ele>975.1</ele>
        <time>2026-05-07T12:05:11.999Z</time>
      </trkpt>
      <trkpt lat="43.6072" lon="2.96858">
        <ele>975</ele>
        <time>2026-05-07T12:05:12.999Z</time>
      </trkpt>
      <trkpt lat="43.6072" lon="2.96858">
        <ele>974.7</ele>
        <time>2026-05-07T12:05:13.999Z</time>
      </trkpt>
      <trkpt lat="43.6072" lon="2.96857">
        <ele>974.5</ele>
        <time>2026-05-07T12:05:14.999Z</time>
      </trkpt>
      <trkpt lat="43.60719" lon="2.96857">
        <ele>973.6</ele>
        <time>2026-05-07T12:05:15.999Z</time>
      </trkpt>
      <trkpt lat="43.60719" lon="2.96856">
        <ele>973.6</ele>
        <time>2026-05-07T12:05:16.999Z</time>
      </trkpt>
      <trkpt lat="43.60719" lon="2.96855">
        <ele>973.8</ele>
        <time>2026-05-07T12:05:17.999Z</time>
      </trkpt>
      <trkpt lat="43.60719" lon="2.96854">
        <ele>973.5</ele>
        <time>2026-05-07T12:05:18.999Z</time>
      </trkpt>
      <trkpt lat="43.60719" lon="2.96854">
        <ele>973.5</ele>
        <time>2026-05-07T12:05:19.999Z</time>
      </trkpt>
      <trkpt lat="43.60718" lon="2.96854">
        <ele>973.4</ele>
        <time>2026-05-07T12:05:20.999Z</time>
      </trkpt>
      <trkpt lat="43.60717" lon="2.96854">
        <ele>973.3</ele>
        <time>2026-05-07T12:05:21.999Z</time>
      </trkpt>
      <trkpt lat="43.60716" lon="2.96854">
        <ele>973.4</ele>
        <time>2026-05-07T12:05:22.999Z</time>
      </trkpt>
      <trkpt lat="43.60715" lon="2.96854">
        <ele>973.3</ele>
        <time>2026-05-07T12:05:23.999Z</time>
      </trkpt>
      <trkpt lat="43.60715" lon="2.96854">
        <ele>973.4</ele>
        <time>2026-05-07T12:05:24.999Z</time>
      </trkpt>
      <trkpt lat="43.60715" lon="2.96854">
        <ele>973.1</ele>
        <time>2026-05-07T12:05:25.999Z</time>
      </trkpt>
      <trkpt lat="43.60714" lon="2.96854">
        <ele>972.8</ele>
        <time>2026-05-07T12:05:26.999Z</time>
      </trkpt>
      <trkpt lat="43.60713" lon="2.96854">
        <ele>972.3</ele>
        <time>2026-05-07T12:05:27.999Z</time>
      </trkpt>
      <trkpt lat="43.60713" lon="2.96854">
        <ele>972.5</ele>
        <time>2026-05-07T12:05:28.999Z</time>
      </trkpt>
      <trkpt lat="43.60712" lon="2.96853">
        <ele>972.7</ele>
        <time>2026-05-07T12:05:29.999Z</time>
      </trkpt>
      <trkpt lat="43.60711" lon="2.96853">
        <ele>972.6</ele>
        <time>2026-05-07T12:05:30.999Z</time>
      </trkpt>
      <trkpt lat="43.60711" lon="2.96853">
        <ele>972.7</ele>
        <time>2026-05-07T12:05:31.999Z</time>
      </trkpt>
      <trkpt lat="43.6071" lon="2.96853">
        <ele>972.8</ele>
        <time>2026-05-07T12:05:32.999Z</time>
      </trkpt>
      <trkpt lat="43.60709" lon="2.96852">
        <ele>972.4</ele>
        <time>2026-05-07T12:05:33.999Z</time>
      </trkpt>
      <trkpt lat="43.60708" lon="2.96851">
        <ele>972.9</ele>
        <time>2026-05-07T12:05:34.999Z</time>
      </trkpt>
      <trkpt lat="43.60708" lon="2.96851">
        <ele>973.2</ele>
        <time>2026-05-07T12:05:35.999Z</time>
      </trkpt>
      <trkpt lat="43.60708" lon="2.9685">
        <ele>973</ele>
        <time>2026-05-07T12:05:36.999Z</time>
      </trkpt>
      <trkpt lat="43.60707" lon="2.96849">
        <ele>972.5</ele>
        <time>2026-05-07T12:05:37.999Z</time>
      </trkpt>
      <trkpt lat="43.60706" lon="2.96848">
        <ele>972.3</ele>
        <time>2026-05-07T12:05:38.999Z</time>
      </trkpt>
      <trkpt lat="43.60705" lon="2.96848">
        <ele>972.2</ele>
        <time>2026-05-07T12:05:39.999Z</time>
      </trkpt>
      <trkpt lat="43.60704" lon="2.96848">
        <ele>971.7</ele>
        <time>2026-05-07T12:05:40.999Z</time>
      </trkpt>
      <trkpt lat="43.60704" lon="2.96848">
        <ele>970.9</ele>
        <time>2026-05-07T12:05:41.999Z</time>
      </trkpt>
      <trkpt lat="43.60703" lon="2.96847">
        <ele>970.4</ele>
        <time>2026-05-07T12:05:42.999Z</time>
      </trkpt>
      <trkpt lat="43.60703" lon="2.96847">
        <ele>970.1</ele>
        <time>2026-05-07T12:05:43.999Z</time>
      </trkpt>
      <trkpt lat="43.60702" lon="2.96847">
        <ele>969.9</ele>
        <time>2026-05-07T12:05:44.999Z</time>
      </trkpt>
      <trkpt lat="43.60701" lon="2.96846">
        <ele>969.6</ele>
        <time>2026-05-07T12:05:45.999Z</time>
      </trkpt>
      <trkpt lat="43.60701" lon="2.96846">
        <ele>969.6</ele>
        <time>2026-05-07T12:05:46.999Z</time>
      </trkpt>
      <trkpt lat="43.607" lon="2.96846">
        <ele>969.6</ele>
        <time>2026-05-07T12:05:47.999Z</time>
      </trkpt>
      <trkpt lat="43.607" lon="2.96846">
        <ele>969.3</ele>
        <time>2026-05-07T12:05:48.999Z</time>
      </trkpt>
      <trkpt lat="43.607" lon="2.96846">
        <ele>969.1</ele>
        <time>2026-05-07T12:05:49.999Z</time>
      </trkpt>
      <trkpt lat="43.607" lon="2.96846">
        <ele>969</ele>
        <time>2026-05-07T12:05:50.999Z</time>
      </trkpt>
      <trkpt lat="43.607" lon="2.96846">
        <ele>968.9</ele>
        <time>2026-05-07T12:05:51.999Z</time>
      </trkpt>
      <trkpt lat="43.607" lon="2.96846">
        <ele>968.8</ele>
        <time>2026-05-07T12:05:52.999Z</time>
      </trkpt>
      <trkpt lat="43.607" lon="2.96846">
        <ele>968.9</ele>
        <time>2026-05-07T12:05:53.999Z</time>
      </trkpt>
      <trkpt lat="43.607" lon="2.96846">
        <ele>968.8</ele>
        <time>2026-05-07T12:05:54.999Z</time>
      </trkpt>
      <trkpt lat="43.607" lon="2.96846">
        <ele>968.5</ele>
        <time>2026-05-07T12:05:55.999Z</time>
      </trkpt>
      <trkpt lat="43.607" lon="2.96846">
        <ele>968.2</ele>
        <time>2026-05-07T12:05:56.999Z</time>
      </trkpt>
      <trkpt lat="43.607" lon="2.96846">
        <ele>967.9</ele>
        <time>2026-05-07T12:05:57.999Z</time>
      </trkpt>
      <trkpt lat="43.60699" lon="2.96846">
        <ele>967.6</ele>
        <time>2026-05-07T12:05:58.999Z</time>
      </trkpt>
      <trkpt lat="43.60699" lon="2.96845">
        <ele>967.2</ele>
        <time>2026-05-07T12:05:59.999Z</time>
      </trkpt>
      <trkpt lat="43.60699" lon="2.96845">
        <ele>966.8</ele>
        <time>2026-05-07T12:06:00.999Z</time>
      </trkpt>
      <trkpt lat="43.60698" lon="2.96844">
        <ele>966.8</ele>
        <time>2026-05-07T12:06:01.999Z</time>
      </trkpt>
      <trkpt lat="43.60697" lon="2.96844">
        <ele>966.6</ele>
        <time>2026-05-07T12:06:02.999Z</time>
      </trkpt>
      <trkpt lat="43.60697" lon="2.96844">
        <ele>966.6</ele>
        <time>2026-05-07T12:06:03.999Z</time>
      </trkpt>
      <trkpt lat="43.60697" lon="2.96843">
        <ele>966.2</ele>
        <time>2026-05-07T12:06:04.999Z</time>
      </trkpt>
      <trkpt lat="43.60696" lon="2.96843">
        <ele>966.4</ele>
        <time>2026-05-07T12:06:05.999Z</time>
      </trkpt>
      <trkpt lat="43.60696" lon="2.96843">
        <ele>966.2</ele>
        <time>2026-05-07T12:06:06.999Z</time>
      </trkpt>
      <trkpt lat="43.60696" lon="2.96843">
        <ele>966.2</ele>
        <time>2026-05-07T12:06:07.999Z</time>
      </trkpt>
      <trkpt lat="43.60696" lon="2.96843">
        <ele>966.2</ele>
        <time>2026-05-07T12:06:08.999Z</time>
      </trkpt>
      <trkpt lat="43.60696" lon="2.96843">
        <ele>965.9</ele>
        <time>2026-05-07T12:06:09.999Z</time>
      </trkpt>
      <trkpt lat="43.60697" lon="2.96843">
        <ele>965.7</ele>
        <time>2026-05-07T12:06:10.999Z</time>
      </trkpt>
      <trkpt lat="43.60697" lon="2.96842">
        <ele>965.7</ele>
        <time>2026-05-07T12:06:11.999Z</time>
      </trkpt>
      <trkpt lat="43.60697" lon="2.96842">
        <ele>965.4</ele>
        <time>2026-05-07T12:06:12.999Z</time>
      </trkpt>
      <trkpt lat="43.60698" lon="2.96841">
        <ele>965.4</ele>
        <time>2026-05-07T12:06:13.999Z</time>
      </trkpt>
      <trkpt lat="43.60699" lon="2.9684">
        <ele>965.2</ele>
        <time>2026-05-07T12:06:14.999Z</time>
      </trkpt>
      <trkpt lat="43.607" lon="2.9684">
        <ele>965.1</ele>
        <time>2026-05-07T12:06:15.999Z</time>
      </trkpt>
      <trkpt lat="43.60702" lon="2.96839">
        <ele>965</ele>
        <time>2026-05-07T12:06:16.999Z</time>
      </trkpt>
      <trkpt lat="43.60702" lon="2.96838">
        <ele>965</ele>
        <time>2026-05-07T12:06:17.999Z</time>
      </trkpt>
      <trkpt lat="43.60703" lon="2.96838">
        <ele>964.9</ele>
        <time>2026-05-07T12:06:18.999Z</time>
      </trkpt>
      <trkpt lat="43.60704" lon="2.96837">
        <ele>964.8</ele>
        <time>2026-05-07T12:06:19.999Z</time>
      </trkpt>
      <trkpt lat="43.60704" lon="2.96836">
        <ele>964.5</ele>
        <time>2026-05-07T12:06:20.999Z</time>
      </trkpt>
      <trkpt lat="43.60705" lon="2.96836">
        <ele>964.2</ele>
        <time>2026-05-07T12:06:21.999Z</time>
      </trkpt>
      <trkpt lat="43.60705" lon="2.96835">
        <ele>964.2</ele>
        <time>2026-05-07T12:06:22.999Z</time>
      </trkpt>
      <trkpt lat="43.60706" lon="2.96834">
        <ele>964.1</ele>
        <time>2026-05-07T12:06:23.999Z</time>
      </trkpt>
      <trkpt lat="43.60707" lon="2.96834">
        <ele>964.1</ele>
        <time>2026-05-07T12:06:24.999Z</time>
      </trkpt>
      <trkpt lat="43.60707" lon="2.96833">
        <ele>963.8</ele>
        <time>2026-05-07T12:06:25.999Z</time>
      </trkpt>
      <trkpt lat="43.60708" lon="2.96833">
        <ele>963.6</ele>
        <time>2026-05-07T12:06:26.999Z</time>
      </trkpt>
      <trkpt lat="43.6071" lon="2.96832">
        <ele>963.5</ele>
        <time>2026-05-07T12:06:27.999Z</time>
      </trkpt>
      <trkpt lat="43.6071" lon="2.96832">
        <ele>963.3</ele>
        <time>2026-05-07T12:06:28.999Z</time>
      </trkpt>
      <trkpt lat="43.60711" lon="2.96831">
        <ele>963</ele>
        <time>2026-05-07T12:06:29.999Z</time>
      </trkpt>
      <trkpt lat="43.60711" lon="2.96831">
        <ele>963.1</ele>
        <time>2026-05-07T12:06:30.999Z</time>
      </trkpt>
      <trkpt lat="43.60711" lon="2.96831">
        <ele>962.9</ele>
        <time>2026-05-07T12:06:31.999Z</time>
      </trkpt>
      <trkpt lat="43.60711" lon="2.96831">
        <ele>962.5</ele>
        <time>2026-05-07T12:06:32.999Z</time>
      </trkpt>
      <trkpt lat="43.60712" lon="2.96831">
        <ele>961.8</ele>
        <time>2026-05-07T12:06:33.999Z</time>
      </trkpt>
      <trkpt lat="43.60712" lon="2.96831">
        <ele>961.5</ele>
        <time>2026-05-07T12:06:34.999Z</time>
      </trkpt>
      <trkpt lat="43.60712" lon="2.9683">
        <ele>961.2</ele>
        <time>2026-05-07T12:06:35.999Z</time>
      </trkpt>
      <trkpt lat="43.60712" lon="2.9683">
        <ele>961.2</ele>
        <time>2026-05-07T12:06:36.999Z</time>
      </trkpt>
      <trkpt lat="43.60712" lon="2.9683">
        <ele>961.3</ele>
        <time>2026-05-07T12:06:37.999Z</time>
      </trkpt>
      <trkpt lat="43.60712" lon="2.9683">
        <ele>961.2</ele>
        <time>2026-05-07T12:06:38.999Z</time>
      </trkpt>
      <trkpt lat="43.60712" lon="2.9683">
        <ele>961.2</ele>
        <time>2026-05-07T12:06:39.999Z</time>
      </trkpt>
      <trkpt lat="43.60712" lon="2.9683">
        <ele>961</ele>
        <time>2026-05-07T12:06:40.999Z</time>
      </trkpt>
      <trkpt lat="43.60712" lon="2.9683">
        <ele>960.9</ele>
        <time>2026-05-07T12:06:41.999Z</time>
      </trkpt>
      <trkpt lat="43.60712" lon="2.96829">
        <ele>960.5</ele>
        <time>2026-05-07T12:06:42.999Z</time>
      </trkpt>
      <trkpt lat="43.60712" lon="2.96829">
        <ele>960.4</ele>
        <time>2026-05-07T12:06:43.999Z</time>
      </trkpt>
      <trkpt lat="43.60713" lon="2.96829">
        <ele>960.1</ele>
        <time>2026-05-07T12:06:44.999Z</time>
      </trkpt>
      <trkpt lat="43.60712" lon="2.96829">
        <ele>960.1</ele>
        <time>2026-05-07T12:06:45.999Z</time>
      </trkpt>
      <trkpt lat="43.60712" lon="2.96829">
        <ele>959.8</ele>
        <time>2026-05-07T12:06:46.999Z</time>
      </trkpt>
      <trkpt lat="43.60712" lon="2.96828">
        <ele>959.4</ele>
        <time>2026-05-07T12:06:47.999Z</time>
      </trkpt>
      <trkpt lat="43.60712" lon="2.96827">
        <ele>959.5</ele>
        <time>2026-05-07T12:06:48.999Z</time>
      </trkpt>
      <trkpt lat="43.60712" lon="2.96826">
        <ele>959.2</ele>
        <time>2026-05-07T12:06:49.999Z</time>
      </trkpt>
      <trkpt lat="43.60712" lon="2.96825">
        <ele>959.2</ele>
        <time>2026-05-07T12:06:50.999Z</time>
      </trkpt>
      <trkpt lat="43.60711" lon="2.96824">
        <ele>959.1</ele>
        <time>2026-05-07T12:06:51.999Z</time>
      </trkpt>
      <trkpt lat="43.60711" lon="2.96823">
        <ele>958.8</ele>
        <time>2026-05-07T12:06:52.999Z</time>
      </trkpt>
      <trkpt lat="43.60711" lon="2.96822">
        <ele>958.7</ele>
        <time>2026-05-07T12:06:53.999Z</time>
      </trkpt>
      <trkpt lat="43.6071" lon="2.9682">
        <ele>958.4</ele>
        <time>2026-05-07T12:06:54.999Z</time>
      </trkpt>
      <trkpt lat="43.6071" lon="2.96819">
        <ele>958.1</ele>
        <time>2026-05-07T12:06:55.999Z</time>
      </trkpt>
      <trkpt lat="43.6071" lon="2.96818">
        <ele>958.1</ele>
        <time>2026-05-07T12:06:56.999Z</time>
      </trkpt>
      <trkpt lat="43.60709" lon="2.96817">
        <ele>958</ele>
        <time>2026-05-07T12:06:57.999Z</time>
      </trkpt>
      <trkpt lat="43.60709" lon="2.96816">
        <ele>957.9</ele>
        <time>2026-05-07T12:06:58.999Z</time>
      </trkpt>
      <trkpt lat="43.60709" lon="2.96816">
        <ele>957.5</ele>
        <time>2026-05-07T12:06:59.999Z</time>
      </trkpt>
      <trkpt lat="43.60709" lon="2.96815">
        <ele>957.2</ele>
        <time>2026-05-07T12:07:00.999Z</time>
      </trkpt>
      <trkpt lat="43.60708" lon="2.96814">
        <ele>956.5</ele>
        <time>2026-05-07T12:07:01.999Z</time>
      </trkpt>
      <trkpt lat="43.60708" lon="2.96814">
        <ele>956.5</ele>
        <time>2026-05-07T12:07:02.999Z</time>
      </trkpt>
      <trkpt lat="43.60708" lon="2.96813">
        <ele>956.5</ele>
        <time>2026-05-07T12:07:03.999Z</time>
      </trkpt>
      <trkpt lat="43.60708" lon="2.96812">
        <ele>956</ele>
        <time>2026-05-07T12:07:04.999Z</time>
      </trkpt>
      <trkpt lat="43.60708" lon="2.96812">
        <ele>955.4</ele>
        <time>2026-05-07T12:07:05.999Z</time>
      </trkpt>
      <trkpt lat="43.60708" lon="2.96811">
        <ele>954.9</ele>
        <time>2026-05-07T12:07:06.999Z</time>
      </trkpt>
      <trkpt lat="43.60707" lon="2.9681">
        <ele>954.6</ele>
        <time>2026-05-07T12:07:07.999Z</time>
      </trkpt>
      <trkpt lat="43.60707" lon="2.96809">
        <ele>954.2</ele>
        <time>2026-05-07T12:07:08.999Z</time>
      </trkpt>
      <trkpt lat="43.60707" lon="2.96808">
        <ele>953.8</ele>
        <time>2026-05-07T12:07:09.999Z</time>
      </trkpt>
      <trkpt lat="43.60707" lon="2.96807">
        <ele>953.9</ele>
        <time>2026-05-07T12:07:10.999Z</time>
      </trkpt>
      <trkpt lat="43.60707" lon="2.96807">
        <ele>953.9</ele>
        <time>2026-05-07T12:07:11.999Z</time>
      </trkpt>
      <trkpt lat="43.60706" lon="2.96806">
        <ele>954.2</ele>
        <time>2026-05-07T12:07:12.999Z</time>
      </trkpt>
      <trkpt lat="43.60706" lon="2.96805">
        <ele>953.9</ele>
        <time>2026-05-07T12:07:13.999Z</time>
      </trkpt>
      <trkpt lat="43.60705" lon="2.96804">
        <ele>953.2</ele>
        <time>2026-05-07T12:07:14.999Z</time>
      </trkpt>
      <trkpt lat="43.60704" lon="2.96804">
        <ele>952.8</ele>
        <time>2026-05-07T12:07:15.999Z</time>
      </trkpt>
      <trkpt lat="43.60703" lon="2.96802">
        <ele>952.4</ele>
        <time>2026-05-07T12:07:16.999Z</time>
      </trkpt>
      <trkpt lat="43.60703" lon="2.96801">
        <ele>952.1</ele>
        <time>2026-05-07T12:07:17.999Z</time>
      </trkpt>
      <trkpt lat="43.60702" lon="2.968">
        <ele>953</ele>
        <time>2026-05-07T12:07:18.999Z</time>
      </trkpt>
      <trkpt lat="43.60702" lon="2.968">
        <ele>953.5</ele>
        <time>2026-05-07T12:07:19.999Z</time>
      </trkpt>
      <trkpt lat="43.60702" lon="2.968">
        <ele>953.4</ele>
        <time>2026-05-07T12:07:20.999Z</time>
      </trkpt>
      <trkpt lat="43.60702" lon="2.968">
        <ele>953.5</ele>
        <time>2026-05-07T12:07:21.999Z</time>
      </trkpt>
      <trkpt lat="43.60702" lon="2.968">
        <ele>953.8</ele>
        <time>2026-05-07T12:07:22.999Z</time>
      </trkpt>
      <trkpt lat="43.60702" lon="2.968">
        <ele>954.3</ele>
        <time>2026-05-07T12:07:23.999Z</time>
      </trkpt>
      <trkpt lat="43.60702" lon="2.968">
        <ele>954.4</ele>
        <time>2026-05-07T12:07:24.999Z</time>
      </trkpt>
      <trkpt lat="43.60702" lon="2.96799">
        <ele>954.3</ele>
        <time>2026-05-07T12:07:25.999Z</time>
      </trkpt>
      <trkpt lat="43.60702" lon="2.96799">
        <ele>954</ele>
        <time>2026-05-07T12:07:26.999Z</time>
      </trkpt>
      <trkpt lat="43.60701" lon="2.96799">
        <ele>953.7</ele>
        <time>2026-05-07T12:07:27.999Z</time>
      </trkpt>
      <trkpt lat="43.60701" lon="2.96798">
        <ele>953.2</ele>
        <time>2026-05-07T12:07:28.999Z</time>
      </trkpt>
      <trkpt lat="43.607" lon="2.96797">
        <ele>953</ele>
        <time>2026-05-07T12:07:29.999Z</time>
      </trkpt>
      <trkpt lat="43.607" lon="2.96797">
        <ele>952.9</ele>
        <time>2026-05-07T12:07:30.999Z</time>
      </trkpt>
      <trkpt lat="43.60699" lon="2.96796">
        <ele>952.5</ele>
        <time>2026-05-07T12:07:31.999Z</time>
      </trkpt>
      <trkpt lat="43.60699" lon="2.96795">
        <ele>952.7</ele>
        <time>2026-05-07T12:07:32.999Z</time>
      </trkpt>
      <trkpt lat="43.60698" lon="2.96794">
        <ele>952.6</ele>
        <time>2026-05-07T12:07:33.999Z</time>
      </trkpt>
      <trkpt lat="43.60698" lon="2.96793">
        <ele>952.8</ele>
        <time>2026-05-07T12:07:34.999Z</time>
      </trkpt>
      <trkpt lat="43.60698" lon="2.96792">
        <ele>953.1</ele>
        <time>2026-05-07T12:07:35.999Z</time>
      </trkpt>
      <trkpt lat="43.60698" lon="2.96792">
        <ele>953.4</ele>
        <time>2026-05-07T12:07:36.999Z</time>
      </trkpt>
      <trkpt lat="43.60698" lon="2.96792">
        <ele>953.1</ele>
        <time>2026-05-07T12:07:37.999Z</time>
      </trkpt>
      <trkpt lat="43.60699" lon="2.96791">
        <ele>952.9</ele>
        <time>2026-05-07T12:07:38.999Z</time>
      </trkpt>
      <trkpt lat="43.60699" lon="2.96792">
        <ele>952.9</ele>
        <time>2026-05-07T12:07:39.999Z</time>
      </trkpt>
      <trkpt lat="43.607" lon="2.96792">
        <ele>953.3</ele>
        <time>2026-05-07T12:07:40.999Z</time>
      </trkpt>
      <trkpt lat="43.607" lon="2.96792">
        <ele>953.3</ele>
        <time>2026-05-07T12:07:41.999Z</time>
      </trkpt>
      <trkpt lat="43.607" lon="2.96792">
        <ele>953.4</ele>
        <time>2026-05-07T12:07:42.999Z</time>
      </trkpt>
      <trkpt lat="43.607" lon="2.96792">
        <ele>953</ele>
        <time>2026-05-07T12:07:43.999Z</time>
      </trkpt>
      <trkpt lat="43.60701" lon="2.96794">
        <ele>952.9</ele>
        <time>2026-05-07T12:07:44.999Z</time>
      </trkpt>
      <trkpt lat="43.60701" lon="2.96793">
        <ele>952.7</ele>
        <time>2026-05-07T12:07:45.999Z</time>
      </trkpt>
      <trkpt lat="43.60702" lon="2.96793">
        <ele>952.4</ele>
        <time>2026-05-07T12:07:46.999Z</time>
      </trkpt>
      <trkpt lat="43.60703" lon="2.96792">
        <ele>952.2</ele>
        <time>2026-05-07T12:07:47.999Z</time>
      </trkpt>
      <trkpt lat="43.60704" lon="2.96792">
        <ele>952.1</ele>
        <time>2026-05-07T12:07:48.999Z</time>
      </trkpt>
      <trkpt lat="43.60704" lon="2.96791">
        <ele>952</ele>
        <time>2026-05-07T12:07:49.999Z</time>
      </trkpt>
      <trkpt lat="43.60705" lon="2.9679">
        <ele>951.7</ele>
        <time>2026-05-07T12:07:50.999Z</time>
      </trkpt>
      <trkpt lat="43.60706" lon="2.9679">
        <ele>951.6</ele>
        <time>2026-05-07T12:07:51.999Z</time>
      </trkpt>
      <trkpt lat="43.60706" lon="2.9679">
        <ele>951.1</ele>
        <time>2026-05-07T12:07:52.999Z</time>
      </trkpt>
      <trkpt lat="43.60706" lon="2.96789">
        <ele>951</ele>
        <time>2026-05-07T12:07:53.999Z</time>
      </trkpt>
      <trkpt lat="43.60707" lon="2.96789">
        <ele>951.1</ele>
        <time>2026-05-07T12:07:54.999Z</time>
      </trkpt>
      <trkpt lat="43.60707" lon="2.96788">
        <ele>951.1</ele>
        <time>2026-05-07T12:07:55.999Z</time>
      </trkpt>
      <trkpt lat="43.60706" lon="2.96787">
        <ele>951.1</ele>
        <time>2026-05-07T12:07:56.999Z</time>
      </trkpt>
      <trkpt lat="43.60708" lon="2.96785">
        <ele>951</ele>
        <time>2026-05-07T12:07:57.999Z</time>
      </trkpt>
      <trkpt lat="43.60708" lon="2.96783">
        <ele>950.7</ele>
        <time>2026-05-07T12:07:58.999Z</time>
      </trkpt>
      <trkpt lat="43.60708" lon="2.96782">
        <ele>950.9</ele>
        <time>2026-05-07T12:07:59.999Z</time>
      </trkpt>
      <trkpt lat="43.60707" lon="2.96782">
        <ele>951.2</ele>
        <time>2026-05-07T12:08:00.999Z</time>
      </trkpt>
      <trkpt lat="43.60706" lon="2.96781">
        <ele>951</ele>
        <time>2026-05-07T12:08:01.999Z</time>
      </trkpt>
      <trkpt lat="43.60705" lon="2.96783">
        <ele>951.4</ele>
        <time>2026-05-07T12:08:02.999Z</time>
      </trkpt>
      <trkpt lat="43.60705" lon="2.96783">
        <ele>951.3</ele>
        <time>2026-05-07T12:08:03.999Z</time>
      </trkpt>
      <trkpt lat="43.60704" lon="2.96782">
        <ele>951.5</ele>
        <time>2026-05-07T12:08:04.999Z</time>
      </trkpt>
      <trkpt lat="43.60704" lon="2.96782">
        <ele>951.6</ele>
        <time>2026-05-07T12:08:05.999Z</time>
      </trkpt>
      <trkpt lat="43.60704" lon="2.96781">
        <ele>951.9</ele>
        <time>2026-05-07T12:08:06.999Z</time>
      </trkpt>
      <trkpt lat="43.60704" lon="2.96781">
        <ele>951.7</ele>
        <time>2026-05-07T12:08:07.999Z</time>
      </trkpt>
      <trkpt lat="43.60704" lon="2.9678">
        <ele>951.6</ele>
        <time>2026-05-07T12:08:08.999Z</time>
      </trkpt>
      <trkpt lat="43.60704" lon="2.96779">
        <ele>951.6</ele>
        <time>2026-05-07T12:08:09.999Z</time>
      </trkpt>
      <trkpt lat="43.60703" lon="2.96779">
        <ele>951.7</ele>
        <time>2026-05-07T12:08:10.999Z</time>
      </trkpt>
      <trkpt lat="43.60703" lon="2.96779">
        <ele>951.8</ele>
        <time>2026-05-07T12:08:11.999Z</time>
      </trkpt>
      <trkpt lat="43.60702" lon="2.96778">
        <ele>951.7</ele>
        <time>2026-05-07T12:08:12.999Z</time>
      </trkpt>
      <trkpt lat="43.60701" lon="2.96777">
        <ele>951.3</ele>
        <time>2026-05-07T12:08:13.999Z</time>
      </trkpt>
      <trkpt lat="43.607" lon="2.96777">
        <ele>951.2</ele>
        <time>2026-05-07T12:08:14.999Z</time>
      </trkpt>
      <trkpt lat="43.60699" lon="2.96777">
        <ele>951.1</ele>
        <time>2026-05-07T12:08:15.999Z</time>
      </trkpt>
      <trkpt lat="43.60699" lon="2.96777">
        <ele>951.1</ele>
        <time>2026-05-07T12:08:16.999Z</time>
      </trkpt>
      <trkpt lat="43.60699" lon="2.96777">
        <ele>951.3</ele>
        <time>2026-05-07T12:08:17.999Z</time>
      </trkpt>
      <trkpt lat="43.60698" lon="2.96777">
        <ele>951.3</ele>
        <time>2026-05-07T12:08:18.999Z</time>
      </trkpt>
      <trkpt lat="43.60698" lon="2.96777">
        <ele>951.5</ele>
        <time>2026-05-07T12:08:19.999Z</time>
      </trkpt>
      <trkpt lat="43.60698" lon="2.96777">
        <ele>951.3</ele>
        <time>2026-05-07T12:08:20.999Z</time>
      </trkpt>
      <trkpt lat="43.60698" lon="2.96777">
        <ele>951.5</ele>
        <time>2026-05-07T12:08:21.999Z</time>
      </trkpt>
      <trkpt lat="43.60698" lon="2.96777">
        <ele>951.6</ele>
        <time>2026-05-07T12:08:22.999Z</time>
      </trkpt>
      <trkpt lat="43.60698" lon="2.96777">
        <ele>951</ele>
        <time>2026-05-07T12:08:23.999Z</time>
      </trkpt>
      <trkpt lat="43.60698" lon="2.96777">
        <ele>950.5</ele>
        <time>2026-05-07T12:08:24.999Z</time>
      </trkpt>
      <trkpt lat="43.60697" lon="2.96777">
        <ele>950.1</ele>
        <time>2026-05-07T12:08:25.999Z</time>
      </trkpt>
      <trkpt lat="43.60697" lon="2.96777">
        <ele>949.7</ele>
        <time>2026-05-07T12:08:26.999Z</time>
      </trkpt>
      <trkpt lat="43.60697" lon="2.96777">
        <ele>950</ele>
        <time>2026-05-07T12:08:27.999Z</time>
      </trkpt>
      <trkpt lat="43.60697" lon="2.96776">
        <ele>950.1</ele>
        <time>2026-05-07T12:08:28.999Z</time>
      </trkpt>
      <trkpt lat="43.60696" lon="2.96776">
        <ele>950.3</ele>
        <time>2026-05-07T12:08:29.999Z</time>
      </trkpt>
      <trkpt lat="43.60696" lon="2.96776">
        <ele>950.6</ele>
        <time>2026-05-07T12:08:30.999Z</time>
      </trkpt>
      <trkpt lat="43.60696" lon="2.96776">
        <ele>950.5</ele>
        <time>2026-05-07T12:08:31.999Z</time>
      </trkpt>
      <trkpt lat="43.60696" lon="2.96776">
        <ele>950.8</ele>
        <time>2026-05-07T12:08:32.999Z</time>
      </trkpt>
      <trkpt lat="43.60696" lon="2.96776">
        <ele>950.8</ele>
        <time>2026-05-07T12:08:33.999Z</time>
      </trkpt>
      <trkpt lat="43.60696" lon="2.96775">
        <ele>951</ele>
        <time>2026-05-07T12:08:34.999Z</time>
      </trkpt>
      <trkpt lat="43.60695" lon="2.96774">
        <ele>950.9</ele>
        <time>2026-05-07T12:08:35.999Z</time>
      </trkpt>
      <trkpt lat="43.60695" lon="2.96772">
        <ele>951</ele>
        <time>2026-05-07T12:08:36.999Z</time>
      </trkpt>
      <trkpt lat="43.60694" lon="2.96771">
        <ele>950.9</ele>
        <time>2026-05-07T12:08:37.999Z</time>
      </trkpt>
      <trkpt lat="43.60693" lon="2.9677">
        <ele>950.6</ele>
        <time>2026-05-07T12:08:38.999Z</time>
      </trkpt>
      <trkpt lat="43.60692" lon="2.96769">
        <ele>950.2</ele>
        <time>2026-05-07T12:08:39.999Z</time>
      </trkpt>
      <trkpt lat="43.60691" lon="2.96769">
        <ele>950.1</ele>
        <time>2026-05-07T12:08:40.999Z</time>
      </trkpt>
      <trkpt lat="43.6069" lon="2.96766">
        <ele>949.9</ele>
        <time>2026-05-07T12:08:41.999Z</time>
      </trkpt>
      <trkpt lat="43.6069" lon="2.96766">
        <ele>949.8</ele>
        <time>2026-05-07T12:08:42.999Z</time>
      </trkpt>
      <trkpt lat="43.60689" lon="2.96766">
        <ele>949.7</ele>
        <time>2026-05-07T12:08:43.999Z</time>
      </trkpt>
      <trkpt lat="43.60689" lon="2.96766">
        <ele>949.5</ele>
        <time>2026-05-07T12:08:44.999Z</time>
      </trkpt>
      <trkpt lat="43.60689" lon="2.96765">
        <ele>950.1</ele>
        <time>2026-05-07T12:08:45.999Z</time>
      </trkpt>
      <trkpt lat="43.60689" lon="2.96765">
        <ele>950.3</ele>
        <time>2026-05-07T12:08:46.999Z</time>
      </trkpt>
      <trkpt lat="43.60689" lon="2.96765">
        <ele>950.2</ele>
        <time>2026-05-07T12:08:47.999Z</time>
      </trkpt>
      <trkpt lat="43.60688" lon="2.96765">
        <ele>950</ele>
        <time>2026-05-07T12:08:48.999Z</time>
      </trkpt>
      <trkpt lat="43.60688" lon="2.96765">
        <ele>949.6</ele>
        <time>2026-05-07T12:08:49.999Z</time>
      </trkpt>
      <trkpt lat="43.60688" lon="2.96764">
        <ele>949.6</ele>
        <time>2026-05-07T12:08:50.999Z</time>
      </trkpt>
      <trkpt lat="43.60688" lon="2.96764">
        <ele>949.2</ele>
        <time>2026-05-07T12:08:51.999Z</time>
      </trkpt>
      <trkpt lat="43.60686" lon="2.96764">
        <ele>949.4</ele>
        <time>2026-05-07T12:08:52.999Z</time>
      </trkpt>
      <trkpt lat="43.60685" lon="2.96764">
        <ele>949.3</ele>
        <time>2026-05-07T12:08:53.999Z</time>
      </trkpt>
      <trkpt lat="43.60685" lon="2.96763">
        <ele>949.1</ele>
        <time>2026-05-07T12:08:54.999Z</time>
      </trkpt>
      <trkpt lat="43.60683" lon="2.96761">
        <ele>949</ele>
        <time>2026-05-07T12:08:55.999Z</time>
      </trkpt>
      <trkpt lat="43.60683" lon="2.96759">
        <ele>948.7</ele>
        <time>2026-05-07T12:08:56.999Z</time>
      </trkpt>
      <trkpt lat="43.60682" lon="2.96759">
        <ele>948.1</ele>
        <time>2026-05-07T12:08:57.999Z</time>
      </trkpt>
      <trkpt lat="43.60682" lon="2.96758">
        <ele>947.9</ele>
        <time>2026-05-07T12:08:58.999Z</time>
      </trkpt>
      <trkpt lat="43.60682" lon="2.96758">
        <ele>947.8</ele>
        <time>2026-05-07T12:08:59.999Z</time>
      </trkpt>
      <trkpt lat="43.60682" lon="2.96758">
        <ele>947.7</ele>
        <time>2026-05-07T12:09:00.999Z</time>
      </trkpt>
      <trkpt lat="43.60682" lon="2.96758">
        <ele>947.7</ele>
        <time>2026-05-07T12:09:01.999Z</time>
      </trkpt>
      <trkpt lat="43.60682" lon="2.96757">
        <ele>947.9</ele>
        <time>2026-05-07T12:09:02.999Z</time>
      </trkpt>
      <trkpt lat="43.60682" lon="2.96756">
        <ele>947.8</ele>
        <time>2026-05-07T12:09:03.999Z</time>
      </trkpt>
      <trkpt lat="43.60682" lon="2.96756">
        <ele>947.4</ele>
        <time>2026-05-07T12:09:04.999Z</time>
      </trkpt>
      <trkpt lat="43.60682" lon="2.96756">
        <ele>947.2</ele>
        <time>2026-05-07T12:09:05.999Z</time>
      </trkpt>
      <trkpt lat="43.60682" lon="2.96754">
        <ele>947.1</ele>
        <time>2026-05-07T12:09:06.999Z</time>
      </trkpt>
      <trkpt lat="43.60682" lon="2.96752">
        <ele>946.7</ele>
        <time>2026-05-07T12:09:07.999Z</time>
      </trkpt>
      <trkpt lat="43.60681" lon="2.96751">
        <ele>946.7</ele>
        <time>2026-05-07T12:09:08.999Z</time>
      </trkpt>
      <trkpt lat="43.60681" lon="2.96751">
        <ele>946.6</ele>
        <time>2026-05-07T12:09:09.999Z</time>
      </trkpt>
      <trkpt lat="43.60681" lon="2.9675">
        <ele>946.6</ele>
        <time>2026-05-07T12:09:10.999Z</time>
      </trkpt>
      <trkpt lat="43.60682" lon="2.9675">
        <ele>946.6</ele>
        <time>2026-05-07T12:09:11.999Z</time>
      </trkpt>
      <trkpt lat="43.60682" lon="2.9675">
        <ele>946.6</ele>
        <time>2026-05-07T12:09:12.999Z</time>
      </trkpt>
      <trkpt lat="43.60682" lon="2.9675">
        <ele>946.8</ele>
        <time>2026-05-07T12:09:13.999Z</time>
      </trkpt>
      <trkpt lat="43.60681" lon="2.96749">
        <ele>946.9</ele>
        <time>2026-05-07T12:09:14.999Z</time>
      </trkpt>
      <trkpt lat="43.6068" lon="2.96749">
        <ele>946.7</ele>
        <time>2026-05-07T12:09:15.999Z</time>
      </trkpt>
      <trkpt lat="43.6068" lon="2.96747">
        <ele>946.3</ele>
        <time>2026-05-07T12:09:16.999Z</time>
      </trkpt>
      <trkpt lat="43.60679" lon="2.96746">
        <ele>946.8</ele>
        <time>2026-05-07T12:09:17.999Z</time>
      </trkpt>
      <trkpt lat="43.60679" lon="2.96746">
        <ele>946.6</ele>
        <time>2026-05-07T12:09:18.999Z</time>
      </trkpt>
      <trkpt lat="43.60679" lon="2.96746">
        <ele>946.2</ele>
        <time>2026-05-07T12:09:19.999Z</time>
      </trkpt>
      <trkpt lat="43.60678" lon="2.96745">
        <ele>946.2</ele>
        <time>2026-05-07T12:09:20.999Z</time>
      </trkpt>
      <trkpt lat="43.60678" lon="2.96745">
        <ele>946.3</ele>
        <time>2026-05-07T12:09:21.999Z</time>
      </trkpt>
      <trkpt lat="43.60678" lon="2.96745">
        <ele>946.3</ele>
        <time>2026-05-07T12:09:22.999Z</time>
      </trkpt>
      <trkpt lat="43.60678" lon="2.96745">
        <ele>946.3</ele>
        <time>2026-05-07T12:09:23.999Z</time>
      </trkpt>
      <trkpt lat="43.60677" lon="2.96744">
        <ele>946</ele>
        <time>2026-05-07T12:09:24.999Z</time>
      </trkpt>
      <trkpt lat="43.60675" lon="2.9674">
        <ele>946.1</ele>
        <time>2026-05-07T12:09:25.999Z</time>
      </trkpt>
      <trkpt lat="43.60674" lon="2.96737">
        <ele>945.8</ele>
        <time>2026-05-07T12:09:26.999Z</time>
      </trkpt>
      <trkpt lat="43.60672" lon="2.96735">
        <ele>945.8</ele>
        <time>2026-05-07T12:09:27.999Z</time>
      </trkpt>
      <trkpt lat="43.6067" lon="2.96733">
        <ele>946</ele>
        <time>2026-05-07T12:09:28.999Z</time>
      </trkpt>
      <trkpt lat="43.60668" lon="2.96732">
        <ele>945.9</ele>
        <time>2026-05-07T12:09:29.999Z</time>
      </trkpt>
      <trkpt lat="43.60668" lon="2.96732">
        <ele>945.8</ele>
        <time>2026-05-07T12:09:30.999Z</time>
      </trkpt>
      <trkpt lat="43.60667" lon="2.96731">
        <ele>945.7</ele>
        <time>2026-05-07T12:09:31.999Z</time>
      </trkpt>
      <trkpt lat="43.60667" lon="2.9673">
        <ele>945.6</ele>
        <time>2026-05-07T12:09:32.999Z</time>
      </trkpt>
      <trkpt lat="43.60666" lon="2.9673">
        <ele>945.4</ele>
        <time>2026-05-07T12:09:33.999Z</time>
      </trkpt>
      <trkpt lat="43.60664" lon="2.96728">
        <ele>945</ele>
        <time>2026-05-07T12:09:34.999Z</time>
      </trkpt>
      <trkpt lat="43.60663" lon="2.96728">
        <ele>945.1</ele>
        <time>2026-05-07T12:09:35.999Z</time>
      </trkpt>
      <trkpt lat="43.60661" lon="2.96727">
        <ele>945.4</ele>
        <time>2026-05-07T12:09:36.999Z</time>
      </trkpt>
      <trkpt lat="43.6066" lon="2.96727">
        <ele>945.5</ele>
        <time>2026-05-07T12:09:37.999Z</time>
      </trkpt>
      <trkpt lat="43.60659" lon="2.96727">
        <ele>945.4</ele>
        <time>2026-05-07T12:09:38.999Z</time>
      </trkpt>
      <trkpt lat="43.60659" lon="2.96727">
        <ele>945.8</ele>
        <time>2026-05-07T12:09:39.999Z</time>
      </trkpt>
      <trkpt lat="43.60658" lon="2.96727">
        <ele>945.7</ele>
        <time>2026-05-07T12:09:40.999Z</time>
      </trkpt>
      <trkpt lat="43.60657" lon="2.96726">
        <ele>945.8</ele>
        <time>2026-05-07T12:09:41.999Z</time>
      </trkpt>
      <trkpt lat="43.60657" lon="2.96725">
        <ele>945.7</ele>
        <time>2026-05-07T12:09:42.999Z</time>
      </trkpt>
      <trkpt lat="43.60656" lon="2.96724">
        <ele>945.9</ele>
        <time>2026-05-07T12:09:43.999Z</time>
      </trkpt>
      <trkpt lat="43.60655" lon="2.96724">
        <ele>946.1</ele>
        <time>2026-05-07T12:09:44.999Z</time>
      </trkpt>
      <trkpt lat="43.60655" lon="2.96724">
        <ele>946.6</ele>
        <time>2026-05-07T12:09:45.999Z</time>
      </trkpt>
      <trkpt lat="43.60654" lon="2.96723">
        <ele>946.5</ele>
        <time>2026-05-07T12:09:46.999Z</time>
      </trkpt>
      <trkpt lat="43.60653" lon="2.96722">
        <ele>946.8</ele>
        <time>2026-05-07T12:09:47.999Z</time>
      </trkpt>
      <trkpt lat="43.60652" lon="2.96722">
        <ele>946.9</ele>
        <time>2026-05-07T12:09:48.999Z</time>
      </trkpt>
      <trkpt lat="43.60651" lon="2.96721">
        <ele>946.7</ele>
        <time>2026-05-07T12:09:49.999Z</time>
      </trkpt>
      <trkpt lat="43.60651" lon="2.96719">
        <ele>946</ele>
        <time>2026-05-07T12:09:50.999Z</time>
      </trkpt>
      <trkpt lat="43.6065" lon="2.96718">
        <ele>945.3</ele>
        <time>2026-05-07T12:09:51.999Z</time>
      </trkpt>
      <trkpt lat="43.60648" lon="2.96716">
        <ele>944.7</ele>
        <time>2026-05-07T12:09:52.999Z</time>
      </trkpt>
      <trkpt lat="43.60647" lon="2.96715">
        <ele>944.3</ele>
        <time>2026-05-07T12:09:53.999Z</time>
      </trkpt>
      <trkpt lat="43.60646" lon="2.96714">
        <ele>944.2</ele>
        <time>2026-05-07T12:09:54.999Z</time>
      </trkpt>
      <trkpt lat="43.60646" lon="2.96713">
        <ele>944.3</ele>
        <time>2026-05-07T12:09:55.999Z</time>
      </trkpt>
      <trkpt lat="43.60645" lon="2.96712">
        <ele>944.3</ele>
        <time>2026-05-07T12:09:56.999Z</time>
      </trkpt>
      <trkpt lat="43.60645" lon="2.96711">
        <ele>944.4</ele>
        <time>2026-05-07T12:09:57.999Z</time>
      </trkpt>
      <trkpt lat="43.60644" lon="2.9671">
        <ele>944.3</ele>
        <time>2026-05-07T12:09:58.999Z</time>
      </trkpt>
      <trkpt lat="43.60643" lon="2.96708">
        <ele>944.2</ele>
        <time>2026-05-07T12:09:59.999Z</time>
      </trkpt>
      <trkpt lat="43.60642" lon="2.96708">
        <ele>944.4</ele>
        <time>2026-05-07T12:10:00.999Z</time>
      </trkpt>
      <trkpt lat="43.60641" lon="2.96708">
        <ele>944.7</ele>
        <time>2026-05-07T12:10:01.999Z</time>
      </trkpt>
      <trkpt lat="43.60641" lon="2.96707">
        <ele>944.5</ele>
        <time>2026-05-07T12:10:02.999Z</time>
      </trkpt>
      <trkpt lat="43.60641" lon="2.96707">
        <ele>944.2</ele>
        <time>2026-05-07T12:10:03.999Z</time>
      </trkpt>
      <trkpt lat="43.60641" lon="2.96706">
        <ele>943.7</ele>
        <time>2026-05-07T12:10:04.999Z</time>
      </trkpt>
      <trkpt lat="43.6064" lon="2.96705">
        <ele>943.6</ele>
        <time>2026-05-07T12:10:05.999Z</time>
      </trkpt>
      <trkpt lat="43.60639" lon="2.96705">
        <ele>943.9</ele>
        <time>2026-05-07T12:10:06.999Z</time>
      </trkpt>
      <trkpt lat="43.60638" lon="2.96704">
        <ele>943.8</ele>
        <time>2026-05-07T12:10:07.999Z</time>
      </trkpt>
      <trkpt lat="43.60638" lon="2.96703">
        <ele>944.6</ele>
        <time>2026-05-07T12:10:08.999Z</time>
      </trkpt>
      <trkpt lat="43.60638" lon="2.96703">
        <ele>944.8</ele>
        <time>2026-05-07T12:10:09.999Z</time>
      </trkpt>
      <trkpt lat="43.60638" lon="2.96702">
        <ele>945.1</ele>
        <time>2026-05-07T12:10:10.999Z</time>
      </trkpt>
      <trkpt lat="43.60638" lon="2.96702">
        <ele>945.4</ele>
        <time>2026-05-07T12:10:11.999Z</time>
      </trkpt>
      <trkpt lat="43.60638" lon="2.96702">
        <ele>945.6</ele>
        <time>2026-05-07T12:10:12.999Z</time>
      </trkpt>
      <trkpt lat="43.60638" lon="2.96702">
        <ele>945.6</ele>
        <time>2026-05-07T12:10:13.999Z</time>
      </trkpt>
      <trkpt lat="43.60638" lon="2.96702">
        <ele>945.4</ele>
        <time>2026-05-07T12:10:14.999Z</time>
      </trkpt>
      <trkpt lat="43.60638" lon="2.96702">
        <ele>945.4</ele>
        <time>2026-05-07T12:10:15.999Z</time>
      </trkpt>
      <trkpt lat="43.60638" lon="2.96702">
        <ele>945.5</ele>
        <time>2026-05-07T12:10:16.999Z</time>
      </trkpt>
      <trkpt lat="43.60637" lon="2.96702">
        <ele>946</ele>
        <time>2026-05-07T12:10:17.999Z</time>
      </trkpt>
      <trkpt lat="43.60636" lon="2.96702">
        <ele>946</ele>
        <time>2026-05-07T12:10:18.999Z</time>
      </trkpt>
      <trkpt lat="43.60636" lon="2.96701">
        <ele>945.9</ele>
        <time>2026-05-07T12:10:19.999Z</time>
      </trkpt>
      <trkpt lat="43.60635" lon="2.96701">
        <ele>945.9</ele>
        <time>2026-05-07T12:10:20.999Z</time>
      </trkpt>
      <trkpt lat="43.60635" lon="2.96701">
        <ele>945.9</ele>
        <time>2026-05-07T12:10:21.999Z</time>
      </trkpt>
      <trkpt lat="43.60635" lon="2.96701">
        <ele>945.6</ele>
        <time>2026-05-07T12:10:22.999Z</time>
      </trkpt>
      <trkpt lat="43.60635" lon="2.96701">
        <ele>945.6</ele>
        <time>2026-05-07T12:10:23.999Z</time>
      </trkpt>
      <trkpt lat="43.60635" lon="2.96701">
        <ele>945.6</ele>
        <time>2026-05-07T12:10:24.999Z</time>
      </trkpt>
      <trkpt lat="43.60635" lon="2.96701">
        <ele>945.5</ele>
        <time>2026-05-07T12:10:25.999Z</time>
      </trkpt>
      <trkpt lat="43.60635" lon="2.96701">
        <ele>945.5</ele>
        <time>2026-05-07T12:10:26.999Z</time>
      </trkpt>
      <trkpt lat="43.60635" lon="2.967">
        <ele>945.5</ele>
        <time>2026-05-07T12:10:27.999Z</time>
      </trkpt>
      <trkpt lat="43.60635" lon="2.96698">
        <ele>945.7</ele>
        <time>2026-05-07T12:10:28.999Z</time>
      </trkpt>
      <trkpt lat="43.60636" lon="2.96697">
        <ele>945.4</ele>
        <time>2026-05-07T12:10:29.999Z</time>
      </trkpt>
      <trkpt lat="43.60637" lon="2.96698">
        <ele>944.9</ele>
        <time>2026-05-07T12:10:30.999Z</time>
      </trkpt>
      <trkpt lat="43.60636" lon="2.96697">
        <ele>944.4</ele>
        <time>2026-05-07T12:10:31.999Z</time>
      </trkpt>
      <trkpt lat="43.60637" lon="2.96697">
        <ele>944.2</ele>
        <time>2026-05-07T12:10:32.999Z</time>
      </trkpt>
      <trkpt lat="43.60637" lon="2.96697">
        <ele>943.9</ele>
        <time>2026-05-07T12:10:33.999Z</time>
      </trkpt>
      <trkpt lat="43.60637" lon="2.96697">
        <ele>943.5</ele>
        <time>2026-05-07T12:10:34.999Z</time>
      </trkpt>
      <trkpt lat="43.60637" lon="2.96697">
        <ele>943.4</ele>
        <time>2026-05-07T12:10:35.999Z</time>
      </trkpt>
      <trkpt lat="43.60636" lon="2.96697">
        <ele>942.7</ele>
        <time>2026-05-07T12:10:36.999Z</time>
      </trkpt>
      <trkpt lat="43.60636" lon="2.96697">
        <ele>942.5</ele>
        <time>2026-05-07T12:10:37.999Z</time>
      </trkpt>
      <trkpt lat="43.60637" lon="2.96697">
        <ele>942</ele>
        <time>2026-05-07T12:10:38.999Z</time>
      </trkpt>
      <trkpt lat="43.60638" lon="2.96697">
        <ele>941.8</ele>
        <time>2026-05-07T12:10:39.999Z</time>
      </trkpt>
      <trkpt lat="43.60639" lon="2.96698">
        <ele>941.1</ele>
        <time>2026-05-07T12:10:40.999Z</time>
      </trkpt>
      <trkpt lat="43.6064" lon="2.96699">
        <ele>940.7</ele>
        <time>2026-05-07T12:10:41.999Z</time>
      </trkpt>
      <trkpt lat="43.6064" lon="2.96698">
        <ele>940.4</ele>
        <time>2026-05-07T12:10:42.999Z</time>
      </trkpt>
      <trkpt lat="43.60639" lon="2.96698">
        <ele>940.3</ele>
        <time>2026-05-07T12:10:43.999Z</time>
      </trkpt>
      <trkpt lat="43.60638" lon="2.96698">
        <ele>940.2</ele>
        <time>2026-05-07T12:10:44.999Z</time>
      </trkpt>
      <trkpt lat="43.60637" lon="2.96699">
        <ele>939.8</ele>
        <time>2026-05-07T12:10:45.999Z</time>
      </trkpt>
      <trkpt lat="43.60637" lon="2.96699">
        <ele>939.4</ele>
        <time>2026-05-07T12:10:46.999Z</time>
      </trkpt>
      <trkpt lat="43.60637" lon="2.967">
        <ele>938.8</ele>
        <time>2026-05-07T12:10:47.999Z</time>
      </trkpt>
      <trkpt lat="43.60638" lon="2.96701">
        <ele>938.6</ele>
        <time>2026-05-07T12:10:48.999Z</time>
      </trkpt>
      <trkpt lat="43.60639" lon="2.96702">
        <ele>938.2</ele>
        <time>2026-05-07T12:10:49.999Z</time>
      </trkpt>
      <trkpt lat="43.60639" lon="2.96703">
        <ele>937.8</ele>
        <time>2026-05-07T12:10:50.999Z</time>
      </trkpt>
      <trkpt lat="43.6064" lon="2.96703">
        <ele>937.4</ele>
        <time>2026-05-07T12:10:51.999Z</time>
      </trkpt>
      <trkpt lat="43.6064" lon="2.96703">
        <ele>937.6</ele>
        <time>2026-05-07T12:10:52.999Z</time>
      </trkpt>
      <trkpt lat="43.6064" lon="2.96703">
        <ele>938</ele>
        <time>2026-05-07T12:10:53.999Z</time>
      </trkpt>
      <trkpt lat="43.60641" lon="2.96704">
        <ele>937.7</ele>
        <time>2026-05-07T12:10:54.999Z</time>
      </trkpt>
      <trkpt lat="43.60643" lon="2.96705">
        <ele>937.6</ele>
        <time>2026-05-07T12:10:55.999Z</time>
      </trkpt>
      <trkpt lat="43.60643" lon="2.96706">
        <ele>937.4</ele>
        <time>2026-05-07T12:10:56.999Z</time>
      </trkpt>
      <trkpt lat="43.60644" lon="2.96705">
        <ele>937.1</ele>
        <time>2026-05-07T12:10:57.999Z</time>
      </trkpt>
      <trkpt lat="43.60645" lon="2.96704">
        <ele>936.7</ele>
        <time>2026-05-07T12:10:58.999Z</time>
      </trkpt>
      <trkpt lat="43.60645" lon="2.96703">
        <ele>935.8</ele>
        <time>2026-05-07T12:10:59.999Z</time>
      </trkpt>
      <trkpt lat="43.60646" lon="2.96703">
        <ele>935.3</ele>
        <time>2026-05-07T12:11:00.999Z</time>
      </trkpt>
      <trkpt lat="43.60647" lon="2.96702">
        <ele>935.2</ele>
        <time>2026-05-07T12:11:01.999Z</time>
      </trkpt>
      <trkpt lat="43.60649" lon="2.96701">
        <ele>935</ele>
        <time>2026-05-07T12:11:02.999Z</time>
      </trkpt>
      <trkpt lat="43.60649" lon="2.96701">
        <ele>935</ele>
        <time>2026-05-07T12:11:03.999Z</time>
      </trkpt>
      <trkpt lat="43.6065" lon="2.967">
        <ele>934.9</ele>
        <time>2026-05-07T12:11:04.999Z</time>
      </trkpt>
      <trkpt lat="43.60651" lon="2.967">
        <ele>934.7</ele>
        <time>2026-05-07T12:11:05.999Z</time>
      </trkpt>
      <trkpt lat="43.60652" lon="2.96701">
        <ele>935</ele>
        <time>2026-05-07T12:11:06.999Z</time>
      </trkpt>
      <trkpt lat="43.60652" lon="2.96701">
        <ele>935.2</ele>
        <time>2026-05-07T12:11:07.999Z</time>
      </trkpt>
      <trkpt lat="43.60652" lon="2.96701">
        <ele>935.1</ele>
        <time>2026-05-07T12:11:08.999Z</time>
      </trkpt>
      <trkpt lat="43.60652" lon="2.96701">
        <ele>935</ele>
        <time>2026-05-07T12:11:09.999Z</time>
      </trkpt>
      <trkpt lat="43.60654" lon="2.96701">
        <ele>934.9</ele>
        <time>2026-05-07T12:11:10.999Z</time>
      </trkpt>
      <trkpt lat="43.60655" lon="2.967">
        <ele>935.1</ele>
        <time>2026-05-07T12:11:11.999Z</time>
      </trkpt>
      <trkpt lat="43.60655" lon="2.96699">
        <ele>935.3</ele>
        <time>2026-05-07T12:11:12.999Z</time>
      </trkpt>
      <trkpt lat="43.60655" lon="2.96699">
        <ele>934.8</ele>
        <time>2026-05-07T12:11:13.999Z</time>
      </trkpt>
      <trkpt lat="43.60656" lon="2.96698">
        <ele>934.5</ele>
        <time>2026-05-07T12:11:14.999Z</time>
      </trkpt>
      <trkpt lat="43.60656" lon="2.96698">
        <ele>934.1</ele>
        <time>2026-05-07T12:11:15.999Z</time>
      </trkpt>
      <trkpt lat="43.60657" lon="2.96698">
        <ele>933.8</ele>
        <time>2026-05-07T12:11:16.999Z</time>
      </trkpt>
      <trkpt lat="43.60657" lon="2.96696">
        <ele>933.2</ele>
        <time>2026-05-07T12:11:17.999Z</time>
      </trkpt>
      <trkpt lat="43.60658" lon="2.96695">
        <ele>932.7</ele>
        <time>2026-05-07T12:11:18.999Z</time>
      </trkpt>
      <trkpt lat="43.60659" lon="2.96693">
        <ele>932.1</ele>
        <time>2026-05-07T12:11:19.999Z</time>
      </trkpt>
      <trkpt lat="43.6066" lon="2.96692">
        <ele>932</ele>
        <time>2026-05-07T12:11:20.999Z</time>
      </trkpt>
      <trkpt lat="43.6066" lon="2.96691">
        <ele>931.7</ele>
        <time>2026-05-07T12:11:21.999Z</time>
      </trkpt>
      <trkpt lat="43.6066" lon="2.96691">
        <ele>931.3</ele>
        <time>2026-05-07T12:11:22.999Z</time>
      </trkpt>
      <trkpt lat="43.60661" lon="2.9669">
        <ele>931</ele>
        <time>2026-05-07T12:11:23.999Z</time>
      </trkpt>
      <trkpt lat="43.60662" lon="2.9669">
        <ele>930.7</ele>
        <time>2026-05-07T12:11:24.999Z</time>
      </trkpt>
      <trkpt lat="43.60663" lon="2.96688">
        <ele>930.5</ele>
        <time>2026-05-07T12:11:25.999Z</time>
      </trkpt>
      <trkpt lat="43.60665" lon="2.96687">
        <ele>930.6</ele>
        <time>2026-05-07T12:11:26.999Z</time>
      </trkpt>
      <trkpt lat="43.60665" lon="2.96686">
        <ele>930.8</ele>
        <time>2026-05-07T12:11:27.999Z</time>
      </trkpt>
      <trkpt lat="43.60665" lon="2.96687">
        <ele>930.7</ele>
        <time>2026-05-07T12:11:28.999Z</time>
      </trkpt>
      <trkpt lat="43.60665" lon="2.96686">
        <ele>930.8</ele>
        <time>2026-05-07T12:11:29.999Z</time>
      </trkpt>
      <trkpt lat="43.60666" lon="2.96686">
        <ele>930.8</ele>
        <time>2026-05-07T12:11:30.999Z</time>
      </trkpt>
      <trkpt lat="43.60666" lon="2.96686">
        <ele>930.9</ele>
        <time>2026-05-07T12:11:31.999Z</time>
      </trkpt>
      <trkpt lat="43.60666" lon="2.96686">
        <ele>930.5</ele>
        <time>2026-05-07T12:11:32.999Z</time>
      </trkpt>
      <trkpt lat="43.60666" lon="2.96686">
        <ele>930</ele>
        <time>2026-05-07T12:11:33.999Z</time>
      </trkpt>
      <trkpt lat="43.60667" lon="2.96685">
        <ele>929.8</ele>
        <time>2026-05-07T12:11:34.999Z</time>
      </trkpt>
      <trkpt lat="43.60667" lon="2.96685">
        <ele>929.4</ele>
        <time>2026-05-07T12:11:35.999Z</time>
      </trkpt>
      <trkpt lat="43.60667" lon="2.96684">
        <ele>929.3</ele>
        <time>2026-05-07T12:11:36.999Z</time>
      </trkpt>
      <trkpt lat="43.60667" lon="2.96684">
        <ele>929.4</ele>
        <time>2026-05-07T12:11:37.999Z</time>
      </trkpt>
      <trkpt lat="43.60667" lon="2.96684">
        <ele>929.2</ele>
        <time>2026-05-07T12:11:38.999Z</time>
      </trkpt>
      <trkpt lat="43.60667" lon="2.96683">
        <ele>929.1</ele>
        <time>2026-05-07T12:11:39.999Z</time>
      </trkpt>
      <trkpt lat="43.60667" lon="2.96683">
        <ele>928.9</ele>
        <time>2026-05-07T12:11:40.999Z</time>
      </trkpt>
      <trkpt lat="43.60667" lon="2.96682">
        <ele>928.7</ele>
        <time>2026-05-07T12:11:41.999Z</time>
      </trkpt>
      <trkpt lat="43.60668" lon="2.96681">
        <ele>928.8</ele>
        <time>2026-05-07T12:11:42.999Z</time>
      </trkpt>
      <trkpt lat="43.60668" lon="2.96676">
        <ele>928.6</ele>
        <time>2026-05-07T12:11:43.999Z</time>
      </trkpt>
      <trkpt lat="43.60668" lon="2.96673">
        <ele>928</ele>
        <time>2026-05-07T12:11:44.999Z</time>
      </trkpt>
      <trkpt lat="43.60668" lon="2.96671">
        <ele>928.1</ele>
        <time>2026-05-07T12:11:45.999Z</time>
      </trkpt>
      <trkpt lat="43.60669" lon="2.9667">
        <ele>928.2</ele>
        <time>2026-05-07T12:11:46.999Z</time>
      </trkpt>
      <trkpt lat="43.6067" lon="2.96669">
        <ele>928.3</ele>
        <time>2026-05-07T12:11:47.999Z</time>
      </trkpt>
      <trkpt lat="43.60669" lon="2.96668">
        <ele>928.7</ele>
        <time>2026-05-07T12:11:48.999Z</time>
      </trkpt>
      <trkpt lat="43.6067" lon="2.96668">
        <ele>929</ele>
        <time>2026-05-07T12:11:49.999Z</time>
      </trkpt>
      <trkpt lat="43.6067" lon="2.96668">
        <ele>929.3</ele>
        <time>2026-05-07T12:11:50.999Z</time>
      </trkpt>
      <trkpt lat="43.60669" lon="2.96666">
        <ele>929.6</ele>
        <time>2026-05-07T12:11:51.999Z</time>
      </trkpt>
      <trkpt lat="43.60668" lon="2.96664">
        <ele>929.4</ele>
        <time>2026-05-07T12:11:52.999Z</time>
      </trkpt>
      <trkpt lat="43.60668" lon="2.96662">
        <ele>929.2</ele>
        <time>2026-05-07T12:11:53.999Z</time>
      </trkpt>
      <trkpt lat="43.60667" lon="2.96661">
        <ele>929.4</ele>
        <time>2026-05-07T12:11:54.999Z</time>
      </trkpt>
      <trkpt lat="43.60666" lon="2.96662">
        <ele>929.4</ele>
        <time>2026-05-07T12:11:55.999Z</time>
      </trkpt>
      <trkpt lat="43.60665" lon="2.96662">
        <ele>929.5</ele>
        <time>2026-05-07T12:11:56.999Z</time>
      </trkpt>
      <trkpt lat="43.60665" lon="2.96664">
        <ele>929.2</ele>
        <time>2026-05-07T12:11:57.999Z</time>
      </trkpt>
      <trkpt lat="43.60665" lon="2.96664">
        <ele>929</ele>
        <time>2026-05-07T12:11:58.999Z</time>
      </trkpt>
      <trkpt lat="43.60665" lon="2.96664">
        <ele>928.5</ele>
        <time>2026-05-07T12:11:59.999Z</time>
      </trkpt>
      <trkpt lat="43.60665" lon="2.96664">
        <ele>928.2</ele>
        <time>2026-05-07T12:12:00.999Z</time>
      </trkpt>
      <trkpt lat="43.60664" lon="2.96665">
        <ele>928</ele>
        <time>2026-05-07T12:12:01.999Z</time>
      </trkpt>
      <trkpt lat="43.60664" lon="2.96666">
        <ele>927.9</ele>
        <time>2026-05-07T12:12:02.999Z</time>
      </trkpt>
      <trkpt lat="43.60665" lon="2.96668">
        <ele>927.6</ele>
        <time>2026-05-07T12:12:03.999Z</time>
      </trkpt>
      <trkpt lat="43.60666" lon="2.96668">
        <ele>927.1</ele>
        <time>2026-05-07T12:12:04.999Z</time>
      </trkpt>
      <trkpt lat="43.60668" lon="2.96666">
        <ele>926.8</ele>
        <time>2026-05-07T12:12:05.999Z</time>
      </trkpt>
      <trkpt lat="43.60669" lon="2.96663">
        <ele>926.7</ele>
        <time>2026-05-07T12:12:06.999Z</time>
      </trkpt>
      <trkpt lat="43.60669" lon="2.9666">
        <ele>926.3</ele>
        <time>2026-05-07T12:12:07.999Z</time>
      </trkpt>
      <trkpt lat="43.60668" lon="2.96658">
        <ele>926</ele>
        <time>2026-05-07T12:12:08.999Z</time>
      </trkpt>
      <trkpt lat="43.60667" lon="2.96657">
        <ele>926.2</ele>
        <time>2026-05-07T12:12:09.999Z</time>
      </trkpt>
      <trkpt lat="43.60666" lon="2.96656">
        <ele>925.8</ele>
        <time>2026-05-07T12:12:10.999Z</time>
      </trkpt>
      <trkpt lat="43.60665" lon="2.96655">
        <ele>925.7</ele>
        <time>2026-05-07T12:12:11.999Z</time>
      </trkpt>
      <trkpt lat="43.60663" lon="2.96655">
        <ele>925.5</ele>
        <time>2026-05-07T12:12:12.999Z</time>
      </trkpt>
      <trkpt lat="43.60662" lon="2.96656">
        <ele>925</ele>
        <time>2026-05-07T12:12:13.999Z</time>
      </trkpt>
      <trkpt lat="43.60662" lon="2.96655">
        <ele>924.4</ele>
        <time>2026-05-07T12:12:14.999Z</time>
      </trkpt>
      <trkpt lat="43.60661" lon="2.96654">
        <ele>923.8</ele>
        <time>2026-05-07T12:12:15.999Z</time>
      </trkpt>
      <trkpt lat="43.60661" lon="2.96653">
        <ele>923.7</ele>
        <time>2026-05-07T12:12:16.999Z</time>
      </trkpt>
      <trkpt lat="43.60661" lon="2.96653">
        <ele>923.6</ele>
        <time>2026-05-07T12:12:17.999Z</time>
      </trkpt>
      <trkpt lat="43.60661" lon="2.96652">
        <ele>923.2</ele>
        <time>2026-05-07T12:12:18.999Z</time>
      </trkpt>
      <trkpt lat="43.60662" lon="2.96651">
        <ele>923</ele>
        <time>2026-05-07T12:12:19.999Z</time>
      </trkpt>
      <trkpt lat="43.60663" lon="2.96649">
        <ele>922.8</ele>
        <time>2026-05-07T12:12:20.999Z</time>
      </trkpt>
      <trkpt lat="43.60663" lon="2.96648">
        <ele>922.4</ele>
        <time>2026-05-07T12:12:21.999Z</time>
      </trkpt>
      <trkpt lat="43.60662" lon="2.96647">
        <ele>921.7</ele>
        <time>2026-05-07T12:12:22.999Z</time>
      </trkpt>
      <trkpt lat="43.60663" lon="2.96647">
        <ele>921</ele>
        <time>2026-05-07T12:12:23.999Z</time>
      </trkpt>
      <trkpt lat="43.60663" lon="2.96644">
        <ele>921.1</ele>
        <time>2026-05-07T12:12:24.999Z</time>
      </trkpt>
      <trkpt lat="43.60663" lon="2.96641">
        <ele>921.5</ele>
        <time>2026-05-07T12:12:25.999Z</time>
      </trkpt>
      <trkpt lat="43.60661" lon="2.96641">
        <ele>921.1</ele>
        <time>2026-05-07T12:12:26.999Z</time>
      </trkpt>
      <trkpt lat="43.6066" lon="2.96641">
        <ele>921.4</ele>
        <time>2026-05-07T12:12:27.999Z</time>
      </trkpt>
      <trkpt lat="43.60658" lon="2.96642">
        <ele>921.4</ele>
        <time>2026-05-07T12:12:28.999Z</time>
      </trkpt>
      <trkpt lat="43.60656" lon="2.96641">
        <ele>921.8</ele>
        <time>2026-05-07T12:12:29.999Z</time>
      </trkpt>
      <trkpt lat="43.60654" lon="2.96641">
        <ele>921.6</ele>
        <time>2026-05-07T12:12:30.999Z</time>
      </trkpt>
      <trkpt lat="43.60652" lon="2.96641">
        <ele>921.7</ele>
        <time>2026-05-07T12:12:31.999Z</time>
      </trkpt>
      <trkpt lat="43.6065" lon="2.96642">
        <ele>921.7</ele>
        <time>2026-05-07T12:12:32.999Z</time>
      </trkpt>
      <trkpt lat="43.60649" lon="2.96642">
        <ele>921.7</ele>
        <time>2026-05-07T12:12:33.999Z</time>
      </trkpt>
      <trkpt lat="43.60648" lon="2.96641">
        <ele>921.4</ele>
        <time>2026-05-07T12:12:34.999Z</time>
      </trkpt>
      <trkpt lat="43.60646" lon="2.96641">
        <ele>921.2</ele>
        <time>2026-05-07T12:12:35.999Z</time>
      </trkpt>
      <trkpt lat="43.60644" lon="2.96641">
        <ele>920.9</ele>
        <time>2026-05-07T12:12:36.999Z</time>
      </trkpt>
      <trkpt lat="43.60642" lon="2.96641">
        <ele>920.5</ele>
        <time>2026-05-07T12:12:37.999Z</time>
      </trkpt>
      <trkpt lat="43.60641" lon="2.9664">
        <ele>921</ele>
        <time>2026-05-07T12:12:38.999Z</time>
      </trkpt>
      <trkpt lat="43.60641" lon="2.96639">
        <ele>920.8</ele>
        <time>2026-05-07T12:12:39.999Z</time>
      </trkpt>
      <trkpt lat="43.6064" lon="2.96639">
        <ele>920.1</ele>
        <time>2026-05-07T12:12:40.999Z</time>
      </trkpt>
      <trkpt lat="43.60639" lon="2.96638">
        <ele>919.9</ele>
        <time>2026-05-07T12:12:41.999Z</time>
      </trkpt>
      <trkpt lat="43.60638" lon="2.96638">
        <ele>919.9</ele>
        <time>2026-05-07T12:12:42.999Z</time>
      </trkpt>
      <trkpt lat="43.60638" lon="2.96638">
        <ele>919.6</ele>
        <time>2026-05-07T12:12:43.999Z</time>
      </trkpt>
      <trkpt lat="43.60637" lon="2.96638">
        <ele>919.5</ele>
        <time>2026-05-07T12:12:44.999Z</time>
      </trkpt>
      <trkpt lat="43.60637" lon="2.96639">
        <ele>919.9</ele>
        <time>2026-05-07T12:12:45.999Z</time>
      </trkpt>
      <trkpt lat="43.60637" lon="2.96638">
        <ele>920.3</ele>
        <time>2026-05-07T12:12:46.999Z</time>
      </trkpt>
      <trkpt lat="43.60637" lon="2.96636">
        <ele>919.9</ele>
        <time>2026-05-07T12:12:47.999Z</time>
      </trkpt>
      <trkpt lat="43.60637" lon="2.96636">
        <ele>919.6</ele>
        <time>2026-05-07T12:12:48.999Z</time>
      </trkpt>
      <trkpt lat="43.60637" lon="2.96636">
        <ele>919.7</ele>
        <time>2026-05-07T12:12:49.999Z</time>
      </trkpt>
      <trkpt lat="43.60636" lon="2.96636">
        <ele>919.8</ele>
        <time>2026-05-07T12:12:50.999Z</time>
      </trkpt>
      <trkpt lat="43.60635" lon="2.96636">
        <ele>920</ele>
        <time>2026-05-07T12:12:51.999Z</time>
      </trkpt>
      <trkpt lat="43.60633" lon="2.96637">
        <ele>920</ele>
        <time>2026-05-07T12:12:52.999Z</time>
      </trkpt>
      <trkpt lat="43.60632" lon="2.96637">
        <ele>920</ele>
        <time>2026-05-07T12:12:53.999Z</time>
      </trkpt>
      <trkpt lat="43.60631" lon="2.96636">
        <ele>920.2</ele>
        <time>2026-05-07T12:12:54.999Z</time>
      </trkpt>
      <trkpt lat="43.60631" lon="2.96634">
        <ele>920.5</ele>
        <time>2026-05-07T12:12:55.999Z</time>
      </trkpt>
      <trkpt lat="43.60631" lon="2.96634">
        <ele>920.6</ele>
        <time>2026-05-07T12:12:56.999Z</time>
      </trkpt>
      <trkpt lat="43.60631" lon="2.96635">
        <ele>920.1</ele>
        <time>2026-05-07T12:12:57.999Z</time>
      </trkpt>
      <trkpt lat="43.60632" lon="2.96634">
        <ele>920.2</ele>
        <time>2026-05-07T12:12:58.999Z</time>
      </trkpt>
      <trkpt lat="43.60631" lon="2.96633">
        <ele>920.7</ele>
        <time>2026-05-07T12:12:59.999Z</time>
      </trkpt>
      <trkpt lat="43.60632" lon="2.96632">
        <ele>920.8</ele>
        <time>2026-05-07T12:13:00.999Z</time>
      </trkpt>
      <trkpt lat="43.60631" lon="2.96632">
        <ele>920.5</ele>
        <time>2026-05-07T12:13:01.999Z</time>
      </trkpt>
      <trkpt lat="43.60631" lon="2.96632">
        <ele>920.5</ele>
        <time>2026-05-07T12:13:02.999Z</time>
      </trkpt>
      <trkpt lat="43.60631" lon="2.96632">
        <ele>920.9</ele>
        <time>2026-05-07T12:13:03.999Z</time>
      </trkpt>
      <trkpt lat="43.6063" lon="2.96632">
        <ele>921.2</ele>
        <time>2026-05-07T12:13:04.999Z</time>
      </trkpt>
      <trkpt lat="43.6063" lon="2.96632">
        <ele>921.2</ele>
        <time>2026-05-07T12:13:05.999Z</time>
      </trkpt>
      <trkpt lat="43.60629" lon="2.96631">
        <ele>921.4</ele>
        <time>2026-05-07T12:13:06.999Z</time>
      </trkpt>
      <trkpt lat="43.60628" lon="2.9663">
        <ele>921.3</ele>
        <time>2026-05-07T12:13:07.999Z</time>
      </trkpt>
      <trkpt lat="43.60628" lon="2.9663">
        <ele>921</ele>
        <time>2026-05-07T12:13:08.999Z</time>
      </trkpt>
      <trkpt lat="43.60628" lon="2.9663">
        <ele>920.7</ele>
        <time>2026-05-07T12:13:09.999Z</time>
      </trkpt>
      <trkpt lat="43.60628" lon="2.96628">
        <ele>920.2</ele>
        <time>2026-05-07T12:13:10.999Z</time>
      </trkpt>
      <trkpt lat="43.60627" lon="2.96627">
        <ele>919.5</ele>
        <time>2026-05-07T12:13:11.999Z</time>
      </trkpt>
      <trkpt lat="43.60627" lon="2.96625">
        <ele>918.8</ele>
        <time>2026-05-07T12:13:12.999Z</time>
      </trkpt>
      <trkpt lat="43.60626" lon="2.96624">
        <ele>918.4</ele>
        <time>2026-05-07T12:13:13.999Z</time>
      </trkpt>
      <trkpt lat="43.60626" lon="2.96623">
        <ele>918.4</ele>
        <time>2026-05-07T12:13:14.999Z</time>
      </trkpt>
      <trkpt lat="43.60626" lon="2.96622">
        <ele>918.7</ele>
        <time>2026-05-07T12:13:15.999Z</time>
      </trkpt>
      <trkpt lat="43.60623" lon="2.96623">
        <ele>918.5</ele>
        <time>2026-05-07T12:13:16.999Z</time>
      </trkpt>
      <trkpt lat="43.60622" lon="2.96623">
        <ele>918.2</ele>
        <time>2026-05-07T12:13:17.999Z</time>
      </trkpt>
      <trkpt lat="43.60622" lon="2.96624">
        <ele>918.3</ele>
        <time>2026-05-07T12:13:18.999Z</time>
      </trkpt>
      <trkpt lat="43.60621" lon="2.96624">
        <ele>918.2</ele>
        <time>2026-05-07T12:13:19.999Z</time>
      </trkpt>
      <trkpt lat="43.6062" lon="2.96624">
        <ele>918.3</ele>
        <time>2026-05-07T12:13:20.999Z</time>
      </trkpt>
      <trkpt lat="43.60619" lon="2.96624">
        <ele>917.8</ele>
        <time>2026-05-07T12:13:21.999Z</time>
      </trkpt>
      <trkpt lat="43.60618" lon="2.96625">
        <ele>917.2</ele>
        <time>2026-05-07T12:13:22.999Z</time>
      </trkpt>
      <trkpt lat="43.60618" lon="2.96625">
        <ele>917.2</ele>
        <time>2026-05-07T12:13:23.999Z</time>
      </trkpt>
      <trkpt lat="43.60616" lon="2.96625">
        <ele>916.7</ele>
        <time>2026-05-07T12:13:24.999Z</time>
      </trkpt>
      <trkpt lat="43.60616" lon="2.96625">
        <ele>916.6</ele>
        <time>2026-05-07T12:13:25.999Z</time>
      </trkpt>
      <trkpt lat="43.60615" lon="2.96625">
        <ele>916.2</ele>
        <time>2026-05-07T12:13:26.999Z</time>
      </trkpt>
      <trkpt lat="43.60614" lon="2.96624">
        <ele>915.4</ele>
        <time>2026-05-07T12:13:27.999Z</time>
      </trkpt>
      <trkpt lat="43.60613" lon="2.96622">
        <ele>914.8</ele>
        <time>2026-05-07T12:13:28.999Z</time>
      </trkpt>
      <trkpt lat="43.60613" lon="2.9662">
        <ele>914.6</ele>
        <time>2026-05-07T12:13:29.999Z</time>
      </trkpt>
      <trkpt lat="43.60613" lon="2.96618">
        <ele>914.2</ele>
        <time>2026-05-07T12:13:30.999Z</time>
      </trkpt>
      <trkpt lat="43.60612" lon="2.96617">
        <ele>913.7</ele>
        <time>2026-05-07T12:13:31.999Z</time>
      </trkpt>
      <trkpt lat="43.60612" lon="2.96617">
        <ele>913.3</ele>
        <time>2026-05-07T12:13:32.999Z</time>
      </trkpt>
      <trkpt lat="43.60612" lon="2.96616">
        <ele>913.5</ele>
        <time>2026-05-07T12:13:33.999Z</time>
      </trkpt>
      <trkpt lat="43.60611" lon="2.96615">
        <ele>912.8</ele>
        <time>2026-05-07T12:13:34.999Z</time>
      </trkpt>
      <trkpt lat="43.6061" lon="2.96614">
        <ele>912.5</ele>
        <time>2026-05-07T12:13:35.999Z</time>
      </trkpt>
      <trkpt lat="43.6061" lon="2.96613">
        <ele>912.1</ele>
        <time>2026-05-07T12:13:36.999Z</time>
      </trkpt>
      <trkpt lat="43.60609" lon="2.96613">
        <ele>911.3</ele>
        <time>2026-05-07T12:13:37.999Z</time>
      </trkpt>
      <trkpt lat="43.60608" lon="2.96613">
        <ele>911.1</ele>
        <time>2026-05-07T12:13:38.999Z</time>
      </trkpt>
      <trkpt lat="43.60607" lon="2.96613">
        <ele>910.6</ele>
        <time>2026-05-07T12:13:39.999Z</time>
      </trkpt>
      <trkpt lat="43.60606" lon="2.96612">
        <ele>910.5</ele>
        <time>2026-05-07T12:13:40.999Z</time>
      </trkpt>
      <trkpt lat="43.60606" lon="2.96611">
        <ele>910.2</ele>
        <time>2026-05-07T12:13:41.999Z</time>
      </trkpt>
      <trkpt lat="43.60606" lon="2.96612">
        <ele>910</ele>
        <time>2026-05-07T12:13:42.999Z</time>
      </trkpt>
      <trkpt lat="43.60604" lon="2.96613">
        <ele>910.2</ele>
        <time>2026-05-07T12:13:43.999Z</time>
      </trkpt>
      <trkpt lat="43.60602" lon="2.96613">
        <ele>910.1</ele>
        <time>2026-05-07T12:13:44.999Z</time>
      </trkpt>
      <trkpt lat="43.60601" lon="2.96613">
        <ele>910</ele>
        <time>2026-05-07T12:13:45.999Z</time>
      </trkpt>
      <trkpt lat="43.606" lon="2.96613">
        <ele>909.4</ele>
        <time>2026-05-07T12:13:46.999Z</time>
      </trkpt>
      <trkpt lat="43.606" lon="2.96613">
        <ele>909.2</ele>
        <time>2026-05-07T12:13:47.999Z</time>
      </trkpt>
      <trkpt lat="43.60599" lon="2.96613">
        <ele>908.8</ele>
        <time>2026-05-07T12:13:48.999Z</time>
      </trkpt>
      <trkpt lat="43.60598" lon="2.96613">
        <ele>909.1</ele>
        <time>2026-05-07T12:13:49.999Z</time>
      </trkpt>
      <trkpt lat="43.60598" lon="2.96612">
        <ele>909.2</ele>
        <time>2026-05-07T12:13:50.999Z</time>
      </trkpt>
      <trkpt lat="43.60598" lon="2.96612">
        <ele>909.6</ele>
        <time>2026-05-07T12:13:51.999Z</time>
      </trkpt>
      <trkpt lat="43.60597" lon="2.96612">
        <ele>909.3</ele>
        <time>2026-05-07T12:13:52.999Z</time>
      </trkpt>
      <trkpt lat="43.60597" lon="2.96612">
        <ele>909</ele>
        <time>2026-05-07T12:13:53.999Z</time>
      </trkpt>
      <trkpt lat="43.60596" lon="2.96612">
        <ele>908.7</ele>
        <time>2026-05-07T12:13:54.999Z</time>
      </trkpt>
      <trkpt lat="43.60596" lon="2.96612">
        <ele>908.7</ele>
        <time>2026-05-07T12:13:55.999Z</time>
      </trkpt>
      <trkpt lat="43.60596" lon="2.96612">
        <ele>908.5</ele>
        <time>2026-05-07T12:13:56.999Z</time>
      </trkpt>
      <trkpt lat="43.60596" lon="2.96612">
        <ele>908.7</ele>
        <time>2026-05-07T12:13:57.999Z</time>
      </trkpt>
      <trkpt lat="43.60596" lon="2.96612">
        <ele>908.6</ele>
        <time>2026-05-07T12:13:58.999Z</time>
      </trkpt>
      <trkpt lat="43.60596" lon="2.96612">
        <ele>908.3</ele>
        <time>2026-05-07T12:13:59.999Z</time>
      </trkpt>
      <trkpt lat="43.60596" lon="2.96612">
        <ele>908.1</ele>
        <time>2026-05-07T12:14:00.999Z</time>
      </trkpt>
      <trkpt lat="43.60596" lon="2.96613">
        <ele>908.1</ele>
        <time>2026-05-07T12:14:01.999Z</time>
      </trkpt>
      <trkpt lat="43.60596" lon="2.96613">
        <ele>908.2</ele>
        <time>2026-05-07T12:14:02.999Z</time>
      </trkpt>
      <trkpt lat="43.60595" lon="2.96613">
        <ele>908.3</ele>
        <time>2026-05-07T12:14:03.999Z</time>
      </trkpt>
      <trkpt lat="43.60595" lon="2.96613">
        <ele>908</ele>
        <time>2026-05-07T12:14:04.999Z</time>
      </trkpt>
      <trkpt lat="43.60595" lon="2.96613">
        <ele>907.7</ele>
        <time>2026-05-07T12:14:05.999Z</time>
      </trkpt>
      <trkpt lat="43.60595" lon="2.96613">
        <ele>907.3</ele>
        <time>2026-05-07T12:14:06.999Z</time>
      </trkpt>
      <trkpt lat="43.60595" lon="2.96613">
        <ele>907.2</ele>
        <time>2026-05-07T12:14:07.999Z</time>
      </trkpt>
      <trkpt lat="43.60595" lon="2.96613">
        <ele>907</ele>
        <time>2026-05-07T12:14:08.999Z</time>
      </trkpt>
      <trkpt lat="43.60595" lon="2.96613">
        <ele>906.8</ele>
        <time>2026-05-07T12:14:09.999Z</time>
      </trkpt>
      <trkpt lat="43.60594" lon="2.96613">
        <ele>906.6</ele>
        <time>2026-05-07T12:14:10.999Z</time>
      </trkpt>
      <trkpt lat="43.60592" lon="2.96612">
        <ele>906.8</ele>
        <time>2026-05-07T12:14:11.999Z</time>
      </trkpt>
      <trkpt lat="43.60591" lon="2.96611">
        <ele>906.7</ele>
        <time>2026-05-07T12:14:12.999Z</time>
      </trkpt>
      <trkpt lat="43.60591" lon="2.96611">
        <ele>906.8</ele>
        <time>2026-05-07T12:14:13.999Z</time>
      </trkpt>
      <trkpt lat="43.60591" lon="2.96611">
        <ele>906.9</ele>
        <time>2026-05-07T12:14:14.999Z</time>
      </trkpt>
      <trkpt lat="43.60591" lon="2.96612">
        <ele>907</ele>
        <time>2026-05-07T12:14:15.999Z</time>
      </trkpt>
      <trkpt lat="43.60592" lon="2.96612">
        <ele>907</ele>
        <time>2026-05-07T12:14:16.999Z</time>
      </trkpt>
      <trkpt lat="43.60592" lon="2.96613">
        <ele>907</ele>
        <time>2026-05-07T12:14:17.999Z</time>
      </trkpt>
      <trkpt lat="43.60592" lon="2.96612">
        <ele>907.2</ele>
        <time>2026-05-07T12:14:18.999Z</time>
      </trkpt>
      <trkpt lat="43.60592" lon="2.96612">
        <ele>906.9</ele>
        <time>2026-05-07T12:14:19.999Z</time>
      </trkpt>
      <trkpt lat="43.60592" lon="2.96612">
        <ele>906.6</ele>
        <time>2026-05-07T12:14:20.999Z</time>
      </trkpt>
      <trkpt lat="43.60592" lon="2.96612">
        <ele>906.5</ele>
        <time>2026-05-07T12:14:21.999Z</time>
      </trkpt>
      <trkpt lat="43.60592" lon="2.96613">
        <ele>906.3</ele>
        <time>2026-05-07T12:14:22.999Z</time>
      </trkpt>
      <trkpt lat="43.60592" lon="2.96613">
        <ele>906</ele>
        <time>2026-05-07T12:14:23.999Z</time>
      </trkpt>
      <trkpt lat="43.60592" lon="2.96613">
        <ele>905.7</ele>
        <time>2026-05-07T12:14:24.999Z</time>
      </trkpt>
      <trkpt lat="43.60592" lon="2.96613">
        <ele>905.1</ele>
        <time>2026-05-07T12:14:25.999Z</time>
      </trkpt>
      <trkpt lat="43.60592" lon="2.96613">
        <ele>904.5</ele>
        <time>2026-05-07T12:14:26.999Z</time>
      </trkpt>
      <trkpt lat="43.60592" lon="2.96613">
        <ele>904.2</ele>
        <time>2026-05-07T12:14:27.999Z</time>
      </trkpt>
      <trkpt lat="43.60592" lon="2.96613">
        <ele>904</ele>
        <time>2026-05-07T12:14:28.999Z</time>
      </trkpt>
      <trkpt lat="43.60592" lon="2.96613">
        <ele>903.4</ele>
        <time>2026-05-07T12:14:29.999Z</time>
      </trkpt>
      <trkpt lat="43.60592" lon="2.96613">
        <ele>903.1</ele>
        <time>2026-05-07T12:14:30.999Z</time>
      </trkpt>
      <trkpt lat="43.60592" lon="2.96613">
        <ele>902.9</ele>
        <time>2026-05-07T12:14:31.999Z</time>
      </trkpt>
      <trkpt lat="43.60591" lon="2.96611">
        <ele>902.8</ele>
        <time>2026-05-07T12:14:32.999Z</time>
      </trkpt>
      <trkpt lat="43.60591" lon="2.96608">
        <ele>902.4</ele>
        <time>2026-05-07T12:14:33.999Z</time>
      </trkpt>
      <trkpt lat="43.6059" lon="2.96605">
        <ele>902.2</ele>
        <time>2026-05-07T12:14:34.999Z</time>
      </trkpt>
      <trkpt lat="43.60589" lon="2.96604">
        <ele>902.1</ele>
        <time>2026-05-07T12:14:35.999Z</time>
      </trkpt>
      <trkpt lat="43.60588" lon="2.96602">
        <ele>902</ele>
        <time>2026-05-07T12:14:36.999Z</time>
      </trkpt>
      <trkpt lat="43.60587" lon="2.96602">
        <ele>901.8</ele>
        <time>2026-05-07T12:14:37.999Z</time>
      </trkpt>
      <trkpt lat="43.60586" lon="2.966">
        <ele>901.8</ele>
        <time>2026-05-07T12:14:38.999Z</time>
      </trkpt>
      <trkpt lat="43.60584" lon="2.96599">
        <ele>902.1</ele>
        <time>2026-05-07T12:14:39.999Z</time>
      </trkpt>
      <trkpt lat="43.60583" lon="2.96598">
        <ele>902.2</ele>
        <time>2026-05-07T12:14:40.999Z</time>
      </trkpt>
      <trkpt lat="43.60583" lon="2.96597">
        <ele>902</ele>
        <time>2026-05-07T12:14:41.999Z</time>
      </trkpt>
      <trkpt lat="43.60583" lon="2.96597">
        <ele>902.2</ele>
        <time>2026-05-07T12:14:42.999Z</time>
      </trkpt>
      <trkpt lat="43.60582" lon="2.96597">
        <ele>902</ele>
        <time>2026-05-07T12:14:43.999Z</time>
      </trkpt>
      <trkpt lat="43.60581" lon="2.96596">
        <ele>902.1</ele>
        <time>2026-05-07T12:14:44.999Z</time>
      </trkpt>
      <trkpt lat="43.60581" lon="2.96597">
        <ele>902.3</ele>
        <time>2026-05-07T12:14:45.999Z</time>
      </trkpt>
      <trkpt lat="43.60581" lon="2.96597">
        <ele>902.5</ele>
        <time>2026-05-07T12:14:46.999Z</time>
      </trkpt>
      <trkpt lat="43.60581" lon="2.96597">
        <ele>902.2</ele>
        <time>2026-05-07T12:14:47.999Z</time>
      </trkpt>
      <trkpt lat="43.60582" lon="2.96599">
        <ele>902</ele>
        <time>2026-05-07T12:14:48.999Z</time>
      </trkpt>
      <trkpt lat="43.60582" lon="2.96599">
        <ele>901.6</ele>
        <time>2026-05-07T12:14:49.999Z</time>
      </trkpt>
      <trkpt lat="43.60581" lon="2.966">
        <ele>901.2</ele>
        <time>2026-05-07T12:14:50.999Z</time>
      </trkpt>
      <trkpt lat="43.60581" lon="2.96599">
        <ele>900.7</ele>
        <time>2026-05-07T12:14:51.999Z</time>
      </trkpt>
      <trkpt lat="43.60581" lon="2.96596">
        <ele>899.7</ele>
        <time>2026-05-07T12:14:52.999Z</time>
      </trkpt>
      <trkpt lat="43.6058" lon="2.96595">
        <ele>899.6</ele>
        <time>2026-05-07T12:14:53.999Z</time>
      </trkpt>
      <trkpt lat="43.60579" lon="2.96594">
        <ele>900</ele>
        <time>2026-05-07T12:14:54.999Z</time>
      </trkpt>
      <trkpt lat="43.60579" lon="2.96593">
        <ele>900.2</ele>
        <time>2026-05-07T12:14:55.999Z</time>
      </trkpt>
      <trkpt lat="43.60578" lon="2.96593">
        <ele>900</ele>
        <time>2026-05-07T12:14:56.999Z</time>
      </trkpt>
      <trkpt lat="43.60578" lon="2.96593">
        <ele>899.5</ele>
        <time>2026-05-07T12:14:57.999Z</time>
      </trkpt>
      <trkpt lat="43.60579" lon="2.96592">
        <ele>898.7</ele>
        <time>2026-05-07T12:14:58.999Z</time>
      </trkpt>
      <trkpt lat="43.60579" lon="2.96591">
        <ele>898.6</ele>
        <time>2026-05-07T12:14:59.999Z</time>
      </trkpt>
      <trkpt lat="43.60579" lon="2.96592">
        <ele>898.9</ele>
        <time>2026-05-07T12:15:00.999Z</time>
      </trkpt>
      <trkpt lat="43.60579" lon="2.96592">
        <ele>899.1</ele>
        <time>2026-05-07T12:15:01.999Z</time>
      </trkpt>
      <trkpt lat="43.60579" lon="2.96592">
        <ele>898.5</ele>
        <time>2026-05-07T12:15:02.999Z</time>
      </trkpt>
      <trkpt lat="43.6058" lon="2.96591">
        <ele>897.8</ele>
        <time>2026-05-07T12:15:03.999Z</time>
      </trkpt>
      <trkpt lat="43.6058" lon="2.96591">
        <ele>897.1</ele>
        <time>2026-05-07T12:15:04.999Z</time>
      </trkpt>
      <trkpt lat="43.6058" lon="2.9659">
        <ele>896.5</ele>
        <time>2026-05-07T12:15:05.999Z</time>
      </trkpt>
      <trkpt lat="43.6058" lon="2.96588">
        <ele>896.2</ele>
        <time>2026-05-07T12:15:06.999Z</time>
      </trkpt>
      <trkpt lat="43.60579" lon="2.96587">
        <ele>896</ele>
        <time>2026-05-07T12:15:07.999Z</time>
      </trkpt>
      <trkpt lat="43.60579" lon="2.96587">
        <ele>896.1</ele>
        <time>2026-05-07T12:15:08.999Z</time>
      </trkpt>
      <trkpt lat="43.60578" lon="2.96587">
        <ele>896</ele>
        <time>2026-05-07T12:15:09.999Z</time>
      </trkpt>
      <trkpt lat="43.60578" lon="2.96587">
        <ele>895.7</ele>
        <time>2026-05-07T12:15:10.999Z</time>
      </trkpt>
      <trkpt lat="43.60578" lon="2.96586">
        <ele>895.5</ele>
        <time>2026-05-07T12:15:11.999Z</time>
      </trkpt>
      <trkpt lat="43.60577" lon="2.96585">
        <ele>896.1</ele>
        <time>2026-05-07T12:15:12.999Z</time>
      </trkpt>
      <trkpt lat="43.60577" lon="2.96584">
        <ele>896.8</ele>
        <time>2026-05-07T12:15:13.999Z</time>
      </trkpt>
      <trkpt lat="43.60577" lon="2.96581">
        <ele>895.9</ele>
        <time>2026-05-07T12:15:14.999Z</time>
      </trkpt>
      <trkpt lat="43.60576" lon="2.96579">
        <ele>895.6</ele>
        <time>2026-05-07T12:15:15.999Z</time>
      </trkpt>
      <trkpt lat="43.60576" lon="2.96579">
        <ele>895.1</ele>
        <time>2026-05-07T12:15:16.999Z</time>
      </trkpt>
      <trkpt lat="43.60574" lon="2.96578">
        <ele>894.3</ele>
        <time>2026-05-07T12:15:17.999Z</time>
      </trkpt>
      <trkpt lat="43.60574" lon="2.96578">
        <ele>894.1</ele>
        <time>2026-05-07T12:15:18.999Z</time>
      </trkpt>
      <trkpt lat="43.60573" lon="2.96576">
        <ele>893.8</ele>
        <time>2026-05-07T12:15:19.999Z</time>
      </trkpt>
      <trkpt lat="43.60572" lon="2.96574">
        <ele>893.2</ele>
        <time>2026-05-07T12:15:20.999Z</time>
      </trkpt>
      <trkpt lat="43.60572" lon="2.96573">
        <ele>892.7</ele>
        <time>2026-05-07T12:15:21.999Z</time>
      </trkpt>
      <trkpt lat="43.6057" lon="2.96572">
        <ele>892.6</ele>
        <time>2026-05-07T12:15:22.999Z</time>
      </trkpt>
      <trkpt lat="43.60569" lon="2.96572">
        <ele>892.3</ele>
        <time>2026-05-07T12:15:23.999Z</time>
      </trkpt>
      <trkpt lat="43.60568" lon="2.96571">
        <ele>891.6</ele>
        <time>2026-05-07T12:15:24.999Z</time>
      </trkpt>
      <trkpt lat="43.60567" lon="2.9657">
        <ele>890.8</ele>
        <time>2026-05-07T12:15:25.999Z</time>
      </trkpt>
      <trkpt lat="43.60565" lon="2.96569">
        <ele>890.1</ele>
        <time>2026-05-07T12:15:26.999Z</time>
      </trkpt>
      <trkpt lat="43.60563" lon="2.96568">
        <ele>889.8</ele>
        <time>2026-05-07T12:15:27.999Z</time>
      </trkpt>
      <trkpt lat="43.60561" lon="2.96568">
        <ele>889.9</ele>
        <time>2026-05-07T12:15:28.999Z</time>
      </trkpt>
      <trkpt lat="43.6056" lon="2.96568">
        <ele>889.7</ele>
        <time>2026-05-07T12:15:29.999Z</time>
      </trkpt>
      <trkpt lat="43.60558" lon="2.96567">
        <ele>889.7</ele>
        <time>2026-05-07T12:15:30.999Z</time>
      </trkpt>
      <trkpt lat="43.60557" lon="2.96566">
        <ele>889.3</ele>
        <time>2026-05-07T12:15:31.999Z</time>
      </trkpt>
      <trkpt lat="43.60555" lon="2.96565">
        <ele>888.9</ele>
        <time>2026-05-07T12:15:32.999Z</time>
      </trkpt>
      <trkpt lat="43.60554" lon="2.96565">
        <ele>889</ele>
        <time>2026-05-07T12:15:33.999Z</time>
      </trkpt>
      <trkpt lat="43.60554" lon="2.96565">
        <ele>889.5</ele>
        <time>2026-05-07T12:15:34.999Z</time>
      </trkpt>
      <trkpt lat="43.60553" lon="2.96566">
        <ele>889.4</ele>
        <time>2026-05-07T12:15:35.999Z</time>
      </trkpt>
      <trkpt lat="43.60552" lon="2.96566">
        <ele>889.9</ele>
        <time>2026-05-07T12:15:36.999Z</time>
      </trkpt>
      <trkpt lat="43.60551" lon="2.96565">
        <ele>889.9</ele>
        <time>2026-05-07T12:15:37.999Z</time>
      </trkpt>
      <trkpt lat="43.6055" lon="2.96565">
        <ele>889.9</ele>
        <time>2026-05-07T12:15:38.999Z</time>
      </trkpt>
      <trkpt lat="43.60551" lon="2.96566">
        <ele>889.4</ele>
        <time>2026-05-07T12:15:39.999Z</time>
      </trkpt>
      <trkpt lat="43.60551" lon="2.96567">
        <ele>889.1</ele>
        <time>2026-05-07T12:15:40.999Z</time>
      </trkpt>
      <trkpt lat="43.60551" lon="2.96566">
        <ele>889.3</ele>
        <time>2026-05-07T12:15:41.999Z</time>
      </trkpt>
      <trkpt lat="43.60551" lon="2.96565">
        <ele>889</ele>
        <time>2026-05-07T12:15:42.999Z</time>
      </trkpt>
      <trkpt lat="43.6055" lon="2.96565">
        <ele>888.9</ele>
        <time>2026-05-07T12:15:43.999Z</time>
      </trkpt>
      <trkpt lat="43.6055" lon="2.96565">
        <ele>888.5</ele>
        <time>2026-05-07T12:15:44.999Z</time>
      </trkpt>
      <trkpt lat="43.60549" lon="2.96565">
        <ele>888.2</ele>
        <time>2026-05-07T12:15:45.999Z</time>
      </trkpt>
      <trkpt lat="43.60546" lon="2.96565">
        <ele>887.9</ele>
        <time>2026-05-07T12:15:46.999Z</time>
      </trkpt>
      <trkpt lat="43.60545" lon="2.96565">
        <ele>888.1</ele>
        <time>2026-05-07T12:15:47.999Z</time>
      </trkpt>
      <trkpt lat="43.60542" lon="2.96564">
        <ele>888.3</ele>
        <time>2026-05-07T12:15:48.999Z</time>
      </trkpt>
      <trkpt lat="43.6054" lon="2.96563">
        <ele>888.1</ele>
        <time>2026-05-07T12:15:49.999Z</time>
      </trkpt>
      <trkpt lat="43.60539" lon="2.96562">
        <ele>888.1</ele>
        <time>2026-05-07T12:15:50.999Z</time>
      </trkpt>
      <trkpt lat="43.60537" lon="2.96562">
        <ele>888</ele>
        <time>2026-05-07T12:15:51.999Z</time>
      </trkpt>
      <trkpt lat="43.60536" lon="2.96561">
        <ele>887.8</ele>
        <time>2026-05-07T12:15:52.999Z</time>
      </trkpt>
      <trkpt lat="43.60535" lon="2.96561">
        <ele>887.5</ele>
        <time>2026-05-07T12:15:53.999Z</time>
      </trkpt>
      <trkpt lat="43.60534" lon="2.9656">
        <ele>887.2</ele>
        <time>2026-05-07T12:15:54.999Z</time>
      </trkpt>
      <trkpt lat="43.60532" lon="2.96559">
        <ele>887.1</ele>
        <time>2026-05-07T12:15:55.999Z</time>
      </trkpt>
      <trkpt lat="43.60531" lon="2.96558">
        <ele>886.9</ele>
        <time>2026-05-07T12:15:56.999Z</time>
      </trkpt>
      <trkpt lat="43.6053" lon="2.96557">
        <ele>886.6</ele>
        <time>2026-05-07T12:15:57.999Z</time>
      </trkpt>
      <trkpt lat="43.60529" lon="2.96556">
        <ele>886.7</ele>
        <time>2026-05-07T12:15:58.999Z</time>
      </trkpt>
      <trkpt lat="43.60529" lon="2.96556">
        <ele>886.6</ele>
        <time>2026-05-07T12:15:59.999Z</time>
      </trkpt>
      <trkpt lat="43.60528" lon="2.96555">
        <ele>886.1</ele>
        <time>2026-05-07T12:16:00.999Z</time>
      </trkpt>
      <trkpt lat="43.60526" lon="2.96555">
        <ele>885.5</ele>
        <time>2026-05-07T12:16:01.999Z</time>
      </trkpt>
      <trkpt lat="43.60525" lon="2.96555">
        <ele>885</ele>
        <time>2026-05-07T12:16:02.999Z</time>
      </trkpt>
      <trkpt lat="43.60524" lon="2.96554">
        <ele>884.6</ele>
        <time>2026-05-07T12:16:03.999Z</time>
      </trkpt>
      <trkpt lat="43.60523" lon="2.96555">
        <ele>884.5</ele>
        <time>2026-05-07T12:16:04.999Z</time>
      </trkpt>
      <trkpt lat="43.60522" lon="2.96555">
        <ele>884.2</ele>
        <time>2026-05-07T12:16:05.999Z</time>
      </trkpt>
      <trkpt lat="43.60522" lon="2.96555">
        <ele>883.5</ele>
        <time>2026-05-07T12:16:06.999Z</time>
      </trkpt>
      <trkpt lat="43.60521" lon="2.96555">
        <ele>883.1</ele>
        <time>2026-05-07T12:16:07.999Z</time>
      </trkpt>
      <trkpt lat="43.6052" lon="2.96554">
        <ele>882.2</ele>
        <time>2026-05-07T12:16:08.999Z</time>
      </trkpt>
      <trkpt lat="43.6052" lon="2.96554">
        <ele>881.5</ele>
        <time>2026-05-07T12:16:09.999Z</time>
      </trkpt>
      <trkpt lat="43.60519" lon="2.96555">
        <ele>880.9</ele>
        <time>2026-05-07T12:16:10.999Z</time>
      </trkpt>
      <trkpt lat="43.60518" lon="2.96555">
        <ele>880.4</ele>
        <time>2026-05-07T12:16:11.999Z</time>
      </trkpt>
      <trkpt lat="43.60517" lon="2.96554">
        <ele>880</ele>
        <time>2026-05-07T12:16:12.999Z</time>
      </trkpt>
      <trkpt lat="43.60516" lon="2.96554">
        <ele>880</ele>
        <time>2026-05-07T12:16:13.999Z</time>
      </trkpt>
      <trkpt lat="43.60516" lon="2.96555">
        <ele>880.1</ele>
        <time>2026-05-07T12:16:14.999Z</time>
      </trkpt>
      <trkpt lat="43.60514" lon="2.96555">
        <ele>880.3</ele>
        <time>2026-05-07T12:16:15.999Z</time>
      </trkpt>
      <trkpt lat="43.60512" lon="2.96556">
        <ele>880.1</ele>
        <time>2026-05-07T12:16:16.999Z</time>
      </trkpt>
      <trkpt lat="43.60511" lon="2.96556">
        <ele>880.2</ele>
        <time>2026-05-07T12:16:17.999Z</time>
      </trkpt>
      <trkpt lat="43.6051" lon="2.96556">
        <ele>880</ele>
        <time>2026-05-07T12:16:18.999Z</time>
      </trkpt>
      <trkpt lat="43.6051" lon="2.96555">
        <ele>879.5</ele>
        <time>2026-05-07T12:16:19.999Z</time>
      </trkpt>
      <trkpt lat="43.6051" lon="2.96555">
        <ele>879.3</ele>
        <time>2026-05-07T12:16:20.999Z</time>
      </trkpt>
      <trkpt lat="43.6051" lon="2.96555">
        <ele>879.5</ele>
        <time>2026-05-07T12:16:21.999Z</time>
      </trkpt>
      <trkpt lat="43.6051" lon="2.96554">
        <ele>879.9</ele>
        <time>2026-05-07T12:16:22.999Z</time>
      </trkpt>
      <trkpt lat="43.60511" lon="2.96553">
        <ele>880.4</ele>
        <time>2026-05-07T12:16:23.999Z</time>
      </trkpt>
      <trkpt lat="43.60511" lon="2.96552">
        <ele>880.3</ele>
        <time>2026-05-07T12:16:24.999Z</time>
      </trkpt>
      <trkpt lat="43.60511" lon="2.96552">
        <ele>879.1</ele>
        <time>2026-05-07T12:16:25.999Z</time>
      </trkpt>
      <trkpt lat="43.60511" lon="2.9655">
        <ele>878.5</ele>
        <time>2026-05-07T12:16:26.999Z</time>
      </trkpt>
      <trkpt lat="43.60511" lon="2.9655">
        <ele>878.1</ele>
        <time>2026-05-07T12:16:27.999Z</time>
      </trkpt>
      <trkpt lat="43.60511" lon="2.96549">
        <ele>878.2</ele>
        <time>2026-05-07T12:16:28.999Z</time>
      </trkpt>
      <trkpt lat="43.6051" lon="2.96549">
        <ele>878.1</ele>
        <time>2026-05-07T12:16:29.999Z</time>
      </trkpt>
      <trkpt lat="43.6051" lon="2.9655">
        <ele>878.2</ele>
        <time>2026-05-07T12:16:30.999Z</time>
      </trkpt>
      <trkpt lat="43.6051" lon="2.9655">
        <ele>878</ele>
        <time>2026-05-07T12:16:31.999Z</time>
      </trkpt>
      <trkpt lat="43.60509" lon="2.9655">
        <ele>877.8</ele>
        <time>2026-05-07T12:16:32.999Z</time>
      </trkpt>
      <trkpt lat="43.60508" lon="2.96549">
        <ele>877.5</ele>
        <time>2026-05-07T12:16:33.999Z</time>
      </trkpt>
      <trkpt lat="43.60508" lon="2.96549">
        <ele>877.4</ele>
        <time>2026-05-07T12:16:34.999Z</time>
      </trkpt>
      <trkpt lat="43.60507" lon="2.96548">
        <ele>877.2</ele>
        <time>2026-05-07T12:16:35.999Z</time>
      </trkpt>
      <trkpt lat="43.60507" lon="2.96548">
        <ele>877.4</ele>
        <time>2026-05-07T12:16:36.999Z</time>
      </trkpt>
      <trkpt lat="43.60507" lon="2.96548">
        <ele>877.3</ele>
        <time>2026-05-07T12:16:37.999Z</time>
      </trkpt>
      <trkpt lat="43.60507" lon="2.96548">
        <ele>877.4</ele>
        <time>2026-05-07T12:16:38.999Z</time>
      </trkpt>
      <trkpt lat="43.60506" lon="2.96548">
        <ele>877.6</ele>
        <time>2026-05-07T12:16:39.999Z</time>
      </trkpt>
      <trkpt lat="43.60505" lon="2.96547">
        <ele>877.4</ele>
        <time>2026-05-07T12:16:40.999Z</time>
      </trkpt>
      <trkpt lat="43.60504" lon="2.96547">
        <ele>877.6</ele>
        <time>2026-05-07T12:16:41.999Z</time>
      </trkpt>
      <trkpt lat="43.60502" lon="2.96546">
        <ele>877.3</ele>
        <time>2026-05-07T12:16:42.999Z</time>
      </trkpt>
      <trkpt lat="43.60501" lon="2.96546">
        <ele>877</ele>
        <time>2026-05-07T12:16:43.999Z</time>
      </trkpt>
      <trkpt lat="43.60499" lon="2.96547">
        <ele>876.6</ele>
        <time>2026-05-07T12:16:44.999Z</time>
      </trkpt>
      <trkpt lat="43.60497" lon="2.96547">
        <ele>876.4</ele>
        <time>2026-05-07T12:16:45.999Z</time>
      </trkpt>
      <trkpt lat="43.60495" lon="2.96547">
        <ele>876.1</ele>
        <time>2026-05-07T12:16:46.999Z</time>
      </trkpt>
      <trkpt lat="43.60493" lon="2.96547">
        <ele>875.6</ele>
        <time>2026-05-07T12:16:47.999Z</time>
      </trkpt>
      <trkpt lat="43.60491" lon="2.96546">
        <ele>875.3</ele>
        <time>2026-05-07T12:16:48.999Z</time>
      </trkpt>
      <trkpt lat="43.6049" lon="2.96546">
        <ele>875.1</ele>
        <time>2026-05-07T12:16:49.999Z</time>
      </trkpt>
      <trkpt lat="43.60489" lon="2.96545">
        <ele>874.4</ele>
        <time>2026-05-07T12:16:50.999Z</time>
      </trkpt>
      <trkpt lat="43.60488" lon="2.96545">
        <ele>874.1</ele>
        <time>2026-05-07T12:16:51.999Z</time>
      </trkpt>
      <trkpt lat="43.60487" lon="2.96544">
        <ele>873.7</ele>
        <time>2026-05-07T12:16:52.999Z</time>
      </trkpt>
      <trkpt lat="43.60485" lon="2.96543">
        <ele>873.7</ele>
        <time>2026-05-07T12:16:53.999Z</time>
      </trkpt>
      <trkpt lat="43.60484" lon="2.96543">
        <ele>873.5</ele>
        <time>2026-05-07T12:16:54.999Z</time>
      </trkpt>
      <trkpt lat="43.60483" lon="2.96542">
        <ele>873</ele>
        <time>2026-05-07T12:16:55.999Z</time>
      </trkpt>
      <trkpt lat="43.60482" lon="2.96542">
        <ele>872</ele>
        <time>2026-05-07T12:16:56.999Z</time>
      </trkpt>
      <trkpt lat="43.60481" lon="2.9654">
        <ele>871.6</ele>
        <time>2026-05-07T12:16:57.999Z</time>
      </trkpt>
      <trkpt lat="43.60481" lon="2.96539">
        <ele>871.6</ele>
        <time>2026-05-07T12:16:58.999Z</time>
      </trkpt>
      <trkpt lat="43.60481" lon="2.96539">
        <ele>871.9</ele>
        <time>2026-05-07T12:16:59.999Z</time>
      </trkpt>
      <trkpt lat="43.6048" lon="2.96538">
        <ele>872.1</ele>
        <time>2026-05-07T12:17:00.999Z</time>
      </trkpt>
      <trkpt lat="43.60478" lon="2.96538">
        <ele>872.2</ele>
        <time>2026-05-07T12:17:01.999Z</time>
      </trkpt>
      <trkpt lat="43.60476" lon="2.96538">
        <ele>871.7</ele>
        <time>2026-05-07T12:17:02.999Z</time>
      </trkpt>
      <trkpt lat="43.60474" lon="2.96538">
        <ele>871.3</ele>
        <time>2026-05-07T12:17:03.999Z</time>
      </trkpt>
      <trkpt lat="43.60473" lon="2.96539">
        <ele>871.1</ele>
        <time>2026-05-07T12:17:04.999Z</time>
      </trkpt>
      <trkpt lat="43.60473" lon="2.96539">
        <ele>871</ele>
        <time>2026-05-07T12:17:05.999Z</time>
      </trkpt>
      <trkpt lat="43.60473" lon="2.96539">
        <ele>870.7</ele>
        <time>2026-05-07T12:17:06.999Z</time>
      </trkpt>
      <trkpt lat="43.60472" lon="2.96539">
        <ele>870.7</ele>
        <time>2026-05-07T12:17:07.999Z</time>
      </trkpt>
      <trkpt lat="43.60471" lon="2.96539">
        <ele>870.6</ele>
        <time>2026-05-07T12:17:08.999Z</time>
      </trkpt>
      <trkpt lat="43.6047" lon="2.96539">
        <ele>870.5</ele>
        <time>2026-05-07T12:17:09.999Z</time>
      </trkpt>
      <trkpt lat="43.60469" lon="2.96539">
        <ele>870.2</ele>
        <time>2026-05-07T12:17:10.999Z</time>
      </trkpt>
      <trkpt lat="43.60468" lon="2.96539">
        <ele>869.6</ele>
        <time>2026-05-07T12:17:11.999Z</time>
      </trkpt>
      <trkpt lat="43.60466" lon="2.96539">
        <ele>869.4</ele>
        <time>2026-05-07T12:17:12.999Z</time>
      </trkpt>
      <trkpt lat="43.60466" lon="2.96539">
        <ele>869.2</ele>
        <time>2026-05-07T12:17:13.999Z</time>
      </trkpt>
      <trkpt lat="43.60465" lon="2.96539">
        <ele>868.9</ele>
        <time>2026-05-07T12:17:14.999Z</time>
      </trkpt>
      <trkpt lat="43.60465" lon="2.96538">
        <ele>869</ele>
        <time>2026-05-07T12:17:15.999Z</time>
      </trkpt>
      <trkpt lat="43.60464" lon="2.96538">
        <ele>868.9</ele>
        <time>2026-05-07T12:17:16.999Z</time>
      </trkpt>
      <trkpt lat="43.60464" lon="2.96538">
        <ele>868.4</ele>
        <time>2026-05-07T12:17:17.999Z</time>
      </trkpt>
      <trkpt lat="43.60463" lon="2.96537">
        <ele>867.9</ele>
        <time>2026-05-07T12:17:18.999Z</time>
      </trkpt>
      <trkpt lat="43.60463" lon="2.96537">
        <ele>867.5</ele>
        <time>2026-05-07T12:17:19.999Z</time>
      </trkpt>
      <trkpt lat="43.60463" lon="2.96537">
        <ele>866.9</ele>
        <time>2026-05-07T12:17:20.999Z</time>
      </trkpt>
      <trkpt lat="43.60462" lon="2.96535">
        <ele>866.5</ele>
        <time>2026-05-07T12:17:21.999Z</time>
      </trkpt>
      <trkpt lat="43.60461" lon="2.96535">
        <ele>866.1</ele>
        <time>2026-05-07T12:17:22.999Z</time>
      </trkpt>
      <trkpt lat="43.60461" lon="2.96535">
        <ele>865.8</ele>
        <time>2026-05-07T12:17:23.999Z</time>
      </trkpt>
      <trkpt lat="43.6046" lon="2.96534">
        <ele>865.3</ele>
        <time>2026-05-07T12:17:24.999Z</time>
      </trkpt>
      <trkpt lat="43.6046" lon="2.96535">
        <ele>864.5</ele>
        <time>2026-05-07T12:17:25.999Z</time>
      </trkpt>
      <trkpt lat="43.60459" lon="2.96535">
        <ele>864.4</ele>
        <time>2026-05-07T12:17:26.999Z</time>
      </trkpt>
      <trkpt lat="43.60459" lon="2.96535">
        <ele>864</ele>
        <time>2026-05-07T12:17:27.999Z</time>
      </trkpt>
      <trkpt lat="43.60458" lon="2.96534">
        <ele>863.6</ele>
        <time>2026-05-07T12:17:28.999Z</time>
      </trkpt>
      <trkpt lat="43.60458" lon="2.96534">
        <ele>863.2</ele>
        <time>2026-05-07T12:17:29.999Z</time>
      </trkpt>
      <trkpt lat="43.60457" lon="2.96534">
        <ele>862.9</ele>
        <time>2026-05-07T12:17:30.999Z</time>
      </trkpt>
      <trkpt lat="43.60456" lon="2.96533">
        <ele>862.6</ele>
        <time>2026-05-07T12:17:31.999Z</time>
      </trkpt>
      <trkpt lat="43.60455" lon="2.96533">
        <ele>862.4</ele>
        <time>2026-05-07T12:17:32.999Z</time>
      </trkpt>
      <trkpt lat="43.60455" lon="2.96533">
        <ele>862.1</ele>
        <time>2026-05-07T12:17:33.999Z</time>
      </trkpt>
      <trkpt lat="43.60454" lon="2.96532">
        <ele>861.9</ele>
        <time>2026-05-07T12:17:34.999Z</time>
      </trkpt>
      <trkpt lat="43.60454" lon="2.96532">
        <ele>861.6</ele>
        <time>2026-05-07T12:17:35.999Z</time>
      </trkpt>
      <trkpt lat="43.60454" lon="2.96532">
        <ele>861.1</ele>
        <time>2026-05-07T12:17:36.999Z</time>
      </trkpt>
      <trkpt lat="43.60454" lon="2.96532">
        <ele>860.8</ele>
        <time>2026-05-07T12:17:37.999Z</time>
      </trkpt>
      <trkpt lat="43.60454" lon="2.96532">
        <ele>860.8</ele>
        <time>2026-05-07T12:17:38.999Z</time>
      </trkpt>
      <trkpt lat="43.60453" lon="2.96532">
        <ele>860.7</ele>
        <time>2026-05-07T12:17:39.999Z</time>
      </trkpt>
      <trkpt lat="43.60453" lon="2.96532">
        <ele>860.3</ele>
        <time>2026-05-07T12:17:40.999Z</time>
      </trkpt>
      <trkpt lat="43.60454" lon="2.96532">
        <ele>859.9</ele>
        <time>2026-05-07T12:17:41.999Z</time>
      </trkpt>
      <trkpt lat="43.60454" lon="2.96533">
        <ele>859.7</ele>
        <time>2026-05-07T12:17:42.999Z</time>
      </trkpt>
      <trkpt lat="43.60454" lon="2.96532">
        <ele>859.1</ele>
        <time>2026-05-07T12:17:43.999Z</time>
      </trkpt>
      <trkpt lat="43.60454" lon="2.9653">
        <ele>858.7</ele>
        <time>2026-05-07T12:17:44.999Z</time>
      </trkpt>
      <trkpt lat="43.60455" lon="2.96528">
        <ele>858.5</ele>
        <time>2026-05-07T12:17:45.999Z</time>
      </trkpt>
      <trkpt lat="43.60454" lon="2.96528">
        <ele>858.3</ele>
        <time>2026-05-07T12:17:46.999Z</time>
      </trkpt>
      <trkpt lat="43.60454" lon="2.96527">
        <ele>858.6</ele>
        <time>2026-05-07T12:17:47.999Z</time>
      </trkpt>
      <trkpt lat="43.60453" lon="2.96527">
        <ele>858.7</ele>
        <time>2026-05-07T12:17:48.999Z</time>
      </trkpt>
      <trkpt lat="43.60453" lon="2.96527">
        <ele>858.6</ele>
        <time>2026-05-07T12:17:49.999Z</time>
      </trkpt>
      <trkpt lat="43.60453" lon="2.96527">
        <ele>858</ele>
        <time>2026-05-07T12:17:50.999Z</time>
      </trkpt>
      <trkpt lat="43.60453" lon="2.96526">
        <ele>857.5</ele>
        <time>2026-05-07T12:17:51.999Z</time>
      </trkpt>
      <trkpt lat="43.60452" lon="2.96525">
        <ele>857.2</ele>
        <time>2026-05-07T12:17:52.999Z</time>
      </trkpt>
      <trkpt lat="43.60451" lon="2.96524">
        <ele>857</ele>
        <time>2026-05-07T12:17:53.999Z</time>
      </trkpt>
      <trkpt lat="43.6045" lon="2.96524">
        <ele>856.9</ele>
        <time>2026-05-07T12:17:54.999Z</time>
      </trkpt>
      <trkpt lat="43.60448" lon="2.96523">
        <ele>856.9</ele>
        <time>2026-05-07T12:17:55.999Z</time>
      </trkpt>
      <trkpt lat="43.60447" lon="2.96523">
        <ele>856.5</ele>
        <time>2026-05-07T12:17:56.999Z</time>
      </trkpt>
      <trkpt lat="43.60446" lon="2.96523">
        <ele>856.5</ele>
        <time>2026-05-07T12:17:57.999Z</time>
      </trkpt>
      <trkpt lat="43.60445" lon="2.96523">
        <ele>856.5</ele>
        <time>2026-05-07T12:17:58.999Z</time>
      </trkpt>
      <trkpt lat="43.60445" lon="2.96523">
        <ele>857</ele>
        <time>2026-05-07T12:17:59.999Z</time>
      </trkpt>
      <trkpt lat="43.60445" lon="2.96523">
        <ele>856.6</ele>
        <time>2026-05-07T12:18:00.999Z</time>
      </trkpt>
      <trkpt lat="43.60444" lon="2.96523">
        <ele>856.7</ele>
        <time>2026-05-07T12:18:01.999Z</time>
      </trkpt>
      <trkpt lat="43.60444" lon="2.96523">
        <ele>857.1</ele>
        <time>2026-05-07T12:18:02.999Z</time>
      </trkpt>
      <trkpt lat="43.60443" lon="2.96522">
        <ele>857.3</ele>
        <time>2026-05-07T12:18:03.999Z</time>
      </trkpt>
      <trkpt lat="43.60441" lon="2.96521">
        <ele>857.6</ele>
        <time>2026-05-07T12:18:04.999Z</time>
      </trkpt>
      <trkpt lat="43.6044" lon="2.96521">
        <ele>857.5</ele>
        <time>2026-05-07T12:18:05.999Z</time>
      </trkpt>
      <trkpt lat="43.6044" lon="2.9652">
        <ele>857.5</ele>
        <time>2026-05-07T12:18:06.999Z</time>
      </trkpt>
      <trkpt lat="43.6044" lon="2.9652">
        <ele>857.2</ele>
        <time>2026-05-07T12:18:07.999Z</time>
      </trkpt>
      <trkpt lat="43.6044" lon="2.96522">
        <ele>856.9</ele>
        <time>2026-05-07T12:18:08.999Z</time>
      </trkpt>
      <trkpt lat="43.6044" lon="2.96521">
        <ele>856.5</ele>
        <time>2026-05-07T12:18:09.999Z</time>
      </trkpt>
      <trkpt lat="43.6044" lon="2.96522">
        <ele>856.3</ele>
        <time>2026-05-07T12:18:10.999Z</time>
      </trkpt>
      <trkpt lat="43.6044" lon="2.96522">
        <ele>855.7</ele>
        <time>2026-05-07T12:18:11.999Z</time>
      </trkpt>
      <trkpt lat="43.6044" lon="2.96521">
        <ele>855.2</ele>
        <time>2026-05-07T12:18:12.999Z</time>
      </trkpt>
      <trkpt lat="43.6044" lon="2.96521">
        <ele>854.8</ele>
        <time>2026-05-07T12:18:13.999Z</time>
      </trkpt>
      <trkpt lat="43.60441" lon="2.96521">
        <ele>854.5</ele>
        <time>2026-05-07T12:18:14.999Z</time>
      </trkpt>
      <trkpt lat="43.60441" lon="2.96521">
        <ele>854.4</ele>
        <time>2026-05-07T12:18:15.999Z</time>
      </trkpt>
      <trkpt lat="43.60441" lon="2.96521">
        <ele>854.5</ele>
        <time>2026-05-07T12:18:16.999Z</time>
      </trkpt>
      <trkpt lat="43.60441" lon="2.96519">
        <ele>854.6</ele>
        <time>2026-05-07T12:18:17.999Z</time>
      </trkpt>
      <trkpt lat="43.60441" lon="2.96517">
        <ele>854.2</ele>
        <time>2026-05-07T12:18:18.999Z</time>
      </trkpt>
      <trkpt lat="43.60441" lon="2.96516">
        <ele>853.8</ele>
        <time>2026-05-07T12:18:19.999Z</time>
      </trkpt>
      <trkpt lat="43.60442" lon="2.96515">
        <ele>853.6</ele>
        <time>2026-05-07T12:18:20.999Z</time>
      </trkpt>
      <trkpt lat="43.60442" lon="2.96515">
        <ele>853.3</ele>
        <time>2026-05-07T12:18:21.999Z</time>
      </trkpt>
      <trkpt lat="43.60442" lon="2.96515">
        <ele>853.2</ele>
        <time>2026-05-07T12:18:22.999Z</time>
      </trkpt>
      <trkpt lat="43.60442" lon="2.96515">
        <ele>853</ele>
        <time>2026-05-07T12:18:23.999Z</time>
      </trkpt>
      <trkpt lat="43.60442" lon="2.96515">
        <ele>852.9</ele>
        <time>2026-05-07T12:18:24.999Z</time>
      </trkpt>
      <trkpt lat="43.60442" lon="2.96515">
        <ele>852.5</ele>
        <time>2026-05-07T12:18:25.999Z</time>
      </trkpt>
      <trkpt lat="43.60442" lon="2.96515">
        <ele>852.1</ele>
        <time>2026-05-07T12:18:26.999Z</time>
      </trkpt>
      <trkpt lat="43.60442" lon="2.96516">
        <ele>851.5</ele>
        <time>2026-05-07T12:18:27.999Z</time>
      </trkpt>
      <trkpt lat="43.60443" lon="2.96515">
        <ele>851.2</ele>
        <time>2026-05-07T12:18:28.999Z</time>
      </trkpt>
      <trkpt lat="43.60442" lon="2.96514">
        <ele>851</ele>
        <time>2026-05-07T12:18:29.999Z</time>
      </trkpt>
      <trkpt lat="43.60442" lon="2.96514">
        <ele>850.9</ele>
        <time>2026-05-07T12:18:30.999Z</time>
      </trkpt>
      <trkpt lat="43.60443" lon="2.96514">
        <ele>851</ele>
        <time>2026-05-07T12:18:31.999Z</time>
      </trkpt>
      <trkpt lat="43.60443" lon="2.96513">
        <ele>850.8</ele>
        <time>2026-05-07T12:18:32.999Z</time>
      </trkpt>
      <trkpt lat="43.60443" lon="2.96513">
        <ele>850.5</ele>
        <time>2026-05-07T12:18:33.999Z</time>
      </trkpt>
      <trkpt lat="43.60443" lon="2.96512">
        <ele>850.4</ele>
        <time>2026-05-07T12:18:34.999Z</time>
      </trkpt>
      <trkpt lat="43.60443" lon="2.96512">
        <ele>850.7</ele>
        <time>2026-05-07T12:18:35.999Z</time>
      </trkpt>
      <trkpt lat="43.60443" lon="2.96511">
        <ele>850.6</ele>
        <time>2026-05-07T12:18:36.999Z</time>
      </trkpt>
      <trkpt lat="43.60443" lon="2.9651">
        <ele>850.3</ele>
        <time>2026-05-07T12:18:37.999Z</time>
      </trkpt>
      <trkpt lat="43.60444" lon="2.96509">
        <ele>850</ele>
        <time>2026-05-07T12:18:39.000Z</time>
      </trkpt>
      <trkpt lat="43.60444" lon="2.96508">
        <ele>849.9</ele>
        <time>2026-05-07T12:18:40.000Z</time>
      </trkpt>
      <trkpt lat="43.60445" lon="2.96507">
        <ele>850</ele>
        <time>2026-05-07T12:18:41.000Z</time>
      </trkpt>
      <trkpt lat="43.60446" lon="2.96507">
        <ele>849.9</ele>
        <time>2026-05-07T12:18:42.000Z</time>
      </trkpt>
      <trkpt lat="43.60446" lon="2.96506">
        <ele>849.9</ele>
        <time>2026-05-07T12:18:43.000Z</time>
      </trkpt>
      <trkpt lat="43.60446" lon="2.96506">
        <ele>849.6</ele>
        <time>2026-05-07T12:18:44.000Z</time>
      </trkpt>
      <trkpt lat="43.60446" lon="2.96505">
        <ele>849.6</ele>
        <time>2026-05-07T12:18:45.000Z</time>
      </trkpt>
      <trkpt lat="43.60445" lon="2.96503">
        <ele>849.6</ele>
        <time>2026-05-07T12:18:46.000Z</time>
      </trkpt>
      <trkpt lat="43.60444" lon="2.96502">
        <ele>849.7</ele>
        <time>2026-05-07T12:18:47.000Z</time>
      </trkpt>
      <trkpt lat="43.60443" lon="2.96501">
        <ele>849.9</ele>
        <time>2026-05-07T12:18:48.000Z</time>
      </trkpt>
      <trkpt lat="43.60443" lon="2.965">
        <ele>850</ele>
        <time>2026-05-07T12:18:49.000Z</time>
      </trkpt>
      <trkpt lat="43.60442" lon="2.965">
        <ele>850</ele>
        <time>2026-05-07T12:18:50.000Z</time>
      </trkpt>
      <trkpt lat="43.60442" lon="2.965">
        <ele>850</ele>
        <time>2026-05-07T12:18:51.000Z</time>
      </trkpt>
      <trkpt lat="43.60441" lon="2.96499">
        <ele>850</ele>
        <time>2026-05-07T12:18:52.000Z</time>
      </trkpt>
      <trkpt lat="43.60441" lon="2.96499">
        <ele>849.9</ele>
        <time>2026-05-07T12:18:53.000Z</time>
      </trkpt>
      <trkpt lat="43.6044" lon="2.96499">
        <ele>849.7</ele>
        <time>2026-05-07T12:18:54.000Z</time>
      </trkpt>
      <trkpt lat="43.60439" lon="2.965">
        <ele>849.7</ele>
        <time>2026-05-07T12:18:55.000Z</time>
      </trkpt>
      <trkpt lat="43.60439" lon="2.965">
        <ele>849.6</ele>
        <time>2026-05-07T12:18:56.000Z</time>
      </trkpt>
      <trkpt lat="43.60438" lon="2.965">
        <ele>849.5</ele>
        <time>2026-05-07T12:18:57.000Z</time>
      </trkpt>
      <trkpt lat="43.60437" lon="2.96501">
        <ele>849.1</ele>
        <time>2026-05-07T12:18:58.000Z</time>
      </trkpt>
      <trkpt lat="43.60436" lon="2.965">
        <ele>849</ele>
        <time>2026-05-07T12:18:59.000Z</time>
      </trkpt>
      <trkpt lat="43.60435" lon="2.965">
        <ele>848.6</ele>
        <time>2026-05-07T12:19:00.000Z</time>
      </trkpt>
      <trkpt lat="43.60433" lon="2.965">
        <ele>848.5</ele>
        <time>2026-05-07T12:19:01.000Z</time>
      </trkpt>
      <trkpt lat="43.60433" lon="2.96499">
        <ele>848.5</ele>
        <time>2026-05-07T12:19:02.000Z</time>
      </trkpt>
      <trkpt lat="43.60432" lon="2.965">
        <ele>848.4</ele>
        <time>2026-05-07T12:19:03.000Z</time>
      </trkpt>
      <trkpt lat="43.60432" lon="2.96501">
        <ele>848.4</ele>
        <time>2026-05-07T12:19:04.000Z</time>
      </trkpt>
      <trkpt lat="43.60432" lon="2.96501">
        <ele>848.3</ele>
        <time>2026-05-07T12:19:05.000Z</time>
      </trkpt>
      <trkpt lat="43.60431" lon="2.96502">
        <ele>848.1</ele>
        <time>2026-05-07T12:19:06.000Z</time>
      </trkpt>
      <trkpt lat="43.60431" lon="2.96503">
        <ele>847.9</ele>
        <time>2026-05-07T12:19:07.000Z</time>
      </trkpt>
      <trkpt lat="43.60431" lon="2.96503">
        <ele>847.5</ele>
        <time>2026-05-07T12:19:08.000Z</time>
      </trkpt>
      <trkpt lat="43.60431" lon="2.96502">
        <ele>847.1</ele>
        <time>2026-05-07T12:19:09.000Z</time>
      </trkpt>
      <trkpt lat="43.60431" lon="2.96502">
        <ele>846.5</ele>
        <time>2026-05-07T12:19:10.000Z</time>
      </trkpt>
      <trkpt lat="43.60431" lon="2.96501">
        <ele>845.9</ele>
        <time>2026-05-07T12:19:11.000Z</time>
      </trkpt>
      <trkpt lat="43.60431" lon="2.965">
        <ele>845.6</ele>
        <time>2026-05-07T12:19:12.000Z</time>
      </trkpt>
      <trkpt lat="43.60431" lon="2.96499">
        <ele>845.3</ele>
        <time>2026-05-07T12:19:13.000Z</time>
      </trkpt>
      <trkpt lat="43.6043" lon="2.96499">
        <ele>845.1</ele>
        <time>2026-05-07T12:19:14.000Z</time>
      </trkpt>
      <trkpt lat="43.6043" lon="2.96498">
        <ele>844.8</ele>
        <time>2026-05-07T12:19:15.000Z</time>
      </trkpt>
      <trkpt lat="43.60431" lon="2.96499">
        <ele>844.4</ele>
        <time>2026-05-07T12:19:16.000Z</time>
      </trkpt>
      <trkpt lat="43.60432" lon="2.96499">
        <ele>844.1</ele>
        <time>2026-05-07T12:19:17.000Z</time>
      </trkpt>
      <trkpt lat="43.60433" lon="2.96499">
        <ele>844.1</ele>
        <time>2026-05-07T12:19:18.000Z</time>
      </trkpt>
      <trkpt lat="43.60433" lon="2.96498">
        <ele>843.6</ele>
        <time>2026-05-07T12:19:19.000Z</time>
      </trkpt>
      <trkpt lat="43.60434" lon="2.96497">
        <ele>843.3</ele>
        <time>2026-05-07T12:19:20.000Z</time>
      </trkpt>
      <trkpt lat="43.60435" lon="2.96496">
        <ele>843</ele>
        <time>2026-05-07T12:19:21.000Z</time>
      </trkpt>
      <trkpt lat="43.60435" lon="2.96496">
        <ele>842.8</ele>
        <time>2026-05-07T12:19:22.000Z</time>
      </trkpt>
      <trkpt lat="43.60435" lon="2.96495">
        <ele>842.3</ele>
        <time>2026-05-07T12:19:23.000Z</time>
      </trkpt>
      <trkpt lat="43.60435" lon="2.96495">
        <ele>842</ele>
        <time>2026-05-07T12:19:24.000Z</time>
      </trkpt>
      <trkpt lat="43.60436" lon="2.96495">
        <ele>841.9</ele>
        <time>2026-05-07T12:19:25.000Z</time>
      </trkpt>
      <trkpt lat="43.60437" lon="2.96494">
        <ele>842</ele>
        <time>2026-05-07T12:19:26.000Z</time>
      </trkpt>
      <trkpt lat="43.60438" lon="2.96493">
        <ele>842.3</ele>
        <time>2026-05-07T12:19:27.000Z</time>
      </trkpt>
      <trkpt lat="43.60438" lon="2.96492">
        <ele>842.5</ele>
        <time>2026-05-07T12:19:28.000Z</time>
      </trkpt>
      <trkpt lat="43.60438" lon="2.9649">
        <ele>843.1</ele>
        <time>2026-05-07T12:19:29.000Z</time>
      </trkpt>
      <trkpt lat="43.60439" lon="2.96489">
        <ele>843.5</ele>
        <time>2026-05-07T12:19:30.000Z</time>
      </trkpt>
      <trkpt lat="43.60439" lon="2.96489">
        <ele>843.5</ele>
        <time>2026-05-07T12:19:31.000Z</time>
      </trkpt>
      <trkpt lat="43.60439" lon="2.96487">
        <ele>843.7</ele>
        <time>2026-05-07T12:19:32.000Z</time>
      </trkpt>
      <trkpt lat="43.60438" lon="2.96487">
        <ele>843.7</ele>
        <time>2026-05-07T12:19:33.000Z</time>
      </trkpt>
      <trkpt lat="43.60436" lon="2.96487">
        <ele>843.3</ele>
        <time>2026-05-07T12:19:34.000Z</time>
      </trkpt>
      <trkpt lat="43.60434" lon="2.96488">
        <ele>842.9</ele>
        <time>2026-05-07T12:19:35.000Z</time>
      </trkpt>
      <trkpt lat="43.60432" lon="2.96488">
        <ele>842.6</ele>
        <time>2026-05-07T12:19:36.000Z</time>
      </trkpt>
      <trkpt lat="43.60431" lon="2.96488">
        <ele>842.5</ele>
        <time>2026-05-07T12:19:37.000Z</time>
      </trkpt>
      <trkpt lat="43.60429" lon="2.96488">
        <ele>842.2</ele>
        <time>2026-05-07T12:19:38.000Z</time>
      </trkpt>
      <trkpt lat="43.60428" lon="2.96487">
        <ele>841.7</ele>
        <time>2026-05-07T12:19:39.000Z</time>
      </trkpt>
      <trkpt lat="43.60428" lon="2.96487">
        <ele>841.7</ele>
        <time>2026-05-07T12:19:40.000Z</time>
      </trkpt>
      <trkpt lat="43.60428" lon="2.96487">
        <ele>841.5</ele>
        <time>2026-05-07T12:19:41.000Z</time>
      </trkpt>
      <trkpt lat="43.60428" lon="2.96487">
        <ele>841.1</ele>
        <time>2026-05-07T12:19:42.000Z</time>
      </trkpt>
      <trkpt lat="43.60427" lon="2.96486">
        <ele>840.7</ele>
        <time>2026-05-07T12:19:43.000Z</time>
      </trkpt>
      <trkpt lat="43.60427" lon="2.96485">
        <ele>841.1</ele>
        <time>2026-05-07T12:19:44.000Z</time>
      </trkpt>
      <trkpt lat="43.60428" lon="2.96485">
        <ele>841.2</ele>
        <time>2026-05-07T12:19:45.000Z</time>
      </trkpt>
      <trkpt lat="43.60428" lon="2.96484">
        <ele>841.1</ele>
        <time>2026-05-07T12:19:46.000Z</time>
      </trkpt>
      <trkpt lat="43.60428" lon="2.96483">
        <ele>840.9</ele>
        <time>2026-05-07T12:19:47.000Z</time>
      </trkpt>
      <trkpt lat="43.60428" lon="2.96483">
        <ele>840.4</ele>
        <time>2026-05-07T12:19:48.000Z</time>
      </trkpt>
      <trkpt lat="43.6043" lon="2.96483">
        <ele>840.1</ele>
        <time>2026-05-07T12:19:49.000Z</time>
      </trkpt>
      <trkpt lat="43.6043" lon="2.96483">
        <ele>839.8</ele>
        <time>2026-05-07T12:19:50.000Z</time>
      </trkpt>
      <trkpt lat="43.60431" lon="2.96482">
        <ele>839.5</ele>
        <time>2026-05-07T12:19:51.000Z</time>
      </trkpt>
      <trkpt lat="43.60432" lon="2.96482">
        <ele>839.3</ele>
        <time>2026-05-07T12:19:52.000Z</time>
      </trkpt>
      <trkpt lat="43.60432" lon="2.96481">
        <ele>838.9</ele>
        <time>2026-05-07T12:19:53.000Z</time>
      </trkpt>
      <trkpt lat="43.60433" lon="2.96481">
        <ele>838.6</ele>
        <time>2026-05-07T12:19:54.000Z</time>
      </trkpt>
      <trkpt lat="43.60433" lon="2.96481">
        <ele>838.4</ele>
        <time>2026-05-07T12:19:55.000Z</time>
      </trkpt>
      <trkpt lat="43.60434" lon="2.96481">
        <ele>838</ele>
        <time>2026-05-07T12:19:56.000Z</time>
      </trkpt>
      <trkpt lat="43.60435" lon="2.96482">
        <ele>837.5</ele>
        <time>2026-05-07T12:19:57.000Z</time>
      </trkpt>
      <trkpt lat="43.60435" lon="2.96482">
        <ele>837.3</ele>
        <time>2026-05-07T12:19:58.000Z</time>
      </trkpt>
      <trkpt lat="43.60436" lon="2.96483">
        <ele>837.2</ele>
        <time>2026-05-07T12:19:59.000Z</time>
      </trkpt>
      <trkpt lat="43.60436" lon="2.96483">
        <ele>837.3</ele>
        <time>2026-05-07T12:20:00.000Z</time>
      </trkpt>
      <trkpt lat="43.60436" lon="2.96483">
        <ele>837.3</ele>
        <time>2026-05-07T12:20:01.000Z</time>
      </trkpt>
      <trkpt lat="43.60437" lon="2.96484">
        <ele>837.5</ele>
        <time>2026-05-07T12:20:02.000Z</time>
      </trkpt>
      <trkpt lat="43.60438" lon="2.96484">
        <ele>837.8</ele>
        <time>2026-05-07T12:20:03.000Z</time>
      </trkpt>
      <trkpt lat="43.60439" lon="2.96484">
        <ele>837.8</ele>
        <time>2026-05-07T12:20:04.000Z</time>
      </trkpt>
      <trkpt lat="43.60439" lon="2.96484">
        <ele>837.5</ele>
        <time>2026-05-07T12:20:05.000Z</time>
      </trkpt>
      <trkpt lat="43.60439" lon="2.96485">
        <ele>836.9</ele>
        <time>2026-05-07T12:20:06.000Z</time>
      </trkpt>
      <trkpt lat="43.60439" lon="2.96485">
        <ele>837.1</ele>
        <time>2026-05-07T12:20:07.000Z</time>
      </trkpt>
      <trkpt lat="43.60439" lon="2.96485">
        <ele>836.9</ele>
        <time>2026-05-07T12:20:08.000Z</time>
      </trkpt>
      <trkpt lat="43.60439" lon="2.96485">
        <ele>836.8</ele>
        <time>2026-05-07T12:20:09.000Z</time>
      </trkpt>
      <trkpt lat="43.60439" lon="2.96485">
        <ele>836.4</ele>
        <time>2026-05-07T12:20:10.000Z</time>
      </trkpt>
      <trkpt lat="43.6044" lon="2.96485">
        <ele>835.8</ele>
        <time>2026-05-07T12:20:11.000Z</time>
      </trkpt>
      <trkpt lat="43.6044" lon="2.96485">
        <ele>835.9</ele>
        <time>2026-05-07T12:20:12.000Z</time>
      </trkpt>
      <trkpt lat="43.6044" lon="2.96485">
        <ele>835.8</ele>
        <time>2026-05-07T12:20:13.000Z</time>
      </trkpt>
      <trkpt lat="43.6044" lon="2.96485">
        <ele>835.7</ele>
        <time>2026-05-07T12:20:14.000Z</time>
      </trkpt>
      <trkpt lat="43.6044" lon="2.96485">
        <ele>835.8</ele>
        <time>2026-05-07T12:20:15.000Z</time>
      </trkpt>
      <trkpt lat="43.60441" lon="2.96484">
        <ele>835.6</ele>
        <time>2026-05-07T12:20:16.000Z</time>
      </trkpt>
      <trkpt lat="43.60442" lon="2.96484">
        <ele>835.5</ele>
        <time>2026-05-07T12:20:17.000Z</time>
      </trkpt>
      <trkpt lat="43.60443" lon="2.96483">
        <ele>835.6</ele>
        <time>2026-05-07T12:20:18.000Z</time>
      </trkpt>
      <trkpt lat="43.60444" lon="2.96483">
        <ele>835.6</ele>
        <time>2026-05-07T12:20:19.000Z</time>
      </trkpt>
      <trkpt lat="43.60445" lon="2.96483">
        <ele>835.5</ele>
        <time>2026-05-07T12:20:20.000Z</time>
      </trkpt>
      <trkpt lat="43.60447" lon="2.96482">
        <ele>835.4</ele>
        <time>2026-05-07T12:20:21.000Z</time>
      </trkpt>
      <trkpt lat="43.60447" lon="2.96482">
        <ele>835.5</ele>
        <time>2026-05-07T12:20:22.000Z</time>
      </trkpt>
      <trkpt lat="43.60448" lon="2.96481">
        <ele>835.3</ele>
        <time>2026-05-07T12:20:23.000Z</time>
      </trkpt>
      <trkpt lat="43.60449" lon="2.9648">
        <ele>834.9</ele>
        <time>2026-05-07T12:20:24.000Z</time>
      </trkpt>
      <trkpt lat="43.60449" lon="2.96479">
        <ele>834.7</ele>
        <time>2026-05-07T12:20:25.000Z</time>
      </trkpt>
      <trkpt lat="43.6045" lon="2.96478">
        <ele>834.2</ele>
        <time>2026-05-07T12:20:26.000Z</time>
      </trkpt>
      <trkpt lat="43.60451" lon="2.96478">
        <ele>833.9</ele>
        <time>2026-05-07T12:20:27.000Z</time>
      </trkpt>
      <trkpt lat="43.60451" lon="2.96477">
        <ele>833.7</ele>
        <time>2026-05-07T12:20:28.000Z</time>
      </trkpt>
      <trkpt lat="43.60452" lon="2.96477">
        <ele>833.4</ele>
        <time>2026-05-07T12:20:29.000Z</time>
      </trkpt>
      <trkpt lat="43.60452" lon="2.96476">
        <ele>833</ele>
        <time>2026-05-07T12:20:30.000Z</time>
      </trkpt>
      <trkpt lat="43.60452" lon="2.96476">
        <ele>832.5</ele>
        <time>2026-05-07T12:20:31.000Z</time>
      </trkpt>
      <trkpt lat="43.60453" lon="2.96475">
        <ele>832.6</ele>
        <time>2026-05-07T12:20:32.000Z</time>
      </trkpt>
      <trkpt lat="43.60453" lon="2.96474">
        <ele>832.8</ele>
        <time>2026-05-07T12:20:33.000Z</time>
      </trkpt>
      <trkpt lat="43.60454" lon="2.96474">
        <ele>832.7</ele>
        <time>2026-05-07T12:20:34.000Z</time>
      </trkpt>
      <trkpt lat="43.60454" lon="2.96474">
        <ele>832.5</ele>
        <time>2026-05-07T12:20:35.000Z</time>
      </trkpt>
      <trkpt lat="43.60455" lon="2.96474">
        <ele>832.8</ele>
        <time>2026-05-07T12:20:36.000Z</time>
      </trkpt>
      <trkpt lat="43.60456" lon="2.96475">
        <ele>832.8</ele>
        <time>2026-05-07T12:20:37.000Z</time>
      </trkpt>
      <trkpt lat="43.60457" lon="2.96475">
        <ele>832.2</ele>
        <time>2026-05-07T12:20:38.000Z</time>
      </trkpt>
      <trkpt lat="43.60458" lon="2.96475">
        <ele>831.7</ele>
        <time>2026-05-07T12:20:39.000Z</time>
      </trkpt>
      <trkpt lat="43.60458" lon="2.96475">
        <ele>831.2</ele>
        <time>2026-05-07T12:20:40.000Z</time>
      </trkpt>
      <trkpt lat="43.60459" lon="2.96475">
        <ele>831.4</ele>
        <time>2026-05-07T12:20:41.000Z</time>
      </trkpt>
      <trkpt lat="43.60461" lon="2.96476">
        <ele>831.2</ele>
        <time>2026-05-07T12:20:42.000Z</time>
      </trkpt>
      <trkpt lat="43.60462" lon="2.96476">
        <ele>830.6</ele>
        <time>2026-05-07T12:20:43.000Z</time>
      </trkpt>
      <trkpt lat="43.60462" lon="2.96476">
        <ele>830.2</ele>
        <time>2026-05-07T12:20:44.000Z</time>
      </trkpt>
      <trkpt lat="43.60462" lon="2.96476">
        <ele>830</ele>
        <time>2026-05-07T12:20:45.000Z</time>
      </trkpt>
      <trkpt lat="43.60463" lon="2.96476">
        <ele>829.7</ele>
        <time>2026-05-07T12:20:46.000Z</time>
      </trkpt>
      <trkpt lat="43.60463" lon="2.96477">
        <ele>829.8</ele>
        <time>2026-05-07T12:20:47.000Z</time>
      </trkpt>
      <trkpt lat="43.60464" lon="2.96476">
        <ele>829.9</ele>
        <time>2026-05-07T12:20:48.000Z</time>
      </trkpt>
      <trkpt lat="43.60465" lon="2.96476">
        <ele>829.3</ele>
        <time>2026-05-07T12:20:49.000Z</time>
      </trkpt>
      <trkpt lat="43.60467" lon="2.96473">
        <ele>827.8</ele>
        <time>2026-05-07T12:20:50.000Z</time>
      </trkpt>
      <trkpt lat="43.60468" lon="2.96472">
        <ele>826.9</ele>
        <time>2026-05-07T12:20:51.000Z</time>
      </trkpt>
      <trkpt lat="43.60468" lon="2.96471">
        <ele>826.7</ele>
        <time>2026-05-07T12:20:52.000Z</time>
      </trkpt>
      <trkpt lat="43.60468" lon="2.96471">
        <ele>826.3</ele>
        <time>2026-05-07T12:20:53.000Z</time>
      </trkpt>
      <trkpt lat="43.60468" lon="2.96471">
        <ele>826</ele>
        <time>2026-05-07T12:20:54.000Z</time>
      </trkpt>
      <trkpt lat="43.60468" lon="2.96471">
        <ele>826</ele>
        <time>2026-05-07T12:20:55.000Z</time>
      </trkpt>
      <trkpt lat="43.60468" lon="2.96471">
        <ele>826.2</ele>
        <time>2026-05-07T12:20:56.000Z</time>
      </trkpt>
      <trkpt lat="43.60468" lon="2.96471">
        <ele>826.3</ele>
        <time>2026-05-07T12:20:57.000Z</time>
      </trkpt>
      <trkpt lat="43.60469" lon="2.96471">
        <ele>826.2</ele>
        <time>2026-05-07T12:20:58.000Z</time>
      </trkpt>
      <trkpt lat="43.60469" lon="2.9647">
        <ele>826.4</ele>
        <time>2026-05-07T12:20:59.000Z</time>
      </trkpt>
      <trkpt lat="43.60468" lon="2.96468">
        <ele>826.6</ele>
        <time>2026-05-07T12:21:00.000Z</time>
      </trkpt>
      <trkpt lat="43.60467" lon="2.96467">
        <ele>826.5</ele>
        <time>2026-05-07T12:21:01.000Z</time>
      </trkpt>
      <trkpt lat="43.60466" lon="2.96465">
        <ele>826.5</ele>
        <time>2026-05-07T12:21:02.000Z</time>
      </trkpt>
      <trkpt lat="43.60465" lon="2.96465">
        <ele>825.9</ele>
        <time>2026-05-07T12:21:03.000Z</time>
      </trkpt>
      <trkpt lat="43.60465" lon="2.96465">
        <ele>825.3</ele>
        <time>2026-05-07T12:21:04.000Z</time>
      </trkpt>
      <trkpt lat="43.60464" lon="2.96464">
        <ele>825.1</ele>
        <time>2026-05-07T12:21:05.000Z</time>
      </trkpt>
      <trkpt lat="43.60464" lon="2.96464">
        <ele>825.2</ele>
        <time>2026-05-07T12:21:06.000Z</time>
      </trkpt>
      <trkpt lat="43.60464" lon="2.96463">
        <ele>825.3</ele>
        <time>2026-05-07T12:21:07.000Z</time>
      </trkpt>
      <trkpt lat="43.60464" lon="2.96461">
        <ele>825.5</ele>
        <time>2026-05-07T12:21:08.000Z</time>
      </trkpt>
      <trkpt lat="43.60464" lon="2.9646">
        <ele>825.4</ele>
        <time>2026-05-07T12:21:09.000Z</time>
      </trkpt>
      <trkpt lat="43.60463" lon="2.96459">
        <ele>825.3</ele>
        <time>2026-05-07T12:21:10.000Z</time>
      </trkpt>
      <trkpt lat="43.60462" lon="2.96456">
        <ele>825.4</ele>
        <time>2026-05-07T12:21:11.000Z</time>
      </trkpt>
      <trkpt lat="43.60461" lon="2.96455">
        <ele>825.7</ele>
        <time>2026-05-07T12:21:12.000Z</time>
      </trkpt>
      <trkpt lat="43.6046" lon="2.96454">
        <ele>825.8</ele>
        <time>2026-05-07T12:21:13.000Z</time>
      </trkpt>
      <trkpt lat="43.60459" lon="2.96454">
        <ele>825.8</ele>
        <time>2026-05-07T12:21:14.000Z</time>
      </trkpt>
      <trkpt lat="43.60459" lon="2.96453">
        <ele>825.7</ele>
        <time>2026-05-07T12:21:15.000Z</time>
      </trkpt>
      <trkpt lat="43.60459" lon="2.96453">
        <ele>825.4</ele>
        <time>2026-05-07T12:21:16.000Z</time>
      </trkpt>
      <trkpt lat="43.60459" lon="2.96453">
        <ele>825.1</ele>
        <time>2026-05-07T12:21:17.000Z</time>
      </trkpt>
      <trkpt lat="43.60459" lon="2.96453">
        <ele>824.5</ele>
        <time>2026-05-07T12:21:18.000Z</time>
      </trkpt>
      <trkpt lat="43.6046" lon="2.96453">
        <ele>824</ele>
        <time>2026-05-07T12:21:19.000Z</time>
      </trkpt>
      <trkpt lat="43.6046" lon="2.96453">
        <ele>823.9</ele>
        <time>2026-05-07T12:21:20.000Z</time>
      </trkpt>
      <trkpt lat="43.60459" lon="2.96453">
        <ele>824</ele>
        <time>2026-05-07T12:21:21.000Z</time>
      </trkpt>
      <trkpt lat="43.60458" lon="2.96453">
        <ele>823.8</ele>
        <time>2026-05-07T12:21:22.000Z</time>
      </trkpt>
      <trkpt lat="43.60458" lon="2.96454">
        <ele>823.8</ele>
        <time>2026-05-07T12:21:23.000Z</time>
      </trkpt>
      <trkpt lat="43.60457" lon="2.96454">
        <ele>824.2</ele>
        <time>2026-05-07T12:21:24.000Z</time>
      </trkpt>
      <trkpt lat="43.60457" lon="2.96453">
        <ele>824.2</ele>
        <time>2026-05-07T12:21:25.000Z</time>
      </trkpt>
      <trkpt lat="43.60457" lon="2.96453">
        <ele>824.1</ele>
        <time>2026-05-07T12:21:26.000Z</time>
      </trkpt>
      <trkpt lat="43.60457" lon="2.96453">
        <ele>824.2</ele>
        <time>2026-05-07T12:21:27.000Z</time>
      </trkpt>
      <trkpt lat="43.60457" lon="2.96453">
        <ele>824.1</ele>
        <time>2026-05-07T12:21:28.000Z</time>
      </trkpt>
      <trkpt lat="43.60457" lon="2.96453">
        <ele>824.2</ele>
        <time>2026-05-07T12:21:29.000Z</time>
      </trkpt>
      <trkpt lat="43.60457" lon="2.96453">
        <ele>824.3</ele>
        <time>2026-05-07T12:21:30.000Z</time>
      </trkpt>
      <trkpt lat="43.60457" lon="2.96453">
        <ele>824.6</ele>
        <time>2026-05-07T12:21:31.000Z</time>
      </trkpt>
      <trkpt lat="43.60456" lon="2.96453">
        <ele>824.8</ele>
        <time>2026-05-07T12:21:32.000Z</time>
      </trkpt>
      <trkpt lat="43.60456" lon="2.96453">
        <ele>824.9</ele>
        <time>2026-05-07T12:21:33.000Z</time>
      </trkpt>
      <trkpt lat="43.60456" lon="2.96453">
        <ele>825</ele>
        <time>2026-05-07T12:21:34.000Z</time>
      </trkpt>
      <trkpt lat="43.60456" lon="2.96453">
        <ele>825.2</ele>
        <time>2026-05-07T12:21:35.000Z</time>
      </trkpt>
      <trkpt lat="43.60456" lon="2.96453">
        <ele>825.1</ele>
        <time>2026-05-07T12:21:36.000Z</time>
      </trkpt>
      <trkpt lat="43.60456" lon="2.96452">
        <ele>825.2</ele>
        <time>2026-05-07T12:21:37.000Z</time>
      </trkpt>
      <trkpt lat="43.60456" lon="2.96452">
        <ele>825.2</ele>
        <time>2026-05-07T12:21:38.000Z</time>
      </trkpt>
      <trkpt lat="43.60456" lon="2.96452">
        <ele>825</ele>
        <time>2026-05-07T12:21:39.000Z</time>
      </trkpt>
      <trkpt lat="43.60456" lon="2.96452">
        <ele>824.6</ele>
        <time>2026-05-07T12:21:40.000Z</time>
      </trkpt>
      <trkpt lat="43.60456" lon="2.96452">
        <ele>824.4</ele>
        <time>2026-05-07T12:21:41.000Z</time>
      </trkpt>
      <trkpt lat="43.60456" lon="2.96452">
        <ele>824.3</ele>
        <time>2026-05-07T12:21:42.000Z</time>
      </trkpt>
      <trkpt lat="43.60456" lon="2.96452">
        <ele>823.9</ele>
        <time>2026-05-07T12:21:43.000Z</time>
      </trkpt>
      <trkpt lat="43.60454" lon="2.9645">
        <ele>823.5</ele>
        <time>2026-05-07T12:21:44.000Z</time>
      </trkpt>
      <trkpt lat="43.60453" lon="2.96448">
        <ele>823.2</ele>
        <time>2026-05-07T12:21:45.000Z</time>
      </trkpt>
      <trkpt lat="43.60451" lon="2.96446">
        <ele>822.9</ele>
        <time>2026-05-07T12:21:46.000Z</time>
      </trkpt>
      <trkpt lat="43.60449" lon="2.96446">
        <ele>822.8</ele>
        <time>2026-05-07T12:21:47.000Z</time>
      </trkpt>
      <trkpt lat="43.60448" lon="2.96445">
        <ele>822.8</ele>
        <time>2026-05-07T12:21:48.000Z</time>
      </trkpt>
      <trkpt lat="43.60446" lon="2.96445">
        <ele>822.7</ele>
        <time>2026-05-07T12:21:49.000Z</time>
      </trkpt>
      <trkpt lat="43.60445" lon="2.96445">
        <ele>822.5</ele>
        <time>2026-05-07T12:21:50.000Z</time>
      </trkpt>
      <trkpt lat="43.60445" lon="2.96444">
        <ele>822.1</ele>
        <time>2026-05-07T12:21:51.000Z</time>
      </trkpt>
      <trkpt lat="43.60444" lon="2.96443">
        <ele>821.7</ele>
        <time>2026-05-07T12:21:52.000Z</time>
      </trkpt>
      <trkpt lat="43.60443" lon="2.96442">
        <ele>821.4</ele>
        <time>2026-05-07T12:21:53.000Z</time>
      </trkpt>
      <trkpt lat="43.60442" lon="2.96441">
        <ele>821.4</ele>
        <time>2026-05-07T12:21:54.000Z</time>
      </trkpt>
      <trkpt lat="43.60442" lon="2.9644">
        <ele>821.5</ele>
        <time>2026-05-07T12:21:55.000Z</time>
      </trkpt>
      <trkpt lat="43.60442" lon="2.96441">
        <ele>821.5</ele>
        <time>2026-05-07T12:21:56.000Z</time>
      </trkpt>
      <trkpt lat="43.60441" lon="2.9644">
        <ele>821.1</ele>
        <time>2026-05-07T12:21:57.000Z</time>
      </trkpt>
      <trkpt lat="43.6044" lon="2.96439">
        <ele>820.8</ele>
        <time>2026-05-07T12:21:58.000Z</time>
      </trkpt>
      <trkpt lat="43.60439" lon="2.96438">
        <ele>820.3</ele>
        <time>2026-05-07T12:21:59.000Z</time>
      </trkpt>
      <trkpt lat="43.60438" lon="2.96438">
        <ele>819.7</ele>
        <time>2026-05-07T12:22:00.000Z</time>
      </trkpt>
      <trkpt lat="43.60437" lon="2.96437">
        <ele>819.4</ele>
        <time>2026-05-07T12:22:01.000Z</time>
      </trkpt>
      <trkpt lat="43.60436" lon="2.96437">
        <ele>819.2</ele>
        <time>2026-05-07T12:22:02.000Z</time>
      </trkpt>
      <trkpt lat="43.60436" lon="2.96436">
        <ele>818.6</ele>
        <time>2026-05-07T12:22:03.000Z</time>
      </trkpt>
      <trkpt lat="43.60435" lon="2.96435">
        <ele>818.4</ele>
        <time>2026-05-07T12:22:04.000Z</time>
      </trkpt>
      <trkpt lat="43.60434" lon="2.96436">
        <ele>818.1</ele>
        <time>2026-05-07T12:22:05.000Z</time>
      </trkpt>
      <trkpt lat="43.60433" lon="2.96436">
        <ele>817.9</ele>
        <time>2026-05-07T12:22:06.000Z</time>
      </trkpt>
      <trkpt lat="43.60432" lon="2.96435">
        <ele>817.6</ele>
        <time>2026-05-07T12:22:07.000Z</time>
      </trkpt>
      <trkpt lat="43.6043" lon="2.96434">
        <ele>817.8</ele>
        <time>2026-05-07T12:22:08.000Z</time>
      </trkpt>
      <trkpt lat="43.60429" lon="2.96433">
        <ele>818.1</ele>
        <time>2026-05-07T12:22:09.000Z</time>
      </trkpt>
      <trkpt lat="43.60428" lon="2.96433">
        <ele>818.1</ele>
        <time>2026-05-07T12:22:10.000Z</time>
      </trkpt>
      <trkpt lat="43.60427" lon="2.96433">
        <ele>817.5</ele>
        <time>2026-05-07T12:22:11.000Z</time>
      </trkpt>
      <trkpt lat="43.60426" lon="2.96432">
        <ele>817.5</ele>
        <time>2026-05-07T12:22:12.000Z</time>
      </trkpt>
      <trkpt lat="43.60425" lon="2.96431">
        <ele>817.6</ele>
        <time>2026-05-07T12:22:13.000Z</time>
      </trkpt>
      <trkpt lat="43.60425" lon="2.9643">
        <ele>818.1</ele>
        <time>2026-05-07T12:22:14.000Z</time>
      </trkpt>
      <trkpt lat="43.60424" lon="2.96429">
        <ele>818.4</ele>
        <time>2026-05-07T12:22:15.000Z</time>
      </trkpt>
      <trkpt lat="43.60423" lon="2.96428">
        <ele>818.4</ele>
        <time>2026-05-07T12:22:16.000Z</time>
      </trkpt>
      <trkpt lat="43.60423" lon="2.96427">
        <ele>817.9</ele>
        <time>2026-05-07T12:22:17.000Z</time>
      </trkpt>
      <trkpt lat="43.60423" lon="2.96427">
        <ele>817.6</ele>
        <time>2026-05-07T12:22:18.000Z</time>
      </trkpt>
      <trkpt lat="43.60421" lon="2.96426">
        <ele>817.3</ele>
        <time>2026-05-07T12:22:19.000Z</time>
      </trkpt>
      <trkpt lat="43.60419" lon="2.96425">
        <ele>817.5</ele>
        <time>2026-05-07T12:22:20.000Z</time>
      </trkpt>
      <trkpt lat="43.60418" lon="2.96424">
        <ele>817.5</ele>
        <time>2026-05-07T12:22:21.000Z</time>
      </trkpt>
      <trkpt lat="43.60416" lon="2.96424">
        <ele>817.5</ele>
        <time>2026-05-07T12:22:22.000Z</time>
      </trkpt>
      <trkpt lat="43.60415" lon="2.96424">
        <ele>817.1</ele>
        <time>2026-05-07T12:22:23.000Z</time>
      </trkpt>
      <trkpt lat="43.60414" lon="2.96424">
        <ele>816.7</ele>
        <time>2026-05-07T12:22:24.000Z</time>
      </trkpt>
      <trkpt lat="43.60413" lon="2.96424">
        <ele>816.2</ele>
        <time>2026-05-07T12:22:25.000Z</time>
      </trkpt>
      <trkpt lat="43.60412" lon="2.96424">
        <ele>815.9</ele>
        <time>2026-05-07T12:22:26.000Z</time>
      </trkpt>
      <trkpt lat="43.60411" lon="2.96424">
        <ele>816</ele>
        <time>2026-05-07T12:22:27.000Z</time>
      </trkpt>
      <trkpt lat="43.60411" lon="2.96425">
        <ele>815.6</ele>
        <time>2026-05-07T12:22:28.000Z</time>
      </trkpt>
      <trkpt lat="43.60411" lon="2.96427">
        <ele>814.8</ele>
        <time>2026-05-07T12:22:29.000Z</time>
      </trkpt>
      <trkpt lat="43.60411" lon="2.96427">
        <ele>814</ele>
        <time>2026-05-07T12:22:30.000Z</time>
      </trkpt>
      <trkpt lat="43.60411" lon="2.96428">
        <ele>813.2</ele>
        <time>2026-05-07T12:22:31.000Z</time>
      </trkpt>
      <trkpt lat="43.60411" lon="2.96428">
        <ele>813</ele>
        <time>2026-05-07T12:22:32.000Z</time>
      </trkpt>
      <trkpt lat="43.60411" lon="2.96428">
        <ele>812.5</ele>
        <time>2026-05-07T12:22:33.000Z</time>
      </trkpt>
      <trkpt lat="43.60412" lon="2.96428">
        <ele>812.1</ele>
        <time>2026-05-07T12:22:34.000Z</time>
      </trkpt>
      <trkpt lat="43.60412" lon="2.96427">
        <ele>811.7</ele>
        <time>2026-05-07T12:22:35.000Z</time>
      </trkpt>
      <trkpt lat="43.60414" lon="2.96425">
        <ele>811.3</ele>
        <time>2026-05-07T12:22:36.000Z</time>
      </trkpt>
      <trkpt lat="43.60414" lon="2.96424">
        <ele>810.9</ele>
        <time>2026-05-07T12:22:37.000Z</time>
      </trkpt>
      <trkpt lat="43.60414" lon="2.96423">
        <ele>810.8</ele>
        <time>2026-05-07T12:22:38.000Z</time>
      </trkpt>
      <trkpt lat="43.60414" lon="2.96422">
        <ele>810.7</ele>
        <time>2026-05-07T12:22:39.000Z</time>
      </trkpt>
      <trkpt lat="43.60413" lon="2.96421">
        <ele>810.8</ele>
        <time>2026-05-07T12:22:40.000Z</time>
      </trkpt>
      <trkpt lat="43.60413" lon="2.9642">
        <ele>810.8</ele>
        <time>2026-05-07T12:22:41.000Z</time>
      </trkpt>
      <trkpt lat="43.60413" lon="2.96419">
        <ele>810.4</ele>
        <time>2026-05-07T12:22:42.000Z</time>
      </trkpt>
      <trkpt lat="43.60413" lon="2.96419">
        <ele>810</ele>
        <time>2026-05-07T12:22:43.000Z</time>
      </trkpt>
      <trkpt lat="43.60413" lon="2.96419">
        <ele>809.7</ele>
        <time>2026-05-07T12:22:44.000Z</time>
      </trkpt>
      <trkpt lat="43.60413" lon="2.96419">
        <ele>809.8</ele>
        <time>2026-05-07T12:22:45.000Z</time>
      </trkpt>
      <trkpt lat="43.60413" lon="2.96419">
        <ele>809.7</ele>
        <time>2026-05-07T12:22:46.000Z</time>
      </trkpt>
      <trkpt lat="43.60414" lon="2.96419">
        <ele>809.8</ele>
        <time>2026-05-07T12:22:47.000Z</time>
      </trkpt>
      <trkpt lat="43.60413" lon="2.96418">
        <ele>809.8</ele>
        <time>2026-05-07T12:22:48.000Z</time>
      </trkpt>
      <trkpt lat="43.60413" lon="2.96418">
        <ele>809.8</ele>
        <time>2026-05-07T12:22:49.000Z</time>
      </trkpt>
      <trkpt lat="43.60413" lon="2.96419">
        <ele>809.8</ele>
        <time>2026-05-07T12:22:50.000Z</time>
      </trkpt>
      <trkpt lat="43.60413" lon="2.96419">
        <ele>809.6</ele>
        <time>2026-05-07T12:22:51.000Z</time>
      </trkpt>
      <trkpt lat="43.60413" lon="2.96419">
        <ele>809.5</ele>
        <time>2026-05-07T12:22:52.000Z</time>
      </trkpt>
      <trkpt lat="43.60413" lon="2.96419">
        <ele>809.3</ele>
        <time>2026-05-07T12:22:53.000Z</time>
      </trkpt>
      <trkpt lat="43.60414" lon="2.9642">
        <ele>809.2</ele>
        <time>2026-05-07T12:22:54.000Z</time>
      </trkpt>
      <trkpt lat="43.60415" lon="2.96421">
        <ele>808.8</ele>
        <time>2026-05-07T12:22:55.000Z</time>
      </trkpt>
      <trkpt lat="43.60416" lon="2.96419">
        <ele>808.5</ele>
        <time>2026-05-07T12:22:56.000Z</time>
      </trkpt>
      <trkpt lat="43.60417" lon="2.96418">
        <ele>808</ele>
        <time>2026-05-07T12:22:57.000Z</time>
      </trkpt>
      <trkpt lat="43.60417" lon="2.96416">
        <ele>807.5</ele>
        <time>2026-05-07T12:22:58.000Z</time>
      </trkpt>
      <trkpt lat="43.60417" lon="2.96414">
        <ele>806.8</ele>
        <time>2026-05-07T12:22:59.000Z</time>
      </trkpt>
      <trkpt lat="43.60417" lon="2.96412">
        <ele>806.4</ele>
        <time>2026-05-07T12:23:00.000Z</time>
      </trkpt>
      <trkpt lat="43.60418" lon="2.96411">
        <ele>806.3</ele>
        <time>2026-05-07T12:23:01.000Z</time>
      </trkpt>
      <trkpt lat="43.60418" lon="2.9641">
        <ele>806</ele>
        <time>2026-05-07T12:23:02.000Z</time>
      </trkpt>
      <trkpt lat="43.60418" lon="2.96409">
        <ele>805.6</ele>
        <time>2026-05-07T12:23:03.000Z</time>
      </trkpt>
      <trkpt lat="43.60418" lon="2.96409">
        <ele>805.2</ele>
        <time>2026-05-07T12:23:04.000Z</time>
      </trkpt>
      <trkpt lat="43.60418" lon="2.96409">
        <ele>804.7</ele>
        <time>2026-05-07T12:23:05.000Z</time>
      </trkpt>
      <trkpt lat="43.60417" lon="2.96408">
        <ele>804.5</ele>
        <time>2026-05-07T12:23:06.000Z</time>
      </trkpt>
      <trkpt lat="43.60416" lon="2.96407">
        <ele>804.4</ele>
        <time>2026-05-07T12:23:07.000Z</time>
      </trkpt>
      <trkpt lat="43.60417" lon="2.96407">
        <ele>804.3</ele>
        <time>2026-05-07T12:23:08.000Z</time>
      </trkpt>
      <trkpt lat="43.60417" lon="2.96406">
        <ele>804.3</ele>
        <time>2026-05-07T12:23:09.000Z</time>
      </trkpt>
      <trkpt lat="43.60417" lon="2.96406">
        <ele>804.3</ele>
        <time>2026-05-07T12:23:10.000Z</time>
      </trkpt>
      <trkpt lat="43.60417" lon="2.96405">
        <ele>804.8</ele>
        <time>2026-05-07T12:23:11.000Z</time>
      </trkpt>
      <trkpt lat="43.60416" lon="2.96403">
        <ele>805.2</ele>
        <time>2026-05-07T12:23:12.000Z</time>
      </trkpt>
      <trkpt lat="43.60416" lon="2.96401">
        <ele>805.5</ele>
        <time>2026-05-07T12:23:13.000Z</time>
      </trkpt>
      <trkpt lat="43.60416" lon="2.964">
        <ele>805.6</ele>
        <time>2026-05-07T12:23:14.000Z</time>
      </trkpt>
      <trkpt lat="43.60415" lon="2.96398">
        <ele>805.6</ele>
        <time>2026-05-07T12:23:15.000Z</time>
      </trkpt>
      <trkpt lat="43.60414" lon="2.96398">
        <ele>805.5</ele>
        <time>2026-05-07T12:23:16.000Z</time>
      </trkpt>
      <trkpt lat="43.60413" lon="2.96398">
        <ele>805.4</ele>
        <time>2026-05-07T12:23:17.000Z</time>
      </trkpt>
      <trkpt lat="43.60412" lon="2.96399">
        <ele>805.3</ele>
        <time>2026-05-07T12:23:18.000Z</time>
      </trkpt>
      <trkpt lat="43.60411" lon="2.96399">
        <ele>805</ele>
        <time>2026-05-07T12:23:19.000Z</time>
      </trkpt>
      <trkpt lat="43.60411" lon="2.96399">
        <ele>804.9</ele>
        <time>2026-05-07T12:23:20.000Z</time>
      </trkpt>
      <trkpt lat="43.60411" lon="2.96398">
        <ele>804.5</ele>
        <time>2026-05-07T12:23:21.000Z</time>
      </trkpt>
      <trkpt lat="43.60411" lon="2.96398">
        <ele>804.1</ele>
        <time>2026-05-07T12:23:22.000Z</time>
      </trkpt>
      <trkpt lat="43.60411" lon="2.96397">
        <ele>803.7</ele>
        <time>2026-05-07T12:23:23.000Z</time>
      </trkpt>
      <trkpt lat="43.60412" lon="2.96397">
        <ele>803.3</ele>
        <time>2026-05-07T12:23:24.000Z</time>
      </trkpt>
      <trkpt lat="43.60412" lon="2.96397">
        <ele>803</ele>
        <time>2026-05-07T12:23:25.000Z</time>
      </trkpt>
      <trkpt lat="43.60412" lon="2.96397">
        <ele>802.9</ele>
        <time>2026-05-07T12:23:26.000Z</time>
      </trkpt>
      <trkpt lat="43.60411" lon="2.96397">
        <ele>802.6</ele>
        <time>2026-05-07T12:23:27.000Z</time>
      </trkpt>
      <trkpt lat="43.60412" lon="2.96398">
        <ele>802.5</ele>
        <time>2026-05-07T12:23:28.000Z</time>
      </trkpt>
      <trkpt lat="43.60412" lon="2.96398">
        <ele>802.1</ele>
        <time>2026-05-07T12:23:29.000Z</time>
      </trkpt>
      <trkpt lat="43.60413" lon="2.96398">
        <ele>801.8</ele>
        <time>2026-05-07T12:23:30.000Z</time>
      </trkpt>
      <trkpt lat="43.60414" lon="2.96399">
        <ele>801.3</ele>
        <time>2026-05-07T12:23:31.000Z</time>
      </trkpt>
      <trkpt lat="43.60415" lon="2.96399">
        <ele>801.1</ele>
        <time>2026-05-07T12:23:32.000Z</time>
      </trkpt>
      <trkpt lat="43.60416" lon="2.96398">
        <ele>800.2</ele>
        <time>2026-05-07T12:23:33.000Z</time>
      </trkpt>
      <trkpt lat="43.60417" lon="2.96397">
        <ele>799.4</ele>
        <time>2026-05-07T12:23:34.000Z</time>
      </trkpt>
      <trkpt lat="43.60419" lon="2.96394">
        <ele>798.5</ele>
        <time>2026-05-07T12:23:35.000Z</time>
      </trkpt>
      <trkpt lat="43.60421" lon="2.96393">
        <ele>798.9</ele>
        <time>2026-05-07T12:23:36.000Z</time>
      </trkpt>
      <trkpt lat="43.60422" lon="2.9639">
        <ele>798.7</ele>
        <time>2026-05-07T12:23:37.000Z</time>
      </trkpt>
      <trkpt lat="43.60421" lon="2.9639">
        <ele>798.4</ele>
        <time>2026-05-07T12:23:38.000Z</time>
      </trkpt>
      <trkpt lat="43.6042" lon="2.96391">
        <ele>798.3</ele>
        <time>2026-05-07T12:23:39.000Z</time>
      </trkpt>
      <trkpt lat="43.60419" lon="2.96392">
        <ele>797.9</ele>
        <time>2026-05-07T12:23:40.000Z</time>
      </trkpt>
      <trkpt lat="43.60419" lon="2.96392">
        <ele>797</ele>
        <time>2026-05-07T12:23:41.000Z</time>
      </trkpt>
      <trkpt lat="43.6042" lon="2.96391">
        <ele>796.7</ele>
        <time>2026-05-07T12:23:42.000Z</time>
      </trkpt>
      <trkpt lat="43.6042" lon="2.96391">
        <ele>796.6</ele>
        <time>2026-05-07T12:23:43.000Z</time>
      </trkpt>
      <trkpt lat="43.60421" lon="2.9639">
        <ele>796.1</ele>
        <time>2026-05-07T12:23:44.000Z</time>
      </trkpt>
      <trkpt lat="43.60422" lon="2.96388">
        <ele>796.2</ele>
        <time>2026-05-07T12:23:45.000Z</time>
      </trkpt>
      <trkpt lat="43.60424" lon="2.96386">
        <ele>796</ele>
        <time>2026-05-07T12:23:46.000Z</time>
      </trkpt>
      <trkpt lat="43.60425" lon="2.96385">
        <ele>795.2</ele>
        <time>2026-05-07T12:23:47.000Z</time>
      </trkpt>
      <trkpt lat="43.60425" lon="2.96384">
        <ele>794.5</ele>
        <time>2026-05-07T12:23:48.000Z</time>
      </trkpt>
      <trkpt lat="43.60424" lon="2.96382">
        <ele>794</ele>
        <time>2026-05-07T12:23:49.000Z</time>
      </trkpt>
      <trkpt lat="43.60423" lon="2.96382">
        <ele>793.4</ele>
        <time>2026-05-07T12:23:50.000Z</time>
      </trkpt>
      <trkpt lat="43.60423" lon="2.96382">
        <ele>793.4</ele>
        <time>2026-05-07T12:23:51.000Z</time>
      </trkpt>
      <trkpt lat="43.60423" lon="2.96382">
        <ele>792.7</ele>
        <time>2026-05-07T12:23:52.000Z</time>
      </trkpt>
      <trkpt lat="43.60423" lon="2.96382">
        <ele>792.3</ele>
        <time>2026-05-07T12:23:53.000Z</time>
      </trkpt>
      <trkpt lat="43.60422" lon="2.96381">
        <ele>791.9</ele>
        <time>2026-05-07T12:23:54.000Z</time>
      </trkpt>
      <trkpt lat="43.60422" lon="2.96381">
        <ele>791.6</ele>
        <time>2026-05-07T12:23:55.000Z</time>
      </trkpt>
      <trkpt lat="43.60422" lon="2.96381">
        <ele>791.2</ele>
        <time>2026-05-07T12:23:56.000Z</time>
      </trkpt>
      <trkpt lat="43.60422" lon="2.96381">
        <ele>791.2</ele>
        <time>2026-05-07T12:23:57.000Z</time>
      </trkpt>
      <trkpt lat="43.60422" lon="2.96381">
        <ele>790.9</ele>
        <time>2026-05-07T12:23:58.000Z</time>
      </trkpt>
      <trkpt lat="43.60422" lon="2.9638">
        <ele>790.8</ele>
        <time>2026-05-07T12:23:59.000Z</time>
      </trkpt>
      <trkpt lat="43.60423" lon="2.96377">
        <ele>790.5</ele>
        <time>2026-05-07T12:24:00.000Z</time>
      </trkpt>
      <trkpt lat="43.60424" lon="2.96376">
        <ele>790.7</ele>
        <time>2026-05-07T12:24:01.000Z</time>
      </trkpt>
      <trkpt lat="43.60423" lon="2.96376">
        <ele>790.6</ele>
        <time>2026-05-07T12:24:02.000Z</time>
      </trkpt>
      <trkpt lat="43.60423" lon="2.96375">
        <ele>790.3</ele>
        <time>2026-05-07T12:24:03.000Z</time>
      </trkpt>
      <trkpt lat="43.60422" lon="2.96376">
        <ele>790.4</ele>
        <time>2026-05-07T12:24:04.000Z</time>
      </trkpt>
      <trkpt lat="43.60423" lon="2.96376">
        <ele>790.4</ele>
        <time>2026-05-07T12:24:05.000Z</time>
      </trkpt>
      <trkpt lat="43.60423" lon="2.96376">
        <ele>790.4</ele>
        <time>2026-05-07T12:24:06.000Z</time>
      </trkpt>
      <trkpt lat="43.60423" lon="2.96376">
        <ele>790.9</ele>
        <time>2026-05-07T12:24:07.000Z</time>
      </trkpt>
      <trkpt lat="43.60424" lon="2.96376">
        <ele>791.4</ele>
        <time>2026-05-07T12:24:08.000Z</time>
      </trkpt>
      <trkpt lat="43.60425" lon="2.96375">
        <ele>791.5</ele>
        <time>2026-05-07T12:24:09.000Z</time>
      </trkpt>
      <trkpt lat="43.60426" lon="2.96374">
        <ele>791.5</ele>
        <time>2026-05-07T12:24:10.000Z</time>
      </trkpt>
      <trkpt lat="43.60426" lon="2.96374">
        <ele>791.4</ele>
        <time>2026-05-07T12:24:11.000Z</time>
      </trkpt>
      <trkpt lat="43.60426" lon="2.96373">
        <ele>791.5</ele>
        <time>2026-05-07T12:24:12.000Z</time>
      </trkpt>
      <trkpt lat="43.60427" lon="2.96373">
        <ele>791.7</ele>
        <time>2026-05-07T12:24:13.000Z</time>
      </trkpt>
      <trkpt lat="43.60426" lon="2.96371">
        <ele>791.8</ele>
        <time>2026-05-07T12:24:14.000Z</time>
      </trkpt>
      <trkpt lat="43.60427" lon="2.96371">
        <ele>791.9</ele>
        <time>2026-05-07T12:24:15.000Z</time>
      </trkpt>
      <trkpt lat="43.60427" lon="2.96369">
        <ele>792.1</ele>
        <time>2026-05-07T12:24:16.000Z</time>
      </trkpt>
      <trkpt lat="43.60427" lon="2.96367">
        <ele>792.1</ele>
        <time>2026-05-07T12:24:17.000Z</time>
      </trkpt>
      <trkpt lat="43.60427" lon="2.96364">
        <ele>791.8</ele>
        <time>2026-05-07T12:24:18.000Z</time>
      </trkpt>
      <trkpt lat="43.60427" lon="2.96361">
        <ele>791.2</ele>
        <time>2026-05-07T12:24:19.000Z</time>
      </trkpt>
      <trkpt lat="43.60428" lon="2.96359">
        <ele>790.4</ele>
        <time>2026-05-07T12:24:20.000Z</time>
      </trkpt>
      <trkpt lat="43.60428" lon="2.96358">
        <ele>790.1</ele>
        <time>2026-05-07T12:24:21.000Z</time>
      </trkpt>
      <trkpt lat="43.60429" lon="2.96356">
        <ele>790.1</ele>
        <time>2026-05-07T12:24:22.000Z</time>
      </trkpt>
      <trkpt lat="43.60429" lon="2.96355">
        <ele>790.4</ele>
        <time>2026-05-07T12:24:23.000Z</time>
      </trkpt>
      <trkpt lat="43.60428" lon="2.96354">
        <ele>790.5</ele>
        <time>2026-05-07T12:24:24.000Z</time>
      </trkpt>
      <trkpt lat="43.60428" lon="2.96351">
        <ele>790.3</ele>
        <time>2026-05-07T12:24:25.000Z</time>
      </trkpt>
      <trkpt lat="43.60428" lon="2.9635">
        <ele>790.6</ele>
        <time>2026-05-07T12:24:26.000Z</time>
      </trkpt>
      <trkpt lat="43.60427" lon="2.96348">
        <ele>791.2</ele>
        <time>2026-05-07T12:24:27.000Z</time>
      </trkpt>
      <trkpt lat="43.60426" lon="2.96346">
        <ele>791.1</ele>
        <time>2026-05-07T12:24:28.000Z</time>
      </trkpt>
      <trkpt lat="43.60425" lon="2.96345">
        <ele>790.8</ele>
        <time>2026-05-07T12:24:29.000Z</time>
      </trkpt>
      <trkpt lat="43.60424" lon="2.96344">
        <ele>790.6</ele>
        <time>2026-05-07T12:24:30.000Z</time>
      </trkpt>
      <trkpt lat="43.60422" lon="2.96343">
        <ele>790.7</ele>
        <time>2026-05-07T12:24:31.000Z</time>
      </trkpt>
      <trkpt lat="43.60422" lon="2.96342">
        <ele>791.1</ele>
        <time>2026-05-07T12:24:32.000Z</time>
      </trkpt>
      <trkpt lat="43.60421" lon="2.96341">
        <ele>791.3</ele>
        <time>2026-05-07T12:24:33.000Z</time>
      </trkpt>
      <trkpt lat="43.60421" lon="2.9634">
        <ele>791.2</ele>
        <time>2026-05-07T12:24:34.000Z</time>
      </trkpt>
      <trkpt lat="43.6042" lon="2.9634">
        <ele>790.5</ele>
        <time>2026-05-07T12:24:35.000Z</time>
      </trkpt>
      <trkpt lat="43.6042" lon="2.96339">
        <ele>790.6</ele>
        <time>2026-05-07T12:24:36.000Z</time>
      </trkpt>
      <trkpt lat="43.6042" lon="2.96339">
        <ele>790.2</ele>
        <time>2026-05-07T12:24:37.000Z</time>
      </trkpt>
      <trkpt lat="43.60419" lon="2.96339">
        <ele>790.2</ele>
        <time>2026-05-07T12:24:38.000Z</time>
      </trkpt>
      <trkpt lat="43.60419" lon="2.96339">
        <ele>790.2</ele>
        <time>2026-05-07T12:24:39.000Z</time>
      </trkpt>
      <trkpt lat="43.60418" lon="2.96338">
        <ele>790.1</ele>
        <time>2026-05-07T12:24:40.000Z</time>
      </trkpt>
      <trkpt lat="43.60418" lon="2.96338">
        <ele>790.1</ele>
        <time>2026-05-07T12:24:41.000Z</time>
      </trkpt>
      <trkpt lat="43.60418" lon="2.96339">
        <ele>789.7</ele>
        <time>2026-05-07T12:24:42.000Z</time>
      </trkpt>
      <trkpt lat="43.60417" lon="2.96339">
        <ele>789.5</ele>
        <time>2026-05-07T12:24:43.000Z</time>
      </trkpt>
      <trkpt lat="43.60417" lon="2.96339">
        <ele>789.5</ele>
        <time>2026-05-07T12:24:44.000Z</time>
      </trkpt>
      <trkpt lat="43.60416" lon="2.96339">
        <ele>789.6</ele>
        <time>2026-05-07T12:24:45.000Z</time>
      </trkpt>
      <trkpt lat="43.60415" lon="2.96339">
        <ele>790</ele>
        <time>2026-05-07T12:24:46.000Z</time>
      </trkpt>
      <trkpt lat="43.60413" lon="2.96339">
        <ele>790.2</ele>
        <time>2026-05-07T12:24:47.000Z</time>
      </trkpt>
      <trkpt lat="43.60412" lon="2.9634">
        <ele>790.1</ele>
        <time>2026-05-07T12:24:48.000Z</time>
      </trkpt>
      <trkpt lat="43.60411" lon="2.9634">
        <ele>790</ele>
        <time>2026-05-07T12:24:49.000Z</time>
      </trkpt>
      <trkpt lat="43.6041" lon="2.96339">
        <ele>789.9</ele>
        <time>2026-05-07T12:24:50.000Z</time>
      </trkpt>
      <trkpt lat="43.60409" lon="2.96338">
        <ele>789.4</ele>
        <time>2026-05-07T12:24:51.000Z</time>
      </trkpt>
      <trkpt lat="43.60408" lon="2.96337">
        <ele>788.7</ele>
        <time>2026-05-07T12:24:52.000Z</time>
      </trkpt>
      <trkpt lat="43.60408" lon="2.96336">
        <ele>788.5</ele>
        <time>2026-05-07T12:24:53.000Z</time>
      </trkpt>
      <trkpt lat="43.60407" lon="2.96335">
        <ele>788.1</ele>
        <time>2026-05-07T12:24:54.000Z</time>
      </trkpt>
      <trkpt lat="43.60406" lon="2.96335">
        <ele>787.7</ele>
        <time>2026-05-07T12:24:55.000Z</time>
      </trkpt>
      <trkpt lat="43.60405" lon="2.96334">
        <ele>787.6</ele>
        <time>2026-05-07T12:24:56.000Z</time>
      </trkpt>
      <trkpt lat="43.60403" lon="2.96333">
        <ele>787.5</ele>
        <time>2026-05-07T12:24:57.000Z</time>
      </trkpt>
      <trkpt lat="43.60401" lon="2.96331">
        <ele>787.4</ele>
        <time>2026-05-07T12:24:58.000Z</time>
      </trkpt>
      <trkpt lat="43.604" lon="2.9633">
        <ele>787.5</ele>
        <time>2026-05-07T12:24:59.000Z</time>
      </trkpt>
      <trkpt lat="43.60398" lon="2.9633">
        <ele>787.6</ele>
        <time>2026-05-07T12:25:00.000Z</time>
      </trkpt>
      <trkpt lat="43.60397" lon="2.9633">
        <ele>787.6</ele>
        <time>2026-05-07T12:25:01.000Z</time>
      </trkpt>
      <trkpt lat="43.60396" lon="2.9633">
        <ele>787.9</ele>
        <time>2026-05-07T12:25:02.000Z</time>
      </trkpt>
      <trkpt lat="43.60396" lon="2.9633">
        <ele>788.3</ele>
        <time>2026-05-07T12:25:03.000Z</time>
      </trkpt>
      <trkpt lat="43.60396" lon="2.9633">
        <ele>788.5</ele>
        <time>2026-05-07T12:25:04.000Z</time>
      </trkpt>
      <trkpt lat="43.60396" lon="2.9633">
        <ele>789</ele>
        <time>2026-05-07T12:25:05.000Z</time>
      </trkpt>
      <trkpt lat="43.60396" lon="2.9633">
        <ele>789.1</ele>
        <time>2026-05-07T12:25:06.000Z</time>
      </trkpt>
      <trkpt lat="43.60396" lon="2.9633">
        <ele>789.1</ele>
        <time>2026-05-07T12:25:07.000Z</time>
      </trkpt>
      <trkpt lat="43.60395" lon="2.9633">
        <ele>789.2</ele>
        <time>2026-05-07T12:25:08.000Z</time>
      </trkpt>
      <trkpt lat="43.60395" lon="2.9633">
        <ele>789.1</ele>
        <time>2026-05-07T12:25:09.000Z</time>
      </trkpt>
      <trkpt lat="43.60395" lon="2.9633">
        <ele>788.9</ele>
        <time>2026-05-07T12:25:10.000Z</time>
      </trkpt>
      <trkpt lat="43.60395" lon="2.9633">
        <ele>788.5</ele>
        <time>2026-05-07T12:25:11.000Z</time>
      </trkpt>
      <trkpt lat="43.60395" lon="2.96329">
        <ele>787.8</ele>
        <time>2026-05-07T12:25:12.000Z</time>
      </trkpt>
      <trkpt lat="43.60395" lon="2.96329">
        <ele>787.3</ele>
        <time>2026-05-07T12:25:13.000Z</time>
      </trkpt>
      <trkpt lat="43.60392" lon="2.96328">
        <ele>786.7</ele>
        <time>2026-05-07T12:25:14.000Z</time>
      </trkpt>
      <trkpt lat="43.60389" lon="2.96329">
        <ele>786</ele>
        <time>2026-05-07T12:25:15.000Z</time>
      </trkpt>
      <trkpt lat="43.60387" lon="2.9633">
        <ele>785.5</ele>
        <time>2026-05-07T12:25:16.000Z</time>
      </trkpt>
      <trkpt lat="43.60385" lon="2.9633">
        <ele>784.9</ele>
        <time>2026-05-07T12:25:17.000Z</time>
      </trkpt>
      <trkpt lat="43.60384" lon="2.9633">
        <ele>784.6</ele>
        <time>2026-05-07T12:25:18.000Z</time>
      </trkpt>
      <trkpt lat="43.60383" lon="2.9633">
        <ele>784.4</ele>
        <time>2026-05-07T12:25:19.000Z</time>
      </trkpt>
      <trkpt lat="43.60383" lon="2.96331">
        <ele>784.5</ele>
        <time>2026-05-07T12:25:20.000Z</time>
      </trkpt>
      <trkpt lat="43.60383" lon="2.9633">
        <ele>784.6</ele>
        <time>2026-05-07T12:25:21.000Z</time>
      </trkpt>
      <trkpt lat="43.60382" lon="2.9633">
        <ele>784.1</ele>
        <time>2026-05-07T12:25:22.000Z</time>
      </trkpt>
      <trkpt lat="43.60381" lon="2.9633">
        <ele>783.7</ele>
        <time>2026-05-07T12:25:23.000Z</time>
      </trkpt>
      <trkpt lat="43.6038" lon="2.9633">
        <ele>783.4</ele>
        <time>2026-05-07T12:25:24.000Z</time>
      </trkpt>
      <trkpt lat="43.60378" lon="2.9633">
        <ele>783.3</ele>
        <time>2026-05-07T12:25:25.000Z</time>
      </trkpt>
      <trkpt lat="43.60377" lon="2.9633">
        <ele>783.2</ele>
        <time>2026-05-07T12:25:26.000Z</time>
      </trkpt>
      <trkpt lat="43.60377" lon="2.96331">
        <ele>783</ele>
        <time>2026-05-07T12:25:27.000Z</time>
      </trkpt>
      <trkpt lat="43.60376" lon="2.96332">
        <ele>782.9</ele>
        <time>2026-05-07T12:25:28.000Z</time>
      </trkpt>
      <trkpt lat="43.60376" lon="2.96333">
        <ele>783.1</ele>
        <time>2026-05-07T12:25:29.000Z</time>
      </trkpt>
      <trkpt lat="43.60376" lon="2.96333">
        <ele>783.4</ele>
        <time>2026-05-07T12:25:30.000Z</time>
      </trkpt>
      <trkpt lat="43.60375" lon="2.96333">
        <ele>783.5</ele>
        <time>2026-05-07T12:25:31.000Z</time>
      </trkpt>
      <trkpt lat="43.60375" lon="2.96332">
        <ele>783.2</ele>
        <time>2026-05-07T12:25:32.000Z</time>
      </trkpt>
      <trkpt lat="43.60375" lon="2.96332">
        <ele>783.2</ele>
        <time>2026-05-07T12:25:33.000Z</time>
      </trkpt>
      <trkpt lat="43.60374" lon="2.96333">
        <ele>783.1</ele>
        <time>2026-05-07T12:25:34.000Z</time>
      </trkpt>
      <trkpt lat="43.60374" lon="2.96333">
        <ele>782.9</ele>
        <time>2026-05-07T12:25:35.000Z</time>
      </trkpt>
      <trkpt lat="43.60374" lon="2.96333">
        <ele>782.7</ele>
        <time>2026-05-07T12:25:36.000Z</time>
      </trkpt>
      <trkpt lat="43.60374" lon="2.96333">
        <ele>782.6</ele>
        <time>2026-05-07T12:25:37.000Z</time>
      </trkpt>
      <trkpt lat="43.60375" lon="2.96333">
        <ele>782.5</ele>
        <time>2026-05-07T12:25:38.000Z</time>
      </trkpt>
      <trkpt lat="43.60375" lon="2.96333">
        <ele>782.6</ele>
        <time>2026-05-07T12:25:39.000Z</time>
      </trkpt>
      <trkpt lat="43.60376" lon="2.96333">
        <ele>782.4</ele>
        <time>2026-05-07T12:25:40.000Z</time>
      </trkpt>
      <trkpt lat="43.60376" lon="2.96334">
        <ele>782</ele>
        <time>2026-05-07T12:25:41.000Z</time>
      </trkpt>
      <trkpt lat="43.60376" lon="2.96334">
        <ele>782.1</ele>
        <time>2026-05-07T12:25:42.000Z</time>
      </trkpt>
      <trkpt lat="43.60377" lon="2.96333">
        <ele>782.1</ele>
        <time>2026-05-07T12:25:43.000Z</time>
      </trkpt>
      <trkpt lat="43.60377" lon="2.96333">
        <ele>781.7</ele>
        <time>2026-05-07T12:25:44.000Z</time>
      </trkpt>
      <trkpt lat="43.60377" lon="2.96332">
        <ele>781.8</ele>
        <time>2026-05-07T12:25:45.000Z</time>
      </trkpt>
      <trkpt lat="43.60378" lon="2.9633">
        <ele>782</ele>
        <time>2026-05-07T12:25:46.000Z</time>
      </trkpt>
      <trkpt lat="43.60378" lon="2.96327">
        <ele>782.1</ele>
        <time>2026-05-07T12:25:47.000Z</time>
      </trkpt>
      <trkpt lat="43.60379" lon="2.96327">
        <ele>782</ele>
        <time>2026-05-07T12:25:48.000Z</time>
      </trkpt>
      <trkpt lat="43.60379" lon="2.96326">
        <ele>781.5</ele>
        <time>2026-05-07T12:25:49.000Z</time>
      </trkpt>
      <trkpt lat="43.60379" lon="2.96326">
        <ele>781.4</ele>
        <time>2026-05-07T12:25:50.000Z</time>
      </trkpt>
      <trkpt lat="43.60379" lon="2.96326">
        <ele>781.1</ele>
        <time>2026-05-07T12:25:51.000Z</time>
      </trkpt>
      <trkpt lat="43.60379" lon="2.96326">
        <ele>780.9</ele>
        <time>2026-05-07T12:25:52.000Z</time>
      </trkpt>
      <trkpt lat="43.60379" lon="2.96326">
        <ele>780.9</ele>
        <time>2026-05-07T12:25:53.000Z</time>
      </trkpt>
      <trkpt lat="43.60379" lon="2.96326">
        <ele>781</ele>
        <time>2026-05-07T12:25:54.000Z</time>
      </trkpt>
      <trkpt lat="43.60379" lon="2.96325">
        <ele>780.7</ele>
        <time>2026-05-07T12:25:55.000Z</time>
      </trkpt>
      <trkpt lat="43.60379" lon="2.96325">
        <ele>780.4</ele>
        <time>2026-05-07T12:25:56.000Z</time>
      </trkpt>
      <trkpt lat="43.60379" lon="2.96325">
        <ele>780.2</ele>
        <time>2026-05-07T12:25:57.000Z</time>
      </trkpt>
      <trkpt lat="43.60379" lon="2.96325">
        <ele>780.1</ele>
        <time>2026-05-07T12:25:58.000Z</time>
      </trkpt>
      <trkpt lat="43.60379" lon="2.96325">
        <ele>780</ele>
        <time>2026-05-07T12:25:59.000Z</time>
      </trkpt>
      <trkpt lat="43.60379" lon="2.96324">
        <ele>779.6</ele>
        <time>2026-05-07T12:26:00.000Z</time>
      </trkpt>
      <trkpt lat="43.60379" lon="2.96324">
        <ele>779.1</ele>
        <time>2026-05-07T12:26:01.000Z</time>
      </trkpt>
      <trkpt lat="43.60379" lon="2.96324">
        <ele>778.8</ele>
        <time>2026-05-07T12:26:02.000Z</time>
      </trkpt>
      <trkpt lat="43.60379" lon="2.96323">
        <ele>778.9</ele>
        <time>2026-05-07T12:26:03.000Z</time>
      </trkpt>
      <trkpt lat="43.60378" lon="2.96321">
        <ele>778.6</ele>
        <time>2026-05-07T12:26:04.000Z</time>
      </trkpt>
      <trkpt lat="43.60377" lon="2.9632">
        <ele>778.3</ele>
        <time>2026-05-07T12:26:05.000Z</time>
      </trkpt>
      <trkpt lat="43.60377" lon="2.96318">
        <ele>778</ele>
        <time>2026-05-07T12:26:06.000Z</time>
      </trkpt>
      <trkpt lat="43.60376" lon="2.96317">
        <ele>777.4</ele>
        <time>2026-05-07T12:26:07.000Z</time>
      </trkpt>
      <trkpt lat="43.60375" lon="2.96317">
        <ele>777.2</ele>
        <time>2026-05-07T12:26:08.000Z</time>
      </trkpt>
      <trkpt lat="43.60374" lon="2.96316">
        <ele>776.8</ele>
        <time>2026-05-07T12:26:09.000Z</time>
      </trkpt>
      <trkpt lat="43.60374" lon="2.96317">
        <ele>776.9</ele>
        <time>2026-05-07T12:26:10.000Z</time>
      </trkpt>
      <trkpt lat="43.60373" lon="2.96317">
        <ele>776.9</ele>
        <time>2026-05-07T12:26:11.000Z</time>
      </trkpt>
      <trkpt lat="43.60373" lon="2.96316">
        <ele>776.9</ele>
        <time>2026-05-07T12:26:12.000Z</time>
      </trkpt>
      <trkpt lat="43.60373" lon="2.96316">
        <ele>777</ele>
        <time>2026-05-07T12:26:13.000Z</time>
      </trkpt>
      <trkpt lat="43.60372" lon="2.96316">
        <ele>777.1</ele>
        <time>2026-05-07T12:26:14.000Z</time>
      </trkpt>
      <trkpt lat="43.60372" lon="2.96316">
        <ele>777.1</ele>
        <time>2026-05-07T12:26:15.000Z</time>
      </trkpt>
      <trkpt lat="43.60372" lon="2.96316">
        <ele>776.8</ele>
        <time>2026-05-07T12:26:16.000Z</time>
      </trkpt>
      <trkpt lat="43.60372" lon="2.96315">
        <ele>776.8</ele>
        <time>2026-05-07T12:26:17.000Z</time>
      </trkpt>
      <trkpt lat="43.60371" lon="2.96315">
        <ele>777.4</ele>
        <time>2026-05-07T12:26:18.000Z</time>
      </trkpt>
      <trkpt lat="43.60371" lon="2.96315">
        <ele>777.2</ele>
        <time>2026-05-07T12:26:19.000Z</time>
      </trkpt>
      <trkpt lat="43.60371" lon="2.96315">
        <ele>777.1</ele>
        <time>2026-05-07T12:26:20.000Z</time>
      </trkpt>
      <trkpt lat="43.60371" lon="2.96316">
        <ele>776.9</ele>
        <time>2026-05-07T12:26:21.000Z</time>
      </trkpt>
      <trkpt lat="43.60371" lon="2.96316">
        <ele>777</ele>
        <time>2026-05-07T12:26:22.000Z</time>
      </trkpt>
      <trkpt lat="43.60371" lon="2.96316">
        <ele>777</ele>
        <time>2026-05-07T12:26:23.000Z</time>
      </trkpt>
      <trkpt lat="43.60371" lon="2.96315">
        <ele>777.1</ele>
        <time>2026-05-07T12:26:24.000Z</time>
      </trkpt>
      <trkpt lat="43.60371" lon="2.96315">
        <ele>776.8</ele>
        <time>2026-05-07T12:26:25.000Z</time>
      </trkpt>
      <trkpt lat="43.60371" lon="2.96315">
        <ele>776.6</ele>
        <time>2026-05-07T12:26:26.000Z</time>
      </trkpt>
      <trkpt lat="43.60371" lon="2.96314">
        <ele>776.1</ele>
        <time>2026-05-07T12:26:27.000Z</time>
      </trkpt>
      <trkpt lat="43.60371" lon="2.96314">
        <ele>776.2</ele>
        <time>2026-05-07T12:26:28.000Z</time>
      </trkpt>
      <trkpt lat="43.60371" lon="2.96313">
        <ele>775.7</ele>
        <time>2026-05-07T12:26:29.000Z</time>
      </trkpt>
      <trkpt lat="43.60371" lon="2.96312">
        <ele>775.3</ele>
        <time>2026-05-07T12:26:30.000Z</time>
      </trkpt>
      <trkpt lat="43.60371" lon="2.96312">
        <ele>774.9</ele>
        <time>2026-05-07T12:26:31.000Z</time>
      </trkpt>
      <trkpt lat="43.60371" lon="2.96312">
        <ele>774.8</ele>
        <time>2026-05-07T12:26:32.000Z</time>
      </trkpt>
      <trkpt lat="43.60371" lon="2.96312">
        <ele>774.2</ele>
        <time>2026-05-07T12:26:33.000Z</time>
      </trkpt>
      <trkpt lat="43.60371" lon="2.96312">
        <ele>773.9</ele>
        <time>2026-05-07T12:26:34.000Z</time>
      </trkpt>
      <trkpt lat="43.60371" lon="2.96311">
        <ele>773.8</ele>
        <time>2026-05-07T12:26:35.000Z</time>
      </trkpt>
      <trkpt lat="43.60371" lon="2.96311">
        <ele>773.6</ele>
        <time>2026-05-07T12:26:36.000Z</time>
      </trkpt>
      <trkpt lat="43.60371" lon="2.96311">
        <ele>773.3</ele>
        <time>2026-05-07T12:26:37.000Z</time>
      </trkpt>
      <trkpt lat="43.60371" lon="2.96311">
        <ele>773</ele>
        <time>2026-05-07T12:26:38.000Z</time>
      </trkpt>
      <trkpt lat="43.60371" lon="2.96311">
        <ele>772.3</ele>
        <time>2026-05-07T12:26:39.000Z</time>
      </trkpt>
      <trkpt lat="43.60371" lon="2.9631">
        <ele>772.1</ele>
        <time>2026-05-07T12:26:40.000Z</time>
      </trkpt>
      <trkpt lat="43.60369" lon="2.9631">
        <ele>771.8</ele>
        <time>2026-05-07T12:26:41.000Z</time>
      </trkpt>
      <trkpt lat="43.60368" lon="2.96308">
        <ele>771.9</ele>
        <time>2026-05-07T12:26:42.000Z</time>
      </trkpt>
      <trkpt lat="43.60367" lon="2.96307">
        <ele>772.1</ele>
        <time>2026-05-07T12:26:43.000Z</time>
      </trkpt>
      <trkpt lat="43.60366" lon="2.96305">
        <ele>772.1</ele>
        <time>2026-05-07T12:26:44.000Z</time>
      </trkpt>
      <trkpt lat="43.60366" lon="2.96304">
        <ele>771.9</ele>
        <time>2026-05-07T12:26:45.000Z</time>
      </trkpt>
      <trkpt lat="43.60366" lon="2.96304">
        <ele>771.9</ele>
        <time>2026-05-07T12:26:46.000Z</time>
      </trkpt>
      <trkpt lat="43.60366" lon="2.96304">
        <ele>771.6</ele>
        <time>2026-05-07T12:26:47.000Z</time>
      </trkpt>
      <trkpt lat="43.60366" lon="2.96303">
        <ele>771.5</ele>
        <time>2026-05-07T12:26:48.000Z</time>
      </trkpt>
      <trkpt lat="43.60366" lon="2.96302">
        <ele>771.4</ele>
        <time>2026-05-07T12:26:49.000Z</time>
      </trkpt>
      <trkpt lat="43.60367" lon="2.963">
        <ele>771.2</ele>
        <time>2026-05-07T12:26:50.000Z</time>
      </trkpt>
      <trkpt lat="43.60367" lon="2.96298">
        <ele>770.9</ele>
        <time>2026-05-07T12:26:51.000Z</time>
      </trkpt>
      <trkpt lat="43.60367" lon="2.96297">
        <ele>770.6</ele>
        <time>2026-05-07T12:26:52.000Z</time>
      </trkpt>
      <trkpt lat="43.60367" lon="2.96297">
        <ele>770</ele>
        <time>2026-05-07T12:26:53.000Z</time>
      </trkpt>
      <trkpt lat="43.60367" lon="2.96296">
        <ele>769.5</ele>
        <time>2026-05-07T12:26:54.000Z</time>
      </trkpt>
      <trkpt lat="43.60365" lon="2.96295">
        <ele>769</ele>
        <time>2026-05-07T12:26:55.000Z</time>
      </trkpt>
      <trkpt lat="43.60365" lon="2.96293">
        <ele>768.7</ele>
        <time>2026-05-07T12:26:56.000Z</time>
      </trkpt>
      <trkpt lat="43.60363" lon="2.96292">
        <ele>769</ele>
        <time>2026-05-07T12:26:57.000Z</time>
      </trkpt>
      <trkpt lat="43.60362" lon="2.96291">
        <ele>769.4</ele>
        <time>2026-05-07T12:26:58.000Z</time>
      </trkpt>
      <trkpt lat="43.60361" lon="2.9629">
        <ele>769.5</ele>
        <time>2026-05-07T12:26:59.000Z</time>
      </trkpt>
      <trkpt lat="43.6036" lon="2.9629">
        <ele>769.6</ele>
        <time>2026-05-07T12:27:00.000Z</time>
      </trkpt>
      <trkpt lat="43.60357" lon="2.96292">
        <ele>769.5</ele>
        <time>2026-05-07T12:27:01.000Z</time>
      </trkpt>
      <trkpt lat="43.60356" lon="2.96293">
        <ele>769.4</ele>
        <time>2026-05-07T12:27:02.000Z</time>
      </trkpt>
      <trkpt lat="43.60356" lon="2.96293">
        <ele>769.3</ele>
        <time>2026-05-07T12:27:03.000Z</time>
      </trkpt>
      <trkpt lat="43.60356" lon="2.96293">
        <ele>769.2</ele>
        <time>2026-05-07T12:27:04.000Z</time>
      </trkpt>
      <trkpt lat="43.60356" lon="2.96293">
        <ele>769.4</ele>
        <time>2026-05-07T12:27:05.000Z</time>
      </trkpt>
      <trkpt lat="43.60356" lon="2.96293">
        <ele>768.9</ele>
        <time>2026-05-07T12:27:06.000Z</time>
      </trkpt>
      <trkpt lat="43.60356" lon="2.96293">
        <ele>768.5</ele>
        <time>2026-05-07T12:27:07.000Z</time>
      </trkpt>
      <trkpt lat="43.60356" lon="2.96293">
        <ele>768.2</ele>
        <time>2026-05-07T12:27:08.000Z</time>
      </trkpt>
      <trkpt lat="43.60356" lon="2.96292">
        <ele>768.1</ele>
        <time>2026-05-07T12:27:09.000Z</time>
      </trkpt>
      <trkpt lat="43.60356" lon="2.96292">
        <ele>767.7</ele>
        <time>2026-05-07T12:27:10.000Z</time>
      </trkpt>
      <trkpt lat="43.60356" lon="2.96292">
        <ele>767.5</ele>
        <time>2026-05-07T12:27:11.000Z</time>
      </trkpt>
      <trkpt lat="43.60356" lon="2.96291">
        <ele>767.2</ele>
        <time>2026-05-07T12:27:12.000Z</time>
      </trkpt>
      <trkpt lat="43.60356" lon="2.96289">
        <ele>766.7</ele>
        <time>2026-05-07T12:27:13.000Z</time>
      </trkpt>
      <trkpt lat="43.60356" lon="2.96288">
        <ele>766.3</ele>
        <time>2026-05-07T12:27:14.000Z</time>
      </trkpt>
      <trkpt lat="43.60355" lon="2.96287">
        <ele>766</ele>
        <time>2026-05-07T12:27:15.000Z</time>
      </trkpt>
      <trkpt lat="43.60355" lon="2.96286">
        <ele>765.8</ele>
        <time>2026-05-07T12:27:16.000Z</time>
      </trkpt>
      <trkpt lat="43.60354" lon="2.96284">
        <ele>765.7</ele>
        <time>2026-05-07T12:27:17.000Z</time>
      </trkpt>
      <trkpt lat="43.60354" lon="2.96282">
        <ele>765.6</ele>
        <time>2026-05-07T12:27:18.000Z</time>
      </trkpt>
      <trkpt lat="43.60353" lon="2.96279">
        <ele>765.7</ele>
        <time>2026-05-07T12:27:19.000Z</time>
      </trkpt>
      <trkpt lat="43.60353" lon="2.96277">
        <ele>765.5</ele>
        <time>2026-05-07T12:27:20.000Z</time>
      </trkpt>
      <trkpt lat="43.60352" lon="2.96276">
        <ele>765.2</ele>
        <time>2026-05-07T12:27:21.000Z</time>
      </trkpt>
      <trkpt lat="43.60352" lon="2.96276">
        <ele>765.1</ele>
        <time>2026-05-07T12:27:22.000Z</time>
      </trkpt>
      <trkpt lat="43.60352" lon="2.96274">
        <ele>765.1</ele>
        <time>2026-05-07T12:27:23.000Z</time>
      </trkpt>
      <trkpt lat="43.60352" lon="2.96273">
        <ele>764.8</ele>
        <time>2026-05-07T12:27:24.000Z</time>
      </trkpt>
      <trkpt lat="43.60351" lon="2.9627">
        <ele>764.6</ele>
        <time>2026-05-07T12:27:25.000Z</time>
      </trkpt>
      <trkpt lat="43.60349" lon="2.96268">
        <ele>764.2</ele>
        <time>2026-05-07T12:27:26.000Z</time>
      </trkpt>
      <trkpt lat="43.60347" lon="2.96266">
        <ele>764</ele>
        <time>2026-05-07T12:27:27.000Z</time>
      </trkpt>
      <trkpt lat="43.60346" lon="2.96266">
        <ele>763.3</ele>
        <time>2026-05-07T12:27:28.000Z</time>
      </trkpt>
      <trkpt lat="43.60345" lon="2.96266">
        <ele>762.7</ele>
        <time>2026-05-07T12:27:29.000Z</time>
      </trkpt>
      <trkpt lat="43.60344" lon="2.96267">
        <ele>762.3</ele>
        <time>2026-05-07T12:27:30.000Z</time>
      </trkpt>
      <trkpt lat="43.60343" lon="2.96267">
        <ele>762.7</ele>
        <time>2026-05-07T12:27:31.000Z</time>
      </trkpt>
      <trkpt lat="43.60342" lon="2.96267">
        <ele>763</ele>
        <time>2026-05-07T12:27:32.000Z</time>
      </trkpt>
      <trkpt lat="43.60341" lon="2.96266">
        <ele>763</ele>
        <time>2026-05-07T12:27:33.000Z</time>
      </trkpt>
      <trkpt lat="43.6034" lon="2.96266">
        <ele>763.3</ele>
        <time>2026-05-07T12:27:34.000Z</time>
      </trkpt>
      <trkpt lat="43.6034" lon="2.96267">
        <ele>763</ele>
        <time>2026-05-07T12:27:35.000Z</time>
      </trkpt>
      <trkpt lat="43.6034" lon="2.96267">
        <ele>762.1</ele>
        <time>2026-05-07T12:27:36.000Z</time>
      </trkpt>
      <trkpt lat="43.60339" lon="2.96266">
        <ele>761.8</ele>
        <time>2026-05-07T12:27:37.000Z</time>
      </trkpt>
      <trkpt lat="43.60338" lon="2.96264">
        <ele>761.8</ele>
        <time>2026-05-07T12:27:38.000Z</time>
      </trkpt>
      <trkpt lat="43.60338" lon="2.96262">
        <ele>761.5</ele>
        <time>2026-05-07T12:27:39.000Z</time>
      </trkpt>
      <trkpt lat="43.60337" lon="2.9626">
        <ele>761.4</ele>
        <time>2026-05-07T12:27:40.000Z</time>
      </trkpt>
      <trkpt lat="43.60337" lon="2.96259">
        <ele>761.7</ele>
        <time>2026-05-07T12:27:41.000Z</time>
      </trkpt>
      <trkpt lat="43.60337" lon="2.96258">
        <ele>761.4</ele>
        <time>2026-05-07T12:27:42.000Z</time>
      </trkpt>
      <trkpt lat="43.60338" lon="2.96257">
        <ele>761.2</ele>
        <time>2026-05-07T12:27:43.000Z</time>
      </trkpt>
      <trkpt lat="43.60338" lon="2.96257">
        <ele>761.4</ele>
        <time>2026-05-07T12:27:44.000Z</time>
      </trkpt>
      <trkpt lat="43.60338" lon="2.96257">
        <ele>761.7</ele>
        <time>2026-05-07T12:27:45.000Z</time>
      </trkpt>
      <trkpt lat="43.60338" lon="2.96258">
        <ele>761.7</ele>
        <time>2026-05-07T12:27:46.000Z</time>
      </trkpt>
      <trkpt lat="43.60337" lon="2.9626">
        <ele>761.8</ele>
        <time>2026-05-07T12:27:47.000Z</time>
      </trkpt>
      <trkpt lat="43.60336" lon="2.96261">
        <ele>761.6</ele>
        <time>2026-05-07T12:27:48.000Z</time>
      </trkpt>
      <trkpt lat="43.60336" lon="2.96261">
        <ele>761.5</ele>
        <time>2026-05-07T12:27:49.000Z</time>
      </trkpt>
      <trkpt lat="43.60336" lon="2.96262">
        <ele>761.2</ele>
        <time>2026-05-07T12:27:50.000Z</time>
      </trkpt>
      <trkpt lat="43.60335" lon="2.96262">
        <ele>761.1</ele>
        <time>2026-05-07T12:27:51.000Z</time>
      </trkpt>
      <trkpt lat="43.60334" lon="2.96262">
        <ele>761.1</ele>
        <time>2026-05-07T12:27:52.000Z</time>
      </trkpt>
      <trkpt lat="43.60334" lon="2.96262">
        <ele>761.1</ele>
        <time>2026-05-07T12:27:53.000Z</time>
      </trkpt>
      <trkpt lat="43.60335" lon="2.96262">
        <ele>761</ele>
        <time>2026-05-07T12:27:54.000Z</time>
      </trkpt>
      <trkpt lat="43.60335" lon="2.96262">
        <ele>760.6</ele>
        <time>2026-05-07T12:27:55.000Z</time>
      </trkpt>
      <trkpt lat="43.60336" lon="2.96262">
        <ele>760.8</ele>
        <time>2026-05-07T12:27:56.000Z</time>
      </trkpt>
      <trkpt lat="43.60337" lon="2.96262">
        <ele>760.8</ele>
        <time>2026-05-07T12:27:57.000Z</time>
      </trkpt>
      <trkpt lat="43.60338" lon="2.9626">
        <ele>760.7</ele>
        <time>2026-05-07T12:27:58.000Z</time>
      </trkpt>
      <trkpt lat="43.60339" lon="2.96258">
        <ele>760.5</ele>
        <time>2026-05-07T12:27:59.000Z</time>
      </trkpt>
      <trkpt lat="43.60339" lon="2.96257">
        <ele>760.5</ele>
        <time>2026-05-07T12:28:00.000Z</time>
      </trkpt>
      <trkpt lat="43.60339" lon="2.96255">
        <ele>760.3</ele>
        <time>2026-05-07T12:28:01.000Z</time>
      </trkpt>
      <trkpt lat="43.60338" lon="2.96254">
        <ele>760.1</ele>
        <time>2026-05-07T12:28:02.000Z</time>
      </trkpt>
      <trkpt lat="43.60338" lon="2.96254">
        <ele>759.8</ele>
        <time>2026-05-07T12:28:03.000Z</time>
      </trkpt>
      <trkpt lat="43.60338" lon="2.96254">
        <ele>759.8</ele>
        <time>2026-05-07T12:28:04.000Z</time>
      </trkpt>
      <trkpt lat="43.6034" lon="2.96254">
        <ele>759.7</ele>
        <time>2026-05-07T12:28:05.000Z</time>
      </trkpt>
      <trkpt lat="43.6034" lon="2.96254">
        <ele>759.7</ele>
        <time>2026-05-07T12:28:06.000Z</time>
      </trkpt>
      <trkpt lat="43.6034" lon="2.96254">
        <ele>759.8</ele>
        <time>2026-05-07T12:28:07.000Z</time>
      </trkpt>
      <trkpt lat="43.6034" lon="2.96254">
        <ele>759.9</ele>
        <time>2026-05-07T12:28:08.000Z</time>
      </trkpt>
      <trkpt lat="43.6034" lon="2.96255">
        <ele>760</ele>
        <time>2026-05-07T12:28:09.000Z</time>
      </trkpt>
      <trkpt lat="43.60342" lon="2.96256">
        <ele>759.9</ele>
        <time>2026-05-07T12:28:10.000Z</time>
      </trkpt>
      <trkpt lat="43.60343" lon="2.96257">
        <ele>759.5</ele>
        <time>2026-05-07T12:28:11.000Z</time>
      </trkpt>
      <trkpt lat="43.60344" lon="2.96257">
        <ele>759.2</ele>
        <time>2026-05-07T12:28:12.000Z</time>
      </trkpt>
      <trkpt lat="43.60344" lon="2.96257">
        <ele>758.9</ele>
        <time>2026-05-07T12:28:13.000Z</time>
      </trkpt>
      <trkpt lat="43.60344" lon="2.96256">
        <ele>758.6</ele>
        <time>2026-05-07T12:28:14.000Z</time>
      </trkpt>
      <trkpt lat="43.60345" lon="2.96254">
        <ele>758.5</ele>
        <time>2026-05-07T12:28:15.000Z</time>
      </trkpt>
      <trkpt lat="43.60345" lon="2.96251">
        <ele>758.6</ele>
        <time>2026-05-07T12:28:16.000Z</time>
      </trkpt>
      <trkpt lat="43.60346" lon="2.96249">
        <ele>758</ele>
        <time>2026-05-07T12:28:17.000Z</time>
      </trkpt>
      <trkpt lat="43.60346" lon="2.96247">
        <ele>757.9</ele>
        <time>2026-05-07T12:28:18.000Z</time>
      </trkpt>
      <trkpt lat="43.60346" lon="2.96246">
        <ele>757.9</ele>
        <time>2026-05-07T12:28:19.000Z</time>
      </trkpt>
      <trkpt lat="43.60346" lon="2.96245">
        <ele>757.4</ele>
        <time>2026-05-07T12:28:20.000Z</time>
      </trkpt>
      <trkpt lat="43.60346" lon="2.96244">
        <ele>757.1</ele>
        <time>2026-05-07T12:28:21.000Z</time>
      </trkpt>
      <trkpt lat="43.60346" lon="2.96244">
        <ele>756.7</ele>
        <time>2026-05-07T12:28:22.000Z</time>
      </trkpt>
      <trkpt lat="43.60347" lon="2.96244">
        <ele>756.6</ele>
        <time>2026-05-07T12:28:23.000Z</time>
      </trkpt>
      <trkpt lat="43.60347" lon="2.96243">
        <ele>756.1</ele>
        <time>2026-05-07T12:28:24.000Z</time>
      </trkpt>
      <trkpt lat="43.60347" lon="2.96243">
        <ele>755.8</ele>
        <time>2026-05-07T12:28:25.000Z</time>
      </trkpt>
      <trkpt lat="43.60347" lon="2.96243">
        <ele>755.5</ele>
        <time>2026-05-07T12:28:26.000Z</time>
      </trkpt>
      <trkpt lat="43.60347" lon="2.96242">
        <ele>755.3</ele>
        <time>2026-05-07T12:28:27.000Z</time>
      </trkpt>
      <trkpt lat="43.60347" lon="2.96242">
        <ele>754.9</ele>
        <time>2026-05-07T12:28:28.000Z</time>
      </trkpt>
      <trkpt lat="43.60347" lon="2.96241">
        <ele>754.8</ele>
        <time>2026-05-07T12:28:29.000Z</time>
      </trkpt>
      <trkpt lat="43.60347" lon="2.9624">
        <ele>754.7</ele>
        <time>2026-05-07T12:28:30.000Z</time>
      </trkpt>
      <trkpt lat="43.60347" lon="2.9624">
        <ele>754.1</ele>
        <time>2026-05-07T12:28:31.000Z</time>
      </trkpt>
      <trkpt lat="43.60347" lon="2.96239">
        <ele>753.7</ele>
        <time>2026-05-07T12:28:32.000Z</time>
      </trkpt>
      <trkpt lat="43.60347" lon="2.96239">
        <ele>753.4</ele>
        <time>2026-05-07T12:28:33.000Z</time>
      </trkpt>
      <trkpt lat="43.60347" lon="2.96238">
        <ele>753.1</ele>
        <time>2026-05-07T12:28:34.000Z</time>
      </trkpt>
      <trkpt lat="43.60346" lon="2.96236">
        <ele>752.7</ele>
        <time>2026-05-07T12:28:35.000Z</time>
      </trkpt>
      <trkpt lat="43.60345" lon="2.96234">
        <ele>752.6</ele>
        <time>2026-05-07T12:28:36.000Z</time>
      </trkpt>
      <trkpt lat="43.60344" lon="2.96231">
        <ele>752.5</ele>
        <time>2026-05-07T12:28:37.000Z</time>
      </trkpt>
      <trkpt lat="43.60344" lon="2.9623">
        <ele>752.1</ele>
        <time>2026-05-07T12:28:38.000Z</time>
      </trkpt>
      <trkpt lat="43.60344" lon="2.96227">
        <ele>751.5</ele>
        <time>2026-05-07T12:28:39.000Z</time>
      </trkpt>
      <trkpt lat="43.60345" lon="2.96226">
        <ele>751.2</ele>
        <time>2026-05-07T12:28:40.000Z</time>
      </trkpt>
      <trkpt lat="43.60345" lon="2.96225">
        <ele>750.7</ele>
        <time>2026-05-07T12:28:41.000Z</time>
      </trkpt>
      <trkpt lat="43.60344" lon="2.96224">
        <ele>750.4</ele>
        <time>2026-05-07T12:28:42.000Z</time>
      </trkpt>
      <trkpt lat="43.60344" lon="2.96223">
        <ele>750.1</ele>
        <time>2026-05-07T12:28:43.000Z</time>
      </trkpt>
      <trkpt lat="43.60344" lon="2.96221">
        <ele>749.7</ele>
        <time>2026-05-07T12:28:44.000Z</time>
      </trkpt>
      <trkpt lat="43.60344" lon="2.96219">
        <ele>748.7</ele>
        <time>2026-05-07T12:28:45.000Z</time>
      </trkpt>
      <trkpt lat="43.60344" lon="2.96218">
        <ele>748.2</ele>
        <time>2026-05-07T12:28:46.000Z</time>
      </trkpt>
      <trkpt lat="43.60344" lon="2.96217">
        <ele>747.7</ele>
        <time>2026-05-07T12:28:47.000Z</time>
      </trkpt>
      <trkpt lat="43.60343" lon="2.96215">
        <ele>747.1</ele>
        <time>2026-05-07T12:28:48.000Z</time>
      </trkpt>
      <trkpt lat="43.60343" lon="2.96215">
        <ele>746.9</ele>
        <time>2026-05-07T12:28:49.000Z</time>
      </trkpt>
      <trkpt lat="43.60343" lon="2.96214">
        <ele>746.6</ele>
        <time>2026-05-07T12:28:50.000Z</time>
      </trkpt>
      <trkpt lat="43.60343" lon="2.96213">
        <ele>746.2</ele>
        <time>2026-05-07T12:28:51.000Z</time>
      </trkpt>
      <trkpt lat="43.60344" lon="2.96211">
        <ele>745.9</ele>
        <time>2026-05-07T12:28:52.000Z</time>
      </trkpt>
      <trkpt lat="43.60344" lon="2.9621">
        <ele>745.5</ele>
        <time>2026-05-07T12:28:53.000Z</time>
      </trkpt>
      <trkpt lat="43.60345" lon="2.96209">
        <ele>745</ele>
        <time>2026-05-07T12:28:54.000Z</time>
      </trkpt>
      <trkpt lat="43.60345" lon="2.96208">
        <ele>744.7</ele>
        <time>2026-05-07T12:28:55.000Z</time>
      </trkpt>
      <trkpt lat="43.60345" lon="2.96205">
        <ele>744</ele>
        <time>2026-05-07T12:28:56.000Z</time>
      </trkpt>
      <trkpt lat="43.60345" lon="2.96204">
        <ele>743.5</ele>
        <time>2026-05-07T12:28:57.000Z</time>
      </trkpt>
      <trkpt lat="43.60345" lon="2.96202">
        <ele>742.9</ele>
        <time>2026-05-07T12:28:58.000Z</time>
      </trkpt>
      <trkpt lat="43.60345" lon="2.96201">
        <ele>742.5</ele>
        <time>2026-05-07T12:28:59.000Z</time>
      </trkpt>
      <trkpt lat="43.60345" lon="2.96199">
        <ele>742</ele>
        <time>2026-05-07T12:29:00.000Z</time>
      </trkpt>
      <trkpt lat="43.60345" lon="2.96198">
        <ele>741.6</ele>
        <time>2026-05-07T12:29:01.000Z</time>
      </trkpt>
      <trkpt lat="43.60345" lon="2.96196">
        <ele>741</ele>
        <time>2026-05-07T12:29:02.000Z</time>
      </trkpt>
      <trkpt lat="43.60344" lon="2.96195">
        <ele>740.5</ele>
        <time>2026-05-07T12:29:03.000Z</time>
      </trkpt>
      <trkpt lat="43.60342" lon="2.96196">
        <ele>740.4</ele>
        <time>2026-05-07T12:29:04.000Z</time>
      </trkpt>
      <trkpt lat="43.6034" lon="2.96197">
        <ele>740.4</ele>
        <time>2026-05-07T12:29:05.000Z</time>
      </trkpt>
      <trkpt lat="43.60338" lon="2.96198">
        <ele>740.3</ele>
        <time>2026-05-07T12:29:06.000Z</time>
      </trkpt>
      <trkpt lat="43.60336" lon="2.96199">
        <ele>740.1</ele>
        <time>2026-05-07T12:29:07.000Z</time>
      </trkpt>
      <trkpt lat="43.60335" lon="2.96198">
        <ele>739.7</ele>
        <time>2026-05-07T12:29:08.000Z</time>
      </trkpt>
      <trkpt lat="43.60333" lon="2.96199">
        <ele>739.5</ele>
        <time>2026-05-07T12:29:09.000Z</time>
      </trkpt>
      <trkpt lat="43.60331" lon="2.96199">
        <ele>739.2</ele>
        <time>2026-05-07T12:29:10.000Z</time>
      </trkpt>
      <trkpt lat="43.60331" lon="2.96198">
        <ele>739</ele>
        <time>2026-05-07T12:29:11.000Z</time>
      </trkpt>
      <trkpt lat="43.6033" lon="2.96198">
        <ele>738.9</ele>
        <time>2026-05-07T12:29:12.000Z</time>
      </trkpt>
      <trkpt lat="43.60329" lon="2.96198">
        <ele>739.2</ele>
        <time>2026-05-07T12:29:13.000Z</time>
      </trkpt>
      <trkpt lat="43.60327" lon="2.962">
        <ele>739.5</ele>
        <time>2026-05-07T12:29:14.000Z</time>
      </trkpt>
      <trkpt lat="43.60326" lon="2.962">
        <ele>739.9</ele>
        <time>2026-05-07T12:29:15.000Z</time>
      </trkpt>
      <trkpt lat="43.60325" lon="2.96201">
        <ele>740.1</ele>
        <time>2026-05-07T12:29:16.000Z</time>
      </trkpt>
      <trkpt lat="43.60324" lon="2.962">
        <ele>740.3</ele>
        <time>2026-05-07T12:29:17.000Z</time>
      </trkpt>
      <trkpt lat="43.60323" lon="2.96201">
        <ele>740.2</ele>
        <time>2026-05-07T12:29:18.000Z</time>
      </trkpt>
      <trkpt lat="43.60322" lon="2.962">
        <ele>739.9</ele>
        <time>2026-05-07T12:29:19.000Z</time>
      </trkpt>
      <trkpt lat="43.60322" lon="2.962">
        <ele>739.6</ele>
        <time>2026-05-07T12:29:20.000Z</time>
      </trkpt>
      <trkpt lat="43.6032" lon="2.962">
        <ele>739.6</ele>
        <time>2026-05-07T12:29:21.000Z</time>
      </trkpt>
      <trkpt lat="43.6032" lon="2.962">
        <ele>739.8</ele>
        <time>2026-05-07T12:29:22.000Z</time>
      </trkpt>
      <trkpt lat="43.60319" lon="2.96201">
        <ele>740</ele>
        <time>2026-05-07T12:29:23.000Z</time>
      </trkpt>
      <trkpt lat="43.60318" lon="2.96201">
        <ele>740.3</ele>
        <time>2026-05-07T12:29:24.000Z</time>
      </trkpt>
      <trkpt lat="43.60317" lon="2.96201">
        <ele>740.6</ele>
        <time>2026-05-07T12:29:25.000Z</time>
      </trkpt>
      <trkpt lat="43.60316" lon="2.962">
        <ele>740.4</ele>
        <time>2026-05-07T12:29:26.000Z</time>
      </trkpt>
      <trkpt lat="43.60317" lon="2.96201">
        <ele>740.2</ele>
        <time>2026-05-07T12:29:27.000Z</time>
      </trkpt>
      <trkpt lat="43.60316" lon="2.96201">
        <ele>740.7</ele>
        <time>2026-05-07T12:29:28.000Z</time>
      </trkpt>
      <trkpt lat="43.60317" lon="2.96201">
        <ele>740.4</ele>
        <time>2026-05-07T12:29:29.000Z</time>
      </trkpt>
      <trkpt lat="43.60318" lon="2.96201">
        <ele>740.4</ele>
        <time>2026-05-07T12:29:30.000Z</time>
      </trkpt>
      <trkpt lat="43.60319" lon="2.96201">
        <ele>740.3</ele>
        <time>2026-05-07T12:29:31.000Z</time>
      </trkpt>
      <trkpt lat="43.60319" lon="2.96201">
        <ele>740.3</ele>
        <time>2026-05-07T12:29:32.000Z</time>
      </trkpt>
      <trkpt lat="43.60319" lon="2.96201">
        <ele>740</ele>
        <time>2026-05-07T12:29:33.000Z</time>
      </trkpt>
      <trkpt lat="43.60319" lon="2.962">
        <ele>740</ele>
        <time>2026-05-07T12:29:34.000Z</time>
      </trkpt>
      <trkpt lat="43.60319" lon="2.96201">
        <ele>739.5</ele>
        <time>2026-05-07T12:29:35.000Z</time>
      </trkpt>
      <trkpt lat="43.60319" lon="2.96201">
        <ele>739.2</ele>
        <time>2026-05-07T12:29:36.000Z</time>
      </trkpt>
      <trkpt lat="43.60319" lon="2.96201">
        <ele>739.1</ele>
        <time>2026-05-07T12:29:37.000Z</time>
      </trkpt>
      <trkpt lat="43.60319" lon="2.96201">
        <ele>739.1</ele>
        <time>2026-05-07T12:29:38.000Z</time>
      </trkpt>
      <trkpt lat="43.60319" lon="2.96199">
        <ele>739.1</ele>
        <time>2026-05-07T12:29:39.000Z</time>
      </trkpt>
      <trkpt lat="43.60319" lon="2.96198">
        <ele>739.1</ele>
        <time>2026-05-07T12:29:40.000Z</time>
      </trkpt>
      <trkpt lat="43.60319" lon="2.96198">
        <ele>739.1</ele>
        <time>2026-05-07T12:29:41.000Z</time>
      </trkpt>
      <trkpt lat="43.60318" lon="2.96199">
        <ele>739.3</ele>
        <time>2026-05-07T12:29:42.000Z</time>
      </trkpt>
      <trkpt lat="43.60318" lon="2.962">
        <ele>739.2</ele>
        <time>2026-05-07T12:29:43.000Z</time>
      </trkpt>
      <trkpt lat="43.60318" lon="2.962">
        <ele>739.1</ele>
        <time>2026-05-07T12:29:44.000Z</time>
      </trkpt>
      <trkpt lat="43.60318" lon="2.96201">
        <ele>739.3</ele>
        <time>2026-05-07T12:29:45.000Z</time>
      </trkpt>
      <trkpt lat="43.60319" lon="2.962">
        <ele>739.1</ele>
        <time>2026-05-07T12:29:46.000Z</time>
      </trkpt>
      <trkpt lat="43.60319" lon="2.962">
        <ele>738.8</ele>
        <time>2026-05-07T12:29:47.000Z</time>
      </trkpt>
      <trkpt lat="43.60319" lon="2.96199">
        <ele>738.5</ele>
        <time>2026-05-07T12:29:48.000Z</time>
      </trkpt>
      <trkpt lat="43.60319" lon="2.96198">
        <ele>738.6</ele>
        <time>2026-05-07T12:29:49.000Z</time>
      </trkpt>
      <trkpt lat="43.60319" lon="2.96196">
        <ele>738.6</ele>
        <time>2026-05-07T12:29:50.000Z</time>
      </trkpt>
      <trkpt lat="43.6032" lon="2.96195">
        <ele>738.4</ele>
        <time>2026-05-07T12:29:51.000Z</time>
      </trkpt>
      <trkpt lat="43.6032" lon="2.96194">
        <ele>738.4</ele>
        <time>2026-05-07T12:29:52.000Z</time>
      </trkpt>
      <trkpt lat="43.6032" lon="2.96193">
        <ele>738.8</ele>
        <time>2026-05-07T12:29:53.000Z</time>
      </trkpt>
      <trkpt lat="43.6032" lon="2.96192">
        <ele>739</ele>
        <time>2026-05-07T12:29:54.000Z</time>
      </trkpt>
      <trkpt lat="43.60319" lon="2.96191">
        <ele>739.2</ele>
        <time>2026-05-07T12:29:55.000Z</time>
      </trkpt>
      <trkpt lat="43.6032" lon="2.96191">
        <ele>739.2</ele>
        <time>2026-05-07T12:29:56.000Z</time>
      </trkpt>
      <trkpt lat="43.6032" lon="2.9619">
        <ele>739.2</ele>
        <time>2026-05-07T12:29:57.000Z</time>
      </trkpt>
      <trkpt lat="43.6032" lon="2.96188">
        <ele>739.3</ele>
        <time>2026-05-07T12:29:58.000Z</time>
      </trkpt>
      <trkpt lat="43.60321" lon="2.96187">
        <ele>739.2</ele>
        <time>2026-05-07T12:29:59.000Z</time>
      </trkpt>
      <trkpt lat="43.60322" lon="2.96186">
        <ele>738.9</ele>
        <time>2026-05-07T12:30:00.000Z</time>
      </trkpt>
      <trkpt lat="43.60322" lon="2.96185">
        <ele>739.3</ele>
        <time>2026-05-07T12:30:01.000Z</time>
      </trkpt>
      <trkpt lat="43.60321" lon="2.96184">
        <ele>739.4</ele>
        <time>2026-05-07T12:30:02.000Z</time>
      </trkpt>
      <trkpt lat="43.60321" lon="2.96183">
        <ele>739.4</ele>
        <time>2026-05-07T12:30:03.000Z</time>
      </trkpt>
      <trkpt lat="43.6032" lon="2.96181">
        <ele>739.5</ele>
        <time>2026-05-07T12:30:04.000Z</time>
      </trkpt>
      <trkpt lat="43.60319" lon="2.96181">
        <ele>739.2</ele>
        <time>2026-05-07T12:30:05.000Z</time>
      </trkpt>
      <trkpt lat="43.60318" lon="2.9618">
        <ele>739.2</ele>
        <time>2026-05-07T12:30:06.000Z</time>
      </trkpt>
      <trkpt lat="43.60319" lon="2.96179">
        <ele>739.4</ele>
        <time>2026-05-07T12:30:07.000Z</time>
      </trkpt>
      <trkpt lat="43.60319" lon="2.96177">
        <ele>739.2</ele>
        <time>2026-05-07T12:30:08.000Z</time>
      </trkpt>
      <trkpt lat="43.60319" lon="2.96175">
        <ele>739.3</ele>
        <time>2026-05-07T12:30:09.000Z</time>
      </trkpt>
      <trkpt lat="43.60319" lon="2.96175">
        <ele>739.5</ele>
        <time>2026-05-07T12:30:10.000Z</time>
      </trkpt>
      <trkpt lat="43.60319" lon="2.96174">
        <ele>739.5</ele>
        <time>2026-05-07T12:30:11.000Z</time>
      </trkpt>
      <trkpt lat="43.60319" lon="2.96174">
        <ele>739.5</ele>
        <time>2026-05-07T12:30:12.000Z</time>
      </trkpt>
      <trkpt lat="43.60319" lon="2.96174">
        <ele>739.7</ele>
        <time>2026-05-07T12:30:13.000Z</time>
      </trkpt>
      <trkpt lat="43.60319" lon="2.96173">
        <ele>739.6</ele>
        <time>2026-05-07T12:30:14.000Z</time>
      </trkpt>
      <trkpt lat="43.60319" lon="2.96173">
        <ele>739.2</ele>
        <time>2026-05-07T12:30:15.000Z</time>
      </trkpt>
      <trkpt lat="43.60319" lon="2.96173">
        <ele>738.6</ele>
        <time>2026-05-07T12:30:16.000Z</time>
      </trkpt>
      <trkpt lat="43.60319" lon="2.96172">
        <ele>738.1</ele>
        <time>2026-05-07T12:30:17.000Z</time>
      </trkpt>
      <trkpt lat="43.60319" lon="2.96172">
        <ele>737.5</ele>
        <time>2026-05-07T12:30:18.000Z</time>
      </trkpt>
      <trkpt lat="43.60319" lon="2.96172">
        <ele>737.1</ele>
        <time>2026-05-07T12:30:19.000Z</time>
      </trkpt>
      <trkpt lat="43.60319" lon="2.96172">
        <ele>736.7</ele>
        <time>2026-05-07T12:30:20.000Z</time>
      </trkpt>
      <trkpt lat="43.60319" lon="2.96171">
        <ele>736.5</ele>
        <time>2026-05-07T12:30:21.000Z</time>
      </trkpt>
      <trkpt lat="43.60319" lon="2.96171">
        <ele>736.2</ele>
        <time>2026-05-07T12:30:22.000Z</time>
      </trkpt>
      <trkpt lat="43.60319" lon="2.9617">
        <ele>736</ele>
        <time>2026-05-07T12:30:23.000Z</time>
      </trkpt>
      <trkpt lat="43.6032" lon="2.9617">
        <ele>735.6</ele>
        <time>2026-05-07T12:30:24.000Z</time>
      </trkpt>
      <trkpt lat="43.6032" lon="2.96169">
        <ele>735.4</ele>
        <time>2026-05-07T12:30:25.000Z</time>
      </trkpt>
      <trkpt lat="43.6032" lon="2.96168">
        <ele>735</ele>
        <time>2026-05-07T12:30:26.000Z</time>
      </trkpt>
      <trkpt lat="43.6032" lon="2.96168">
        <ele>734.6</ele>
        <time>2026-05-07T12:30:27.000Z</time>
      </trkpt>
      <trkpt lat="43.6032" lon="2.96167">
        <ele>734.5</ele>
        <time>2026-05-07T12:30:28.000Z</time>
      </trkpt>
      <trkpt lat="43.6032" lon="2.96166">
        <ele>734.2</ele>
        <time>2026-05-07T12:30:29.000Z</time>
      </trkpt>
      <trkpt lat="43.6032" lon="2.96166">
        <ele>734</ele>
        <time>2026-05-07T12:30:30.000Z</time>
      </trkpt>
      <trkpt lat="43.6032" lon="2.96165">
        <ele>733.8</ele>
        <time>2026-05-07T12:30:31.000Z</time>
      </trkpt>
      <trkpt lat="43.6032" lon="2.96164">
        <ele>733.7</ele>
        <time>2026-05-07T12:30:32.000Z</time>
      </trkpt>
      <trkpt lat="43.6032" lon="2.96163">
        <ele>733.5</ele>
        <time>2026-05-07T12:30:33.000Z</time>
      </trkpt>
      <trkpt lat="43.6032" lon="2.96162">
        <ele>733.1</ele>
        <time>2026-05-07T12:30:34.000Z</time>
      </trkpt>
      <trkpt lat="43.6032" lon="2.96161">
        <ele>733.1</ele>
        <time>2026-05-07T12:30:35.000Z</time>
      </trkpt>
      <trkpt lat="43.6032" lon="2.96161">
        <ele>732.7</ele>
        <time>2026-05-07T12:30:36.000Z</time>
      </trkpt>
      <trkpt lat="43.60321" lon="2.96159">
        <ele>732.5</ele>
        <time>2026-05-07T12:30:37.000Z</time>
      </trkpt>
      <trkpt lat="43.60322" lon="2.96156">
        <ele>732.2</ele>
        <time>2026-05-07T12:30:38.000Z</time>
      </trkpt>
      <trkpt lat="43.60322" lon="2.96154">
        <ele>732.1</ele>
        <time>2026-05-07T12:30:39.000Z</time>
      </trkpt>
      <trkpt lat="43.60322" lon="2.96153">
        <ele>731.8</ele>
        <time>2026-05-07T12:30:40.000Z</time>
      </trkpt>
      <trkpt lat="43.60322" lon="2.96151">
        <ele>731.6</ele>
        <time>2026-05-07T12:30:41.000Z</time>
      </trkpt>
      <trkpt lat="43.60322" lon="2.9615">
        <ele>731.4</ele>
        <time>2026-05-07T12:30:42.000Z</time>
      </trkpt>
      <trkpt lat="43.60321" lon="2.96147">
        <ele>731.3</ele>
        <time>2026-05-07T12:30:43.000Z</time>
      </trkpt>
      <trkpt lat="43.60321" lon="2.96146">
        <ele>731.1</ele>
        <time>2026-05-07T12:30:44.000Z</time>
      </trkpt>
      <trkpt lat="43.60321" lon="2.96144">
        <ele>731.2</ele>
        <time>2026-05-07T12:30:45.000Z</time>
      </trkpt>
      <trkpt lat="43.6032" lon="2.96141">
        <ele>730.9</ele>
        <time>2026-05-07T12:30:46.000Z</time>
      </trkpt>
      <trkpt lat="43.60321" lon="2.96139">
        <ele>730.5</ele>
        <time>2026-05-07T12:30:47.000Z</time>
      </trkpt>
      <trkpt lat="43.60321" lon="2.96137">
        <ele>729.8</ele>
        <time>2026-05-07T12:30:48.000Z</time>
      </trkpt>
      <trkpt lat="43.6032" lon="2.96134">
        <ele>729.7</ele>
        <time>2026-05-07T12:30:49.000Z</time>
      </trkpt>
      <trkpt lat="43.6032" lon="2.96132">
        <ele>729.5</ele>
        <time>2026-05-07T12:30:50.000Z</time>
      </trkpt>
      <trkpt lat="43.6032" lon="2.96131">
        <ele>729.3</ele>
        <time>2026-05-07T12:30:51.000Z</time>
      </trkpt>
      <trkpt lat="43.60319" lon="2.96129">
        <ele>729.2</ele>
        <time>2026-05-07T12:30:52.000Z</time>
      </trkpt>
      <trkpt lat="43.60319" lon="2.96128">
        <ele>729.2</ele>
        <time>2026-05-07T12:30:53.000Z</time>
      </trkpt>
      <trkpt lat="43.60318" lon="2.96127">
        <ele>729.2</ele>
        <time>2026-05-07T12:30:54.000Z</time>
      </trkpt>
      <trkpt lat="43.60318" lon="2.96127">
        <ele>728.9</ele>
        <time>2026-05-07T12:30:55.000Z</time>
      </trkpt>
      <trkpt lat="43.60318" lon="2.96127">
        <ele>728.6</ele>
        <time>2026-05-07T12:30:56.000Z</time>
      </trkpt>
      <trkpt lat="43.60318" lon="2.96127">
        <ele>728.5</ele>
        <time>2026-05-07T12:30:57.000Z</time>
      </trkpt>
      <trkpt lat="43.60318" lon="2.96127">
        <ele>728.6</ele>
        <time>2026-05-07T12:30:58.000Z</time>
      </trkpt>
      <trkpt lat="43.60318" lon="2.96128">
        <ele>728</ele>
        <time>2026-05-07T12:30:59.000Z</time>
      </trkpt>
      <trkpt lat="43.60318" lon="2.96127">
        <ele>727.5</ele>
        <time>2026-05-07T12:31:00.000Z</time>
      </trkpt>
      <trkpt lat="43.60317" lon="2.96125">
        <ele>727</ele>
        <time>2026-05-07T12:31:01.000Z</time>
      </trkpt>
      <trkpt lat="43.60316" lon="2.96123">
        <ele>726.5</ele>
        <time>2026-05-07T12:31:02.000Z</time>
      </trkpt>
      <trkpt lat="43.60316" lon="2.9612">
        <ele>725.9</ele>
        <time>2026-05-07T12:31:03.000Z</time>
      </trkpt>
      <trkpt lat="43.60316" lon="2.96118">
        <ele>725.5</ele>
        <time>2026-05-07T12:31:04.000Z</time>
      </trkpt>
      <trkpt lat="43.60316" lon="2.96116">
        <ele>725.7</ele>
        <time>2026-05-07T12:31:05.000Z</time>
      </trkpt>
      <trkpt lat="43.60315" lon="2.96115">
        <ele>725.9</ele>
        <time>2026-05-07T12:31:06.000Z</time>
      </trkpt>
      <trkpt lat="43.60315" lon="2.96114">
        <ele>725.7</ele>
        <time>2026-05-07T12:31:07.000Z</time>
      </trkpt>
      <trkpt lat="43.60315" lon="2.96114">
        <ele>725.5</ele>
        <time>2026-05-07T12:31:08.000Z</time>
      </trkpt>
      <trkpt lat="43.60315" lon="2.96114">
        <ele>725.6</ele>
        <time>2026-05-07T12:31:09.000Z</time>
      </trkpt>
      <trkpt lat="43.60315" lon="2.96114">
        <ele>725.1</ele>
        <time>2026-05-07T12:31:10.000Z</time>
      </trkpt>
      <trkpt lat="43.60315" lon="2.96113">
        <ele>724.9</ele>
        <time>2026-05-07T12:31:11.000Z</time>
      </trkpt>
      <trkpt lat="43.60315" lon="2.96111">
        <ele>724.9</ele>
        <time>2026-05-07T12:31:12.000Z</time>
      </trkpt>
      <trkpt lat="43.60316" lon="2.96107">
        <ele>724.8</ele>
        <time>2026-05-07T12:31:13.000Z</time>
      </trkpt>
      <trkpt lat="43.60317" lon="2.96105">
        <ele>724.7</ele>
        <time>2026-05-07T12:31:14.000Z</time>
      </trkpt>
      <trkpt lat="43.60317" lon="2.96105">
        <ele>724.4</ele>
        <time>2026-05-07T12:31:15.000Z</time>
      </trkpt>
      <trkpt lat="43.60317" lon="2.96105">
        <ele>724.2</ele>
        <time>2026-05-07T12:31:16.000Z</time>
      </trkpt>
      <trkpt lat="43.60317" lon="2.96104">
        <ele>724</ele>
        <time>2026-05-07T12:31:17.000Z</time>
      </trkpt>
      <trkpt lat="43.60317" lon="2.96102">
        <ele>723.7</ele>
        <time>2026-05-07T12:31:18.000Z</time>
      </trkpt>
      <trkpt lat="43.60318" lon="2.961">
        <ele>723.3</ele>
        <time>2026-05-07T12:31:19.000Z</time>
      </trkpt>
      <trkpt lat="43.60318" lon="2.96099">
        <ele>722.8</ele>
        <time>2026-05-07T12:31:20.000Z</time>
      </trkpt>
      <trkpt lat="43.60318" lon="2.96099">
        <ele>722.5</ele>
        <time>2026-05-07T12:31:21.000Z</time>
      </trkpt>
      <trkpt lat="43.60318" lon="2.96098">
        <ele>722.3</ele>
        <time>2026-05-07T12:31:22.000Z</time>
      </trkpt>
      <trkpt lat="43.60318" lon="2.96097">
        <ele>722.3</ele>
        <time>2026-05-07T12:31:23.000Z</time>
      </trkpt>
      <trkpt lat="43.60319" lon="2.96096">
        <ele>722.2</ele>
        <time>2026-05-07T12:31:24.000Z</time>
      </trkpt>
      <trkpt lat="43.60319" lon="2.96095">
        <ele>721.8</ele>
        <time>2026-05-07T12:31:25.000Z</time>
      </trkpt>
      <trkpt lat="43.60319" lon="2.96094">
        <ele>721.4</ele>
        <time>2026-05-07T12:31:26.000Z</time>
      </trkpt>
      <trkpt lat="43.60319" lon="2.96093">
        <ele>720.9</ele>
        <time>2026-05-07T12:31:27.000Z</time>
      </trkpt>
      <trkpt lat="43.60318" lon="2.96092">
        <ele>720.4</ele>
        <time>2026-05-07T12:31:28.000Z</time>
      </trkpt>
      <trkpt lat="43.60318" lon="2.96091">
        <ele>720</ele>
        <time>2026-05-07T12:31:29.000Z</time>
      </trkpt>
      <trkpt lat="43.60317" lon="2.9609">
        <ele>719.5</ele>
        <time>2026-05-07T12:31:30.000Z</time>
      </trkpt>
      <trkpt lat="43.60317" lon="2.96089">
        <ele>719.1</ele>
        <time>2026-05-07T12:31:31.000Z</time>
      </trkpt>
      <trkpt lat="43.60317" lon="2.96087">
        <ele>718.8</ele>
        <time>2026-05-07T12:31:32.000Z</time>
      </trkpt>
      <trkpt lat="43.60316" lon="2.96085">
        <ele>717.9</ele>
        <time>2026-05-07T12:31:33.000Z</time>
      </trkpt>
      <trkpt lat="43.60316" lon="2.96085">
        <ele>717.9</ele>
        <time>2026-05-07T12:31:34.000Z</time>
      </trkpt>
      <trkpt lat="43.60315" lon="2.96083">
        <ele>717.3</ele>
        <time>2026-05-07T12:31:35.000Z</time>
      </trkpt>
      <trkpt lat="43.60315" lon="2.9608">
        <ele>716.6</ele>
        <time>2026-05-07T12:31:36.000Z</time>
      </trkpt>
      <trkpt lat="43.60314" lon="2.96079">
        <ele>716.2</ele>
        <time>2026-05-07T12:31:37.000Z</time>
      </trkpt>
      <trkpt lat="43.60315" lon="2.96078">
        <ele>715.8</ele>
        <time>2026-05-07T12:31:38.000Z</time>
      </trkpt>
      <trkpt lat="43.60314" lon="2.96077">
        <ele>715.5</ele>
        <time>2026-05-07T12:31:39.000Z</time>
      </trkpt>
      <trkpt lat="43.60313" lon="2.96076">
        <ele>715.7</ele>
        <time>2026-05-07T12:31:40.000Z</time>
      </trkpt>
      <trkpt lat="43.60312" lon="2.96075">
        <ele>715.4</ele>
        <time>2026-05-07T12:31:41.000Z</time>
      </trkpt>
      <trkpt lat="43.60312" lon="2.96075">
        <ele>715.2</ele>
        <time>2026-05-07T12:31:42.000Z</time>
      </trkpt>
      <trkpt lat="43.60311" lon="2.96074">
        <ele>714.9</ele>
        <time>2026-05-07T12:31:43.000Z</time>
      </trkpt>
      <trkpt lat="43.6031" lon="2.96073">
        <ele>715.1</ele>
        <time>2026-05-07T12:31:44.000Z</time>
      </trkpt>
      <trkpt lat="43.60309" lon="2.96072">
        <ele>715.2</ele>
        <time>2026-05-07T12:31:45.000Z</time>
      </trkpt>
      <trkpt lat="43.60308" lon="2.9607">
        <ele>715.1</ele>
        <time>2026-05-07T12:31:46.000Z</time>
      </trkpt>
      <trkpt lat="43.60307" lon="2.96069">
        <ele>714.6</ele>
        <time>2026-05-07T12:31:47.000Z</time>
      </trkpt>
      <trkpt lat="43.60307" lon="2.96067">
        <ele>714.4</ele>
        <time>2026-05-07T12:31:48.000Z</time>
      </trkpt>
      <trkpt lat="43.60305" lon="2.96065">
        <ele>713.7</ele>
        <time>2026-05-07T12:31:49.000Z</time>
      </trkpt>
      <trkpt lat="43.60304" lon="2.96064">
        <ele>712.9</ele>
        <time>2026-05-07T12:31:50.000Z</time>
      </trkpt>
      <trkpt lat="43.60304" lon="2.96063">
        <ele>713.1</ele>
        <time>2026-05-07T12:31:51.000Z</time>
      </trkpt>
      <trkpt lat="43.60304" lon="2.96063">
        <ele>712.6</ele>
        <time>2026-05-07T12:31:52.000Z</time>
      </trkpt>
      <trkpt lat="43.60304" lon="2.96062">
        <ele>711.9</ele>
        <time>2026-05-07T12:31:53.000Z</time>
      </trkpt>
      <trkpt lat="43.60303" lon="2.96062">
        <ele>711.4</ele>
        <time>2026-05-07T12:31:54.000Z</time>
      </trkpt>
      <trkpt lat="43.60303" lon="2.96062">
        <ele>710.9</ele>
        <time>2026-05-07T12:31:55.000Z</time>
      </trkpt>
      <trkpt lat="43.60303" lon="2.96061">
        <ele>710.4</ele>
        <time>2026-05-07T12:31:56.000Z</time>
      </trkpt>
      <trkpt lat="43.60303" lon="2.96061">
        <ele>709.9</ele>
        <time>2026-05-07T12:31:57.000Z</time>
      </trkpt>
      <trkpt lat="43.60303" lon="2.9606">
        <ele>709.5</ele>
        <time>2026-05-07T12:31:58.000Z</time>
      </trkpt>
      <trkpt lat="43.60303" lon="2.9606">
        <ele>709.1</ele>
        <time>2026-05-07T12:31:59.000Z</time>
      </trkpt>
      <trkpt lat="43.60303" lon="2.96057">
        <ele>708.7</ele>
        <time>2026-05-07T12:32:00.000Z</time>
      </trkpt>
      <trkpt lat="43.60302" lon="2.96055">
        <ele>708.8</ele>
        <time>2026-05-07T12:32:01.000Z</time>
      </trkpt>
      <trkpt lat="43.60303" lon="2.96053">
        <ele>708.6</ele>
        <time>2026-05-07T12:32:02.000Z</time>
      </trkpt>
      <trkpt lat="43.60302" lon="2.96051">
        <ele>708.4</ele>
        <time>2026-05-07T12:32:03.000Z</time>
      </trkpt>
      <trkpt lat="43.60302" lon="2.96049">
        <ele>708.4</ele>
        <time>2026-05-07T12:32:04.000Z</time>
      </trkpt>
      <trkpt lat="43.60301" lon="2.96047">
        <ele>708.3</ele>
        <time>2026-05-07T12:32:05.000Z</time>
      </trkpt>
      <trkpt lat="43.60299" lon="2.96045">
        <ele>708.3</ele>
        <time>2026-05-07T12:32:06.000Z</time>
      </trkpt>
      <trkpt lat="43.60298" lon="2.96043">
        <ele>708.5</ele>
        <time>2026-05-07T12:32:07.000Z</time>
      </trkpt>
      <trkpt lat="43.60297" lon="2.96042">
        <ele>708.1</ele>
        <time>2026-05-07T12:32:08.000Z</time>
      </trkpt>
      <trkpt lat="43.60296" lon="2.9604">
        <ele>708.1</ele>
        <time>2026-05-07T12:32:09.000Z</time>
      </trkpt>
      <trkpt lat="43.60296" lon="2.96039">
        <ele>708.1</ele>
        <time>2026-05-07T12:32:10.000Z</time>
      </trkpt>
      <trkpt lat="43.60295" lon="2.96038">
        <ele>708</ele>
        <time>2026-05-07T12:32:11.000Z</time>
      </trkpt>
      <trkpt lat="43.60295" lon="2.96037">
        <ele>708.1</ele>
        <time>2026-05-07T12:32:12.000Z</time>
      </trkpt>
      <trkpt lat="43.60294" lon="2.96036">
        <ele>708.1</ele>
        <time>2026-05-07T12:32:13.000Z</time>
      </trkpt>
      <trkpt lat="43.60294" lon="2.96037">
        <ele>708.1</ele>
        <time>2026-05-07T12:32:14.000Z</time>
      </trkpt>
      <trkpt lat="43.60294" lon="2.96036">
        <ele>707.9</ele>
        <time>2026-05-07T12:32:15.000Z</time>
      </trkpt>
      <trkpt lat="43.60294" lon="2.96034">
        <ele>707.7</ele>
        <time>2026-05-07T12:32:16.000Z</time>
      </trkpt>
      <trkpt lat="43.60294" lon="2.96032">
        <ele>707.1</ele>
        <time>2026-05-07T12:32:17.000Z</time>
      </trkpt>
      <trkpt lat="43.60295" lon="2.9603">
        <ele>707.1</ele>
        <time>2026-05-07T12:32:18.000Z</time>
      </trkpt>
      <trkpt lat="43.60295" lon="2.96026">
        <ele>707.4</ele>
        <time>2026-05-07T12:32:20.000Z</time>
      </trkpt>
      <trkpt lat="43.60294" lon="2.96024">
        <ele>707.3</ele>
        <time>2026-05-07T12:32:21.000Z</time>
      </trkpt>
      <trkpt lat="43.60293" lon="2.96022">
        <ele>707</ele>
        <time>2026-05-07T12:32:22.000Z</time>
      </trkpt>
      <trkpt lat="43.60292" lon="2.96019">
        <ele>706.7</ele>
        <time>2026-05-07T12:32:23.000Z</time>
      </trkpt>
      <trkpt lat="43.60291" lon="2.96019">
        <ele>706.1</ele>
        <time>2026-05-07T12:32:24.000Z</time>
      </trkpt>
      <trkpt lat="43.6029" lon="2.9602">
        <ele>705.7</ele>
        <time>2026-05-07T12:32:25.000Z</time>
      </trkpt>
      <trkpt lat="43.6029" lon="2.96019">
        <ele>705.4</ele>
        <time>2026-05-07T12:32:26.000Z</time>
      </trkpt>
      <trkpt lat="43.60289" lon="2.96018">
        <ele>704.2</ele>
        <time>2026-05-07T12:32:27.000Z</time>
      </trkpt>
      <trkpt lat="43.60289" lon="2.96017">
        <ele>703.7</ele>
        <time>2026-05-07T12:32:28.000Z</time>
      </trkpt>
      <trkpt lat="43.60289" lon="2.96017">
        <ele>703.5</ele>
        <time>2026-05-07T12:32:29.000Z</time>
      </trkpt>
      <trkpt lat="43.60289" lon="2.96016">
        <ele>703.6</ele>
        <time>2026-05-07T12:32:30.000Z</time>
      </trkpt>
      <trkpt lat="43.60289" lon="2.96016">
        <ele>703.3</ele>
        <time>2026-05-07T12:32:31.000Z</time>
      </trkpt>
      <trkpt lat="43.60288" lon="2.96016">
        <ele>702.2</ele>
        <time>2026-05-07T12:32:32.000Z</time>
      </trkpt>
      <trkpt lat="43.60287" lon="2.96016">
        <ele>702</ele>
        <time>2026-05-07T12:32:33.000Z</time>
      </trkpt>
      <trkpt lat="43.60286" lon="2.96015">
        <ele>701.8</ele>
        <time>2026-05-07T12:32:34.000Z</time>
      </trkpt>
      <trkpt lat="43.60285" lon="2.96014">
        <ele>701.4</ele>
        <time>2026-05-07T12:32:35.000Z</time>
      </trkpt>
      <trkpt lat="43.60284" lon="2.96013">
        <ele>701</ele>
        <time>2026-05-07T12:32:36.000Z</time>
      </trkpt>
      <trkpt lat="43.60284" lon="2.96011">
        <ele>701</ele>
        <time>2026-05-07T12:32:37.000Z</time>
      </trkpt>
      <trkpt lat="43.60284" lon="2.9601">
        <ele>700.7</ele>
        <time>2026-05-07T12:32:38.000Z</time>
      </trkpt>
      <trkpt lat="43.60284" lon="2.9601">
        <ele>699.8</ele>
        <time>2026-05-07T12:32:39.000Z</time>
      </trkpt>
      <trkpt lat="43.60284" lon="2.96009">
        <ele>699.1</ele>
        <time>2026-05-07T12:32:40.000Z</time>
      </trkpt>
      <trkpt lat="43.60285" lon="2.96008">
        <ele>698.7</ele>
        <time>2026-05-07T12:32:41.000Z</time>
      </trkpt>
      <trkpt lat="43.60285" lon="2.96007">
        <ele>698.5</ele>
        <time>2026-05-07T12:32:42.000Z</time>
      </trkpt>
      <trkpt lat="43.60285" lon="2.96005">
        <ele>698.4</ele>
        <time>2026-05-07T12:32:43.000Z</time>
      </trkpt>
      <trkpt lat="43.60285" lon="2.96004">
        <ele>698.5</ele>
        <time>2026-05-07T12:32:44.000Z</time>
      </trkpt>
      <trkpt lat="43.60285" lon="2.96004">
        <ele>699.2</ele>
        <time>2026-05-07T12:32:45.000Z</time>
      </trkpt>
      <trkpt lat="43.60285" lon="2.96003">
        <ele>698.9</ele>
        <time>2026-05-07T12:32:46.000Z</time>
      </trkpt>
      <trkpt lat="43.60285" lon="2.96002">
        <ele>698.3</ele>
        <time>2026-05-07T12:32:47.000Z</time>
      </trkpt>
      <trkpt lat="43.60285" lon="2.96002">
        <ele>697.9</ele>
        <time>2026-05-07T12:32:48.000Z</time>
      </trkpt>
      <trkpt lat="43.60284" lon="2.96001">
        <ele>697.3</ele>
        <time>2026-05-07T12:32:49.000Z</time>
      </trkpt>
      <trkpt lat="43.60284" lon="2.96">
        <ele>697</ele>
        <time>2026-05-07T12:32:50.000Z</time>
      </trkpt>
      <trkpt lat="43.60284" lon="2.95999">
        <ele>696.8</ele>
        <time>2026-05-07T12:32:51.000Z</time>
      </trkpt>
      <trkpt lat="43.60284" lon="2.95999">
        <ele>696.7</ele>
        <time>2026-05-07T12:32:52.000Z</time>
      </trkpt>
      <trkpt lat="43.60285" lon="2.95997">
        <ele>696.6</ele>
        <time>2026-05-07T12:32:53.000Z</time>
      </trkpt>
      <trkpt lat="43.60285" lon="2.95996">
        <ele>696.7</ele>
        <time>2026-05-07T12:32:54.000Z</time>
      </trkpt>
      <trkpt lat="43.60285" lon="2.95996">
        <ele>696.8</ele>
        <time>2026-05-07T12:32:55.000Z</time>
      </trkpt>
      <trkpt lat="43.60285" lon="2.95995">
        <ele>696.3</ele>
        <time>2026-05-07T12:32:56.000Z</time>
      </trkpt>
      <trkpt lat="43.60285" lon="2.95993">
        <ele>695.9</ele>
        <time>2026-05-07T12:32:57.000Z</time>
      </trkpt>
      <trkpt lat="43.60284" lon="2.95992">
        <ele>695.5</ele>
        <time>2026-05-07T12:32:58.000Z</time>
      </trkpt>
      <trkpt lat="43.60284" lon="2.95991">
        <ele>695.3</ele>
        <time>2026-05-07T12:32:59.000Z</time>
      </trkpt>
      <trkpt lat="43.60284" lon="2.95991">
        <ele>695.1</ele>
        <time>2026-05-07T12:33:00.000Z</time>
      </trkpt>
      <trkpt lat="43.60284" lon="2.9599">
        <ele>695.1</ele>
        <time>2026-05-07T12:33:01.000Z</time>
      </trkpt>
      <trkpt lat="43.60284" lon="2.95989">
        <ele>695.1</ele>
        <time>2026-05-07T12:33:02.000Z</time>
      </trkpt>
      <trkpt lat="43.60283" lon="2.95989">
        <ele>695.1</ele>
        <time>2026-05-07T12:33:03.000Z</time>
      </trkpt>
      <trkpt lat="43.60283" lon="2.95988">
        <ele>695</ele>
        <time>2026-05-07T12:33:04.000Z</time>
      </trkpt>
      <trkpt lat="43.60282" lon="2.95987">
        <ele>694.5</ele>
        <time>2026-05-07T12:33:05.000Z</time>
      </trkpt>
      <trkpt lat="43.60281" lon="2.95986">
        <ele>694.1</ele>
        <time>2026-05-07T12:33:06.000Z</time>
      </trkpt>
      <trkpt lat="43.60281" lon="2.95986">
        <ele>694.2</ele>
        <time>2026-05-07T12:33:07.000Z</time>
      </trkpt>
      <trkpt lat="43.60281" lon="2.95985">
        <ele>694</ele>
        <time>2026-05-07T12:33:08.000Z</time>
      </trkpt>
      <trkpt lat="43.60281" lon="2.95985">
        <ele>693.9</ele>
        <time>2026-05-07T12:33:09.000Z</time>
      </trkpt>
      <trkpt lat="43.60281" lon="2.95986">
        <ele>693.9</ele>
        <time>2026-05-07T12:33:10.000Z</time>
      </trkpt>
      <trkpt lat="43.60281" lon="2.95985">
        <ele>693.6</ele>
        <time>2026-05-07T12:33:11.000Z</time>
      </trkpt>
      <trkpt lat="43.6028" lon="2.95985">
        <ele>693.6</ele>
        <time>2026-05-07T12:33:12.000Z</time>
      </trkpt>
      <trkpt lat="43.60278" lon="2.95984">
        <ele>693.5</ele>
        <time>2026-05-07T12:33:13.000Z</time>
      </trkpt>
      <trkpt lat="43.60277" lon="2.95984">
        <ele>693.3</ele>
        <time>2026-05-07T12:33:14.000Z</time>
      </trkpt>
      <trkpt lat="43.60276" lon="2.95984">
        <ele>693.1</ele>
        <time>2026-05-07T12:33:15.000Z</time>
      </trkpt>
      <trkpt lat="43.60275" lon="2.95983">
        <ele>692.8</ele>
        <time>2026-05-07T12:33:16.000Z</time>
      </trkpt>
      <trkpt lat="43.60275" lon="2.95981">
        <ele>692.3</ele>
        <time>2026-05-07T12:33:17.000Z</time>
      </trkpt>
      <trkpt lat="43.60275" lon="2.9598">
        <ele>691.8</ele>
        <time>2026-05-07T12:33:18.000Z</time>
      </trkpt>
      <trkpt lat="43.60274" lon="2.95979">
        <ele>691.7</ele>
        <time>2026-05-07T12:33:19.000Z</time>
      </trkpt>
      <trkpt lat="43.60273" lon="2.95977">
        <ele>691.7</ele>
        <time>2026-05-07T12:33:20.000Z</time>
      </trkpt>
      <trkpt lat="43.60273" lon="2.95975">
        <ele>691.7</ele>
        <time>2026-05-07T12:33:21.000Z</time>
      </trkpt>
      <trkpt lat="43.60272" lon="2.95974">
        <ele>691.5</ele>
        <time>2026-05-07T12:33:22.000Z</time>
      </trkpt>
      <trkpt lat="43.60271" lon="2.95974">
        <ele>691.3</ele>
        <time>2026-05-07T12:33:23.000Z</time>
      </trkpt>
      <trkpt lat="43.6027" lon="2.95972">
        <ele>691</ele>
        <time>2026-05-07T12:33:24.000Z</time>
      </trkpt>
      <trkpt lat="43.60269" lon="2.95972">
        <ele>690.7</ele>
        <time>2026-05-07T12:33:25.000Z</time>
      </trkpt>
      <trkpt lat="43.60268" lon="2.9597">
        <ele>690.1</ele>
        <time>2026-05-07T12:33:26.000Z</time>
      </trkpt>
      <trkpt lat="43.60268" lon="2.95969">
        <ele>689.8</ele>
        <time>2026-05-07T12:33:27.000Z</time>
      </trkpt>
      <trkpt lat="43.60269" lon="2.95968">
        <ele>689.3</ele>
        <time>2026-05-07T12:33:28.000Z</time>
      </trkpt>
      <trkpt lat="43.60269" lon="2.95966">
        <ele>689.8</ele>
        <time>2026-05-07T12:33:29.000Z</time>
      </trkpt>
      <trkpt lat="43.60269" lon="2.95965">
        <ele>690.3</ele>
        <time>2026-05-07T12:33:30.000Z</time>
      </trkpt>
      <trkpt lat="43.60268" lon="2.95964">
        <ele>690.3</ele>
        <time>2026-05-07T12:33:31.000Z</time>
      </trkpt>
      <trkpt lat="43.60267" lon="2.95964">
        <ele>690.4</ele>
        <time>2026-05-07T12:33:32.000Z</time>
      </trkpt>
      <trkpt lat="43.60266" lon="2.95963">
        <ele>690.7</ele>
        <time>2026-05-07T12:33:33.000Z</time>
      </trkpt>
      <trkpt lat="43.60265" lon="2.95962">
        <ele>690.7</ele>
        <time>2026-05-07T12:33:34.000Z</time>
      </trkpt>
      <trkpt lat="43.60265" lon="2.95962">
        <ele>690.9</ele>
        <time>2026-05-07T12:33:35.000Z</time>
      </trkpt>
      <trkpt lat="43.60264" lon="2.95961">
        <ele>691.1</ele>
        <time>2026-05-07T12:33:36.000Z</time>
      </trkpt>
      <trkpt lat="43.60263" lon="2.95961">
        <ele>691.1</ele>
        <time>2026-05-07T12:33:37.000Z</time>
      </trkpt>
      <trkpt lat="43.60262" lon="2.95961">
        <ele>690.9</ele>
        <time>2026-05-07T12:33:38.000Z</time>
      </trkpt>
      <trkpt lat="43.60261" lon="2.95959">
        <ele>690.6</ele>
        <time>2026-05-07T12:33:39.000Z</time>
      </trkpt>
      <trkpt lat="43.6026" lon="2.95957">
        <ele>690</ele>
        <time>2026-05-07T12:33:40.000Z</time>
      </trkpt>
      <trkpt lat="43.6026" lon="2.95956">
        <ele>689.8</ele>
        <time>2026-05-07T12:33:41.000Z</time>
      </trkpt>
      <trkpt lat="43.6026" lon="2.95954">
        <ele>689.9</ele>
        <time>2026-05-07T12:33:42.000Z</time>
      </trkpt>
      <trkpt lat="43.6026" lon="2.95953">
        <ele>690.2</ele>
        <time>2026-05-07T12:33:43.000Z</time>
      </trkpt>
      <trkpt lat="43.6026" lon="2.95953">
        <ele>691.2</ele>
        <time>2026-05-07T12:33:44.000Z</time>
      </trkpt>
      <trkpt lat="43.6026" lon="2.95953">
        <ele>690.7</ele>
        <time>2026-05-07T12:33:45.000Z</time>
      </trkpt>
      <trkpt lat="43.6026" lon="2.95953">
        <ele>690.7</ele>
        <time>2026-05-07T12:33:46.000Z</time>
      </trkpt>
      <trkpt lat="43.6026" lon="2.95952">
        <ele>690.5</ele>
        <time>2026-05-07T12:33:47.000Z</time>
      </trkpt>
      <trkpt lat="43.6026" lon="2.95952">
        <ele>690</ele>
        <time>2026-05-07T12:33:48.000Z</time>
      </trkpt>
      <trkpt lat="43.6026" lon="2.95951">
        <ele>689.7</ele>
        <time>2026-05-07T12:33:49.000Z</time>
      </trkpt>
      <trkpt lat="43.6026" lon="2.95951">
        <ele>689.5</ele>
        <time>2026-05-07T12:33:50.000Z</time>
      </trkpt>
      <trkpt lat="43.6026" lon="2.95951">
        <ele>689.6</ele>
        <time>2026-05-07T12:33:51.000Z</time>
      </trkpt>
      <trkpt lat="43.6026" lon="2.95951">
        <ele>689.4</ele>
        <time>2026-05-07T12:33:52.000Z</time>
      </trkpt>
      <trkpt lat="43.6026" lon="2.9595">
        <ele>689.3</ele>
        <time>2026-05-07T12:33:53.000Z</time>
      </trkpt>
      <trkpt lat="43.60259" lon="2.95949">
        <ele>689.1</ele>
        <time>2026-05-07T12:33:54.000Z</time>
      </trkpt>
      <trkpt lat="43.60259" lon="2.95948">
        <ele>688.5</ele>
        <time>2026-05-07T12:33:55.000Z</time>
      </trkpt>
      <trkpt lat="43.60258" lon="2.95946">
        <ele>688</ele>
        <time>2026-05-07T12:33:56.000Z</time>
      </trkpt>
      <trkpt lat="43.60257" lon="2.95945">
        <ele>687.9</ele>
        <time>2026-05-07T12:33:57.000Z</time>
      </trkpt>
      <trkpt lat="43.60257" lon="2.95945">
        <ele>687.8</ele>
        <time>2026-05-07T12:33:58.000Z</time>
      </trkpt>
      <trkpt lat="43.60256" lon="2.95943">
        <ele>687.4</ele>
        <time>2026-05-07T12:33:59.000Z</time>
      </trkpt>
      <trkpt lat="43.60255" lon="2.95942">
        <ele>687</ele>
        <time>2026-05-07T12:34:00.000Z</time>
      </trkpt>
      <trkpt lat="43.60253" lon="2.95941">
        <ele>686.4</ele>
        <time>2026-05-07T12:34:01.000Z</time>
      </trkpt>
      <trkpt lat="43.60252" lon="2.9594">
        <ele>685.9</ele>
        <time>2026-05-07T12:34:02.000Z</time>
      </trkpt>
      <trkpt lat="43.60251" lon="2.95939">
        <ele>685.6</ele>
        <time>2026-05-07T12:34:03.000Z</time>
      </trkpt>
      <trkpt lat="43.6025" lon="2.95937">
        <ele>685.3</ele>
        <time>2026-05-07T12:34:04.000Z</time>
      </trkpt>
      <trkpt lat="43.60249" lon="2.95936">
        <ele>685.3</ele>
        <time>2026-05-07T12:34:05.000Z</time>
      </trkpt>
      <trkpt lat="43.60248" lon="2.95936">
        <ele>685.3</ele>
        <time>2026-05-07T12:34:06.000Z</time>
      </trkpt>
      <trkpt lat="43.60248" lon="2.95935">
        <ele>685</ele>
        <time>2026-05-07T12:34:07.000Z</time>
      </trkpt>
      <trkpt lat="43.60247" lon="2.95935">
        <ele>685.9</ele>
        <time>2026-05-07T12:34:08.000Z</time>
      </trkpt>
      <trkpt lat="43.60247" lon="2.95935">
        <ele>685.8</ele>
        <time>2026-05-07T12:34:09.000Z</time>
      </trkpt>
      <trkpt lat="43.60247" lon="2.95935">
        <ele>685.7</ele>
        <time>2026-05-07T12:34:10.000Z</time>
      </trkpt>
      <trkpt lat="43.60248" lon="2.95934">
        <ele>685.6</ele>
        <time>2026-05-07T12:34:11.000Z</time>
      </trkpt>
      <trkpt lat="43.60248" lon="2.95933">
        <ele>685.2</ele>
        <time>2026-05-07T12:34:12.000Z</time>
      </trkpt>
      <trkpt lat="43.60247" lon="2.95932">
        <ele>685.1</ele>
        <time>2026-05-07T12:34:13.000Z</time>
      </trkpt>
      <trkpt lat="43.60247" lon="2.95932">
        <ele>684.9</ele>
        <time>2026-05-07T12:34:14.000Z</time>
      </trkpt>
      <trkpt lat="43.60248" lon="2.95932">
        <ele>684.6</ele>
        <time>2026-05-07T12:34:15.000Z</time>
      </trkpt>
      <trkpt lat="43.60247" lon="2.95932">
        <ele>684.4</ele>
        <time>2026-05-07T12:34:16.000Z</time>
      </trkpt>
      <trkpt lat="43.60246" lon="2.95931">
        <ele>684.1</ele>
        <time>2026-05-07T12:34:17.000Z</time>
      </trkpt>
      <trkpt lat="43.60245" lon="2.95931">
        <ele>684.1</ele>
        <time>2026-05-07T12:34:18.000Z</time>
      </trkpt>
      <trkpt lat="43.60243" lon="2.95931">
        <ele>684.1</ele>
        <time>2026-05-07T12:34:19.000Z</time>
      </trkpt>
      <trkpt lat="43.60243" lon="2.95932">
        <ele>684.1</ele>
        <time>2026-05-07T12:34:20.000Z</time>
      </trkpt>
      <trkpt lat="43.60243" lon="2.95931">
        <ele>683.8</ele>
        <time>2026-05-07T12:34:21.000Z</time>
      </trkpt>
      <trkpt lat="43.60243" lon="2.95929">
        <ele>683.7</ele>
        <time>2026-05-07T12:34:22.000Z</time>
      </trkpt>
      <trkpt lat="43.60243" lon="2.95928">
        <ele>683.8</ele>
        <time>2026-05-07T12:34:23.000Z</time>
      </trkpt>
      <trkpt lat="43.60242" lon="2.95928">
        <ele>683.8</ele>
        <time>2026-05-07T12:34:24.000Z</time>
      </trkpt>
      <trkpt lat="43.60242" lon="2.95927">
        <ele>684.8</ele>
        <time>2026-05-07T12:34:25.000Z</time>
      </trkpt>
      <trkpt lat="43.60241" lon="2.95927">
        <ele>685</ele>
        <time>2026-05-07T12:34:26.000Z</time>
      </trkpt>
      <trkpt lat="43.6024" lon="2.95925">
        <ele>685.1</ele>
        <time>2026-05-07T12:34:27.000Z</time>
      </trkpt>
      <trkpt lat="43.6024" lon="2.95924">
        <ele>684.9</ele>
        <time>2026-05-07T12:34:28.000Z</time>
      </trkpt>
      <trkpt lat="43.60239" lon="2.95923">
        <ele>684.7</ele>
        <time>2026-05-07T12:34:29.000Z</time>
      </trkpt>
      <trkpt lat="43.60239" lon="2.95921">
        <ele>684.5</ele>
        <time>2026-05-07T12:34:30.000Z</time>
      </trkpt>
      <trkpt lat="43.60238" lon="2.9592">
        <ele>684.7</ele>
        <time>2026-05-07T12:34:31.000Z</time>
      </trkpt>
      <trkpt lat="43.60238" lon="2.95918">
        <ele>684.7</ele>
        <time>2026-05-07T12:34:32.000Z</time>
      </trkpt>
      <trkpt lat="43.60237" lon="2.95916">
        <ele>685</ele>
        <time>2026-05-07T12:34:33.000Z</time>
      </trkpt>
      <trkpt lat="43.60236" lon="2.95914">
        <ele>685.5</ele>
        <time>2026-05-07T12:34:34.000Z</time>
      </trkpt>
      <trkpt lat="43.60235" lon="2.95914">
        <ele>685.4</ele>
        <time>2026-05-07T12:34:35.000Z</time>
      </trkpt>
      <trkpt lat="43.60234" lon="2.95913">
        <ele>685.1</ele>
        <time>2026-05-07T12:34:36.000Z</time>
      </trkpt>
      <trkpt lat="43.60233" lon="2.95913">
        <ele>684.6</ele>
        <time>2026-05-07T12:34:37.000Z</time>
      </trkpt>
      <trkpt lat="43.60232" lon="2.95913">
        <ele>684.6</ele>
        <time>2026-05-07T12:34:38.000Z</time>
      </trkpt>
      <trkpt lat="43.60231" lon="2.95913">
        <ele>684.3</ele>
        <time>2026-05-07T12:34:39.000Z</time>
      </trkpt>
      <trkpt lat="43.6023" lon="2.95912">
        <ele>684</ele>
        <time>2026-05-07T12:34:40.000Z</time>
      </trkpt>
      <trkpt lat="43.60229" lon="2.95912">
        <ele>683.5</ele>
        <time>2026-05-07T12:34:41.000Z</time>
      </trkpt>
      <trkpt lat="43.60228" lon="2.9591">
        <ele>683.2</ele>
        <time>2026-05-07T12:34:42.999Z</time>
      </trkpt>
      <trkpt lat="43.60229" lon="2.95909">
        <ele>683.5</ele>
        <time>2026-05-07T12:34:43.999Z</time>
      </trkpt>
      <trkpt lat="43.60228" lon="2.95909">
        <ele>684</ele>
        <time>2026-05-07T12:34:44.999Z</time>
      </trkpt>
      <trkpt lat="43.60228" lon="2.95909">
        <ele>684.4</ele>
        <time>2026-05-07T12:34:45.999Z</time>
      </trkpt>
      <trkpt lat="43.60227" lon="2.95909">
        <ele>684.2</ele>
        <time>2026-05-07T12:34:46.999Z</time>
      </trkpt>
      <trkpt lat="43.60226" lon="2.95908">
        <ele>684.1</ele>
        <time>2026-05-07T12:34:47.999Z</time>
      </trkpt>
      <trkpt lat="43.60226" lon="2.95909">
        <ele>683.7</ele>
        <time>2026-05-07T12:34:48.999Z</time>
      </trkpt>
      <trkpt lat="43.60226" lon="2.95909">
        <ele>683.5</ele>
        <time>2026-05-07T12:34:49.999Z</time>
      </trkpt>
      <trkpt lat="43.60226" lon="2.95909">
        <ele>683.2</ele>
        <time>2026-05-07T12:34:50.999Z</time>
      </trkpt>
      <trkpt lat="43.60225" lon="2.95908">
        <ele>682.5</ele>
        <time>2026-05-07T12:34:51.999Z</time>
      </trkpt>
      <trkpt lat="43.60225" lon="2.95907">
        <ele>682.5</ele>
        <time>2026-05-07T12:34:52.999Z</time>
      </trkpt>
      <trkpt lat="43.60224" lon="2.95907">
        <ele>681.8</ele>
        <time>2026-05-07T12:34:53.999Z</time>
      </trkpt>
      <trkpt lat="43.60223" lon="2.95906">
        <ele>681.4</ele>
        <time>2026-05-07T12:34:54.999Z</time>
      </trkpt>
      <trkpt lat="43.60221" lon="2.95906">
        <ele>681.3</ele>
        <time>2026-05-07T12:34:55.999Z</time>
      </trkpt>
      <trkpt lat="43.6022" lon="2.95905">
        <ele>681.1</ele>
        <time>2026-05-07T12:34:56.999Z</time>
      </trkpt>
      <trkpt lat="43.60219" lon="2.95904">
        <ele>680.9</ele>
        <time>2026-05-07T12:34:57.999Z</time>
      </trkpt>
      <trkpt lat="43.60217" lon="2.95902">
        <ele>680.7</ele>
        <time>2026-05-07T12:34:58.999Z</time>
      </trkpt>
      <trkpt lat="43.60216" lon="2.95902">
        <ele>680.7</ele>
        <time>2026-05-07T12:34:59.999Z</time>
      </trkpt>
      <trkpt lat="43.60215" lon="2.95901">
        <ele>680.8</ele>
        <time>2026-05-07T12:35:00.999Z</time>
      </trkpt>
      <trkpt lat="43.60215" lon="2.95901">
        <ele>681.2</ele>
        <time>2026-05-07T12:35:01.999Z</time>
      </trkpt>
      <trkpt lat="43.60214" lon="2.95901">
        <ele>681.4</ele>
        <time>2026-05-07T12:35:02.999Z</time>
      </trkpt>
      <trkpt lat="43.60214" lon="2.959">
        <ele>681.1</ele>
        <time>2026-05-07T12:35:03.999Z</time>
      </trkpt>
      <trkpt lat="43.60213" lon="2.959">
        <ele>682.1</ele>
        <time>2026-05-07T12:35:04.999Z</time>
      </trkpt>
      <trkpt lat="43.60213" lon="2.959">
        <ele>682.3</ele>
        <time>2026-05-07T12:35:05.999Z</time>
      </trkpt>
      <trkpt lat="43.60213" lon="2.959">
        <ele>682.5</ele>
        <time>2026-05-07T12:35:06.999Z</time>
      </trkpt>
      <trkpt lat="43.60213" lon="2.959">
        <ele>682.3</ele>
        <time>2026-05-07T12:35:07.999Z</time>
      </trkpt>
      <trkpt lat="43.60213" lon="2.95899">
        <ele>682.3</ele>
        <time>2026-05-07T12:35:08.999Z</time>
      </trkpt>
      <trkpt lat="43.60213" lon="2.95899">
        <ele>682.3</ele>
        <time>2026-05-07T12:35:09.999Z</time>
      </trkpt>
      <trkpt lat="43.60213" lon="2.95899">
        <ele>682.1</ele>
        <time>2026-05-07T12:35:10.999Z</time>
      </trkpt>
      <trkpt lat="43.60213" lon="2.95899">
        <ele>681.8</ele>
        <time>2026-05-07T12:35:11.999Z</time>
      </trkpt>
      <trkpt lat="43.60211" lon="2.95898">
        <ele>681.5</ele>
        <time>2026-05-07T12:35:12.999Z</time>
      </trkpt>
      <trkpt lat="43.6021" lon="2.95897">
        <ele>681.7</ele>
        <time>2026-05-07T12:35:13.999Z</time>
      </trkpt>
      <trkpt lat="43.6021" lon="2.95896">
        <ele>681.9</ele>
        <time>2026-05-07T12:35:14.999Z</time>
      </trkpt>
      <trkpt lat="43.6021" lon="2.95896">
        <ele>682</ele>
        <time>2026-05-07T12:35:15.999Z</time>
      </trkpt>
      <trkpt lat="43.6021" lon="2.95896">
        <ele>682</ele>
        <time>2026-05-07T12:35:16.999Z</time>
      </trkpt>
      <trkpt lat="43.60209" lon="2.95896">
        <ele>681.8</ele>
        <time>2026-05-07T12:35:17.999Z</time>
      </trkpt>
      <trkpt lat="43.60209" lon="2.95895">
        <ele>681.5</ele>
        <time>2026-05-07T12:35:18.999Z</time>
      </trkpt>
      <trkpt lat="43.60209" lon="2.95895">
        <ele>681.3</ele>
        <time>2026-05-07T12:35:19.999Z</time>
      </trkpt>
      <trkpt lat="43.60209" lon="2.95895">
        <ele>681.2</ele>
        <time>2026-05-07T12:35:20.999Z</time>
      </trkpt>
      <trkpt lat="43.60209" lon="2.95894">
        <ele>681</ele>
        <time>2026-05-07T12:35:21.999Z</time>
      </trkpt>
      <trkpt lat="43.60209" lon="2.95894">
        <ele>681</ele>
        <time>2026-05-07T12:35:22.999Z</time>
      </trkpt>
      <trkpt lat="43.60209" lon="2.95894">
        <ele>680.9</ele>
        <time>2026-05-07T12:35:23.999Z</time>
      </trkpt>
      <trkpt lat="43.60208" lon="2.95894">
        <ele>681</ele>
        <time>2026-05-07T12:35:24.999Z</time>
      </trkpt>
      <trkpt lat="43.60208" lon="2.95894">
        <ele>680.8</ele>
        <time>2026-05-07T12:35:25.999Z</time>
      </trkpt>
      <trkpt lat="43.60208" lon="2.95893">
        <ele>680.3</ele>
        <time>2026-05-07T12:35:26.999Z</time>
      </trkpt>
      <trkpt lat="43.60208" lon="2.95893">
        <ele>680.1</ele>
        <time>2026-05-07T12:35:27.999Z</time>
      </trkpt>
      <trkpt lat="43.60208" lon="2.95893">
        <ele>680</ele>
        <time>2026-05-07T12:35:28.999Z</time>
      </trkpt>
      <trkpt lat="43.60208" lon="2.95893">
        <ele>679.8</ele>
        <time>2026-05-07T12:35:29.999Z</time>
      </trkpt>
      <trkpt lat="43.60208" lon="2.95893">
        <ele>679.4</ele>
        <time>2026-05-07T12:35:30.999Z</time>
      </trkpt>
      <trkpt lat="43.60208" lon="2.95893">
        <ele>679</ele>
        <time>2026-05-07T12:35:31.999Z</time>
      </trkpt>
      <trkpt lat="43.60207" lon="2.95893">
        <ele>678.4</ele>
        <time>2026-05-07T12:35:32.999Z</time>
      </trkpt>
      <trkpt lat="43.60207" lon="2.95893">
        <ele>678</ele>
        <time>2026-05-07T12:35:33.999Z</time>
      </trkpt>
      <trkpt lat="43.60207" lon="2.95892">
        <ele>677.7</ele>
        <time>2026-05-07T12:35:34.999Z</time>
      </trkpt>
      <trkpt lat="43.60207" lon="2.95892">
        <ele>677.6</ele>
        <time>2026-05-07T12:35:35.999Z</time>
      </trkpt>
      <trkpt lat="43.60207" lon="2.95892">
        <ele>677.2</ele>
        <time>2026-05-07T12:35:36.999Z</time>
      </trkpt>
      <trkpt lat="43.60207" lon="2.95892">
        <ele>676.8</ele>
        <time>2026-05-07T12:35:37.999Z</time>
      </trkpt>
      <trkpt lat="43.60206" lon="2.95891">
        <ele>676.4</ele>
        <time>2026-05-07T12:35:38.999Z</time>
      </trkpt>
      <trkpt lat="43.60206" lon="2.95891">
        <ele>675.9</ele>
        <time>2026-05-07T12:35:39.999Z</time>
      </trkpt>
      <trkpt lat="43.60205" lon="2.95888">
        <ele>675.4</ele>
        <time>2026-05-07T12:35:40.999Z</time>
      </trkpt>
      <trkpt lat="43.60203" lon="2.95886">
        <ele>675.1</ele>
        <time>2026-05-07T12:35:41.999Z</time>
      </trkpt>
      <trkpt lat="43.60202" lon="2.95886">
        <ele>675.2</ele>
        <time>2026-05-07T12:35:42.999Z</time>
      </trkpt>
      <trkpt lat="43.60202" lon="2.95885">
        <ele>675</ele>
        <time>2026-05-07T12:35:43.999Z</time>
      </trkpt>
      <trkpt lat="43.60202" lon="2.95885">
        <ele>674.9</ele>
        <time>2026-05-07T12:35:44.999Z</time>
      </trkpt>
      <trkpt lat="43.60202" lon="2.95885">
        <ele>674.9</ele>
        <time>2026-05-07T12:35:45.999Z</time>
      </trkpt>
      <trkpt lat="43.60202" lon="2.95885">
        <ele>674.7</ele>
        <time>2026-05-07T12:35:46.999Z</time>
      </trkpt>
      <trkpt lat="43.60202" lon="2.95885">
        <ele>674.6</ele>
        <time>2026-05-07T12:35:47.999Z</time>
      </trkpt>
      <trkpt lat="43.60201" lon="2.95885">
        <ele>674.6</ele>
        <time>2026-05-07T12:35:48.999Z</time>
      </trkpt>
      <trkpt lat="43.60201" lon="2.95884">
        <ele>674.1</ele>
        <time>2026-05-07T12:35:49.999Z</time>
      </trkpt>
      <trkpt lat="43.60201" lon="2.95884">
        <ele>673.4</ele>
        <time>2026-05-07T12:35:50.999Z</time>
      </trkpt>
      <trkpt lat="43.60201" lon="2.95883">
        <ele>673</ele>
        <time>2026-05-07T12:35:51.999Z</time>
      </trkpt>
      <trkpt lat="43.60198" lon="2.95882">
        <ele>672.7</ele>
        <time>2026-05-07T12:35:52.999Z</time>
      </trkpt>
      <trkpt lat="43.60197" lon="2.95881">
        <ele>672.5</ele>
        <time>2026-05-07T12:35:53.999Z</time>
      </trkpt>
      <trkpt lat="43.60196" lon="2.9588">
        <ele>672.3</ele>
        <time>2026-05-07T12:35:54.999Z</time>
      </trkpt>
      <trkpt lat="43.60195" lon="2.95879">
        <ele>671.8</ele>
        <time>2026-05-07T12:35:55.999Z</time>
      </trkpt>
      <trkpt lat="43.60195" lon="2.95879">
        <ele>671.4</ele>
        <time>2026-05-07T12:35:56.999Z</time>
      </trkpt>
      <trkpt lat="43.60195" lon="2.95879">
        <ele>671.1</ele>
        <time>2026-05-07T12:35:57.999Z</time>
      </trkpt>
      <trkpt lat="43.60195" lon="2.95878">
        <ele>670.6</ele>
        <time>2026-05-07T12:35:58.999Z</time>
      </trkpt>
      <trkpt lat="43.60193" lon="2.95877">
        <ele>670.1</ele>
        <time>2026-05-07T12:35:59.999Z</time>
      </trkpt>
      <trkpt lat="43.6019" lon="2.95875">
        <ele>669.7</ele>
        <time>2026-05-07T12:36:00.999Z</time>
      </trkpt>
      <trkpt lat="43.60189" lon="2.95875">
        <ele>669.6</ele>
        <time>2026-05-07T12:36:01.999Z</time>
      </trkpt>
      <trkpt lat="43.60187" lon="2.95874">
        <ele>669.7</ele>
        <time>2026-05-07T12:36:02.999Z</time>
      </trkpt>
      <trkpt lat="43.60186" lon="2.95874">
        <ele>669.7</ele>
        <time>2026-05-07T12:36:03.999Z</time>
      </trkpt>
      <trkpt lat="43.60185" lon="2.95872">
        <ele>669.6</ele>
        <time>2026-05-07T12:36:04.999Z</time>
      </trkpt>
      <trkpt lat="43.60184" lon="2.95872">
        <ele>669.2</ele>
        <time>2026-05-07T12:36:05.999Z</time>
      </trkpt>
      <trkpt lat="43.60183" lon="2.95871">
        <ele>668.7</ele>
        <time>2026-05-07T12:36:06.999Z</time>
      </trkpt>
      <trkpt lat="43.60182" lon="2.95871">
        <ele>668.1</ele>
        <time>2026-05-07T12:36:07.999Z</time>
      </trkpt>
      <trkpt lat="43.60181" lon="2.95869">
        <ele>667.5</ele>
        <time>2026-05-07T12:36:08.999Z</time>
      </trkpt>
      <trkpt lat="43.60181" lon="2.95868">
        <ele>667.3</ele>
        <time>2026-05-07T12:36:09.999Z</time>
      </trkpt>
      <trkpt lat="43.6018" lon="2.95868">
        <ele>667.3</ele>
        <time>2026-05-07T12:36:10.999Z</time>
      </trkpt>
      <trkpt lat="43.60179" lon="2.95867">
        <ele>667.2</ele>
        <time>2026-05-07T12:36:11.999Z</time>
      </trkpt>
      <trkpt lat="43.60178" lon="2.95867">
        <ele>666.5</ele>
        <time>2026-05-07T12:36:12.999Z</time>
      </trkpt>
      <trkpt lat="43.60177" lon="2.95866">
        <ele>665.8</ele>
        <time>2026-05-07T12:36:13.999Z</time>
      </trkpt>
      <trkpt lat="43.60176" lon="2.95865">
        <ele>665</ele>
        <time>2026-05-07T12:36:14.999Z</time>
      </trkpt>
      <trkpt lat="43.60176" lon="2.95864">
        <ele>664.6</ele>
        <time>2026-05-07T12:36:15.999Z</time>
      </trkpt>
      <trkpt lat="43.60175" lon="2.95864">
        <ele>663.8</ele>
        <time>2026-05-07T12:36:16.999Z</time>
      </trkpt>
      <trkpt lat="43.60174" lon="2.95863">
        <ele>663</ele>
        <time>2026-05-07T12:36:17.999Z</time>
      </trkpt>
      <trkpt lat="43.60173" lon="2.95863">
        <ele>662.7</ele>
        <time>2026-05-07T12:36:18.999Z</time>
      </trkpt>
      <trkpt lat="43.60172" lon="2.95863">
        <ele>662.9</ele>
        <time>2026-05-07T12:36:19.999Z</time>
      </trkpt>
      <trkpt lat="43.60172" lon="2.95862">
        <ele>663.2</ele>
        <time>2026-05-07T12:36:20.999Z</time>
      </trkpt>
      <trkpt lat="43.60172" lon="2.95861">
        <ele>663.1</ele>
        <time>2026-05-07T12:36:21.999Z</time>
      </trkpt>
      <trkpt lat="43.60172" lon="2.9586">
        <ele>662.8</ele>
        <time>2026-05-07T12:36:22.999Z</time>
      </trkpt>
      <trkpt lat="43.60172" lon="2.95859">
        <ele>663.1</ele>
        <time>2026-05-07T12:36:23.999Z</time>
      </trkpt>
      <trkpt lat="43.60172" lon="2.95857">
        <ele>663.3</ele>
        <time>2026-05-07T12:36:24.999Z</time>
      </trkpt>
      <trkpt lat="43.60171" lon="2.95856">
        <ele>662.8</ele>
        <time>2026-05-07T12:36:25.999Z</time>
      </trkpt>
      <trkpt lat="43.60171" lon="2.95855">
        <ele>662.2</ele>
        <time>2026-05-07T12:36:26.999Z</time>
      </trkpt>
      <trkpt lat="43.60169" lon="2.95854">
        <ele>662.3</ele>
        <time>2026-05-07T12:36:27.999Z</time>
      </trkpt>
      <trkpt lat="43.60169" lon="2.95854">
        <ele>661.9</ele>
        <time>2026-05-07T12:36:28.999Z</time>
      </trkpt>
      <trkpt lat="43.60169" lon="2.95854">
        <ele>661.9</ele>
        <time>2026-05-07T12:36:29.999Z</time>
      </trkpt>
      <trkpt lat="43.60169" lon="2.95854">
        <ele>661.7</ele>
        <time>2026-05-07T12:36:30.999Z</time>
      </trkpt>
      <trkpt lat="43.60168" lon="2.95854">
        <ele>661.6</ele>
        <time>2026-05-07T12:36:31.999Z</time>
      </trkpt>
      <trkpt lat="43.60168" lon="2.95854">
        <ele>661.1</ele>
        <time>2026-05-07T12:36:32.999Z</time>
      </trkpt>
      <trkpt lat="43.60168" lon="2.95854">
        <ele>660.8</ele>
        <time>2026-05-07T12:36:33.999Z</time>
      </trkpt>
      <trkpt lat="43.60167" lon="2.95854">
        <ele>660.4</ele>
        <time>2026-05-07T12:36:34.999Z</time>
      </trkpt>
      <trkpt lat="43.60166" lon="2.95852">
        <ele>660.1</ele>
        <time>2026-05-07T12:36:35.999Z</time>
      </trkpt>
      <trkpt lat="43.60165" lon="2.95852">
        <ele>659.7</ele>
        <time>2026-05-07T12:36:36.999Z</time>
      </trkpt>
      <trkpt lat="43.60164" lon="2.95852">
        <ele>659.3</ele>
        <time>2026-05-07T12:36:37.999Z</time>
      </trkpt>
      <trkpt lat="43.60162" lon="2.95851">
        <ele>658.9</ele>
        <time>2026-05-07T12:36:38.999Z</time>
      </trkpt>
      <trkpt lat="43.6016" lon="2.9585">
        <ele>658.7</ele>
        <time>2026-05-07T12:36:39.999Z</time>
      </trkpt>
      <trkpt lat="43.60159" lon="2.95849">
        <ele>658.6</ele>
        <time>2026-05-07T12:36:40.999Z</time>
      </trkpt>
      <trkpt lat="43.60158" lon="2.95849">
        <ele>658.3</ele>
        <time>2026-05-07T12:36:41.999Z</time>
      </trkpt>
      <trkpt lat="43.60157" lon="2.9585">
        <ele>657.8</ele>
        <time>2026-05-07T12:36:42.999Z</time>
      </trkpt>
      <trkpt lat="43.60157" lon="2.95851">
        <ele>657.9</ele>
        <time>2026-05-07T12:36:43.999Z</time>
      </trkpt>
      <trkpt lat="43.60157" lon="2.95851">
        <ele>657.6</ele>
        <time>2026-05-07T12:36:44.999Z</time>
      </trkpt>
      <trkpt lat="43.60156" lon="2.95851">
        <ele>657.4</ele>
        <time>2026-05-07T12:36:45.999Z</time>
      </trkpt>
      <trkpt lat="43.60156" lon="2.95849">
        <ele>657</ele>
        <time>2026-05-07T12:36:46.999Z</time>
      </trkpt>
      <trkpt lat="43.60156" lon="2.95848">
        <ele>656.7</ele>
        <time>2026-05-07T12:36:47.999Z</time>
      </trkpt>
      <trkpt lat="43.60155" lon="2.95846">
        <ele>657.1</ele>
        <time>2026-05-07T12:36:48.999Z</time>
      </trkpt>
      <trkpt lat="43.60155" lon="2.95846">
        <ele>657</ele>
        <time>2026-05-07T12:36:49.999Z</time>
      </trkpt>
      <trkpt lat="43.60154" lon="2.95846">
        <ele>656.8</ele>
        <time>2026-05-07T12:36:50.999Z</time>
      </trkpt>
      <trkpt lat="43.60154" lon="2.95847">
        <ele>656.5</ele>
        <time>2026-05-07T12:36:51.999Z</time>
      </trkpt>
      <trkpt lat="43.60154" lon="2.95847">
        <ele>656.4</ele>
        <time>2026-05-07T12:36:52.999Z</time>
      </trkpt>
      <trkpt lat="43.60154" lon="2.95847">
        <ele>656.5</ele>
        <time>2026-05-07T12:36:53.999Z</time>
      </trkpt>
      <trkpt lat="43.60153" lon="2.95847">
        <ele>656.5</ele>
        <time>2026-05-07T12:36:54.999Z</time>
      </trkpt>
      <trkpt lat="43.60153" lon="2.95847">
        <ele>656.2</ele>
        <time>2026-05-07T12:36:55.999Z</time>
      </trkpt>
      <trkpt lat="43.60153" lon="2.95846">
        <ele>656.5</ele>
        <time>2026-05-07T12:36:56.999Z</time>
      </trkpt>
      <trkpt lat="43.60152" lon="2.95846">
        <ele>656.2</ele>
        <time>2026-05-07T12:36:57.999Z</time>
      </trkpt>
      <trkpt lat="43.60151" lon="2.95844">
        <ele>656</ele>
        <time>2026-05-07T12:36:58.999Z</time>
      </trkpt>
      <trkpt lat="43.60151" lon="2.95842">
        <ele>655.4</ele>
        <time>2026-05-07T12:36:59.999Z</time>
      </trkpt>
      <trkpt lat="43.60151" lon="2.95841">
        <ele>654.7</ele>
        <time>2026-05-07T12:37:00.999Z</time>
      </trkpt>
      <trkpt lat="43.60151" lon="2.95841">
        <ele>654.6</ele>
        <time>2026-05-07T12:37:01.999Z</time>
      </trkpt>
      <trkpt lat="43.60151" lon="2.9584">
        <ele>654.3</ele>
        <time>2026-05-07T12:37:02.999Z</time>
      </trkpt>
      <trkpt lat="43.60151" lon="2.9584">
        <ele>654.1</ele>
        <time>2026-05-07T12:37:03.999Z</time>
      </trkpt>
      <trkpt lat="43.6015" lon="2.9584">
        <ele>654</ele>
        <time>2026-05-07T12:37:04.999Z</time>
      </trkpt>
      <trkpt lat="43.60149" lon="2.95839">
        <ele>653.7</ele>
        <time>2026-05-07T12:37:05.999Z</time>
      </trkpt>
      <trkpt lat="43.60148" lon="2.95839">
        <ele>653.5</ele>
        <time>2026-05-07T12:37:06.999Z</time>
      </trkpt>
      <trkpt lat="43.60147" lon="2.95838">
        <ele>653</ele>
        <time>2026-05-07T12:37:07.999Z</time>
      </trkpt>
      <trkpt lat="43.60147" lon="2.95837">
        <ele>652.4</ele>
        <time>2026-05-07T12:37:08.999Z</time>
      </trkpt>
      <trkpt lat="43.60147" lon="2.95836">
        <ele>652.2</ele>
        <time>2026-05-07T12:37:09.999Z</time>
      </trkpt>
      <trkpt lat="43.60147" lon="2.95836">
        <ele>652.3</ele>
        <time>2026-05-07T12:37:10.999Z</time>
      </trkpt>
      <trkpt lat="43.60147" lon="2.95836">
        <ele>652.1</ele>
        <time>2026-05-07T12:37:11.999Z</time>
      </trkpt>
      <trkpt lat="43.60147" lon="2.95836">
        <ele>652.3</ele>
        <time>2026-05-07T12:37:12.999Z</time>
      </trkpt>
      <trkpt lat="43.60147" lon="2.95836">
        <ele>651.9</ele>
        <time>2026-05-07T12:37:13.999Z</time>
      </trkpt>
      <trkpt lat="43.60147" lon="2.95835">
        <ele>651.8</ele>
        <time>2026-05-07T12:37:14.999Z</time>
      </trkpt>
      <trkpt lat="43.60147" lon="2.95833">
        <ele>651.7</ele>
        <time>2026-05-07T12:37:15.999Z</time>
      </trkpt>
      <trkpt lat="43.60146" lon="2.95832">
        <ele>651.3</ele>
        <time>2026-05-07T12:37:16.999Z</time>
      </trkpt>
      <trkpt lat="43.60145" lon="2.95832">
        <ele>651.3</ele>
        <time>2026-05-07T12:37:17.999Z</time>
      </trkpt>
      <trkpt lat="43.60144" lon="2.95831">
        <ele>651</ele>
        <time>2026-05-07T12:37:18.999Z</time>
      </trkpt>
      <trkpt lat="43.60144" lon="2.9583">
        <ele>651.1</ele>
        <time>2026-05-07T12:37:19.999Z</time>
      </trkpt>
      <trkpt lat="43.60143" lon="2.95829">
        <ele>651.2</ele>
        <time>2026-05-07T12:37:20.999Z</time>
      </trkpt>
      <trkpt lat="43.60143" lon="2.95829">
        <ele>651.1</ele>
        <time>2026-05-07T12:37:21.999Z</time>
      </trkpt>
      <trkpt lat="43.60142" lon="2.9583">
        <ele>651.2</ele>
        <time>2026-05-07T12:37:22.999Z</time>
      </trkpt>
      <trkpt lat="43.60142" lon="2.95829">
        <ele>651.4</ele>
        <time>2026-05-07T12:37:23.999Z</time>
      </trkpt>
      <trkpt lat="43.60141" lon="2.95828">
        <ele>651.3</ele>
        <time>2026-05-07T12:37:24.999Z</time>
      </trkpt>
      <trkpt lat="43.60141" lon="2.95827">
        <ele>651</ele>
        <time>2026-05-07T12:37:25.999Z</time>
      </trkpt>
      <trkpt lat="43.6014" lon="2.95827">
        <ele>650.7</ele>
        <time>2026-05-07T12:37:26.999Z</time>
      </trkpt>
      <trkpt lat="43.6014" lon="2.95826">
        <ele>650.7</ele>
        <time>2026-05-07T12:37:27.999Z</time>
      </trkpt>
      <trkpt lat="43.6014" lon="2.95825">
        <ele>650.3</ele>
        <time>2026-05-07T12:37:28.999Z</time>
      </trkpt>
      <trkpt lat="43.6014" lon="2.95825">
        <ele>650.4</ele>
        <time>2026-05-07T12:37:29.999Z</time>
      </trkpt>
      <trkpt lat="43.6014" lon="2.95825">
        <ele>650.2</ele>
        <time>2026-05-07T12:37:30.999Z</time>
      </trkpt>
      <trkpt lat="43.6014" lon="2.95824">
        <ele>649.9</ele>
        <time>2026-05-07T12:37:31.999Z</time>
      </trkpt>
      <trkpt lat="43.6014" lon="2.95824">
        <ele>649.7</ele>
        <time>2026-05-07T12:37:32.999Z</time>
      </trkpt>
      <trkpt lat="43.6014" lon="2.95824">
        <ele>649.5</ele>
        <time>2026-05-07T12:37:33.999Z</time>
      </trkpt>
      <trkpt lat="43.6014" lon="2.95824">
        <ele>649.8</ele>
        <time>2026-05-07T12:37:34.999Z</time>
      </trkpt>
      <trkpt lat="43.60139" lon="2.95823">
        <ele>649.8</ele>
        <time>2026-05-07T12:37:35.999Z</time>
      </trkpt>
      <trkpt lat="43.60139" lon="2.95823">
        <ele>649.8</ele>
        <time>2026-05-07T12:37:36.999Z</time>
      </trkpt>
      <trkpt lat="43.60139" lon="2.95823">
        <ele>649.9</ele>
        <time>2026-05-07T12:37:37.999Z</time>
      </trkpt>
      <trkpt lat="43.60139" lon="2.95822">
        <ele>650</ele>
        <time>2026-05-07T12:37:38.999Z</time>
      </trkpt>
      <trkpt lat="43.60139" lon="2.95822">
        <ele>650.3</ele>
        <time>2026-05-07T12:37:39.999Z</time>
      </trkpt>
      <trkpt lat="43.60139" lon="2.95822">
        <ele>650.2</ele>
        <time>2026-05-07T12:37:40.999Z</time>
      </trkpt>
      <trkpt lat="43.60139" lon="2.95822">
        <ele>650.3</ele>
        <time>2026-05-07T12:37:41.999Z</time>
      </trkpt>
      <trkpt lat="43.60139" lon="2.95821">
        <ele>649.9</ele>
        <time>2026-05-07T12:37:42.999Z</time>
      </trkpt>
      <trkpt lat="43.60139" lon="2.95821">
        <ele>649.6</ele>
        <time>2026-05-07T12:37:43.999Z</time>
      </trkpt>
      <trkpt lat="43.60139" lon="2.95821">
        <ele>649.4</ele>
        <time>2026-05-07T12:37:44.999Z</time>
      </trkpt>
      <trkpt lat="43.60139" lon="2.95821">
        <ele>648.9</ele>
        <time>2026-05-07T12:37:45.999Z</time>
      </trkpt>
      <trkpt lat="43.60139" lon="2.9582">
        <ele>648.7</ele>
        <time>2026-05-07T12:37:46.999Z</time>
      </trkpt>
      <trkpt lat="43.60139" lon="2.9582">
        <ele>648.4</ele>
        <time>2026-05-07T12:37:47.999Z</time>
      </trkpt>
      <trkpt lat="43.60139" lon="2.95819">
        <ele>648.2</ele>
        <time>2026-05-07T12:37:48.999Z</time>
      </trkpt>
      <trkpt lat="43.60139" lon="2.95819">
        <ele>648.1</ele>
        <time>2026-05-07T12:37:49.999Z</time>
      </trkpt>
      <trkpt lat="43.60139" lon="2.95819">
        <ele>648</ele>
        <time>2026-05-07T12:37:50.999Z</time>
      </trkpt>
      <trkpt lat="43.60139" lon="2.95819">
        <ele>648.1</ele>
        <time>2026-05-07T12:37:51.999Z</time>
      </trkpt>
      <trkpt lat="43.60139" lon="2.95818">
        <ele>647.8</ele>
        <time>2026-05-07T12:37:52.999Z</time>
      </trkpt>
      <trkpt lat="43.60139" lon="2.95818">
        <ele>647.5</ele>
        <time>2026-05-07T12:37:53.999Z</time>
      </trkpt>
      <trkpt lat="43.60139" lon="2.95817">
        <ele>647.3</ele>
        <time>2026-05-07T12:37:54.999Z</time>
      </trkpt>
      <trkpt lat="43.60139" lon="2.95817">
        <ele>647.1</ele>
        <time>2026-05-07T12:37:55.999Z</time>
      </trkpt>
      <trkpt lat="43.60139" lon="2.95817">
        <ele>646.9</ele>
        <time>2026-05-07T12:37:56.999Z</time>
      </trkpt>
      <trkpt lat="43.60138" lon="2.95816">
        <ele>647</ele>
        <time>2026-05-07T12:37:57.999Z</time>
      </trkpt>
      <trkpt lat="43.60138" lon="2.95816">
        <ele>647.2</ele>
        <time>2026-05-07T12:37:58.999Z</time>
      </trkpt>
      <trkpt lat="43.60138" lon="2.95815">
        <ele>646.9</ele>
        <time>2026-05-07T12:37:59.999Z</time>
      </trkpt>
      <trkpt lat="43.60138" lon="2.95815">
        <ele>647</ele>
        <time>2026-05-07T12:38:00.999Z</time>
      </trkpt>
      <trkpt lat="43.60137" lon="2.95814">
        <ele>646.6</ele>
        <time>2026-05-07T12:38:01.999Z</time>
      </trkpt>
      <trkpt lat="43.60137" lon="2.95813">
        <ele>646.3</ele>
        <time>2026-05-07T12:38:02.999Z</time>
      </trkpt>
      <trkpt lat="43.60137" lon="2.95813">
        <ele>646</ele>
        <time>2026-05-07T12:38:03.999Z</time>
      </trkpt>
      <trkpt lat="43.60137" lon="2.95812">
        <ele>646.2</ele>
        <time>2026-05-07T12:38:04.999Z</time>
      </trkpt>
      <trkpt lat="43.60136" lon="2.95812">
        <ele>645.8</ele>
        <time>2026-05-07T12:38:05.999Z</time>
      </trkpt>
      <trkpt lat="43.60136" lon="2.95811">
        <ele>645.5</ele>
        <time>2026-05-07T12:38:06.999Z</time>
      </trkpt>
      <trkpt lat="43.60136" lon="2.95811">
        <ele>645.5</ele>
        <time>2026-05-07T12:38:07.999Z</time>
      </trkpt>
      <trkpt lat="43.60136" lon="2.9581">
        <ele>645.3</ele>
        <time>2026-05-07T12:38:08.999Z</time>
      </trkpt>
      <trkpt lat="43.60136" lon="2.9581">
        <ele>645.1</ele>
        <time>2026-05-07T12:38:09.999Z</time>
      </trkpt>
      <trkpt lat="43.60136" lon="2.95809">
        <ele>645.1</ele>
        <time>2026-05-07T12:38:10.999Z</time>
      </trkpt>
      <trkpt lat="43.60136" lon="2.95808">
        <ele>645</ele>
        <time>2026-05-07T12:38:11.999Z</time>
      </trkpt>
      <trkpt lat="43.60135" lon="2.95807">
        <ele>644.8</ele>
        <time>2026-05-07T12:38:12.999Z</time>
      </trkpt>
      <trkpt lat="43.60135" lon="2.95807">
        <ele>644.5</ele>
        <time>2026-05-07T12:38:13.999Z</time>
      </trkpt>
      <trkpt lat="43.60135" lon="2.95807">
        <ele>644.3</ele>
        <time>2026-05-07T12:38:14.999Z</time>
      </trkpt>
      <trkpt lat="43.60135" lon="2.95806">
        <ele>644.2</ele>
        <time>2026-05-07T12:38:15.999Z</time>
      </trkpt>
      <trkpt lat="43.60135" lon="2.95806">
        <ele>644.2</ele>
        <time>2026-05-07T12:38:16.999Z</time>
      </trkpt>
      <trkpt lat="43.60134" lon="2.95805">
        <ele>643.7</ele>
        <time>2026-05-07T12:38:17.999Z</time>
      </trkpt>
      <trkpt lat="43.60134" lon="2.95804">
        <ele>643.5</ele>
        <time>2026-05-07T12:38:18.999Z</time>
      </trkpt>
      <trkpt lat="43.60134" lon="2.95804">
        <ele>643</ele>
        <time>2026-05-07T12:38:19.999Z</time>
      </trkpt>
      <trkpt lat="43.60134" lon="2.95803">
        <ele>643.1</ele>
        <time>2026-05-07T12:38:20.999Z</time>
      </trkpt>
      <trkpt lat="43.60133" lon="2.95803">
        <ele>642.7</ele>
        <time>2026-05-07T12:38:21.999Z</time>
      </trkpt>
      <trkpt lat="43.60133" lon="2.95802">
        <ele>642.5</ele>
        <time>2026-05-07T12:38:22.999Z</time>
      </trkpt>
      <trkpt lat="43.60133" lon="2.95802">
        <ele>642.1</ele>
        <time>2026-05-07T12:38:23.999Z</time>
      </trkpt>
      <trkpt lat="43.60133" lon="2.95801">
        <ele>641.7</ele>
        <time>2026-05-07T12:38:24.999Z</time>
      </trkpt>
      <trkpt lat="43.60133" lon="2.95801">
        <ele>641.5</ele>
        <time>2026-05-07T12:38:25.999Z</time>
      </trkpt>
      <trkpt lat="43.60133" lon="2.95801">
        <ele>641.1</ele>
        <time>2026-05-07T12:38:26.999Z</time>
      </trkpt>
      <trkpt lat="43.60133" lon="2.958">
        <ele>640.6</ele>
        <time>2026-05-07T12:38:27.999Z</time>
      </trkpt>
      <trkpt lat="43.60133" lon="2.95799">
        <ele>640.1</ele>
        <time>2026-05-07T12:38:28.999Z</time>
      </trkpt>
      <trkpt lat="43.60133" lon="2.95799">
        <ele>639.6</ele>
        <time>2026-05-07T12:38:29.999Z</time>
      </trkpt>
      <trkpt lat="43.60132" lon="2.95799">
        <ele>639</ele>
        <time>2026-05-07T12:38:30.999Z</time>
      </trkpt>
      <trkpt lat="43.60132" lon="2.95798">
        <ele>638.7</ele>
        <time>2026-05-07T12:38:31.999Z</time>
      </trkpt>
      <trkpt lat="43.60132" lon="2.95797">
        <ele>638.2</ele>
        <time>2026-05-07T12:38:32.999Z</time>
      </trkpt>
      <trkpt lat="43.60132" lon="2.95797">
        <ele>637.7</ele>
        <time>2026-05-07T12:38:33.999Z</time>
      </trkpt>
      <trkpt lat="43.60131" lon="2.95796">
        <ele>637.8</ele>
        <time>2026-05-07T12:38:34.999Z</time>
      </trkpt>
      <trkpt lat="43.60131" lon="2.95795">
        <ele>637.7</ele>
        <time>2026-05-07T12:38:35.999Z</time>
      </trkpt>
      <trkpt lat="43.6013" lon="2.95795">
        <ele>637.2</ele>
        <time>2026-05-07T12:38:36.999Z</time>
      </trkpt>
      <trkpt lat="43.6013" lon="2.95794">
        <ele>636.6</ele>
        <time>2026-05-07T12:38:37.999Z</time>
      </trkpt>
      <trkpt lat="43.6013" lon="2.95794">
        <ele>636.2</ele>
        <time>2026-05-07T12:38:38.999Z</time>
      </trkpt>
      <trkpt lat="43.6013" lon="2.95793">
        <ele>636.2</ele>
        <time>2026-05-07T12:38:39.999Z</time>
      </trkpt>
      <trkpt lat="43.60129" lon="2.95792">
        <ele>636</ele>
        <time>2026-05-07T12:38:40.999Z</time>
      </trkpt>
      <trkpt lat="43.60128" lon="2.95791">
        <ele>635.8</ele>
        <time>2026-05-07T12:38:41.999Z</time>
      </trkpt>
      <trkpt lat="43.60128" lon="2.9579">
        <ele>635.6</ele>
        <time>2026-05-07T12:38:42.999Z</time>
      </trkpt>
      <trkpt lat="43.60128" lon="2.9579">
        <ele>635.2</ele>
        <time>2026-05-07T12:38:43.999Z</time>
      </trkpt>
      <trkpt lat="43.60127" lon="2.95789">
        <ele>634.8</ele>
        <time>2026-05-07T12:38:44.999Z</time>
      </trkpt>
      <trkpt lat="43.60127" lon="2.95789">
        <ele>634.7</ele>
        <time>2026-05-07T12:38:45.999Z</time>
      </trkpt>
      <trkpt lat="43.60127" lon="2.95788">
        <ele>634.5</ele>
        <time>2026-05-07T12:38:46.999Z</time>
      </trkpt>
      <trkpt lat="43.60126" lon="2.95787">
        <ele>634.2</ele>
        <time>2026-05-07T12:38:47.999Z</time>
      </trkpt>
      <trkpt lat="43.60126" lon="2.95787">
        <ele>633.8</ele>
        <time>2026-05-07T12:38:48.999Z</time>
      </trkpt>
      <trkpt lat="43.60126" lon="2.95786">
        <ele>633.5</ele>
        <time>2026-05-07T12:38:49.999Z</time>
      </trkpt>
      <trkpt lat="43.60125" lon="2.95785">
        <ele>633.4</ele>
        <time>2026-05-07T12:38:50.999Z</time>
      </trkpt>
      <trkpt lat="43.60125" lon="2.95784">
        <ele>633.1</ele>
        <time>2026-05-07T12:38:51.999Z</time>
      </trkpt>
      <trkpt lat="43.60125" lon="2.95784">
        <ele>632.4</ele>
        <time>2026-05-07T12:38:52.999Z</time>
      </trkpt>
      <trkpt lat="43.60124" lon="2.95783">
        <ele>631.9</ele>
        <time>2026-05-07T12:38:53.999Z</time>
      </trkpt>
      <trkpt lat="43.60123" lon="2.95781">
        <ele>631.5</ele>
        <time>2026-05-07T12:38:54.999Z</time>
      </trkpt>
      <trkpt lat="43.6012" lon="2.95779">
        <ele>631.4</ele>
        <time>2026-05-07T12:38:55.999Z</time>
      </trkpt>
      <trkpt lat="43.60119" lon="2.95779">
        <ele>631.7</ele>
        <time>2026-05-07T12:38:56.999Z</time>
      </trkpt>
      <trkpt lat="43.60119" lon="2.95778">
        <ele>631.8</ele>
        <time>2026-05-07T12:38:57.999Z</time>
      </trkpt>
      <trkpt lat="43.60118" lon="2.95778">
        <ele>631.9</ele>
        <time>2026-05-07T12:38:58.999Z</time>
      </trkpt>
      <trkpt lat="43.60117" lon="2.95777">
        <ele>631.8</ele>
        <time>2026-05-07T12:38:59.999Z</time>
      </trkpt>
      <trkpt lat="43.60116" lon="2.95777">
        <ele>631.7</ele>
        <time>2026-05-07T12:39:00.999Z</time>
      </trkpt>
      <trkpt lat="43.60116" lon="2.95777">
        <ele>631.7</ele>
        <time>2026-05-07T12:39:01.999Z</time>
      </trkpt>
      <trkpt lat="43.60116" lon="2.95776">
        <ele>631.6</ele>
        <time>2026-05-07T12:39:02.999Z</time>
      </trkpt>
      <trkpt lat="43.60116" lon="2.95776">
        <ele>631.3</ele>
        <time>2026-05-07T12:39:03.999Z</time>
      </trkpt>
      <trkpt lat="43.60116" lon="2.95775">
        <ele>631.2</ele>
        <time>2026-05-07T12:39:04.999Z</time>
      </trkpt>
      <trkpt lat="43.60115" lon="2.95775">
        <ele>631.1</ele>
        <time>2026-05-07T12:39:05.999Z</time>
      </trkpt>
      <trkpt lat="43.60115" lon="2.95775">
        <ele>631.2</ele>
        <time>2026-05-07T12:39:06.999Z</time>
      </trkpt>
      <trkpt lat="43.60115" lon="2.95775">
        <ele>630.9</ele>
        <time>2026-05-07T12:39:07.999Z</time>
      </trkpt>
      <trkpt lat="43.60115" lon="2.95774">
        <ele>630.9</ele>
        <time>2026-05-07T12:39:08.999Z</time>
      </trkpt>
      <trkpt lat="43.60115" lon="2.95774">
        <ele>630.8</ele>
        <time>2026-05-07T12:39:09.999Z</time>
      </trkpt>
      <trkpt lat="43.60114" lon="2.95774">
        <ele>630.7</ele>
        <time>2026-05-07T12:39:10.999Z</time>
      </trkpt>
      <trkpt lat="43.60114" lon="2.95774">
        <ele>630.7</ele>
        <time>2026-05-07T12:39:11.999Z</time>
      </trkpt>
      <trkpt lat="43.60112" lon="2.95772">
        <ele>630.7</ele>
        <time>2026-05-07T12:39:12.999Z</time>
      </trkpt>
      <trkpt lat="43.60111" lon="2.95771">
        <ele>630.7</ele>
        <time>2026-05-07T12:39:13.999Z</time>
      </trkpt>
      <trkpt lat="43.6011" lon="2.9577">
        <ele>630.6</ele>
        <time>2026-05-07T12:39:14.999Z</time>
      </trkpt>
      <trkpt lat="43.60107" lon="2.95767">
        <ele>630.7</ele>
        <time>2026-05-07T12:39:15.999Z</time>
      </trkpt>
      <trkpt lat="43.60106" lon="2.95766">
        <ele>630.7</ele>
        <time>2026-05-07T12:39:16.999Z</time>
      </trkpt>
      <trkpt lat="43.60103" lon="2.95764">
        <ele>630.5</ele>
        <time>2026-05-07T12:39:17.999Z</time>
      </trkpt>
      <trkpt lat="43.60101" lon="2.95763">
        <ele>630.4</ele>
        <time>2026-05-07T12:39:18.999Z</time>
      </trkpt>
      <trkpt lat="43.60101" lon="2.95762">
        <ele>630.4</ele>
        <time>2026-05-07T12:39:19.999Z</time>
      </trkpt>
      <trkpt lat="43.60099" lon="2.95761">
        <ele>630.2</ele>
        <time>2026-05-07T12:39:20.999Z</time>
      </trkpt>
      <trkpt lat="43.60098" lon="2.95759">
        <ele>630</ele>
        <time>2026-05-07T12:39:21.999Z</time>
      </trkpt>
      <trkpt lat="43.60097" lon="2.95757">
        <ele>629.7</ele>
        <time>2026-05-07T12:39:22.999Z</time>
      </trkpt>
      <trkpt lat="43.60096" lon="2.95755">
        <ele>629.7</ele>
        <time>2026-05-07T12:39:23.999Z</time>
      </trkpt>
      <trkpt lat="43.60095" lon="2.95754">
        <ele>629.6</ele>
        <time>2026-05-07T12:39:24.999Z</time>
      </trkpt>
      <trkpt lat="43.60094" lon="2.95752">
        <ele>629.3</ele>
        <time>2026-05-07T12:39:25.999Z</time>
      </trkpt>
      <trkpt lat="43.60094" lon="2.95751">
        <ele>629</ele>
        <time>2026-05-07T12:39:26.999Z</time>
      </trkpt>
      <trkpt lat="43.60093" lon="2.9575">
        <ele>628.6</ele>
        <time>2026-05-07T12:39:27.999Z</time>
      </trkpt>
      <trkpt lat="43.60093" lon="2.95749">
        <ele>628</ele>
        <time>2026-05-07T12:39:28.999Z</time>
      </trkpt>
      <trkpt lat="43.60093" lon="2.95748">
        <ele>627.6</ele>
        <time>2026-05-07T12:39:29.999Z</time>
      </trkpt>
      <trkpt lat="43.60092" lon="2.95747">
        <ele>627.3</ele>
        <time>2026-05-07T12:39:30.999Z</time>
      </trkpt>
      <trkpt lat="43.60092" lon="2.95745">
        <ele>627.2</ele>
        <time>2026-05-07T12:39:31.999Z</time>
      </trkpt>
      <trkpt lat="43.60092" lon="2.95744">
        <ele>626.8</ele>
        <time>2026-05-07T12:39:32.999Z</time>
      </trkpt>
      <trkpt lat="43.60092" lon="2.95743">
        <ele>626.6</ele>
        <time>2026-05-07T12:39:33.999Z</time>
      </trkpt>
      <trkpt lat="43.60092" lon="2.95743">
        <ele>626.6</ele>
        <time>2026-05-07T12:39:34.999Z</time>
      </trkpt>
      <trkpt lat="43.60092" lon="2.95742">
        <ele>626.5</ele>
        <time>2026-05-07T12:39:35.999Z</time>
      </trkpt>
      <trkpt lat="43.6009" lon="2.9574">
        <ele>626.3</ele>
        <time>2026-05-07T12:39:36.999Z</time>
      </trkpt>
      <trkpt lat="43.60089" lon="2.9574">
        <ele>626.3</ele>
        <time>2026-05-07T12:39:37.999Z</time>
      </trkpt>
      <trkpt lat="43.60088" lon="2.95739">
        <ele>626</ele>
        <time>2026-05-07T12:39:38.999Z</time>
      </trkpt>
      <trkpt lat="43.60087" lon="2.95739">
        <ele>626</ele>
        <time>2026-05-07T12:39:39.999Z</time>
      </trkpt>
      <trkpt lat="43.60086" lon="2.95739">
        <ele>625.9</ele>
        <time>2026-05-07T12:39:40.999Z</time>
      </trkpt>
      <trkpt lat="43.60086" lon="2.95739">
        <ele>625.8</ele>
        <time>2026-05-07T12:39:41.999Z</time>
      </trkpt>
      <trkpt lat="43.60085" lon="2.95739">
        <ele>625.5</ele>
        <time>2026-05-07T12:39:42.999Z</time>
      </trkpt>
      <trkpt lat="43.60085" lon="2.95738">
        <ele>626.2</ele>
        <time>2026-05-07T12:39:43.999Z</time>
      </trkpt>
      <trkpt lat="43.60084" lon="2.95738">
        <ele>626.2</ele>
        <time>2026-05-07T12:39:44.999Z</time>
      </trkpt>
      <trkpt lat="43.60084" lon="2.95738">
        <ele>625.9</ele>
        <time>2026-05-07T12:39:45.999Z</time>
      </trkpt>
      <trkpt lat="43.60083" lon="2.95738">
        <ele>625.8</ele>
        <time>2026-05-07T12:39:46.999Z</time>
      </trkpt>
      <trkpt lat="43.60082" lon="2.95738">
        <ele>625.5</ele>
        <time>2026-05-07T12:39:47.999Z</time>
      </trkpt>
      <trkpt lat="43.60082" lon="2.95737">
        <ele>625.3</ele>
        <time>2026-05-07T12:39:48.999Z</time>
      </trkpt>
      <trkpt lat="43.60081" lon="2.95736">
        <ele>624.6</ele>
        <time>2026-05-07T12:39:49.999Z</time>
      </trkpt>
      <trkpt lat="43.60081" lon="2.95736">
        <ele>624.1</ele>
        <time>2026-05-07T12:39:50.999Z</time>
      </trkpt>
      <trkpt lat="43.60081" lon="2.95736">
        <ele>623.9</ele>
        <time>2026-05-07T12:39:51.999Z</time>
      </trkpt>
      <trkpt lat="43.60081" lon="2.95736">
        <ele>623.4</ele>
        <time>2026-05-07T12:39:52.999Z</time>
      </trkpt>
      <trkpt lat="43.60081" lon="2.95736">
        <ele>623.1</ele>
        <time>2026-05-07T12:39:53.999Z</time>
      </trkpt>
      <trkpt lat="43.60081" lon="2.95736">
        <ele>622.9</ele>
        <time>2026-05-07T12:39:54.999Z</time>
      </trkpt>
      <trkpt lat="43.60081" lon="2.95736">
        <ele>622.8</ele>
        <time>2026-05-07T12:39:55.999Z</time>
      </trkpt>
      <trkpt lat="43.60082" lon="2.95735">
        <ele>622.9</ele>
        <time>2026-05-07T12:39:56.999Z</time>
      </trkpt>
      <trkpt lat="43.60082" lon="2.95735">
        <ele>623</ele>
        <time>2026-05-07T12:39:57.999Z</time>
      </trkpt>
      <trkpt lat="43.60082" lon="2.95735">
        <ele>623.2</ele>
        <time>2026-05-07T12:39:58.999Z</time>
      </trkpt>
      <trkpt lat="43.60082" lon="2.95735">
        <ele>623</ele>
        <time>2026-05-07T12:39:59.999Z</time>
      </trkpt>
      <trkpt lat="43.60082" lon="2.95735">
        <ele>622.6</ele>
        <time>2026-05-07T12:40:00.999Z</time>
      </trkpt>
      <trkpt lat="43.60082" lon="2.95734">
        <ele>622.2</ele>
        <time>2026-05-07T12:40:01.999Z</time>
      </trkpt>
      <trkpt lat="43.60082" lon="2.95734">
        <ele>621.9</ele>
        <time>2026-05-07T12:40:02.999Z</time>
      </trkpt>
      <trkpt lat="43.60082" lon="2.95735">
        <ele>621.4</ele>
        <time>2026-05-07T12:40:03.999Z</time>
      </trkpt>
      <trkpt lat="43.60081" lon="2.95735">
        <ele>620.9</ele>
        <time>2026-05-07T12:40:04.999Z</time>
      </trkpt>
      <trkpt lat="43.60081" lon="2.95735">
        <ele>621</ele>
        <time>2026-05-07T12:40:05.999Z</time>
      </trkpt>
      <trkpt lat="43.60081" lon="2.95735">
        <ele>620.8</ele>
        <time>2026-05-07T12:40:06.999Z</time>
      </trkpt>
      <trkpt lat="43.60081" lon="2.95735">
        <ele>620.8</ele>
        <time>2026-05-07T12:40:07.999Z</time>
      </trkpt>
      <trkpt lat="43.60081" lon="2.95736">
        <ele>620.6</ele>
        <time>2026-05-07T12:40:08.999Z</time>
      </trkpt>
      <trkpt lat="43.60082" lon="2.95735">
        <ele>620.6</ele>
        <time>2026-05-07T12:40:09.999Z</time>
      </trkpt>
      <trkpt lat="43.60082" lon="2.95734">
        <ele>620.7</ele>
        <time>2026-05-07T12:40:10.999Z</time>
      </trkpt>
      <trkpt lat="43.60083" lon="2.95733">
        <ele>620.5</ele>
        <time>2026-05-07T12:40:11.999Z</time>
      </trkpt>
      <trkpt lat="43.60083" lon="2.95732">
        <ele>620.3</ele>
        <time>2026-05-07T12:40:12.999Z</time>
      </trkpt>
      <trkpt lat="43.60083" lon="2.9573">
        <ele>619.7</ele>
        <time>2026-05-07T12:40:13.999Z</time>
      </trkpt>
      <trkpt lat="43.60082" lon="2.95729">
        <ele>619.1</ele>
        <time>2026-05-07T12:40:14.999Z</time>
      </trkpt>
      <trkpt lat="43.60082" lon="2.95727">
        <ele>619</ele>
        <time>2026-05-07T12:40:15.999Z</time>
      </trkpt>
      <trkpt lat="43.60082" lon="2.95725">
        <ele>619.2</ele>
        <time>2026-05-07T12:40:16.999Z</time>
      </trkpt>
      <trkpt lat="43.60082" lon="2.95724">
        <ele>619.5</ele>
        <time>2026-05-07T12:40:17.999Z</time>
      </trkpt>
      <trkpt lat="43.60081" lon="2.95723">
        <ele>619.8</ele>
        <time>2026-05-07T12:40:18.999Z</time>
      </trkpt>
      <trkpt lat="43.6008" lon="2.95722">
        <ele>619.3</ele>
        <time>2026-05-07T12:40:19.999Z</time>
      </trkpt>
      <trkpt lat="43.60079" lon="2.95722">
        <ele>619.2</ele>
        <time>2026-05-07T12:40:20.999Z</time>
      </trkpt>
      <trkpt lat="43.60078" lon="2.95722">
        <ele>619.3</ele>
        <time>2026-05-07T12:40:21.999Z</time>
      </trkpt>
      <trkpt lat="43.60077" lon="2.95721">
        <ele>619.4</ele>
        <time>2026-05-07T12:40:22.999Z</time>
      </trkpt>
      <trkpt lat="43.60077" lon="2.9572">
        <ele>619.3</ele>
        <time>2026-05-07T12:40:23.999Z</time>
      </trkpt>
      <trkpt lat="43.60076" lon="2.95719">
        <ele>619</ele>
        <time>2026-05-07T12:40:24.999Z</time>
      </trkpt>
      <trkpt lat="43.60076" lon="2.9572">
        <ele>618.6</ele>
        <time>2026-05-07T12:40:25.999Z</time>
      </trkpt>
      <trkpt lat="43.60075" lon="2.95719">
        <ele>618.6</ele>
        <time>2026-05-07T12:40:26.999Z</time>
      </trkpt>
      <trkpt lat="43.60075" lon="2.95719">
        <ele>618.5</ele>
        <time>2026-05-07T12:40:27.999Z</time>
      </trkpt>
      <trkpt lat="43.60074" lon="2.95719">
        <ele>618.6</ele>
        <time>2026-05-07T12:40:28.999Z</time>
      </trkpt>
      <trkpt lat="43.60073" lon="2.95718">
        <ele>618.7</ele>
        <time>2026-05-07T12:40:29.999Z</time>
      </trkpt>
      <trkpt lat="43.60072" lon="2.95719">
        <ele>618.2</ele>
        <time>2026-05-07T12:40:30.999Z</time>
      </trkpt>
      <trkpt lat="43.6007" lon="2.95718">
        <ele>617.7</ele>
        <time>2026-05-07T12:40:31.999Z</time>
      </trkpt>
      <trkpt lat="43.60069" lon="2.95719">
        <ele>617.3</ele>
        <time>2026-05-07T12:40:32.999Z</time>
      </trkpt>
      <trkpt lat="43.60068" lon="2.95719">
        <ele>617.1</ele>
        <time>2026-05-07T12:40:33.999Z</time>
      </trkpt>
      <trkpt lat="43.60067" lon="2.9572">
        <ele>617.1</ele>
        <time>2026-05-07T12:40:34.999Z</time>
      </trkpt>
      <trkpt lat="43.60066" lon="2.9572">
        <ele>617.1</ele>
        <time>2026-05-07T12:40:35.999Z</time>
      </trkpt>
      <trkpt lat="43.60065" lon="2.9572">
        <ele>616.9</ele>
        <time>2026-05-07T12:40:36.999Z</time>
      </trkpt>
      <trkpt lat="43.60065" lon="2.9572">
        <ele>616.3</ele>
        <time>2026-05-07T12:40:37.999Z</time>
      </trkpt>
      <trkpt lat="43.60064" lon="2.9572">
        <ele>616</ele>
        <time>2026-05-07T12:40:38.999Z</time>
      </trkpt>
      <trkpt lat="43.60063" lon="2.9572">
        <ele>616</ele>
        <time>2026-05-07T12:40:39.999Z</time>
      </trkpt>
      <trkpt lat="43.60062" lon="2.9572">
        <ele>616.3</ele>
        <time>2026-05-07T12:40:40.999Z</time>
      </trkpt>
      <trkpt lat="43.60061" lon="2.95719">
        <ele>616.8</ele>
        <time>2026-05-07T12:40:41.999Z</time>
      </trkpt>
      <trkpt lat="43.60059" lon="2.95718">
        <ele>617.5</ele>
        <time>2026-05-07T12:40:42.999Z</time>
      </trkpt>
      <trkpt lat="43.60058" lon="2.95718">
        <ele>617.5</ele>
        <time>2026-05-07T12:40:43.999Z</time>
      </trkpt>
      <trkpt lat="43.60058" lon="2.95719">
        <ele>617.2</ele>
        <time>2026-05-07T12:40:44.999Z</time>
      </trkpt>
      <trkpt lat="43.60057" lon="2.9572">
        <ele>616.8</ele>
        <time>2026-05-07T12:40:45.999Z</time>
      </trkpt>
      <trkpt lat="43.60055" lon="2.9572">
        <ele>616.7</ele>
        <time>2026-05-07T12:40:46.999Z</time>
      </trkpt>
      <trkpt lat="43.60054" lon="2.9572">
        <ele>616.6</ele>
        <time>2026-05-07T12:40:47.999Z</time>
      </trkpt>
      <trkpt lat="43.60053" lon="2.9572">
        <ele>616.4</ele>
        <time>2026-05-07T12:40:48.999Z</time>
      </trkpt>
      <trkpt lat="43.60052" lon="2.9572">
        <ele>616.2</ele>
        <time>2026-05-07T12:40:49.999Z</time>
      </trkpt>
      <trkpt lat="43.60052" lon="2.95721">
        <ele>616</ele>
        <time>2026-05-07T12:40:50.999Z</time>
      </trkpt>
      <trkpt lat="43.60052" lon="2.95721">
        <ele>615.8</ele>
        <time>2026-05-07T12:40:51.999Z</time>
      </trkpt>
      <trkpt lat="43.60053" lon="2.95722">
        <ele>615.7</ele>
        <time>2026-05-07T12:40:52.999Z</time>
      </trkpt>
      <trkpt lat="43.60053" lon="2.95723">
        <ele>615.6</ele>
        <time>2026-05-07T12:40:53.999Z</time>
      </trkpt>
      <trkpt lat="43.60053" lon="2.95722">
        <ele>615.5</ele>
        <time>2026-05-07T12:40:54.999Z</time>
      </trkpt>
      <trkpt lat="43.60053" lon="2.95722">
        <ele>615.3</ele>
        <time>2026-05-07T12:40:55.999Z</time>
      </trkpt>
      <trkpt lat="43.60053" lon="2.95721">
        <ele>614.5</ele>
        <time>2026-05-07T12:40:56.999Z</time>
      </trkpt>
      <trkpt lat="43.60053" lon="2.95719">
        <ele>614.6</ele>
        <time>2026-05-07T12:40:57.999Z</time>
      </trkpt>
      <trkpt lat="43.60053" lon="2.95719">
        <ele>614.8</ele>
        <time>2026-05-07T12:40:58.999Z</time>
      </trkpt>
      <trkpt lat="43.60054" lon="2.9572">
        <ele>614.8</ele>
        <time>2026-05-07T12:40:59.999Z</time>
      </trkpt>
      <trkpt lat="43.60054" lon="2.95719">
        <ele>614.7</ele>
        <time>2026-05-07T12:41:00.999Z</time>
      </trkpt>
      <trkpt lat="43.60054" lon="2.9572">
        <ele>614.6</ele>
        <time>2026-05-07T12:41:01.999Z</time>
      </trkpt>
      <trkpt lat="43.60054" lon="2.9572">
        <ele>614.6</ele>
        <time>2026-05-07T12:41:02.999Z</time>
      </trkpt>
      <trkpt lat="43.60054" lon="2.9572">
        <ele>614.5</ele>
        <time>2026-05-07T12:41:03.999Z</time>
      </trkpt>
      <trkpt lat="43.60054" lon="2.9572">
        <ele>614.5</ele>
        <time>2026-05-07T12:41:04.999Z</time>
      </trkpt>
      <trkpt lat="43.60054" lon="2.9572">
        <ele>614.3</ele>
        <time>2026-05-07T12:41:05.999Z</time>
      </trkpt>
      <trkpt lat="43.60054" lon="2.9572">
        <ele>614.1</ele>
        <time>2026-05-07T12:41:06.999Z</time>
      </trkpt>
      <trkpt lat="43.60054" lon="2.9572">
        <ele>613.8</ele>
        <time>2026-05-07T12:41:07.999Z</time>
      </trkpt>
      <trkpt lat="43.60053" lon="2.9572">
        <ele>613.6</ele>
        <time>2026-05-07T12:41:09.999Z</time>
      </trkpt>
      <trkpt lat="43.60052" lon="2.9572">
        <ele>613.5</ele>
        <time>2026-05-07T12:41:10.999Z</time>
      </trkpt>
      <trkpt lat="43.60052" lon="2.9572">
        <ele>613.2</ele>
        <time>2026-05-07T12:41:11.999Z</time>
      </trkpt>
      <trkpt lat="43.60052" lon="2.9572">
        <ele>613.1</ele>
        <time>2026-05-07T12:41:12.999Z</time>
      </trkpt>
      <trkpt lat="43.60052" lon="2.9572">
        <ele>612.9</ele>
        <time>2026-05-07T12:41:13.999Z</time>
      </trkpt>
      <trkpt lat="43.60053" lon="2.95719">
        <ele>613</ele>
        <time>2026-05-07T12:41:14.999Z</time>
      </trkpt>
      <trkpt lat="43.60053" lon="2.95719">
        <ele>613.1</ele>
        <time>2026-05-07T12:41:15.999Z</time>
      </trkpt>
      <trkpt lat="43.60054" lon="2.95718">
        <ele>613</ele>
        <time>2026-05-07T12:41:16.999Z</time>
      </trkpt>
      <trkpt lat="43.60054" lon="2.95718">
        <ele>613</ele>
        <time>2026-05-07T12:41:17.999Z</time>
      </trkpt>
      <trkpt lat="43.60054" lon="2.95717">
        <ele>613.1</ele>
        <time>2026-05-07T12:41:18.999Z</time>
      </trkpt>
      <trkpt lat="43.60054" lon="2.95716">
        <ele>613.1</ele>
        <time>2026-05-07T12:41:19.999Z</time>
      </trkpt>
      <trkpt lat="43.60054" lon="2.95716">
        <ele>613</ele>
        <time>2026-05-07T12:41:20.999Z</time>
      </trkpt>
      <trkpt lat="43.60054" lon="2.95716">
        <ele>612.6</ele>
        <time>2026-05-07T12:41:21.999Z</time>
      </trkpt>
      <trkpt lat="43.60054" lon="2.95715">
        <ele>612.4</ele>
        <time>2026-05-07T12:41:22.999Z</time>
      </trkpt>
      <trkpt lat="43.60055" lon="2.95715">
        <ele>612</ele>
        <time>2026-05-07T12:41:23.999Z</time>
      </trkpt>
      <trkpt lat="43.60055" lon="2.95715">
        <ele>612</ele>
        <time>2026-05-07T12:41:24.999Z</time>
      </trkpt>
      <trkpt lat="43.60056" lon="2.95713">
        <ele>611.9</ele>
        <time>2026-05-07T12:41:25.999Z</time>
      </trkpt>
      <trkpt lat="43.60057" lon="2.95711">
        <ele>611.6</ele>
        <time>2026-05-07T12:41:26.999Z</time>
      </trkpt>
      <trkpt lat="43.60057" lon="2.95711">
        <ele>611.3</ele>
        <time>2026-05-07T12:41:27.999Z</time>
      </trkpt>
      <trkpt lat="43.60058" lon="2.95711">
        <ele>611.3</ele>
        <time>2026-05-07T12:41:28.999Z</time>
      </trkpt>
      <trkpt lat="43.60057" lon="2.9571">
        <ele>610.9</ele>
        <time>2026-05-07T12:41:29.999Z</time>
      </trkpt>
      <trkpt lat="43.60057" lon="2.9571">
        <ele>610.7</ele>
        <time>2026-05-07T12:41:30.999Z</time>
      </trkpt>
      <trkpt lat="43.60057" lon="2.9571">
        <ele>610.6</ele>
        <time>2026-05-07T12:41:31.999Z</time>
      </trkpt>
      <trkpt lat="43.60057" lon="2.95709">
        <ele>611.2</ele>
        <time>2026-05-07T12:41:32.999Z</time>
      </trkpt>
      <trkpt lat="43.60057" lon="2.95709">
        <ele>610.9</ele>
        <time>2026-05-07T12:41:33.999Z</time>
      </trkpt>
      <trkpt lat="43.60057" lon="2.95709">
        <ele>610.6</ele>
        <time>2026-05-07T12:41:34.999Z</time>
      </trkpt>
      <trkpt lat="43.60057" lon="2.95709">
        <ele>610</ele>
        <time>2026-05-07T12:41:35.999Z</time>
      </trkpt>
      <trkpt lat="43.60056" lon="2.95709">
        <ele>609.7</ele>
        <time>2026-05-07T12:41:36.999Z</time>
      </trkpt>
      <trkpt lat="43.60056" lon="2.95709">
        <ele>609.2</ele>
        <time>2026-05-07T12:41:37.999Z</time>
      </trkpt>
      <trkpt lat="43.60056" lon="2.95709">
        <ele>609.3</ele>
        <time>2026-05-07T12:41:38.999Z</time>
      </trkpt>
      <trkpt lat="43.60056" lon="2.95709">
        <ele>609.2</ele>
        <time>2026-05-07T12:41:39.999Z</time>
      </trkpt>
      <trkpt lat="43.60056" lon="2.95709">
        <ele>609</ele>
        <time>2026-05-07T12:41:40.999Z</time>
      </trkpt>
      <trkpt lat="43.60056" lon="2.95708">
        <ele>608.5</ele>
        <time>2026-05-07T12:41:41.999Z</time>
      </trkpt>
      <trkpt lat="43.60056" lon="2.95708">
        <ele>608.2</ele>
        <time>2026-05-07T12:41:42.999Z</time>
      </trkpt>
      <trkpt lat="43.60056" lon="2.95708">
        <ele>608.5</ele>
        <time>2026-05-07T12:41:43.999Z</time>
      </trkpt>
      <trkpt lat="43.60056" lon="2.95708">
        <ele>608.4</ele>
        <time>2026-05-07T12:41:44.999Z</time>
      </trkpt>
      <trkpt lat="43.60056" lon="2.95708">
        <ele>608.8</ele>
        <time>2026-05-07T12:41:45.999Z</time>
      </trkpt>
      <trkpt lat="43.60056" lon="2.95708">
        <ele>609</ele>
        <time>2026-05-07T12:41:46.999Z</time>
      </trkpt>
      <trkpt lat="43.60056" lon="2.95708">
        <ele>609.3</ele>
        <time>2026-05-07T12:41:47.999Z</time>
      </trkpt>
      <trkpt lat="43.60056" lon="2.95708">
        <ele>609.5</ele>
        <time>2026-05-07T12:41:48.999Z</time>
      </trkpt>
      <trkpt lat="43.60054" lon="2.95707">
        <ele>609.6</ele>
        <time>2026-05-07T12:41:49.999Z</time>
      </trkpt>
      <trkpt lat="43.60054" lon="2.95708">
        <ele>609.7</ele>
        <time>2026-05-07T12:41:50.999Z</time>
      </trkpt>
      <trkpt lat="43.60052" lon="2.95708">
        <ele>609.8</ele>
        <time>2026-05-07T12:41:51.999Z</time>
      </trkpt>
      <trkpt lat="43.60052" lon="2.95708">
        <ele>609.8</ele>
        <time>2026-05-07T12:41:52.999Z</time>
      </trkpt>
      <trkpt lat="43.60051" lon="2.95708">
        <ele>609.7</ele>
        <time>2026-05-07T12:41:53.999Z</time>
      </trkpt>
      <trkpt lat="43.6005" lon="2.95708">
        <ele>609.5</ele>
        <time>2026-05-07T12:41:54.999Z</time>
      </trkpt>
      <trkpt lat="43.60049" lon="2.95707">
        <ele>609.4</ele>
        <time>2026-05-07T12:41:55.999Z</time>
      </trkpt>
      <trkpt lat="43.60048" lon="2.95706">
        <ele>609.1</ele>
        <time>2026-05-07T12:41:56.999Z</time>
      </trkpt>
      <trkpt lat="43.60047" lon="2.95706">
        <ele>608.9</ele>
        <time>2026-05-07T12:41:57.999Z</time>
      </trkpt>
      <trkpt lat="43.60046" lon="2.95705">
        <ele>608.8</ele>
        <time>2026-05-07T12:41:58.999Z</time>
      </trkpt>
      <trkpt lat="43.60046" lon="2.95706">
        <ele>608.5</ele>
        <time>2026-05-07T12:41:59.999Z</time>
      </trkpt>
      <trkpt lat="43.60045" lon="2.95706">
        <ele>607.9</ele>
        <time>2026-05-07T12:42:00.999Z</time>
      </trkpt>
      <trkpt lat="43.60045" lon="2.95706">
        <ele>607.5</ele>
        <time>2026-05-07T12:42:01.999Z</time>
      </trkpt>
      <trkpt lat="43.60045" lon="2.95706">
        <ele>607.3</ele>
        <time>2026-05-07T12:42:02.999Z</time>
      </trkpt>
      <trkpt lat="43.60044" lon="2.95707">
        <ele>607</ele>
        <time>2026-05-07T12:42:03.999Z</time>
      </trkpt>
      <trkpt lat="43.60044" lon="2.95706">
        <ele>606.8</ele>
        <time>2026-05-07T12:42:04.999Z</time>
      </trkpt>
      <trkpt lat="43.60045" lon="2.95706">
        <ele>606.5</ele>
        <time>2026-05-07T12:42:05.999Z</time>
      </trkpt>
      <trkpt lat="43.60045" lon="2.95706">
        <ele>606.2</ele>
        <time>2026-05-07T12:42:06.999Z</time>
      </trkpt>
      <trkpt lat="43.60045" lon="2.95706">
        <ele>606</ele>
        <time>2026-05-07T12:42:07.999Z</time>
      </trkpt>
      <trkpt lat="43.60046" lon="2.95707">
        <ele>605.7</ele>
        <time>2026-05-07T12:42:08.999Z</time>
      </trkpt>
      <trkpt lat="43.60047" lon="2.95707">
        <ele>605.8</ele>
        <time>2026-05-07T12:42:09.999Z</time>
      </trkpt>
      <trkpt lat="43.60048" lon="2.95706">
        <ele>605.5</ele>
        <time>2026-05-07T12:42:10.999Z</time>
      </trkpt>
      <trkpt lat="43.60048" lon="2.95705">
        <ele>605.3</ele>
        <time>2026-05-07T12:42:11.999Z</time>
      </trkpt>
      <trkpt lat="43.60048" lon="2.95705">
        <ele>605.4</ele>
        <time>2026-05-07T12:42:12.999Z</time>
      </trkpt>
      <trkpt lat="43.60049" lon="2.95703">
        <ele>605.3</ele>
        <time>2026-05-07T12:42:13.999Z</time>
      </trkpt>
      <trkpt lat="43.6005" lon="2.95702">
        <ele>605.2</ele>
        <time>2026-05-07T12:42:14.999Z</time>
      </trkpt>
      <trkpt lat="43.6005" lon="2.95702">
        <ele>605.2</ele>
        <time>2026-05-07T12:42:15.999Z</time>
      </trkpt>
      <trkpt lat="43.6005" lon="2.95701">
        <ele>605.5</ele>
        <time>2026-05-07T12:42:16.999Z</time>
      </trkpt>
      <trkpt lat="43.6005" lon="2.95701">
        <ele>605.4</ele>
        <time>2026-05-07T12:42:17.999Z</time>
      </trkpt>
      <trkpt lat="43.6005" lon="2.95701">
        <ele>604.9</ele>
        <time>2026-05-07T12:42:18.999Z</time>
      </trkpt>
      <trkpt lat="43.6005" lon="2.95701">
        <ele>604.6</ele>
        <time>2026-05-07T12:42:19.999Z</time>
      </trkpt>
      <trkpt lat="43.6005" lon="2.95701">
        <ele>604.3</ele>
        <time>2026-05-07T12:42:20.999Z</time>
      </trkpt>
      <trkpt lat="43.6005" lon="2.95701">
        <ele>603.6</ele>
        <time>2026-05-07T12:42:21.999Z</time>
      </trkpt>
      <trkpt lat="43.6005" lon="2.957">
        <ele>603.1</ele>
        <time>2026-05-07T12:42:22.999Z</time>
      </trkpt>
      <trkpt lat="43.6005" lon="2.957">
        <ele>602.7</ele>
        <time>2026-05-07T12:42:23.999Z</time>
      </trkpt>
      <trkpt lat="43.6005" lon="2.957">
        <ele>602.1</ele>
        <time>2026-05-07T12:42:24.999Z</time>
      </trkpt>
      <trkpt lat="43.60051" lon="2.957">
        <ele>601.6</ele>
        <time>2026-05-07T12:42:25.999Z</time>
      </trkpt>
      <trkpt lat="43.60051" lon="2.95699">
        <ele>601.5</ele>
        <time>2026-05-07T12:42:26.999Z</time>
      </trkpt>
      <trkpt lat="43.60051" lon="2.95699">
        <ele>601.6</ele>
        <time>2026-05-07T12:42:27.999Z</time>
      </trkpt>
      <trkpt lat="43.60051" lon="2.95698">
        <ele>601.2</ele>
        <time>2026-05-07T12:42:28.999Z</time>
      </trkpt>
      <trkpt lat="43.60051" lon="2.95698">
        <ele>600.6</ele>
        <time>2026-05-07T12:42:29.999Z</time>
      </trkpt>
      <trkpt lat="43.60051" lon="2.95697">
        <ele>600.5</ele>
        <time>2026-05-07T12:42:30.999Z</time>
      </trkpt>
      <trkpt lat="43.60051" lon="2.95696">
        <ele>600.5</ele>
        <time>2026-05-07T12:42:31.999Z</time>
      </trkpt>
      <trkpt lat="43.60051" lon="2.95694">
        <ele>600.3</ele>
        <time>2026-05-07T12:42:32.999Z</time>
      </trkpt>
      <trkpt lat="43.6005" lon="2.95692">
        <ele>600.1</ele>
        <time>2026-05-07T12:42:33.999Z</time>
      </trkpt>
      <trkpt lat="43.6005" lon="2.95692">
        <ele>599.9</ele>
        <time>2026-05-07T12:42:34.999Z</time>
      </trkpt>
      <trkpt lat="43.6005" lon="2.95692">
        <ele>599.4</ele>
        <time>2026-05-07T12:42:35.999Z</time>
      </trkpt>
      <trkpt lat="43.6005" lon="2.95691">
        <ele>598.9</ele>
        <time>2026-05-07T12:42:36.999Z</time>
      </trkpt>
      <trkpt lat="43.6005" lon="2.95691">
        <ele>598.8</ele>
        <time>2026-05-07T12:42:37.999Z</time>
      </trkpt>
      <trkpt lat="43.6005" lon="2.95691">
        <ele>598.8</ele>
        <time>2026-05-07T12:42:38.999Z</time>
      </trkpt>
      <trkpt lat="43.6005" lon="2.95691">
        <ele>598.3</ele>
        <time>2026-05-07T12:42:39.999Z</time>
      </trkpt>
      <trkpt lat="43.6005" lon="2.9569">
        <ele>597.9</ele>
        <time>2026-05-07T12:42:40.999Z</time>
      </trkpt>
      <trkpt lat="43.6005" lon="2.9569">
        <ele>597.5</ele>
        <time>2026-05-07T12:42:41.999Z</time>
      </trkpt>
      <trkpt lat="43.6005" lon="2.95689">
        <ele>597.2</ele>
        <time>2026-05-07T12:42:42.999Z</time>
      </trkpt>
      <trkpt lat="43.6005" lon="2.95689">
        <ele>597</ele>
        <time>2026-05-07T12:42:43.999Z</time>
      </trkpt>
      <trkpt lat="43.60051" lon="2.95687">
        <ele>596.7</ele>
        <time>2026-05-07T12:42:44.999Z</time>
      </trkpt>
      <trkpt lat="43.6005" lon="2.95684">
        <ele>596.5</ele>
        <time>2026-05-07T12:42:45.999Z</time>
      </trkpt>
      <trkpt lat="43.6005" lon="2.95683">
        <ele>596.5</ele>
        <time>2026-05-07T12:42:46.999Z</time>
      </trkpt>
      <trkpt lat="43.6005" lon="2.95682">
        <ele>596.5</ele>
        <time>2026-05-07T12:42:47.999Z</time>
      </trkpt>
      <trkpt lat="43.6005" lon="2.95682">
        <ele>596.6</ele>
        <time>2026-05-07T12:42:48.999Z</time>
      </trkpt>
      <trkpt lat="43.60049" lon="2.95682">
        <ele>596.9</ele>
        <time>2026-05-07T12:42:49.999Z</time>
      </trkpt>
      <trkpt lat="43.60049" lon="2.95682">
        <ele>596.9</ele>
        <time>2026-05-07T12:42:50.999Z</time>
      </trkpt>
      <trkpt lat="43.60049" lon="2.95682">
        <ele>597</ele>
        <time>2026-05-07T12:42:51.999Z</time>
      </trkpt>
      <trkpt lat="43.60049" lon="2.95682">
        <ele>597.1</ele>
        <time>2026-05-07T12:42:52.999Z</time>
      </trkpt>
      <trkpt lat="43.60048" lon="2.95682">
        <ele>597</ele>
        <time>2026-05-07T12:42:53.999Z</time>
      </trkpt>
      <trkpt lat="43.60048" lon="2.95682">
        <ele>596.9</ele>
        <time>2026-05-07T12:42:54.999Z</time>
      </trkpt>
      <trkpt lat="43.60048" lon="2.95682">
        <ele>596.6</ele>
        <time>2026-05-07T12:42:55.999Z</time>
      </trkpt>
      <trkpt lat="43.60047" lon="2.95683">
        <ele>596.4</ele>
        <time>2026-05-07T12:42:56.999Z</time>
      </trkpt>
      <trkpt lat="43.60047" lon="2.95683">
        <ele>596.1</ele>
        <time>2026-05-07T12:42:57.999Z</time>
      </trkpt>
      <trkpt lat="43.60047" lon="2.95682">
        <ele>595.8</ele>
        <time>2026-05-07T12:42:58.999Z</time>
      </trkpt>
      <trkpt lat="43.60047" lon="2.95681">
        <ele>595.5</ele>
        <time>2026-05-07T12:42:59.999Z</time>
      </trkpt>
      <trkpt lat="43.60046" lon="2.95681">
        <ele>595</ele>
        <time>2026-05-07T12:43:00.999Z</time>
      </trkpt>
      <trkpt lat="43.60046" lon="2.9568">
        <ele>594.8</ele>
        <time>2026-05-07T12:43:01.999Z</time>
      </trkpt>
      <trkpt lat="43.60046" lon="2.95677">
        <ele>594.7</ele>
        <time>2026-05-07T12:43:02.999Z</time>
      </trkpt>
      <trkpt lat="43.60047" lon="2.95676">
        <ele>594.3</ele>
        <time>2026-05-07T12:43:03.999Z</time>
      </trkpt>
      <trkpt lat="43.60046" lon="2.95674">
        <ele>594.1</ele>
        <time>2026-05-07T12:43:04.999Z</time>
      </trkpt>
      <trkpt lat="43.60045" lon="2.95672">
        <ele>593.8</ele>
        <time>2026-05-07T12:43:05.999Z</time>
      </trkpt>
      <trkpt lat="43.60045" lon="2.95672">
        <ele>594.1</ele>
        <time>2026-05-07T12:43:06.999Z</time>
      </trkpt>
      <trkpt lat="43.60045" lon="2.95672">
        <ele>593.9</ele>
        <time>2026-05-07T12:43:07.999Z</time>
      </trkpt>
      <trkpt lat="43.60045" lon="2.95671">
        <ele>594</ele>
        <time>2026-05-07T12:43:08.999Z</time>
      </trkpt>
      <trkpt lat="43.60045" lon="2.95671">
        <ele>594</ele>
        <time>2026-05-07T12:43:09.999Z</time>
      </trkpt>
      <trkpt lat="43.60045" lon="2.95671">
        <ele>594</ele>
        <time>2026-05-07T12:43:10.999Z</time>
      </trkpt>
      <trkpt lat="43.60045" lon="2.95671">
        <ele>593.9</ele>
        <time>2026-05-07T12:43:11.999Z</time>
      </trkpt>
      <trkpt lat="43.60045" lon="2.95671">
        <ele>593.5</ele>
        <time>2026-05-07T12:43:12.999Z</time>
      </trkpt>
      <trkpt lat="43.60045" lon="2.9567">
        <ele>593.2</ele>
        <time>2026-05-07T12:43:13.999Z</time>
      </trkpt>
      <trkpt lat="43.60045" lon="2.9567">
        <ele>593</ele>
        <time>2026-05-07T12:43:14.999Z</time>
      </trkpt>
      <trkpt lat="43.60045" lon="2.9567">
        <ele>592.6</ele>
        <time>2026-05-07T12:43:15.999Z</time>
      </trkpt>
      <trkpt lat="43.60045" lon="2.95669">
        <ele>592.3</ele>
        <time>2026-05-07T12:43:16.999Z</time>
      </trkpt>
      <trkpt lat="43.60045" lon="2.95669">
        <ele>592.2</ele>
        <time>2026-05-07T12:43:17.999Z</time>
      </trkpt>
      <trkpt lat="43.60045" lon="2.95669">
        <ele>592</ele>
        <time>2026-05-07T12:43:18.999Z</time>
      </trkpt>
      <trkpt lat="43.60045" lon="2.95669">
        <ele>592</ele>
        <time>2026-05-07T12:43:19.999Z</time>
      </trkpt>
      <trkpt lat="43.60045" lon="2.95669">
        <ele>591.8</ele>
        <time>2026-05-07T12:43:20.999Z</time>
      </trkpt>
      <trkpt lat="43.60045" lon="2.95668">
        <ele>591.3</ele>
        <time>2026-05-07T12:43:21.999Z</time>
      </trkpt>
      <trkpt lat="43.60044" lon="2.95668">
        <ele>590.9</ele>
        <time>2026-05-07T12:43:22.999Z</time>
      </trkpt>
      <trkpt lat="43.60044" lon="2.95668">
        <ele>590.8</ele>
        <time>2026-05-07T12:43:23.999Z</time>
      </trkpt>
      <trkpt lat="43.60044" lon="2.95668">
        <ele>590.7</ele>
        <time>2026-05-07T12:43:24.999Z</time>
      </trkpt>
      <trkpt lat="43.60044" lon="2.95668">
        <ele>590.6</ele>
        <time>2026-05-07T12:43:25.999Z</time>
      </trkpt>
      <trkpt lat="43.60044" lon="2.95667">
        <ele>590.5</ele>
        <time>2026-05-07T12:43:26.999Z</time>
      </trkpt>
      <trkpt lat="43.60043" lon="2.95666">
        <ele>590.2</ele>
        <time>2026-05-07T12:43:27.999Z</time>
      </trkpt>
      <trkpt lat="43.60042" lon="2.95665">
        <ele>589.8</ele>
        <time>2026-05-07T12:43:28.999Z</time>
      </trkpt>
      <trkpt lat="43.60041" lon="2.95665">
        <ele>589.7</ele>
        <time>2026-05-07T12:43:29.999Z</time>
      </trkpt>
      <trkpt lat="43.6004" lon="2.95665">
        <ele>589.7</ele>
        <time>2026-05-07T12:43:30.999Z</time>
      </trkpt>
      <trkpt lat="43.6004" lon="2.95664">
        <ele>589.7</ele>
        <time>2026-05-07T12:43:31.999Z</time>
      </trkpt>
      <trkpt lat="43.60039" lon="2.95664">
        <ele>589.6</ele>
        <time>2026-05-07T12:43:32.999Z</time>
      </trkpt>
      <trkpt lat="43.60038" lon="2.95664">
        <ele>589.4</ele>
        <time>2026-05-07T12:43:33.999Z</time>
      </trkpt>
      <trkpt lat="43.60038" lon="2.95663">
        <ele>589.4</ele>
        <time>2026-05-07T12:43:34.999Z</time>
      </trkpt>
      <trkpt lat="43.60039" lon="2.95663">
        <ele>589.2</ele>
        <time>2026-05-07T12:43:35.999Z</time>
      </trkpt>
      <trkpt lat="43.6004" lon="2.95661">
        <ele>588.9</ele>
        <time>2026-05-07T12:43:36.999Z</time>
      </trkpt>
      <trkpt lat="43.6004" lon="2.95659">
        <ele>588.5</ele>
        <time>2026-05-07T12:43:37.999Z</time>
      </trkpt>
      <trkpt lat="43.6004" lon="2.95657">
        <ele>588.2</ele>
        <time>2026-05-07T12:43:38.999Z</time>
      </trkpt>
      <trkpt lat="43.6004" lon="2.95656">
        <ele>588.1</ele>
        <time>2026-05-07T12:43:39.999Z</time>
      </trkpt>
      <trkpt lat="43.6004" lon="2.95655">
        <ele>588</ele>
        <time>2026-05-07T12:43:40.999Z</time>
      </trkpt>
      <trkpt lat="43.60039" lon="2.95653">
        <ele>588</ele>
        <time>2026-05-07T12:43:41.999Z</time>
      </trkpt>
      <trkpt lat="43.60038" lon="2.95651">
        <ele>588</ele>
        <time>2026-05-07T12:43:42.999Z</time>
      </trkpt>
      <trkpt lat="43.60037" lon="2.95651">
        <ele>587.8</ele>
        <time>2026-05-07T12:43:43.999Z</time>
      </trkpt>
      <trkpt lat="43.60037" lon="2.9565">
        <ele>587.5</ele>
        <time>2026-05-07T12:43:44.999Z</time>
      </trkpt>
      <trkpt lat="43.60037" lon="2.9565">
        <ele>587.4</ele>
        <time>2026-05-07T12:43:45.999Z</time>
      </trkpt>
      <trkpt lat="43.60037" lon="2.9565">
        <ele>586.9</ele>
        <time>2026-05-07T12:43:46.999Z</time>
      </trkpt>
      <trkpt lat="43.60037" lon="2.9565">
        <ele>586</ele>
        <time>2026-05-07T12:43:47.999Z</time>
      </trkpt>
      <trkpt lat="43.60036" lon="2.9565">
        <ele>585.4</ele>
        <time>2026-05-07T12:43:48.999Z</time>
      </trkpt>
      <trkpt lat="43.60035" lon="2.9565">
        <ele>584.6</ele>
        <time>2026-05-07T12:43:49.999Z</time>
      </trkpt>
      <trkpt lat="43.60034" lon="2.9565">
        <ele>584.4</ele>
        <time>2026-05-07T12:43:50.999Z</time>
      </trkpt>
      <trkpt lat="43.60034" lon="2.9565">
        <ele>584.4</ele>
        <time>2026-05-07T12:43:51.999Z</time>
      </trkpt>
      <trkpt lat="43.60034" lon="2.95649">
        <ele>584.1</ele>
        <time>2026-05-07T12:43:52.999Z</time>
      </trkpt>
      <trkpt lat="43.60034" lon="2.95649">
        <ele>583.4</ele>
        <time>2026-05-07T12:43:53.999Z</time>
      </trkpt>
      <trkpt lat="43.60034" lon="2.95649">
        <ele>582.9</ele>
        <time>2026-05-07T12:43:54.999Z</time>
      </trkpt>
      <trkpt lat="43.60034" lon="2.95649">
        <ele>582.8</ele>
        <time>2026-05-07T12:43:55.999Z</time>
      </trkpt>
      <trkpt lat="43.60034" lon="2.95649">
        <ele>582.7</ele>
        <time>2026-05-07T12:43:56.999Z</time>
      </trkpt>
      <trkpt lat="43.60033" lon="2.95648">
        <ele>582.6</ele>
        <time>2026-05-07T12:43:57.999Z</time>
      </trkpt>
      <trkpt lat="43.60033" lon="2.95648">
        <ele>582.4</ele>
        <time>2026-05-07T12:43:58.999Z</time>
      </trkpt>
      <trkpt lat="43.60033" lon="2.95649">
        <ele>582.4</ele>
        <time>2026-05-07T12:43:59.999Z</time>
      </trkpt>
      <trkpt lat="43.60033" lon="2.95649">
        <ele>582.5</ele>
        <time>2026-05-07T12:44:00.999Z</time>
      </trkpt>
      <trkpt lat="43.60033" lon="2.95649">
        <ele>582.4</ele>
        <time>2026-05-07T12:44:01.999Z</time>
      </trkpt>
      <trkpt lat="43.60033" lon="2.95649">
        <ele>582.1</ele>
        <time>2026-05-07T12:44:03.999Z</time>
      </trkpt>
      <trkpt lat="43.60033" lon="2.9565">
        <ele>582.1</ele>
        <time>2026-05-07T12:44:04.999Z</time>
      </trkpt>
      <trkpt lat="43.60033" lon="2.9565">
        <ele>582.4</ele>
        <time>2026-05-07T12:44:05.999Z</time>
      </trkpt>
      <trkpt lat="43.60031" lon="2.95652">
        <ele>582.5</ele>
        <time>2026-05-07T12:44:06.999Z</time>
      </trkpt>
      <trkpt lat="43.6003" lon="2.95654">
        <ele>582.3</ele>
        <time>2026-05-07T12:44:07.999Z</time>
      </trkpt>
      <trkpt lat="43.60028" lon="2.95655">
        <ele>582.1</ele>
        <time>2026-05-07T12:44:08.999Z</time>
      </trkpt>
      <trkpt lat="43.60027" lon="2.95657">
        <ele>581.9</ele>
        <time>2026-05-07T12:44:09.999Z</time>
      </trkpt>
      <trkpt lat="43.60026" lon="2.95658">
        <ele>581.7</ele>
        <time>2026-05-07T12:44:10.999Z</time>
      </trkpt>
      <trkpt lat="43.60025" lon="2.95659">
        <ele>581.8</ele>
        <time>2026-05-07T12:44:11.999Z</time>
      </trkpt>
      <trkpt lat="43.60023" lon="2.9566">
        <ele>581.8</ele>
        <time>2026-05-07T12:44:12.999Z</time>
      </trkpt>
      <trkpt lat="43.60022" lon="2.95662">
        <ele>581.7</ele>
        <time>2026-05-07T12:44:13.999Z</time>
      </trkpt>
      <trkpt lat="43.6002" lon="2.95664">
        <ele>582</ele>
        <time>2026-05-07T12:44:14.999Z</time>
      </trkpt>
      <trkpt lat="43.60021" lon="2.95663">
        <ele>582.3</ele>
        <time>2026-05-07T12:44:15.999Z</time>
      </trkpt>
      <trkpt lat="43.60021" lon="2.95662">
        <ele>582.6</ele>
        <time>2026-05-07T12:44:16.999Z</time>
      </trkpt>
      <trkpt lat="43.60021" lon="2.95662">
        <ele>582.6</ele>
        <time>2026-05-07T12:44:17.999Z</time>
      </trkpt>
      <trkpt lat="43.60022" lon="2.9566">
        <ele>583.4</ele>
        <time>2026-05-07T12:44:18.999Z</time>
      </trkpt>
      <trkpt lat="43.60022" lon="2.95659">
        <ele>582.6</ele>
        <time>2026-05-07T12:44:19.999Z</time>
      </trkpt>
      <trkpt lat="43.60021" lon="2.95658">
        <ele>582.1</ele>
        <time>2026-05-07T12:44:20.999Z</time>
      </trkpt>
      <trkpt lat="43.60021" lon="2.95658">
        <ele>582.4</ele>
        <time>2026-05-07T12:44:21.999Z</time>
      </trkpt>
      <trkpt lat="43.6002" lon="2.95658">
        <ele>582.1</ele>
        <time>2026-05-07T12:44:22.999Z</time>
      </trkpt>
      <trkpt lat="43.60019" lon="2.95657">
        <ele>582.3</ele>
        <time>2026-05-07T12:44:23.999Z</time>
      </trkpt>
      <trkpt lat="43.60018" lon="2.95654">
        <ele>582.9</ele>
        <time>2026-05-07T12:44:24.999Z</time>
      </trkpt>
      <trkpt lat="43.60017" lon="2.95649">
        <ele>583</ele>
        <time>2026-05-07T12:44:25.999Z</time>
      </trkpt>
      <trkpt lat="43.60016" lon="2.95646">
        <ele>583.6</ele>
        <time>2026-05-07T12:44:26.999Z</time>
      </trkpt>
      <trkpt lat="43.60015" lon="2.95643">
        <ele>583.4</ele>
        <time>2026-05-07T12:44:27.999Z</time>
      </trkpt>
      <trkpt lat="43.60014" lon="2.95642">
        <ele>583.3</ele>
        <time>2026-05-07T12:44:28.999Z</time>
      </trkpt>
      <trkpt lat="43.60013" lon="2.95636">
        <ele>582.6</ele>
        <time>2026-05-07T12:44:30.999Z</time>
      </trkpt>
      <trkpt lat="43.60013" lon="2.95633">
        <ele>582.5</ele>
        <time>2026-05-07T12:44:31.999Z</time>
      </trkpt>
      <trkpt lat="43.60013" lon="2.95631">
        <ele>582.8</ele>
        <time>2026-05-07T12:44:32.999Z</time>
      </trkpt>
      <trkpt lat="43.60012" lon="2.95629">
        <ele>582.8</ele>
        <time>2026-05-07T12:44:33.999Z</time>
      </trkpt>
      <trkpt lat="43.60011" lon="2.95627">
        <ele>581.9</ele>
        <time>2026-05-07T12:44:34.999Z</time>
      </trkpt>
      <trkpt lat="43.60011" lon="2.95625">
        <ele>581.1</ele>
        <time>2026-05-07T12:44:35.999Z</time>
      </trkpt>
      <trkpt lat="43.60011" lon="2.95624">
        <ele>580.8</ele>
        <time>2026-05-07T12:44:36.999Z</time>
      </trkpt>
      <trkpt lat="43.60011" lon="2.95624">
        <ele>580.4</ele>
        <time>2026-05-07T12:44:37.999Z</time>
      </trkpt>
      <trkpt lat="43.6001" lon="2.95624">
        <ele>580.3</ele>
        <time>2026-05-07T12:44:38.999Z</time>
      </trkpt>
      <trkpt lat="43.6001" lon="2.95624">
        <ele>579.6</ele>
        <time>2026-05-07T12:44:39.999Z</time>
      </trkpt>
      <trkpt lat="43.6001" lon="2.95623">
        <ele>578.8</ele>
        <time>2026-05-07T12:44:40.999Z</time>
      </trkpt>
      <trkpt lat="43.6001" lon="2.95623">
        <ele>576.8</ele>
        <time>2026-05-07T12:44:41.999Z</time>
      </trkpt>
      <trkpt lat="43.6001" lon="2.95623">
        <ele>576.4</ele>
        <time>2026-05-07T12:44:42.999Z</time>
      </trkpt>
      <trkpt lat="43.6001" lon="2.95623">
        <ele>576.1</ele>
        <time>2026-05-07T12:44:43.999Z</time>
      </trkpt>
      <trkpt lat="43.60009" lon="2.95622">
        <ele>576</ele>
        <time>2026-05-07T12:44:44.999Z</time>
      </trkpt>
      <trkpt lat="43.60008" lon="2.95622">
        <ele>575.9</ele>
        <time>2026-05-07T12:44:45.999Z</time>
      </trkpt>
      <trkpt lat="43.60006" lon="2.95622">
        <ele>575.9</ele>
        <time>2026-05-07T12:44:46.999Z</time>
      </trkpt>
      <trkpt lat="43.60006" lon="2.95622">
        <ele>575.7</ele>
        <time>2026-05-07T12:44:47.999Z</time>
      </trkpt>
      <trkpt lat="43.60005" lon="2.95621">
        <ele>575.1</ele>
        <time>2026-05-07T12:44:48.999Z</time>
      </trkpt>
      <trkpt lat="43.60004" lon="2.9562">
        <ele>574.4</ele>
        <time>2026-05-07T12:44:49.999Z</time>
      </trkpt>
      <trkpt lat="43.60004" lon="2.95618">
        <ele>573.9</ele>
        <time>2026-05-07T12:44:50.999Z</time>
      </trkpt>
      <trkpt lat="43.60004" lon="2.95617">
        <ele>573.7</ele>
        <time>2026-05-07T12:44:51.999Z</time>
      </trkpt>
      <trkpt lat="43.60005" lon="2.95616">
        <ele>573.7</ele>
        <time>2026-05-07T12:44:52.999Z</time>
      </trkpt>
      <trkpt lat="43.60005" lon="2.95615">
        <ele>573.5</ele>
        <time>2026-05-07T12:44:53.999Z</time>
      </trkpt>
      <trkpt lat="43.60005" lon="2.95614">
        <ele>572.8</ele>
        <time>2026-05-07T12:44:54.999Z</time>
      </trkpt>
      <trkpt lat="43.60005" lon="2.95613">
        <ele>572</ele>
        <time>2026-05-07T12:44:55.999Z</time>
      </trkpt>
      <trkpt lat="43.60006" lon="2.95613">
        <ele>571.3</ele>
        <time>2026-05-07T12:44:56.999Z</time>
      </trkpt>
      <trkpt lat="43.60005" lon="2.95612">
        <ele>570.3</ele>
        <time>2026-05-07T12:44:57.999Z</time>
      </trkpt>
      <trkpt lat="43.60006" lon="2.9561">
        <ele>569.7</ele>
        <time>2026-05-07T12:44:58.999Z</time>
      </trkpt>
      <trkpt lat="43.60006" lon="2.95609">
        <ele>569</ele>
        <time>2026-05-07T12:44:59.999Z</time>
      </trkpt>
      <trkpt lat="43.60006" lon="2.95609">
        <ele>568.1</ele>
        <time>2026-05-07T12:45:00.999Z</time>
      </trkpt>
      <trkpt lat="43.60006" lon="2.9561">
        <ele>567.7</ele>
        <time>2026-05-07T12:45:01.999Z</time>
      </trkpt>
      <trkpt lat="43.60005" lon="2.95611">
        <ele>567</ele>
        <time>2026-05-07T12:45:02.999Z</time>
      </trkpt>
      <trkpt lat="43.60004" lon="2.95611">
        <ele>565.8</ele>
        <time>2026-05-07T12:45:03.999Z</time>
      </trkpt>
      <trkpt lat="43.60003" lon="2.95611">
        <ele>571.1</ele>
        <time>2026-05-07T12:45:04.999Z</time>
      </trkpt>
      <trkpt lat="43.60003" lon="2.9561">
        <ele>570.9</ele>
        <time>2026-05-07T12:45:05.999Z</time>
      </trkpt>
      <trkpt lat="43.60003" lon="2.95608">
        <ele>570.1</ele>
        <time>2026-05-07T12:45:06.999Z</time>
      </trkpt>
      <trkpt lat="43.60002" lon="2.95607">
        <ele>569.7</ele>
        <time>2026-05-07T12:45:07.999Z</time>
      </trkpt>
      <trkpt lat="43.60002" lon="2.95605">
        <ele>569.4</ele>
        <time>2026-05-07T12:45:08.999Z</time>
      </trkpt>
      <trkpt lat="43.60001" lon="2.95603">
        <ele>568.5</ele>
        <time>2026-05-07T12:45:09.999Z</time>
      </trkpt>
      <trkpt lat="43.59998" lon="2.95602">
        <ele>568.8</ele>
        <time>2026-05-07T12:45:10.999Z</time>
      </trkpt>
      <trkpt lat="43.59997" lon="2.95599">
        <ele>568.7</ele>
        <time>2026-05-07T12:45:11.999Z</time>
      </trkpt>
      <trkpt lat="43.59997" lon="2.95597">
        <ele>568.3</ele>
        <time>2026-05-07T12:45:12.999Z</time>
      </trkpt>
      <trkpt lat="43.59995" lon="2.95597">
        <ele>568.2</ele>
        <time>2026-05-07T12:45:13.999Z</time>
      </trkpt>
      <trkpt lat="43.59994" lon="2.95596">
        <ele>568</ele>
        <time>2026-05-07T12:45:14.999Z</time>
      </trkpt>
      <trkpt lat="43.59993" lon="2.95595">
        <ele>568.3</ele>
        <time>2026-05-07T12:45:15.999Z</time>
      </trkpt>
      <trkpt lat="43.59993" lon="2.95594">
        <ele>568.3</ele>
        <time>2026-05-07T12:45:16.999Z</time>
      </trkpt>
      <trkpt lat="43.59993" lon="2.95593">
        <ele>568</ele>
        <time>2026-05-07T12:45:17.999Z</time>
      </trkpt>
      <trkpt lat="43.59992" lon="2.95593">
        <ele>567.7</ele>
        <time>2026-05-07T12:45:18.999Z</time>
      </trkpt>
      <trkpt lat="43.59991" lon="2.95591">
        <ele>567.7</ele>
        <time>2026-05-07T12:45:19.999Z</time>
      </trkpt>
      <trkpt lat="43.5999" lon="2.9559">
        <ele>567.4</ele>
        <time>2026-05-07T12:45:20.999Z</time>
      </trkpt>
      <trkpt lat="43.5999" lon="2.95588">
        <ele>567.1</ele>
        <time>2026-05-07T12:45:21.999Z</time>
      </trkpt>
      <trkpt lat="43.59989" lon="2.95588">
        <ele>566.7</ele>
        <time>2026-05-07T12:45:22.999Z</time>
      </trkpt>
      <trkpt lat="43.59988" lon="2.95587">
        <ele>566.5</ele>
        <time>2026-05-07T12:45:23.999Z</time>
      </trkpt>
      <trkpt lat="43.59987" lon="2.95587">
        <ele>566.5</ele>
        <time>2026-05-07T12:45:24.999Z</time>
      </trkpt>
      <trkpt lat="43.59986" lon="2.95586">
        <ele>566.5</ele>
        <time>2026-05-07T12:45:25.999Z</time>
      </trkpt>
      <trkpt lat="43.59986" lon="2.95585">
        <ele>566.8</ele>
        <time>2026-05-07T12:45:26.999Z</time>
      </trkpt>
      <trkpt lat="43.59985" lon="2.95584">
        <ele>566.4</ele>
        <time>2026-05-07T12:45:27.999Z</time>
      </trkpt>
      <trkpt lat="43.59984" lon="2.95583">
        <ele>565.8</ele>
        <time>2026-05-07T12:45:28.999Z</time>
      </trkpt>
      <trkpt lat="43.59984" lon="2.95582">
        <ele>565.3</ele>
        <time>2026-05-07T12:45:29.999Z</time>
      </trkpt>
      <trkpt lat="43.59983" lon="2.95583">
        <ele>565.3</ele>
        <time>2026-05-07T12:45:30.999Z</time>
      </trkpt>
      <trkpt lat="43.59983" lon="2.95581">
        <ele>565.5</ele>
        <time>2026-05-07T12:45:31.999Z</time>
      </trkpt>
      <trkpt lat="43.59982" lon="2.95581">
        <ele>564.9</ele>
        <time>2026-05-07T12:45:32.999Z</time>
      </trkpt>
      <trkpt lat="43.59981" lon="2.95581">
        <ele>565</ele>
        <time>2026-05-07T12:45:33.999Z</time>
      </trkpt>
      <trkpt lat="43.5998" lon="2.9558">
        <ele>564.6</ele>
        <time>2026-05-07T12:45:34.999Z</time>
      </trkpt>
      <trkpt lat="43.59979" lon="2.9558">
        <ele>563.9</ele>
        <time>2026-05-07T12:45:35.999Z</time>
      </trkpt>
      <trkpt lat="43.59977" lon="2.95579">
        <ele>563.9</ele>
        <time>2026-05-07T12:45:36.999Z</time>
      </trkpt>
      <trkpt lat="43.59976" lon="2.95579">
        <ele>564</ele>
        <time>2026-05-07T12:45:37.999Z</time>
      </trkpt>
      <trkpt lat="43.59975" lon="2.9558">
        <ele>562.8</ele>
        <time>2026-05-07T12:45:38.999Z</time>
      </trkpt>
      <trkpt lat="43.59975" lon="2.9558">
        <ele>562.3</ele>
        <time>2026-05-07T12:45:39.999Z</time>
      </trkpt>
      <trkpt lat="43.59975" lon="2.95581">
        <ele>562</ele>
        <time>2026-05-07T12:45:40.999Z</time>
      </trkpt>
      <trkpt lat="43.59974" lon="2.95581">
        <ele>562.3</ele>
        <time>2026-05-07T12:45:41.999Z</time>
      </trkpt>
      <trkpt lat="43.59974" lon="2.95581">
        <ele>562.6</ele>
        <time>2026-05-07T12:45:42.999Z</time>
      </trkpt>
      <trkpt lat="43.59974" lon="2.9558">
        <ele>562.9</ele>
        <time>2026-05-07T12:45:43.999Z</time>
      </trkpt>
      <trkpt lat="43.59974" lon="2.95579">
        <ele>563.4</ele>
        <time>2026-05-07T12:45:44.999Z</time>
      </trkpt>
      <trkpt lat="43.59973" lon="2.95578">
        <ele>563.9</ele>
        <time>2026-05-07T12:45:45.999Z</time>
      </trkpt>
      <trkpt lat="43.59972" lon="2.95578">
        <ele>564.2</ele>
        <time>2026-05-07T12:45:46.999Z</time>
      </trkpt>
      <trkpt lat="43.59971" lon="2.95577">
        <ele>564.5</ele>
        <time>2026-05-07T12:45:47.999Z</time>
      </trkpt>
      <trkpt lat="43.59971" lon="2.95577">
        <ele>565.1</ele>
        <time>2026-05-07T12:45:48.999Z</time>
      </trkpt>
      <trkpt lat="43.59971" lon="2.95577">
        <ele>565.4</ele>
        <time>2026-05-07T12:45:49.999Z</time>
      </trkpt>
      <trkpt lat="43.59971" lon="2.95577">
        <ele>565.7</ele>
        <time>2026-05-07T12:45:50.999Z</time>
      </trkpt>
      <trkpt lat="43.59971" lon="2.95577">
        <ele>566.2</ele>
        <time>2026-05-07T12:45:51.999Z</time>
      </trkpt>
      <trkpt lat="43.59971" lon="2.95577">
        <ele>566.3</ele>
        <time>2026-05-07T12:45:52.999Z</time>
      </trkpt>
      <trkpt lat="43.59971" lon="2.95577">
        <ele>566.7</ele>
        <time>2026-05-07T12:45:53.999Z</time>
      </trkpt>
      <trkpt lat="43.59972" lon="2.95577">
        <ele>567.1</ele>
        <time>2026-05-07T12:45:54.999Z</time>
      </trkpt>
      <trkpt lat="43.59972" lon="2.95577">
        <ele>567.4</ele>
        <time>2026-05-07T12:45:55.999Z</time>
      </trkpt>
      <trkpt lat="43.59971" lon="2.95576">
        <ele>567.7</ele>
        <time>2026-05-07T12:45:56.999Z</time>
      </trkpt>
      <trkpt lat="43.59971" lon="2.95576">
        <ele>567.9</ele>
        <time>2026-05-07T12:45:57.999Z</time>
      </trkpt>
      <trkpt lat="43.5997" lon="2.95575">
        <ele>568.1</ele>
        <time>2026-05-07T12:45:58.999Z</time>
      </trkpt>
      <trkpt lat="43.59969" lon="2.95575">
        <ele>568.2</ele>
        <time>2026-05-07T12:45:59.999Z</time>
      </trkpt>
      <trkpt lat="43.59969" lon="2.95575">
        <ele>568.6</ele>
        <time>2026-05-07T12:46:00.999Z</time>
      </trkpt>
      <trkpt lat="43.59968" lon="2.95575">
        <ele>568.4</ele>
        <time>2026-05-07T12:46:01.999Z</time>
      </trkpt>
      <trkpt lat="43.59968" lon="2.95575">
        <ele>568.3</ele>
        <time>2026-05-07T12:46:02.999Z</time>
      </trkpt>
      <trkpt lat="43.59968" lon="2.95574">
        <ele>568.4</ele>
        <time>2026-05-07T12:46:03.999Z</time>
      </trkpt>
      <trkpt lat="43.59967" lon="2.95573">
        <ele>568.3</ele>
        <time>2026-05-07T12:46:04.999Z</time>
      </trkpt>
      <trkpt lat="43.59966" lon="2.95573">
        <ele>568.4</ele>
        <time>2026-05-07T12:46:05.999Z</time>
      </trkpt>
      <trkpt lat="43.59966" lon="2.95572">
        <ele>568.1</ele>
        <time>2026-05-07T12:46:06.999Z</time>
      </trkpt>
      <trkpt lat="43.59965" lon="2.95571">
        <ele>567.7</ele>
        <time>2026-05-07T12:46:07.999Z</time>
      </trkpt>
      <trkpt lat="43.59964" lon="2.9557">
        <ele>567.5</ele>
        <time>2026-05-07T12:46:08.999Z</time>
      </trkpt>
      <trkpt lat="43.59963" lon="2.95568">
        <ele>567.7</ele>
        <time>2026-05-07T12:46:09.999Z</time>
      </trkpt>
      <trkpt lat="43.59962" lon="2.95567">
        <ele>567.8</ele>
        <time>2026-05-07T12:46:10.999Z</time>
      </trkpt>
      <trkpt lat="43.59962" lon="2.95567">
        <ele>567.4</ele>
        <time>2026-05-07T12:46:11.999Z</time>
      </trkpt>
      <trkpt lat="43.59962" lon="2.95566">
        <ele>567.3</ele>
        <time>2026-05-07T12:46:12.999Z</time>
      </trkpt>
      <trkpt lat="43.59962" lon="2.95567">
        <ele>567.4</ele>
        <time>2026-05-07T12:46:13.999Z</time>
      </trkpt>
      <trkpt lat="43.59961" lon="2.95566">
        <ele>567.5</ele>
        <time>2026-05-07T12:46:14.999Z</time>
      </trkpt>
      <trkpt lat="43.59961" lon="2.95565">
        <ele>567.3</ele>
        <time>2026-05-07T12:46:15.999Z</time>
      </trkpt>
      <trkpt lat="43.59961" lon="2.95563">
        <ele>567.3</ele>
        <time>2026-05-07T12:46:16.999Z</time>
      </trkpt>
      <trkpt lat="43.59961" lon="2.95561">
        <ele>567.5</ele>
        <time>2026-05-07T12:46:17.999Z</time>
      </trkpt>
      <trkpt lat="43.5996" lon="2.95561">
        <ele>567</ele>
        <time>2026-05-07T12:46:18.999Z</time>
      </trkpt>
      <trkpt lat="43.59959" lon="2.9556">
        <ele>566.7</ele>
        <time>2026-05-07T12:46:19.999Z</time>
      </trkpt>
      <trkpt lat="43.59958" lon="2.95559">
        <ele>566.6</ele>
        <time>2026-05-07T12:46:20.999Z</time>
      </trkpt>
      <trkpt lat="43.59957" lon="2.95559">
        <ele>566.5</ele>
        <time>2026-05-07T12:46:21.999Z</time>
      </trkpt>
      <trkpt lat="43.59957" lon="2.95559">
        <ele>566.8</ele>
        <time>2026-05-07T12:46:22.999Z</time>
      </trkpt>
      <trkpt lat="43.59956" lon="2.95559">
        <ele>567</ele>
        <time>2026-05-07T12:46:23.999Z</time>
      </trkpt>
      <trkpt lat="43.59956" lon="2.9556">
        <ele>567</ele>
        <time>2026-05-07T12:46:24.999Z</time>
      </trkpt>
      <trkpt lat="43.59956" lon="2.9556">
        <ele>567.2</ele>
        <time>2026-05-07T12:46:25.999Z</time>
      </trkpt>
      <trkpt lat="43.59956" lon="2.95559">
        <ele>567</ele>
        <time>2026-05-07T12:46:26.999Z</time>
      </trkpt>
      <trkpt lat="43.59955" lon="2.95558">
        <ele>567.3</ele>
        <time>2026-05-07T12:46:27.999Z</time>
      </trkpt>
      <trkpt lat="43.59955" lon="2.95558">
        <ele>567.2</ele>
        <time>2026-05-07T12:46:28.999Z</time>
      </trkpt>
      <trkpt lat="43.59955" lon="2.95557">
        <ele>566.9</ele>
        <time>2026-05-07T12:46:29.999Z</time>
      </trkpt>
      <trkpt lat="43.59955" lon="2.95557">
        <ele>566.6</ele>
        <time>2026-05-07T12:46:30.999Z</time>
      </trkpt>
      <trkpt lat="43.59955" lon="2.95556">
        <ele>566.3</ele>
        <time>2026-05-07T12:46:31.999Z</time>
      </trkpt>
      <trkpt lat="43.59956" lon="2.95556">
        <ele>566.1</ele>
        <time>2026-05-07T12:46:32.999Z</time>
      </trkpt>
      <trkpt lat="43.59955" lon="2.95554">
        <ele>566.2</ele>
        <time>2026-05-07T12:46:33.999Z</time>
      </trkpt>
      <trkpt lat="43.59955" lon="2.95554">
        <ele>565.9</ele>
        <time>2026-05-07T12:46:34.999Z</time>
      </trkpt>
      <trkpt lat="43.59955" lon="2.95553">
        <ele>565.5</ele>
        <time>2026-05-07T12:46:35.999Z</time>
      </trkpt>
      <trkpt lat="43.59954" lon="2.95552">
        <ele>565.4</ele>
        <time>2026-05-07T12:46:36.999Z</time>
      </trkpt>
      <trkpt lat="43.59954" lon="2.95551">
        <ele>565</ele>
        <time>2026-05-07T12:46:37.999Z</time>
      </trkpt>
      <trkpt lat="43.59954" lon="2.95551">
        <ele>565.2</ele>
        <time>2026-05-07T12:46:38.999Z</time>
      </trkpt>
      <trkpt lat="43.59953" lon="2.9555">
        <ele>565.1</ele>
        <time>2026-05-07T12:46:39.999Z</time>
      </trkpt>
      <trkpt lat="43.59952" lon="2.95549">
        <ele>564.7</ele>
        <time>2026-05-07T12:46:40.999Z</time>
      </trkpt>
      <trkpt lat="43.59951" lon="2.95549">
        <ele>565</ele>
        <time>2026-05-07T12:46:41.999Z</time>
      </trkpt>
      <trkpt lat="43.59951" lon="2.95549">
        <ele>565.1</ele>
        <time>2026-05-07T12:46:42.999Z</time>
      </trkpt>
      <trkpt lat="43.59951" lon="2.9555">
        <ele>565.1</ele>
        <time>2026-05-07T12:46:43.999Z</time>
      </trkpt>
      <trkpt lat="43.59951" lon="2.9555">
        <ele>564.7</ele>
        <time>2026-05-07T12:46:44.999Z</time>
      </trkpt>
      <trkpt lat="43.59951" lon="2.9555">
        <ele>564.6</ele>
        <time>2026-05-07T12:46:45.999Z</time>
      </trkpt>
      <trkpt lat="43.59953" lon="2.9555">
        <ele>565</ele>
        <time>2026-05-07T12:46:46.999Z</time>
      </trkpt>
      <trkpt lat="43.59954" lon="2.95549">
        <ele>565.2</ele>
        <time>2026-05-07T12:46:47.999Z</time>
      </trkpt>
      <trkpt lat="43.59954" lon="2.95548">
        <ele>565.3</ele>
        <time>2026-05-07T12:46:48.999Z</time>
      </trkpt>
      <trkpt lat="43.59954" lon="2.95548">
        <ele>565.4</ele>
        <time>2026-05-07T12:46:49.999Z</time>
      </trkpt>
      <trkpt lat="43.59954" lon="2.95547">
        <ele>565.6</ele>
        <time>2026-05-07T12:46:50.999Z</time>
      </trkpt>
      <trkpt lat="43.59954" lon="2.95547">
        <ele>565.7</ele>
        <time>2026-05-07T12:46:51.999Z</time>
      </trkpt>
      <trkpt lat="43.59954" lon="2.95547">
        <ele>565.7</ele>
        <time>2026-05-07T12:46:52.999Z</time>
      </trkpt>
      <trkpt lat="43.59954" lon="2.95547">
        <ele>565.6</ele>
        <time>2026-05-07T12:46:53.999Z</time>
      </trkpt>
      <trkpt lat="43.59955" lon="2.95547">
        <ele>565.7</ele>
        <time>2026-05-07T12:46:54.999Z</time>
      </trkpt>
      <trkpt lat="43.59955" lon="2.95547">
        <ele>566</ele>
        <time>2026-05-07T12:46:55.999Z</time>
      </trkpt>
      <trkpt lat="43.59955" lon="2.95547">
        <ele>566</ele>
        <time>2026-05-07T12:46:56.999Z</time>
      </trkpt>
      <trkpt lat="43.59955" lon="2.95547">
        <ele>566.2</ele>
        <time>2026-05-07T12:46:57.999Z</time>
      </trkpt>
      <trkpt lat="43.59955" lon="2.95547">
        <ele>566.1</ele>
        <time>2026-05-07T12:46:58.999Z</time>
      </trkpt>
      <trkpt lat="43.59955" lon="2.95546">
        <ele>566.2</ele>
        <time>2026-05-07T12:46:59.999Z</time>
      </trkpt>
      <trkpt lat="43.59955" lon="2.95546">
        <ele>566.3</ele>
        <time>2026-05-07T12:47:00.999Z</time>
      </trkpt>
      <trkpt lat="43.59955" lon="2.95546">
        <ele>566.4</ele>
        <time>2026-05-07T12:47:01.999Z</time>
      </trkpt>
      <trkpt lat="43.59955" lon="2.95546">
        <ele>566.4</ele>
        <time>2026-05-07T12:47:02.999Z</time>
      </trkpt>
      <trkpt lat="43.59955" lon="2.95546">
        <ele>566.5</ele>
        <time>2026-05-07T12:47:03.999Z</time>
      </trkpt>
      <trkpt lat="43.59955" lon="2.95546">
        <ele>566.7</ele>
        <time>2026-05-07T12:47:04.999Z</time>
      </trkpt>
      <trkpt lat="43.59955" lon="2.95546">
        <ele>566.9</ele>
        <time>2026-05-07T12:47:05.999Z</time>
      </trkpt>
      <trkpt lat="43.59955" lon="2.95545">
        <ele>567.3</ele>
        <time>2026-05-07T12:47:06.999Z</time>
      </trkpt>
      <trkpt lat="43.59955" lon="2.95545">
        <ele>567.5</ele>
        <time>2026-05-07T12:47:07.999Z</time>
      </trkpt>
      <trkpt lat="43.59955" lon="2.95545">
        <ele>567.6</ele>
        <time>2026-05-07T12:47:08.999Z</time>
      </trkpt>
      <trkpt lat="43.59955" lon="2.95545">
        <ele>567.4</ele>
        <time>2026-05-07T12:47:09.999Z</time>
      </trkpt>
      <trkpt lat="43.59955" lon="2.95545">
        <ele>567.5</ele>
        <time>2026-05-07T12:47:10.999Z</time>
      </trkpt>
      <trkpt lat="43.59955" lon="2.95545">
        <ele>567.3</ele>
        <time>2026-05-07T12:47:11.999Z</time>
      </trkpt>
      <trkpt lat="43.59955" lon="2.95545">
        <ele>567.2</ele>
        <time>2026-05-07T12:47:12.999Z</time>
      </trkpt>
      <trkpt lat="43.59955" lon="2.95545">
        <ele>567.2</ele>
        <time>2026-05-07T12:47:13.999Z</time>
      </trkpt>
      <trkpt lat="43.59955" lon="2.95545">
        <ele>567.4</ele>
        <time>2026-05-07T12:47:14.999Z</time>
      </trkpt>
      <trkpt lat="43.59955" lon="2.95545">
        <ele>567.6</ele>
        <time>2026-05-07T12:47:15.999Z</time>
      </trkpt>
      <trkpt lat="43.59955" lon="2.95545">
        <ele>567.7</ele>
        <time>2026-05-07T12:47:16.999Z</time>
      </trkpt>
      <trkpt lat="43.59955" lon="2.95545">
        <ele>567.8</ele>
        <time>2026-05-07T12:47:17.999Z</time>
      </trkpt>
      <trkpt lat="43.59955" lon="2.95545">
        <ele>568.2</ele>
        <time>2026-05-07T12:47:18.999Z</time>
      </trkpt>
      <trkpt lat="43.59955" lon="2.95545">
        <ele>568.5</ele>
        <time>2026-05-07T12:47:19.999Z</time>
      </trkpt>
      <trkpt lat="43.59955" lon="2.95545">
        <ele>568.7</ele>
        <time>2026-05-07T12:47:20.999Z</time>
      </trkpt>
      <trkpt lat="43.59955" lon="2.95545">
        <ele>569.1</ele>
        <time>2026-05-07T12:47:21.999Z</time>
      </trkpt>
      <trkpt lat="43.59955" lon="2.95544">
        <ele>569.4</ele>
        <time>2026-05-07T12:47:22.999Z</time>
      </trkpt>
      <trkpt lat="43.59955" lon="2.95544">
        <ele>569.7</ele>
        <time>2026-05-07T12:47:23.999Z</time>
      </trkpt>
      <trkpt lat="43.59955" lon="2.95544">
        <ele>569.8</ele>
        <time>2026-05-07T12:47:24.999Z</time>
      </trkpt>
      <trkpt lat="43.59955" lon="2.95544">
        <ele>570.2</ele>
        <time>2026-05-07T12:47:25.999Z</time>
      </trkpt>
      <trkpt lat="43.59955" lon="2.95544">
        <ele>570.3</ele>
        <time>2026-05-07T12:47:26.999Z</time>
      </trkpt>
      <trkpt lat="43.59955" lon="2.95544">
        <ele>570.5</ele>
        <time>2026-05-07T12:47:27.999Z</time>
      </trkpt>
      <trkpt lat="43.59955" lon="2.95544">
        <ele>570.5</ele>
        <time>2026-05-07T12:47:28.999Z</time>
      </trkpt>
      <trkpt lat="43.59955" lon="2.95544">
        <ele>570.4</ele>
        <time>2026-05-07T12:47:29.999Z</time>
      </trkpt>
      <trkpt lat="43.59955" lon="2.95544">
        <ele>570.6</ele>
        <time>2026-05-07T12:47:30.999Z</time>
      </trkpt>
      <trkpt lat="43.59955" lon="2.95544">
        <ele>570.6</ele>
        <time>2026-05-07T12:47:31.999Z</time>
      </trkpt>
      <trkpt lat="43.59955" lon="2.95544">
        <ele>570.6</ele>
        <time>2026-05-07T12:47:32.999Z</time>
      </trkpt>
      <trkpt lat="43.59955" lon="2.95544">
        <ele>570.3</ele>
        <time>2026-05-07T12:47:33.999Z</time>
      </trkpt>
      <trkpt lat="43.59955" lon="2.95544">
        <ele>570.2</ele>
        <time>2026-05-07T12:47:34.999Z</time>
      </trkpt>
      <trkpt lat="43.59955" lon="2.95544">
        <ele>570</ele>
        <time>2026-05-07T12:47:35.999Z</time>
      </trkpt>
      <trkpt lat="43.59955" lon="2.95544">
        <ele>570</ele>
        <time>2026-05-07T12:47:36.999Z</time>
      </trkpt>
      <trkpt lat="43.59955" lon="2.95544">
        <ele>569.9</ele>
        <time>2026-05-07T12:47:37.999Z</time>
      </trkpt>
      <trkpt lat="43.59955" lon="2.95544">
        <ele>569.8</ele>
        <time>2026-05-07T12:47:38.999Z</time>
      </trkpt>
      <trkpt lat="43.59955" lon="2.95544">
        <ele>569.7</ele>
        <time>2026-05-07T12:47:39.999Z</time>
      </trkpt>
      <trkpt lat="43.59955" lon="2.95544">
        <ele>569.7</ele>
        <time>2026-05-07T12:47:40.999Z</time>
      </trkpt>
      <trkpt lat="43.59955" lon="2.95544">
        <ele>569.7</ele>
        <time>2026-05-07T12:47:41.999Z</time>
      </trkpt>
      <trkpt lat="43.59955" lon="2.95544">
        <ele>569.8</ele>
        <time>2026-05-07T12:47:42.999Z</time>
      </trkpt>
      <trkpt lat="43.59955" lon="2.95544">
        <ele>569.8</ele>
        <time>2026-05-07T12:47:43.999Z</time>
      </trkpt>
      <trkpt lat="43.59956" lon="2.95544">
        <ele>569.8</ele>
        <time>2026-05-07T12:47:44.999Z</time>
      </trkpt>
      <trkpt lat="43.59956" lon="2.95544">
        <ele>569.5</ele>
        <time>2026-05-07T12:47:45.999Z</time>
      </trkpt>
      <trkpt lat="43.59956" lon="2.95544">
        <ele>569.3</ele>
        <time>2026-05-07T12:47:46.999Z</time>
      </trkpt>
      <trkpt lat="43.59956" lon="2.95544">
        <ele>569.1</ele>
        <time>2026-05-07T12:47:47.999Z</time>
      </trkpt>
      <trkpt lat="43.59956" lon="2.95544">
        <ele>568.9</ele>
        <time>2026-05-07T12:47:48.999Z</time>
      </trkpt>
      <trkpt lat="43.59956" lon="2.95544">
        <ele>568.7</ele>
        <time>2026-05-07T12:47:49.999Z</time>
      </trkpt>
      <trkpt lat="43.59956" lon="2.95544">
        <ele>568.7</ele>
        <time>2026-05-07T12:47:50.999Z</time>
      </trkpt>
      <trkpt lat="43.59956" lon="2.95544">
        <ele>568.9</ele>
        <time>2026-05-07T12:47:51.999Z</time>
      </trkpt>
      <trkpt lat="43.59956" lon="2.95544">
        <ele>569.1</ele>
        <time>2026-05-07T12:47:52.999Z</time>
      </trkpt>
      <trkpt lat="43.59956" lon="2.95544">
        <ele>569.4</ele>
        <time>2026-05-07T12:47:53.999Z</time>
      </trkpt>
      <trkpt lat="43.59956" lon="2.95544">
        <ele>569.5</ele>
        <time>2026-05-07T12:47:54.999Z</time>
      </trkpt>
      <trkpt lat="43.59956" lon="2.95544">
        <ele>569.4</ele>
        <time>2026-05-07T12:47:55.999Z</time>
      </trkpt>
      <trkpt lat="43.59956" lon="2.95544">
        <ele>569.5</ele>
        <time>2026-05-07T12:47:56.999Z</time>
      </trkpt>
      <trkpt lat="43.59956" lon="2.95544">
        <ele>569.4</ele>
        <time>2026-05-07T12:47:57.999Z</time>
      </trkpt>
      <trkpt lat="43.59956" lon="2.95544">
        <ele>569.4</ele>
        <time>2026-05-07T12:47:58.999Z</time>
      </trkpt>
      <trkpt lat="43.59956" lon="2.95544">
        <ele>569.4</ele>
        <time>2026-05-07T12:47:59.999Z</time>
      </trkpt>
      <trkpt lat="43.59956" lon="2.95544">
        <ele>569.5</ele>
        <time>2026-05-07T12:48:00.999Z</time>
      </trkpt>
      <trkpt lat="43.59955" lon="2.95544">
        <ele>569.5</ele>
        <time>2026-05-07T12:48:01.999Z</time>
      </trkpt>
      <trkpt lat="43.59955" lon="2.95544">
        <ele>569.4</ele>
        <time>2026-05-07T12:48:02.999Z</time>
      </trkpt>
      <trkpt lat="43.59955" lon="2.95545">
        <ele>569.4</ele>
        <time>2026-05-07T12:48:03.999Z</time>
      </trkpt>
      <trkpt lat="43.59955" lon="2.95545">
        <ele>569.2</ele>
        <time>2026-05-07T12:48:04.999Z</time>
      </trkpt>
      <trkpt lat="43.59955" lon="2.95545">
        <ele>569.3</ele>
        <time>2026-05-07T12:48:05.999Z</time>
      </trkpt>
      <trkpt lat="43.59955" lon="2.95545">
        <ele>569.2</ele>
        <time>2026-05-07T12:48:06.999Z</time>
      </trkpt>
      <trkpt lat="43.59955" lon="2.95545">
        <ele>569.2</ele>
        <time>2026-05-07T12:48:07.999Z</time>
      </trkpt>
      <trkpt lat="43.59955" lon="2.95545">
        <ele>569.2</ele>
        <time>2026-05-07T12:48:08.999Z</time>
      </trkpt>
      <trkpt lat="43.59955" lon="2.95545">
        <ele>569.2</ele>
        <time>2026-05-07T12:48:09.999Z</time>
      </trkpt>
      <trkpt lat="43.59955" lon="2.95545">
        <ele>569.3</ele>
        <time>2026-05-07T12:48:10.999Z</time>
      </trkpt>
      <trkpt lat="43.59955" lon="2.95545">
        <ele>569.2</ele>
        <time>2026-05-07T12:48:11.999Z</time>
      </trkpt>
      <trkpt lat="43.59955" lon="2.95545">
        <ele>569.2</ele>
        <time>2026-05-07T12:48:12.999Z</time>
      </trkpt>
      <trkpt lat="43.59955" lon="2.95545">
        <ele>569.1</ele>
        <time>2026-05-07T12:48:13.999Z</time>
      </trkpt>
      <trkpt lat="43.59955" lon="2.95545">
        <ele>569.1</ele>
        <time>2026-05-07T12:48:14.999Z</time>
      </trkpt>
      <trkpt lat="43.59955" lon="2.95545">
        <ele>569</ele>
        <time>2026-05-07T12:48:15.999Z</time>
      </trkpt>
      <trkpt lat="43.59955" lon="2.95545">
        <ele>568.8</ele>
        <time>2026-05-07T12:48:16.999Z</time>
      </trkpt>
      <trkpt lat="43.59955" lon="2.95545">
        <ele>568.7</ele>
        <time>2026-05-07T12:48:17.999Z</time>
      </trkpt>
      <trkpt lat="43.59955" lon="2.95546">
        <ele>568.7</ele>
        <time>2026-05-07T12:48:18.999Z</time>
      </trkpt>
      <trkpt lat="43.59955" lon="2.95546">
        <ele>568.7</ele>
        <time>2026-05-07T12:48:19.999Z</time>
      </trkpt>
      <trkpt lat="43.59955" lon="2.95546">
        <ele>568.8</ele>
        <time>2026-05-07T12:48:20.999Z</time>
      </trkpt>
      <trkpt lat="43.59955" lon="2.95546">
        <ele>568.9</ele>
        <time>2026-05-07T12:48:21.999Z</time>
      </trkpt>
      <trkpt lat="43.59955" lon="2.95546">
        <ele>569.1</ele>
        <time>2026-05-07T12:48:22.999Z</time>
      </trkpt>
      <trkpt lat="43.59955" lon="2.95546">
        <ele>569.2</ele>
        <time>2026-05-07T12:48:23.999Z</time>
      </trkpt>
      <trkpt lat="43.59955" lon="2.95546">
        <ele>569.3</ele>
        <time>2026-05-07T12:48:24.999Z</time>
      </trkpt>
      <trkpt lat="43.59955" lon="2.95547">
        <ele>569.4</ele>
        <time>2026-05-07T12:48:25.999Z</time>
      </trkpt>
      <trkpt lat="43.59955" lon="2.95547">
        <ele>569.6</ele>
        <time>2026-05-07T12:48:26.999Z</time>
      </trkpt>
      <trkpt lat="43.59955" lon="2.95547">
        <ele>569.9</ele>
        <time>2026-05-07T12:48:27.999Z</time>
      </trkpt>
      <trkpt lat="43.59955" lon="2.95547">
        <ele>570.3</ele>
        <time>2026-05-07T12:48:28.999Z</time>
      </trkpt>
      <trkpt lat="43.59955" lon="2.95547">
        <ele>570.6</ele>
        <time>2026-05-07T12:48:29.999Z</time>
      </trkpt>
      <trkpt lat="43.59955" lon="2.95547">
        <ele>570.8</ele>
        <time>2026-05-07T12:48:30.999Z</time>
      </trkpt>
      <trkpt lat="43.59955" lon="2.95547">
        <ele>571</ele>
        <time>2026-05-07T12:48:31.999Z</time>
      </trkpt>
      <trkpt lat="43.59955" lon="2.95547">
        <ele>571</ele>
        <time>2026-05-07T12:48:32.999Z</time>
      </trkpt>
      <trkpt lat="43.59955" lon="2.95547">
        <ele>570.9</ele>
        <time>2026-05-07T12:48:33.999Z</time>
      </trkpt>
      <trkpt lat="43.59955" lon="2.95547">
        <ele>570.8</ele>
        <time>2026-05-07T12:48:34.999Z</time>
      </trkpt>
      <trkpt lat="43.59955" lon="2.95547">
        <ele>570.6</ele>
        <time>2026-05-07T12:48:35.999Z</time>
      </trkpt>
      <trkpt lat="43.59955" lon="2.95547">
        <ele>570.6</ele>
        <time>2026-05-07T12:48:36.999Z</time>
      </trkpt>
      <trkpt lat="43.59955" lon="2.95547">
        <ele>570.5</ele>
        <time>2026-05-07T12:48:37.999Z</time>
      </trkpt>
      <trkpt lat="43.59955" lon="2.95546">
        <ele>570.4</ele>
        <time>2026-05-07T12:48:38.999Z</time>
      </trkpt>
      <trkpt lat="43.59955" lon="2.95546">
        <ele>570.3</ele>
        <time>2026-05-07T12:48:39.999Z</time>
      </trkpt>
      <trkpt lat="43.59956" lon="2.95546">
        <ele>570.4</ele>
        <time>2026-05-07T12:48:40.999Z</time>
      </trkpt>
      <trkpt lat="43.59956" lon="2.95546">
        <ele>570.4</ele>
        <time>2026-05-07T12:48:41.999Z</time>
      </trkpt>
      <trkpt lat="43.59956" lon="2.95546">
        <ele>570.5</ele>
        <time>2026-05-07T12:48:42.999Z</time>
      </trkpt>
      <trkpt lat="43.59956" lon="2.95546">
        <ele>570.5</ele>
        <time>2026-05-07T12:48:43.999Z</time>
      </trkpt>
      <trkpt lat="43.59956" lon="2.95546">
        <ele>570.3</ele>
        <time>2026-05-07T12:48:44.999Z</time>
      </trkpt>
      <trkpt lat="43.59956" lon="2.95546">
        <ele>570.2</ele>
        <time>2026-05-07T12:48:45.999Z</time>
      </trkpt>
      <trkpt lat="43.59956" lon="2.95546">
        <ele>570.1</ele>
        <time>2026-05-07T12:48:46.999Z</time>
      </trkpt>
      <trkpt lat="43.59956" lon="2.95546">
        <ele>570</ele>
        <time>2026-05-07T12:48:47.999Z</time>
      </trkpt>
      <trkpt lat="43.59956" lon="2.95546">
        <ele>570</ele>
        <time>2026-05-07T12:48:48.999Z</time>
      </trkpt>
      <trkpt lat="43.59956" lon="2.95546">
        <ele>570</ele>
        <time>2026-05-07T12:48:49.999Z</time>
      </trkpt>
      <trkpt lat="43.59956" lon="2.95546">
        <ele>570</ele>
        <time>2026-05-07T12:48:50.999Z</time>
      </trkpt>
      <trkpt lat="43.59956" lon="2.95546">
        <ele>570</ele>
        <time>2026-05-07T12:48:51.999Z</time>
      </trkpt>
      <trkpt lat="43.59956" lon="2.95546">
        <ele>570.1</ele>
        <time>2026-05-07T12:48:52.999Z</time>
      </trkpt>
      <trkpt lat="43.59956" lon="2.95546">
        <ele>570.4</ele>
        <time>2026-05-07T12:48:54.999Z</time>
      </trkpt>
      <trkpt lat="43.59956" lon="2.95546">
        <ele>570.5</ele>
        <time>2026-05-07T12:48:55.999Z</time>
      </trkpt>
      <trkpt lat="43.59956" lon="2.95546">
        <ele>570.7</ele>
        <time>2026-05-07T12:48:56.999Z</time>
      </trkpt>
      <trkpt lat="43.59956" lon="2.95546">
        <ele>570.8</ele>
        <time>2026-05-07T12:48:57.999Z</time>
      </trkpt>
      <trkpt lat="43.59956" lon="2.95547">
        <ele>570.7</ele>
        <time>2026-05-07T12:48:58.999Z</time>
      </trkpt>
      <trkpt lat="43.59956" lon="2.95547">
        <ele>570.6</ele>
        <time>2026-05-07T12:48:59.999Z</time>
      </trkpt>
      <trkpt lat="43.59956" lon="2.95547">
        <ele>570.5</ele>
        <time>2026-05-07T12:49:00.999Z</time>
      </trkpt>
      <trkpt lat="43.59956" lon="2.95547">
        <ele>570.3</ele>
        <time>2026-05-07T12:49:01.999Z</time>
      </trkpt>
      <trkpt lat="43.59956" lon="2.95547">
        <ele>570.2</ele>
        <time>2026-05-07T12:49:02.999Z</time>
      </trkpt>
      <trkpt lat="43.59956" lon="2.95547">
        <ele>570.4</ele>
        <time>2026-05-07T12:49:03.999Z</time>
      </trkpt>
      <trkpt lat="43.59956" lon="2.95547">
        <ele>570.4</ele>
        <time>2026-05-07T12:49:04.999Z</time>
      </trkpt>
      <trkpt lat="43.59956" lon="2.95547">
        <ele>570.1</ele>
        <time>2026-05-07T12:49:05.999Z</time>
      </trkpt>
      <trkpt lat="43.59956" lon="2.95547">
        <ele>570.2</ele>
        <time>2026-05-07T12:49:06.999Z</time>
      </trkpt>
      <trkpt lat="43.59956" lon="2.95547">
        <ele>570.1</ele>
        <time>2026-05-07T12:49:07.999Z</time>
      </trkpt>
      <trkpt lat="43.59956" lon="2.95547">
        <ele>570.1</ele>
        <time>2026-05-07T12:49:08.999Z</time>
      </trkpt>
      <trkpt lat="43.59956" lon="2.95547">
        <ele>570.1</ele>
        <time>2026-05-07T12:49:09.999Z</time>
      </trkpt>
      <trkpt lat="43.59956" lon="2.95547">
        <ele>570.1</ele>
        <time>2026-05-07T12:49:10.999Z</time>
      </trkpt>
      <trkpt lat="43.59956" lon="2.95547">
        <ele>570.2</ele>
        <time>2026-05-07T12:49:11.999Z</time>
      </trkpt>
      <trkpt lat="43.59956" lon="2.95547">
        <ele>570.3</ele>
        <time>2026-05-07T12:49:12.999Z</time>
      </trkpt>
      <trkpt lat="43.59956" lon="2.95547">
        <ele>570.4</ele>
        <time>2026-05-07T12:49:13.999Z</time>
      </trkpt>
      <trkpt lat="43.59956" lon="2.95547">
        <ele>570.4</ele>
        <time>2026-05-07T12:49:14.999Z</time>
      </trkpt>
      <trkpt lat="43.59955" lon="2.95547">
        <ele>570.5</ele>
        <time>2026-05-07T12:49:15.999Z</time>
      </trkpt>
      <trkpt lat="43.59955" lon="2.95547">
        <ele>570.4</ele>
        <time>2026-05-07T12:49:16.999Z</time>
      </trkpt>
      <trkpt lat="43.59955" lon="2.95547">
        <ele>570.3</ele>
        <time>2026-05-07T12:49:17.999Z</time>
      </trkpt>
      <trkpt lat="43.59956" lon="2.95546">
        <ele>570.2</ele>
        <time>2026-05-07T12:49:18.999Z</time>
      </trkpt>
      <trkpt lat="43.59957" lon="2.95546">
        <ele>570.7</ele>
        <time>2026-05-07T12:49:19.999Z</time>
      </trkpt>
      <trkpt lat="43.59958" lon="2.95546">
        <ele>570.9</ele>
        <time>2026-05-07T12:49:20.999Z</time>
      </trkpt>
      <trkpt lat="43.59958" lon="2.95546">
        <ele>571.4</ele>
        <time>2026-05-07T12:49:21.999Z</time>
      </trkpt>
      <trkpt lat="43.59958" lon="2.95546">
        <ele>571.7</ele>
        <time>2026-05-07T12:49:22.999Z</time>
      </trkpt>
      <trkpt lat="43.59959" lon="2.95546">
        <ele>571.6</ele>
        <time>2026-05-07T12:49:23.999Z</time>
      </trkpt>
      <trkpt lat="43.59959" lon="2.95546">
        <ele>571.7</ele>
        <time>2026-05-07T12:49:24.999Z</time>
      </trkpt>
      <trkpt lat="43.59958" lon="2.95547">
        <ele>571.2</ele>
        <time>2026-05-07T12:49:25.999Z</time>
      </trkpt>
      <trkpt lat="43.59958" lon="2.95547">
        <ele>571.2</ele>
        <time>2026-05-07T12:49:26.999Z</time>
      </trkpt>
      <trkpt lat="43.59958" lon="2.95547">
        <ele>571.1</ele>
        <time>2026-05-07T12:49:27.999Z</time>
      </trkpt>
      <trkpt lat="43.59958" lon="2.95547">
        <ele>571.3</ele>
        <time>2026-05-07T12:49:28.999Z</time>
      </trkpt>
      <trkpt lat="43.59958" lon="2.95547">
        <ele>571.4</ele>
        <time>2026-05-07T12:49:29.999Z</time>
      </trkpt>
      <trkpt lat="43.59958" lon="2.95547">
        <ele>571.6</ele>
        <time>2026-05-07T12:49:30.999Z</time>
      </trkpt>
      <trkpt lat="43.59958" lon="2.95547">
        <ele>571.8</ele>
        <time>2026-05-07T12:49:31.999Z</time>
      </trkpt>
      <trkpt lat="43.59958" lon="2.95547">
        <ele>571.8</ele>
        <time>2026-05-07T12:49:32.999Z</time>
      </trkpt>
      <trkpt lat="43.59957" lon="2.95546">
        <ele>571.6</ele>
        <time>2026-05-07T12:49:33.999Z</time>
      </trkpt>
      <trkpt lat="43.59956" lon="2.95546">
        <ele>571.4</ele>
        <time>2026-05-07T12:49:34.999Z</time>
      </trkpt>
      <trkpt lat="43.59955" lon="2.95545">
        <ele>571.3</ele>
        <time>2026-05-07T12:49:35.999Z</time>
      </trkpt>
      <trkpt lat="43.59955" lon="2.95545">
        <ele>571.1</ele>
        <time>2026-05-07T12:49:36.999Z</time>
      </trkpt>
      <trkpt lat="43.59955" lon="2.95545">
        <ele>571.2</ele>
        <time>2026-05-07T12:49:37.999Z</time>
      </trkpt>
      <trkpt lat="43.59955" lon="2.95545">
        <ele>571.5</ele>
        <time>2026-05-07T12:49:38.999Z</time>
      </trkpt>
      <trkpt lat="43.59955" lon="2.95545">
        <ele>571.4</ele>
        <time>2026-05-07T12:49:39.999Z</time>
      </trkpt>
      <trkpt lat="43.59955" lon="2.95545">
        <ele>571.3</ele>
        <time>2026-05-07T12:49:40.999Z</time>
      </trkpt>
      <trkpt lat="43.59955" lon="2.95545">
        <ele>571.3</ele>
        <time>2026-05-07T12:49:41.999Z</time>
      </trkpt>
      <trkpt lat="43.59955" lon="2.95545">
        <ele>571.3</ele>
        <time>2026-05-07T12:49:42.999Z</time>
      </trkpt>
      <trkpt lat="43.59955" lon="2.95545">
        <ele>571.3</ele>
        <time>2026-05-07T12:49:43.999Z</time>
      </trkpt>
      <trkpt lat="43.59955" lon="2.95545">
        <ele>571.6</ele>
        <time>2026-05-07T12:49:44.999Z</time>
      </trkpt>
      <trkpt lat="43.59955" lon="2.95545">
        <ele>571.7</ele>
        <time>2026-05-07T12:49:45.999Z</time>
      </trkpt>
      <trkpt lat="43.59956" lon="2.95545">
        <ele>571.7</ele>
        <time>2026-05-07T12:49:46.999Z</time>
      </trkpt>
      <trkpt lat="43.59956" lon="2.95545">
        <ele>571.6</ele>
        <time>2026-05-07T12:49:47.999Z</time>
      </trkpt>
      <trkpt lat="43.59955" lon="2.95546">
        <ele>571.8</ele>
        <time>2026-05-07T12:49:48.999Z</time>
      </trkpt>
      <trkpt lat="43.59954" lon="2.95546">
        <ele>571.7</ele>
        <time>2026-05-07T12:49:49.999Z</time>
      </trkpt>
      <trkpt lat="43.59953" lon="2.95546">
        <ele>571.7</ele>
        <time>2026-05-07T12:49:50.999Z</time>
      </trkpt>
      <trkpt lat="43.59953" lon="2.95546">
        <ele>571.7</ele>
        <time>2026-05-07T12:49:51.999Z</time>
      </trkpt>
      <trkpt lat="43.59953" lon="2.95546">
        <ele>571.8</ele>
        <time>2026-05-07T12:49:52.999Z</time>
      </trkpt>
      <trkpt lat="43.59953" lon="2.95546">
        <ele>571.7</ele>
        <time>2026-05-07T12:49:53.999Z</time>
      </trkpt>
      <trkpt lat="43.59953" lon="2.95546">
        <ele>571.5</ele>
        <time>2026-05-07T12:49:54.999Z</time>
      </trkpt>
      <trkpt lat="43.59953" lon="2.95546">
        <ele>571.5</ele>
        <time>2026-05-07T12:49:55.999Z</time>
      </trkpt>
      <trkpt lat="43.59953" lon="2.95546">
        <ele>571.5</ele>
        <time>2026-05-07T12:49:56.999Z</time>
      </trkpt>
      <trkpt lat="43.59953" lon="2.95545">
        <ele>571.4</ele>
        <time>2026-05-07T12:49:57.999Z</time>
      </trkpt>
      <trkpt lat="43.59954" lon="2.95545">
        <ele>571.4</ele>
        <time>2026-05-07T12:49:58.999Z</time>
      </trkpt>
      <trkpt lat="43.59954" lon="2.95545">
        <ele>571.4</ele>
        <time>2026-05-07T12:49:59.999Z</time>
      </trkpt>
      <trkpt lat="43.59954" lon="2.95545">
        <ele>571.4</ele>
        <time>2026-05-07T12:50:00.999Z</time>
      </trkpt>
      <trkpt lat="43.59954" lon="2.95545">
        <ele>571.5</ele>
        <time>2026-05-07T12:50:01.999Z</time>
      </trkpt>
      <trkpt lat="43.59954" lon="2.95545">
        <ele>571.6</ele>
        <time>2026-05-07T12:50:02.999Z</time>
      </trkpt>
      <trkpt lat="43.59954" lon="2.95545">
        <ele>571.7</ele>
        <time>2026-05-07T12:50:03.999Z</time>
      </trkpt>
      <trkpt lat="43.59954" lon="2.95545">
        <ele>571.9</ele>
        <time>2026-05-07T12:50:04.999Z</time>
      </trkpt>
      <trkpt lat="43.59954" lon="2.95545">
        <ele>572.1</ele>
        <time>2026-05-07T12:50:05.999Z</time>
      </trkpt>
      <trkpt lat="43.59954" lon="2.95545">
        <ele>572.3</ele>
        <time>2026-05-07T12:50:06.999Z</time>
      </trkpt>
      <trkpt lat="43.59954" lon="2.95544">
        <ele>572.5</ele>
        <time>2026-05-07T12:50:07.999Z</time>
      </trkpt>
      <trkpt lat="43.59954" lon="2.95544">
        <ele>572.6</ele>
        <time>2026-05-07T12:50:08.999Z</time>
      </trkpt>
      <trkpt lat="43.59954" lon="2.95544">
        <ele>572.7</ele>
        <time>2026-05-07T12:50:09.999Z</time>
      </trkpt>
      <trkpt lat="43.59954" lon="2.95544">
        <ele>572.9</ele>
        <time>2026-05-07T12:50:10.999Z</time>
      </trkpt>
      <trkpt lat="43.59954" lon="2.95544">
        <ele>573</ele>
        <time>2026-05-07T12:50:11.999Z</time>
      </trkpt>
      <trkpt lat="43.59954" lon="2.95544">
        <ele>573</ele>
        <time>2026-05-07T12:50:12.999Z</time>
      </trkpt>
      <trkpt lat="43.59954" lon="2.95544">
        <ele>573</ele>
        <time>2026-05-07T12:50:13.999Z</time>
      </trkpt>
      <trkpt lat="43.59954" lon="2.95544">
        <ele>573.1</ele>
        <time>2026-05-07T12:50:15.000Z</time>
      </trkpt>
      <trkpt lat="43.59955" lon="2.95544">
        <ele>573</ele>
        <time>2026-05-07T12:50:16.000Z</time>
      </trkpt>
      <trkpt lat="43.59955" lon="2.95543">
        <ele>572.9</ele>
        <time>2026-05-07T12:50:17.000Z</time>
      </trkpt>
      <trkpt lat="43.59955" lon="2.95543">
        <ele>572.9</ele>
        <time>2026-05-07T12:50:18.000Z</time>
      </trkpt>
      <trkpt lat="43.59954" lon="2.95543">
        <ele>572.8</ele>
        <time>2026-05-07T12:50:19.000Z</time>
      </trkpt>
      <trkpt lat="43.59954" lon="2.95543">
        <ele>572.9</ele>
        <time>2026-05-07T12:50:20.000Z</time>
      </trkpt>
      <trkpt lat="43.59954" lon="2.95544">
        <ele>573.2</ele>
        <time>2026-05-07T12:50:21.000Z</time>
      </trkpt>
      <trkpt lat="43.59954" lon="2.95543">
        <ele>573.4</ele>
        <time>2026-05-07T12:50:22.000Z</time>
      </trkpt>
      <trkpt lat="43.59954" lon="2.95543">
        <ele>573.3</ele>
        <time>2026-05-07T12:50:23.000Z</time>
      </trkpt>
      <trkpt lat="43.59954" lon="2.95543">
        <ele>573.2</ele>
        <time>2026-05-07T12:50:24.000Z</time>
      </trkpt>
      <trkpt lat="43.59954" lon="2.95543">
        <ele>573</ele>
        <time>2026-05-07T12:50:25.000Z</time>
      </trkpt>
      <trkpt lat="43.59954" lon="2.95542">
        <ele>573</ele>
        <time>2026-05-07T12:50:26.000Z</time>
      </trkpt>
      <trkpt lat="43.59954" lon="2.95542">
        <ele>573.1</ele>
        <time>2026-05-07T12:50:27.000Z</time>
      </trkpt>
      <trkpt lat="43.59954" lon="2.95542">
        <ele>572.7</ele>
        <time>2026-05-07T12:50:28.000Z</time>
      </trkpt>
      <trkpt lat="43.59954" lon="2.95542">
        <ele>572.3</ele>
        <time>2026-05-07T12:50:29.000Z</time>
      </trkpt>
      <trkpt lat="43.59954" lon="2.95542">
        <ele>571.9</ele>
        <time>2026-05-07T12:50:30.000Z</time>
      </trkpt>
      <trkpt lat="43.59954" lon="2.95542">
        <ele>571.7</ele>
        <time>2026-05-07T12:50:31.000Z</time>
      </trkpt>
      <trkpt lat="43.59954" lon="2.95542">
        <ele>571.6</ele>
        <time>2026-05-07T12:50:32.000Z</time>
      </trkpt>
      <trkpt lat="43.59954" lon="2.95542">
        <ele>571.6</ele>
        <time>2026-05-07T12:50:33.000Z</time>
      </trkpt>
      <trkpt lat="43.59954" lon="2.95542">
        <ele>571.6</ele>
        <time>2026-05-07T12:50:34.000Z</time>
      </trkpt>
      <trkpt lat="43.59954" lon="2.95542">
        <ele>571.6</ele>
        <time>2026-05-07T12:50:35.000Z</time>
      </trkpt>
      <trkpt lat="43.59954" lon="2.95542">
        <ele>571.6</ele>
        <time>2026-05-07T12:50:36.000Z</time>
      </trkpt>
      <trkpt lat="43.59954" lon="2.95543">
        <ele>571.6</ele>
        <time>2026-05-07T12:50:37.000Z</time>
      </trkpt>
      <trkpt lat="43.59954" lon="2.95543">
        <ele>571.6</ele>
        <time>2026-05-07T12:50:38.000Z</time>
      </trkpt>
      <trkpt lat="43.59954" lon="2.95543">
        <ele>571.6</ele>
        <time>2026-05-07T12:50:39.000Z</time>
      </trkpt>
      <trkpt lat="43.59954" lon="2.95543">
        <ele>571.8</ele>
        <time>2026-05-07T12:50:40.000Z</time>
      </trkpt>
      <trkpt lat="43.59954" lon="2.95543">
        <ele>572</ele>
        <time>2026-05-07T12:50:41.000Z</time>
      </trkpt>
      <trkpt lat="43.59954" lon="2.95543">
        <ele>572.1</ele>
        <time>2026-05-07T12:50:42.000Z</time>
      </trkpt>
      <trkpt lat="43.59953" lon="2.95543">
        <ele>572.2</ele>
        <time>2026-05-07T12:50:43.000Z</time>
      </trkpt>
      <trkpt lat="43.59953" lon="2.95543">
        <ele>572.3</ele>
        <time>2026-05-07T12:50:44.000Z</time>
      </trkpt>
      <trkpt lat="43.59953" lon="2.95543">
        <ele>572.2</ele>
        <time>2026-05-07T12:50:45.000Z</time>
      </trkpt>
      <trkpt lat="43.59953" lon="2.95543">
        <ele>572.2</ele>
        <time>2026-05-07T12:50:46.000Z</time>
      </trkpt>
      <trkpt lat="43.59954" lon="2.95543">
        <ele>572.1</ele>
        <time>2026-05-07T12:50:47.000Z</time>
      </trkpt>
      <trkpt lat="43.59954" lon="2.95543">
        <ele>572.2</ele>
        <time>2026-05-07T12:50:48.000Z</time>
      </trkpt>
      <trkpt lat="43.59954" lon="2.95542">
        <ele>572.4</ele>
        <time>2026-05-07T12:50:49.000Z</time>
      </trkpt>
      <trkpt lat="43.59954" lon="2.95542">
        <ele>572.7</ele>
        <time>2026-05-07T12:50:50.000Z</time>
      </trkpt>
      <trkpt lat="43.59953" lon="2.95542">
        <ele>572.9</ele>
        <time>2026-05-07T12:50:51.000Z</time>
      </trkpt>
      <trkpt lat="43.59952" lon="2.95542">
        <ele>573.1</ele>
        <time>2026-05-07T12:50:52.000Z</time>
      </trkpt>
      <trkpt lat="43.59952" lon="2.95542">
        <ele>573.3</ele>
        <time>2026-05-07T12:50:53.000Z</time>
      </trkpt>
      <trkpt lat="43.59951" lon="2.95542">
        <ele>573.3</ele>
        <time>2026-05-07T12:50:54.000Z</time>
      </trkpt>
      <trkpt lat="43.59951" lon="2.95542">
        <ele>573.4</ele>
        <time>2026-05-07T12:50:55.000Z</time>
      </trkpt>
      <trkpt lat="43.59951" lon="2.95542">
        <ele>573.5</ele>
        <time>2026-05-07T12:50:56.000Z</time>
      </trkpt>
      <trkpt lat="43.59951" lon="2.95542">
        <ele>573.6</ele>
        <time>2026-05-07T12:50:57.000Z</time>
      </trkpt>
      <trkpt lat="43.5995" lon="2.95542">
        <ele>573.7</ele>
        <time>2026-05-07T12:50:58.000Z</time>
      </trkpt>
      <trkpt lat="43.5995" lon="2.95542">
        <ele>573.6</ele>
        <time>2026-05-07T12:50:59.000Z</time>
      </trkpt>
      <trkpt lat="43.5995" lon="2.95542">
        <ele>573.3</ele>
        <time>2026-05-07T12:51:00.000Z</time>
      </trkpt>
      <trkpt lat="43.5995" lon="2.95542">
        <ele>573.2</ele>
        <time>2026-05-07T12:51:01.000Z</time>
      </trkpt>
      <trkpt lat="43.59951" lon="2.95542">
        <ele>573.1</ele>
        <time>2026-05-07T12:51:02.000Z</time>
      </trkpt>
      <trkpt lat="43.59951" lon="2.95542">
        <ele>573</ele>
        <time>2026-05-07T12:51:03.000Z</time>
      </trkpt>
      <trkpt lat="43.59951" lon="2.95542">
        <ele>572.9</ele>
        <time>2026-05-07T12:51:04.000Z</time>
      </trkpt>
      <trkpt lat="43.59951" lon="2.95543">
        <ele>572.9</ele>
        <time>2026-05-07T12:51:05.000Z</time>
      </trkpt>
      <trkpt lat="43.59951" lon="2.95543">
        <ele>572.7</ele>
        <time>2026-05-07T12:51:06.000Z</time>
      </trkpt>
      <trkpt lat="43.59951" lon="2.95543">
        <ele>572.6</ele>
        <time>2026-05-07T12:51:07.000Z</time>
      </trkpt>
      <trkpt lat="43.59951" lon="2.95543">
        <ele>572.4</ele>
        <time>2026-05-07T12:51:08.000Z</time>
      </trkpt>
      <trkpt lat="43.59951" lon="2.95543">
        <ele>572.4</ele>
        <time>2026-05-07T12:51:09.000Z</time>
      </trkpt>
      <trkpt lat="43.59951" lon="2.95543">
        <ele>572.4</ele>
        <time>2026-05-07T12:51:10.000Z</time>
      </trkpt>
      <trkpt lat="43.59951" lon="2.95543">
        <ele>572.5</ele>
        <time>2026-05-07T12:51:11.000Z</time>
      </trkpt>
      <trkpt lat="43.59951" lon="2.95543">
        <ele>572.5</ele>
        <time>2026-05-07T12:51:12.000Z</time>
      </trkpt>
      <trkpt lat="43.59951" lon="2.95543">
        <ele>572.4</ele>
        <time>2026-05-07T12:51:13.000Z</time>
      </trkpt>
      <trkpt lat="43.59951" lon="2.95543">
        <ele>572.5</ele>
        <time>2026-05-07T12:51:14.000Z</time>
      </trkpt>
      <trkpt lat="43.59951" lon="2.95543">
        <ele>572.3</ele>
        <time>2026-05-07T12:51:15.000Z</time>
      </trkpt>
      <trkpt lat="43.59951" lon="2.95543">
        <ele>572.1</ele>
        <time>2026-05-07T12:51:16.000Z</time>
      </trkpt>
      <trkpt lat="43.59951" lon="2.95543">
        <ele>572</ele>
        <time>2026-05-07T12:51:17.000Z</time>
      </trkpt>
      <trkpt lat="43.59951" lon="2.95543">
        <ele>571.7</ele>
        <time>2026-05-07T12:51:18.000Z</time>
      </trkpt>
      <trkpt lat="43.59951" lon="2.95543">
        <ele>571.6</ele>
        <time>2026-05-07T12:51:19.000Z</time>
      </trkpt>
      <trkpt lat="43.59951" lon="2.95544">
        <ele>571.6</ele>
        <time>2026-05-07T12:51:20.000Z</time>
      </trkpt>
      <trkpt lat="43.59951" lon="2.95544">
        <ele>571.6</ele>
        <time>2026-05-07T12:51:21.000Z</time>
      </trkpt>
      <trkpt lat="43.59951" lon="2.95545">
        <ele>571.4</ele>
        <time>2026-05-07T12:51:22.000Z</time>
      </trkpt>
      <trkpt lat="43.59951" lon="2.95545">
        <ele>571.2</ele>
        <time>2026-05-07T12:51:23.000Z</time>
      </trkpt>
      <trkpt lat="43.59951" lon="2.95545">
        <ele>571.4</ele>
        <time>2026-05-07T12:51:24.000Z</time>
      </trkpt>
      <trkpt lat="43.59951" lon="2.95545">
        <ele>571.5</ele>
        <time>2026-05-07T12:51:25.000Z</time>
      </trkpt>
      <trkpt lat="43.59951" lon="2.95545">
        <ele>571.6</ele>
        <time>2026-05-07T12:51:26.000Z</time>
      </trkpt>
      <trkpt lat="43.59952" lon="2.95545">
        <ele>571.5</ele>
        <time>2026-05-07T12:51:27.000Z</time>
      </trkpt>
      <trkpt lat="43.59952" lon="2.95544">
        <ele>571.3</ele>
        <time>2026-05-07T12:51:28.000Z</time>
      </trkpt>
      <trkpt lat="43.59952" lon="2.95544">
        <ele>571.3</ele>
        <time>2026-05-07T12:51:29.000Z</time>
      </trkpt>
      <trkpt lat="43.59952" lon="2.95545">
        <ele>571.2</ele>
        <time>2026-05-07T12:51:30.000Z</time>
      </trkpt>
      <trkpt lat="43.59952" lon="2.95544">
        <ele>571.1</ele>
        <time>2026-05-07T12:51:31.000Z</time>
      </trkpt>
      <trkpt lat="43.59952" lon="2.95544">
        <ele>570.9</ele>
        <time>2026-05-07T12:51:32.000Z</time>
      </trkpt>
      <trkpt lat="43.59952" lon="2.95545">
        <ele>570.7</ele>
        <time>2026-05-07T12:51:33.000Z</time>
      </trkpt>
      <trkpt lat="43.59952" lon="2.95545">
        <ele>570.6</ele>
        <time>2026-05-07T12:51:34.000Z</time>
      </trkpt>
      <trkpt lat="43.59952" lon="2.95544">
        <ele>570.5</ele>
        <time>2026-05-07T12:51:35.000Z</time>
      </trkpt>
      <trkpt lat="43.59952" lon="2.95544">
        <ele>570.4</ele>
        <time>2026-05-07T12:51:36.000Z</time>
      </trkpt>
      <trkpt lat="43.59952" lon="2.95544">
        <ele>570.4</ele>
        <time>2026-05-07T12:51:37.000Z</time>
      </trkpt>
      <trkpt lat="43.59952" lon="2.95544">
        <ele>570.4</ele>
        <time>2026-05-07T12:51:38.000Z</time>
      </trkpt>
      <trkpt lat="43.59951" lon="2.95545">
        <ele>570.4</ele>
        <time>2026-05-07T12:51:39.000Z</time>
      </trkpt>
      <trkpt lat="43.59951" lon="2.95545">
        <ele>570.6</ele>
        <time>2026-05-07T12:51:40.000Z</time>
      </trkpt>
      <trkpt lat="43.59951" lon="2.95545">
        <ele>570.5</ele>
        <time>2026-05-07T12:51:41.000Z</time>
      </trkpt>
      <trkpt lat="43.59951" lon="2.95545">
        <ele>570.3</ele>
        <time>2026-05-07T12:51:42.000Z</time>
      </trkpt>
      <trkpt lat="43.59951" lon="2.95545">
        <ele>570.3</ele>
        <time>2026-05-07T12:51:43.000Z</time>
      </trkpt>
      <trkpt lat="43.59951" lon="2.95545">
        <ele>570.2</ele>
        <time>2026-05-07T12:51:44.000Z</time>
      </trkpt>
      <trkpt lat="43.59951" lon="2.95545">
        <ele>570.2</ele>
        <time>2026-05-07T12:51:45.000Z</time>
      </trkpt>
      <trkpt lat="43.59952" lon="2.95545">
        <ele>570</ele>
        <time>2026-05-07T12:51:46.000Z</time>
      </trkpt>
      <trkpt lat="43.59952" lon="2.95545">
        <ele>569.5</ele>
        <time>2026-05-07T12:51:47.000Z</time>
      </trkpt>
      <trkpt lat="43.59952" lon="2.95545">
        <ele>569.3</ele>
        <time>2026-05-07T12:51:48.000Z</time>
      </trkpt>
      <trkpt lat="43.59952" lon="2.95545">
        <ele>569.3</ele>
        <time>2026-05-07T12:51:49.000Z</time>
      </trkpt>
      <trkpt lat="43.59952" lon="2.95545">
        <ele>569.3</ele>
        <time>2026-05-07T12:51:50.000Z</time>
      </trkpt>
      <trkpt lat="43.59952" lon="2.95545">
        <ele>569.2</ele>
        <time>2026-05-07T12:51:51.000Z</time>
      </trkpt>
      <trkpt lat="43.59952" lon="2.95545">
        <ele>569.2</ele>
        <time>2026-05-07T12:51:52.000Z</time>
      </trkpt>
      <trkpt lat="43.59952" lon="2.95545">
        <ele>569.3</ele>
        <time>2026-05-07T12:51:53.000Z</time>
      </trkpt>
      <trkpt lat="43.59952" lon="2.95545">
        <ele>569.4</ele>
        <time>2026-05-07T12:51:54.000Z</time>
      </trkpt>
      <trkpt lat="43.59951" lon="2.95545">
        <ele>569.5</ele>
        <time>2026-05-07T12:51:55.000Z</time>
      </trkpt>
      <trkpt lat="43.5995" lon="2.95546">
        <ele>569.4</ele>
        <time>2026-05-07T12:51:56.000Z</time>
      </trkpt>
      <trkpt lat="43.5995" lon="2.95546">
        <ele>569.5</ele>
        <time>2026-05-07T12:51:57.000Z</time>
      </trkpt>
      <trkpt lat="43.5995" lon="2.95547">
        <ele>569.5</ele>
        <time>2026-05-07T12:51:58.000Z</time>
      </trkpt>
      <trkpt lat="43.59949" lon="2.95547">
        <ele>569.6</ele>
        <time>2026-05-07T12:51:59.000Z</time>
      </trkpt>
      <trkpt lat="43.59949" lon="2.95547">
        <ele>569.6</ele>
        <time>2026-05-07T12:52:00.000Z</time>
      </trkpt>
      <trkpt lat="43.59949" lon="2.95547">
        <ele>569.4</ele>
        <time>2026-05-07T12:52:01.000Z</time>
      </trkpt>
      <trkpt lat="43.59949" lon="2.95547">
        <ele>569.4</ele>
        <time>2026-05-07T12:52:02.000Z</time>
      </trkpt>
      <trkpt lat="43.59949" lon="2.95547">
        <ele>569.4</ele>
        <time>2026-05-07T12:52:03.000Z</time>
      </trkpt>
      <trkpt lat="43.59949" lon="2.95547">
        <ele>569.5</ele>
        <time>2026-05-07T12:52:04.000Z</time>
      </trkpt>
      <trkpt lat="43.59949" lon="2.95547">
        <ele>569.8</ele>
        <time>2026-05-07T12:52:05.000Z</time>
      </trkpt>
      <trkpt lat="43.5995" lon="2.95547">
        <ele>569.9</ele>
        <time>2026-05-07T12:52:06.000Z</time>
      </trkpt>
      <trkpt lat="43.5995" lon="2.95547">
        <ele>570</ele>
        <time>2026-05-07T12:52:07.000Z</time>
      </trkpt>
      <trkpt lat="43.5995" lon="2.95547">
        <ele>570.1</ele>
        <time>2026-05-07T12:52:08.000Z</time>
      </trkpt>
      <trkpt lat="43.5995" lon="2.95547">
        <ele>570.3</ele>
        <time>2026-05-07T12:52:09.000Z</time>
      </trkpt>
      <trkpt lat="43.5995" lon="2.95547">
        <ele>570.3</ele>
        <time>2026-05-07T12:52:10.000Z</time>
      </trkpt>
      <trkpt lat="43.5995" lon="2.95547">
        <ele>570.1</ele>
        <time>2026-05-07T12:52:11.000Z</time>
      </trkpt>
      <trkpt lat="43.5995" lon="2.95547">
        <ele>570.2</ele>
        <time>2026-05-07T12:52:12.000Z</time>
      </trkpt>
      <trkpt lat="43.5995" lon="2.95547">
        <ele>570.4</ele>
        <time>2026-05-07T12:52:13.000Z</time>
      </trkpt>
      <trkpt lat="43.5995" lon="2.95546">
        <ele>570.7</ele>
        <time>2026-05-07T12:52:14.000Z</time>
      </trkpt>
      <trkpt lat="43.5995" lon="2.95546">
        <ele>570.7</ele>
        <time>2026-05-07T12:52:15.000Z</time>
      </trkpt>
      <trkpt lat="43.59951" lon="2.95547">
        <ele>570.8</ele>
        <time>2026-05-07T12:52:16.000Z</time>
      </trkpt>
      <trkpt lat="43.59951" lon="2.95547">
        <ele>570.8</ele>
        <time>2026-05-07T12:52:17.000Z</time>
      </trkpt>
      <trkpt lat="43.59951" lon="2.95547">
        <ele>570.5</ele>
        <time>2026-05-07T12:52:18.000Z</time>
      </trkpt>
      <trkpt lat="43.59951" lon="2.95547">
        <ele>570.6</ele>
        <time>2026-05-07T12:52:19.000Z</time>
      </trkpt>
      <trkpt lat="43.59952" lon="2.95547">
        <ele>570.6</ele>
        <time>2026-05-07T12:52:20.000Z</time>
      </trkpt>
      <trkpt lat="43.59952" lon="2.95547">
        <ele>570.4</ele>
        <time>2026-05-07T12:52:21.000Z</time>
      </trkpt>
      <trkpt lat="43.59952" lon="2.95547">
        <ele>570.4</ele>
        <time>2026-05-07T12:52:22.000Z</time>
      </trkpt>
      <trkpt lat="43.59952" lon="2.95547">
        <ele>570.4</ele>
        <time>2026-05-07T12:52:23.000Z</time>
      </trkpt>
      <trkpt lat="43.59952" lon="2.95547">
        <ele>570.2</ele>
        <time>2026-05-07T12:52:24.000Z</time>
      </trkpt>
      <trkpt lat="43.59952" lon="2.95546">
        <ele>570.1</ele>
        <time>2026-05-07T12:52:25.000Z</time>
      </trkpt>
      <trkpt lat="43.59952" lon="2.95546">
        <ele>570</ele>
        <time>2026-05-07T12:52:26.000Z</time>
      </trkpt>
      <trkpt lat="43.59952" lon="2.95546">
        <ele>570</ele>
        <time>2026-05-07T12:52:27.000Z</time>
      </trkpt>
      <trkpt lat="43.59952" lon="2.95546">
        <ele>570</ele>
        <time>2026-05-07T12:52:28.000Z</time>
      </trkpt>
      <trkpt lat="43.59952" lon="2.95546">
        <ele>569.9</ele>
        <time>2026-05-07T12:52:29.000Z</time>
      </trkpt>
      <trkpt lat="43.59952" lon="2.95546">
        <ele>569.9</ele>
        <time>2026-05-07T12:52:30.000Z</time>
      </trkpt>
      <trkpt lat="43.59952" lon="2.95546">
        <ele>569.6</ele>
        <time>2026-05-07T12:52:31.000Z</time>
      </trkpt>
      <trkpt lat="43.59952" lon="2.95546">
        <ele>569.5</ele>
        <time>2026-05-07T12:52:32.000Z</time>
      </trkpt>
      <trkpt lat="43.59952" lon="2.95546">
        <ele>569.5</ele>
        <time>2026-05-07T12:52:33.000Z</time>
      </trkpt>
      <trkpt lat="43.59953" lon="2.95546">
        <ele>569.5</ele>
        <time>2026-05-07T12:52:34.000Z</time>
      </trkpt>
      <trkpt lat="43.59953" lon="2.95546">
        <ele>569.6</ele>
        <time>2026-05-07T12:52:35.000Z</time>
      </trkpt>
      <trkpt lat="43.59953" lon="2.95546">
        <ele>569.6</ele>
        <time>2026-05-07T12:52:36.000Z</time>
      </trkpt>
      <trkpt lat="43.59953" lon="2.95546">
        <ele>569.6</ele>
        <time>2026-05-07T12:52:37.000Z</time>
      </trkpt>
      <trkpt lat="43.59953" lon="2.95546">
        <ele>569.5</ele>
        <time>2026-05-07T12:52:38.000Z</time>
      </trkpt>
      <trkpt lat="43.59953" lon="2.95546">
        <ele>569.6</ele>
        <time>2026-05-07T12:52:39.000Z</time>
      </trkpt>
      <trkpt lat="43.59953" lon="2.95546">
        <ele>569.3</ele>
        <time>2026-05-07T12:52:40.000Z</time>
      </trkpt>
      <trkpt lat="43.59953" lon="2.95546">
        <ele>569.1</ele>
        <time>2026-05-07T12:52:41.000Z</time>
      </trkpt>
      <trkpt lat="43.59953" lon="2.95546">
        <ele>569</ele>
        <time>2026-05-07T12:52:42.000Z</time>
      </trkpt>
      <trkpt lat="43.59953" lon="2.95546">
        <ele>568.7</ele>
        <time>2026-05-07T12:52:43.000Z</time>
      </trkpt>
      <trkpt lat="43.59953" lon="2.95546">
        <ele>568.7</ele>
        <time>2026-05-07T12:52:44.000Z</time>
      </trkpt>
      <trkpt lat="43.59953" lon="2.95546">
        <ele>568.7</ele>
        <time>2026-05-07T12:52:45.000Z</time>
      </trkpt>
      <trkpt lat="43.59953" lon="2.95546">
        <ele>568.6</ele>
        <time>2026-05-07T12:52:46.000Z</time>
      </trkpt>
      <trkpt lat="43.59953" lon="2.95546">
        <ele>568.5</ele>
        <time>2026-05-07T12:52:47.000Z</time>
      </trkpt>
      <trkpt lat="43.59953" lon="2.95546">
        <ele>568.3</ele>
        <time>2026-05-07T12:52:48.000Z</time>
      </trkpt>
      <trkpt lat="43.59953" lon="2.95546">
        <ele>568.1</ele>
        <time>2026-05-07T12:52:49.000Z</time>
      </trkpt>
      <trkpt lat="43.59953" lon="2.95546">
        <ele>567.9</ele>
        <time>2026-05-07T12:52:50.000Z</time>
      </trkpt>
      <trkpt lat="43.59953" lon="2.95546">
        <ele>567.8</ele>
        <time>2026-05-07T12:52:51.000Z</time>
      </trkpt>
      <trkpt lat="43.59953" lon="2.95546">
        <ele>567.8</ele>
        <time>2026-05-07T12:52:52.000Z</time>
      </trkpt>
      <trkpt lat="43.59953" lon="2.95546">
        <ele>567.8</ele>
        <time>2026-05-07T12:52:53.000Z</time>
      </trkpt>
      <trkpt lat="43.59953" lon="2.95546">
        <ele>567.8</ele>
        <time>2026-05-07T12:52:54.000Z</time>
      </trkpt>
      <trkpt lat="43.59953" lon="2.95546">
        <ele>567.9</ele>
        <time>2026-05-07T12:52:55.000Z</time>
      </trkpt>
      <trkpt lat="43.59953" lon="2.95547">
        <ele>568</ele>
        <time>2026-05-07T12:52:56.000Z</time>
      </trkpt>
      <trkpt lat="43.59953" lon="2.95547">
        <ele>568.1</ele>
        <time>2026-05-07T12:52:57.000Z</time>
      </trkpt>
      <trkpt lat="43.59953" lon="2.95547">
        <ele>568.2</ele>
        <time>2026-05-07T12:52:58.000Z</time>
      </trkpt>
      <trkpt lat="43.59953" lon="2.95547">
        <ele>568.2</ele>
        <time>2026-05-07T12:52:59.000Z</time>
      </trkpt>
      <trkpt lat="43.59953" lon="2.95547">
        <ele>568.1</ele>
        <time>2026-05-07T12:53:00.000Z</time>
      </trkpt>
      <trkpt lat="43.59953" lon="2.95547">
        <ele>568.1</ele>
        <time>2026-05-07T12:53:01.000Z</time>
      </trkpt>
      <trkpt lat="43.59953" lon="2.95547">
        <ele>568.3</ele>
        <time>2026-05-07T12:53:02.000Z</time>
      </trkpt>
      <trkpt lat="43.59953" lon="2.95547">
        <ele>568.4</ele>
        <time>2026-05-07T12:53:03.000Z</time>
      </trkpt>
      <trkpt lat="43.59953" lon="2.95547">
        <ele>568.7</ele>
        <time>2026-05-07T12:53:04.000Z</time>
      </trkpt>
      <trkpt lat="43.59953" lon="2.95547">
        <ele>568.9</ele>
        <time>2026-05-07T12:53:05.000Z</time>
      </trkpt>
      <trkpt lat="43.59954" lon="2.95546">
        <ele>569.1</ele>
        <time>2026-05-07T12:53:06.000Z</time>
      </trkpt>
      <trkpt lat="43.59955" lon="2.95547">
        <ele>569.3</ele>
        <time>2026-05-07T12:53:07.000Z</time>
      </trkpt>
      <trkpt lat="43.59955" lon="2.95547">
        <ele>569.5</ele>
        <time>2026-05-07T12:53:08.000Z</time>
      </trkpt>
      <trkpt lat="43.59956" lon="2.95547">
        <ele>569.6</ele>
        <time>2026-05-07T12:53:09.000Z</time>
      </trkpt>
      <trkpt lat="43.59956" lon="2.95546">
        <ele>569.7</ele>
        <time>2026-05-07T12:53:10.000Z</time>
      </trkpt>
      <trkpt lat="43.59956" lon="2.95546">
        <ele>569.7</ele>
        <time>2026-05-07T12:53:11.000Z</time>
      </trkpt>
      <trkpt lat="43.59956" lon="2.95546">
        <ele>569.6</ele>
        <time>2026-05-07T12:53:12.000Z</time>
      </trkpt>
      <trkpt lat="43.59957" lon="2.95547">
        <ele>569.7</ele>
        <time>2026-05-07T12:53:13.000Z</time>
      </trkpt>
      <trkpt lat="43.59957" lon="2.95547">
        <ele>569.6</ele>
        <time>2026-05-07T12:53:14.000Z</time>
      </trkpt>
      <trkpt lat="43.59957" lon="2.95547">
        <ele>569.4</ele>
        <time>2026-05-07T12:53:15.000Z</time>
      </trkpt>
      <trkpt lat="43.59957" lon="2.95547">
        <ele>569.5</ele>
        <time>2026-05-07T12:53:16.000Z</time>
      </trkpt>
      <trkpt lat="43.59956" lon="2.95547">
        <ele>569.6</ele>
        <time>2026-05-07T12:53:17.000Z</time>
      </trkpt>
      <trkpt lat="43.59956" lon="2.95547">
        <ele>569.7</ele>
        <time>2026-05-07T12:53:18.000Z</time>
      </trkpt>
      <trkpt lat="43.59956" lon="2.95546">
        <ele>569.7</ele>
        <time>2026-05-07T12:53:19.000Z</time>
      </trkpt>
      <trkpt lat="43.59956" lon="2.95546">
        <ele>569.7</ele>
        <time>2026-05-07T12:53:20.000Z</time>
      </trkpt>
      <trkpt lat="43.59956" lon="2.95546">
        <ele>569.8</ele>
        <time>2026-05-07T12:53:21.000Z</time>
      </trkpt>
      <trkpt lat="43.59956" lon="2.95546">
        <ele>569.8</ele>
        <time>2026-05-07T12:53:22.000Z</time>
      </trkpt>
      <trkpt lat="43.59956" lon="2.95546">
        <ele>569.8</ele>
        <time>2026-05-07T12:53:23.000Z</time>
      </trkpt>
      <trkpt lat="43.59956" lon="2.95546">
        <ele>569.7</ele>
        <time>2026-05-07T12:53:24.000Z</time>
      </trkpt>
      <trkpt lat="43.59956" lon="2.95546">
        <ele>569.8</ele>
        <time>2026-05-07T12:53:25.000Z</time>
      </trkpt>
      <trkpt lat="43.59956" lon="2.95546">
        <ele>569.8</ele>
        <time>2026-05-07T12:53:26.000Z</time>
      </trkpt>
      <trkpt lat="43.59956" lon="2.95546">
        <ele>569.9</ele>
        <time>2026-05-07T12:53:27.000Z</time>
      </trkpt>
      <trkpt lat="43.59955" lon="2.95546">
        <ele>569.9</ele>
        <time>2026-05-07T12:53:28.000Z</time>
      </trkpt>
      <trkpt lat="43.59955" lon="2.95545">
        <ele>570</ele>
        <time>2026-05-07T12:53:29.000Z</time>
      </trkpt>
      <trkpt lat="43.59956" lon="2.95545">
        <ele>570</ele>
        <time>2026-05-07T12:53:30.000Z</time>
      </trkpt>
      <trkpt lat="43.59956" lon="2.95545">
        <ele>570</ele>
        <time>2026-05-07T12:53:31.000Z</time>
      </trkpt>
      <trkpt lat="43.59956" lon="2.95545">
        <ele>569.9</ele>
        <time>2026-05-07T12:53:32.000Z</time>
      </trkpt>
      <trkpt lat="43.59955" lon="2.95545">
        <ele>569.7</ele>
        <time>2026-05-07T12:53:33.000Z</time>
      </trkpt>
      <trkpt lat="43.59955" lon="2.95545">
        <ele>569.6</ele>
        <time>2026-05-07T12:53:34.000Z</time>
      </trkpt>
      <trkpt lat="43.59955" lon="2.95545">
        <ele>569.6</ele>
        <time>2026-05-07T12:53:35.000Z</time>
      </trkpt>
      <trkpt lat="43.59955" lon="2.95545">
        <ele>569.6</ele>
        <time>2026-05-07T12:53:36.000Z</time>
      </trkpt>
      <trkpt lat="43.59955" lon="2.95545">
        <ele>569.6</ele>
        <time>2026-05-07T12:53:37.000Z</time>
      </trkpt>
      <trkpt lat="43.59955" lon="2.95545">
        <ele>569.5</ele>
        <time>2026-05-07T12:53:38.000Z</time>
      </trkpt>
      <trkpt lat="43.59955" lon="2.95545">
        <ele>569.2</ele>
        <time>2026-05-07T12:53:39.000Z</time>
      </trkpt>
      <trkpt lat="43.59955" lon="2.95545">
        <ele>569</ele>
        <time>2026-05-07T12:53:40.000Z</time>
      </trkpt>
      <trkpt lat="43.59955" lon="2.95545">
        <ele>569</ele>
        <time>2026-05-07T12:53:41.000Z</time>
      </trkpt>
      <trkpt lat="43.59955" lon="2.95545">
        <ele>569.2</ele>
        <time>2026-05-07T12:53:42.000Z</time>
      </trkpt>
      <trkpt lat="43.59955" lon="2.95545">
        <ele>569.1</ele>
        <time>2026-05-07T12:53:43.000Z</time>
      </trkpt>
      <trkpt lat="43.59955" lon="2.95545">
        <ele>569.1</ele>
        <time>2026-05-07T12:53:44.000Z</time>
      </trkpt>
      <trkpt lat="43.59955" lon="2.95545">
        <ele>569.3</ele>
        <time>2026-05-07T12:53:45.000Z</time>
      </trkpt>
      <trkpt lat="43.59955" lon="2.95545">
        <ele>569.5</ele>
        <time>2026-05-07T12:53:46.000Z</time>
      </trkpt>
      <trkpt lat="43.59955" lon="2.95545">
        <ele>569.5</ele>
        <time>2026-05-07T12:53:47.000Z</time>
      </trkpt>
      <trkpt lat="43.59955" lon="2.95545">
        <ele>569.5</ele>
        <time>2026-05-07T12:53:48.000Z</time>
      </trkpt>
      <trkpt lat="43.59955" lon="2.95545">
        <ele>569.5</ele>
        <time>2026-05-07T12:53:49.000Z</time>
      </trkpt>
      <trkpt lat="43.59955" lon="2.95545">
        <ele>569.5</ele>
        <time>2026-05-07T12:53:50.000Z</time>
      </trkpt>
      <trkpt lat="43.59955" lon="2.95545">
        <ele>569.4</ele>
        <time>2026-05-07T12:53:51.000Z</time>
      </trkpt>
      <trkpt lat="43.59955" lon="2.95545">
        <ele>569.2</ele>
        <time>2026-05-07T12:53:52.000Z</time>
      </trkpt>
      <trkpt lat="43.59956" lon="2.95545">
        <ele>569.3</ele>
        <time>2026-05-07T12:53:53.000Z</time>
      </trkpt>
      <trkpt lat="43.59956" lon="2.95545">
        <ele>569.3</ele>
        <time>2026-05-07T12:53:54.000Z</time>
      </trkpt>
      <trkpt lat="43.59956" lon="2.95546">
        <ele>569.1</ele>
        <time>2026-05-07T12:53:55.000Z</time>
      </trkpt>
      <trkpt lat="43.59957" lon="2.95546">
        <ele>569.1</ele>
        <time>2026-05-07T12:53:56.000Z</time>
      </trkpt>
      <trkpt lat="43.59958" lon="2.95546">
        <ele>569.1</ele>
        <time>2026-05-07T12:53:57.000Z</time>
      </trkpt>
      <trkpt lat="43.59958" lon="2.95546">
        <ele>569.2</ele>
        <time>2026-05-07T12:53:58.000Z</time>
      </trkpt>
      <trkpt lat="43.59958" lon="2.95546">
        <ele>569.2</ele>
        <time>2026-05-07T12:53:59.000Z</time>
      </trkpt>
      <trkpt lat="43.59958" lon="2.95546">
        <ele>569.1</ele>
        <time>2026-05-07T12:54:00.000Z</time>
      </trkpt>
      <trkpt lat="43.59958" lon="2.95546">
        <ele>569.1</ele>
        <time>2026-05-07T12:54:01.000Z</time>
      </trkpt>
      <trkpt lat="43.59958" lon="2.95546">
        <ele>569</ele>
        <time>2026-05-07T12:54:02.000Z</time>
      </trkpt>
      <trkpt lat="43.59958" lon="2.95546">
        <ele>569</ele>
        <time>2026-05-07T12:54:03.000Z</time>
      </trkpt>
      <trkpt lat="43.59957" lon="2.95545">
        <ele>568.9</ele>
        <time>2026-05-07T12:54:04.000Z</time>
      </trkpt>
      <trkpt lat="43.59957" lon="2.95545">
        <ele>568.8</ele>
        <time>2026-05-07T12:54:05.000Z</time>
      </trkpt>
      <trkpt lat="43.59957" lon="2.95545">
        <ele>568.8</ele>
        <time>2026-05-07T12:54:06.000Z</time>
      </trkpt>
      <trkpt lat="43.59957" lon="2.95545">
        <ele>568.6</ele>
        <time>2026-05-07T12:54:07.000Z</time>
      </trkpt>
      <trkpt lat="43.59957" lon="2.95545">
        <ele>568.4</ele>
        <time>2026-05-07T12:54:08.000Z</time>
      </trkpt>
      <trkpt lat="43.59957" lon="2.95545">
        <ele>568.3</ele>
        <time>2026-05-07T12:54:09.000Z</time>
      </trkpt>
      <trkpt lat="43.59957" lon="2.95545">
        <ele>568.2</ele>
        <time>2026-05-07T12:54:10.000Z</time>
      </trkpt>
      <trkpt lat="43.59957" lon="2.95545">
        <ele>568.1</ele>
        <time>2026-05-07T12:54:11.000Z</time>
      </trkpt>
      <trkpt lat="43.59957" lon="2.95545">
        <ele>568.1</ele>
        <time>2026-05-07T12:54:12.000Z</time>
      </trkpt>
      <trkpt lat="43.59957" lon="2.95545">
        <ele>568</ele>
        <time>2026-05-07T12:54:13.000Z</time>
      </trkpt>
      <trkpt lat="43.59958" lon="2.95546">
        <ele>568</ele>
        <time>2026-05-07T12:54:14.000Z</time>
      </trkpt>
      <trkpt lat="43.59958" lon="2.95546">
        <ele>567.9</ele>
        <time>2026-05-07T12:54:15.000Z</time>
      </trkpt>
      <trkpt lat="43.59958" lon="2.95546">
        <ele>567.6</ele>
        <time>2026-05-07T12:54:16.000Z</time>
      </trkpt>
      <trkpt lat="43.59958" lon="2.95546">
        <ele>567.5</ele>
        <time>2026-05-07T12:54:17.000Z</time>
      </trkpt>
      <trkpt lat="43.59958" lon="2.95546">
        <ele>567.4</ele>
        <time>2026-05-07T12:54:18.000Z</time>
      </trkpt>
      <trkpt lat="43.59958" lon="2.95546">
        <ele>567.2</ele>
        <time>2026-05-07T12:54:19.000Z</time>
      </trkpt>
      <trkpt lat="43.59958" lon="2.95546">
        <ele>567.3</ele>
        <time>2026-05-07T12:54:20.000Z</time>
      </trkpt>
      <trkpt lat="43.59958" lon="2.95546">
        <ele>567.2</ele>
        <time>2026-05-07T12:54:21.000Z</time>
      </trkpt>
      <trkpt lat="43.59958" lon="2.95546">
        <ele>567.1</ele>
        <time>2026-05-07T12:54:22.000Z</time>
      </trkpt>
      <trkpt lat="43.59958" lon="2.95546">
        <ele>567</ele>
        <time>2026-05-07T12:54:23.000Z</time>
      </trkpt>
      <trkpt lat="43.59958" lon="2.95546">
        <ele>566.9</ele>
        <time>2026-05-07T12:54:24.000Z</time>
      </trkpt>
      <trkpt lat="43.59958" lon="2.95546">
        <ele>567</ele>
        <time>2026-05-07T12:54:25.000Z</time>
      </trkpt>
      <trkpt lat="43.59958" lon="2.95546">
        <ele>567</ele>
        <time>2026-05-07T12:54:26.000Z</time>
      </trkpt>
      <trkpt lat="43.59957" lon="2.95546">
        <ele>567.2</ele>
        <time>2026-05-07T12:54:27.000Z</time>
      </trkpt>
      <trkpt lat="43.59956" lon="2.95546">
        <ele>567.3</ele>
        <time>2026-05-07T12:54:28.000Z</time>
      </trkpt>
      <trkpt lat="43.59955" lon="2.95547">
        <ele>567.4</ele>
        <time>2026-05-07T12:54:29.000Z</time>
      </trkpt>
      <trkpt lat="43.59954" lon="2.95547">
        <ele>567.5</ele>
        <time>2026-05-07T12:54:30.000Z</time>
      </trkpt>
      <trkpt lat="43.59954" lon="2.95547">
        <ele>567.7</ele>
        <time>2026-05-07T12:54:31.000Z</time>
      </trkpt>
      <trkpt lat="43.59954" lon="2.95546">
        <ele>567.8</ele>
        <time>2026-05-07T12:54:32.000Z</time>
      </trkpt>
      <trkpt lat="43.59955" lon="2.95547">
        <ele>568.1</ele>
        <time>2026-05-07T12:54:33.000Z</time>
      </trkpt>
      <trkpt lat="43.59956" lon="2.95547">
        <ele>568.3</ele>
        <time>2026-05-07T12:54:34.000Z</time>
      </trkpt>
      <trkpt lat="43.59956" lon="2.95547">
        <ele>568.4</ele>
        <time>2026-05-07T12:54:35.000Z</time>
      </trkpt>
      <trkpt lat="43.59956" lon="2.95547">
        <ele>568.6</ele>
        <time>2026-05-07T12:54:36.000Z</time>
      </trkpt>
      <trkpt lat="43.59956" lon="2.95547">
        <ele>568.7</ele>
        <time>2026-05-07T12:54:37.000Z</time>
      </trkpt>
      <trkpt lat="43.59956" lon="2.95547">
        <ele>568.8</ele>
        <time>2026-05-07T12:54:38.000Z</time>
      </trkpt>
      <trkpt lat="43.59956" lon="2.95547">
        <ele>569</ele>
        <time>2026-05-07T12:54:39.000Z</time>
      </trkpt>
      <trkpt lat="43.59956" lon="2.95547">
        <ele>568.9</ele>
        <time>2026-05-07T12:54:40.000Z</time>
      </trkpt>
      <trkpt lat="43.59956" lon="2.95547">
        <ele>569</ele>
        <time>2026-05-07T12:54:41.000Z</time>
      </trkpt>
      <trkpt lat="43.59955" lon="2.95547">
        <ele>569.2</ele>
        <time>2026-05-07T12:54:42.000Z</time>
      </trkpt>
      <trkpt lat="43.59955" lon="2.95547">
        <ele>569.3</ele>
        <time>2026-05-07T12:54:43.000Z</time>
      </trkpt>
      <trkpt lat="43.59955" lon="2.95547">
        <ele>569.3</ele>
        <time>2026-05-07T12:54:44.000Z</time>
      </trkpt>
      <trkpt lat="43.59955" lon="2.95547">
        <ele>569.3</ele>
        <time>2026-05-07T12:54:45.000Z</time>
      </trkpt>
      <trkpt lat="43.59955" lon="2.95547">
        <ele>569.4</ele>
        <time>2026-05-07T12:54:46.000Z</time>
      </trkpt>
      <trkpt lat="43.59955" lon="2.95547">
        <ele>569.3</ele>
        <time>2026-05-07T12:54:47.000Z</time>
      </trkpt>
      <trkpt lat="43.59955" lon="2.95547">
        <ele>569.3</ele>
        <time>2026-05-07T12:54:48.000Z</time>
      </trkpt>
      <trkpt lat="43.59955" lon="2.95547">
        <ele>569.3</ele>
        <time>2026-05-07T12:54:49.000Z</time>
      </trkpt>
      <trkpt lat="43.59955" lon="2.95547">
        <ele>569.4</ele>
        <time>2026-05-07T12:54:50.000Z</time>
      </trkpt>
      <trkpt lat="43.59955" lon="2.95547">
        <ele>569.5</ele>
        <time>2026-05-07T12:54:51.000Z</time>
      </trkpt>
      <trkpt lat="43.59955" lon="2.95547">
        <ele>569.2</ele>
        <time>2026-05-07T12:54:52.000Z</time>
      </trkpt>
      <trkpt lat="43.59955" lon="2.95547">
        <ele>568.5</ele>
        <time>2026-05-07T12:54:53.000Z</time>
      </trkpt>
      <trkpt lat="43.59955" lon="2.95547">
        <ele>568.2</ele>
        <time>2026-05-07T12:54:54.000Z</time>
      </trkpt>
      <trkpt lat="43.59955" lon="2.95547">
        <ele>568.1</ele>
        <time>2026-05-07T12:54:55.000Z</time>
      </trkpt>
      <trkpt lat="43.59955" lon="2.95547">
        <ele>568.3</ele>
        <time>2026-05-07T12:54:56.000Z</time>
      </trkpt>
      <trkpt lat="43.59955" lon="2.95547">
        <ele>568.2</ele>
        <time>2026-05-07T12:54:57.000Z</time>
      </trkpt>
      <trkpt lat="43.59955" lon="2.95547">
        <ele>568.4</ele>
        <time>2026-05-07T12:54:58.000Z</time>
      </trkpt>
      <trkpt lat="43.59955" lon="2.95547">
        <ele>568.5</ele>
        <time>2026-05-07T12:54:59.000Z</time>
      </trkpt>
      <trkpt lat="43.59955" lon="2.95547">
        <ele>568.8</ele>
        <time>2026-05-07T12:55:00.000Z</time>
      </trkpt>
      <trkpt lat="43.59955" lon="2.95547">
        <ele>568.9</ele>
        <time>2026-05-07T12:55:01.000Z</time>
      </trkpt>
      <trkpt lat="43.59955" lon="2.95547">
        <ele>569.1</ele>
        <time>2026-05-07T12:55:02.000Z</time>
      </trkpt>
      <trkpt lat="43.59955" lon="2.95547">
        <ele>569.1</ele>
        <time>2026-05-07T12:55:03.000Z</time>
      </trkpt>
      <trkpt lat="43.59955" lon="2.95547">
        <ele>568.9</ele>
        <time>2026-05-07T12:55:04.000Z</time>
      </trkpt>
      <trkpt lat="43.59955" lon="2.95547">
        <ele>568.7</ele>
        <time>2026-05-07T12:55:05.000Z</time>
      </trkpt>
      <trkpt lat="43.59955" lon="2.95547">
        <ele>568.8</ele>
        <time>2026-05-07T12:55:06.000Z</time>
      </trkpt>
      <trkpt lat="43.59955" lon="2.95547">
        <ele>568.8</ele>
        <time>2026-05-07T12:55:07.000Z</time>
      </trkpt>
      <trkpt lat="43.59955" lon="2.95547">
        <ele>569</ele>
        <time>2026-05-07T12:55:08.000Z</time>
      </trkpt>
      <trkpt lat="43.59955" lon="2.95546">
        <ele>568.9</ele>
        <time>2026-05-07T12:55:09.000Z</time>
      </trkpt>
      <trkpt lat="43.59955" lon="2.95545">
        <ele>568.9</ele>
        <time>2026-05-07T12:55:10.000Z</time>
      </trkpt>
      <trkpt lat="43.59956" lon="2.95545">
        <ele>569.2</ele>
        <time>2026-05-07T12:55:11.000Z</time>
      </trkpt>
      <trkpt lat="43.59956" lon="2.95545">
        <ele>569.3</ele>
        <time>2026-05-07T12:55:12.000Z</time>
      </trkpt>
      <trkpt lat="43.59956" lon="2.95545">
        <ele>569.5</ele>
        <time>2026-05-07T12:55:13.000Z</time>
      </trkpt>
      <trkpt lat="43.59956" lon="2.95545">
        <ele>569.7</ele>
        <time>2026-05-07T12:55:14.000Z</time>
      </trkpt>
      <trkpt lat="43.59955" lon="2.95545">
        <ele>570.1</ele>
        <time>2026-05-07T12:55:15.000Z</time>
      </trkpt>
      <trkpt lat="43.59954" lon="2.95545">
        <ele>570.2</ele>
        <time>2026-05-07T12:55:16.000Z</time>
      </trkpt>
      <trkpt lat="43.59954" lon="2.95545">
        <ele>570.4</ele>
        <time>2026-05-07T12:55:17.000Z</time>
      </trkpt>
      <trkpt lat="43.59955" lon="2.95545">
        <ele>570.5</ele>
        <time>2026-05-07T12:55:18.000Z</time>
      </trkpt>
      <trkpt lat="43.59955" lon="2.95545">
        <ele>570.7</ele>
        <time>2026-05-07T12:55:19.000Z</time>
      </trkpt>
      <trkpt lat="43.59955" lon="2.95545">
        <ele>570.7</ele>
        <time>2026-05-07T12:55:20.000Z</time>
      </trkpt>
      <trkpt lat="43.59955" lon="2.95545">
        <ele>570.7</ele>
        <time>2026-05-07T12:55:21.000Z</time>
      </trkpt>
      <trkpt lat="43.59955" lon="2.95546">
        <ele>570.8</ele>
        <time>2026-05-07T12:55:22.000Z</time>
      </trkpt>
      <trkpt lat="43.59955" lon="2.95546">
        <ele>570.6</ele>
        <time>2026-05-07T12:55:23.000Z</time>
      </trkpt>
      <trkpt lat="43.59956" lon="2.95546">
        <ele>570.8</ele>
        <time>2026-05-07T12:55:24.000Z</time>
      </trkpt>
      <trkpt lat="43.59956" lon="2.95546">
        <ele>570.9</ele>
        <time>2026-05-07T12:55:25.000Z</time>
      </trkpt>
      <trkpt lat="43.59956" lon="2.95546">
        <ele>570.9</ele>
        <time>2026-05-07T12:55:26.000Z</time>
      </trkpt>
      <trkpt lat="43.59956" lon="2.95546">
        <ele>570.9</ele>
        <time>2026-05-07T12:55:27.000Z</time>
      </trkpt>
      <trkpt lat="43.59956" lon="2.95546">
        <ele>570.8</ele>
        <time>2026-05-07T12:55:28.000Z</time>
      </trkpt>
      <trkpt lat="43.59956" lon="2.95546">
        <ele>570.9</ele>
        <time>2026-05-07T12:55:29.000Z</time>
      </trkpt>
      <trkpt lat="43.59956" lon="2.95546">
        <ele>571.3</ele>
        <time>2026-05-07T12:55:30.000Z</time>
      </trkpt>
      <trkpt lat="43.59956" lon="2.95546">
        <ele>571.6</ele>
        <time>2026-05-07T12:55:31.000Z</time>
      </trkpt>
      <trkpt lat="43.59956" lon="2.95546">
        <ele>571.7</ele>
        <time>2026-05-07T12:55:32.000Z</time>
      </trkpt>
      <trkpt lat="43.59956" lon="2.95546">
        <ele>571.6</ele>
        <time>2026-05-07T12:55:33.000Z</time>
      </trkpt>
      <trkpt lat="43.59956" lon="2.95546">
        <ele>571.3</ele>
        <time>2026-05-07T12:55:34.000Z</time>
      </trkpt>
      <trkpt lat="43.59956" lon="2.95546">
        <ele>571</ele>
        <time>2026-05-07T12:55:35.000Z</time>
      </trkpt>
      <trkpt lat="43.59956" lon="2.95546">
        <ele>570.8</ele>
        <time>2026-05-07T12:55:36.000Z</time>
      </trkpt>
      <trkpt lat="43.59956" lon="2.95546">
        <ele>570.7</ele>
        <time>2026-05-07T12:55:37.000Z</time>
      </trkpt>
      <trkpt lat="43.59956" lon="2.95546">
        <ele>570.5</ele>
        <time>2026-05-07T12:55:38.000Z</time>
      </trkpt>
      <trkpt lat="43.59956" lon="2.95546">
        <ele>570.6</ele>
        <time>2026-05-07T12:55:39.000Z</time>
      </trkpt>
      <trkpt lat="43.59956" lon="2.95546">
        <ele>570.7</ele>
        <time>2026-05-07T12:55:40.000Z</time>
      </trkpt>
      <trkpt lat="43.59956" lon="2.95546">
        <ele>570.9</ele>
        <time>2026-05-07T12:55:41.000Z</time>
      </trkpt>
      <trkpt lat="43.59956" lon="2.95546">
        <ele>570.9</ele>
        <time>2026-05-07T12:55:42.000Z</time>
      </trkpt>
      <trkpt lat="43.59956" lon="2.95546">
        <ele>570.9</ele>
        <time>2026-05-07T12:55:43.000Z</time>
      </trkpt>
      <trkpt lat="43.59956" lon="2.95546">
        <ele>570.9</ele>
        <time>2026-05-07T12:55:44.000Z</time>
      </trkpt>
      <trkpt lat="43.59956" lon="2.95546">
        <ele>570.8</ele>
        <time>2026-05-07T12:55:45.000Z</time>
      </trkpt>
      <trkpt lat="43.59956" lon="2.95546">
        <ele>570.7</ele>
        <time>2026-05-07T12:55:46.000Z</time>
      </trkpt>
      <trkpt lat="43.59956" lon="2.95546">
        <ele>570.8</ele>
        <time>2026-05-07T12:55:47.000Z</time>
      </trkpt>
      <trkpt lat="43.59956" lon="2.95546">
        <ele>570.7</ele>
        <time>2026-05-07T12:55:48.000Z</time>
      </trkpt>
      <trkpt lat="43.59956" lon="2.95546">
        <ele>570.5</ele>
        <time>2026-05-07T12:55:49.000Z</time>
      </trkpt>
      <trkpt lat="43.59956" lon="2.95546">
        <ele>570.2</ele>
        <time>2026-05-07T12:55:50.000Z</time>
      </trkpt>
      <trkpt lat="43.59956" lon="2.95546">
        <ele>569.8</ele>
        <time>2026-05-07T12:55:51.000Z</time>
      </trkpt>
      <trkpt lat="43.59956" lon="2.95546">
        <ele>569.6</ele>
        <time>2026-05-07T12:55:52.000Z</time>
      </trkpt>
      <trkpt lat="43.59956" lon="2.95546">
        <ele>569.5</ele>
        <time>2026-05-07T12:55:53.000Z</time>
      </trkpt>
      <trkpt lat="43.59956" lon="2.95546">
        <ele>569.6</ele>
        <time>2026-05-07T12:55:54.000Z</time>
      </trkpt>
      <trkpt lat="43.59956" lon="2.95546">
        <ele>569.6</ele>
        <time>2026-05-07T12:55:55.000Z</time>
      </trkpt>
      <trkpt lat="43.59956" lon="2.95547">
        <ele>569.6</ele>
        <time>2026-05-07T12:55:56.000Z</time>
      </trkpt>
      <trkpt lat="43.59957" lon="2.95547">
        <ele>569.5</ele>
        <time>2026-05-07T12:55:57.000Z</time>
      </trkpt>
      <trkpt lat="43.59957" lon="2.95547">
        <ele>569.3</ele>
        <time>2026-05-07T12:55:58.000Z</time>
      </trkpt>
      <trkpt lat="43.59957" lon="2.95547">
        <ele>569.3</ele>
        <time>2026-05-07T12:55:59.000Z</time>
      </trkpt>
      <trkpt lat="43.59956" lon="2.95548">
        <ele>569.4</ele>
        <time>2026-05-07T12:56:00.000Z</time>
      </trkpt>
      <trkpt lat="43.59956" lon="2.95548">
        <ele>569.4</ele>
        <time>2026-05-07T12:56:01.000Z</time>
      </trkpt>
      <trkpt lat="43.59956" lon="2.95548">
        <ele>569.3</ele>
        <time>2026-05-07T12:56:02.000Z</time>
      </trkpt>
      <trkpt lat="43.59956" lon="2.95548">
        <ele>569.2</ele>
        <time>2026-05-07T12:56:03.000Z</time>
      </trkpt>
      <trkpt lat="43.59956" lon="2.95548">
        <ele>569.1</ele>
        <time>2026-05-07T12:56:04.000Z</time>
      </trkpt>
      <trkpt lat="43.59956" lon="2.95549">
        <ele>569.2</ele>
        <time>2026-05-07T12:56:05.000Z</time>
      </trkpt>
      <trkpt lat="43.59955" lon="2.95549">
        <ele>569.2</ele>
        <time>2026-05-07T12:56:06.000Z</time>
      </trkpt>
      <trkpt lat="43.59955" lon="2.95549">
        <ele>569.2</ele>
        <time>2026-05-07T12:56:07.000Z</time>
      </trkpt>
      <trkpt lat="43.59955" lon="2.95549">
        <ele>569.4</ele>
        <time>2026-05-07T12:56:08.000Z</time>
      </trkpt>
      <trkpt lat="43.59955" lon="2.95549">
        <ele>569.5</ele>
        <time>2026-05-07T12:56:09.000Z</time>
      </trkpt>
      <trkpt lat="43.59956" lon="2.95549">
        <ele>569.7</ele>
        <time>2026-05-07T12:56:10.000Z</time>
      </trkpt>
      <trkpt lat="43.59956" lon="2.95549">
        <ele>569.7</ele>
        <time>2026-05-07T12:56:11.000Z</time>
      </trkpt>
      <trkpt lat="43.59956" lon="2.95549">
        <ele>569.7</ele>
        <time>2026-05-07T12:56:12.000Z</time>
      </trkpt>
      <trkpt lat="43.59956" lon="2.95549">
        <ele>569.6</ele>
        <time>2026-05-07T12:56:13.000Z</time>
      </trkpt>
      <trkpt lat="43.59956" lon="2.95549">
        <ele>569.4</ele>
        <time>2026-05-07T12:56:14.000Z</time>
      </trkpt>
      <trkpt lat="43.59956" lon="2.95549">
        <ele>569.4</ele>
        <time>2026-05-07T12:56:15.000Z</time>
      </trkpt>
      <trkpt lat="43.59956" lon="2.95549">
        <ele>569.3</ele>
        <time>2026-05-07T12:56:16.000Z</time>
      </trkpt>
      <trkpt lat="43.59956" lon="2.95549">
        <ele>569.4</ele>
        <time>2026-05-07T12:56:17.000Z</time>
      </trkpt>
      <trkpt lat="43.59956" lon="2.95549">
        <ele>569.6</ele>
        <time>2026-05-07T12:56:18.000Z</time>
      </trkpt>
      <trkpt lat="43.59956" lon="2.95548">
        <ele>569.6</ele>
        <time>2026-05-07T12:56:19.000Z</time>
      </trkpt>
      <trkpt lat="43.59956" lon="2.95548">
        <ele>569.6</ele>
        <time>2026-05-07T12:56:20.000Z</time>
      </trkpt>
      <trkpt lat="43.59956" lon="2.95549">
        <ele>569.6</ele>
        <time>2026-05-07T12:56:21.000Z</time>
      </trkpt>
      <trkpt lat="43.59956" lon="2.95549">
        <ele>569.7</ele>
        <time>2026-05-07T12:56:22.000Z</time>
      </trkpt>
      <trkpt lat="43.59956" lon="2.95549">
        <ele>569.7</ele>
        <time>2026-05-07T12:56:23.000Z</time>
      </trkpt>
      <trkpt lat="43.59956" lon="2.95549">
        <ele>569.7</ele>
        <time>2026-05-07T12:56:24.000Z</time>
      </trkpt>
      <trkpt lat="43.59956" lon="2.95548">
        <ele>569.6</ele>
        <time>2026-05-07T12:56:25.000Z</time>
      </trkpt>
      <trkpt lat="43.59956" lon="2.95548">
        <ele>569.7</ele>
        <time>2026-05-07T12:56:26.000Z</time>
      </trkpt>
      <trkpt lat="43.59956" lon="2.95548">
        <ele>569.7</ele>
        <time>2026-05-07T12:56:27.000Z</time>
      </trkpt>
      <trkpt lat="43.59956" lon="2.95548">
        <ele>569.9</ele>
        <time>2026-05-07T12:56:28.000Z</time>
      </trkpt>
      <trkpt lat="43.59956" lon="2.95548">
        <ele>569.9</ele>
        <time>2026-05-07T12:56:29.000Z</time>
      </trkpt>
      <trkpt lat="43.59956" lon="2.95548">
        <ele>569.9</ele>
        <time>2026-05-07T12:56:30.000Z</time>
      </trkpt>
      <trkpt lat="43.59956" lon="2.95548">
        <ele>569.8</ele>
        <time>2026-05-07T12:56:31.000Z</time>
      </trkpt>
      <trkpt lat="43.59956" lon="2.95548">
        <ele>569.7</ele>
        <time>2026-05-07T12:56:32.000Z</time>
      </trkpt>
      <trkpt lat="43.59956" lon="2.95548">
        <ele>569.8</ele>
        <time>2026-05-07T12:56:33.000Z</time>
      </trkpt>
      <trkpt lat="43.59956" lon="2.95548">
        <ele>570</ele>
        <time>2026-05-07T12:56:34.000Z</time>
      </trkpt>
      <trkpt lat="43.59956" lon="2.95548">
        <ele>570.2</ele>
        <time>2026-05-07T12:56:35.000Z</time>
      </trkpt>
      <trkpt lat="43.59956" lon="2.95548">
        <ele>570.2</ele>
        <time>2026-05-07T12:56:36.000Z</time>
      </trkpt>
      <trkpt lat="43.59956" lon="2.95548">
        <ele>570.1</ele>
        <time>2026-05-07T12:56:37.000Z</time>
      </trkpt>
      <trkpt lat="43.59956" lon="2.95548">
        <ele>570.1</ele>
        <time>2026-05-07T12:56:38.000Z</time>
      </trkpt>
      <trkpt lat="43.59956" lon="2.95548">
        <ele>570.1</ele>
        <time>2026-05-07T12:56:39.000Z</time>
      </trkpt>
      <trkpt lat="43.59956" lon="2.95548">
        <ele>569.9</ele>
        <time>2026-05-07T12:56:40.000Z</time>
      </trkpt>
      <trkpt lat="43.59956" lon="2.95548">
        <ele>569.8</ele>
        <time>2026-05-07T12:56:41.000Z</time>
      </trkpt>
      <trkpt lat="43.59956" lon="2.95548">
        <ele>569.9</ele>
        <time>2026-05-07T12:56:42.000Z</time>
      </trkpt>
      <trkpt lat="43.59956" lon="2.95548">
        <ele>569.9</ele>
        <time>2026-05-07T12:56:43.000Z</time>
      </trkpt>
      <trkpt lat="43.59956" lon="2.95548">
        <ele>570.1</ele>
        <time>2026-05-07T12:56:44.000Z</time>
      </trkpt>
      <trkpt lat="43.59956" lon="2.95548">
        <ele>570</ele>
        <time>2026-05-07T12:56:45.000Z</time>
      </trkpt>
      <trkpt lat="43.59956" lon="2.95548">
        <ele>569.9</ele>
        <time>2026-05-07T12:56:46.000Z</time>
      </trkpt>
      <trkpt lat="43.59955" lon="2.95548">
        <ele>569.9</ele>
        <time>2026-05-07T12:56:47.000Z</time>
      </trkpt>
      <trkpt lat="43.59955" lon="2.95548">
        <ele>569.9</ele>
        <time>2026-05-07T12:56:48.000Z</time>
      </trkpt>
      <trkpt lat="43.59955" lon="2.95548">
        <ele>570</ele>
        <time>2026-05-07T12:56:49.000Z</time>
      </trkpt>
      <trkpt lat="43.59955" lon="2.95548">
        <ele>570.1</ele>
        <time>2026-05-07T12:56:50.000Z</time>
      </trkpt>
      <trkpt lat="43.59955" lon="2.95548">
        <ele>570.4</ele>
        <time>2026-05-07T12:56:51.000Z</time>
      </trkpt>
      <trkpt lat="43.59955" lon="2.95548">
        <ele>570.7</ele>
        <time>2026-05-07T12:56:52.000Z</time>
      </trkpt>
      <trkpt lat="43.59956" lon="2.95548">
        <ele>571</ele>
        <time>2026-05-07T12:56:53.000Z</time>
      </trkpt>
      <trkpt lat="43.59955" lon="2.95547">
        <ele>571.1</ele>
        <time>2026-05-07T12:56:54.000Z</time>
      </trkpt>
      <trkpt lat="43.59956" lon="2.95547">
        <ele>571.1</ele>
        <time>2026-05-07T12:56:55.000Z</time>
      </trkpt>
      <trkpt lat="43.59955" lon="2.95547">
        <ele>571.3</ele>
        <time>2026-05-07T12:56:56.000Z</time>
      </trkpt>
      <trkpt lat="43.59955" lon="2.95547">
        <ele>571.5</ele>
        <time>2026-05-07T12:56:57.000Z</time>
      </trkpt>
      <trkpt lat="43.59955" lon="2.95547">
        <ele>571.6</ele>
        <time>2026-05-07T12:56:58.000Z</time>
      </trkpt>
      <trkpt lat="43.59955" lon="2.95547">
        <ele>571.7</ele>
        <time>2026-05-07T12:56:59.000Z</time>
      </trkpt>
      <trkpt lat="43.59955" lon="2.95547">
        <ele>571.8</ele>
        <time>2026-05-07T12:57:00.000Z</time>
      </trkpt>
      <trkpt lat="43.59955" lon="2.95547">
        <ele>572</ele>
        <time>2026-05-07T12:57:01.000Z</time>
      </trkpt>
      <trkpt lat="43.59955" lon="2.95547">
        <ele>572.3</ele>
        <time>2026-05-07T12:57:02.000Z</time>
      </trkpt>
      <trkpt lat="43.59955" lon="2.95547">
        <ele>572.4</ele>
        <time>2026-05-07T12:57:03.000Z</time>
      </trkpt>
      <trkpt lat="43.59955" lon="2.95547">
        <ele>572.4</ele>
        <time>2026-05-07T12:57:04.000Z</time>
      </trkpt>
      <trkpt lat="43.59956" lon="2.95547">
        <ele>572.4</ele>
        <time>2026-05-07T12:57:05.000Z</time>
      </trkpt>
      <trkpt lat="43.59956" lon="2.95546">
        <ele>572.5</ele>
        <time>2026-05-07T12:57:06.000Z</time>
      </trkpt>
      <trkpt lat="43.59956" lon="2.95546">
        <ele>572.5</ele>
        <time>2026-05-07T12:57:07.000Z</time>
      </trkpt>
      <trkpt lat="43.59956" lon="2.95546">
        <ele>572.5</ele>
        <time>2026-05-07T12:57:08.000Z</time>
      </trkpt>
      <trkpt lat="43.59956" lon="2.95546">
        <ele>572.5</ele>
        <time>2026-05-07T12:57:09.000Z</time>
      </trkpt>
      <trkpt lat="43.59957" lon="2.95546">
        <ele>572.6</ele>
        <time>2026-05-07T12:57:10.000Z</time>
      </trkpt>
      <trkpt lat="43.59958" lon="2.95546">
        <ele>572.4</ele>
        <time>2026-05-07T12:57:11.000Z</time>
      </trkpt>
      <trkpt lat="43.59958" lon="2.95546">
        <ele>572.3</ele>
        <time>2026-05-07T12:57:12.000Z</time>
      </trkpt>
      <trkpt lat="43.59958" lon="2.95546">
        <ele>572.4</ele>
        <time>2026-05-07T12:57:13.000Z</time>
      </trkpt>
      <trkpt lat="43.59958" lon="2.95546">
        <ele>572.5</ele>
        <time>2026-05-07T12:57:14.000Z</time>
      </trkpt>
      <trkpt lat="43.59958" lon="2.95546">
        <ele>572.5</ele>
        <time>2026-05-07T12:57:15.000Z</time>
      </trkpt>
      <trkpt lat="43.59958" lon="2.95546">
        <ele>572.5</ele>
        <time>2026-05-07T12:57:16.000Z</time>
      </trkpt>
      <trkpt lat="43.59958" lon="2.95546">
        <ele>572.5</ele>
        <time>2026-05-07T12:57:17.000Z</time>
      </trkpt>
      <trkpt lat="43.59958" lon="2.95546">
        <ele>572.3</ele>
        <time>2026-05-07T12:57:18.000Z</time>
      </trkpt>
      <trkpt lat="43.59958" lon="2.95546">
        <ele>572.3</ele>
        <time>2026-05-07T12:57:19.000Z</time>
      </trkpt>
      <trkpt lat="43.59958" lon="2.95546">
        <ele>572.3</ele>
        <time>2026-05-07T12:57:20.000Z</time>
      </trkpt>
      <trkpt lat="43.59958" lon="2.95546">
        <ele>572.4</ele>
        <time>2026-05-07T12:57:21.000Z</time>
      </trkpt>
      <trkpt lat="43.59958" lon="2.95546">
        <ele>572.4</ele>
        <time>2026-05-07T12:57:22.000Z</time>
      </trkpt>
      <trkpt lat="43.59958" lon="2.95546">
        <ele>572.3</ele>
        <time>2026-05-07T12:57:23.000Z</time>
      </trkpt>
      <trkpt lat="43.59958" lon="2.95547">
        <ele>572.2</ele>
        <time>2026-05-07T12:57:24.000Z</time>
      </trkpt>
      <trkpt lat="43.59958" lon="2.95547">
        <ele>572</ele>
        <time>2026-05-07T12:57:25.000Z</time>
      </trkpt>
      <trkpt lat="43.59958" lon="2.95547">
        <ele>571.9</ele>
        <time>2026-05-07T12:57:26.000Z</time>
      </trkpt>
      <trkpt lat="43.59958" lon="2.95547">
        <ele>571.8</ele>
        <time>2026-05-07T12:57:27.000Z</time>
      </trkpt>
      <trkpt lat="43.59957" lon="2.95547">
        <ele>571.7</ele>
        <time>2026-05-07T12:57:28.000Z</time>
      </trkpt>
      <trkpt lat="43.59957" lon="2.95547">
        <ele>571.5</ele>
        <time>2026-05-07T12:57:29.000Z</time>
      </trkpt>
      <trkpt lat="43.59957" lon="2.95546">
        <ele>571.4</ele>
        <time>2026-05-07T12:57:30.000Z</time>
      </trkpt>
      <trkpt lat="43.59957" lon="2.95546">
        <ele>571.2</ele>
        <time>2026-05-07T12:57:31.000Z</time>
      </trkpt>
      <trkpt lat="43.59957" lon="2.95546">
        <ele>571.2</ele>
        <time>2026-05-07T12:57:32.000Z</time>
      </trkpt>
      <trkpt lat="43.59957" lon="2.95546">
        <ele>571.1</ele>
        <time>2026-05-07T12:57:33.000Z</time>
      </trkpt>
      <trkpt lat="43.59957" lon="2.95546">
        <ele>571.1</ele>
        <time>2026-05-07T12:57:34.000Z</time>
      </trkpt>
      <trkpt lat="43.59957" lon="2.95546">
        <ele>571.3</ele>
        <time>2026-05-07T12:57:35.000Z</time>
      </trkpt>
      <trkpt lat="43.59957" lon="2.95546">
        <ele>571.4</ele>
        <time>2026-05-07T12:57:36.000Z</time>
      </trkpt>
      <trkpt lat="43.59957" lon="2.95546">
        <ele>571.5</ele>
        <time>2026-05-07T12:57:37.000Z</time>
      </trkpt>
      <trkpt lat="43.59957" lon="2.95546">
        <ele>571.6</ele>
        <time>2026-05-07T12:57:38.000Z</time>
      </trkpt>
      <trkpt lat="43.59957" lon="2.95546">
        <ele>571.7</ele>
        <time>2026-05-07T12:57:39.000Z</time>
      </trkpt>
      <trkpt lat="43.59957" lon="2.95546">
        <ele>571.8</ele>
        <time>2026-05-07T12:57:40.000Z</time>
      </trkpt>
      <trkpt lat="43.59957" lon="2.95546">
        <ele>571.7</ele>
        <time>2026-05-07T12:57:41.000Z</time>
      </trkpt>
      <trkpt lat="43.59957" lon="2.95546">
        <ele>571.8</ele>
        <time>2026-05-07T12:57:42.000Z</time>
      </trkpt>
      <trkpt lat="43.59957" lon="2.95546">
        <ele>571.9</ele>
        <time>2026-05-07T12:57:43.000Z</time>
      </trkpt>
      <trkpt lat="43.59957" lon="2.95546">
        <ele>572.1</ele>
        <time>2026-05-07T12:57:44.000Z</time>
      </trkpt>
      <trkpt lat="43.59957" lon="2.95546">
        <ele>572.2</ele>
        <time>2026-05-07T12:57:45.000Z</time>
      </trkpt>
      <trkpt lat="43.59957" lon="2.95546">
        <ele>572.2</ele>
        <time>2026-05-07T12:57:46.000Z</time>
      </trkpt>
      <trkpt lat="43.59957" lon="2.95546">
        <ele>572.2</ele>
        <time>2026-05-07T12:57:47.000Z</time>
      </trkpt>
      <trkpt lat="43.59957" lon="2.95546">
        <ele>572.5</ele>
        <time>2026-05-07T12:57:48.000Z</time>
      </trkpt>
      <trkpt lat="43.59957" lon="2.95546">
        <ele>572.6</ele>
        <time>2026-05-07T12:57:49.000Z</time>
      </trkpt>
      <trkpt lat="43.59957" lon="2.95546">
        <ele>572.7</ele>
        <time>2026-05-07T12:57:50.000Z</time>
      </trkpt>
      <trkpt lat="43.59957" lon="2.95546">
        <ele>572.8</ele>
        <time>2026-05-07T12:57:51.000Z</time>
      </trkpt>
      <trkpt lat="43.59957" lon="2.95546">
        <ele>572.7</ele>
        <time>2026-05-07T12:57:52.000Z</time>
      </trkpt>
      <trkpt lat="43.59957" lon="2.95546">
        <ele>572.8</ele>
        <time>2026-05-07T12:57:53.000Z</time>
      </trkpt>
      <trkpt lat="43.59957" lon="2.95546">
        <ele>572.9</ele>
        <time>2026-05-07T12:57:54.000Z</time>
      </trkpt>
      <trkpt lat="43.59957" lon="2.95546">
        <ele>572.9</ele>
        <time>2026-05-07T12:57:55.000Z</time>
      </trkpt>
      <trkpt lat="43.59957" lon="2.95546">
        <ele>573.1</ele>
        <time>2026-05-07T12:57:56.000Z</time>
      </trkpt>
      <trkpt lat="43.59957" lon="2.95545">
        <ele>573.3</ele>
        <time>2026-05-07T12:57:57.000Z</time>
      </trkpt>
      <trkpt lat="43.59957" lon="2.95545">
        <ele>573.4</ele>
        <time>2026-05-07T12:57:58.000Z</time>
      </trkpt>
      <trkpt lat="43.59957" lon="2.95545">
        <ele>573.5</ele>
        <time>2026-05-07T12:57:59.000Z</time>
      </trkpt>
      <trkpt lat="43.59957" lon="2.95545">
        <ele>573.6</ele>
        <time>2026-05-07T12:58:00.000Z</time>
      </trkpt>
      <trkpt lat="43.59957" lon="2.95545">
        <ele>573.5</ele>
        <time>2026-05-07T12:58:01.000Z</time>
      </trkpt>
      <trkpt lat="43.59957" lon="2.95545">
        <ele>573.4</ele>
        <time>2026-05-07T12:58:02.000Z</time>
      </trkpt>
      <trkpt lat="43.59957" lon="2.95545">
        <ele>573.4</ele>
        <time>2026-05-07T12:58:03.000Z</time>
      </trkpt>
      <trkpt lat="43.59957" lon="2.95545">
        <ele>573.3</ele>
        <time>2026-05-07T12:58:04.000Z</time>
      </trkpt>
      <trkpt lat="43.59957" lon="2.95545">
        <ele>573.2</ele>
        <time>2026-05-07T12:58:05.000Z</time>
      </trkpt>
      <trkpt lat="43.59955" lon="2.95545">
        <ele>573.1</ele>
        <time>2026-05-07T12:58:06.000Z</time>
      </trkpt>
      <trkpt lat="43.59954" lon="2.95545">
        <ele>573.1</ele>
        <time>2026-05-07T12:58:07.000Z</time>
      </trkpt>
      <trkpt lat="43.59953" lon="2.95544">
        <ele>572.9</ele>
        <time>2026-05-07T12:58:08.000Z</time>
      </trkpt>
      <trkpt lat="43.59953" lon="2.95544">
        <ele>572.9</ele>
        <time>2026-05-07T12:58:09.000Z</time>
      </trkpt>
      <trkpt lat="43.59953" lon="2.95544">
        <ele>572.9</ele>
        <time>2026-05-07T12:58:10.000Z</time>
      </trkpt>
      <trkpt lat="43.59953" lon="2.95544">
        <ele>572.9</ele>
        <time>2026-05-07T12:58:11.000Z</time>
      </trkpt>
      <trkpt lat="43.59953" lon="2.95544">
        <ele>572.6</ele>
        <time>2026-05-07T12:58:12.000Z</time>
      </trkpt>
      <trkpt lat="43.59953" lon="2.95544">
        <ele>572.5</ele>
        <time>2026-05-07T12:58:13.000Z</time>
      </trkpt>
      <trkpt lat="43.59953" lon="2.95544">
        <ele>572.3</ele>
        <time>2026-05-07T12:58:14.000Z</time>
      </trkpt>
      <trkpt lat="43.59953" lon="2.95544">
        <ele>572.3</ele>
        <time>2026-05-07T12:58:15.000Z</time>
      </trkpt>
      <trkpt lat="43.59953" lon="2.95544">
        <ele>572.4</ele>
        <time>2026-05-07T12:58:16.000Z</time>
      </trkpt>
      <trkpt lat="43.59953" lon="2.95544">
        <ele>572.4</ele>
        <time>2026-05-07T12:58:17.000Z</time>
      </trkpt>
      <trkpt lat="43.59953" lon="2.95544">
        <ele>572.4</ele>
        <time>2026-05-07T12:58:18.000Z</time>
      </trkpt>
      <trkpt lat="43.59953" lon="2.95544">
        <ele>572.5</ele>
        <time>2026-05-07T12:58:19.000Z</time>
      </trkpt>
      <trkpt lat="43.59953" lon="2.95544">
        <ele>572.2</ele>
        <time>2026-05-07T12:58:20.000Z</time>
      </trkpt>
      <trkpt lat="43.59953" lon="2.95544">
        <ele>572</ele>
        <time>2026-05-07T12:58:21.000Z</time>
      </trkpt>
      <trkpt lat="43.59953" lon="2.95544">
        <ele>571.8</ele>
        <time>2026-05-07T12:58:22.000Z</time>
      </trkpt>
      <trkpt lat="43.59953" lon="2.95544">
        <ele>571.7</ele>
        <time>2026-05-07T12:58:23.000Z</time>
      </trkpt>
      <trkpt lat="43.59953" lon="2.95544">
        <ele>571.8</ele>
        <time>2026-05-07T12:58:24.000Z</time>
      </trkpt>
      <trkpt lat="43.59953" lon="2.95544">
        <ele>571.6</ele>
        <time>2026-05-07T12:58:25.000Z</time>
      </trkpt>
      <trkpt lat="43.59953" lon="2.95544">
        <ele>571.6</ele>
        <time>2026-05-07T12:58:26.000Z</time>
      </trkpt>
      <trkpt lat="43.59953" lon="2.95544">
        <ele>571.4</ele>
        <time>2026-05-07T12:58:27.000Z</time>
      </trkpt>
      <trkpt lat="43.59953" lon="2.95544">
        <ele>571.2</ele>
        <time>2026-05-07T12:58:28.000Z</time>
      </trkpt>
      <trkpt lat="43.59953" lon="2.95544">
        <ele>571.1</ele>
        <time>2026-05-07T12:58:29.000Z</time>
      </trkpt>
      <trkpt lat="43.59953" lon="2.95544">
        <ele>570.7</ele>
        <time>2026-05-07T12:58:30.000Z</time>
      </trkpt>
      <trkpt lat="43.59953" lon="2.95544">
        <ele>570.4</ele>
        <time>2026-05-07T12:58:31.000Z</time>
      </trkpt>
      <trkpt lat="43.59953" lon="2.95544">
        <ele>570.3</ele>
        <time>2026-05-07T12:58:32.000Z</time>
      </trkpt>
      <trkpt lat="43.59953" lon="2.95544">
        <ele>569.9</ele>
        <time>2026-05-07T12:58:33.000Z</time>
      </trkpt>
      <trkpt lat="43.59953" lon="2.95544">
        <ele>569.7</ele>
        <time>2026-05-07T12:58:34.000Z</time>
      </trkpt>
      <trkpt lat="43.59953" lon="2.95544">
        <ele>569.6</ele>
        <time>2026-05-07T12:58:35.000Z</time>
      </trkpt>
      <trkpt lat="43.59953" lon="2.95544">
        <ele>569.7</ele>
        <time>2026-05-07T12:58:36.000Z</time>
      </trkpt>
      <trkpt lat="43.59953" lon="2.95544">
        <ele>569.7</ele>
        <time>2026-05-07T12:58:37.000Z</time>
      </trkpt>
      <trkpt lat="43.59953" lon="2.95544">
        <ele>569.6</ele>
        <time>2026-05-07T12:58:38.000Z</time>
      </trkpt>
      <trkpt lat="43.59953" lon="2.95544">
        <ele>569.7</ele>
        <time>2026-05-07T12:58:39.000Z</time>
      </trkpt>
      <trkpt lat="43.59953" lon="2.95544">
        <ele>569.7</ele>
        <time>2026-05-07T12:58:40.000Z</time>
      </trkpt>
      <trkpt lat="43.59954" lon="2.95544">
        <ele>569.7</ele>
        <time>2026-05-07T12:58:41.000Z</time>
      </trkpt>
      <trkpt lat="43.59954" lon="2.95545">
        <ele>569.9</ele>
        <time>2026-05-07T12:58:42.000Z</time>
      </trkpt>
      <trkpt lat="43.59954" lon="2.95545">
        <ele>569.8</ele>
        <time>2026-05-07T12:58:43.000Z</time>
      </trkpt>
      <trkpt lat="43.59954" lon="2.95545">
        <ele>569.9</ele>
        <time>2026-05-07T12:58:44.000Z</time>
      </trkpt>
      <trkpt lat="43.59954" lon="2.95545">
        <ele>569.9</ele>
        <time>2026-05-07T12:58:45.000Z</time>
      </trkpt>
      <trkpt lat="43.59954" lon="2.95545">
        <ele>569.8</ele>
        <time>2026-05-07T12:58:46.000Z</time>
      </trkpt>
      <trkpt lat="43.59954" lon="2.95545">
        <ele>569.9</ele>
        <time>2026-05-07T12:58:47.000Z</time>
      </trkpt>
      <trkpt lat="43.59955" lon="2.95545">
        <ele>570.1</ele>
        <time>2026-05-07T12:58:48.000Z</time>
      </trkpt>
      <trkpt lat="43.59955" lon="2.95546">
        <ele>570.1</ele>
        <time>2026-05-07T12:58:49.000Z</time>
      </trkpt>
      <trkpt lat="43.59955" lon="2.95546">
        <ele>570.1</ele>
        <time>2026-05-07T12:58:50.000Z</time>
      </trkpt>
      <trkpt lat="43.59955" lon="2.95546">
        <ele>570.2</ele>
        <time>2026-05-07T12:58:51.000Z</time>
      </trkpt>
      <trkpt lat="43.59955" lon="2.95546">
        <ele>570.2</ele>
        <time>2026-05-07T12:58:52.000Z</time>
      </trkpt>
      <trkpt lat="43.59955" lon="2.95546">
        <ele>570.4</ele>
        <time>2026-05-07T12:58:53.000Z</time>
      </trkpt>
      <trkpt lat="43.59955" lon="2.95546">
        <ele>570.3</ele>
        <time>2026-05-07T12:58:54.000Z</time>
      </trkpt>
      <trkpt lat="43.59955" lon="2.95546">
        <ele>570.2</ele>
        <time>2026-05-07T12:58:55.000Z</time>
      </trkpt>
      <trkpt lat="43.59955" lon="2.95546">
        <ele>570.2</ele>
        <time>2026-05-07T12:58:56.000Z</time>
      </trkpt>
      <trkpt lat="43.59955" lon="2.95546">
        <ele>570.3</ele>
        <time>2026-05-07T12:58:57.000Z</time>
      </trkpt>
      <trkpt lat="43.59955" lon="2.95546">
        <ele>570.4</ele>
        <time>2026-05-07T12:58:58.000Z</time>
      </trkpt>
      <trkpt lat="43.59955" lon="2.95546">
        <ele>570.6</ele>
        <time>2026-05-07T12:58:59.000Z</time>
      </trkpt>
      <trkpt lat="43.59955" lon="2.95546">
        <ele>570.9</ele>
        <time>2026-05-07T12:59:00.000Z</time>
      </trkpt>
      <trkpt lat="43.59955" lon="2.95546">
        <ele>571.1</ele>
        <time>2026-05-07T12:59:01.000Z</time>
      </trkpt>
      <trkpt lat="43.59955" lon="2.95546">
        <ele>571.3</ele>
        <time>2026-05-07T12:59:02.000Z</time>
      </trkpt>
      <trkpt lat="43.59955" lon="2.95546">
        <ele>571.4</ele>
        <time>2026-05-07T12:59:03.000Z</time>
      </trkpt>
      <trkpt lat="43.59956" lon="2.95546">
        <ele>571.2</ele>
        <time>2026-05-07T12:59:04.000Z</time>
      </trkpt>
      <trkpt lat="43.59956" lon="2.95546">
        <ele>571.1</ele>
        <time>2026-05-07T12:59:05.000Z</time>
      </trkpt>
      <trkpt lat="43.59956" lon="2.95546">
        <ele>571.1</ele>
        <time>2026-05-07T12:59:06.000Z</time>
      </trkpt>
      <trkpt lat="43.59956" lon="2.95546">
        <ele>571</ele>
        <time>2026-05-07T12:59:07.000Z</time>
      </trkpt>
      <trkpt lat="43.59956" lon="2.95545">
        <ele>571.3</ele>
        <time>2026-05-07T12:59:08.000Z</time>
      </trkpt>
      <trkpt lat="43.59956" lon="2.95545">
        <ele>571.6</ele>
        <time>2026-05-07T12:59:09.000Z</time>
      </trkpt>
      <trkpt lat="43.59957" lon="2.95545">
        <ele>571.9</ele>
        <time>2026-05-07T12:59:11.000Z</time>
      </trkpt>
      <trkpt lat="43.59957" lon="2.95546">
        <ele>572</ele>
        <time>2026-05-07T12:59:12.000Z</time>
      </trkpt>
      <trkpt lat="43.59957" lon="2.95546">
        <ele>572.1</ele>
        <time>2026-05-07T12:59:13.000Z</time>
      </trkpt>
      <trkpt lat="43.59957" lon="2.95546">
        <ele>572.1</ele>
        <time>2026-05-07T12:59:14.000Z</time>
      </trkpt>
      <trkpt lat="43.59957" lon="2.95546">
        <ele>572.1</ele>
        <time>2026-05-07T12:59:15.000Z</time>
      </trkpt>
      <trkpt lat="43.59957" lon="2.95546">
        <ele>572.2</ele>
        <time>2026-05-07T12:59:16.000Z</time>
      </trkpt>
      <trkpt lat="43.59957" lon="2.95545">
        <ele>572.2</ele>
        <time>2026-05-07T12:59:17.000Z</time>
      </trkpt>
      <trkpt lat="43.59957" lon="2.95545">
        <ele>572.1</ele>
        <time>2026-05-07T12:59:18.000Z</time>
      </trkpt>
      <trkpt lat="43.59957" lon="2.95545">
        <ele>571.9</ele>
        <time>2026-05-07T12:59:19.000Z</time>
      </trkpt>
      <trkpt lat="43.59957" lon="2.95545">
        <ele>571.8</ele>
        <time>2026-05-07T12:59:20.000Z</time>
      </trkpt>
      <trkpt lat="43.59957" lon="2.95545">
        <ele>571.7</ele>
        <time>2026-05-07T12:59:21.000Z</time>
      </trkpt>
      <trkpt lat="43.59957" lon="2.95545">
        <ele>571.7</ele>
        <time>2026-05-07T12:59:22.000Z</time>
      </trkpt>
      <trkpt lat="43.59958" lon="2.95545">
        <ele>571.5</ele>
        <time>2026-05-07T12:59:23.000Z</time>
      </trkpt>
      <trkpt lat="43.59958" lon="2.95545">
        <ele>571.4</ele>
        <time>2026-05-07T12:59:24.000Z</time>
      </trkpt>
      <trkpt lat="43.59957" lon="2.95544">
        <ele>571.2</ele>
        <time>2026-05-07T12:59:25.000Z</time>
      </trkpt>
      <trkpt lat="43.59957" lon="2.95544">
        <ele>571.2</ele>
        <time>2026-05-07T12:59:26.000Z</time>
      </trkpt>
      <trkpt lat="43.59957" lon="2.95544">
        <ele>571.1</ele>
        <time>2026-05-07T12:59:27.000Z</time>
      </trkpt>
      <trkpt lat="43.59957" lon="2.95544">
        <ele>571</ele>
        <time>2026-05-07T12:59:28.000Z</time>
      </trkpt>
      <trkpt lat="43.59957" lon="2.95544">
        <ele>570.9</ele>
        <time>2026-05-07T12:59:29.000Z</time>
      </trkpt>
      <trkpt lat="43.59957" lon="2.95544">
        <ele>571</ele>
        <time>2026-05-07T12:59:30.000Z</time>
      </trkpt>
      <trkpt lat="43.59957" lon="2.95544">
        <ele>571</ele>
        <time>2026-05-07T12:59:31.000Z</time>
      </trkpt>
      <trkpt lat="43.59957" lon="2.95543">
        <ele>570.9</ele>
        <time>2026-05-07T12:59:32.000Z</time>
      </trkpt>
      <trkpt lat="43.59957" lon="2.95543">
        <ele>570.9</ele>
        <time>2026-05-07T12:59:33.000Z</time>
      </trkpt>
      <trkpt lat="43.59956" lon="2.95542">
        <ele>570.8</ele>
        <time>2026-05-07T12:59:34.000Z</time>
      </trkpt>
      <trkpt lat="43.59955" lon="2.95541">
        <ele>570.6</ele>
        <time>2026-05-07T12:59:35.000Z</time>
      </trkpt>
      <trkpt lat="43.59954" lon="2.95541">
        <ele>570.5</ele>
        <time>2026-05-07T12:59:36.000Z</time>
      </trkpt>
      <trkpt lat="43.59954" lon="2.95541">
        <ele>570.3</ele>
        <time>2026-05-07T12:59:37.000Z</time>
      </trkpt>
      <trkpt lat="43.59953" lon="2.9554">
        <ele>570.2</ele>
        <time>2026-05-07T12:59:38.000Z</time>
      </trkpt>
      <trkpt lat="43.59953" lon="2.9554">
        <ele>570.2</ele>
        <time>2026-05-07T12:59:39.000Z</time>
      </trkpt>
      <trkpt lat="43.59953" lon="2.9554">
        <ele>570.5</ele>
        <time>2026-05-07T12:59:40.000Z</time>
      </trkpt>
      <trkpt lat="43.59953" lon="2.9554">
        <ele>570.5</ele>
        <time>2026-05-07T12:59:41.000Z</time>
      </trkpt>
      <trkpt lat="43.59953" lon="2.9554">
        <ele>570.5</ele>
        <time>2026-05-07T12:59:42.000Z</time>
      </trkpt>
      <trkpt lat="43.59953" lon="2.9554">
        <ele>570.6</ele>
        <time>2026-05-07T12:59:43.000Z</time>
      </trkpt>
      <trkpt lat="43.59953" lon="2.9554">
        <ele>570.6</ele>
        <time>2026-05-07T12:59:44.000Z</time>
      </trkpt>
      <trkpt lat="43.59953" lon="2.9554">
        <ele>570.7</ele>
        <time>2026-05-07T12:59:45.000Z</time>
      </trkpt>
      <trkpt lat="43.59953" lon="2.9554">
        <ele>570.8</ele>
        <time>2026-05-07T12:59:46.000Z</time>
      </trkpt>
      <trkpt lat="43.59953" lon="2.9554">
        <ele>570.7</ele>
        <time>2026-05-07T12:59:47.000Z</time>
      </trkpt>
      <trkpt lat="43.59953" lon="2.9554">
        <ele>570.7</ele>
        <time>2026-05-07T12:59:48.000Z</time>
      </trkpt>
      <trkpt lat="43.59953" lon="2.9554">
        <ele>570.7</ele>
        <time>2026-05-07T12:59:49.000Z</time>
      </trkpt>
      <trkpt lat="43.59953" lon="2.95541">
        <ele>570.6</ele>
        <time>2026-05-07T12:59:50.000Z</time>
      </trkpt>
      <trkpt lat="43.59953" lon="2.95541">
        <ele>570.5</ele>
        <time>2026-05-07T12:59:51.000Z</time>
      </trkpt>
      <trkpt lat="43.59953" lon="2.95541">
        <ele>570.4</ele>
        <time>2026-05-07T12:59:52.000Z</time>
      </trkpt>
      <trkpt lat="43.59953" lon="2.95541">
        <ele>570.4</ele>
        <time>2026-05-07T12:59:53.000Z</time>
      </trkpt>
      <trkpt lat="43.59953" lon="2.95541">
        <ele>570.3</ele>
        <time>2026-05-07T12:59:54.000Z</time>
      </trkpt>
      <trkpt lat="43.59954" lon="2.95542">
        <ele>570.3</ele>
        <time>2026-05-07T12:59:55.000Z</time>
      </trkpt>
      <trkpt lat="43.59954" lon="2.95542">
        <ele>570.3</ele>
        <time>2026-05-07T12:59:56.000Z</time>
      </trkpt>
      <trkpt lat="43.59954" lon="2.95543">
        <ele>570.2</ele>
        <time>2026-05-07T12:59:57.000Z</time>
      </trkpt>
      <trkpt lat="43.59954" lon="2.95543">
        <ele>570.1</ele>
        <time>2026-05-07T12:59:58.000Z</time>
      </trkpt>
      <trkpt lat="43.59954" lon="2.95543">
        <ele>570.1</ele>
        <time>2026-05-07T12:59:59.000Z</time>
      </trkpt>
      <trkpt lat="43.59954" lon="2.95543">
        <ele>570</ele>
        <time>2026-05-07T13:00:00.000Z</time>
      </trkpt>
      <trkpt lat="43.59954" lon="2.95543">
        <ele>570</ele>
        <time>2026-05-07T13:00:01.000Z</time>
      </trkpt>
      <trkpt lat="43.59954" lon="2.95543">
        <ele>569.9</ele>
        <time>2026-05-07T13:00:02.000Z</time>
      </trkpt>
      <trkpt lat="43.59954" lon="2.95543">
        <ele>569.9</ele>
        <time>2026-05-07T13:00:03.000Z</time>
      </trkpt>
      <trkpt lat="43.59954" lon="2.95543">
        <ele>569.9</ele>
        <time>2026-05-07T13:00:04.000Z</time>
      </trkpt>
      <trkpt lat="43.59955" lon="2.95544">
        <ele>569.9</ele>
        <time>2026-05-07T13:00:05.000Z</time>
      </trkpt>
      <trkpt lat="43.59955" lon="2.95543">
        <ele>570.1</ele>
        <time>2026-05-07T13:00:06.000Z</time>
      </trkpt>
      <trkpt lat="43.59955" lon="2.95543">
        <ele>570.1</ele>
        <time>2026-05-07T13:00:07.000Z</time>
      </trkpt>
      <trkpt lat="43.59956" lon="2.95543">
        <ele>570.1</ele>
        <time>2026-05-07T13:00:08.000Z</time>
      </trkpt>
      <trkpt lat="43.59956" lon="2.95544">
        <ele>570.2</ele>
        <time>2026-05-07T13:00:09.000Z</time>
      </trkpt>
      <trkpt lat="43.59956" lon="2.95543">
        <ele>570.1</ele>
        <time>2026-05-07T13:00:10.000Z</time>
      </trkpt>
      <trkpt lat="43.59957" lon="2.95546">
        <ele>569.5</ele>
        <time>2026-05-07T13:00:11.000Z</time>
      </trkpt>
      <trkpt lat="43.59959" lon="2.95547">
        <ele>569.1</ele>
        <time>2026-05-07T13:00:12.000Z</time>
      </trkpt>
      <trkpt lat="43.59959" lon="2.95548">
        <ele>568.8</ele>
        <time>2026-05-07T13:00:13.000Z</time>
      </trkpt>
      <trkpt lat="43.5996" lon="2.95548">
        <ele>568.5</ele>
        <time>2026-05-07T13:00:15.000Z</time>
      </trkpt>
      <trkpt lat="43.5996" lon="2.95549">
        <ele>568.6</ele>
        <time>2026-05-07T13:00:16.000Z</time>
      </trkpt>
      <trkpt lat="43.59961" lon="2.95551">
        <ele>568.6</ele>
        <time>2026-05-07T13:00:17.000Z</time>
      </trkpt>
      <trkpt lat="43.59961" lon="2.95551">
        <ele>567.9</ele>
        <time>2026-05-07T13:00:18.000Z</time>
      </trkpt>
      <trkpt lat="43.59962" lon="2.95552">
        <ele>567.9</ele>
        <time>2026-05-07T13:00:19.000Z</time>
      </trkpt>
      <trkpt lat="43.59961" lon="2.95552">
        <ele>568.1</ele>
        <time>2026-05-07T13:00:20.000Z</time>
      </trkpt>
      <trkpt lat="43.59961" lon="2.95551">
        <ele>568.3</ele>
        <time>2026-05-07T13:00:21.000Z</time>
      </trkpt>
      <trkpt lat="43.59961" lon="2.95551">
        <ele>568.6</ele>
        <time>2026-05-07T13:00:22.000Z</time>
      </trkpt>
      <trkpt lat="43.59961" lon="2.9555">
        <ele>568</ele>
        <time>2026-05-07T13:00:23.000Z</time>
      </trkpt>
      <trkpt lat="43.59961" lon="2.9555">
        <ele>568.8</ele>
        <time>2026-05-07T13:00:24.000Z</time>
      </trkpt>
      <trkpt lat="43.5996" lon="2.9555">
        <ele>569.4</ele>
        <time>2026-05-07T13:00:25.000Z</time>
      </trkpt>
      <trkpt lat="43.5996" lon="2.95549">
        <ele>569.4</ele>
        <time>2026-05-07T13:00:26.000Z</time>
      </trkpt>
      <trkpt lat="43.59961" lon="2.95549">
        <ele>569</ele>
        <time>2026-05-07T13:00:27.000Z</time>
      </trkpt>
      <trkpt lat="43.59961" lon="2.95549">
        <ele>569</ele>
        <time>2026-05-07T13:00:28.000Z</time>
      </trkpt>
      <trkpt lat="43.59962" lon="2.95549">
        <ele>568.9</ele>
        <time>2026-05-07T13:00:29.000Z</time>
      </trkpt>
      <trkpt lat="43.59962" lon="2.95549">
        <ele>568.9</ele>
        <time>2026-05-07T13:00:30.000Z</time>
      </trkpt>
      <trkpt lat="43.59962" lon="2.95549">
        <ele>569</ele>
        <time>2026-05-07T13:00:31.000Z</time>
      </trkpt>
      <trkpt lat="43.59962" lon="2.95549">
        <ele>568.6</ele>
        <time>2026-05-07T13:00:32.000Z</time>
      </trkpt>
      <trkpt lat="43.59962" lon="2.95549">
        <ele>568.3</ele>
        <time>2026-05-07T13:00:33.000Z</time>
      </trkpt>
      <trkpt lat="43.59962" lon="2.95549">
        <ele>568.2</ele>
        <time>2026-05-07T13:00:34.000Z</time>
      </trkpt>
      <trkpt lat="43.59962" lon="2.95549">
        <ele>568</ele>
        <time>2026-05-07T13:00:35.000Z</time>
      </trkpt>
      <trkpt lat="43.59962" lon="2.95549">
        <ele>567.8</ele>
        <time>2026-05-07T13:00:36.000Z</time>
      </trkpt>
      <trkpt lat="43.59962" lon="2.95549">
        <ele>567.8</ele>
        <time>2026-05-07T13:00:37.000Z</time>
      </trkpt>
      <trkpt lat="43.59961" lon="2.95549">
        <ele>567.6</ele>
        <time>2026-05-07T13:00:38.000Z</time>
      </trkpt>
      <trkpt lat="43.59961" lon="2.95549">
        <ele>567.3</ele>
        <time>2026-05-07T13:00:39.000Z</time>
      </trkpt>
      <trkpt lat="43.59961" lon="2.95549">
        <ele>567.2</ele>
        <time>2026-05-07T13:00:40.000Z</time>
      </trkpt>
      <trkpt lat="43.5996" lon="2.95548">
        <ele>566.7</ele>
        <time>2026-05-07T13:00:41.000Z</time>
      </trkpt>
      <trkpt lat="43.59961" lon="2.95549">
        <ele>566.7</ele>
        <time>2026-05-07T13:00:42.000Z</time>
      </trkpt>
      <trkpt lat="43.59962" lon="2.95548">
        <ele>566.9</ele>
        <time>2026-05-07T13:00:43.000Z</time>
      </trkpt>
      <trkpt lat="43.59962" lon="2.95548">
        <ele>564.4</ele>
        <time>2026-05-07T13:00:44.000Z</time>
      </trkpt>
      <trkpt lat="43.59962" lon="2.95548">
        <ele>564.5</ele>
        <time>2026-05-07T13:00:45.000Z</time>
      </trkpt>
      <trkpt lat="43.59962" lon="2.95548">
        <ele>564.3</ele>
        <time>2026-05-07T13:00:46.000Z</time>
      </trkpt>
      <trkpt lat="43.5996" lon="2.95548">
        <ele>564.6</ele>
        <time>2026-05-07T13:00:47.000Z</time>
      </trkpt>
      <trkpt lat="43.59959" lon="2.95549">
        <ele>564.9</ele>
        <time>2026-05-07T13:00:48.000Z</time>
      </trkpt>
      <trkpt lat="43.59958" lon="2.95549">
        <ele>564.9</ele>
        <time>2026-05-07T13:00:49.000Z</time>
      </trkpt>
      <trkpt lat="43.59957" lon="2.95549">
        <ele>564.9</ele>
        <time>2026-05-07T13:00:50.000Z</time>
      </trkpt>
      <trkpt lat="43.59958" lon="2.95549">
        <ele>564.3</ele>
        <time>2026-05-07T13:00:51.000Z</time>
      </trkpt>
      <trkpt lat="43.59958" lon="2.95549">
        <ele>564.3</ele>
        <time>2026-05-07T13:00:52.000Z</time>
      </trkpt>
      <trkpt lat="43.59957" lon="2.95549">
        <ele>564.3</ele>
        <time>2026-05-07T13:00:53.000Z</time>
      </trkpt>
      <trkpt lat="43.59957" lon="2.95549">
        <ele>564.1</ele>
        <time>2026-05-07T13:00:54.000Z</time>
      </trkpt>
      <trkpt lat="43.59957" lon="2.95549">
        <ele>564.2</ele>
        <time>2026-05-07T13:00:55.000Z</time>
      </trkpt>
      <trkpt lat="43.59957" lon="2.9555">
        <ele>564.3</ele>
        <time>2026-05-07T13:00:56.000Z</time>
      </trkpt>
      <trkpt lat="43.59957" lon="2.9555">
        <ele>564.4</ele>
        <time>2026-05-07T13:00:57.000Z</time>
      </trkpt>
      <trkpt lat="43.59957" lon="2.9555">
        <ele>564.3</ele>
        <time>2026-05-07T13:00:58.000Z</time>
      </trkpt>
      <trkpt lat="43.59957" lon="2.9555">
        <ele>564.4</ele>
        <time>2026-05-07T13:00:59.000Z</time>
      </trkpt>
      <trkpt lat="43.59957" lon="2.95549">
        <ele>564.4</ele>
        <time>2026-05-07T13:01:00.000Z</time>
      </trkpt>
      <trkpt lat="43.59956" lon="2.95548">
        <ele>564.5</ele>
        <time>2026-05-07T13:01:01.000Z</time>
      </trkpt>
      <trkpt lat="43.59957" lon="2.95548">
        <ele>564.5</ele>
        <time>2026-05-07T13:01:02.000Z</time>
      </trkpt>
      <trkpt lat="43.59957" lon="2.95548">
        <ele>564.6</ele>
        <time>2026-05-07T13:01:03.000Z</time>
      </trkpt>
      <trkpt lat="43.59958" lon="2.95548">
        <ele>564.5</ele>
        <time>2026-05-07T13:01:04.000Z</time>
      </trkpt>
      <trkpt lat="43.59958" lon="2.95547">
        <ele>564.2</ele>
        <time>2026-05-07T13:01:05.000Z</time>
      </trkpt>
      <trkpt lat="43.59959" lon="2.95547">
        <ele>563.7</ele>
        <time>2026-05-07T13:01:06.000Z</time>
      </trkpt>
      <trkpt lat="43.59959" lon="2.95547">
        <ele>563.5</ele>
        <time>2026-05-07T13:01:07.000Z</time>
      </trkpt>
      <trkpt lat="43.59958" lon="2.95547">
        <ele>563.6</ele>
        <time>2026-05-07T13:01:08.000Z</time>
      </trkpt>
      <trkpt lat="43.59958" lon="2.95547">
        <ele>563.7</ele>
        <time>2026-05-07T13:01:09.000Z</time>
      </trkpt>
      <trkpt lat="43.59958" lon="2.95547">
        <ele>563.5</ele>
        <time>2026-05-07T13:01:10.000Z</time>
      </trkpt>
      <trkpt lat="43.59958" lon="2.95547">
        <ele>563.6</ele>
        <time>2026-05-07T13:01:11.000Z</time>
      </trkpt>
      <trkpt lat="43.59958" lon="2.95547">
        <ele>563.6</ele>
        <time>2026-05-07T13:01:12.000Z</time>
      </trkpt>
      <trkpt lat="43.59958" lon="2.95547">
        <ele>563.7</ele>
        <time>2026-05-07T13:01:13.000Z</time>
      </trkpt>
      <trkpt lat="43.59958" lon="2.95547">
        <ele>563.8</ele>
        <time>2026-05-07T13:01:14.000Z</time>
      </trkpt>
      <trkpt lat="43.59958" lon="2.95547">
        <ele>564</ele>
        <time>2026-05-07T13:01:15.000Z</time>
      </trkpt>
      <trkpt lat="43.59958" lon="2.95547">
        <ele>564.2</ele>
        <time>2026-05-07T13:01:16.000Z</time>
      </trkpt>
      <trkpt lat="43.59958" lon="2.95547">
        <ele>564.4</ele>
        <time>2026-05-07T13:01:17.000Z</time>
      </trkpt>
      <trkpt lat="43.59958" lon="2.95547">
        <ele>564.6</ele>
        <time>2026-05-07T13:01:18.000Z</time>
      </trkpt>
      <trkpt lat="43.59958" lon="2.95547">
        <ele>564.7</ele>
        <time>2026-05-07T13:01:19.000Z</time>
      </trkpt>
      <trkpt lat="43.59958" lon="2.95547">
        <ele>564.7</ele>
        <time>2026-05-07T13:01:20.000Z</time>
      </trkpt>
      <trkpt lat="43.59958" lon="2.95547">
        <ele>564.8</ele>
        <time>2026-05-07T13:01:21.000Z</time>
      </trkpt>
      <trkpt lat="43.59958" lon="2.95547">
        <ele>564.8</ele>
        <time>2026-05-07T13:01:22.000Z</time>
      </trkpt>
      <trkpt lat="43.59958" lon="2.95547">
        <ele>564.9</ele>
        <time>2026-05-07T13:01:23.000Z</time>
      </trkpt>
      <trkpt lat="43.59958" lon="2.95547">
        <ele>564.9</ele>
        <time>2026-05-07T13:01:24.000Z</time>
      </trkpt>
      <trkpt lat="43.59958" lon="2.95547">
        <ele>564.7</ele>
        <time>2026-05-07T13:01:25.000Z</time>
      </trkpt>
      <trkpt lat="43.59958" lon="2.95547">
        <ele>564.7</ele>
        <time>2026-05-07T13:01:26.000Z</time>
      </trkpt>
      <trkpt lat="43.59958" lon="2.95547">
        <ele>564.9</ele>
        <time>2026-05-07T13:01:27.000Z</time>
      </trkpt>
      <trkpt lat="43.59958" lon="2.95548">
        <ele>564.8</ele>
        <time>2026-05-07T13:01:28.000Z</time>
      </trkpt>
      <trkpt lat="43.59958" lon="2.95548">
        <ele>565.2</ele>
        <time>2026-05-07T13:01:29.000Z</time>
      </trkpt>
      <trkpt lat="43.59958" lon="2.95548">
        <ele>565.3</ele>
        <time>2026-05-07T13:01:30.000Z</time>
      </trkpt>
      <trkpt lat="43.59958" lon="2.95548">
        <ele>565.3</ele>
        <time>2026-05-07T13:01:31.000Z</time>
      </trkpt>
      <trkpt lat="43.59958" lon="2.95548">
        <ele>565.2</ele>
        <time>2026-05-07T13:01:32.000Z</time>
      </trkpt>
      <trkpt lat="43.59958" lon="2.95548">
        <ele>565.1</ele>
        <time>2026-05-07T13:01:33.000Z</time>
      </trkpt>
      <trkpt lat="43.59957" lon="2.95548">
        <ele>565.1</ele>
        <time>2026-05-07T13:01:34.000Z</time>
      </trkpt>
      <trkpt lat="43.59957" lon="2.95549">
        <ele>565.1</ele>
        <time>2026-05-07T13:01:35.000Z</time>
      </trkpt>
      <trkpt lat="43.59956" lon="2.95549">
        <ele>565.3</ele>
        <time>2026-05-07T13:01:36.000Z</time>
      </trkpt>
      <trkpt lat="43.59956" lon="2.95549">
        <ele>565.5</ele>
        <time>2026-05-07T13:01:37.000Z</time>
      </trkpt>
      <trkpt lat="43.59956" lon="2.95549">
        <ele>566</ele>
        <time>2026-05-07T13:01:38.000Z</time>
      </trkpt>
      <trkpt lat="43.59956" lon="2.95549">
        <ele>565.8</ele>
        <time>2026-05-07T13:01:39.000Z</time>
      </trkpt>
      <trkpt lat="43.59956" lon="2.95549">
        <ele>566</ele>
        <time>2026-05-07T13:01:40.000Z</time>
      </trkpt>
      <trkpt lat="43.59956" lon="2.95549">
        <ele>565.9</ele>
        <time>2026-05-07T13:01:41.000Z</time>
      </trkpt>
      <trkpt lat="43.59956" lon="2.95549">
        <ele>566.1</ele>
        <time>2026-05-07T13:01:42.000Z</time>
      </trkpt>
      <trkpt lat="43.59956" lon="2.95549">
        <ele>566.1</ele>
        <time>2026-05-07T13:01:43.000Z</time>
      </trkpt>
      <trkpt lat="43.59956" lon="2.95549">
        <ele>566</ele>
        <time>2026-05-07T13:01:44.000Z</time>
      </trkpt>
      <trkpt lat="43.59955" lon="2.95548">
        <ele>565.8</ele>
        <time>2026-05-07T13:01:45.000Z</time>
      </trkpt>
      <trkpt lat="43.59956" lon="2.95548">
        <ele>565.7</ele>
        <time>2026-05-07T13:01:46.000Z</time>
      </trkpt>
      <trkpt lat="43.59955" lon="2.95547">
        <ele>565.6</ele>
        <time>2026-05-07T13:01:47.000Z</time>
      </trkpt>
      <trkpt lat="43.59955" lon="2.95546">
        <ele>565.4</ele>
        <time>2026-05-07T13:01:48.000Z</time>
      </trkpt>
      <trkpt lat="43.59955" lon="2.95546">
        <ele>565.6</ele>
        <time>2026-05-07T13:01:49.000Z</time>
      </trkpt>
      <trkpt lat="43.59955" lon="2.95546">
        <ele>565.6</ele>
        <time>2026-05-07T13:01:50.000Z</time>
      </trkpt>
      <trkpt lat="43.59955" lon="2.95546">
        <ele>565.7</ele>
        <time>2026-05-07T13:01:51.000Z</time>
      </trkpt>
      <trkpt lat="43.59955" lon="2.95546">
        <ele>565.8</ele>
        <time>2026-05-07T13:01:52.000Z</time>
      </trkpt>
      <trkpt lat="43.59955" lon="2.95546">
        <ele>565.8</ele>
        <time>2026-05-07T13:01:53.000Z</time>
      </trkpt>
      <trkpt lat="43.59955" lon="2.95547">
        <ele>565.8</ele>
        <time>2026-05-07T13:01:54.000Z</time>
      </trkpt>
      <trkpt lat="43.59955" lon="2.95547">
        <ele>565.7</ele>
        <time>2026-05-07T13:01:55.000Z</time>
      </trkpt>
      <trkpt lat="43.59955" lon="2.95547">
        <ele>565.6</ele>
        <time>2026-05-07T13:01:56.000Z</time>
      </trkpt>
      <trkpt lat="43.59955" lon="2.95547">
        <ele>565.5</ele>
        <time>2026-05-07T13:01:57.000Z</time>
      </trkpt>
      <trkpt lat="43.59955" lon="2.95547">
        <ele>565.3</ele>
        <time>2026-05-07T13:01:58.000Z</time>
      </trkpt>
      <trkpt lat="43.59955" lon="2.95547">
        <ele>565.1</ele>
        <time>2026-05-07T13:01:59.000Z</time>
      </trkpt>
      <trkpt lat="43.59956" lon="2.95548">
        <ele>565</ele>
        <time>2026-05-07T13:02:00.000Z</time>
      </trkpt>
      <trkpt lat="43.59956" lon="2.95548">
        <ele>564.9</ele>
        <time>2026-05-07T13:02:01.000Z</time>
      </trkpt>
      <trkpt lat="43.59956" lon="2.95548">
        <ele>564.8</ele>
        <time>2026-05-07T13:02:02.000Z</time>
      </trkpt>
      <trkpt lat="43.59956" lon="2.95548">
        <ele>564.4</ele>
        <time>2026-05-07T13:02:03.000Z</time>
      </trkpt>
      <trkpt lat="43.59956" lon="2.95548">
        <ele>564.1</ele>
        <time>2026-05-07T13:02:04.000Z</time>
      </trkpt>
      <trkpt lat="43.59956" lon="2.95549">
        <ele>563.9</ele>
        <time>2026-05-07T13:02:05.000Z</time>
      </trkpt>
      <trkpt lat="43.59956" lon="2.95549">
        <ele>563.8</ele>
        <time>2026-05-07T13:02:06.000Z</time>
      </trkpt>
      <trkpt lat="43.59956" lon="2.95549">
        <ele>563.7</ele>
        <time>2026-05-07T13:02:07.000Z</time>
      </trkpt>
      <trkpt lat="43.59956" lon="2.95549">
        <ele>563.6</ele>
        <time>2026-05-07T13:02:08.000Z</time>
      </trkpt>
      <trkpt lat="43.59956" lon="2.95549">
        <ele>563.4</ele>
        <time>2026-05-07T13:02:09.000Z</time>
      </trkpt>
      <trkpt lat="43.59956" lon="2.95549">
        <ele>563.3</ele>
        <time>2026-05-07T13:02:10.000Z</time>
      </trkpt>
      <trkpt lat="43.59956" lon="2.95549">
        <ele>563.5</ele>
        <time>2026-05-07T13:02:11.000Z</time>
      </trkpt>
      <trkpt lat="43.59956" lon="2.95548">
        <ele>563.3</ele>
        <time>2026-05-07T13:02:12.000Z</time>
      </trkpt>
      <trkpt lat="43.59957" lon="2.95548">
        <ele>563.2</ele>
        <time>2026-05-07T13:02:13.000Z</time>
      </trkpt>
      <trkpt lat="43.59957" lon="2.95548">
        <ele>563.4</ele>
        <time>2026-05-07T13:02:14.000Z</time>
      </trkpt>
      <trkpt lat="43.59957" lon="2.95548">
        <ele>563.5</ele>
        <time>2026-05-07T13:02:15.000Z</time>
      </trkpt>
      <trkpt lat="43.59956" lon="2.95548">
        <ele>563.5</ele>
        <time>2026-05-07T13:02:16.000Z</time>
      </trkpt>
      <trkpt lat="43.59956" lon="2.95547">
        <ele>563.6</ele>
        <time>2026-05-07T13:02:17.000Z</time>
      </trkpt>
      <trkpt lat="43.59956" lon="2.95547">
        <ele>563.5</ele>
        <time>2026-05-07T13:02:18.000Z</time>
      </trkpt>
      <trkpt lat="43.59956" lon="2.95547">
        <ele>563.6</ele>
        <time>2026-05-07T13:02:19.000Z</time>
      </trkpt>
      <trkpt lat="43.59957" lon="2.95547">
        <ele>563.9</ele>
        <time>2026-05-07T13:02:20.000Z</time>
      </trkpt>
      <trkpt lat="43.59956" lon="2.95547">
        <ele>563.9</ele>
        <time>2026-05-07T13:02:21.000Z</time>
      </trkpt>
      <trkpt lat="43.59956" lon="2.95547">
        <ele>564.1</ele>
        <time>2026-05-07T13:02:22.000Z</time>
      </trkpt>
      <trkpt lat="43.59956" lon="2.95547">
        <ele>564.3</ele>
        <time>2026-05-07T13:02:23.000Z</time>
      </trkpt>
      <trkpt lat="43.59956" lon="2.95547">
        <ele>564.5</ele>
        <time>2026-05-07T13:02:24.000Z</time>
      </trkpt>
      <trkpt lat="43.59957" lon="2.95547">
        <ele>564.4</ele>
        <time>2026-05-07T13:02:25.000Z</time>
      </trkpt>
      <trkpt lat="43.59957" lon="2.95547">
        <ele>564.3</ele>
        <time>2026-05-07T13:02:26.000Z</time>
      </trkpt>
      <trkpt lat="43.59957" lon="2.95547">
        <ele>564.5</ele>
        <time>2026-05-07T13:02:27.000Z</time>
      </trkpt>
      <trkpt lat="43.59957" lon="2.95547">
        <ele>564.9</ele>
        <time>2026-05-07T13:02:28.000Z</time>
      </trkpt>
      <trkpt lat="43.59957" lon="2.95547">
        <ele>565</ele>
        <time>2026-05-07T13:02:29.000Z</time>
      </trkpt>
      <trkpt lat="43.59957" lon="2.95547">
        <ele>565.3</ele>
        <time>2026-05-07T13:02:30.000Z</time>
      </trkpt>
      <trkpt lat="43.59957" lon="2.95547">
        <ele>565.6</ele>
        <time>2026-05-07T13:02:31.000Z</time>
      </trkpt>
      <trkpt lat="43.59957" lon="2.95547">
        <ele>566</ele>
        <time>2026-05-07T13:02:32.000Z</time>
      </trkpt>
      <trkpt lat="43.59957" lon="2.95547">
        <ele>566.5</ele>
        <time>2026-05-07T13:02:33.000Z</time>
      </trkpt>
      <trkpt lat="43.59957" lon="2.95547">
        <ele>567.1</ele>
        <time>2026-05-07T13:02:34.000Z</time>
      </trkpt>
      <trkpt lat="43.59957" lon="2.95547">
        <ele>567.4</ele>
        <time>2026-05-07T13:02:35.000Z</time>
      </trkpt>
      <trkpt lat="43.59957" lon="2.95547">
        <ele>567.7</ele>
        <time>2026-05-07T13:02:36.000Z</time>
      </trkpt>
      <trkpt lat="43.59957" lon="2.95547">
        <ele>567.8</ele>
        <time>2026-05-07T13:02:37.000Z</time>
      </trkpt>
      <trkpt lat="43.59957" lon="2.95547">
        <ele>568.1</ele>
        <time>2026-05-07T13:02:38.000Z</time>
      </trkpt>
      <trkpt lat="43.59957" lon="2.95547">
        <ele>568.3</ele>
        <time>2026-05-07T13:02:39.000Z</time>
      </trkpt>
      <trkpt lat="43.59957" lon="2.95547">
        <ele>568.6</ele>
        <time>2026-05-07T13:02:40.000Z</time>
      </trkpt>
      <trkpt lat="43.59957" lon="2.95547">
        <ele>568.6</ele>
        <time>2026-05-07T13:02:41.000Z</time>
      </trkpt>
      <trkpt lat="43.59957" lon="2.95547">
        <ele>568.6</ele>
        <time>2026-05-07T13:02:42.000Z</time>
      </trkpt>
      <trkpt lat="43.59957" lon="2.95547">
        <ele>568.6</ele>
        <time>2026-05-07T13:02:43.000Z</time>
      </trkpt>
      <trkpt lat="43.59957" lon="2.95547">
        <ele>568.5</ele>
        <time>2026-05-07T13:02:44.000Z</time>
      </trkpt>
      <trkpt lat="43.59957" lon="2.95547">
        <ele>568.4</ele>
        <time>2026-05-07T13:02:45.000Z</time>
      </trkpt>
      <trkpt lat="43.59958" lon="2.95547">
        <ele>568.5</ele>
        <time>2026-05-07T13:02:46.000Z</time>
      </trkpt>
      <trkpt lat="43.59958" lon="2.95547">
        <ele>568.5</ele>
        <time>2026-05-07T13:02:47.000Z</time>
      </trkpt>
      <trkpt lat="43.59958" lon="2.95547">
        <ele>568.6</ele>
        <time>2026-05-07T13:02:48.000Z</time>
      </trkpt>
      <trkpt lat="43.59958" lon="2.95547">
        <ele>568.4</ele>
        <time>2026-05-07T13:02:49.000Z</time>
      </trkpt>
      <trkpt lat="43.59958" lon="2.95547">
        <ele>568.4</ele>
        <time>2026-05-07T13:02:50.000Z</time>
      </trkpt>
      <trkpt lat="43.59958" lon="2.95547">
        <ele>568.3</ele>
        <time>2026-05-07T13:02:51.000Z</time>
      </trkpt>
      <trkpt lat="43.59958" lon="2.95546">
        <ele>568.2</ele>
        <time>2026-05-07T13:02:52.000Z</time>
      </trkpt>
      <trkpt lat="43.59958" lon="2.95546">
        <ele>568.2</ele>
        <time>2026-05-07T13:02:53.000Z</time>
      </trkpt>
      <trkpt lat="43.59958" lon="2.95546">
        <ele>568.2</ele>
        <time>2026-05-07T13:02:54.000Z</time>
      </trkpt>
      <trkpt lat="43.59958" lon="2.95546">
        <ele>568.3</ele>
        <time>2026-05-07T13:02:55.000Z</time>
      </trkpt>
      <trkpt lat="43.59958" lon="2.95546">
        <ele>568.4</ele>
        <time>2026-05-07T13:02:56.000Z</time>
      </trkpt>
      <trkpt lat="43.59958" lon="2.95546">
        <ele>568.6</ele>
        <time>2026-05-07T13:02:57.000Z</time>
      </trkpt>
      <trkpt lat="43.59958" lon="2.95546">
        <ele>568.5</ele>
        <time>2026-05-07T13:02:58.000Z</time>
      </trkpt>
      <trkpt lat="43.59958" lon="2.95546">
        <ele>568.4</ele>
        <time>2026-05-07T13:02:59.000Z</time>
      </trkpt>
      <trkpt lat="43.59958" lon="2.95546">
        <ele>568.4</ele>
        <time>2026-05-07T13:03:00.000Z</time>
      </trkpt>
      <trkpt lat="43.59958" lon="2.95546">
        <ele>568.4</ele>
        <time>2026-05-07T13:03:01.000Z</time>
      </trkpt>
      <trkpt lat="43.59958" lon="2.95546">
        <ele>568.5</ele>
        <time>2026-05-07T13:03:02.000Z</time>
      </trkpt>
      <trkpt lat="43.59958" lon="2.95546">
        <ele>568.7</ele>
        <time>2026-05-07T13:03:03.000Z</time>
      </trkpt>
      <trkpt lat="43.59958" lon="2.95546">
        <ele>568.9</ele>
        <time>2026-05-07T13:03:04.000Z</time>
      </trkpt>
      <trkpt lat="43.59958" lon="2.95546">
        <ele>569</ele>
        <time>2026-05-07T13:03:05.000Z</time>
      </trkpt>
      <trkpt lat="43.59958" lon="2.95546">
        <ele>569.1</ele>
        <time>2026-05-07T13:03:06.000Z</time>
      </trkpt>
      <trkpt lat="43.59958" lon="2.95546">
        <ele>569.4</ele>
        <time>2026-05-07T13:03:07.000Z</time>
      </trkpt>
      <trkpt lat="43.59958" lon="2.95546">
        <ele>569.5</ele>
        <time>2026-05-07T13:03:08.000Z</time>
      </trkpt>
      <trkpt lat="43.59958" lon="2.95546">
        <ele>569.6</ele>
        <time>2026-05-07T13:03:09.000Z</time>
      </trkpt>
      <trkpt lat="43.59958" lon="2.95546">
        <ele>569.8</ele>
        <time>2026-05-07T13:03:10.000Z</time>
      </trkpt>
      <trkpt lat="43.59958" lon="2.95546">
        <ele>570</ele>
        <time>2026-05-07T13:03:11.000Z</time>
      </trkpt>
      <trkpt lat="43.59958" lon="2.95546">
        <ele>570.1</ele>
        <time>2026-05-07T13:03:12.000Z</time>
      </trkpt>
      <trkpt lat="43.59958" lon="2.95546">
        <ele>570.2</ele>
        <time>2026-05-07T13:03:13.000Z</time>
      </trkpt>
      <trkpt lat="43.59958" lon="2.95546">
        <ele>570.1</ele>
        <time>2026-05-07T13:03:14.000Z</time>
      </trkpt>
      <trkpt lat="43.59957" lon="2.95546">
        <ele>570</ele>
        <time>2026-05-07T13:03:15.000Z</time>
      </trkpt>
      <trkpt lat="43.59957" lon="2.95546">
        <ele>570.1</ele>
        <time>2026-05-07T13:03:16.000Z</time>
      </trkpt>
      <trkpt lat="43.59957" lon="2.95546">
        <ele>570.2</ele>
        <time>2026-05-07T13:03:17.000Z</time>
      </trkpt>
      <trkpt lat="43.59957" lon="2.95546">
        <ele>570.3</ele>
        <time>2026-05-07T13:03:18.000Z</time>
      </trkpt>
      <trkpt lat="43.59957" lon="2.95546">
        <ele>570.3</ele>
        <time>2026-05-07T13:03:19.000Z</time>
      </trkpt>
      <trkpt lat="43.59957" lon="2.95546">
        <ele>570.3</ele>
        <time>2026-05-07T13:03:20.000Z</time>
      </trkpt>
      <trkpt lat="43.59956" lon="2.95546">
        <ele>570.6</ele>
        <time>2026-05-07T13:03:21.000Z</time>
      </trkpt>
      <trkpt lat="43.59955" lon="2.95546">
        <ele>570.6</ele>
        <time>2026-05-07T13:03:22.000Z</time>
      </trkpt>
      <trkpt lat="43.59955" lon="2.95546">
        <ele>570.7</ele>
        <time>2026-05-07T13:03:23.000Z</time>
      </trkpt>
      <trkpt lat="43.59955" lon="2.95546">
        <ele>570.8</ele>
        <time>2026-05-07T13:03:24.000Z</time>
      </trkpt>
      <trkpt lat="43.59955" lon="2.95546">
        <ele>570.9</ele>
        <time>2026-05-07T13:03:25.000Z</time>
      </trkpt>
      <trkpt lat="43.59955" lon="2.95546">
        <ele>571</ele>
        <time>2026-05-07T13:03:26.000Z</time>
      </trkpt>
      <trkpt lat="43.59955" lon="2.95546">
        <ele>570.9</ele>
        <time>2026-05-07T13:03:27.000Z</time>
      </trkpt>
      <trkpt lat="43.59955" lon="2.95546">
        <ele>571</ele>
        <time>2026-05-07T13:03:28.000Z</time>
      </trkpt>
      <trkpt lat="43.59954" lon="2.95546">
        <ele>571.2</ele>
        <time>2026-05-07T13:03:29.000Z</time>
      </trkpt>
      <trkpt lat="43.59953" lon="2.95545">
        <ele>571.2</ele>
        <time>2026-05-07T13:03:30.000Z</time>
      </trkpt>
      <trkpt lat="43.59952" lon="2.95545">
        <ele>571.1</ele>
        <time>2026-05-07T13:03:31.000Z</time>
      </trkpt>
      <trkpt lat="43.59952" lon="2.95545">
        <ele>571.1</ele>
        <time>2026-05-07T13:03:32.000Z</time>
      </trkpt>
      <trkpt lat="43.59952" lon="2.95545">
        <ele>570.8</ele>
        <time>2026-05-07T13:03:33.000Z</time>
      </trkpt>
      <trkpt lat="43.59953" lon="2.95545">
        <ele>570.7</ele>
        <time>2026-05-07T13:03:34.000Z</time>
      </trkpt>
      <trkpt lat="43.59953" lon="2.95545">
        <ele>570.4</ele>
        <time>2026-05-07T13:03:35.000Z</time>
      </trkpt>
      <trkpt lat="43.59953" lon="2.95545">
        <ele>570.2</ele>
        <time>2026-05-07T13:03:36.000Z</time>
      </trkpt>
      <trkpt lat="43.59953" lon="2.95545">
        <ele>569.8</ele>
        <time>2026-05-07T13:03:37.000Z</time>
      </trkpt>
      <trkpt lat="43.59953" lon="2.95545">
        <ele>569.5</ele>
        <time>2026-05-07T13:03:38.000Z</time>
      </trkpt>
      <trkpt lat="43.59953" lon="2.95545">
        <ele>569.3</ele>
        <time>2026-05-07T13:03:39.000Z</time>
      </trkpt>
      <trkpt lat="43.59953" lon="2.95545">
        <ele>569.3</ele>
        <time>2026-05-07T13:03:40.000Z</time>
      </trkpt>
      <trkpt lat="43.59953" lon="2.95545">
        <ele>569.2</ele>
        <time>2026-05-07T13:03:41.000Z</time>
      </trkpt>
      <trkpt lat="43.59953" lon="2.95545">
        <ele>569.2</ele>
        <time>2026-05-07T13:03:42.000Z</time>
      </trkpt>
      <trkpt lat="43.59953" lon="2.95545">
        <ele>569</ele>
        <time>2026-05-07T13:03:43.000Z</time>
      </trkpt>
      <trkpt lat="43.59953" lon="2.95545">
        <ele>568.8</ele>
        <time>2026-05-07T13:03:44.000Z</time>
      </trkpt>
      <trkpt lat="43.59953" lon="2.95545">
        <ele>568.7</ele>
        <time>2026-05-07T13:03:45.000Z</time>
      </trkpt>
      <trkpt lat="43.59953" lon="2.95545">
        <ele>568.7</ele>
        <time>2026-05-07T13:03:46.000Z</time>
      </trkpt>
      <trkpt lat="43.59953" lon="2.95545">
        <ele>568.6</ele>
        <time>2026-05-07T13:03:47.000Z</time>
      </trkpt>
      <trkpt lat="43.59953" lon="2.95545">
        <ele>568.4</ele>
        <time>2026-05-07T13:03:48.000Z</time>
      </trkpt>
      <trkpt lat="43.59953" lon="2.95545">
        <ele>568.3</ele>
        <time>2026-05-07T13:03:49.000Z</time>
      </trkpt>
      <trkpt lat="43.59953" lon="2.95545">
        <ele>568.2</ele>
        <time>2026-05-07T13:03:50.000Z</time>
      </trkpt>
      <trkpt lat="43.59953" lon="2.95545">
        <ele>568.1</ele>
        <time>2026-05-07T13:03:51.000Z</time>
      </trkpt>
      <trkpt lat="43.59953" lon="2.95545">
        <ele>568.1</ele>
        <time>2026-05-07T13:03:52.000Z</time>
      </trkpt>
      <trkpt lat="43.59953" lon="2.95545">
        <ele>567.8</ele>
        <time>2026-05-07T13:03:53.000Z</time>
      </trkpt>
      <trkpt lat="43.59953" lon="2.95545">
        <ele>567.8</ele>
        <time>2026-05-07T13:03:54.000Z</time>
      </trkpt>
      <trkpt lat="43.59953" lon="2.95545">
        <ele>567.8</ele>
        <time>2026-05-07T13:03:55.000Z</time>
      </trkpt>
      <trkpt lat="43.59953" lon="2.95545">
        <ele>567.8</ele>
        <time>2026-05-07T13:03:56.000Z</time>
      </trkpt>
      <trkpt lat="43.59953" lon="2.95545">
        <ele>567.7</ele>
        <time>2026-05-07T13:03:57.000Z</time>
      </trkpt>
      <trkpt lat="43.59953" lon="2.95545">
        <ele>567.9</ele>
        <time>2026-05-07T13:03:58.000Z</time>
      </trkpt>
      <trkpt lat="43.59953" lon="2.95545">
        <ele>567.9</ele>
        <time>2026-05-07T13:03:59.000Z</time>
      </trkpt>
      <trkpt lat="43.59953" lon="2.95545">
        <ele>567.7</ele>
        <time>2026-05-07T13:04:00.000Z</time>
      </trkpt>
      <trkpt lat="43.59953" lon="2.95545">
        <ele>567.6</ele>
        <time>2026-05-07T13:04:01.000Z</time>
      </trkpt>
      <trkpt lat="43.59953" lon="2.95545">
        <ele>567.5</ele>
        <time>2026-05-07T13:04:02.000Z</time>
      </trkpt>
      <trkpt lat="43.59953" lon="2.95545">
        <ele>567.5</ele>
        <time>2026-05-07T13:04:03.000Z</time>
      </trkpt>
      <trkpt lat="43.59954" lon="2.95546">
        <ele>567.5</ele>
        <time>2026-05-07T13:04:04.000Z</time>
      </trkpt>
      <trkpt lat="43.59956" lon="2.95547">
        <ele>567.3</ele>
        <time>2026-05-07T13:04:05.000Z</time>
      </trkpt>
      <trkpt lat="43.59957" lon="2.95548">
        <ele>567.2</ele>
        <time>2026-05-07T13:04:06.000Z</time>
      </trkpt>
      <trkpt lat="43.59957" lon="2.95548">
        <ele>567.2</ele>
        <time>2026-05-07T13:04:07.000Z</time>
      </trkpt>
      <trkpt lat="43.59957" lon="2.95547">
        <ele>567.2</ele>
        <time>2026-05-07T13:04:08.000Z</time>
      </trkpt>
      <trkpt lat="43.59958" lon="2.95548">
        <ele>567.1</ele>
        <time>2026-05-07T13:04:09.000Z</time>
      </trkpt>
      <trkpt lat="43.59958" lon="2.95548">
        <ele>566.9</ele>
        <time>2026-05-07T13:04:10.000Z</time>
      </trkpt>
      <trkpt lat="43.59958" lon="2.95549">
        <ele>567.1</ele>
        <time>2026-05-07T13:04:11.000Z</time>
      </trkpt>
      <trkpt lat="43.59958" lon="2.95549">
        <ele>566.6</ele>
        <time>2026-05-07T13:04:12.000Z</time>
      </trkpt>
      <trkpt lat="43.59958" lon="2.95549">
        <ele>566.7</ele>
        <time>2026-05-07T13:04:13.000Z</time>
      </trkpt>
      <trkpt lat="43.59958" lon="2.95549">
        <ele>566.8</ele>
        <time>2026-05-07T13:04:14.000Z</time>
      </trkpt>
      <trkpt lat="43.59958" lon="2.95548">
        <ele>566.8</ele>
        <time>2026-05-07T13:04:15.000Z</time>
      </trkpt>
      <trkpt lat="43.59958" lon="2.95549">
        <ele>566.8</ele>
        <time>2026-05-07T13:04:16.000Z</time>
      </trkpt>
      <trkpt lat="43.59958" lon="2.95549">
        <ele>566.8</ele>
        <time>2026-05-07T13:04:17.000Z</time>
      </trkpt>
      <trkpt lat="43.59958" lon="2.95548">
        <ele>567.1</ele>
        <time>2026-05-07T13:04:18.000Z</time>
      </trkpt>
      <trkpt lat="43.59957" lon="2.95548">
        <ele>567.3</ele>
        <time>2026-05-07T13:04:19.000Z</time>
      </trkpt>
      <trkpt lat="43.59957" lon="2.95548">
        <ele>567.9</ele>
        <time>2026-05-07T13:04:20.999Z</time>
      </trkpt>
      <trkpt lat="43.59957" lon="2.95548">
        <ele>568.1</ele>
        <time>2026-05-07T13:04:21.999Z</time>
      </trkpt>
      <trkpt lat="43.59957" lon="2.95548">
        <ele>568.3</ele>
        <time>2026-05-07T13:04:22.999Z</time>
      </trkpt>
      <trkpt lat="43.59957" lon="2.95548">
        <ele>568.5</ele>
        <time>2026-05-07T13:04:23.999Z</time>
      </trkpt>
      <trkpt lat="43.59957" lon="2.95548">
        <ele>568.8</ele>
        <time>2026-05-07T13:04:24.999Z</time>
      </trkpt>
      <trkpt lat="43.59957" lon="2.95548">
        <ele>568.9</ele>
        <time>2026-05-07T13:04:25.999Z</time>
      </trkpt>
      <trkpt lat="43.59957" lon="2.95548">
        <ele>569</ele>
        <time>2026-05-07T13:04:26.999Z</time>
      </trkpt>
      <trkpt lat="43.59957" lon="2.95548">
        <ele>569.1</ele>
        <time>2026-05-07T13:04:27.999Z</time>
      </trkpt>
      <trkpt lat="43.59957" lon="2.95548">
        <ele>569.2</ele>
        <time>2026-05-07T13:04:28.999Z</time>
      </trkpt>
      <trkpt lat="43.59957" lon="2.95548">
        <ele>569.1</ele>
        <time>2026-05-07T13:04:29.999Z</time>
      </trkpt>
      <trkpt lat="43.59957" lon="2.95547">
        <ele>569</ele>
        <time>2026-05-07T13:04:30.999Z</time>
      </trkpt>
      <trkpt lat="43.59957" lon="2.95547">
        <ele>569.1</ele>
        <time>2026-05-07T13:04:31.999Z</time>
      </trkpt>
      <trkpt lat="43.59957" lon="2.95547">
        <ele>569</ele>
        <time>2026-05-07T13:04:32.999Z</time>
      </trkpt>
      <trkpt lat="43.59957" lon="2.95547">
        <ele>568.8</ele>
        <time>2026-05-07T13:04:33.999Z</time>
      </trkpt>
      <trkpt lat="43.59957" lon="2.95547">
        <ele>568.6</ele>
        <time>2026-05-07T13:04:34.999Z</time>
      </trkpt>
      <trkpt lat="43.59957" lon="2.95547">
        <ele>568.2</ele>
        <time>2026-05-07T13:04:35.999Z</time>
      </trkpt>
      <trkpt lat="43.59957" lon="2.95547">
        <ele>568.1</ele>
        <time>2026-05-07T13:04:36.999Z</time>
      </trkpt>
      <trkpt lat="43.59957" lon="2.95547">
        <ele>567.9</ele>
        <time>2026-05-07T13:04:37.999Z</time>
      </trkpt>
      <trkpt lat="43.59957" lon="2.95547">
        <ele>567.8</ele>
        <time>2026-05-07T13:04:38.999Z</time>
      </trkpt>
      <trkpt lat="43.59957" lon="2.95547">
        <ele>567.7</ele>
        <time>2026-05-07T13:04:39.999Z</time>
      </trkpt>
      <trkpt lat="43.59957" lon="2.95547">
        <ele>567.7</ele>
        <time>2026-05-07T13:04:40.999Z</time>
      </trkpt>
      <trkpt lat="43.59957" lon="2.95547">
        <ele>567.7</ele>
        <time>2026-05-07T13:04:41.999Z</time>
      </trkpt>
      <trkpt lat="43.59957" lon="2.95547">
        <ele>567.6</ele>
        <time>2026-05-07T13:04:42.999Z</time>
      </trkpt>
      <trkpt lat="43.59957" lon="2.95547">
        <ele>567.5</ele>
        <time>2026-05-07T13:04:43.999Z</time>
      </trkpt>
      <trkpt lat="43.59957" lon="2.95547">
        <ele>567.3</ele>
        <time>2026-05-07T13:04:44.999Z</time>
      </trkpt>
      <trkpt lat="43.59957" lon="2.95547">
        <ele>567.3</ele>
        <time>2026-05-07T13:04:45.999Z</time>
      </trkpt>
      <trkpt lat="43.59957" lon="2.95547">
        <ele>567.3</ele>
        <time>2026-05-07T13:04:46.999Z</time>
      </trkpt>
      <trkpt lat="43.59957" lon="2.95547">
        <ele>567.1</ele>
        <time>2026-05-07T13:04:47.999Z</time>
      </trkpt>
      <trkpt lat="43.59957" lon="2.95547">
        <ele>566.9</ele>
        <time>2026-05-07T13:04:48.999Z</time>
      </trkpt>
      <trkpt lat="43.59957" lon="2.95547">
        <ele>566.6</ele>
        <time>2026-05-07T13:04:49.999Z</time>
      </trkpt>
      <trkpt lat="43.59957" lon="2.95547">
        <ele>566.2</ele>
        <time>2026-05-07T13:04:50.999Z</time>
      </trkpt>
      <trkpt lat="43.59957" lon="2.95547">
        <ele>566.1</ele>
        <time>2026-05-07T13:04:51.999Z</time>
      </trkpt>
      <trkpt lat="43.59957" lon="2.95547">
        <ele>566.2</ele>
        <time>2026-05-07T13:04:52.999Z</time>
      </trkpt>
      <trkpt lat="43.59957" lon="2.95547">
        <ele>566.2</ele>
        <time>2026-05-07T13:04:53.999Z</time>
      </trkpt>
      <trkpt lat="43.59957" lon="2.95547">
        <ele>566</ele>
        <time>2026-05-07T13:04:54.999Z</time>
      </trkpt>
      <trkpt lat="43.59957" lon="2.95547">
        <ele>566</ele>
        <time>2026-05-07T13:04:55.999Z</time>
      </trkpt>
      <trkpt lat="43.59957" lon="2.95547">
        <ele>565.8</ele>
        <time>2026-05-07T13:04:56.999Z</time>
      </trkpt>
      <trkpt lat="43.59957" lon="2.95547">
        <ele>565.6</ele>
        <time>2026-05-07T13:04:57.999Z</time>
      </trkpt>
      <trkpt lat="43.59957" lon="2.95546">
        <ele>565.6</ele>
        <time>2026-05-07T13:04:58.999Z</time>
      </trkpt>
      <trkpt lat="43.59957" lon="2.95546">
        <ele>565.5</ele>
        <time>2026-05-07T13:04:59.999Z</time>
      </trkpt>
      <trkpt lat="43.59957" lon="2.95546">
        <ele>565.5</ele>
        <time>2026-05-07T13:05:00.999Z</time>
      </trkpt>
      <trkpt lat="43.59957" lon="2.95546">
        <ele>565.6</ele>
        <time>2026-05-07T13:05:01.999Z</time>
      </trkpt>
      <trkpt lat="43.59957" lon="2.95546">
        <ele>565.8</ele>
        <time>2026-05-07T13:05:02.999Z</time>
      </trkpt>
      <trkpt lat="43.59957" lon="2.95546">
        <ele>565.8</ele>
        <time>2026-05-07T13:05:03.999Z</time>
      </trkpt>
      <trkpt lat="43.59957" lon="2.95546">
        <ele>565.6</ele>
        <time>2026-05-07T13:05:04.999Z</time>
      </trkpt>
      <trkpt lat="43.59957" lon="2.95546">
        <ele>565.4</ele>
        <time>2026-05-07T13:05:05.999Z</time>
      </trkpt>
      <trkpt lat="43.59957" lon="2.95547">
        <ele>565.3</ele>
        <time>2026-05-07T13:05:06.999Z</time>
      </trkpt>
      <trkpt lat="43.59957" lon="2.95547">
        <ele>565.3</ele>
        <time>2026-05-07T13:05:07.999Z</time>
      </trkpt>
      <trkpt lat="43.59957" lon="2.95547">
        <ele>565.3</ele>
        <time>2026-05-07T13:05:08.999Z</time>
      </trkpt>
      <trkpt lat="43.59957" lon="2.95547">
        <ele>565.4</ele>
        <time>2026-05-07T13:05:09.999Z</time>
      </trkpt>
      <trkpt lat="43.59957" lon="2.95547">
        <ele>565.5</ele>
        <time>2026-05-07T13:05:10.999Z</time>
      </trkpt>
      <trkpt lat="43.59957" lon="2.95547">
        <ele>565.7</ele>
        <time>2026-05-07T13:05:11.999Z</time>
      </trkpt>
      <trkpt lat="43.59957" lon="2.95547">
        <ele>565.9</ele>
        <time>2026-05-07T13:05:12.999Z</time>
      </trkpt>
      <trkpt lat="43.59957" lon="2.95547">
        <ele>566.1</ele>
        <time>2026-05-07T13:05:13.999Z</time>
      </trkpt>
      <trkpt lat="43.59957" lon="2.95546">
        <ele>565.9</ele>
        <time>2026-05-07T13:05:14.999Z</time>
      </trkpt>
      <trkpt lat="43.59957" lon="2.95547">
        <ele>566.1</ele>
        <time>2026-05-07T13:05:15.999Z</time>
      </trkpt>
      <trkpt lat="43.59957" lon="2.95547">
        <ele>566.2</ele>
        <time>2026-05-07T13:05:16.999Z</time>
      </trkpt>
      <trkpt lat="43.59957" lon="2.95547">
        <ele>566.2</ele>
        <time>2026-05-07T13:05:17.999Z</time>
      </trkpt>
      <trkpt lat="43.59957" lon="2.95547">
        <ele>566.2</ele>
        <time>2026-05-07T13:05:18.999Z</time>
      </trkpt>
      <trkpt lat="43.59957" lon="2.95547">
        <ele>566.2</ele>
        <time>2026-05-07T13:05:19.999Z</time>
      </trkpt>
      <trkpt lat="43.59957" lon="2.95547">
        <ele>566</ele>
        <time>2026-05-07T13:05:20.999Z</time>
      </trkpt>
      <trkpt lat="43.59957" lon="2.95547">
        <ele>565.8</ele>
        <time>2026-05-07T13:05:21.999Z</time>
      </trkpt>
      <trkpt lat="43.59957" lon="2.95547">
        <ele>565.6</ele>
        <time>2026-05-07T13:05:22.999Z</time>
      </trkpt>
      <trkpt lat="43.59957" lon="2.95547">
        <ele>565.6</ele>
        <time>2026-05-07T13:05:23.999Z</time>
      </trkpt>
      <trkpt lat="43.59957" lon="2.95547">
        <ele>565.5</ele>
        <time>2026-05-07T13:05:24.999Z</time>
      </trkpt>
      <trkpt lat="43.59957" lon="2.95547">
        <ele>565.4</ele>
        <time>2026-05-07T13:05:25.999Z</time>
      </trkpt>
      <trkpt lat="43.59957" lon="2.95547">
        <ele>565.5</ele>
        <time>2026-05-07T13:05:26.999Z</time>
      </trkpt>
      <trkpt lat="43.59957" lon="2.95547">
        <ele>565.5</ele>
        <time>2026-05-07T13:05:27.999Z</time>
      </trkpt>
      <trkpt lat="43.59957" lon="2.95547">
        <ele>565.4</ele>
        <time>2026-05-07T13:05:28.999Z</time>
      </trkpt>
      <trkpt lat="43.59957" lon="2.95547">
        <ele>565.5</ele>
        <time>2026-05-07T13:05:29.999Z</time>
      </trkpt>
      <trkpt lat="43.59957" lon="2.95547">
        <ele>565.5</ele>
        <time>2026-05-07T13:05:30.999Z</time>
      </trkpt>
      <trkpt lat="43.59957" lon="2.95547">
        <ele>565.5</ele>
        <time>2026-05-07T13:05:31.999Z</time>
      </trkpt>
      <trkpt lat="43.59957" lon="2.95547">
        <ele>565.5</ele>
        <time>2026-05-07T13:05:32.999Z</time>
      </trkpt>
      <trkpt lat="43.59957" lon="2.95547">
        <ele>565.4</ele>
        <time>2026-05-07T13:05:33.999Z</time>
      </trkpt>
      <trkpt lat="43.59957" lon="2.95547">
        <ele>565.1</ele>
        <time>2026-05-07T13:05:34.999Z</time>
      </trkpt>
      <trkpt lat="43.59957" lon="2.95547">
        <ele>565</ele>
        <time>2026-05-07T13:05:35.999Z</time>
      </trkpt>
      <trkpt lat="43.59957" lon="2.95547">
        <ele>564.9</ele>
        <time>2026-05-07T13:05:36.999Z</time>
      </trkpt>
      <trkpt lat="43.59957" lon="2.95547">
        <ele>564.9</ele>
        <time>2026-05-07T13:05:37.999Z</time>
      </trkpt>
      <trkpt lat="43.59957" lon="2.95547">
        <ele>565.1</ele>
        <time>2026-05-07T13:05:38.999Z</time>
      </trkpt>
      <trkpt lat="43.59957" lon="2.95547">
        <ele>565.2</ele>
        <time>2026-05-07T13:05:39.999Z</time>
      </trkpt>
      <trkpt lat="43.59957" lon="2.95547">
        <ele>565.2</ele>
        <time>2026-05-07T13:05:40.999Z</time>
      </trkpt>
      <trkpt lat="43.59957" lon="2.95547">
        <ele>565.1</ele>
        <time>2026-05-07T13:05:41.999Z</time>
      </trkpt>
      <trkpt lat="43.59957" lon="2.95547">
        <ele>564.9</ele>
        <time>2026-05-07T13:05:42.999Z</time>
      </trkpt>
      <trkpt lat="43.59957" lon="2.95547">
        <ele>564.6</ele>
        <time>2026-05-07T13:05:43.999Z</time>
      </trkpt>
      <trkpt lat="43.59957" lon="2.95547">
        <ele>564.5</ele>
        <time>2026-05-07T13:05:44.999Z</time>
      </trkpt>
      <trkpt lat="43.59957" lon="2.95547">
        <ele>564.5</ele>
        <time>2026-05-07T13:05:45.999Z</time>
      </trkpt>
      <trkpt lat="43.59957" lon="2.95547">
        <ele>564.5</ele>
        <time>2026-05-07T13:05:46.999Z</time>
      </trkpt>
      <trkpt lat="43.59957" lon="2.95547">
        <ele>564.4</ele>
        <time>2026-05-07T13:05:47.999Z</time>
      </trkpt>
      <trkpt lat="43.59957" lon="2.95547">
        <ele>564.4</ele>
        <time>2026-05-07T13:05:48.999Z</time>
      </trkpt>
      <trkpt lat="43.59957" lon="2.95547">
        <ele>564.4</ele>
        <time>2026-05-07T13:05:49.999Z</time>
      </trkpt>
      <trkpt lat="43.59957" lon="2.95547">
        <ele>564.3</ele>
        <time>2026-05-07T13:05:50.999Z</time>
      </trkpt>
      <trkpt lat="43.59957" lon="2.95547">
        <ele>564.3</ele>
        <time>2026-05-07T13:05:51.999Z</time>
      </trkpt>
      <trkpt lat="43.59958" lon="2.95547">
        <ele>564.4</ele>
        <time>2026-05-07T13:05:52.999Z</time>
      </trkpt>
      <trkpt lat="43.59958" lon="2.95547">
        <ele>564.6</ele>
        <time>2026-05-07T13:05:53.999Z</time>
      </trkpt>
      <trkpt lat="43.59957" lon="2.95547">
        <ele>564.8</ele>
        <time>2026-05-07T13:05:54.999Z</time>
      </trkpt>
      <trkpt lat="43.59957" lon="2.95547">
        <ele>565</ele>
        <time>2026-05-07T13:05:55.999Z</time>
      </trkpt>
      <trkpt lat="43.59957" lon="2.95547">
        <ele>564.8</ele>
        <time>2026-05-07T13:05:56.999Z</time>
      </trkpt>
      <trkpt lat="43.59957" lon="2.95547">
        <ele>564.8</ele>
        <time>2026-05-07T13:05:57.999Z</time>
      </trkpt>
      <trkpt lat="43.59957" lon="2.95547">
        <ele>564.6</ele>
        <time>2026-05-07T13:05:58.999Z</time>
      </trkpt>
      <trkpt lat="43.59957" lon="2.95547">
        <ele>564.6</ele>
        <time>2026-05-07T13:05:59.999Z</time>
      </trkpt>
      <trkpt lat="43.59957" lon="2.95548">
        <ele>564.6</ele>
        <time>2026-05-07T13:06:00.999Z</time>
      </trkpt>
      <trkpt lat="43.59957" lon="2.95548">
        <ele>564.5</ele>
        <time>2026-05-07T13:06:01.999Z</time>
      </trkpt>
      <trkpt lat="43.59957" lon="2.95548">
        <ele>564.3</ele>
        <time>2026-05-07T13:06:02.999Z</time>
      </trkpt>
      <trkpt lat="43.59957" lon="2.95548">
        <ele>564</ele>
        <time>2026-05-07T13:06:03.999Z</time>
      </trkpt>
      <trkpt lat="43.59958" lon="2.95548">
        <ele>563.8</ele>
        <time>2026-05-07T13:06:04.999Z</time>
      </trkpt>
      <trkpt lat="43.59958" lon="2.95548">
        <ele>563.5</ele>
        <time>2026-05-07T13:06:05.999Z</time>
      </trkpt>
      <trkpt lat="43.59958" lon="2.95548">
        <ele>563.2</ele>
        <time>2026-05-07T13:06:06.999Z</time>
      </trkpt>
      <trkpt lat="43.59958" lon="2.95548">
        <ele>563</ele>
        <time>2026-05-07T13:06:07.999Z</time>
      </trkpt>
      <trkpt lat="43.59958" lon="2.95548">
        <ele>562.7</ele>
        <time>2026-05-07T13:06:08.999Z</time>
      </trkpt>
      <trkpt lat="43.59958" lon="2.95548">
        <ele>562.6</ele>
        <time>2026-05-07T13:06:09.999Z</time>
      </trkpt>
      <trkpt lat="43.59958" lon="2.95548">
        <ele>562.3</ele>
        <time>2026-05-07T13:06:10.999Z</time>
      </trkpt>
      <trkpt lat="43.59958" lon="2.95548">
        <ele>562.1</ele>
        <time>2026-05-07T13:06:11.999Z</time>
      </trkpt>
      <trkpt lat="43.59958" lon="2.95548">
        <ele>562</ele>
        <time>2026-05-07T13:06:12.999Z</time>
      </trkpt>
      <trkpt lat="43.59958" lon="2.95548">
        <ele>561.7</ele>
        <time>2026-05-07T13:06:13.999Z</time>
      </trkpt>
      <trkpt lat="43.59958" lon="2.95548">
        <ele>561.6</ele>
        <time>2026-05-07T13:06:14.999Z</time>
      </trkpt>
      <trkpt lat="43.59958" lon="2.95548">
        <ele>561.5</ele>
        <time>2026-05-07T13:06:15.999Z</time>
      </trkpt>
      <trkpt lat="43.59958" lon="2.95548">
        <ele>561.5</ele>
        <time>2026-05-07T13:06:16.999Z</time>
      </trkpt>
      <trkpt lat="43.59958" lon="2.95548">
        <ele>561.3</ele>
        <time>2026-05-07T13:06:17.999Z</time>
      </trkpt>
      <trkpt lat="43.59958" lon="2.95548">
        <ele>561.2</ele>
        <time>2026-05-07T13:06:18.999Z</time>
      </trkpt>
      <trkpt lat="43.59958" lon="2.95548">
        <ele>561.3</ele>
        <time>2026-05-07T13:06:19.999Z</time>
      </trkpt>
      <trkpt lat="43.59958" lon="2.95548">
        <ele>561.4</ele>
        <time>2026-05-07T13:06:20.999Z</time>
      </trkpt>
      <trkpt lat="43.59958" lon="2.95548">
        <ele>561.7</ele>
        <time>2026-05-07T13:06:21.999Z</time>
      </trkpt>
      <trkpt lat="43.59958" lon="2.95548">
        <ele>561.8</ele>
        <time>2026-05-07T13:06:22.999Z</time>
      </trkpt>
      <trkpt lat="43.59958" lon="2.95548">
        <ele>561.6</ele>
        <time>2026-05-07T13:06:23.999Z</time>
      </trkpt>
      <trkpt lat="43.59958" lon="2.95548">
        <ele>561.5</ele>
        <time>2026-05-07T13:06:24.999Z</time>
      </trkpt>
      <trkpt lat="43.59958" lon="2.95548">
        <ele>561.4</ele>
        <time>2026-05-07T13:06:25.999Z</time>
      </trkpt>
      <trkpt lat="43.59958" lon="2.95548">
        <ele>561.4</ele>
        <time>2026-05-07T13:06:26.999Z</time>
      </trkpt>
      <trkpt lat="43.59958" lon="2.95548">
        <ele>561.2</ele>
        <time>2026-05-07T13:06:27.999Z</time>
      </trkpt>
      <trkpt lat="43.59958" lon="2.95549">
        <ele>561.2</ele>
        <time>2026-05-07T13:06:28.999Z</time>
      </trkpt>
      <trkpt lat="43.59958" lon="2.95549">
        <ele>561.1</ele>
        <time>2026-05-07T13:06:29.999Z</time>
      </trkpt>
      <trkpt lat="43.59958" lon="2.95549">
        <ele>561.1</ele>
        <time>2026-05-07T13:06:30.999Z</time>
      </trkpt>
      <trkpt lat="43.59958" lon="2.95549">
        <ele>561</ele>
        <time>2026-05-07T13:06:31.999Z</time>
      </trkpt>
      <trkpt lat="43.59958" lon="2.95549">
        <ele>560.8</ele>
        <time>2026-05-07T13:06:32.999Z</time>
      </trkpt>
      <trkpt lat="43.59958" lon="2.95549">
        <ele>560.5</ele>
        <time>2026-05-07T13:06:33.999Z</time>
      </trkpt>
      <trkpt lat="43.59958" lon="2.95549">
        <ele>560.7</ele>
        <time>2026-05-07T13:06:35.999Z</time>
      </trkpt>
      <trkpt lat="43.59958" lon="2.95549">
        <ele>560.7</ele>
        <time>2026-05-07T13:06:36.999Z</time>
      </trkpt>
      <trkpt lat="43.59958" lon="2.95549">
        <ele>560.7</ele>
        <time>2026-05-07T13:06:37.999Z</time>
      </trkpt>
      <trkpt lat="43.59959" lon="2.95549">
        <ele>560.9</ele>
        <time>2026-05-07T13:06:38.999Z</time>
      </trkpt>
      <trkpt lat="43.5996" lon="2.95549">
        <ele>560.8</ele>
        <time>2026-05-07T13:06:39.999Z</time>
      </trkpt>
      <trkpt lat="43.5996" lon="2.95549">
        <ele>560.9</ele>
        <time>2026-05-07T13:06:40.999Z</time>
      </trkpt>
      <trkpt lat="43.59961" lon="2.9555">
        <ele>561.3</ele>
        <time>2026-05-07T13:06:41.999Z</time>
      </trkpt>
      <trkpt lat="43.59961" lon="2.9555">
        <ele>561.6</ele>
        <time>2026-05-07T13:06:42.999Z</time>
      </trkpt>
      <trkpt lat="43.59961" lon="2.95551">
        <ele>561.9</ele>
        <time>2026-05-07T13:06:43.999Z</time>
      </trkpt>
      <trkpt lat="43.59962" lon="2.95551">
        <ele>562.2</ele>
        <time>2026-05-07T13:06:44.999Z</time>
      </trkpt>
      <trkpt lat="43.59962" lon="2.95551">
        <ele>562.2</ele>
        <time>2026-05-07T13:06:45.999Z</time>
      </trkpt>
      <trkpt lat="43.59962" lon="2.95551">
        <ele>562.1</ele>
        <time>2026-05-07T13:06:46.999Z</time>
      </trkpt>
      <trkpt lat="43.59962" lon="2.95551">
        <ele>562.2</ele>
        <time>2026-05-07T13:06:47.999Z</time>
      </trkpt>
      <trkpt lat="43.59962" lon="2.95551">
        <ele>562.2</ele>
        <time>2026-05-07T13:06:48.999Z</time>
      </trkpt>
      <trkpt lat="43.59962" lon="2.95551">
        <ele>562.3</ele>
        <time>2026-05-07T13:06:49.999Z</time>
      </trkpt>
      <trkpt lat="43.59961" lon="2.95551">
        <ele>562.4</ele>
        <time>2026-05-07T13:06:50.999Z</time>
      </trkpt>
      <trkpt lat="43.59961" lon="2.95551">
        <ele>562.7</ele>
        <time>2026-05-07T13:06:51.999Z</time>
      </trkpt>
      <trkpt lat="43.59961" lon="2.95551">
        <ele>562.9</ele>
        <time>2026-05-07T13:06:52.999Z</time>
      </trkpt>
      <trkpt lat="43.59961" lon="2.95551">
        <ele>562.9</ele>
        <time>2026-05-07T13:06:53.999Z</time>
      </trkpt>
      <trkpt lat="43.5996" lon="2.95551">
        <ele>562.9</ele>
        <time>2026-05-07T13:06:54.999Z</time>
      </trkpt>
      <trkpt lat="43.5996" lon="2.95552">
        <ele>562.9</ele>
        <time>2026-05-07T13:06:55.999Z</time>
      </trkpt>
      <trkpt lat="43.5996" lon="2.95553">
        <ele>563</ele>
        <time>2026-05-07T13:06:56.999Z</time>
      </trkpt>
      <trkpt lat="43.59959" lon="2.95553">
        <ele>562.8</ele>
        <time>2026-05-07T13:06:57.999Z</time>
      </trkpt>
      <trkpt lat="43.59959" lon="2.95553">
        <ele>562.6</ele>
        <time>2026-05-07T13:06:58.999Z</time>
      </trkpt>
      <trkpt lat="43.59959" lon="2.95553">
        <ele>562.6</ele>
        <time>2026-05-07T13:06:59.999Z</time>
      </trkpt>
      <trkpt lat="43.59959" lon="2.95553">
        <ele>562.7</ele>
        <time>2026-05-07T13:07:00.999Z</time>
      </trkpt>
      <trkpt lat="43.59959" lon="2.95553">
        <ele>562.7</ele>
        <time>2026-05-07T13:07:01.999Z</time>
      </trkpt>
      <trkpt lat="43.59959" lon="2.95553">
        <ele>562.9</ele>
        <time>2026-05-07T13:07:02.999Z</time>
      </trkpt>
      <trkpt lat="43.59959" lon="2.95553">
        <ele>563.2</ele>
        <time>2026-05-07T13:07:03.999Z</time>
      </trkpt>
      <trkpt lat="43.59959" lon="2.95553">
        <ele>563.1</ele>
        <time>2026-05-07T13:07:04.999Z</time>
      </trkpt>
      <trkpt lat="43.59959" lon="2.95553">
        <ele>563.2</ele>
        <time>2026-05-07T13:07:06.999Z</time>
      </trkpt>
      <trkpt lat="43.59959" lon="2.95553">
        <ele>563.1</ele>
        <time>2026-05-07T13:07:07.999Z</time>
      </trkpt>
      <trkpt lat="43.59959" lon="2.95552">
        <ele>563.4</ele>
        <time>2026-05-07T13:07:08.999Z</time>
      </trkpt>
      <trkpt lat="43.59959" lon="2.95552">
        <ele>563.2</ele>
        <time>2026-05-07T13:07:09.999Z</time>
      </trkpt>
      <trkpt lat="43.59958" lon="2.95552">
        <ele>563.2</ele>
        <time>2026-05-07T13:07:10.999Z</time>
      </trkpt>
      <trkpt lat="43.59957" lon="2.95551">
        <ele>563.5</ele>
        <time>2026-05-07T13:07:11.999Z</time>
      </trkpt>
      <trkpt lat="43.59956" lon="2.95551">
        <ele>563.4</ele>
        <time>2026-05-07T13:07:12.999Z</time>
      </trkpt>
      <trkpt lat="43.59956" lon="2.95551">
        <ele>563.8</ele>
        <time>2026-05-07T13:07:13.999Z</time>
      </trkpt>
      <trkpt lat="43.59955" lon="2.95551">
        <ele>564.2</ele>
        <time>2026-05-07T13:07:14.999Z</time>
      </trkpt>
      <trkpt lat="43.59956" lon="2.95551">
        <ele>564.1</ele>
        <time>2026-05-07T13:07:15.999Z</time>
      </trkpt>
      <trkpt lat="43.59956" lon="2.95551">
        <ele>564.1</ele>
        <time>2026-05-07T13:07:16.999Z</time>
      </trkpt>
      <trkpt lat="43.59957" lon="2.9555">
        <ele>563.4</ele>
        <time>2026-05-07T13:07:17.999Z</time>
      </trkpt>
      <trkpt lat="43.59957" lon="2.9555">
        <ele>562.8</ele>
        <time>2026-05-07T13:07:18.999Z</time>
      </trkpt>
      <trkpt lat="43.59957" lon="2.9555">
        <ele>563</ele>
        <time>2026-05-07T13:07:19.999Z</time>
      </trkpt>
      <trkpt lat="43.59957" lon="2.9555">
        <ele>562.9</ele>
        <time>2026-05-07T13:07:20.999Z</time>
      </trkpt>
      <trkpt lat="43.59957" lon="2.9555">
        <ele>563.1</ele>
        <time>2026-05-07T13:07:21.999Z</time>
      </trkpt>
      <trkpt lat="43.59957" lon="2.9555">
        <ele>563.2</ele>
        <time>2026-05-07T13:07:22.999Z</time>
      </trkpt>
      <trkpt lat="43.59957" lon="2.9555">
        <ele>563.5</ele>
        <time>2026-05-07T13:07:23.999Z</time>
      </trkpt>
      <trkpt lat="43.59957" lon="2.95549">
        <ele>563.7</ele>
        <time>2026-05-07T13:07:24.999Z</time>
      </trkpt>
      <trkpt lat="43.59957" lon="2.95549">
        <ele>563.9</ele>
        <time>2026-05-07T13:07:25.999Z</time>
      </trkpt>
      <trkpt lat="43.59957" lon="2.95549">
        <ele>564</ele>
        <time>2026-05-07T13:07:26.999Z</time>
      </trkpt>
      <trkpt lat="43.59957" lon="2.95549">
        <ele>564.2</ele>
        <time>2026-05-07T13:07:27.999Z</time>
      </trkpt>
      <trkpt lat="43.59957" lon="2.95549">
        <ele>564.3</ele>
        <time>2026-05-07T13:07:28.999Z</time>
      </trkpt>
      <trkpt lat="43.59957" lon="2.95549">
        <ele>564.4</ele>
        <time>2026-05-07T13:07:29.999Z</time>
      </trkpt>
      <trkpt lat="43.59957" lon="2.95549">
        <ele>564.6</ele>
        <time>2026-05-07T13:07:30.999Z</time>
      </trkpt>
      <trkpt lat="43.59957" lon="2.95549">
        <ele>564.7</ele>
        <time>2026-05-07T13:07:31.999Z</time>
      </trkpt>
      <trkpt lat="43.59957" lon="2.95549">
        <ele>564.8</ele>
        <time>2026-05-07T13:07:32.999Z</time>
      </trkpt>
      <trkpt lat="43.59957" lon="2.95549">
        <ele>564.9</ele>
        <time>2026-05-07T13:07:33.999Z</time>
      </trkpt>
      <trkpt lat="43.59957" lon="2.95549">
        <ele>565.1</ele>
        <time>2026-05-07T13:07:34.999Z</time>
      </trkpt>
      <trkpt lat="43.59958" lon="2.95549">
        <ele>565</ele>
        <time>2026-05-07T13:07:35.999Z</time>
      </trkpt>
      <trkpt lat="43.59958" lon="2.95549">
        <ele>565</ele>
        <time>2026-05-07T13:07:36.999Z</time>
      </trkpt>
      <trkpt lat="43.59957" lon="2.95549">
        <ele>565</ele>
        <time>2026-05-07T13:07:37.999Z</time>
      </trkpt>
      <trkpt lat="43.59958" lon="2.95549">
        <ele>564.9</ele>
        <time>2026-05-07T13:07:38.999Z</time>
      </trkpt>
      <trkpt lat="43.59958" lon="2.95549">
        <ele>564.9</ele>
        <time>2026-05-07T13:07:39.999Z</time>
      </trkpt>
      <trkpt lat="43.59958" lon="2.95549">
        <ele>564.7</ele>
        <time>2026-05-07T13:07:40.999Z</time>
      </trkpt>
      <trkpt lat="43.59958" lon="2.95548">
        <ele>564.5</ele>
        <time>2026-05-07T13:07:41.999Z</time>
      </trkpt>
      <trkpt lat="43.59957" lon="2.95547">
        <ele>564.2</ele>
        <time>2026-05-07T13:07:42.999Z</time>
      </trkpt>
      <trkpt lat="43.59957" lon="2.95546">
        <ele>564.2</ele>
        <time>2026-05-07T13:07:43.999Z</time>
      </trkpt>
      <trkpt lat="43.59957" lon="2.95546">
        <ele>564.4</ele>
        <time>2026-05-07T13:07:44.999Z</time>
      </trkpt>
      <trkpt lat="43.59958" lon="2.95545">
        <ele>564.2</ele>
        <time>2026-05-07T13:07:45.999Z</time>
      </trkpt>
      <trkpt lat="43.59958" lon="2.95545">
        <ele>564.1</ele>
        <time>2026-05-07T13:07:46.999Z</time>
      </trkpt>
      <trkpt lat="43.59958" lon="2.95545">
        <ele>564</ele>
        <time>2026-05-07T13:07:47.999Z</time>
      </trkpt>
      <trkpt lat="43.59958" lon="2.95545">
        <ele>564</ele>
        <time>2026-05-07T13:07:48.999Z</time>
      </trkpt>
      <trkpt lat="43.59958" lon="2.95545">
        <ele>563.9</ele>
        <time>2026-05-07T13:07:49.999Z</time>
      </trkpt>
      <trkpt lat="43.59957" lon="2.95545">
        <ele>563.8</ele>
        <time>2026-05-07T13:07:50.999Z</time>
      </trkpt>
      <trkpt lat="43.59956" lon="2.95545">
        <ele>563.8</ele>
        <time>2026-05-07T13:07:51.999Z</time>
      </trkpt>
      <trkpt lat="43.59955" lon="2.95545">
        <ele>564</ele>
        <time>2026-05-07T13:07:52.999Z</time>
      </trkpt>
      <trkpt lat="43.59954" lon="2.95545">
        <ele>564</ele>
        <time>2026-05-07T13:07:53.999Z</time>
      </trkpt>
      <trkpt lat="43.59953" lon="2.95544">
        <ele>563.9</ele>
        <time>2026-05-07T13:07:54.999Z</time>
      </trkpt>
      <trkpt lat="43.59952" lon="2.95543">
        <ele>563.8</ele>
        <time>2026-05-07T13:07:55.999Z</time>
      </trkpt>
      <trkpt lat="43.59952" lon="2.95543">
        <ele>563.7</ele>
        <time>2026-05-07T13:07:56.999Z</time>
      </trkpt>
      <trkpt lat="43.59951" lon="2.95542">
        <ele>563.4</ele>
        <time>2026-05-07T13:07:57.999Z</time>
      </trkpt>
      <trkpt lat="43.59951" lon="2.95543">
        <ele>563.5</ele>
        <time>2026-05-07T13:07:58.999Z</time>
      </trkpt>
      <trkpt lat="43.5995" lon="2.95543">
        <ele>563.5</ele>
        <time>2026-05-07T13:07:59.999Z</time>
      </trkpt>
      <trkpt lat="43.59951" lon="2.95544">
        <ele>563.8</ele>
        <time>2026-05-07T13:08:00.999Z</time>
      </trkpt>
      <trkpt lat="43.59951" lon="2.95544">
        <ele>564</ele>
        <time>2026-05-07T13:08:01.999Z</time>
      </trkpt>
      <trkpt lat="43.59951" lon="2.95544">
        <ele>564.3</ele>
        <time>2026-05-07T13:08:02.999Z</time>
      </trkpt>
      <trkpt lat="43.59951" lon="2.95544">
        <ele>564.3</ele>
        <time>2026-05-07T13:08:03.999Z</time>
      </trkpt>
      <trkpt lat="43.59951" lon="2.95544">
        <ele>564.3</ele>
        <time>2026-05-07T13:08:04.999Z</time>
      </trkpt>
      <trkpt lat="43.59951" lon="2.95544">
        <ele>564.3</ele>
        <time>2026-05-07T13:08:05.999Z</time>
      </trkpt>
      <trkpt lat="43.59951" lon="2.95544">
        <ele>564.1</ele>
        <time>2026-05-07T13:08:06.999Z</time>
      </trkpt>
      <trkpt lat="43.59952" lon="2.95545">
        <ele>564.3</ele>
        <time>2026-05-07T13:08:07.999Z</time>
      </trkpt>
      <trkpt lat="43.59952" lon="2.95545">
        <ele>564.5</ele>
        <time>2026-05-07T13:08:08.999Z</time>
      </trkpt>
      <trkpt lat="43.59953" lon="2.95545">
        <ele>564.6</ele>
        <time>2026-05-07T13:08:09.999Z</time>
      </trkpt>
      <trkpt lat="43.59953" lon="2.95545">
        <ele>564.5</ele>
        <time>2026-05-07T13:08:10.999Z</time>
      </trkpt>
      <trkpt lat="43.59955" lon="2.95546">
        <ele>564.3</ele>
        <time>2026-05-07T13:08:11.999Z</time>
      </trkpt>
      <trkpt lat="43.59956" lon="2.95546">
        <ele>564.3</ele>
        <time>2026-05-07T13:08:12.999Z</time>
      </trkpt>
      <trkpt lat="43.59957" lon="2.95546">
        <ele>564.3</ele>
        <time>2026-05-07T13:08:13.999Z</time>
      </trkpt>
      <trkpt lat="43.59958" lon="2.95547">
        <ele>564.2</ele>
        <time>2026-05-07T13:08:14.999Z</time>
      </trkpt>
      <trkpt lat="43.59958" lon="2.95547">
        <ele>564.2</ele>
        <time>2026-05-07T13:08:15.999Z</time>
      </trkpt>
      <trkpt lat="43.59958" lon="2.95547">
        <ele>564.3</ele>
        <time>2026-05-07T13:08:16.999Z</time>
      </trkpt>
      <trkpt lat="43.59958" lon="2.95547">
        <ele>564.2</ele>
        <time>2026-05-07T13:08:17.999Z</time>
      </trkpt>
      <trkpt lat="43.59958" lon="2.95547">
        <ele>564.3</ele>
        <time>2026-05-07T13:08:18.999Z</time>
      </trkpt>
      <trkpt lat="43.59958" lon="2.95547">
        <ele>564.5</ele>
        <time>2026-05-07T13:08:19.999Z</time>
      </trkpt>
      <trkpt lat="43.59959" lon="2.95547">
        <ele>564.6</ele>
        <time>2026-05-07T13:08:20.999Z</time>
      </trkpt>
      <trkpt lat="43.59959" lon="2.95547">
        <ele>564.9</ele>
        <time>2026-05-07T13:08:21.999Z</time>
      </trkpt>
      <trkpt lat="43.59959" lon="2.95547">
        <ele>565.1</ele>
        <time>2026-05-07T13:08:22.999Z</time>
      </trkpt>
      <trkpt lat="43.59959" lon="2.95547">
        <ele>565.4</ele>
        <time>2026-05-07T13:08:23.999Z</time>
      </trkpt>
      <trkpt lat="43.59959" lon="2.95547">
        <ele>565.4</ele>
        <time>2026-05-07T13:08:24.999Z</time>
      </trkpt>
      <trkpt lat="43.59959" lon="2.95547">
        <ele>565.5</ele>
        <time>2026-05-07T13:08:25.999Z</time>
      </trkpt>
      <trkpt lat="43.59959" lon="2.95547">
        <ele>565.5</ele>
        <time>2026-05-07T13:08:26.999Z</time>
      </trkpt>
      <trkpt lat="43.59959" lon="2.95547">
        <ele>565.6</ele>
        <time>2026-05-07T13:08:27.999Z</time>
      </trkpt>
      <trkpt lat="43.59959" lon="2.95547">
        <ele>565.5</ele>
        <time>2026-05-07T13:08:28.999Z</time>
      </trkpt>
      <trkpt lat="43.59959" lon="2.95547">
        <ele>565.8</ele>
        <time>2026-05-07T13:08:29.999Z</time>
      </trkpt>
      <trkpt lat="43.59959" lon="2.95547">
        <ele>566</ele>
        <time>2026-05-07T13:08:30.999Z</time>
      </trkpt>
      <trkpt lat="43.59958" lon="2.95547">
        <ele>565.8</ele>
        <time>2026-05-07T13:08:31.999Z</time>
      </trkpt>
      <trkpt lat="43.59957" lon="2.95547">
        <ele>565.5</ele>
        <time>2026-05-07T13:08:32.999Z</time>
      </trkpt>
      <trkpt lat="43.59957" lon="2.95547">
        <ele>565.4</ele>
        <time>2026-05-07T13:08:33.999Z</time>
      </trkpt>
      <trkpt lat="43.59956" lon="2.95546">
        <ele>565.5</ele>
        <time>2026-05-07T13:08:34.999Z</time>
      </trkpt>
      <trkpt lat="43.59956" lon="2.95546">
        <ele>565.3</ele>
        <time>2026-05-07T13:08:35.999Z</time>
      </trkpt>
      <trkpt lat="43.59956" lon="2.95546">
        <ele>565</ele>
        <time>2026-05-07T13:08:36.999Z</time>
      </trkpt>
      <trkpt lat="43.59956" lon="2.95545">
        <ele>564.8</ele>
        <time>2026-05-07T13:08:37.999Z</time>
      </trkpt>
      <trkpt lat="43.59957" lon="2.95546">
        <ele>564.5</ele>
        <time>2026-05-07T13:08:38.999Z</time>
      </trkpt>
      <trkpt lat="43.59957" lon="2.95546">
        <ele>564.6</ele>
        <time>2026-05-07T13:08:39.999Z</time>
      </trkpt>
      <trkpt lat="43.59957" lon="2.95546">
        <ele>564.5</ele>
        <time>2026-05-07T13:08:40.999Z</time>
      </trkpt>
      <trkpt lat="43.59957" lon="2.95546">
        <ele>564.7</ele>
        <time>2026-05-07T13:08:41.999Z</time>
      </trkpt>
      <trkpt lat="43.59957" lon="2.95546">
        <ele>564.8</ele>
        <time>2026-05-07T13:08:42.999Z</time>
      </trkpt>
      <trkpt lat="43.59957" lon="2.95546">
        <ele>565</ele>
        <time>2026-05-07T13:08:43.999Z</time>
      </trkpt>
      <trkpt lat="43.59957" lon="2.95545">
        <ele>565.2</ele>
        <time>2026-05-07T13:08:44.999Z</time>
      </trkpt>
      <trkpt lat="43.59957" lon="2.95545">
        <ele>565.5</ele>
        <time>2026-05-07T13:08:45.999Z</time>
      </trkpt>
      <trkpt lat="43.59957" lon="2.95545">
        <ele>565.8</ele>
        <time>2026-05-07T13:08:46.999Z</time>
      </trkpt>
      <trkpt lat="43.59957" lon="2.95546">
        <ele>566</ele>
        <time>2026-05-07T13:08:47.999Z</time>
      </trkpt>
      <trkpt lat="43.59957" lon="2.95546">
        <ele>566</ele>
        <time>2026-05-07T13:08:48.999Z</time>
      </trkpt>
      <trkpt lat="43.59957" lon="2.95545">
        <ele>566</ele>
        <time>2026-05-07T13:08:49.999Z</time>
      </trkpt>
      <trkpt lat="43.59957" lon="2.95545">
        <ele>566</ele>
        <time>2026-05-07T13:08:50.999Z</time>
      </trkpt>
      <trkpt lat="43.59957" lon="2.95545">
        <ele>566.1</ele>
        <time>2026-05-07T13:08:51.999Z</time>
      </trkpt>
      <trkpt lat="43.59957" lon="2.95545">
        <ele>566.1</ele>
        <time>2026-05-07T13:08:52.999Z</time>
      </trkpt>
      <trkpt lat="43.59957" lon="2.95545">
        <ele>566.2</ele>
        <time>2026-05-07T13:08:53.999Z</time>
      </trkpt>
      <trkpt lat="43.59957" lon="2.95545">
        <ele>566.2</ele>
        <time>2026-05-07T13:08:54.999Z</time>
      </trkpt>
      <trkpt lat="43.59957" lon="2.95545">
        <ele>566</ele>
        <time>2026-05-07T13:08:55.999Z</time>
      </trkpt>
      <trkpt lat="43.59958" lon="2.95545">
        <ele>566</ele>
        <time>2026-05-07T13:08:56.999Z</time>
      </trkpt>
      <trkpt lat="43.59959" lon="2.95545">
        <ele>566</ele>
        <time>2026-05-07T13:08:57.999Z</time>
      </trkpt>
      <trkpt lat="43.59959" lon="2.95545">
        <ele>565.9</ele>
        <time>2026-05-07T13:08:58.999Z</time>
      </trkpt>
      <trkpt lat="43.59959" lon="2.95546">
        <ele>566</ele>
        <time>2026-05-07T13:08:59.999Z</time>
      </trkpt>
      <trkpt lat="43.59959" lon="2.95546">
        <ele>566.2</ele>
        <time>2026-05-07T13:09:00.999Z</time>
      </trkpt>
      <trkpt lat="43.5996" lon="2.95546">
        <ele>566.4</ele>
        <time>2026-05-07T13:09:01.999Z</time>
      </trkpt>
      <trkpt lat="43.59959" lon="2.95546">
        <ele>566.1</ele>
        <time>2026-05-07T13:09:02.999Z</time>
      </trkpt>
      <trkpt lat="43.59959" lon="2.95547">
        <ele>565.7</ele>
        <time>2026-05-07T13:09:03.999Z</time>
      </trkpt>
      <trkpt lat="43.59959" lon="2.95547">
        <ele>565.6</ele>
        <time>2026-05-07T13:09:04.999Z</time>
      </trkpt>
      <trkpt lat="43.59959" lon="2.95547">
        <ele>565.4</ele>
        <time>2026-05-07T13:09:05.999Z</time>
      </trkpt>
      <trkpt lat="43.59959" lon="2.95547">
        <ele>565.2</ele>
        <time>2026-05-07T13:09:06.999Z</time>
      </trkpt>
      <trkpt lat="43.59959" lon="2.95547">
        <ele>565.1</ele>
        <time>2026-05-07T13:09:07.999Z</time>
      </trkpt>
      <trkpt lat="43.59959" lon="2.95547">
        <ele>564.8</ele>
        <time>2026-05-07T13:09:08.999Z</time>
      </trkpt>
      <trkpt lat="43.59959" lon="2.95547">
        <ele>564.6</ele>
        <time>2026-05-07T13:09:09.999Z</time>
      </trkpt>
      <trkpt lat="43.59958" lon="2.95547">
        <ele>564.8</ele>
        <time>2026-05-07T13:09:10.999Z</time>
      </trkpt>
      <trkpt lat="43.59958" lon="2.95547">
        <ele>564.9</ele>
        <time>2026-05-07T13:09:11.999Z</time>
      </trkpt>
      <trkpt lat="43.59958" lon="2.95547">
        <ele>565</ele>
        <time>2026-05-07T13:09:13.999Z</time>
      </trkpt>
      <trkpt lat="43.59958" lon="2.95547">
        <ele>565.2</ele>
        <time>2026-05-07T13:09:14.999Z</time>
      </trkpt>
      <trkpt lat="43.59958" lon="2.95547">
        <ele>565.5</ele>
        <time>2026-05-07T13:09:15.999Z</time>
      </trkpt>
      <trkpt lat="43.59958" lon="2.95547">
        <ele>565.4</ele>
        <time>2026-05-07T13:09:16.999Z</time>
      </trkpt>
      <trkpt lat="43.59958" lon="2.95547">
        <ele>565.4</ele>
        <time>2026-05-07T13:09:17.999Z</time>
      </trkpt>
      <trkpt lat="43.59958" lon="2.95547">
        <ele>565.4</ele>
        <time>2026-05-07T13:09:18.999Z</time>
      </trkpt>
      <trkpt lat="43.59958" lon="2.95547">
        <ele>565.3</ele>
        <time>2026-05-07T13:09:19.999Z</time>
      </trkpt>
      <trkpt lat="43.59958" lon="2.95547">
        <ele>565.5</ele>
        <time>2026-05-07T13:09:20.999Z</time>
      </trkpt>
      <trkpt lat="43.59958" lon="2.95547">
        <ele>565.5</ele>
        <time>2026-05-07T13:09:21.999Z</time>
      </trkpt>
      <trkpt lat="43.59957" lon="2.95547">
        <ele>565.6</ele>
        <time>2026-05-07T13:09:22.999Z</time>
      </trkpt>
      <trkpt lat="43.59957" lon="2.95548">
        <ele>565.8</ele>
        <time>2026-05-07T13:09:23.999Z</time>
      </trkpt>
      <trkpt lat="43.59957" lon="2.95548">
        <ele>565.6</ele>
        <time>2026-05-07T13:09:24.999Z</time>
      </trkpt>
      <trkpt lat="43.59957" lon="2.95548">
        <ele>565.4</ele>
        <time>2026-05-07T13:09:25.999Z</time>
      </trkpt>
      <trkpt lat="43.59957" lon="2.95548">
        <ele>565.4</ele>
        <time>2026-05-07T13:09:26.999Z</time>
      </trkpt>
      <trkpt lat="43.59957" lon="2.95548">
        <ele>565.2</ele>
        <time>2026-05-07T13:09:27.999Z</time>
      </trkpt>
      <trkpt lat="43.59957" lon="2.95548">
        <ele>565.2</ele>
        <time>2026-05-07T13:09:28.999Z</time>
      </trkpt>
      <trkpt lat="43.59957" lon="2.95548">
        <ele>565.2</ele>
        <time>2026-05-07T13:09:29.999Z</time>
      </trkpt>
      <trkpt lat="43.59957" lon="2.95548">
        <ele>565.1</ele>
        <time>2026-05-07T13:09:30.999Z</time>
      </trkpt>
      <trkpt lat="43.59957" lon="2.95548">
        <ele>565</ele>
        <time>2026-05-07T13:09:31.999Z</time>
      </trkpt>
      <trkpt lat="43.59957" lon="2.95548">
        <ele>565.1</ele>
        <time>2026-05-07T13:09:32.999Z</time>
      </trkpt>
      <trkpt lat="43.59957" lon="2.95548">
        <ele>565</ele>
        <time>2026-05-07T13:09:33.999Z</time>
      </trkpt>
      <trkpt lat="43.59956" lon="2.95547">
        <ele>564.8</ele>
        <time>2026-05-07T13:09:34.999Z</time>
      </trkpt>
      <trkpt lat="43.59955" lon="2.95547">
        <ele>564.8</ele>
        <time>2026-05-07T13:09:35.999Z</time>
      </trkpt>
      <trkpt lat="43.59954" lon="2.95547">
        <ele>564.8</ele>
        <time>2026-05-07T13:09:36.999Z</time>
      </trkpt>
      <trkpt lat="43.59953" lon="2.95548">
        <ele>564.9</ele>
        <time>2026-05-07T13:09:37.999Z</time>
      </trkpt>
      <trkpt lat="43.59953" lon="2.95549">
        <ele>564.9</ele>
        <time>2026-05-07T13:09:38.999Z</time>
      </trkpt>
      <trkpt lat="43.59953" lon="2.9555">
        <ele>565.1</ele>
        <time>2026-05-07T13:09:39.999Z</time>
      </trkpt>
      <trkpt lat="43.59952" lon="2.9555">
        <ele>565.4</ele>
        <time>2026-05-07T13:09:41.999Z</time>
      </trkpt>
      <trkpt lat="43.59952" lon="2.95551">
        <ele>565.6</ele>
        <time>2026-05-07T13:09:42.999Z</time>
      </trkpt>
      <trkpt lat="43.59952" lon="2.95551">
        <ele>565.9</ele>
        <time>2026-05-07T13:09:43.999Z</time>
      </trkpt>
      <trkpt lat="43.59952" lon="2.95551">
        <ele>566</ele>
        <time>2026-05-07T13:09:44.999Z</time>
      </trkpt>
      <trkpt lat="43.59952" lon="2.95551">
        <ele>566.1</ele>
        <time>2026-05-07T13:09:45.999Z</time>
      </trkpt>
      <trkpt lat="43.59952" lon="2.95551">
        <ele>566.2</ele>
        <time>2026-05-07T13:09:46.999Z</time>
      </trkpt>
      <trkpt lat="43.59952" lon="2.95551">
        <ele>566.3</ele>
        <time>2026-05-07T13:09:47.999Z</time>
      </trkpt>
      <trkpt lat="43.59951" lon="2.95551">
        <ele>566.3</ele>
        <time>2026-05-07T13:09:48.999Z</time>
      </trkpt>
      <trkpt lat="43.59951" lon="2.95551">
        <ele>566.3</ele>
        <time>2026-05-07T13:09:49.999Z</time>
      </trkpt>
      <trkpt lat="43.5995" lon="2.95551">
        <ele>566.4</ele>
        <time>2026-05-07T13:09:50.999Z</time>
      </trkpt>
      <trkpt lat="43.5995" lon="2.95551">
        <ele>566.5</ele>
        <time>2026-05-07T13:09:51.999Z</time>
      </trkpt>
      <trkpt lat="43.5995" lon="2.95552">
        <ele>566.4</ele>
        <time>2026-05-07T13:09:52.999Z</time>
      </trkpt>
      <trkpt lat="43.5995" lon="2.95553">
        <ele>566.3</ele>
        <time>2026-05-07T13:09:53.999Z</time>
      </trkpt>
      <trkpt lat="43.59951" lon="2.95553">
        <ele>566.2</ele>
        <time>2026-05-07T13:09:54.999Z</time>
      </trkpt>
      <trkpt lat="43.59952" lon="2.95554">
        <ele>566.1</ele>
        <time>2026-05-07T13:09:55.999Z</time>
      </trkpt>
      <trkpt lat="43.59952" lon="2.95555">
        <ele>566.2</ele>
        <time>2026-05-07T13:09:56.999Z</time>
      </trkpt>
      <trkpt lat="43.59952" lon="2.95555">
        <ele>566.4</ele>
        <time>2026-05-07T13:09:57.999Z</time>
      </trkpt>
      <trkpt lat="43.59953" lon="2.95555">
        <ele>566.6</ele>
        <time>2026-05-07T13:09:58.999Z</time>
      </trkpt>
      <trkpt lat="43.59953" lon="2.95556">
        <ele>566.7</ele>
        <time>2026-05-07T13:09:59.999Z</time>
      </trkpt>
      <trkpt lat="43.59953" lon="2.95556">
        <ele>566.6</ele>
        <time>2026-05-07T13:10:00.999Z</time>
      </trkpt>
      <trkpt lat="43.59954" lon="2.95556">
        <ele>566.3</ele>
        <time>2026-05-07T13:10:01.999Z</time>
      </trkpt>
      <trkpt lat="43.59954" lon="2.95555">
        <ele>566.3</ele>
        <time>2026-05-07T13:10:02.999Z</time>
      </trkpt>
      <trkpt lat="43.59954" lon="2.95553">
        <ele>566.4</ele>
        <time>2026-05-07T13:10:03.999Z</time>
      </trkpt>
      <trkpt lat="43.59953" lon="2.95552">
        <ele>566.3</ele>
        <time>2026-05-07T13:10:04.999Z</time>
      </trkpt>
      <trkpt lat="43.59953" lon="2.95552">
        <ele>567.1</ele>
        <time>2026-05-07T13:10:05.999Z</time>
      </trkpt>
      <trkpt lat="43.59953" lon="2.95552">
        <ele>567.3</ele>
        <time>2026-05-07T13:10:06.999Z</time>
      </trkpt>
      <trkpt lat="43.59953" lon="2.95552">
        <ele>567.4</ele>
        <time>2026-05-07T13:10:07.999Z</time>
      </trkpt>
      <trkpt lat="43.59953" lon="2.95551">
        <ele>567.5</ele>
        <time>2026-05-07T13:10:08.999Z</time>
      </trkpt>
      <trkpt lat="43.59954" lon="2.9555">
        <ele>567.7</ele>
        <time>2026-05-07T13:10:10.999Z</time>
      </trkpt>
      <trkpt lat="43.59954" lon="2.9555">
        <ele>567.8</ele>
        <time>2026-05-07T13:10:11.999Z</time>
      </trkpt>
      <trkpt lat="43.59954" lon="2.9555">
        <ele>568</ele>
        <time>2026-05-07T13:10:12.999Z</time>
      </trkpt>
      <trkpt lat="43.59954" lon="2.9555">
        <ele>568.1</ele>
        <time>2026-05-07T13:10:13.999Z</time>
      </trkpt>
      <trkpt lat="43.59954" lon="2.9555">
        <ele>568.3</ele>
        <time>2026-05-07T13:10:14.999Z</time>
      </trkpt>
      <trkpt lat="43.59954" lon="2.95551">
        <ele>568.4</ele>
        <time>2026-05-07T13:10:15.999Z</time>
      </trkpt>
      <trkpt lat="43.59953" lon="2.9555">
        <ele>568.3</ele>
        <time>2026-05-07T13:10:16.999Z</time>
      </trkpt>
      <trkpt lat="43.59953" lon="2.9555">
        <ele>568.3</ele>
        <time>2026-05-07T13:10:17.999Z</time>
      </trkpt>
      <trkpt lat="43.59954" lon="2.9555">
        <ele>568.1</ele>
        <time>2026-05-07T13:10:18.999Z</time>
      </trkpt>
      <trkpt lat="43.59954" lon="2.9555">
        <ele>567.9</ele>
        <time>2026-05-07T13:10:19.999Z</time>
      </trkpt>
      <trkpt lat="43.59953" lon="2.9555">
        <ele>567.9</ele>
        <time>2026-05-07T13:10:20.999Z</time>
      </trkpt>
      <trkpt lat="43.59953" lon="2.9555">
        <ele>567.6</ele>
        <time>2026-05-07T13:10:21.999Z</time>
      </trkpt>
      <trkpt lat="43.59953" lon="2.9555">
        <ele>567.5</ele>
        <time>2026-05-07T13:10:22.999Z</time>
      </trkpt>
      <trkpt lat="43.59954" lon="2.9555">
        <ele>567.6</ele>
        <time>2026-05-07T13:10:23.999Z</time>
      </trkpt>
      <trkpt lat="43.59954" lon="2.9555">
        <ele>567.5</ele>
        <time>2026-05-07T13:10:24.999Z</time>
      </trkpt>
      <trkpt lat="43.59954" lon="2.95551">
        <ele>567.2</ele>
        <time>2026-05-07T13:10:25.999Z</time>
      </trkpt>
      <trkpt lat="43.59954" lon="2.95551">
        <ele>567</ele>
        <time>2026-05-07T13:10:26.999Z</time>
      </trkpt>
      <trkpt lat="43.59955" lon="2.95552">
        <ele>566.7</ele>
        <time>2026-05-07T13:10:27.999Z</time>
      </trkpt>
      <trkpt lat="43.59955" lon="2.95552">
        <ele>566.6</ele>
        <time>2026-05-07T13:10:28.999Z</time>
      </trkpt>
      <trkpt lat="43.59955" lon="2.95554">
        <ele>566.4</ele>
        <time>2026-05-07T13:10:29.999Z</time>
      </trkpt>
      <trkpt lat="43.59955" lon="2.95555">
        <ele>566.3</ele>
        <time>2026-05-07T13:10:30.999Z</time>
      </trkpt>
      <trkpt lat="43.59955" lon="2.95557">
        <ele>566</ele>
        <time>2026-05-07T13:10:31.999Z</time>
      </trkpt>
      <trkpt lat="43.59955" lon="2.95558">
        <ele>565.8</ele>
        <time>2026-05-07T13:10:32.999Z</time>
      </trkpt>
      <trkpt lat="43.59954" lon="2.95559">
        <ele>565.7</ele>
        <time>2026-05-07T13:10:33.999Z</time>
      </trkpt>
      <trkpt lat="43.59954" lon="2.9556">
        <ele>565.8</ele>
        <time>2026-05-07T13:10:34.999Z</time>
      </trkpt>
      <trkpt lat="43.59954" lon="2.95561">
        <ele>565.9</ele>
        <time>2026-05-07T13:10:35.999Z</time>
      </trkpt>
      <trkpt lat="43.59954" lon="2.95561">
        <ele>566</ele>
        <time>2026-05-07T13:10:36.999Z</time>
      </trkpt>
      <trkpt lat="43.59954" lon="2.95563">
        <ele>566.1</ele>
        <time>2026-05-07T13:10:38.999Z</time>
      </trkpt>
      <trkpt lat="43.59953" lon="2.95563">
        <ele>566.2</ele>
        <time>2026-05-07T13:10:39.999Z</time>
      </trkpt>
      <trkpt lat="43.59953" lon="2.95563">
        <ele>566.2</ele>
        <time>2026-05-07T13:10:40.999Z</time>
      </trkpt>
      <trkpt lat="43.59953" lon="2.95563">
        <ele>566.4</ele>
        <time>2026-05-07T13:10:41.999Z</time>
      </trkpt>
      <trkpt lat="43.59953" lon="2.95564">
        <ele>566.7</ele>
        <time>2026-05-07T13:10:42.999Z</time>
      </trkpt>
      <trkpt lat="43.59954" lon="2.95565">
        <ele>566.9</ele>
        <time>2026-05-07T13:10:43.999Z</time>
      </trkpt>
      <trkpt lat="43.59953" lon="2.95565">
        <ele>567.2</ele>
        <time>2026-05-07T13:10:44.999Z</time>
      </trkpt>
      <trkpt lat="43.59952" lon="2.95564">
        <ele>567.2</ele>
        <time>2026-05-07T13:10:45.999Z</time>
      </trkpt>
      <trkpt lat="43.59952" lon="2.95564">
        <ele>567.3</ele>
        <time>2026-05-07T13:10:46.999Z</time>
      </trkpt>
      <trkpt lat="43.59952" lon="2.95566">
        <ele>567.4</ele>
        <time>2026-05-07T13:10:48.999Z</time>
      </trkpt>
      <trkpt lat="43.59951" lon="2.95567">
        <ele>567.6</ele>
        <time>2026-05-07T13:10:49.999Z</time>
      </trkpt>
      <trkpt lat="43.5995" lon="2.95567">
        <ele>567.8</ele>
        <time>2026-05-07T13:10:50.999Z</time>
      </trkpt>
      <trkpt lat="43.59948" lon="2.95568">
        <ele>567.8</ele>
        <time>2026-05-07T13:10:51.999Z</time>
      </trkpt>
      <trkpt lat="43.59947" lon="2.95569">
        <ele>567.5</ele>
        <time>2026-05-07T13:10:52.999Z</time>
      </trkpt>
      <trkpt lat="43.59947" lon="2.95569">
        <ele>567.3</ele>
        <time>2026-05-07T13:10:53.999Z</time>
      </trkpt>
      <trkpt lat="43.59946" lon="2.9557">
        <ele>566.7</ele>
        <time>2026-05-07T13:10:54.999Z</time>
      </trkpt>
      <trkpt lat="43.59946" lon="2.9557">
        <ele>566.6</ele>
        <time>2026-05-07T13:10:55.999Z</time>
      </trkpt>
      <trkpt lat="43.59946" lon="2.9557">
        <ele>566.2</ele>
        <time>2026-05-07T13:10:56.999Z</time>
      </trkpt>
      <trkpt lat="43.59946" lon="2.9557">
        <ele>565.9</ele>
        <time>2026-05-07T13:10:57.999Z</time>
      </trkpt>
      <trkpt lat="43.59945" lon="2.9557">
        <ele>565.4</ele>
        <time>2026-05-07T13:10:58.999Z</time>
      </trkpt>
      <trkpt lat="43.59944" lon="2.9557">
        <ele>565.2</ele>
        <time>2026-05-07T13:10:59.999Z</time>
      </trkpt>
      <trkpt lat="43.59944" lon="2.9557">
        <ele>565.3</ele>
        <time>2026-05-07T13:11:00.999Z</time>
      </trkpt>
      <trkpt lat="43.59943" lon="2.9557">
        <ele>565.4</ele>
        <time>2026-05-07T13:11:01.999Z</time>
      </trkpt>
      <trkpt lat="43.59943" lon="2.9557">
        <ele>565.3</ele>
        <time>2026-05-07T13:11:02.999Z</time>
      </trkpt>
      <trkpt lat="43.59943" lon="2.9557">
        <ele>565.2</ele>
        <time>2026-05-07T13:11:03.999Z</time>
      </trkpt>
      <trkpt lat="43.59944" lon="2.95571">
        <ele>565.1</ele>
        <time>2026-05-07T13:11:04.999Z</time>
      </trkpt>
      <trkpt lat="43.59945" lon="2.95573">
        <ele>564.8</ele>
        <time>2026-05-07T13:11:05.999Z</time>
      </trkpt>
      <trkpt lat="43.59945" lon="2.95574">
        <ele>564.3</ele>
        <time>2026-05-07T13:11:06.999Z</time>
      </trkpt>
      <trkpt lat="43.59945" lon="2.95574">
        <ele>564.2</ele>
        <time>2026-05-07T13:11:07.999Z</time>
      </trkpt>
      <trkpt lat="43.59945" lon="2.95574">
        <ele>564.2</ele>
        <time>2026-05-07T13:11:08.999Z</time>
      </trkpt>
      <trkpt lat="43.59945" lon="2.95575">
        <ele>564.1</ele>
        <time>2026-05-07T13:11:09.999Z</time>
      </trkpt>
      <trkpt lat="43.59945" lon="2.95575">
        <ele>564.2</ele>
        <time>2026-05-07T13:11:10.999Z</time>
      </trkpt>
      <trkpt lat="43.59945" lon="2.95575">
        <ele>564.3</ele>
        <time>2026-05-07T13:11:11.999Z</time>
      </trkpt>
      <trkpt lat="43.59946" lon="2.95576">
        <ele>564.4</ele>
        <time>2026-05-07T13:11:12.999Z</time>
      </trkpt>
      <trkpt lat="43.59947" lon="2.95576">
        <ele>564.3</ele>
        <time>2026-05-07T13:11:13.999Z</time>
      </trkpt>
      <trkpt lat="43.59947" lon="2.95576">
        <ele>564</ele>
        <time>2026-05-07T13:11:14.999Z</time>
      </trkpt>
      <trkpt lat="43.59948" lon="2.95577">
        <ele>564</ele>
        <time>2026-05-07T13:11:15.999Z</time>
      </trkpt>
      <trkpt lat="43.59949" lon="2.95577">
        <ele>563.9</ele>
        <time>2026-05-07T13:11:16.999Z</time>
      </trkpt>
      <trkpt lat="43.59949" lon="2.95578">
        <ele>564</ele>
        <time>2026-05-07T13:11:17.999Z</time>
      </trkpt>
      <trkpt lat="43.59948" lon="2.95579">
        <ele>564.1</ele>
        <time>2026-05-07T13:11:18.999Z</time>
      </trkpt>
      <trkpt lat="43.59949" lon="2.9558">
        <ele>563.7</ele>
        <time>2026-05-07T13:11:19.999Z</time>
      </trkpt>
      <trkpt lat="43.5995" lon="2.95581">
        <ele>563.4</ele>
        <time>2026-05-07T13:11:20.999Z</time>
      </trkpt>
      <trkpt lat="43.59951" lon="2.95583">
        <ele>563.2</ele>
        <time>2026-05-07T13:11:21.999Z</time>
      </trkpt>
      <trkpt lat="43.59951" lon="2.95584">
        <ele>562.6</ele>
        <time>2026-05-07T13:11:22.999Z</time>
      </trkpt>
      <trkpt lat="43.59952" lon="2.95586">
        <ele>562.1</ele>
        <time>2026-05-07T13:11:23.999Z</time>
      </trkpt>
      <trkpt lat="43.59952" lon="2.95586">
        <ele>561.4</ele>
        <time>2026-05-07T13:11:24.999Z</time>
      </trkpt>
      <trkpt lat="43.59952" lon="2.95588">
        <ele>561.1</ele>
        <time>2026-05-07T13:11:25.999Z</time>
      </trkpt>
      <trkpt lat="43.59951" lon="2.9559">
        <ele>560.7</ele>
        <time>2026-05-07T13:11:26.999Z</time>
      </trkpt>
      <trkpt lat="43.5995" lon="2.95592">
        <ele>560.2</ele>
        <time>2026-05-07T13:11:27.999Z</time>
      </trkpt>
      <trkpt lat="43.59949" lon="2.95593">
        <ele>560.3</ele>
        <time>2026-05-07T13:11:28.999Z</time>
      </trkpt>
      <trkpt lat="43.59948" lon="2.95594">
        <ele>560.1</ele>
        <time>2026-05-07T13:11:29.999Z</time>
      </trkpt>
      <trkpt lat="43.59946" lon="2.95595">
        <ele>560</ele>
        <time>2026-05-07T13:11:30.999Z</time>
      </trkpt>
      <trkpt lat="43.59945" lon="2.95595">
        <ele>559.9</ele>
        <time>2026-05-07T13:11:31.999Z</time>
      </trkpt>
      <trkpt lat="43.59944" lon="2.95596">
        <ele>560.2</ele>
        <time>2026-05-07T13:11:32.999Z</time>
      </trkpt>
      <trkpt lat="43.59944" lon="2.95596">
        <ele>560.4</ele>
        <time>2026-05-07T13:11:33.999Z</time>
      </trkpt>
      <trkpt lat="43.59943" lon="2.95597">
        <ele>560.5</ele>
        <time>2026-05-07T13:11:34.999Z</time>
      </trkpt>
      <trkpt lat="43.59942" lon="2.95597">
        <ele>560.6</ele>
        <time>2026-05-07T13:11:35.999Z</time>
      </trkpt>
      <trkpt lat="43.59941" lon="2.95599">
        <ele>561</ele>
        <time>2026-05-07T13:11:36.999Z</time>
      </trkpt>
      <trkpt lat="43.5994" lon="2.95599">
        <ele>561</ele>
        <time>2026-05-07T13:11:37.999Z</time>
      </trkpt>
      <trkpt lat="43.59939" lon="2.95599">
        <ele>561.2</ele>
        <time>2026-05-07T13:11:38.999Z</time>
      </trkpt>
      <trkpt lat="43.59938" lon="2.956">
        <ele>561.2</ele>
        <time>2026-05-07T13:11:39.999Z</time>
      </trkpt>
      <trkpt lat="43.59938" lon="2.956">
        <ele>561.1</ele>
        <time>2026-05-07T13:11:40.999Z</time>
      </trkpt>
      <trkpt lat="43.59937" lon="2.95599">
        <ele>560.8</ele>
        <time>2026-05-07T13:11:41.999Z</time>
      </trkpt>
      <trkpt lat="43.59936" lon="2.95599">
        <ele>560.4</ele>
        <time>2026-05-07T13:11:42.999Z</time>
      </trkpt>
      <trkpt lat="43.59935" lon="2.95598">
        <ele>560.2</ele>
        <time>2026-05-07T13:11:43.999Z</time>
      </trkpt>
      <trkpt lat="43.59934" lon="2.95598">
        <ele>560.1</ele>
        <time>2026-05-07T13:11:44.999Z</time>
      </trkpt>
      <trkpt lat="43.59934" lon="2.95597">
        <ele>560</ele>
        <time>2026-05-07T13:11:45.999Z</time>
      </trkpt>
      <trkpt lat="43.59933" lon="2.95597">
        <ele>560</ele>
        <time>2026-05-07T13:11:46.999Z</time>
      </trkpt>
      <trkpt lat="43.59933" lon="2.95597">
        <ele>559.8</ele>
        <time>2026-05-07T13:11:47.999Z</time>
      </trkpt>
      <trkpt lat="43.59932" lon="2.95597">
        <ele>559.5</ele>
        <time>2026-05-07T13:11:48.999Z</time>
      </trkpt>
      <trkpt lat="43.59931" lon="2.95596">
        <ele>559.2</ele>
        <time>2026-05-07T13:11:49.999Z</time>
      </trkpt>
      <trkpt lat="43.59931" lon="2.95596">
        <ele>559</ele>
        <time>2026-05-07T13:11:50.999Z</time>
      </trkpt>
      <trkpt lat="43.5993" lon="2.95595">
        <ele>559</ele>
        <time>2026-05-07T13:11:51.999Z</time>
      </trkpt>
      <trkpt lat="43.59929" lon="2.95595">
        <ele>558.8</ele>
        <time>2026-05-07T13:11:52.999Z</time>
      </trkpt>
      <trkpt lat="43.59928" lon="2.95594">
        <ele>558.7</ele>
        <time>2026-05-07T13:11:53.999Z</time>
      </trkpt>
      <trkpt lat="43.59928" lon="2.95593">
        <ele>558.4</ele>
        <time>2026-05-07T13:11:54.999Z</time>
      </trkpt>
      <trkpt lat="43.59927" lon="2.95592">
        <ele>558.4</ele>
        <time>2026-05-07T13:11:55.999Z</time>
      </trkpt>
      <trkpt lat="43.59926" lon="2.95591">
        <ele>558.4</ele>
        <time>2026-05-07T13:11:56.999Z</time>
      </trkpt>
      <trkpt lat="43.59925" lon="2.9559">
        <ele>558.6</ele>
        <time>2026-05-07T13:11:57.999Z</time>
      </trkpt>
      <trkpt lat="43.59924" lon="2.9559">
        <ele>558.5</ele>
        <time>2026-05-07T13:11:58.999Z</time>
      </trkpt>
      <trkpt lat="43.59923" lon="2.95589">
        <ele>558.4</ele>
        <time>2026-05-07T13:11:59.999Z</time>
      </trkpt>
      <trkpt lat="43.59922" lon="2.95588">
        <ele>558.2</ele>
        <time>2026-05-07T13:12:00.999Z</time>
      </trkpt>
      <trkpt lat="43.59922" lon="2.95588">
        <ele>558.1</ele>
        <time>2026-05-07T13:12:01.999Z</time>
      </trkpt>
      <trkpt lat="43.59922" lon="2.95587">
        <ele>558.1</ele>
        <time>2026-05-07T13:12:02.999Z</time>
      </trkpt>
      <trkpt lat="43.59922" lon="2.95587">
        <ele>558.3</ele>
        <time>2026-05-07T13:12:03.999Z</time>
      </trkpt>
      <trkpt lat="43.59922" lon="2.95586">
        <ele>558.4</ele>
        <time>2026-05-07T13:12:04.999Z</time>
      </trkpt>
      <trkpt lat="43.59922" lon="2.95586">
        <ele>558.3</ele>
        <time>2026-05-07T13:12:05.999Z</time>
      </trkpt>
      <trkpt lat="43.59923" lon="2.95586">
        <ele>558.1</ele>
        <time>2026-05-07T13:12:06.999Z</time>
      </trkpt>
      <trkpt lat="43.59922" lon="2.95585">
        <ele>557.9</ele>
        <time>2026-05-07T13:12:07.999Z</time>
      </trkpt>
      <trkpt lat="43.59921" lon="2.95583">
        <ele>557.8</ele>
        <time>2026-05-07T13:12:08.999Z</time>
      </trkpt>
      <trkpt lat="43.59921" lon="2.95581">
        <ele>556.5</ele>
        <time>2026-05-07T13:12:09.999Z</time>
      </trkpt>
      <trkpt lat="43.59921" lon="2.9558">
        <ele>555.5</ele>
        <time>2026-05-07T13:12:10.999Z</time>
      </trkpt>
      <trkpt lat="43.5992" lon="2.95577">
        <ele>555.2</ele>
        <time>2026-05-07T13:12:11.999Z</time>
      </trkpt>
      <trkpt lat="43.5992" lon="2.95576">
        <ele>555.3</ele>
        <time>2026-05-07T13:12:12.999Z</time>
      </trkpt>
      <trkpt lat="43.59919" lon="2.95574">
        <ele>555.5</ele>
        <time>2026-05-07T13:12:13.999Z</time>
      </trkpt>
      <trkpt lat="43.59918" lon="2.95572">
        <ele>556.1</ele>
        <time>2026-05-07T13:12:14.999Z</time>
      </trkpt>
      <trkpt lat="43.59917" lon="2.95571">
        <ele>556.4</ele>
        <time>2026-05-07T13:12:15.999Z</time>
      </trkpt>
      <trkpt lat="43.59916" lon="2.9557">
        <ele>556.6</ele>
        <time>2026-05-07T13:12:16.999Z</time>
      </trkpt>
      <trkpt lat="43.59915" lon="2.95569">
        <ele>557.3</ele>
        <time>2026-05-07T13:12:17.999Z</time>
      </trkpt>
      <trkpt lat="43.59913" lon="2.95568">
        <ele>557.7</ele>
        <time>2026-05-07T13:12:18.999Z</time>
      </trkpt>
      <trkpt lat="43.59911" lon="2.95566">
        <ele>557.9</ele>
        <time>2026-05-07T13:12:19.999Z</time>
      </trkpt>
      <trkpt lat="43.5991" lon="2.95564">
        <ele>557.9</ele>
        <time>2026-05-07T13:12:20.999Z</time>
      </trkpt>
      <trkpt lat="43.59909" lon="2.95564">
        <ele>557.6</ele>
        <time>2026-05-07T13:12:21.999Z</time>
      </trkpt>
      <trkpt lat="43.59907" lon="2.95563">
        <ele>558</ele>
        <time>2026-05-07T13:12:22.999Z</time>
      </trkpt>
      <trkpt lat="43.59906" lon="2.95563">
        <ele>557.9</ele>
        <time>2026-05-07T13:12:23.999Z</time>
      </trkpt>
      <trkpt lat="43.59907" lon="2.95562">
        <ele>557.9</ele>
        <time>2026-05-07T13:12:24.999Z</time>
      </trkpt>
      <trkpt lat="43.59907" lon="2.95561">
        <ele>557.9</ele>
        <time>2026-05-07T13:12:25.999Z</time>
      </trkpt>
      <trkpt lat="43.59906" lon="2.95561">
        <ele>557.4</ele>
        <time>2026-05-07T13:12:26.999Z</time>
      </trkpt>
      <trkpt lat="43.59906" lon="2.9556">
        <ele>557.1</ele>
        <time>2026-05-07T13:12:27.999Z</time>
      </trkpt>
      <trkpt lat="43.59905" lon="2.95561">
        <ele>556.6</ele>
        <time>2026-05-07T13:12:28.999Z</time>
      </trkpt>
      <trkpt lat="43.59904" lon="2.95561">
        <ele>555.7</ele>
        <time>2026-05-07T13:12:29.999Z</time>
      </trkpt>
      <trkpt lat="43.59903" lon="2.9556">
        <ele>555.5</ele>
        <time>2026-05-07T13:12:30.999Z</time>
      </trkpt>
      <trkpt lat="43.59903" lon="2.9556">
        <ele>555.1</ele>
        <time>2026-05-07T13:12:31.999Z</time>
      </trkpt>
      <trkpt lat="43.59903" lon="2.95559">
        <ele>554.5</ele>
        <time>2026-05-07T13:12:32.999Z</time>
      </trkpt>
      <trkpt lat="43.59902" lon="2.95557">
        <ele>554.5</ele>
        <time>2026-05-07T13:12:33.999Z</time>
      </trkpt>
      <trkpt lat="43.59901" lon="2.95555">
        <ele>554.2</ele>
        <time>2026-05-07T13:12:34.999Z</time>
      </trkpt>
      <trkpt lat="43.59901" lon="2.95553">
        <ele>554</ele>
        <time>2026-05-07T13:12:35.999Z</time>
      </trkpt>
      <trkpt lat="43.599" lon="2.95551">
        <ele>553.9</ele>
        <time>2026-05-07T13:12:36.999Z</time>
      </trkpt>
      <trkpt lat="43.599" lon="2.95549">
        <ele>553.5</ele>
        <time>2026-05-07T13:12:37.999Z</time>
      </trkpt>
      <trkpt lat="43.59899" lon="2.95548">
        <ele>553</ele>
        <time>2026-05-07T13:12:38.999Z</time>
      </trkpt>
      <trkpt lat="43.59898" lon="2.95546">
        <ele>552.7</ele>
        <time>2026-05-07T13:12:39.999Z</time>
      </trkpt>
      <trkpt lat="43.59898" lon="2.95545">
        <ele>552.2</ele>
        <time>2026-05-07T13:12:40.999Z</time>
      </trkpt>
      <trkpt lat="43.59897" lon="2.95546">
        <ele>551.8</ele>
        <time>2026-05-07T13:12:41.999Z</time>
      </trkpt>
      <trkpt lat="43.59897" lon="2.95545">
        <ele>551.3</ele>
        <time>2026-05-07T13:12:42.999Z</time>
      </trkpt>
      <trkpt lat="43.59896" lon="2.95542">
        <ele>551.3</ele>
        <time>2026-05-07T13:12:43.999Z</time>
      </trkpt>
      <trkpt lat="43.59895" lon="2.95541">
        <ele>551</ele>
        <time>2026-05-07T13:12:44.999Z</time>
      </trkpt>
      <trkpt lat="43.59895" lon="2.9554">
        <ele>550.8</ele>
        <time>2026-05-07T13:12:45.999Z</time>
      </trkpt>
      <trkpt lat="43.59894" lon="2.95538">
        <ele>551.2</ele>
        <time>2026-05-07T13:12:46.999Z</time>
      </trkpt>
      <trkpt lat="43.59894" lon="2.95536">
        <ele>551.1</ele>
        <time>2026-05-07T13:12:47.999Z</time>
      </trkpt>
      <trkpt lat="43.59893" lon="2.95535">
        <ele>551.2</ele>
        <time>2026-05-07T13:12:48.999Z</time>
      </trkpt>
      <trkpt lat="43.59892" lon="2.95533">
        <ele>550.9</ele>
        <time>2026-05-07T13:12:49.999Z</time>
      </trkpt>
      <trkpt lat="43.59892" lon="2.95532">
        <ele>550.8</ele>
        <time>2026-05-07T13:12:50.999Z</time>
      </trkpt>
      <trkpt lat="43.59891" lon="2.95531">
        <ele>550.5</ele>
        <time>2026-05-07T13:12:51.999Z</time>
      </trkpt>
      <trkpt lat="43.59891" lon="2.9553">
        <ele>550.3</ele>
        <time>2026-05-07T13:12:52.999Z</time>
      </trkpt>
      <trkpt lat="43.59891" lon="2.95529">
        <ele>550.1</ele>
        <time>2026-05-07T13:12:53.999Z</time>
      </trkpt>
      <trkpt lat="43.5989" lon="2.95529">
        <ele>549.8</ele>
        <time>2026-05-07T13:12:54.999Z</time>
      </trkpt>
      <trkpt lat="43.5989" lon="2.95529">
        <ele>549.5</ele>
        <time>2026-05-07T13:12:55.999Z</time>
      </trkpt>
      <trkpt lat="43.59889" lon="2.95528">
        <ele>549.6</ele>
        <time>2026-05-07T13:12:56.999Z</time>
      </trkpt>
      <trkpt lat="43.59888" lon="2.95527">
        <ele>549.9</ele>
        <time>2026-05-07T13:12:57.999Z</time>
      </trkpt>
      <trkpt lat="43.59888" lon="2.95527">
        <ele>550.3</ele>
        <time>2026-05-07T13:12:58.999Z</time>
      </trkpt>
      <trkpt lat="43.59887" lon="2.95527">
        <ele>551.3</ele>
        <time>2026-05-07T13:12:59.999Z</time>
      </trkpt>
      <trkpt lat="43.59888" lon="2.95526">
        <ele>551.3</ele>
        <time>2026-05-07T13:13:00.999Z</time>
      </trkpt>
      <trkpt lat="43.59889" lon="2.95525">
        <ele>551</ele>
        <time>2026-05-07T13:13:01.999Z</time>
      </trkpt>
      <trkpt lat="43.59888" lon="2.95524">
        <ele>550.9</ele>
        <time>2026-05-07T13:13:02.999Z</time>
      </trkpt>
      <trkpt lat="43.59887" lon="2.95522">
        <ele>550.9</ele>
        <time>2026-05-07T13:13:03.999Z</time>
      </trkpt>
      <trkpt lat="43.59887" lon="2.95521">
        <ele>550.7</ele>
        <time>2026-05-07T13:13:04.999Z</time>
      </trkpt>
      <trkpt lat="43.59887" lon="2.95519">
        <ele>550.9</ele>
        <time>2026-05-07T13:13:05.999Z</time>
      </trkpt>
      <trkpt lat="43.59886" lon="2.95518">
        <ele>551.2</ele>
        <time>2026-05-07T13:13:06.999Z</time>
      </trkpt>
      <trkpt lat="43.59885" lon="2.95517">
        <ele>551.4</ele>
        <time>2026-05-07T13:13:07.999Z</time>
      </trkpt>
      <trkpt lat="43.59885" lon="2.95516">
        <ele>551.1</ele>
        <time>2026-05-07T13:13:08.999Z</time>
      </trkpt>
      <trkpt lat="43.59885" lon="2.95515">
        <ele>551.1</ele>
        <time>2026-05-07T13:13:09.999Z</time>
      </trkpt>
      <trkpt lat="43.59884" lon="2.95514">
        <ele>550.8</ele>
        <time>2026-05-07T13:13:10.999Z</time>
      </trkpt>
      <trkpt lat="43.59884" lon="2.95512">
        <ele>550.3</ele>
        <time>2026-05-07T13:13:11.999Z</time>
      </trkpt>
      <trkpt lat="43.59884" lon="2.95511">
        <ele>549.7</ele>
        <time>2026-05-07T13:13:12.999Z</time>
      </trkpt>
      <trkpt lat="43.59884" lon="2.95509">
        <ele>549.6</ele>
        <time>2026-05-07T13:13:13.999Z</time>
      </trkpt>
      <trkpt lat="43.59884" lon="2.95507">
        <ele>549.2</ele>
        <time>2026-05-07T13:13:14.999Z</time>
      </trkpt>
      <trkpt lat="43.59884" lon="2.95504">
        <ele>548.7</ele>
        <time>2026-05-07T13:13:15.999Z</time>
      </trkpt>
      <trkpt lat="43.59884" lon="2.95503">
        <ele>548.2</ele>
        <time>2026-05-07T13:13:16.999Z</time>
      </trkpt>
      <trkpt lat="43.59883" lon="2.95501">
        <ele>547.6</ele>
        <time>2026-05-07T13:13:17.999Z</time>
      </trkpt>
      <trkpt lat="43.59883" lon="2.95501">
        <ele>547.8</ele>
        <time>2026-05-07T13:13:18.999Z</time>
      </trkpt>
      <trkpt lat="43.59883" lon="2.955">
        <ele>548.2</ele>
        <time>2026-05-07T13:13:19.999Z</time>
      </trkpt>
      <trkpt lat="43.59883" lon="2.95498">
        <ele>548.3</ele>
        <time>2026-05-07T13:13:20.999Z</time>
      </trkpt>
      <trkpt lat="43.59883" lon="2.95497">
        <ele>548.3</ele>
        <time>2026-05-07T13:13:21.999Z</time>
      </trkpt>
      <trkpt lat="43.59883" lon="2.95497">
        <ele>548.5</ele>
        <time>2026-05-07T13:13:22.999Z</time>
      </trkpt>
      <trkpt lat="43.59883" lon="2.95496">
        <ele>548.1</ele>
        <time>2026-05-07T13:13:23.999Z</time>
      </trkpt>
      <trkpt lat="43.59884" lon="2.95494">
        <ele>548</ele>
        <time>2026-05-07T13:13:24.999Z</time>
      </trkpt>
      <trkpt lat="43.59885" lon="2.95494">
        <ele>547.7</ele>
        <time>2026-05-07T13:13:25.999Z</time>
      </trkpt>
      <trkpt lat="43.59884" lon="2.95493">
        <ele>547.2</ele>
        <time>2026-05-07T13:13:26.999Z</time>
      </trkpt>
      <trkpt lat="43.59884" lon="2.95492">
        <ele>547.1</ele>
        <time>2026-05-07T13:13:27.999Z</time>
      </trkpt>
      <trkpt lat="43.59884" lon="2.9549">
        <ele>546.6</ele>
        <time>2026-05-07T13:13:28.999Z</time>
      </trkpt>
      <trkpt lat="43.59884" lon="2.95487">
        <ele>546.6</ele>
        <time>2026-05-07T13:13:29.999Z</time>
      </trkpt>
      <trkpt lat="43.59885" lon="2.95485">
        <ele>546.1</ele>
        <time>2026-05-07T13:13:30.999Z</time>
      </trkpt>
      <trkpt lat="43.59884" lon="2.95484">
        <ele>545.7</ele>
        <time>2026-05-07T13:13:31.999Z</time>
      </trkpt>
      <trkpt lat="43.59884" lon="2.95483">
        <ele>545.3</ele>
        <time>2026-05-07T13:13:32.999Z</time>
      </trkpt>
      <trkpt lat="43.59884" lon="2.95482">
        <ele>545.3</ele>
        <time>2026-05-07T13:13:33.999Z</time>
      </trkpt>
      <trkpt lat="43.59885" lon="2.9548">
        <ele>545.6</ele>
        <time>2026-05-07T13:13:34.999Z</time>
      </trkpt>
      <trkpt lat="43.59886" lon="2.95478">
        <ele>545.5</ele>
        <time>2026-05-07T13:13:35.999Z</time>
      </trkpt>
      <trkpt lat="43.59887" lon="2.95477">
        <ele>545.2</ele>
        <time>2026-05-07T13:13:36.999Z</time>
      </trkpt>
      <trkpt lat="43.59887" lon="2.95475">
        <ele>544.8</ele>
        <time>2026-05-07T13:13:37.999Z</time>
      </trkpt>
      <trkpt lat="43.59887" lon="2.95474">
        <ele>544.4</ele>
        <time>2026-05-07T13:13:38.999Z</time>
      </trkpt>
      <trkpt lat="43.59887" lon="2.95472">
        <ele>544.1</ele>
        <time>2026-05-07T13:13:39.999Z</time>
      </trkpt>
      <trkpt lat="43.59888" lon="2.95471">
        <ele>544.2</ele>
        <time>2026-05-07T13:13:40.999Z</time>
      </trkpt>
      <trkpt lat="43.59888" lon="2.9547">
        <ele>544.3</ele>
        <time>2026-05-07T13:13:41.999Z</time>
      </trkpt>
      <trkpt lat="43.59888" lon="2.95469">
        <ele>544</ele>
        <time>2026-05-07T13:13:42.999Z</time>
      </trkpt>
      <trkpt lat="43.59889" lon="2.95467">
        <ele>544</ele>
        <time>2026-05-07T13:13:43.999Z</time>
      </trkpt>
      <trkpt lat="43.59889" lon="2.95466">
        <ele>544.1</ele>
        <time>2026-05-07T13:13:44.999Z</time>
      </trkpt>
      <trkpt lat="43.59889" lon="2.95466">
        <ele>544</ele>
        <time>2026-05-07T13:13:45.999Z</time>
      </trkpt>
      <trkpt lat="43.59889" lon="2.95465">
        <ele>543.9</ele>
        <time>2026-05-07T13:13:46.999Z</time>
      </trkpt>
      <trkpt lat="43.59888" lon="2.95464">
        <ele>544.1</ele>
        <time>2026-05-07T13:13:47.999Z</time>
      </trkpt>
      <trkpt lat="43.59888" lon="2.95463">
        <ele>544.2</ele>
        <time>2026-05-07T13:13:48.999Z</time>
      </trkpt>
      <trkpt lat="43.59888" lon="2.95462">
        <ele>544.2</ele>
        <time>2026-05-07T13:13:49.999Z</time>
      </trkpt>
      <trkpt lat="43.59886" lon="2.95461">
        <ele>544.6</ele>
        <time>2026-05-07T13:13:50.999Z</time>
      </trkpt>
      <trkpt lat="43.59886" lon="2.9546">
        <ele>544.9</ele>
        <time>2026-05-07T13:13:51.999Z</time>
      </trkpt>
      <trkpt lat="43.59885" lon="2.95457">
        <ele>545.1</ele>
        <time>2026-05-07T13:13:52.999Z</time>
      </trkpt>
      <trkpt lat="43.59885" lon="2.95456">
        <ele>544.8</ele>
        <time>2026-05-07T13:13:53.999Z</time>
      </trkpt>
      <trkpt lat="43.59884" lon="2.95454">
        <ele>544.9</ele>
        <time>2026-05-07T13:13:54.999Z</time>
      </trkpt>
      <trkpt lat="43.59884" lon="2.95453">
        <ele>544.5</ele>
        <time>2026-05-07T13:13:55.999Z</time>
      </trkpt>
      <trkpt lat="43.59883" lon="2.95452">
        <ele>544.2</ele>
        <time>2026-05-07T13:13:56.999Z</time>
      </trkpt>
      <trkpt lat="43.59883" lon="2.95451">
        <ele>544.3</ele>
        <time>2026-05-07T13:13:57.999Z</time>
      </trkpt>
      <trkpt lat="43.59883" lon="2.95449">
        <ele>544.1</ele>
        <time>2026-05-07T13:13:58.999Z</time>
      </trkpt>
      <trkpt lat="43.59883" lon="2.95448">
        <ele>543.8</ele>
        <time>2026-05-07T13:13:59.999Z</time>
      </trkpt>
      <trkpt lat="43.59883" lon="2.95446">
        <ele>543.9</ele>
        <time>2026-05-07T13:14:00.999Z</time>
      </trkpt>
      <trkpt lat="43.59883" lon="2.95444">
        <ele>544.1</ele>
        <time>2026-05-07T13:14:01.999Z</time>
      </trkpt>
      <trkpt lat="43.59884" lon="2.95444">
        <ele>543.9</ele>
        <time>2026-05-07T13:14:02.999Z</time>
      </trkpt>
      <trkpt lat="43.59884" lon="2.95443">
        <ele>544</ele>
        <time>2026-05-07T13:14:03.999Z</time>
      </trkpt>
      <trkpt lat="43.59884" lon="2.95442">
        <ele>544.2</ele>
        <time>2026-05-07T13:14:04.999Z</time>
      </trkpt>
      <trkpt lat="43.59884" lon="2.95441">
        <ele>544.6</ele>
        <time>2026-05-07T13:14:05.999Z</time>
      </trkpt>
      <trkpt lat="43.59884" lon="2.95439">
        <ele>544.7</ele>
        <time>2026-05-07T13:14:06.999Z</time>
      </trkpt>
      <trkpt lat="43.59884" lon="2.95437">
        <ele>544.6</ele>
        <time>2026-05-07T13:14:07.999Z</time>
      </trkpt>
      <trkpt lat="43.59884" lon="2.95436">
        <ele>544.6</ele>
        <time>2026-05-07T13:14:08.999Z</time>
      </trkpt>
      <trkpt lat="43.59883" lon="2.95434">
        <ele>544.5</ele>
        <time>2026-05-07T13:14:09.999Z</time>
      </trkpt>
      <trkpt lat="43.59882" lon="2.95434">
        <ele>544.1</ele>
        <time>2026-05-07T13:14:10.999Z</time>
      </trkpt>
      <trkpt lat="43.59882" lon="2.95432">
        <ele>543.8</ele>
        <time>2026-05-07T13:14:11.999Z</time>
      </trkpt>
      <trkpt lat="43.59882" lon="2.95431">
        <ele>543.5</ele>
        <time>2026-05-07T13:14:12.999Z</time>
      </trkpt>
      <trkpt lat="43.59881" lon="2.95429">
        <ele>543.9</ele>
        <time>2026-05-07T13:14:13.999Z</time>
      </trkpt>
      <trkpt lat="43.5988" lon="2.95426">
        <ele>544.1</ele>
        <time>2026-05-07T13:14:14.999Z</time>
      </trkpt>
      <trkpt lat="43.59879" lon="2.95425">
        <ele>544.2</ele>
        <time>2026-05-07T13:14:15.999Z</time>
      </trkpt>
      <trkpt lat="43.59878" lon="2.95423">
        <ele>544.9</ele>
        <time>2026-05-07T13:14:16.999Z</time>
      </trkpt>
      <trkpt lat="43.59877" lon="2.95422">
        <ele>545</ele>
        <time>2026-05-07T13:14:17.999Z</time>
      </trkpt>
      <trkpt lat="43.59877" lon="2.95421">
        <ele>544.8</ele>
        <time>2026-05-07T13:14:18.999Z</time>
      </trkpt>
      <trkpt lat="43.59877" lon="2.95419">
        <ele>544.6</ele>
        <time>2026-05-07T13:14:19.999Z</time>
      </trkpt>
      <trkpt lat="43.59877" lon="2.95417">
        <ele>544.3</ele>
        <time>2026-05-07T13:14:20.999Z</time>
      </trkpt>
      <trkpt lat="43.59877" lon="2.95416">
        <ele>544</ele>
        <time>2026-05-07T13:14:21.999Z</time>
      </trkpt>
      <trkpt lat="43.59876" lon="2.95415">
        <ele>544</ele>
        <time>2026-05-07T13:14:22.999Z</time>
      </trkpt>
      <trkpt lat="43.59876" lon="2.95414">
        <ele>544.6</ele>
        <time>2026-05-07T13:14:23.999Z</time>
      </trkpt>
      <trkpt lat="43.59875" lon="2.95412">
        <ele>544.9</ele>
        <time>2026-05-07T13:14:24.999Z</time>
      </trkpt>
      <trkpt lat="43.59874" lon="2.95411">
        <ele>544.8</ele>
        <time>2026-05-07T13:14:25.999Z</time>
      </trkpt>
      <trkpt lat="43.59874" lon="2.95409">
        <ele>544.6</ele>
        <time>2026-05-07T13:14:26.999Z</time>
      </trkpt>
      <trkpt lat="43.59873" lon="2.95408">
        <ele>544.3</ele>
        <time>2026-05-07T13:14:27.999Z</time>
      </trkpt>
      <trkpt lat="43.59872" lon="2.95406">
        <ele>544.1</ele>
        <time>2026-05-07T13:14:28.999Z</time>
      </trkpt>
      <trkpt lat="43.59871" lon="2.95404">
        <ele>544.1</ele>
        <time>2026-05-07T13:14:29.999Z</time>
      </trkpt>
      <trkpt lat="43.5987" lon="2.95402">
        <ele>544</ele>
        <time>2026-05-07T13:14:30.999Z</time>
      </trkpt>
      <trkpt lat="43.59869" lon="2.95399">
        <ele>544.1</ele>
        <time>2026-05-07T13:14:31.999Z</time>
      </trkpt>
      <trkpt lat="43.59869" lon="2.95397">
        <ele>543.8</ele>
        <time>2026-05-07T13:14:32.999Z</time>
      </trkpt>
      <trkpt lat="43.59869" lon="2.95394">
        <ele>543.8</ele>
        <time>2026-05-07T13:14:33.999Z</time>
      </trkpt>
      <trkpt lat="43.59868" lon="2.95392">
        <ele>543.6</ele>
        <time>2026-05-07T13:14:34.999Z</time>
      </trkpt>
      <trkpt lat="43.59868" lon="2.95391">
        <ele>543.5</ele>
        <time>2026-05-07T13:14:35.999Z</time>
      </trkpt>
      <trkpt lat="43.59867" lon="2.9539">
        <ele>543.3</ele>
        <time>2026-05-07T13:14:36.999Z</time>
      </trkpt>
      <trkpt lat="43.59867" lon="2.95389">
        <ele>543</ele>
        <time>2026-05-07T13:14:37.999Z</time>
      </trkpt>
      <trkpt lat="43.59866" lon="2.95386">
        <ele>543.1</ele>
        <time>2026-05-07T13:14:38.999Z</time>
      </trkpt>
      <trkpt lat="43.59866" lon="2.95384">
        <ele>543.1</ele>
        <time>2026-05-07T13:14:39.999Z</time>
      </trkpt>
      <trkpt lat="43.59866" lon="2.95382">
        <ele>543</ele>
        <time>2026-05-07T13:14:40.999Z</time>
      </trkpt>
      <trkpt lat="43.59866" lon="2.95381">
        <ele>542.9</ele>
        <time>2026-05-07T13:14:41.999Z</time>
      </trkpt>
      <trkpt lat="43.59866" lon="2.9538">
        <ele>542.9</ele>
        <time>2026-05-07T13:14:42.999Z</time>
      </trkpt>
      <trkpt lat="43.59867" lon="2.9538">
        <ele>542.6</ele>
        <time>2026-05-07T13:14:43.999Z</time>
      </trkpt>
      <trkpt lat="43.59868" lon="2.95382">
        <ele>542.7</ele>
        <time>2026-05-07T13:14:44.999Z</time>
      </trkpt>
      <trkpt lat="43.59869" lon="2.95384">
        <ele>542.6</ele>
        <time>2026-05-07T13:14:45.999Z</time>
      </trkpt>
      <trkpt lat="43.5987" lon="2.95385">
        <ele>542.9</ele>
        <time>2026-05-07T13:14:46.999Z</time>
      </trkpt>
      <trkpt lat="43.5987" lon="2.95385">
        <ele>543.1</ele>
        <time>2026-05-07T13:14:47.999Z</time>
      </trkpt>
      <trkpt lat="43.59869" lon="2.95385">
        <ele>543.3</ele>
        <time>2026-05-07T13:14:48.999Z</time>
      </trkpt>
      <trkpt lat="43.5987" lon="2.95384">
        <ele>543.3</ele>
        <time>2026-05-07T13:14:49.999Z</time>
      </trkpt>
      <trkpt lat="43.59871" lon="2.95383">
        <ele>543</ele>
        <time>2026-05-07T13:14:50.999Z</time>
      </trkpt>
      <trkpt lat="43.59872" lon="2.95381">
        <ele>542.8</ele>
        <time>2026-05-07T13:14:51.999Z</time>
      </trkpt>
      <trkpt lat="43.59871" lon="2.95379">
        <ele>542.6</ele>
        <time>2026-05-07T13:14:52.999Z</time>
      </trkpt>
      <trkpt lat="43.59871" lon="2.95378">
        <ele>542.4</ele>
        <time>2026-05-07T13:14:53.999Z</time>
      </trkpt>
      <trkpt lat="43.5987" lon="2.95375">
        <ele>542.5</ele>
        <time>2026-05-07T13:14:54.999Z</time>
      </trkpt>
      <trkpt lat="43.5987" lon="2.95373">
        <ele>542.8</ele>
        <time>2026-05-07T13:14:55.999Z</time>
      </trkpt>
      <trkpt lat="43.5987" lon="2.95371">
        <ele>542.7</ele>
        <time>2026-05-07T13:14:56.999Z</time>
      </trkpt>
      <trkpt lat="43.5987" lon="2.95369">
        <ele>542.8</ele>
        <time>2026-05-07T13:14:57.999Z</time>
      </trkpt>
      <trkpt lat="43.5987" lon="2.95366">
        <ele>542.7</ele>
        <time>2026-05-07T13:14:58.999Z</time>
      </trkpt>
      <trkpt lat="43.59869" lon="2.95364">
        <ele>543</ele>
        <time>2026-05-07T13:14:59.999Z</time>
      </trkpt>
      <trkpt lat="43.59867" lon="2.95361">
        <ele>543</ele>
        <time>2026-05-07T13:15:00.999Z</time>
      </trkpt>
      <trkpt lat="43.59868" lon="2.9536">
        <ele>543.2</ele>
        <time>2026-05-07T13:15:01.999Z</time>
      </trkpt>
      <trkpt lat="43.59869" lon="2.95359">
        <ele>543.2</ele>
        <time>2026-05-07T13:15:02.999Z</time>
      </trkpt>
      <trkpt lat="43.59869" lon="2.95358">
        <ele>543.6</ele>
        <time>2026-05-07T13:15:03.999Z</time>
      </trkpt>
      <trkpt lat="43.5987" lon="2.95356">
        <ele>543.7</ele>
        <time>2026-05-07T13:15:04.999Z</time>
      </trkpt>
      <trkpt lat="43.5987" lon="2.95355">
        <ele>544.1</ele>
        <time>2026-05-07T13:15:05.999Z</time>
      </trkpt>
      <trkpt lat="43.59869" lon="2.95353">
        <ele>544</ele>
        <time>2026-05-07T13:15:06.999Z</time>
      </trkpt>
      <trkpt lat="43.59869" lon="2.95351">
        <ele>544.2</ele>
        <time>2026-05-07T13:15:07.999Z</time>
      </trkpt>
      <trkpt lat="43.5987" lon="2.95349">
        <ele>544.2</ele>
        <time>2026-05-07T13:15:08.999Z</time>
      </trkpt>
      <trkpt lat="43.59869" lon="2.95347">
        <ele>544.1</ele>
        <time>2026-05-07T13:15:09.999Z</time>
      </trkpt>
      <trkpt lat="43.59869" lon="2.95345">
        <ele>544</ele>
        <time>2026-05-07T13:15:10.999Z</time>
      </trkpt>
      <trkpt lat="43.59869" lon="2.95343">
        <ele>543.8</ele>
        <time>2026-05-07T13:15:11.999Z</time>
      </trkpt>
      <trkpt lat="43.59868" lon="2.9534">
        <ele>543.8</ele>
        <time>2026-05-07T13:15:12.999Z</time>
      </trkpt>
      <trkpt lat="43.59868" lon="2.95338">
        <ele>543.7</ele>
        <time>2026-05-07T13:15:13.999Z</time>
      </trkpt>
      <trkpt lat="43.59867" lon="2.95337">
        <ele>543.3</ele>
        <time>2026-05-07T13:15:14.999Z</time>
      </trkpt>
      <trkpt lat="43.59865" lon="2.95335">
        <ele>542.8</ele>
        <time>2026-05-07T13:15:15.999Z</time>
      </trkpt>
      <trkpt lat="43.59864" lon="2.95334">
        <ele>542.4</ele>
        <time>2026-05-07T13:15:16.999Z</time>
      </trkpt>
      <trkpt lat="43.59864" lon="2.95332">
        <ele>541.9</ele>
        <time>2026-05-07T13:15:17.999Z</time>
      </trkpt>
      <trkpt lat="43.59863" lon="2.95331">
        <ele>541.6</ele>
        <time>2026-05-07T13:15:18.999Z</time>
      </trkpt>
      <trkpt lat="43.59863" lon="2.9533">
        <ele>541.3</ele>
        <time>2026-05-07T13:15:19.999Z</time>
      </trkpt>
      <trkpt lat="43.59863" lon="2.95328">
        <ele>541</ele>
        <time>2026-05-07T13:15:20.999Z</time>
      </trkpt>
      <trkpt lat="43.59864" lon="2.95327">
        <ele>540.8</ele>
        <time>2026-05-07T13:15:21.999Z</time>
      </trkpt>
      <trkpt lat="43.59864" lon="2.95326">
        <ele>540.3</ele>
        <time>2026-05-07T13:15:22.999Z</time>
      </trkpt>
      <trkpt lat="43.59864" lon="2.95325">
        <ele>540.1</ele>
        <time>2026-05-07T13:15:23.999Z</time>
      </trkpt>
      <trkpt lat="43.59864" lon="2.95324">
        <ele>539.8</ele>
        <time>2026-05-07T13:15:24.999Z</time>
      </trkpt>
      <trkpt lat="43.59864" lon="2.95322">
        <ele>539.6</ele>
        <time>2026-05-07T13:15:25.999Z</time>
      </trkpt>
      <trkpt lat="43.59864" lon="2.9532">
        <ele>539.6</ele>
        <time>2026-05-07T13:15:26.999Z</time>
      </trkpt>
      <trkpt lat="43.59863" lon="2.95319">
        <ele>539.7</ele>
        <time>2026-05-07T13:15:27.999Z</time>
      </trkpt>
      <trkpt lat="43.59863" lon="2.95318">
        <ele>539.3</ele>
        <time>2026-05-07T13:15:28.999Z</time>
      </trkpt>
      <trkpt lat="43.59862" lon="2.95317">
        <ele>539.3</ele>
        <time>2026-05-07T13:15:29.999Z</time>
      </trkpt>
      <trkpt lat="43.59862" lon="2.95317">
        <ele>539.6</ele>
        <time>2026-05-07T13:15:30.999Z</time>
      </trkpt>
      <trkpt lat="43.59862" lon="2.95315">
        <ele>539.6</ele>
        <time>2026-05-07T13:15:31.999Z</time>
      </trkpt>
      <trkpt lat="43.59862" lon="2.95314">
        <ele>539.3</ele>
        <time>2026-05-07T13:15:32.999Z</time>
      </trkpt>
      <trkpt lat="43.59862" lon="2.95312">
        <ele>539.2</ele>
        <time>2026-05-07T13:15:33.999Z</time>
      </trkpt>
      <trkpt lat="43.5986" lon="2.9531">
        <ele>538.3</ele>
        <time>2026-05-07T13:15:34.999Z</time>
      </trkpt>
      <trkpt lat="43.59859" lon="2.95308">
        <ele>538.5</ele>
        <time>2026-05-07T13:15:35.999Z</time>
      </trkpt>
      <trkpt lat="43.59859" lon="2.95307">
        <ele>538.8</ele>
        <time>2026-05-07T13:15:36.999Z</time>
      </trkpt>
      <trkpt lat="43.59858" lon="2.95306">
        <ele>539.1</ele>
        <time>2026-05-07T13:15:37.999Z</time>
      </trkpt>
      <trkpt lat="43.59857" lon="2.95305">
        <ele>539</ele>
        <time>2026-05-07T13:15:38.999Z</time>
      </trkpt>
      <trkpt lat="43.59857" lon="2.95303">
        <ele>538.8</ele>
        <time>2026-05-07T13:15:39.999Z</time>
      </trkpt>
      <trkpt lat="43.59856" lon="2.95301">
        <ele>538.4</ele>
        <time>2026-05-07T13:15:40.999Z</time>
      </trkpt>
      <trkpt lat="43.59856" lon="2.953">
        <ele>538.2</ele>
        <time>2026-05-07T13:15:41.999Z</time>
      </trkpt>
      <trkpt lat="43.59856" lon="2.95298">
        <ele>538.5</ele>
        <time>2026-05-07T13:15:42.999Z</time>
      </trkpt>
      <trkpt lat="43.59856" lon="2.95296">
        <ele>538.2</ele>
        <time>2026-05-07T13:15:43.999Z</time>
      </trkpt>
      <trkpt lat="43.59857" lon="2.95294">
        <ele>538.1</ele>
        <time>2026-05-07T13:15:44.999Z</time>
      </trkpt>
      <trkpt lat="43.59856" lon="2.95293">
        <ele>538.1</ele>
        <time>2026-05-07T13:15:45.999Z</time>
      </trkpt>
      <trkpt lat="43.59855" lon="2.95292">
        <ele>537.9</ele>
        <time>2026-05-07T13:15:46.999Z</time>
      </trkpt>
      <trkpt lat="43.59855" lon="2.9529">
        <ele>538.3</ele>
        <time>2026-05-07T13:15:47.999Z</time>
      </trkpt>
      <trkpt lat="43.59854" lon="2.95289">
        <ele>538.5</ele>
        <time>2026-05-07T13:15:48.999Z</time>
      </trkpt>
      <trkpt lat="43.59854" lon="2.95288">
        <ele>538.3</ele>
        <time>2026-05-07T13:15:49.999Z</time>
      </trkpt>
      <trkpt lat="43.59853" lon="2.95288">
        <ele>538.3</ele>
        <time>2026-05-07T13:15:50.999Z</time>
      </trkpt>
      <trkpt lat="43.59851" lon="2.95287">
        <ele>538.3</ele>
        <time>2026-05-07T13:15:51.999Z</time>
      </trkpt>
      <trkpt lat="43.5985" lon="2.95286">
        <ele>537.9</ele>
        <time>2026-05-07T13:15:52.999Z</time>
      </trkpt>
      <trkpt lat="43.59851" lon="2.95285">
        <ele>537.3</ele>
        <time>2026-05-07T13:15:53.999Z</time>
      </trkpt>
      <trkpt lat="43.59851" lon="2.95283">
        <ele>536.7</ele>
        <time>2026-05-07T13:15:54.999Z</time>
      </trkpt>
      <trkpt lat="43.5985" lon="2.95281">
        <ele>536.4</ele>
        <time>2026-05-07T13:15:55.999Z</time>
      </trkpt>
      <trkpt lat="43.59848" lon="2.9528">
        <ele>536.2</ele>
        <time>2026-05-07T13:15:56.999Z</time>
      </trkpt>
      <trkpt lat="43.59846" lon="2.95279">
        <ele>535.9</ele>
        <time>2026-05-07T13:15:57.999Z</time>
      </trkpt>
      <trkpt lat="43.59846" lon="2.95277">
        <ele>535.6</ele>
        <time>2026-05-07T13:15:58.999Z</time>
      </trkpt>
      <trkpt lat="43.59846" lon="2.95276">
        <ele>535.7</ele>
        <time>2026-05-07T13:15:59.999Z</time>
      </trkpt>
      <trkpt lat="43.59845" lon="2.95275">
        <ele>535.6</ele>
        <time>2026-05-07T13:16:00.999Z</time>
      </trkpt>
      <trkpt lat="43.59845" lon="2.95274">
        <ele>535.5</ele>
        <time>2026-05-07T13:16:01.999Z</time>
      </trkpt>
      <trkpt lat="43.59845" lon="2.95272">
        <ele>535.7</ele>
        <time>2026-05-07T13:16:02.999Z</time>
      </trkpt>
      <trkpt lat="43.59844" lon="2.95271">
        <ele>535.8</ele>
        <time>2026-05-07T13:16:03.999Z</time>
      </trkpt>
      <trkpt lat="43.59843" lon="2.9527">
        <ele>535.8</ele>
        <time>2026-05-07T13:16:04.999Z</time>
      </trkpt>
      <trkpt lat="43.59843" lon="2.9527">
        <ele>535.8</ele>
        <time>2026-05-07T13:16:05.999Z</time>
      </trkpt>
      <trkpt lat="43.59842" lon="2.95268">
        <ele>535.5</ele>
        <time>2026-05-07T13:16:06.999Z</time>
      </trkpt>
      <trkpt lat="43.59841" lon="2.95267">
        <ele>535.5</ele>
        <time>2026-05-07T13:16:07.999Z</time>
      </trkpt>
      <trkpt lat="43.5984" lon="2.95266">
        <ele>535.8</ele>
        <time>2026-05-07T13:16:08.999Z</time>
      </trkpt>
      <trkpt lat="43.59839" lon="2.95264">
        <ele>536.2</ele>
        <time>2026-05-07T13:16:09.999Z</time>
      </trkpt>
      <trkpt lat="43.59838" lon="2.95263">
        <ele>536.2</ele>
        <time>2026-05-07T13:16:10.999Z</time>
      </trkpt>
      <trkpt lat="43.59837" lon="2.95262">
        <ele>536.1</ele>
        <time>2026-05-07T13:16:11.999Z</time>
      </trkpt>
      <trkpt lat="43.59836" lon="2.95261">
        <ele>536</ele>
        <time>2026-05-07T13:16:12.999Z</time>
      </trkpt>
      <trkpt lat="43.59834" lon="2.9526">
        <ele>535.9</ele>
        <time>2026-05-07T13:16:13.999Z</time>
      </trkpt>
      <trkpt lat="43.59834" lon="2.95258">
        <ele>535.8</ele>
        <time>2026-05-07T13:16:14.999Z</time>
      </trkpt>
      <trkpt lat="43.59832" lon="2.95257">
        <ele>535.3</ele>
        <time>2026-05-07T13:16:15.999Z</time>
      </trkpt>
      <trkpt lat="43.59831" lon="2.95256">
        <ele>534.9</ele>
        <time>2026-05-07T13:16:16.999Z</time>
      </trkpt>
      <trkpt lat="43.5983" lon="2.95256">
        <ele>534.9</ele>
        <time>2026-05-07T13:16:17.999Z</time>
      </trkpt>
      <trkpt lat="43.59828" lon="2.95255">
        <ele>534.5</ele>
        <time>2026-05-07T13:16:18.999Z</time>
      </trkpt>
      <trkpt lat="43.59826" lon="2.95254">
        <ele>534.4</ele>
        <time>2026-05-07T13:16:19.999Z</time>
      </trkpt>
      <trkpt lat="43.59825" lon="2.95253">
        <ele>534.5</ele>
        <time>2026-05-07T13:16:20.999Z</time>
      </trkpt>
      <trkpt lat="43.59823" lon="2.95251">
        <ele>534.7</ele>
        <time>2026-05-07T13:16:21.999Z</time>
      </trkpt>
      <trkpt lat="43.59822" lon="2.9525">
        <ele>534.7</ele>
        <time>2026-05-07T13:16:22.999Z</time>
      </trkpt>
      <trkpt lat="43.59822" lon="2.95249">
        <ele>534.8</ele>
        <time>2026-05-07T13:16:23.999Z</time>
      </trkpt>
      <trkpt lat="43.59821" lon="2.95248">
        <ele>534.7</ele>
        <time>2026-05-07T13:16:24.999Z</time>
      </trkpt>
      <trkpt lat="43.5982" lon="2.95248">
        <ele>534.6</ele>
        <time>2026-05-07T13:16:25.999Z</time>
      </trkpt>
      <trkpt lat="43.5982" lon="2.95247">
        <ele>534.2</ele>
        <time>2026-05-07T13:16:26.999Z</time>
      </trkpt>
      <trkpt lat="43.59819" lon="2.95247">
        <ele>534.1</ele>
        <time>2026-05-07T13:16:27.999Z</time>
      </trkpt>
      <trkpt lat="43.59817" lon="2.95247">
        <ele>533.7</ele>
        <time>2026-05-07T13:16:28.999Z</time>
      </trkpt>
      <trkpt lat="43.59816" lon="2.95246">
        <ele>533.2</ele>
        <time>2026-05-07T13:16:29.999Z</time>
      </trkpt>
      <trkpt lat="43.59815" lon="2.95245">
        <ele>533.2</ele>
        <time>2026-05-07T13:16:30.999Z</time>
      </trkpt>
      <trkpt lat="43.59814" lon="2.95244">
        <ele>533.1</ele>
        <time>2026-05-07T13:16:31.999Z</time>
      </trkpt>
      <trkpt lat="43.59813" lon="2.95244">
        <ele>533.3</ele>
        <time>2026-05-07T13:16:32.999Z</time>
      </trkpt>
      <trkpt lat="43.59812" lon="2.95243">
        <ele>533.6</ele>
        <time>2026-05-07T13:16:33.999Z</time>
      </trkpt>
      <trkpt lat="43.59811" lon="2.95243">
        <ele>533.6</ele>
        <time>2026-05-07T13:16:34.999Z</time>
      </trkpt>
      <trkpt lat="43.5981" lon="2.95243">
        <ele>533.4</ele>
        <time>2026-05-07T13:16:35.999Z</time>
      </trkpt>
      <trkpt lat="43.59809" lon="2.95242">
        <ele>533.6</ele>
        <time>2026-05-07T13:16:36.999Z</time>
      </trkpt>
      <trkpt lat="43.59808" lon="2.95241">
        <ele>533.9</ele>
        <time>2026-05-07T13:16:37.999Z</time>
      </trkpt>
      <trkpt lat="43.59807" lon="2.9524">
        <ele>534.2</ele>
        <time>2026-05-07T13:16:38.999Z</time>
      </trkpt>
      <trkpt lat="43.59806" lon="2.95239">
        <ele>534.2</ele>
        <time>2026-05-07T13:16:39.999Z</time>
      </trkpt>
      <trkpt lat="43.59805" lon="2.95237">
        <ele>534.4</ele>
        <time>2026-05-07T13:16:40.999Z</time>
      </trkpt>
      <trkpt lat="43.59805" lon="2.95236">
        <ele>534</ele>
        <time>2026-05-07T13:16:41.999Z</time>
      </trkpt>
      <trkpt lat="43.59804" lon="2.95235">
        <ele>533.7</ele>
        <time>2026-05-07T13:16:42.999Z</time>
      </trkpt>
      <trkpt lat="43.59804" lon="2.95234">
        <ele>534</ele>
        <time>2026-05-07T13:16:43.999Z</time>
      </trkpt>
      <trkpt lat="43.59803" lon="2.95233">
        <ele>534.3</ele>
        <time>2026-05-07T13:16:44.999Z</time>
      </trkpt>
      <trkpt lat="43.59802" lon="2.95231">
        <ele>534.5</ele>
        <time>2026-05-07T13:16:45.999Z</time>
      </trkpt>
      <trkpt lat="43.59802" lon="2.9523">
        <ele>534.1</ele>
        <time>2026-05-07T13:16:46.999Z</time>
      </trkpt>
      <trkpt lat="43.59801" lon="2.95229">
        <ele>533.2</ele>
        <time>2026-05-07T13:16:47.999Z</time>
      </trkpt>
      <trkpt lat="43.598" lon="2.95228">
        <ele>533.2</ele>
        <time>2026-05-07T13:16:48.999Z</time>
      </trkpt>
      <trkpt lat="43.59799" lon="2.95227">
        <ele>533.3</ele>
        <time>2026-05-07T13:16:49.999Z</time>
      </trkpt>
      <trkpt lat="43.59798" lon="2.95226">
        <ele>533.1</ele>
        <time>2026-05-07T13:16:50.999Z</time>
      </trkpt>
      <trkpt lat="43.59796" lon="2.95224">
        <ele>532.6</ele>
        <time>2026-05-07T13:16:51.999Z</time>
      </trkpt>
      <trkpt lat="43.59795" lon="2.95222">
        <ele>532</ele>
        <time>2026-05-07T13:16:52.999Z</time>
      </trkpt>
      <trkpt lat="43.59793" lon="2.95221">
        <ele>531.4</ele>
        <time>2026-05-07T13:16:53.999Z</time>
      </trkpt>
      <trkpt lat="43.59792" lon="2.95219">
        <ele>531</ele>
        <time>2026-05-07T13:16:54.999Z</time>
      </trkpt>
      <trkpt lat="43.59791" lon="2.95217">
        <ele>531</ele>
        <time>2026-05-07T13:16:55.999Z</time>
      </trkpt>
      <trkpt lat="43.59791" lon="2.95216">
        <ele>531.2</ele>
        <time>2026-05-07T13:16:56.999Z</time>
      </trkpt>
      <trkpt lat="43.5979" lon="2.95215">
        <ele>530.6</ele>
        <time>2026-05-07T13:16:57.999Z</time>
      </trkpt>
      <trkpt lat="43.59789" lon="2.95215">
        <ele>530.2</ele>
        <time>2026-05-07T13:16:58.999Z</time>
      </trkpt>
      <trkpt lat="43.59788" lon="2.95214">
        <ele>529.9</ele>
        <time>2026-05-07T13:16:59.999Z</time>
      </trkpt>
      <trkpt lat="43.59787" lon="2.95213">
        <ele>529.6</ele>
        <time>2026-05-07T13:17:00.999Z</time>
      </trkpt>
      <trkpt lat="43.59786" lon="2.95212">
        <ele>529.2</ele>
        <time>2026-05-07T13:17:01.999Z</time>
      </trkpt>
      <trkpt lat="43.59784" lon="2.95211">
        <ele>528.6</ele>
        <time>2026-05-07T13:17:02.999Z</time>
      </trkpt>
      <trkpt lat="43.59783" lon="2.95209">
        <ele>528.4</ele>
        <time>2026-05-07T13:17:03.999Z</time>
      </trkpt>
      <trkpt lat="43.59781" lon="2.95209">
        <ele>528.3</ele>
        <time>2026-05-07T13:17:04.999Z</time>
      </trkpt>
      <trkpt lat="43.59781" lon="2.95207">
        <ele>527.9</ele>
        <time>2026-05-07T13:17:05.999Z</time>
      </trkpt>
      <trkpt lat="43.5978" lon="2.95206">
        <ele>527.7</ele>
        <time>2026-05-07T13:17:06.999Z</time>
      </trkpt>
      <trkpt lat="43.5978" lon="2.95205">
        <ele>527.3</ele>
        <time>2026-05-07T13:17:07.999Z</time>
      </trkpt>
      <trkpt lat="43.59781" lon="2.95205">
        <ele>527.1</ele>
        <time>2026-05-07T13:17:08.999Z</time>
      </trkpt>
      <trkpt lat="43.59782" lon="2.95204">
        <ele>526.7</ele>
        <time>2026-05-07T13:17:09.999Z</time>
      </trkpt>
      <trkpt lat="43.59782" lon="2.95202">
        <ele>526.2</ele>
        <time>2026-05-07T13:17:10.999Z</time>
      </trkpt>
      <trkpt lat="43.59782" lon="2.952">
        <ele>526.4</ele>
        <time>2026-05-07T13:17:11.999Z</time>
      </trkpt>
      <trkpt lat="43.59781" lon="2.95198">
        <ele>525.7</ele>
        <time>2026-05-07T13:17:12.999Z</time>
      </trkpt>
      <trkpt lat="43.59781" lon="2.95196">
        <ele>525.3</ele>
        <time>2026-05-07T13:17:13.999Z</time>
      </trkpt>
      <trkpt lat="43.59779" lon="2.95193">
        <ele>524.8</ele>
        <time>2026-05-07T13:17:14.999Z</time>
      </trkpt>
      <trkpt lat="43.59777" lon="2.95191">
        <ele>524.2</ele>
        <time>2026-05-07T13:17:15.999Z</time>
      </trkpt>
      <trkpt lat="43.59776" lon="2.9519">
        <ele>524.2</ele>
        <time>2026-05-07T13:17:16.999Z</time>
      </trkpt>
      <trkpt lat="43.59774" lon="2.95188">
        <ele>523.9</ele>
        <time>2026-05-07T13:17:17.999Z</time>
      </trkpt>
      <trkpt lat="43.59773" lon="2.95187">
        <ele>523.4</ele>
        <time>2026-05-07T13:17:18.999Z</time>
      </trkpt>
      <trkpt lat="43.59772" lon="2.95187">
        <ele>523</ele>
        <time>2026-05-07T13:17:19.999Z</time>
      </trkpt>
      <trkpt lat="43.59771" lon="2.95186">
        <ele>522.7</ele>
        <time>2026-05-07T13:17:20.999Z</time>
      </trkpt>
      <trkpt lat="43.59769" lon="2.95185">
        <ele>522.3</ele>
        <time>2026-05-07T13:17:21.999Z</time>
      </trkpt>
      <trkpt lat="43.59768" lon="2.95184">
        <ele>522</ele>
        <time>2026-05-07T13:17:22.999Z</time>
      </trkpt>
      <trkpt lat="43.59767" lon="2.95182">
        <ele>522.1</ele>
        <time>2026-05-07T13:17:23.999Z</time>
      </trkpt>
      <trkpt lat="43.59767" lon="2.95181">
        <ele>522.7</ele>
        <time>2026-05-07T13:17:24.999Z</time>
      </trkpt>
      <trkpt lat="43.59766" lon="2.95179">
        <ele>522.9</ele>
        <time>2026-05-07T13:17:25.999Z</time>
      </trkpt>
      <trkpt lat="43.59766" lon="2.95179">
        <ele>522.9</ele>
        <time>2026-05-07T13:17:26.999Z</time>
      </trkpt>
      <trkpt lat="43.59766" lon="2.95177">
        <ele>522.7</ele>
        <time>2026-05-07T13:17:27.999Z</time>
      </trkpt>
      <trkpt lat="43.59766" lon="2.95176">
        <ele>523</ele>
        <time>2026-05-07T13:17:28.999Z</time>
      </trkpt>
      <trkpt lat="43.59765" lon="2.95175">
        <ele>522.8</ele>
        <time>2026-05-07T13:17:29.999Z</time>
      </trkpt>
      <trkpt lat="43.59765" lon="2.95173">
        <ele>523.1</ele>
        <time>2026-05-07T13:17:30.999Z</time>
      </trkpt>
      <trkpt lat="43.59764" lon="2.95172">
        <ele>523.3</ele>
        <time>2026-05-07T13:17:31.999Z</time>
      </trkpt>
      <trkpt lat="43.59764" lon="2.95171">
        <ele>523.5</ele>
        <time>2026-05-07T13:17:32.999Z</time>
      </trkpt>
      <trkpt lat="43.59764" lon="2.9517">
        <ele>523.6</ele>
        <time>2026-05-07T13:17:33.999Z</time>
      </trkpt>
      <trkpt lat="43.59764" lon="2.95168">
        <ele>523.5</ele>
        <time>2026-05-07T13:17:34.999Z</time>
      </trkpt>
      <trkpt lat="43.59763" lon="2.95167">
        <ele>523.5</ele>
        <time>2026-05-07T13:17:35.999Z</time>
      </trkpt>
      <trkpt lat="43.59761" lon="2.95165">
        <ele>523.2</ele>
        <time>2026-05-07T13:17:36.999Z</time>
      </trkpt>
      <trkpt lat="43.5976" lon="2.95163">
        <ele>523.1</ele>
        <time>2026-05-07T13:17:37.999Z</time>
      </trkpt>
      <trkpt lat="43.59759" lon="2.95162">
        <ele>522.9</ele>
        <time>2026-05-07T13:17:38.999Z</time>
      </trkpt>
      <trkpt lat="43.59757" lon="2.9516">
        <ele>522.7</ele>
        <time>2026-05-07T13:17:39.999Z</time>
      </trkpt>
      <trkpt lat="43.59755" lon="2.95159">
        <ele>522.6</ele>
        <time>2026-05-07T13:17:40.999Z</time>
      </trkpt>
      <trkpt lat="43.59754" lon="2.95157">
        <ele>522.4</ele>
        <time>2026-05-07T13:17:41.999Z</time>
      </trkpt>
      <trkpt lat="43.59753" lon="2.95157">
        <ele>522.6</ele>
        <time>2026-05-07T13:17:42.999Z</time>
      </trkpt>
      <trkpt lat="43.59752" lon="2.95156">
        <ele>523</ele>
        <time>2026-05-07T13:17:43.999Z</time>
      </trkpt>
      <trkpt lat="43.59751" lon="2.95156">
        <ele>523.1</ele>
        <time>2026-05-07T13:17:44.999Z</time>
      </trkpt>
      <trkpt lat="43.59751" lon="2.95155">
        <ele>523.1</ele>
        <time>2026-05-07T13:17:45.999Z</time>
      </trkpt>
      <trkpt lat="43.5975" lon="2.95154">
        <ele>523.1</ele>
        <time>2026-05-07T13:17:46.999Z</time>
      </trkpt>
      <trkpt lat="43.59749" lon="2.95153">
        <ele>522.8</ele>
        <time>2026-05-07T13:17:47.999Z</time>
      </trkpt>
      <trkpt lat="43.59748" lon="2.95153">
        <ele>522.8</ele>
        <time>2026-05-07T13:17:48.999Z</time>
      </trkpt>
      <trkpt lat="43.59748" lon="2.95152">
        <ele>522.7</ele>
        <time>2026-05-07T13:17:49.999Z</time>
      </trkpt>
      <trkpt lat="43.59747" lon="2.95151">
        <ele>522.6</ele>
        <time>2026-05-07T13:17:50.999Z</time>
      </trkpt>
      <trkpt lat="43.59746" lon="2.9515">
        <ele>522.5</ele>
        <time>2026-05-07T13:17:51.999Z</time>
      </trkpt>
      <trkpt lat="43.59745" lon="2.95149">
        <ele>522.3</ele>
        <time>2026-05-07T13:17:52.999Z</time>
      </trkpt>
      <trkpt lat="43.59745" lon="2.95148">
        <ele>522.4</ele>
        <time>2026-05-07T13:17:53.999Z</time>
      </trkpt>
      <trkpt lat="43.59744" lon="2.95148">
        <ele>522.5</ele>
        <time>2026-05-07T13:17:54.999Z</time>
      </trkpt>
      <trkpt lat="43.59743" lon="2.95146">
        <ele>522.6</ele>
        <time>2026-05-07T13:17:55.999Z</time>
      </trkpt>
      <trkpt lat="43.59742" lon="2.95144">
        <ele>522.7</ele>
        <time>2026-05-07T13:17:56.999Z</time>
      </trkpt>
      <trkpt lat="43.59741" lon="2.95143">
        <ele>522.5</ele>
        <time>2026-05-07T13:17:57.999Z</time>
      </trkpt>
      <trkpt lat="43.5974" lon="2.95142">
        <ele>522.7</ele>
        <time>2026-05-07T13:17:58.999Z</time>
      </trkpt>
      <trkpt lat="43.59739" lon="2.95141">
        <ele>523.1</ele>
        <time>2026-05-07T13:17:59.999Z</time>
      </trkpt>
      <trkpt lat="43.59738" lon="2.95139">
        <ele>523.5</ele>
        <time>2026-05-07T13:18:00.999Z</time>
      </trkpt>
      <trkpt lat="43.59738" lon="2.95138">
        <ele>523.6</ele>
        <time>2026-05-07T13:18:01.999Z</time>
      </trkpt>
      <trkpt lat="43.59737" lon="2.95137">
        <ele>523.6</ele>
        <time>2026-05-07T13:18:02.999Z</time>
      </trkpt>
      <trkpt lat="43.59737" lon="2.95136">
        <ele>523.3</ele>
        <time>2026-05-07T13:18:03.999Z</time>
      </trkpt>
      <trkpt lat="43.59737" lon="2.95135">
        <ele>522.4</ele>
        <time>2026-05-07T13:18:04.999Z</time>
      </trkpt>
      <trkpt lat="43.59736" lon="2.95133">
        <ele>521.8</ele>
        <time>2026-05-07T13:18:05.999Z</time>
      </trkpt>
      <trkpt lat="43.59735" lon="2.95133">
        <ele>521.1</ele>
        <time>2026-05-07T13:18:06.999Z</time>
      </trkpt>
      <trkpt lat="43.59734" lon="2.95132">
        <ele>520.8</ele>
        <time>2026-05-07T13:18:07.999Z</time>
      </trkpt>
      <trkpt lat="43.59733" lon="2.95131">
        <ele>520.3</ele>
        <time>2026-05-07T13:18:08.999Z</time>
      </trkpt>
      <trkpt lat="43.59732" lon="2.9513">
        <ele>520.1</ele>
        <time>2026-05-07T13:18:09.999Z</time>
      </trkpt>
      <trkpt lat="43.5973" lon="2.95129">
        <ele>519.9</ele>
        <time>2026-05-07T13:18:10.999Z</time>
      </trkpt>
      <trkpt lat="43.59728" lon="2.95128">
        <ele>520</ele>
        <time>2026-05-07T13:18:11.999Z</time>
      </trkpt>
      <trkpt lat="43.59728" lon="2.95127">
        <ele>519.9</ele>
        <time>2026-05-07T13:18:12.999Z</time>
      </trkpt>
      <trkpt lat="43.59728" lon="2.95126">
        <ele>519.7</ele>
        <time>2026-05-07T13:18:13.999Z</time>
      </trkpt>
      <trkpt lat="43.59729" lon="2.95125">
        <ele>519.5</ele>
        <time>2026-05-07T13:18:14.999Z</time>
      </trkpt>
      <trkpt lat="43.59729" lon="2.95125">
        <ele>519.2</ele>
        <time>2026-05-07T13:18:15.999Z</time>
      </trkpt>
      <trkpt lat="43.59729" lon="2.95126">
        <ele>518.6</ele>
        <time>2026-05-07T13:18:16.999Z</time>
      </trkpt>
      <trkpt lat="43.59729" lon="2.95126">
        <ele>518.3</ele>
        <time>2026-05-07T13:18:17.999Z</time>
      </trkpt>
      <trkpt lat="43.59729" lon="2.95126">
        <ele>517.8</ele>
        <time>2026-05-07T13:18:18.999Z</time>
      </trkpt>
      <trkpt lat="43.59727" lon="2.95125">
        <ele>516.9</ele>
        <time>2026-05-07T13:18:19.999Z</time>
      </trkpt>
      <trkpt lat="43.59726" lon="2.95124">
        <ele>516.7</ele>
        <time>2026-05-07T13:18:20.999Z</time>
      </trkpt>
      <trkpt lat="43.59726" lon="2.95124">
        <ele>516.7</ele>
        <time>2026-05-07T13:18:21.999Z</time>
      </trkpt>
      <trkpt lat="43.59725" lon="2.95123">
        <ele>516.8</ele>
        <time>2026-05-07T13:18:22.999Z</time>
      </trkpt>
      <trkpt lat="43.59724" lon="2.95121">
        <ele>516.8</ele>
        <time>2026-05-07T13:18:23.999Z</time>
      </trkpt>
      <trkpt lat="43.59723" lon="2.9512">
        <ele>516.7</ele>
        <time>2026-05-07T13:18:24.999Z</time>
      </trkpt>
      <trkpt lat="43.59723" lon="2.95119">
        <ele>516.8</ele>
        <time>2026-05-07T13:18:25.999Z</time>
      </trkpt>
      <trkpt lat="43.59722" lon="2.95119">
        <ele>516.8</ele>
        <time>2026-05-07T13:18:26.999Z</time>
      </trkpt>
      <trkpt lat="43.59721" lon="2.95118">
        <ele>516.7</ele>
        <time>2026-05-07T13:18:27.999Z</time>
      </trkpt>
      <trkpt lat="43.5972" lon="2.95117">
        <ele>517</ele>
        <time>2026-05-07T13:18:28.999Z</time>
      </trkpt>
      <trkpt lat="43.59719" lon="2.95115">
        <ele>516.9</ele>
        <time>2026-05-07T13:18:29.999Z</time>
      </trkpt>
      <trkpt lat="43.59718" lon="2.95114">
        <ele>516.8</ele>
        <time>2026-05-07T13:18:30.999Z</time>
      </trkpt>
      <trkpt lat="43.59717" lon="2.95113">
        <ele>516.7</ele>
        <time>2026-05-07T13:18:31.999Z</time>
      </trkpt>
      <trkpt lat="43.59716" lon="2.95112">
        <ele>517</ele>
        <time>2026-05-07T13:18:32.999Z</time>
      </trkpt>
      <trkpt lat="43.59715" lon="2.95111">
        <ele>517</ele>
        <time>2026-05-07T13:18:33.999Z</time>
      </trkpt>
      <trkpt lat="43.59715" lon="2.9511">
        <ele>517.3</ele>
        <time>2026-05-07T13:18:34.999Z</time>
      </trkpt>
      <trkpt lat="43.59714" lon="2.95109">
        <ele>517.5</ele>
        <time>2026-05-07T13:18:35.999Z</time>
      </trkpt>
      <trkpt lat="43.59713" lon="2.95109">
        <ele>517.9</ele>
        <time>2026-05-07T13:18:36.999Z</time>
      </trkpt>
      <trkpt lat="43.59711" lon="2.95107">
        <ele>518.5</ele>
        <time>2026-05-07T13:18:37.999Z</time>
      </trkpt>
      <trkpt lat="43.5971" lon="2.95106">
        <ele>518.9</ele>
        <time>2026-05-07T13:18:38.999Z</time>
      </trkpt>
      <trkpt lat="43.59709" lon="2.95105">
        <ele>518.8</ele>
        <time>2026-05-07T13:18:39.999Z</time>
      </trkpt>
      <trkpt lat="43.59708" lon="2.95103">
        <ele>518.7</ele>
        <time>2026-05-07T13:18:40.999Z</time>
      </trkpt>
      <trkpt lat="43.59707" lon="2.95103">
        <ele>518.8</ele>
        <time>2026-05-07T13:18:41.999Z</time>
      </trkpt>
      <trkpt lat="43.59706" lon="2.95102">
        <ele>519</ele>
        <time>2026-05-07T13:18:42.999Z</time>
      </trkpt>
      <trkpt lat="43.59704" lon="2.95101">
        <ele>519.1</ele>
        <time>2026-05-07T13:18:43.999Z</time>
      </trkpt>
      <trkpt lat="43.59704" lon="2.951">
        <ele>518.6</ele>
        <time>2026-05-07T13:18:44.999Z</time>
      </trkpt>
      <trkpt lat="43.59703" lon="2.951">
        <ele>518.2</ele>
        <time>2026-05-07T13:18:45.999Z</time>
      </trkpt>
      <trkpt lat="43.59702" lon="2.951">
        <ele>517.9</ele>
        <time>2026-05-07T13:18:46.999Z</time>
      </trkpt>
      <trkpt lat="43.597" lon="2.95099">
        <ele>517.2</ele>
        <time>2026-05-07T13:18:47.999Z</time>
      </trkpt>
      <trkpt lat="43.59698" lon="2.95099">
        <ele>516.5</ele>
        <time>2026-05-07T13:18:48.999Z</time>
      </trkpt>
      <trkpt lat="43.59697" lon="2.95098">
        <ele>516.4</ele>
        <time>2026-05-07T13:18:49.999Z</time>
      </trkpt>
      <trkpt lat="43.59696" lon="2.95098">
        <ele>516.3</ele>
        <time>2026-05-07T13:18:50.999Z</time>
      </trkpt>
      <trkpt lat="43.59696" lon="2.95098">
        <ele>516.5</ele>
        <time>2026-05-07T13:18:51.999Z</time>
      </trkpt>
      <trkpt lat="43.59695" lon="2.95098">
        <ele>516.4</ele>
        <time>2026-05-07T13:18:52.999Z</time>
      </trkpt>
      <trkpt lat="43.59694" lon="2.95097">
        <ele>516.6</ele>
        <time>2026-05-07T13:18:53.999Z</time>
      </trkpt>
      <trkpt lat="43.59693" lon="2.95096">
        <ele>516.9</ele>
        <time>2026-05-07T13:18:54.999Z</time>
      </trkpt>
      <trkpt lat="43.59693" lon="2.95095">
        <ele>517.1</ele>
        <time>2026-05-07T13:18:55.999Z</time>
      </trkpt>
      <trkpt lat="43.59692" lon="2.95093">
        <ele>516.9</ele>
        <time>2026-05-07T13:18:56.999Z</time>
      </trkpt>
      <trkpt lat="43.59691" lon="2.95092">
        <ele>516.6</ele>
        <time>2026-05-07T13:18:57.999Z</time>
      </trkpt>
      <trkpt lat="43.5969" lon="2.95091">
        <ele>516.8</ele>
        <time>2026-05-07T13:18:58.999Z</time>
      </trkpt>
      <trkpt lat="43.59689" lon="2.9509">
        <ele>517.2</ele>
        <time>2026-05-07T13:18:59.999Z</time>
      </trkpt>
      <trkpt lat="43.59687" lon="2.95089">
        <ele>517.5</ele>
        <time>2026-05-07T13:19:00.999Z</time>
      </trkpt>
      <trkpt lat="43.59686" lon="2.95088">
        <ele>518.1</ele>
        <time>2026-05-07T13:19:01.999Z</time>
      </trkpt>
      <trkpt lat="43.59684" lon="2.95087">
        <ele>518.4</ele>
        <time>2026-05-07T13:19:03.000Z</time>
      </trkpt>
      <trkpt lat="43.59683" lon="2.95087">
        <ele>518.2</ele>
        <time>2026-05-07T13:19:04.000Z</time>
      </trkpt>
      <trkpt lat="43.59682" lon="2.95086">
        <ele>517.5</ele>
        <time>2026-05-07T13:19:05.000Z</time>
      </trkpt>
      <trkpt lat="43.59681" lon="2.95086">
        <ele>516.6</ele>
        <time>2026-05-07T13:19:06.000Z</time>
      </trkpt>
      <trkpt lat="43.59681" lon="2.95086">
        <ele>516.6</ele>
        <time>2026-05-07T13:19:07.000Z</time>
      </trkpt>
      <trkpt lat="43.59679" lon="2.95084">
        <ele>516.6</ele>
        <time>2026-05-07T13:19:08.000Z</time>
      </trkpt>
      <trkpt lat="43.59679" lon="2.95084">
        <ele>516.4</ele>
        <time>2026-05-07T13:19:09.000Z</time>
      </trkpt>
      <trkpt lat="43.59679" lon="2.95084">
        <ele>516.8</ele>
        <time>2026-05-07T13:19:10.000Z</time>
      </trkpt>
      <trkpt lat="43.59679" lon="2.95083">
        <ele>516.8</ele>
        <time>2026-05-07T13:19:11.000Z</time>
      </trkpt>
      <trkpt lat="43.59679" lon="2.95083">
        <ele>516.9</ele>
        <time>2026-05-07T13:19:12.000Z</time>
      </trkpt>
      <trkpt lat="43.59679" lon="2.95082">
        <ele>516.8</ele>
        <time>2026-05-07T13:19:13.000Z</time>
      </trkpt>
      <trkpt lat="43.59678" lon="2.95082">
        <ele>516.6</ele>
        <time>2026-05-07T13:19:14.000Z</time>
      </trkpt>
      <trkpt lat="43.59677" lon="2.95081">
        <ele>516.4</ele>
        <time>2026-05-07T13:19:15.000Z</time>
      </trkpt>
      <trkpt lat="43.59676" lon="2.9508">
        <ele>516.3</ele>
        <time>2026-05-07T13:19:16.000Z</time>
      </trkpt>
      <trkpt lat="43.59675" lon="2.95079">
        <ele>516.6</ele>
        <time>2026-05-07T13:19:17.000Z</time>
      </trkpt>
      <trkpt lat="43.59674" lon="2.95077">
        <ele>516.8</ele>
        <time>2026-05-07T13:19:18.000Z</time>
      </trkpt>
      <trkpt lat="43.59672" lon="2.95075">
        <ele>516.5</ele>
        <time>2026-05-07T13:19:19.000Z</time>
      </trkpt>
      <trkpt lat="43.59672" lon="2.95075">
        <ele>515.9</ele>
        <time>2026-05-07T13:19:20.000Z</time>
      </trkpt>
      <trkpt lat="43.5967" lon="2.95074">
        <ele>515.7</ele>
        <time>2026-05-07T13:19:21.000Z</time>
      </trkpt>
      <trkpt lat="43.59669" lon="2.95073">
        <ele>515.6</ele>
        <time>2026-05-07T13:19:22.000Z</time>
      </trkpt>
      <trkpt lat="43.59667" lon="2.95073">
        <ele>515.5</ele>
        <time>2026-05-07T13:19:23.000Z</time>
      </trkpt>
      <trkpt lat="43.59666" lon="2.95072">
        <ele>515.1</ele>
        <time>2026-05-07T13:19:24.000Z</time>
      </trkpt>
      <trkpt lat="43.59665" lon="2.95072">
        <ele>514.7</ele>
        <time>2026-05-07T13:19:25.000Z</time>
      </trkpt>
      <trkpt lat="43.59665" lon="2.95071">
        <ele>514</ele>
        <time>2026-05-07T13:19:26.000Z</time>
      </trkpt>
      <trkpt lat="43.59665" lon="2.9507">
        <ele>513.8</ele>
        <time>2026-05-07T13:19:27.000Z</time>
      </trkpt>
      <trkpt lat="43.59664" lon="2.9507">
        <ele>513.9</ele>
        <time>2026-05-07T13:19:28.000Z</time>
      </trkpt>
      <trkpt lat="43.59663" lon="2.95069">
        <ele>513.9</ele>
        <time>2026-05-07T13:19:29.000Z</time>
      </trkpt>
      <trkpt lat="43.59662" lon="2.95068">
        <ele>513.7</ele>
        <time>2026-05-07T13:19:30.000Z</time>
      </trkpt>
      <trkpt lat="43.59662" lon="2.95067">
        <ele>513.2</ele>
        <time>2026-05-07T13:19:31.000Z</time>
      </trkpt>
      <trkpt lat="43.59661" lon="2.95066">
        <ele>512.7</ele>
        <time>2026-05-07T13:19:32.000Z</time>
      </trkpt>
      <trkpt lat="43.5966" lon="2.95066">
        <ele>512.7</ele>
        <time>2026-05-07T13:19:33.000Z</time>
      </trkpt>
      <trkpt lat="43.59659" lon="2.95066">
        <ele>512.6</ele>
        <time>2026-05-07T13:19:34.000Z</time>
      </trkpt>
      <trkpt lat="43.59658" lon="2.95066">
        <ele>512.7</ele>
        <time>2026-05-07T13:19:35.000Z</time>
      </trkpt>
      <trkpt lat="43.59657" lon="2.95066">
        <ele>512.3</ele>
        <time>2026-05-07T13:19:36.000Z</time>
      </trkpt>
      <trkpt lat="43.59656" lon="2.95066">
        <ele>512</ele>
        <time>2026-05-07T13:19:37.000Z</time>
      </trkpt>
      <trkpt lat="43.59655" lon="2.95066">
        <ele>511.6</ele>
        <time>2026-05-07T13:19:38.000Z</time>
      </trkpt>
      <trkpt lat="43.59653" lon="2.95064">
        <ele>511.1</ele>
        <time>2026-05-07T13:19:39.000Z</time>
      </trkpt>
      <trkpt lat="43.59652" lon="2.95064">
        <ele>511.2</ele>
        <time>2026-05-07T13:19:40.000Z</time>
      </trkpt>
      <trkpt lat="43.59652" lon="2.95063">
        <ele>511.2</ele>
        <time>2026-05-07T13:19:41.000Z</time>
      </trkpt>
      <trkpt lat="43.5965" lon="2.95062">
        <ele>511.4</ele>
        <time>2026-05-07T13:19:42.000Z</time>
      </trkpt>
      <trkpt lat="43.59649" lon="2.95061">
        <ele>511.5</ele>
        <time>2026-05-07T13:19:43.000Z</time>
      </trkpt>
      <trkpt lat="43.59649" lon="2.95059">
        <ele>511.5</ele>
        <time>2026-05-07T13:19:44.000Z</time>
      </trkpt>
      <trkpt lat="43.59648" lon="2.95057">
        <ele>511.2</ele>
        <time>2026-05-07T13:19:45.000Z</time>
      </trkpt>
      <trkpt lat="43.59647" lon="2.95055">
        <ele>510.6</ele>
        <time>2026-05-07T13:19:46.000Z</time>
      </trkpt>
      <trkpt lat="43.59647" lon="2.95054">
        <ele>509.9</ele>
        <time>2026-05-07T13:19:47.000Z</time>
      </trkpt>
      <trkpt lat="43.59646" lon="2.95052">
        <ele>509.8</ele>
        <time>2026-05-07T13:19:48.000Z</time>
      </trkpt>
      <trkpt lat="43.59646" lon="2.95051">
        <ele>510</ele>
        <time>2026-05-07T13:19:49.000Z</time>
      </trkpt>
      <trkpt lat="43.59646" lon="2.95051">
        <ele>509.9</ele>
        <time>2026-05-07T13:19:50.000Z</time>
      </trkpt>
      <trkpt lat="43.59647" lon="2.95051">
        <ele>509.5</ele>
        <time>2026-05-07T13:19:51.000Z</time>
      </trkpt>
      <trkpt lat="43.59648" lon="2.95051">
        <ele>509.2</ele>
        <time>2026-05-07T13:19:52.000Z</time>
      </trkpt>
      <trkpt lat="43.59649" lon="2.95051">
        <ele>508.9</ele>
        <time>2026-05-07T13:19:53.000Z</time>
      </trkpt>
      <trkpt lat="43.59651" lon="2.95052">
        <ele>508.7</ele>
        <time>2026-05-07T13:19:54.000Z</time>
      </trkpt>
      <trkpt lat="43.59654" lon="2.95052">
        <ele>509</ele>
        <time>2026-05-07T13:19:55.000Z</time>
      </trkpt>
      <trkpt lat="43.59656" lon="2.95052">
        <ele>509.4</ele>
        <time>2026-05-07T13:19:56.000Z</time>
      </trkpt>
      <trkpt lat="43.59657" lon="2.95053">
        <ele>509.5</ele>
        <time>2026-05-07T13:19:57.000Z</time>
      </trkpt>
      <trkpt lat="43.59658" lon="2.95054">
        <ele>509.9</ele>
        <time>2026-05-07T13:19:58.000Z</time>
      </trkpt>
      <trkpt lat="43.59659" lon="2.95055">
        <ele>510.1</ele>
        <time>2026-05-07T13:19:59.000Z</time>
      </trkpt>
      <trkpt lat="43.5966" lon="2.95056">
        <ele>510.3</ele>
        <time>2026-05-07T13:20:00.000Z</time>
      </trkpt>
      <trkpt lat="43.59662" lon="2.95057">
        <ele>510.1</ele>
        <time>2026-05-07T13:20:01.000Z</time>
      </trkpt>
      <trkpt lat="43.59663" lon="2.95057">
        <ele>510.1</ele>
        <time>2026-05-07T13:20:02.000Z</time>
      </trkpt>
      <trkpt lat="43.59664" lon="2.95058">
        <ele>510.3</ele>
        <time>2026-05-07T13:20:03.000Z</time>
      </trkpt>
      <trkpt lat="43.59665" lon="2.95059">
        <ele>509.9</ele>
        <time>2026-05-07T13:20:04.000Z</time>
      </trkpt>
      <trkpt lat="43.59666" lon="2.9506">
        <ele>509.9</ele>
        <time>2026-05-07T13:20:05.000Z</time>
      </trkpt>
      <trkpt lat="43.59667" lon="2.9506">
        <ele>509.8</ele>
        <time>2026-05-07T13:20:06.000Z</time>
      </trkpt>
      <trkpt lat="43.59669" lon="2.95061">
        <ele>509.7</ele>
        <time>2026-05-07T13:20:07.000Z</time>
      </trkpt>
      <trkpt lat="43.5967" lon="2.95062">
        <ele>509.5</ele>
        <time>2026-05-07T13:20:08.000Z</time>
      </trkpt>
      <trkpt lat="43.5967" lon="2.95063">
        <ele>509.5</ele>
        <time>2026-05-07T13:20:09.000Z</time>
      </trkpt>
      <trkpt lat="43.5967" lon="2.95064">
        <ele>509.8</ele>
        <time>2026-05-07T13:20:10.000Z</time>
      </trkpt>
      <trkpt lat="43.59671" lon="2.95066">
        <ele>510.4</ele>
        <time>2026-05-07T13:20:11.000Z</time>
      </trkpt>
      <trkpt lat="43.59671" lon="2.95067">
        <ele>510.4</ele>
        <time>2026-05-07T13:20:12.000Z</time>
      </trkpt>
      <trkpt lat="43.59671" lon="2.95069">
        <ele>510.5</ele>
        <time>2026-05-07T13:20:13.000Z</time>
      </trkpt>
      <trkpt lat="43.59673" lon="2.95069">
        <ele>510.8</ele>
        <time>2026-05-07T13:20:14.000Z</time>
      </trkpt>
      <trkpt lat="43.59673" lon="2.95069">
        <ele>511</ele>
        <time>2026-05-07T13:20:15.000Z</time>
      </trkpt>
      <trkpt lat="43.59674" lon="2.95069">
        <ele>511.2</ele>
        <time>2026-05-07T13:20:16.000Z</time>
      </trkpt>
      <trkpt lat="43.59675" lon="2.95069">
        <ele>511.4</ele>
        <time>2026-05-07T13:20:17.000Z</time>
      </trkpt>
      <trkpt lat="43.59676" lon="2.95069">
        <ele>511.7</ele>
        <time>2026-05-07T13:20:18.000Z</time>
      </trkpt>
      <trkpt lat="43.59677" lon="2.95069">
        <ele>511.5</ele>
        <time>2026-05-07T13:20:19.000Z</time>
      </trkpt>
      <trkpt lat="43.59679" lon="2.95069">
        <ele>511.6</ele>
        <time>2026-05-07T13:20:20.000Z</time>
      </trkpt>
      <trkpt lat="43.5968" lon="2.95069">
        <ele>511.7</ele>
        <time>2026-05-07T13:20:21.000Z</time>
      </trkpt>
      <trkpt lat="43.59681" lon="2.9507">
        <ele>511.7</ele>
        <time>2026-05-07T13:20:22.000Z</time>
      </trkpt>
      <trkpt lat="43.59683" lon="2.95071">
        <ele>510.9</ele>
        <time>2026-05-07T13:20:23.000Z</time>
      </trkpt>
      <trkpt lat="43.59684" lon="2.9507">
        <ele>509.8</ele>
        <time>2026-05-07T13:20:24.000Z</time>
      </trkpt>
      <trkpt lat="43.59685" lon="2.9507">
        <ele>509.1</ele>
        <time>2026-05-07T13:20:25.000Z</time>
      </trkpt>
      <trkpt lat="43.59686" lon="2.95069">
        <ele>508.8</ele>
        <time>2026-05-07T13:20:26.000Z</time>
      </trkpt>
      <trkpt lat="43.59688" lon="2.95069">
        <ele>508.2</ele>
        <time>2026-05-07T13:20:27.000Z</time>
      </trkpt>
      <trkpt lat="43.59688" lon="2.95069">
        <ele>507.8</ele>
        <time>2026-05-07T13:20:28.000Z</time>
      </trkpt>
      <trkpt lat="43.59689" lon="2.95068">
        <ele>507.8</ele>
        <time>2026-05-07T13:20:29.000Z</time>
      </trkpt>
      <trkpt lat="43.5969" lon="2.95068">
        <ele>507.7</ele>
        <time>2026-05-07T13:20:30.000Z</time>
      </trkpt>
      <trkpt lat="43.59691" lon="2.95068">
        <ele>507.9</ele>
        <time>2026-05-07T13:20:31.000Z</time>
      </trkpt>
      <trkpt lat="43.59692" lon="2.95069">
        <ele>507.8</ele>
        <time>2026-05-07T13:20:32.000Z</time>
      </trkpt>
      <trkpt lat="43.59694" lon="2.9507">
        <ele>507.6</ele>
        <time>2026-05-07T13:20:33.000Z</time>
      </trkpt>
      <trkpt lat="43.59695" lon="2.9507">
        <ele>507.6</ele>
        <time>2026-05-07T13:20:34.000Z</time>
      </trkpt>
      <trkpt lat="43.59696" lon="2.9507">
        <ele>507</ele>
        <time>2026-05-07T13:20:35.000Z</time>
      </trkpt>
      <trkpt lat="43.59697" lon="2.95071">
        <ele>507.5</ele>
        <time>2026-05-07T13:20:36.000Z</time>
      </trkpt>
      <trkpt lat="43.59697" lon="2.95073">
        <ele>508.2</ele>
        <time>2026-05-07T13:20:37.000Z</time>
      </trkpt>
      <trkpt lat="43.59698" lon="2.95073">
        <ele>508.5</ele>
        <time>2026-05-07T13:20:38.000Z</time>
      </trkpt>
      <trkpt lat="43.59699" lon="2.95074">
        <ele>508.6</ele>
        <time>2026-05-07T13:20:39.000Z</time>
      </trkpt>
      <trkpt lat="43.597" lon="2.95075">
        <ele>508.6</ele>
        <time>2026-05-07T13:20:40.000Z</time>
      </trkpt>
      <trkpt lat="43.59701" lon="2.95075">
        <ele>508.6</ele>
        <time>2026-05-07T13:20:41.000Z</time>
      </trkpt>
      <trkpt lat="43.59702" lon="2.95077">
        <ele>508.7</ele>
        <time>2026-05-07T13:20:42.000Z</time>
      </trkpt>
      <trkpt lat="43.59704" lon="2.95078">
        <ele>508.7</ele>
        <time>2026-05-07T13:20:43.000Z</time>
      </trkpt>
      <trkpt lat="43.59705" lon="2.95078">
        <ele>508.4</ele>
        <time>2026-05-07T13:20:44.000Z</time>
      </trkpt>
      <trkpt lat="43.59706" lon="2.95077">
        <ele>508.1</ele>
        <time>2026-05-07T13:20:45.000Z</time>
      </trkpt>
      <trkpt lat="43.59707" lon="2.95078">
        <ele>507.7</ele>
        <time>2026-05-07T13:20:46.000Z</time>
      </trkpt>
      <trkpt lat="43.59707" lon="2.95077">
        <ele>507.4</ele>
        <time>2026-05-07T13:20:47.000Z</time>
      </trkpt>
      <trkpt lat="43.59708" lon="2.95077">
        <ele>507.7</ele>
        <time>2026-05-07T13:20:48.000Z</time>
      </trkpt>
      <trkpt lat="43.59709" lon="2.95077">
        <ele>507.7</ele>
        <time>2026-05-07T13:20:49.000Z</time>
      </trkpt>
      <trkpt lat="43.59711" lon="2.95077">
        <ele>507.8</ele>
        <time>2026-05-07T13:20:50.000Z</time>
      </trkpt>
      <trkpt lat="43.59711" lon="2.95078">
        <ele>508.1</ele>
        <time>2026-05-07T13:20:51.000Z</time>
      </trkpt>
      <trkpt lat="43.59713" lon="2.95078">
        <ele>508.9</ele>
        <time>2026-05-07T13:20:52.000Z</time>
      </trkpt>
      <trkpt lat="43.59714" lon="2.95079">
        <ele>508.9</ele>
        <time>2026-05-07T13:20:53.000Z</time>
      </trkpt>
      <trkpt lat="43.59716" lon="2.9508">
        <ele>508.6</ele>
        <time>2026-05-07T13:20:54.000Z</time>
      </trkpt>
      <trkpt lat="43.59718" lon="2.9508">
        <ele>508.6</ele>
        <time>2026-05-07T13:20:55.000Z</time>
      </trkpt>
      <trkpt lat="43.59719" lon="2.95082">
        <ele>508</ele>
        <time>2026-05-07T13:20:56.000Z</time>
      </trkpt>
      <trkpt lat="43.59719" lon="2.95083">
        <ele>507.5</ele>
        <time>2026-05-07T13:20:57.000Z</time>
      </trkpt>
      <trkpt lat="43.5972" lon="2.95083">
        <ele>506.9</ele>
        <time>2026-05-07T13:20:58.000Z</time>
      </trkpt>
      <trkpt lat="43.59721" lon="2.95085">
        <ele>507.2</ele>
        <time>2026-05-07T13:20:59.000Z</time>
      </trkpt>
      <trkpt lat="43.59722" lon="2.95086">
        <ele>507.1</ele>
        <time>2026-05-07T13:21:00.000Z</time>
      </trkpt>
      <trkpt lat="43.59722" lon="2.95086">
        <ele>506.1</ele>
        <time>2026-05-07T13:21:01.000Z</time>
      </trkpt>
      <trkpt lat="43.59724" lon="2.95086">
        <ele>505.7</ele>
        <time>2026-05-07T13:21:02.000Z</time>
      </trkpt>
      <trkpt lat="43.59726" lon="2.95087">
        <ele>505.3</ele>
        <time>2026-05-07T13:21:03.000Z</time>
      </trkpt>
      <trkpt lat="43.59727" lon="2.95086">
        <ele>505</ele>
        <time>2026-05-07T13:21:04.000Z</time>
      </trkpt>
      <trkpt lat="43.59728" lon="2.95087">
        <ele>505</ele>
        <time>2026-05-07T13:21:05.000Z</time>
      </trkpt>
      <trkpt lat="43.59729" lon="2.95086">
        <ele>504.6</ele>
        <time>2026-05-07T13:21:06.000Z</time>
      </trkpt>
      <trkpt lat="43.59729" lon="2.95084">
        <ele>503.9</ele>
        <time>2026-05-07T13:21:07.000Z</time>
      </trkpt>
      <trkpt lat="43.5973" lon="2.95084">
        <ele>503.5</ele>
        <time>2026-05-07T13:21:08.000Z</time>
      </trkpt>
      <trkpt lat="43.59732" lon="2.95083">
        <ele>503.3</ele>
        <time>2026-05-07T13:21:09.000Z</time>
      </trkpt>
      <trkpt lat="43.59732" lon="2.9508">
        <ele>502.9</ele>
        <time>2026-05-07T13:21:10.000Z</time>
      </trkpt>
      <trkpt lat="43.59732" lon="2.95078">
        <ele>502.4</ele>
        <time>2026-05-07T13:21:11.000Z</time>
      </trkpt>
      <trkpt lat="43.59732" lon="2.95076">
        <ele>502</ele>
        <time>2026-05-07T13:21:12.000Z</time>
      </trkpt>
      <trkpt lat="43.59732" lon="2.95075">
        <ele>501.5</ele>
        <time>2026-05-07T13:21:13.000Z</time>
      </trkpt>
      <trkpt lat="43.59732" lon="2.95074">
        <ele>501.1</ele>
        <time>2026-05-07T13:21:14.000Z</time>
      </trkpt>
      <trkpt lat="43.59732" lon="2.95073">
        <ele>500.5</ele>
        <time>2026-05-07T13:21:15.000Z</time>
      </trkpt>
      <trkpt lat="43.59732" lon="2.95072">
        <ele>500.3</ele>
        <time>2026-05-07T13:21:16.000Z</time>
      </trkpt>
      <trkpt lat="43.59732" lon="2.95072">
        <ele>500.7</ele>
        <time>2026-05-07T13:21:17.000Z</time>
      </trkpt>
      <trkpt lat="43.59732" lon="2.95071">
        <ele>500.5</ele>
        <time>2026-05-07T13:21:18.000Z</time>
      </trkpt>
      <trkpt lat="43.59732" lon="2.95071">
        <ele>500.5</ele>
        <time>2026-05-07T13:21:19.000Z</time>
      </trkpt>
      <trkpt lat="43.59732" lon="2.95072">
        <ele>500.4</ele>
        <time>2026-05-07T13:21:20.000Z</time>
      </trkpt>
      <trkpt lat="43.59732" lon="2.95072">
        <ele>500.1</ele>
        <time>2026-05-07T13:21:21.000Z</time>
      </trkpt>
      <trkpt lat="43.59731" lon="2.95072">
        <ele>500.5</ele>
        <time>2026-05-07T13:21:22.000Z</time>
      </trkpt>
      <trkpt lat="43.59732" lon="2.95072">
        <ele>500.5</ele>
        <time>2026-05-07T13:21:23.000Z</time>
      </trkpt>
      <trkpt lat="43.59732" lon="2.95072">
        <ele>500.2</ele>
        <time>2026-05-07T13:21:24.000Z</time>
      </trkpt>
      <trkpt lat="43.59732" lon="2.95072">
        <ele>500</ele>
        <time>2026-05-07T13:21:25.000Z</time>
      </trkpt>
      <trkpt lat="43.59732" lon="2.95071">
        <ele>499.8</ele>
        <time>2026-05-07T13:21:26.000Z</time>
      </trkpt>
      <trkpt lat="43.59732" lon="2.95071">
        <ele>499.7</ele>
        <time>2026-05-07T13:21:27.000Z</time>
      </trkpt>
      <trkpt lat="43.59731" lon="2.95071">
        <ele>499.6</ele>
        <time>2026-05-07T13:21:28.000Z</time>
      </trkpt>
      <trkpt lat="43.5973" lon="2.95071">
        <ele>499.3</ele>
        <time>2026-05-07T13:21:29.000Z</time>
      </trkpt>
      <trkpt lat="43.59728" lon="2.95069">
        <ele>499</ele>
        <time>2026-05-07T13:21:30.000Z</time>
      </trkpt>
      <trkpt lat="43.59726" lon="2.95069">
        <ele>499</ele>
        <time>2026-05-07T13:21:31.000Z</time>
      </trkpt>
      <trkpt lat="43.59726" lon="2.95069">
        <ele>498.9</ele>
        <time>2026-05-07T13:21:32.000Z</time>
      </trkpt>
      <trkpt lat="43.59725" lon="2.95068">
        <ele>498.9</ele>
        <time>2026-05-07T13:21:33.000Z</time>
      </trkpt>
      <trkpt lat="43.59724" lon="2.95066">
        <ele>498.7</ele>
        <time>2026-05-07T13:21:34.000Z</time>
      </trkpt>
      <trkpt lat="43.59724" lon="2.95066">
        <ele>498.4</ele>
        <time>2026-05-07T13:21:35.000Z</time>
      </trkpt>
      <trkpt lat="43.59723" lon="2.95064">
        <ele>498.1</ele>
        <time>2026-05-07T13:21:36.000Z</time>
      </trkpt>
      <trkpt lat="43.59723" lon="2.95064">
        <ele>498.3</ele>
        <time>2026-05-07T13:21:37.000Z</time>
      </trkpt>
      <trkpt lat="43.59722" lon="2.95062">
        <ele>498.2</ele>
        <time>2026-05-07T13:21:38.000Z</time>
      </trkpt>
      <trkpt lat="43.59722" lon="2.95062">
        <ele>498.3</ele>
        <time>2026-05-07T13:21:39.000Z</time>
      </trkpt>
      <trkpt lat="43.59721" lon="2.9506">
        <ele>498.2</ele>
        <time>2026-05-07T13:21:40.000Z</time>
      </trkpt>
      <trkpt lat="43.59719" lon="2.95058">
        <ele>498.4</ele>
        <time>2026-05-07T13:21:41.000Z</time>
      </trkpt>
      <trkpt lat="43.59719" lon="2.95056">
        <ele>498.4</ele>
        <time>2026-05-07T13:21:42.000Z</time>
      </trkpt>
      <trkpt lat="43.59718" lon="2.95055">
        <ele>498.3</ele>
        <time>2026-05-07T13:21:43.000Z</time>
      </trkpt>
      <trkpt lat="43.59718" lon="2.95055">
        <ele>498.3</ele>
        <time>2026-05-07T13:21:44.000Z</time>
      </trkpt>
      <trkpt lat="43.59716" lon="2.95053">
        <ele>498.4</ele>
        <time>2026-05-07T13:21:45.000Z</time>
      </trkpt>
      <trkpt lat="43.59715" lon="2.95051">
        <ele>498.5</ele>
        <time>2026-05-07T13:21:46.000Z</time>
      </trkpt>
      <trkpt lat="43.59714" lon="2.95048">
        <ele>498.5</ele>
        <time>2026-05-07T13:21:47.000Z</time>
      </trkpt>
      <trkpt lat="43.59713" lon="2.95047">
        <ele>498.9</ele>
        <time>2026-05-07T13:21:48.000Z</time>
      </trkpt>
      <trkpt lat="43.59713" lon="2.95046">
        <ele>498.6</ele>
        <time>2026-05-07T13:21:49.000Z</time>
      </trkpt>
      <trkpt lat="43.59712" lon="2.95045">
        <ele>498.7</ele>
        <time>2026-05-07T13:21:50.000Z</time>
      </trkpt>
      <trkpt lat="43.59711" lon="2.95044">
        <ele>498.6</ele>
        <time>2026-05-07T13:21:51.000Z</time>
      </trkpt>
      <trkpt lat="43.59711" lon="2.95043">
        <ele>497.7</ele>
        <time>2026-05-07T13:21:52.000Z</time>
      </trkpt>
      <trkpt lat="43.59711" lon="2.95042">
        <ele>497.4</ele>
        <time>2026-05-07T13:21:53.000Z</time>
      </trkpt>
      <trkpt lat="43.5971" lon="2.9504">
        <ele>496.6</ele>
        <time>2026-05-07T13:21:54.000Z</time>
      </trkpt>
      <trkpt lat="43.5971" lon="2.95038">
        <ele>496.6</ele>
        <time>2026-05-07T13:21:55.000Z</time>
      </trkpt>
      <trkpt lat="43.59708" lon="2.95037">
        <ele>496.3</ele>
        <time>2026-05-07T13:21:56.000Z</time>
      </trkpt>
      <trkpt lat="43.59708" lon="2.95035">
        <ele>495.8</ele>
        <time>2026-05-07T13:21:57.000Z</time>
      </trkpt>
      <trkpt lat="43.59707" lon="2.95034">
        <ele>495.8</ele>
        <time>2026-05-07T13:21:58.000Z</time>
      </trkpt>
      <trkpt lat="43.59706" lon="2.95032">
        <ele>495.6</ele>
        <time>2026-05-07T13:21:59.000Z</time>
      </trkpt>
      <trkpt lat="43.59706" lon="2.95032">
        <ele>495.1</ele>
        <time>2026-05-07T13:22:00.000Z</time>
      </trkpt>
      <trkpt lat="43.59705" lon="2.95032">
        <ele>495.3</ele>
        <time>2026-05-07T13:22:01.000Z</time>
      </trkpt>
      <trkpt lat="43.59704" lon="2.95032">
        <ele>495.3</ele>
        <time>2026-05-07T13:22:02.000Z</time>
      </trkpt>
      <trkpt lat="43.59704" lon="2.95031">
        <ele>495.1</ele>
        <time>2026-05-07T13:22:03.000Z</time>
      </trkpt>
      <trkpt lat="43.59704" lon="2.95029">
        <ele>494.7</ele>
        <time>2026-05-07T13:22:04.000Z</time>
      </trkpt>
      <trkpt lat="43.59704" lon="2.95028">
        <ele>493.9</ele>
        <time>2026-05-07T13:22:05.000Z</time>
      </trkpt>
      <trkpt lat="43.59703" lon="2.95027">
        <ele>493.5</ele>
        <time>2026-05-07T13:22:06.000Z</time>
      </trkpt>
      <trkpt lat="43.59702" lon="2.95026">
        <ele>493.5</ele>
        <time>2026-05-07T13:22:07.000Z</time>
      </trkpt>
      <trkpt lat="43.59701" lon="2.95026">
        <ele>493.4</ele>
        <time>2026-05-07T13:22:08.000Z</time>
      </trkpt>
      <trkpt lat="43.597" lon="2.95024">
        <ele>493.1</ele>
        <time>2026-05-07T13:22:09.000Z</time>
      </trkpt>
      <trkpt lat="43.59699" lon="2.95023">
        <ele>493</ele>
        <time>2026-05-07T13:22:10.000Z</time>
      </trkpt>
      <trkpt lat="43.59699" lon="2.95022">
        <ele>492.4</ele>
        <time>2026-05-07T13:22:11.000Z</time>
      </trkpt>
      <trkpt lat="43.59698" lon="2.95021">
        <ele>492.2</ele>
        <time>2026-05-07T13:22:12.000Z</time>
      </trkpt>
      <trkpt lat="43.59696" lon="2.9502">
        <ele>491.7</ele>
        <time>2026-05-07T13:22:13.000Z</time>
      </trkpt>
      <trkpt lat="43.59695" lon="2.9502">
        <ele>491.7</ele>
        <time>2026-05-07T13:22:14.000Z</time>
      </trkpt>
      <trkpt lat="43.59694" lon="2.9502">
        <ele>491.7</ele>
        <time>2026-05-07T13:22:15.000Z</time>
      </trkpt>
      <trkpt lat="43.59693" lon="2.9502">
        <ele>492.1</ele>
        <time>2026-05-07T13:22:16.000Z</time>
      </trkpt>
      <trkpt lat="43.59692" lon="2.95019">
        <ele>491.9</ele>
        <time>2026-05-07T13:22:17.000Z</time>
      </trkpt>
      <trkpt lat="43.59691" lon="2.95018">
        <ele>491.8</ele>
        <time>2026-05-07T13:22:18.000Z</time>
      </trkpt>
      <trkpt lat="43.59691" lon="2.95017">
        <ele>491.4</ele>
        <time>2026-05-07T13:22:19.000Z</time>
      </trkpt>
      <trkpt lat="43.5969" lon="2.95016">
        <ele>491.3</ele>
        <time>2026-05-07T13:22:20.000Z</time>
      </trkpt>
      <trkpt lat="43.59689" lon="2.95015">
        <ele>491</ele>
        <time>2026-05-07T13:22:21.000Z</time>
      </trkpt>
      <trkpt lat="43.59688" lon="2.95015">
        <ele>490.7</ele>
        <time>2026-05-07T13:22:22.000Z</time>
      </trkpt>
      <trkpt lat="43.59686" lon="2.95014">
        <ele>490.7</ele>
        <time>2026-05-07T13:22:23.000Z</time>
      </trkpt>
      <trkpt lat="43.59685" lon="2.95013">
        <ele>490.2</ele>
        <time>2026-05-07T13:22:24.000Z</time>
      </trkpt>
      <trkpt lat="43.59683" lon="2.95012">
        <ele>490.2</ele>
        <time>2026-05-07T13:22:25.000Z</time>
      </trkpt>
      <trkpt lat="43.59682" lon="2.95011">
        <ele>490.7</ele>
        <time>2026-05-07T13:22:26.000Z</time>
      </trkpt>
      <trkpt lat="43.5968" lon="2.9501">
        <ele>491.3</ele>
        <time>2026-05-07T13:22:27.000Z</time>
      </trkpt>
      <trkpt lat="43.5968" lon="2.9501">
        <ele>491.4</ele>
        <time>2026-05-07T13:22:28.000Z</time>
      </trkpt>
      <trkpt lat="43.59679" lon="2.95009">
        <ele>491.4</ele>
        <time>2026-05-07T13:22:29.000Z</time>
      </trkpt>
      <trkpt lat="43.59678" lon="2.95008">
        <ele>491.4</ele>
        <time>2026-05-07T13:22:30.000Z</time>
      </trkpt>
      <trkpt lat="43.59677" lon="2.95007">
        <ele>491.4</ele>
        <time>2026-05-07T13:22:31.000Z</time>
      </trkpt>
      <trkpt lat="43.59675" lon="2.95007">
        <ele>491.6</ele>
        <time>2026-05-07T13:22:32.000Z</time>
      </trkpt>
      <trkpt lat="43.59674" lon="2.95006">
        <ele>491.6</ele>
        <time>2026-05-07T13:22:33.000Z</time>
      </trkpt>
      <trkpt lat="43.59673" lon="2.95006">
        <ele>491.5</ele>
        <time>2026-05-07T13:22:34.000Z</time>
      </trkpt>
      <trkpt lat="43.59672" lon="2.95006">
        <ele>491.7</ele>
        <time>2026-05-07T13:22:35.000Z</time>
      </trkpt>
      <trkpt lat="43.59672" lon="2.95006">
        <ele>491.8</ele>
        <time>2026-05-07T13:22:36.000Z</time>
      </trkpt>
      <trkpt lat="43.5967" lon="2.95005">
        <ele>492</ele>
        <time>2026-05-07T13:22:37.000Z</time>
      </trkpt>
      <trkpt lat="43.59669" lon="2.95005">
        <ele>492</ele>
        <time>2026-05-07T13:22:38.000Z</time>
      </trkpt>
      <trkpt lat="43.59667" lon="2.95004">
        <ele>491.8</ele>
        <time>2026-05-07T13:22:39.000Z</time>
      </trkpt>
      <trkpt lat="43.59666" lon="2.95004">
        <ele>491.7</ele>
        <time>2026-05-07T13:22:40.000Z</time>
      </trkpt>
      <trkpt lat="43.59666" lon="2.95004">
        <ele>490.7</ele>
        <time>2026-05-07T13:22:41.000Z</time>
      </trkpt>
      <trkpt lat="43.59665" lon="2.95004">
        <ele>490.2</ele>
        <time>2026-05-07T13:22:42.000Z</time>
      </trkpt>
      <trkpt lat="43.59663" lon="2.95004">
        <ele>489.8</ele>
        <time>2026-05-07T13:22:43.000Z</time>
      </trkpt>
      <trkpt lat="43.59663" lon="2.95004">
        <ele>489.5</ele>
        <time>2026-05-07T13:22:44.000Z</time>
      </trkpt>
      <trkpt lat="43.59662" lon="2.95004">
        <ele>488.8</ele>
        <time>2026-05-07T13:22:45.000Z</time>
      </trkpt>
      <trkpt lat="43.59661" lon="2.95004">
        <ele>488.9</ele>
        <time>2026-05-07T13:22:46.000Z</time>
      </trkpt>
      <trkpt lat="43.5966" lon="2.95003">
        <ele>488.7</ele>
        <time>2026-05-07T13:22:47.000Z</time>
      </trkpt>
      <trkpt lat="43.59659" lon="2.95002">
        <ele>488.7</ele>
        <time>2026-05-07T13:22:48.000Z</time>
      </trkpt>
      <trkpt lat="43.59658" lon="2.95002">
        <ele>489.4</ele>
        <time>2026-05-07T13:22:49.000Z</time>
      </trkpt>
      <trkpt lat="43.59657" lon="2.95002">
        <ele>489.5</ele>
        <time>2026-05-07T13:22:50.000Z</time>
      </trkpt>
      <trkpt lat="43.59656" lon="2.95001">
        <ele>489.1</ele>
        <time>2026-05-07T13:22:51.000Z</time>
      </trkpt>
      <trkpt lat="43.59655" lon="2.95001">
        <ele>489.5</ele>
        <time>2026-05-07T13:22:52.000Z</time>
      </trkpt>
      <trkpt lat="43.59655" lon="2.95001">
        <ele>489.3</ele>
        <time>2026-05-07T13:22:53.000Z</time>
      </trkpt>
      <trkpt lat="43.59653" lon="2.95001">
        <ele>489.4</ele>
        <time>2026-05-07T13:22:54.000Z</time>
      </trkpt>
      <trkpt lat="43.59652" lon="2.95001">
        <ele>489.8</ele>
        <time>2026-05-07T13:22:55.000Z</time>
      </trkpt>
      <trkpt lat="43.59651" lon="2.95001">
        <ele>489.4</ele>
        <time>2026-05-07T13:22:56.000Z</time>
      </trkpt>
      <trkpt lat="43.59649" lon="2.95">
        <ele>489.1</ele>
        <time>2026-05-07T13:22:57.000Z</time>
      </trkpt>
      <trkpt lat="43.59648" lon="2.94999">
        <ele>488.6</ele>
        <time>2026-05-07T13:22:58.000Z</time>
      </trkpt>
      <trkpt lat="43.59647" lon="2.94999">
        <ele>488.5</ele>
        <time>2026-05-07T13:22:59.000Z</time>
      </trkpt>
      <trkpt lat="43.59644" lon="2.94998">
        <ele>489.3</ele>
        <time>2026-05-07T13:23:00.000Z</time>
      </trkpt>
      <trkpt lat="43.59643" lon="2.94998">
        <ele>489.8</ele>
        <time>2026-05-07T13:23:01.000Z</time>
      </trkpt>
      <trkpt lat="43.59641" lon="2.94999">
        <ele>489.7</ele>
        <time>2026-05-07T13:23:02.000Z</time>
      </trkpt>
      <trkpt lat="43.5964" lon="2.94999">
        <ele>489.3</ele>
        <time>2026-05-07T13:23:03.000Z</time>
      </trkpt>
      <trkpt lat="43.59639" lon="2.95">
        <ele>488.9</ele>
        <time>2026-05-07T13:23:04.000Z</time>
      </trkpt>
      <trkpt lat="43.59638" lon="2.95001">
        <ele>488.6</ele>
        <time>2026-05-07T13:23:05.000Z</time>
      </trkpt>
      <trkpt lat="43.59637" lon="2.95003">
        <ele>488.3</ele>
        <time>2026-05-07T13:23:06.000Z</time>
      </trkpt>
      <trkpt lat="43.59637" lon="2.95003">
        <ele>488.6</ele>
        <time>2026-05-07T13:23:07.000Z</time>
      </trkpt>
      <trkpt lat="43.59636" lon="2.95002">
        <ele>488.6</ele>
        <time>2026-05-07T13:23:08.000Z</time>
      </trkpt>
      <trkpt lat="43.59635" lon="2.95002">
        <ele>488.9</ele>
        <time>2026-05-07T13:23:09.000Z</time>
      </trkpt>
      <trkpt lat="43.59634" lon="2.95002">
        <ele>489</ele>
        <time>2026-05-07T13:23:10.000Z</time>
      </trkpt>
      <trkpt lat="43.59632" lon="2.95003">
        <ele>488.9</ele>
        <time>2026-05-07T13:23:11.000Z</time>
      </trkpt>
      <trkpt lat="43.5963" lon="2.95004">
        <ele>488.8</ele>
        <time>2026-05-07T13:23:12.000Z</time>
      </trkpt>
      <trkpt lat="43.59629" lon="2.95005">
        <ele>488.6</ele>
        <time>2026-05-07T13:23:13.000Z</time>
      </trkpt>
      <trkpt lat="43.59628" lon="2.95005">
        <ele>488</ele>
        <time>2026-05-07T13:23:14.000Z</time>
      </trkpt>
      <trkpt lat="43.59626" lon="2.95004">
        <ele>488.4</ele>
        <time>2026-05-07T13:23:15.000Z</time>
      </trkpt>
      <trkpt lat="43.59625" lon="2.95003">
        <ele>488.2</ele>
        <time>2026-05-07T13:23:16.000Z</time>
      </trkpt>
      <trkpt lat="43.59624" lon="2.95003">
        <ele>488</ele>
        <time>2026-05-07T13:23:17.000Z</time>
      </trkpt>
      <trkpt lat="43.59623" lon="2.95004">
        <ele>487.6</ele>
        <time>2026-05-07T13:23:18.000Z</time>
      </trkpt>
      <trkpt lat="43.59623" lon="2.95004">
        <ele>487.5</ele>
        <time>2026-05-07T13:23:19.000Z</time>
      </trkpt>
      <trkpt lat="43.59622" lon="2.95005">
        <ele>487.8</ele>
        <time>2026-05-07T13:23:20.000Z</time>
      </trkpt>
      <trkpt lat="43.5962" lon="2.95006">
        <ele>487.7</ele>
        <time>2026-05-07T13:23:21.000Z</time>
      </trkpt>
      <trkpt lat="43.59619" lon="2.95007">
        <ele>487.3</ele>
        <time>2026-05-07T13:23:22.000Z</time>
      </trkpt>
      <trkpt lat="43.59619" lon="2.95008">
        <ele>486.2</ele>
        <time>2026-05-07T13:23:23.000Z</time>
      </trkpt>
      <trkpt lat="43.59619" lon="2.9501">
        <ele>485.8</ele>
        <time>2026-05-07T13:23:24.000Z</time>
      </trkpt>
      <trkpt lat="43.59618" lon="2.95011">
        <ele>485.8</ele>
        <time>2026-05-07T13:23:25.000Z</time>
      </trkpt>
      <trkpt lat="43.59617" lon="2.95012">
        <ele>485.7</ele>
        <time>2026-05-07T13:23:26.000Z</time>
      </trkpt>
      <trkpt lat="43.59615" lon="2.95013">
        <ele>485.7</ele>
        <time>2026-05-07T13:23:27.000Z</time>
      </trkpt>
      <trkpt lat="43.59614" lon="2.95014">
        <ele>485.3</ele>
        <time>2026-05-07T13:23:28.000Z</time>
      </trkpt>
      <trkpt lat="43.59613" lon="2.95016">
        <ele>484.6</ele>
        <time>2026-05-07T13:23:29.000Z</time>
      </trkpt>
      <trkpt lat="43.59612" lon="2.95017">
        <ele>484.2</ele>
        <time>2026-05-07T13:23:30.000Z</time>
      </trkpt>
      <trkpt lat="43.59611" lon="2.95017">
        <ele>484.1</ele>
        <time>2026-05-07T13:23:31.000Z</time>
      </trkpt>
      <trkpt lat="43.5961" lon="2.95017">
        <ele>483.7</ele>
        <time>2026-05-07T13:23:32.000Z</time>
      </trkpt>
      <trkpt lat="43.59609" lon="2.95019">
        <ele>483.7</ele>
        <time>2026-05-07T13:23:33.000Z</time>
      </trkpt>
      <trkpt lat="43.59608" lon="2.9502">
        <ele>483.8</ele>
        <time>2026-05-07T13:23:34.000Z</time>
      </trkpt>
      <trkpt lat="43.59607" lon="2.9502">
        <ele>484</ele>
        <time>2026-05-07T13:23:35.000Z</time>
      </trkpt>
      <trkpt lat="43.59606" lon="2.9502">
        <ele>484.2</ele>
        <time>2026-05-07T13:23:36.000Z</time>
      </trkpt>
      <trkpt lat="43.59604" lon="2.9502">
        <ele>484.3</ele>
        <time>2026-05-07T13:23:37.000Z</time>
      </trkpt>
      <trkpt lat="43.59602" lon="2.9502">
        <ele>484.2</ele>
        <time>2026-05-07T13:23:38.000Z</time>
      </trkpt>
      <trkpt lat="43.59601" lon="2.95021">
        <ele>484.1</ele>
        <time>2026-05-07T13:23:39.000Z</time>
      </trkpt>
      <trkpt lat="43.596" lon="2.95021">
        <ele>484</ele>
        <time>2026-05-07T13:23:40.000Z</time>
      </trkpt>
      <trkpt lat="43.59599" lon="2.95021">
        <ele>484.2</ele>
        <time>2026-05-07T13:23:41.000Z</time>
      </trkpt>
      <trkpt lat="43.59598" lon="2.95021">
        <ele>484.9</ele>
        <time>2026-05-07T13:23:42.000Z</time>
      </trkpt>
      <trkpt lat="43.59597" lon="2.95021">
        <ele>485.3</ele>
        <time>2026-05-07T13:23:43.000Z</time>
      </trkpt>
      <trkpt lat="43.59596" lon="2.95021">
        <ele>485.1</ele>
        <time>2026-05-07T13:23:44.000Z</time>
      </trkpt>
      <trkpt lat="43.59594" lon="2.95022">
        <ele>484.9</ele>
        <time>2026-05-07T13:23:45.000Z</time>
      </trkpt>
      <trkpt lat="43.59592" lon="2.95023">
        <ele>484.4</ele>
        <time>2026-05-07T13:23:46.000Z</time>
      </trkpt>
      <trkpt lat="43.59591" lon="2.95024">
        <ele>484.3</ele>
        <time>2026-05-07T13:23:47.000Z</time>
      </trkpt>
      <trkpt lat="43.5959" lon="2.95025">
        <ele>484.4</ele>
        <time>2026-05-07T13:23:48.000Z</time>
      </trkpt>
      <trkpt lat="43.59588" lon="2.95024">
        <ele>484.2</ele>
        <time>2026-05-07T13:23:49.000Z</time>
      </trkpt>
      <trkpt lat="43.59587" lon="2.95023">
        <ele>483.9</ele>
        <time>2026-05-07T13:23:50.000Z</time>
      </trkpt>
      <trkpt lat="43.59587" lon="2.95023">
        <ele>483.8</ele>
        <time>2026-05-07T13:23:51.000Z</time>
      </trkpt>
      <trkpt lat="43.59586" lon="2.95023">
        <ele>483.9</ele>
        <time>2026-05-07T13:23:52.000Z</time>
      </trkpt>
      <trkpt lat="43.59585" lon="2.95024">
        <ele>483.9</ele>
        <time>2026-05-07T13:23:53.000Z</time>
      </trkpt>
      <trkpt lat="43.59584" lon="2.95025">
        <ele>483.8</ele>
        <time>2026-05-07T13:23:54.000Z</time>
      </trkpt>
      <trkpt lat="43.59583" lon="2.95026">
        <ele>483.2</ele>
        <time>2026-05-07T13:23:55.000Z</time>
      </trkpt>
      <trkpt lat="43.59582" lon="2.95027">
        <ele>482.8</ele>
        <time>2026-05-07T13:23:56.000Z</time>
      </trkpt>
      <trkpt lat="43.59581" lon="2.95027">
        <ele>482.1</ele>
        <time>2026-05-07T13:23:57.000Z</time>
      </trkpt>
      <trkpt lat="43.59581" lon="2.95027">
        <ele>481.1</ele>
        <time>2026-05-07T13:23:58.000Z</time>
      </trkpt>
      <trkpt lat="43.59581" lon="2.95028">
        <ele>480.9</ele>
        <time>2026-05-07T13:23:59.000Z</time>
      </trkpt>
      <trkpt lat="43.5958" lon="2.9503">
        <ele>480.8</ele>
        <time>2026-05-07T13:24:00.000Z</time>
      </trkpt>
      <trkpt lat="43.59579" lon="2.95032">
        <ele>481.1</ele>
        <time>2026-05-07T13:24:01.000Z</time>
      </trkpt>
      <trkpt lat="43.59578" lon="2.95033">
        <ele>481.1</ele>
        <time>2026-05-07T13:24:02.000Z</time>
      </trkpt>
      <trkpt lat="43.59576" lon="2.95033">
        <ele>481.3</ele>
        <time>2026-05-07T13:24:03.000Z</time>
      </trkpt>
      <trkpt lat="43.59575" lon="2.95033">
        <ele>481.7</ele>
        <time>2026-05-07T13:24:04.000Z</time>
      </trkpt>
      <trkpt lat="43.59574" lon="2.95033">
        <ele>481.2</ele>
        <time>2026-05-07T13:24:05.000Z</time>
      </trkpt>
      <trkpt lat="43.59572" lon="2.95033">
        <ele>480.8</ele>
        <time>2026-05-07T13:24:06.000Z</time>
      </trkpt>
      <trkpt lat="43.59571" lon="2.95032">
        <ele>481</ele>
        <time>2026-05-07T13:24:07.000Z</time>
      </trkpt>
      <trkpt lat="43.5957" lon="2.95032">
        <ele>481.3</ele>
        <time>2026-05-07T13:24:08.000Z</time>
      </trkpt>
      <trkpt lat="43.59568" lon="2.95033">
        <ele>481.2</ele>
        <time>2026-05-07T13:24:09.000Z</time>
      </trkpt>
      <trkpt lat="43.59566" lon="2.95034">
        <ele>481.8</ele>
        <time>2026-05-07T13:24:10.000Z</time>
      </trkpt>
      <trkpt lat="43.59565" lon="2.95034">
        <ele>481.4</ele>
        <time>2026-05-07T13:24:11.000Z</time>
      </trkpt>
      <trkpt lat="43.59564" lon="2.95034">
        <ele>480.5</ele>
        <time>2026-05-07T13:24:12.000Z</time>
      </trkpt>
      <trkpt lat="43.59564" lon="2.95033">
        <ele>480.1</ele>
        <time>2026-05-07T13:24:13.000Z</time>
      </trkpt>
      <trkpt lat="43.59563" lon="2.95032">
        <ele>480.1</ele>
        <time>2026-05-07T13:24:14.000Z</time>
      </trkpt>
      <trkpt lat="43.59562" lon="2.95032">
        <ele>479.4</ele>
        <time>2026-05-07T13:24:15.000Z</time>
      </trkpt>
      <trkpt lat="43.59561" lon="2.95032">
        <ele>479.6</ele>
        <time>2026-05-07T13:24:16.000Z</time>
      </trkpt>
      <trkpt lat="43.59559" lon="2.95032">
        <ele>479.8</ele>
        <time>2026-05-07T13:24:17.000Z</time>
      </trkpt>
      <trkpt lat="43.59558" lon="2.95033">
        <ele>479.5</ele>
        <time>2026-05-07T13:24:18.000Z</time>
      </trkpt>
      <trkpt lat="43.59557" lon="2.95034">
        <ele>479.4</ele>
        <time>2026-05-07T13:24:19.000Z</time>
      </trkpt>
      <trkpt lat="43.59556" lon="2.95035">
        <ele>478.9</ele>
        <time>2026-05-07T13:24:20.000Z</time>
      </trkpt>
      <trkpt lat="43.59555" lon="2.95035">
        <ele>478.5</ele>
        <time>2026-05-07T13:24:21.000Z</time>
      </trkpt>
      <trkpt lat="43.59554" lon="2.95035">
        <ele>478.3</ele>
        <time>2026-05-07T13:24:22.000Z</time>
      </trkpt>
      <trkpt lat="43.59553" lon="2.95034">
        <ele>477.9</ele>
        <time>2026-05-07T13:24:23.000Z</time>
      </trkpt>
      <trkpt lat="43.59551" lon="2.95034">
        <ele>478</ele>
        <time>2026-05-07T13:24:24.000Z</time>
      </trkpt>
      <trkpt lat="43.5955" lon="2.95034">
        <ele>477.9</ele>
        <time>2026-05-07T13:24:25.000Z</time>
      </trkpt>
      <trkpt lat="43.59548" lon="2.95034">
        <ele>478</ele>
        <time>2026-05-07T13:24:26.000Z</time>
      </trkpt>
      <trkpt lat="43.59547" lon="2.95034">
        <ele>477.8</ele>
        <time>2026-05-07T13:24:27.000Z</time>
      </trkpt>
      <trkpt lat="43.59546" lon="2.95034">
        <ele>477.3</ele>
        <time>2026-05-07T13:24:28.000Z</time>
      </trkpt>
      <trkpt lat="43.59545" lon="2.95036">
        <ele>476.9</ele>
        <time>2026-05-07T13:24:29.000Z</time>
      </trkpt>
      <trkpt lat="43.59544" lon="2.95036">
        <ele>476.3</ele>
        <time>2026-05-07T13:24:30.000Z</time>
      </trkpt>
      <trkpt lat="43.59544" lon="2.95037">
        <ele>475.9</ele>
        <time>2026-05-07T13:24:31.000Z</time>
      </trkpt>
      <trkpt lat="43.59543" lon="2.95038">
        <ele>476.1</ele>
        <time>2026-05-07T13:24:32.000Z</time>
      </trkpt>
      <trkpt lat="43.59541" lon="2.95039">
        <ele>476.5</ele>
        <time>2026-05-07T13:24:33.000Z</time>
      </trkpt>
      <trkpt lat="43.5954" lon="2.95041">
        <ele>476.3</ele>
        <time>2026-05-07T13:24:34.000Z</time>
      </trkpt>
      <trkpt lat="43.59539" lon="2.95042">
        <ele>475.8</ele>
        <time>2026-05-07T13:24:35.000Z</time>
      </trkpt>
      <trkpt lat="43.59538" lon="2.95044">
        <ele>475</ele>
        <time>2026-05-07T13:24:36.000Z</time>
      </trkpt>
      <trkpt lat="43.59537" lon="2.95045">
        <ele>475.3</ele>
        <time>2026-05-07T13:24:37.000Z</time>
      </trkpt>
      <trkpt lat="43.59537" lon="2.95046">
        <ele>475.7</ele>
        <time>2026-05-07T13:24:38.000Z</time>
      </trkpt>
      <trkpt lat="43.59537" lon="2.95047">
        <ele>475.6</ele>
        <time>2026-05-07T13:24:39.000Z</time>
      </trkpt>
      <trkpt lat="43.59536" lon="2.95048">
        <ele>475.8</ele>
        <time>2026-05-07T13:24:40.000Z</time>
      </trkpt>
      <trkpt lat="43.59535" lon="2.95049">
        <ele>475.5</ele>
        <time>2026-05-07T13:24:41.000Z</time>
      </trkpt>
      <trkpt lat="43.59534" lon="2.95051">
        <ele>475.6</ele>
        <time>2026-05-07T13:24:42.000Z</time>
      </trkpt>
      <trkpt lat="43.59533" lon="2.95052">
        <ele>474.7</ele>
        <time>2026-05-07T13:24:43.000Z</time>
      </trkpt>
      <trkpt lat="43.59531" lon="2.95053">
        <ele>474</ele>
        <time>2026-05-07T13:24:44.000Z</time>
      </trkpt>
      <trkpt lat="43.5953" lon="2.95053">
        <ele>473.6</ele>
        <time>2026-05-07T13:24:45.000Z</time>
      </trkpt>
      <trkpt lat="43.5953" lon="2.95053">
        <ele>472.6</ele>
        <time>2026-05-07T13:24:46.000Z</time>
      </trkpt>
      <trkpt lat="43.5953" lon="2.95054">
        <ele>472</ele>
        <time>2026-05-07T13:24:47.000Z</time>
      </trkpt>
      <trkpt lat="43.59529" lon="2.95053">
        <ele>471</ele>
        <time>2026-05-07T13:24:48.000Z</time>
      </trkpt>
      <trkpt lat="43.59528" lon="2.95053">
        <ele>470.5</ele>
        <time>2026-05-07T13:24:49.000Z</time>
      </trkpt>
      <trkpt lat="43.59526" lon="2.95053">
        <ele>471</ele>
        <time>2026-05-07T13:24:50.000Z</time>
      </trkpt>
      <trkpt lat="43.59525" lon="2.95053">
        <ele>471.1</ele>
        <time>2026-05-07T13:24:51.000Z</time>
      </trkpt>
      <trkpt lat="43.59523" lon="2.95053">
        <ele>471</ele>
        <time>2026-05-07T13:24:52.000Z</time>
      </trkpt>
      <trkpt lat="43.59522" lon="2.95052">
        <ele>471.3</ele>
        <time>2026-05-07T13:24:53.000Z</time>
      </trkpt>
      <trkpt lat="43.59521" lon="2.95051">
        <ele>471.1</ele>
        <time>2026-05-07T13:24:54.000Z</time>
      </trkpt>
      <trkpt lat="43.59521" lon="2.95051">
        <ele>470.9</ele>
        <time>2026-05-07T13:24:55.000Z</time>
      </trkpt>
      <trkpt lat="43.5952" lon="2.95051">
        <ele>471.4</ele>
        <time>2026-05-07T13:24:56.000Z</time>
      </trkpt>
      <trkpt lat="43.59519" lon="2.95052">
        <ele>471.2</ele>
        <time>2026-05-07T13:24:57.000Z</time>
      </trkpt>
      <trkpt lat="43.59517" lon="2.95053">
        <ele>471.5</ele>
        <time>2026-05-07T13:24:58.000Z</time>
      </trkpt>
      <trkpt lat="43.59516" lon="2.95054">
        <ele>471.2</ele>
        <time>2026-05-07T13:24:59.000Z</time>
      </trkpt>
      <trkpt lat="43.59515" lon="2.95055">
        <ele>470.9</ele>
        <time>2026-05-07T13:25:00.000Z</time>
      </trkpt>
      <trkpt lat="43.59514" lon="2.95055">
        <ele>471.2</ele>
        <time>2026-05-07T13:25:01.000Z</time>
      </trkpt>
      <trkpt lat="43.59513" lon="2.95056">
        <ele>471.4</ele>
        <time>2026-05-07T13:25:02.000Z</time>
      </trkpt>
      <trkpt lat="43.59513" lon="2.95055">
        <ele>471.6</ele>
        <time>2026-05-07T13:25:03.000Z</time>
      </trkpt>
      <trkpt lat="43.59511" lon="2.95055">
        <ele>471.7</ele>
        <time>2026-05-07T13:25:04.000Z</time>
      </trkpt>
      <trkpt lat="43.5951" lon="2.95056">
        <ele>471.6</ele>
        <time>2026-05-07T13:25:05.000Z</time>
      </trkpt>
      <trkpt lat="43.59508" lon="2.95058">
        <ele>471.2</ele>
        <time>2026-05-07T13:25:06.000Z</time>
      </trkpt>
      <trkpt lat="43.59506" lon="2.95059">
        <ele>470.6</ele>
        <time>2026-05-07T13:25:07.000Z</time>
      </trkpt>
      <trkpt lat="43.59505" lon="2.95059">
        <ele>469.8</ele>
        <time>2026-05-07T13:25:08.000Z</time>
      </trkpt>
      <trkpt lat="43.59504" lon="2.95059">
        <ele>469.2</ele>
        <time>2026-05-07T13:25:09.000Z</time>
      </trkpt>
      <trkpt lat="43.59503" lon="2.95059">
        <ele>468.3</ele>
        <time>2026-05-07T13:25:10.000Z</time>
      </trkpt>
      <trkpt lat="43.59502" lon="2.95059">
        <ele>468</ele>
        <time>2026-05-07T13:25:11.000Z</time>
      </trkpt>
      <trkpt lat="43.59501" lon="2.9506">
        <ele>467.9</ele>
        <time>2026-05-07T13:25:12.000Z</time>
      </trkpt>
      <trkpt lat="43.59499" lon="2.95061">
        <ele>468.1</ele>
        <time>2026-05-07T13:25:13.000Z</time>
      </trkpt>
      <trkpt lat="43.59497" lon="2.95061">
        <ele>468</ele>
        <time>2026-05-07T13:25:14.000Z</time>
      </trkpt>
      <trkpt lat="43.59495" lon="2.95062">
        <ele>467.5</ele>
        <time>2026-05-07T13:25:15.000Z</time>
      </trkpt>
      <trkpt lat="43.59494" lon="2.95062">
        <ele>467.3</ele>
        <time>2026-05-07T13:25:16.000Z</time>
      </trkpt>
      <trkpt lat="43.59492" lon="2.95062">
        <ele>467.4</ele>
        <time>2026-05-07T13:25:17.000Z</time>
      </trkpt>
      <trkpt lat="43.59491" lon="2.95062">
        <ele>467.3</ele>
        <time>2026-05-07T13:25:18.000Z</time>
      </trkpt>
      <trkpt lat="43.5949" lon="2.95062">
        <ele>466.9</ele>
        <time>2026-05-07T13:25:19.000Z</time>
      </trkpt>
      <trkpt lat="43.5949" lon="2.95062">
        <ele>466.4</ele>
        <time>2026-05-07T13:25:20.000Z</time>
      </trkpt>
      <trkpt lat="43.59489" lon="2.95062">
        <ele>466.1</ele>
        <time>2026-05-07T13:25:21.000Z</time>
      </trkpt>
      <trkpt lat="43.59488" lon="2.95062">
        <ele>465.3</ele>
        <time>2026-05-07T13:25:22.000Z</time>
      </trkpt>
      <trkpt lat="43.59486" lon="2.95062">
        <ele>465.5</ele>
        <time>2026-05-07T13:25:23.000Z</time>
      </trkpt>
      <trkpt lat="43.59485" lon="2.95062">
        <ele>465.6</ele>
        <time>2026-05-07T13:25:24.000Z</time>
      </trkpt>
      <trkpt lat="43.59484" lon="2.95062">
        <ele>465.8</ele>
        <time>2026-05-07T13:25:25.000Z</time>
      </trkpt>
      <trkpt lat="43.59483" lon="2.95061">
        <ele>465.6</ele>
        <time>2026-05-07T13:25:26.000Z</time>
      </trkpt>
      <trkpt lat="43.59482" lon="2.95061">
        <ele>465.6</ele>
        <time>2026-05-07T13:25:27.000Z</time>
      </trkpt>
      <trkpt lat="43.59481" lon="2.95062">
        <ele>465.4</ele>
        <time>2026-05-07T13:25:28.000Z</time>
      </trkpt>
      <trkpt lat="43.5948" lon="2.95063">
        <ele>465.3</ele>
        <time>2026-05-07T13:25:29.000Z</time>
      </trkpt>
      <trkpt lat="43.59478" lon="2.95064">
        <ele>465.3</ele>
        <time>2026-05-07T13:25:30.000Z</time>
      </trkpt>
      <trkpt lat="43.59477" lon="2.95065">
        <ele>465</ele>
        <time>2026-05-07T13:25:31.000Z</time>
      </trkpt>
      <trkpt lat="43.59475" lon="2.95065">
        <ele>465.9</ele>
        <time>2026-05-07T13:25:32.000Z</time>
      </trkpt>
      <trkpt lat="43.59473" lon="2.95065">
        <ele>466.2</ele>
        <time>2026-05-07T13:25:33.000Z</time>
      </trkpt>
      <trkpt lat="43.59472" lon="2.95064">
        <ele>466.4</ele>
        <time>2026-05-07T13:25:34.000Z</time>
      </trkpt>
      <trkpt lat="43.59472" lon="2.95064">
        <ele>465.8</ele>
        <time>2026-05-07T13:25:35.000Z</time>
      </trkpt>
      <trkpt lat="43.59471" lon="2.95064">
        <ele>465.6</ele>
        <time>2026-05-07T13:25:36.000Z</time>
      </trkpt>
      <trkpt lat="43.5947" lon="2.95064">
        <ele>465.4</ele>
        <time>2026-05-07T13:25:37.000Z</time>
      </trkpt>
      <trkpt lat="43.59469" lon="2.95065">
        <ele>465</ele>
        <time>2026-05-07T13:25:38.000Z</time>
      </trkpt>
      <trkpt lat="43.59467" lon="2.95066">
        <ele>464.7</ele>
        <time>2026-05-07T13:25:39.000Z</time>
      </trkpt>
      <trkpt lat="43.59466" lon="2.95068">
        <ele>464</ele>
        <time>2026-05-07T13:25:40.000Z</time>
      </trkpt>
      <trkpt lat="43.59465" lon="2.95069">
        <ele>463.7</ele>
        <time>2026-05-07T13:25:41.000Z</time>
      </trkpt>
      <trkpt lat="43.59464" lon="2.9507">
        <ele>463.5</ele>
        <time>2026-05-07T13:25:42.000Z</time>
      </trkpt>
      <trkpt lat="43.59463" lon="2.95069">
        <ele>464.4</ele>
        <time>2026-05-07T13:25:43.000Z</time>
      </trkpt>
      <trkpt lat="43.59461" lon="2.95069">
        <ele>464.8</ele>
        <time>2026-05-07T13:25:44.000Z</time>
      </trkpt>
      <trkpt lat="43.59461" lon="2.9507">
        <ele>464.3</ele>
        <time>2026-05-07T13:25:45.000Z</time>
      </trkpt>
      <trkpt lat="43.5946" lon="2.9507">
        <ele>464.3</ele>
        <time>2026-05-07T13:25:46.000Z</time>
      </trkpt>
      <trkpt lat="43.59459" lon="2.95071">
        <ele>464.3</ele>
        <time>2026-05-07T13:25:47.000Z</time>
      </trkpt>
      <trkpt lat="43.59458" lon="2.95072">
        <ele>464</ele>
        <time>2026-05-07T13:25:48.000Z</time>
      </trkpt>
      <trkpt lat="43.59456" lon="2.95075">
        <ele>463.5</ele>
        <time>2026-05-07T13:25:49.000Z</time>
      </trkpt>
      <trkpt lat="43.59456" lon="2.95076">
        <ele>462.8</ele>
        <time>2026-05-07T13:25:50.000Z</time>
      </trkpt>
      <trkpt lat="43.59455" lon="2.95078">
        <ele>462.7</ele>
        <time>2026-05-07T13:25:51.000Z</time>
      </trkpt>
      <trkpt lat="43.59453" lon="2.95079">
        <ele>462.8</ele>
        <time>2026-05-07T13:25:52.000Z</time>
      </trkpt>
      <trkpt lat="43.59452" lon="2.95081">
        <ele>462.8</ele>
        <time>2026-05-07T13:25:53.000Z</time>
      </trkpt>
      <trkpt lat="43.59451" lon="2.95081">
        <ele>462.7</ele>
        <time>2026-05-07T13:25:54.000Z</time>
      </trkpt>
      <trkpt lat="43.59451" lon="2.95082">
        <ele>462.7</ele>
        <time>2026-05-07T13:25:55.000Z</time>
      </trkpt>
      <trkpt lat="43.5945" lon="2.95081">
        <ele>463.3</ele>
        <time>2026-05-07T13:25:56.000Z</time>
      </trkpt>
      <trkpt lat="43.59449" lon="2.95082">
        <ele>463.5</ele>
        <time>2026-05-07T13:25:57.000Z</time>
      </trkpt>
      <trkpt lat="43.59447" lon="2.95084">
        <ele>463.5</ele>
        <time>2026-05-07T13:25:58.000Z</time>
      </trkpt>
      <trkpt lat="43.59446" lon="2.95086">
        <ele>463.3</ele>
        <time>2026-05-07T13:25:59.000Z</time>
      </trkpt>
      <trkpt lat="43.59446" lon="2.95088">
        <ele>463.7</ele>
        <time>2026-05-07T13:26:00.000Z</time>
      </trkpt>
      <trkpt lat="43.59445" lon="2.95087">
        <ele>462.8</ele>
        <time>2026-05-07T13:26:01.000Z</time>
      </trkpt>
      <trkpt lat="43.59445" lon="2.95088">
        <ele>462.2</ele>
        <time>2026-05-07T13:26:02.000Z</time>
      </trkpt>
      <trkpt lat="43.59444" lon="2.95089">
        <ele>461.5</ele>
        <time>2026-05-07T13:26:03.000Z</time>
      </trkpt>
      <trkpt lat="43.59443" lon="2.95089">
        <ele>461.3</ele>
        <time>2026-05-07T13:26:04.000Z</time>
      </trkpt>
      <trkpt lat="43.59442" lon="2.9509">
        <ele>461.2</ele>
        <time>2026-05-07T13:26:05.000Z</time>
      </trkpt>
      <trkpt lat="43.59441" lon="2.95092">
        <ele>461.6</ele>
        <time>2026-05-07T13:26:06.000Z</time>
      </trkpt>
      <trkpt lat="43.59439" lon="2.95093">
        <ele>461.3</ele>
        <time>2026-05-07T13:26:07.000Z</time>
      </trkpt>
      <trkpt lat="43.59438" lon="2.95094">
        <ele>461.6</ele>
        <time>2026-05-07T13:26:08.000Z</time>
      </trkpt>
      <trkpt lat="43.59438" lon="2.95094">
        <ele>461.7</ele>
        <time>2026-05-07T13:26:09.000Z</time>
      </trkpt>
      <trkpt lat="43.59437" lon="2.95094">
        <ele>461.8</ele>
        <time>2026-05-07T13:26:10.000Z</time>
      </trkpt>
      <trkpt lat="43.59436" lon="2.95095">
        <ele>462</ele>
        <time>2026-05-07T13:26:11.000Z</time>
      </trkpt>
      <trkpt lat="43.59435" lon="2.95096">
        <ele>461.9</ele>
        <time>2026-05-07T13:26:12.000Z</time>
      </trkpt>
      <trkpt lat="43.59434" lon="2.95096">
        <ele>462.4</ele>
        <time>2026-05-07T13:26:13.000Z</time>
      </trkpt>
      <trkpt lat="43.59433" lon="2.95096">
        <ele>462.8</ele>
        <time>2026-05-07T13:26:14.000Z</time>
      </trkpt>
      <trkpt lat="43.59431" lon="2.95096">
        <ele>462.9</ele>
        <time>2026-05-07T13:26:15.000Z</time>
      </trkpt>
      <trkpt lat="43.5943" lon="2.95096">
        <ele>463.2</ele>
        <time>2026-05-07T13:26:16.000Z</time>
      </trkpt>
      <trkpt lat="43.59429" lon="2.95096">
        <ele>463.6</ele>
        <time>2026-05-07T13:26:17.000Z</time>
      </trkpt>
      <trkpt lat="43.59428" lon="2.95096">
        <ele>463.9</ele>
        <time>2026-05-07T13:26:18.000Z</time>
      </trkpt>
      <trkpt lat="43.59426" lon="2.95096">
        <ele>464</ele>
        <time>2026-05-07T13:26:19.000Z</time>
      </trkpt>
      <trkpt lat="43.59425" lon="2.95097">
        <ele>464.1</ele>
        <time>2026-05-07T13:26:20.000Z</time>
      </trkpt>
      <trkpt lat="43.59423" lon="2.95098">
        <ele>463.9</ele>
        <time>2026-05-07T13:26:21.000Z</time>
      </trkpt>
      <trkpt lat="43.59422" lon="2.95098">
        <ele>464</ele>
        <time>2026-05-07T13:26:22.000Z</time>
      </trkpt>
      <trkpt lat="43.5942" lon="2.95099">
        <ele>464.2</ele>
        <time>2026-05-07T13:26:23.000Z</time>
      </trkpt>
      <trkpt lat="43.59419" lon="2.95101">
        <ele>464.1</ele>
        <time>2026-05-07T13:26:24.000Z</time>
      </trkpt>
      <trkpt lat="43.59418" lon="2.95101">
        <ele>463.7</ele>
        <time>2026-05-07T13:26:25.000Z</time>
      </trkpt>
      <trkpt lat="43.59417" lon="2.95102">
        <ele>463.4</ele>
        <time>2026-05-07T13:26:26.000Z</time>
      </trkpt>
      <trkpt lat="43.59416" lon="2.95102">
        <ele>464.1</ele>
        <time>2026-05-07T13:26:27.000Z</time>
      </trkpt>
      <trkpt lat="43.59415" lon="2.95102">
        <ele>464.3</ele>
        <time>2026-05-07T13:26:28.000Z</time>
      </trkpt>
      <trkpt lat="43.59414" lon="2.95101">
        <ele>464.8</ele>
        <time>2026-05-07T13:26:29.000Z</time>
      </trkpt>
      <trkpt lat="43.59413" lon="2.95102">
        <ele>465.2</ele>
        <time>2026-05-07T13:26:30.000Z</time>
      </trkpt>
      <trkpt lat="43.59412" lon="2.95102">
        <ele>465.3</ele>
        <time>2026-05-07T13:26:31.000Z</time>
      </trkpt>
      <trkpt lat="43.59411" lon="2.95103">
        <ele>465.3</ele>
        <time>2026-05-07T13:26:32.000Z</time>
      </trkpt>
      <trkpt lat="43.59409" lon="2.95102">
        <ele>465.6</ele>
        <time>2026-05-07T13:26:33.000Z</time>
      </trkpt>
      <trkpt lat="43.59408" lon="2.95103">
        <ele>465.3</ele>
        <time>2026-05-07T13:26:34.000Z</time>
      </trkpt>
      <trkpt lat="43.59407" lon="2.95102">
        <ele>464.7</ele>
        <time>2026-05-07T13:26:35.000Z</time>
      </trkpt>
      <trkpt lat="43.59405" lon="2.95101">
        <ele>463.5</ele>
        <time>2026-05-07T13:26:36.000Z</time>
      </trkpt>
      <trkpt lat="43.59404" lon="2.95101">
        <ele>463.8</ele>
        <time>2026-05-07T13:26:37.000Z</time>
      </trkpt>
      <trkpt lat="43.59403" lon="2.951">
        <ele>463.5</ele>
        <time>2026-05-07T13:26:38.000Z</time>
      </trkpt>
      <trkpt lat="43.59403" lon="2.95101">
        <ele>463.6</ele>
        <time>2026-05-07T13:26:39.000Z</time>
      </trkpt>
      <trkpt lat="43.59401" lon="2.95101">
        <ele>463.8</ele>
        <time>2026-05-07T13:26:40.000Z</time>
      </trkpt>
      <trkpt lat="43.594" lon="2.95101">
        <ele>464.1</ele>
        <time>2026-05-07T13:26:41.000Z</time>
      </trkpt>
      <trkpt lat="43.59398" lon="2.95102">
        <ele>464.6</ele>
        <time>2026-05-07T13:26:42.000Z</time>
      </trkpt>
      <trkpt lat="43.59397" lon="2.95103">
        <ele>465</ele>
        <time>2026-05-07T13:26:43.000Z</time>
      </trkpt>
      <trkpt lat="43.59396" lon="2.95104">
        <ele>464.5</ele>
        <time>2026-05-07T13:26:44.000Z</time>
      </trkpt>
      <trkpt lat="43.59395" lon="2.95105">
        <ele>464.7</ele>
        <time>2026-05-07T13:26:45.000Z</time>
      </trkpt>
      <trkpt lat="43.59393" lon="2.95104">
        <ele>465.8</ele>
        <time>2026-05-07T13:26:46.000Z</time>
      </trkpt>
      <trkpt lat="43.59392" lon="2.95104">
        <ele>465.7</ele>
        <time>2026-05-07T13:26:47.000Z</time>
      </trkpt>
      <trkpt lat="43.59391" lon="2.95103">
        <ele>465.9</ele>
        <time>2026-05-07T13:26:48.000Z</time>
      </trkpt>
      <trkpt lat="43.5939" lon="2.95102">
        <ele>466.2</ele>
        <time>2026-05-07T13:26:49.000Z</time>
      </trkpt>
      <trkpt lat="43.59388" lon="2.95101">
        <ele>466.2</ele>
        <time>2026-05-07T13:26:50.000Z</time>
      </trkpt>
      <trkpt lat="43.59386" lon="2.951">
        <ele>466.3</ele>
        <time>2026-05-07T13:26:51.000Z</time>
      </trkpt>
      <trkpt lat="43.59384" lon="2.95099">
        <ele>466.4</ele>
        <time>2026-05-07T13:26:52.000Z</time>
      </trkpt>
      <trkpt lat="43.59382" lon="2.95099">
        <ele>466.6</ele>
        <time>2026-05-07T13:26:53.000Z</time>
      </trkpt>
      <trkpt lat="43.5938" lon="2.95098">
        <ele>466.2</ele>
        <time>2026-05-07T13:26:54.000Z</time>
      </trkpt>
      <trkpt lat="43.59379" lon="2.95097">
        <ele>465.6</ele>
        <time>2026-05-07T13:26:55.000Z</time>
      </trkpt>
      <trkpt lat="43.59377" lon="2.95097">
        <ele>465.7</ele>
        <time>2026-05-07T13:26:56.000Z</time>
      </trkpt>
      <trkpt lat="43.59376" lon="2.95097">
        <ele>465.2</ele>
        <time>2026-05-07T13:26:57.000Z</time>
      </trkpt>
      <trkpt lat="43.59376" lon="2.95097">
        <ele>464.7</ele>
        <time>2026-05-07T13:26:58.000Z</time>
      </trkpt>
      <trkpt lat="43.59375" lon="2.95099">
        <ele>463.7</ele>
        <time>2026-05-07T13:26:59.000Z</time>
      </trkpt>
      <trkpt lat="43.59375" lon="2.951">
        <ele>463</ele>
        <time>2026-05-07T13:27:00.000Z</time>
      </trkpt>
      <trkpt lat="43.59374" lon="2.951">
        <ele>462.4</ele>
        <time>2026-05-07T13:27:01.000Z</time>
      </trkpt>
      <trkpt lat="43.59373" lon="2.951">
        <ele>462</ele>
        <time>2026-05-07T13:27:02.000Z</time>
      </trkpt>
      <trkpt lat="43.59371" lon="2.95101">
        <ele>462.1</ele>
        <time>2026-05-07T13:27:03.000Z</time>
      </trkpt>
      <trkpt lat="43.5937" lon="2.951">
        <ele>462.3</ele>
        <time>2026-05-07T13:27:04.000Z</time>
      </trkpt>
      <trkpt lat="43.59368" lon="2.951">
        <ele>462.2</ele>
        <time>2026-05-07T13:27:05.000Z</time>
      </trkpt>
      <trkpt lat="43.59367" lon="2.951">
        <ele>461.9</ele>
        <time>2026-05-07T13:27:06.000Z</time>
      </trkpt>
      <trkpt lat="43.59366" lon="2.951">
        <ele>461.8</ele>
        <time>2026-05-07T13:27:07.000Z</time>
      </trkpt>
      <trkpt lat="43.59365" lon="2.951">
        <ele>461.5</ele>
        <time>2026-05-07T13:27:08.000Z</time>
      </trkpt>
      <trkpt lat="43.59364" lon="2.951">
        <ele>460.9</ele>
        <time>2026-05-07T13:27:09.000Z</time>
      </trkpt>
      <trkpt lat="43.59364" lon="2.95099">
        <ele>460.6</ele>
        <time>2026-05-07T13:27:10.000Z</time>
      </trkpt>
      <trkpt lat="43.59363" lon="2.951">
        <ele>460.5</ele>
        <time>2026-05-07T13:27:11.000Z</time>
      </trkpt>
      <trkpt lat="43.59362" lon="2.951">
        <ele>461.6</ele>
        <time>2026-05-07T13:27:12.000Z</time>
      </trkpt>
      <trkpt lat="43.59361" lon="2.951">
        <ele>462</ele>
        <time>2026-05-07T13:27:13.000Z</time>
      </trkpt>
      <trkpt lat="43.59359" lon="2.95099">
        <ele>462.7</ele>
        <time>2026-05-07T13:27:14.000Z</time>
      </trkpt>
      <trkpt lat="43.59357" lon="2.95098">
        <ele>462.9</ele>
        <time>2026-05-07T13:27:15.000Z</time>
      </trkpt>
      <trkpt lat="43.59356" lon="2.95097">
        <ele>462.9</ele>
        <time>2026-05-07T13:27:16.000Z</time>
      </trkpt>
      <trkpt lat="43.59355" lon="2.95096">
        <ele>462.5</ele>
        <time>2026-05-07T13:27:17.000Z</time>
      </trkpt>
      <trkpt lat="43.59355" lon="2.95095">
        <ele>462.8</ele>
        <time>2026-05-07T13:27:18.000Z</time>
      </trkpt>
      <trkpt lat="43.59353" lon="2.95093">
        <ele>462.7</ele>
        <time>2026-05-07T13:27:19.000Z</time>
      </trkpt>
      <trkpt lat="43.59352" lon="2.95092">
        <ele>462.8</ele>
        <time>2026-05-07T13:27:20.000Z</time>
      </trkpt>
      <trkpt lat="43.59351" lon="2.95091">
        <ele>462.4</ele>
        <time>2026-05-07T13:27:21.000Z</time>
      </trkpt>
      <trkpt lat="43.59349" lon="2.95089">
        <ele>462.1</ele>
        <time>2026-05-07T13:27:22.000Z</time>
      </trkpt>
      <trkpt lat="43.59348" lon="2.95088">
        <ele>462</ele>
        <time>2026-05-07T13:27:23.000Z</time>
      </trkpt>
      <trkpt lat="43.59347" lon="2.95088">
        <ele>461.5</ele>
        <time>2026-05-07T13:27:24.000Z</time>
      </trkpt>
      <trkpt lat="43.59346" lon="2.95087">
        <ele>461.4</ele>
        <time>2026-05-07T13:27:25.000Z</time>
      </trkpt>
      <trkpt lat="43.59345" lon="2.95086">
        <ele>461.4</ele>
        <time>2026-05-07T13:27:26.000Z</time>
      </trkpt>
      <trkpt lat="43.59345" lon="2.95084">
        <ele>461.2</ele>
        <time>2026-05-07T13:27:27.000Z</time>
      </trkpt>
      <trkpt lat="43.59345" lon="2.95084">
        <ele>460.7</ele>
        <time>2026-05-07T13:27:28.000Z</time>
      </trkpt>
      <trkpt lat="43.59345" lon="2.95083">
        <ele>459.9</ele>
        <time>2026-05-07T13:27:29.000Z</time>
      </trkpt>
      <trkpt lat="43.59344" lon="2.95082">
        <ele>459.8</ele>
        <time>2026-05-07T13:27:30.000Z</time>
      </trkpt>
      <trkpt lat="43.59343" lon="2.9508">
        <ele>460</ele>
        <time>2026-05-07T13:27:31.000Z</time>
      </trkpt>
      <trkpt lat="43.59341" lon="2.95079">
        <ele>460.5</ele>
        <time>2026-05-07T13:27:32.000Z</time>
      </trkpt>
      <trkpt lat="43.5934" lon="2.95078">
        <ele>460.2</ele>
        <time>2026-05-07T13:27:33.000Z</time>
      </trkpt>
      <trkpt lat="43.59339" lon="2.95077">
        <ele>459.9</ele>
        <time>2026-05-07T13:27:34.000Z</time>
      </trkpt>
      <trkpt lat="43.59338" lon="2.95076">
        <ele>459.7</ele>
        <time>2026-05-07T13:27:35.000Z</time>
      </trkpt>
      <trkpt lat="43.59337" lon="2.95075">
        <ele>459.3</ele>
        <time>2026-05-07T13:27:36.000Z</time>
      </trkpt>
      <trkpt lat="43.59336" lon="2.95074">
        <ele>459.1</ele>
        <time>2026-05-07T13:27:37.000Z</time>
      </trkpt>
      <trkpt lat="43.59335" lon="2.95073">
        <ele>459.2</ele>
        <time>2026-05-07T13:27:38.000Z</time>
      </trkpt>
      <trkpt lat="43.59334" lon="2.95072">
        <ele>458.9</ele>
        <time>2026-05-07T13:27:39.000Z</time>
      </trkpt>
      <trkpt lat="43.59333" lon="2.95071">
        <ele>458.7</ele>
        <time>2026-05-07T13:27:40.000Z</time>
      </trkpt>
      <trkpt lat="43.59332" lon="2.9507">
        <ele>459.1</ele>
        <time>2026-05-07T13:27:41.000Z</time>
      </trkpt>
      <trkpt lat="43.59332" lon="2.95069">
        <ele>458.8</ele>
        <time>2026-05-07T13:27:42.000Z</time>
      </trkpt>
      <trkpt lat="43.59331" lon="2.95068">
        <ele>458.6</ele>
        <time>2026-05-07T13:27:43.000Z</time>
      </trkpt>
      <trkpt lat="43.5933" lon="2.95067">
        <ele>458.1</ele>
        <time>2026-05-07T13:27:44.000Z</time>
      </trkpt>
      <trkpt lat="43.5933" lon="2.95065">
        <ele>457.9</ele>
        <time>2026-05-07T13:27:45.000Z</time>
      </trkpt>
      <trkpt lat="43.59329" lon="2.95064">
        <ele>458</ele>
        <time>2026-05-07T13:27:46.000Z</time>
      </trkpt>
      <trkpt lat="43.59327" lon="2.95063">
        <ele>458.4</ele>
        <time>2026-05-07T13:27:47.000Z</time>
      </trkpt>
      <trkpt lat="43.59326" lon="2.95062">
        <ele>458.6</ele>
        <time>2026-05-07T13:27:48.000Z</time>
      </trkpt>
      <trkpt lat="43.59326" lon="2.95061">
        <ele>458.9</ele>
        <time>2026-05-07T13:27:49.000Z</time>
      </trkpt>
      <trkpt lat="43.59325" lon="2.95061">
        <ele>458.5</ele>
        <time>2026-05-07T13:27:50.000Z</time>
      </trkpt>
      <trkpt lat="43.59325" lon="2.95059">
        <ele>458.5</ele>
        <time>2026-05-07T13:27:51.000Z</time>
      </trkpt>
      <trkpt lat="43.59325" lon="2.95059">
        <ele>458.6</ele>
        <time>2026-05-07T13:27:52.000Z</time>
      </trkpt>
      <trkpt lat="43.59324" lon="2.95057">
        <ele>457.9</ele>
        <time>2026-05-07T13:27:53.000Z</time>
      </trkpt>
      <trkpt lat="43.59323" lon="2.95055">
        <ele>457.8</ele>
        <time>2026-05-07T13:27:54.000Z</time>
      </trkpt>
      <trkpt lat="43.59323" lon="2.95054">
        <ele>457.7</ele>
        <time>2026-05-07T13:27:55.000Z</time>
      </trkpt>
      <trkpt lat="43.59322" lon="2.95052">
        <ele>457.3</ele>
        <time>2026-05-07T13:27:56.000Z</time>
      </trkpt>
      <trkpt lat="43.59321" lon="2.95051">
        <ele>456.7</ele>
        <time>2026-05-07T13:27:57.000Z</time>
      </trkpt>
      <trkpt lat="43.5932" lon="2.9505">
        <ele>456.6</ele>
        <time>2026-05-07T13:27:58.000Z</time>
      </trkpt>
      <trkpt lat="43.59319" lon="2.95048">
        <ele>456.3</ele>
        <time>2026-05-07T13:27:59.000Z</time>
      </trkpt>
      <trkpt lat="43.59317" lon="2.95047">
        <ele>456.2</ele>
        <time>2026-05-07T13:28:00.000Z</time>
      </trkpt>
      <trkpt lat="43.59316" lon="2.95045">
        <ele>456.2</ele>
        <time>2026-05-07T13:28:01.000Z</time>
      </trkpt>
      <trkpt lat="43.59315" lon="2.95044">
        <ele>456.6</ele>
        <time>2026-05-07T13:28:02.000Z</time>
      </trkpt>
      <trkpt lat="43.59314" lon="2.95042">
        <ele>456.9</ele>
        <time>2026-05-07T13:28:03.000Z</time>
      </trkpt>
      <trkpt lat="43.59313" lon="2.9504">
        <ele>456.5</ele>
        <time>2026-05-07T13:28:04.000Z</time>
      </trkpt>
      <trkpt lat="43.59311" lon="2.95037">
        <ele>456.7</ele>
        <time>2026-05-07T13:28:05.000Z</time>
      </trkpt>
      <trkpt lat="43.59311" lon="2.95036">
        <ele>456.4</ele>
        <time>2026-05-07T13:28:06.000Z</time>
      </trkpt>
      <trkpt lat="43.5931" lon="2.95035">
        <ele>456.6</ele>
        <time>2026-05-07T13:28:07.000Z</time>
      </trkpt>
      <trkpt lat="43.59309" lon="2.95034">
        <ele>456.9</ele>
        <time>2026-05-07T13:28:08.000Z</time>
      </trkpt>
      <trkpt lat="43.59309" lon="2.95033">
        <ele>456.9</ele>
        <time>2026-05-07T13:28:09.000Z</time>
      </trkpt>
      <trkpt lat="43.59309" lon="2.95033">
        <ele>456.8</ele>
        <time>2026-05-07T13:28:10.000Z</time>
      </trkpt>
      <trkpt lat="43.59309" lon="2.95033">
        <ele>456.9</ele>
        <time>2026-05-07T13:28:11.000Z</time>
      </trkpt>
      <trkpt lat="43.59309" lon="2.95031">
        <ele>456.9</ele>
        <time>2026-05-07T13:28:12.000Z</time>
      </trkpt>
      <trkpt lat="43.59309" lon="2.9503">
        <ele>457</ele>
        <time>2026-05-07T13:28:13.000Z</time>
      </trkpt>
      <trkpt lat="43.59308" lon="2.95027">
        <ele>456.3</ele>
        <time>2026-05-07T13:28:14.000Z</time>
      </trkpt>
      <trkpt lat="43.59307" lon="2.95025">
        <ele>456.1</ele>
        <time>2026-05-07T13:28:15.000Z</time>
      </trkpt>
      <trkpt lat="43.59306" lon="2.95022">
        <ele>456.1</ele>
        <time>2026-05-07T13:28:16.000Z</time>
      </trkpt>
      <trkpt lat="43.59305" lon="2.95021">
        <ele>456.2</ele>
        <time>2026-05-07T13:28:17.000Z</time>
      </trkpt>
      <trkpt lat="43.59304" lon="2.95019">
        <ele>456.7</ele>
        <time>2026-05-07T13:28:18.000Z</time>
      </trkpt>
      <trkpt lat="43.59304" lon="2.95019">
        <ele>457.3</ele>
        <time>2026-05-07T13:28:19.000Z</time>
      </trkpt>
      <trkpt lat="43.59304" lon="2.95018">
        <ele>457.3</ele>
        <time>2026-05-07T13:28:20.000Z</time>
      </trkpt>
      <trkpt lat="43.59303" lon="2.95017">
        <ele>457.2</ele>
        <time>2026-05-07T13:28:21.000Z</time>
      </trkpt>
      <trkpt lat="43.59303" lon="2.95016">
        <ele>456.1</ele>
        <time>2026-05-07T13:28:22.000Z</time>
      </trkpt>
      <trkpt lat="43.59302" lon="2.95014">
        <ele>456</ele>
        <time>2026-05-07T13:28:23.000Z</time>
      </trkpt>
      <trkpt lat="43.59301" lon="2.95012">
        <ele>456.2</ele>
        <time>2026-05-07T13:28:24.000Z</time>
      </trkpt>
      <trkpt lat="43.593" lon="2.9501">
        <ele>456.5</ele>
        <time>2026-05-07T13:28:25.000Z</time>
      </trkpt>
      <trkpt lat="43.59299" lon="2.95009">
        <ele>456.5</ele>
        <time>2026-05-07T13:28:26.000Z</time>
      </trkpt>
      <trkpt lat="43.59298" lon="2.95009">
        <ele>456.6</ele>
        <time>2026-05-07T13:28:27.000Z</time>
      </trkpt>
      <trkpt lat="43.59297" lon="2.95009">
        <ele>456.6</ele>
        <time>2026-05-07T13:28:28.000Z</time>
      </trkpt>
      <trkpt lat="43.59296" lon="2.95009">
        <ele>456.8</ele>
        <time>2026-05-07T13:28:29.000Z</time>
      </trkpt>
      <trkpt lat="43.59295" lon="2.95008">
        <ele>456.9</ele>
        <time>2026-05-07T13:28:30.000Z</time>
      </trkpt>
      <trkpt lat="43.59293" lon="2.95006">
        <ele>457.2</ele>
        <time>2026-05-07T13:28:31.000Z</time>
      </trkpt>
      <trkpt lat="43.59292" lon="2.95004">
        <ele>458.1</ele>
        <time>2026-05-07T13:28:32.000Z</time>
      </trkpt>
      <trkpt lat="43.59291" lon="2.95003">
        <ele>458.3</ele>
        <time>2026-05-07T13:28:33.000Z</time>
      </trkpt>
      <trkpt lat="43.5929" lon="2.95001">
        <ele>457.8</ele>
        <time>2026-05-07T13:28:34.000Z</time>
      </trkpt>
      <trkpt lat="43.59289" lon="2.94999">
        <ele>457.5</ele>
        <time>2026-05-07T13:28:35.000Z</time>
      </trkpt>
      <trkpt lat="43.59289" lon="2.94997">
        <ele>457.3</ele>
        <time>2026-05-07T13:28:36.000Z</time>
      </trkpt>
      <trkpt lat="43.59288" lon="2.94996">
        <ele>457.2</ele>
        <time>2026-05-07T13:28:37.000Z</time>
      </trkpt>
      <trkpt lat="43.59287" lon="2.94994">
        <ele>457.7</ele>
        <time>2026-05-07T13:28:38.000Z</time>
      </trkpt>
      <trkpt lat="43.59286" lon="2.94992">
        <ele>457.6</ele>
        <time>2026-05-07T13:28:39.000Z</time>
      </trkpt>
      <trkpt lat="43.59285" lon="2.94991">
        <ele>457.9</ele>
        <time>2026-05-07T13:28:40.000Z</time>
      </trkpt>
      <trkpt lat="43.59284" lon="2.9499">
        <ele>458.1</ele>
        <time>2026-05-07T13:28:41.000Z</time>
      </trkpt>
      <trkpt lat="43.59283" lon="2.94988">
        <ele>457.9</ele>
        <time>2026-05-07T13:28:42.000Z</time>
      </trkpt>
      <trkpt lat="43.59282" lon="2.94987">
        <ele>457.5</ele>
        <time>2026-05-07T13:28:43.000Z</time>
      </trkpt>
      <trkpt lat="43.59282" lon="2.94986">
        <ele>457.3</ele>
        <time>2026-05-07T13:28:44.000Z</time>
      </trkpt>
      <trkpt lat="43.59281" lon="2.94985">
        <ele>457.2</ele>
        <time>2026-05-07T13:28:45.000Z</time>
      </trkpt>
      <trkpt lat="43.5928" lon="2.94984">
        <ele>457.3</ele>
        <time>2026-05-07T13:28:46.000Z</time>
      </trkpt>
      <trkpt lat="43.5928" lon="2.94984">
        <ele>457.6</ele>
        <time>2026-05-07T13:28:47.000Z</time>
      </trkpt>
      <trkpt lat="43.5928" lon="2.94983">
        <ele>457.5</ele>
        <time>2026-05-07T13:28:48.000Z</time>
      </trkpt>
      <trkpt lat="43.5928" lon="2.94983">
        <ele>457.5</ele>
        <time>2026-05-07T13:28:49.000Z</time>
      </trkpt>
      <trkpt lat="43.59278" lon="2.94982">
        <ele>457.5</ele>
        <time>2026-05-07T13:28:50.000Z</time>
      </trkpt>
      <trkpt lat="43.59277" lon="2.94981">
        <ele>457.1</ele>
        <time>2026-05-07T13:28:51.000Z</time>
      </trkpt>
      <trkpt lat="43.59276" lon="2.9498">
        <ele>457</ele>
        <time>2026-05-07T13:28:52.000Z</time>
      </trkpt>
      <trkpt lat="43.59275" lon="2.94979">
        <ele>456.8</ele>
        <time>2026-05-07T13:28:53.000Z</time>
      </trkpt>
      <trkpt lat="43.59274" lon="2.94978">
        <ele>457.3</ele>
        <time>2026-05-07T13:28:54.000Z</time>
      </trkpt>
      <trkpt lat="43.59272" lon="2.94977">
        <ele>457.7</ele>
        <time>2026-05-07T13:28:55.000Z</time>
      </trkpt>
      <trkpt lat="43.5927" lon="2.94977">
        <ele>457.3</ele>
        <time>2026-05-07T13:28:56.000Z</time>
      </trkpt>
      <trkpt lat="43.59268" lon="2.94977">
        <ele>456.9</ele>
        <time>2026-05-07T13:28:57.000Z</time>
      </trkpt>
      <trkpt lat="43.59267" lon="2.94978">
        <ele>456.9</ele>
        <time>2026-05-07T13:28:58.000Z</time>
      </trkpt>
      <trkpt lat="43.59266" lon="2.94979">
        <ele>457</ele>
        <time>2026-05-07T13:28:59.000Z</time>
      </trkpt>
      <trkpt lat="43.59265" lon="2.94979">
        <ele>457.2</ele>
        <time>2026-05-07T13:29:00.000Z</time>
      </trkpt>
      <trkpt lat="43.59264" lon="2.94979">
        <ele>457.3</ele>
        <time>2026-05-07T13:29:01.000Z</time>
      </trkpt>
      <trkpt lat="43.59262" lon="2.94978">
        <ele>457.4</ele>
        <time>2026-05-07T13:29:02.000Z</time>
      </trkpt>
      <trkpt lat="43.59261" lon="2.94978">
        <ele>457.5</ele>
        <time>2026-05-07T13:29:03.000Z</time>
      </trkpt>
      <trkpt lat="43.5926" lon="2.94976">
        <ele>457.3</ele>
        <time>2026-05-07T13:29:04.000Z</time>
      </trkpt>
      <trkpt lat="43.59258" lon="2.94976">
        <ele>457.1</ele>
        <time>2026-05-07T13:29:05.000Z</time>
      </trkpt>
      <trkpt lat="43.59257" lon="2.94977">
        <ele>456.5</ele>
        <time>2026-05-07T13:29:06.000Z</time>
      </trkpt>
      <trkpt lat="43.59255" lon="2.94977">
        <ele>456.7</ele>
        <time>2026-05-07T13:29:07.000Z</time>
      </trkpt>
      <trkpt lat="43.59254" lon="2.94977">
        <ele>456.4</ele>
        <time>2026-05-07T13:29:08.000Z</time>
      </trkpt>
      <trkpt lat="43.59253" lon="2.94977">
        <ele>456.3</ele>
        <time>2026-05-07T13:29:09.000Z</time>
      </trkpt>
      <trkpt lat="43.59252" lon="2.94978">
        <ele>457.5</ele>
        <time>2026-05-07T13:29:10.000Z</time>
      </trkpt>
      <trkpt lat="43.59251" lon="2.94978">
        <ele>458.1</ele>
        <time>2026-05-07T13:29:11.000Z</time>
      </trkpt>
      <trkpt lat="43.59251" lon="2.94978">
        <ele>458.4</ele>
        <time>2026-05-07T13:29:12.000Z</time>
      </trkpt>
      <trkpt lat="43.5925" lon="2.94978">
        <ele>457.8</ele>
        <time>2026-05-07T13:29:13.000Z</time>
      </trkpt>
      <trkpt lat="43.5925" lon="2.94978">
        <ele>457.4</ele>
        <time>2026-05-07T13:29:14.000Z</time>
      </trkpt>
      <trkpt lat="43.59249" lon="2.94979">
        <ele>456.7</ele>
        <time>2026-05-07T13:29:15.000Z</time>
      </trkpt>
      <trkpt lat="43.59247" lon="2.9498">
        <ele>456.5</ele>
        <time>2026-05-07T13:29:16.000Z</time>
      </trkpt>
      <trkpt lat="43.59244" lon="2.9498">
        <ele>456.6</ele>
        <time>2026-05-07T13:29:17.000Z</time>
      </trkpt>
      <trkpt lat="43.59243" lon="2.9498">
        <ele>456.4</ele>
        <time>2026-05-07T13:29:18.000Z</time>
      </trkpt>
      <trkpt lat="43.59242" lon="2.9498">
        <ele>456.3</ele>
        <time>2026-05-07T13:29:19.000Z</time>
      </trkpt>
      <trkpt lat="43.5924" lon="2.94979">
        <ele>456.1</ele>
        <time>2026-05-07T13:29:20.000Z</time>
      </trkpt>
      <trkpt lat="43.59239" lon="2.94979">
        <ele>456.2</ele>
        <time>2026-05-07T13:29:21.000Z</time>
      </trkpt>
      <trkpt lat="43.59238" lon="2.94977">
        <ele>456.4</ele>
        <time>2026-05-07T13:29:22.000Z</time>
      </trkpt>
      <trkpt lat="43.59238" lon="2.94976">
        <ele>456.7</ele>
        <time>2026-05-07T13:29:23.000Z</time>
      </trkpt>
      <trkpt lat="43.59236" lon="2.94975">
        <ele>457</ele>
        <time>2026-05-07T13:29:24.000Z</time>
      </trkpt>
      <trkpt lat="43.59235" lon="2.94975">
        <ele>456.8</ele>
        <time>2026-05-07T13:29:25.000Z</time>
      </trkpt>
      <trkpt lat="43.59233" lon="2.94975">
        <ele>457</ele>
        <time>2026-05-07T13:29:26.000Z</time>
      </trkpt>
      <trkpt lat="43.59232" lon="2.94974">
        <ele>457</ele>
        <time>2026-05-07T13:29:27.000Z</time>
      </trkpt>
      <trkpt lat="43.5923" lon="2.94973">
        <ele>457.2</ele>
        <time>2026-05-07T13:29:28.000Z</time>
      </trkpt>
      <trkpt lat="43.59229" lon="2.94973">
        <ele>456.6</ele>
        <time>2026-05-07T13:29:29.000Z</time>
      </trkpt>
      <trkpt lat="43.59228" lon="2.94972">
        <ele>455.9</ele>
        <time>2026-05-07T13:29:30.000Z</time>
      </trkpt>
      <trkpt lat="43.59228" lon="2.94973">
        <ele>455.5</ele>
        <time>2026-05-07T13:29:31.000Z</time>
      </trkpt>
      <trkpt lat="43.59226" lon="2.94972">
        <ele>455.6</ele>
        <time>2026-05-07T13:29:32.000Z</time>
      </trkpt>
      <trkpt lat="43.59226" lon="2.94973">
        <ele>455.3</ele>
        <time>2026-05-07T13:29:33.000Z</time>
      </trkpt>
      <trkpt lat="43.59225" lon="2.94973">
        <ele>455</ele>
        <time>2026-05-07T13:29:34.000Z</time>
      </trkpt>
      <trkpt lat="43.59224" lon="2.94974">
        <ele>454.5</ele>
        <time>2026-05-07T13:29:35.000Z</time>
      </trkpt>
      <trkpt lat="43.59224" lon="2.94973">
        <ele>454</ele>
        <time>2026-05-07T13:29:36.000Z</time>
      </trkpt>
      <trkpt lat="43.59223" lon="2.94973">
        <ele>453.6</ele>
        <time>2026-05-07T13:29:37.000Z</time>
      </trkpt>
      <trkpt lat="43.59223" lon="2.94974">
        <ele>453.2</ele>
        <time>2026-05-07T13:29:38.000Z</time>
      </trkpt>
      <trkpt lat="43.59222" lon="2.94974">
        <ele>453</ele>
        <time>2026-05-07T13:29:39.000Z</time>
      </trkpt>
      <trkpt lat="43.59222" lon="2.94974">
        <ele>453.1</ele>
        <time>2026-05-07T13:29:40.000Z</time>
      </trkpt>
      <trkpt lat="43.59221" lon="2.94974">
        <ele>453</ele>
        <time>2026-05-07T13:29:41.000Z</time>
      </trkpt>
      <trkpt lat="43.59219" lon="2.94973">
        <ele>452.9</ele>
        <time>2026-05-07T13:29:42.000Z</time>
      </trkpt>
      <trkpt lat="43.59218" lon="2.94973">
        <ele>453.2</ele>
        <time>2026-05-07T13:29:43.000Z</time>
      </trkpt>
      <trkpt lat="43.59216" lon="2.94973">
        <ele>452.5</ele>
        <time>2026-05-07T13:29:44.000Z</time>
      </trkpt>
      <trkpt lat="43.59215" lon="2.94973">
        <ele>451.9</ele>
        <time>2026-05-07T13:29:45.000Z</time>
      </trkpt>
      <trkpt lat="43.59214" lon="2.94973">
        <ele>451.1</ele>
        <time>2026-05-07T13:29:46.000Z</time>
      </trkpt>
      <trkpt lat="43.59213" lon="2.94973">
        <ele>450.8</ele>
        <time>2026-05-07T13:29:47.000Z</time>
      </trkpt>
      <trkpt lat="43.59212" lon="2.94973">
        <ele>450.8</ele>
        <time>2026-05-07T13:29:48.000Z</time>
      </trkpt>
      <trkpt lat="43.59211" lon="2.94973">
        <ele>451.1</ele>
        <time>2026-05-07T13:29:49.000Z</time>
      </trkpt>
      <trkpt lat="43.59209" lon="2.94972">
        <ele>452</ele>
        <time>2026-05-07T13:29:50.000Z</time>
      </trkpt>
      <trkpt lat="43.59208" lon="2.94971">
        <ele>452.3</ele>
        <time>2026-05-07T13:29:51.000Z</time>
      </trkpt>
      <trkpt lat="43.59206" lon="2.9497">
        <ele>452.7</ele>
        <time>2026-05-07T13:29:52.000Z</time>
      </trkpt>
      <trkpt lat="43.59205" lon="2.94969">
        <ele>452.8</ele>
        <time>2026-05-07T13:29:53.000Z</time>
      </trkpt>
      <trkpt lat="43.59203" lon="2.94969">
        <ele>453.1</ele>
        <time>2026-05-07T13:29:54.000Z</time>
      </trkpt>
      <trkpt lat="43.59202" lon="2.9497">
        <ele>452.9</ele>
        <time>2026-05-07T13:29:55.000Z</time>
      </trkpt>
      <trkpt lat="43.59201" lon="2.9497">
        <ele>452.5</ele>
        <time>2026-05-07T13:29:56.000Z</time>
      </trkpt>
      <trkpt lat="43.59199" lon="2.94969">
        <ele>453.2</ele>
        <time>2026-05-07T13:29:57.000Z</time>
      </trkpt>
      <trkpt lat="43.59197" lon="2.94969">
        <ele>454.1</ele>
        <time>2026-05-07T13:29:58.000Z</time>
      </trkpt>
      <trkpt lat="43.59196" lon="2.94969">
        <ele>454</ele>
        <time>2026-05-07T13:29:59.000Z</time>
      </trkpt>
      <trkpt lat="43.59194" lon="2.94969">
        <ele>453.9</ele>
        <time>2026-05-07T13:30:00.000Z</time>
      </trkpt>
      <trkpt lat="43.59192" lon="2.9497">
        <ele>453.7</ele>
        <time>2026-05-07T13:30:01.000Z</time>
      </trkpt>
      <trkpt lat="43.5919" lon="2.9497">
        <ele>453.4</ele>
        <time>2026-05-07T13:30:02.000Z</time>
      </trkpt>
      <trkpt lat="43.59189" lon="2.94971">
        <ele>452.9</ele>
        <time>2026-05-07T13:30:03.000Z</time>
      </trkpt>
      <trkpt lat="43.59187" lon="2.94971">
        <ele>452</ele>
        <time>2026-05-07T13:30:04.000Z</time>
      </trkpt>
      <trkpt lat="43.59186" lon="2.9497">
        <ele>451.2</ele>
        <time>2026-05-07T13:30:05.000Z</time>
      </trkpt>
      <trkpt lat="43.59185" lon="2.9497">
        <ele>450.7</ele>
        <time>2026-05-07T13:30:06.000Z</time>
      </trkpt>
      <trkpt lat="43.59184" lon="2.94971">
        <ele>449.9</ele>
        <time>2026-05-07T13:30:07.000Z</time>
      </trkpt>
      <trkpt lat="43.59183" lon="2.94972">
        <ele>448.9</ele>
        <time>2026-05-07T13:30:08.000Z</time>
      </trkpt>
      <trkpt lat="43.59182" lon="2.94973">
        <ele>448.3</ele>
        <time>2026-05-07T13:30:09.000Z</time>
      </trkpt>
      <trkpt lat="43.59181" lon="2.94975">
        <ele>448.1</ele>
        <time>2026-05-07T13:30:10.000Z</time>
      </trkpt>
      <trkpt lat="43.5918" lon="2.94976">
        <ele>448.1</ele>
        <time>2026-05-07T13:30:11.000Z</time>
      </trkpt>
      <trkpt lat="43.59179" lon="2.94976">
        <ele>448</ele>
        <time>2026-05-07T13:30:12.000Z</time>
      </trkpt>
      <trkpt lat="43.59178" lon="2.94977">
        <ele>447.1</ele>
        <time>2026-05-07T13:30:13.000Z</time>
      </trkpt>
      <trkpt lat="43.59177" lon="2.94977">
        <ele>446.8</ele>
        <time>2026-05-07T13:30:14.000Z</time>
      </trkpt>
      <trkpt lat="43.59176" lon="2.94979">
        <ele>446.2</ele>
        <time>2026-05-07T13:30:15.000Z</time>
      </trkpt>
      <trkpt lat="43.59174" lon="2.9498">
        <ele>445.6</ele>
        <time>2026-05-07T13:30:16.000Z</time>
      </trkpt>
      <trkpt lat="43.59173" lon="2.9498">
        <ele>445</ele>
        <time>2026-05-07T13:30:17.000Z</time>
      </trkpt>
      <trkpt lat="43.59173" lon="2.9498">
        <ele>444.6</ele>
        <time>2026-05-07T13:30:18.000Z</time>
      </trkpt>
      <trkpt lat="43.59172" lon="2.94981">
        <ele>444.6</ele>
        <time>2026-05-07T13:30:19.000Z</time>
      </trkpt>
      <trkpt lat="43.5917" lon="2.94981">
        <ele>444.7</ele>
        <time>2026-05-07T13:30:20.000Z</time>
      </trkpt>
      <trkpt lat="43.59168" lon="2.94981">
        <ele>444.3</ele>
        <time>2026-05-07T13:30:21.000Z</time>
      </trkpt>
      <trkpt lat="43.59167" lon="2.94983">
        <ele>444.5</ele>
        <time>2026-05-07T13:30:22.000Z</time>
      </trkpt>
      <trkpt lat="43.59166" lon="2.94985">
        <ele>444.1</ele>
        <time>2026-05-07T13:30:23.000Z</time>
      </trkpt>
      <trkpt lat="43.59166" lon="2.94987">
        <ele>443.8</ele>
        <time>2026-05-07T13:30:24.000Z</time>
      </trkpt>
      <trkpt lat="43.59165" lon="2.94988">
        <ele>443.5</ele>
        <time>2026-05-07T13:30:25.000Z</time>
      </trkpt>
      <trkpt lat="43.59165" lon="2.9499">
        <ele>443.7</ele>
        <time>2026-05-07T13:30:26.000Z</time>
      </trkpt>
      <trkpt lat="43.59165" lon="2.94991">
        <ele>443.8</ele>
        <time>2026-05-07T13:30:27.000Z</time>
      </trkpt>
      <trkpt lat="43.59165" lon="2.94992">
        <ele>443.6</ele>
        <time>2026-05-07T13:30:28.000Z</time>
      </trkpt>
      <trkpt lat="43.59164" lon="2.94993">
        <ele>443.8</ele>
        <time>2026-05-07T13:30:29.000Z</time>
      </trkpt>
      <trkpt lat="43.59164" lon="2.94995">
        <ele>443.4</ele>
        <time>2026-05-07T13:30:30.000Z</time>
      </trkpt>
      <trkpt lat="43.59162" lon="2.94997">
        <ele>443.6</ele>
        <time>2026-05-07T13:30:31.000Z</time>
      </trkpt>
      <trkpt lat="43.59161" lon="2.94999">
        <ele>443.4</ele>
        <time>2026-05-07T13:30:32.000Z</time>
      </trkpt>
      <trkpt lat="43.5916" lon="2.95">
        <ele>443</ele>
        <time>2026-05-07T13:30:33.000Z</time>
      </trkpt>
      <trkpt lat="43.5916" lon="2.95001">
        <ele>442.7</ele>
        <time>2026-05-07T13:30:34.000Z</time>
      </trkpt>
      <trkpt lat="43.59159" lon="2.95002">
        <ele>442.5</ele>
        <time>2026-05-07T13:30:35.000Z</time>
      </trkpt>
      <trkpt lat="43.59159" lon="2.95003">
        <ele>441.9</ele>
        <time>2026-05-07T13:30:36.000Z</time>
      </trkpt>
      <trkpt lat="43.59158" lon="2.95004">
        <ele>442.1</ele>
        <time>2026-05-07T13:30:37.000Z</time>
      </trkpt>
      <trkpt lat="43.59157" lon="2.95005">
        <ele>442.6</ele>
        <time>2026-05-07T13:30:38.000Z</time>
      </trkpt>
      <trkpt lat="43.59156" lon="2.95007">
        <ele>443</ele>
        <time>2026-05-07T13:30:39.000Z</time>
      </trkpt>
      <trkpt lat="43.59154" lon="2.95008">
        <ele>443.1</ele>
        <time>2026-05-07T13:30:40.000Z</time>
      </trkpt>
      <trkpt lat="43.59153" lon="2.95008">
        <ele>443.2</ele>
        <time>2026-05-07T13:30:41.000Z</time>
      </trkpt>
      <trkpt lat="43.59153" lon="2.9501">
        <ele>443.1</ele>
        <time>2026-05-07T13:30:42.000Z</time>
      </trkpt>
      <trkpt lat="43.59152" lon="2.9501">
        <ele>442.6</ele>
        <time>2026-05-07T13:30:43.000Z</time>
      </trkpt>
      <trkpt lat="43.59151" lon="2.95012">
        <ele>442.3</ele>
        <time>2026-05-07T13:30:44.000Z</time>
      </trkpt>
      <trkpt lat="43.59151" lon="2.95013">
        <ele>442.6</ele>
        <time>2026-05-07T13:30:45.000Z</time>
      </trkpt>
      <trkpt lat="43.5915" lon="2.95014">
        <ele>442.5</ele>
        <time>2026-05-07T13:30:46.000Z</time>
      </trkpt>
      <trkpt lat="43.5915" lon="2.95015">
        <ele>442.3</ele>
        <time>2026-05-07T13:30:47.000Z</time>
      </trkpt>
      <trkpt lat="43.59149" lon="2.95017">
        <ele>442.2</ele>
        <time>2026-05-07T13:30:48.000Z</time>
      </trkpt>
      <trkpt lat="43.59148" lon="2.95019">
        <ele>441.8</ele>
        <time>2026-05-07T13:30:49.000Z</time>
      </trkpt>
      <trkpt lat="43.59147" lon="2.9502">
        <ele>441.8</ele>
        <time>2026-05-07T13:30:50.000Z</time>
      </trkpt>
      <trkpt lat="43.59146" lon="2.9502">
        <ele>442</ele>
        <time>2026-05-07T13:30:51.000Z</time>
      </trkpt>
      <trkpt lat="43.59145" lon="2.95021">
        <ele>442.3</ele>
        <time>2026-05-07T13:30:52.000Z</time>
      </trkpt>
      <trkpt lat="43.59144" lon="2.95021">
        <ele>442.3</ele>
        <time>2026-05-07T13:30:53.000Z</time>
      </trkpt>
      <trkpt lat="43.59143" lon="2.95022">
        <ele>442.4</ele>
        <time>2026-05-07T13:30:54.000Z</time>
      </trkpt>
      <trkpt lat="43.59142" lon="2.95024">
        <ele>442.8</ele>
        <time>2026-05-07T13:30:55.000Z</time>
      </trkpt>
      <trkpt lat="43.59141" lon="2.95025">
        <ele>442.9</ele>
        <time>2026-05-07T13:30:56.000Z</time>
      </trkpt>
      <trkpt lat="43.59139" lon="2.95027">
        <ele>443.4</ele>
        <time>2026-05-07T13:30:57.000Z</time>
      </trkpt>
      <trkpt lat="43.59138" lon="2.95028">
        <ele>443.8</ele>
        <time>2026-05-07T13:30:58.000Z</time>
      </trkpt>
      <trkpt lat="43.59137" lon="2.95029">
        <ele>444.2</ele>
        <time>2026-05-07T13:30:59.000Z</time>
      </trkpt>
      <trkpt lat="43.59136" lon="2.95029">
        <ele>444.3</ele>
        <time>2026-05-07T13:31:00.000Z</time>
      </trkpt>
      <trkpt lat="43.59134" lon="2.9503">
        <ele>444.2</ele>
        <time>2026-05-07T13:31:01.000Z</time>
      </trkpt>
      <trkpt lat="43.59133" lon="2.95033">
        <ele>444.6</ele>
        <time>2026-05-07T13:31:02.000Z</time>
      </trkpt>
      <trkpt lat="43.59133" lon="2.95034">
        <ele>444.8</ele>
        <time>2026-05-07T13:31:03.000Z</time>
      </trkpt>
      <trkpt lat="43.59132" lon="2.95036">
        <ele>445.2</ele>
        <time>2026-05-07T13:31:04.000Z</time>
      </trkpt>
      <trkpt lat="43.59132" lon="2.95037">
        <ele>445.2</ele>
        <time>2026-05-07T13:31:05.000Z</time>
      </trkpt>
      <trkpt lat="43.59132" lon="2.95039">
        <ele>444.8</ele>
        <time>2026-05-07T13:31:06.000Z</time>
      </trkpt>
      <trkpt lat="43.59132" lon="2.9504">
        <ele>443.9</ele>
        <time>2026-05-07T13:31:07.000Z</time>
      </trkpt>
      <trkpt lat="43.59131" lon="2.95041">
        <ele>443.5</ele>
        <time>2026-05-07T13:31:08.000Z</time>
      </trkpt>
      <trkpt lat="43.5913" lon="2.95042">
        <ele>443.6</ele>
        <time>2026-05-07T13:31:09.000Z</time>
      </trkpt>
      <trkpt lat="43.59129" lon="2.95043">
        <ele>443.3</ele>
        <time>2026-05-07T13:31:10.000Z</time>
      </trkpt>
      <trkpt lat="43.59128" lon="2.95044">
        <ele>443.2</ele>
        <time>2026-05-07T13:31:11.000Z</time>
      </trkpt>
      <trkpt lat="43.59127" lon="2.95044">
        <ele>443.4</ele>
        <time>2026-05-07T13:31:12.000Z</time>
      </trkpt>
      <trkpt lat="43.59125" lon="2.95046">
        <ele>443.2</ele>
        <time>2026-05-07T13:31:13.000Z</time>
      </trkpt>
      <trkpt lat="43.59125" lon="2.95048">
        <ele>443.1</ele>
        <time>2026-05-07T13:31:14.000Z</time>
      </trkpt>
      <trkpt lat="43.59125" lon="2.9505">
        <ele>443.1</ele>
        <time>2026-05-07T13:31:15.000Z</time>
      </trkpt>
      <trkpt lat="43.59125" lon="2.95052">
        <ele>443.3</ele>
        <time>2026-05-07T13:31:16.000Z</time>
      </trkpt>
      <trkpt lat="43.59126" lon="2.95054">
        <ele>443.4</ele>
        <time>2026-05-07T13:31:17.000Z</time>
      </trkpt>
      <trkpt lat="43.59125" lon="2.95057">
        <ele>443.7</ele>
        <time>2026-05-07T13:31:18.000Z</time>
      </trkpt>
      <trkpt lat="43.59125" lon="2.9506">
        <ele>444.1</ele>
        <time>2026-05-07T13:31:19.000Z</time>
      </trkpt>
      <trkpt lat="43.59124" lon="2.95062">
        <ele>444.1</ele>
        <time>2026-05-07T13:31:20.000Z</time>
      </trkpt>
      <trkpt lat="43.59122" lon="2.95063">
        <ele>443.8</ele>
        <time>2026-05-07T13:31:21.000Z</time>
      </trkpt>
      <trkpt lat="43.59121" lon="2.95065">
        <ele>443.2</ele>
        <time>2026-05-07T13:31:22.000Z</time>
      </trkpt>
      <trkpt lat="43.5912" lon="2.95067">
        <ele>442.8</ele>
        <time>2026-05-07T13:31:23.000Z</time>
      </trkpt>
      <trkpt lat="43.59119" lon="2.95068">
        <ele>442.4</ele>
        <time>2026-05-07T13:31:24.000Z</time>
      </trkpt>
      <trkpt lat="43.59118" lon="2.95069">
        <ele>442.3</ele>
        <time>2026-05-07T13:31:25.000Z</time>
      </trkpt>
      <trkpt lat="43.59118" lon="2.95071">
        <ele>442.1</ele>
        <time>2026-05-07T13:31:26.000Z</time>
      </trkpt>
      <trkpt lat="43.59117" lon="2.95072">
        <ele>442.4</ele>
        <time>2026-05-07T13:31:27.000Z</time>
      </trkpt>
      <trkpt lat="43.59116" lon="2.95074">
        <ele>442.7</ele>
        <time>2026-05-07T13:31:28.000Z</time>
      </trkpt>
      <trkpt lat="43.59115" lon="2.95076">
        <ele>442.7</ele>
        <time>2026-05-07T13:31:29.000Z</time>
      </trkpt>
      <trkpt lat="43.59114" lon="2.95078">
        <ele>443.3</ele>
        <time>2026-05-07T13:31:30.000Z</time>
      </trkpt>
      <trkpt lat="43.59113" lon="2.95079">
        <ele>443.7</ele>
        <time>2026-05-07T13:31:31.000Z</time>
      </trkpt>
      <trkpt lat="43.59112" lon="2.9508">
        <ele>443.6</ele>
        <time>2026-05-07T13:31:32.000Z</time>
      </trkpt>
      <trkpt lat="43.59111" lon="2.95081">
        <ele>443.6</ele>
        <time>2026-05-07T13:31:33.000Z</time>
      </trkpt>
      <trkpt lat="43.59111" lon="2.95081">
        <ele>443.3</ele>
        <time>2026-05-07T13:31:34.000Z</time>
      </trkpt>
      <trkpt lat="43.5911" lon="2.95082">
        <ele>443.8</ele>
        <time>2026-05-07T13:31:35.000Z</time>
      </trkpt>
      <trkpt lat="43.5911" lon="2.95083">
        <ele>444.2</ele>
        <time>2026-05-07T13:31:36.000Z</time>
      </trkpt>
      <trkpt lat="43.59109" lon="2.95084">
        <ele>443.9</ele>
        <time>2026-05-07T13:31:37.000Z</time>
      </trkpt>
      <trkpt lat="43.59108" lon="2.95085">
        <ele>443.4</ele>
        <time>2026-05-07T13:31:38.000Z</time>
      </trkpt>
      <trkpt lat="43.59107" lon="2.95087">
        <ele>443</ele>
        <time>2026-05-07T13:31:39.000Z</time>
      </trkpt>
      <trkpt lat="43.59106" lon="2.95088">
        <ele>442.9</ele>
        <time>2026-05-07T13:31:40.000Z</time>
      </trkpt>
      <trkpt lat="43.59104" lon="2.95088">
        <ele>442.6</ele>
        <time>2026-05-07T13:31:41.000Z</time>
      </trkpt>
      <trkpt lat="43.59104" lon="2.95089">
        <ele>441.7</ele>
        <time>2026-05-07T13:31:42.000Z</time>
      </trkpt>
      <trkpt lat="43.59103" lon="2.95089">
        <ele>441.4</ele>
        <time>2026-05-07T13:31:43.000Z</time>
      </trkpt>
      <trkpt lat="43.59102" lon="2.9509">
        <ele>441.1</ele>
        <time>2026-05-07T13:31:44.000Z</time>
      </trkpt>
      <trkpt lat="43.59101" lon="2.9509">
        <ele>440.5</ele>
        <time>2026-05-07T13:31:45.000Z</time>
      </trkpt>
      <trkpt lat="43.591" lon="2.9509">
        <ele>440.3</ele>
        <time>2026-05-07T13:31:46.000Z</time>
      </trkpt>
      <trkpt lat="43.59099" lon="2.95091">
        <ele>440.4</ele>
        <time>2026-05-07T13:31:47.000Z</time>
      </trkpt>
      <trkpt lat="43.59099" lon="2.95093">
        <ele>441.1</ele>
        <time>2026-05-07T13:31:48.000Z</time>
      </trkpt>
      <trkpt lat="43.59098" lon="2.95093">
        <ele>441.3</ele>
        <time>2026-05-07T13:31:49.000Z</time>
      </trkpt>
      <trkpt lat="43.59097" lon="2.95094">
        <ele>441.6</ele>
        <time>2026-05-07T13:31:50.000Z</time>
      </trkpt>
      <trkpt lat="43.59096" lon="2.95095">
        <ele>441.2</ele>
        <time>2026-05-07T13:31:51.000Z</time>
      </trkpt>
      <trkpt lat="43.59095" lon="2.95098">
        <ele>440.6</ele>
        <time>2026-05-07T13:31:52.000Z</time>
      </trkpt>
      <trkpt lat="43.59095" lon="2.951">
        <ele>440.6</ele>
        <time>2026-05-07T13:31:53.000Z</time>
      </trkpt>
      <trkpt lat="43.59093" lon="2.95102">
        <ele>441</ele>
        <time>2026-05-07T13:31:54.000Z</time>
      </trkpt>
      <trkpt lat="43.59092" lon="2.95103">
        <ele>441.4</ele>
        <time>2026-05-07T13:31:55.000Z</time>
      </trkpt>
      <trkpt lat="43.59091" lon="2.95105">
        <ele>441.2</ele>
        <time>2026-05-07T13:31:56.000Z</time>
      </trkpt>
      <trkpt lat="43.59091" lon="2.95106">
        <ele>441.3</ele>
        <time>2026-05-07T13:31:57.000Z</time>
      </trkpt>
      <trkpt lat="43.5909" lon="2.95108">
        <ele>440.6</ele>
        <time>2026-05-07T13:31:58.000Z</time>
      </trkpt>
      <trkpt lat="43.59089" lon="2.95109">
        <ele>439.7</ele>
        <time>2026-05-07T13:31:59.000Z</time>
      </trkpt>
      <trkpt lat="43.59088" lon="2.95109">
        <ele>439.7</ele>
        <time>2026-05-07T13:32:00.000Z</time>
      </trkpt>
      <trkpt lat="43.59087" lon="2.95111">
        <ele>439.8</ele>
        <time>2026-05-07T13:32:01.000Z</time>
      </trkpt>
      <trkpt lat="43.59086" lon="2.95112">
        <ele>439.4</ele>
        <time>2026-05-07T13:32:02.000Z</time>
      </trkpt>
      <trkpt lat="43.59085" lon="2.95111">
        <ele>439</ele>
        <time>2026-05-07T13:32:03.000Z</time>
      </trkpt>
      <trkpt lat="43.59084" lon="2.95112">
        <ele>438.6</ele>
        <time>2026-05-07T13:32:04.000Z</time>
      </trkpt>
      <trkpt lat="43.59083" lon="2.95113">
        <ele>438.2</ele>
        <time>2026-05-07T13:32:05.000Z</time>
      </trkpt>
      <trkpt lat="43.59082" lon="2.95114">
        <ele>437.9</ele>
        <time>2026-05-07T13:32:06.000Z</time>
      </trkpt>
      <trkpt lat="43.59081" lon="2.95115">
        <ele>437.8</ele>
        <time>2026-05-07T13:32:07.000Z</time>
      </trkpt>
      <trkpt lat="43.5908" lon="2.95117">
        <ele>437.7</ele>
        <time>2026-05-07T13:32:08.000Z</time>
      </trkpt>
      <trkpt lat="43.59079" lon="2.95117">
        <ele>438</ele>
        <time>2026-05-07T13:32:09.000Z</time>
      </trkpt>
      <trkpt lat="43.59079" lon="2.95118">
        <ele>438.3</ele>
        <time>2026-05-07T13:32:10.000Z</time>
      </trkpt>
      <trkpt lat="43.59078" lon="2.95119">
        <ele>438.2</ele>
        <time>2026-05-07T13:32:11.000Z</time>
      </trkpt>
      <trkpt lat="43.59076" lon="2.9512">
        <ele>438.4</ele>
        <time>2026-05-07T13:32:12.000Z</time>
      </trkpt>
      <trkpt lat="43.59074" lon="2.95121">
        <ele>438.1</ele>
        <time>2026-05-07T13:32:13.000Z</time>
      </trkpt>
      <trkpt lat="43.59072" lon="2.95121">
        <ele>437.9</ele>
        <time>2026-05-07T13:32:14.000Z</time>
      </trkpt>
      <trkpt lat="43.59071" lon="2.9512">
        <ele>437.8</ele>
        <time>2026-05-07T13:32:15.000Z</time>
      </trkpt>
      <trkpt lat="43.59069" lon="2.95119">
        <ele>438.1</ele>
        <time>2026-05-07T13:32:16.000Z</time>
      </trkpt>
      <trkpt lat="43.59067" lon="2.95118">
        <ele>438.4</ele>
        <time>2026-05-07T13:32:17.000Z</time>
      </trkpt>
      <trkpt lat="43.59066" lon="2.95117">
        <ele>439</ele>
        <time>2026-05-07T13:32:18.000Z</time>
      </trkpt>
      <trkpt lat="43.59065" lon="2.95116">
        <ele>439.6</ele>
        <time>2026-05-07T13:32:19.000Z</time>
      </trkpt>
      <trkpt lat="43.59063" lon="2.95117">
        <ele>439.6</ele>
        <time>2026-05-07T13:32:20.000Z</time>
      </trkpt>
      <trkpt lat="43.59062" lon="2.95116">
        <ele>439.3</ele>
        <time>2026-05-07T13:32:21.000Z</time>
      </trkpt>
      <trkpt lat="43.59061" lon="2.95116">
        <ele>439.3</ele>
        <time>2026-05-07T13:32:22.000Z</time>
      </trkpt>
      <trkpt lat="43.5906" lon="2.95117">
        <ele>439.6</ele>
        <time>2026-05-07T13:32:23.000Z</time>
      </trkpt>
      <trkpt lat="43.59059" lon="2.95117">
        <ele>439.5</ele>
        <time>2026-05-07T13:32:24.000Z</time>
      </trkpt>
      <trkpt lat="43.59057" lon="2.95116">
        <ele>439.4</ele>
        <time>2026-05-07T13:32:25.000Z</time>
      </trkpt>
      <trkpt lat="43.59055" lon="2.95115">
        <ele>439.5</ele>
        <time>2026-05-07T13:32:26.000Z</time>
      </trkpt>
      <trkpt lat="43.59053" lon="2.95114">
        <ele>439.7</ele>
        <time>2026-05-07T13:32:27.000Z</time>
      </trkpt>
      <trkpt lat="43.59051" lon="2.95114">
        <ele>440.4</ele>
        <time>2026-05-07T13:32:28.000Z</time>
      </trkpt>
      <trkpt lat="43.5905" lon="2.95112">
        <ele>440.9</ele>
        <time>2026-05-07T13:32:29.000Z</time>
      </trkpt>
      <trkpt lat="43.59049" lon="2.95112">
        <ele>440.8</ele>
        <time>2026-05-07T13:32:30.000Z</time>
      </trkpt>
      <trkpt lat="43.59048" lon="2.95111">
        <ele>440.8</ele>
        <time>2026-05-07T13:32:31.000Z</time>
      </trkpt>
      <trkpt lat="43.59046" lon="2.95112">
        <ele>441</ele>
        <time>2026-05-07T13:32:32.000Z</time>
      </trkpt>
      <trkpt lat="43.59044" lon="2.95111">
        <ele>441.6</ele>
        <time>2026-05-07T13:32:33.000Z</time>
      </trkpt>
      <trkpt lat="43.59042" lon="2.95111">
        <ele>441.7</ele>
        <time>2026-05-07T13:32:34.000Z</time>
      </trkpt>
      <trkpt lat="43.59041" lon="2.95111">
        <ele>442</ele>
        <time>2026-05-07T13:32:35.000Z</time>
      </trkpt>
      <trkpt lat="43.5904" lon="2.9511">
        <ele>441.5</ele>
        <time>2026-05-07T13:32:36.000Z</time>
      </trkpt>
      <trkpt lat="43.59039" lon="2.9511">
        <ele>441.3</ele>
        <time>2026-05-07T13:32:37.000Z</time>
      </trkpt>
      <trkpt lat="43.59038" lon="2.95109">
        <ele>441.7</ele>
        <time>2026-05-07T13:32:38.000Z</time>
      </trkpt>
      <trkpt lat="43.59037" lon="2.95109">
        <ele>441.4</ele>
        <time>2026-05-07T13:32:39.000Z</time>
      </trkpt>
      <trkpt lat="43.59036" lon="2.95109">
        <ele>441.1</ele>
        <time>2026-05-07T13:32:40.000Z</time>
      </trkpt>
      <trkpt lat="43.59034" lon="2.95109">
        <ele>440.9</ele>
        <time>2026-05-07T13:32:41.000Z</time>
      </trkpt>
      <trkpt lat="43.59033" lon="2.95109">
        <ele>440.6</ele>
        <time>2026-05-07T13:32:42.000Z</time>
      </trkpt>
      <trkpt lat="43.59031" lon="2.95108">
        <ele>440.5</ele>
        <time>2026-05-07T13:32:43.000Z</time>
      </trkpt>
      <trkpt lat="43.59029" lon="2.95107">
        <ele>440.5</ele>
        <time>2026-05-07T13:32:44.000Z</time>
      </trkpt>
      <trkpt lat="43.59027" lon="2.95106">
        <ele>440.6</ele>
        <time>2026-05-07T13:32:45.000Z</time>
      </trkpt>
      <trkpt lat="43.59026" lon="2.95105">
        <ele>440.7</ele>
        <time>2026-05-07T13:32:46.000Z</time>
      </trkpt>
      <trkpt lat="43.59025" lon="2.95104">
        <ele>440.9</ele>
        <time>2026-05-07T13:32:47.000Z</time>
      </trkpt>
      <trkpt lat="43.59024" lon="2.95104">
        <ele>440.9</ele>
        <time>2026-05-07T13:32:48.000Z</time>
      </trkpt>
      <trkpt lat="43.59023" lon="2.95104">
        <ele>441</ele>
        <time>2026-05-07T13:32:49.000Z</time>
      </trkpt>
      <trkpt lat="43.59022" lon="2.95105">
        <ele>441</ele>
        <time>2026-05-07T13:32:50.000Z</time>
      </trkpt>
      <trkpt lat="43.59021" lon="2.95105">
        <ele>440.8</ele>
        <time>2026-05-07T13:32:51.000Z</time>
      </trkpt>
      <trkpt lat="43.59019" lon="2.95105">
        <ele>439.9</ele>
        <time>2026-05-07T13:32:52.000Z</time>
      </trkpt>
      <trkpt lat="43.59017" lon="2.95105">
        <ele>439.6</ele>
        <time>2026-05-07T13:32:53.000Z</time>
      </trkpt>
      <trkpt lat="43.59016" lon="2.95105">
        <ele>439</ele>
        <time>2026-05-07T13:32:54.000Z</time>
      </trkpt>
      <trkpt lat="43.59015" lon="2.95104">
        <ele>438.8</ele>
        <time>2026-05-07T13:32:55.000Z</time>
      </trkpt>
      <trkpt lat="43.59015" lon="2.95102">
        <ele>439.3</ele>
        <time>2026-05-07T13:32:56.000Z</time>
      </trkpt>
      <trkpt lat="43.59014" lon="2.95101">
        <ele>439.5</ele>
        <time>2026-05-07T13:32:57.000Z</time>
      </trkpt>
      <trkpt lat="43.59014" lon="2.951">
        <ele>439.8</ele>
        <time>2026-05-07T13:32:58.000Z</time>
      </trkpt>
      <trkpt lat="43.59013" lon="2.95099">
        <ele>439.7</ele>
        <time>2026-05-07T13:32:59.000Z</time>
      </trkpt>
      <trkpt lat="43.5901" lon="2.95098">
        <ele>440.9</ele>
        <time>2026-05-07T13:33:00.000Z</time>
      </trkpt>
      <trkpt lat="43.59008" lon="2.95097">
        <ele>441</ele>
        <time>2026-05-07T13:33:01.000Z</time>
      </trkpt>
      <trkpt lat="43.59006" lon="2.95097">
        <ele>440.5</ele>
        <time>2026-05-07T13:33:02.000Z</time>
      </trkpt>
      <trkpt lat="43.59005" lon="2.95096">
        <ele>440.4</ele>
        <time>2026-05-07T13:33:03.000Z</time>
      </trkpt>
      <trkpt lat="43.59004" lon="2.95094">
        <ele>440.5</ele>
        <time>2026-05-07T13:33:04.000Z</time>
      </trkpt>
      <trkpt lat="43.59003" lon="2.95094">
        <ele>439.8</ele>
        <time>2026-05-07T13:33:05.000Z</time>
      </trkpt>
      <trkpt lat="43.59002" lon="2.95094">
        <ele>438.8</ele>
        <time>2026-05-07T13:33:06.000Z</time>
      </trkpt>
      <trkpt lat="43.59001" lon="2.95093">
        <ele>438</ele>
        <time>2026-05-07T13:33:07.000Z</time>
      </trkpt>
      <trkpt lat="43.59" lon="2.95094">
        <ele>437.5</ele>
        <time>2026-05-07T13:33:08.000Z</time>
      </trkpt>
      <trkpt lat="43.58998" lon="2.95095">
        <ele>437</ele>
        <time>2026-05-07T13:33:09.000Z</time>
      </trkpt>
      <trkpt lat="43.58996" lon="2.95096">
        <ele>437.1</ele>
        <time>2026-05-07T13:33:10.000Z</time>
      </trkpt>
      <trkpt lat="43.58994" lon="2.95096">
        <ele>437.7</ele>
        <time>2026-05-07T13:33:11.000Z</time>
      </trkpt>
      <trkpt lat="43.58993" lon="2.95096">
        <ele>437.8</ele>
        <time>2026-05-07T13:33:12.000Z</time>
      </trkpt>
      <trkpt lat="43.58992" lon="2.95097">
        <ele>437.4</ele>
        <time>2026-05-07T13:33:13.000Z</time>
      </trkpt>
      <trkpt lat="43.58991" lon="2.95097">
        <ele>437.2</ele>
        <time>2026-05-07T13:33:14.000Z</time>
      </trkpt>
      <trkpt lat="43.5899" lon="2.95097">
        <ele>436.8</ele>
        <time>2026-05-07T13:33:15.000Z</time>
      </trkpt>
      <trkpt lat="43.58989" lon="2.95098">
        <ele>436.8</ele>
        <time>2026-05-07T13:33:16.000Z</time>
      </trkpt>
      <trkpt lat="43.58988" lon="2.95098">
        <ele>436.8</ele>
        <time>2026-05-07T13:33:17.000Z</time>
      </trkpt>
      <trkpt lat="43.58987" lon="2.95098">
        <ele>436.3</ele>
        <time>2026-05-07T13:33:18.000Z</time>
      </trkpt>
      <trkpt lat="43.58985" lon="2.95098">
        <ele>436.1</ele>
        <time>2026-05-07T13:33:19.000Z</time>
      </trkpt>
      <trkpt lat="43.58984" lon="2.95099">
        <ele>436.1</ele>
        <time>2026-05-07T13:33:20.000Z</time>
      </trkpt>
      <trkpt lat="43.58982" lon="2.95099">
        <ele>436.3</ele>
        <time>2026-05-07T13:33:21.000Z</time>
      </trkpt>
      <trkpt lat="43.58981" lon="2.95099">
        <ele>436.8</ele>
        <time>2026-05-07T13:33:22.000Z</time>
      </trkpt>
      <trkpt lat="43.5898" lon="2.95099">
        <ele>437.5</ele>
        <time>2026-05-07T13:33:23.000Z</time>
      </trkpt>
      <trkpt lat="43.58979" lon="2.95099">
        <ele>438.1</ele>
        <time>2026-05-07T13:33:24.000Z</time>
      </trkpt>
      <trkpt lat="43.58978" lon="2.951">
        <ele>437.6</ele>
        <time>2026-05-07T13:33:25.000Z</time>
      </trkpt>
      <trkpt lat="43.58977" lon="2.95101">
        <ele>437.2</ele>
        <time>2026-05-07T13:33:26.000Z</time>
      </trkpt>
      <trkpt lat="43.58976" lon="2.95101">
        <ele>436.3</ele>
        <time>2026-05-07T13:33:27.000Z</time>
      </trkpt>
      <trkpt lat="43.58975" lon="2.95102">
        <ele>435.4</ele>
        <time>2026-05-07T13:33:28.000Z</time>
      </trkpt>
      <trkpt lat="43.58974" lon="2.95102">
        <ele>435.4</ele>
        <time>2026-05-07T13:33:29.000Z</time>
      </trkpt>
      <trkpt lat="43.58973" lon="2.95102">
        <ele>435.8</ele>
        <time>2026-05-07T13:33:30.000Z</time>
      </trkpt>
      <trkpt lat="43.58972" lon="2.95103">
        <ele>436.5</ele>
        <time>2026-05-07T13:33:31.000Z</time>
      </trkpt>
      <trkpt lat="43.58971" lon="2.95103">
        <ele>437.1</ele>
        <time>2026-05-07T13:33:32.000Z</time>
      </trkpt>
      <trkpt lat="43.58969" lon="2.95103">
        <ele>437.5</ele>
        <time>2026-05-07T13:33:33.000Z</time>
      </trkpt>
      <trkpt lat="43.58968" lon="2.95102">
        <ele>437.8</ele>
        <time>2026-05-07T13:33:34.000Z</time>
      </trkpt>
      <trkpt lat="43.58967" lon="2.95102">
        <ele>438</ele>
        <time>2026-05-07T13:33:35.000Z</time>
      </trkpt>
      <trkpt lat="43.58966" lon="2.95102">
        <ele>438.3</ele>
        <time>2026-05-07T13:33:36.000Z</time>
      </trkpt>
      <trkpt lat="43.58965" lon="2.95102">
        <ele>438.1</ele>
        <time>2026-05-07T13:33:37.000Z</time>
      </trkpt>
      <trkpt lat="43.58963" lon="2.95103">
        <ele>438.5</ele>
        <time>2026-05-07T13:33:38.000Z</time>
      </trkpt>
      <trkpt lat="43.58961" lon="2.95103">
        <ele>439.2</ele>
        <time>2026-05-07T13:33:39.000Z</time>
      </trkpt>
      <trkpt lat="43.58959" lon="2.95104">
        <ele>439.2</ele>
        <time>2026-05-07T13:33:40.000Z</time>
      </trkpt>
      <trkpt lat="43.58959" lon="2.95103">
        <ele>439</ele>
        <time>2026-05-07T13:33:41.000Z</time>
      </trkpt>
      <trkpt lat="43.58958" lon="2.95103">
        <ele>438.5</ele>
        <time>2026-05-07T13:33:42.000Z</time>
      </trkpt>
      <trkpt lat="43.58957" lon="2.95104">
        <ele>438.2</ele>
        <time>2026-05-07T13:33:43.000Z</time>
      </trkpt>
      <trkpt lat="43.58956" lon="2.95104">
        <ele>438.4</ele>
        <time>2026-05-07T13:33:44.000Z</time>
      </trkpt>
      <trkpt lat="43.58955" lon="2.95104">
        <ele>438.5</ele>
        <time>2026-05-07T13:33:45.000Z</time>
      </trkpt>
      <trkpt lat="43.58953" lon="2.95105">
        <ele>438.8</ele>
        <time>2026-05-07T13:33:46.000Z</time>
      </trkpt>
      <trkpt lat="43.58952" lon="2.95105">
        <ele>439.1</ele>
        <time>2026-05-07T13:33:47.000Z</time>
      </trkpt>
      <trkpt lat="43.58951" lon="2.95104">
        <ele>439.2</ele>
        <time>2026-05-07T13:33:48.000Z</time>
      </trkpt>
      <trkpt lat="43.5895" lon="2.95104">
        <ele>439.6</ele>
        <time>2026-05-07T13:33:49.000Z</time>
      </trkpt>
      <trkpt lat="43.58949" lon="2.95104">
        <ele>439.6</ele>
        <time>2026-05-07T13:33:50.000Z</time>
      </trkpt>
      <trkpt lat="43.58948" lon="2.95105">
        <ele>439.2</ele>
        <time>2026-05-07T13:33:51.000Z</time>
      </trkpt>
      <trkpt lat="43.58947" lon="2.95106">
        <ele>439.4</ele>
        <time>2026-05-07T13:33:52.000Z</time>
      </trkpt>
      <trkpt lat="43.58946" lon="2.95106">
        <ele>439.8</ele>
        <time>2026-05-07T13:33:53.000Z</time>
      </trkpt>
      <trkpt lat="43.58944" lon="2.95107">
        <ele>439.8</ele>
        <time>2026-05-07T13:33:54.000Z</time>
      </trkpt>
      <trkpt lat="43.58943" lon="2.95107">
        <ele>439.5</ele>
        <time>2026-05-07T13:33:55.000Z</time>
      </trkpt>
      <trkpt lat="43.58942" lon="2.95108">
        <ele>439.8</ele>
        <time>2026-05-07T13:33:56.000Z</time>
      </trkpt>
      <trkpt lat="43.58941" lon="2.95108">
        <ele>439.7</ele>
        <time>2026-05-07T13:33:57.000Z</time>
      </trkpt>
      <trkpt lat="43.5894" lon="2.95108">
        <ele>439.2</ele>
        <time>2026-05-07T13:33:58.000Z</time>
      </trkpt>
      <trkpt lat="43.58938" lon="2.95108">
        <ele>438.6</ele>
        <time>2026-05-07T13:33:59.000Z</time>
      </trkpt>
      <trkpt lat="43.58937" lon="2.95109">
        <ele>438.1</ele>
        <time>2026-05-07T13:34:00.000Z</time>
      </trkpt>
      <trkpt lat="43.58936" lon="2.9511">
        <ele>438.3</ele>
        <time>2026-05-07T13:34:01.000Z</time>
      </trkpt>
      <trkpt lat="43.58934" lon="2.9511">
        <ele>438.2</ele>
        <time>2026-05-07T13:34:02.000Z</time>
      </trkpt>
      <trkpt lat="43.58932" lon="2.95109">
        <ele>438</ele>
        <time>2026-05-07T13:34:03.000Z</time>
      </trkpt>
      <trkpt lat="43.5893" lon="2.9511">
        <ele>438</ele>
        <time>2026-05-07T13:34:04.000Z</time>
      </trkpt>
      <trkpt lat="43.58928" lon="2.95109">
        <ele>438.3</ele>
        <time>2026-05-07T13:34:05.000Z</time>
      </trkpt>
      <trkpt lat="43.58926" lon="2.95109">
        <ele>439</ele>
        <time>2026-05-07T13:34:06.000Z</time>
      </trkpt>
      <trkpt lat="43.58925" lon="2.95109">
        <ele>439.4</ele>
        <time>2026-05-07T13:34:07.000Z</time>
      </trkpt>
      <trkpt lat="43.58923" lon="2.95109">
        <ele>439.7</ele>
        <time>2026-05-07T13:34:08.000Z</time>
      </trkpt>
      <trkpt lat="43.58923" lon="2.95109">
        <ele>440.2</ele>
        <time>2026-05-07T13:34:09.000Z</time>
      </trkpt>
      <trkpt lat="43.58922" lon="2.95109">
        <ele>440</ele>
        <time>2026-05-07T13:34:10.000Z</time>
      </trkpt>
      <trkpt lat="43.58921" lon="2.9511">
        <ele>439.8</ele>
        <time>2026-05-07T13:34:11.000Z</time>
      </trkpt>
      <trkpt lat="43.5892" lon="2.95111">
        <ele>440.2</ele>
        <time>2026-05-07T13:34:12.000Z</time>
      </trkpt>
      <trkpt lat="43.58919" lon="2.95112">
        <ele>440.3</ele>
        <time>2026-05-07T13:34:13.000Z</time>
      </trkpt>
      <trkpt lat="43.58917" lon="2.95112">
        <ele>439.7</ele>
        <time>2026-05-07T13:34:14.000Z</time>
      </trkpt>
      <trkpt lat="43.58916" lon="2.95113">
        <ele>439</ele>
        <time>2026-05-07T13:34:15.000Z</time>
      </trkpt>
      <trkpt lat="43.58915" lon="2.95114">
        <ele>438.4</ele>
        <time>2026-05-07T13:34:16.000Z</time>
      </trkpt>
      <trkpt lat="43.58914" lon="2.95114">
        <ele>437.6</ele>
        <time>2026-05-07T13:34:17.000Z</time>
      </trkpt>
      <trkpt lat="43.58913" lon="2.95114">
        <ele>437</ele>
        <time>2026-05-07T13:34:18.000Z</time>
      </trkpt>
      <trkpt lat="43.58912" lon="2.95114">
        <ele>436.8</ele>
        <time>2026-05-07T13:34:19.000Z</time>
      </trkpt>
      <trkpt lat="43.58911" lon="2.95116">
        <ele>436.2</ele>
        <time>2026-05-07T13:34:20.000Z</time>
      </trkpt>
      <trkpt lat="43.58909" lon="2.95114">
        <ele>435.9</ele>
        <time>2026-05-07T13:34:21.000Z</time>
      </trkpt>
      <trkpt lat="43.58908" lon="2.95115">
        <ele>435.2</ele>
        <time>2026-05-07T13:34:22.000Z</time>
      </trkpt>
      <trkpt lat="43.58907" lon="2.95116">
        <ele>435.6</ele>
        <time>2026-05-07T13:34:23.000Z</time>
      </trkpt>
      <trkpt lat="43.58904" lon="2.95115">
        <ele>436.8</ele>
        <time>2026-05-07T13:34:24.999Z</time>
      </trkpt>
      <trkpt lat="43.58904" lon="2.95115">
        <ele>436.7</ele>
        <time>2026-05-07T13:34:25.999Z</time>
      </trkpt>
      <trkpt lat="43.58903" lon="2.95116">
        <ele>436.4</ele>
        <time>2026-05-07T13:34:26.999Z</time>
      </trkpt>
      <trkpt lat="43.58902" lon="2.95116">
        <ele>437</ele>
        <time>2026-05-07T13:34:27.999Z</time>
      </trkpt>
      <trkpt lat="43.58901" lon="2.95118">
        <ele>437.2</ele>
        <time>2026-05-07T13:34:28.999Z</time>
      </trkpt>
      <trkpt lat="43.589" lon="2.95119">
        <ele>436.8</ele>
        <time>2026-05-07T13:34:29.999Z</time>
      </trkpt>
      <trkpt lat="43.58898" lon="2.9512">
        <ele>436.4</ele>
        <time>2026-05-07T13:34:30.999Z</time>
      </trkpt>
      <trkpt lat="43.58897" lon="2.95121">
        <ele>436.7</ele>
        <time>2026-05-07T13:34:31.999Z</time>
      </trkpt>
      <trkpt lat="43.58896" lon="2.95122">
        <ele>436.8</ele>
        <time>2026-05-07T13:34:32.999Z</time>
      </trkpt>
      <trkpt lat="43.58895" lon="2.95122">
        <ele>436.5</ele>
        <time>2026-05-07T13:34:33.999Z</time>
      </trkpt>
      <trkpt lat="43.58894" lon="2.95123">
        <ele>436.3</ele>
        <time>2026-05-07T13:34:34.999Z</time>
      </trkpt>
      <trkpt lat="43.58893" lon="2.95124">
        <ele>436.1</ele>
        <time>2026-05-07T13:34:35.999Z</time>
      </trkpt>
      <trkpt lat="43.58891" lon="2.95124">
        <ele>436.1</ele>
        <time>2026-05-07T13:34:36.999Z</time>
      </trkpt>
      <trkpt lat="43.5889" lon="2.95125">
        <ele>436.5</ele>
        <time>2026-05-07T13:34:37.999Z</time>
      </trkpt>
      <trkpt lat="43.58888" lon="2.95125">
        <ele>436.9</ele>
        <time>2026-05-07T13:34:38.999Z</time>
      </trkpt>
      <trkpt lat="43.58888" lon="2.95125">
        <ele>437.7</ele>
        <time>2026-05-07T13:34:39.999Z</time>
      </trkpt>
      <trkpt lat="43.58887" lon="2.95126">
        <ele>438.3</ele>
        <time>2026-05-07T13:34:40.999Z</time>
      </trkpt>
      <trkpt lat="43.58887" lon="2.95127">
        <ele>437.9</ele>
        <time>2026-05-07T13:34:41.999Z</time>
      </trkpt>
      <trkpt lat="43.58887" lon="2.95128">
        <ele>437.8</ele>
        <time>2026-05-07T13:34:42.999Z</time>
      </trkpt>
      <trkpt lat="43.58886" lon="2.95129">
        <ele>438</ele>
        <time>2026-05-07T13:34:43.999Z</time>
      </trkpt>
      <trkpt lat="43.58885" lon="2.95129">
        <ele>438.9</ele>
        <time>2026-05-07T13:34:44.999Z</time>
      </trkpt>
      <trkpt lat="43.58883" lon="2.9513">
        <ele>439.3</ele>
        <time>2026-05-07T13:34:45.999Z</time>
      </trkpt>
      <trkpt lat="43.58882" lon="2.9513">
        <ele>439.2</ele>
        <time>2026-05-07T13:34:46.999Z</time>
      </trkpt>
      <trkpt lat="43.58881" lon="2.95131">
        <ele>439.4</ele>
        <time>2026-05-07T13:34:47.999Z</time>
      </trkpt>
      <trkpt lat="43.58879" lon="2.95131">
        <ele>439.4</ele>
        <time>2026-05-07T13:34:48.999Z</time>
      </trkpt>
      <trkpt lat="43.58878" lon="2.9513">
        <ele>439.2</ele>
        <time>2026-05-07T13:34:49.999Z</time>
      </trkpt>
      <trkpt lat="43.58876" lon="2.9513">
        <ele>439.4</ele>
        <time>2026-05-07T13:34:50.999Z</time>
      </trkpt>
      <trkpt lat="43.58874" lon="2.95129">
        <ele>439.7</ele>
        <time>2026-05-07T13:34:51.999Z</time>
      </trkpt>
      <trkpt lat="43.58873" lon="2.9513">
        <ele>439.7</ele>
        <time>2026-05-07T13:34:52.999Z</time>
      </trkpt>
      <trkpt lat="43.58871" lon="2.9513">
        <ele>439.4</ele>
        <time>2026-05-07T13:34:53.999Z</time>
      </trkpt>
      <trkpt lat="43.58869" lon="2.9513">
        <ele>438.7</ele>
        <time>2026-05-07T13:34:54.999Z</time>
      </trkpt>
      <trkpt lat="43.58868" lon="2.9513">
        <ele>438</ele>
        <time>2026-05-07T13:34:55.999Z</time>
      </trkpt>
      <trkpt lat="43.58867" lon="2.95131">
        <ele>437.3</ele>
        <time>2026-05-07T13:34:56.999Z</time>
      </trkpt>
      <trkpt lat="43.58865" lon="2.95131">
        <ele>436.9</ele>
        <time>2026-05-07T13:34:57.999Z</time>
      </trkpt>
      <trkpt lat="43.58865" lon="2.95131">
        <ele>436.4</ele>
        <time>2026-05-07T13:34:58.999Z</time>
      </trkpt>
      <trkpt lat="43.58863" lon="2.95132">
        <ele>436.3</ele>
        <time>2026-05-07T13:34:59.999Z</time>
      </trkpt>
      <trkpt lat="43.58862" lon="2.95132">
        <ele>436.7</ele>
        <time>2026-05-07T13:35:00.999Z</time>
      </trkpt>
      <trkpt lat="43.5886" lon="2.95133">
        <ele>436.6</ele>
        <time>2026-05-07T13:35:01.999Z</time>
      </trkpt>
      <trkpt lat="43.58859" lon="2.95133">
        <ele>436.8</ele>
        <time>2026-05-07T13:35:02.999Z</time>
      </trkpt>
      <trkpt lat="43.58858" lon="2.95133">
        <ele>436.7</ele>
        <time>2026-05-07T13:35:03.999Z</time>
      </trkpt>
      <trkpt lat="43.58856" lon="2.95133">
        <ele>436.1</ele>
        <time>2026-05-07T13:35:04.999Z</time>
      </trkpt>
      <trkpt lat="43.58855" lon="2.95133">
        <ele>436</ele>
        <time>2026-05-07T13:35:05.999Z</time>
      </trkpt>
      <trkpt lat="43.58853" lon="2.95133">
        <ele>436.4</ele>
        <time>2026-05-07T13:35:06.999Z</time>
      </trkpt>
      <trkpt lat="43.58853" lon="2.95133">
        <ele>436</ele>
        <time>2026-05-07T13:35:07.999Z</time>
      </trkpt>
      <trkpt lat="43.58853" lon="2.95133">
        <ele>436</ele>
        <time>2026-05-07T13:35:08.999Z</time>
      </trkpt>
      <trkpt lat="43.58852" lon="2.95134">
        <ele>435.9</ele>
        <time>2026-05-07T13:35:09.999Z</time>
      </trkpt>
      <trkpt lat="43.58851" lon="2.95135">
        <ele>435.5</ele>
        <time>2026-05-07T13:35:10.999Z</time>
      </trkpt>
      <trkpt lat="43.5885" lon="2.95135">
        <ele>435.2</ele>
        <time>2026-05-07T13:35:11.999Z</time>
      </trkpt>
      <trkpt lat="43.58849" lon="2.95136">
        <ele>434.5</ele>
        <time>2026-05-07T13:35:12.999Z</time>
      </trkpt>
      <trkpt lat="43.58848" lon="2.95135">
        <ele>434.7</ele>
        <time>2026-05-07T13:35:13.999Z</time>
      </trkpt>
      <trkpt lat="43.58846" lon="2.95136">
        <ele>433.5</ele>
        <time>2026-05-07T13:35:14.999Z</time>
      </trkpt>
      <trkpt lat="43.58845" lon="2.95135">
        <ele>432.9</ele>
        <time>2026-05-07T13:35:15.999Z</time>
      </trkpt>
      <trkpt lat="43.58844" lon="2.95136">
        <ele>431.7</ele>
        <time>2026-05-07T13:35:16.999Z</time>
      </trkpt>
      <trkpt lat="43.58843" lon="2.95136">
        <ele>431.3</ele>
        <time>2026-05-07T13:35:17.999Z</time>
      </trkpt>
      <trkpt lat="43.58842" lon="2.95137">
        <ele>431.1</ele>
        <time>2026-05-07T13:35:18.999Z</time>
      </trkpt>
      <trkpt lat="43.58842" lon="2.95138">
        <ele>430.5</ele>
        <time>2026-05-07T13:35:19.999Z</time>
      </trkpt>
      <trkpt lat="43.58841" lon="2.95138">
        <ele>430.2</ele>
        <time>2026-05-07T13:35:20.999Z</time>
      </trkpt>
      <trkpt lat="43.58839" lon="2.95138">
        <ele>430.6</ele>
        <time>2026-05-07T13:35:21.999Z</time>
      </trkpt>
      <trkpt lat="43.58838" lon="2.95138">
        <ele>430.5</ele>
        <time>2026-05-07T13:35:22.999Z</time>
      </trkpt>
      <trkpt lat="43.58836" lon="2.95137">
        <ele>431.2</ele>
        <time>2026-05-07T13:35:23.999Z</time>
      </trkpt>
      <trkpt lat="43.58834" lon="2.95137">
        <ele>431.8</ele>
        <time>2026-05-07T13:35:24.999Z</time>
      </trkpt>
      <trkpt lat="43.58834" lon="2.95137">
        <ele>432.3</ele>
        <time>2026-05-07T13:35:25.999Z</time>
      </trkpt>
      <trkpt lat="43.58832" lon="2.95138">
        <ele>432.3</ele>
        <time>2026-05-07T13:35:26.999Z</time>
      </trkpt>
      <trkpt lat="43.58831" lon="2.95139">
        <ele>431.8</ele>
        <time>2026-05-07T13:35:27.999Z</time>
      </trkpt>
      <trkpt lat="43.5883" lon="2.95141">
        <ele>431.2</ele>
        <time>2026-05-07T13:35:28.999Z</time>
      </trkpt>
      <trkpt lat="43.58829" lon="2.95141">
        <ele>430.5</ele>
        <time>2026-05-07T13:35:29.999Z</time>
      </trkpt>
      <trkpt lat="43.58827" lon="2.95142">
        <ele>430.3</ele>
        <time>2026-05-07T13:35:30.999Z</time>
      </trkpt>
      <trkpt lat="43.58825" lon="2.95142">
        <ele>429.8</ele>
        <time>2026-05-07T13:35:31.999Z</time>
      </trkpt>
      <trkpt lat="43.58823" lon="2.95141">
        <ele>430.5</ele>
        <time>2026-05-07T13:35:32.999Z</time>
      </trkpt>
      <trkpt lat="43.58822" lon="2.95141">
        <ele>430.8</ele>
        <time>2026-05-07T13:35:33.999Z</time>
      </trkpt>
      <trkpt lat="43.58821" lon="2.95141">
        <ele>430.7</ele>
        <time>2026-05-07T13:35:34.999Z</time>
      </trkpt>
      <trkpt lat="43.58821" lon="2.95141">
        <ele>430.3</ele>
        <time>2026-05-07T13:35:35.999Z</time>
      </trkpt>
      <trkpt lat="43.5882" lon="2.95141">
        <ele>430.2</ele>
        <time>2026-05-07T13:35:36.999Z</time>
      </trkpt>
      <trkpt lat="43.58818" lon="2.95141">
        <ele>430.1</ele>
        <time>2026-05-07T13:35:37.999Z</time>
      </trkpt>
      <trkpt lat="43.58817" lon="2.95142">
        <ele>429.6</ele>
        <time>2026-05-07T13:35:38.999Z</time>
      </trkpt>
      <trkpt lat="43.58815" lon="2.95143">
        <ele>429.8</ele>
        <time>2026-05-07T13:35:39.999Z</time>
      </trkpt>
      <trkpt lat="43.58814" lon="2.95143">
        <ele>430</ele>
        <time>2026-05-07T13:35:40.999Z</time>
      </trkpt>
      <trkpt lat="43.58813" lon="2.95143">
        <ele>430.1</ele>
        <time>2026-05-07T13:35:41.999Z</time>
      </trkpt>
      <trkpt lat="43.58811" lon="2.95143">
        <ele>429.9</ele>
        <time>2026-05-07T13:35:42.999Z</time>
      </trkpt>
      <trkpt lat="43.5881" lon="2.95144">
        <ele>429.3</ele>
        <time>2026-05-07T13:35:43.999Z</time>
      </trkpt>
      <trkpt lat="43.58809" lon="2.95143">
        <ele>429</ele>
        <time>2026-05-07T13:35:44.999Z</time>
      </trkpt>
      <trkpt lat="43.58808" lon="2.95144">
        <ele>428.7</ele>
        <time>2026-05-07T13:35:45.999Z</time>
      </trkpt>
      <trkpt lat="43.58807" lon="2.95145">
        <ele>429</ele>
        <time>2026-05-07T13:35:46.999Z</time>
      </trkpt>
      <trkpt lat="43.58806" lon="2.95144">
        <ele>429.1</ele>
        <time>2026-05-07T13:35:47.999Z</time>
      </trkpt>
      <trkpt lat="43.58804" lon="2.95143">
        <ele>429.8</ele>
        <time>2026-05-07T13:35:48.999Z</time>
      </trkpt>
      <trkpt lat="43.58803" lon="2.95143">
        <ele>429.9</ele>
        <time>2026-05-07T13:35:49.999Z</time>
      </trkpt>
      <trkpt lat="43.58802" lon="2.95144">
        <ele>430.5</ele>
        <time>2026-05-07T13:35:50.999Z</time>
      </trkpt>
      <trkpt lat="43.588" lon="2.95144">
        <ele>431.3</ele>
        <time>2026-05-07T13:35:51.999Z</time>
      </trkpt>
      <trkpt lat="43.58799" lon="2.95144">
        <ele>431.9</ele>
        <time>2026-05-07T13:35:52.999Z</time>
      </trkpt>
      <trkpt lat="43.58797" lon="2.95144">
        <ele>431.7</ele>
        <time>2026-05-07T13:35:53.999Z</time>
      </trkpt>
      <trkpt lat="43.58796" lon="2.95145">
        <ele>431.5</ele>
        <time>2026-05-07T13:35:54.999Z</time>
      </trkpt>
      <trkpt lat="43.58795" lon="2.95147">
        <ele>431.2</ele>
        <time>2026-05-07T13:35:55.999Z</time>
      </trkpt>
      <trkpt lat="43.58794" lon="2.95147">
        <ele>430.7</ele>
        <time>2026-05-07T13:35:56.999Z</time>
      </trkpt>
      <trkpt lat="43.58792" lon="2.95149">
        <ele>430.8</ele>
        <time>2026-05-07T13:35:57.999Z</time>
      </trkpt>
      <trkpt lat="43.5879" lon="2.95151">
        <ele>430.7</ele>
        <time>2026-05-07T13:35:58.999Z</time>
      </trkpt>
      <trkpt lat="43.5879" lon="2.95152">
        <ele>430.3</ele>
        <time>2026-05-07T13:35:59.999Z</time>
      </trkpt>
      <trkpt lat="43.58789" lon="2.95153">
        <ele>430.1</ele>
        <time>2026-05-07T13:36:00.999Z</time>
      </trkpt>
      <trkpt lat="43.58789" lon="2.95154">
        <ele>429.8</ele>
        <time>2026-05-07T13:36:01.999Z</time>
      </trkpt>
      <trkpt lat="43.58789" lon="2.95156">
        <ele>429.4</ele>
        <time>2026-05-07T13:36:02.999Z</time>
      </trkpt>
      <trkpt lat="43.58788" lon="2.95158">
        <ele>429</ele>
        <time>2026-05-07T13:36:03.999Z</time>
      </trkpt>
      <trkpt lat="43.58788" lon="2.95159">
        <ele>429.1</ele>
        <time>2026-05-07T13:36:04.999Z</time>
      </trkpt>
      <trkpt lat="43.58788" lon="2.95162">
        <ele>429</ele>
        <time>2026-05-07T13:36:05.999Z</time>
      </trkpt>
      <trkpt lat="43.58787" lon="2.95163">
        <ele>428.7</ele>
        <time>2026-05-07T13:36:06.999Z</time>
      </trkpt>
      <trkpt lat="43.58788" lon="2.95165">
        <ele>428.2</ele>
        <time>2026-05-07T13:36:07.999Z</time>
      </trkpt>
      <trkpt lat="43.58788" lon="2.95168">
        <ele>427.8</ele>
        <time>2026-05-07T13:36:08.999Z</time>
      </trkpt>
      <trkpt lat="43.58787" lon="2.95171">
        <ele>427.6</ele>
        <time>2026-05-07T13:36:09.999Z</time>
      </trkpt>
      <trkpt lat="43.58787" lon="2.95172">
        <ele>428.1</ele>
        <time>2026-05-07T13:36:10.999Z</time>
      </trkpt>
      <trkpt lat="43.58787" lon="2.95174">
        <ele>428.4</ele>
        <time>2026-05-07T13:36:11.999Z</time>
      </trkpt>
      <trkpt lat="43.58786" lon="2.95175">
        <ele>428.9</ele>
        <time>2026-05-07T13:36:12.999Z</time>
      </trkpt>
      <trkpt lat="43.58786" lon="2.95177">
        <ele>429.1</ele>
        <time>2026-05-07T13:36:13.999Z</time>
      </trkpt>
      <trkpt lat="43.58785" lon="2.95179">
        <ele>429.9</ele>
        <time>2026-05-07T13:36:14.999Z</time>
      </trkpt>
      <trkpt lat="43.58785" lon="2.95181">
        <ele>430.3</ele>
        <time>2026-05-07T13:36:15.999Z</time>
      </trkpt>
      <trkpt lat="43.58784" lon="2.95182">
        <ele>429.9</ele>
        <time>2026-05-07T13:36:16.999Z</time>
      </trkpt>
      <trkpt lat="43.58784" lon="2.95184">
        <ele>430.2</ele>
        <time>2026-05-07T13:36:17.999Z</time>
      </trkpt>
      <trkpt lat="43.58784" lon="2.95186">
        <ele>430.3</ele>
        <time>2026-05-07T13:36:18.999Z</time>
      </trkpt>
      <trkpt lat="43.58784" lon="2.95188">
        <ele>429.7</ele>
        <time>2026-05-07T13:36:19.999Z</time>
      </trkpt>
      <trkpt lat="43.58785" lon="2.95189">
        <ele>429.8</ele>
        <time>2026-05-07T13:36:20.999Z</time>
      </trkpt>
      <trkpt lat="43.58785" lon="2.9519">
        <ele>429.6</ele>
        <time>2026-05-07T13:36:21.999Z</time>
      </trkpt>
      <trkpt lat="43.58785" lon="2.95192">
        <ele>429.9</ele>
        <time>2026-05-07T13:36:22.999Z</time>
      </trkpt>
      <trkpt lat="43.58786" lon="2.95193">
        <ele>429.8</ele>
        <time>2026-05-07T13:36:23.999Z</time>
      </trkpt>
      <trkpt lat="43.58787" lon="2.95194">
        <ele>429.1</ele>
        <time>2026-05-07T13:36:24.999Z</time>
      </trkpt>
      <trkpt lat="43.58786" lon="2.95196">
        <ele>428.6</ele>
        <time>2026-05-07T13:36:25.999Z</time>
      </trkpt>
      <trkpt lat="43.58786" lon="2.95198">
        <ele>428.8</ele>
        <time>2026-05-07T13:36:26.999Z</time>
      </trkpt>
      <trkpt lat="43.58786" lon="2.952">
        <ele>429.4</ele>
        <time>2026-05-07T13:36:27.999Z</time>
      </trkpt>
      <trkpt lat="43.58786" lon="2.95201">
        <ele>429.7</ele>
        <time>2026-05-07T13:36:28.999Z</time>
      </trkpt>
      <trkpt lat="43.58786" lon="2.95203">
        <ele>430.2</ele>
        <time>2026-05-07T13:36:29.999Z</time>
      </trkpt>
      <trkpt lat="43.58786" lon="2.95205">
        <ele>430.7</ele>
        <time>2026-05-07T13:36:30.999Z</time>
      </trkpt>
      <trkpt lat="43.58786" lon="2.95207">
        <ele>430.9</ele>
        <time>2026-05-07T13:36:31.999Z</time>
      </trkpt>
      <trkpt lat="43.58786" lon="2.9521">
        <ele>430.5</ele>
        <time>2026-05-07T13:36:32.999Z</time>
      </trkpt>
      <trkpt lat="43.58786" lon="2.9521">
        <ele>429</ele>
        <time>2026-05-07T13:36:33.999Z</time>
      </trkpt>
      <trkpt lat="43.58785" lon="2.95212">
        <ele>428.7</ele>
        <time>2026-05-07T13:36:34.999Z</time>
      </trkpt>
      <trkpt lat="43.58785" lon="2.95213">
        <ele>428.2</ele>
        <time>2026-05-07T13:36:35.999Z</time>
      </trkpt>
      <trkpt lat="43.58785" lon="2.95214">
        <ele>427.9</ele>
        <time>2026-05-07T13:36:36.999Z</time>
      </trkpt>
      <trkpt lat="43.58785" lon="2.95216">
        <ele>428.2</ele>
        <time>2026-05-07T13:36:37.999Z</time>
      </trkpt>
      <trkpt lat="43.58786" lon="2.95218">
        <ele>428.5</ele>
        <time>2026-05-07T13:36:38.999Z</time>
      </trkpt>
      <trkpt lat="43.58786" lon="2.9522">
        <ele>427.6</ele>
        <time>2026-05-07T13:36:39.999Z</time>
      </trkpt>
      <trkpt lat="43.58787" lon="2.95221">
        <ele>427.6</ele>
        <time>2026-05-07T13:36:40.999Z</time>
      </trkpt>
      <trkpt lat="43.58787" lon="2.95222">
        <ele>428.6</ele>
        <time>2026-05-07T13:36:41.999Z</time>
      </trkpt>
      <trkpt lat="43.58787" lon="2.95223">
        <ele>429</ele>
        <time>2026-05-07T13:36:42.999Z</time>
      </trkpt>
      <trkpt lat="43.58787" lon="2.95224">
        <ele>430.2</ele>
        <time>2026-05-07T13:36:43.999Z</time>
      </trkpt>
      <trkpt lat="43.58787" lon="2.95225">
        <ele>430.1</ele>
        <time>2026-05-07T13:36:44.999Z</time>
      </trkpt>
      <trkpt lat="43.58787" lon="2.95227">
        <ele>430.1</ele>
        <time>2026-05-07T13:36:45.999Z</time>
      </trkpt>
      <trkpt lat="43.58787" lon="2.95228">
        <ele>430.2</ele>
        <time>2026-05-07T13:36:46.999Z</time>
      </trkpt>
      <trkpt lat="43.58787" lon="2.95229">
        <ele>430</ele>
        <time>2026-05-07T13:36:47.999Z</time>
      </trkpt>
      <trkpt lat="43.58787" lon="2.95231">
        <ele>430.1</ele>
        <time>2026-05-07T13:36:48.999Z</time>
      </trkpt>
      <trkpt lat="43.58787" lon="2.95232">
        <ele>430.3</ele>
        <time>2026-05-07T13:36:49.999Z</time>
      </trkpt>
      <trkpt lat="43.58786" lon="2.95234">
        <ele>430.7</ele>
        <time>2026-05-07T13:36:50.999Z</time>
      </trkpt>
      <trkpt lat="43.58786" lon="2.95236">
        <ele>430.9</ele>
        <time>2026-05-07T13:36:51.999Z</time>
      </trkpt>
      <trkpt lat="43.58786" lon="2.95239">
        <ele>431.2</ele>
        <time>2026-05-07T13:36:52.999Z</time>
      </trkpt>
      <trkpt lat="43.58786" lon="2.95241">
        <ele>431.5</ele>
        <time>2026-05-07T13:36:53.999Z</time>
      </trkpt>
      <trkpt lat="43.58786" lon="2.95244">
        <ele>431.4</ele>
        <time>2026-05-07T13:36:54.999Z</time>
      </trkpt>
      <trkpt lat="43.58785" lon="2.95246">
        <ele>431.1</ele>
        <time>2026-05-07T13:36:55.999Z</time>
      </trkpt>
      <trkpt lat="43.58785" lon="2.95248">
        <ele>430.2</ele>
        <time>2026-05-07T13:36:56.999Z</time>
      </trkpt>
      <trkpt lat="43.58784" lon="2.9525">
        <ele>430.4</ele>
        <time>2026-05-07T13:36:57.999Z</time>
      </trkpt>
      <trkpt lat="43.58784" lon="2.95252">
        <ele>430</ele>
        <time>2026-05-07T13:36:58.999Z</time>
      </trkpt>
      <trkpt lat="43.58783" lon="2.95254">
        <ele>430.4</ele>
        <time>2026-05-07T13:36:59.999Z</time>
      </trkpt>
      <trkpt lat="43.58782" lon="2.95256">
        <ele>430.5</ele>
        <time>2026-05-07T13:37:00.999Z</time>
      </trkpt>
      <trkpt lat="43.58781" lon="2.95257">
        <ele>430.4</ele>
        <time>2026-05-07T13:37:01.999Z</time>
      </trkpt>
      <trkpt lat="43.58781" lon="2.95259">
        <ele>430.5</ele>
        <time>2026-05-07T13:37:02.999Z</time>
      </trkpt>
      <trkpt lat="43.58781" lon="2.9526">
        <ele>429.8</ele>
        <time>2026-05-07T13:37:03.999Z</time>
      </trkpt>
      <trkpt lat="43.58781" lon="2.95261">
        <ele>429.7</ele>
        <time>2026-05-07T13:37:04.999Z</time>
      </trkpt>
      <trkpt lat="43.58781" lon="2.95263">
        <ele>429.4</ele>
        <time>2026-05-07T13:37:05.999Z</time>
      </trkpt>
      <trkpt lat="43.5878" lon="2.95264">
        <ele>429</ele>
        <time>2026-05-07T13:37:06.999Z</time>
      </trkpt>
      <trkpt lat="43.58779" lon="2.95265">
        <ele>429</ele>
        <time>2026-05-07T13:37:07.999Z</time>
      </trkpt>
      <trkpt lat="43.58779" lon="2.95267">
        <ele>429</ele>
        <time>2026-05-07T13:37:08.999Z</time>
      </trkpt>
      <trkpt lat="43.58779" lon="2.95269">
        <ele>428.3</ele>
        <time>2026-05-07T13:37:09.999Z</time>
      </trkpt>
      <trkpt lat="43.5878" lon="2.9527">
        <ele>427.7</ele>
        <time>2026-05-07T13:37:10.999Z</time>
      </trkpt>
      <trkpt lat="43.58779" lon="2.95271">
        <ele>426.7</ele>
        <time>2026-05-07T13:37:11.999Z</time>
      </trkpt>
      <trkpt lat="43.58779" lon="2.95272">
        <ele>426.4</ele>
        <time>2026-05-07T13:37:12.999Z</time>
      </trkpt>
      <trkpt lat="43.58779" lon="2.95273">
        <ele>426</ele>
        <time>2026-05-07T13:37:13.999Z</time>
      </trkpt>
      <trkpt lat="43.58779" lon="2.95274">
        <ele>425.4</ele>
        <time>2026-05-07T13:37:14.999Z</time>
      </trkpt>
      <trkpt lat="43.58779" lon="2.95275">
        <ele>425.2</ele>
        <time>2026-05-07T13:37:15.999Z</time>
      </trkpt>
      <trkpt lat="43.58778" lon="2.95276">
        <ele>425.1</ele>
        <time>2026-05-07T13:37:16.999Z</time>
      </trkpt>
      <trkpt lat="43.58778" lon="2.95276">
        <ele>424.7</ele>
        <time>2026-05-07T13:37:17.999Z</time>
      </trkpt>
      <trkpt lat="43.58778" lon="2.95277">
        <ele>424.5</ele>
        <time>2026-05-07T13:37:18.999Z</time>
      </trkpt>
      <trkpt lat="43.58778" lon="2.95278">
        <ele>424.2</ele>
        <time>2026-05-07T13:37:19.999Z</time>
      </trkpt>
      <trkpt lat="43.58778" lon="2.95279">
        <ele>424</ele>
        <time>2026-05-07T13:37:20.999Z</time>
      </trkpt>
      <trkpt lat="43.58778" lon="2.9528">
        <ele>423.8</ele>
        <time>2026-05-07T13:37:21.999Z</time>
      </trkpt>
      <trkpt lat="43.58778" lon="2.95281">
        <ele>423.7</ele>
        <time>2026-05-07T13:37:22.999Z</time>
      </trkpt>
      <trkpt lat="43.58778" lon="2.95282">
        <ele>423.5</ele>
        <time>2026-05-07T13:37:23.999Z</time>
      </trkpt>
      <trkpt lat="43.58778" lon="2.95283">
        <ele>422.9</ele>
        <time>2026-05-07T13:37:24.999Z</time>
      </trkpt>
      <trkpt lat="43.58779" lon="2.95284">
        <ele>422.8</ele>
        <time>2026-05-07T13:37:25.999Z</time>
      </trkpt>
      <trkpt lat="43.5878" lon="2.95285">
        <ele>422.6</ele>
        <time>2026-05-07T13:37:26.999Z</time>
      </trkpt>
      <trkpt lat="43.5878" lon="2.95287">
        <ele>421.8</ele>
        <time>2026-05-07T13:37:27.999Z</time>
      </trkpt>
      <trkpt lat="43.5878" lon="2.95289">
        <ele>421.5</ele>
        <time>2026-05-07T13:37:28.999Z</time>
      </trkpt>
      <trkpt lat="43.5878" lon="2.9529">
        <ele>421.2</ele>
        <time>2026-05-07T13:37:29.999Z</time>
      </trkpt>
      <trkpt lat="43.5878" lon="2.95292">
        <ele>420.6</ele>
        <time>2026-05-07T13:37:30.999Z</time>
      </trkpt>
      <trkpt lat="43.58781" lon="2.95293">
        <ele>420.6</ele>
        <time>2026-05-07T13:37:31.999Z</time>
      </trkpt>
      <trkpt lat="43.58781" lon="2.95295">
        <ele>420.7</ele>
        <time>2026-05-07T13:37:32.999Z</time>
      </trkpt>
      <trkpt lat="43.58781" lon="2.95296">
        <ele>420.6</ele>
        <time>2026-05-07T13:37:33.999Z</time>
      </trkpt>
      <trkpt lat="43.58781" lon="2.95297">
        <ele>420.5</ele>
        <time>2026-05-07T13:37:34.999Z</time>
      </trkpt>
      <trkpt lat="43.58781" lon="2.95298">
        <ele>420.4</ele>
        <time>2026-05-07T13:37:35.999Z</time>
      </trkpt>
      <trkpt lat="43.5878" lon="2.953">
        <ele>420.5</ele>
        <time>2026-05-07T13:37:36.999Z</time>
      </trkpt>
      <trkpt lat="43.5878" lon="2.953">
        <ele>421.1</ele>
        <time>2026-05-07T13:37:37.999Z</time>
      </trkpt>
      <trkpt lat="43.5878" lon="2.95301">
        <ele>421.4</ele>
        <time>2026-05-07T13:37:38.999Z</time>
      </trkpt>
      <trkpt lat="43.5878" lon="2.95302">
        <ele>421.4</ele>
        <time>2026-05-07T13:37:39.999Z</time>
      </trkpt>
      <trkpt lat="43.5878" lon="2.95302">
        <ele>421.3</ele>
        <time>2026-05-07T13:37:40.999Z</time>
      </trkpt>
      <trkpt lat="43.58779" lon="2.95302">
        <ele>421.1</ele>
        <time>2026-05-07T13:37:41.999Z</time>
      </trkpt>
      <trkpt lat="43.58779" lon="2.95302">
        <ele>420.6</ele>
        <time>2026-05-07T13:37:42.999Z</time>
      </trkpt>
      <trkpt lat="43.58778" lon="2.95303">
        <ele>420.3</ele>
        <time>2026-05-07T13:37:43.999Z</time>
      </trkpt>
      <trkpt lat="43.58777" lon="2.95304">
        <ele>420.8</ele>
        <time>2026-05-07T13:37:44.999Z</time>
      </trkpt>
      <trkpt lat="43.58777" lon="2.95304">
        <ele>421.2</ele>
        <time>2026-05-07T13:37:45.999Z</time>
      </trkpt>
      <trkpt lat="43.58777" lon="2.95305">
        <ele>421.3</ele>
        <time>2026-05-07T13:37:46.999Z</time>
      </trkpt>
      <trkpt lat="43.58777" lon="2.95304">
        <ele>422.1</ele>
        <time>2026-05-07T13:37:47.999Z</time>
      </trkpt>
      <trkpt lat="43.58777" lon="2.95304">
        <ele>422.2</ele>
        <time>2026-05-07T13:37:48.999Z</time>
      </trkpt>
      <trkpt lat="43.58777" lon="2.95304">
        <ele>422.5</ele>
        <time>2026-05-07T13:37:49.999Z</time>
      </trkpt>
      <trkpt lat="43.58777" lon="2.95305">
        <ele>422.6</ele>
        <time>2026-05-07T13:37:50.999Z</time>
      </trkpt>
      <trkpt lat="43.58777" lon="2.95305">
        <ele>422.5</ele>
        <time>2026-05-07T13:37:51.999Z</time>
      </trkpt>
      <trkpt lat="43.58777" lon="2.95305">
        <ele>422.2</ele>
        <time>2026-05-07T13:37:52.999Z</time>
      </trkpt>
      <trkpt lat="43.58777" lon="2.95305">
        <ele>422.1</ele>
        <time>2026-05-07T13:37:53.999Z</time>
      </trkpt>
      <trkpt lat="43.58777" lon="2.95305">
        <ele>421.7</ele>
        <time>2026-05-07T13:37:54.999Z</time>
      </trkpt>
      <trkpt lat="43.58777" lon="2.95305">
        <ele>421.3</ele>
        <time>2026-05-07T13:37:55.999Z</time>
      </trkpt>
      <trkpt lat="43.58777" lon="2.95305">
        <ele>420.9</ele>
        <time>2026-05-07T13:37:56.999Z</time>
      </trkpt>
      <trkpt lat="43.58777" lon="2.95305">
        <ele>420.7</ele>
        <time>2026-05-07T13:37:57.999Z</time>
      </trkpt>
      <trkpt lat="43.58777" lon="2.95304">
        <ele>420.8</ele>
        <time>2026-05-07T13:37:58.999Z</time>
      </trkpt>
      <trkpt lat="43.58777" lon="2.95304">
        <ele>420.9</ele>
        <time>2026-05-07T13:37:59.999Z</time>
      </trkpt>
      <trkpt lat="43.58778" lon="2.95304">
        <ele>421.3</ele>
        <time>2026-05-07T13:38:00.999Z</time>
      </trkpt>
      <trkpt lat="43.58779" lon="2.95304">
        <ele>421.6</ele>
        <time>2026-05-07T13:38:01.999Z</time>
      </trkpt>
      <trkpt lat="43.58779" lon="2.95304">
        <ele>421.8</ele>
        <time>2026-05-07T13:38:02.999Z</time>
      </trkpt>
      <trkpt lat="43.58779" lon="2.95304">
        <ele>421.6</ele>
        <time>2026-05-07T13:38:03.999Z</time>
      </trkpt>
      <trkpt lat="43.58779" lon="2.95304">
        <ele>421.4</ele>
        <time>2026-05-07T13:38:04.999Z</time>
      </trkpt>
      <trkpt lat="43.58779" lon="2.95304">
        <ele>421.3</ele>
        <time>2026-05-07T13:38:05.999Z</time>
      </trkpt>
      <trkpt lat="43.58779" lon="2.95304">
        <ele>421.5</ele>
        <time>2026-05-07T13:38:06.999Z</time>
      </trkpt>
      <trkpt lat="43.58779" lon="2.95305">
        <ele>421.7</ele>
        <time>2026-05-07T13:38:07.999Z</time>
      </trkpt>
      <trkpt lat="43.5878" lon="2.95305">
        <ele>421.6</ele>
        <time>2026-05-07T13:38:08.999Z</time>
      </trkpt>
      <trkpt lat="43.5878" lon="2.95305">
        <ele>421.7</ele>
        <time>2026-05-07T13:38:09.999Z</time>
      </trkpt>
      <trkpt lat="43.5878" lon="2.95305">
        <ele>421.8</ele>
        <time>2026-05-07T13:38:10.999Z</time>
      </trkpt>
      <trkpt lat="43.58779" lon="2.95305">
        <ele>422</ele>
        <time>2026-05-07T13:38:11.999Z</time>
      </trkpt>
      <trkpt lat="43.58779" lon="2.95305">
        <ele>422.2</ele>
        <time>2026-05-07T13:38:12.999Z</time>
      </trkpt>
      <trkpt lat="43.58779" lon="2.95305">
        <ele>422.4</ele>
        <time>2026-05-07T13:38:13.999Z</time>
      </trkpt>
      <trkpt lat="43.58779" lon="2.95305">
        <ele>422.6</ele>
        <time>2026-05-07T13:38:14.999Z</time>
      </trkpt>
      <trkpt lat="43.58779" lon="2.95305">
        <ele>423</ele>
        <time>2026-05-07T13:38:15.999Z</time>
      </trkpt>
      <trkpt lat="43.58779" lon="2.95305">
        <ele>423.4</ele>
        <time>2026-05-07T13:38:16.999Z</time>
      </trkpt>
      <trkpt lat="43.58779" lon="2.95305">
        <ele>423.6</ele>
        <time>2026-05-07T13:38:17.999Z</time>
      </trkpt>
      <trkpt lat="43.58779" lon="2.95305">
        <ele>423.8</ele>
        <time>2026-05-07T13:38:18.999Z</time>
      </trkpt>
      <trkpt lat="43.58779" lon="2.95305">
        <ele>424</ele>
        <time>2026-05-07T13:38:19.999Z</time>
      </trkpt>
      <trkpt lat="43.58779" lon="2.95305">
        <ele>424.1</ele>
        <time>2026-05-07T13:38:20.999Z</time>
      </trkpt>
      <trkpt lat="43.58779" lon="2.95305">
        <ele>424.2</ele>
        <time>2026-05-07T13:38:21.999Z</time>
      </trkpt>
      <trkpt lat="43.58779" lon="2.95305">
        <ele>424</ele>
        <time>2026-05-07T13:38:22.999Z</time>
      </trkpt>
      <trkpt lat="43.58779" lon="2.95305">
        <ele>424</ele>
        <time>2026-05-07T13:38:23.999Z</time>
      </trkpt>
      <trkpt lat="43.58779" lon="2.95305">
        <ele>424.2</ele>
        <time>2026-05-07T13:38:24.999Z</time>
      </trkpt>
      <trkpt lat="43.58779" lon="2.95306">
        <ele>424.3</ele>
        <time>2026-05-07T13:38:25.999Z</time>
      </trkpt>
      <trkpt lat="43.58779" lon="2.95306">
        <ele>424.4</ele>
        <time>2026-05-07T13:38:26.999Z</time>
      </trkpt>
      <trkpt lat="43.58779" lon="2.95306">
        <ele>424.4</ele>
        <time>2026-05-07T13:38:27.999Z</time>
      </trkpt>
      <trkpt lat="43.58779" lon="2.95306">
        <ele>424.4</ele>
        <time>2026-05-07T13:38:28.999Z</time>
      </trkpt>
      <trkpt lat="43.58779" lon="2.95306">
        <ele>424.6</ele>
        <time>2026-05-07T13:38:29.999Z</time>
      </trkpt>
      <trkpt lat="43.58779" lon="2.95306">
        <ele>424.4</ele>
        <time>2026-05-07T13:38:30.999Z</time>
      </trkpt>
      <trkpt lat="43.58779" lon="2.95306">
        <ele>424.5</ele>
        <time>2026-05-07T13:38:31.999Z</time>
      </trkpt>
      <trkpt lat="43.58779" lon="2.95306">
        <ele>424.5</ele>
        <time>2026-05-07T13:38:32.999Z</time>
      </trkpt>
      <trkpt lat="43.58779" lon="2.95306">
        <ele>424.4</ele>
        <time>2026-05-07T13:38:33.999Z</time>
      </trkpt>
      <trkpt lat="43.58779" lon="2.95306">
        <ele>424.3</ele>
        <time>2026-05-07T13:38:34.999Z</time>
      </trkpt>
      <trkpt lat="43.58779" lon="2.95306">
        <ele>424.2</ele>
        <time>2026-05-07T13:38:35.999Z</time>
      </trkpt>
      <trkpt lat="43.58779" lon="2.95306">
        <ele>424.1</ele>
        <time>2026-05-07T13:38:36.999Z</time>
      </trkpt>
      <trkpt lat="43.58779" lon="2.95306">
        <ele>424.2</ele>
        <time>2026-05-07T13:38:37.999Z</time>
      </trkpt>
      <trkpt lat="43.58779" lon="2.95306">
        <ele>424.3</ele>
        <time>2026-05-07T13:38:38.999Z</time>
      </trkpt>
      <trkpt lat="43.58779" lon="2.95306">
        <ele>424.3</ele>
        <time>2026-05-07T13:38:39.999Z</time>
      </trkpt>
      <trkpt lat="43.58779" lon="2.95305">
        <ele>424.5</ele>
        <time>2026-05-07T13:38:40.999Z</time>
      </trkpt>
      <trkpt lat="43.58779" lon="2.95305">
        <ele>424.8</ele>
        <time>2026-05-07T13:38:41.999Z</time>
      </trkpt>
      <trkpt lat="43.58779" lon="2.95305">
        <ele>424.8</ele>
        <time>2026-05-07T13:38:42.999Z</time>
      </trkpt>
      <trkpt lat="43.58779" lon="2.95305">
        <ele>425.1</ele>
        <time>2026-05-07T13:38:43.999Z</time>
      </trkpt>
      <trkpt lat="43.58779" lon="2.95305">
        <ele>424.8</ele>
        <time>2026-05-07T13:38:44.999Z</time>
      </trkpt>
      <trkpt lat="43.58779" lon="2.95305">
        <ele>424.8</ele>
        <time>2026-05-07T13:38:45.999Z</time>
      </trkpt>
      <trkpt lat="43.5878" lon="2.95304">
        <ele>425</ele>
        <time>2026-05-07T13:38:46.999Z</time>
      </trkpt>
      <trkpt lat="43.58779" lon="2.95304">
        <ele>425.1</ele>
        <time>2026-05-07T13:38:47.999Z</time>
      </trkpt>
      <trkpt lat="43.58779" lon="2.95304">
        <ele>425.2</ele>
        <time>2026-05-07T13:38:48.999Z</time>
      </trkpt>
      <trkpt lat="43.58779" lon="2.95305">
        <ele>425.2</ele>
        <time>2026-05-07T13:38:49.999Z</time>
      </trkpt>
      <trkpt lat="43.58779" lon="2.95305">
        <ele>425.1</ele>
        <time>2026-05-07T13:38:50.999Z</time>
      </trkpt>
      <trkpt lat="43.58779" lon="2.95305">
        <ele>424.8</ele>
        <time>2026-05-07T13:38:51.999Z</time>
      </trkpt>
      <trkpt lat="43.5878" lon="2.95306">
        <ele>424.6</ele>
        <time>2026-05-07T13:38:52.999Z</time>
      </trkpt>
      <trkpt lat="43.58781" lon="2.95308">
        <ele>424.1</ele>
        <time>2026-05-07T13:38:53.999Z</time>
      </trkpt>
      <trkpt lat="43.58781" lon="2.95309">
        <ele>423.7</ele>
        <time>2026-05-07T13:38:54.999Z</time>
      </trkpt>
      <trkpt lat="43.58781" lon="2.9531">
        <ele>423.1</ele>
        <time>2026-05-07T13:38:55.999Z</time>
      </trkpt>
      <trkpt lat="43.58781" lon="2.9531">
        <ele>423</ele>
        <time>2026-05-07T13:38:56.999Z</time>
      </trkpt>
      <trkpt lat="43.58782" lon="2.9531">
        <ele>423.1</ele>
        <time>2026-05-07T13:38:57.999Z</time>
      </trkpt>
      <trkpt lat="43.58783" lon="2.95311">
        <ele>423.1</ele>
        <time>2026-05-07T13:38:58.999Z</time>
      </trkpt>
      <trkpt lat="43.58783" lon="2.95312">
        <ele>422.8</ele>
        <time>2026-05-07T13:38:59.999Z</time>
      </trkpt>
      <trkpt lat="43.58783" lon="2.95314">
        <ele>422.4</ele>
        <time>2026-05-07T13:39:00.999Z</time>
      </trkpt>
      <trkpt lat="43.58783" lon="2.95316">
        <ele>422.1</ele>
        <time>2026-05-07T13:39:01.999Z</time>
      </trkpt>
      <trkpt lat="43.58783" lon="2.95317">
        <ele>421.8</ele>
        <time>2026-05-07T13:39:02.999Z</time>
      </trkpt>
      <trkpt lat="43.58783" lon="2.95319">
        <ele>421.2</ele>
        <time>2026-05-07T13:39:03.999Z</time>
      </trkpt>
      <trkpt lat="43.58783" lon="2.95321">
        <ele>420.8</ele>
        <time>2026-05-07T13:39:04.999Z</time>
      </trkpt>
      <trkpt lat="43.58783" lon="2.95322">
        <ele>420.4</ele>
        <time>2026-05-07T13:39:05.999Z</time>
      </trkpt>
      <trkpt lat="43.58783" lon="2.95325">
        <ele>420.3</ele>
        <time>2026-05-07T13:39:06.999Z</time>
      </trkpt>
      <trkpt lat="43.58783" lon="2.95327">
        <ele>420.5</ele>
        <time>2026-05-07T13:39:07.999Z</time>
      </trkpt>
      <trkpt lat="43.58784" lon="2.95328">
        <ele>420.5</ele>
        <time>2026-05-07T13:39:08.999Z</time>
      </trkpt>
      <trkpt lat="43.58784" lon="2.9533">
        <ele>419.9</ele>
        <time>2026-05-07T13:39:09.999Z</time>
      </trkpt>
      <trkpt lat="43.58784" lon="2.95331">
        <ele>419.5</ele>
        <time>2026-05-07T13:39:10.999Z</time>
      </trkpt>
      <trkpt lat="43.58784" lon="2.95333">
        <ele>419.2</ele>
        <time>2026-05-07T13:39:11.999Z</time>
      </trkpt>
      <trkpt lat="43.58784" lon="2.95334">
        <ele>418.8</ele>
        <time>2026-05-07T13:39:12.999Z</time>
      </trkpt>
      <trkpt lat="43.58784" lon="2.95335">
        <ele>418.6</ele>
        <time>2026-05-07T13:39:13.999Z</time>
      </trkpt>
      <trkpt lat="43.58784" lon="2.95336">
        <ele>418.8</ele>
        <time>2026-05-07T13:39:14.999Z</time>
      </trkpt>
      <trkpt lat="43.58785" lon="2.95337">
        <ele>418.6</ele>
        <time>2026-05-07T13:39:15.999Z</time>
      </trkpt>
      <trkpt lat="43.58785" lon="2.95339">
        <ele>418.4</ele>
        <time>2026-05-07T13:39:16.999Z</time>
      </trkpt>
      <trkpt lat="43.58785" lon="2.9534">
        <ele>418.9</ele>
        <time>2026-05-07T13:39:17.999Z</time>
      </trkpt>
      <trkpt lat="43.58785" lon="2.95341">
        <ele>418.7</ele>
        <time>2026-05-07T13:39:18.999Z</time>
      </trkpt>
      <trkpt lat="43.58785" lon="2.95342">
        <ele>418.5</ele>
        <time>2026-05-07T13:39:19.999Z</time>
      </trkpt>
      <trkpt lat="43.58785" lon="2.95343">
        <ele>418.2</ele>
        <time>2026-05-07T13:39:20.999Z</time>
      </trkpt>
      <trkpt lat="43.58785" lon="2.95344">
        <ele>418.2</ele>
        <time>2026-05-07T13:39:21.999Z</time>
      </trkpt>
      <trkpt lat="43.58785" lon="2.95346">
        <ele>418.3</ele>
        <time>2026-05-07T13:39:22.999Z</time>
      </trkpt>
      <trkpt lat="43.58784" lon="2.95348">
        <ele>418.2</ele>
        <time>2026-05-07T13:39:23.999Z</time>
      </trkpt>
      <trkpt lat="43.58784" lon="2.9535">
        <ele>417.8</ele>
        <time>2026-05-07T13:39:24.999Z</time>
      </trkpt>
      <trkpt lat="43.58784" lon="2.95351">
        <ele>417.8</ele>
        <time>2026-05-07T13:39:25.999Z</time>
      </trkpt>
      <trkpt lat="43.58784" lon="2.95352">
        <ele>418.1</ele>
        <time>2026-05-07T13:39:26.999Z</time>
      </trkpt>
      <trkpt lat="43.58785" lon="2.95353">
        <ele>418.5</ele>
        <time>2026-05-07T13:39:27.999Z</time>
      </trkpt>
      <trkpt lat="43.58785" lon="2.95354">
        <ele>418.4</ele>
        <time>2026-05-07T13:39:28.999Z</time>
      </trkpt>
      <trkpt lat="43.58786" lon="2.95356">
        <ele>418.6</ele>
        <time>2026-05-07T13:39:29.999Z</time>
      </trkpt>
      <trkpt lat="43.58785" lon="2.95358">
        <ele>418.6</ele>
        <time>2026-05-07T13:39:30.999Z</time>
      </trkpt>
      <trkpt lat="43.58785" lon="2.95361">
        <ele>418.4</ele>
        <time>2026-05-07T13:39:31.999Z</time>
      </trkpt>
      <trkpt lat="43.58783" lon="2.95365">
        <ele>419.1</ele>
        <time>2026-05-07T13:39:33.999Z</time>
      </trkpt>
      <trkpt lat="43.58783" lon="2.95367">
        <ele>419.2</ele>
        <time>2026-05-07T13:39:34.999Z</time>
      </trkpt>
      <trkpt lat="43.58783" lon="2.95368">
        <ele>419.2</ele>
        <time>2026-05-07T13:39:35.999Z</time>
      </trkpt>
      <trkpt lat="43.58784" lon="2.9537">
        <ele>418.9</ele>
        <time>2026-05-07T13:39:36.999Z</time>
      </trkpt>
      <trkpt lat="43.58783" lon="2.95373">
        <ele>419.4</ele>
        <time>2026-05-07T13:39:37.999Z</time>
      </trkpt>
      <trkpt lat="43.58783" lon="2.95375">
        <ele>420.2</ele>
        <time>2026-05-07T13:39:38.999Z</time>
      </trkpt>
      <trkpt lat="43.58783" lon="2.95378">
        <ele>420.6</ele>
        <time>2026-05-07T13:39:39.999Z</time>
      </trkpt>
      <trkpt lat="43.58782" lon="2.95382">
        <ele>420.9</ele>
        <time>2026-05-07T13:39:40.999Z</time>
      </trkpt>
      <trkpt lat="43.58782" lon="2.95384">
        <ele>421.2</ele>
        <time>2026-05-07T13:39:41.999Z</time>
      </trkpt>
      <trkpt lat="43.58782" lon="2.95385">
        <ele>421.1</ele>
        <time>2026-05-07T13:39:42.999Z</time>
      </trkpt>
      <trkpt lat="43.58782" lon="2.95387">
        <ele>421.4</ele>
        <time>2026-05-07T13:39:43.999Z</time>
      </trkpt>
      <trkpt lat="43.58781" lon="2.95388">
        <ele>421.5</ele>
        <time>2026-05-07T13:39:44.999Z</time>
      </trkpt>
      <trkpt lat="43.58781" lon="2.9539">
        <ele>422.8</ele>
        <time>2026-05-07T13:39:45.999Z</time>
      </trkpt>
      <trkpt lat="43.58781" lon="2.95391">
        <ele>422.4</ele>
        <time>2026-05-07T13:39:46.999Z</time>
      </trkpt>
      <trkpt lat="43.58781" lon="2.95393">
        <ele>422.9</ele>
        <time>2026-05-07T13:39:47.999Z</time>
      </trkpt>
      <trkpt lat="43.58781" lon="2.95394">
        <ele>422.6</ele>
        <time>2026-05-07T13:39:48.999Z</time>
      </trkpt>
      <trkpt lat="43.5878" lon="2.954">
        <ele>421.8</ele>
        <time>2026-05-07T13:39:50.999Z</time>
      </trkpt>
      <trkpt lat="43.58781" lon="2.95404">
        <ele>422.2</ele>
        <time>2026-05-07T13:39:51.999Z</time>
      </trkpt>
      <trkpt lat="43.58781" lon="2.95405">
        <ele>423.5</ele>
        <time>2026-05-07T13:39:52.999Z</time>
      </trkpt>
      <trkpt lat="43.58783" lon="2.95408">
        <ele>424.4</ele>
        <time>2026-05-07T13:39:53.999Z</time>
      </trkpt>
      <trkpt lat="43.58784" lon="2.95411">
        <ele>424.6</ele>
        <time>2026-05-07T13:39:54.999Z</time>
      </trkpt>
      <trkpt lat="43.58786" lon="2.9541">
        <ele>423</ele>
        <time>2026-05-07T13:39:55.999Z</time>
      </trkpt>
      <trkpt lat="43.58787" lon="2.95411">
        <ele>422.4</ele>
        <time>2026-05-07T13:39:56.999Z</time>
      </trkpt>
      <trkpt lat="43.58788" lon="2.95411">
        <ele>421.9</ele>
        <time>2026-05-07T13:39:57.999Z</time>
      </trkpt>
      <trkpt lat="43.58789" lon="2.95412">
        <ele>421.8</ele>
        <time>2026-05-07T13:39:58.999Z</time>
      </trkpt>
      <trkpt lat="43.58791" lon="2.95413">
        <ele>421.3</ele>
        <time>2026-05-07T13:39:59.999Z</time>
      </trkpt>
      <trkpt lat="43.58791" lon="2.95413">
        <ele>421.5</ele>
        <time>2026-05-07T13:40:00.999Z</time>
      </trkpt>
      <trkpt lat="43.58792" lon="2.95414">
        <ele>422</ele>
        <time>2026-05-07T13:40:01.999Z</time>
      </trkpt>
      <trkpt lat="43.58792" lon="2.95416">
        <ele>421.6</ele>
        <time>2026-05-07T13:40:02.999Z</time>
      </trkpt>
      <trkpt lat="43.58792" lon="2.95418">
        <ele>421.4</ele>
        <time>2026-05-07T13:40:03.999Z</time>
      </trkpt>
      <trkpt lat="43.58792" lon="2.95419">
        <ele>421.3</ele>
        <time>2026-05-07T13:40:04.999Z</time>
      </trkpt>
      <trkpt lat="43.58793" lon="2.95421">
        <ele>421.3</ele>
        <time>2026-05-07T13:40:05.999Z</time>
      </trkpt>
      <trkpt lat="43.58794" lon="2.95424">
        <ele>420.8</ele>
        <time>2026-05-07T13:40:06.999Z</time>
      </trkpt>
      <trkpt lat="43.58794" lon="2.95426">
        <ele>420.7</ele>
        <time>2026-05-07T13:40:07.999Z</time>
      </trkpt>
      <trkpt lat="43.58794" lon="2.95428">
        <ele>420.4</ele>
        <time>2026-05-07T13:40:08.999Z</time>
      </trkpt>
      <trkpt lat="43.58794" lon="2.9543">
        <ele>419.7</ele>
        <time>2026-05-07T13:40:09.999Z</time>
      </trkpt>
      <trkpt lat="43.58794" lon="2.95431">
        <ele>419.2</ele>
        <time>2026-05-07T13:40:10.999Z</time>
      </trkpt>
      <trkpt lat="43.58796" lon="2.95434">
        <ele>419.8</ele>
        <time>2026-05-07T13:40:12.999Z</time>
      </trkpt>
      <trkpt lat="43.58797" lon="2.95435">
        <ele>419.7</ele>
        <time>2026-05-07T13:40:13.999Z</time>
      </trkpt>
      <trkpt lat="43.58798" lon="2.95436">
        <ele>419.2</ele>
        <time>2026-05-07T13:40:14.999Z</time>
      </trkpt>
      <trkpt lat="43.58799" lon="2.95436">
        <ele>418.4</ele>
        <time>2026-05-07T13:40:15.999Z</time>
      </trkpt>
      <trkpt lat="43.588" lon="2.95437">
        <ele>418.2</ele>
        <time>2026-05-07T13:40:16.999Z</time>
      </trkpt>
      <trkpt lat="43.58801" lon="2.95438">
        <ele>417.8</ele>
        <time>2026-05-07T13:40:17.999Z</time>
      </trkpt>
      <trkpt lat="43.58802" lon="2.95438">
        <ele>417.8</ele>
        <time>2026-05-07T13:40:18.999Z</time>
      </trkpt>
      <trkpt lat="43.58802" lon="2.95438">
        <ele>417.7</ele>
        <time>2026-05-07T13:40:19.999Z</time>
      </trkpt>
      <trkpt lat="43.58803" lon="2.95438">
        <ele>417</ele>
        <time>2026-05-07T13:40:20.999Z</time>
      </trkpt>
      <trkpt lat="43.58804" lon="2.95438">
        <ele>416.7</ele>
        <time>2026-05-07T13:40:21.999Z</time>
      </trkpt>
      <trkpt lat="43.58806" lon="2.95439">
        <ele>416.5</ele>
        <time>2026-05-07T13:40:22.999Z</time>
      </trkpt>
      <trkpt lat="43.58808" lon="2.95439">
        <ele>416.5</ele>
        <time>2026-05-07T13:40:23.999Z</time>
      </trkpt>
      <trkpt lat="43.58808" lon="2.9544">
        <ele>416.5</ele>
        <time>2026-05-07T13:40:24.999Z</time>
      </trkpt>
      <trkpt lat="43.58809" lon="2.95439">
        <ele>415.9</ele>
        <time>2026-05-07T13:40:25.999Z</time>
      </trkpt>
      <trkpt lat="43.58809" lon="2.95439">
        <ele>415.6</ele>
        <time>2026-05-07T13:40:26.999Z</time>
      </trkpt>
      <trkpt lat="43.58809" lon="2.95439">
        <ele>415.5</ele>
        <time>2026-05-07T13:40:27.999Z</time>
      </trkpt>
      <trkpt lat="43.5881" lon="2.9544">
        <ele>415.9</ele>
        <time>2026-05-07T13:40:28.999Z</time>
      </trkpt>
      <trkpt lat="43.58811" lon="2.9544">
        <ele>415.6</ele>
        <time>2026-05-07T13:40:29.999Z</time>
      </trkpt>
      <trkpt lat="43.58812" lon="2.95441">
        <ele>415.3</ele>
        <time>2026-05-07T13:40:30.999Z</time>
      </trkpt>
      <trkpt lat="43.58813" lon="2.95443">
        <ele>415.2</ele>
        <time>2026-05-07T13:40:31.999Z</time>
      </trkpt>
      <trkpt lat="43.58814" lon="2.95443">
        <ele>414.9</ele>
        <time>2026-05-07T13:40:32.999Z</time>
      </trkpt>
      <trkpt lat="43.58815" lon="2.95443">
        <ele>415.2</ele>
        <time>2026-05-07T13:40:33.999Z</time>
      </trkpt>
      <trkpt lat="43.58816" lon="2.95443">
        <ele>414.8</ele>
        <time>2026-05-07T13:40:34.999Z</time>
      </trkpt>
      <trkpt lat="43.58817" lon="2.95444">
        <ele>415.1</ele>
        <time>2026-05-07T13:40:35.999Z</time>
      </trkpt>
      <trkpt lat="43.58818" lon="2.95444">
        <ele>414.9</ele>
        <time>2026-05-07T13:40:36.999Z</time>
      </trkpt>
      <trkpt lat="43.58819" lon="2.95445">
        <ele>414.4</ele>
        <time>2026-05-07T13:40:37.999Z</time>
      </trkpt>
      <trkpt lat="43.5882" lon="2.95445">
        <ele>414.2</ele>
        <time>2026-05-07T13:40:38.999Z</time>
      </trkpt>
      <trkpt lat="43.5882" lon="2.95446">
        <ele>413.8</ele>
        <time>2026-05-07T13:40:39.999Z</time>
      </trkpt>
      <trkpt lat="43.5882" lon="2.95446">
        <ele>413.1</ele>
        <time>2026-05-07T13:40:40.999Z</time>
      </trkpt>
      <trkpt lat="43.5882" lon="2.95449">
        <ele>413</ele>
        <time>2026-05-07T13:40:41.999Z</time>
      </trkpt>
      <trkpt lat="43.58819" lon="2.95452">
        <ele>413.2</ele>
        <time>2026-05-07T13:40:42.999Z</time>
      </trkpt>
      <trkpt lat="43.5882" lon="2.95454">
        <ele>413.2</ele>
        <time>2026-05-07T13:40:43.999Z</time>
      </trkpt>
      <trkpt lat="43.58821" lon="2.95456">
        <ele>413</ele>
        <time>2026-05-07T13:40:44.999Z</time>
      </trkpt>
      <trkpt lat="43.58821" lon="2.95457">
        <ele>413</ele>
        <time>2026-05-07T13:40:45.999Z</time>
      </trkpt>
      <trkpt lat="43.58821" lon="2.95458">
        <ele>412.8</ele>
        <time>2026-05-07T13:40:46.999Z</time>
      </trkpt>
      <trkpt lat="43.58821" lon="2.95459">
        <ele>412.9</ele>
        <time>2026-05-07T13:40:47.999Z</time>
      </trkpt>
      <trkpt lat="43.58821" lon="2.9546">
        <ele>412.4</ele>
        <time>2026-05-07T13:40:48.999Z</time>
      </trkpt>
      <trkpt lat="43.58822" lon="2.95461">
        <ele>412</ele>
        <time>2026-05-07T13:40:49.999Z</time>
      </trkpt>
      <trkpt lat="43.58822" lon="2.95462">
        <ele>412</ele>
        <time>2026-05-07T13:40:50.999Z</time>
      </trkpt>
      <trkpt lat="43.58823" lon="2.95464">
        <ele>411.9</ele>
        <time>2026-05-07T13:40:51.999Z</time>
      </trkpt>
      <trkpt lat="43.58824" lon="2.95465">
        <ele>412.5</ele>
        <time>2026-05-07T13:40:52.999Z</time>
      </trkpt>
      <trkpt lat="43.58825" lon="2.95466">
        <ele>412.3</ele>
        <time>2026-05-07T13:40:53.999Z</time>
      </trkpt>
      <trkpt lat="43.58825" lon="2.95468">
        <ele>412.5</ele>
        <time>2026-05-07T13:40:54.999Z</time>
      </trkpt>
      <trkpt lat="43.58824" lon="2.9547">
        <ele>412.5</ele>
        <time>2026-05-07T13:40:55.999Z</time>
      </trkpt>
      <trkpt lat="43.58823" lon="2.95472">
        <ele>412.9</ele>
        <time>2026-05-07T13:40:56.999Z</time>
      </trkpt>
      <trkpt lat="43.58823" lon="2.95471">
        <ele>412.9</ele>
        <time>2026-05-07T13:40:57.999Z</time>
      </trkpt>
      <trkpt lat="43.58823" lon="2.95471">
        <ele>412.9</ele>
        <time>2026-05-07T13:40:58.999Z</time>
      </trkpt>
      <trkpt lat="43.58823" lon="2.95471">
        <ele>414.8</ele>
        <time>2026-05-07T13:40:59.999Z</time>
      </trkpt>
      <trkpt lat="43.58822" lon="2.95471">
        <ele>414.2</ele>
        <time>2026-05-07T13:41:00.999Z</time>
      </trkpt>
      <trkpt lat="43.58823" lon="2.95471">
        <ele>414</ele>
        <time>2026-05-07T13:41:01.999Z</time>
      </trkpt>
      <trkpt lat="43.58823" lon="2.95471">
        <ele>414.1</ele>
        <time>2026-05-07T13:41:02.999Z</time>
      </trkpt>
      <trkpt lat="43.58823" lon="2.95471">
        <ele>414.1</ele>
        <time>2026-05-07T13:41:03.999Z</time>
      </trkpt>
      <trkpt lat="43.58823" lon="2.95471">
        <ele>414.3</ele>
        <time>2026-05-07T13:41:04.999Z</time>
      </trkpt>
      <trkpt lat="43.58823" lon="2.95471">
        <ele>414.9</ele>
        <time>2026-05-07T13:41:05.999Z</time>
      </trkpt>
      <trkpt lat="43.58822" lon="2.95472">
        <ele>415.3</ele>
        <time>2026-05-07T13:41:06.999Z</time>
      </trkpt>
      <trkpt lat="43.58822" lon="2.95472">
        <ele>415.7</ele>
        <time>2026-05-07T13:41:07.999Z</time>
      </trkpt>
      <trkpt lat="43.58822" lon="2.95472">
        <ele>416</ele>
        <time>2026-05-07T13:41:08.999Z</time>
      </trkpt>
      <trkpt lat="43.58822" lon="2.95473">
        <ele>416.1</ele>
        <time>2026-05-07T13:41:09.999Z</time>
      </trkpt>
      <trkpt lat="43.58823" lon="2.95473">
        <ele>416.1</ele>
        <time>2026-05-07T13:41:10.999Z</time>
      </trkpt>
      <trkpt lat="43.58823" lon="2.95473">
        <ele>416.3</ele>
        <time>2026-05-07T13:41:11.999Z</time>
      </trkpt>
      <trkpt lat="43.58823" lon="2.95474">
        <ele>416.3</ele>
        <time>2026-05-07T13:41:12.999Z</time>
      </trkpt>
      <trkpt lat="43.58823" lon="2.95474">
        <ele>416.3</ele>
        <time>2026-05-07T13:41:13.999Z</time>
      </trkpt>
      <trkpt lat="43.58823" lon="2.95474">
        <ele>416.4</ele>
        <time>2026-05-07T13:41:14.999Z</time>
      </trkpt>
      <trkpt lat="43.58823" lon="2.95474">
        <ele>416.6</ele>
        <time>2026-05-07T13:41:15.999Z</time>
      </trkpt>
      <trkpt lat="43.58823" lon="2.95474">
        <ele>416.9</ele>
        <time>2026-05-07T13:41:16.999Z</time>
      </trkpt>
      <trkpt lat="43.58823" lon="2.95474">
        <ele>417.1</ele>
        <time>2026-05-07T13:41:17.999Z</time>
      </trkpt>
      <trkpt lat="43.58823" lon="2.95474">
        <ele>417.1</ele>
        <time>2026-05-07T13:41:18.999Z</time>
      </trkpt>
      <trkpt lat="43.58823" lon="2.95474">
        <ele>417.2</ele>
        <time>2026-05-07T13:41:19.999Z</time>
      </trkpt>
      <trkpt lat="43.58822" lon="2.95474">
        <ele>417.1</ele>
        <time>2026-05-07T13:41:20.999Z</time>
      </trkpt>
      <trkpt lat="43.58822" lon="2.95474">
        <ele>416.9</ele>
        <time>2026-05-07T13:41:21.999Z</time>
      </trkpt>
      <trkpt lat="43.58822" lon="2.95474">
        <ele>416.6</ele>
        <time>2026-05-07T13:41:22.999Z</time>
      </trkpt>
      <trkpt lat="43.58822" lon="2.95475">
        <ele>416.7</ele>
        <time>2026-05-07T13:41:23.999Z</time>
      </trkpt>
      <trkpt lat="43.58822" lon="2.95475">
        <ele>416.8</ele>
        <time>2026-05-07T13:41:24.999Z</time>
      </trkpt>
      <trkpt lat="43.58822" lon="2.95475">
        <ele>416.9</ele>
        <time>2026-05-07T13:41:25.999Z</time>
      </trkpt>
      <trkpt lat="43.58822" lon="2.95475">
        <ele>416.9</ele>
        <time>2026-05-07T13:41:26.999Z</time>
      </trkpt>
      <trkpt lat="43.58822" lon="2.95475">
        <ele>416.8</ele>
        <time>2026-05-07T13:41:27.999Z</time>
      </trkpt>
      <trkpt lat="43.58822" lon="2.95475">
        <ele>416.6</ele>
        <time>2026-05-07T13:41:28.999Z</time>
      </trkpt>
      <trkpt lat="43.58822" lon="2.95475">
        <ele>416.5</ele>
        <time>2026-05-07T13:41:29.999Z</time>
      </trkpt>
      <trkpt lat="43.58822" lon="2.95476">
        <ele>416.4</ele>
        <time>2026-05-07T13:41:30.999Z</time>
      </trkpt>
      <trkpt lat="43.58821" lon="2.95476">
        <ele>416.1</ele>
        <time>2026-05-07T13:41:31.999Z</time>
      </trkpt>
      <trkpt lat="43.5882" lon="2.95476">
        <ele>415.8</ele>
        <time>2026-05-07T13:41:32.999Z</time>
      </trkpt>
      <trkpt lat="43.5882" lon="2.95477">
        <ele>415.5</ele>
        <time>2026-05-07T13:41:33.999Z</time>
      </trkpt>
      <trkpt lat="43.58821" lon="2.95478">
        <ele>415.4</ele>
        <time>2026-05-07T13:41:34.999Z</time>
      </trkpt>
      <trkpt lat="43.58822" lon="2.95479">
        <ele>415.5</ele>
        <time>2026-05-07T13:41:35.999Z</time>
      </trkpt>
      <trkpt lat="43.58823" lon="2.9548">
        <ele>415.5</ele>
        <time>2026-05-07T13:41:36.999Z</time>
      </trkpt>
      <trkpt lat="43.58823" lon="2.95481">
        <ele>415.5</ele>
        <time>2026-05-07T13:41:37.999Z</time>
      </trkpt>
      <trkpt lat="43.58824" lon="2.95481">
        <ele>415.3</ele>
        <time>2026-05-07T13:41:38.999Z</time>
      </trkpt>
      <trkpt lat="43.58824" lon="2.95483">
        <ele>415</ele>
        <time>2026-05-07T13:41:39.999Z</time>
      </trkpt>
      <trkpt lat="43.58825" lon="2.95485">
        <ele>414.7</ele>
        <time>2026-05-07T13:41:40.999Z</time>
      </trkpt>
      <trkpt lat="43.58825" lon="2.95487">
        <ele>414.7</ele>
        <time>2026-05-07T13:41:41.999Z</time>
      </trkpt>
      <trkpt lat="43.58826" lon="2.95488">
        <ele>414.4</ele>
        <time>2026-05-07T13:41:42.999Z</time>
      </trkpt>
      <trkpt lat="43.58826" lon="2.95489">
        <ele>414.7</ele>
        <time>2026-05-07T13:41:43.999Z</time>
      </trkpt>
      <trkpt lat="43.58827" lon="2.95489">
        <ele>414.8</ele>
        <time>2026-05-07T13:41:44.999Z</time>
      </trkpt>
      <trkpt lat="43.58828" lon="2.95489">
        <ele>414.7</ele>
        <time>2026-05-07T13:41:45.999Z</time>
      </trkpt>
      <trkpt lat="43.58828" lon="2.9549">
        <ele>414.6</ele>
        <time>2026-05-07T13:41:46.999Z</time>
      </trkpt>
      <trkpt lat="43.58829" lon="2.95491">
        <ele>414.9</ele>
        <time>2026-05-07T13:41:47.999Z</time>
      </trkpt>
      <trkpt lat="43.58829" lon="2.95492">
        <ele>415.4</ele>
        <time>2026-05-07T13:41:48.999Z</time>
      </trkpt>
      <trkpt lat="43.5883" lon="2.95491">
        <ele>415.4</ele>
        <time>2026-05-07T13:41:49.999Z</time>
      </trkpt>
      <trkpt lat="43.5883" lon="2.95491">
        <ele>415.1</ele>
        <time>2026-05-07T13:41:50.999Z</time>
      </trkpt>
      <trkpt lat="43.58831" lon="2.95491">
        <ele>414.8</ele>
        <time>2026-05-07T13:41:51.999Z</time>
      </trkpt>
      <trkpt lat="43.58831" lon="2.95492">
        <ele>414.9</ele>
        <time>2026-05-07T13:41:52.999Z</time>
      </trkpt>
      <trkpt lat="43.58832" lon="2.95494">
        <ele>415.4</ele>
        <time>2026-05-07T13:41:53.999Z</time>
      </trkpt>
      <trkpt lat="43.58832" lon="2.95495">
        <ele>415.8</ele>
        <time>2026-05-07T13:41:54.999Z</time>
      </trkpt>
      <trkpt lat="43.58833" lon="2.95495">
        <ele>415.5</ele>
        <time>2026-05-07T13:41:55.999Z</time>
      </trkpt>
      <trkpt lat="43.58833" lon="2.95497">
        <ele>415.3</ele>
        <time>2026-05-07T13:41:56.999Z</time>
      </trkpt>
      <trkpt lat="43.58834" lon="2.95499">
        <ele>415.3</ele>
        <time>2026-05-07T13:41:57.999Z</time>
      </trkpt>
      <trkpt lat="43.58834" lon="2.95501">
        <ele>415.4</ele>
        <time>2026-05-07T13:41:58.999Z</time>
      </trkpt>
      <trkpt lat="43.58834" lon="2.95502">
        <ele>415.5</ele>
        <time>2026-05-07T13:41:59.999Z</time>
      </trkpt>
      <trkpt lat="43.58835" lon="2.95504">
        <ele>415.7</ele>
        <time>2026-05-07T13:42:00.999Z</time>
      </trkpt>
      <trkpt lat="43.58835" lon="2.95507">
        <ele>415.7</ele>
        <time>2026-05-07T13:42:01.999Z</time>
      </trkpt>
      <trkpt lat="43.58836" lon="2.95509">
        <ele>415.7</ele>
        <time>2026-05-07T13:42:02.999Z</time>
      </trkpt>
      <trkpt lat="43.58836" lon="2.95512">
        <ele>415.7</ele>
        <time>2026-05-07T13:42:03.999Z</time>
      </trkpt>
      <trkpt lat="43.58837" lon="2.95515">
        <ele>415.6</ele>
        <time>2026-05-07T13:42:04.999Z</time>
      </trkpt>
      <trkpt lat="43.58837" lon="2.95517">
        <ele>415.5</ele>
        <time>2026-05-07T13:42:05.999Z</time>
      </trkpt>
      <trkpt lat="43.58838" lon="2.95519">
        <ele>415.5</ele>
        <time>2026-05-07T13:42:06.999Z</time>
      </trkpt>
      <trkpt lat="43.58838" lon="2.9552">
        <ele>415.1</ele>
        <time>2026-05-07T13:42:07.999Z</time>
      </trkpt>
      <trkpt lat="43.58839" lon="2.95521">
        <ele>415.5</ele>
        <time>2026-05-07T13:42:08.999Z</time>
      </trkpt>
      <trkpt lat="43.58839" lon="2.95521">
        <ele>415.5</ele>
        <time>2026-05-07T13:42:09.999Z</time>
      </trkpt>
      <trkpt lat="43.5884" lon="2.95521">
        <ele>415.5</ele>
        <time>2026-05-07T13:42:10.999Z</time>
      </trkpt>
      <trkpt lat="43.58841" lon="2.95522">
        <ele>415.2</ele>
        <time>2026-05-07T13:42:11.999Z</time>
      </trkpt>
      <trkpt lat="43.58842" lon="2.95523">
        <ele>414.9</ele>
        <time>2026-05-07T13:42:12.999Z</time>
      </trkpt>
      <trkpt lat="43.58843" lon="2.95524">
        <ele>415</ele>
        <time>2026-05-07T13:42:13.999Z</time>
      </trkpt>
      <trkpt lat="43.58844" lon="2.95525">
        <ele>415.1</ele>
        <time>2026-05-07T13:42:14.999Z</time>
      </trkpt>
      <trkpt lat="43.58845" lon="2.95525">
        <ele>415.2</ele>
        <time>2026-05-07T13:42:15.999Z</time>
      </trkpt>
      <trkpt lat="43.58845" lon="2.95526">
        <ele>415.3</ele>
        <time>2026-05-07T13:42:16.999Z</time>
      </trkpt>
      <trkpt lat="43.58846" lon="2.95527">
        <ele>415.1</ele>
        <time>2026-05-07T13:42:17.999Z</time>
      </trkpt>
      <trkpt lat="43.58846" lon="2.95528">
        <ele>415.1</ele>
        <time>2026-05-07T13:42:18.999Z</time>
      </trkpt>
      <trkpt lat="43.58847" lon="2.95528">
        <ele>415.1</ele>
        <time>2026-05-07T13:42:19.999Z</time>
      </trkpt>
      <trkpt lat="43.58848" lon="2.9553">
        <ele>415</ele>
        <time>2026-05-07T13:42:20.999Z</time>
      </trkpt>
      <trkpt lat="43.5885" lon="2.95531">
        <ele>414.7</ele>
        <time>2026-05-07T13:42:21.999Z</time>
      </trkpt>
      <trkpt lat="43.58851" lon="2.95532">
        <ele>414.4</ele>
        <time>2026-05-07T13:42:22.999Z</time>
      </trkpt>
      <trkpt lat="43.58852" lon="2.95534">
        <ele>414.2</ele>
        <time>2026-05-07T13:42:23.999Z</time>
      </trkpt>
      <trkpt lat="43.58853" lon="2.95535">
        <ele>414</ele>
        <time>2026-05-07T13:42:24.999Z</time>
      </trkpt>
      <trkpt lat="43.58853" lon="2.95537">
        <ele>413.6</ele>
        <time>2026-05-07T13:42:25.999Z</time>
      </trkpt>
      <trkpt lat="43.58854" lon="2.95538">
        <ele>413.6</ele>
        <time>2026-05-07T13:42:26.999Z</time>
      </trkpt>
      <trkpt lat="43.58854" lon="2.95539">
        <ele>413.4</ele>
        <time>2026-05-07T13:42:27.999Z</time>
      </trkpt>
      <trkpt lat="43.58855" lon="2.9554">
        <ele>414.2</ele>
        <time>2026-05-07T13:42:28.999Z</time>
      </trkpt>
      <trkpt lat="43.58855" lon="2.95542">
        <ele>414.5</ele>
        <time>2026-05-07T13:42:29.999Z</time>
      </trkpt>
      <trkpt lat="43.58857" lon="2.95543">
        <ele>414.6</ele>
        <time>2026-05-07T13:42:30.999Z</time>
      </trkpt>
      <trkpt lat="43.58858" lon="2.95545">
        <ele>414.4</ele>
        <time>2026-05-07T13:42:31.999Z</time>
      </trkpt>
      <trkpt lat="43.58859" lon="2.95545">
        <ele>413.9</ele>
        <time>2026-05-07T13:42:32.999Z</time>
      </trkpt>
      <trkpt lat="43.58859" lon="2.95546">
        <ele>413.7</ele>
        <time>2026-05-07T13:42:33.999Z</time>
      </trkpt>
      <trkpt lat="43.58859" lon="2.95548">
        <ele>413.8</ele>
        <time>2026-05-07T13:42:34.999Z</time>
      </trkpt>
      <trkpt lat="43.5886" lon="2.9555">
        <ele>414.1</ele>
        <time>2026-05-07T13:42:35.999Z</time>
      </trkpt>
      <trkpt lat="43.5886" lon="2.95553">
        <ele>414.4</ele>
        <time>2026-05-07T13:42:36.999Z</time>
      </trkpt>
      <trkpt lat="43.5886" lon="2.95555">
        <ele>414.6</ele>
        <time>2026-05-07T13:42:37.999Z</time>
      </trkpt>
      <trkpt lat="43.5886" lon="2.95557">
        <ele>414.1</ele>
        <time>2026-05-07T13:42:38.999Z</time>
      </trkpt>
      <trkpt lat="43.5886" lon="2.95559">
        <ele>414.2</ele>
        <time>2026-05-07T13:42:39.999Z</time>
      </trkpt>
      <trkpt lat="43.5886" lon="2.95561">
        <ele>415</ele>
        <time>2026-05-07T13:42:40.999Z</time>
      </trkpt>
      <trkpt lat="43.58859" lon="2.95564">
        <ele>416</ele>
        <time>2026-05-07T13:42:41.999Z</time>
      </trkpt>
      <trkpt lat="43.58859" lon="2.95565">
        <ele>415.1</ele>
        <time>2026-05-07T13:42:42.999Z</time>
      </trkpt>
      <trkpt lat="43.58858" lon="2.95566">
        <ele>414.6</ele>
        <time>2026-05-07T13:42:43.999Z</time>
      </trkpt>
      <trkpt lat="43.58858" lon="2.95568">
        <ele>414.7</ele>
        <time>2026-05-07T13:42:44.999Z</time>
      </trkpt>
      <trkpt lat="43.58858" lon="2.95569">
        <ele>414.3</ele>
        <time>2026-05-07T13:42:45.999Z</time>
      </trkpt>
      <trkpt lat="43.58857" lon="2.9557">
        <ele>414.4</ele>
        <time>2026-05-07T13:42:46.999Z</time>
      </trkpt>
      <trkpt lat="43.58857" lon="2.95571">
        <ele>414.2</ele>
        <time>2026-05-07T13:42:47.999Z</time>
      </trkpt>
      <trkpt lat="43.58857" lon="2.9557">
        <ele>413.9</ele>
        <time>2026-05-07T13:42:48.999Z</time>
      </trkpt>
      <trkpt lat="43.58857" lon="2.95568">
        <ele>412.8</ele>
        <time>2026-05-07T13:42:49.999Z</time>
      </trkpt>
      <trkpt lat="43.58857" lon="2.95568">
        <ele>412.2</ele>
        <time>2026-05-07T13:42:50.999Z</time>
      </trkpt>
      <trkpt lat="43.58857" lon="2.95567">
        <ele>412.9</ele>
        <time>2026-05-07T13:42:51.999Z</time>
      </trkpt>
      <trkpt lat="43.58857" lon="2.95567">
        <ele>412.9</ele>
        <time>2026-05-07T13:42:52.999Z</time>
      </trkpt>
      <trkpt lat="43.58857" lon="2.95567">
        <ele>414.7</ele>
        <time>2026-05-07T13:42:53.999Z</time>
      </trkpt>
      <trkpt lat="43.58857" lon="2.95567">
        <ele>414.9</ele>
        <time>2026-05-07T13:42:54.999Z</time>
      </trkpt>
      <trkpt lat="43.58857" lon="2.95567">
        <ele>415</ele>
        <time>2026-05-07T13:42:55.999Z</time>
      </trkpt>
      <trkpt lat="43.58857" lon="2.95567">
        <ele>415.1</ele>
        <time>2026-05-07T13:42:56.999Z</time>
      </trkpt>
      <trkpt lat="43.58857" lon="2.95568">
        <ele>415.5</ele>
        <time>2026-05-07T13:42:57.999Z</time>
      </trkpt>
      <trkpt lat="43.58858" lon="2.95569">
        <ele>415.5</ele>
        <time>2026-05-07T13:42:58.999Z</time>
      </trkpt>
      <trkpt lat="43.58858" lon="2.95571">
        <ele>415.6</ele>
        <time>2026-05-07T13:42:59.999Z</time>
      </trkpt>
      <trkpt lat="43.58858" lon="2.95572">
        <ele>416</ele>
        <time>2026-05-07T13:43:00.999Z</time>
      </trkpt>
      <trkpt lat="43.58858" lon="2.95572">
        <ele>416</ele>
        <time>2026-05-07T13:43:01.999Z</time>
      </trkpt>
      <trkpt lat="43.58858" lon="2.95572">
        <ele>415.5</ele>
        <time>2026-05-07T13:43:02.999Z</time>
      </trkpt>
      <trkpt lat="43.58858" lon="2.95572">
        <ele>415.2</ele>
        <time>2026-05-07T13:43:03.999Z</time>
      </trkpt>
      <trkpt lat="43.58858" lon="2.95572">
        <ele>414.8</ele>
        <time>2026-05-07T13:43:04.999Z</time>
      </trkpt>
      <trkpt lat="43.58858" lon="2.95572">
        <ele>414.5</ele>
        <time>2026-05-07T13:43:06.999Z</time>
      </trkpt>
      <trkpt lat="43.58858" lon="2.95572">
        <ele>414.7</ele>
        <time>2026-05-07T13:43:07.999Z</time>
      </trkpt>
      <trkpt lat="43.58858" lon="2.95572">
        <ele>414.6</ele>
        <time>2026-05-07T13:43:08.999Z</time>
      </trkpt>
      <trkpt lat="43.58858" lon="2.95572">
        <ele>414.6</ele>
        <time>2026-05-07T13:43:09.999Z</time>
      </trkpt>
      <trkpt lat="43.58858" lon="2.95572">
        <ele>414.6</ele>
        <time>2026-05-07T13:43:10.999Z</time>
      </trkpt>
      <trkpt lat="43.58858" lon="2.95572">
        <ele>414.5</ele>
        <time>2026-05-07T13:43:11.999Z</time>
      </trkpt>
      <trkpt lat="43.58856" lon="2.95573">
        <ele>414.9</ele>
        <time>2026-05-07T13:43:12.999Z</time>
      </trkpt>
      <trkpt lat="43.58856" lon="2.95575">
        <ele>415.1</ele>
        <time>2026-05-07T13:43:13.999Z</time>
      </trkpt>
      <trkpt lat="43.58856" lon="2.95575">
        <ele>415</ele>
        <time>2026-05-07T13:43:14.999Z</time>
      </trkpt>
      <trkpt lat="43.58856" lon="2.95575">
        <ele>415</ele>
        <time>2026-05-07T13:43:15.999Z</time>
      </trkpt>
      <trkpt lat="43.58857" lon="2.95575">
        <ele>414.6</ele>
        <time>2026-05-07T13:43:16.999Z</time>
      </trkpt>
      <trkpt lat="43.58857" lon="2.95575">
        <ele>414.7</ele>
        <time>2026-05-07T13:43:17.999Z</time>
      </trkpt>
      <trkpt lat="43.58857" lon="2.95575">
        <ele>414.7</ele>
        <time>2026-05-07T13:43:18.999Z</time>
      </trkpt>
      <trkpt lat="43.58857" lon="2.95574">
        <ele>414.5</ele>
        <time>2026-05-07T13:43:19.999Z</time>
      </trkpt>
      <trkpt lat="43.58857" lon="2.95574">
        <ele>414.3</ele>
        <time>2026-05-07T13:43:20.999Z</time>
      </trkpt>
      <trkpt lat="43.58857" lon="2.95574">
        <ele>414</ele>
        <time>2026-05-07T13:43:21.999Z</time>
      </trkpt>
      <trkpt lat="43.58857" lon="2.95574">
        <ele>414.1</ele>
        <time>2026-05-07T13:43:22.999Z</time>
      </trkpt>
      <trkpt lat="43.58857" lon="2.95574">
        <ele>414</ele>
        <time>2026-05-07T13:43:23.999Z</time>
      </trkpt>
      <trkpt lat="43.58857" lon="2.95574">
        <ele>414.4</ele>
        <time>2026-05-07T13:43:24.999Z</time>
      </trkpt>
      <trkpt lat="43.58857" lon="2.95574">
        <ele>414.9</ele>
        <time>2026-05-07T13:43:25.999Z</time>
      </trkpt>
      <trkpt lat="43.58857" lon="2.95574">
        <ele>414.8</ele>
        <time>2026-05-07T13:43:26.999Z</time>
      </trkpt>
      <trkpt lat="43.58857" lon="2.95574">
        <ele>414.3</ele>
        <time>2026-05-07T13:43:27.999Z</time>
      </trkpt>
      <trkpt lat="43.58856" lon="2.95574">
        <ele>413.7</ele>
        <time>2026-05-07T13:43:28.999Z</time>
      </trkpt>
      <trkpt lat="43.58856" lon="2.95574">
        <ele>413.4</ele>
        <time>2026-05-07T13:43:29.999Z</time>
      </trkpt>
      <trkpt lat="43.58856" lon="2.95574">
        <ele>413</ele>
        <time>2026-05-07T13:43:30.999Z</time>
      </trkpt>
      <trkpt lat="43.58856" lon="2.95575">
        <ele>412.5</ele>
        <time>2026-05-07T13:43:31.999Z</time>
      </trkpt>
      <trkpt lat="43.58856" lon="2.95575">
        <ele>412</ele>
        <time>2026-05-07T13:43:32.999Z</time>
      </trkpt>
      <trkpt lat="43.58856" lon="2.95575">
        <ele>411.7</ele>
        <time>2026-05-07T13:43:33.999Z</time>
      </trkpt>
      <trkpt lat="43.58856" lon="2.95575">
        <ele>411.3</ele>
        <time>2026-05-07T13:43:34.999Z</time>
      </trkpt>
      <trkpt lat="43.58855" lon="2.95574">
        <ele>411</ele>
        <time>2026-05-07T13:43:35.999Z</time>
      </trkpt>
      <trkpt lat="43.58856" lon="2.95575">
        <ele>411.3</ele>
        <time>2026-05-07T13:43:36.999Z</time>
      </trkpt>
      <trkpt lat="43.58856" lon="2.95576">
        <ele>411.7</ele>
        <time>2026-05-07T13:43:37.999Z</time>
      </trkpt>
      <trkpt lat="43.58857" lon="2.95579">
        <ele>411.7</ele>
        <time>2026-05-07T13:43:38.999Z</time>
      </trkpt>
      <trkpt lat="43.58857" lon="2.95582">
        <ele>411.9</ele>
        <time>2026-05-07T13:43:39.999Z</time>
      </trkpt>
      <trkpt lat="43.58857" lon="2.95589">
        <ele>412.7</ele>
        <time>2026-05-07T13:43:41.999Z</time>
      </trkpt>
      <trkpt lat="43.58857" lon="2.95594">
        <ele>413.8</ele>
        <time>2026-05-07T13:43:42.999Z</time>
      </trkpt>
      <trkpt lat="43.58857" lon="2.95597">
        <ele>414</ele>
        <time>2026-05-07T13:43:43.999Z</time>
      </trkpt>
      <trkpt lat="43.58858" lon="2.95598">
        <ele>413.9</ele>
        <time>2026-05-07T13:43:44.999Z</time>
      </trkpt>
      <trkpt lat="43.58859" lon="2.95598">
        <ele>413.5</ele>
        <time>2026-05-07T13:43:45.999Z</time>
      </trkpt>
      <trkpt lat="43.5886" lon="2.95599">
        <ele>413.4</ele>
        <time>2026-05-07T13:43:46.999Z</time>
      </trkpt>
      <trkpt lat="43.58861" lon="2.956">
        <ele>413.1</ele>
        <time>2026-05-07T13:43:47.999Z</time>
      </trkpt>
      <trkpt lat="43.58862" lon="2.95601">
        <ele>413.4</ele>
        <time>2026-05-07T13:43:48.999Z</time>
      </trkpt>
      <trkpt lat="43.58862" lon="2.95602">
        <ele>414.1</ele>
        <time>2026-05-07T13:43:49.999Z</time>
      </trkpt>
      <trkpt lat="43.58863" lon="2.95602">
        <ele>414.7</ele>
        <time>2026-05-07T13:43:50.999Z</time>
      </trkpt>
      <trkpt lat="43.58864" lon="2.95603">
        <ele>414.6</ele>
        <time>2026-05-07T13:43:51.999Z</time>
      </trkpt>
      <trkpt lat="43.58865" lon="2.95604">
        <ele>414</ele>
        <time>2026-05-07T13:43:52.999Z</time>
      </trkpt>
      <trkpt lat="43.58866" lon="2.95605">
        <ele>413.4</ele>
        <time>2026-05-07T13:43:53.999Z</time>
      </trkpt>
      <trkpt lat="43.58867" lon="2.95607">
        <ele>413</ele>
        <time>2026-05-07T13:43:54.999Z</time>
      </trkpt>
      <trkpt lat="43.58868" lon="2.95608">
        <ele>413.3</ele>
        <time>2026-05-07T13:43:55.999Z</time>
      </trkpt>
      <trkpt lat="43.58869" lon="2.95609">
        <ele>413.9</ele>
        <time>2026-05-07T13:43:56.999Z</time>
      </trkpt>
      <trkpt lat="43.5887" lon="2.95609">
        <ele>414.3</ele>
        <time>2026-05-07T13:43:57.999Z</time>
      </trkpt>
      <trkpt lat="43.58871" lon="2.95608">
        <ele>414.3</ele>
        <time>2026-05-07T13:43:58.999Z</time>
      </trkpt>
      <trkpt lat="43.58872" lon="2.95608">
        <ele>414.6</ele>
        <time>2026-05-07T13:43:59.999Z</time>
      </trkpt>
      <trkpt lat="43.58873" lon="2.95609">
        <ele>415.1</ele>
        <time>2026-05-07T13:44:00.999Z</time>
      </trkpt>
      <trkpt lat="43.58874" lon="2.9561">
        <ele>414.6</ele>
        <time>2026-05-07T13:44:01.999Z</time>
      </trkpt>
      <trkpt lat="43.58874" lon="2.95611">
        <ele>414.2</ele>
        <time>2026-05-07T13:44:02.999Z</time>
      </trkpt>
      <trkpt lat="43.58875" lon="2.95611">
        <ele>414.1</ele>
        <time>2026-05-07T13:44:03.999Z</time>
      </trkpt>
      <trkpt lat="43.58876" lon="2.95612">
        <ele>414.3</ele>
        <time>2026-05-07T13:44:04.999Z</time>
      </trkpt>
      <trkpt lat="43.58876" lon="2.95612">
        <ele>414.3</ele>
        <time>2026-05-07T13:44:05.999Z</time>
      </trkpt>
      <trkpt lat="43.58877" lon="2.95613">
        <ele>414.5</ele>
        <time>2026-05-07T13:44:06.999Z</time>
      </trkpt>
      <trkpt lat="43.58878" lon="2.95613">
        <ele>414.3</ele>
        <time>2026-05-07T13:44:07.999Z</time>
      </trkpt>
      <trkpt lat="43.58879" lon="2.95614">
        <ele>414.1</ele>
        <time>2026-05-07T13:44:08.999Z</time>
      </trkpt>
      <trkpt lat="43.5888" lon="2.95615">
        <ele>413.8</ele>
        <time>2026-05-07T13:44:09.999Z</time>
      </trkpt>
      <trkpt lat="43.5888" lon="2.95616">
        <ele>414.2</ele>
        <time>2026-05-07T13:44:10.999Z</time>
      </trkpt>
      <trkpt lat="43.58881" lon="2.95617">
        <ele>414.7</ele>
        <time>2026-05-07T13:44:11.999Z</time>
      </trkpt>
      <trkpt lat="43.58881" lon="2.95619">
        <ele>414.3</ele>
        <time>2026-05-07T13:44:12.999Z</time>
      </trkpt>
      <trkpt lat="43.58881" lon="2.95619">
        <ele>413.7</ele>
        <time>2026-05-07T13:44:13.999Z</time>
      </trkpt>
      <trkpt lat="43.58882" lon="2.95621">
        <ele>413.3</ele>
        <time>2026-05-07T13:44:14.999Z</time>
      </trkpt>
      <trkpt lat="43.58882" lon="2.95622">
        <ele>412.8</ele>
        <time>2026-05-07T13:44:15.999Z</time>
      </trkpt>
      <trkpt lat="43.58883" lon="2.95623">
        <ele>412</ele>
        <time>2026-05-07T13:44:16.999Z</time>
      </trkpt>
      <trkpt lat="43.58884" lon="2.95623">
        <ele>411.1</ele>
        <time>2026-05-07T13:44:17.999Z</time>
      </trkpt>
      <trkpt lat="43.58885" lon="2.95625">
        <ele>411.3</ele>
        <time>2026-05-07T13:44:18.999Z</time>
      </trkpt>
      <trkpt lat="43.58886" lon="2.95626">
        <ele>411.6</ele>
        <time>2026-05-07T13:44:19.999Z</time>
      </trkpt>
      <trkpt lat="43.58886" lon="2.95627">
        <ele>411.9</ele>
        <time>2026-05-07T13:44:20.999Z</time>
      </trkpt>
      <trkpt lat="43.58887" lon="2.95629">
        <ele>412.8</ele>
        <time>2026-05-07T13:44:21.999Z</time>
      </trkpt>
      <trkpt lat="43.58887" lon="2.9563">
        <ele>412.8</ele>
        <time>2026-05-07T13:44:22.999Z</time>
      </trkpt>
      <trkpt lat="43.58888" lon="2.95631">
        <ele>412.5</ele>
        <time>2026-05-07T13:44:23.999Z</time>
      </trkpt>
      <trkpt lat="43.58889" lon="2.95632">
        <ele>411.8</ele>
        <time>2026-05-07T13:44:24.999Z</time>
      </trkpt>
      <trkpt lat="43.58889" lon="2.95634">
        <ele>411.3</ele>
        <time>2026-05-07T13:44:25.999Z</time>
      </trkpt>
      <trkpt lat="43.58889" lon="2.95635">
        <ele>410.8</ele>
        <time>2026-05-07T13:44:26.999Z</time>
      </trkpt>
      <trkpt lat="43.5889" lon="2.95636">
        <ele>411.3</ele>
        <time>2026-05-07T13:44:27.999Z</time>
      </trkpt>
      <trkpt lat="43.5889" lon="2.95638">
        <ele>411.6</ele>
        <time>2026-05-07T13:44:28.999Z</time>
      </trkpt>
      <trkpt lat="43.58891" lon="2.9564">
        <ele>411.5</ele>
        <time>2026-05-07T13:44:29.999Z</time>
      </trkpt>
      <trkpt lat="43.58891" lon="2.95643">
        <ele>410.8</ele>
        <time>2026-05-07T13:44:30.999Z</time>
      </trkpt>
      <trkpt lat="43.58891" lon="2.95645">
        <ele>410.6</ele>
        <time>2026-05-07T13:44:31.999Z</time>
      </trkpt>
      <trkpt lat="43.5889" lon="2.95648">
        <ele>410.4</ele>
        <time>2026-05-07T13:44:32.999Z</time>
      </trkpt>
      <trkpt lat="43.5889" lon="2.9565">
        <ele>410.5</ele>
        <time>2026-05-07T13:44:33.999Z</time>
      </trkpt>
      <trkpt lat="43.5889" lon="2.95652">
        <ele>410.5</ele>
        <time>2026-05-07T13:44:34.999Z</time>
      </trkpt>
      <trkpt lat="43.58889" lon="2.95653">
        <ele>410.1</ele>
        <time>2026-05-07T13:44:35.999Z</time>
      </trkpt>
      <trkpt lat="43.58888" lon="2.95654">
        <ele>409.8</ele>
        <time>2026-05-07T13:44:36.999Z</time>
      </trkpt>
      <trkpt lat="43.58887" lon="2.95655">
        <ele>410.1</ele>
        <time>2026-05-07T13:44:37.999Z</time>
      </trkpt>
      <trkpt lat="43.58886" lon="2.95656">
        <ele>410.3</ele>
        <time>2026-05-07T13:44:38.999Z</time>
      </trkpt>
      <trkpt lat="43.58886" lon="2.95657">
        <ele>410.4</ele>
        <time>2026-05-07T13:44:39.999Z</time>
      </trkpt>
      <trkpt lat="43.58885" lon="2.95658">
        <ele>410.1</ele>
        <time>2026-05-07T13:44:40.999Z</time>
      </trkpt>
      <trkpt lat="43.58884" lon="2.9566">
        <ele>410.2</ele>
        <time>2026-05-07T13:44:41.999Z</time>
      </trkpt>
      <trkpt lat="43.58883" lon="2.95661">
        <ele>410.5</ele>
        <time>2026-05-07T13:44:42.999Z</time>
      </trkpt>
      <trkpt lat="43.58883" lon="2.95662">
        <ele>410.5</ele>
        <time>2026-05-07T13:44:43.999Z</time>
      </trkpt>
      <trkpt lat="43.58883" lon="2.95663">
        <ele>410.5</ele>
        <time>2026-05-07T13:44:44.999Z</time>
      </trkpt>
      <trkpt lat="43.58883" lon="2.95664">
        <ele>409.9</ele>
        <time>2026-05-07T13:44:45.999Z</time>
      </trkpt>
      <trkpt lat="43.58883" lon="2.95665">
        <ele>409.4</ele>
        <time>2026-05-07T13:44:46.999Z</time>
      </trkpt>
      <trkpt lat="43.58882" lon="2.95666">
        <ele>408.8</ele>
        <time>2026-05-07T13:44:47.999Z</time>
      </trkpt>
      <trkpt lat="43.58882" lon="2.95667">
        <ele>408.2</ele>
        <time>2026-05-07T13:44:48.999Z</time>
      </trkpt>
      <trkpt lat="43.58881" lon="2.95669">
        <ele>408.6</ele>
        <time>2026-05-07T13:44:49.999Z</time>
      </trkpt>
      <trkpt lat="43.5888" lon="2.95671">
        <ele>407.8</ele>
        <time>2026-05-07T13:44:50.999Z</time>
      </trkpt>
      <trkpt lat="43.5888" lon="2.95673">
        <ele>407.9</ele>
        <time>2026-05-07T13:44:51.999Z</time>
      </trkpt>
      <trkpt lat="43.58879" lon="2.95674">
        <ele>408.1</ele>
        <time>2026-05-07T13:44:52.999Z</time>
      </trkpt>
      <trkpt lat="43.58879" lon="2.95675">
        <ele>408.1</ele>
        <time>2026-05-07T13:44:53.999Z</time>
      </trkpt>
      <trkpt lat="43.58879" lon="2.95677">
        <ele>407.4</ele>
        <time>2026-05-07T13:44:54.999Z</time>
      </trkpt>
      <trkpt lat="43.58879" lon="2.95678">
        <ele>406.7</ele>
        <time>2026-05-07T13:44:55.999Z</time>
      </trkpt>
      <trkpt lat="43.58878" lon="2.95681">
        <ele>406.6</ele>
        <time>2026-05-07T13:44:56.999Z</time>
      </trkpt>
      <trkpt lat="43.58878" lon="2.95683">
        <ele>406.9</ele>
        <time>2026-05-07T13:44:57.999Z</time>
      </trkpt>
      <trkpt lat="43.58878" lon="2.95684">
        <ele>406.8</ele>
        <time>2026-05-07T13:44:58.999Z</time>
      </trkpt>
      <trkpt lat="43.58878" lon="2.95685">
        <ele>406.3</ele>
        <time>2026-05-07T13:44:59.999Z</time>
      </trkpt>
      <trkpt lat="43.58877" lon="2.95686">
        <ele>406.6</ele>
        <time>2026-05-07T13:45:00.999Z</time>
      </trkpt>
      <trkpt lat="43.58876" lon="2.95686">
        <ele>406.8</ele>
        <time>2026-05-07T13:45:01.999Z</time>
      </trkpt>
      <trkpt lat="43.58875" lon="2.95687">
        <ele>406.4</ele>
        <time>2026-05-07T13:45:02.999Z</time>
      </trkpt>
      <trkpt lat="43.58874" lon="2.95689">
        <ele>406.4</ele>
        <time>2026-05-07T13:45:03.999Z</time>
      </trkpt>
      <trkpt lat="43.58873" lon="2.9569">
        <ele>406.3</ele>
        <time>2026-05-07T13:45:04.999Z</time>
      </trkpt>
      <trkpt lat="43.58872" lon="2.95692">
        <ele>406.4</ele>
        <time>2026-05-07T13:45:05.999Z</time>
      </trkpt>
      <trkpt lat="43.58871" lon="2.95693">
        <ele>406.7</ele>
        <time>2026-05-07T13:45:06.999Z</time>
      </trkpt>
      <trkpt lat="43.5887" lon="2.95694">
        <ele>406.2</ele>
        <time>2026-05-07T13:45:07.999Z</time>
      </trkpt>
      <trkpt lat="43.58869" lon="2.95694">
        <ele>406.2</ele>
        <time>2026-05-07T13:45:08.999Z</time>
      </trkpt>
      <trkpt lat="43.58869" lon="2.95694">
        <ele>406.3</ele>
        <time>2026-05-07T13:45:09.999Z</time>
      </trkpt>
      <trkpt lat="43.58868" lon="2.95695">
        <ele>406.1</ele>
        <time>2026-05-07T13:45:10.999Z</time>
      </trkpt>
      <trkpt lat="43.58869" lon="2.95694">
        <ele>404.6</ele>
        <time>2026-05-07T13:45:11.999Z</time>
      </trkpt>
      <trkpt lat="43.5887" lon="2.95693">
        <ele>403.5</ele>
        <time>2026-05-07T13:45:12.999Z</time>
      </trkpt>
      <trkpt lat="43.5887" lon="2.95693">
        <ele>405.2</ele>
        <time>2026-05-07T13:45:13.999Z</time>
      </trkpt>
      <trkpt lat="43.5887" lon="2.95693">
        <ele>405.6</ele>
        <time>2026-05-07T13:45:14.999Z</time>
      </trkpt>
      <trkpt lat="43.5887" lon="2.95692">
        <ele>405.6</ele>
        <time>2026-05-07T13:45:15.999Z</time>
      </trkpt>
      <trkpt lat="43.5887" lon="2.95692">
        <ele>405.4</ele>
        <time>2026-05-07T13:45:16.999Z</time>
      </trkpt>
      <trkpt lat="43.58868" lon="2.95692">
        <ele>405.2</ele>
        <time>2026-05-07T13:45:17.999Z</time>
      </trkpt>
      <trkpt lat="43.58868" lon="2.95692">
        <ele>405.1</ele>
        <time>2026-05-07T13:45:18.999Z</time>
      </trkpt>
      <trkpt lat="43.58867" lon="2.95691">
        <ele>405.1</ele>
        <time>2026-05-07T13:45:19.999Z</time>
      </trkpt>
      <trkpt lat="43.58866" lon="2.95691">
        <ele>405.2</ele>
        <time>2026-05-07T13:45:20.999Z</time>
      </trkpt>
      <trkpt lat="43.58866" lon="2.9569">
        <ele>404.8</ele>
        <time>2026-05-07T13:45:21.999Z</time>
      </trkpt>
      <trkpt lat="43.58865" lon="2.9569">
        <ele>404.6</ele>
        <time>2026-05-07T13:45:22.999Z</time>
      </trkpt>
      <trkpt lat="43.58865" lon="2.9569">
        <ele>404.4</ele>
        <time>2026-05-07T13:45:23.999Z</time>
      </trkpt>
      <trkpt lat="43.58865" lon="2.95691">
        <ele>404.1</ele>
        <time>2026-05-07T13:45:24.999Z</time>
      </trkpt>
      <trkpt lat="43.58864" lon="2.9569">
        <ele>403.8</ele>
        <time>2026-05-07T13:45:25.999Z</time>
      </trkpt>
      <trkpt lat="43.58864" lon="2.9569">
        <ele>403.5</ele>
        <time>2026-05-07T13:45:26.999Z</time>
      </trkpt>
      <trkpt lat="43.58865" lon="2.9569">
        <ele>403.5</ele>
        <time>2026-05-07T13:45:27.999Z</time>
      </trkpt>
      <trkpt lat="43.58865" lon="2.9569">
        <ele>403.4</ele>
        <time>2026-05-07T13:45:28.999Z</time>
      </trkpt>
      <trkpt lat="43.58866" lon="2.9569">
        <ele>403.5</ele>
        <time>2026-05-07T13:45:29.999Z</time>
      </trkpt>
      <trkpt lat="43.58867" lon="2.9569">
        <ele>403.3</ele>
        <time>2026-05-07T13:45:30.999Z</time>
      </trkpt>
      <trkpt lat="43.58867" lon="2.95691">
        <ele>403.7</ele>
        <time>2026-05-07T13:45:31.999Z</time>
      </trkpt>
      <trkpt lat="43.58868" lon="2.95692">
        <ele>404</ele>
        <time>2026-05-07T13:45:32.999Z</time>
      </trkpt>
      <trkpt lat="43.58868" lon="2.95691">
        <ele>403.9</ele>
        <time>2026-05-07T13:45:33.999Z</time>
      </trkpt>
      <trkpt lat="43.58868" lon="2.95691">
        <ele>404</ele>
        <time>2026-05-07T13:45:34.999Z</time>
      </trkpt>
      <trkpt lat="43.58868" lon="2.95691">
        <ele>404.9</ele>
        <time>2026-05-07T13:45:35.999Z</time>
      </trkpt>
      <trkpt lat="43.58868" lon="2.9569">
        <ele>405.1</ele>
        <time>2026-05-07T13:45:36.999Z</time>
      </trkpt>
      <trkpt lat="43.58868" lon="2.9569">
        <ele>405.1</ele>
        <time>2026-05-07T13:45:37.999Z</time>
      </trkpt>
      <trkpt lat="43.58868" lon="2.9569">
        <ele>405.3</ele>
        <time>2026-05-07T13:45:38.999Z</time>
      </trkpt>
      <trkpt lat="43.58868" lon="2.9569">
        <ele>405.6</ele>
        <time>2026-05-07T13:45:39.999Z</time>
      </trkpt>
      <trkpt lat="43.58868" lon="2.95689">
        <ele>405.7</ele>
        <time>2026-05-07T13:45:40.999Z</time>
      </trkpt>
      <trkpt lat="43.58869" lon="2.95688">
        <ele>405.5</ele>
        <time>2026-05-07T13:45:41.999Z</time>
      </trkpt>
      <trkpt lat="43.5887" lon="2.95686">
        <ele>405.4</ele>
        <time>2026-05-07T13:45:42.999Z</time>
      </trkpt>
      <trkpt lat="43.58869" lon="2.95685">
        <ele>405.4</ele>
        <time>2026-05-07T13:45:43.999Z</time>
      </trkpt>
      <trkpt lat="43.58868" lon="2.95685">
        <ele>404.9</ele>
        <time>2026-05-07T13:45:44.999Z</time>
      </trkpt>
      <trkpt lat="43.58867" lon="2.95686">
        <ele>404.7</ele>
        <time>2026-05-07T13:45:45.999Z</time>
      </trkpt>
      <trkpt lat="43.58866" lon="2.95686">
        <ele>404.7</ele>
        <time>2026-05-07T13:45:46.999Z</time>
      </trkpt>
      <trkpt lat="43.58866" lon="2.95687">
        <ele>404.7</ele>
        <time>2026-05-07T13:45:47.999Z</time>
      </trkpt>
      <trkpt lat="43.58865" lon="2.95687">
        <ele>404.2</ele>
        <time>2026-05-07T13:45:48.999Z</time>
      </trkpt>
      <trkpt lat="43.58865" lon="2.95687">
        <ele>404.4</ele>
        <time>2026-05-07T13:45:49.999Z</time>
      </trkpt>
      <trkpt lat="43.58865" lon="2.95687">
        <ele>404.6</ele>
        <time>2026-05-07T13:45:50.999Z</time>
      </trkpt>
      <trkpt lat="43.58865" lon="2.95688">
        <ele>404.4</ele>
        <time>2026-05-07T13:45:51.999Z</time>
      </trkpt>
      <trkpt lat="43.58867" lon="2.95689">
        <ele>403.8</ele>
        <time>2026-05-07T13:45:52.999Z</time>
      </trkpt>
      <trkpt lat="43.58868" lon="2.9569">
        <ele>403.9</ele>
        <time>2026-05-07T13:45:53.999Z</time>
      </trkpt>
      <trkpt lat="43.58868" lon="2.95689">
        <ele>404</ele>
        <time>2026-05-07T13:45:54.999Z</time>
      </trkpt>
      <trkpt lat="43.58867" lon="2.95689">
        <ele>403.8</ele>
        <time>2026-05-07T13:45:55.999Z</time>
      </trkpt>
      <trkpt lat="43.58866" lon="2.9569">
        <ele>403.8</ele>
        <time>2026-05-07T13:45:56.999Z</time>
      </trkpt>
      <trkpt lat="43.58864" lon="2.9569">
        <ele>404.3</ele>
        <time>2026-05-07T13:45:57.999Z</time>
      </trkpt>
      <trkpt lat="43.58861" lon="2.95691">
        <ele>404.5</ele>
        <time>2026-05-07T13:45:58.999Z</time>
      </trkpt>
      <trkpt lat="43.58859" lon="2.95691">
        <ele>404.3</ele>
        <time>2026-05-07T13:45:59.999Z</time>
      </trkpt>
      <trkpt lat="43.58857" lon="2.95691">
        <ele>404.1</ele>
        <time>2026-05-07T13:46:00.999Z</time>
      </trkpt>
      <trkpt lat="43.58856" lon="2.95692">
        <ele>403.7</ele>
        <time>2026-05-07T13:46:01.999Z</time>
      </trkpt>
      <trkpt lat="43.58854" lon="2.95693">
        <ele>403.9</ele>
        <time>2026-05-07T13:46:02.999Z</time>
      </trkpt>
      <trkpt lat="43.58853" lon="2.95693">
        <ele>403.7</ele>
        <time>2026-05-07T13:46:03.999Z</time>
      </trkpt>
      <trkpt lat="43.58852" lon="2.95693">
        <ele>403.4</ele>
        <time>2026-05-07T13:46:04.999Z</time>
      </trkpt>
      <trkpt lat="43.58851" lon="2.95692">
        <ele>403</ele>
        <time>2026-05-07T13:46:05.999Z</time>
      </trkpt>
      <trkpt lat="43.58849" lon="2.95691">
        <ele>403.5</ele>
        <time>2026-05-07T13:46:06.999Z</time>
      </trkpt>
      <trkpt lat="43.58847" lon="2.95692">
        <ele>403.8</ele>
        <time>2026-05-07T13:46:07.999Z</time>
      </trkpt>
      <trkpt lat="43.58846" lon="2.95692">
        <ele>403.9</ele>
        <time>2026-05-07T13:46:08.999Z</time>
      </trkpt>
      <trkpt lat="43.58844" lon="2.95692">
        <ele>403.4</ele>
        <time>2026-05-07T13:46:09.999Z</time>
      </trkpt>
      <trkpt lat="43.58842" lon="2.95693">
        <ele>403.4</ele>
        <time>2026-05-07T13:46:10.999Z</time>
      </trkpt>
      <trkpt lat="43.58841" lon="2.95693">
        <ele>403.2</ele>
        <time>2026-05-07T13:46:11.999Z</time>
      </trkpt>
      <trkpt lat="43.5884" lon="2.95693">
        <ele>403</ele>
        <time>2026-05-07T13:46:12.999Z</time>
      </trkpt>
      <trkpt lat="43.58839" lon="2.95693">
        <ele>403.1</ele>
        <time>2026-05-07T13:46:13.999Z</time>
      </trkpt>
      <trkpt lat="43.58837" lon="2.95693">
        <ele>402.9</ele>
        <time>2026-05-07T13:46:14.999Z</time>
      </trkpt>
      <trkpt lat="43.58836" lon="2.95693">
        <ele>402.6</ele>
        <time>2026-05-07T13:46:15.999Z</time>
      </trkpt>
      <trkpt lat="43.58834" lon="2.95693">
        <ele>402.1</ele>
        <time>2026-05-07T13:46:16.999Z</time>
      </trkpt>
      <trkpt lat="43.58832" lon="2.95694">
        <ele>402.6</ele>
        <time>2026-05-07T13:46:17.999Z</time>
      </trkpt>
      <trkpt lat="43.5883" lon="2.95695">
        <ele>402.6</ele>
        <time>2026-05-07T13:46:18.999Z</time>
      </trkpt>
      <trkpt lat="43.58829" lon="2.95696">
        <ele>402.4</ele>
        <time>2026-05-07T13:46:19.999Z</time>
      </trkpt>
      <trkpt lat="43.58827" lon="2.95697">
        <ele>402.5</ele>
        <time>2026-05-07T13:46:20.999Z</time>
      </trkpt>
      <trkpt lat="43.58825" lon="2.95698">
        <ele>402.5</ele>
        <time>2026-05-07T13:46:21.999Z</time>
      </trkpt>
      <trkpt lat="43.58824" lon="2.95698">
        <ele>402.5</ele>
        <time>2026-05-07T13:46:22.999Z</time>
      </trkpt>
      <trkpt lat="43.58822" lon="2.95698">
        <ele>402.4</ele>
        <time>2026-05-07T13:46:23.999Z</time>
      </trkpt>
      <trkpt lat="43.58821" lon="2.95697">
        <ele>401.7</ele>
        <time>2026-05-07T13:46:24.999Z</time>
      </trkpt>
      <trkpt lat="43.5882" lon="2.95695">
        <ele>401.7</ele>
        <time>2026-05-07T13:46:25.999Z</time>
      </trkpt>
      <trkpt lat="43.5882" lon="2.95692">
        <ele>400.1</ele>
        <time>2026-05-07T13:46:26.999Z</time>
      </trkpt>
      <trkpt lat="43.58821" lon="2.95692">
        <ele>399</ele>
        <time>2026-05-07T13:46:27.999Z</time>
      </trkpt>
      <trkpt lat="43.58821" lon="2.95692">
        <ele>399.8</ele>
        <time>2026-05-07T13:46:28.999Z</time>
      </trkpt>
      <trkpt lat="43.5882" lon="2.95691">
        <ele>399.5</ele>
        <time>2026-05-07T13:46:29.999Z</time>
      </trkpt>
      <trkpt lat="43.58818" lon="2.9569">
        <ele>399.3</ele>
        <time>2026-05-07T13:46:30.999Z</time>
      </trkpt>
      <trkpt lat="43.58816" lon="2.9569">
        <ele>399.4</ele>
        <time>2026-05-07T13:46:31.999Z</time>
      </trkpt>
      <trkpt lat="43.58814" lon="2.9569">
        <ele>399.4</ele>
        <time>2026-05-07T13:46:32.999Z</time>
      </trkpt>
      <trkpt lat="43.58813" lon="2.9569">
        <ele>399.3</ele>
        <time>2026-05-07T13:46:33.999Z</time>
      </trkpt>
      <trkpt lat="43.58813" lon="2.95691">
        <ele>398.8</ele>
        <time>2026-05-07T13:46:34.999Z</time>
      </trkpt>
      <trkpt lat="43.58812" lon="2.9569">
        <ele>398.9</ele>
        <time>2026-05-07T13:46:35.999Z</time>
      </trkpt>
      <trkpt lat="43.58811" lon="2.95691">
        <ele>398.9</ele>
        <time>2026-05-07T13:46:36.999Z</time>
      </trkpt>
      <trkpt lat="43.5881" lon="2.95692">
        <ele>399.3</ele>
        <time>2026-05-07T13:46:37.999Z</time>
      </trkpt>
      <trkpt lat="43.58808" lon="2.95693">
        <ele>399.9</ele>
        <time>2026-05-07T13:46:38.999Z</time>
      </trkpt>
      <trkpt lat="43.58806" lon="2.95694">
        <ele>400</ele>
        <time>2026-05-07T13:46:39.999Z</time>
      </trkpt>
      <trkpt lat="43.58805" lon="2.95696">
        <ele>399.6</ele>
        <time>2026-05-07T13:46:40.999Z</time>
      </trkpt>
      <trkpt lat="43.58803" lon="2.95698">
        <ele>399.7</ele>
        <time>2026-05-07T13:46:41.999Z</time>
      </trkpt>
      <trkpt lat="43.588" lon="2.95698">
        <ele>399.9</ele>
        <time>2026-05-07T13:46:42.999Z</time>
      </trkpt>
      <trkpt lat="43.58798" lon="2.95699">
        <ele>400.1</ele>
        <time>2026-05-07T13:46:43.999Z</time>
      </trkpt>
      <trkpt lat="43.58797" lon="2.95699">
        <ele>400.3</ele>
        <time>2026-05-07T13:46:44.999Z</time>
      </trkpt>
      <trkpt lat="43.58796" lon="2.95699">
        <ele>400.2</ele>
        <time>2026-05-07T13:46:45.999Z</time>
      </trkpt>
      <trkpt lat="43.58794" lon="2.95698">
        <ele>399.7</ele>
        <time>2026-05-07T13:46:46.999Z</time>
      </trkpt>
      <trkpt lat="43.58793" lon="2.95697">
        <ele>399</ele>
        <time>2026-05-07T13:46:47.999Z</time>
      </trkpt>
      <trkpt lat="43.58792" lon="2.95697">
        <ele>398</ele>
        <time>2026-05-07T13:46:48.999Z</time>
      </trkpt>
      <trkpt lat="43.58791" lon="2.95697">
        <ele>397.7</ele>
        <time>2026-05-07T13:46:49.999Z</time>
      </trkpt>
      <trkpt lat="43.58791" lon="2.95698">
        <ele>397</ele>
        <time>2026-05-07T13:46:50.999Z</time>
      </trkpt>
      <trkpt lat="43.5879" lon="2.95699">
        <ele>396.9</ele>
        <time>2026-05-07T13:46:51.999Z</time>
      </trkpt>
      <trkpt lat="43.58789" lon="2.95701">
        <ele>397.2</ele>
        <time>2026-05-07T13:46:52.999Z</time>
      </trkpt>
      <trkpt lat="43.58788" lon="2.95702">
        <ele>397.4</ele>
        <time>2026-05-07T13:46:53.999Z</time>
      </trkpt>
      <trkpt lat="43.58786" lon="2.95701">
        <ele>397.6</ele>
        <time>2026-05-07T13:46:54.999Z</time>
      </trkpt>
      <trkpt lat="43.58785" lon="2.95701">
        <ele>397.7</ele>
        <time>2026-05-07T13:46:55.999Z</time>
      </trkpt>
      <trkpt lat="43.58783" lon="2.95701">
        <ele>397.6</ele>
        <time>2026-05-07T13:46:56.999Z</time>
      </trkpt>
      <trkpt lat="43.58781" lon="2.95703">
        <ele>398</ele>
        <time>2026-05-07T13:46:57.999Z</time>
      </trkpt>
      <trkpt lat="43.58779" lon="2.95704">
        <ele>397.8</ele>
        <time>2026-05-07T13:46:58.999Z</time>
      </trkpt>
      <trkpt lat="43.58778" lon="2.95705">
        <ele>397.9</ele>
        <time>2026-05-07T13:46:59.999Z</time>
      </trkpt>
      <trkpt lat="43.58777" lon="2.95705">
        <ele>398.3</ele>
        <time>2026-05-07T13:47:00.999Z</time>
      </trkpt>
      <trkpt lat="43.58775" lon="2.95707">
        <ele>398.7</ele>
        <time>2026-05-07T13:47:01.999Z</time>
      </trkpt>
      <trkpt lat="43.58774" lon="2.95707">
        <ele>398.5</ele>
        <time>2026-05-07T13:47:02.999Z</time>
      </trkpt>
      <trkpt lat="43.58773" lon="2.95707">
        <ele>397.5</ele>
        <time>2026-05-07T13:47:03.999Z</time>
      </trkpt>
      <trkpt lat="43.58772" lon="2.95707">
        <ele>397.5</ele>
        <time>2026-05-07T13:47:04.999Z</time>
      </trkpt>
      <trkpt lat="43.58771" lon="2.95707">
        <ele>397.3</ele>
        <time>2026-05-07T13:47:05.999Z</time>
      </trkpt>
      <trkpt lat="43.5877" lon="2.95708">
        <ele>397.6</ele>
        <time>2026-05-07T13:47:06.999Z</time>
      </trkpt>
      <trkpt lat="43.58768" lon="2.95708">
        <ele>397.8</ele>
        <time>2026-05-07T13:47:07.999Z</time>
      </trkpt>
      <trkpt lat="43.58767" lon="2.95708">
        <ele>398.4</ele>
        <time>2026-05-07T13:47:08.999Z</time>
      </trkpt>
      <trkpt lat="43.58765" lon="2.95708">
        <ele>398.4</ele>
        <time>2026-05-07T13:47:09.999Z</time>
      </trkpt>
      <trkpt lat="43.58764" lon="2.95707">
        <ele>398.1</ele>
        <time>2026-05-07T13:47:10.999Z</time>
      </trkpt>
      <trkpt lat="43.58763" lon="2.95707">
        <ele>398</ele>
        <time>2026-05-07T13:47:11.999Z</time>
      </trkpt>
      <trkpt lat="43.58761" lon="2.95707">
        <ele>397</ele>
        <time>2026-05-07T13:47:12.999Z</time>
      </trkpt>
      <trkpt lat="43.5876" lon="2.95707">
        <ele>396.6</ele>
        <time>2026-05-07T13:47:13.999Z</time>
      </trkpt>
      <trkpt lat="43.58759" lon="2.95708">
        <ele>395.9</ele>
        <time>2026-05-07T13:47:14.999Z</time>
      </trkpt>
      <trkpt lat="43.58757" lon="2.95709">
        <ele>395.2</ele>
        <time>2026-05-07T13:47:15.999Z</time>
      </trkpt>
      <trkpt lat="43.58755" lon="2.95709">
        <ele>394.5</ele>
        <time>2026-05-07T13:47:16.999Z</time>
      </trkpt>
      <trkpt lat="43.58753" lon="2.95709">
        <ele>394.1</ele>
        <time>2026-05-07T13:47:17.999Z</time>
      </trkpt>
      <trkpt lat="43.58751" lon="2.95709">
        <ele>394.5</ele>
        <time>2026-05-07T13:47:18.999Z</time>
      </trkpt>
      <trkpt lat="43.58749" lon="2.95709">
        <ele>394</ele>
        <time>2026-05-07T13:47:19.999Z</time>
      </trkpt>
      <trkpt lat="43.58748" lon="2.9571">
        <ele>393.3</ele>
        <time>2026-05-07T13:47:20.999Z</time>
      </trkpt>
      <trkpt lat="43.58747" lon="2.95709">
        <ele>392.7</ele>
        <time>2026-05-07T13:47:21.999Z</time>
      </trkpt>
      <trkpt lat="43.58745" lon="2.95707">
        <ele>392.8</ele>
        <time>2026-05-07T13:47:22.999Z</time>
      </trkpt>
      <trkpt lat="43.58744" lon="2.95707">
        <ele>393.3</ele>
        <time>2026-05-07T13:47:23.999Z</time>
      </trkpt>
      <trkpt lat="43.58744" lon="2.95705">
        <ele>393</ele>
        <time>2026-05-07T13:47:24.999Z</time>
      </trkpt>
      <trkpt lat="43.58743" lon="2.95705">
        <ele>392.9</ele>
        <time>2026-05-07T13:47:25.999Z</time>
      </trkpt>
      <trkpt lat="43.58742" lon="2.95703">
        <ele>393</ele>
        <time>2026-05-07T13:47:26.999Z</time>
      </trkpt>
      <trkpt lat="43.5874" lon="2.95703">
        <ele>392.9</ele>
        <time>2026-05-07T13:47:27.999Z</time>
      </trkpt>
      <trkpt lat="43.58738" lon="2.95703">
        <ele>392.9</ele>
        <time>2026-05-07T13:47:28.999Z</time>
      </trkpt>
      <trkpt lat="43.58736" lon="2.95703">
        <ele>393</ele>
        <time>2026-05-07T13:47:29.999Z</time>
      </trkpt>
      <trkpt lat="43.58734" lon="2.95701">
        <ele>392.1</ele>
        <time>2026-05-07T13:47:30.999Z</time>
      </trkpt>
      <trkpt lat="43.58733" lon="2.957">
        <ele>391.3</ele>
        <time>2026-05-07T13:47:31.999Z</time>
      </trkpt>
      <trkpt lat="43.58732" lon="2.957">
        <ele>390</ele>
        <time>2026-05-07T13:47:32.999Z</time>
      </trkpt>
      <trkpt lat="43.5873" lon="2.957">
        <ele>389.8</ele>
        <time>2026-05-07T13:47:33.999Z</time>
      </trkpt>
      <trkpt lat="43.58728" lon="2.957">
        <ele>389.8</ele>
        <time>2026-05-07T13:47:34.999Z</time>
      </trkpt>
      <trkpt lat="43.58725" lon="2.95699">
        <ele>390</ele>
        <time>2026-05-07T13:47:35.999Z</time>
      </trkpt>
      <trkpt lat="43.58724" lon="2.957">
        <ele>390.6</ele>
        <time>2026-05-07T13:47:36.999Z</time>
      </trkpt>
      <trkpt lat="43.58722" lon="2.95701">
        <ele>390.8</ele>
        <time>2026-05-07T13:47:37.999Z</time>
      </trkpt>
      <trkpt lat="43.58721" lon="2.957">
        <ele>390.7</ele>
        <time>2026-05-07T13:47:38.999Z</time>
      </trkpt>
      <trkpt lat="43.5872" lon="2.957">
        <ele>389.9</ele>
        <time>2026-05-07T13:47:39.999Z</time>
      </trkpt>
      <trkpt lat="43.58719" lon="2.95699">
        <ele>389.8</ele>
        <time>2026-05-07T13:47:40.999Z</time>
      </trkpt>
      <trkpt lat="43.58717" lon="2.957">
        <ele>389.6</ele>
        <time>2026-05-07T13:47:41.999Z</time>
      </trkpt>
      <trkpt lat="43.58716" lon="2.957">
        <ele>390</ele>
        <time>2026-05-07T13:47:42.999Z</time>
      </trkpt>
      <trkpt lat="43.58715" lon="2.957">
        <ele>389.6</ele>
        <time>2026-05-07T13:47:43.999Z</time>
      </trkpt>
      <trkpt lat="43.58712" lon="2.95701">
        <ele>389.5</ele>
        <time>2026-05-07T13:47:44.999Z</time>
      </trkpt>
      <trkpt lat="43.5871" lon="2.95701">
        <ele>389.1</ele>
        <time>2026-05-07T13:47:45.999Z</time>
      </trkpt>
      <trkpt lat="43.58709" lon="2.95701">
        <ele>389.2</ele>
        <time>2026-05-07T13:47:46.999Z</time>
      </trkpt>
      <trkpt lat="43.58707" lon="2.95702">
        <ele>389.7</ele>
        <time>2026-05-07T13:47:47.999Z</time>
      </trkpt>
      <trkpt lat="43.58705" lon="2.95703">
        <ele>389.6</ele>
        <time>2026-05-07T13:47:48.999Z</time>
      </trkpt>
      <trkpt lat="43.58704" lon="2.95704">
        <ele>389.7</ele>
        <time>2026-05-07T13:47:49.999Z</time>
      </trkpt>
      <trkpt lat="43.58703" lon="2.95703">
        <ele>389.3</ele>
        <time>2026-05-07T13:47:50.999Z</time>
      </trkpt>
      <trkpt lat="43.58701" lon="2.95702">
        <ele>389.3</ele>
        <time>2026-05-07T13:47:51.999Z</time>
      </trkpt>
      <trkpt lat="43.587" lon="2.95702">
        <ele>388.9</ele>
        <time>2026-05-07T13:47:52.999Z</time>
      </trkpt>
      <trkpt lat="43.58699" lon="2.95703">
        <ele>388.4</ele>
        <time>2026-05-07T13:47:53.999Z</time>
      </trkpt>
      <trkpt lat="43.58698" lon="2.95703">
        <ele>388.4</ele>
        <time>2026-05-07T13:47:54.999Z</time>
      </trkpt>
      <trkpt lat="43.58697" lon="2.95703">
        <ele>388.3</ele>
        <time>2026-05-07T13:47:55.999Z</time>
      </trkpt>
      <trkpt lat="43.58697" lon="2.95702">
        <ele>387.6</ele>
        <time>2026-05-07T13:47:56.999Z</time>
      </trkpt>
      <trkpt lat="43.58696" lon="2.95702">
        <ele>386.9</ele>
        <time>2026-05-07T13:47:57.999Z</time>
      </trkpt>
      <trkpt lat="43.58695" lon="2.95704">
        <ele>385.9</ele>
        <time>2026-05-07T13:47:58.999Z</time>
      </trkpt>
      <trkpt lat="43.58694" lon="2.95706">
        <ele>385.2</ele>
        <time>2026-05-07T13:47:59.999Z</time>
      </trkpt>
      <trkpt lat="43.58693" lon="2.95708">
        <ele>384.8</ele>
        <time>2026-05-07T13:48:00.999Z</time>
      </trkpt>
      <trkpt lat="43.58693" lon="2.95709">
        <ele>384.7</ele>
        <time>2026-05-07T13:48:01.999Z</time>
      </trkpt>
      <trkpt lat="43.58692" lon="2.95711">
        <ele>384.1</ele>
        <time>2026-05-07T13:48:02.999Z</time>
      </trkpt>
      <trkpt lat="43.58692" lon="2.95712">
        <ele>383.8</ele>
        <time>2026-05-07T13:48:03.999Z</time>
      </trkpt>
      <trkpt lat="43.58692" lon="2.95714">
        <ele>383.7</ele>
        <time>2026-05-07T13:48:04.999Z</time>
      </trkpt>
      <trkpt lat="43.58691" lon="2.95716">
        <ele>383.6</ele>
        <time>2026-05-07T13:48:05.999Z</time>
      </trkpt>
      <trkpt lat="43.58691" lon="2.95716">
        <ele>383.5</ele>
        <time>2026-05-07T13:48:06.999Z</time>
      </trkpt>
      <trkpt lat="43.58691" lon="2.95718">
        <ele>383.3</ele>
        <time>2026-05-07T13:48:07.999Z</time>
      </trkpt>
      <trkpt lat="43.5869" lon="2.9572">
        <ele>383.1</ele>
        <time>2026-05-07T13:48:08.999Z</time>
      </trkpt>
      <trkpt lat="43.58689" lon="2.95721">
        <ele>382.9</ele>
        <time>2026-05-07T13:48:09.999Z</time>
      </trkpt>
      <trkpt lat="43.58688" lon="2.95723">
        <ele>382.4</ele>
        <time>2026-05-07T13:48:10.999Z</time>
      </trkpt>
      <trkpt lat="43.58687" lon="2.95724">
        <ele>381.6</ele>
        <time>2026-05-07T13:48:11.999Z</time>
      </trkpt>
      <trkpt lat="43.58686" lon="2.95726">
        <ele>380.8</ele>
        <time>2026-05-07T13:48:12.999Z</time>
      </trkpt>
      <trkpt lat="43.58685" lon="2.95728">
        <ele>380.9</ele>
        <time>2026-05-07T13:48:13.999Z</time>
      </trkpt>
      <trkpt lat="43.58683" lon="2.95729">
        <ele>381.2</ele>
        <time>2026-05-07T13:48:14.999Z</time>
      </trkpt>
      <trkpt lat="43.58682" lon="2.9573">
        <ele>381.6</ele>
        <time>2026-05-07T13:48:15.999Z</time>
      </trkpt>
      <trkpt lat="43.58681" lon="2.95731">
        <ele>382.1</ele>
        <time>2026-05-07T13:48:16.999Z</time>
      </trkpt>
      <trkpt lat="43.5868" lon="2.95731">
        <ele>382</ele>
        <time>2026-05-07T13:48:17.999Z</time>
      </trkpt>
      <trkpt lat="43.5868" lon="2.95733">
        <ele>381.7</ele>
        <time>2026-05-07T13:48:18.999Z</time>
      </trkpt>
      <trkpt lat="43.5868" lon="2.95735">
        <ele>381.5</ele>
        <time>2026-05-07T13:48:19.999Z</time>
      </trkpt>
      <trkpt lat="43.58679" lon="2.95737">
        <ele>382.1</ele>
        <time>2026-05-07T13:48:20.999Z</time>
      </trkpt>
      <trkpt lat="43.58679" lon="2.95739">
        <ele>382.6</ele>
        <time>2026-05-07T13:48:21.999Z</time>
      </trkpt>
      <trkpt lat="43.58679" lon="2.95741">
        <ele>382.7</ele>
        <time>2026-05-07T13:48:22.999Z</time>
      </trkpt>
      <trkpt lat="43.58679" lon="2.95743">
        <ele>382.7</ele>
        <time>2026-05-07T13:48:23.999Z</time>
      </trkpt>
      <trkpt lat="43.58678" lon="2.95744">
        <ele>382.3</ele>
        <time>2026-05-07T13:48:24.999Z</time>
      </trkpt>
      <trkpt lat="43.58678" lon="2.95746">
        <ele>382.3</ele>
        <time>2026-05-07T13:48:25.999Z</time>
      </trkpt>
      <trkpt lat="43.58677" lon="2.95748">
        <ele>382.5</ele>
        <time>2026-05-07T13:48:26.999Z</time>
      </trkpt>
      <trkpt lat="43.58677" lon="2.95749">
        <ele>382.2</ele>
        <time>2026-05-07T13:48:27.999Z</time>
      </trkpt>
      <trkpt lat="43.58676" lon="2.95751">
        <ele>382.8</ele>
        <time>2026-05-07T13:48:28.999Z</time>
      </trkpt>
      <trkpt lat="43.58675" lon="2.95753">
        <ele>382.7</ele>
        <time>2026-05-07T13:48:29.999Z</time>
      </trkpt>
      <trkpt lat="43.58675" lon="2.95755">
        <ele>382.8</ele>
        <time>2026-05-07T13:48:30.999Z</time>
      </trkpt>
      <trkpt lat="43.58675" lon="2.95756">
        <ele>383.2</ele>
        <time>2026-05-07T13:48:31.999Z</time>
      </trkpt>
      <trkpt lat="43.58674" lon="2.95757">
        <ele>383.4</ele>
        <time>2026-05-07T13:48:32.999Z</time>
      </trkpt>
      <trkpt lat="43.58674" lon="2.95758">
        <ele>383.5</ele>
        <time>2026-05-07T13:48:33.999Z</time>
      </trkpt>
      <trkpt lat="43.58674" lon="2.9576">
        <ele>383.7</ele>
        <time>2026-05-07T13:48:34.999Z</time>
      </trkpt>
      <trkpt lat="43.58674" lon="2.95761">
        <ele>383.1</ele>
        <time>2026-05-07T13:48:35.999Z</time>
      </trkpt>
      <trkpt lat="43.58674" lon="2.95763">
        <ele>382.9</ele>
        <time>2026-05-07T13:48:36.999Z</time>
      </trkpt>
      <trkpt lat="43.58673" lon="2.95765">
        <ele>382.9</ele>
        <time>2026-05-07T13:48:37.999Z</time>
      </trkpt>
      <trkpt lat="43.58672" lon="2.95768">
        <ele>383.3</ele>
        <time>2026-05-07T13:48:38.999Z</time>
      </trkpt>
      <trkpt lat="43.58672" lon="2.9577">
        <ele>383.4</ele>
        <time>2026-05-07T13:48:39.999Z</time>
      </trkpt>
      <trkpt lat="43.58671" lon="2.9577">
        <ele>383.5</ele>
        <time>2026-05-07T13:48:40.999Z</time>
      </trkpt>
      <trkpt lat="43.5867" lon="2.9577">
        <ele>382.6</ele>
        <time>2026-05-07T13:48:41.999Z</time>
      </trkpt>
      <trkpt lat="43.58669" lon="2.9577">
        <ele>382.2</ele>
        <time>2026-05-07T13:48:42.999Z</time>
      </trkpt>
      <trkpt lat="43.58668" lon="2.95771">
        <ele>381.9</ele>
        <time>2026-05-07T13:48:43.999Z</time>
      </trkpt>
      <trkpt lat="43.58666" lon="2.95772">
        <ele>381.5</ele>
        <time>2026-05-07T13:48:44.999Z</time>
      </trkpt>
      <trkpt lat="43.58665" lon="2.95773">
        <ele>381.1</ele>
        <time>2026-05-07T13:48:45.999Z</time>
      </trkpt>
      <trkpt lat="43.58664" lon="2.95773">
        <ele>380.5</ele>
        <time>2026-05-07T13:48:46.999Z</time>
      </trkpt>
      <trkpt lat="43.58663" lon="2.95774">
        <ele>380.5</ele>
        <time>2026-05-07T13:48:47.999Z</time>
      </trkpt>
      <trkpt lat="43.58663" lon="2.95775">
        <ele>380.4</ele>
        <time>2026-05-07T13:48:48.999Z</time>
      </trkpt>
      <trkpt lat="43.58662" lon="2.95775">
        <ele>380.3</ele>
        <time>2026-05-07T13:48:49.999Z</time>
      </trkpt>
      <trkpt lat="43.58661" lon="2.95776">
        <ele>380.9</ele>
        <time>2026-05-07T13:48:50.999Z</time>
      </trkpt>
      <trkpt lat="43.5866" lon="2.95777">
        <ele>380.8</ele>
        <time>2026-05-07T13:48:51.999Z</time>
      </trkpt>
      <trkpt lat="43.58659" lon="2.95778">
        <ele>380.5</ele>
        <time>2026-05-07T13:48:52.999Z</time>
      </trkpt>
      <trkpt lat="43.58659" lon="2.9578">
        <ele>380.6</ele>
        <time>2026-05-07T13:48:53.999Z</time>
      </trkpt>
      <trkpt lat="43.58658" lon="2.95781">
        <ele>380.5</ele>
        <time>2026-05-07T13:48:54.999Z</time>
      </trkpt>
      <trkpt lat="43.58657" lon="2.95783">
        <ele>380.6</ele>
        <time>2026-05-07T13:48:55.999Z</time>
      </trkpt>
      <trkpt lat="43.58657" lon="2.95783">
        <ele>380.3</ele>
        <time>2026-05-07T13:48:56.999Z</time>
      </trkpt>
      <trkpt lat="43.58656" lon="2.95784">
        <ele>380.1</ele>
        <time>2026-05-07T13:48:57.999Z</time>
      </trkpt>
      <trkpt lat="43.58655" lon="2.95785">
        <ele>379.4</ele>
        <time>2026-05-07T13:48:58.999Z</time>
      </trkpt>
      <trkpt lat="43.58655" lon="2.95786">
        <ele>378.6</ele>
        <time>2026-05-07T13:48:59.999Z</time>
      </trkpt>
      <trkpt lat="43.58654" lon="2.95787">
        <ele>378.2</ele>
        <time>2026-05-07T13:49:00.999Z</time>
      </trkpt>
      <trkpt lat="43.58653" lon="2.95788">
        <ele>378</ele>
        <time>2026-05-07T13:49:01.999Z</time>
      </trkpt>
      <trkpt lat="43.58651" lon="2.95789">
        <ele>377.5</ele>
        <time>2026-05-07T13:49:02.999Z</time>
      </trkpt>
      <trkpt lat="43.5865" lon="2.9579">
        <ele>377.4</ele>
        <time>2026-05-07T13:49:03.999Z</time>
      </trkpt>
      <trkpt lat="43.58649" lon="2.95791">
        <ele>377.7</ele>
        <time>2026-05-07T13:49:04.999Z</time>
      </trkpt>
      <trkpt lat="43.58648" lon="2.95791">
        <ele>377.9</ele>
        <time>2026-05-07T13:49:05.999Z</time>
      </trkpt>
      <trkpt lat="43.58648" lon="2.95792">
        <ele>377.6</ele>
        <time>2026-05-07T13:49:06.999Z</time>
      </trkpt>
      <trkpt lat="43.58648" lon="2.95794">
        <ele>377.6</ele>
        <time>2026-05-07T13:49:07.999Z</time>
      </trkpt>
      <trkpt lat="43.58648" lon="2.95795">
        <ele>377.8</ele>
        <time>2026-05-07T13:49:08.999Z</time>
      </trkpt>
      <trkpt lat="43.58648" lon="2.95797">
        <ele>378.1</ele>
        <time>2026-05-07T13:49:09.999Z</time>
      </trkpt>
      <trkpt lat="43.58647" lon="2.958">
        <ele>378.5</ele>
        <time>2026-05-07T13:49:10.999Z</time>
      </trkpt>
      <trkpt lat="43.58647" lon="2.95802">
        <ele>379.2</ele>
        <time>2026-05-07T13:49:11.999Z</time>
      </trkpt>
      <trkpt lat="43.58646" lon="2.95804">
        <ele>379.4</ele>
        <time>2026-05-07T13:49:12.999Z</time>
      </trkpt>
      <trkpt lat="43.58645" lon="2.95806">
        <ele>379</ele>
        <time>2026-05-07T13:49:13.999Z</time>
      </trkpt>
      <trkpt lat="43.58645" lon="2.95807">
        <ele>378.7</ele>
        <time>2026-05-07T13:49:14.999Z</time>
      </trkpt>
      <trkpt lat="43.58644" lon="2.95808">
        <ele>378.5</ele>
        <time>2026-05-07T13:49:15.999Z</time>
      </trkpt>
      <trkpt lat="43.58643" lon="2.95808">
        <ele>378.3</ele>
        <time>2026-05-07T13:49:16.999Z</time>
      </trkpt>
      <trkpt lat="43.58642" lon="2.95808">
        <ele>378.3</ele>
        <time>2026-05-07T13:49:17.999Z</time>
      </trkpt>
      <trkpt lat="43.5864" lon="2.95808">
        <ele>378.2</ele>
        <time>2026-05-07T13:49:18.999Z</time>
      </trkpt>
      <trkpt lat="43.58638" lon="2.95808">
        <ele>378.3</ele>
        <time>2026-05-07T13:49:19.999Z</time>
      </trkpt>
      <trkpt lat="43.58637" lon="2.95809">
        <ele>378.9</ele>
        <time>2026-05-07T13:49:20.999Z</time>
      </trkpt>
      <trkpt lat="43.58635" lon="2.9581">
        <ele>379.1</ele>
        <time>2026-05-07T13:49:22.000Z</time>
      </trkpt>
      <trkpt lat="43.58633" lon="2.95812">
        <ele>379.1</ele>
        <time>2026-05-07T13:49:23.000Z</time>
      </trkpt>
      <trkpt lat="43.58632" lon="2.95813">
        <ele>378.7</ele>
        <time>2026-05-07T13:49:24.000Z</time>
      </trkpt>
      <trkpt lat="43.58632" lon="2.95814">
        <ele>378.5</ele>
        <time>2026-05-07T13:49:25.000Z</time>
      </trkpt>
      <trkpt lat="43.58632" lon="2.95814">
        <ele>378.4</ele>
        <time>2026-05-07T13:49:26.000Z</time>
      </trkpt>
      <trkpt lat="43.58631" lon="2.95814">
        <ele>378.2</ele>
        <time>2026-05-07T13:49:27.000Z</time>
      </trkpt>
      <trkpt lat="43.5863" lon="2.95815">
        <ele>378</ele>
        <time>2026-05-07T13:49:28.000Z</time>
      </trkpt>
      <trkpt lat="43.58629" lon="2.95816">
        <ele>378.7</ele>
        <time>2026-05-07T13:49:29.000Z</time>
      </trkpt>
      <trkpt lat="43.58628" lon="2.95818">
        <ele>379.1</ele>
        <time>2026-05-07T13:49:30.000Z</time>
      </trkpt>
      <trkpt lat="43.58627" lon="2.95821">
        <ele>379.3</ele>
        <time>2026-05-07T13:49:31.000Z</time>
      </trkpt>
      <trkpt lat="43.58626" lon="2.95823">
        <ele>379.5</ele>
        <time>2026-05-07T13:49:32.000Z</time>
      </trkpt>
      <trkpt lat="43.58625" lon="2.95825">
        <ele>379.5</ele>
        <time>2026-05-07T13:49:33.000Z</time>
      </trkpt>
      <trkpt lat="43.58625" lon="2.95826">
        <ele>379.2</ele>
        <time>2026-05-07T13:49:34.000Z</time>
      </trkpt>
      <trkpt lat="43.58624" lon="2.95828">
        <ele>378.8</ele>
        <time>2026-05-07T13:49:35.000Z</time>
      </trkpt>
      <trkpt lat="43.58625" lon="2.95829">
        <ele>378.4</ele>
        <time>2026-05-07T13:49:36.000Z</time>
      </trkpt>
      <trkpt lat="43.58624" lon="2.95829">
        <ele>377.7</ele>
        <time>2026-05-07T13:49:37.000Z</time>
      </trkpt>
      <trkpt lat="43.58624" lon="2.9583">
        <ele>377</ele>
        <time>2026-05-07T13:49:38.000Z</time>
      </trkpt>
      <trkpt lat="43.58623" lon="2.95831">
        <ele>376.6</ele>
        <time>2026-05-07T13:49:39.000Z</time>
      </trkpt>
      <trkpt lat="43.58622" lon="2.95832">
        <ele>376.1</ele>
        <time>2026-05-07T13:49:40.000Z</time>
      </trkpt>
      <trkpt lat="43.5862" lon="2.95833">
        <ele>375.7</ele>
        <time>2026-05-07T13:49:41.000Z</time>
      </trkpt>
      <trkpt lat="43.58619" lon="2.95835">
        <ele>375.6</ele>
        <time>2026-05-07T13:49:42.000Z</time>
      </trkpt>
      <trkpt lat="43.58617" lon="2.95837">
        <ele>375.8</ele>
        <time>2026-05-07T13:49:43.000Z</time>
      </trkpt>
      <trkpt lat="43.58616" lon="2.95838">
        <ele>375.3</ele>
        <time>2026-05-07T13:49:44.000Z</time>
      </trkpt>
      <trkpt lat="43.58614" lon="2.95839">
        <ele>374.4</ele>
        <time>2026-05-07T13:49:45.000Z</time>
      </trkpt>
      <trkpt lat="43.58614" lon="2.9584">
        <ele>374.2</ele>
        <time>2026-05-07T13:49:46.000Z</time>
      </trkpt>
      <trkpt lat="43.58613" lon="2.95841">
        <ele>373.7</ele>
        <time>2026-05-07T13:49:47.000Z</time>
      </trkpt>
      <trkpt lat="43.58612" lon="2.95841">
        <ele>373</ele>
        <time>2026-05-07T13:49:48.000Z</time>
      </trkpt>
      <trkpt lat="43.58611" lon="2.95842">
        <ele>373.3</ele>
        <time>2026-05-07T13:49:49.000Z</time>
      </trkpt>
      <trkpt lat="43.5861" lon="2.95843">
        <ele>373.6</ele>
        <time>2026-05-07T13:49:50.000Z</time>
      </trkpt>
      <trkpt lat="43.58608" lon="2.95844">
        <ele>373.7</ele>
        <time>2026-05-07T13:49:51.000Z</time>
      </trkpt>
      <trkpt lat="43.58607" lon="2.95845">
        <ele>374</ele>
        <time>2026-05-07T13:49:52.000Z</time>
      </trkpt>
      <trkpt lat="43.58606" lon="2.95846">
        <ele>374.1</ele>
        <time>2026-05-07T13:49:53.000Z</time>
      </trkpt>
      <trkpt lat="43.58604" lon="2.95846">
        <ele>373.7</ele>
        <time>2026-05-07T13:49:54.000Z</time>
      </trkpt>
      <trkpt lat="43.58603" lon="2.95847">
        <ele>373.7</ele>
        <time>2026-05-07T13:49:55.000Z</time>
      </trkpt>
      <trkpt lat="43.58602" lon="2.95846">
        <ele>374.3</ele>
        <time>2026-05-07T13:49:56.000Z</time>
      </trkpt>
      <trkpt lat="43.58601" lon="2.95846">
        <ele>374.8</ele>
        <time>2026-05-07T13:49:57.000Z</time>
      </trkpt>
      <trkpt lat="43.586" lon="2.95846">
        <ele>374.6</ele>
        <time>2026-05-07T13:49:58.000Z</time>
      </trkpt>
      <trkpt lat="43.58599" lon="2.95846">
        <ele>374.1</ele>
        <time>2026-05-07T13:49:59.000Z</time>
      </trkpt>
      <trkpt lat="43.58598" lon="2.95847">
        <ele>374.1</ele>
        <time>2026-05-07T13:50:00.000Z</time>
      </trkpt>
      <trkpt lat="43.58597" lon="2.95848">
        <ele>373.8</ele>
        <time>2026-05-07T13:50:01.000Z</time>
      </trkpt>
      <trkpt lat="43.58595" lon="2.95849">
        <ele>373.9</ele>
        <time>2026-05-07T13:50:02.000Z</time>
      </trkpt>
      <trkpt lat="43.58593" lon="2.95849">
        <ele>374.2</ele>
        <time>2026-05-07T13:50:03.000Z</time>
      </trkpt>
      <trkpt lat="43.58592" lon="2.9585">
        <ele>373.4</ele>
        <time>2026-05-07T13:50:04.000Z</time>
      </trkpt>
      <trkpt lat="43.58591" lon="2.95849">
        <ele>373.5</ele>
        <time>2026-05-07T13:50:05.000Z</time>
      </trkpt>
      <trkpt lat="43.58589" lon="2.95849">
        <ele>373.2</ele>
        <time>2026-05-07T13:50:06.000Z</time>
      </trkpt>
      <trkpt lat="43.58588" lon="2.9585">
        <ele>373</ele>
        <time>2026-05-07T13:50:07.000Z</time>
      </trkpt>
      <trkpt lat="43.58588" lon="2.95851">
        <ele>373.1</ele>
        <time>2026-05-07T13:50:08.000Z</time>
      </trkpt>
      <trkpt lat="43.58587" lon="2.95851">
        <ele>372.7</ele>
        <time>2026-05-07T13:50:09.000Z</time>
      </trkpt>
      <trkpt lat="43.58586" lon="2.95852">
        <ele>372.3</ele>
        <time>2026-05-07T13:50:10.000Z</time>
      </trkpt>
      <trkpt lat="43.58585" lon="2.95853">
        <ele>371.9</ele>
        <time>2026-05-07T13:50:11.000Z</time>
      </trkpt>
      <trkpt lat="43.58583" lon="2.95855">
        <ele>371.9</ele>
        <time>2026-05-07T13:50:12.000Z</time>
      </trkpt>
      <trkpt lat="43.58583" lon="2.95856">
        <ele>372</ele>
        <time>2026-05-07T13:50:13.000Z</time>
      </trkpt>
      <trkpt lat="43.58582" lon="2.95857">
        <ele>372</ele>
        <time>2026-05-07T13:50:14.000Z</time>
      </trkpt>
      <trkpt lat="43.58582" lon="2.95858">
        <ele>371.9</ele>
        <time>2026-05-07T13:50:15.000Z</time>
      </trkpt>
      <trkpt lat="43.58581" lon="2.9586">
        <ele>372.2</ele>
        <time>2026-05-07T13:50:16.000Z</time>
      </trkpt>
      <trkpt lat="43.58581" lon="2.95861">
        <ele>372.4</ele>
        <time>2026-05-07T13:50:17.000Z</time>
      </trkpt>
      <trkpt lat="43.58581" lon="2.95862">
        <ele>372.5</ele>
        <time>2026-05-07T13:50:18.000Z</time>
      </trkpt>
      <trkpt lat="43.5858" lon="2.95863">
        <ele>372.4</ele>
        <time>2026-05-07T13:50:19.000Z</time>
      </trkpt>
      <trkpt lat="43.58579" lon="2.95864">
        <ele>372.1</ele>
        <time>2026-05-07T13:50:20.000Z</time>
      </trkpt>
      <trkpt lat="43.58578" lon="2.95866">
        <ele>371.4</ele>
        <time>2026-05-07T13:50:21.000Z</time>
      </trkpt>
      <trkpt lat="43.58577" lon="2.95868">
        <ele>371.3</ele>
        <time>2026-05-07T13:50:22.000Z</time>
      </trkpt>
      <trkpt lat="43.58576" lon="2.95869">
        <ele>370.6</ele>
        <time>2026-05-07T13:50:23.000Z</time>
      </trkpt>
      <trkpt lat="43.58575" lon="2.9587">
        <ele>369.6</ele>
        <time>2026-05-07T13:50:24.000Z</time>
      </trkpt>
      <trkpt lat="43.58574" lon="2.95871">
        <ele>368.7</ele>
        <time>2026-05-07T13:50:25.000Z</time>
      </trkpt>
      <trkpt lat="43.58573" lon="2.95873">
        <ele>367.6</ele>
        <time>2026-05-07T13:50:26.000Z</time>
      </trkpt>
      <trkpt lat="43.58573" lon="2.95875">
        <ele>366.8</ele>
        <time>2026-05-07T13:50:27.000Z</time>
      </trkpt>
      <trkpt lat="43.58573" lon="2.95877">
        <ele>366.3</ele>
        <time>2026-05-07T13:50:28.000Z</time>
      </trkpt>
      <trkpt lat="43.58572" lon="2.95879">
        <ele>366.3</ele>
        <time>2026-05-07T13:50:29.000Z</time>
      </trkpt>
      <trkpt lat="43.58572" lon="2.95881">
        <ele>366.5</ele>
        <time>2026-05-07T13:50:30.000Z</time>
      </trkpt>
      <trkpt lat="43.58571" lon="2.95883">
        <ele>366.8</ele>
        <time>2026-05-07T13:50:31.000Z</time>
      </trkpt>
      <trkpt lat="43.58571" lon="2.95885">
        <ele>367.3</ele>
        <time>2026-05-07T13:50:32.000Z</time>
      </trkpt>
      <trkpt lat="43.58571" lon="2.95887">
        <ele>367.4</ele>
        <time>2026-05-07T13:50:33.000Z</time>
      </trkpt>
      <trkpt lat="43.58571" lon="2.95889">
        <ele>367.7</ele>
        <time>2026-05-07T13:50:34.000Z</time>
      </trkpt>
      <trkpt lat="43.58571" lon="2.9589">
        <ele>367.6</ele>
        <time>2026-05-07T13:50:35.000Z</time>
      </trkpt>
      <trkpt lat="43.58571" lon="2.95892">
        <ele>367.3</ele>
        <time>2026-05-07T13:50:36.000Z</time>
      </trkpt>
      <trkpt lat="43.58572" lon="2.95894">
        <ele>367.2</ele>
        <time>2026-05-07T13:50:37.000Z</time>
      </trkpt>
      <trkpt lat="43.58572" lon="2.95896">
        <ele>367.2</ele>
        <time>2026-05-07T13:50:38.000Z</time>
      </trkpt>
      <trkpt lat="43.58572" lon="2.95898">
        <ele>367.4</ele>
        <time>2026-05-07T13:50:39.000Z</time>
      </trkpt>
      <trkpt lat="43.58572" lon="2.95899">
        <ele>367.1</ele>
        <time>2026-05-07T13:50:40.000Z</time>
      </trkpt>
      <trkpt lat="43.58572" lon="2.95902">
        <ele>366.5</ele>
        <time>2026-05-07T13:50:41.000Z</time>
      </trkpt>
      <trkpt lat="43.58572" lon="2.95904">
        <ele>366</ele>
        <time>2026-05-07T13:50:42.000Z</time>
      </trkpt>
      <trkpt lat="43.58572" lon="2.95906">
        <ele>365.9</ele>
        <time>2026-05-07T13:50:43.000Z</time>
      </trkpt>
      <trkpt lat="43.58572" lon="2.95908">
        <ele>365.8</ele>
        <time>2026-05-07T13:50:44.000Z</time>
      </trkpt>
      <trkpt lat="43.58571" lon="2.95908">
        <ele>366.1</ele>
        <time>2026-05-07T13:50:45.000Z</time>
      </trkpt>
      <trkpt lat="43.5857" lon="2.95909">
        <ele>365.9</ele>
        <time>2026-05-07T13:50:46.000Z</time>
      </trkpt>
      <trkpt lat="43.5857" lon="2.9591">
        <ele>366</ele>
        <time>2026-05-07T13:50:47.000Z</time>
      </trkpt>
      <trkpt lat="43.5857" lon="2.95913">
        <ele>367</ele>
        <time>2026-05-07T13:50:48.000Z</time>
      </trkpt>
      <trkpt lat="43.5857" lon="2.95916">
        <ele>367.6</ele>
        <time>2026-05-07T13:50:49.000Z</time>
      </trkpt>
      <trkpt lat="43.5857" lon="2.95918">
        <ele>367.8</ele>
        <time>2026-05-07T13:50:50.000Z</time>
      </trkpt>
      <trkpt lat="43.58569" lon="2.95919">
        <ele>367.9</ele>
        <time>2026-05-07T13:50:51.000Z</time>
      </trkpt>
      <trkpt lat="43.58568" lon="2.95921">
        <ele>368.5</ele>
        <time>2026-05-07T13:50:52.000Z</time>
      </trkpt>
      <trkpt lat="43.58568" lon="2.95922">
        <ele>368.5</ele>
        <time>2026-05-07T13:50:53.000Z</time>
      </trkpt>
      <trkpt lat="43.58566" lon="2.95923">
        <ele>368.3</ele>
        <time>2026-05-07T13:50:54.000Z</time>
      </trkpt>
      <trkpt lat="43.58565" lon="2.95924">
        <ele>367.9</ele>
        <time>2026-05-07T13:50:55.000Z</time>
      </trkpt>
      <trkpt lat="43.58564" lon="2.95926">
        <ele>367.9</ele>
        <time>2026-05-07T13:50:56.000Z</time>
      </trkpt>
      <trkpt lat="43.58564" lon="2.95927">
        <ele>368</ele>
        <time>2026-05-07T13:50:57.000Z</time>
      </trkpt>
      <trkpt lat="43.58564" lon="2.9593">
        <ele>368.1</ele>
        <time>2026-05-07T13:50:58.000Z</time>
      </trkpt>
      <trkpt lat="43.58563" lon="2.95931">
        <ele>367.6</ele>
        <time>2026-05-07T13:50:59.000Z</time>
      </trkpt>
      <trkpt lat="43.58562" lon="2.95933">
        <ele>366.6</ele>
        <time>2026-05-07T13:51:00.000Z</time>
      </trkpt>
      <trkpt lat="43.5856" lon="2.95934">
        <ele>366.1</ele>
        <time>2026-05-07T13:51:01.000Z</time>
      </trkpt>
      <trkpt lat="43.58559" lon="2.95936">
        <ele>365.3</ele>
        <time>2026-05-07T13:51:02.000Z</time>
      </trkpt>
      <trkpt lat="43.58557" lon="2.95938">
        <ele>364.9</ele>
        <time>2026-05-07T13:51:03.000Z</time>
      </trkpt>
      <trkpt lat="43.58556" lon="2.95939">
        <ele>364.6</ele>
        <time>2026-05-07T13:51:04.000Z</time>
      </trkpt>
      <trkpt lat="43.58555" lon="2.9594">
        <ele>364.6</ele>
        <time>2026-05-07T13:51:05.000Z</time>
      </trkpt>
      <trkpt lat="43.58554" lon="2.95941">
        <ele>364.6</ele>
        <time>2026-05-07T13:51:06.000Z</time>
      </trkpt>
      <trkpt lat="43.58553" lon="2.95941">
        <ele>364.6</ele>
        <time>2026-05-07T13:51:07.000Z</time>
      </trkpt>
      <trkpt lat="43.58552" lon="2.9594">
        <ele>364.4</ele>
        <time>2026-05-07T13:51:08.000Z</time>
      </trkpt>
      <trkpt lat="43.58551" lon="2.95941">
        <ele>363.8</ele>
        <time>2026-05-07T13:51:09.000Z</time>
      </trkpt>
      <trkpt lat="43.58549" lon="2.95941">
        <ele>363.2</ele>
        <time>2026-05-07T13:51:10.000Z</time>
      </trkpt>
      <trkpt lat="43.58548" lon="2.95941">
        <ele>362.6</ele>
        <time>2026-05-07T13:51:11.000Z</time>
      </trkpt>
      <trkpt lat="43.58546" lon="2.95942">
        <ele>362.3</ele>
        <time>2026-05-07T13:51:12.000Z</time>
      </trkpt>
      <trkpt lat="43.58545" lon="2.95942">
        <ele>361.6</ele>
        <time>2026-05-07T13:51:13.000Z</time>
      </trkpt>
      <trkpt lat="43.58544" lon="2.95943">
        <ele>360.6</ele>
        <time>2026-05-07T13:51:14.000Z</time>
      </trkpt>
      <trkpt lat="43.58543" lon="2.95943">
        <ele>360.6</ele>
        <time>2026-05-07T13:51:15.000Z</time>
      </trkpt>
      <trkpt lat="43.58542" lon="2.95943">
        <ele>360.5</ele>
        <time>2026-05-07T13:51:16.000Z</time>
      </trkpt>
      <trkpt lat="43.58541" lon="2.95943">
        <ele>359.9</ele>
        <time>2026-05-07T13:51:17.000Z</time>
      </trkpt>
      <trkpt lat="43.5854" lon="2.95943">
        <ele>360</ele>
        <time>2026-05-07T13:51:18.000Z</time>
      </trkpt>
      <trkpt lat="43.58538" lon="2.95943">
        <ele>359.6</ele>
        <time>2026-05-07T13:51:19.000Z</time>
      </trkpt>
      <trkpt lat="43.58536" lon="2.95942">
        <ele>358.3</ele>
        <time>2026-05-07T13:51:20.000Z</time>
      </trkpt>
      <trkpt lat="43.58535" lon="2.95942">
        <ele>356.7</ele>
        <time>2026-05-07T13:51:21.000Z</time>
      </trkpt>
      <trkpt lat="43.58533" lon="2.95943">
        <ele>356.5</ele>
        <time>2026-05-07T13:51:22.000Z</time>
      </trkpt>
      <trkpt lat="43.58531" lon="2.95944">
        <ele>356.4</ele>
        <time>2026-05-07T13:51:23.000Z</time>
      </trkpt>
      <trkpt lat="43.5853" lon="2.95944">
        <ele>356</ele>
        <time>2026-05-07T13:51:24.000Z</time>
      </trkpt>
      <trkpt lat="43.58529" lon="2.95945">
        <ele>355.6</ele>
        <time>2026-05-07T13:51:25.000Z</time>
      </trkpt>
      <trkpt lat="43.58528" lon="2.95945">
        <ele>355.8</ele>
        <time>2026-05-07T13:51:26.000Z</time>
      </trkpt>
      <trkpt lat="43.58528" lon="2.95946">
        <ele>355.6</ele>
        <time>2026-05-07T13:51:27.000Z</time>
      </trkpt>
      <trkpt lat="43.58527" lon="2.95946">
        <ele>355.4</ele>
        <time>2026-05-07T13:51:28.000Z</time>
      </trkpt>
      <trkpt lat="43.58526" lon="2.95947">
        <ele>355.4</ele>
        <time>2026-05-07T13:51:29.000Z</time>
      </trkpt>
      <trkpt lat="43.58525" lon="2.95948">
        <ele>355.6</ele>
        <time>2026-05-07T13:51:30.000Z</time>
      </trkpt>
      <trkpt lat="43.58523" lon="2.95948">
        <ele>355.6</ele>
        <time>2026-05-07T13:51:31.000Z</time>
      </trkpt>
      <trkpt lat="43.58522" lon="2.95949">
        <ele>355.5</ele>
        <time>2026-05-07T13:51:32.000Z</time>
      </trkpt>
      <trkpt lat="43.5852" lon="2.95949">
        <ele>355.1</ele>
        <time>2026-05-07T13:51:33.000Z</time>
      </trkpt>
      <trkpt lat="43.58519" lon="2.9595">
        <ele>355.2</ele>
        <time>2026-05-07T13:51:34.000Z</time>
      </trkpt>
      <trkpt lat="43.58519" lon="2.9595">
        <ele>355.3</ele>
        <time>2026-05-07T13:51:35.000Z</time>
      </trkpt>
      <trkpt lat="43.58519" lon="2.95951">
        <ele>355.3</ele>
        <time>2026-05-07T13:51:36.000Z</time>
      </trkpt>
      <trkpt lat="43.58518" lon="2.95952">
        <ele>355.2</ele>
        <time>2026-05-07T13:51:37.000Z</time>
      </trkpt>
      <trkpt lat="43.58518" lon="2.95954">
        <ele>355</ele>
        <time>2026-05-07T13:51:38.000Z</time>
      </trkpt>
      <trkpt lat="43.58517" lon="2.95955">
        <ele>355</ele>
        <time>2026-05-07T13:51:39.000Z</time>
      </trkpt>
      <trkpt lat="43.58515" lon="2.95956">
        <ele>355.2</ele>
        <time>2026-05-07T13:51:40.000Z</time>
      </trkpt>
      <trkpt lat="43.58514" lon="2.95958">
        <ele>355.2</ele>
        <time>2026-05-07T13:51:41.000Z</time>
      </trkpt>
      <trkpt lat="43.58512" lon="2.95958">
        <ele>355.4</ele>
        <time>2026-05-07T13:51:42.000Z</time>
      </trkpt>
      <trkpt lat="43.58511" lon="2.95959">
        <ele>355.3</ele>
        <time>2026-05-07T13:51:43.000Z</time>
      </trkpt>
      <trkpt lat="43.58509" lon="2.95959">
        <ele>355.4</ele>
        <time>2026-05-07T13:51:44.000Z</time>
      </trkpt>
      <trkpt lat="43.58508" lon="2.95959">
        <ele>355.9</ele>
        <time>2026-05-07T13:51:45.000Z</time>
      </trkpt>
      <trkpt lat="43.58507" lon="2.95957">
        <ele>356.9</ele>
        <time>2026-05-07T13:51:46.000Z</time>
      </trkpt>
      <trkpt lat="43.58506" lon="2.95957">
        <ele>356.9</ele>
        <time>2026-05-07T13:51:47.000Z</time>
      </trkpt>
      <trkpt lat="43.58506" lon="2.95958">
        <ele>356.5</ele>
        <time>2026-05-07T13:51:48.000Z</time>
      </trkpt>
      <trkpt lat="43.58505" lon="2.95958">
        <ele>356.5</ele>
        <time>2026-05-07T13:51:49.000Z</time>
      </trkpt>
      <trkpt lat="43.58503" lon="2.95957">
        <ele>356.8</ele>
        <time>2026-05-07T13:51:50.000Z</time>
      </trkpt>
      <trkpt lat="43.58501" lon="2.95957">
        <ele>356.9</ele>
        <time>2026-05-07T13:51:51.000Z</time>
      </trkpt>
      <trkpt lat="43.585" lon="2.95957">
        <ele>356.4</ele>
        <time>2026-05-07T13:51:52.000Z</time>
      </trkpt>
      <trkpt lat="43.58499" lon="2.95957">
        <ele>355.8</ele>
        <time>2026-05-07T13:51:53.000Z</time>
      </trkpt>
      <trkpt lat="43.58498" lon="2.95958">
        <ele>355.4</ele>
        <time>2026-05-07T13:51:54.000Z</time>
      </trkpt>
      <trkpt lat="43.58496" lon="2.95958">
        <ele>355.1</ele>
        <time>2026-05-07T13:51:55.000Z</time>
      </trkpt>
      <trkpt lat="43.58495" lon="2.95958">
        <ele>354.9</ele>
        <time>2026-05-07T13:51:56.000Z</time>
      </trkpt>
      <trkpt lat="43.58493" lon="2.95959">
        <ele>354.5</ele>
        <time>2026-05-07T13:51:57.000Z</time>
      </trkpt>
      <trkpt lat="43.58492" lon="2.95959">
        <ele>354.2</ele>
        <time>2026-05-07T13:51:58.000Z</time>
      </trkpt>
      <trkpt lat="43.58491" lon="2.95959">
        <ele>353.9</ele>
        <time>2026-05-07T13:51:59.000Z</time>
      </trkpt>
      <trkpt lat="43.58489" lon="2.95959">
        <ele>353.6</ele>
        <time>2026-05-07T13:52:00.000Z</time>
      </trkpt>
      <trkpt lat="43.58487" lon="2.95959">
        <ele>353.3</ele>
        <time>2026-05-07T13:52:01.000Z</time>
      </trkpt>
      <trkpt lat="43.58484" lon="2.9596">
        <ele>353.1</ele>
        <time>2026-05-07T13:52:02.000Z</time>
      </trkpt>
      <trkpt lat="43.58483" lon="2.95961">
        <ele>353.2</ele>
        <time>2026-05-07T13:52:03.000Z</time>
      </trkpt>
      <trkpt lat="43.58481" lon="2.95961">
        <ele>353.2</ele>
        <time>2026-05-07T13:52:04.000Z</time>
      </trkpt>
      <trkpt lat="43.5848" lon="2.95962">
        <ele>352.9</ele>
        <time>2026-05-07T13:52:05.000Z</time>
      </trkpt>
      <trkpt lat="43.58479" lon="2.95961">
        <ele>352.6</ele>
        <time>2026-05-07T13:52:06.000Z</time>
      </trkpt>
      <trkpt lat="43.58478" lon="2.95961">
        <ele>352.7</ele>
        <time>2026-05-07T13:52:07.000Z</time>
      </trkpt>
      <trkpt lat="43.58477" lon="2.95961">
        <ele>352.6</ele>
        <time>2026-05-07T13:52:08.000Z</time>
      </trkpt>
      <trkpt lat="43.58476" lon="2.95961">
        <ele>352.6</ele>
        <time>2026-05-07T13:52:09.000Z</time>
      </trkpt>
      <trkpt lat="43.58475" lon="2.95962">
        <ele>352.7</ele>
        <time>2026-05-07T13:52:10.000Z</time>
      </trkpt>
      <trkpt lat="43.58473" lon="2.95962">
        <ele>352.3</ele>
        <time>2026-05-07T13:52:11.000Z</time>
      </trkpt>
      <trkpt lat="43.58472" lon="2.95963">
        <ele>352.4</ele>
        <time>2026-05-07T13:52:12.000Z</time>
      </trkpt>
      <trkpt lat="43.5847" lon="2.95963">
        <ele>353.1</ele>
        <time>2026-05-07T13:52:13.000Z</time>
      </trkpt>
      <trkpt lat="43.58469" lon="2.95965">
        <ele>353</ele>
        <time>2026-05-07T13:52:14.000Z</time>
      </trkpt>
      <trkpt lat="43.58467" lon="2.95965">
        <ele>353.2</ele>
        <time>2026-05-07T13:52:15.000Z</time>
      </trkpt>
      <trkpt lat="43.58466" lon="2.95965">
        <ele>353.3</ele>
        <time>2026-05-07T13:52:16.000Z</time>
      </trkpt>
      <trkpt lat="43.58465" lon="2.95964">
        <ele>354</ele>
        <time>2026-05-07T13:52:17.000Z</time>
      </trkpt>
      <trkpt lat="43.58463" lon="2.95964">
        <ele>353.9</ele>
        <time>2026-05-07T13:52:18.000Z</time>
      </trkpt>
      <trkpt lat="43.58462" lon="2.95965">
        <ele>354.3</ele>
        <time>2026-05-07T13:52:19.000Z</time>
      </trkpt>
      <trkpt lat="43.58461" lon="2.95965">
        <ele>354.7</ele>
        <time>2026-05-07T13:52:20.000Z</time>
      </trkpt>
      <trkpt lat="43.58461" lon="2.95967">
        <ele>354.5</ele>
        <time>2026-05-07T13:52:21.000Z</time>
      </trkpt>
      <trkpt lat="43.5846" lon="2.95968">
        <ele>354.8</ele>
        <time>2026-05-07T13:52:22.000Z</time>
      </trkpt>
      <trkpt lat="43.58459" lon="2.9597">
        <ele>355.1</ele>
        <time>2026-05-07T13:52:23.000Z</time>
      </trkpt>
      <trkpt lat="43.58458" lon="2.95971">
        <ele>355.4</ele>
        <time>2026-05-07T13:52:24.000Z</time>
      </trkpt>
      <trkpt lat="43.58456" lon="2.95972">
        <ele>355.6</ele>
        <time>2026-05-07T13:52:25.000Z</time>
      </trkpt>
      <trkpt lat="43.58455" lon="2.95972">
        <ele>355.6</ele>
        <time>2026-05-07T13:52:26.000Z</time>
      </trkpt>
      <trkpt lat="43.58454" lon="2.95972">
        <ele>356</ele>
        <time>2026-05-07T13:52:27.000Z</time>
      </trkpt>
      <trkpt lat="43.58453" lon="2.95972">
        <ele>356.8</ele>
        <time>2026-05-07T13:52:28.000Z</time>
      </trkpt>
      <trkpt lat="43.58452" lon="2.95973">
        <ele>356.7</ele>
        <time>2026-05-07T13:52:29.000Z</time>
      </trkpt>
      <trkpt lat="43.58451" lon="2.95972">
        <ele>356.9</ele>
        <time>2026-05-07T13:52:30.000Z</time>
      </trkpt>
      <trkpt lat="43.58449" lon="2.9597">
        <ele>357.4</ele>
        <time>2026-05-07T13:52:31.000Z</time>
      </trkpt>
      <trkpt lat="43.58448" lon="2.95969">
        <ele>357.5</ele>
        <time>2026-05-07T13:52:32.000Z</time>
      </trkpt>
      <trkpt lat="43.58446" lon="2.95969">
        <ele>357.6</ele>
        <time>2026-05-07T13:52:33.000Z</time>
      </trkpt>
      <trkpt lat="43.58443" lon="2.95969">
        <ele>356.8</ele>
        <time>2026-05-07T13:52:34.000Z</time>
      </trkpt>
      <trkpt lat="43.58442" lon="2.95969">
        <ele>357.1</ele>
        <time>2026-05-07T13:52:35.000Z</time>
      </trkpt>
      <trkpt lat="43.58441" lon="2.95971">
        <ele>357.5</ele>
        <time>2026-05-07T13:52:36.000Z</time>
      </trkpt>
      <trkpt lat="43.58439" lon="2.9597">
        <ele>357.6</ele>
        <time>2026-05-07T13:52:37.000Z</time>
      </trkpt>
      <trkpt lat="43.58438" lon="2.9597">
        <ele>357.5</ele>
        <time>2026-05-07T13:52:38.000Z</time>
      </trkpt>
      <trkpt lat="43.58438" lon="2.9597">
        <ele>357.1</ele>
        <time>2026-05-07T13:52:39.000Z</time>
      </trkpt>
      <trkpt lat="43.58436" lon="2.9597">
        <ele>356.4</ele>
        <time>2026-05-07T13:52:40.000Z</time>
      </trkpt>
      <trkpt lat="43.58434" lon="2.9597">
        <ele>356.1</ele>
        <time>2026-05-07T13:52:41.000Z</time>
      </trkpt>
      <trkpt lat="43.58432" lon="2.95971">
        <ele>356</ele>
        <time>2026-05-07T13:52:42.000Z</time>
      </trkpt>
      <trkpt lat="43.5843" lon="2.9597">
        <ele>356</ele>
        <time>2026-05-07T13:52:43.000Z</time>
      </trkpt>
      <trkpt lat="43.58429" lon="2.95971">
        <ele>356.1</ele>
        <time>2026-05-07T13:52:44.000Z</time>
      </trkpt>
      <trkpt lat="43.58429" lon="2.95971">
        <ele>355.9</ele>
        <time>2026-05-07T13:52:45.000Z</time>
      </trkpt>
      <trkpt lat="43.58427" lon="2.95971">
        <ele>355.3</ele>
        <time>2026-05-07T13:52:46.000Z</time>
      </trkpt>
      <trkpt lat="43.58425" lon="2.95972">
        <ele>355.2</ele>
        <time>2026-05-07T13:52:47.000Z</time>
      </trkpt>
      <trkpt lat="43.58424" lon="2.95973">
        <ele>354.6</ele>
        <time>2026-05-07T13:52:48.000Z</time>
      </trkpt>
      <trkpt lat="43.58424" lon="2.95974">
        <ele>354</ele>
        <time>2026-05-07T13:52:49.000Z</time>
      </trkpt>
      <trkpt lat="43.58423" lon="2.95975">
        <ele>353.9</ele>
        <time>2026-05-07T13:52:50.000Z</time>
      </trkpt>
      <trkpt lat="43.58422" lon="2.95976">
        <ele>354.1</ele>
        <time>2026-05-07T13:52:51.000Z</time>
      </trkpt>
      <trkpt lat="43.5842" lon="2.95978">
        <ele>354.7</ele>
        <time>2026-05-07T13:52:52.000Z</time>
      </trkpt>
      <trkpt lat="43.58419" lon="2.95981">
        <ele>355</ele>
        <time>2026-05-07T13:52:53.000Z</time>
      </trkpt>
      <trkpt lat="43.58417" lon="2.95982">
        <ele>354.9</ele>
        <time>2026-05-07T13:52:54.000Z</time>
      </trkpt>
      <trkpt lat="43.58416" lon="2.95983">
        <ele>354.4</ele>
        <time>2026-05-07T13:52:55.000Z</time>
      </trkpt>
      <trkpt lat="43.58416" lon="2.95984">
        <ele>353.7</ele>
        <time>2026-05-07T13:52:56.000Z</time>
      </trkpt>
      <trkpt lat="43.58415" lon="2.95983">
        <ele>352.4</ele>
        <time>2026-05-07T13:52:57.000Z</time>
      </trkpt>
      <trkpt lat="43.58414" lon="2.95983">
        <ele>351.5</ele>
        <time>2026-05-07T13:52:58.000Z</time>
      </trkpt>
      <trkpt lat="43.58413" lon="2.95985">
        <ele>352.2</ele>
        <time>2026-05-07T13:52:59.000Z</time>
      </trkpt>
      <trkpt lat="43.58412" lon="2.95987">
        <ele>352.2</ele>
        <time>2026-05-07T13:53:00.000Z</time>
      </trkpt>
      <trkpt lat="43.58411" lon="2.95989">
        <ele>352.1</ele>
        <time>2026-05-07T13:53:01.000Z</time>
      </trkpt>
      <trkpt lat="43.58411" lon="2.95992">
        <ele>351.9</ele>
        <time>2026-05-07T13:53:02.000Z</time>
      </trkpt>
      <trkpt lat="43.5841" lon="2.95995">
        <ele>352.2</ele>
        <time>2026-05-07T13:53:03.000Z</time>
      </trkpt>
      <trkpt lat="43.58409" lon="2.95996">
        <ele>352.4</ele>
        <time>2026-05-07T13:53:04.000Z</time>
      </trkpt>
      <trkpt lat="43.58409" lon="2.95997">
        <ele>352.2</ele>
        <time>2026-05-07T13:53:05.000Z</time>
      </trkpt>
      <trkpt lat="43.58409" lon="2.95998">
        <ele>352.9</ele>
        <time>2026-05-07T13:53:06.000Z</time>
      </trkpt>
      <trkpt lat="43.58409" lon="2.96">
        <ele>353.7</ele>
        <time>2026-05-07T13:53:07.000Z</time>
      </trkpt>
      <trkpt lat="43.58409" lon="2.96001">
        <ele>354.5</ele>
        <time>2026-05-07T13:53:08.000Z</time>
      </trkpt>
      <trkpt lat="43.58409" lon="2.96003">
        <ele>354.4</ele>
        <time>2026-05-07T13:53:09.000Z</time>
      </trkpt>
      <trkpt lat="43.58409" lon="2.96005">
        <ele>354.4</ele>
        <time>2026-05-07T13:53:10.000Z</time>
      </trkpt>
      <trkpt lat="43.5841" lon="2.96007">
        <ele>355.1</ele>
        <time>2026-05-07T13:53:11.000Z</time>
      </trkpt>
      <trkpt lat="43.58409" lon="2.96011">
        <ele>355.1</ele>
        <time>2026-05-07T13:53:12.000Z</time>
      </trkpt>
      <trkpt lat="43.58409" lon="2.96014">
        <ele>355.7</ele>
        <time>2026-05-07T13:53:13.000Z</time>
      </trkpt>
      <trkpt lat="43.58409" lon="2.96017">
        <ele>355.2</ele>
        <time>2026-05-07T13:53:14.000Z</time>
      </trkpt>
      <trkpt lat="43.5841" lon="2.96021">
        <ele>356.1</ele>
        <time>2026-05-07T13:53:15.000Z</time>
      </trkpt>
      <trkpt lat="43.58411" lon="2.96022">
        <ele>356.2</ele>
        <time>2026-05-07T13:53:16.000Z</time>
      </trkpt>
      <trkpt lat="43.58411" lon="2.96025">
        <ele>356</ele>
        <time>2026-05-07T13:53:17.000Z</time>
      </trkpt>
      <trkpt lat="43.58411" lon="2.96028">
        <ele>355.9</ele>
        <time>2026-05-07T13:53:18.000Z</time>
      </trkpt>
      <trkpt lat="43.58411" lon="2.9603">
        <ele>355.4</ele>
        <time>2026-05-07T13:53:19.000Z</time>
      </trkpt>
      <trkpt lat="43.58411" lon="2.96033">
        <ele>355.4</ele>
        <time>2026-05-07T13:53:20.000Z</time>
      </trkpt>
      <trkpt lat="43.5841" lon="2.96034">
        <ele>354.6</ele>
        <time>2026-05-07T13:53:21.000Z</time>
      </trkpt>
      <trkpt lat="43.5841" lon="2.96034">
        <ele>353.8</ele>
        <time>2026-05-07T13:53:22.000Z</time>
      </trkpt>
      <trkpt lat="43.5841" lon="2.96035">
        <ele>352.7</ele>
        <time>2026-05-07T13:53:23.000Z</time>
      </trkpt>
      <trkpt lat="43.5841" lon="2.96037">
        <ele>352.8</ele>
        <time>2026-05-07T13:53:24.000Z</time>
      </trkpt>
      <trkpt lat="43.5841" lon="2.96038">
        <ele>352.9</ele>
        <time>2026-05-07T13:53:25.000Z</time>
      </trkpt>
      <trkpt lat="43.58411" lon="2.9604">
        <ele>353.2</ele>
        <time>2026-05-07T13:53:26.000Z</time>
      </trkpt>
      <trkpt lat="43.58411" lon="2.96041">
        <ele>352.7</ele>
        <time>2026-05-07T13:53:27.000Z</time>
      </trkpt>
      <trkpt lat="43.5841" lon="2.96043">
        <ele>352.3</ele>
        <time>2026-05-07T13:53:28.000Z</time>
      </trkpt>
      <trkpt lat="43.5841" lon="2.96045">
        <ele>352</ele>
        <time>2026-05-07T13:53:29.000Z</time>
      </trkpt>
      <trkpt lat="43.5841" lon="2.96047">
        <ele>351.7</ele>
        <time>2026-05-07T13:53:30.000Z</time>
      </trkpt>
      <trkpt lat="43.58409" lon="2.96049">
        <ele>352.7</ele>
        <time>2026-05-07T13:53:31.000Z</time>
      </trkpt>
      <trkpt lat="43.58409" lon="2.96051">
        <ele>353</ele>
        <time>2026-05-07T13:53:32.000Z</time>
      </trkpt>
      <trkpt lat="43.58408" lon="2.96052">
        <ele>353.6</ele>
        <time>2026-05-07T13:53:33.000Z</time>
      </trkpt>
      <trkpt lat="43.58408" lon="2.96054">
        <ele>354.6</ele>
        <time>2026-05-07T13:53:34.000Z</time>
      </trkpt>
      <trkpt lat="43.58408" lon="2.96055">
        <ele>354.9</ele>
        <time>2026-05-07T13:53:35.000Z</time>
      </trkpt>
      <trkpt lat="43.58407" lon="2.96055">
        <ele>355.4</ele>
        <time>2026-05-07T13:53:36.000Z</time>
      </trkpt>
      <trkpt lat="43.58407" lon="2.96058">
        <ele>356.1</ele>
        <time>2026-05-07T13:53:37.000Z</time>
      </trkpt>
      <trkpt lat="43.58406" lon="2.9606">
        <ele>356.2</ele>
        <time>2026-05-07T13:53:38.000Z</time>
      </trkpt>
      <trkpt lat="43.58407" lon="2.96062">
        <ele>356.7</ele>
        <time>2026-05-07T13:53:39.000Z</time>
      </trkpt>
      <trkpt lat="43.58407" lon="2.96063">
        <ele>356.2</ele>
        <time>2026-05-07T13:53:40.000Z</time>
      </trkpt>
      <trkpt lat="43.58408" lon="2.96064">
        <ele>356</ele>
        <time>2026-05-07T13:53:41.000Z</time>
      </trkpt>
      <trkpt lat="43.58407" lon="2.96066">
        <ele>355.7</ele>
        <time>2026-05-07T13:53:42.000Z</time>
      </trkpt>
      <trkpt lat="43.58407" lon="2.96068">
        <ele>355.6</ele>
        <time>2026-05-07T13:53:43.000Z</time>
      </trkpt>
      <trkpt lat="43.58406" lon="2.96069">
        <ele>355.1</ele>
        <time>2026-05-07T13:53:44.000Z</time>
      </trkpt>
      <trkpt lat="43.58406" lon="2.9607">
        <ele>354.9</ele>
        <time>2026-05-07T13:53:45.000Z</time>
      </trkpt>
      <trkpt lat="43.58405" lon="2.96071">
        <ele>355.4</ele>
        <time>2026-05-07T13:53:46.000Z</time>
      </trkpt>
      <trkpt lat="43.58404" lon="2.96072">
        <ele>356.1</ele>
        <time>2026-05-07T13:53:47.000Z</time>
      </trkpt>
      <trkpt lat="43.58404" lon="2.96075">
        <ele>356.4</ele>
        <time>2026-05-07T13:53:48.000Z</time>
      </trkpt>
      <trkpt lat="43.58403" lon="2.96075">
        <ele>356.9</ele>
        <time>2026-05-07T13:53:49.000Z</time>
      </trkpt>
      <trkpt lat="43.58402" lon="2.96077">
        <ele>357.6</ele>
        <time>2026-05-07T13:53:50.000Z</time>
      </trkpt>
      <trkpt lat="43.58402" lon="2.96079">
        <ele>357.6</ele>
        <time>2026-05-07T13:53:51.000Z</time>
      </trkpt>
      <trkpt lat="43.58401" lon="2.96081">
        <ele>357.8</ele>
        <time>2026-05-07T13:53:52.000Z</time>
      </trkpt>
      <trkpt lat="43.584" lon="2.96082">
        <ele>358.1</ele>
        <time>2026-05-07T13:53:53.000Z</time>
      </trkpt>
      <trkpt lat="43.58399" lon="2.96083">
        <ele>357.9</ele>
        <time>2026-05-07T13:53:54.000Z</time>
      </trkpt>
      <trkpt lat="43.58398" lon="2.96084">
        <ele>358</ele>
        <time>2026-05-07T13:53:55.000Z</time>
      </trkpt>
      <trkpt lat="43.58396" lon="2.96086">
        <ele>358.2</ele>
        <time>2026-05-07T13:53:56.000Z</time>
      </trkpt>
      <trkpt lat="43.58395" lon="2.96088">
        <ele>358.5</ele>
        <time>2026-05-07T13:53:57.000Z</time>
      </trkpt>
      <trkpt lat="43.58393" lon="2.96089">
        <ele>359.1</ele>
        <time>2026-05-07T13:53:58.000Z</time>
      </trkpt>
      <trkpt lat="43.58392" lon="2.96091">
        <ele>359.7</ele>
        <time>2026-05-07T13:53:59.000Z</time>
      </trkpt>
      <trkpt lat="43.58391" lon="2.96094">
        <ele>359.7</ele>
        <time>2026-05-07T13:54:00.000Z</time>
      </trkpt>
      <trkpt lat="43.58391" lon="2.96096">
        <ele>359.8</ele>
        <time>2026-05-07T13:54:01.000Z</time>
      </trkpt>
      <trkpt lat="43.5839" lon="2.96098">
        <ele>359.2</ele>
        <time>2026-05-07T13:54:02.000Z</time>
      </trkpt>
      <trkpt lat="43.58391" lon="2.961">
        <ele>358.5</ele>
        <time>2026-05-07T13:54:03.000Z</time>
      </trkpt>
      <trkpt lat="43.58391" lon="2.96102">
        <ele>358.3</ele>
        <time>2026-05-07T13:54:04.000Z</time>
      </trkpt>
      <trkpt lat="43.58391" lon="2.96103">
        <ele>358.1</ele>
        <time>2026-05-07T13:54:05.000Z</time>
      </trkpt>
      <trkpt lat="43.58391" lon="2.96105">
        <ele>358.1</ele>
        <time>2026-05-07T13:54:06.000Z</time>
      </trkpt>
      <trkpt lat="43.58391" lon="2.96106">
        <ele>358.2</ele>
        <time>2026-05-07T13:54:07.000Z</time>
      </trkpt>
      <trkpt lat="43.5839" lon="2.96107">
        <ele>357.8</ele>
        <time>2026-05-07T13:54:08.000Z</time>
      </trkpt>
      <trkpt lat="43.5839" lon="2.96108">
        <ele>357.5</ele>
        <time>2026-05-07T13:54:09.000Z</time>
      </trkpt>
      <trkpt lat="43.58389" lon="2.96108">
        <ele>356.7</ele>
        <time>2026-05-07T13:54:10.000Z</time>
      </trkpt>
      <trkpt lat="43.58389" lon="2.96109">
        <ele>355.6</ele>
        <time>2026-05-07T13:54:11.000Z</time>
      </trkpt>
      <trkpt lat="43.58389" lon="2.96109">
        <ele>354.3</ele>
        <time>2026-05-07T13:54:12.000Z</time>
      </trkpt>
      <trkpt lat="43.58389" lon="2.96111">
        <ele>353.4</ele>
        <time>2026-05-07T13:54:13.000Z</time>
      </trkpt>
      <trkpt lat="43.5839" lon="2.96112">
        <ele>352.8</ele>
        <time>2026-05-07T13:54:14.000Z</time>
      </trkpt>
      <trkpt lat="43.5839" lon="2.96114">
        <ele>352.2</ele>
        <time>2026-05-07T13:54:15.000Z</time>
      </trkpt>
      <trkpt lat="43.5839" lon="2.96117">
        <ele>351.8</ele>
        <time>2026-05-07T13:54:16.000Z</time>
      </trkpt>
      <trkpt lat="43.5839" lon="2.96121">
        <ele>351.4</ele>
        <time>2026-05-07T13:54:17.000Z</time>
      </trkpt>
      <trkpt lat="43.58391" lon="2.96123">
        <ele>351.3</ele>
        <time>2026-05-07T13:54:18.000Z</time>
      </trkpt>
      <trkpt lat="43.58391" lon="2.96126">
        <ele>351.2</ele>
        <time>2026-05-07T13:54:19.000Z</time>
      </trkpt>
      <trkpt lat="43.58391" lon="2.96127">
        <ele>350.7</ele>
        <time>2026-05-07T13:54:20.000Z</time>
      </trkpt>
      <trkpt lat="43.58391" lon="2.96128">
        <ele>350</ele>
        <time>2026-05-07T13:54:21.000Z</time>
      </trkpt>
      <trkpt lat="43.58391" lon="2.96129">
        <ele>349.8</ele>
        <time>2026-05-07T13:54:22.000Z</time>
      </trkpt>
      <trkpt lat="43.58392" lon="2.96131">
        <ele>348.9</ele>
        <time>2026-05-07T13:54:23.000Z</time>
      </trkpt>
      <trkpt lat="43.58392" lon="2.96133">
        <ele>348.4</ele>
        <time>2026-05-07T13:54:24.000Z</time>
      </trkpt>
      <trkpt lat="43.58392" lon="2.96135">
        <ele>347.9</ele>
        <time>2026-05-07T13:54:25.000Z</time>
      </trkpt>
      <trkpt lat="43.58392" lon="2.96137">
        <ele>347.6</ele>
        <time>2026-05-07T13:54:26.000Z</time>
      </trkpt>
      <trkpt lat="43.58393" lon="2.9614">
        <ele>347.8</ele>
        <time>2026-05-07T13:54:27.000Z</time>
      </trkpt>
      <trkpt lat="43.58393" lon="2.96143">
        <ele>348.4</ele>
        <time>2026-05-07T13:54:28.000Z</time>
      </trkpt>
      <trkpt lat="43.58392" lon="2.96144">
        <ele>348.1</ele>
        <time>2026-05-07T13:54:29.000Z</time>
      </trkpt>
      <trkpt lat="43.58392" lon="2.96145">
        <ele>347.8</ele>
        <time>2026-05-07T13:54:30.000Z</time>
      </trkpt>
      <trkpt lat="43.58391" lon="2.96146">
        <ele>347.4</ele>
        <time>2026-05-07T13:54:31.000Z</time>
      </trkpt>
      <trkpt lat="43.58391" lon="2.96147">
        <ele>347.2</ele>
        <time>2026-05-07T13:54:32.000Z</time>
      </trkpt>
      <trkpt lat="43.58391" lon="2.96149">
        <ele>346.6</ele>
        <time>2026-05-07T13:54:33.000Z</time>
      </trkpt>
      <trkpt lat="43.58391" lon="2.9615">
        <ele>346.4</ele>
        <time>2026-05-07T13:54:34.000Z</time>
      </trkpt>
      <trkpt lat="43.5839" lon="2.96152">
        <ele>346</ele>
        <time>2026-05-07T13:54:35.000Z</time>
      </trkpt>
      <trkpt lat="43.58389" lon="2.96154">
        <ele>345.8</ele>
        <time>2026-05-07T13:54:36.000Z</time>
      </trkpt>
      <trkpt lat="43.58389" lon="2.96155">
        <ele>346</ele>
        <time>2026-05-07T13:54:37.000Z</time>
      </trkpt>
      <trkpt lat="43.58389" lon="2.96157">
        <ele>346.1</ele>
        <time>2026-05-07T13:54:38.000Z</time>
      </trkpt>
      <trkpt lat="43.58389" lon="2.96158">
        <ele>346</ele>
        <time>2026-05-07T13:54:39.000Z</time>
      </trkpt>
      <trkpt lat="43.58388" lon="2.96159">
        <ele>346</ele>
        <time>2026-05-07T13:54:40.000Z</time>
      </trkpt>
      <trkpt lat="43.58388" lon="2.96161">
        <ele>346</ele>
        <time>2026-05-07T13:54:41.000Z</time>
      </trkpt>
      <trkpt lat="43.58387" lon="2.96162">
        <ele>345.5</ele>
        <time>2026-05-07T13:54:42.000Z</time>
      </trkpt>
      <trkpt lat="43.58386" lon="2.96164">
        <ele>345</ele>
        <time>2026-05-07T13:54:43.000Z</time>
      </trkpt>
      <trkpt lat="43.58385" lon="2.96165">
        <ele>345.4</ele>
        <time>2026-05-07T13:54:44.000Z</time>
      </trkpt>
      <trkpt lat="43.58384" lon="2.96167">
        <ele>345.2</ele>
        <time>2026-05-07T13:54:45.000Z</time>
      </trkpt>
      <trkpt lat="43.58384" lon="2.96169">
        <ele>345.7</ele>
        <time>2026-05-07T13:54:46.000Z</time>
      </trkpt>
      <trkpt lat="43.58384" lon="2.96171">
        <ele>345.5</ele>
        <time>2026-05-07T13:54:47.000Z</time>
      </trkpt>
      <trkpt lat="43.58384" lon="2.96174">
        <ele>345.2</ele>
        <time>2026-05-07T13:54:48.000Z</time>
      </trkpt>
      <trkpt lat="43.58384" lon="2.96175">
        <ele>344.5</ele>
        <time>2026-05-07T13:54:49.000Z</time>
      </trkpt>
      <trkpt lat="43.58383" lon="2.96176">
        <ele>344.5</ele>
        <time>2026-05-07T13:54:50.000Z</time>
      </trkpt>
      <trkpt lat="43.58383" lon="2.96178">
        <ele>344.7</ele>
        <time>2026-05-07T13:54:51.000Z</time>
      </trkpt>
      <trkpt lat="43.58383" lon="2.96179">
        <ele>345</ele>
        <time>2026-05-07T13:54:52.000Z</time>
      </trkpt>
      <trkpt lat="43.58383" lon="2.9618">
        <ele>345.4</ele>
        <time>2026-05-07T13:54:53.000Z</time>
      </trkpt>
      <trkpt lat="43.58383" lon="2.96181">
        <ele>345.8</ele>
        <time>2026-05-07T13:54:54.000Z</time>
      </trkpt>
      <trkpt lat="43.58383" lon="2.96183">
        <ele>345.9</ele>
        <time>2026-05-07T13:54:55.000Z</time>
      </trkpt>
      <trkpt lat="43.58384" lon="2.96185">
        <ele>346.5</ele>
        <time>2026-05-07T13:54:56.000Z</time>
      </trkpt>
      <trkpt lat="43.58383" lon="2.96189">
        <ele>346.3</ele>
        <time>2026-05-07T13:54:57.000Z</time>
      </trkpt>
      <trkpt lat="43.58383" lon="2.96191">
        <ele>345.8</ele>
        <time>2026-05-07T13:54:58.000Z</time>
      </trkpt>
      <trkpt lat="43.58383" lon="2.96191">
        <ele>345</ele>
        <time>2026-05-07T13:54:59.000Z</time>
      </trkpt>
      <trkpt lat="43.58383" lon="2.96192">
        <ele>344.6</ele>
        <time>2026-05-07T13:55:00.000Z</time>
      </trkpt>
      <trkpt lat="43.58383" lon="2.96194">
        <ele>345</ele>
        <time>2026-05-07T13:55:01.000Z</time>
      </trkpt>
      <trkpt lat="43.58383" lon="2.96195">
        <ele>345</ele>
        <time>2026-05-07T13:55:02.000Z</time>
      </trkpt>
      <trkpt lat="43.58383" lon="2.96197">
        <ele>345</ele>
        <time>2026-05-07T13:55:03.000Z</time>
      </trkpt>
      <trkpt lat="43.58383" lon="2.962">
        <ele>345.5</ele>
        <time>2026-05-07T13:55:04.000Z</time>
      </trkpt>
      <trkpt lat="43.58383" lon="2.96203">
        <ele>346.3</ele>
        <time>2026-05-07T13:55:05.000Z</time>
      </trkpt>
      <trkpt lat="43.58383" lon="2.96206">
        <ele>347</ele>
        <time>2026-05-07T13:55:06.000Z</time>
      </trkpt>
      <trkpt lat="43.58383" lon="2.96209">
        <ele>347.3</ele>
        <time>2026-05-07T13:55:07.000Z</time>
      </trkpt>
      <trkpt lat="43.58383" lon="2.9621">
        <ele>346.9</ele>
        <time>2026-05-07T13:55:08.000Z</time>
      </trkpt>
      <trkpt lat="43.58382" lon="2.96211">
        <ele>346.7</ele>
        <time>2026-05-07T13:55:09.000Z</time>
      </trkpt>
      <trkpt lat="43.58382" lon="2.96213">
        <ele>346.6</ele>
        <time>2026-05-07T13:55:10.000Z</time>
      </trkpt>
      <trkpt lat="43.58382" lon="2.96214">
        <ele>346.6</ele>
        <time>2026-05-07T13:55:11.000Z</time>
      </trkpt>
      <trkpt lat="43.58382" lon="2.96216">
        <ele>346.3</ele>
        <time>2026-05-07T13:55:12.000Z</time>
      </trkpt>
      <trkpt lat="43.58383" lon="2.96218">
        <ele>345.9</ele>
        <time>2026-05-07T13:55:13.000Z</time>
      </trkpt>
      <trkpt lat="43.58383" lon="2.9622">
        <ele>345.7</ele>
        <time>2026-05-07T13:55:14.000Z</time>
      </trkpt>
      <trkpt lat="43.58383" lon="2.96221">
        <ele>345.1</ele>
        <time>2026-05-07T13:55:15.000Z</time>
      </trkpt>
      <trkpt lat="43.58381" lon="2.96223">
        <ele>344.9</ele>
        <time>2026-05-07T13:55:16.000Z</time>
      </trkpt>
      <trkpt lat="43.58381" lon="2.96224">
        <ele>344.6</ele>
        <time>2026-05-07T13:55:17.000Z</time>
      </trkpt>
      <trkpt lat="43.58381" lon="2.96224">
        <ele>344.5</ele>
        <time>2026-05-07T13:55:18.000Z</time>
      </trkpt>
      <trkpt lat="43.5838" lon="2.96225">
        <ele>344.6</ele>
        <time>2026-05-07T13:55:19.000Z</time>
      </trkpt>
      <trkpt lat="43.5838" lon="2.96226">
        <ele>345</ele>
        <time>2026-05-07T13:55:20.000Z</time>
      </trkpt>
      <trkpt lat="43.58379" lon="2.96227">
        <ele>345.1</ele>
        <time>2026-05-07T13:55:21.000Z</time>
      </trkpt>
      <trkpt lat="43.58379" lon="2.96229">
        <ele>345.1</ele>
        <time>2026-05-07T13:55:22.000Z</time>
      </trkpt>
      <trkpt lat="43.58379" lon="2.96231">
        <ele>345</ele>
        <time>2026-05-07T13:55:23.000Z</time>
      </trkpt>
      <trkpt lat="43.58379" lon="2.96233">
        <ele>344.7</ele>
        <time>2026-05-07T13:55:24.000Z</time>
      </trkpt>
      <trkpt lat="43.58378" lon="2.96235">
        <ele>344.6</ele>
        <time>2026-05-07T13:55:25.000Z</time>
      </trkpt>
      <trkpt lat="43.58378" lon="2.96236">
        <ele>344.4</ele>
        <time>2026-05-07T13:55:26.000Z</time>
      </trkpt>
      <trkpt lat="43.58378" lon="2.96237">
        <ele>344</ele>
        <time>2026-05-07T13:55:27.000Z</time>
      </trkpt>
      <trkpt lat="43.58377" lon="2.96238">
        <ele>343.5</ele>
        <time>2026-05-07T13:55:28.000Z</time>
      </trkpt>
      <trkpt lat="43.58377" lon="2.96238">
        <ele>342.8</ele>
        <time>2026-05-07T13:55:29.000Z</time>
      </trkpt>
      <trkpt lat="43.58376" lon="2.96239">
        <ele>342.3</ele>
        <time>2026-05-07T13:55:30.000Z</time>
      </trkpt>
      <trkpt lat="43.58376" lon="2.9624">
        <ele>342.1</ele>
        <time>2026-05-07T13:55:31.000Z</time>
      </trkpt>
      <trkpt lat="43.58375" lon="2.96242">
        <ele>341.8</ele>
        <time>2026-05-07T13:55:32.000Z</time>
      </trkpt>
      <trkpt lat="43.58374" lon="2.96243">
        <ele>341.1</ele>
        <time>2026-05-07T13:55:33.000Z</time>
      </trkpt>
      <trkpt lat="43.58374" lon="2.96244">
        <ele>340.4</ele>
        <time>2026-05-07T13:55:34.000Z</time>
      </trkpt>
      <trkpt lat="43.58373" lon="2.96246">
        <ele>339.7</ele>
        <time>2026-05-07T13:55:35.000Z</time>
      </trkpt>
      <trkpt lat="43.58372" lon="2.96248">
        <ele>339</ele>
        <time>2026-05-07T13:55:36.000Z</time>
      </trkpt>
      <trkpt lat="43.58372" lon="2.9625">
        <ele>338.8</ele>
        <time>2026-05-07T13:55:37.000Z</time>
      </trkpt>
      <trkpt lat="43.58371" lon="2.96251">
        <ele>338.2</ele>
        <time>2026-05-07T13:55:38.000Z</time>
      </trkpt>
      <trkpt lat="43.58371" lon="2.96253">
        <ele>337.3</ele>
        <time>2026-05-07T13:55:39.000Z</time>
      </trkpt>
      <trkpt lat="43.5837" lon="2.96255">
        <ele>336.7</ele>
        <time>2026-05-07T13:55:40.000Z</time>
      </trkpt>
      <trkpt lat="43.5837" lon="2.96257">
        <ele>336.7</ele>
        <time>2026-05-07T13:55:41.000Z</time>
      </trkpt>
      <trkpt lat="43.5837" lon="2.96259">
        <ele>336.6</ele>
        <time>2026-05-07T13:55:42.000Z</time>
      </trkpt>
      <trkpt lat="43.58369" lon="2.96261">
        <ele>336.2</ele>
        <time>2026-05-07T13:55:43.000Z</time>
      </trkpt>
      <trkpt lat="43.58369" lon="2.96263">
        <ele>335.9</ele>
        <time>2026-05-07T13:55:44.000Z</time>
      </trkpt>
      <trkpt lat="43.58368" lon="2.96265">
        <ele>336</ele>
        <time>2026-05-07T13:55:45.000Z</time>
      </trkpt>
      <trkpt lat="43.58367" lon="2.96266">
        <ele>336.1</ele>
        <time>2026-05-07T13:55:46.000Z</time>
      </trkpt>
      <trkpt lat="43.58366" lon="2.96268">
        <ele>336</ele>
        <time>2026-05-07T13:55:47.000Z</time>
      </trkpt>
      <trkpt lat="43.58365" lon="2.96269">
        <ele>335.6</ele>
        <time>2026-05-07T13:55:48.000Z</time>
      </trkpt>
      <trkpt lat="43.58365" lon="2.96271">
        <ele>335.5</ele>
        <time>2026-05-07T13:55:49.000Z</time>
      </trkpt>
      <trkpt lat="43.58364" lon="2.96272">
        <ele>335.7</ele>
        <time>2026-05-07T13:55:50.000Z</time>
      </trkpt>
      <trkpt lat="43.58364" lon="2.96274">
        <ele>335.6</ele>
        <time>2026-05-07T13:55:51.000Z</time>
      </trkpt>
      <trkpt lat="43.58363" lon="2.96275">
        <ele>335.6</ele>
        <time>2026-05-07T13:55:52.000Z</time>
      </trkpt>
      <trkpt lat="43.58362" lon="2.96277">
        <ele>335.6</ele>
        <time>2026-05-07T13:55:53.000Z</time>
      </trkpt>
      <trkpt lat="43.58361" lon="2.96279">
        <ele>335.8</ele>
        <time>2026-05-07T13:55:54.000Z</time>
      </trkpt>
      <trkpt lat="43.5836" lon="2.96279">
        <ele>335.9</ele>
        <time>2026-05-07T13:55:55.000Z</time>
      </trkpt>
      <trkpt lat="43.5836" lon="2.9628">
        <ele>336.1</ele>
        <time>2026-05-07T13:55:56.000Z</time>
      </trkpt>
      <trkpt lat="43.58359" lon="2.9628">
        <ele>336</ele>
        <time>2026-05-07T13:55:57.000Z</time>
      </trkpt>
      <trkpt lat="43.58358" lon="2.9628">
        <ele>335.6</ele>
        <time>2026-05-07T13:55:58.000Z</time>
      </trkpt>
      <trkpt lat="43.58358" lon="2.96281">
        <ele>335.7</ele>
        <time>2026-05-07T13:55:59.000Z</time>
      </trkpt>
      <trkpt lat="43.58357" lon="2.96282">
        <ele>336.2</ele>
        <time>2026-05-07T13:56:00.000Z</time>
      </trkpt>
      <trkpt lat="43.58357" lon="2.96284">
        <ele>336.4</ele>
        <time>2026-05-07T13:56:01.000Z</time>
      </trkpt>
      <trkpt lat="43.58356" lon="2.96286">
        <ele>335.6</ele>
        <time>2026-05-07T13:56:02.000Z</time>
      </trkpt>
      <trkpt lat="43.58355" lon="2.96287">
        <ele>335.1</ele>
        <time>2026-05-07T13:56:03.000Z</time>
      </trkpt>
      <trkpt lat="43.58354" lon="2.96288">
        <ele>334.4</ele>
        <time>2026-05-07T13:56:04.000Z</time>
      </trkpt>
      <trkpt lat="43.58352" lon="2.96288">
        <ele>333.9</ele>
        <time>2026-05-07T13:56:05.000Z</time>
      </trkpt>
      <trkpt lat="43.58351" lon="2.96288">
        <ele>334.2</ele>
        <time>2026-05-07T13:56:06.000Z</time>
      </trkpt>
      <trkpt lat="43.5835" lon="2.96289">
        <ele>334.2</ele>
        <time>2026-05-07T13:56:07.000Z</time>
      </trkpt>
      <trkpt lat="43.5835" lon="2.9629">
        <ele>334.2</ele>
        <time>2026-05-07T13:56:08.000Z</time>
      </trkpt>
      <trkpt lat="43.58349" lon="2.96292">
        <ele>333.9</ele>
        <time>2026-05-07T13:56:09.000Z</time>
      </trkpt>
      <trkpt lat="43.58349" lon="2.96294">
        <ele>333.4</ele>
        <time>2026-05-07T13:56:10.000Z</time>
      </trkpt>
      <trkpt lat="43.58348" lon="2.96296">
        <ele>333.3</ele>
        <time>2026-05-07T13:56:11.000Z</time>
      </trkpt>
      <trkpt lat="43.58347" lon="2.96298">
        <ele>333.8</ele>
        <time>2026-05-07T13:56:12.000Z</time>
      </trkpt>
      <trkpt lat="43.58345" lon="2.963">
        <ele>334.2</ele>
        <time>2026-05-07T13:56:13.000Z</time>
      </trkpt>
      <trkpt lat="43.58344" lon="2.96301">
        <ele>335.1</ele>
        <time>2026-05-07T13:56:14.000Z</time>
      </trkpt>
      <trkpt lat="43.58343" lon="2.96302">
        <ele>335.1</ele>
        <time>2026-05-07T13:56:15.000Z</time>
      </trkpt>
      <trkpt lat="43.58343" lon="2.96303">
        <ele>334.6</ele>
        <time>2026-05-07T13:56:16.000Z</time>
      </trkpt>
      <trkpt lat="43.58342" lon="2.96304">
        <ele>334.3</ele>
        <time>2026-05-07T13:56:17.000Z</time>
      </trkpt>
      <trkpt lat="43.58342" lon="2.96305">
        <ele>333.6</ele>
        <time>2026-05-07T13:56:18.000Z</time>
      </trkpt>
      <trkpt lat="43.58342" lon="2.96307">
        <ele>333.2</ele>
        <time>2026-05-07T13:56:19.000Z</time>
      </trkpt>
      <trkpt lat="43.58341" lon="2.96309">
        <ele>332.8</ele>
        <time>2026-05-07T13:56:20.000Z</time>
      </trkpt>
      <trkpt lat="43.58341" lon="2.96311">
        <ele>332.4</ele>
        <time>2026-05-07T13:56:21.000Z</time>
      </trkpt>
      <trkpt lat="43.58341" lon="2.96313">
        <ele>332.2</ele>
        <time>2026-05-07T13:56:22.000Z</time>
      </trkpt>
      <trkpt lat="43.58341" lon="2.96316">
        <ele>332.1</ele>
        <time>2026-05-07T13:56:23.000Z</time>
      </trkpt>
      <trkpt lat="43.58341" lon="2.96317">
        <ele>332.1</ele>
        <time>2026-05-07T13:56:24.000Z</time>
      </trkpt>
      <trkpt lat="43.58342" lon="2.96319">
        <ele>331.9</ele>
        <time>2026-05-07T13:56:25.000Z</time>
      </trkpt>
      <trkpt lat="43.58342" lon="2.96322">
        <ele>331.8</ele>
        <time>2026-05-07T13:56:26.000Z</time>
      </trkpt>
      <trkpt lat="43.58342" lon="2.96323">
        <ele>331.6</ele>
        <time>2026-05-07T13:56:27.000Z</time>
      </trkpt>
      <trkpt lat="43.58342" lon="2.96324">
        <ele>331.2</ele>
        <time>2026-05-07T13:56:28.000Z</time>
      </trkpt>
      <trkpt lat="43.58342" lon="2.96326">
        <ele>331</ele>
        <time>2026-05-07T13:56:29.000Z</time>
      </trkpt>
      <trkpt lat="43.58342" lon="2.96328">
        <ele>330.6</ele>
        <time>2026-05-07T13:56:30.000Z</time>
      </trkpt>
      <trkpt lat="43.58341" lon="2.96329">
        <ele>330.4</ele>
        <time>2026-05-07T13:56:31.000Z</time>
      </trkpt>
      <trkpt lat="43.5834" lon="2.96331">
        <ele>329.9</ele>
        <time>2026-05-07T13:56:32.000Z</time>
      </trkpt>
      <trkpt lat="43.5834" lon="2.96333">
        <ele>329.6</ele>
        <time>2026-05-07T13:56:33.000Z</time>
      </trkpt>
      <trkpt lat="43.5834" lon="2.96334">
        <ele>329.8</ele>
        <time>2026-05-07T13:56:34.000Z</time>
      </trkpt>
      <trkpt lat="43.58339" lon="2.96335">
        <ele>329.9</ele>
        <time>2026-05-07T13:56:35.000Z</time>
      </trkpt>
      <trkpt lat="43.58339" lon="2.96336">
        <ele>329.7</ele>
        <time>2026-05-07T13:56:36.000Z</time>
      </trkpt>
      <trkpt lat="43.58338" lon="2.96336">
        <ele>329.1</ele>
        <time>2026-05-07T13:56:37.000Z</time>
      </trkpt>
      <trkpt lat="43.58337" lon="2.96338">
        <ele>328.5</ele>
        <time>2026-05-07T13:56:38.000Z</time>
      </trkpt>
      <trkpt lat="43.58336" lon="2.96339">
        <ele>328.7</ele>
        <time>2026-05-07T13:56:39.000Z</time>
      </trkpt>
      <trkpt lat="43.58335" lon="2.96341">
        <ele>329</ele>
        <time>2026-05-07T13:56:40.000Z</time>
      </trkpt>
      <trkpt lat="43.58335" lon="2.96343">
        <ele>329.2</ele>
        <time>2026-05-07T13:56:41.000Z</time>
      </trkpt>
      <trkpt lat="43.58335" lon="2.96346">
        <ele>329.5</ele>
        <time>2026-05-07T13:56:42.000Z</time>
      </trkpt>
      <trkpt lat="43.58334" lon="2.96348">
        <ele>329.9</ele>
        <time>2026-05-07T13:56:43.000Z</time>
      </trkpt>
      <trkpt lat="43.58333" lon="2.9635">
        <ele>330</ele>
        <time>2026-05-07T13:56:44.000Z</time>
      </trkpt>
      <trkpt lat="43.58333" lon="2.96351">
        <ele>330.2</ele>
        <time>2026-05-07T13:56:45.000Z</time>
      </trkpt>
      <trkpt lat="43.58332" lon="2.96352">
        <ele>330.7</ele>
        <time>2026-05-07T13:56:46.000Z</time>
      </trkpt>
      <trkpt lat="43.58331" lon="2.96353">
        <ele>331.5</ele>
        <time>2026-05-07T13:56:47.000Z</time>
      </trkpt>
      <trkpt lat="43.5833" lon="2.96355">
        <ele>332</ele>
        <time>2026-05-07T13:56:48.000Z</time>
      </trkpt>
      <trkpt lat="43.58328" lon="2.96357">
        <ele>332.1</ele>
        <time>2026-05-07T13:56:49.000Z</time>
      </trkpt>
      <trkpt lat="43.58327" lon="2.96358">
        <ele>332</ele>
        <time>2026-05-07T13:56:50.000Z</time>
      </trkpt>
      <trkpt lat="43.58326" lon="2.9636">
        <ele>332.2</ele>
        <time>2026-05-07T13:56:51.000Z</time>
      </trkpt>
      <trkpt lat="43.58325" lon="2.96361">
        <ele>332.3</ele>
        <time>2026-05-07T13:56:52.000Z</time>
      </trkpt>
      <trkpt lat="43.58325" lon="2.96362">
        <ele>331.8</ele>
        <time>2026-05-07T13:56:53.000Z</time>
      </trkpt>
      <trkpt lat="43.58324" lon="2.96363">
        <ele>331.4</ele>
        <time>2026-05-07T13:56:54.000Z</time>
      </trkpt>
      <trkpt lat="43.58324" lon="2.96363">
        <ele>331.6</ele>
        <time>2026-05-07T13:56:55.000Z</time>
      </trkpt>
      <trkpt lat="43.58323" lon="2.96363">
        <ele>331</ele>
        <time>2026-05-07T13:56:56.000Z</time>
      </trkpt>
      <trkpt lat="43.58322" lon="2.96363">
        <ele>331.2</ele>
        <time>2026-05-07T13:56:57.000Z</time>
      </trkpt>
      <trkpt lat="43.5832" lon="2.96364">
        <ele>331.1</ele>
        <time>2026-05-07T13:56:58.000Z</time>
      </trkpt>
      <trkpt lat="43.58319" lon="2.96365">
        <ele>331.2</ele>
        <time>2026-05-07T13:56:59.000Z</time>
      </trkpt>
      <trkpt lat="43.58317" lon="2.96366">
        <ele>330.9</ele>
        <time>2026-05-07T13:57:00.000Z</time>
      </trkpt>
      <trkpt lat="43.58316" lon="2.96367">
        <ele>330.1</ele>
        <time>2026-05-07T13:57:01.000Z</time>
      </trkpt>
      <trkpt lat="43.58315" lon="2.96367">
        <ele>329.1</ele>
        <time>2026-05-07T13:57:02.000Z</time>
      </trkpt>
      <trkpt lat="43.58313" lon="2.96368">
        <ele>327.7</ele>
        <time>2026-05-07T13:57:03.000Z</time>
      </trkpt>
      <trkpt lat="43.58312" lon="2.96369">
        <ele>328.2</ele>
        <time>2026-05-07T13:57:04.000Z</time>
      </trkpt>
      <trkpt lat="43.58312" lon="2.96371">
        <ele>328.4</ele>
        <time>2026-05-07T13:57:05.000Z</time>
      </trkpt>
      <trkpt lat="43.58311" lon="2.96372">
        <ele>328.3</ele>
        <time>2026-05-07T13:57:06.000Z</time>
      </trkpt>
      <trkpt lat="43.58311" lon="2.96374">
        <ele>327.7</ele>
        <time>2026-05-07T13:57:07.000Z</time>
      </trkpt>
      <trkpt lat="43.58309" lon="2.96375">
        <ele>327</ele>
        <time>2026-05-07T13:57:08.000Z</time>
      </trkpt>
      <trkpt lat="43.58308" lon="2.96378">
        <ele>326.9</ele>
        <time>2026-05-07T13:57:09.000Z</time>
      </trkpt>
      <trkpt lat="43.58307" lon="2.9638">
        <ele>327.2</ele>
        <time>2026-05-07T13:57:10.000Z</time>
      </trkpt>
      <trkpt lat="43.58306" lon="2.96381">
        <ele>327.1</ele>
        <time>2026-05-07T13:57:11.000Z</time>
      </trkpt>
      <trkpt lat="43.58306" lon="2.96383">
        <ele>327.8</ele>
        <time>2026-05-07T13:57:12.000Z</time>
      </trkpt>
      <trkpt lat="43.58306" lon="2.96385">
        <ele>328.3</ele>
        <time>2026-05-07T13:57:13.000Z</time>
      </trkpt>
      <trkpt lat="43.58307" lon="2.96387">
        <ele>329.1</ele>
        <time>2026-05-07T13:57:14.000Z</time>
      </trkpt>
      <trkpt lat="43.58307" lon="2.96389">
        <ele>329.6</ele>
        <time>2026-05-07T13:57:15.000Z</time>
      </trkpt>
      <trkpt lat="43.58307" lon="2.9639">
        <ele>330</ele>
        <time>2026-05-07T13:57:16.000Z</time>
      </trkpt>
      <trkpt lat="43.58306" lon="2.96392">
        <ele>330</ele>
        <time>2026-05-07T13:57:17.000Z</time>
      </trkpt>
      <trkpt lat="43.58306" lon="2.96394">
        <ele>330</ele>
        <time>2026-05-07T13:57:18.000Z</time>
      </trkpt>
      <trkpt lat="43.58306" lon="2.96395">
        <ele>330.1</ele>
        <time>2026-05-07T13:57:19.000Z</time>
      </trkpt>
      <trkpt lat="43.58306" lon="2.96396">
        <ele>330.8</ele>
        <time>2026-05-07T13:57:20.000Z</time>
      </trkpt>
      <trkpt lat="43.58305" lon="2.96397">
        <ele>331.3</ele>
        <time>2026-05-07T13:57:21.000Z</time>
      </trkpt>
      <trkpt lat="43.58305" lon="2.96398">
        <ele>331.5</ele>
        <time>2026-05-07T13:57:22.000Z</time>
      </trkpt>
      <trkpt lat="43.58304" lon="2.964">
        <ele>331.3</ele>
        <time>2026-05-07T13:57:23.000Z</time>
      </trkpt>
      <trkpt lat="43.58304" lon="2.96401">
        <ele>331.2</ele>
        <time>2026-05-07T13:57:24.000Z</time>
      </trkpt>
      <trkpt lat="43.58303" lon="2.96404">
        <ele>330.9</ele>
        <time>2026-05-07T13:57:25.000Z</time>
      </trkpt>
      <trkpt lat="43.58303" lon="2.96406">
        <ele>330.9</ele>
        <time>2026-05-07T13:57:26.000Z</time>
      </trkpt>
      <trkpt lat="43.58302" lon="2.96407">
        <ele>331.1</ele>
        <time>2026-05-07T13:57:27.000Z</time>
      </trkpt>
      <trkpt lat="43.58302" lon="2.9641">
        <ele>331</ele>
        <time>2026-05-07T13:57:28.000Z</time>
      </trkpt>
      <trkpt lat="43.58302" lon="2.96411">
        <ele>331</ele>
        <time>2026-05-07T13:57:29.000Z</time>
      </trkpt>
      <trkpt lat="43.58302" lon="2.96411">
        <ele>330.8</ele>
        <time>2026-05-07T13:57:30.000Z</time>
      </trkpt>
      <trkpt lat="43.58301" lon="2.96413">
        <ele>330.8</ele>
        <time>2026-05-07T13:57:31.000Z</time>
      </trkpt>
      <trkpt lat="43.58301" lon="2.96416">
        <ele>330.7</ele>
        <time>2026-05-07T13:57:32.000Z</time>
      </trkpt>
      <trkpt lat="43.58302" lon="2.96417">
        <ele>330.7</ele>
        <time>2026-05-07T13:57:33.000Z</time>
      </trkpt>
      <trkpt lat="43.58301" lon="2.9642">
        <ele>330.8</ele>
        <time>2026-05-07T13:57:34.000Z</time>
      </trkpt>
      <trkpt lat="43.58301" lon="2.96423">
        <ele>331.2</ele>
        <time>2026-05-07T13:57:35.000Z</time>
      </trkpt>
      <trkpt lat="43.58301" lon="2.96425">
        <ele>331.3</ele>
        <time>2026-05-07T13:57:36.000Z</time>
      </trkpt>
      <trkpt lat="43.583" lon="2.96426">
        <ele>331.1</ele>
        <time>2026-05-07T13:57:37.000Z</time>
      </trkpt>
      <trkpt lat="43.58299" lon="2.96427">
        <ele>331</ele>
        <time>2026-05-07T13:57:38.000Z</time>
      </trkpt>
      <trkpt lat="43.58298" lon="2.96428">
        <ele>331.1</ele>
        <time>2026-05-07T13:57:39.000Z</time>
      </trkpt>
      <trkpt lat="43.58297" lon="2.96428">
        <ele>331.5</ele>
        <time>2026-05-07T13:57:40.000Z</time>
      </trkpt>
      <trkpt lat="43.58295" lon="2.9643">
        <ele>331.7</ele>
        <time>2026-05-07T13:57:41.000Z</time>
      </trkpt>
      <trkpt lat="43.58294" lon="2.9643">
        <ele>331.6</ele>
        <time>2026-05-07T13:57:42.000Z</time>
      </trkpt>
      <trkpt lat="43.58293" lon="2.96431">
        <ele>331.5</ele>
        <time>2026-05-07T13:57:43.000Z</time>
      </trkpt>
      <trkpt lat="43.58292" lon="2.96431">
        <ele>331.5</ele>
        <time>2026-05-07T13:57:44.000Z</time>
      </trkpt>
      <trkpt lat="43.58291" lon="2.96432">
        <ele>331.3</ele>
        <time>2026-05-07T13:57:45.000Z</time>
      </trkpt>
      <trkpt lat="43.58291" lon="2.96432">
        <ele>330.6</ele>
        <time>2026-05-07T13:57:46.000Z</time>
      </trkpt>
      <trkpt lat="43.58291" lon="2.96433">
        <ele>329.8</ele>
        <time>2026-05-07T13:57:47.000Z</time>
      </trkpt>
      <trkpt lat="43.58291" lon="2.96433">
        <ele>329.7</ele>
        <time>2026-05-07T13:57:48.000Z</time>
      </trkpt>
      <trkpt lat="43.5829" lon="2.96434">
        <ele>329.6</ele>
        <time>2026-05-07T13:57:49.000Z</time>
      </trkpt>
      <trkpt lat="43.58288" lon="2.96435">
        <ele>329.9</ele>
        <time>2026-05-07T13:57:50.000Z</time>
      </trkpt>
      <trkpt lat="43.58287" lon="2.96435">
        <ele>329.9</ele>
        <time>2026-05-07T13:57:51.000Z</time>
      </trkpt>
      <trkpt lat="43.58285" lon="2.96436">
        <ele>330.1</ele>
        <time>2026-05-07T13:57:52.000Z</time>
      </trkpt>
      <trkpt lat="43.58284" lon="2.96436">
        <ele>330.1</ele>
        <time>2026-05-07T13:57:53.000Z</time>
      </trkpt>
      <trkpt lat="43.58282" lon="2.96436">
        <ele>330.5</ele>
        <time>2026-05-07T13:57:54.000Z</time>
      </trkpt>
      <trkpt lat="43.58281" lon="2.96436">
        <ele>330.5</ele>
        <time>2026-05-07T13:57:55.000Z</time>
      </trkpt>
      <trkpt lat="43.5828" lon="2.96436">
        <ele>331</ele>
        <time>2026-05-07T13:57:56.000Z</time>
      </trkpt>
      <trkpt lat="43.58278" lon="2.96435">
        <ele>331.2</ele>
        <time>2026-05-07T13:57:57.000Z</time>
      </trkpt>
      <trkpt lat="43.58277" lon="2.96436">
        <ele>330.7</ele>
        <time>2026-05-07T13:57:58.000Z</time>
      </trkpt>
      <trkpt lat="43.58276" lon="2.96437">
        <ele>330.1</ele>
        <time>2026-05-07T13:57:59.000Z</time>
      </trkpt>
      <trkpt lat="43.58274" lon="2.96438">
        <ele>329.8</ele>
        <time>2026-05-07T13:58:00.000Z</time>
      </trkpt>
      <trkpt lat="43.58273" lon="2.96438">
        <ele>329.5</ele>
        <time>2026-05-07T13:58:01.000Z</time>
      </trkpt>
      <trkpt lat="43.58271" lon="2.96438">
        <ele>329.7</ele>
        <time>2026-05-07T13:58:02.000Z</time>
      </trkpt>
      <trkpt lat="43.5827" lon="2.96438">
        <ele>329.9</ele>
        <time>2026-05-07T13:58:03.000Z</time>
      </trkpt>
      <trkpt lat="43.58269" lon="2.96439">
        <ele>330.5</ele>
        <time>2026-05-07T13:58:04.000Z</time>
      </trkpt>
      <trkpt lat="43.58268" lon="2.9644">
        <ele>330.7</ele>
        <time>2026-05-07T13:58:05.000Z</time>
      </trkpt>
      <trkpt lat="43.58267" lon="2.9644">
        <ele>330.9</ele>
        <time>2026-05-07T13:58:06.000Z</time>
      </trkpt>
      <trkpt lat="43.58265" lon="2.9644">
        <ele>331.5</ele>
        <time>2026-05-07T13:58:07.000Z</time>
      </trkpt>
      <trkpt lat="43.58264" lon="2.96441">
        <ele>331</ele>
        <time>2026-05-07T13:58:08.000Z</time>
      </trkpt>
      <trkpt lat="43.58263" lon="2.96443">
        <ele>330.5</ele>
        <time>2026-05-07T13:58:09.000Z</time>
      </trkpt>
      <trkpt lat="43.58262" lon="2.96444">
        <ele>330.2</ele>
        <time>2026-05-07T13:58:10.000Z</time>
      </trkpt>
      <trkpt lat="43.58261" lon="2.96445">
        <ele>330.7</ele>
        <time>2026-05-07T13:58:11.000Z</time>
      </trkpt>
      <trkpt lat="43.58261" lon="2.96446">
        <ele>330.3</ele>
        <time>2026-05-07T13:58:12.000Z</time>
      </trkpt>
      <trkpt lat="43.58261" lon="2.96448">
        <ele>329.7</ele>
        <time>2026-05-07T13:58:13.000Z</time>
      </trkpt>
      <trkpt lat="43.5826" lon="2.9645">
        <ele>329</ele>
        <time>2026-05-07T13:58:14.000Z</time>
      </trkpt>
      <trkpt lat="43.5826" lon="2.96451">
        <ele>328.6</ele>
        <time>2026-05-07T13:58:15.000Z</time>
      </trkpt>
      <trkpt lat="43.58258" lon="2.96452">
        <ele>328.5</ele>
        <time>2026-05-07T13:58:16.000Z</time>
      </trkpt>
      <trkpt lat="43.58257" lon="2.96453">
        <ele>328.2</ele>
        <time>2026-05-07T13:58:17.000Z</time>
      </trkpt>
      <trkpt lat="43.58257" lon="2.96453">
        <ele>328.3</ele>
        <time>2026-05-07T13:58:18.000Z</time>
      </trkpt>
      <trkpt lat="43.58257" lon="2.96453">
        <ele>327.6</ele>
        <time>2026-05-07T13:58:19.000Z</time>
      </trkpt>
      <trkpt lat="43.58256" lon="2.96452">
        <ele>328</ele>
        <time>2026-05-07T13:58:20.000Z</time>
      </trkpt>
      <trkpt lat="43.58256" lon="2.96453">
        <ele>328.1</ele>
        <time>2026-05-07T13:58:21.000Z</time>
      </trkpt>
      <trkpt lat="43.58255" lon="2.96453">
        <ele>328.5</ele>
        <time>2026-05-07T13:58:22.000Z</time>
      </trkpt>
      <trkpt lat="43.58255" lon="2.96454">
        <ele>328.8</ele>
        <time>2026-05-07T13:58:23.000Z</time>
      </trkpt>
      <trkpt lat="43.58254" lon="2.96453">
        <ele>328.5</ele>
        <time>2026-05-07T13:58:24.000Z</time>
      </trkpt>
      <trkpt lat="43.58253" lon="2.96454">
        <ele>327.9</ele>
        <time>2026-05-07T13:58:25.000Z</time>
      </trkpt>
      <trkpt lat="43.58252" lon="2.96454">
        <ele>327.8</ele>
        <time>2026-05-07T13:58:26.000Z</time>
      </trkpt>
      <trkpt lat="43.58251" lon="2.96455">
        <ele>328.2</ele>
        <time>2026-05-07T13:58:27.000Z</time>
      </trkpt>
      <trkpt lat="43.5825" lon="2.96456">
        <ele>328.1</ele>
        <time>2026-05-07T13:58:28.000Z</time>
      </trkpt>
      <trkpt lat="43.58249" lon="2.96457">
        <ele>328.1</ele>
        <time>2026-05-07T13:58:29.000Z</time>
      </trkpt>
      <trkpt lat="43.58248" lon="2.96458">
        <ele>328.2</ele>
        <time>2026-05-07T13:58:30.000Z</time>
      </trkpt>
      <trkpt lat="43.58246" lon="2.9646">
        <ele>328.1</ele>
        <time>2026-05-07T13:58:31.000Z</time>
      </trkpt>
      <trkpt lat="43.58245" lon="2.9646">
        <ele>327.7</ele>
        <time>2026-05-07T13:58:32.000Z</time>
      </trkpt>
      <trkpt lat="43.58243" lon="2.9646">
        <ele>327.2</ele>
        <time>2026-05-07T13:58:33.000Z</time>
      </trkpt>
      <trkpt lat="43.58241" lon="2.9646">
        <ele>326.3</ele>
        <time>2026-05-07T13:58:34.000Z</time>
      </trkpt>
      <trkpt lat="43.5824" lon="2.9646">
        <ele>325.5</ele>
        <time>2026-05-07T13:58:35.000Z</time>
      </trkpt>
      <trkpt lat="43.58239" lon="2.96458">
        <ele>324.6</ele>
        <time>2026-05-07T13:58:36.000Z</time>
      </trkpt>
      <trkpt lat="43.58238" lon="2.96459">
        <ele>324</ele>
        <time>2026-05-07T13:58:37.000Z</time>
      </trkpt>
      <trkpt lat="43.58236" lon="2.96458">
        <ele>323.9</ele>
        <time>2026-05-07T13:58:38.000Z</time>
      </trkpt>
      <trkpt lat="43.58235" lon="2.96457">
        <ele>323.7</ele>
        <time>2026-05-07T13:58:39.000Z</time>
      </trkpt>
      <trkpt lat="43.58234" lon="2.96457">
        <ele>322.9</ele>
        <time>2026-05-07T13:58:40.000Z</time>
      </trkpt>
      <trkpt lat="43.58232" lon="2.96457">
        <ele>322.7</ele>
        <time>2026-05-07T13:58:41.000Z</time>
      </trkpt>
      <trkpt lat="43.5823" lon="2.96456">
        <ele>322.3</ele>
        <time>2026-05-07T13:58:42.000Z</time>
      </trkpt>
      <trkpt lat="43.58228" lon="2.96455">
        <ele>322.3</ele>
        <time>2026-05-07T13:58:43.000Z</time>
      </trkpt>
      <trkpt lat="43.58227" lon="2.96454">
        <ele>322.4</ele>
        <time>2026-05-07T13:58:44.000Z</time>
      </trkpt>
      <trkpt lat="43.58225" lon="2.96452">
        <ele>322.9</ele>
        <time>2026-05-07T13:58:45.000Z</time>
      </trkpt>
      <trkpt lat="43.58224" lon="2.96452">
        <ele>323</ele>
        <time>2026-05-07T13:58:46.000Z</time>
      </trkpt>
      <trkpt lat="43.58222" lon="2.96452">
        <ele>323.6</ele>
        <time>2026-05-07T13:58:47.000Z</time>
      </trkpt>
      <trkpt lat="43.58221" lon="2.96451">
        <ele>323.7</ele>
        <time>2026-05-07T13:58:48.000Z</time>
      </trkpt>
      <trkpt lat="43.5822" lon="2.96449">
        <ele>323.8</ele>
        <time>2026-05-07T13:58:49.000Z</time>
      </trkpt>
      <trkpt lat="43.5822" lon="2.96449">
        <ele>322.9</ele>
        <time>2026-05-07T13:58:50.000Z</time>
      </trkpt>
      <trkpt lat="43.5822" lon="2.96448">
        <ele>323.5</ele>
        <time>2026-05-07T13:58:51.000Z</time>
      </trkpt>
      <trkpt lat="43.58219" lon="2.96447">
        <ele>323.9</ele>
        <time>2026-05-07T13:58:52.000Z</time>
      </trkpt>
      <trkpt lat="43.58219" lon="2.96447">
        <ele>323.7</ele>
        <time>2026-05-07T13:58:53.000Z</time>
      </trkpt>
      <trkpt lat="43.58218" lon="2.96448">
        <ele>323.7</ele>
        <time>2026-05-07T13:58:54.000Z</time>
      </trkpt>
      <trkpt lat="43.58217" lon="2.96449">
        <ele>323.7</ele>
        <time>2026-05-07T13:58:55.000Z</time>
      </trkpt>
      <trkpt lat="43.58216" lon="2.96451">
        <ele>323.1</ele>
        <time>2026-05-07T13:58:56.000Z</time>
      </trkpt>
      <trkpt lat="43.58214" lon="2.9645">
        <ele>322.9</ele>
        <time>2026-05-07T13:58:57.000Z</time>
      </trkpt>
      <trkpt lat="43.58213" lon="2.9645">
        <ele>323</ele>
        <time>2026-05-07T13:58:58.000Z</time>
      </trkpt>
      <trkpt lat="43.58212" lon="2.96451">
        <ele>323.4</ele>
        <time>2026-05-07T13:58:59.000Z</time>
      </trkpt>
      <trkpt lat="43.58213" lon="2.96453">
        <ele>323.5</ele>
        <time>2026-05-07T13:59:00.000Z</time>
      </trkpt>
      <trkpt lat="43.58212" lon="2.96453">
        <ele>324.2</ele>
        <time>2026-05-07T13:59:01.000Z</time>
      </trkpt>
      <trkpt lat="43.58211" lon="2.96454">
        <ele>324.3</ele>
        <time>2026-05-07T13:59:02.000Z</time>
      </trkpt>
      <trkpt lat="43.5821" lon="2.96455">
        <ele>325</ele>
        <time>2026-05-07T13:59:03.000Z</time>
      </trkpt>
      <trkpt lat="43.5821" lon="2.96456">
        <ele>324.8</ele>
        <time>2026-05-07T13:59:04.000Z</time>
      </trkpt>
      <trkpt lat="43.58209" lon="2.96458">
        <ele>324.6</ele>
        <time>2026-05-07T13:59:05.000Z</time>
      </trkpt>
      <trkpt lat="43.58208" lon="2.9646">
        <ele>324.8</ele>
        <time>2026-05-07T13:59:06.000Z</time>
      </trkpt>
      <trkpt lat="43.58208" lon="2.9646">
        <ele>324.7</ele>
        <time>2026-05-07T13:59:07.000Z</time>
      </trkpt>
      <trkpt lat="43.58207" lon="2.96462">
        <ele>324.9</ele>
        <time>2026-05-07T13:59:08.000Z</time>
      </trkpt>
      <trkpt lat="43.58207" lon="2.96462">
        <ele>324.4</ele>
        <time>2026-05-07T13:59:09.000Z</time>
      </trkpt>
      <trkpt lat="43.58208" lon="2.96461">
        <ele>323.7</ele>
        <time>2026-05-07T13:59:10.000Z</time>
      </trkpt>
      <trkpt lat="43.58207" lon="2.96463">
        <ele>322.5</ele>
        <time>2026-05-07T13:59:11.000Z</time>
      </trkpt>
      <trkpt lat="43.58205" lon="2.96464">
        <ele>321.5</ele>
        <time>2026-05-07T13:59:12.000Z</time>
      </trkpt>
      <trkpt lat="43.58204" lon="2.96465">
        <ele>320.9</ele>
        <time>2026-05-07T13:59:13.000Z</time>
      </trkpt>
      <trkpt lat="43.58204" lon="2.96466">
        <ele>321</ele>
        <time>2026-05-07T13:59:14.000Z</time>
      </trkpt>
      <trkpt lat="43.58203" lon="2.96467">
        <ele>320.4</ele>
        <time>2026-05-07T13:59:15.000Z</time>
      </trkpt>
      <trkpt lat="43.58202" lon="2.96467">
        <ele>320.4</ele>
        <time>2026-05-07T13:59:16.000Z</time>
      </trkpt>
      <trkpt lat="43.582" lon="2.96468">
        <ele>320.7</ele>
        <time>2026-05-07T13:59:17.000Z</time>
      </trkpt>
      <trkpt lat="43.582" lon="2.96469">
        <ele>319.7</ele>
        <time>2026-05-07T13:59:18.000Z</time>
      </trkpt>
      <trkpt lat="43.58199" lon="2.9647">
        <ele>319.3</ele>
        <time>2026-05-07T13:59:19.000Z</time>
      </trkpt>
      <trkpt lat="43.58197" lon="2.9647">
        <ele>319.3</ele>
        <time>2026-05-07T13:59:20.000Z</time>
      </trkpt>
      <trkpt lat="43.58196" lon="2.96473">
        <ele>319.8</ele>
        <time>2026-05-07T13:59:21.000Z</time>
      </trkpt>
      <trkpt lat="43.58195" lon="2.96475">
        <ele>319</ele>
        <time>2026-05-07T13:59:22.000Z</time>
      </trkpt>
      <trkpt lat="43.58194" lon="2.96476">
        <ele>319.2</ele>
        <time>2026-05-07T13:59:23.000Z</time>
      </trkpt>
      <trkpt lat="43.58193" lon="2.96476">
        <ele>319.1</ele>
        <time>2026-05-07T13:59:24.000Z</time>
      </trkpt>
      <trkpt lat="43.58193" lon="2.96478">
        <ele>318.6</ele>
        <time>2026-05-07T13:59:25.000Z</time>
      </trkpt>
      <trkpt lat="43.58192" lon="2.96479">
        <ele>318.7</ele>
        <time>2026-05-07T13:59:26.000Z</time>
      </trkpt>
      <trkpt lat="43.58192" lon="2.9648">
        <ele>318.8</ele>
        <time>2026-05-07T13:59:27.000Z</time>
      </trkpt>
      <trkpt lat="43.5819" lon="2.9648">
        <ele>318.8</ele>
        <time>2026-05-07T13:59:28.000Z</time>
      </trkpt>
      <trkpt lat="43.58189" lon="2.96481">
        <ele>319.3</ele>
        <time>2026-05-07T13:59:29.000Z</time>
      </trkpt>
      <trkpt lat="43.58186" lon="2.96479">
        <ele>319.9</ele>
        <time>2026-05-07T13:59:31.000Z</time>
      </trkpt>
      <trkpt lat="43.58185" lon="2.96478">
        <ele>320.4</ele>
        <time>2026-05-07T13:59:32.000Z</time>
      </trkpt>
      <trkpt lat="43.58183" lon="2.96476">
        <ele>320.6</ele>
        <time>2026-05-07T13:59:33.000Z</time>
      </trkpt>
      <trkpt lat="43.58181" lon="2.96475">
        <ele>320.5</ele>
        <time>2026-05-07T13:59:34.000Z</time>
      </trkpt>
      <trkpt lat="43.5818" lon="2.96474">
        <ele>319.7</ele>
        <time>2026-05-07T13:59:35.000Z</time>
      </trkpt>
      <trkpt lat="43.58178" lon="2.96473">
        <ele>319.3</ele>
        <time>2026-05-07T13:59:36.000Z</time>
      </trkpt>
      <trkpt lat="43.58176" lon="2.96472">
        <ele>319.2</ele>
        <time>2026-05-07T13:59:37.000Z</time>
      </trkpt>
      <trkpt lat="43.58175" lon="2.9647">
        <ele>319.3</ele>
        <time>2026-05-07T13:59:38.000Z</time>
      </trkpt>
      <trkpt lat="43.58174" lon="2.96469">
        <ele>319.9</ele>
        <time>2026-05-07T13:59:39.000Z</time>
      </trkpt>
      <trkpt lat="43.58173" lon="2.96468">
        <ele>319.9</ele>
        <time>2026-05-07T13:59:40.000Z</time>
      </trkpt>
      <trkpt lat="43.58172" lon="2.96467">
        <ele>320</ele>
        <time>2026-05-07T13:59:41.000Z</time>
      </trkpt>
      <trkpt lat="43.58171" lon="2.96467">
        <ele>320.6</ele>
        <time>2026-05-07T13:59:42.000Z</time>
      </trkpt>
      <trkpt lat="43.5817" lon="2.96466">
        <ele>320.9</ele>
        <time>2026-05-07T13:59:43.000Z</time>
      </trkpt>
      <trkpt lat="43.58169" lon="2.96465">
        <ele>321</ele>
        <time>2026-05-07T13:59:44.000Z</time>
      </trkpt>
      <trkpt lat="43.58168" lon="2.96464">
        <ele>320.2</ele>
        <time>2026-05-07T13:59:45.000Z</time>
      </trkpt>
      <trkpt lat="43.58166" lon="2.96464">
        <ele>320.3</ele>
        <time>2026-05-07T13:59:46.000Z</time>
      </trkpt>
      <trkpt lat="43.58165" lon="2.96464">
        <ele>320.5</ele>
        <time>2026-05-07T13:59:47.000Z</time>
      </trkpt>
      <trkpt lat="43.58164" lon="2.96463">
        <ele>320.7</ele>
        <time>2026-05-07T13:59:48.000Z</time>
      </trkpt>
      <trkpt lat="43.58163" lon="2.96463">
        <ele>320.5</ele>
        <time>2026-05-07T13:59:49.000Z</time>
      </trkpt>
      <trkpt lat="43.58161" lon="2.96463">
        <ele>320.8</ele>
        <time>2026-05-07T13:59:51.000Z</time>
      </trkpt>
      <trkpt lat="43.5816" lon="2.96464">
        <ele>321.1</ele>
        <time>2026-05-07T13:59:52.000Z</time>
      </trkpt>
      <trkpt lat="43.58159" lon="2.96464">
        <ele>321.4</ele>
        <time>2026-05-07T13:59:53.000Z</time>
      </trkpt>
      <trkpt lat="43.58157" lon="2.96465">
        <ele>321.3</ele>
        <time>2026-05-07T13:59:54.000Z</time>
      </trkpt>
      <trkpt lat="43.58155" lon="2.96465">
        <ele>321.4</ele>
        <time>2026-05-07T13:59:55.000Z</time>
      </trkpt>
      <trkpt lat="43.58154" lon="2.96467">
        <ele>321.3</ele>
        <time>2026-05-07T13:59:56.000Z</time>
      </trkpt>
      <trkpt lat="43.58153" lon="2.96469">
        <ele>321</ele>
        <time>2026-05-07T13:59:57.000Z</time>
      </trkpt>
      <trkpt lat="43.58152" lon="2.96471">
        <ele>320.8</ele>
        <time>2026-05-07T13:59:58.000Z</time>
      </trkpt>
      <trkpt lat="43.5815" lon="2.9647">
        <ele>321.2</ele>
        <time>2026-05-07T13:59:59.000Z</time>
      </trkpt>
      <trkpt lat="43.58148" lon="2.96469">
        <ele>321.3</ele>
        <time>2026-05-07T14:00:00.000Z</time>
      </trkpt>
      <trkpt lat="43.58146" lon="2.96469">
        <ele>320.7</ele>
        <time>2026-05-07T14:00:01.000Z</time>
      </trkpt>
      <trkpt lat="43.58145" lon="2.9647">
        <ele>320.3</ele>
        <time>2026-05-07T14:00:02.000Z</time>
      </trkpt>
      <trkpt lat="43.58143" lon="2.96469">
        <ele>320.3</ele>
        <time>2026-05-07T14:00:03.000Z</time>
      </trkpt>
      <trkpt lat="43.58142" lon="2.96468">
        <ele>320.1</ele>
        <time>2026-05-07T14:00:04.000Z</time>
      </trkpt>
      <trkpt lat="43.58139" lon="2.96466">
        <ele>320.3</ele>
        <time>2026-05-07T14:00:05.000Z</time>
      </trkpt>
      <trkpt lat="43.58137" lon="2.96467">
        <ele>320.6</ele>
        <time>2026-05-07T14:00:06.000Z</time>
      </trkpt>
      <trkpt lat="43.58137" lon="2.96469">
        <ele>320.9</ele>
        <time>2026-05-07T14:00:07.000Z</time>
      </trkpt>
      <trkpt lat="43.58136" lon="2.96472">
        <ele>320.6</ele>
        <time>2026-05-07T14:00:08.000Z</time>
      </trkpt>
      <trkpt lat="43.58136" lon="2.96474">
        <ele>320.7</ele>
        <time>2026-05-07T14:00:09.000Z</time>
      </trkpt>
      <trkpt lat="43.58135" lon="2.96475">
        <ele>320.5</ele>
        <time>2026-05-07T14:00:10.000Z</time>
      </trkpt>
      <trkpt lat="43.58134" lon="2.96477">
        <ele>320.6</ele>
        <time>2026-05-07T14:00:11.000Z</time>
      </trkpt>
      <trkpt lat="43.58133" lon="2.96479">
        <ele>320.1</ele>
        <time>2026-05-07T14:00:12.000Z</time>
      </trkpt>
      <trkpt lat="43.58133" lon="2.96481">
        <ele>319.2</ele>
        <time>2026-05-07T14:00:13.000Z</time>
      </trkpt>
      <trkpt lat="43.58132" lon="2.96482">
        <ele>319.3</ele>
        <time>2026-05-07T14:00:14.000Z</time>
      </trkpt>
      <trkpt lat="43.58131" lon="2.96483">
        <ele>318.7</ele>
        <time>2026-05-07T14:00:15.000Z</time>
      </trkpt>
      <trkpt lat="43.58131" lon="2.96485">
        <ele>316.6</ele>
        <time>2026-05-07T14:00:16.000Z</time>
      </trkpt>
      <trkpt lat="43.58131" lon="2.96486">
        <ele>316</ele>
        <time>2026-05-07T14:00:17.000Z</time>
      </trkpt>
      <trkpt lat="43.5813" lon="2.96486">
        <ele>317.7</ele>
        <time>2026-05-07T14:00:18.000Z</time>
      </trkpt>
      <trkpt lat="43.58129" lon="2.96487">
        <ele>317.4</ele>
        <time>2026-05-07T14:00:19.000Z</time>
      </trkpt>
      <trkpt lat="43.58129" lon="2.96488">
        <ele>317.3</ele>
        <time>2026-05-07T14:00:20.000Z</time>
      </trkpt>
      <trkpt lat="43.58128" lon="2.96489">
        <ele>317.4</ele>
        <time>2026-05-07T14:00:21.000Z</time>
      </trkpt>
      <trkpt lat="43.58127" lon="2.96489">
        <ele>317.3</ele>
        <time>2026-05-07T14:00:22.000Z</time>
      </trkpt>
      <trkpt lat="43.58127" lon="2.9649">
        <ele>317</ele>
        <time>2026-05-07T14:00:23.000Z</time>
      </trkpt>
      <trkpt lat="43.58125" lon="2.96491">
        <ele>317.5</ele>
        <time>2026-05-07T14:00:24.000Z</time>
      </trkpt>
      <trkpt lat="43.58125" lon="2.9649">
        <ele>317.9</ele>
        <time>2026-05-07T14:00:25.000Z</time>
      </trkpt>
      <trkpt lat="43.58125" lon="2.9649">
        <ele>317.2</ele>
        <time>2026-05-07T14:00:26.000Z</time>
      </trkpt>
      <trkpt lat="43.58124" lon="2.96491">
        <ele>317.5</ele>
        <time>2026-05-07T14:00:27.000Z</time>
      </trkpt>
      <trkpt lat="43.58123" lon="2.96492">
        <ele>317.8</ele>
        <time>2026-05-07T14:00:28.000Z</time>
      </trkpt>
      <trkpt lat="43.58122" lon="2.96493">
        <ele>317.9</ele>
        <time>2026-05-07T14:00:29.000Z</time>
      </trkpt>
      <trkpt lat="43.58122" lon="2.96495">
        <ele>317.8</ele>
        <time>2026-05-07T14:00:30.000Z</time>
      </trkpt>
      <trkpt lat="43.58122" lon="2.96496">
        <ele>318.3</ele>
        <time>2026-05-07T14:00:31.000Z</time>
      </trkpt>
      <trkpt lat="43.58121" lon="2.96498">
        <ele>318.2</ele>
        <time>2026-05-07T14:00:32.000Z</time>
      </trkpt>
      <trkpt lat="43.5812" lon="2.96498">
        <ele>318.2</ele>
        <time>2026-05-07T14:00:33.000Z</time>
      </trkpt>
      <trkpt lat="43.58119" lon="2.96501">
        <ele>318</ele>
        <time>2026-05-07T14:00:34.000Z</time>
      </trkpt>
      <trkpt lat="43.58117" lon="2.96503">
        <ele>317.5</ele>
        <time>2026-05-07T14:00:35.000Z</time>
      </trkpt>
      <trkpt lat="43.58116" lon="2.96504">
        <ele>317.5</ele>
        <time>2026-05-07T14:00:36.000Z</time>
      </trkpt>
      <trkpt lat="43.58114" lon="2.96505">
        <ele>317.4</ele>
        <time>2026-05-07T14:00:37.000Z</time>
      </trkpt>
      <trkpt lat="43.58113" lon="2.96507">
        <ele>317.3</ele>
        <time>2026-05-07T14:00:38.000Z</time>
      </trkpt>
      <trkpt lat="43.58112" lon="2.96509">
        <ele>317.1</ele>
        <time>2026-05-07T14:00:39.000Z</time>
      </trkpt>
      <trkpt lat="43.58111" lon="2.9651">
        <ele>316.8</ele>
        <time>2026-05-07T14:00:40.000Z</time>
      </trkpt>
      <trkpt lat="43.5811" lon="2.96511">
        <ele>316.8</ele>
        <time>2026-05-07T14:00:41.000Z</time>
      </trkpt>
      <trkpt lat="43.58109" lon="2.96511">
        <ele>316.9</ele>
        <time>2026-05-07T14:00:42.000Z</time>
      </trkpt>
      <trkpt lat="43.58108" lon="2.96511">
        <ele>316.9</ele>
        <time>2026-05-07T14:00:43.000Z</time>
      </trkpt>
      <trkpt lat="43.58108" lon="2.96511">
        <ele>316.9</ele>
        <time>2026-05-07T14:00:44.000Z</time>
      </trkpt>
      <trkpt lat="43.58107" lon="2.96512">
        <ele>317.1</ele>
        <time>2026-05-07T14:00:45.000Z</time>
      </trkpt>
      <trkpt lat="43.58106" lon="2.96511">
        <ele>317.1</ele>
        <time>2026-05-07T14:00:46.000Z</time>
      </trkpt>
      <trkpt lat="43.58105" lon="2.96511">
        <ele>317.1</ele>
        <time>2026-05-07T14:00:47.000Z</time>
      </trkpt>
      <trkpt lat="43.58105" lon="2.96511">
        <ele>316.8</ele>
        <time>2026-05-07T14:00:48.000Z</time>
      </trkpt>
      <trkpt lat="43.58104" lon="2.96512">
        <ele>316.5</ele>
        <time>2026-05-07T14:00:49.000Z</time>
      </trkpt>
      <trkpt lat="43.58103" lon="2.96512">
        <ele>316.6</ele>
        <time>2026-05-07T14:00:50.000Z</time>
      </trkpt>
      <trkpt lat="43.58103" lon="2.96514">
        <ele>316.6</ele>
        <time>2026-05-07T14:00:51.000Z</time>
      </trkpt>
      <trkpt lat="43.58101" lon="2.96514">
        <ele>316.6</ele>
        <time>2026-05-07T14:00:52.000Z</time>
      </trkpt>
      <trkpt lat="43.581" lon="2.96514">
        <ele>316.4</ele>
        <time>2026-05-07T14:00:53.000Z</time>
      </trkpt>
      <trkpt lat="43.58098" lon="2.96516">
        <ele>315.9</ele>
        <time>2026-05-07T14:00:54.000Z</time>
      </trkpt>
      <trkpt lat="43.58097" lon="2.96516">
        <ele>315.7</ele>
        <time>2026-05-07T14:00:55.000Z</time>
      </trkpt>
      <trkpt lat="43.58096" lon="2.96516">
        <ele>315.3</ele>
        <time>2026-05-07T14:00:56.000Z</time>
      </trkpt>
      <trkpt lat="43.58094" lon="2.96516">
        <ele>315.6</ele>
        <time>2026-05-07T14:00:57.000Z</time>
      </trkpt>
      <trkpt lat="43.58093" lon="2.96517">
        <ele>316.1</ele>
        <time>2026-05-07T14:00:58.000Z</time>
      </trkpt>
      <trkpt lat="43.58093" lon="2.96518">
        <ele>315.5</ele>
        <time>2026-05-07T14:00:59.000Z</time>
      </trkpt>
      <trkpt lat="43.58092" lon="2.96518">
        <ele>315.3</ele>
        <time>2026-05-07T14:01:00.000Z</time>
      </trkpt>
      <trkpt lat="43.58091" lon="2.96519">
        <ele>314.7</ele>
        <time>2026-05-07T14:01:01.000Z</time>
      </trkpt>
      <trkpt lat="43.5809" lon="2.96519">
        <ele>314.3</ele>
        <time>2026-05-07T14:01:02.000Z</time>
      </trkpt>
      <trkpt lat="43.58088" lon="2.9652">
        <ele>314.5</ele>
        <time>2026-05-07T14:01:03.000Z</time>
      </trkpt>
      <trkpt lat="43.58086" lon="2.9652">
        <ele>314.3</ele>
        <time>2026-05-07T14:01:04.000Z</time>
      </trkpt>
      <trkpt lat="43.58084" lon="2.96519">
        <ele>314.1</ele>
        <time>2026-05-07T14:01:05.000Z</time>
      </trkpt>
      <trkpt lat="43.58083" lon="2.96519">
        <ele>313.8</ele>
        <time>2026-05-07T14:01:06.000Z</time>
      </trkpt>
      <trkpt lat="43.58083" lon="2.96519">
        <ele>313.4</ele>
        <time>2026-05-07T14:01:07.000Z</time>
      </trkpt>
      <trkpt lat="43.58081" lon="2.96519">
        <ele>313.1</ele>
        <time>2026-05-07T14:01:08.000Z</time>
      </trkpt>
      <trkpt lat="43.5808" lon="2.96517">
        <ele>313.3</ele>
        <time>2026-05-07T14:01:09.000Z</time>
      </trkpt>
      <trkpt lat="43.58079" lon="2.96517">
        <ele>313.2</ele>
        <time>2026-05-07T14:01:10.000Z</time>
      </trkpt>
      <trkpt lat="43.58077" lon="2.96518">
        <ele>313</ele>
        <time>2026-05-07T14:01:11.000Z</time>
      </trkpt>
      <trkpt lat="43.58076" lon="2.96517">
        <ele>313.4</ele>
        <time>2026-05-07T14:01:12.000Z</time>
      </trkpt>
      <trkpt lat="43.58075" lon="2.96517">
        <ele>312.9</ele>
        <time>2026-05-07T14:01:13.000Z</time>
      </trkpt>
      <trkpt lat="43.58074" lon="2.96517">
        <ele>312.8</ele>
        <time>2026-05-07T14:01:14.000Z</time>
      </trkpt>
      <trkpt lat="43.58073" lon="2.96516">
        <ele>312.9</ele>
        <time>2026-05-07T14:01:15.000Z</time>
      </trkpt>
      <trkpt lat="43.58072" lon="2.96516">
        <ele>313.1</ele>
        <time>2026-05-07T14:01:16.000Z</time>
      </trkpt>
      <trkpt lat="43.58071" lon="2.96516">
        <ele>312.7</ele>
        <time>2026-05-07T14:01:17.000Z</time>
      </trkpt>
      <trkpt lat="43.5807" lon="2.96517">
        <ele>312.5</ele>
        <time>2026-05-07T14:01:18.000Z</time>
      </trkpt>
      <trkpt lat="43.58068" lon="2.96516">
        <ele>313</ele>
        <time>2026-05-07T14:01:19.000Z</time>
      </trkpt>
      <trkpt lat="43.58068" lon="2.96516">
        <ele>312.1</ele>
        <time>2026-05-07T14:01:20.000Z</time>
      </trkpt>
      <trkpt lat="43.58067" lon="2.96517">
        <ele>311.5</ele>
        <time>2026-05-07T14:01:21.000Z</time>
      </trkpt>
      <trkpt lat="43.58067" lon="2.96516">
        <ele>311</ele>
        <time>2026-05-07T14:01:22.000Z</time>
      </trkpt>
      <trkpt lat="43.58066" lon="2.96516">
        <ele>311.3</ele>
        <time>2026-05-07T14:01:23.000Z</time>
      </trkpt>
      <trkpt lat="43.58065" lon="2.96514">
        <ele>311.8</ele>
        <time>2026-05-07T14:01:24.000Z</time>
      </trkpt>
      <trkpt lat="43.58064" lon="2.96513">
        <ele>312.1</ele>
        <time>2026-05-07T14:01:25.000Z</time>
      </trkpt>
      <trkpt lat="43.58063" lon="2.96512">
        <ele>312.4</ele>
        <time>2026-05-07T14:01:26.000Z</time>
      </trkpt>
      <trkpt lat="43.58062" lon="2.96512">
        <ele>311.6</ele>
        <time>2026-05-07T14:01:27.000Z</time>
      </trkpt>
      <trkpt lat="43.58061" lon="2.96512">
        <ele>310.9</ele>
        <time>2026-05-07T14:01:28.000Z</time>
      </trkpt>
      <trkpt lat="43.5806" lon="2.96511">
        <ele>311</ele>
        <time>2026-05-07T14:01:29.000Z</time>
      </trkpt>
      <trkpt lat="43.58058" lon="2.9651">
        <ele>310.8</ele>
        <time>2026-05-07T14:01:30.000Z</time>
      </trkpt>
      <trkpt lat="43.58057" lon="2.96509">
        <ele>310.3</ele>
        <time>2026-05-07T14:01:31.000Z</time>
      </trkpt>
      <trkpt lat="43.58056" lon="2.96506">
        <ele>311.1</ele>
        <time>2026-05-07T14:01:32.000Z</time>
      </trkpt>
      <trkpt lat="43.58054" lon="2.96505">
        <ele>311.4</ele>
        <time>2026-05-07T14:01:33.000Z</time>
      </trkpt>
      <trkpt lat="43.58053" lon="2.96503">
        <ele>310.9</ele>
        <time>2026-05-07T14:01:34.000Z</time>
      </trkpt>
      <trkpt lat="43.58052" lon="2.96502">
        <ele>310.4</ele>
        <time>2026-05-07T14:01:35.000Z</time>
      </trkpt>
      <trkpt lat="43.5805" lon="2.96502">
        <ele>310.2</ele>
        <time>2026-05-07T14:01:36.000Z</time>
      </trkpt>
      <trkpt lat="43.5805" lon="2.96501">
        <ele>309.2</ele>
        <time>2026-05-07T14:01:37.000Z</time>
      </trkpt>
      <trkpt lat="43.58049" lon="2.96501">
        <ele>308.3</ele>
        <time>2026-05-07T14:01:38.000Z</time>
      </trkpt>
      <trkpt lat="43.58049" lon="2.965">
        <ele>307.3</ele>
        <time>2026-05-07T14:01:39.000Z</time>
      </trkpt>
      <trkpt lat="43.58048" lon="2.96499">
        <ele>307</ele>
        <time>2026-05-07T14:01:40.000Z</time>
      </trkpt>
      <trkpt lat="43.58048" lon="2.96498">
        <ele>306.9</ele>
        <time>2026-05-07T14:01:41.000Z</time>
      </trkpt>
      <trkpt lat="43.58047" lon="2.96497">
        <ele>306.7</ele>
        <time>2026-05-07T14:01:42.000Z</time>
      </trkpt>
      <trkpt lat="43.58046" lon="2.96496">
        <ele>307</ele>
        <time>2026-05-07T14:01:43.000Z</time>
      </trkpt>
      <trkpt lat="43.58045" lon="2.96496">
        <ele>307.6</ele>
        <time>2026-05-07T14:01:44.000Z</time>
      </trkpt>
      <trkpt lat="43.58043" lon="2.96496">
        <ele>307.4</ele>
        <time>2026-05-07T14:01:45.000Z</time>
      </trkpt>
      <trkpt lat="43.58042" lon="2.96495">
        <ele>307.4</ele>
        <time>2026-05-07T14:01:46.000Z</time>
      </trkpt>
      <trkpt lat="43.5804" lon="2.96493">
        <ele>308.3</ele>
        <time>2026-05-07T14:01:47.000Z</time>
      </trkpt>
      <trkpt lat="43.58039" lon="2.96492">
        <ele>308.7</ele>
        <time>2026-05-07T14:01:48.000Z</time>
      </trkpt>
      <trkpt lat="43.58038" lon="2.96492">
        <ele>308.6</ele>
        <time>2026-05-07T14:01:49.000Z</time>
      </trkpt>
      <trkpt lat="43.58037" lon="2.96491">
        <ele>309.1</ele>
        <time>2026-05-07T14:01:50.000Z</time>
      </trkpt>
      <trkpt lat="43.58037" lon="2.9649">
        <ele>309.5</ele>
        <time>2026-05-07T14:01:51.000Z</time>
      </trkpt>
      <trkpt lat="43.58036" lon="2.9649">
        <ele>309</ele>
        <time>2026-05-07T14:01:52.000Z</time>
      </trkpt>
      <trkpt lat="43.58035" lon="2.96489">
        <ele>308.8</ele>
        <time>2026-05-07T14:01:53.000Z</time>
      </trkpt>
      <trkpt lat="43.58034" lon="2.9649">
        <ele>308.4</ele>
        <time>2026-05-07T14:01:54.000Z</time>
      </trkpt>
      <trkpt lat="43.58033" lon="2.96489">
        <ele>307.9</ele>
        <time>2026-05-07T14:01:55.000Z</time>
      </trkpt>
      <trkpt lat="43.58032" lon="2.96488">
        <ele>308</ele>
        <time>2026-05-07T14:01:56.000Z</time>
      </trkpt>
      <trkpt lat="43.58032" lon="2.96488">
        <ele>307</ele>
        <time>2026-05-07T14:01:57.000Z</time>
      </trkpt>
      <trkpt lat="43.58031" lon="2.96487">
        <ele>306</ele>
        <time>2026-05-07T14:01:58.000Z</time>
      </trkpt>
      <trkpt lat="43.58031" lon="2.96485">
        <ele>305.7</ele>
        <time>2026-05-07T14:01:59.000Z</time>
      </trkpt>
      <trkpt lat="43.5803" lon="2.96485">
        <ele>305.2</ele>
        <time>2026-05-07T14:02:00.000Z</time>
      </trkpt>
      <trkpt lat="43.58029" lon="2.96485">
        <ele>304.8</ele>
        <time>2026-05-07T14:02:01.000Z</time>
      </trkpt>
      <trkpt lat="43.58028" lon="2.96484">
        <ele>304.8</ele>
        <time>2026-05-07T14:02:02.000Z</time>
      </trkpt>
      <trkpt lat="43.58028" lon="2.96483">
        <ele>304</ele>
        <time>2026-05-07T14:02:03.000Z</time>
      </trkpt>
      <trkpt lat="43.58027" lon="2.96483">
        <ele>302.7</ele>
        <time>2026-05-07T14:02:04.000Z</time>
      </trkpt>
      <trkpt lat="43.58027" lon="2.96482">
        <ele>301.8</ele>
        <time>2026-05-07T14:02:05.000Z</time>
      </trkpt>
      <trkpt lat="43.58025" lon="2.96482">
        <ele>301.6</ele>
        <time>2026-05-07T14:02:06.000Z</time>
      </trkpt>
      <trkpt lat="43.58024" lon="2.96481">
        <ele>301.3</ele>
        <time>2026-05-07T14:02:07.000Z</time>
      </trkpt>
      <trkpt lat="43.58023" lon="2.96481">
        <ele>301.2</ele>
        <time>2026-05-07T14:02:08.000Z</time>
      </trkpt>
      <trkpt lat="43.58021" lon="2.96481">
        <ele>301.6</ele>
        <time>2026-05-07T14:02:09.000Z</time>
      </trkpt>
      <trkpt lat="43.5802" lon="2.9648">
        <ele>301.4</ele>
        <time>2026-05-07T14:02:10.000Z</time>
      </trkpt>
      <trkpt lat="43.5802" lon="2.96479">
        <ele>300.7</ele>
        <time>2026-05-07T14:02:11.000Z</time>
      </trkpt>
      <trkpt lat="43.58019" lon="2.96479">
        <ele>300.6</ele>
        <time>2026-05-07T14:02:12.000Z</time>
      </trkpt>
      <trkpt lat="43.58018" lon="2.96479">
        <ele>300.9</ele>
        <time>2026-05-07T14:02:13.000Z</time>
      </trkpt>
      <trkpt lat="43.58017" lon="2.96478">
        <ele>301</ele>
        <time>2026-05-07T14:02:14.000Z</time>
      </trkpt>
      <trkpt lat="43.58016" lon="2.96478">
        <ele>301.1</ele>
        <time>2026-05-07T14:02:15.000Z</time>
      </trkpt>
      <trkpt lat="43.58015" lon="2.96476">
        <ele>301.3</ele>
        <time>2026-05-07T14:02:16.000Z</time>
      </trkpt>
      <trkpt lat="43.58014" lon="2.96476">
        <ele>301.3</ele>
        <time>2026-05-07T14:02:17.000Z</time>
      </trkpt>
      <trkpt lat="43.58013" lon="2.96475">
        <ele>301.6</ele>
        <time>2026-05-07T14:02:18.000Z</time>
      </trkpt>
      <trkpt lat="43.58011" lon="2.96473">
        <ele>301.8</ele>
        <time>2026-05-07T14:02:19.000Z</time>
      </trkpt>
      <trkpt lat="43.5801" lon="2.96473">
        <ele>302</ele>
        <time>2026-05-07T14:02:20.000Z</time>
      </trkpt>
      <trkpt lat="43.58009" lon="2.96472">
        <ele>301.7</ele>
        <time>2026-05-07T14:02:21.000Z</time>
      </trkpt>
      <trkpt lat="43.58007" lon="2.9647">
        <ele>301.7</ele>
        <time>2026-05-07T14:02:22.000Z</time>
      </trkpt>
      <trkpt lat="43.58006" lon="2.96469">
        <ele>301.9</ele>
        <time>2026-05-07T14:02:23.000Z</time>
      </trkpt>
      <trkpt lat="43.58004" lon="2.96469">
        <ele>301.6</ele>
        <time>2026-05-07T14:02:24.000Z</time>
      </trkpt>
      <trkpt lat="43.58003" lon="2.96469">
        <ele>301.9</ele>
        <time>2026-05-07T14:02:25.000Z</time>
      </trkpt>
      <trkpt lat="43.58002" lon="2.96469">
        <ele>301.7</ele>
        <time>2026-05-07T14:02:26.000Z</time>
      </trkpt>
      <trkpt lat="43.58001" lon="2.96469">
        <ele>301.2</ele>
        <time>2026-05-07T14:02:27.000Z</time>
      </trkpt>
      <trkpt lat="43.58" lon="2.96469">
        <ele>301.4</ele>
        <time>2026-05-07T14:02:28.000Z</time>
      </trkpt>
      <trkpt lat="43.57998" lon="2.96468">
        <ele>301.4</ele>
        <time>2026-05-07T14:02:29.000Z</time>
      </trkpt>
      <trkpt lat="43.57997" lon="2.96469">
        <ele>301.4</ele>
        <time>2026-05-07T14:02:30.000Z</time>
      </trkpt>
      <trkpt lat="43.57995" lon="2.9647">
        <ele>301.6</ele>
        <time>2026-05-07T14:02:31.000Z</time>
      </trkpt>
      <trkpt lat="43.57993" lon="2.96469">
        <ele>301.5</ele>
        <time>2026-05-07T14:02:32.000Z</time>
      </trkpt>
      <trkpt lat="43.57992" lon="2.96469">
        <ele>301.2</ele>
        <time>2026-05-07T14:02:33.000Z</time>
      </trkpt>
      <trkpt lat="43.57991" lon="2.96469">
        <ele>301.1</ele>
        <time>2026-05-07T14:02:34.000Z</time>
      </trkpt>
      <trkpt lat="43.5799" lon="2.9647">
        <ele>301</ele>
        <time>2026-05-07T14:02:35.000Z</time>
      </trkpt>
      <trkpt lat="43.57988" lon="2.96471">
        <ele>300.9</ele>
        <time>2026-05-07T14:02:36.000Z</time>
      </trkpt>
      <trkpt lat="43.57988" lon="2.96474">
        <ele>300.8</ele>
        <time>2026-05-07T14:02:37.000Z</time>
      </trkpt>
      <trkpt lat="43.57987" lon="2.96475">
        <ele>300.9</ele>
        <time>2026-05-07T14:02:38.000Z</time>
      </trkpt>
      <trkpt lat="43.57986" lon="2.96474">
        <ele>300.7</ele>
        <time>2026-05-07T14:02:39.000Z</time>
      </trkpt>
      <trkpt lat="43.57985" lon="2.96475">
        <ele>300</ele>
        <time>2026-05-07T14:02:40.000Z</time>
      </trkpt>
      <trkpt lat="43.57984" lon="2.96475">
        <ele>298</ele>
        <time>2026-05-07T14:02:41.000Z</time>
      </trkpt>
      <trkpt lat="43.57983" lon="2.96474">
        <ele>297.9</ele>
        <time>2026-05-07T14:02:42.000Z</time>
      </trkpt>
      <trkpt lat="43.57982" lon="2.96474">
        <ele>297.4</ele>
        <time>2026-05-07T14:02:43.000Z</time>
      </trkpt>
      <trkpt lat="43.57981" lon="2.96474">
        <ele>297.2</ele>
        <time>2026-05-07T14:02:44.000Z</time>
      </trkpt>
      <trkpt lat="43.5798" lon="2.96473">
        <ele>296.7</ele>
        <time>2026-05-07T14:02:45.000Z</time>
      </trkpt>
      <trkpt lat="43.57977" lon="2.96472">
        <ele>296.6</ele>
        <time>2026-05-07T14:02:46.000Z</time>
      </trkpt>
      <trkpt lat="43.57975" lon="2.96471">
        <ele>296</ele>
        <time>2026-05-07T14:02:47.000Z</time>
      </trkpt>
      <trkpt lat="43.57973" lon="2.96468">
        <ele>295.9</ele>
        <time>2026-05-07T14:02:48.000Z</time>
      </trkpt>
      <trkpt lat="43.57971" lon="2.96468">
        <ele>295.5</ele>
        <time>2026-05-07T14:02:49.000Z</time>
      </trkpt>
      <trkpt lat="43.57969" lon="2.96468">
        <ele>295.4</ele>
        <time>2026-05-07T14:02:50.000Z</time>
      </trkpt>
      <trkpt lat="43.57969" lon="2.96469">
        <ele>294.1</ele>
        <time>2026-05-07T14:02:51.000Z</time>
      </trkpt>
      <trkpt lat="43.57968" lon="2.9647">
        <ele>294.7</ele>
        <time>2026-05-07T14:02:52.000Z</time>
      </trkpt>
      <trkpt lat="43.57966" lon="2.9647">
        <ele>295.5</ele>
        <time>2026-05-07T14:02:53.000Z</time>
      </trkpt>
      <trkpt lat="43.57964" lon="2.96467">
        <ele>296.2</ele>
        <time>2026-05-07T14:02:54.000Z</time>
      </trkpt>
      <trkpt lat="43.57962" lon="2.96464">
        <ele>296.9</ele>
        <time>2026-05-07T14:02:55.000Z</time>
      </trkpt>
      <trkpt lat="43.5796" lon="2.96463">
        <ele>297.3</ele>
        <time>2026-05-07T14:02:56.000Z</time>
      </trkpt>
      <trkpt lat="43.57959" lon="2.96465">
        <ele>297.1</ele>
        <time>2026-05-07T14:02:57.000Z</time>
      </trkpt>
      <trkpt lat="43.57957" lon="2.96466">
        <ele>296.6</ele>
        <time>2026-05-07T14:02:58.000Z</time>
      </trkpt>
      <trkpt lat="43.57955" lon="2.96465">
        <ele>296.6</ele>
        <time>2026-05-07T14:02:59.000Z</time>
      </trkpt>
      <trkpt lat="43.57953" lon="2.96465">
        <ele>295.9</ele>
        <time>2026-05-07T14:03:00.000Z</time>
      </trkpt>
      <trkpt lat="43.57952" lon="2.96463">
        <ele>296</ele>
        <time>2026-05-07T14:03:01.000Z</time>
      </trkpt>
      <trkpt lat="43.5795" lon="2.96463">
        <ele>296.5</ele>
        <time>2026-05-07T14:03:02.000Z</time>
      </trkpt>
      <trkpt lat="43.57948" lon="2.96463">
        <ele>296.9</ele>
        <time>2026-05-07T14:03:03.000Z</time>
      </trkpt>
      <trkpt lat="43.57946" lon="2.96462">
        <ele>297.1</ele>
        <time>2026-05-07T14:03:04.000Z</time>
      </trkpt>
      <trkpt lat="43.57946" lon="2.96465">
        <ele>296.3</ele>
        <time>2026-05-07T14:03:05.000Z</time>
      </trkpt>
      <trkpt lat="43.57945" lon="2.96465">
        <ele>295.7</ele>
        <time>2026-05-07T14:03:06.000Z</time>
      </trkpt>
      <trkpt lat="43.57944" lon="2.96466">
        <ele>295.4</ele>
        <time>2026-05-07T14:03:07.000Z</time>
      </trkpt>
      <trkpt lat="43.57943" lon="2.96467">
        <ele>294.2</ele>
        <time>2026-05-07T14:03:08.000Z</time>
      </trkpt>
      <trkpt lat="43.57941" lon="2.96467">
        <ele>293.3</ele>
        <time>2026-05-07T14:03:09.000Z</time>
      </trkpt>
      <trkpt lat="43.5794" lon="2.96468">
        <ele>292.9</ele>
        <time>2026-05-07T14:03:10.000Z</time>
      </trkpt>
      <trkpt lat="43.57939" lon="2.96468">
        <ele>292</ele>
        <time>2026-05-07T14:03:11.000Z</time>
      </trkpt>
      <trkpt lat="43.57938" lon="2.96468">
        <ele>291.2</ele>
        <time>2026-05-07T14:03:12.000Z</time>
      </trkpt>
      <trkpt lat="43.57937" lon="2.96469">
        <ele>290.5</ele>
        <time>2026-05-07T14:03:13.000Z</time>
      </trkpt>
      <trkpt lat="43.57936" lon="2.9647">
        <ele>289.9</ele>
        <time>2026-05-07T14:03:14.000Z</time>
      </trkpt>
      <trkpt lat="43.57934" lon="2.9647">
        <ele>289.8</ele>
        <time>2026-05-07T14:03:15.000Z</time>
      </trkpt>
      <trkpt lat="43.57933" lon="2.96473">
        <ele>289.1</ele>
        <time>2026-05-07T14:03:16.000Z</time>
      </trkpt>
      <trkpt lat="43.57932" lon="2.96475">
        <ele>288.7</ele>
        <time>2026-05-07T14:03:17.000Z</time>
      </trkpt>
      <trkpt lat="43.57931" lon="2.96477">
        <ele>288.8</ele>
        <time>2026-05-07T14:03:18.000Z</time>
      </trkpt>
      <trkpt lat="43.5793" lon="2.96478">
        <ele>287.8</ele>
        <time>2026-05-07T14:03:19.000Z</time>
      </trkpt>
      <trkpt lat="43.5793" lon="2.9648">
        <ele>288.1</ele>
        <time>2026-05-07T14:03:20.000Z</time>
      </trkpt>
      <trkpt lat="43.5793" lon="2.96481">
        <ele>288.5</ele>
        <time>2026-05-07T14:03:21.000Z</time>
      </trkpt>
      <trkpt lat="43.5793" lon="2.96482">
        <ele>288.5</ele>
        <time>2026-05-07T14:03:22.000Z</time>
      </trkpt>
      <trkpt lat="43.5793" lon="2.96483">
        <ele>288.1</ele>
        <time>2026-05-07T14:03:23.000Z</time>
      </trkpt>
      <trkpt lat="43.57929" lon="2.96484">
        <ele>288.2</ele>
        <time>2026-05-07T14:03:24.000Z</time>
      </trkpt>
      <trkpt lat="43.57928" lon="2.96485">
        <ele>288</ele>
        <time>2026-05-07T14:03:25.000Z</time>
      </trkpt>
      <trkpt lat="43.57928" lon="2.96486">
        <ele>288</ele>
        <time>2026-05-07T14:03:26.000Z</time>
      </trkpt>
      <trkpt lat="43.57927" lon="2.96488">
        <ele>288.6</ele>
        <time>2026-05-07T14:03:27.000Z</time>
      </trkpt>
      <trkpt lat="43.57926" lon="2.9649">
        <ele>289</ele>
        <time>2026-05-07T14:03:28.000Z</time>
      </trkpt>
      <trkpt lat="43.57926" lon="2.96492">
        <ele>289.4</ele>
        <time>2026-05-07T14:03:29.000Z</time>
      </trkpt>
      <trkpt lat="43.57926" lon="2.96495">
        <ele>290.2</ele>
        <time>2026-05-07T14:03:30.000Z</time>
      </trkpt>
      <trkpt lat="43.57927" lon="2.96496">
        <ele>290.5</ele>
        <time>2026-05-07T14:03:31.000Z</time>
      </trkpt>
      <trkpt lat="43.57926" lon="2.96498">
        <ele>290.7</ele>
        <time>2026-05-07T14:03:32.000Z</time>
      </trkpt>
      <trkpt lat="43.57926" lon="2.96499">
        <ele>290.5</ele>
        <time>2026-05-07T14:03:33.000Z</time>
      </trkpt>
      <trkpt lat="43.57926" lon="2.96501">
        <ele>290.4</ele>
        <time>2026-05-07T14:03:34.000Z</time>
      </trkpt>
      <trkpt lat="43.57924" lon="2.96504">
        <ele>291.2</ele>
        <time>2026-05-07T14:03:35.000Z</time>
      </trkpt>
      <trkpt lat="43.57924" lon="2.96507">
        <ele>291.6</ele>
        <time>2026-05-07T14:03:36.000Z</time>
      </trkpt>
      <trkpt lat="43.57923" lon="2.96509">
        <ele>292.3</ele>
        <time>2026-05-07T14:03:37.000Z</time>
      </trkpt>
      <trkpt lat="43.57922" lon="2.96511">
        <ele>292.4</ele>
        <time>2026-05-07T14:03:38.000Z</time>
      </trkpt>
      <trkpt lat="43.57922" lon="2.96512">
        <ele>292.5</ele>
        <time>2026-05-07T14:03:39.000Z</time>
      </trkpt>
      <trkpt lat="43.57922" lon="2.96513">
        <ele>291.9</ele>
        <time>2026-05-07T14:03:40.000Z</time>
      </trkpt>
      <trkpt lat="43.57922" lon="2.96514">
        <ele>291.7</ele>
        <time>2026-05-07T14:03:41.000Z</time>
      </trkpt>
      <trkpt lat="43.57921" lon="2.96515">
        <ele>291.3</ele>
        <time>2026-05-07T14:03:42.000Z</time>
      </trkpt>
      <trkpt lat="43.5792" lon="2.96516">
        <ele>291.5</ele>
        <time>2026-05-07T14:03:43.000Z</time>
      </trkpt>
      <trkpt lat="43.57918" lon="2.96517">
        <ele>291.8</ele>
        <time>2026-05-07T14:03:44.000Z</time>
      </trkpt>
      <trkpt lat="43.57917" lon="2.96519">
        <ele>292.5</ele>
        <time>2026-05-07T14:03:45.000Z</time>
      </trkpt>
      <trkpt lat="43.57915" lon="2.96521">
        <ele>292.6</ele>
        <time>2026-05-07T14:03:46.000Z</time>
      </trkpt>
      <trkpt lat="43.57914" lon="2.96523">
        <ele>292.6</ele>
        <time>2026-05-07T14:03:47.000Z</time>
      </trkpt>
      <trkpt lat="43.57912" lon="2.96525">
        <ele>292</ele>
        <time>2026-05-07T14:03:48.000Z</time>
      </trkpt>
      <trkpt lat="43.57911" lon="2.96526">
        <ele>292.1</ele>
        <time>2026-05-07T14:03:49.000Z</time>
      </trkpt>
      <trkpt lat="43.5791" lon="2.96526">
        <ele>291.9</ele>
        <time>2026-05-07T14:03:50.000Z</time>
      </trkpt>
      <trkpt lat="43.57908" lon="2.96526">
        <ele>291.6</ele>
        <time>2026-05-07T14:03:51.000Z</time>
      </trkpt>
      <trkpt lat="43.57907" lon="2.96527">
        <ele>292.1</ele>
        <time>2026-05-07T14:03:52.000Z</time>
      </trkpt>
      <trkpt lat="43.57906" lon="2.96527">
        <ele>291.5</ele>
        <time>2026-05-07T14:03:53.000Z</time>
      </trkpt>
      <trkpt lat="43.57906" lon="2.96528">
        <ele>290.1</ele>
        <time>2026-05-07T14:03:54.000Z</time>
      </trkpt>
      <trkpt lat="43.57905" lon="2.96529">
        <ele>289.6</ele>
        <time>2026-05-07T14:03:55.000Z</time>
      </trkpt>
      <trkpt lat="43.57904" lon="2.9653">
        <ele>289.8</ele>
        <time>2026-05-07T14:03:56.000Z</time>
      </trkpt>
      <trkpt lat="43.57903" lon="2.9653">
        <ele>289.5</ele>
        <time>2026-05-07T14:03:57.000Z</time>
      </trkpt>
      <trkpt lat="43.57902" lon="2.9653">
        <ele>289.3</ele>
        <time>2026-05-07T14:03:58.000Z</time>
      </trkpt>
      <trkpt lat="43.57903" lon="2.96533">
        <ele>288.7</ele>
        <time>2026-05-07T14:03:59.000Z</time>
      </trkpt>
      <trkpt lat="43.57901" lon="2.96533">
        <ele>288.5</ele>
        <time>2026-05-07T14:04:00.000Z</time>
      </trkpt>
      <trkpt lat="43.57901" lon="2.96535">
        <ele>288.2</ele>
        <time>2026-05-07T14:04:01.000Z</time>
      </trkpt>
      <trkpt lat="43.57901" lon="2.96536">
        <ele>288.3</ele>
        <time>2026-05-07T14:04:02.000Z</time>
      </trkpt>
      <trkpt lat="43.57901" lon="2.96538">
        <ele>288.4</ele>
        <time>2026-05-07T14:04:03.000Z</time>
      </trkpt>
      <trkpt lat="43.579" lon="2.9654">
        <ele>288.6</ele>
        <time>2026-05-07T14:04:04.000Z</time>
      </trkpt>
      <trkpt lat="43.579" lon="2.96542">
        <ele>288.4</ele>
        <time>2026-05-07T14:04:05.000Z</time>
      </trkpt>
      <trkpt lat="43.57899" lon="2.96544">
        <ele>287.7</ele>
        <time>2026-05-07T14:04:06.000Z</time>
      </trkpt>
      <trkpt lat="43.57897" lon="2.96545">
        <ele>287.2</ele>
        <time>2026-05-07T14:04:07.000Z</time>
      </trkpt>
      <trkpt lat="43.57897" lon="2.96545">
        <ele>287.2</ele>
        <time>2026-05-07T14:04:08.000Z</time>
      </trkpt>
      <trkpt lat="43.57896" lon="2.96547">
        <ele>287.6</ele>
        <time>2026-05-07T14:04:09.000Z</time>
      </trkpt>
      <trkpt lat="43.57895" lon="2.96548">
        <ele>287.6</ele>
        <time>2026-05-07T14:04:10.000Z</time>
      </trkpt>
      <trkpt lat="43.57895" lon="2.9655">
        <ele>287.4</ele>
        <time>2026-05-07T14:04:11.000Z</time>
      </trkpt>
      <trkpt lat="43.57894" lon="2.96552">
        <ele>287.2</ele>
        <time>2026-05-07T14:04:12.000Z</time>
      </trkpt>
      <trkpt lat="43.57893" lon="2.96554">
        <ele>286.9</ele>
        <time>2026-05-07T14:04:13.000Z</time>
      </trkpt>
      <trkpt lat="43.57892" lon="2.96556">
        <ele>286.8</ele>
        <time>2026-05-07T14:04:14.000Z</time>
      </trkpt>
      <trkpt lat="43.57892" lon="2.96558">
        <ele>286.7</ele>
        <time>2026-05-07T14:04:15.000Z</time>
      </trkpt>
      <trkpt lat="43.57891" lon="2.9656">
        <ele>286.5</ele>
        <time>2026-05-07T14:04:16.000Z</time>
      </trkpt>
      <trkpt lat="43.57891" lon="2.96562">
        <ele>286.4</ele>
        <time>2026-05-07T14:04:17.000Z</time>
      </trkpt>
      <trkpt lat="43.5789" lon="2.96563">
        <ele>286.2</ele>
        <time>2026-05-07T14:04:18.000Z</time>
      </trkpt>
      <trkpt lat="43.5789" lon="2.96564">
        <ele>286.6</ele>
        <time>2026-05-07T14:04:19.000Z</time>
      </trkpt>
      <trkpt lat="43.57889" lon="2.96566">
        <ele>286.6</ele>
        <time>2026-05-07T14:04:20.000Z</time>
      </trkpt>
      <trkpt lat="43.57889" lon="2.96566">
        <ele>285.8</ele>
        <time>2026-05-07T14:04:21.000Z</time>
      </trkpt>
      <trkpt lat="43.57889" lon="2.96567">
        <ele>285.4</ele>
        <time>2026-05-07T14:04:22.000Z</time>
      </trkpt>
      <trkpt lat="43.57889" lon="2.96568">
        <ele>285</ele>
        <time>2026-05-07T14:04:23.000Z</time>
      </trkpt>
      <trkpt lat="43.57888" lon="2.96571">
        <ele>285.1</ele>
        <time>2026-05-07T14:04:24.000Z</time>
      </trkpt>
      <trkpt lat="43.57888" lon="2.96573">
        <ele>284.9</ele>
        <time>2026-05-07T14:04:25.000Z</time>
      </trkpt>
      <trkpt lat="43.57888" lon="2.96574">
        <ele>284.7</ele>
        <time>2026-05-07T14:04:26.000Z</time>
      </trkpt>
      <trkpt lat="43.57888" lon="2.96576">
        <ele>284.3</ele>
        <time>2026-05-07T14:04:27.000Z</time>
      </trkpt>
      <trkpt lat="43.57887" lon="2.96577">
        <ele>284.1</ele>
        <time>2026-05-07T14:04:28.000Z</time>
      </trkpt>
      <trkpt lat="43.57887" lon="2.96579">
        <ele>283.9</ele>
        <time>2026-05-07T14:04:29.000Z</time>
      </trkpt>
      <trkpt lat="43.57886" lon="2.9658">
        <ele>284.2</ele>
        <time>2026-05-07T14:04:30.000Z</time>
      </trkpt>
      <trkpt lat="43.57885" lon="2.96581">
        <ele>284</ele>
        <time>2026-05-07T14:04:31.000Z</time>
      </trkpt>
      <trkpt lat="43.57884" lon="2.96583">
        <ele>283.7</ele>
        <time>2026-05-07T14:04:32.000Z</time>
      </trkpt>
      <trkpt lat="43.57883" lon="2.96585">
        <ele>283.7</ele>
        <time>2026-05-07T14:04:33.000Z</time>
      </trkpt>
      <trkpt lat="43.57882" lon="2.96586">
        <ele>283.9</ele>
        <time>2026-05-07T14:04:34.000Z</time>
      </trkpt>
      <trkpt lat="43.57882" lon="2.96587">
        <ele>283.7</ele>
        <time>2026-05-07T14:04:35.000Z</time>
      </trkpt>
      <trkpt lat="43.57881" lon="2.96586">
        <ele>284</ele>
        <time>2026-05-07T14:04:36.000Z</time>
      </trkpt>
      <trkpt lat="43.5788" lon="2.96586">
        <ele>284.1</ele>
        <time>2026-05-07T14:04:37.000Z</time>
      </trkpt>
      <trkpt lat="43.57877" lon="2.96588">
        <ele>284</ele>
        <time>2026-05-07T14:04:38.999Z</time>
      </trkpt>
      <trkpt lat="43.57876" lon="2.96588">
        <ele>283.8</ele>
        <time>2026-05-07T14:04:39.999Z</time>
      </trkpt>
      <trkpt lat="43.57875" lon="2.96588">
        <ele>283</ele>
        <time>2026-05-07T14:04:40.999Z</time>
      </trkpt>
      <trkpt lat="43.57874" lon="2.96588">
        <ele>282.9</ele>
        <time>2026-05-07T14:04:41.999Z</time>
      </trkpt>
      <trkpt lat="43.57873" lon="2.96589">
        <ele>282.5</ele>
        <time>2026-05-07T14:04:42.999Z</time>
      </trkpt>
      <trkpt lat="43.57873" lon="2.9659">
        <ele>282.3</ele>
        <time>2026-05-07T14:04:43.999Z</time>
      </trkpt>
      <trkpt lat="43.57871" lon="2.96591">
        <ele>282.4</ele>
        <time>2026-05-07T14:04:44.999Z</time>
      </trkpt>
      <trkpt lat="43.57869" lon="2.96593">
        <ele>282.6</ele>
        <time>2026-05-07T14:04:45.999Z</time>
      </trkpt>
      <trkpt lat="43.57868" lon="2.96594">
        <ele>282.4</ele>
        <time>2026-05-07T14:04:46.999Z</time>
      </trkpt>
      <trkpt lat="43.57866" lon="2.96595">
        <ele>282</ele>
        <time>2026-05-07T14:04:47.999Z</time>
      </trkpt>
      <trkpt lat="43.57865" lon="2.96596">
        <ele>282</ele>
        <time>2026-05-07T14:04:48.999Z</time>
      </trkpt>
      <trkpt lat="43.57863" lon="2.96597">
        <ele>281.9</ele>
        <time>2026-05-07T14:04:49.999Z</time>
      </trkpt>
      <trkpt lat="43.57862" lon="2.96597">
        <ele>281</ele>
        <time>2026-05-07T14:04:50.999Z</time>
      </trkpt>
      <trkpt lat="43.57861" lon="2.96597">
        <ele>280.9</ele>
        <time>2026-05-07T14:04:51.999Z</time>
      </trkpt>
      <trkpt lat="43.5786" lon="2.96596">
        <ele>281.1</ele>
        <time>2026-05-07T14:04:52.999Z</time>
      </trkpt>
      <trkpt lat="43.57859" lon="2.96595">
        <ele>281.7</ele>
        <time>2026-05-07T14:04:53.999Z</time>
      </trkpt>
      <trkpt lat="43.57857" lon="2.96595">
        <ele>282</ele>
        <time>2026-05-07T14:04:54.999Z</time>
      </trkpt>
      <trkpt lat="43.57855" lon="2.96596">
        <ele>282</ele>
        <time>2026-05-07T14:04:55.999Z</time>
      </trkpt>
      <trkpt lat="43.57854" lon="2.96597">
        <ele>281.8</ele>
        <time>2026-05-07T14:04:56.999Z</time>
      </trkpt>
      <trkpt lat="43.57853" lon="2.96597">
        <ele>281.3</ele>
        <time>2026-05-07T14:04:57.999Z</time>
      </trkpt>
      <trkpt lat="43.57851" lon="2.96596">
        <ele>282.1</ele>
        <time>2026-05-07T14:04:58.999Z</time>
      </trkpt>
      <trkpt lat="43.5785" lon="2.96596">
        <ele>282.4</ele>
        <time>2026-05-07T14:04:59.999Z</time>
      </trkpt>
      <trkpt lat="43.57849" lon="2.96597">
        <ele>282.1</ele>
        <time>2026-05-07T14:05:00.999Z</time>
      </trkpt>
      <trkpt lat="43.57848" lon="2.96597">
        <ele>281.7</ele>
        <time>2026-05-07T14:05:01.999Z</time>
      </trkpt>
      <trkpt lat="43.57848" lon="2.96597">
        <ele>281.6</ele>
        <time>2026-05-07T14:05:02.999Z</time>
      </trkpt>
      <trkpt lat="43.57847" lon="2.96599">
        <ele>281.4</ele>
        <time>2026-05-07T14:05:03.999Z</time>
      </trkpt>
      <trkpt lat="43.57846" lon="2.966">
        <ele>281.3</ele>
        <time>2026-05-07T14:05:04.999Z</time>
      </trkpt>
      <trkpt lat="43.57844" lon="2.96602">
        <ele>281.3</ele>
        <time>2026-05-07T14:05:05.999Z</time>
      </trkpt>
      <trkpt lat="43.57843" lon="2.96603">
        <ele>281</ele>
        <time>2026-05-07T14:05:06.999Z</time>
      </trkpt>
      <trkpt lat="43.57842" lon="2.96603">
        <ele>281.3</ele>
        <time>2026-05-07T14:05:07.999Z</time>
      </trkpt>
      <trkpt lat="43.57841" lon="2.96604">
        <ele>280.8</ele>
        <time>2026-05-07T14:05:08.999Z</time>
      </trkpt>
      <trkpt lat="43.5784" lon="2.96605">
        <ele>279.9</ele>
        <time>2026-05-07T14:05:09.999Z</time>
      </trkpt>
      <trkpt lat="43.57839" lon="2.96606">
        <ele>279.5</ele>
        <time>2026-05-07T14:05:10.999Z</time>
      </trkpt>
      <trkpt lat="43.57839" lon="2.96606">
        <ele>279.7</ele>
        <time>2026-05-07T14:05:11.999Z</time>
      </trkpt>
      <trkpt lat="43.57838" lon="2.96607">
        <ele>279.8</ele>
        <time>2026-05-07T14:05:12.999Z</time>
      </trkpt>
      <trkpt lat="43.57836" lon="2.96607">
        <ele>280.1</ele>
        <time>2026-05-07T14:05:13.999Z</time>
      </trkpt>
      <trkpt lat="43.57834" lon="2.96609">
        <ele>280.2</ele>
        <time>2026-05-07T14:05:14.999Z</time>
      </trkpt>
      <trkpt lat="43.57833" lon="2.9661">
        <ele>279.6</ele>
        <time>2026-05-07T14:05:15.999Z</time>
      </trkpt>
      <trkpt lat="43.57832" lon="2.9661">
        <ele>278.7</ele>
        <time>2026-05-07T14:05:16.999Z</time>
      </trkpt>
      <trkpt lat="43.57831" lon="2.9661">
        <ele>278.2</ele>
        <time>2026-05-07T14:05:17.999Z</time>
      </trkpt>
      <trkpt lat="43.5783" lon="2.9661">
        <ele>278.1</ele>
        <time>2026-05-07T14:05:18.999Z</time>
      </trkpt>
      <trkpt lat="43.57829" lon="2.96609">
        <ele>278</ele>
        <time>2026-05-07T14:05:19.999Z</time>
      </trkpt>
      <trkpt lat="43.57827" lon="2.96609">
        <ele>278.3</ele>
        <time>2026-05-07T14:05:20.999Z</time>
      </trkpt>
      <trkpt lat="43.57826" lon="2.96609">
        <ele>278.6</ele>
        <time>2026-05-07T14:05:21.999Z</time>
      </trkpt>
      <trkpt lat="43.57824" lon="2.96611">
        <ele>278.6</ele>
        <time>2026-05-07T14:05:22.999Z</time>
      </trkpt>
      <trkpt lat="43.57823" lon="2.96613">
        <ele>278.6</ele>
        <time>2026-05-07T14:05:23.999Z</time>
      </trkpt>
      <trkpt lat="43.57821" lon="2.96615">
        <ele>278.3</ele>
        <time>2026-05-07T14:05:24.999Z</time>
      </trkpt>
      <trkpt lat="43.5782" lon="2.96615">
        <ele>278.3</ele>
        <time>2026-05-07T14:05:25.999Z</time>
      </trkpt>
      <trkpt lat="43.57819" lon="2.96615">
        <ele>278.2</ele>
        <time>2026-05-07T14:05:26.999Z</time>
      </trkpt>
      <trkpt lat="43.57818" lon="2.96615">
        <ele>277.8</ele>
        <time>2026-05-07T14:05:27.999Z</time>
      </trkpt>
      <trkpt lat="43.57818" lon="2.96615">
        <ele>277.6</ele>
        <time>2026-05-07T14:05:28.999Z</time>
      </trkpt>
      <trkpt lat="43.57817" lon="2.96617">
        <ele>277.4</ele>
        <time>2026-05-07T14:05:29.999Z</time>
      </trkpt>
      <trkpt lat="43.57816" lon="2.96618">
        <ele>277.1</ele>
        <time>2026-05-07T14:05:30.999Z</time>
      </trkpt>
      <trkpt lat="43.57815" lon="2.96619">
        <ele>277</ele>
        <time>2026-05-07T14:05:31.999Z</time>
      </trkpt>
      <trkpt lat="43.57815" lon="2.96621">
        <ele>277.1</ele>
        <time>2026-05-07T14:05:32.999Z</time>
      </trkpt>
      <trkpt lat="43.57814" lon="2.96622">
        <ele>277.3</ele>
        <time>2026-05-07T14:05:33.999Z</time>
      </trkpt>
      <trkpt lat="43.57813" lon="2.96622">
        <ele>277.8</ele>
        <time>2026-05-07T14:05:34.999Z</time>
      </trkpt>
      <trkpt lat="43.57812" lon="2.96621">
        <ele>277.8</ele>
        <time>2026-05-07T14:05:35.999Z</time>
      </trkpt>
      <trkpt lat="43.57812" lon="2.9662">
        <ele>277.1</ele>
        <time>2026-05-07T14:05:36.999Z</time>
      </trkpt>
      <trkpt lat="43.57811" lon="2.96619">
        <ele>277.6</ele>
        <time>2026-05-07T14:05:37.999Z</time>
      </trkpt>
      <trkpt lat="43.5781" lon="2.96618">
        <ele>277.8</ele>
        <time>2026-05-07T14:05:38.999Z</time>
      </trkpt>
      <trkpt lat="43.57809" lon="2.96617">
        <ele>277.9</ele>
        <time>2026-05-07T14:05:39.999Z</time>
      </trkpt>
      <trkpt lat="43.57808" lon="2.96617">
        <ele>279</ele>
        <time>2026-05-07T14:05:40.999Z</time>
      </trkpt>
      <trkpt lat="43.57806" lon="2.96618">
        <ele>279.8</ele>
        <time>2026-05-07T14:05:41.999Z</time>
      </trkpt>
      <trkpt lat="43.57804" lon="2.96619">
        <ele>280.2</ele>
        <time>2026-05-07T14:05:42.999Z</time>
      </trkpt>
      <trkpt lat="43.57801" lon="2.96619">
        <ele>280.4</ele>
        <time>2026-05-07T14:05:43.999Z</time>
      </trkpt>
      <trkpt lat="43.578" lon="2.96619">
        <ele>280.4</ele>
        <time>2026-05-07T14:05:44.999Z</time>
      </trkpt>
      <trkpt lat="43.57799" lon="2.96619">
        <ele>280.1</ele>
        <time>2026-05-07T14:05:45.999Z</time>
      </trkpt>
      <trkpt lat="43.57799" lon="2.96619">
        <ele>279.1</ele>
        <time>2026-05-07T14:05:46.999Z</time>
      </trkpt>
      <trkpt lat="43.57798" lon="2.96619">
        <ele>278.7</ele>
        <time>2026-05-07T14:05:47.999Z</time>
      </trkpt>
      <trkpt lat="43.57797" lon="2.9662">
        <ele>278.1</ele>
        <time>2026-05-07T14:05:48.999Z</time>
      </trkpt>
      <trkpt lat="43.57795" lon="2.9662">
        <ele>277.9</ele>
        <time>2026-05-07T14:05:49.999Z</time>
      </trkpt>
      <trkpt lat="43.57794" lon="2.96621">
        <ele>278.3</ele>
        <time>2026-05-07T14:05:50.999Z</time>
      </trkpt>
      <trkpt lat="43.57791" lon="2.96621">
        <ele>279</ele>
        <time>2026-05-07T14:05:51.999Z</time>
      </trkpt>
      <trkpt lat="43.5779" lon="2.96621">
        <ele>278.5</ele>
        <time>2026-05-07T14:05:52.999Z</time>
      </trkpt>
      <trkpt lat="43.57789" lon="2.96621">
        <ele>278.4</ele>
        <time>2026-05-07T14:05:53.999Z</time>
      </trkpt>
      <trkpt lat="43.57789" lon="2.96621">
        <ele>277.9</ele>
        <time>2026-05-07T14:05:54.999Z</time>
      </trkpt>
      <trkpt lat="43.57788" lon="2.9662">
        <ele>277.8</ele>
        <time>2026-05-07T14:05:55.999Z</time>
      </trkpt>
      <trkpt lat="43.57787" lon="2.9662">
        <ele>277.3</ele>
        <time>2026-05-07T14:05:56.999Z</time>
      </trkpt>
      <trkpt lat="43.57787" lon="2.9662">
        <ele>276.8</ele>
        <time>2026-05-07T14:05:57.999Z</time>
      </trkpt>
      <trkpt lat="43.57786" lon="2.96619">
        <ele>276.8</ele>
        <time>2026-05-07T14:05:58.999Z</time>
      </trkpt>
      <trkpt lat="43.57784" lon="2.96619">
        <ele>276.7</ele>
        <time>2026-05-07T14:05:59.999Z</time>
      </trkpt>
      <trkpt lat="43.57783" lon="2.96618">
        <ele>276.5</ele>
        <time>2026-05-07T14:06:00.999Z</time>
      </trkpt>
      <trkpt lat="43.57781" lon="2.96618">
        <ele>276.3</ele>
        <time>2026-05-07T14:06:01.999Z</time>
      </trkpt>
      <trkpt lat="43.57779" lon="2.96618">
        <ele>276.3</ele>
        <time>2026-05-07T14:06:02.999Z</time>
      </trkpt>
      <trkpt lat="43.57779" lon="2.96617">
        <ele>276.3</ele>
        <time>2026-05-07T14:06:03.999Z</time>
      </trkpt>
      <trkpt lat="43.57778" lon="2.96617">
        <ele>276.2</ele>
        <time>2026-05-07T14:06:04.999Z</time>
      </trkpt>
      <trkpt lat="43.57777" lon="2.96617">
        <ele>275.8</ele>
        <time>2026-05-07T14:06:05.999Z</time>
      </trkpt>
      <trkpt lat="43.57777" lon="2.96616">
        <ele>275</ele>
        <time>2026-05-07T14:06:06.999Z</time>
      </trkpt>
      <trkpt lat="43.57776" lon="2.96616">
        <ele>274.8</ele>
        <time>2026-05-07T14:06:07.999Z</time>
      </trkpt>
      <trkpt lat="43.57775" lon="2.96615">
        <ele>274.6</ele>
        <time>2026-05-07T14:06:08.999Z</time>
      </trkpt>
      <trkpt lat="43.57772" lon="2.96615">
        <ele>275.1</ele>
        <time>2026-05-07T14:06:09.999Z</time>
      </trkpt>
      <trkpt lat="43.57771" lon="2.96614">
        <ele>275.3</ele>
        <time>2026-05-07T14:06:10.999Z</time>
      </trkpt>
      <trkpt lat="43.57769" lon="2.96613">
        <ele>275.5</ele>
        <time>2026-05-07T14:06:11.999Z</time>
      </trkpt>
      <trkpt lat="43.57768" lon="2.96613">
        <ele>274.7</ele>
        <time>2026-05-07T14:06:12.999Z</time>
      </trkpt>
      <trkpt lat="43.57767" lon="2.96611">
        <ele>274.1</ele>
        <time>2026-05-07T14:06:13.999Z</time>
      </trkpt>
      <trkpt lat="43.57767" lon="2.9661">
        <ele>273.6</ele>
        <time>2026-05-07T14:06:14.999Z</time>
      </trkpt>
      <trkpt lat="43.57766" lon="2.96609">
        <ele>273.4</ele>
        <time>2026-05-07T14:06:15.999Z</time>
      </trkpt>
      <trkpt lat="43.57765" lon="2.96607">
        <ele>273.5</ele>
        <time>2026-05-07T14:06:16.999Z</time>
      </trkpt>
      <trkpt lat="43.57763" lon="2.96606">
        <ele>273.7</ele>
        <time>2026-05-07T14:06:17.999Z</time>
      </trkpt>
      <trkpt lat="43.57762" lon="2.96605">
        <ele>273.5</ele>
        <time>2026-05-07T14:06:18.999Z</time>
      </trkpt>
      <trkpt lat="43.5776" lon="2.96606">
        <ele>273.4</ele>
        <time>2026-05-07T14:06:19.999Z</time>
      </trkpt>
      <trkpt lat="43.57759" lon="2.96605">
        <ele>272.9</ele>
        <time>2026-05-07T14:06:20.999Z</time>
      </trkpt>
      <trkpt lat="43.57759" lon="2.96604">
        <ele>272.3</ele>
        <time>2026-05-07T14:06:21.999Z</time>
      </trkpt>
      <trkpt lat="43.57759" lon="2.96604">
        <ele>272.2</ele>
        <time>2026-05-07T14:06:22.999Z</time>
      </trkpt>
      <trkpt lat="43.57759" lon="2.96604">
        <ele>271.2</ele>
        <time>2026-05-07T14:06:23.999Z</time>
      </trkpt>
      <trkpt lat="43.57758" lon="2.96603">
        <ele>270</ele>
        <time>2026-05-07T14:06:24.999Z</time>
      </trkpt>
      <trkpt lat="43.57756" lon="2.96602">
        <ele>269.2</ele>
        <time>2026-05-07T14:06:25.999Z</time>
      </trkpt>
      <trkpt lat="43.57754" lon="2.96601">
        <ele>268.9</ele>
        <time>2026-05-07T14:06:26.999Z</time>
      </trkpt>
      <trkpt lat="43.57753" lon="2.96601">
        <ele>269</ele>
        <time>2026-05-07T14:06:27.999Z</time>
      </trkpt>
      <trkpt lat="43.57753" lon="2.966">
        <ele>268.5</ele>
        <time>2026-05-07T14:06:28.999Z</time>
      </trkpt>
      <trkpt lat="43.57752" lon="2.96599">
        <ele>267.8</ele>
        <time>2026-05-07T14:06:29.999Z</time>
      </trkpt>
      <trkpt lat="43.57751" lon="2.96597">
        <ele>267.2</ele>
        <time>2026-05-07T14:06:30.999Z</time>
      </trkpt>
      <trkpt lat="43.5775" lon="2.96596">
        <ele>267.4</ele>
        <time>2026-05-07T14:06:31.999Z</time>
      </trkpt>
      <trkpt lat="43.57749" lon="2.96596">
        <ele>266.7</ele>
        <time>2026-05-07T14:06:32.999Z</time>
      </trkpt>
      <trkpt lat="43.57748" lon="2.96595">
        <ele>266.2</ele>
        <time>2026-05-07T14:06:33.999Z</time>
      </trkpt>
      <trkpt lat="43.57746" lon="2.96594">
        <ele>265.4</ele>
        <time>2026-05-07T14:06:34.999Z</time>
      </trkpt>
      <trkpt lat="43.57745" lon="2.96593">
        <ele>265.3</ele>
        <time>2026-05-07T14:06:35.999Z</time>
      </trkpt>
      <trkpt lat="43.57744" lon="2.96592">
        <ele>264.8</ele>
        <time>2026-05-07T14:06:36.999Z</time>
      </trkpt>
      <trkpt lat="43.57744" lon="2.96591">
        <ele>263.9</ele>
        <time>2026-05-07T14:06:37.999Z</time>
      </trkpt>
      <trkpt lat="43.57743" lon="2.96591">
        <ele>264.1</ele>
        <time>2026-05-07T14:06:38.999Z</time>
      </trkpt>
      <trkpt lat="43.57743" lon="2.9659">
        <ele>263.9</ele>
        <time>2026-05-07T14:06:39.999Z</time>
      </trkpt>
      <trkpt lat="43.57742" lon="2.96588">
        <ele>264</ele>
        <time>2026-05-07T14:06:40.999Z</time>
      </trkpt>
      <trkpt lat="43.57741" lon="2.96586">
        <ele>264.5</ele>
        <time>2026-05-07T14:06:41.999Z</time>
      </trkpt>
      <trkpt lat="43.5774" lon="2.96586">
        <ele>265</ele>
        <time>2026-05-07T14:06:42.999Z</time>
      </trkpt>
      <trkpt lat="43.57738" lon="2.96586">
        <ele>265.5</ele>
        <time>2026-05-07T14:06:43.999Z</time>
      </trkpt>
      <trkpt lat="43.57736" lon="2.96585">
        <ele>265.5</ele>
        <time>2026-05-07T14:06:44.999Z</time>
      </trkpt>
      <trkpt lat="43.57735" lon="2.96583">
        <ele>265.9</ele>
        <time>2026-05-07T14:06:45.999Z</time>
      </trkpt>
      <trkpt lat="43.57733" lon="2.96582">
        <ele>265.8</ele>
        <time>2026-05-07T14:06:46.999Z</time>
      </trkpt>
      <trkpt lat="43.57732" lon="2.96581">
        <ele>265.2</ele>
        <time>2026-05-07T14:06:47.999Z</time>
      </trkpt>
      <trkpt lat="43.57732" lon="2.96579">
        <ele>264.1</ele>
        <time>2026-05-07T14:06:48.999Z</time>
      </trkpt>
      <trkpt lat="43.5773" lon="2.96577">
        <ele>264.2</ele>
        <time>2026-05-07T14:06:49.999Z</time>
      </trkpt>
      <trkpt lat="43.57729" lon="2.96576">
        <ele>263.7</ele>
        <time>2026-05-07T14:06:50.999Z</time>
      </trkpt>
      <trkpt lat="43.57728" lon="2.96575">
        <ele>263.8</ele>
        <time>2026-05-07T14:06:51.999Z</time>
      </trkpt>
      <trkpt lat="43.57727" lon="2.96574">
        <ele>263.1</ele>
        <time>2026-05-07T14:06:52.999Z</time>
      </trkpt>
      <trkpt lat="43.57729" lon="2.96569">
        <ele>261.8</ele>
        <time>2026-05-07T14:06:53.999Z</time>
      </trkpt>
      <trkpt lat="43.5773" lon="2.96566">
        <ele>260.6</ele>
        <time>2026-05-07T14:06:54.999Z</time>
      </trkpt>
      <trkpt lat="43.5773" lon="2.96565">
        <ele>260.3</ele>
        <time>2026-05-07T14:06:55.999Z</time>
      </trkpt>
      <trkpt lat="43.57731" lon="2.96563">
        <ele>259.6</ele>
        <time>2026-05-07T14:06:56.999Z</time>
      </trkpt>
      <trkpt lat="43.57731" lon="2.96561">
        <ele>259</ele>
        <time>2026-05-07T14:06:57.999Z</time>
      </trkpt>
      <trkpt lat="43.57731" lon="2.96561">
        <ele>259.2</ele>
        <time>2026-05-07T14:06:58.999Z</time>
      </trkpt>
      <trkpt lat="43.57731" lon="2.9656">
        <ele>258.8</ele>
        <time>2026-05-07T14:06:59.999Z</time>
      </trkpt>
      <trkpt lat="43.57731" lon="2.96559">
        <ele>259.1</ele>
        <time>2026-05-07T14:07:00.999Z</time>
      </trkpt>
      <trkpt lat="43.57731" lon="2.96558">
        <ele>259.2</ele>
        <time>2026-05-07T14:07:01.999Z</time>
      </trkpt>
      <trkpt lat="43.57732" lon="2.96556">
        <ele>259</ele>
        <time>2026-05-07T14:07:02.999Z</time>
      </trkpt>
      <trkpt lat="43.57732" lon="2.96552">
        <ele>259.5</ele>
        <time>2026-05-07T14:07:03.999Z</time>
      </trkpt>
      <trkpt lat="43.57731" lon="2.96549">
        <ele>260</ele>
        <time>2026-05-07T14:07:04.999Z</time>
      </trkpt>
      <trkpt lat="43.57731" lon="2.96547">
        <ele>260.1</ele>
        <time>2026-05-07T14:07:05.999Z</time>
      </trkpt>
      <trkpt lat="43.5773" lon="2.96546">
        <ele>260.8</ele>
        <time>2026-05-07T14:07:06.999Z</time>
      </trkpt>
      <trkpt lat="43.5773" lon="2.96545">
        <ele>261.1</ele>
        <time>2026-05-07T14:07:07.999Z</time>
      </trkpt>
      <trkpt lat="43.5773" lon="2.96545">
        <ele>261.2</ele>
        <time>2026-05-07T14:07:08.999Z</time>
      </trkpt>
      <trkpt lat="43.57729" lon="2.96544">
        <ele>261.7</ele>
        <time>2026-05-07T14:07:09.999Z</time>
      </trkpt>
      <trkpt lat="43.57727" lon="2.96542">
        <ele>262.4</ele>
        <time>2026-05-07T14:07:10.999Z</time>
      </trkpt>
      <trkpt lat="43.57725" lon="2.96541">
        <ele>262.4</ele>
        <time>2026-05-07T14:07:11.999Z</time>
      </trkpt>
      <trkpt lat="43.57724" lon="2.96539">
        <ele>262.1</ele>
        <time>2026-05-07T14:07:12.999Z</time>
      </trkpt>
      <trkpt lat="43.57723" lon="2.96538">
        <ele>261.4</ele>
        <time>2026-05-07T14:07:13.999Z</time>
      </trkpt>
      <trkpt lat="43.57722" lon="2.96538">
        <ele>260.6</ele>
        <time>2026-05-07T14:07:14.999Z</time>
      </trkpt>
      <trkpt lat="43.57721" lon="2.96537">
        <ele>260.4</ele>
        <time>2026-05-07T14:07:15.999Z</time>
      </trkpt>
      <trkpt lat="43.57719" lon="2.96537">
        <ele>260.1</ele>
        <time>2026-05-07T14:07:16.999Z</time>
      </trkpt>
      <trkpt lat="43.57718" lon="2.96535">
        <ele>261</ele>
        <time>2026-05-07T14:07:17.999Z</time>
      </trkpt>
      <trkpt lat="43.57716" lon="2.96534">
        <ele>261.7</ele>
        <time>2026-05-07T14:07:18.999Z</time>
      </trkpt>
      <trkpt lat="43.57715" lon="2.96533">
        <ele>261.9</ele>
        <time>2026-05-07T14:07:19.999Z</time>
      </trkpt>
      <trkpt lat="43.57713" lon="2.96533">
        <ele>261.6</ele>
        <time>2026-05-07T14:07:20.999Z</time>
      </trkpt>
      <trkpt lat="43.57712" lon="2.96533">
        <ele>262</ele>
        <time>2026-05-07T14:07:21.999Z</time>
      </trkpt>
      <trkpt lat="43.57711" lon="2.96532">
        <ele>262.1</ele>
        <time>2026-05-07T14:07:22.999Z</time>
      </trkpt>
      <trkpt lat="43.57709" lon="2.96532">
        <ele>262.3</ele>
        <time>2026-05-07T14:07:23.999Z</time>
      </trkpt>
      <trkpt lat="43.57707" lon="2.96533">
        <ele>261.6</ele>
        <time>2026-05-07T14:07:24.999Z</time>
      </trkpt>
      <trkpt lat="43.57706" lon="2.96534">
        <ele>261.7</ele>
        <time>2026-05-07T14:07:25.999Z</time>
      </trkpt>
      <trkpt lat="43.57705" lon="2.96535">
        <ele>262.6</ele>
        <time>2026-05-07T14:07:26.999Z</time>
      </trkpt>
      <trkpt lat="43.57703" lon="2.96535">
        <ele>262.6</ele>
        <time>2026-05-07T14:07:27.999Z</time>
      </trkpt>
      <trkpt lat="43.57702" lon="2.96535">
        <ele>262</ele>
        <time>2026-05-07T14:07:28.999Z</time>
      </trkpt>
      <trkpt lat="43.57701" lon="2.96536">
        <ele>262</ele>
        <time>2026-05-07T14:07:29.999Z</time>
      </trkpt>
      <trkpt lat="43.57701" lon="2.96536">
        <ele>261.4</ele>
        <time>2026-05-07T14:07:30.999Z</time>
      </trkpt>
      <trkpt lat="43.577" lon="2.96538">
        <ele>261.6</ele>
        <time>2026-05-07T14:07:31.999Z</time>
      </trkpt>
      <trkpt lat="43.57699" lon="2.9654">
        <ele>262</ele>
        <time>2026-05-07T14:07:32.999Z</time>
      </trkpt>
      <trkpt lat="43.57697" lon="2.96542">
        <ele>262.2</ele>
        <time>2026-05-07T14:07:33.999Z</time>
      </trkpt>
      <trkpt lat="43.57696" lon="2.96544">
        <ele>262.3</ele>
        <time>2026-05-07T14:07:34.999Z</time>
      </trkpt>
      <trkpt lat="43.57695" lon="2.96546">
        <ele>262.3</ele>
        <time>2026-05-07T14:07:35.999Z</time>
      </trkpt>
      <trkpt lat="43.57694" lon="2.96547">
        <ele>262</ele>
        <time>2026-05-07T14:07:36.999Z</time>
      </trkpt>
      <trkpt lat="43.57693" lon="2.96547">
        <ele>261.2</ele>
        <time>2026-05-07T14:07:37.999Z</time>
      </trkpt>
      <trkpt lat="43.57693" lon="2.96547">
        <ele>260.7</ele>
        <time>2026-05-07T14:07:38.999Z</time>
      </trkpt>
      <trkpt lat="43.57692" lon="2.96548">
        <ele>260.6</ele>
        <time>2026-05-07T14:07:39.999Z</time>
      </trkpt>
      <trkpt lat="43.57691" lon="2.9655">
        <ele>260.6</ele>
        <time>2026-05-07T14:07:40.999Z</time>
      </trkpt>
      <trkpt lat="43.57689" lon="2.96551">
        <ele>260.2</ele>
        <time>2026-05-07T14:07:41.999Z</time>
      </trkpt>
      <trkpt lat="43.57688" lon="2.96551">
        <ele>260</ele>
        <time>2026-05-07T14:07:42.999Z</time>
      </trkpt>
      <trkpt lat="43.57687" lon="2.96552">
        <ele>259.7</ele>
        <time>2026-05-07T14:07:43.999Z</time>
      </trkpt>
      <trkpt lat="43.57685" lon="2.96553">
        <ele>259.5</ele>
        <time>2026-05-07T14:07:44.999Z</time>
      </trkpt>
      <trkpt lat="43.57684" lon="2.96554">
        <ele>259.4</ele>
        <time>2026-05-07T14:07:45.999Z</time>
      </trkpt>
      <trkpt lat="43.57682" lon="2.96555">
        <ele>259.8</ele>
        <time>2026-05-07T14:07:46.999Z</time>
      </trkpt>
      <trkpt lat="43.57681" lon="2.96556">
        <ele>259.8</ele>
        <time>2026-05-07T14:07:47.999Z</time>
      </trkpt>
      <trkpt lat="43.5768" lon="2.96558">
        <ele>259.8</ele>
        <time>2026-05-07T14:07:48.999Z</time>
      </trkpt>
      <trkpt lat="43.57679" lon="2.96558">
        <ele>259.8</ele>
        <time>2026-05-07T14:07:49.999Z</time>
      </trkpt>
      <trkpt lat="43.57677" lon="2.96558">
        <ele>260.1</ele>
        <time>2026-05-07T14:07:50.999Z</time>
      </trkpt>
      <trkpt lat="43.57676" lon="2.96557">
        <ele>259.6</ele>
        <time>2026-05-07T14:07:51.999Z</time>
      </trkpt>
      <trkpt lat="43.57674" lon="2.96557">
        <ele>259.5</ele>
        <time>2026-05-07T14:07:52.999Z</time>
      </trkpt>
      <trkpt lat="43.57673" lon="2.96558">
        <ele>258.9</ele>
        <time>2026-05-07T14:07:53.999Z</time>
      </trkpt>
      <trkpt lat="43.57672" lon="2.96558">
        <ele>258.7</ele>
        <time>2026-05-07T14:07:54.999Z</time>
      </trkpt>
      <trkpt lat="43.5767" lon="2.96559">
        <ele>258.6</ele>
        <time>2026-05-07T14:07:55.999Z</time>
      </trkpt>
      <trkpt lat="43.57669" lon="2.96561">
        <ele>259.2</ele>
        <time>2026-05-07T14:07:56.999Z</time>
      </trkpt>
      <trkpt lat="43.57667" lon="2.96562">
        <ele>259.6</ele>
        <time>2026-05-07T14:07:57.999Z</time>
      </trkpt>
      <trkpt lat="43.57665" lon="2.96562">
        <ele>260.2</ele>
        <time>2026-05-07T14:07:58.999Z</time>
      </trkpt>
      <trkpt lat="43.57663" lon="2.96562">
        <ele>260.8</ele>
        <time>2026-05-07T14:07:59.999Z</time>
      </trkpt>
      <trkpt lat="43.57662" lon="2.96562">
        <ele>260.3</ele>
        <time>2026-05-07T14:08:00.999Z</time>
      </trkpt>
      <trkpt lat="43.57662" lon="2.96562">
        <ele>259</ele>
        <time>2026-05-07T14:08:01.999Z</time>
      </trkpt>
      <trkpt lat="43.57661" lon="2.96562">
        <ele>258.3</ele>
        <time>2026-05-07T14:08:02.999Z</time>
      </trkpt>
      <trkpt lat="43.57661" lon="2.96562">
        <ele>257.3</ele>
        <time>2026-05-07T14:08:03.999Z</time>
      </trkpt>
      <trkpt lat="43.5766" lon="2.96562">
        <ele>257.1</ele>
        <time>2026-05-07T14:08:04.999Z</time>
      </trkpt>
      <trkpt lat="43.57658" lon="2.96563">
        <ele>257.5</ele>
        <time>2026-05-07T14:08:05.999Z</time>
      </trkpt>
      <trkpt lat="43.57657" lon="2.96564">
        <ele>257.5</ele>
        <time>2026-05-07T14:08:06.999Z</time>
      </trkpt>
      <trkpt lat="43.57656" lon="2.96564">
        <ele>257.3</ele>
        <time>2026-05-07T14:08:07.999Z</time>
      </trkpt>
      <trkpt lat="43.57654" lon="2.96563">
        <ele>257.4</ele>
        <time>2026-05-07T14:08:08.999Z</time>
      </trkpt>
      <trkpt lat="43.57652" lon="2.96564">
        <ele>257.1</ele>
        <time>2026-05-07T14:08:09.999Z</time>
      </trkpt>
      <trkpt lat="43.57651" lon="2.96564">
        <ele>257.1</ele>
        <time>2026-05-07T14:08:10.999Z</time>
      </trkpt>
      <trkpt lat="43.57649" lon="2.96564">
        <ele>257</ele>
        <time>2026-05-07T14:08:11.999Z</time>
      </trkpt>
      <trkpt lat="43.57648" lon="2.96563">
        <ele>257.4</ele>
        <time>2026-05-07T14:08:12.999Z</time>
      </trkpt>
      <trkpt lat="43.57647" lon="2.96563">
        <ele>259</ele>
        <time>2026-05-07T14:08:13.999Z</time>
      </trkpt>
      <trkpt lat="43.57646" lon="2.96562">
        <ele>259.8</ele>
        <time>2026-05-07T14:08:14.999Z</time>
      </trkpt>
      <trkpt lat="43.57646" lon="2.96563">
        <ele>260</ele>
        <time>2026-05-07T14:08:15.999Z</time>
      </trkpt>
      <trkpt lat="43.57645" lon="2.96563">
        <ele>260.4</ele>
        <time>2026-05-07T14:08:16.999Z</time>
      </trkpt>
      <trkpt lat="43.57645" lon="2.96564">
        <ele>260.2</ele>
        <time>2026-05-07T14:08:17.999Z</time>
      </trkpt>
      <trkpt lat="43.57645" lon="2.96564">
        <ele>259.8</ele>
        <time>2026-05-07T14:08:18.999Z</time>
      </trkpt>
      <trkpt lat="43.57644" lon="2.96563">
        <ele>259.2</ele>
        <time>2026-05-07T14:08:19.999Z</time>
      </trkpt>
      <trkpt lat="43.57643" lon="2.96564">
        <ele>258.9</ele>
        <time>2026-05-07T14:08:20.999Z</time>
      </trkpt>
      <trkpt lat="43.57642" lon="2.96564">
        <ele>258.8</ele>
        <time>2026-05-07T14:08:21.999Z</time>
      </trkpt>
      <trkpt lat="43.5764" lon="2.96565">
        <ele>258.4</ele>
        <time>2026-05-07T14:08:22.999Z</time>
      </trkpt>
      <trkpt lat="43.57639" lon="2.96565">
        <ele>258.2</ele>
        <time>2026-05-07T14:08:23.999Z</time>
      </trkpt>
      <trkpt lat="43.57638" lon="2.96565">
        <ele>258.4</ele>
        <time>2026-05-07T14:08:24.999Z</time>
      </trkpt>
      <trkpt lat="43.57635" lon="2.96565">
        <ele>258.7</ele>
        <time>2026-05-07T14:08:25.999Z</time>
      </trkpt>
      <trkpt lat="43.57633" lon="2.96565">
        <ele>258.9</ele>
        <time>2026-05-07T14:08:26.999Z</time>
      </trkpt>
      <trkpt lat="43.57631" lon="2.96565">
        <ele>258.8</ele>
        <time>2026-05-07T14:08:27.999Z</time>
      </trkpt>
      <trkpt lat="43.5763" lon="2.96564">
        <ele>258.5</ele>
        <time>2026-05-07T14:08:28.999Z</time>
      </trkpt>
      <trkpt lat="43.57629" lon="2.96564">
        <ele>258.4</ele>
        <time>2026-05-07T14:08:29.999Z</time>
      </trkpt>
      <trkpt lat="43.57627" lon="2.96563">
        <ele>258</ele>
        <time>2026-05-07T14:08:30.999Z</time>
      </trkpt>
      <trkpt lat="43.57626" lon="2.96563">
        <ele>257.2</ele>
        <time>2026-05-07T14:08:31.999Z</time>
      </trkpt>
      <trkpt lat="43.57625" lon="2.96563">
        <ele>256.3</ele>
        <time>2026-05-07T14:08:32.999Z</time>
      </trkpt>
      <trkpt lat="43.57623" lon="2.96564">
        <ele>255.9</ele>
        <time>2026-05-07T14:08:33.999Z</time>
      </trkpt>
      <trkpt lat="43.57622" lon="2.96566">
        <ele>255.5</ele>
        <time>2026-05-07T14:08:34.999Z</time>
      </trkpt>
      <trkpt lat="43.57621" lon="2.96567">
        <ele>255.8</ele>
        <time>2026-05-07T14:08:35.999Z</time>
      </trkpt>
      <trkpt lat="43.5762" lon="2.96567">
        <ele>256.1</ele>
        <time>2026-05-07T14:08:36.999Z</time>
      </trkpt>
      <trkpt lat="43.57619" lon="2.96567">
        <ele>255.6</ele>
        <time>2026-05-07T14:08:37.999Z</time>
      </trkpt>
      <trkpt lat="43.57618" lon="2.96567">
        <ele>255.7</ele>
        <time>2026-05-07T14:08:38.999Z</time>
      </trkpt>
      <trkpt lat="43.57617" lon="2.96567">
        <ele>255.7</ele>
        <time>2026-05-07T14:08:39.999Z</time>
      </trkpt>
      <trkpt lat="43.57616" lon="2.96566">
        <ele>255.9</ele>
        <time>2026-05-07T14:08:40.999Z</time>
      </trkpt>
      <trkpt lat="43.57615" lon="2.96567">
        <ele>255.9</ele>
        <time>2026-05-07T14:08:41.999Z</time>
      </trkpt>
      <trkpt lat="43.57614" lon="2.96568">
        <ele>256.2</ele>
        <time>2026-05-07T14:08:42.999Z</time>
      </trkpt>
      <trkpt lat="43.57613" lon="2.9657">
        <ele>256.8</ele>
        <time>2026-05-07T14:08:43.999Z</time>
      </trkpt>
      <trkpt lat="43.57612" lon="2.96572">
        <ele>256.9</ele>
        <time>2026-05-07T14:08:44.999Z</time>
      </trkpt>
      <trkpt lat="43.57611" lon="2.96574">
        <ele>256.5</ele>
        <time>2026-05-07T14:08:45.999Z</time>
      </trkpt>
      <trkpt lat="43.5761" lon="2.96574">
        <ele>256.2</ele>
        <time>2026-05-07T14:08:46.999Z</time>
      </trkpt>
      <trkpt lat="43.57609" lon="2.96576">
        <ele>256.2</ele>
        <time>2026-05-07T14:08:47.999Z</time>
      </trkpt>
      <trkpt lat="43.57608" lon="2.96575">
        <ele>255.6</ele>
        <time>2026-05-07T14:08:48.999Z</time>
      </trkpt>
      <trkpt lat="43.57607" lon="2.96575">
        <ele>254.6</ele>
        <time>2026-05-07T14:08:49.999Z</time>
      </trkpt>
      <trkpt lat="43.57606" lon="2.96576">
        <ele>254.2</ele>
        <time>2026-05-07T14:08:50.999Z</time>
      </trkpt>
      <trkpt lat="43.57605" lon="2.96577">
        <ele>254.3</ele>
        <time>2026-05-07T14:08:51.999Z</time>
      </trkpt>
      <trkpt lat="43.57604" lon="2.96578">
        <ele>254.6</ele>
        <time>2026-05-07T14:08:52.999Z</time>
      </trkpt>
      <trkpt lat="43.57602" lon="2.96579">
        <ele>255.4</ele>
        <time>2026-05-07T14:08:53.999Z</time>
      </trkpt>
      <trkpt lat="43.57601" lon="2.96581">
        <ele>254.8</ele>
        <time>2026-05-07T14:08:54.999Z</time>
      </trkpt>
      <trkpt lat="43.57601" lon="2.96581">
        <ele>254.6</ele>
        <time>2026-05-07T14:08:55.999Z</time>
      </trkpt>
      <trkpt lat="43.576" lon="2.96582">
        <ele>254.1</ele>
        <time>2026-05-07T14:08:56.999Z</time>
      </trkpt>
      <trkpt lat="43.57599" lon="2.96583">
        <ele>253.9</ele>
        <time>2026-05-07T14:08:57.999Z</time>
      </trkpt>
      <trkpt lat="43.57598" lon="2.96584">
        <ele>253.8</ele>
        <time>2026-05-07T14:08:58.999Z</time>
      </trkpt>
      <trkpt lat="43.57597" lon="2.96584">
        <ele>253.6</ele>
        <time>2026-05-07T14:08:59.999Z</time>
      </trkpt>
      <trkpt lat="43.57596" lon="2.96584">
        <ele>254</ele>
        <time>2026-05-07T14:09:00.999Z</time>
      </trkpt>
      <trkpt lat="43.57596" lon="2.96586">
        <ele>254.3</ele>
        <time>2026-05-07T14:09:01.999Z</time>
      </trkpt>
      <trkpt lat="43.57595" lon="2.96587">
        <ele>255.2</ele>
        <time>2026-05-07T14:09:02.999Z</time>
      </trkpt>
      <trkpt lat="43.57594" lon="2.96589">
        <ele>255.7</ele>
        <time>2026-05-07T14:09:03.999Z</time>
      </trkpt>
      <trkpt lat="43.57593" lon="2.9659">
        <ele>255.4</ele>
        <time>2026-05-07T14:09:04.999Z</time>
      </trkpt>
      <trkpt lat="43.57593" lon="2.96592">
        <ele>254.9</ele>
        <time>2026-05-07T14:09:05.999Z</time>
      </trkpt>
      <trkpt lat="43.57593" lon="2.96592">
        <ele>255.3</ele>
        <time>2026-05-07T14:09:06.999Z</time>
      </trkpt>
      <trkpt lat="43.57592" lon="2.96593">
        <ele>255.8</ele>
        <time>2026-05-07T14:09:07.999Z</time>
      </trkpt>
      <trkpt lat="43.57591" lon="2.96593">
        <ele>255.9</ele>
        <time>2026-05-07T14:09:08.999Z</time>
      </trkpt>
      <trkpt lat="43.5759" lon="2.96593">
        <ele>255.7</ele>
        <time>2026-05-07T14:09:09.999Z</time>
      </trkpt>
      <trkpt lat="43.57589" lon="2.96594">
        <ele>255.5</ele>
        <time>2026-05-07T14:09:10.999Z</time>
      </trkpt>
      <trkpt lat="43.57588" lon="2.96595">
        <ele>255</ele>
        <time>2026-05-07T14:09:11.999Z</time>
      </trkpt>
      <trkpt lat="43.57587" lon="2.96597">
        <ele>255.1</ele>
        <time>2026-05-07T14:09:12.999Z</time>
      </trkpt>
      <trkpt lat="43.57586" lon="2.96598">
        <ele>255.6</ele>
        <time>2026-05-07T14:09:13.999Z</time>
      </trkpt>
      <trkpt lat="43.57585" lon="2.96599">
        <ele>255.4</ele>
        <time>2026-05-07T14:09:14.999Z</time>
      </trkpt>
      <trkpt lat="43.57584" lon="2.966">
        <ele>255</ele>
        <time>2026-05-07T14:09:15.999Z</time>
      </trkpt>
      <trkpt lat="43.57582" lon="2.96601">
        <ele>254.9</ele>
        <time>2026-05-07T14:09:16.999Z</time>
      </trkpt>
      <trkpt lat="43.57581" lon="2.96601">
        <ele>254.5</ele>
        <time>2026-05-07T14:09:17.999Z</time>
      </trkpt>
      <trkpt lat="43.57581" lon="2.966">
        <ele>253.9</ele>
        <time>2026-05-07T14:09:18.999Z</time>
      </trkpt>
      <trkpt lat="43.5758" lon="2.96601">
        <ele>253.7</ele>
        <time>2026-05-07T14:09:19.999Z</time>
      </trkpt>
      <trkpt lat="43.5758" lon="2.96602">
        <ele>253.4</ele>
        <time>2026-05-07T14:09:20.999Z</time>
      </trkpt>
      <trkpt lat="43.57579" lon="2.96603">
        <ele>253.2</ele>
        <time>2026-05-07T14:09:21.999Z</time>
      </trkpt>
      <trkpt lat="43.57579" lon="2.96603">
        <ele>253.7</ele>
        <time>2026-05-07T14:09:22.999Z</time>
      </trkpt>
      <trkpt lat="43.57579" lon="2.96604">
        <ele>253.5</ele>
        <time>2026-05-07T14:09:23.999Z</time>
      </trkpt>
      <trkpt lat="43.57578" lon="2.96603">
        <ele>253.3</ele>
        <time>2026-05-07T14:09:24.999Z</time>
      </trkpt>
      <trkpt lat="43.57578" lon="2.96603">
        <ele>253.1</ele>
        <time>2026-05-07T14:09:25.999Z</time>
      </trkpt>
      <trkpt lat="43.57578" lon="2.96605">
        <ele>252.8</ele>
        <time>2026-05-07T14:09:26.999Z</time>
      </trkpt>
      <trkpt lat="43.57577" lon="2.96606">
        <ele>253.1</ele>
        <time>2026-05-07T14:09:27.999Z</time>
      </trkpt>
      <trkpt lat="43.57575" lon="2.96606">
        <ele>253.1</ele>
        <time>2026-05-07T14:09:28.999Z</time>
      </trkpt>
      <trkpt lat="43.57574" lon="2.96607">
        <ele>252.7</ele>
        <time>2026-05-07T14:09:29.999Z</time>
      </trkpt>
      <trkpt lat="43.57573" lon="2.96608">
        <ele>252.2</ele>
        <time>2026-05-07T14:09:30.999Z</time>
      </trkpt>
      <trkpt lat="43.57571" lon="2.96609">
        <ele>251.6</ele>
        <time>2026-05-07T14:09:31.999Z</time>
      </trkpt>
      <trkpt lat="43.5757" lon="2.9661">
        <ele>251.8</ele>
        <time>2026-05-07T14:09:32.999Z</time>
      </trkpt>
      <trkpt lat="43.57568" lon="2.96611">
        <ele>251.8</ele>
        <time>2026-05-07T14:09:33.999Z</time>
      </trkpt>
      <trkpt lat="43.57567" lon="2.96612">
        <ele>252</ele>
        <time>2026-05-07T14:09:34.999Z</time>
      </trkpt>
      <trkpt lat="43.57566" lon="2.96611">
        <ele>251.8</ele>
        <time>2026-05-07T14:09:35.999Z</time>
      </trkpt>
      <trkpt lat="43.57565" lon="2.96612">
        <ele>251.1</ele>
        <time>2026-05-07T14:09:36.999Z</time>
      </trkpt>
      <trkpt lat="43.57564" lon="2.96613">
        <ele>250.8</ele>
        <time>2026-05-07T14:09:37.999Z</time>
      </trkpt>
      <trkpt lat="43.57563" lon="2.96615">
        <ele>250.4</ele>
        <time>2026-05-07T14:09:38.999Z</time>
      </trkpt>
      <trkpt lat="43.57561" lon="2.96615">
        <ele>249.9</ele>
        <time>2026-05-07T14:09:39.999Z</time>
      </trkpt>
      <trkpt lat="43.5756" lon="2.96616">
        <ele>249.8</ele>
        <time>2026-05-07T14:09:40.999Z</time>
      </trkpt>
      <trkpt lat="43.57559" lon="2.96617">
        <ele>248.9</ele>
        <time>2026-05-07T14:09:41.999Z</time>
      </trkpt>
      <trkpt lat="43.57558" lon="2.96619">
        <ele>248.6</ele>
        <time>2026-05-07T14:09:42.999Z</time>
      </trkpt>
      <trkpt lat="43.57556" lon="2.96619">
        <ele>248.1</ele>
        <time>2026-05-07T14:09:43.999Z</time>
      </trkpt>
      <trkpt lat="43.57555" lon="2.9662">
        <ele>247.5</ele>
        <time>2026-05-07T14:09:44.999Z</time>
      </trkpt>
      <trkpt lat="43.57554" lon="2.96621">
        <ele>247.1</ele>
        <time>2026-05-07T14:09:45.999Z</time>
      </trkpt>
      <trkpt lat="43.57553" lon="2.96621">
        <ele>246.9</ele>
        <time>2026-05-07T14:09:46.999Z</time>
      </trkpt>
      <trkpt lat="43.57552" lon="2.96621">
        <ele>246.8</ele>
        <time>2026-05-07T14:09:47.999Z</time>
      </trkpt>
      <trkpt lat="43.57551" lon="2.96621">
        <ele>246.9</ele>
        <time>2026-05-07T14:09:48.999Z</time>
      </trkpt>
      <trkpt lat="43.57549" lon="2.96621">
        <ele>246.8</ele>
        <time>2026-05-07T14:09:49.999Z</time>
      </trkpt>
      <trkpt lat="43.57547" lon="2.96621">
        <ele>247.1</ele>
        <time>2026-05-07T14:09:50.999Z</time>
      </trkpt>
      <trkpt lat="43.57546" lon="2.9662">
        <ele>247.1</ele>
        <time>2026-05-07T14:09:51.999Z</time>
      </trkpt>
      <trkpt lat="43.57545" lon="2.96621">
        <ele>247</ele>
        <time>2026-05-07T14:09:52.999Z</time>
      </trkpt>
      <trkpt lat="43.57545" lon="2.96621">
        <ele>247.2</ele>
        <time>2026-05-07T14:09:53.999Z</time>
      </trkpt>
      <trkpt lat="43.57544" lon="2.96621">
        <ele>248.1</ele>
        <time>2026-05-07T14:09:54.999Z</time>
      </trkpt>
      <trkpt lat="43.57543" lon="2.96621">
        <ele>248.3</ele>
        <time>2026-05-07T14:09:55.999Z</time>
      </trkpt>
      <trkpt lat="43.57541" lon="2.9662">
        <ele>247.7</ele>
        <time>2026-05-07T14:09:56.999Z</time>
      </trkpt>
      <trkpt lat="43.5754" lon="2.96621">
        <ele>247.9</ele>
        <time>2026-05-07T14:09:57.999Z</time>
      </trkpt>
      <trkpt lat="43.57539" lon="2.96622">
        <ele>247.8</ele>
        <time>2026-05-07T14:09:58.999Z</time>
      </trkpt>
      <trkpt lat="43.57539" lon="2.96622">
        <ele>248.1</ele>
        <time>2026-05-07T14:09:59.999Z</time>
      </trkpt>
      <trkpt lat="43.57538" lon="2.96623">
        <ele>248.6</ele>
        <time>2026-05-07T14:10:00.999Z</time>
      </trkpt>
      <trkpt lat="43.57537" lon="2.96623">
        <ele>248.9</ele>
        <time>2026-05-07T14:10:01.999Z</time>
      </trkpt>
      <trkpt lat="43.57536" lon="2.96623">
        <ele>248.7</ele>
        <time>2026-05-07T14:10:02.999Z</time>
      </trkpt>
      <trkpt lat="43.57534" lon="2.96624">
        <ele>248.8</ele>
        <time>2026-05-07T14:10:03.999Z</time>
      </trkpt>
      <trkpt lat="43.57532" lon="2.96624">
        <ele>248.8</ele>
        <time>2026-05-07T14:10:04.999Z</time>
      </trkpt>
      <trkpt lat="43.5753" lon="2.96624">
        <ele>248.9</ele>
        <time>2026-05-07T14:10:05.999Z</time>
      </trkpt>
      <trkpt lat="43.57529" lon="2.96625">
        <ele>248.5</ele>
        <time>2026-05-07T14:10:06.999Z</time>
      </trkpt>
      <trkpt lat="43.57528" lon="2.96625">
        <ele>247.7</ele>
        <time>2026-05-07T14:10:07.999Z</time>
      </trkpt>
      <trkpt lat="43.57528" lon="2.96626">
        <ele>247.2</ele>
        <time>2026-05-07T14:10:08.999Z</time>
      </trkpt>
      <trkpt lat="43.57527" lon="2.96626">
        <ele>247.3</ele>
        <time>2026-05-07T14:10:09.999Z</time>
      </trkpt>
      <trkpt lat="43.57525" lon="2.96625">
        <ele>248</ele>
        <time>2026-05-07T14:10:10.999Z</time>
      </trkpt>
      <trkpt lat="43.57523" lon="2.96625">
        <ele>249</ele>
        <time>2026-05-07T14:10:11.999Z</time>
      </trkpt>
      <trkpt lat="43.57522" lon="2.96625">
        <ele>250.1</ele>
        <time>2026-05-07T14:10:12.999Z</time>
      </trkpt>
      <trkpt lat="43.57521" lon="2.96624">
        <ele>251.3</ele>
        <time>2026-05-07T14:10:13.999Z</time>
      </trkpt>
      <trkpt lat="43.57519" lon="2.96625">
        <ele>251.9</ele>
        <time>2026-05-07T14:10:14.999Z</time>
      </trkpt>
      <trkpt lat="43.57518" lon="2.96626">
        <ele>252.4</ele>
        <time>2026-05-07T14:10:15.999Z</time>
      </trkpt>
      <trkpt lat="43.57517" lon="2.96627">
        <ele>252.4</ele>
        <time>2026-05-07T14:10:16.999Z</time>
      </trkpt>
      <trkpt lat="43.57515" lon="2.96627">
        <ele>252.7</ele>
        <time>2026-05-07T14:10:17.999Z</time>
      </trkpt>
      <trkpt lat="43.57515" lon="2.96626">
        <ele>252.6</ele>
        <time>2026-05-07T14:10:18.999Z</time>
      </trkpt>
      <trkpt lat="43.57514" lon="2.96627">
        <ele>252.5</ele>
        <time>2026-05-07T14:10:19.999Z</time>
      </trkpt>
      <trkpt lat="43.57513" lon="2.96628">
        <ele>253</ele>
        <time>2026-05-07T14:10:20.999Z</time>
      </trkpt>
      <trkpt lat="43.57511" lon="2.96628">
        <ele>253.4</ele>
        <time>2026-05-07T14:10:21.999Z</time>
      </trkpt>
      <trkpt lat="43.5751" lon="2.96628">
        <ele>253.6</ele>
        <time>2026-05-07T14:10:22.999Z</time>
      </trkpt>
      <trkpt lat="43.57508" lon="2.96628">
        <ele>253.6</ele>
        <time>2026-05-07T14:10:23.999Z</time>
      </trkpt>
      <trkpt lat="43.57507" lon="2.96627">
        <ele>254</ele>
        <time>2026-05-07T14:10:24.999Z</time>
      </trkpt>
      <trkpt lat="43.57506" lon="2.96627">
        <ele>254</ele>
        <time>2026-05-07T14:10:25.999Z</time>
      </trkpt>
      <trkpt lat="43.57505" lon="2.96627">
        <ele>253.8</ele>
        <time>2026-05-07T14:10:26.999Z</time>
      </trkpt>
      <trkpt lat="43.57503" lon="2.96628">
        <ele>253.9</ele>
        <time>2026-05-07T14:10:27.999Z</time>
      </trkpt>
      <trkpt lat="43.57502" lon="2.96629">
        <ele>254.1</ele>
        <time>2026-05-07T14:10:28.999Z</time>
      </trkpt>
      <trkpt lat="43.57501" lon="2.96631">
        <ele>254.3</ele>
        <time>2026-05-07T14:10:29.999Z</time>
      </trkpt>
      <trkpt lat="43.57499" lon="2.96632">
        <ele>254</ele>
        <time>2026-05-07T14:10:30.999Z</time>
      </trkpt>
      <trkpt lat="43.57498" lon="2.96632">
        <ele>253.7</ele>
        <time>2026-05-07T14:10:31.999Z</time>
      </trkpt>
      <trkpt lat="43.57497" lon="2.96632">
        <ele>253.7</ele>
        <time>2026-05-07T14:10:32.999Z</time>
      </trkpt>
      <trkpt lat="43.57496" lon="2.96633">
        <ele>253.4</ele>
        <time>2026-05-07T14:10:33.999Z</time>
      </trkpt>
      <trkpt lat="43.57496" lon="2.96634">
        <ele>252.6</ele>
        <time>2026-05-07T14:10:34.999Z</time>
      </trkpt>
      <trkpt lat="43.57495" lon="2.96634">
        <ele>252.2</ele>
        <time>2026-05-07T14:10:35.999Z</time>
      </trkpt>
      <trkpt lat="43.57494" lon="2.96635">
        <ele>252.1</ele>
        <time>2026-05-07T14:10:36.999Z</time>
      </trkpt>
      <trkpt lat="43.57494" lon="2.96635">
        <ele>251.7</ele>
        <time>2026-05-07T14:10:37.999Z</time>
      </trkpt>
      <trkpt lat="43.57493" lon="2.96637">
        <ele>251.8</ele>
        <time>2026-05-07T14:10:38.999Z</time>
      </trkpt>
      <trkpt lat="43.57493" lon="2.96638">
        <ele>251.4</ele>
        <time>2026-05-07T14:10:39.999Z</time>
      </trkpt>
      <trkpt lat="43.57492" lon="2.96638">
        <ele>250.6</ele>
        <time>2026-05-07T14:10:40.999Z</time>
      </trkpt>
      <trkpt lat="43.57491" lon="2.96637">
        <ele>250.3</ele>
        <time>2026-05-07T14:10:41.999Z</time>
      </trkpt>
      <trkpt lat="43.5749" lon="2.96638">
        <ele>249.8</ele>
        <time>2026-05-07T14:10:42.999Z</time>
      </trkpt>
      <trkpt lat="43.57489" lon="2.96639">
        <ele>249.8</ele>
        <time>2026-05-07T14:10:43.999Z</time>
      </trkpt>
      <trkpt lat="43.57488" lon="2.96639">
        <ele>249.4</ele>
        <time>2026-05-07T14:10:44.999Z</time>
      </trkpt>
      <trkpt lat="43.57487" lon="2.9664">
        <ele>249.4</ele>
        <time>2026-05-07T14:10:45.999Z</time>
      </trkpt>
      <trkpt lat="43.57485" lon="2.9664">
        <ele>250.2</ele>
        <time>2026-05-07T14:10:46.999Z</time>
      </trkpt>
      <trkpt lat="43.57484" lon="2.9664">
        <ele>251.6</ele>
        <time>2026-05-07T14:10:47.999Z</time>
      </trkpt>
      <trkpt lat="43.57483" lon="2.96641">
        <ele>252.2</ele>
        <time>2026-05-07T14:10:48.999Z</time>
      </trkpt>
      <trkpt lat="43.57481" lon="2.96642">
        <ele>252.7</ele>
        <time>2026-05-07T14:10:49.999Z</time>
      </trkpt>
      <trkpt lat="43.5748" lon="2.96643">
        <ele>253.9</ele>
        <time>2026-05-07T14:10:50.999Z</time>
      </trkpt>
      <trkpt lat="43.57478" lon="2.96644">
        <ele>254.7</ele>
        <time>2026-05-07T14:10:51.999Z</time>
      </trkpt>
      <trkpt lat="43.57477" lon="2.96645">
        <ele>255.4</ele>
        <time>2026-05-07T14:10:52.999Z</time>
      </trkpt>
      <trkpt lat="43.57476" lon="2.96645">
        <ele>255.1</ele>
        <time>2026-05-07T14:10:53.999Z</time>
      </trkpt>
      <trkpt lat="43.57475" lon="2.96646">
        <ele>255.1</ele>
        <time>2026-05-07T14:10:54.999Z</time>
      </trkpt>
      <trkpt lat="43.57475" lon="2.96648">
        <ele>254.8</ele>
        <time>2026-05-07T14:10:55.999Z</time>
      </trkpt>
      <trkpt lat="43.57473" lon="2.96649">
        <ele>254.5</ele>
        <time>2026-05-07T14:10:56.999Z</time>
      </trkpt>
      <trkpt lat="43.57473" lon="2.9665">
        <ele>254.7</ele>
        <time>2026-05-07T14:10:57.999Z</time>
      </trkpt>
      <trkpt lat="43.57472" lon="2.96651">
        <ele>255.2</ele>
        <time>2026-05-07T14:10:58.999Z</time>
      </trkpt>
      <trkpt lat="43.57471" lon="2.96651">
        <ele>255.3</ele>
        <time>2026-05-07T14:10:59.999Z</time>
      </trkpt>
      <trkpt lat="43.57471" lon="2.96651">
        <ele>255.3</ele>
        <time>2026-05-07T14:11:00.999Z</time>
      </trkpt>
      <trkpt lat="43.5747" lon="2.96652">
        <ele>256.2</ele>
        <time>2026-05-07T14:11:01.999Z</time>
      </trkpt>
      <trkpt lat="43.57468" lon="2.96653">
        <ele>256.3</ele>
        <time>2026-05-07T14:11:02.999Z</time>
      </trkpt>
      <trkpt lat="43.57467" lon="2.96652">
        <ele>256</ele>
        <time>2026-05-07T14:11:03.999Z</time>
      </trkpt>
      <trkpt lat="43.57466" lon="2.96652">
        <ele>256.2</ele>
        <time>2026-05-07T14:11:04.999Z</time>
      </trkpt>
      <trkpt lat="43.57465" lon="2.96652">
        <ele>255.8</ele>
        <time>2026-05-07T14:11:05.999Z</time>
      </trkpt>
      <trkpt lat="43.57464" lon="2.96653">
        <ele>255.4</ele>
        <time>2026-05-07T14:11:06.999Z</time>
      </trkpt>
      <trkpt lat="43.57462" lon="2.96654">
        <ele>255.4</ele>
        <time>2026-05-07T14:11:07.999Z</time>
      </trkpt>
      <trkpt lat="43.5746" lon="2.96654">
        <ele>255.8</ele>
        <time>2026-05-07T14:11:08.999Z</time>
      </trkpt>
      <trkpt lat="43.57459" lon="2.96655">
        <ele>256.6</ele>
        <time>2026-05-07T14:11:09.999Z</time>
      </trkpt>
      <trkpt lat="43.57458" lon="2.96656">
        <ele>257.6</ele>
        <time>2026-05-07T14:11:10.999Z</time>
      </trkpt>
      <trkpt lat="43.57456" lon="2.96656">
        <ele>258.6</ele>
        <time>2026-05-07T14:11:11.999Z</time>
      </trkpt>
      <trkpt lat="43.57455" lon="2.96656">
        <ele>258.9</ele>
        <time>2026-05-07T14:11:12.999Z</time>
      </trkpt>
      <trkpt lat="43.57455" lon="2.96656">
        <ele>258.6</ele>
        <time>2026-05-07T14:11:13.999Z</time>
      </trkpt>
      <trkpt lat="43.57454" lon="2.96656">
        <ele>258.8</ele>
        <time>2026-05-07T14:11:14.999Z</time>
      </trkpt>
      <trkpt lat="43.57453" lon="2.96656">
        <ele>259</ele>
        <time>2026-05-07T14:11:15.999Z</time>
      </trkpt>
      <trkpt lat="43.57451" lon="2.96657">
        <ele>258.9</ele>
        <time>2026-05-07T14:11:16.999Z</time>
      </trkpt>
      <trkpt lat="43.5745" lon="2.96659">
        <ele>258.7</ele>
        <time>2026-05-07T14:11:17.999Z</time>
      </trkpt>
      <trkpt lat="43.57449" lon="2.96659">
        <ele>258</ele>
        <time>2026-05-07T14:11:18.999Z</time>
      </trkpt>
      <trkpt lat="43.57449" lon="2.9666">
        <ele>257.6</ele>
        <time>2026-05-07T14:11:19.999Z</time>
      </trkpt>
      <trkpt lat="43.57448" lon="2.9666">
        <ele>257.8</ele>
        <time>2026-05-07T14:11:20.999Z</time>
      </trkpt>
      <trkpt lat="43.57447" lon="2.9666">
        <ele>257.3</ele>
        <time>2026-05-07T14:11:21.999Z</time>
      </trkpt>
      <trkpt lat="43.57446" lon="2.96661">
        <ele>256.9</ele>
        <time>2026-05-07T14:11:22.999Z</time>
      </trkpt>
      <trkpt lat="43.57445" lon="2.96661">
        <ele>257</ele>
        <time>2026-05-07T14:11:23.999Z</time>
      </trkpt>
      <trkpt lat="43.57443" lon="2.96661">
        <ele>257.4</ele>
        <time>2026-05-07T14:11:24.999Z</time>
      </trkpt>
      <trkpt lat="43.57442" lon="2.96662">
        <ele>257.5</ele>
        <time>2026-05-07T14:11:25.999Z</time>
      </trkpt>
      <trkpt lat="43.57442" lon="2.96664">
        <ele>257.7</ele>
        <time>2026-05-07T14:11:26.999Z</time>
      </trkpt>
      <trkpt lat="43.57441" lon="2.96666">
        <ele>258</ele>
        <time>2026-05-07T14:11:27.999Z</time>
      </trkpt>
      <trkpt lat="43.5744" lon="2.96668">
        <ele>257.8</ele>
        <time>2026-05-07T14:11:28.999Z</time>
      </trkpt>
      <trkpt lat="43.5744" lon="2.9667">
        <ele>257.4</ele>
        <time>2026-05-07T14:11:29.999Z</time>
      </trkpt>
      <trkpt lat="43.57438" lon="2.96671">
        <ele>257.9</ele>
        <time>2026-05-07T14:11:30.999Z</time>
      </trkpt>
      <trkpt lat="43.57438" lon="2.96673">
        <ele>258.1</ele>
        <time>2026-05-07T14:11:31.999Z</time>
      </trkpt>
      <trkpt lat="43.57437" lon="2.96674">
        <ele>258.4</ele>
        <time>2026-05-07T14:11:32.999Z</time>
      </trkpt>
      <trkpt lat="43.57437" lon="2.96675">
        <ele>258.5</ele>
        <time>2026-05-07T14:11:33.999Z</time>
      </trkpt>
      <trkpt lat="43.57436" lon="2.96678">
        <ele>258.5</ele>
        <time>2026-05-07T14:11:34.999Z</time>
      </trkpt>
      <trkpt lat="43.57435" lon="2.9668">
        <ele>258.5</ele>
        <time>2026-05-07T14:11:35.999Z</time>
      </trkpt>
      <trkpt lat="43.57434" lon="2.96682">
        <ele>258.2</ele>
        <time>2026-05-07T14:11:36.999Z</time>
      </trkpt>
      <trkpt lat="43.57432" lon="2.96683">
        <ele>257.4</ele>
        <time>2026-05-07T14:11:37.999Z</time>
      </trkpt>
      <trkpt lat="43.57432" lon="2.96684">
        <ele>257</ele>
        <time>2026-05-07T14:11:38.999Z</time>
      </trkpt>
      <trkpt lat="43.57431" lon="2.96686">
        <ele>256.9</ele>
        <time>2026-05-07T14:11:39.999Z</time>
      </trkpt>
      <trkpt lat="43.57431" lon="2.96687">
        <ele>256.6</ele>
        <time>2026-05-07T14:11:40.999Z</time>
      </trkpt>
      <trkpt lat="43.5743" lon="2.96688">
        <ele>256.8</ele>
        <time>2026-05-07T14:11:41.999Z</time>
      </trkpt>
      <trkpt lat="43.5743" lon="2.9669">
        <ele>256.9</ele>
        <time>2026-05-07T14:11:42.999Z</time>
      </trkpt>
      <trkpt lat="43.5743" lon="2.9669">
        <ele>257.2</ele>
        <time>2026-05-07T14:11:43.999Z</time>
      </trkpt>
      <trkpt lat="43.5743" lon="2.96691">
        <ele>257.1</ele>
        <time>2026-05-07T14:11:44.999Z</time>
      </trkpt>
      <trkpt lat="43.57429" lon="2.96691">
        <ele>256.1</ele>
        <time>2026-05-07T14:11:45.999Z</time>
      </trkpt>
      <trkpt lat="43.57428" lon="2.96691">
        <ele>255.9</ele>
        <time>2026-05-07T14:11:46.999Z</time>
      </trkpt>
      <trkpt lat="43.57427" lon="2.96692">
        <ele>255.9</ele>
        <time>2026-05-07T14:11:47.999Z</time>
      </trkpt>
      <trkpt lat="43.57425" lon="2.96693">
        <ele>256.3</ele>
        <time>2026-05-07T14:11:48.999Z</time>
      </trkpt>
      <trkpt lat="43.57424" lon="2.96694">
        <ele>256.8</ele>
        <time>2026-05-07T14:11:49.999Z</time>
      </trkpt>
      <trkpt lat="43.57423" lon="2.96695">
        <ele>257.1</ele>
        <time>2026-05-07T14:11:50.999Z</time>
      </trkpt>
      <trkpt lat="43.57422" lon="2.96696">
        <ele>256.8</ele>
        <time>2026-05-07T14:11:51.999Z</time>
      </trkpt>
      <trkpt lat="43.57422" lon="2.96697">
        <ele>256.6</ele>
        <time>2026-05-07T14:11:52.999Z</time>
      </trkpt>
      <trkpt lat="43.57421" lon="2.96697">
        <ele>256.9</ele>
        <time>2026-05-07T14:11:53.999Z</time>
      </trkpt>
      <trkpt lat="43.5742" lon="2.96699">
        <ele>257.2</ele>
        <time>2026-05-07T14:11:54.999Z</time>
      </trkpt>
      <trkpt lat="43.57418" lon="2.96699">
        <ele>257.8</ele>
        <time>2026-05-07T14:11:55.999Z</time>
      </trkpt>
      <trkpt lat="43.57417" lon="2.96699">
        <ele>258</ele>
        <time>2026-05-07T14:11:56.999Z</time>
      </trkpt>
      <trkpt lat="43.57416" lon="2.96699">
        <ele>257.9</ele>
        <time>2026-05-07T14:11:57.999Z</time>
      </trkpt>
      <trkpt lat="43.57415" lon="2.96701">
        <ele>257.4</ele>
        <time>2026-05-07T14:11:58.999Z</time>
      </trkpt>
      <trkpt lat="43.57414" lon="2.96702">
        <ele>257.3</ele>
        <time>2026-05-07T14:11:59.999Z</time>
      </trkpt>
      <trkpt lat="43.57413" lon="2.96702">
        <ele>257.8</ele>
        <time>2026-05-07T14:12:00.999Z</time>
      </trkpt>
      <trkpt lat="43.57412" lon="2.96703">
        <ele>258.1</ele>
        <time>2026-05-07T14:12:01.999Z</time>
      </trkpt>
      <trkpt lat="43.57411" lon="2.96704">
        <ele>258.3</ele>
        <time>2026-05-07T14:12:02.999Z</time>
      </trkpt>
      <trkpt lat="43.57409" lon="2.96704">
        <ele>257.7</ele>
        <time>2026-05-07T14:12:03.999Z</time>
      </trkpt>
      <trkpt lat="43.57407" lon="2.96705">
        <ele>257.3</ele>
        <time>2026-05-07T14:12:04.999Z</time>
      </trkpt>
      <trkpt lat="43.57405" lon="2.96705">
        <ele>257.3</ele>
        <time>2026-05-07T14:12:05.999Z</time>
      </trkpt>
      <trkpt lat="43.57404" lon="2.96707">
        <ele>257.3</ele>
        <time>2026-05-07T14:12:06.999Z</time>
      </trkpt>
      <trkpt lat="43.57403" lon="2.96707">
        <ele>257.3</ele>
        <time>2026-05-07T14:12:07.999Z</time>
      </trkpt>
      <trkpt lat="43.57402" lon="2.96708">
        <ele>257.3</ele>
        <time>2026-05-07T14:12:08.999Z</time>
      </trkpt>
      <trkpt lat="43.57401" lon="2.96709">
        <ele>257.6</ele>
        <time>2026-05-07T14:12:09.999Z</time>
      </trkpt>
      <trkpt lat="43.574" lon="2.9671">
        <ele>258</ele>
        <time>2026-05-07T14:12:10.999Z</time>
      </trkpt>
      <trkpt lat="43.57399" lon="2.96711">
        <ele>258</ele>
        <time>2026-05-07T14:12:11.999Z</time>
      </trkpt>
      <trkpt lat="43.57397" lon="2.96711">
        <ele>257.7</ele>
        <time>2026-05-07T14:12:12.999Z</time>
      </trkpt>
      <trkpt lat="43.57397" lon="2.96712">
        <ele>257.7</ele>
        <time>2026-05-07T14:12:13.999Z</time>
      </trkpt>
      <trkpt lat="43.57395" lon="2.96712">
        <ele>257.6</ele>
        <time>2026-05-07T14:12:14.999Z</time>
      </trkpt>
      <trkpt lat="43.57395" lon="2.96712">
        <ele>257.3</ele>
        <time>2026-05-07T14:12:15.999Z</time>
      </trkpt>
      <trkpt lat="43.57393" lon="2.96712">
        <ele>257.8</ele>
        <time>2026-05-07T14:12:16.999Z</time>
      </trkpt>
      <trkpt lat="43.57393" lon="2.96712">
        <ele>257.1</ele>
        <time>2026-05-07T14:12:17.999Z</time>
      </trkpt>
      <trkpt lat="43.57392" lon="2.96712">
        <ele>256.6</ele>
        <time>2026-05-07T14:12:18.999Z</time>
      </trkpt>
      <trkpt lat="43.57391" lon="2.96712">
        <ele>256.2</ele>
        <time>2026-05-07T14:12:19.999Z</time>
      </trkpt>
      <trkpt lat="43.57389" lon="2.96712">
        <ele>256.3</ele>
        <time>2026-05-07T14:12:20.999Z</time>
      </trkpt>
      <trkpt lat="43.57388" lon="2.96712">
        <ele>256.1</ele>
        <time>2026-05-07T14:12:21.999Z</time>
      </trkpt>
      <trkpt lat="43.57387" lon="2.96712">
        <ele>255.7</ele>
        <time>2026-05-07T14:12:22.999Z</time>
      </trkpt>
      <trkpt lat="43.57385" lon="2.96713">
        <ele>255.8</ele>
        <time>2026-05-07T14:12:23.999Z</time>
      </trkpt>
      <trkpt lat="43.57384" lon="2.96712">
        <ele>256.4</ele>
        <time>2026-05-07T14:12:24.999Z</time>
      </trkpt>
      <trkpt lat="43.57382" lon="2.96712">
        <ele>256.7</ele>
        <time>2026-05-07T14:12:25.999Z</time>
      </trkpt>
      <trkpt lat="43.57381" lon="2.96714">
        <ele>256.5</ele>
        <time>2026-05-07T14:12:26.999Z</time>
      </trkpt>
      <trkpt lat="43.5738" lon="2.96714">
        <ele>256.7</ele>
        <time>2026-05-07T14:12:27.999Z</time>
      </trkpt>
      <trkpt lat="43.57378" lon="2.96715">
        <ele>257</ele>
        <time>2026-05-07T14:12:28.999Z</time>
      </trkpt>
      <trkpt lat="43.57377" lon="2.96715">
        <ele>257.2</ele>
        <time>2026-05-07T14:12:29.999Z</time>
      </trkpt>
      <trkpt lat="43.57375" lon="2.96716">
        <ele>256.7</ele>
        <time>2026-05-07T14:12:30.999Z</time>
      </trkpt>
      <trkpt lat="43.57374" lon="2.96716">
        <ele>256.3</ele>
        <time>2026-05-07T14:12:31.999Z</time>
      </trkpt>
      <trkpt lat="43.57373" lon="2.96716">
        <ele>256</ele>
        <time>2026-05-07T14:12:32.999Z</time>
      </trkpt>
      <trkpt lat="43.57372" lon="2.96716">
        <ele>256.2</ele>
        <time>2026-05-07T14:12:33.999Z</time>
      </trkpt>
      <trkpt lat="43.57371" lon="2.96716">
        <ele>256</ele>
        <time>2026-05-07T14:12:34.999Z</time>
      </trkpt>
      <trkpt lat="43.5737" lon="2.96716">
        <ele>256.2</ele>
        <time>2026-05-07T14:12:35.999Z</time>
      </trkpt>
      <trkpt lat="43.57369" lon="2.96716">
        <ele>256.1</ele>
        <time>2026-05-07T14:12:36.999Z</time>
      </trkpt>
      <trkpt lat="43.57367" lon="2.96716">
        <ele>255.8</ele>
        <time>2026-05-07T14:12:37.999Z</time>
      </trkpt>
      <trkpt lat="43.57366" lon="2.96716">
        <ele>255.4</ele>
        <time>2026-05-07T14:12:38.999Z</time>
      </trkpt>
      <trkpt lat="43.57365" lon="2.96717">
        <ele>255.7</ele>
        <time>2026-05-07T14:12:39.999Z</time>
      </trkpt>
      <trkpt lat="43.57363" lon="2.96717">
        <ele>255.7</ele>
        <time>2026-05-07T14:12:40.999Z</time>
      </trkpt>
      <trkpt lat="43.57362" lon="2.96718">
        <ele>256.2</ele>
        <time>2026-05-07T14:12:41.999Z</time>
      </trkpt>
      <trkpt lat="43.57361" lon="2.96718">
        <ele>256.2</ele>
        <time>2026-05-07T14:12:42.999Z</time>
      </trkpt>
      <trkpt lat="43.5736" lon="2.96719">
        <ele>256.4</ele>
        <time>2026-05-07T14:12:43.999Z</time>
      </trkpt>
      <trkpt lat="43.57358" lon="2.9672">
        <ele>256.7</ele>
        <time>2026-05-07T14:12:44.999Z</time>
      </trkpt>
      <trkpt lat="43.57357" lon="2.96721">
        <ele>256.9</ele>
        <time>2026-05-07T14:12:45.999Z</time>
      </trkpt>
      <trkpt lat="43.57356" lon="2.96722">
        <ele>256.3</ele>
        <time>2026-05-07T14:12:46.999Z</time>
      </trkpt>
      <trkpt lat="43.57356" lon="2.96722">
        <ele>255.8</ele>
        <time>2026-05-07T14:12:47.999Z</time>
      </trkpt>
      <trkpt lat="43.57355" lon="2.96723">
        <ele>255.3</ele>
        <time>2026-05-07T14:12:48.999Z</time>
      </trkpt>
      <trkpt lat="43.57354" lon="2.96723">
        <ele>254.6</ele>
        <time>2026-05-07T14:12:49.999Z</time>
      </trkpt>
      <trkpt lat="43.57353" lon="2.96723">
        <ele>253.7</ele>
        <time>2026-05-07T14:12:50.999Z</time>
      </trkpt>
      <trkpt lat="43.57352" lon="2.96723">
        <ele>253</ele>
        <time>2026-05-07T14:12:51.999Z</time>
      </trkpt>
      <trkpt lat="43.5735" lon="2.96723">
        <ele>252.8</ele>
        <time>2026-05-07T14:12:52.999Z</time>
      </trkpt>
      <trkpt lat="43.57349" lon="2.96723">
        <ele>252.8</ele>
        <time>2026-05-07T14:12:53.999Z</time>
      </trkpt>
      <trkpt lat="43.57347" lon="2.96723">
        <ele>253</ele>
        <time>2026-05-07T14:12:54.999Z</time>
      </trkpt>
      <trkpt lat="43.57347" lon="2.96722">
        <ele>253</ele>
        <time>2026-05-07T14:12:55.999Z</time>
      </trkpt>
      <trkpt lat="43.57346" lon="2.96722">
        <ele>252.9</ele>
        <time>2026-05-07T14:12:56.999Z</time>
      </trkpt>
      <trkpt lat="43.57345" lon="2.96721">
        <ele>253.5</ele>
        <time>2026-05-07T14:12:57.999Z</time>
      </trkpt>
      <trkpt lat="43.57343" lon="2.96721">
        <ele>253.8</ele>
        <time>2026-05-07T14:12:58.999Z</time>
      </trkpt>
      <trkpt lat="43.57343" lon="2.96721">
        <ele>253.9</ele>
        <time>2026-05-07T14:12:59.999Z</time>
      </trkpt>
      <trkpt lat="43.57341" lon="2.96722">
        <ele>253.7</ele>
        <time>2026-05-07T14:13:00.999Z</time>
      </trkpt>
      <trkpt lat="43.5734" lon="2.96722">
        <ele>253.6</ele>
        <time>2026-05-07T14:13:01.999Z</time>
      </trkpt>
      <trkpt lat="43.57338" lon="2.96723">
        <ele>253.6</ele>
        <time>2026-05-07T14:13:02.999Z</time>
      </trkpt>
      <trkpt lat="43.57337" lon="2.96723">
        <ele>253.7</ele>
        <time>2026-05-07T14:13:03.999Z</time>
      </trkpt>
      <trkpt lat="43.57336" lon="2.96723">
        <ele>253.5</ele>
        <time>2026-05-07T14:13:04.999Z</time>
      </trkpt>
      <trkpt lat="43.57335" lon="2.96722">
        <ele>253.5</ele>
        <time>2026-05-07T14:13:05.999Z</time>
      </trkpt>
      <trkpt lat="43.57334" lon="2.96721">
        <ele>253.7</ele>
        <time>2026-05-07T14:13:06.999Z</time>
      </trkpt>
      <trkpt lat="43.57333" lon="2.96721">
        <ele>253.9</ele>
        <time>2026-05-07T14:13:07.999Z</time>
      </trkpt>
      <trkpt lat="43.57332" lon="2.96721">
        <ele>254.2</ele>
        <time>2026-05-07T14:13:08.999Z</time>
      </trkpt>
      <trkpt lat="43.57331" lon="2.9672">
        <ele>254.1</ele>
        <time>2026-05-07T14:13:09.999Z</time>
      </trkpt>
      <trkpt lat="43.57331" lon="2.9672">
        <ele>254.3</ele>
        <time>2026-05-07T14:13:10.999Z</time>
      </trkpt>
      <trkpt lat="43.5733" lon="2.96722">
        <ele>253.8</ele>
        <time>2026-05-07T14:13:11.999Z</time>
      </trkpt>
      <trkpt lat="43.57329" lon="2.96723">
        <ele>253.4</ele>
        <time>2026-05-07T14:13:12.999Z</time>
      </trkpt>
      <trkpt lat="43.57328" lon="2.96726">
        <ele>253.2</ele>
        <time>2026-05-07T14:13:13.999Z</time>
      </trkpt>
      <trkpt lat="43.57328" lon="2.96729">
        <ele>253.2</ele>
        <time>2026-05-07T14:13:14.999Z</time>
      </trkpt>
      <trkpt lat="43.57328" lon="2.96731">
        <ele>252.6</ele>
        <time>2026-05-07T14:13:15.999Z</time>
      </trkpt>
      <trkpt lat="43.57329" lon="2.96732">
        <ele>252.2</ele>
        <time>2026-05-07T14:13:16.999Z</time>
      </trkpt>
      <trkpt lat="43.5733" lon="2.96734">
        <ele>251.8</ele>
        <time>2026-05-07T14:13:17.999Z</time>
      </trkpt>
      <trkpt lat="43.57332" lon="2.96735">
        <ele>251</ele>
        <time>2026-05-07T14:13:18.999Z</time>
      </trkpt>
      <trkpt lat="43.57333" lon="2.96735">
        <ele>250.8</ele>
        <time>2026-05-07T14:13:19.999Z</time>
      </trkpt>
      <trkpt lat="43.57335" lon="2.96736">
        <ele>250.8</ele>
        <time>2026-05-07T14:13:20.999Z</time>
      </trkpt>
      <trkpt lat="43.57337" lon="2.96737">
        <ele>250.9</ele>
        <time>2026-05-07T14:13:21.999Z</time>
      </trkpt>
      <trkpt lat="43.57339" lon="2.96737">
        <ele>250.9</ele>
        <time>2026-05-07T14:13:22.999Z</time>
      </trkpt>
      <trkpt lat="43.5734" lon="2.96737">
        <ele>251</ele>
        <time>2026-05-07T14:13:23.999Z</time>
      </trkpt>
      <trkpt lat="43.57342" lon="2.96737">
        <ele>251.1</ele>
        <time>2026-05-07T14:13:24.999Z</time>
      </trkpt>
      <trkpt lat="43.57343" lon="2.96737">
        <ele>251</ele>
        <time>2026-05-07T14:13:25.999Z</time>
      </trkpt>
      <trkpt lat="43.57344" lon="2.96738">
        <ele>251.3</ele>
        <time>2026-05-07T14:13:26.999Z</time>
      </trkpt>
      <trkpt lat="43.57346" lon="2.96738">
        <ele>251.1</ele>
        <time>2026-05-07T14:13:27.999Z</time>
      </trkpt>
      <trkpt lat="43.57347" lon="2.96738">
        <ele>250.5</ele>
        <time>2026-05-07T14:13:28.999Z</time>
      </trkpt>
      <trkpt lat="43.57347" lon="2.96737">
        <ele>250.1</ele>
        <time>2026-05-07T14:13:29.999Z</time>
      </trkpt>
      <trkpt lat="43.57349" lon="2.96736">
        <ele>249.1</ele>
        <time>2026-05-07T14:13:30.999Z</time>
      </trkpt>
      <trkpt lat="43.5735" lon="2.96736">
        <ele>249</ele>
        <time>2026-05-07T14:13:31.999Z</time>
      </trkpt>
      <trkpt lat="43.57351" lon="2.96736">
        <ele>249.2</ele>
        <time>2026-05-07T14:13:32.999Z</time>
      </trkpt>
      <trkpt lat="43.57352" lon="2.96737">
        <ele>249</ele>
        <time>2026-05-07T14:13:33.999Z</time>
      </trkpt>
      <trkpt lat="43.57353" lon="2.96737">
        <ele>248.7</ele>
        <time>2026-05-07T14:13:34.999Z</time>
      </trkpt>
      <trkpt lat="43.57354" lon="2.96737">
        <ele>248.4</ele>
        <time>2026-05-07T14:13:35.999Z</time>
      </trkpt>
      <trkpt lat="43.57355" lon="2.96738">
        <ele>248</ele>
        <time>2026-05-07T14:13:36.999Z</time>
      </trkpt>
      <trkpt lat="43.57356" lon="2.96739">
        <ele>248</ele>
        <time>2026-05-07T14:13:37.999Z</time>
      </trkpt>
      <trkpt lat="43.57358" lon="2.96739">
        <ele>247.8</ele>
        <time>2026-05-07T14:13:38.999Z</time>
      </trkpt>
      <trkpt lat="43.5736" lon="2.9674">
        <ele>247.9</ele>
        <time>2026-05-07T14:13:39.999Z</time>
      </trkpt>
      <trkpt lat="43.57361" lon="2.9674">
        <ele>247.8</ele>
        <time>2026-05-07T14:13:40.999Z</time>
      </trkpt>
      <trkpt lat="43.57361" lon="2.9674">
        <ele>247.7</ele>
        <time>2026-05-07T14:13:41.999Z</time>
      </trkpt>
      <trkpt lat="43.57362" lon="2.96741">
        <ele>247.1</ele>
        <time>2026-05-07T14:13:42.999Z</time>
      </trkpt>
      <trkpt lat="43.57364" lon="2.96741">
        <ele>246.7</ele>
        <time>2026-05-07T14:13:43.999Z</time>
      </trkpt>
      <trkpt lat="43.57365" lon="2.96741">
        <ele>246.1</ele>
        <time>2026-05-07T14:13:44.999Z</time>
      </trkpt>
      <trkpt lat="43.57367" lon="2.96741">
        <ele>245.4</ele>
        <time>2026-05-07T14:13:45.999Z</time>
      </trkpt>
      <trkpt lat="43.57368" lon="2.96741">
        <ele>244.3</ele>
        <time>2026-05-07T14:13:46.999Z</time>
      </trkpt>
      <trkpt lat="43.57368" lon="2.96741">
        <ele>243.3</ele>
        <time>2026-05-07T14:13:47.999Z</time>
      </trkpt>
      <trkpt lat="43.57368" lon="2.96741">
        <ele>242.8</ele>
        <time>2026-05-07T14:13:48.999Z</time>
      </trkpt>
      <trkpt lat="43.57369" lon="2.96741">
        <ele>242.6</ele>
        <time>2026-05-07T14:13:49.999Z</time>
      </trkpt>
      <trkpt lat="43.5737" lon="2.96741">
        <ele>242.3</ele>
        <time>2026-05-07T14:13:50.999Z</time>
      </trkpt>
      <trkpt lat="43.57372" lon="2.96741">
        <ele>242.1</ele>
        <time>2026-05-07T14:13:51.999Z</time>
      </trkpt>
      <trkpt lat="43.57373" lon="2.96741">
        <ele>242</ele>
        <time>2026-05-07T14:13:52.999Z</time>
      </trkpt>
      <trkpt lat="43.57374" lon="2.96742">
        <ele>242</ele>
        <time>2026-05-07T14:13:53.999Z</time>
      </trkpt>
      <trkpt lat="43.57374" lon="2.96743">
        <ele>241.9</ele>
        <time>2026-05-07T14:13:54.999Z</time>
      </trkpt>
      <trkpt lat="43.57374" lon="2.96744">
        <ele>241.8</ele>
        <time>2026-05-07T14:13:55.999Z</time>
      </trkpt>
      <trkpt lat="43.57373" lon="2.96746">
        <ele>241.7</ele>
        <time>2026-05-07T14:13:56.999Z</time>
      </trkpt>
      <trkpt lat="43.57373" lon="2.96748">
        <ele>241.6</ele>
        <time>2026-05-07T14:13:57.999Z</time>
      </trkpt>
      <trkpt lat="43.57373" lon="2.96749">
        <ele>241.3</ele>
        <time>2026-05-07T14:13:58.999Z</time>
      </trkpt>
      <trkpt lat="43.57372" lon="2.9675">
        <ele>241.3</ele>
        <time>2026-05-07T14:13:59.999Z</time>
      </trkpt>
      <trkpt lat="43.57372" lon="2.96751">
        <ele>241.2</ele>
        <time>2026-05-07T14:14:00.999Z</time>
      </trkpt>
      <trkpt lat="43.57372" lon="2.96752">
        <ele>241.3</ele>
        <time>2026-05-07T14:14:01.999Z</time>
      </trkpt>
      <trkpt lat="43.57372" lon="2.96753">
        <ele>241</ele>
        <time>2026-05-07T14:14:02.999Z</time>
      </trkpt>
      <trkpt lat="43.57372" lon="2.96753">
        <ele>240.7</ele>
        <time>2026-05-07T14:14:03.999Z</time>
      </trkpt>
      <trkpt lat="43.57371" lon="2.96753">
        <ele>240.3</ele>
        <time>2026-05-07T14:14:04.999Z</time>
      </trkpt>
      <trkpt lat="43.5737" lon="2.96753">
        <ele>240.4</ele>
        <time>2026-05-07T14:14:05.999Z</time>
      </trkpt>
      <trkpt lat="43.57368" lon="2.96753">
        <ele>240.3</ele>
        <time>2026-05-07T14:14:06.999Z</time>
      </trkpt>
      <trkpt lat="43.57367" lon="2.96753">
        <ele>239.8</ele>
        <time>2026-05-07T14:14:07.999Z</time>
      </trkpt>
      <trkpt lat="43.57366" lon="2.96754">
        <ele>239.6</ele>
        <time>2026-05-07T14:14:08.999Z</time>
      </trkpt>
      <trkpt lat="43.57365" lon="2.96754">
        <ele>239.3</ele>
        <time>2026-05-07T14:14:09.999Z</time>
      </trkpt>
      <trkpt lat="43.57364" lon="2.96754">
        <ele>239.1</ele>
        <time>2026-05-07T14:14:10.999Z</time>
      </trkpt>
      <trkpt lat="43.57362" lon="2.96755">
        <ele>239.2</ele>
        <time>2026-05-07T14:14:11.999Z</time>
      </trkpt>
      <trkpt lat="43.57361" lon="2.96755">
        <ele>239.6</ele>
        <time>2026-05-07T14:14:12.999Z</time>
      </trkpt>
      <trkpt lat="43.57359" lon="2.96755">
        <ele>240</ele>
        <time>2026-05-07T14:14:13.999Z</time>
      </trkpt>
      <trkpt lat="43.57357" lon="2.96756">
        <ele>239.7</ele>
        <time>2026-05-07T14:14:14.999Z</time>
      </trkpt>
      <trkpt lat="43.57356" lon="2.96755">
        <ele>240</ele>
        <time>2026-05-07T14:14:15.999Z</time>
      </trkpt>
      <trkpt lat="43.57356" lon="2.96755">
        <ele>240.2</ele>
        <time>2026-05-07T14:14:16.999Z</time>
      </trkpt>
      <trkpt lat="43.57355" lon="2.96756">
        <ele>240.5</ele>
        <time>2026-05-07T14:14:17.999Z</time>
      </trkpt>
      <trkpt lat="43.57354" lon="2.96756">
        <ele>240.7</ele>
        <time>2026-05-07T14:14:18.999Z</time>
      </trkpt>
      <trkpt lat="43.57353" lon="2.96757">
        <ele>241.7</ele>
        <time>2026-05-07T14:14:19.999Z</time>
      </trkpt>
      <trkpt lat="43.57351" lon="2.96758">
        <ele>242</ele>
        <time>2026-05-07T14:14:20.999Z</time>
      </trkpt>
      <trkpt lat="43.57349" lon="2.96758">
        <ele>242.2</ele>
        <time>2026-05-07T14:14:21.999Z</time>
      </trkpt>
      <trkpt lat="43.57348" lon="2.96758">
        <ele>241.8</ele>
        <time>2026-05-07T14:14:22.999Z</time>
      </trkpt>
      <trkpt lat="43.57347" lon="2.96758">
        <ele>241.8</ele>
        <time>2026-05-07T14:14:23.999Z</time>
      </trkpt>
      <trkpt lat="43.57346" lon="2.96759">
        <ele>241.8</ele>
        <time>2026-05-07T14:14:24.999Z</time>
      </trkpt>
      <trkpt lat="43.57345" lon="2.96759">
        <ele>241.9</ele>
        <time>2026-05-07T14:14:25.999Z</time>
      </trkpt>
      <trkpt lat="43.57344" lon="2.9676">
        <ele>242.6</ele>
        <time>2026-05-07T14:14:26.999Z</time>
      </trkpt>
      <trkpt lat="43.57343" lon="2.9676">
        <ele>242.5</ele>
        <time>2026-05-07T14:14:27.999Z</time>
      </trkpt>
      <trkpt lat="43.57342" lon="2.96761">
        <ele>241.6</ele>
        <time>2026-05-07T14:14:28.999Z</time>
      </trkpt>
      <trkpt lat="43.57341" lon="2.96762">
        <ele>241.2</ele>
        <time>2026-05-07T14:14:29.999Z</time>
      </trkpt>
      <trkpt lat="43.5734" lon="2.96762">
        <ele>241.4</ele>
        <time>2026-05-07T14:14:30.999Z</time>
      </trkpt>
      <trkpt lat="43.57339" lon="2.96763">
        <ele>241.6</ele>
        <time>2026-05-07T14:14:31.999Z</time>
      </trkpt>
      <trkpt lat="43.57338" lon="2.96763">
        <ele>242</ele>
        <time>2026-05-07T14:14:32.999Z</time>
      </trkpt>
      <trkpt lat="43.57337" lon="2.96762">
        <ele>242.2</ele>
        <time>2026-05-07T14:14:33.999Z</time>
      </trkpt>
      <trkpt lat="43.57336" lon="2.96762">
        <ele>242.1</ele>
        <time>2026-05-07T14:14:34.999Z</time>
      </trkpt>
      <trkpt lat="43.57334" lon="2.96762">
        <ele>241.8</ele>
        <time>2026-05-07T14:14:35.999Z</time>
      </trkpt>
      <trkpt lat="43.57333" lon="2.96763">
        <ele>241.6</ele>
        <time>2026-05-07T14:14:36.999Z</time>
      </trkpt>
      <trkpt lat="43.57332" lon="2.96764">
        <ele>241.4</ele>
        <time>2026-05-07T14:14:37.999Z</time>
      </trkpt>
      <trkpt lat="43.57331" lon="2.96766">
        <ele>241.6</ele>
        <time>2026-05-07T14:14:38.999Z</time>
      </trkpt>
      <trkpt lat="43.5733" lon="2.96767">
        <ele>241.5</ele>
        <time>2026-05-07T14:14:39.999Z</time>
      </trkpt>
      <trkpt lat="43.5733" lon="2.96767">
        <ele>242</ele>
        <time>2026-05-07T14:14:40.999Z</time>
      </trkpt>
      <trkpt lat="43.5733" lon="2.96767">
        <ele>242.2</ele>
        <time>2026-05-07T14:14:41.999Z</time>
      </trkpt>
      <trkpt lat="43.5733" lon="2.96767">
        <ele>242.8</ele>
        <time>2026-05-07T14:14:42.999Z</time>
      </trkpt>
      <trkpt lat="43.57331" lon="2.96767">
        <ele>242.7</ele>
        <time>2026-05-07T14:14:43.999Z</time>
      </trkpt>
      <trkpt lat="43.57331" lon="2.96767">
        <ele>242.9</ele>
        <time>2026-05-07T14:14:44.999Z</time>
      </trkpt>
      <trkpt lat="43.57331" lon="2.96768">
        <ele>242.8</ele>
        <time>2026-05-07T14:14:45.999Z</time>
      </trkpt>
      <trkpt lat="43.57331" lon="2.96768">
        <ele>242.6</ele>
        <time>2026-05-07T14:14:46.999Z</time>
      </trkpt>
      <trkpt lat="43.57331" lon="2.96768">
        <ele>242.5</ele>
        <time>2026-05-07T14:14:47.999Z</time>
      </trkpt>
      <trkpt lat="43.57332" lon="2.96768">
        <ele>242.6</ele>
        <time>2026-05-07T14:14:48.999Z</time>
      </trkpt>
      <trkpt lat="43.57332" lon="2.96769">
        <ele>242.6</ele>
        <time>2026-05-07T14:14:49.999Z</time>
      </trkpt>
      <trkpt lat="43.57332" lon="2.96769">
        <ele>242.6</ele>
        <time>2026-05-07T14:14:50.999Z</time>
      </trkpt>
      <trkpt lat="43.57332" lon="2.9677">
        <ele>242.6</ele>
        <time>2026-05-07T14:14:51.999Z</time>
      </trkpt>
      <trkpt lat="43.57332" lon="2.9677">
        <ele>242.7</ele>
        <time>2026-05-07T14:14:52.999Z</time>
      </trkpt>
      <trkpt lat="43.57332" lon="2.9677">
        <ele>242.4</ele>
        <time>2026-05-07T14:14:53.999Z</time>
      </trkpt>
      <trkpt lat="43.57333" lon="2.96771">
        <ele>242.2</ele>
        <time>2026-05-07T14:14:54.999Z</time>
      </trkpt>
      <trkpt lat="43.57333" lon="2.96772">
        <ele>242.1</ele>
        <time>2026-05-07T14:14:55.999Z</time>
      </trkpt>
      <trkpt lat="43.57333" lon="2.96772">
        <ele>242.3</ele>
        <time>2026-05-07T14:14:56.999Z</time>
      </trkpt>
      <trkpt lat="43.57333" lon="2.96772">
        <ele>242.2</ele>
        <time>2026-05-07T14:14:57.999Z</time>
      </trkpt>
      <trkpt lat="43.57333" lon="2.96772">
        <ele>242.1</ele>
        <time>2026-05-07T14:14:58.999Z</time>
      </trkpt>
      <trkpt lat="43.57333" lon="2.96772">
        <ele>242.1</ele>
        <time>2026-05-07T14:14:59.999Z</time>
      </trkpt>
      <trkpt lat="43.57333" lon="2.96772">
        <ele>242.2</ele>
        <time>2026-05-07T14:15:00.999Z</time>
      </trkpt>
      <trkpt lat="43.57333" lon="2.96772">
        <ele>242.5</ele>
        <time>2026-05-07T14:15:01.999Z</time>
      </trkpt>
      <trkpt lat="43.57333" lon="2.96772">
        <ele>242.3</ele>
        <time>2026-05-07T14:15:02.999Z</time>
      </trkpt>
      <trkpt lat="43.57333" lon="2.96772">
        <ele>242.5</ele>
        <time>2026-05-07T14:15:03.999Z</time>
      </trkpt>
      <trkpt lat="43.57333" lon="2.96772">
        <ele>242.4</ele>
        <time>2026-05-07T14:15:04.999Z</time>
      </trkpt>
      <trkpt lat="43.57333" lon="2.96772">
        <ele>242.8</ele>
        <time>2026-05-07T14:15:05.999Z</time>
      </trkpt>
      <trkpt lat="43.57333" lon="2.96772">
        <ele>243</ele>
        <time>2026-05-07T14:15:06.999Z</time>
      </trkpt>
      <trkpt lat="43.57333" lon="2.96772">
        <ele>242.9</ele>
        <time>2026-05-07T14:15:07.999Z</time>
      </trkpt>
      <trkpt lat="43.57333" lon="2.96772">
        <ele>243.2</ele>
        <time>2026-05-07T14:15:08.999Z</time>
      </trkpt>
      <trkpt lat="43.57333" lon="2.96772">
        <ele>243.2</ele>
        <time>2026-05-07T14:15:09.999Z</time>
      </trkpt>
      <trkpt lat="43.57333" lon="2.96772">
        <ele>243.3</ele>
        <time>2026-05-07T14:15:10.999Z</time>
      </trkpt>
      <trkpt lat="43.57333" lon="2.96772">
        <ele>243.5</ele>
        <time>2026-05-07T14:15:11.999Z</time>
      </trkpt>
      <trkpt lat="43.57333" lon="2.96772">
        <ele>243.8</ele>
        <time>2026-05-07T14:15:12.999Z</time>
      </trkpt>
      <trkpt lat="43.57333" lon="2.96772">
        <ele>244.2</ele>
        <time>2026-05-07T14:15:13.999Z</time>
      </trkpt>
      <trkpt lat="43.57333" lon="2.96772">
        <ele>244.1</ele>
        <time>2026-05-07T14:15:14.999Z</time>
      </trkpt>
      <trkpt lat="43.57333" lon="2.96772">
        <ele>244.1</ele>
        <time>2026-05-07T14:15:15.999Z</time>
      </trkpt>
      <trkpt lat="43.57333" lon="2.96772">
        <ele>243.7</ele>
        <time>2026-05-07T14:15:16.999Z</time>
      </trkpt>
      <trkpt lat="43.57333" lon="2.96772">
        <ele>243.6</ele>
        <time>2026-05-07T14:15:17.999Z</time>
      </trkpt>
      <trkpt lat="43.57333" lon="2.96772">
        <ele>243.8</ele>
        <time>2026-05-07T14:15:18.999Z</time>
      </trkpt>
      <trkpt lat="43.57332" lon="2.96772">
        <ele>243.9</ele>
        <time>2026-05-07T14:15:19.999Z</time>
      </trkpt>
      <trkpt lat="43.57332" lon="2.96772">
        <ele>244</ele>
        <time>2026-05-07T14:15:20.999Z</time>
      </trkpt>
      <trkpt lat="43.57332" lon="2.96772">
        <ele>244</ele>
        <time>2026-05-07T14:15:21.999Z</time>
      </trkpt>
      <trkpt lat="43.57332" lon="2.96772">
        <ele>243.9</ele>
        <time>2026-05-07T14:15:22.999Z</time>
      </trkpt>
      <trkpt lat="43.57332" lon="2.96772">
        <ele>244.1</ele>
        <time>2026-05-07T14:15:23.999Z</time>
      </trkpt>
      <trkpt lat="43.57332" lon="2.96772">
        <ele>244.4</ele>
        <time>2026-05-07T14:15:24.999Z</time>
      </trkpt>
      <trkpt lat="43.57332" lon="2.96772">
        <ele>244.6</ele>
        <time>2026-05-07T14:15:25.999Z</time>
      </trkpt>
      <trkpt lat="43.57332" lon="2.96772">
        <ele>244.2</ele>
        <time>2026-05-07T14:15:26.999Z</time>
      </trkpt>
      <trkpt lat="43.57332" lon="2.96773">
        <ele>244.2</ele>
        <time>2026-05-07T14:15:27.999Z</time>
      </trkpt>
      <trkpt lat="43.57332" lon="2.96772">
        <ele>243.9</ele>
        <time>2026-05-07T14:15:28.999Z</time>
      </trkpt>
      <trkpt lat="43.57332" lon="2.96772">
        <ele>243.9</ele>
        <time>2026-05-07T14:15:29.999Z</time>
      </trkpt>
      <trkpt lat="43.57332" lon="2.96772">
        <ele>243.3</ele>
        <time>2026-05-07T14:15:30.999Z</time>
      </trkpt>
      <trkpt lat="43.57332" lon="2.96772">
        <ele>243</ele>
        <time>2026-05-07T14:15:31.999Z</time>
      </trkpt>
      <trkpt lat="43.57333" lon="2.96773">
        <ele>242.7</ele>
        <time>2026-05-07T14:15:32.999Z</time>
      </trkpt>
      <trkpt lat="43.57333" lon="2.96774">
        <ele>242.8</ele>
        <time>2026-05-07T14:15:33.999Z</time>
      </trkpt>
      <trkpt lat="43.57333" lon="2.96773">
        <ele>243.2</ele>
        <time>2026-05-07T14:15:34.999Z</time>
      </trkpt>
      <trkpt lat="43.57333" lon="2.96773">
        <ele>243.3</ele>
        <time>2026-05-07T14:15:35.999Z</time>
      </trkpt>
      <trkpt lat="43.57333" lon="2.96772">
        <ele>243.5</ele>
        <time>2026-05-07T14:15:36.999Z</time>
      </trkpt>
      <trkpt lat="43.57333" lon="2.96771">
        <ele>243.4</ele>
        <time>2026-05-07T14:15:37.999Z</time>
      </trkpt>
      <trkpt lat="43.57333" lon="2.96772">
        <ele>243.5</ele>
        <time>2026-05-07T14:15:38.999Z</time>
      </trkpt>
      <trkpt lat="43.57334" lon="2.96772">
        <ele>243.7</ele>
        <time>2026-05-07T14:15:39.999Z</time>
      </trkpt>
      <trkpt lat="43.57334" lon="2.96772">
        <ele>243.6</ele>
        <time>2026-05-07T14:15:40.999Z</time>
      </trkpt>
      <trkpt lat="43.57334" lon="2.96772">
        <ele>243.6</ele>
        <time>2026-05-07T14:15:41.999Z</time>
      </trkpt>
      <trkpt lat="43.57333" lon="2.96772">
        <ele>243.7</ele>
        <time>2026-05-07T14:15:42.999Z</time>
      </trkpt>
      <trkpt lat="43.57333" lon="2.96772">
        <ele>243.9</ele>
        <time>2026-05-07T14:15:43.999Z</time>
      </trkpt>
      <trkpt lat="43.57333" lon="2.96771">
        <ele>244.1</ele>
        <time>2026-05-07T14:15:44.999Z</time>
      </trkpt>
      <trkpt lat="43.57333" lon="2.96771">
        <ele>244.4</ele>
        <time>2026-05-07T14:15:45.999Z</time>
      </trkpt>
      <trkpt lat="43.57333" lon="2.96771">
        <ele>244.7</ele>
        <time>2026-05-07T14:15:46.999Z</time>
      </trkpt>
      <trkpt lat="43.57333" lon="2.96771">
        <ele>245.1</ele>
        <time>2026-05-07T14:15:47.999Z</time>
      </trkpt>
      <trkpt lat="43.57333" lon="2.96771">
        <ele>245.5</ele>
        <time>2026-05-07T14:15:48.999Z</time>
      </trkpt>
      <trkpt lat="43.57333" lon="2.96771">
        <ele>245.9</ele>
        <time>2026-05-07T14:15:49.999Z</time>
      </trkpt>
      <trkpt lat="43.57333" lon="2.96771">
        <ele>246.3</ele>
        <time>2026-05-07T14:15:50.999Z</time>
      </trkpt>
      <trkpt lat="43.57333" lon="2.96771">
        <ele>246.4</ele>
        <time>2026-05-07T14:15:51.999Z</time>
      </trkpt>
      <trkpt lat="43.57332" lon="2.96771">
        <ele>246.7</ele>
        <time>2026-05-07T14:15:52.999Z</time>
      </trkpt>
      <trkpt lat="43.57332" lon="2.96771">
        <ele>246.6</ele>
        <time>2026-05-07T14:15:53.999Z</time>
      </trkpt>
      <trkpt lat="43.57332" lon="2.9677">
        <ele>246.5</ele>
        <time>2026-05-07T14:15:54.999Z</time>
      </trkpt>
      <trkpt lat="43.57332" lon="2.9677">
        <ele>246.8</ele>
        <time>2026-05-07T14:15:55.999Z</time>
      </trkpt>
      <trkpt lat="43.57332" lon="2.9677">
        <ele>246.5</ele>
        <time>2026-05-07T14:15:56.999Z</time>
      </trkpt>
      <trkpt lat="43.57332" lon="2.9677">
        <ele>246.4</ele>
        <time>2026-05-07T14:15:57.999Z</time>
      </trkpt>
      <trkpt lat="43.57332" lon="2.9677">
        <ele>246.3</ele>
        <time>2026-05-07T14:15:58.999Z</time>
      </trkpt>
      <trkpt lat="43.57332" lon="2.9677">
        <ele>246.3</ele>
        <time>2026-05-07T14:15:59.999Z</time>
      </trkpt>
      <trkpt lat="43.57332" lon="2.9677">
        <ele>246.4</ele>
        <time>2026-05-07T14:16:00.999Z</time>
      </trkpt>
      <trkpt lat="43.57332" lon="2.9677">
        <ele>246.3</ele>
        <time>2026-05-07T14:16:01.999Z</time>
      </trkpt>
      <trkpt lat="43.57332" lon="2.9677">
        <ele>246.3</ele>
        <time>2026-05-07T14:16:02.999Z</time>
      </trkpt>
      <trkpt lat="43.57332" lon="2.96769">
        <ele>246.1</ele>
        <time>2026-05-07T14:16:03.999Z</time>
      </trkpt>
      <trkpt lat="43.57332" lon="2.96769">
        <ele>246.5</ele>
        <time>2026-05-07T14:16:04.999Z</time>
      </trkpt>
      <trkpt lat="43.57332" lon="2.96769">
        <ele>246.5</ele>
        <time>2026-05-07T14:16:05.999Z</time>
      </trkpt>
      <trkpt lat="43.57332" lon="2.96769">
        <ele>246.4</ele>
        <time>2026-05-07T14:16:06.999Z</time>
      </trkpt>
      <trkpt lat="43.57332" lon="2.96769">
        <ele>246.2</ele>
        <time>2026-05-07T14:16:07.999Z</time>
      </trkpt>
      <trkpt lat="43.57332" lon="2.96769">
        <ele>245.8</ele>
        <time>2026-05-07T14:16:08.999Z</time>
      </trkpt>
      <trkpt lat="43.57332" lon="2.96769">
        <ele>245.5</ele>
        <time>2026-05-07T14:16:09.999Z</time>
      </trkpt>
      <trkpt lat="43.57332" lon="2.96769">
        <ele>245.1</ele>
        <time>2026-05-07T14:16:10.999Z</time>
      </trkpt>
      <trkpt lat="43.57333" lon="2.96769">
        <ele>244.7</ele>
        <time>2026-05-07T14:16:11.999Z</time>
      </trkpt>
      <trkpt lat="43.57333" lon="2.96769">
        <ele>244.6</ele>
        <time>2026-05-07T14:16:12.999Z</time>
      </trkpt>
      <trkpt lat="43.57333" lon="2.96769">
        <ele>244.4</ele>
        <time>2026-05-07T14:16:13.999Z</time>
      </trkpt>
      <trkpt lat="43.57333" lon="2.96769">
        <ele>244.7</ele>
        <time>2026-05-07T14:16:14.999Z</time>
      </trkpt>
      <trkpt lat="43.57333" lon="2.96769">
        <ele>244.4</ele>
        <time>2026-05-07T14:16:15.999Z</time>
      </trkpt>
      <trkpt lat="43.57333" lon="2.96769">
        <ele>244.8</ele>
        <time>2026-05-07T14:16:16.999Z</time>
      </trkpt>
      <trkpt lat="43.57333" lon="2.96769">
        <ele>245.5</ele>
        <time>2026-05-07T14:16:17.999Z</time>
      </trkpt>
      <trkpt lat="43.57333" lon="2.96769">
        <ele>246.2</ele>
        <time>2026-05-07T14:16:18.999Z</time>
      </trkpt>
      <trkpt lat="43.57333" lon="2.96769">
        <ele>246.7</ele>
        <time>2026-05-07T14:16:19.999Z</time>
      </trkpt>
      <trkpt lat="43.57333" lon="2.96769">
        <ele>246.9</ele>
        <time>2026-05-07T14:16:20.999Z</time>
      </trkpt>
      <trkpt lat="43.57333" lon="2.96769">
        <ele>247.3</ele>
        <time>2026-05-07T14:16:21.999Z</time>
      </trkpt>
      <trkpt lat="43.57333" lon="2.96768">
        <ele>247.6</ele>
        <time>2026-05-07T14:16:22.999Z</time>
      </trkpt>
      <trkpt lat="43.57333" lon="2.96768">
        <ele>247.7</ele>
        <time>2026-05-07T14:16:23.999Z</time>
      </trkpt>
      <trkpt lat="43.57333" lon="2.96768">
        <ele>247.8</ele>
        <time>2026-05-07T14:16:24.999Z</time>
      </trkpt>
      <trkpt lat="43.57333" lon="2.96767">
        <ele>248.1</ele>
        <time>2026-05-07T14:16:25.999Z</time>
      </trkpt>
      <trkpt lat="43.57332" lon="2.96767">
        <ele>248.4</ele>
        <time>2026-05-07T14:16:26.999Z</time>
      </trkpt>
      <trkpt lat="43.57332" lon="2.96767">
        <ele>248.4</ele>
        <time>2026-05-07T14:16:27.999Z</time>
      </trkpt>
      <trkpt lat="43.57332" lon="2.96767">
        <ele>248.2</ele>
        <time>2026-05-07T14:16:28.999Z</time>
      </trkpt>
      <trkpt lat="43.57332" lon="2.96767">
        <ele>248</ele>
        <time>2026-05-07T14:16:29.999Z</time>
      </trkpt>
      <trkpt lat="43.57332" lon="2.96767">
        <ele>248</ele>
        <time>2026-05-07T14:16:30.999Z</time>
      </trkpt>
      <trkpt lat="43.57332" lon="2.96767">
        <ele>248.1</ele>
        <time>2026-05-07T14:16:31.999Z</time>
      </trkpt>
      <trkpt lat="43.57333" lon="2.96767">
        <ele>248.2</ele>
        <time>2026-05-07T14:16:32.999Z</time>
      </trkpt>
      <trkpt lat="43.57333" lon="2.96766">
        <ele>248.2</ele>
        <time>2026-05-07T14:16:33.999Z</time>
      </trkpt>
      <trkpt lat="43.57332" lon="2.96766">
        <ele>248.5</ele>
        <time>2026-05-07T14:16:34.999Z</time>
      </trkpt>
      <trkpt lat="43.57332" lon="2.96765">
        <ele>248.6</ele>
        <time>2026-05-07T14:16:35.999Z</time>
      </trkpt>
      <trkpt lat="43.57332" lon="2.96765">
        <ele>248.8</ele>
        <time>2026-05-07T14:16:36.999Z</time>
      </trkpt>
      <trkpt lat="43.57332" lon="2.96765">
        <ele>249.2</ele>
        <time>2026-05-07T14:16:37.999Z</time>
      </trkpt>
      <trkpt lat="43.57332" lon="2.96765">
        <ele>249.3</ele>
        <time>2026-05-07T14:16:38.999Z</time>
      </trkpt>
      <trkpt lat="43.57332" lon="2.96764">
        <ele>249.6</ele>
        <time>2026-05-07T14:16:39.999Z</time>
      </trkpt>
      <trkpt lat="43.57332" lon="2.96764">
        <ele>250</ele>
        <time>2026-05-07T14:16:40.999Z</time>
      </trkpt>
      <trkpt lat="43.57333" lon="2.96764">
        <ele>250.5</ele>
        <time>2026-05-07T14:16:41.999Z</time>
      </trkpt>
      <trkpt lat="43.57333" lon="2.96764">
        <ele>250.7</ele>
        <time>2026-05-07T14:16:42.999Z</time>
      </trkpt>
      <trkpt lat="43.57333" lon="2.96764">
        <ele>250.9</ele>
        <time>2026-05-07T14:16:43.999Z</time>
      </trkpt>
      <trkpt lat="43.57333" lon="2.96763">
        <ele>251</ele>
        <time>2026-05-07T14:16:44.999Z</time>
      </trkpt>
      <trkpt lat="43.57332" lon="2.96763">
        <ele>251</ele>
        <time>2026-05-07T14:16:45.999Z</time>
      </trkpt>
      <trkpt lat="43.57332" lon="2.96763">
        <ele>250.9</ele>
        <time>2026-05-07T14:16:46.999Z</time>
      </trkpt>
      <trkpt lat="43.57332" lon="2.96763">
        <ele>250.8</ele>
        <time>2026-05-07T14:16:47.999Z</time>
      </trkpt>
      <trkpt lat="43.57332" lon="2.96763">
        <ele>250.6</ele>
        <time>2026-05-07T14:16:48.999Z</time>
      </trkpt>
      <trkpt lat="43.57332" lon="2.96763">
        <ele>250.7</ele>
        <time>2026-05-07T14:16:49.999Z</time>
      </trkpt>
      <trkpt lat="43.57332" lon="2.96763">
        <ele>251</ele>
        <time>2026-05-07T14:16:50.999Z</time>
      </trkpt>
      <trkpt lat="43.57332" lon="2.96761">
        <ele>251.3</ele>
        <time>2026-05-07T14:16:51.999Z</time>
      </trkpt>
      <trkpt lat="43.57332" lon="2.96761">
        <ele>251.5</ele>
        <time>2026-05-07T14:16:52.999Z</time>
      </trkpt>
      <trkpt lat="43.57332" lon="2.96762">
        <ele>251.4</ele>
        <time>2026-05-07T14:16:53.999Z</time>
      </trkpt>
      <trkpt lat="43.57332" lon="2.96762">
        <ele>251.4</ele>
        <time>2026-05-07T14:16:54.999Z</time>
      </trkpt>
      <trkpt lat="43.57332" lon="2.96762">
        <ele>251.4</ele>
        <time>2026-05-07T14:16:55.999Z</time>
      </trkpt>
      <trkpt lat="43.57332" lon="2.96762">
        <ele>251.6</ele>
        <time>2026-05-07T14:16:56.999Z</time>
      </trkpt>
      <trkpt lat="43.57332" lon="2.96762">
        <ele>251.3</ele>
        <time>2026-05-07T14:16:57.999Z</time>
      </trkpt>
      <trkpt lat="43.57331" lon="2.96763">
        <ele>251.3</ele>
        <time>2026-05-07T14:16:58.999Z</time>
      </trkpt>
      <trkpt lat="43.57331" lon="2.96763">
        <ele>251.1</ele>
        <time>2026-05-07T14:16:59.999Z</time>
      </trkpt>
      <trkpt lat="43.57331" lon="2.96763">
        <ele>250.9</ele>
        <time>2026-05-07T14:17:00.999Z</time>
      </trkpt>
      <trkpt lat="43.57331" lon="2.96763">
        <ele>250.6</ele>
        <time>2026-05-07T14:17:01.999Z</time>
      </trkpt>
      <trkpt lat="43.57331" lon="2.96763">
        <ele>250.5</ele>
        <time>2026-05-07T14:17:02.999Z</time>
      </trkpt>
      <trkpt lat="43.57331" lon="2.96763">
        <ele>250.3</ele>
        <time>2026-05-07T14:17:03.999Z</time>
      </trkpt>
      <trkpt lat="43.57331" lon="2.96764">
        <ele>250.2</ele>
        <time>2026-05-07T14:17:04.999Z</time>
      </trkpt>
      <trkpt lat="43.57331" lon="2.96764">
        <ele>250.4</ele>
        <time>2026-05-07T14:17:05.999Z</time>
      </trkpt>
      <trkpt lat="43.57331" lon="2.96764">
        <ele>250.3</ele>
        <time>2026-05-07T14:17:06.999Z</time>
      </trkpt>
      <trkpt lat="43.57331" lon="2.96765">
        <ele>250.1</ele>
        <time>2026-05-07T14:17:07.999Z</time>
      </trkpt>
      <trkpt lat="43.57331" lon="2.96765">
        <ele>249.9</ele>
        <time>2026-05-07T14:17:08.999Z</time>
      </trkpt>
      <trkpt lat="43.57331" lon="2.96765">
        <ele>249.7</ele>
        <time>2026-05-07T14:17:09.999Z</time>
      </trkpt>
      <trkpt lat="43.5733" lon="2.96765">
        <ele>250</ele>
        <time>2026-05-07T14:17:10.999Z</time>
      </trkpt>
      <trkpt lat="43.5733" lon="2.96765">
        <ele>250</ele>
        <time>2026-05-07T14:17:11.999Z</time>
      </trkpt>
      <trkpt lat="43.5733" lon="2.96765">
        <ele>250</ele>
        <time>2026-05-07T14:17:12.999Z</time>
      </trkpt>
      <trkpt lat="43.5733" lon="2.96765">
        <ele>250</ele>
        <time>2026-05-07T14:17:13.999Z</time>
      </trkpt>
      <trkpt lat="43.5733" lon="2.96766">
        <ele>250.8</ele>
        <time>2026-05-07T14:17:14.999Z</time>
      </trkpt>
      <trkpt lat="43.5733" lon="2.96766">
        <ele>251.4</ele>
        <time>2026-05-07T14:17:15.999Z</time>
      </trkpt>
      <trkpt lat="43.5733" lon="2.96766">
        <ele>251.9</ele>
        <time>2026-05-07T14:17:16.999Z</time>
      </trkpt>
      <trkpt lat="43.5733" lon="2.96766">
        <ele>252.2</ele>
        <time>2026-05-07T14:17:17.999Z</time>
      </trkpt>
      <trkpt lat="43.5733" lon="2.96766">
        <ele>252.3</ele>
        <time>2026-05-07T14:17:18.999Z</time>
      </trkpt>
      <trkpt lat="43.5733" lon="2.96766">
        <ele>252.6</ele>
        <time>2026-05-07T14:17:19.999Z</time>
      </trkpt>
      <trkpt lat="43.5733" lon="2.96766">
        <ele>252.6</ele>
        <time>2026-05-07T14:17:20.999Z</time>
      </trkpt>
      <trkpt lat="43.5733" lon="2.96766">
        <ele>252.8</ele>
        <time>2026-05-07T14:17:21.999Z</time>
      </trkpt>
      <trkpt lat="43.5733" lon="2.96766">
        <ele>252.6</ele>
        <time>2026-05-07T14:17:22.999Z</time>
      </trkpt>
      <trkpt lat="43.57329" lon="2.96766">
        <ele>252.2</ele>
        <time>2026-05-07T14:17:23.999Z</time>
      </trkpt>
      <trkpt lat="43.57329" lon="2.96767">
        <ele>251.8</ele>
        <time>2026-05-07T14:17:24.999Z</time>
      </trkpt>
      <trkpt lat="43.57329" lon="2.96767">
        <ele>251.6</ele>
        <time>2026-05-07T14:17:25.999Z</time>
      </trkpt>
      <trkpt lat="43.57329" lon="2.96767">
        <ele>251.4</ele>
        <time>2026-05-07T14:17:26.999Z</time>
      </trkpt>
      <trkpt lat="43.57329" lon="2.96767">
        <ele>250.8</ele>
        <time>2026-05-07T14:17:27.999Z</time>
      </trkpt>
      <trkpt lat="43.57329" lon="2.96767">
        <ele>250.6</ele>
        <time>2026-05-07T14:17:28.999Z</time>
      </trkpt>
      <trkpt lat="43.57329" lon="2.96767">
        <ele>250.6</ele>
        <time>2026-05-07T14:17:29.999Z</time>
      </trkpt>
      <trkpt lat="43.57329" lon="2.96767">
        <ele>249.9</ele>
        <time>2026-05-07T14:17:30.999Z</time>
      </trkpt>
      <trkpt lat="43.57329" lon="2.96766">
        <ele>249.4</ele>
        <time>2026-05-07T14:17:31.999Z</time>
      </trkpt>
      <trkpt lat="43.57329" lon="2.96767">
        <ele>248.9</ele>
        <time>2026-05-07T14:17:32.999Z</time>
      </trkpt>
      <trkpt lat="43.57328" lon="2.96769">
        <ele>248.6</ele>
        <time>2026-05-07T14:17:33.999Z</time>
      </trkpt>
      <trkpt lat="43.57328" lon="2.9677">
        <ele>248.4</ele>
        <time>2026-05-07T14:17:34.999Z</time>
      </trkpt>
      <trkpt lat="43.57328" lon="2.96771">
        <ele>248.2</ele>
        <time>2026-05-07T14:17:35.999Z</time>
      </trkpt>
      <trkpt lat="43.57327" lon="2.96773">
        <ele>248</ele>
        <time>2026-05-07T14:17:36.999Z</time>
      </trkpt>
      <trkpt lat="43.57326" lon="2.96773">
        <ele>247.4</ele>
        <time>2026-05-07T14:17:37.999Z</time>
      </trkpt>
      <trkpt lat="43.57325" lon="2.96774">
        <ele>246.8</ele>
        <time>2026-05-07T14:17:38.999Z</time>
      </trkpt>
      <trkpt lat="43.57324" lon="2.96774">
        <ele>245.9</ele>
        <time>2026-05-07T14:17:39.999Z</time>
      </trkpt>
      <trkpt lat="43.57323" lon="2.96775">
        <ele>245.5</ele>
        <time>2026-05-07T14:17:40.999Z</time>
      </trkpt>
      <trkpt lat="43.57322" lon="2.96776">
        <ele>245.2</ele>
        <time>2026-05-07T14:17:41.999Z</time>
      </trkpt>
      <trkpt lat="43.57321" lon="2.96776">
        <ele>244.8</ele>
        <time>2026-05-07T14:17:42.999Z</time>
      </trkpt>
      <trkpt lat="43.5732" lon="2.96775">
        <ele>244.2</ele>
        <time>2026-05-07T14:17:43.999Z</time>
      </trkpt>
      <trkpt lat="43.5732" lon="2.96775">
        <ele>244.3</ele>
        <time>2026-05-07T14:17:44.999Z</time>
      </trkpt>
      <trkpt lat="43.57319" lon="2.96776">
        <ele>243.9</ele>
        <time>2026-05-07T14:17:45.999Z</time>
      </trkpt>
      <trkpt lat="43.57318" lon="2.96777">
        <ele>244</ele>
        <time>2026-05-07T14:17:46.999Z</time>
      </trkpt>
      <trkpt lat="43.57318" lon="2.9678">
        <ele>244</ele>
        <time>2026-05-07T14:17:48.999Z</time>
      </trkpt>
      <trkpt lat="43.57318" lon="2.96782">
        <ele>244.2</ele>
        <time>2026-05-07T14:17:49.999Z</time>
      </trkpt>
      <trkpt lat="43.57317" lon="2.96782">
        <ele>244.3</ele>
        <time>2026-05-07T14:17:50.999Z</time>
      </trkpt>
      <trkpt lat="43.57317" lon="2.96783">
        <ele>244.4</ele>
        <time>2026-05-07T14:17:51.999Z</time>
      </trkpt>
      <trkpt lat="43.57317" lon="2.96783">
        <ele>244.6</ele>
        <time>2026-05-07T14:17:52.999Z</time>
      </trkpt>
      <trkpt lat="43.57318" lon="2.96784">
        <ele>244.6</ele>
        <time>2026-05-07T14:17:53.999Z</time>
      </trkpt>
      <trkpt lat="43.57318" lon="2.96784">
        <ele>244.8</ele>
        <time>2026-05-07T14:17:54.999Z</time>
      </trkpt>
      <trkpt lat="43.57318" lon="2.96784">
        <ele>244.9</ele>
        <time>2026-05-07T14:17:55.999Z</time>
      </trkpt>
      <trkpt lat="43.57317" lon="2.96784">
        <ele>245.1</ele>
        <time>2026-05-07T14:17:56.999Z</time>
      </trkpt>
      <trkpt lat="43.57317" lon="2.96783">
        <ele>245</ele>
        <time>2026-05-07T14:17:57.999Z</time>
      </trkpt>
      <trkpt lat="43.57317" lon="2.96783">
        <ele>244.9</ele>
        <time>2026-05-07T14:17:58.999Z</time>
      </trkpt>
      <trkpt lat="43.57318" lon="2.96783">
        <ele>244.8</ele>
        <time>2026-05-07T14:17:59.999Z</time>
      </trkpt>
      <trkpt lat="43.57318" lon="2.96783">
        <ele>245.1</ele>
        <time>2026-05-07T14:18:00.999Z</time>
      </trkpt>
      <trkpt lat="43.57318" lon="2.96783">
        <ele>245.3</ele>
        <time>2026-05-07T14:18:01.999Z</time>
      </trkpt>
      <trkpt lat="43.57319" lon="2.96784">
        <ele>245.4</ele>
        <time>2026-05-07T14:18:02.999Z</time>
      </trkpt>
      <trkpt lat="43.57319" lon="2.96784">
        <ele>245.5</ele>
        <time>2026-05-07T14:18:03.999Z</time>
      </trkpt>
      <trkpt lat="43.57319" lon="2.96783">
        <ele>245.8</ele>
        <time>2026-05-07T14:18:04.999Z</time>
      </trkpt>
      <trkpt lat="43.57319" lon="2.96783">
        <ele>246.1</ele>
        <time>2026-05-07T14:18:05.999Z</time>
      </trkpt>
      <trkpt lat="43.57319" lon="2.96783">
        <ele>246.3</ele>
        <time>2026-05-07T14:18:06.999Z</time>
      </trkpt>
      <trkpt lat="43.57318" lon="2.96783">
        <ele>246.5</ele>
        <time>2026-05-07T14:18:07.999Z</time>
      </trkpt>
      <trkpt lat="43.57318" lon="2.96782">
        <ele>246.7</ele>
        <time>2026-05-07T14:18:08.999Z</time>
      </trkpt>
      <trkpt lat="43.57318" lon="2.96782">
        <ele>246.9</ele>
        <time>2026-05-07T14:18:09.999Z</time>
      </trkpt>
      <trkpt lat="43.57327" lon="2.96782">
        <ele>251.8</ele>
        <time>2026-05-07T14:19:50.000Z</time>
      </trkpt>
      <trkpt lat="43.57325" lon="2.96782">
        <ele>250.4</ele>
        <time>2026-05-07T14:19:51.000Z</time>
      </trkpt>
      <trkpt lat="43.57324" lon="2.96782">
        <ele>249.7</ele>
        <time>2026-05-07T14:19:52.000Z</time>
      </trkpt>
      <trkpt lat="43.57322" lon="2.96782">
        <ele>248.9</ele>
        <time>2026-05-07T14:19:53.000Z</time>
      </trkpt>
      <trkpt lat="43.57318" lon="2.9678">
        <ele>247.3</ele>
        <time>2026-05-07T14:19:54.000Z</time>
      </trkpt>
      <trkpt lat="43.57317" lon="2.96781">
        <ele>246.3</ele>
        <time>2026-05-07T14:19:55.000Z</time>
      </trkpt>
      <trkpt lat="43.57316" lon="2.96781">
        <ele>244.9</ele>
        <time>2026-05-07T14:19:56.000Z</time>
      </trkpt>
      <trkpt lat="43.57315" lon="2.96782">
        <ele>245.1</ele>
        <time>2026-05-07T14:19:57.000Z</time>
      </trkpt>
      <trkpt lat="43.57315" lon="2.96783">
        <ele>244.6</ele>
        <time>2026-05-07T14:19:58.000Z</time>
      </trkpt>
      <trkpt lat="43.57314" lon="2.96785">
        <ele>244.5</ele>
        <time>2026-05-07T14:19:59.000Z</time>
      </trkpt>
      <trkpt lat="43.57313" lon="2.96786">
        <ele>243.4</ele>
        <time>2026-05-07T14:20:00.000Z</time>
      </trkpt>
      <trkpt lat="43.57313" lon="2.96788">
        <ele>242.5</ele>
        <time>2026-05-07T14:20:01.000Z</time>
      </trkpt>
      <trkpt lat="43.57314" lon="2.9679">
        <ele>241.9</ele>
        <time>2026-05-07T14:20:02.000Z</time>
      </trkpt>
      <trkpt lat="43.57314" lon="2.96791">
        <ele>241.3</ele>
        <time>2026-05-07T14:20:03.000Z</time>
      </trkpt>
      <trkpt lat="43.57314" lon="2.96792">
        <ele>241.3</ele>
        <time>2026-05-07T14:20:04.000Z</time>
      </trkpt>
      <trkpt lat="43.57314" lon="2.96791">
        <ele>241</ele>
        <time>2026-05-07T14:20:05.000Z</time>
      </trkpt>
      <trkpt lat="43.57314" lon="2.96792">
        <ele>241.2</ele>
        <time>2026-05-07T14:20:06.000Z</time>
      </trkpt>
      <trkpt lat="43.57314" lon="2.96792">
        <ele>240.9</ele>
        <time>2026-05-07T14:20:07.000Z</time>
      </trkpt>
      <trkpt lat="43.57314" lon="2.96791">
        <ele>240.9</ele>
        <time>2026-05-07T14:20:08.000Z</time>
      </trkpt>
      <trkpt lat="43.57314" lon="2.96791">
        <ele>241.1</ele>
        <time>2026-05-07T14:20:09.000Z</time>
      </trkpt>
      <trkpt lat="43.57314" lon="2.96791">
        <ele>241.1</ele>
        <time>2026-05-07T14:20:10.000Z</time>
      </trkpt>
      <trkpt lat="43.57315" lon="2.96791">
        <ele>240.8</ele>
        <time>2026-05-07T14:20:11.000Z</time>
      </trkpt>
      <trkpt lat="43.57316" lon="2.9679">
        <ele>239.7</ele>
        <time>2026-05-07T14:20:12.000Z</time>
      </trkpt>
      <trkpt lat="43.57316" lon="2.9679">
        <ele>239</ele>
        <time>2026-05-07T14:20:13.000Z</time>
      </trkpt>
      <trkpt lat="43.57316" lon="2.9679">
        <ele>238.6</ele>
        <time>2026-05-07T14:20:14.000Z</time>
      </trkpt>
      <trkpt lat="43.57316" lon="2.9679">
        <ele>238.2</ele>
        <time>2026-05-07T14:20:15.000Z</time>
      </trkpt>
      <trkpt lat="43.57316" lon="2.9679">
        <ele>238</ele>
        <time>2026-05-07T14:20:16.000Z</time>
      </trkpt>
      <trkpt lat="43.57316" lon="2.9679">
        <ele>237.7</ele>
        <time>2026-05-07T14:20:17.000Z</time>
      </trkpt>
      <trkpt lat="43.57316" lon="2.96789">
        <ele>237.4</ele>
        <time>2026-05-07T14:20:18.000Z</time>
      </trkpt>
      <trkpt lat="43.57316" lon="2.96789">
        <ele>237.2</ele>
        <time>2026-05-07T14:20:19.000Z</time>
      </trkpt>
      <trkpt lat="43.57316" lon="2.96789">
        <ele>237.1</ele>
        <time>2026-05-07T14:20:20.000Z</time>
      </trkpt>
      <trkpt lat="43.57316" lon="2.96789">
        <ele>237.2</ele>
        <time>2026-05-07T14:20:21.000Z</time>
      </trkpt>
      <trkpt lat="43.57316" lon="2.96789">
        <ele>236.9</ele>
        <time>2026-05-07T14:20:22.000Z</time>
      </trkpt>
      <trkpt lat="43.57314" lon="2.96788">
        <ele>236.5</ele>
        <time>2026-05-07T14:20:23.000Z</time>
      </trkpt>
      <trkpt lat="43.57313" lon="2.96789">
        <ele>235.8</ele>
        <time>2026-05-07T14:20:24.000Z</time>
      </trkpt>
      <trkpt lat="43.57312" lon="2.9679">
        <ele>235.5</ele>
        <time>2026-05-07T14:20:25.000Z</time>
      </trkpt>
      <trkpt lat="43.57311" lon="2.96791">
        <ele>235.1</ele>
        <time>2026-05-07T14:20:26.000Z</time>
      </trkpt>
      <trkpt lat="43.57311" lon="2.96792">
        <ele>234.8</ele>
        <time>2026-05-07T14:20:27.000Z</time>
      </trkpt>
      <trkpt lat="43.5731" lon="2.96793">
        <ele>234.6</ele>
        <time>2026-05-07T14:20:28.000Z</time>
      </trkpt>
      <trkpt lat="43.5731" lon="2.96794">
        <ele>234.8</ele>
        <time>2026-05-07T14:20:29.000Z</time>
      </trkpt>
      <trkpt lat="43.57309" lon="2.96794">
        <ele>234.8</ele>
        <time>2026-05-07T14:20:30.000Z</time>
      </trkpt>
      <trkpt lat="43.57309" lon="2.96794">
        <ele>234.8</ele>
        <time>2026-05-07T14:20:31.000Z</time>
      </trkpt>
      <trkpt lat="43.57309" lon="2.96794">
        <ele>235.2</ele>
        <time>2026-05-07T14:20:32.000Z</time>
      </trkpt>
      <trkpt lat="43.57309" lon="2.96794">
        <ele>235.2</ele>
        <time>2026-05-07T14:20:33.000Z</time>
      </trkpt>
      <trkpt lat="43.57309" lon="2.96795">
        <ele>235.3</ele>
        <time>2026-05-07T14:20:34.000Z</time>
      </trkpt>
      <trkpt lat="43.57309" lon="2.96795">
        <ele>235.3</ele>
        <time>2026-05-07T14:20:35.000Z</time>
      </trkpt>
      <trkpt lat="43.57309" lon="2.96795">
        <ele>235.1</ele>
        <time>2026-05-07T14:20:36.000Z</time>
      </trkpt>
      <trkpt lat="43.57308" lon="2.96795">
        <ele>235.1</ele>
        <time>2026-05-07T14:20:37.000Z</time>
      </trkpt>
      <trkpt lat="43.57307" lon="2.96797">
        <ele>235.1</ele>
        <time>2026-05-07T14:20:38.000Z</time>
      </trkpt>
      <trkpt lat="43.57306" lon="2.96799">
        <ele>235</ele>
        <time>2026-05-07T14:20:39.000Z</time>
      </trkpt>
      <trkpt lat="43.57305" lon="2.968">
        <ele>234.9</ele>
        <time>2026-05-07T14:20:40.000Z</time>
      </trkpt>
      <trkpt lat="43.57305" lon="2.96801">
        <ele>234.9</ele>
        <time>2026-05-07T14:20:41.000Z</time>
      </trkpt>
      <trkpt lat="43.57304" lon="2.96802">
        <ele>234.7</ele>
        <time>2026-05-07T14:20:42.000Z</time>
      </trkpt>
      <trkpt lat="43.57303" lon="2.96805">
        <ele>234.6</ele>
        <time>2026-05-07T14:20:43.000Z</time>
      </trkpt>
      <trkpt lat="43.57303" lon="2.96807">
        <ele>234.7</ele>
        <time>2026-05-07T14:20:44.000Z</time>
      </trkpt>
      <trkpt lat="43.57302" lon="2.9681">
        <ele>234.7</ele>
        <time>2026-05-07T14:20:45.000Z</time>
      </trkpt>
      <trkpt lat="43.57302" lon="2.96811">
        <ele>234.7</ele>
        <time>2026-05-07T14:20:46.000Z</time>
      </trkpt>
      <trkpt lat="43.57302" lon="2.96812">
        <ele>234.6</ele>
        <time>2026-05-07T14:20:47.000Z</time>
      </trkpt>
      <trkpt lat="43.57301" lon="2.96813">
        <ele>234.2</ele>
        <time>2026-05-07T14:20:48.000Z</time>
      </trkpt>
      <trkpt lat="43.573" lon="2.96814">
        <ele>234.1</ele>
        <time>2026-05-07T14:20:49.000Z</time>
      </trkpt>
      <trkpt lat="43.57299" lon="2.96816">
        <ele>234</ele>
        <time>2026-05-07T14:20:50.000Z</time>
      </trkpt>
      <trkpt lat="43.57299" lon="2.96817">
        <ele>233.9</ele>
        <time>2026-05-07T14:20:51.000Z</time>
      </trkpt>
      <trkpt lat="43.57298" lon="2.96817">
        <ele>233.9</ele>
        <time>2026-05-07T14:20:52.000Z</time>
      </trkpt>
      <trkpt lat="43.57297" lon="2.96818">
        <ele>234.3</ele>
        <time>2026-05-07T14:20:53.000Z</time>
      </trkpt>
      <trkpt lat="43.57296" lon="2.96818">
        <ele>234.5</ele>
        <time>2026-05-07T14:20:54.000Z</time>
      </trkpt>
      <trkpt lat="43.57294" lon="2.96818">
        <ele>234</ele>
        <time>2026-05-07T14:20:55.000Z</time>
      </trkpt>
      <trkpt lat="43.57293" lon="2.96819">
        <ele>234.2</ele>
        <time>2026-05-07T14:20:56.000Z</time>
      </trkpt>
      <trkpt lat="43.57292" lon="2.9682">
        <ele>234.4</ele>
        <time>2026-05-07T14:20:57.000Z</time>
      </trkpt>
      <trkpt lat="43.57292" lon="2.96821">
        <ele>234.2</ele>
        <time>2026-05-07T14:20:58.000Z</time>
      </trkpt>
      <trkpt lat="43.5729" lon="2.96822">
        <ele>234.1</ele>
        <time>2026-05-07T14:20:59.000Z</time>
      </trkpt>
      <trkpt lat="43.57289" lon="2.96823">
        <ele>233.9</ele>
        <time>2026-05-07T14:21:00.000Z</time>
      </trkpt>
      <trkpt lat="43.57289" lon="2.96824">
        <ele>233.7</ele>
        <time>2026-05-07T14:21:01.000Z</time>
      </trkpt>
      <trkpt lat="43.57289" lon="2.96824">
        <ele>234.2</ele>
        <time>2026-05-07T14:21:02.000Z</time>
      </trkpt>
      <trkpt lat="43.57289" lon="2.96824">
        <ele>234.1</ele>
        <time>2026-05-07T14:21:03.000Z</time>
      </trkpt>
      <trkpt lat="43.57289" lon="2.96825">
        <ele>233.9</ele>
        <time>2026-05-07T14:21:04.000Z</time>
      </trkpt>
      <trkpt lat="43.57289" lon="2.96825">
        <ele>233.5</ele>
        <time>2026-05-07T14:21:05.000Z</time>
      </trkpt>
      <trkpt lat="43.57288" lon="2.96825">
        <ele>233.2</ele>
        <time>2026-05-07T14:21:06.000Z</time>
      </trkpt>
      <trkpt lat="43.57288" lon="2.96825">
        <ele>233.1</ele>
        <time>2026-05-07T14:21:07.000Z</time>
      </trkpt>
      <trkpt lat="43.57288" lon="2.96825">
        <ele>233.6</ele>
        <time>2026-05-07T14:21:08.000Z</time>
      </trkpt>
      <trkpt lat="43.57288" lon="2.96826">
        <ele>233.7</ele>
        <time>2026-05-07T14:21:09.000Z</time>
      </trkpt>
      <trkpt lat="43.57288" lon="2.96826">
        <ele>233.8</ele>
        <time>2026-05-07T14:21:10.000Z</time>
      </trkpt>
      <trkpt lat="43.57288" lon="2.96826">
        <ele>233.9</ele>
        <time>2026-05-07T14:21:11.000Z</time>
      </trkpt>
      <trkpt lat="43.57288" lon="2.96826">
        <ele>233.7</ele>
        <time>2026-05-07T14:21:12.000Z</time>
      </trkpt>
      <trkpt lat="43.57288" lon="2.96826">
        <ele>233.6</ele>
        <time>2026-05-07T14:21:13.000Z</time>
      </trkpt>
      <trkpt lat="43.57288" lon="2.96826">
        <ele>233.7</ele>
        <time>2026-05-07T14:21:14.000Z</time>
      </trkpt>
      <trkpt lat="43.57288" lon="2.96827">
        <ele>233.7</ele>
        <time>2026-05-07T14:21:15.000Z</time>
      </trkpt>
      <trkpt lat="43.57288" lon="2.96827">
        <ele>233.6</ele>
        <time>2026-05-07T14:21:16.000Z</time>
      </trkpt>
      <trkpt lat="43.57288" lon="2.96827">
        <ele>233.7</ele>
        <time>2026-05-07T14:21:17.000Z</time>
      </trkpt>
      <trkpt lat="43.57288" lon="2.96827">
        <ele>233.6</ele>
        <time>2026-05-07T14:21:18.000Z</time>
      </trkpt>
      <trkpt lat="43.57288" lon="2.96827">
        <ele>233.4</ele>
        <time>2026-05-07T14:21:19.000Z</time>
      </trkpt>
      <trkpt lat="43.57288" lon="2.96827">
        <ele>233.5</ele>
        <time>2026-05-07T14:21:20.000Z</time>
      </trkpt>
      <trkpt lat="43.57287" lon="2.96829">
        <ele>233.7</ele>
        <time>2026-05-07T14:21:21.000Z</time>
      </trkpt>
      <trkpt lat="43.57287" lon="2.96831">
        <ele>233.7</ele>
        <time>2026-05-07T14:21:22.000Z</time>
      </trkpt>
      <trkpt lat="43.57287" lon="2.96832">
        <ele>233.9</ele>
        <time>2026-05-07T14:21:23.000Z</time>
      </trkpt>
      <trkpt lat="43.57286" lon="2.96832">
        <ele>233.9</ele>
        <time>2026-05-07T14:21:24.000Z</time>
      </trkpt>
      <trkpt lat="43.57286" lon="2.96832">
        <ele>234.3</ele>
        <time>2026-05-07T14:21:25.000Z</time>
      </trkpt>
      <trkpt lat="43.57286" lon="2.96832">
        <ele>234.5</ele>
        <time>2026-05-07T14:21:26.000Z</time>
      </trkpt>
      <trkpt lat="43.57286" lon="2.96832">
        <ele>234.6</ele>
        <time>2026-05-07T14:21:27.000Z</time>
      </trkpt>
      <trkpt lat="43.57286" lon="2.96832">
        <ele>234.8</ele>
        <time>2026-05-07T14:21:28.000Z</time>
      </trkpt>
      <trkpt lat="43.57286" lon="2.96832">
        <ele>235</ele>
        <time>2026-05-07T14:21:29.000Z</time>
      </trkpt>
      <trkpt lat="43.57286" lon="2.96832">
        <ele>235.2</ele>
        <time>2026-05-07T14:21:30.000Z</time>
      </trkpt>
      <trkpt lat="43.57286" lon="2.96832">
        <ele>235</ele>
        <time>2026-05-07T14:21:31.000Z</time>
      </trkpt>
      <trkpt lat="43.57286" lon="2.96832">
        <ele>234.5</ele>
        <time>2026-05-07T14:21:32.000Z</time>
      </trkpt>
      <trkpt lat="43.57286" lon="2.96833">
        <ele>234.2</ele>
        <time>2026-05-07T14:21:33.000Z</time>
      </trkpt>
      <trkpt lat="43.57286" lon="2.96833">
        <ele>234.2</ele>
        <time>2026-05-07T14:21:34.000Z</time>
      </trkpt>
      <trkpt lat="43.57287" lon="2.96834">
        <ele>234.6</ele>
        <time>2026-05-07T14:21:35.000Z</time>
      </trkpt>
      <trkpt lat="43.57287" lon="2.96834">
        <ele>234.7</ele>
        <time>2026-05-07T14:21:36.000Z</time>
      </trkpt>
      <trkpt lat="43.57287" lon="2.96834">
        <ele>235.1</ele>
        <time>2026-05-07T14:21:37.000Z</time>
      </trkpt>
      <trkpt lat="43.57287" lon="2.96834">
        <ele>234.8</ele>
        <time>2026-05-07T14:21:38.000Z</time>
      </trkpt>
      <trkpt lat="43.57287" lon="2.96834">
        <ele>235</ele>
        <time>2026-05-07T14:21:39.000Z</time>
      </trkpt>
      <trkpt lat="43.57287" lon="2.96834">
        <ele>235.4</ele>
        <time>2026-05-07T14:21:40.000Z</time>
      </trkpt>
      <trkpt lat="43.57287" lon="2.96835">
        <ele>235.6</ele>
        <time>2026-05-07T14:21:41.000Z</time>
      </trkpt>
      <trkpt lat="43.57287" lon="2.96835">
        <ele>236</ele>
        <time>2026-05-07T14:21:42.000Z</time>
      </trkpt>
      <trkpt lat="43.57287" lon="2.96835">
        <ele>236.5</ele>
        <time>2026-05-07T14:21:43.000Z</time>
      </trkpt>
      <trkpt lat="43.57287" lon="2.96835">
        <ele>237</ele>
        <time>2026-05-07T14:21:44.000Z</time>
      </trkpt>
      <trkpt lat="43.57288" lon="2.96834">
        <ele>237.4</ele>
        <time>2026-05-07T14:21:45.000Z</time>
      </trkpt>
      <trkpt lat="43.57288" lon="2.96834">
        <ele>238</ele>
        <time>2026-05-07T14:21:46.000Z</time>
      </trkpt>
      <trkpt lat="43.57288" lon="2.96834">
        <ele>238.3</ele>
        <time>2026-05-07T14:21:47.000Z</time>
      </trkpt>
      <trkpt lat="43.57288" lon="2.96835">
        <ele>237.8</ele>
        <time>2026-05-07T14:21:48.000Z</time>
      </trkpt>
      <trkpt lat="43.57288" lon="2.96835">
        <ele>237.5</ele>
        <time>2026-05-07T14:21:49.000Z</time>
      </trkpt>
    </trkseg>
  </trk>
</gpx>